<?xml version="1.0" encoding="UTF-8"?>
<gpx version="1.1" creator="https://www.youtrack.es" xsi:schemaLocation="http://www.topografix.com/GPX/1/1 http://www.topografix.com/GPX/1/1/gpx.xsd http://www.garmin.com/xmlschemas/GpxExtensions/v3 http://www.garmin.com/xmlschemas/GpxExtensionsv3.xsd http://www.garmin.com/xmlschemas/TrackPointExtension/v1 http://www.garmin.com/xmlschemas/TrackPointExtensionv1.xsd" xmlns:gpxtpx="http://www.garmin.com/xmlschemas/TrackPointExtension/v1" xmlns:gpxx="http://www.garmin.com/xmlschemas/GpxExtensions/v3" xmlns:xsi="http://www.w3.org/2001/XMLSchema-instance">
  <metadata>
    <link href="https://www.youtrack.es">
      <text>YouTrack.es</text>
    </link>
    <time>2026-05-09T00:28:28Z</time>
  </metadata>
  <trk>
    <src>https://www.youtrack.es</src>
    <link href="https://www.youtrack.es/ruta/2548-superseg">
      <text>YouTrack.es</text>
    </link>
    <trkseg>
      <trkpt lat="38.19093120" lon="-1.89301620">
        <ele>649.00000</ele>
        <time>2018-10-12T08:13:06Z</time>
      </trkpt>
      <trkpt lat="38.19092969" lon="-1.89303807">
        <ele>649.00000</ele>
        <time>2018-10-12T08:13:07Z</time>
      </trkpt>
      <trkpt lat="38.19093103" lon="-1.89327117">
        <ele>649.00000</ele>
        <time>2018-10-12T08:13:17Z</time>
      </trkpt>
      <trkpt lat="38.19092541" lon="-1.89330026">
        <ele>649.00000</ele>
        <time>2018-10-12T08:13:18Z</time>
      </trkpt>
      <trkpt lat="38.19091519" lon="-1.89334703">
        <ele>649.00000</ele>
        <time>2018-10-12T08:13:20Z</time>
      </trkpt>
      <trkpt lat="38.19091946" lon="-1.89337360">
        <ele>650.00000</ele>
        <time>2018-10-12T08:13:22Z</time>
      </trkpt>
      <trkpt lat="38.19095215" lon="-1.89337695">
        <ele>649.00000</ele>
        <time>2018-10-12T08:13:25Z</time>
      </trkpt>
      <trkpt lat="38.19077446" lon="-1.89385590">
        <ele>649.00000</ele>
        <time>2018-10-12T08:13:54Z</time>
      </trkpt>
      <trkpt lat="38.19075266" lon="-1.89384710">
        <ele>649.00000</ele>
        <time>2018-10-12T08:13:56Z</time>
      </trkpt>
      <trkpt lat="38.19062417" lon="-1.89395723">
        <ele>648.00000</ele>
        <time>2018-10-12T08:13:59Z</time>
      </trkpt>
      <trkpt lat="38.19058737" lon="-1.89398263">
        <ele>648.00000</ele>
        <time>2018-10-12T08:14:00Z</time>
      </trkpt>
      <trkpt lat="38.19053792" lon="-1.89401105">
        <ele>648.00000</ele>
        <time>2018-10-12T08:14:01Z</time>
      </trkpt>
      <trkpt lat="38.19037389" lon="-1.89382941">
        <ele>647.00000</ele>
        <time>2018-10-12T08:14:09Z</time>
      </trkpt>
      <trkpt lat="38.19024397" lon="-1.89373319">
        <ele>645.00000</ele>
        <time>2018-10-12T08:14:14Z</time>
      </trkpt>
      <trkpt lat="38.19019032" lon="-1.89369848">
        <ele>645.00000</ele>
        <time>2018-10-12T08:14:16Z</time>
      </trkpt>
      <trkpt lat="38.19014145" lon="-1.89366856">
        <ele>645.00000</ele>
        <time>2018-10-12T08:14:18Z</time>
      </trkpt>
      <trkpt lat="38.18995898" lon="-1.89352590">
        <ele>644.00000</ele>
        <time>2018-10-12T08:14:28Z</time>
      </trkpt>
      <trkpt lat="38.18985857" lon="-1.89349003">
        <ele>644.00000</ele>
        <time>2018-10-12T08:14:31Z</time>
      </trkpt>
      <trkpt lat="38.18973845" lon="-1.89345583">
        <ele>643.00000</ele>
        <time>2018-10-12T08:14:34Z</time>
      </trkpt>
      <trkpt lat="38.18959898" lon="-1.89346916">
        <ele>642.00000</ele>
        <time>2018-10-12T08:14:37Z</time>
      </trkpt>
      <trkpt lat="38.18934735" lon="-1.89349204">
        <ele>641.00000</ele>
        <time>2018-10-12T08:14:43Z</time>
      </trkpt>
      <trkpt lat="38.18932305" lon="-1.89347016">
        <ele>641.00000</ele>
        <time>2018-10-12T08:14:44Z</time>
      </trkpt>
      <trkpt lat="38.18930083" lon="-1.89344258">
        <ele>641.00000</ele>
        <time>2018-10-12T08:14:45Z</time>
      </trkpt>
      <trkpt lat="38.18925750" lon="-1.89332121">
        <ele>641.00000</ele>
        <time>2018-10-12T08:14:48Z</time>
      </trkpt>
      <trkpt lat="38.18914049" lon="-1.89306314">
        <ele>640.00000</ele>
        <time>2018-10-12T08:14:54Z</time>
      </trkpt>
      <trkpt lat="38.18891753" lon="-1.89251965">
        <ele>639.00000</ele>
        <time>2018-10-12T08:15:07Z</time>
      </trkpt>
      <trkpt lat="38.18889657" lon="-1.89232201">
        <ele>638.00000</ele>
        <time>2018-10-12T08:15:11Z</time>
      </trkpt>
      <trkpt lat="38.18888316" lon="-1.89222578">
        <ele>637.00000</ele>
        <time>2018-10-12T08:15:13Z</time>
      </trkpt>
      <trkpt lat="38.18888191" lon="-1.89206921">
        <ele>637.00000</ele>
        <time>2018-10-12T08:15:16Z</time>
      </trkpt>
      <trkpt lat="38.18884327" lon="-1.89186209">
        <ele>636.00000</ele>
        <time>2018-10-12T08:15:19Z</time>
      </trkpt>
      <trkpt lat="38.18883103" lon="-1.89178649">
        <ele>636.00000</ele>
        <time>2018-10-12T08:15:20Z</time>
      </trkpt>
      <trkpt lat="38.18878526" lon="-1.89150947">
        <ele>635.00000</ele>
        <time>2018-10-12T08:15:24Z</time>
      </trkpt>
      <trkpt lat="38.18878862" lon="-1.89131685">
        <ele>633.00000</ele>
        <time>2018-10-12T08:15:27Z</time>
      </trkpt>
      <trkpt lat="38.18879289" lon="-1.89117955">
        <ele>633.00000</ele>
        <time>2018-10-12T08:15:29Z</time>
      </trkpt>
      <trkpt lat="38.18877797" lon="-1.89111317">
        <ele>632.00000</ele>
        <time>2018-10-12T08:15:30Z</time>
      </trkpt>
      <trkpt lat="38.18870337" lon="-1.89089323">
        <ele>632.00000</ele>
        <time>2018-10-12T08:15:33Z</time>
      </trkpt>
      <trkpt lat="38.18867110" lon="-1.89080933">
        <ele>631.00000</ele>
        <time>2018-10-12T08:15:34Z</time>
      </trkpt>
      <trkpt lat="38.18853825" lon="-1.89054848">
        <ele>630.00000</ele>
        <time>2018-10-12T08:15:38Z</time>
      </trkpt>
      <trkpt lat="38.18848100" lon="-1.89043331">
        <ele>628.00000</ele>
        <time>2018-10-12T08:15:40Z</time>
      </trkpt>
      <trkpt lat="38.18841906" lon="-1.89031454">
        <ele>626.00000</ele>
        <time>2018-10-12T08:15:42Z</time>
      </trkpt>
      <trkpt lat="38.18834890" lon="-1.89018311">
        <ele>625.00000</ele>
        <time>2018-10-12T08:15:44Z</time>
      </trkpt>
      <trkpt lat="38.18830691" lon="-1.89010491">
        <ele>625.00000</ele>
        <time>2018-10-12T08:15:45Z</time>
      </trkpt>
      <trkpt lat="38.18820104" lon="-1.88993635">
        <ele>624.00000</ele>
        <time>2018-10-12T08:15:47Z</time>
      </trkpt>
      <trkpt lat="38.18813960" lon="-1.88985069">
        <ele>624.00000</ele>
        <time>2018-10-12T08:15:48Z</time>
      </trkpt>
      <trkpt lat="38.18800608" lon="-1.88966528">
        <ele>623.00000</ele>
        <time>2018-10-12T08:15:50Z</time>
      </trkpt>
      <trkpt lat="38.18786929" lon="-1.88948364">
        <ele>621.00000</ele>
        <time>2018-10-12T08:15:52Z</time>
      </trkpt>
      <trkpt lat="38.18774557" lon="-1.88930260">
        <ele>619.00000</ele>
        <time>2018-10-12T08:15:54Z</time>
      </trkpt>
      <trkpt lat="38.18768640" lon="-1.88920788">
        <ele>617.00000</ele>
        <time>2018-10-12T08:15:55Z</time>
      </trkpt>
      <trkpt lat="38.18762923" lon="-1.88910663">
        <ele>616.00000</ele>
        <time>2018-10-12T08:15:56Z</time>
      </trkpt>
      <trkpt lat="38.18757659" lon="-1.88900009">
        <ele>614.00000</ele>
        <time>2018-10-12T08:15:57Z</time>
      </trkpt>
      <trkpt lat="38.18749772" lon="-1.88877663">
        <ele>613.00000</ele>
        <time>2018-10-12T08:15:59Z</time>
      </trkpt>
      <trkpt lat="38.18750853" lon="-1.88829350">
        <ele>612.00000</ele>
        <time>2018-10-12T08:16:03Z</time>
      </trkpt>
      <trkpt lat="38.18758221" lon="-1.88805361">
        <ele>610.00000</ele>
        <time>2018-10-12T08:16:05Z</time>
      </trkpt>
      <trkpt lat="38.18762906" lon="-1.88794104">
        <ele>610.00000</ele>
        <time>2018-10-12T08:16:06Z</time>
      </trkpt>
      <trkpt lat="38.18773308" lon="-1.88771221">
        <ele>609.00000</ele>
        <time>2018-10-12T08:16:08Z</time>
      </trkpt>
      <trkpt lat="38.18783836" lon="-1.88747794">
        <ele>608.00000</ele>
        <time>2018-10-12T08:16:10Z</time>
      </trkpt>
      <trkpt lat="38.18793760" lon="-1.88725280">
        <ele>606.00000</ele>
        <time>2018-10-12T08:16:12Z</time>
      </trkpt>
      <trkpt lat="38.18806794" lon="-1.88696832">
        <ele>604.00000</ele>
        <time>2018-10-12T08:16:15Z</time>
      </trkpt>
      <trkpt lat="38.18813173" lon="-1.88682323">
        <ele>603.00000</ele>
        <time>2018-10-12T08:16:17Z</time>
      </trkpt>
      <trkpt lat="38.18821915" lon="-1.88659952">
        <ele>602.00000</ele>
        <time>2018-10-12T08:16:25Z</time>
      </trkpt>
      <trkpt lat="38.18824480" lon="-1.88650388">
        <ele>603.00000</ele>
        <time>2018-10-12T08:17:07Z</time>
      </trkpt>
      <trkpt lat="38.18842560" lon="-1.88615913">
        <ele>602.00000</ele>
        <time>2018-10-12T08:17:13Z</time>
      </trkpt>
      <trkpt lat="38.18851981" lon="-1.88594916">
        <ele>602.00000</ele>
        <time>2018-10-12T08:17:16Z</time>
      </trkpt>
      <trkpt lat="38.18866264" lon="-1.88564415">
        <ele>600.00000</ele>
        <time>2018-10-12T08:17:20Z</time>
      </trkpt>
      <trkpt lat="38.18877613" lon="-1.88539185">
        <ele>599.00000</ele>
        <time>2018-10-12T08:17:23Z</time>
      </trkpt>
      <trkpt lat="38.18894444" lon="-1.88502883">
        <ele>598.00000</ele>
        <time>2018-10-12T08:17:27Z</time>
      </trkpt>
      <trkpt lat="38.18912398" lon="-1.88463790">
        <ele>596.00000</ele>
        <time>2018-10-12T08:17:31Z</time>
      </trkpt>
      <trkpt lat="38.18926630" lon="-1.88432928">
        <ele>595.00000</ele>
        <time>2018-10-12T08:17:34Z</time>
      </trkpt>
      <trkpt lat="38.18946001" lon="-1.88389878">
        <ele>594.00000</ele>
        <time>2018-10-12T08:17:38Z</time>
      </trkpt>
      <trkpt lat="38.18966385" lon="-1.88344364">
        <ele>592.00000</ele>
        <time>2018-10-12T08:17:42Z</time>
      </trkpt>
      <trkpt lat="38.18977324" lon="-1.88320149">
        <ele>591.00000</ele>
        <time>2018-10-12T08:17:44Z</time>
      </trkpt>
      <trkpt lat="38.18988690" lon="-1.88295029">
        <ele>590.00000</ele>
        <time>2018-10-12T08:17:46Z</time>
      </trkpt>
      <trkpt lat="38.19000357" lon="-1.88269187">
        <ele>589.00000</ele>
        <time>2018-10-12T08:17:48Z</time>
      </trkpt>
      <trkpt lat="38.19018026" lon="-1.88229926">
        <ele>587.00000</ele>
        <time>2018-10-12T08:17:51Z</time>
      </trkpt>
      <trkpt lat="38.19029652" lon="-1.88203942">
        <ele>586.00000</ele>
        <time>2018-10-12T08:17:53Z</time>
      </trkpt>
      <trkpt lat="38.19035436" lon="-1.88191059">
        <ele>584.00000</ele>
        <time>2018-10-12T08:17:54Z</time>
      </trkpt>
      <trkpt lat="38.19047053" lon="-1.88165570">
        <ele>583.00000</ele>
        <time>2018-10-12T08:17:56Z</time>
      </trkpt>
      <trkpt lat="38.19058679" lon="-1.88139947">
        <ele>582.00000</ele>
        <time>2018-10-12T08:17:58Z</time>
      </trkpt>
      <trkpt lat="38.19086490" lon="-1.88078172">
        <ele>581.00000</ele>
        <time>2018-10-12T08:18:03Z</time>
      </trkpt>
      <trkpt lat="38.19111543" lon="-1.88022960">
        <ele>580.00000</ele>
        <time>2018-10-12T08:18:08Z</time>
      </trkpt>
      <trkpt lat="38.19139061" lon="-1.87960624">
        <ele>580.00000</ele>
        <time>2018-10-12T08:18:14Z</time>
      </trkpt>
      <trkpt lat="38.19164617" lon="-1.87901741">
        <ele>580.00000</ele>
        <time>2018-10-12T08:18:20Z</time>
      </trkpt>
      <trkpt lat="38.19172404" lon="-1.87881985">
        <ele>580.00000</ele>
        <time>2018-10-12T08:18:22Z</time>
      </trkpt>
      <trkpt lat="38.19189906" lon="-1.87815902">
        <ele>580.00000</ele>
        <time>2018-10-12T08:18:29Z</time>
      </trkpt>
      <trkpt lat="38.19192362" lon="-1.87798049">
        <ele>580.00000</ele>
        <time>2018-10-12T08:18:31Z</time>
      </trkpt>
      <trkpt lat="38.19194063" lon="-1.87780581">
        <ele>580.00000</ele>
        <time>2018-10-12T08:18:33Z</time>
      </trkpt>
      <trkpt lat="38.19195505" lon="-1.87753859">
        <ele>580.00000</ele>
        <time>2018-10-12T08:18:36Z</time>
      </trkpt>
      <trkpt lat="38.19196452" lon="-1.87735067">
        <ele>581.00000</ele>
        <time>2018-10-12T08:18:38Z</time>
      </trkpt>
      <trkpt lat="38.19197466" lon="-1.87715680">
        <ele>582.00000</ele>
        <time>2018-10-12T08:18:40Z</time>
      </trkpt>
      <trkpt lat="38.19200425" lon="-1.87654685">
        <ele>582.00000</ele>
        <time>2018-10-12T08:18:46Z</time>
      </trkpt>
      <trkpt lat="38.19202713" lon="-1.87611292">
        <ele>581.00000</ele>
        <time>2018-10-12T08:18:50Z</time>
      </trkpt>
      <trkpt lat="38.19206175" lon="-1.87542627">
        <ele>581.00000</ele>
        <time>2018-10-12T08:18:56Z</time>
      </trkpt>
      <trkpt lat="38.19207382" lon="-1.87518873">
        <ele>580.00000</ele>
        <time>2018-10-12T08:18:58Z</time>
      </trkpt>
      <trkpt lat="38.19207960" lon="-1.87506937">
        <ele>579.00000</ele>
        <time>2018-10-12T08:18:59Z</time>
      </trkpt>
      <trkpt lat="38.19210802" lon="-1.87447140">
        <ele>578.00000</ele>
        <time>2018-10-12T08:19:04Z</time>
      </trkpt>
      <trkpt lat="38.19214356" lon="-1.87398475">
        <ele>577.00000</ele>
        <time>2018-10-12T08:19:08Z</time>
      </trkpt>
      <trkpt lat="38.19217499" lon="-1.87374059">
        <ele>576.00000</ele>
        <time>2018-10-12T08:19:10Z</time>
      </trkpt>
      <trkpt lat="38.19219443" lon="-1.87361796">
        <ele>576.00000</ele>
        <time>2018-10-12T08:19:11Z</time>
      </trkpt>
      <trkpt lat="38.19227306" lon="-1.87325268">
        <ele>575.00000</ele>
        <time>2018-10-12T08:19:14Z</time>
      </trkpt>
      <trkpt lat="38.19233341" lon="-1.87300709">
        <ele>574.00000</ele>
        <time>2018-10-12T08:19:16Z</time>
      </trkpt>
      <trkpt lat="38.19245788" lon="-1.87250920">
        <ele>572.00000</ele>
        <time>2018-10-12T08:19:20Z</time>
      </trkpt>
      <trkpt lat="38.19251798" lon="-1.87225573">
        <ele>571.00000</ele>
        <time>2018-10-12T08:19:22Z</time>
      </trkpt>
      <trkpt lat="38.19254832" lon="-1.87212707">
        <ele>571.00000</ele>
        <time>2018-10-12T08:19:23Z</time>
      </trkpt>
      <trkpt lat="38.19257774" lon="-1.87199656">
        <ele>570.00000</ele>
        <time>2018-10-12T08:19:24Z</time>
      </trkpt>
      <trkpt lat="38.19262853" lon="-1.87172809">
        <ele>569.00000</ele>
        <time>2018-10-12T08:19:26Z</time>
      </trkpt>
      <trkpt lat="38.19265477" lon="-1.87145073">
        <ele>569.00000</ele>
        <time>2018-10-12T08:19:28Z</time>
      </trkpt>
      <trkpt lat="38.19264840" lon="-1.87102275">
        <ele>567.00000</ele>
        <time>2018-10-12T08:19:31Z</time>
      </trkpt>
      <trkpt lat="38.19263390" lon="-1.87073836">
        <ele>566.00000</ele>
        <time>2018-10-12T08:19:33Z</time>
      </trkpt>
      <trkpt lat="38.19261839" lon="-1.87045731">
        <ele>565.00000</ele>
        <time>2018-10-12T08:19:35Z</time>
      </trkpt>
      <trkpt lat="38.19260196" lon="-1.87017811">
        <ele>564.00000</ele>
        <time>2018-10-12T08:19:37Z</time>
      </trkpt>
      <trkpt lat="38.19258503" lon="-1.86989958">
        <ele>562.00000</ele>
        <time>2018-10-12T08:19:39Z</time>
      </trkpt>
      <trkpt lat="38.19256274" lon="-1.86947638">
        <ele>561.00000</ele>
        <time>2018-10-12T08:19:42Z</time>
      </trkpt>
      <trkpt lat="38.19252435" lon="-1.86873416">
        <ele>560.00000</ele>
        <time>2018-10-12T08:19:47Z</time>
      </trkpt>
      <trkpt lat="38.19250708" lon="-1.86842646">
        <ele>559.00000</ele>
        <time>2018-10-12T08:19:49Z</time>
      </trkpt>
      <trkpt lat="38.19249560" lon="-1.86827098">
        <ele>558.00000</ele>
        <time>2018-10-12T08:19:50Z</time>
      </trkpt>
      <trkpt lat="38.19246911" lon="-1.86795623">
        <ele>556.00000</ele>
        <time>2018-10-12T08:19:52Z</time>
      </trkpt>
      <trkpt lat="38.19243935" lon="-1.86763906">
        <ele>554.00000</ele>
        <time>2018-10-12T08:19:54Z</time>
      </trkpt>
      <trkpt lat="38.19240742" lon="-1.86731829">
        <ele>553.00000</ele>
        <time>2018-10-12T08:19:56Z</time>
      </trkpt>
      <trkpt lat="38.19237699" lon="-1.86699131">
        <ele>551.00000</ele>
        <time>2018-10-12T08:19:58Z</time>
      </trkpt>
      <trkpt lat="38.19234355" lon="-1.86666534">
        <ele>550.00000</ele>
        <time>2018-10-12T08:20:00Z</time>
      </trkpt>
      <trkpt lat="38.19230441" lon="-1.86634163">
        <ele>548.00000</ele>
        <time>2018-10-12T08:20:02Z</time>
      </trkpt>
      <trkpt lat="38.19226518" lon="-1.86601691">
        <ele>547.00000</ele>
        <time>2018-10-12T08:20:04Z</time>
      </trkpt>
      <trkpt lat="38.19222436" lon="-1.86569279">
        <ele>545.00000</ele>
        <time>2018-10-12T08:20:06Z</time>
      </trkpt>
      <trkpt lat="38.19218639" lon="-1.86537025">
        <ele>544.00000</ele>
        <time>2018-10-12T08:20:08Z</time>
      </trkpt>
      <trkpt lat="38.19215454" lon="-1.86504939">
        <ele>543.00000</ele>
        <time>2018-10-12T08:20:10Z</time>
      </trkpt>
      <trkpt lat="38.19213065" lon="-1.86472895">
        <ele>541.00000</ele>
        <time>2018-10-12T08:20:12Z</time>
      </trkpt>
      <trkpt lat="38.19211204" lon="-1.86441228">
        <ele>540.00000</ele>
        <time>2018-10-12T08:20:14Z</time>
      </trkpt>
      <trkpt lat="38.19210953" lon="-1.86409645">
        <ele>538.00000</ele>
        <time>2018-10-12T08:20:16Z</time>
      </trkpt>
      <trkpt lat="38.19213492" lon="-1.86378322">
        <ele>537.00000</ele>
        <time>2018-10-12T08:20:18Z</time>
      </trkpt>
      <trkpt lat="38.19218329" lon="-1.86347393">
        <ele>536.00000</ele>
        <time>2018-10-12T08:20:20Z</time>
      </trkpt>
      <trkpt lat="38.19223609" lon="-1.86316740">
        <ele>535.00000</ele>
        <time>2018-10-12T08:20:22Z</time>
      </trkpt>
      <trkpt lat="38.19231337" lon="-1.86271671">
        <ele>533.00000</ele>
        <time>2018-10-12T08:20:25Z</time>
      </trkpt>
      <trkpt lat="38.19239602" lon="-1.86228252">
        <ele>532.00000</ele>
        <time>2018-10-12T08:20:28Z</time>
      </trkpt>
      <trkpt lat="38.19245235" lon="-1.86200425">
        <ele>531.00000</ele>
        <time>2018-10-12T08:20:30Z</time>
      </trkpt>
      <trkpt lat="38.19255243" lon="-1.86160376">
        <ele>530.00000</ele>
        <time>2018-10-12T08:20:33Z</time>
      </trkpt>
      <trkpt lat="38.19279139" lon="-1.86085341">
        <ele>529.00000</ele>
        <time>2018-10-12T08:20:39Z</time>
      </trkpt>
      <trkpt lat="38.19294420" lon="-1.86043197">
        <ele>529.00000</ele>
        <time>2018-10-12T08:20:43Z</time>
      </trkpt>
      <trkpt lat="38.19297831" lon="-1.86035242">
        <ele>529.00000</ele>
        <time>2018-10-12T08:20:44Z</time>
      </trkpt>
      <trkpt lat="38.19333932" lon="-1.86030465">
        <ele>530.00000</ele>
        <time>2018-10-12T08:20:50Z</time>
      </trkpt>
      <trkpt lat="38.19347452" lon="-1.86036977">
        <ele>529.00000</ele>
        <time>2018-10-12T08:20:52Z</time>
      </trkpt>
      <trkpt lat="38.19370594" lon="-1.86043985">
        <ele>529.00000</ele>
        <time>2018-10-12T08:20:55Z</time>
      </trkpt>
      <trkpt lat="38.19387366" lon="-1.86040095">
        <ele>529.00000</ele>
        <time>2018-10-12T08:20:57Z</time>
      </trkpt>
      <trkpt lat="38.19403485" lon="-1.86029752">
        <ele>528.00000</ele>
        <time>2018-10-12T08:20:59Z</time>
      </trkpt>
      <trkpt lat="38.19411481" lon="-1.86023717">
        <ele>528.00000</ele>
        <time>2018-10-12T08:21:00Z</time>
      </trkpt>
      <trkpt lat="38.19427709" lon="-1.86011002">
        <ele>526.00000</ele>
        <time>2018-10-12T08:21:02Z</time>
      </trkpt>
      <trkpt lat="38.19453273" lon="-1.85992310">
        <ele>525.00000</ele>
        <time>2018-10-12T08:21:05Z</time>
      </trkpt>
      <trkpt lat="38.19470498" lon="-1.85979561">
        <ele>523.00000</ele>
        <time>2018-10-12T08:21:07Z</time>
      </trkpt>
      <trkpt lat="38.19496273" lon="-1.85959973">
        <ele>522.00000</ele>
        <time>2018-10-12T08:21:10Z</time>
      </trkpt>
      <trkpt lat="38.19521930" lon="-1.85940787">
        <ele>520.00000</ele>
        <time>2018-10-12T08:21:13Z</time>
      </trkpt>
      <trkpt lat="38.19555608" lon="-1.85915700">
        <ele>519.00000</ele>
        <time>2018-10-12T08:21:17Z</time>
      </trkpt>
      <trkpt lat="38.19588398" lon="-1.85890797">
        <ele>518.00000</ele>
        <time>2018-10-12T08:21:21Z</time>
      </trkpt>
      <trkpt lat="38.19621398" lon="-1.85866070">
        <ele>517.00000</ele>
        <time>2018-10-12T08:21:25Z</time>
      </trkpt>
      <trkpt lat="38.19629721" lon="-1.85859784">
        <ele>517.00000</ele>
        <time>2018-10-12T08:21:26Z</time>
      </trkpt>
      <trkpt lat="38.19646744" lon="-1.85846935">
        <ele>517.00000</ele>
        <time>2018-10-12T08:21:28Z</time>
      </trkpt>
      <trkpt lat="38.19691772" lon="-1.85813533">
        <ele>516.00000</ele>
        <time>2018-10-12T08:21:33Z</time>
      </trkpt>
      <trkpt lat="38.19721260" lon="-1.85791731">
        <ele>515.00000</ele>
        <time>2018-10-12T08:21:36Z</time>
      </trkpt>
      <trkpt lat="38.19741200" lon="-1.85776744">
        <ele>513.00000</ele>
        <time>2018-10-12T08:21:38Z</time>
      </trkpt>
      <trkpt lat="38.19761233" lon="-1.85762177">
        <ele>512.00000</ele>
        <time>2018-10-12T08:21:40Z</time>
      </trkpt>
      <trkpt lat="38.19780687" lon="-1.85747668">
        <ele>510.00000</ele>
        <time>2018-10-12T08:21:42Z</time>
      </trkpt>
      <trkpt lat="38.19799572" lon="-1.85733226">
        <ele>508.00000</ele>
        <time>2018-10-12T08:21:44Z</time>
      </trkpt>
      <trkpt lat="38.19827693" lon="-1.85711902">
        <ele>507.00000</ele>
        <time>2018-10-12T08:21:47Z</time>
      </trkpt>
      <trkpt lat="38.19856242" lon="-1.85690620">
        <ele>506.00000</ele>
        <time>2018-10-12T08:21:50Z</time>
      </trkpt>
      <trkpt lat="38.19884380" lon="-1.85669565">
        <ele>505.00000</ele>
        <time>2018-10-12T08:21:53Z</time>
      </trkpt>
      <trkpt lat="38.19911772" lon="-1.85648845">
        <ele>504.00000</ele>
        <time>2018-10-12T08:21:56Z</time>
      </trkpt>
      <trkpt lat="38.19921034" lon="-1.85642005">
        <ele>503.00000</ele>
        <time>2018-10-12T08:21:57Z</time>
      </trkpt>
      <trkpt lat="38.19966883" lon="-1.85608469">
        <ele>502.00000</ele>
        <time>2018-10-12T08:22:02Z</time>
      </trkpt>
      <trkpt lat="38.20020871" lon="-1.85568504">
        <ele>501.00000</ele>
        <time>2018-10-12T08:22:08Z</time>
      </trkpt>
      <trkpt lat="38.20029789" lon="-1.85561807">
        <ele>500.00000</ele>
        <time>2018-10-12T08:22:09Z</time>
      </trkpt>
      <trkpt lat="38.20056905" lon="-1.85541565">
        <ele>499.00000</ele>
        <time>2018-10-12T08:22:12Z</time>
      </trkpt>
      <trkpt lat="38.20083509" lon="-1.85521440">
        <ele>498.00000</ele>
        <time>2018-10-12T08:22:15Z</time>
      </trkpt>
      <trkpt lat="38.20110121" lon="-1.85501734">
        <ele>497.00000</ele>
        <time>2018-10-12T08:22:18Z</time>
      </trkpt>
      <trkpt lat="38.20145233" lon="-1.85475440">
        <ele>496.00000</ele>
        <time>2018-10-12T08:22:22Z</time>
      </trkpt>
      <trkpt lat="38.20197092" lon="-1.85436171">
        <ele>495.00000</ele>
        <time>2018-10-12T08:22:28Z</time>
      </trkpt>
      <trkpt lat="38.20230678" lon="-1.85410983">
        <ele>494.00000</ele>
        <time>2018-10-12T08:22:32Z</time>
      </trkpt>
      <trkpt lat="38.20277743" lon="-1.85375193">
        <ele>493.00000</ele>
        <time>2018-10-12T08:22:38Z</time>
      </trkpt>
      <trkpt lat="38.20309611" lon="-1.85351120">
        <ele>493.00000</ele>
        <time>2018-10-12T08:22:42Z</time>
      </trkpt>
      <trkpt lat="38.20344018" lon="-1.85325111">
        <ele>493.00000</ele>
        <time>2018-10-12T08:22:46Z</time>
      </trkpt>
      <trkpt lat="38.20352786" lon="-1.85318447">
        <ele>493.00000</ele>
        <time>2018-10-12T08:22:47Z</time>
      </trkpt>
      <trkpt lat="38.20370874" lon="-1.85304977">
        <ele>492.00000</ele>
        <time>2018-10-12T08:22:49Z</time>
      </trkpt>
      <trkpt lat="38.20389063" lon="-1.85291441">
        <ele>490.00000</ele>
        <time>2018-10-12T08:22:51Z</time>
      </trkpt>
      <trkpt lat="38.20407084" lon="-1.85277929">
        <ele>489.00000</ele>
        <time>2018-10-12T08:22:53Z</time>
      </trkpt>
      <trkpt lat="38.20424702" lon="-1.85264585">
        <ele>488.00000</ele>
        <time>2018-10-12T08:22:55Z</time>
      </trkpt>
      <trkpt lat="38.20442313" lon="-1.85251601">
        <ele>487.00000</ele>
        <time>2018-10-12T08:22:57Z</time>
      </trkpt>
      <trkpt lat="38.20468255" lon="-1.85232952">
        <ele>485.00000</ele>
        <time>2018-10-12T08:23:00Z</time>
      </trkpt>
      <trkpt lat="38.20504649" lon="-1.85215610">
        <ele>484.00000</ele>
        <time>2018-10-12T08:23:04Z</time>
      </trkpt>
      <trkpt lat="38.20543130" lon="-1.85205115">
        <ele>483.00000</ele>
        <time>2018-10-12T08:23:08Z</time>
      </trkpt>
      <trkpt lat="38.20592743" lon="-1.85190321">
        <ele>482.00000</ele>
        <time>2018-10-12T08:23:13Z</time>
      </trkpt>
      <trkpt lat="38.20623345" lon="-1.85176709">
        <ele>481.00000</ele>
        <time>2018-10-12T08:23:16Z</time>
      </trkpt>
      <trkpt lat="38.20644359" lon="-1.85167154">
        <ele>479.00000</ele>
        <time>2018-10-12T08:23:18Z</time>
      </trkpt>
      <trkpt lat="38.20665783" lon="-1.85157498">
        <ele>478.00000</ele>
        <time>2018-10-12T08:23:20Z</time>
      </trkpt>
      <trkpt lat="38.20687433" lon="-1.85148010">
        <ele>476.00000</ele>
        <time>2018-10-12T08:23:22Z</time>
      </trkpt>
      <trkpt lat="38.20709033" lon="-1.85138178">
        <ele>475.00000</ele>
        <time>2018-10-12T08:23:24Z</time>
      </trkpt>
      <trkpt lat="38.20730248" lon="-1.85125621">
        <ele>473.00000</ele>
        <time>2018-10-12T08:23:26Z</time>
      </trkpt>
      <trkpt lat="38.20749551" lon="-1.85107969">
        <ele>472.00000</ele>
        <time>2018-10-12T08:23:28Z</time>
      </trkpt>
      <trkpt lat="38.20767673" lon="-1.85087450">
        <ele>471.00000</ele>
        <time>2018-10-12T08:23:30Z</time>
      </trkpt>
      <trkpt lat="38.20785569" lon="-1.85066001">
        <ele>469.00000</ele>
        <time>2018-10-12T08:23:32Z</time>
      </trkpt>
      <trkpt lat="38.20803615" lon="-1.85043873">
        <ele>468.00000</ele>
        <time>2018-10-12T08:23:34Z</time>
      </trkpt>
      <trkpt lat="38.20821753" lon="-1.85021527">
        <ele>466.00000</ele>
        <time>2018-10-12T08:23:36Z</time>
      </trkpt>
      <trkpt lat="38.20839808" lon="-1.84999281">
        <ele>464.00000</ele>
        <time>2018-10-12T08:23:38Z</time>
      </trkpt>
      <trkpt lat="38.20857544" lon="-1.84977287">
        <ele>463.00000</ele>
        <time>2018-10-12T08:23:40Z</time>
      </trkpt>
      <trkpt lat="38.20874886" lon="-1.84955972">
        <ele>461.00000</ele>
        <time>2018-10-12T08:23:42Z</time>
      </trkpt>
      <trkpt lat="38.20891457" lon="-1.84934774">
        <ele>459.00000</ele>
        <time>2018-10-12T08:23:44Z</time>
      </trkpt>
      <trkpt lat="38.20898741" lon="-1.84923416">
        <ele>458.00000</ele>
        <time>2018-10-12T08:23:45Z</time>
      </trkpt>
      <trkpt lat="38.20904558" lon="-1.84910793">
        <ele>458.00000</ele>
        <time>2018-10-12T08:23:46Z</time>
      </trkpt>
      <trkpt lat="38.20913401" lon="-1.84868507">
        <ele>457.00000</ele>
        <time>2018-10-12T08:23:49Z</time>
      </trkpt>
      <trkpt lat="38.20920945" lon="-1.84811250">
        <ele>456.00000</ele>
        <time>2018-10-12T08:23:53Z</time>
      </trkpt>
      <trkpt lat="38.20925345" lon="-1.84798023">
        <ele>455.00000</ele>
        <time>2018-10-12T08:23:54Z</time>
      </trkpt>
      <trkpt lat="38.20948605" lon="-1.84768879">
        <ele>454.00000</ele>
        <time>2018-10-12T08:23:57Z</time>
      </trkpt>
      <trkpt lat="38.20978947" lon="-1.84758586">
        <ele>453.00000</ele>
        <time>2018-10-12T08:24:00Z</time>
      </trkpt>
      <trkpt lat="38.20988905" lon="-1.84757069">
        <ele>452.00000</ele>
        <time>2018-10-12T08:24:01Z</time>
      </trkpt>
      <trkpt lat="38.21042315" lon="-1.84743105">
        <ele>452.00000</ele>
        <time>2018-10-12T08:24:07Z</time>
      </trkpt>
      <trkpt lat="38.21049691" lon="-1.84738243">
        <ele>452.00000</ele>
        <time>2018-10-12T08:24:08Z</time>
      </trkpt>
      <trkpt lat="38.21056220" lon="-1.84732686">
        <ele>452.00000</ele>
        <time>2018-10-12T08:24:09Z</time>
      </trkpt>
      <trkpt lat="38.21071358" lon="-1.84713835">
        <ele>453.00000</ele>
        <time>2018-10-12T08:24:12Z</time>
      </trkpt>
      <trkpt lat="38.21089505" lon="-1.84684985">
        <ele>454.00000</ele>
        <time>2018-10-12T08:24:17Z</time>
      </trkpt>
      <trkpt lat="38.21092480" lon="-1.84679587">
        <ele>455.00000</ele>
        <time>2018-10-12T08:24:18Z</time>
      </trkpt>
      <trkpt lat="38.21095389" lon="-1.84674491">
        <ele>456.00000</ele>
        <time>2018-10-12T08:24:19Z</time>
      </trkpt>
      <trkpt lat="38.21098306" lon="-1.84669638">
        <ele>456.00000</ele>
        <time>2018-10-12T08:24:20Z</time>
      </trkpt>
      <trkpt lat="38.21101214" lon="-1.84664919">
        <ele>457.00000</ele>
        <time>2018-10-12T08:24:21Z</time>
      </trkpt>
      <trkpt lat="38.21107174" lon="-1.84655698">
        <ele>459.00000</ele>
        <time>2018-10-12T08:24:23Z</time>
      </trkpt>
      <trkpt lat="38.21113091" lon="-1.84646562">
        <ele>460.00000</ele>
        <time>2018-10-12T08:24:25Z</time>
      </trkpt>
      <trkpt lat="38.21115983" lon="-1.84642036">
        <ele>460.00000</ele>
        <time>2018-10-12T08:24:26Z</time>
      </trkpt>
      <trkpt lat="38.21121892" lon="-1.84633185">
        <ele>461.00000</ele>
        <time>2018-10-12T08:24:28Z</time>
      </trkpt>
      <trkpt lat="38.21124642" lon="-1.84628675">
        <ele>462.00000</ele>
        <time>2018-10-12T08:24:29Z</time>
      </trkpt>
      <trkpt lat="38.21130098" lon="-1.84619748">
        <ele>462.00000</ele>
        <time>2018-10-12T08:24:31Z</time>
      </trkpt>
      <trkpt lat="38.21132730" lon="-1.84615323">
        <ele>463.00000</ele>
        <time>2018-10-12T08:24:32Z</time>
      </trkpt>
      <trkpt lat="38.21143233" lon="-1.84597377">
        <ele>464.00000</ele>
        <time>2018-10-12T08:24:36Z</time>
      </trkpt>
      <trkpt lat="38.21148782" lon="-1.84588618">
        <ele>464.00000</ele>
        <time>2018-10-12T08:24:38Z</time>
      </trkpt>
      <trkpt lat="38.21151556" lon="-1.84584209">
        <ele>465.00000</ele>
        <time>2018-10-12T08:24:39Z</time>
      </trkpt>
      <trkpt lat="38.21162461" lon="-1.84566138">
        <ele>466.00000</ele>
        <time>2018-10-12T08:24:43Z</time>
      </trkpt>
      <trkpt lat="38.21165420" lon="-1.84561410">
        <ele>466.00000</ele>
        <time>2018-10-12T08:24:44Z</time>
      </trkpt>
      <trkpt lat="38.21178571" lon="-1.84540053">
        <ele>467.00000</ele>
        <time>2018-10-12T08:24:48Z</time>
      </trkpt>
      <trkpt lat="38.21208922" lon="-1.84491539">
        <ele>467.00000</ele>
        <time>2018-10-12T08:24:56Z</time>
      </trkpt>
      <trkpt lat="38.21233103" lon="-1.84452144">
        <ele>467.00000</ele>
        <time>2018-10-12T08:25:02Z</time>
      </trkpt>
      <trkpt lat="38.21267855" lon="-1.84397092">
        <ele>466.00000</ele>
        <time>2018-10-12T08:25:10Z</time>
      </trkpt>
      <trkpt lat="38.21276731" lon="-1.84383102">
        <ele>466.00000</ele>
        <time>2018-10-12T08:25:12Z</time>
      </trkpt>
      <trkpt lat="38.21310879" lon="-1.84328737">
        <ele>465.00000</ele>
        <time>2018-10-12T08:25:20Z</time>
      </trkpt>
      <trkpt lat="38.21345421" lon="-1.84273886">
        <ele>466.00000</ele>
        <time>2018-10-12T08:25:29Z</time>
      </trkpt>
      <trkpt lat="38.21362654" lon="-1.84245698">
        <ele>467.00000</ele>
        <time>2018-10-12T08:25:34Z</time>
      </trkpt>
      <trkpt lat="38.21379183" lon="-1.84219538">
        <ele>468.00000</ele>
        <time>2018-10-12T08:25:39Z</time>
      </trkpt>
      <trkpt lat="38.21398336" lon="-1.84189095">
        <ele>469.00000</ele>
        <time>2018-10-12T08:25:45Z</time>
      </trkpt>
      <trkpt lat="38.21416877" lon="-1.84159230">
        <ele>470.00000</ele>
        <time>2018-10-12T08:25:51Z</time>
      </trkpt>
      <trkpt lat="38.21432258" lon="-1.84134277">
        <ele>471.00000</ele>
        <time>2018-10-12T08:25:56Z</time>
      </trkpt>
      <trkpt lat="38.21452190" lon="-1.84102568">
        <ele>473.00000</ele>
        <time>2018-10-12T08:26:02Z</time>
      </trkpt>
      <trkpt lat="38.21491861" lon="-1.84051095">
        <ele>473.00000</ele>
        <time>2018-10-12T08:26:12Z</time>
      </trkpt>
      <trkpt lat="38.21516135" lon="-1.84025262">
        <ele>473.00000</ele>
        <time>2018-10-12T08:26:17Z</time>
      </trkpt>
      <trkpt lat="38.21540862" lon="-1.83998616">
        <ele>473.00000</ele>
        <time>2018-10-12T08:26:22Z</time>
      </trkpt>
      <trkpt lat="38.21585194" lon="-1.83951560">
        <ele>472.00000</ele>
        <time>2018-10-12T08:26:30Z</time>
      </trkpt>
      <trkpt lat="38.21596995" lon="-1.83938962">
        <ele>471.00000</ele>
        <time>2018-10-12T08:26:32Z</time>
      </trkpt>
      <trkpt lat="38.21615042" lon="-1.83919684">
        <ele>470.00000</ele>
        <time>2018-10-12T08:26:35Z</time>
      </trkpt>
      <trkpt lat="38.21639869" lon="-1.83893364">
        <ele>469.00000</ele>
        <time>2018-10-12T08:26:39Z</time>
      </trkpt>
      <trkpt lat="38.21678074" lon="-1.83852218">
        <ele>468.00000</ele>
        <time>2018-10-12T08:26:45Z</time>
      </trkpt>
      <trkpt lat="38.21710897" lon="-1.83816896">
        <ele>467.00000</ele>
        <time>2018-10-12T08:26:50Z</time>
      </trkpt>
      <trkpt lat="38.21724166" lon="-1.83802622">
        <ele>467.00000</ele>
        <time>2018-10-12T08:26:52Z</time>
      </trkpt>
      <trkpt lat="38.21744282" lon="-1.83781365">
        <ele>466.00000</ele>
        <time>2018-10-12T08:26:55Z</time>
      </trkpt>
      <trkpt lat="38.21751021" lon="-1.83774224">
        <ele>466.00000</ele>
        <time>2018-10-12T08:26:56Z</time>
      </trkpt>
      <trkpt lat="38.21757760" lon="-1.83767032">
        <ele>466.00000</ele>
        <time>2018-10-12T08:26:57Z</time>
      </trkpt>
      <trkpt lat="38.21778053" lon="-1.83745181">
        <ele>465.00000</ele>
        <time>2018-10-12T08:27:00Z</time>
      </trkpt>
      <trkpt lat="38.21784909" lon="-1.83737930">
        <ele>465.00000</ele>
        <time>2018-10-12T08:27:01Z</time>
      </trkpt>
      <trkpt lat="38.21812628" lon="-1.83708300">
        <ele>464.00000</ele>
        <time>2018-10-12T08:27:05Z</time>
      </trkpt>
      <trkpt lat="38.21834002" lon="-1.83685518">
        <ele>463.00000</ele>
        <time>2018-10-12T08:27:08Z</time>
      </trkpt>
      <trkpt lat="38.21841236" lon="-1.83677715">
        <ele>463.00000</ele>
        <time>2018-10-12T08:27:09Z</time>
      </trkpt>
      <trkpt lat="38.21871419" lon="-1.83645528">
        <ele>461.00000</ele>
        <time>2018-10-12T08:27:13Z</time>
      </trkpt>
      <trkpt lat="38.21894972" lon="-1.83620617">
        <ele>460.00000</ele>
        <time>2018-10-12T08:27:16Z</time>
      </trkpt>
      <trkpt lat="38.21918810" lon="-1.83595195">
        <ele>458.00000</ele>
        <time>2018-10-12T08:27:19Z</time>
      </trkpt>
      <trkpt lat="38.21934602" lon="-1.83578364">
        <ele>456.00000</ele>
        <time>2018-10-12T08:27:21Z</time>
      </trkpt>
      <trkpt lat="38.21950251" lon="-1.83561768">
        <ele>455.00000</ele>
        <time>2018-10-12T08:27:23Z</time>
      </trkpt>
      <trkpt lat="38.21973410" lon="-1.83537175">
        <ele>454.00000</ele>
        <time>2018-10-12T08:27:26Z</time>
      </trkpt>
      <trkpt lat="38.22004331" lon="-1.83504318">
        <ele>453.00000</ele>
        <time>2018-10-12T08:27:30Z</time>
      </trkpt>
      <trkpt lat="38.22035277" lon="-1.83471520">
        <ele>452.00000</ele>
        <time>2018-10-12T08:27:34Z</time>
      </trkpt>
      <trkpt lat="38.22058210" lon="-1.83447179">
        <ele>451.00000</ele>
        <time>2018-10-12T08:27:37Z</time>
      </trkpt>
      <trkpt lat="38.22073314" lon="-1.83431094">
        <ele>450.00000</ele>
        <time>2018-10-12T08:27:39Z</time>
      </trkpt>
      <trkpt lat="38.22095618" lon="-1.83407164">
        <ele>450.00000</ele>
        <time>2018-10-12T08:27:42Z</time>
      </trkpt>
      <trkpt lat="38.22103019" lon="-1.83399285">
        <ele>449.00000</ele>
        <time>2018-10-12T08:27:43Z</time>
      </trkpt>
      <trkpt lat="38.22117721" lon="-1.83383627">
        <ele>449.00000</ele>
        <time>2018-10-12T08:27:45Z</time>
      </trkpt>
      <trkpt lat="38.22132272" lon="-1.83368129">
        <ele>448.00000</ele>
        <time>2018-10-12T08:27:47Z</time>
      </trkpt>
      <trkpt lat="38.22173980" lon="-1.83323437">
        <ele>448.00000</ele>
        <time>2018-10-12T08:27:53Z</time>
      </trkpt>
      <trkpt lat="38.22213920" lon="-1.83281150">
        <ele>448.00000</ele>
        <time>2018-10-12T08:27:59Z</time>
      </trkpt>
      <trkpt lat="38.22245252" lon="-1.83248042">
        <ele>448.00000</ele>
        <time>2018-10-12T08:28:04Z</time>
      </trkpt>
      <trkpt lat="38.22280364" lon="-1.83210491">
        <ele>448.00000</ele>
        <time>2018-10-12T08:28:10Z</time>
      </trkpt>
      <trkpt lat="38.22308527" lon="-1.83180467">
        <ele>449.00000</ele>
        <time>2018-10-12T08:28:15Z</time>
      </trkpt>
      <trkpt lat="38.22314025" lon="-1.83174608">
        <ele>449.00000</ele>
        <time>2018-10-12T08:28:16Z</time>
      </trkpt>
      <trkpt lat="38.22351895" lon="-1.83134391">
        <ele>450.00000</ele>
        <time>2018-10-12T08:28:23Z</time>
      </trkpt>
      <trkpt lat="38.22394525" lon="-1.83089322">
        <ele>451.00000</ele>
        <time>2018-10-12T08:28:31Z</time>
      </trkpt>
      <trkpt lat="38.22436711" lon="-1.83044739">
        <ele>451.00000</ele>
        <time>2018-10-12T08:28:39Z</time>
      </trkpt>
      <trkpt lat="38.22455151" lon="-1.83024915">
        <ele>451.00000</ele>
        <time>2018-10-12T08:28:43Z</time>
      </trkpt>
      <trkpt lat="38.22476693" lon="-1.83002301">
        <ele>452.00000</ele>
        <time>2018-10-12T08:28:48Z</time>
      </trkpt>
      <trkpt lat="38.22488746" lon="-1.82989284">
        <ele>453.00000</ele>
        <time>2018-10-12T08:28:51Z</time>
      </trkpt>
      <trkpt lat="38.22500715" lon="-1.82976133">
        <ele>454.00000</ele>
        <time>2018-10-12T08:28:54Z</time>
      </trkpt>
      <trkpt lat="38.22508796" lon="-1.82967927">
        <ele>454.00000</ele>
        <time>2018-10-12T08:28:56Z</time>
      </trkpt>
      <trkpt lat="38.22520212" lon="-1.82956033">
        <ele>455.00000</ele>
        <time>2018-10-12T08:28:59Z</time>
      </trkpt>
      <trkpt lat="38.22527647" lon="-1.82947995">
        <ele>456.00000</ele>
        <time>2018-10-12T08:29:01Z</time>
      </trkpt>
      <trkpt lat="38.22542541" lon="-1.82932740">
        <ele>457.00000</ele>
        <time>2018-10-12T08:29:05Z</time>
      </trkpt>
      <trkpt lat="38.22560545" lon="-1.82913579">
        <ele>458.00000</ele>
        <time>2018-10-12T08:29:10Z</time>
      </trkpt>
      <trkpt lat="38.22582171" lon="-1.82890973">
        <ele>459.00000</ele>
        <time>2018-10-12T08:29:16Z</time>
      </trkpt>
      <trkpt lat="38.22600670" lon="-1.82872004">
        <ele>460.00000</ele>
        <time>2018-10-12T08:29:21Z</time>
      </trkpt>
      <trkpt lat="38.22626134" lon="-1.82847068">
        <ele>461.00000</ele>
        <time>2018-10-12T08:29:27Z</time>
      </trkpt>
      <trkpt lat="38.22630870" lon="-1.82842802">
        <ele>461.00000</ele>
        <time>2018-10-12T08:29:28Z</time>
      </trkpt>
      <trkpt lat="38.22671815" lon="-1.82810942">
        <ele>461.00000</ele>
        <time>2018-10-12T08:29:36Z</time>
      </trkpt>
      <trkpt lat="38.22693013" lon="-1.82795880">
        <ele>460.00000</ele>
        <time>2018-10-12T08:29:40Z</time>
      </trkpt>
      <trkpt lat="38.22740631" lon="-1.82762998">
        <ele>460.00000</ele>
        <time>2018-10-12T08:29:49Z</time>
      </trkpt>
      <trkpt lat="38.22765709" lon="-1.82744985">
        <ele>461.00000</ele>
        <time>2018-10-12T08:29:54Z</time>
      </trkpt>
      <trkpt lat="38.22775952" lon="-1.82737818">
        <ele>461.00000</ele>
        <time>2018-10-12T08:29:56Z</time>
      </trkpt>
      <trkpt lat="38.22791467" lon="-1.82727232">
        <ele>462.00000</ele>
        <time>2018-10-12T08:29:59Z</time>
      </trkpt>
      <trkpt lat="38.22839143" lon="-1.82693989">
        <ele>462.00000</ele>
        <time>2018-10-12T08:30:08Z</time>
      </trkpt>
      <trkpt lat="38.22860651" lon="-1.82679329">
        <ele>462.00000</ele>
        <time>2018-10-12T08:30:12Z</time>
      </trkpt>
      <trkpt lat="38.22910892" lon="-1.82643983">
        <ele>462.00000</ele>
        <time>2018-10-12T08:30:21Z</time>
      </trkpt>
      <trkpt lat="38.22922518" lon="-1.82636163">
        <ele>462.00000</ele>
        <time>2018-10-12T08:30:23Z</time>
      </trkpt>
      <trkpt lat="38.22958141" lon="-1.82611352">
        <ele>461.00000</ele>
        <time>2018-10-12T08:30:29Z</time>
      </trkpt>
      <trkpt lat="38.22999992" lon="-1.82581781">
        <ele>461.00000</ele>
        <time>2018-10-12T08:30:36Z</time>
      </trkpt>
      <trkpt lat="38.23011768" lon="-1.82573458">
        <ele>461.00000</ele>
        <time>2018-10-12T08:30:38Z</time>
      </trkpt>
      <trkpt lat="38.23059411" lon="-1.82540240">
        <ele>461.00000</ele>
        <time>2018-10-12T08:30:46Z</time>
      </trkpt>
      <trkpt lat="38.23111119" lon="-1.82504072">
        <ele>460.00000</ele>
        <time>2018-10-12T08:30:55Z</time>
      </trkpt>
      <trkpt lat="38.23162198" lon="-1.82467728">
        <ele>461.00000</ele>
        <time>2018-10-12T08:31:04Z</time>
      </trkpt>
      <trkpt lat="38.23188677" lon="-1.82448919">
        <ele>461.00000</ele>
        <time>2018-10-12T08:31:09Z</time>
      </trkpt>
      <trkpt lat="38.23214594" lon="-1.82431016">
        <ele>461.00000</ele>
        <time>2018-10-12T08:31:14Z</time>
      </trkpt>
      <trkpt lat="38.23244861" lon="-1.82409960">
        <ele>462.00000</ele>
        <time>2018-10-12T08:31:20Z</time>
      </trkpt>
      <trkpt lat="38.23285052" lon="-1.82381529">
        <ele>463.00000</ele>
        <time>2018-10-12T08:31:28Z</time>
      </trkpt>
      <trkpt lat="38.23300089" lon="-1.82371261">
        <ele>463.00000</ele>
        <time>2018-10-12T08:31:31Z</time>
      </trkpt>
      <trkpt lat="38.23351562" lon="-1.82335847">
        <ele>464.00000</ele>
        <time>2018-10-12T08:31:41Z</time>
      </trkpt>
      <trkpt lat="38.23387756" lon="-1.82310526">
        <ele>464.00000</ele>
        <time>2018-10-12T08:31:48Z</time>
      </trkpt>
      <trkpt lat="38.23438860" lon="-1.82274986">
        <ele>464.00000</ele>
        <time>2018-10-12T08:31:58Z</time>
      </trkpt>
      <trkpt lat="38.23468850" lon="-1.82254191">
        <ele>465.00000</ele>
        <time>2018-10-12T08:32:04Z</time>
      </trkpt>
      <trkpt lat="38.23519041" lon="-1.82220160">
        <ele>466.00000</ele>
        <time>2018-10-12T08:32:14Z</time>
      </trkpt>
      <trkpt lat="38.23528890" lon="-1.82213245">
        <ele>466.00000</ele>
        <time>2018-10-12T08:32:16Z</time>
      </trkpt>
      <trkpt lat="38.23580430" lon="-1.82177002">
        <ele>467.00000</ele>
        <time>2018-10-12T08:32:27Z</time>
      </trkpt>
      <trkpt lat="38.23602609" lon="-1.82161923">
        <ele>468.00000</ele>
        <time>2018-10-12T08:32:32Z</time>
      </trkpt>
      <trkpt lat="38.23628450" lon="-1.82143793">
        <ele>469.00000</ele>
        <time>2018-10-12T08:32:38Z</time>
      </trkpt>
      <trkpt lat="38.23650369" lon="-1.82128337">
        <ele>470.00000</ele>
        <time>2018-10-12T08:32:43Z</time>
      </trkpt>
      <trkpt lat="38.23694298" lon="-1.82097743">
        <ele>471.00000</ele>
        <time>2018-10-12T08:32:53Z</time>
      </trkpt>
      <trkpt lat="38.23745973" lon="-1.82062019">
        <ele>472.00000</ele>
        <time>2018-10-12T08:33:04Z</time>
      </trkpt>
      <trkpt lat="38.23764924" lon="-1.82048927">
        <ele>472.00000</ele>
        <time>2018-10-12T08:33:08Z</time>
      </trkpt>
      <trkpt lat="38.23816188" lon="-1.82014418">
        <ele>473.00000</ele>
        <time>2018-10-12T08:33:19Z</time>
      </trkpt>
      <trkpt lat="38.23825039" lon="-1.82008040">
        <ele>474.00000</ele>
        <time>2018-10-12T08:33:21Z</time>
      </trkpt>
      <trkpt lat="38.23861568" lon="-1.81983095">
        <ele>474.00000</ele>
        <time>2018-10-12T08:33:29Z</time>
      </trkpt>
      <trkpt lat="38.23866136" lon="-1.81979918">
        <ele>475.00000</ele>
        <time>2018-10-12T08:33:30Z</time>
      </trkpt>
      <trkpt lat="38.23892556" lon="-1.81960204">
        <ele>476.00000</ele>
        <time>2018-10-12T08:33:36Z</time>
      </trkpt>
      <trkpt lat="38.23924482" lon="-1.81936760">
        <ele>477.00000</ele>
        <time>2018-10-12T08:33:43Z</time>
      </trkpt>
      <trkpt lat="38.23966291" lon="-1.81907557">
        <ele>478.00000</ele>
        <time>2018-10-12T08:33:52Z</time>
      </trkpt>
      <trkpt lat="38.24014764" lon="-1.81872764">
        <ele>479.00000</ele>
        <time>2018-10-12T08:34:02Z</time>
      </trkpt>
      <trkpt lat="38.24024386" lon="-1.81865639">
        <ele>479.00000</ele>
        <time>2018-10-12T08:34:04Z</time>
      </trkpt>
      <trkpt lat="38.24058744" lon="-1.81840519">
        <ele>480.00000</ele>
        <time>2018-10-12T08:34:11Z</time>
      </trkpt>
      <trkpt lat="38.24089136" lon="-1.81818885">
        <ele>480.00000</ele>
        <time>2018-10-12T08:34:17Z</time>
      </trkpt>
      <trkpt lat="38.24104316" lon="-1.81808416">
        <ele>480.00000</ele>
        <time>2018-10-12T08:34:20Z</time>
      </trkpt>
      <trkpt lat="38.24154783" lon="-1.81775174">
        <ele>480.00000</ele>
        <time>2018-10-12T08:34:30Z</time>
      </trkpt>
      <trkpt lat="38.24193575" lon="-1.81749349">
        <ele>481.00000</ele>
        <time>2018-10-12T08:34:38Z</time>
      </trkpt>
      <trkpt lat="38.24233531" lon="-1.81722250">
        <ele>482.00000</ele>
        <time>2018-10-12T08:34:47Z</time>
      </trkpt>
      <trkpt lat="38.24251058" lon="-1.81709962">
        <ele>483.00000</ele>
        <time>2018-10-12T08:34:51Z</time>
      </trkpt>
      <trkpt lat="38.24289984" lon="-1.81681531">
        <ele>484.00000</ele>
        <time>2018-10-12T08:35:00Z</time>
      </trkpt>
      <trkpt lat="38.24332497" lon="-1.81650459">
        <ele>485.00000</ele>
        <time>2018-10-12T08:35:10Z</time>
      </trkpt>
      <trkpt lat="38.24381539" lon="-1.81616764">
        <ele>486.00000</ele>
        <time>2018-10-12T08:35:21Z</time>
      </trkpt>
      <trkpt lat="38.24431462" lon="-1.81582826">
        <ele>487.00000</ele>
        <time>2018-10-12T08:35:31Z</time>
      </trkpt>
      <trkpt lat="38.24480270" lon="-1.81540145">
        <ele>487.00000</ele>
        <time>2018-10-12T08:35:41Z</time>
      </trkpt>
      <trkpt lat="38.24513655" lon="-1.81495729">
        <ele>487.00000</ele>
        <time>2018-10-12T08:35:49Z</time>
      </trkpt>
      <trkpt lat="38.24520972" lon="-1.81483282">
        <ele>487.00000</ele>
        <time>2018-10-12T08:35:51Z</time>
      </trkpt>
      <trkpt lat="38.24541340" lon="-1.81444130">
        <ele>487.00000</ele>
        <time>2018-10-12T08:35:57Z</time>
      </trkpt>
      <trkpt lat="38.24557919" lon="-1.81410033">
        <ele>487.00000</ele>
        <time>2018-10-12T08:36:02Z</time>
      </trkpt>
      <trkpt lat="38.24588631" lon="-1.81353388">
        <ele>486.00000</ele>
        <time>2018-10-12T08:36:10Z</time>
      </trkpt>
      <trkpt lat="38.24615905" lon="-1.81309073">
        <ele>485.00000</ele>
        <time>2018-10-12T08:36:16Z</time>
      </trkpt>
      <trkpt lat="38.24620616" lon="-1.81301814">
        <ele>485.00000</ele>
        <time>2018-10-12T08:36:17Z</time>
      </trkpt>
      <trkpt lat="38.24640163" lon="-1.81272871">
        <ele>484.00000</ele>
        <time>2018-10-12T08:36:21Z</time>
      </trkpt>
      <trkpt lat="38.24644764" lon="-1.81265688">
        <ele>484.00000</ele>
        <time>2018-10-12T08:36:22Z</time>
      </trkpt>
      <trkpt lat="38.24664152" lon="-1.81237164">
        <ele>483.00000</ele>
        <time>2018-10-12T08:36:26Z</time>
      </trkpt>
      <trkpt lat="38.24690806" lon="-1.81193176">
        <ele>482.00000</ele>
        <time>2018-10-12T08:36:32Z</time>
      </trkpt>
      <trkpt lat="38.24706539" lon="-1.81171216">
        <ele>482.00000</ele>
        <time>2018-10-12T08:36:35Z</time>
      </trkpt>
      <trkpt lat="38.24722138" lon="-1.81148987">
        <ele>481.00000</ele>
        <time>2018-10-12T08:36:38Z</time>
      </trkpt>
      <trkpt lat="38.24732213" lon="-1.81134084">
        <ele>481.00000</ele>
        <time>2018-10-12T08:36:40Z</time>
      </trkpt>
      <trkpt lat="38.24763569" lon="-1.81088327">
        <ele>479.00000</ele>
        <time>2018-10-12T08:36:46Z</time>
      </trkpt>
      <trkpt lat="38.24789713" lon="-1.81049292">
        <ele>478.00000</ele>
        <time>2018-10-12T08:36:51Z</time>
      </trkpt>
      <trkpt lat="38.24811397" lon="-1.81016653">
        <ele>477.00000</ele>
        <time>2018-10-12T08:36:55Z</time>
      </trkpt>
      <trkpt lat="38.24833416" lon="-1.80983855">
        <ele>476.00000</ele>
        <time>2018-10-12T08:36:59Z</time>
      </trkpt>
      <trkpt lat="38.24854974" lon="-1.80951400">
        <ele>475.00000</ele>
        <time>2018-10-12T08:37:03Z</time>
      </trkpt>
      <trkpt lat="38.24876298" lon="-1.80919281">
        <ele>473.00000</ele>
        <time>2018-10-12T08:37:07Z</time>
      </trkpt>
      <trkpt lat="38.24914117" lon="-1.80862762">
        <ele>473.00000</ele>
        <time>2018-10-12T08:37:14Z</time>
      </trkpt>
      <trkpt lat="38.24919506" lon="-1.80854656">
        <ele>472.00000</ele>
        <time>2018-10-12T08:37:15Z</time>
      </trkpt>
      <trkpt lat="38.24941224" lon="-1.80822486">
        <ele>471.00000</ele>
        <time>2018-10-12T08:37:19Z</time>
      </trkpt>
      <trkpt lat="38.24978649" lon="-1.80769002">
        <ele>470.00000</ele>
        <time>2018-10-12T08:37:26Z</time>
      </trkpt>
      <trkpt lat="38.25026468" lon="-1.80720043">
        <ele>469.00000</ele>
        <time>2018-10-12T08:37:34Z</time>
      </trkpt>
      <trkpt lat="38.25032696" lon="-1.80714318">
        <ele>469.00000</ele>
        <time>2018-10-12T08:37:35Z</time>
      </trkpt>
      <trkpt lat="38.25038982" lon="-1.80708484">
        <ele>469.00000</ele>
        <time>2018-10-12T08:37:36Z</time>
      </trkpt>
      <trkpt lat="38.25045369" lon="-1.80702575">
        <ele>468.00000</ele>
        <time>2018-10-12T08:37:37Z</time>
      </trkpt>
      <trkpt lat="38.25058520" lon="-1.80690589">
        <ele>468.00000</ele>
        <time>2018-10-12T08:37:39Z</time>
      </trkpt>
      <trkpt lat="38.25078268" lon="-1.80673020">
        <ele>468.00000</ele>
        <time>2018-10-12T08:37:42Z</time>
      </trkpt>
      <trkpt lat="38.25126321" lon="-1.80628923">
        <ele>468.00000</ele>
        <time>2018-10-12T08:37:50Z</time>
      </trkpt>
      <trkpt lat="38.25160553" lon="-1.80590501">
        <ele>469.00000</ele>
        <time>2018-10-12T08:37:57Z</time>
      </trkpt>
      <trkpt lat="38.25168617" lon="-1.80578892">
        <ele>470.00000</ele>
        <time>2018-10-12T08:37:59Z</time>
      </trkpt>
      <trkpt lat="38.25179178" lon="-1.80561223">
        <ele>470.00000</ele>
        <time>2018-10-12T08:38:02Z</time>
      </trkpt>
      <trkpt lat="38.25185657" lon="-1.80548901">
        <ele>471.00000</ele>
        <time>2018-10-12T08:38:04Z</time>
      </trkpt>
      <trkpt lat="38.25193553" lon="-1.80530034">
        <ele>472.00000</ele>
        <time>2018-10-12T08:38:07Z</time>
      </trkpt>
      <trkpt lat="38.25198364" lon="-1.80517796">
        <ele>472.00000</ele>
        <time>2018-10-12T08:38:09Z</time>
      </trkpt>
      <trkpt lat="38.25203309" lon="-1.80505801">
        <ele>472.00000</ele>
        <time>2018-10-12T08:38:11Z</time>
      </trkpt>
      <trkpt lat="38.25208255" lon="-1.80493949">
        <ele>473.00000</ele>
        <time>2018-10-12T08:38:13Z</time>
      </trkpt>
      <trkpt lat="38.25217097" lon="-1.80476540">
        <ele>474.00000</ele>
        <time>2018-10-12T08:38:16Z</time>
      </trkpt>
      <trkpt lat="38.25223979" lon="-1.80465426">
        <ele>475.00000</ele>
        <time>2018-10-12T08:38:18Z</time>
      </trkpt>
      <trkpt lat="38.25227449" lon="-1.80459911">
        <ele>476.00000</ele>
        <time>2018-10-12T08:38:19Z</time>
      </trkpt>
      <trkpt lat="38.25237524" lon="-1.80444153">
        <ele>476.00000</ele>
        <time>2018-10-12T08:38:22Z</time>
      </trkpt>
      <trkpt lat="38.25269736" lon="-1.80403115">
        <ele>477.00000</ele>
        <time>2018-10-12T08:38:30Z</time>
      </trkpt>
      <trkpt lat="38.25313908" lon="-1.80362462">
        <ele>478.00000</ele>
        <time>2018-10-12T08:38:40Z</time>
      </trkpt>
      <trkpt lat="38.25333371" lon="-1.80343603">
        <ele>479.00000</ele>
        <time>2018-10-12T08:38:45Z</time>
      </trkpt>
      <trkpt lat="38.25347084" lon="-1.80328046">
        <ele>480.00000</ele>
        <time>2018-10-12T08:38:49Z</time>
      </trkpt>
      <trkpt lat="38.25359967" lon="-1.80313177">
        <ele>481.00000</ele>
        <time>2018-10-12T08:38:53Z</time>
      </trkpt>
      <trkpt lat="38.25371610" lon="-1.80298006">
        <ele>482.00000</ele>
        <time>2018-10-12T08:38:57Z</time>
      </trkpt>
      <trkpt lat="38.25384845" lon="-1.80279029">
        <ele>483.00000</ele>
        <time>2018-10-12T08:39:02Z</time>
      </trkpt>
      <trkpt lat="38.25395498" lon="-1.80263749">
        <ele>484.00000</ele>
        <time>2018-10-12T08:39:06Z</time>
      </trkpt>
      <trkpt lat="38.25408825" lon="-1.80243934">
        <ele>485.00000</ele>
        <time>2018-10-12T08:39:11Z</time>
      </trkpt>
      <trkpt lat="38.25424608" lon="-1.80219467">
        <ele>487.00000</ele>
        <time>2018-10-12T08:39:17Z</time>
      </trkpt>
      <trkpt lat="38.25437785" lon="-1.80198990">
        <ele>488.00000</ele>
        <time>2018-10-12T08:39:22Z</time>
      </trkpt>
      <trkpt lat="38.25451162" lon="-1.80178572">
        <ele>489.00000</ele>
        <time>2018-10-12T08:39:27Z</time>
      </trkpt>
      <trkpt lat="38.25467884" lon="-1.80155027">
        <ele>490.00000</ele>
        <time>2018-10-12T08:39:33Z</time>
      </trkpt>
      <trkpt lat="38.25486735" lon="-1.80133184">
        <ele>491.00000</ele>
        <time>2018-10-12T08:39:39Z</time>
      </trkpt>
      <trkpt lat="38.25525837" lon="-1.80107552">
        <ele>491.00000</ele>
        <time>2018-10-12T08:39:48Z</time>
      </trkpt>
      <trkpt lat="38.25553564" lon="-1.80105524">
        <ele>491.00000</ele>
        <time>2018-10-12T08:39:52Z</time>
      </trkpt>
      <trkpt lat="38.25561719" lon="-1.80106421">
        <ele>491.00000</ele>
        <time>2018-10-12T08:39:53Z</time>
      </trkpt>
      <trkpt lat="38.25597108" lon="-1.80117334">
        <ele>490.00000</ele>
        <time>2018-10-12T08:39:57Z</time>
      </trkpt>
      <trkpt lat="38.25605976" lon="-1.80122841">
        <ele>490.00000</ele>
        <time>2018-10-12T08:39:58Z</time>
      </trkpt>
      <trkpt lat="38.25623041" lon="-1.80136838">
        <ele>488.00000</ele>
        <time>2018-10-12T08:40:00Z</time>
      </trkpt>
      <trkpt lat="38.25630912" lon="-1.80145111">
        <ele>487.00000</ele>
        <time>2018-10-12T08:40:01Z</time>
      </trkpt>
      <trkpt lat="38.25638732" lon="-1.80153988">
        <ele>486.00000</ele>
        <time>2018-10-12T08:40:02Z</time>
      </trkpt>
      <trkpt lat="38.25645865" lon="-1.80163049">
        <ele>485.00000</ele>
        <time>2018-10-12T08:40:03Z</time>
      </trkpt>
      <trkpt lat="38.25658908" lon="-1.80182847">
        <ele>483.00000</ele>
        <time>2018-10-12T08:40:05Z</time>
      </trkpt>
      <trkpt lat="38.25670760" lon="-1.80202821">
        <ele>482.00000</ele>
        <time>2018-10-12T08:40:07Z</time>
      </trkpt>
      <trkpt lat="38.25681639" lon="-1.80222954">
        <ele>480.00000</ele>
        <time>2018-10-12T08:40:09Z</time>
      </trkpt>
      <trkpt lat="38.25691496" lon="-1.80243154">
        <ele>479.00000</ele>
        <time>2018-10-12T08:40:11Z</time>
      </trkpt>
      <trkpt lat="38.25701882" lon="-1.80261687">
        <ele>478.00000</ele>
        <time>2018-10-12T08:40:13Z</time>
      </trkpt>
      <trkpt lat="38.25726415" lon="-1.80295391">
        <ele>477.00000</ele>
        <time>2018-10-12T08:40:17Z</time>
      </trkpt>
      <trkpt lat="38.25741855" lon="-1.80309372">
        <ele>477.00000</ele>
        <time>2018-10-12T08:40:19Z</time>
      </trkpt>
      <trkpt lat="38.25767386" lon="-1.80326697">
        <ele>477.00000</ele>
        <time>2018-10-12T08:40:22Z</time>
      </trkpt>
      <trkpt lat="38.25805105" lon="-1.80343243">
        <ele>477.00000</ele>
        <time>2018-10-12T08:40:26Z</time>
      </trkpt>
      <trkpt lat="38.25814853" lon="-1.80346042">
        <ele>476.00000</ele>
        <time>2018-10-12T08:40:27Z</time>
      </trkpt>
      <trkpt lat="38.25844516" lon="-1.80353620">
        <ele>475.00000</ele>
        <time>2018-10-12T08:40:30Z</time>
      </trkpt>
      <trkpt lat="38.25864348" lon="-1.80359294">
        <ele>473.00000</ele>
        <time>2018-10-12T08:40:32Z</time>
      </trkpt>
      <trkpt lat="38.25893743" lon="-1.80372160">
        <ele>472.00000</ele>
        <time>2018-10-12T08:40:35Z</time>
      </trkpt>
      <trkpt lat="38.25920959" lon="-1.80392243">
        <ele>470.00000</ele>
        <time>2018-10-12T08:40:38Z</time>
      </trkpt>
      <trkpt lat="38.25943901" lon="-1.80417590">
        <ele>469.00000</ele>
        <time>2018-10-12T08:40:41Z</time>
      </trkpt>
      <trkpt lat="38.25961343" lon="-1.80445267">
        <ele>468.00000</ele>
        <time>2018-10-12T08:40:44Z</time>
      </trkpt>
      <trkpt lat="38.25977244" lon="-1.80479130">
        <ele>468.00000</ele>
        <time>2018-10-12T08:40:48Z</time>
      </trkpt>
      <trkpt lat="38.25981519" lon="-1.80493765">
        <ele>468.00000</ele>
        <time>2018-10-12T08:40:50Z</time>
      </trkpt>
      <trkpt lat="38.25986011" lon="-1.80513337">
        <ele>468.00000</ele>
        <time>2018-10-12T08:40:53Z</time>
      </trkpt>
      <trkpt lat="38.25987646" lon="-1.80526262">
        <ele>470.00000</ele>
        <time>2018-10-12T08:40:55Z</time>
      </trkpt>
      <trkpt lat="38.25988509" lon="-1.80538457">
        <ele>471.00000</ele>
        <time>2018-10-12T08:40:57Z</time>
      </trkpt>
      <trkpt lat="38.25988870" lon="-1.80550980">
        <ele>473.00000</ele>
        <time>2018-10-12T08:40:59Z</time>
      </trkpt>
      <trkpt lat="38.25989297" lon="-1.80563435">
        <ele>474.00000</ele>
        <time>2018-10-12T08:41:01Z</time>
      </trkpt>
      <trkpt lat="38.25989515" lon="-1.80583275">
        <ele>475.00000</ele>
        <time>2018-10-12T08:41:04Z</time>
      </trkpt>
      <trkpt lat="38.25990806" lon="-1.80600911">
        <ele>476.00000</ele>
        <time>2018-10-12T08:41:07Z</time>
      </trkpt>
      <trkpt lat="38.25992331" lon="-1.80617256">
        <ele>477.00000</ele>
        <time>2018-10-12T08:41:10Z</time>
      </trkpt>
      <trkpt lat="38.25992977" lon="-1.80622478">
        <ele>477.00000</ele>
        <time>2018-10-12T08:41:11Z</time>
      </trkpt>
      <trkpt lat="38.25997134" lon="-1.80642234">
        <ele>479.00000</ele>
        <time>2018-10-12T08:41:15Z</time>
      </trkpt>
      <trkpt lat="38.26003136" lon="-1.80660322">
        <ele>480.00000</ele>
        <time>2018-10-12T08:41:19Z</time>
      </trkpt>
      <trkpt lat="38.26010922" lon="-1.80677329">
        <ele>481.00000</ele>
        <time>2018-10-12T08:41:23Z</time>
      </trkpt>
      <trkpt lat="38.26022934" lon="-1.80696892">
        <ele>482.00000</ele>
        <time>2018-10-12T08:41:28Z</time>
      </trkpt>
      <trkpt lat="38.26033352" lon="-1.80710890">
        <ele>483.00000</ele>
        <time>2018-10-12T08:41:32Z</time>
      </trkpt>
      <trkpt lat="38.26047568" lon="-1.80727226">
        <ele>485.00000</ele>
        <time>2018-10-12T08:41:37Z</time>
      </trkpt>
      <trkpt lat="38.26059278" lon="-1.80739967">
        <ele>486.00000</ele>
        <time>2018-10-12T08:41:41Z</time>
      </trkpt>
      <trkpt lat="38.26068079" lon="-1.80749773">
        <ele>487.00000</ele>
        <time>2018-10-12T08:41:44Z</time>
      </trkpt>
      <trkpt lat="38.26070945" lon="-1.80753244">
        <ele>487.00000</ele>
        <time>2018-10-12T08:41:45Z</time>
      </trkpt>
      <trkpt lat="38.26082060" lon="-1.80768214">
        <ele>488.00000</ele>
        <time>2018-10-12T08:41:49Z</time>
      </trkpt>
      <trkpt lat="38.26096720" lon="-1.80792630">
        <ele>489.00000</ele>
        <time>2018-10-12T08:41:55Z</time>
      </trkpt>
      <trkpt lat="38.26111438" lon="-1.80830759">
        <ele>490.00000</ele>
        <time>2018-10-12T08:42:03Z</time>
      </trkpt>
      <trkpt lat="38.26126048" lon="-1.80888888">
        <ele>491.00000</ele>
        <time>2018-10-12T08:42:14Z</time>
      </trkpt>
      <trkpt lat="38.26137498" lon="-1.80926682">
        <ele>493.00000</ele>
        <time>2018-10-12T08:42:21Z</time>
      </trkpt>
      <trkpt lat="38.26168603" lon="-1.80983872">
        <ele>493.00000</ele>
        <time>2018-10-12T08:42:33Z</time>
      </trkpt>
      <trkpt lat="38.26177806" lon="-1.80996847">
        <ele>493.00000</ele>
        <time>2018-10-12T08:42:36Z</time>
      </trkpt>
      <trkpt lat="38.26196179" lon="-1.81021800">
        <ele>495.00000</ele>
        <time>2018-10-12T08:42:42Z</time>
      </trkpt>
      <trkpt lat="38.26217503" lon="-1.81050927">
        <ele>496.00000</ele>
        <time>2018-10-12T08:42:49Z</time>
      </trkpt>
      <trkpt lat="38.26229564" lon="-1.81067733">
        <ele>496.00000</ele>
        <time>2018-10-12T08:42:53Z</time>
      </trkpt>
      <trkpt lat="38.26239011" lon="-1.81080004">
        <ele>497.00000</ele>
        <time>2018-10-12T08:42:56Z</time>
      </trkpt>
      <trkpt lat="38.26261005" lon="-1.81110380">
        <ele>498.00000</ele>
        <time>2018-10-12T08:43:03Z</time>
      </trkpt>
      <trkpt lat="38.26279998" lon="-1.81136422">
        <ele>502.00000</ele>
        <time>2018-10-12T08:43:09Z</time>
      </trkpt>
      <trkpt lat="38.26298941" lon="-1.81165826">
        <ele>500.00000</ele>
        <time>2018-10-12T08:43:15Z</time>
      </trkpt>
      <trkpt lat="38.26330164" lon="-1.81225455">
        <ele>501.00000</ele>
        <time>2018-10-12T08:43:26Z</time>
      </trkpt>
      <trkpt lat="38.26334740" lon="-1.81236879">
        <ele>501.00000</ele>
        <time>2018-10-12T08:43:28Z</time>
      </trkpt>
      <trkpt lat="38.26346509" lon="-1.81264146">
        <ele>502.00000</ele>
        <time>2018-10-12T08:43:33Z</time>
      </trkpt>
      <trkpt lat="38.26348814" lon="-1.81269669">
        <ele>502.00000</ele>
        <time>2018-10-12T08:43:34Z</time>
      </trkpt>
      <trkpt lat="38.26362744" lon="-1.81302979">
        <ele>504.00000</ele>
        <time>2018-10-12T08:43:40Z</time>
      </trkpt>
      <trkpt lat="38.26378016" lon="-1.81345039">
        <ele>505.00000</ele>
        <time>2018-10-12T08:43:47Z</time>
      </trkpt>
      <trkpt lat="38.26388510" lon="-1.81383714">
        <ele>506.00000</ele>
        <time>2018-10-12T08:43:53Z</time>
      </trkpt>
      <trkpt lat="38.26396498" lon="-1.81444508">
        <ele>507.00000</ele>
        <time>2018-10-12T08:44:02Z</time>
      </trkpt>
      <trkpt lat="38.26405006" lon="-1.81486694">
        <ele>508.00000</ele>
        <time>2018-10-12T08:44:09Z</time>
      </trkpt>
      <trkpt lat="38.26410111" lon="-1.81502837">
        <ele>509.00000</ele>
        <time>2018-10-12T08:44:12Z</time>
      </trkpt>
      <trkpt lat="38.26418350" lon="-1.81523465">
        <ele>510.00000</ele>
        <time>2018-10-12T08:44:16Z</time>
      </trkpt>
      <trkpt lat="38.26427704" lon="-1.81542224">
        <ele>511.00000</ele>
        <time>2018-10-12T08:44:20Z</time>
      </trkpt>
      <trkpt lat="38.26438626" lon="-1.81558501">
        <ele>512.00000</ele>
        <time>2018-10-12T08:44:24Z</time>
      </trkpt>
      <trkpt lat="38.26457334" lon="-1.81581669">
        <ele>513.00000</ele>
        <time>2018-10-12T08:44:30Z</time>
      </trkpt>
      <trkpt lat="38.26467803" lon="-1.81591995">
        <ele>514.00000</ele>
        <time>2018-10-12T08:44:33Z</time>
      </trkpt>
      <trkpt lat="38.26483335" lon="-1.81606530">
        <ele>515.00000</ele>
        <time>2018-10-12T08:44:37Z</time>
      </trkpt>
      <trkpt lat="38.26503912" lon="-1.81626495">
        <ele>516.00000</ele>
        <time>2018-10-12T08:44:42Z</time>
      </trkpt>
      <trkpt lat="38.26537784" lon="-1.81669855">
        <ele>517.00000</ele>
        <time>2018-10-12T08:44:51Z</time>
      </trkpt>
      <trkpt lat="38.26545436" lon="-1.81687817">
        <ele>517.00000</ele>
        <time>2018-10-12T08:44:54Z</time>
      </trkpt>
      <trkpt lat="38.26547297" lon="-1.81694456">
        <ele>518.00000</ele>
        <time>2018-10-12T08:44:55Z</time>
      </trkpt>
      <trkpt lat="38.26570222" lon="-1.81763883">
        <ele>518.00000</ele>
        <time>2018-10-12T08:45:05Z</time>
      </trkpt>
      <trkpt lat="38.26594026" lon="-1.81808559">
        <ele>518.00000</ele>
        <time>2018-10-12T08:45:12Z</time>
      </trkpt>
      <trkpt lat="38.26601168" lon="-1.81821249">
        <ele>518.00000</ele>
        <time>2018-10-12T08:45:14Z</time>
      </trkpt>
      <trkpt lat="38.26616674" lon="-1.81846110">
        <ele>518.00000</ele>
        <time>2018-10-12T08:45:18Z</time>
      </trkpt>
      <trkpt lat="38.26634989" lon="-1.81868917">
        <ele>518.00000</ele>
        <time>2018-10-12T08:45:22Z</time>
      </trkpt>
      <trkpt lat="38.26672933" lon="-1.81912067">
        <ele>518.00000</ele>
        <time>2018-10-12T08:45:30Z</time>
      </trkpt>
      <trkpt lat="38.26687300" lon="-1.81928160">
        <ele>517.00000</ele>
        <time>2018-10-12T08:45:33Z</time>
      </trkpt>
      <trkpt lat="38.26731800" lon="-1.81979499">
        <ele>517.00000</ele>
        <time>2018-10-12T08:45:42Z</time>
      </trkpt>
      <trkpt lat="38.26772242" lon="-1.82035055">
        <ele>517.00000</ele>
        <time>2018-10-12T08:45:51Z</time>
      </trkpt>
      <trkpt lat="38.26781596" lon="-1.82056160">
        <ele>517.00000</ele>
        <time>2018-10-12T08:45:54Z</time>
      </trkpt>
      <trkpt lat="38.26796919" lon="-1.82125059">
        <ele>517.00000</ele>
        <time>2018-10-12T08:46:03Z</time>
      </trkpt>
      <trkpt lat="38.26807706" lon="-1.82178125">
        <ele>516.00000</ele>
        <time>2018-10-12T08:46:10Z</time>
      </trkpt>
      <trkpt lat="38.26831293" lon="-1.82241744">
        <ele>516.00000</ele>
        <time>2018-10-12T08:46:19Z</time>
      </trkpt>
      <trkpt lat="38.26859448" lon="-1.82306930">
        <ele>515.00000</ele>
        <time>2018-10-12T08:46:28Z</time>
      </trkpt>
      <trkpt lat="38.26871794" lon="-1.82329352">
        <ele>515.00000</ele>
        <time>2018-10-12T08:46:31Z</time>
      </trkpt>
      <trkpt lat="38.26911265" lon="-1.82379861">
        <ele>514.00000</ele>
        <time>2018-10-12T08:46:38Z</time>
      </trkpt>
      <trkpt lat="38.26917861" lon="-1.82387413">
        <ele>514.00000</ele>
        <time>2018-10-12T08:46:39Z</time>
      </trkpt>
      <trkpt lat="38.26931163" lon="-1.82402601">
        <ele>513.00000</ele>
        <time>2018-10-12T08:46:41Z</time>
      </trkpt>
      <trkpt lat="38.26937810" lon="-1.82410044">
        <ele>513.00000</ele>
        <time>2018-10-12T08:46:42Z</time>
      </trkpt>
      <trkpt lat="38.26950802" lon="-1.82425215">
        <ele>512.00000</ele>
        <time>2018-10-12T08:46:44Z</time>
      </trkpt>
      <trkpt lat="38.26963811" lon="-1.82439615">
        <ele>510.00000</ele>
        <time>2018-10-12T08:46:46Z</time>
      </trkpt>
      <trkpt lat="38.26976677" lon="-1.82453789">
        <ele>509.00000</ele>
        <time>2018-10-12T08:46:48Z</time>
      </trkpt>
      <trkpt lat="38.27001697" lon="-1.82481835">
        <ele>508.00000</ele>
        <time>2018-10-12T08:46:52Z</time>
      </trkpt>
      <trkpt lat="38.27019936" lon="-1.82502019">
        <ele>507.00000</ele>
        <time>2018-10-12T08:46:55Z</time>
      </trkpt>
      <trkpt lat="38.27047688" lon="-1.82532470">
        <ele>507.00000</ele>
        <time>2018-10-12T08:47:00Z</time>
      </trkpt>
      <trkpt lat="38.27062533" lon="-1.82548773">
        <ele>507.00000</ele>
        <time>2018-10-12T08:47:03Z</time>
      </trkpt>
      <trkpt lat="38.27072482" lon="-1.82559502">
        <ele>507.00000</ele>
        <time>2018-10-12T08:47:05Z</time>
      </trkpt>
      <trkpt lat="38.27087804" lon="-1.82576199">
        <ele>508.00000</ele>
        <time>2018-10-12T08:47:08Z</time>
      </trkpt>
      <trkpt lat="38.27092967" lon="-1.82581898">
        <ele>509.00000</ele>
        <time>2018-10-12T08:47:09Z</time>
      </trkpt>
      <trkpt lat="38.27112623" lon="-1.82606415">
        <ele>509.00000</ele>
        <time>2018-10-12T08:47:13Z</time>
      </trkpt>
      <trkpt lat="38.27142857" lon="-1.82668785">
        <ele>510.00000</ele>
        <time>2018-10-12T08:47:22Z</time>
      </trkpt>
      <trkpt lat="38.27154113" lon="-1.82694065">
        <ele>510.00000</ele>
        <time>2018-10-12T08:47:26Z</time>
      </trkpt>
      <trkpt lat="38.27169201" lon="-1.82727810">
        <ele>511.00000</ele>
        <time>2018-10-12T08:47:31Z</time>
      </trkpt>
      <trkpt lat="38.27196869" lon="-1.82794354">
        <ele>511.00000</ele>
        <time>2018-10-12T08:47:40Z</time>
      </trkpt>
      <trkpt lat="38.27219157" lon="-1.82856154">
        <ele>511.00000</ele>
        <time>2018-10-12T08:47:49Z</time>
      </trkpt>
      <trkpt lat="38.27226240" lon="-1.82876514">
        <ele>512.00000</ele>
        <time>2018-10-12T08:47:52Z</time>
      </trkpt>
      <trkpt lat="38.27249801" lon="-1.82940132">
        <ele>513.00000</ele>
        <time>2018-10-12T08:48:02Z</time>
      </trkpt>
      <trkpt lat="38.27256591" lon="-1.82958967">
        <ele>513.00000</ele>
        <time>2018-10-12T08:48:05Z</time>
      </trkpt>
      <trkpt lat="38.27265408" lon="-1.82983425">
        <ele>514.00000</ele>
        <time>2018-10-12T08:48:09Z</time>
      </trkpt>
      <trkpt lat="38.27278610" lon="-1.83018579">
        <ele>515.00000</ele>
        <time>2018-10-12T08:48:15Z</time>
      </trkpt>
      <trkpt lat="38.27287998" lon="-1.83044194">
        <ele>516.00000</ele>
        <time>2018-10-12T08:48:19Z</time>
      </trkpt>
      <trkpt lat="38.27311500" lon="-1.83107041">
        <ele>517.00000</ele>
        <time>2018-10-12T08:48:28Z</time>
      </trkpt>
      <trkpt lat="38.27334014" lon="-1.83167383">
        <ele>516.00000</ele>
        <time>2018-10-12T08:48:36Z</time>
      </trkpt>
      <trkpt lat="38.27348507" lon="-1.83206610">
        <ele>515.00000</ele>
        <time>2018-10-12T08:48:41Z</time>
      </trkpt>
      <trkpt lat="38.27354365" lon="-1.83222292">
        <ele>515.00000</ele>
        <time>2018-10-12T08:48:43Z</time>
      </trkpt>
      <trkpt lat="38.27379947" lon="-1.83291963">
        <ele>514.00000</ele>
        <time>2018-10-12T08:48:52Z</time>
      </trkpt>
      <trkpt lat="38.27405587" lon="-1.83360745">
        <ele>514.00000</ele>
        <time>2018-10-12T08:49:01Z</time>
      </trkpt>
      <trkpt lat="38.27429073" lon="-1.83423726">
        <ele>514.00000</ele>
        <time>2018-10-12T08:49:10Z</time>
      </trkpt>
      <trkpt lat="38.27445284" lon="-1.83467471">
        <ele>516.00000</ele>
        <time>2018-10-12T08:49:17Z</time>
      </trkpt>
      <trkpt lat="38.27451964" lon="-1.83485023">
        <ele>517.00000</ele>
        <time>2018-10-12T08:49:20Z</time>
      </trkpt>
      <trkpt lat="38.27462593" lon="-1.83513605">
        <ele>518.00000</ele>
        <time>2018-10-12T08:49:25Z</time>
      </trkpt>
      <trkpt lat="38.27471327" lon="-1.83537033">
        <ele>519.00000</ele>
        <time>2018-10-12T08:49:29Z</time>
      </trkpt>
      <trkpt lat="38.27486707" lon="-1.83579169">
        <ele>520.00000</ele>
        <time>2018-10-12T08:49:36Z</time>
      </trkpt>
      <trkpt lat="38.27488912" lon="-1.83585195">
        <ele>520.00000</ele>
        <time>2018-10-12T08:49:37Z</time>
      </trkpt>
      <trkpt lat="38.27502599" lon="-1.83622570">
        <ele>521.00000</ele>
        <time>2018-10-12T08:49:43Z</time>
      </trkpt>
      <trkpt lat="38.27526044" lon="-1.83686876">
        <ele>522.00000</ele>
        <time>2018-10-12T08:49:53Z</time>
      </trkpt>
      <trkpt lat="38.27533001" lon="-1.83706020">
        <ele>522.00000</ele>
        <time>2018-10-12T08:49:56Z</time>
      </trkpt>
      <trkpt lat="38.27556453" lon="-1.83769354">
        <ele>523.00000</ele>
        <time>2018-10-12T08:50:06Z</time>
      </trkpt>
      <trkpt lat="38.27561239" lon="-1.83782421">
        <ele>523.00000</ele>
        <time>2018-10-12T08:50:08Z</time>
      </trkpt>
      <trkpt lat="38.27584960" lon="-1.83847582">
        <ele>524.00000</ele>
        <time>2018-10-12T08:50:18Z</time>
      </trkpt>
      <trkpt lat="38.27594046" lon="-1.83873390">
        <ele>524.00000</ele>
        <time>2018-10-12T08:50:22Z</time>
      </trkpt>
      <trkpt lat="38.27596343" lon="-1.83879819">
        <ele>524.00000</ele>
        <time>2018-10-12T08:50:23Z</time>
      </trkpt>
      <trkpt lat="38.27614204" lon="-1.83929809">
        <ele>525.00000</ele>
        <time>2018-10-12T08:50:31Z</time>
      </trkpt>
      <trkpt lat="38.27637305" lon="-1.83992874">
        <ele>526.00000</ele>
        <time>2018-10-12T08:50:41Z</time>
      </trkpt>
      <trkpt lat="38.27660213" lon="-1.84057272">
        <ele>527.00000</ele>
        <time>2018-10-12T08:50:52Z</time>
      </trkpt>
      <trkpt lat="38.27661923" lon="-1.84063048">
        <ele>527.00000</ele>
        <time>2018-10-12T08:50:53Z</time>
      </trkpt>
      <trkpt lat="38.27672526" lon="-1.84096307">
        <ele>528.00000</ele>
        <time>2018-10-12T08:50:59Z</time>
      </trkpt>
      <trkpt lat="38.27679952" lon="-1.84117664">
        <ele>530.00000</ele>
        <time>2018-10-12T08:51:03Z</time>
      </trkpt>
      <trkpt lat="38.27688368" lon="-1.84148300">
        <ele>531.00000</ele>
        <time>2018-10-12T08:51:08Z</time>
      </trkpt>
      <trkpt lat="38.27706078" lon="-1.84192464">
        <ele>531.00000</ele>
        <time>2018-10-12T08:51:15Z</time>
      </trkpt>
      <trkpt lat="38.27753671" lon="-1.84224860">
        <ele>531.00000</ele>
        <time>2018-10-12T08:51:24Z</time>
      </trkpt>
      <trkpt lat="38.27765674" lon="-1.84225916">
        <ele>531.00000</ele>
        <time>2018-10-12T08:51:26Z</time>
      </trkpt>
      <trkpt lat="38.27790426" lon="-1.84226511">
        <ele>531.00000</ele>
        <time>2018-10-12T08:51:30Z</time>
      </trkpt>
      <trkpt lat="38.27820844" lon="-1.84229671">
        <ele>531.00000</ele>
        <time>2018-10-12T08:51:35Z</time>
      </trkpt>
      <trkpt lat="38.27871914" lon="-1.84255722">
        <ele>532.00000</ele>
        <time>2018-10-12T08:51:45Z</time>
      </trkpt>
      <trkpt lat="38.27880288" lon="-1.84263677">
        <ele>532.00000</ele>
        <time>2018-10-12T08:51:47Z</time>
      </trkpt>
      <trkpt lat="38.27888435" lon="-1.84272511">
        <ele>533.00000</ele>
        <time>2018-10-12T08:51:49Z</time>
      </trkpt>
      <trkpt lat="38.27903120" lon="-1.84293131">
        <ele>533.00000</ele>
        <time>2018-10-12T08:51:53Z</time>
      </trkpt>
      <trkpt lat="38.27920563" lon="-1.84320917">
        <ele>534.00000</ele>
        <time>2018-10-12T08:51:58Z</time>
      </trkpt>
      <trkpt lat="38.27953579" lon="-1.84381510">
        <ele>535.00000</ele>
        <time>2018-10-12T08:52:09Z</time>
      </trkpt>
      <trkpt lat="38.27967057" lon="-1.84406295">
        <ele>536.00000</ele>
        <time>2018-10-12T08:52:14Z</time>
      </trkpt>
      <trkpt lat="38.27977761" lon="-1.84425867">
        <ele>538.00000</ele>
        <time>2018-10-12T08:52:18Z</time>
      </trkpt>
      <trkpt lat="38.27985665" lon="-1.84440258">
        <ele>538.00000</ele>
        <time>2018-10-12T08:52:21Z</time>
      </trkpt>
      <trkpt lat="38.27990996" lon="-1.84449512">
        <ele>539.00000</ele>
        <time>2018-10-12T08:52:23Z</time>
      </trkpt>
      <trkpt lat="38.27998506" lon="-1.84462278">
        <ele>539.00000</ele>
        <time>2018-10-12T08:52:26Z</time>
      </trkpt>
      <trkpt lat="38.28003200" lon="-1.84470157">
        <ele>540.00000</ele>
        <time>2018-10-12T08:52:28Z</time>
      </trkpt>
      <trkpt lat="38.28016142" lon="-1.84492704">
        <ele>541.00000</ele>
        <time>2018-10-12T08:52:33Z</time>
      </trkpt>
      <trkpt lat="38.28032570" lon="-1.84521948">
        <ele>542.00000</ele>
        <time>2018-10-12T08:52:39Z</time>
      </trkpt>
      <trkpt lat="38.28046308" lon="-1.84546139">
        <ele>543.00000</ele>
        <time>2018-10-12T08:52:44Z</time>
      </trkpt>
      <trkpt lat="38.28062041" lon="-1.84574126">
        <ele>544.00000</ele>
        <time>2018-10-12T08:52:50Z</time>
      </trkpt>
      <trkpt lat="38.28074564" lon="-1.84596137">
        <ele>545.00000</ele>
        <time>2018-10-12T08:52:55Z</time>
      </trkpt>
      <trkpt lat="38.28089634" lon="-1.84621727">
        <ele>547.00000</ele>
        <time>2018-10-12T08:53:01Z</time>
      </trkpt>
      <trkpt lat="38.28104445" lon="-1.84647870">
        <ele>548.00000</ele>
        <time>2018-10-12T08:53:07Z</time>
      </trkpt>
      <trkpt lat="38.28114780" lon="-1.84665916">
        <ele>549.00000</ele>
        <time>2018-10-12T08:53:11Z</time>
      </trkpt>
      <trkpt lat="38.28130563" lon="-1.84693434">
        <ele>550.00000</ele>
        <time>2018-10-12T08:53:17Z</time>
      </trkpt>
      <trkpt lat="38.28146447" lon="-1.84721178">
        <ele>551.00000</ele>
        <time>2018-10-12T08:53:23Z</time>
      </trkpt>
      <trkpt lat="38.28166530" lon="-1.84751051">
        <ele>552.00000</ele>
        <time>2018-10-12T08:53:30Z</time>
      </trkpt>
      <trkpt lat="38.28182036" lon="-1.84778929">
        <ele>553.00000</ele>
        <time>2018-10-12T08:53:36Z</time>
      </trkpt>
      <trkpt lat="38.28196722" lon="-1.84805533">
        <ele>554.00000</ele>
        <time>2018-10-12T08:53:42Z</time>
      </trkpt>
      <trkpt lat="38.28208783" lon="-1.84827175">
        <ele>556.00000</ele>
        <time>2018-10-12T08:53:47Z</time>
      </trkpt>
      <trkpt lat="38.28221440" lon="-1.84848717">
        <ele>557.00000</ele>
        <time>2018-10-12T08:53:52Z</time>
      </trkpt>
      <trkpt lat="38.28234029" lon="-1.84870711">
        <ele>558.00000</ele>
        <time>2018-10-12T08:53:57Z</time>
      </trkpt>
      <trkpt lat="38.28250131" lon="-1.84897684">
        <ele>559.00000</ele>
        <time>2018-10-12T08:54:03Z</time>
      </trkpt>
      <trkpt lat="38.28268747" lon="-1.84929451">
        <ele>560.00000</ele>
        <time>2018-10-12T08:54:10Z</time>
      </trkpt>
      <trkpt lat="38.28282536" lon="-1.84951865">
        <ele>561.00000</ele>
        <time>2018-10-12T08:54:15Z</time>
      </trkpt>
      <trkpt lat="38.28293642" lon="-1.84970280">
        <ele>562.00000</ele>
        <time>2018-10-12T08:54:19Z</time>
      </trkpt>
      <trkpt lat="38.28311302" lon="-1.84999398">
        <ele>563.00000</ele>
        <time>2018-10-12T08:54:25Z</time>
      </trkpt>
      <trkpt lat="38.28334487" lon="-1.85038919">
        <ele>565.00000</ele>
        <time>2018-10-12T08:54:33Z</time>
      </trkpt>
      <trkpt lat="38.28346146" lon="-1.85058860">
        <ele>565.00000</ele>
        <time>2018-10-12T08:54:37Z</time>
      </trkpt>
      <trkpt lat="38.28369959" lon="-1.85100710">
        <ele>566.00000</ele>
        <time>2018-10-12T08:54:45Z</time>
      </trkpt>
      <trkpt lat="38.28399530" lon="-1.85152066">
        <ele>567.00000</ele>
        <time>2018-10-12T08:54:55Z</time>
      </trkpt>
      <trkpt lat="38.28419982" lon="-1.85187790">
        <ele>569.00000</ele>
        <time>2018-10-12T08:55:02Z</time>
      </trkpt>
      <trkpt lat="38.28440400" lon="-1.85222977">
        <ele>570.00000</ele>
        <time>2018-10-12T08:55:09Z</time>
      </trkpt>
      <trkpt lat="38.28458120" lon="-1.85253772">
        <ele>571.00000</ele>
        <time>2018-10-12T08:55:15Z</time>
      </trkpt>
      <trkpt lat="38.28479066" lon="-1.85290183">
        <ele>572.00000</ele>
        <time>2018-10-12T08:55:22Z</time>
      </trkpt>
      <trkpt lat="38.28490993" lon="-1.85311532">
        <ele>572.00000</ele>
        <time>2018-10-12T08:55:26Z</time>
      </trkpt>
      <trkpt lat="38.28512376" lon="-1.85348597">
        <ele>573.00000</ele>
        <time>2018-10-12T08:55:33Z</time>
      </trkpt>
      <trkpt lat="38.28544562" lon="-1.85404596">
        <ele>574.00000</ele>
        <time>2018-10-12T08:55:44Z</time>
      </trkpt>
      <trkpt lat="38.28549994" lon="-1.85414227">
        <ele>574.00000</ele>
        <time>2018-10-12T08:55:46Z</time>
      </trkpt>
      <trkpt lat="38.28563824" lon="-1.85438149">
        <ele>575.00000</ele>
        <time>2018-10-12T08:55:51Z</time>
      </trkpt>
      <trkpt lat="38.28577830" lon="-1.85462540">
        <ele>576.00000</ele>
        <time>2018-10-12T08:55:56Z</time>
      </trkpt>
      <trkpt lat="38.28594678" lon="-1.85492087">
        <ele>577.00000</ele>
        <time>2018-10-12T08:56:02Z</time>
      </trkpt>
      <trkpt lat="38.28609312" lon="-1.85517802">
        <ele>578.00000</ele>
        <time>2018-10-12T08:56:07Z</time>
      </trkpt>
      <trkpt lat="38.28627317" lon="-1.85549545">
        <ele>579.00000</ele>
        <time>2018-10-12T08:56:13Z</time>
      </trkpt>
      <trkpt lat="38.28651322" lon="-1.85591932">
        <ele>580.00000</ele>
        <time>2018-10-12T08:56:21Z</time>
      </trkpt>
      <trkpt lat="38.28683719" lon="-1.85648703">
        <ele>581.00000</ele>
        <time>2018-10-12T08:56:32Z</time>
      </trkpt>
      <trkpt lat="38.28686669" lon="-1.85653757">
        <ele>581.00000</ele>
        <time>2018-10-12T08:56:33Z</time>
      </trkpt>
      <trkpt lat="38.28704145" lon="-1.85684351">
        <ele>583.00000</ele>
        <time>2018-10-12T08:56:39Z</time>
      </trkpt>
      <trkpt lat="38.28722057" lon="-1.85714459">
        <ele>584.00000</ele>
        <time>2018-10-12T08:56:45Z</time>
      </trkpt>
      <trkpt lat="38.28739492" lon="-1.85744751">
        <ele>585.00000</ele>
        <time>2018-10-12T08:56:51Z</time>
      </trkpt>
      <trkpt lat="38.28754068" lon="-1.85770274">
        <ele>586.00000</ele>
        <time>2018-10-12T08:56:56Z</time>
      </trkpt>
      <trkpt lat="38.28771670" lon="-1.85801513">
        <ele>587.00000</ele>
        <time>2018-10-12T08:57:02Z</time>
      </trkpt>
      <trkpt lat="38.28800411" lon="-1.85844747">
        <ele>588.00000</ele>
        <time>2018-10-12T08:57:10Z</time>
      </trkpt>
      <trkpt lat="38.28816127" lon="-1.85857437">
        <ele>588.00000</ele>
        <time>2018-10-12T08:57:13Z</time>
      </trkpt>
      <trkpt lat="38.28853419" lon="-1.85873036">
        <ele>587.00000</ele>
        <time>2018-10-12T08:57:19Z</time>
      </trkpt>
      <trkpt lat="38.28888765" lon="-1.85885567">
        <ele>586.00000</ele>
        <time>2018-10-12T08:57:24Z</time>
      </trkpt>
      <trkpt lat="38.28903752" lon="-1.85890831">
        <ele>586.00000</ele>
        <time>2018-10-12T08:57:26Z</time>
      </trkpt>
      <trkpt lat="38.28925402" lon="-1.85898860">
        <ele>585.00000</ele>
        <time>2018-10-12T08:57:29Z</time>
      </trkpt>
      <trkpt lat="38.28946734" lon="-1.85906656">
        <ele>584.00000</ele>
        <time>2018-10-12T08:57:32Z</time>
      </trkpt>
      <trkpt lat="38.28953691" lon="-1.85909086">
        <ele>584.00000</ele>
        <time>2018-10-12T08:57:33Z</time>
      </trkpt>
      <trkpt lat="38.28966926" lon="-1.85914216">
        <ele>584.00000</ele>
        <time>2018-10-12T08:57:35Z</time>
      </trkpt>
      <trkpt lat="38.29022289" lon="-1.85940108">
        <ele>585.00000</ele>
        <time>2018-10-12T08:57:45Z</time>
      </trkpt>
      <trkpt lat="38.29027226" lon="-1.85943544">
        <ele>585.00000</ele>
        <time>2018-10-12T08:57:46Z</time>
      </trkpt>
      <trkpt lat="38.29041936" lon="-1.85954960">
        <ele>586.00000</ele>
        <time>2018-10-12T08:57:49Z</time>
      </trkpt>
      <trkpt lat="38.29060410" lon="-1.85971666">
        <ele>587.00000</ele>
        <time>2018-10-12T08:57:53Z</time>
      </trkpt>
      <trkpt lat="38.29064777" lon="-1.85976108">
        <ele>587.00000</ele>
        <time>2018-10-12T08:57:54Z</time>
      </trkpt>
      <trkpt lat="38.29101967" lon="-1.86026131">
        <ele>588.00000</ele>
        <time>2018-10-12T08:58:03Z</time>
      </trkpt>
      <trkpt lat="38.29137121" lon="-1.86087336">
        <ele>588.00000</ele>
        <time>2018-10-12T08:58:12Z</time>
      </trkpt>
      <trkpt lat="38.29166173" lon="-1.86144207">
        <ele>587.00000</ele>
        <time>2018-10-12T08:58:21Z</time>
      </trkpt>
      <trkpt lat="38.29177538" lon="-1.86166310">
        <ele>588.00000</ele>
        <time>2018-10-12T08:58:25Z</time>
      </trkpt>
      <trkpt lat="38.29188569" lon="-1.86188095">
        <ele>589.00000</ele>
        <time>2018-10-12T08:58:29Z</time>
      </trkpt>
      <trkpt lat="38.29202340" lon="-1.86215084">
        <ele>591.00000</ele>
        <time>2018-10-12T08:58:34Z</time>
      </trkpt>
      <trkpt lat="38.29230730" lon="-1.86269097">
        <ele>592.00000</ele>
        <time>2018-10-12T08:58:44Z</time>
      </trkpt>
      <trkpt lat="38.29263252" lon="-1.86329615">
        <ele>592.00000</ele>
        <time>2018-10-12T08:58:55Z</time>
      </trkpt>
      <trkpt lat="38.29289026" lon="-1.86377970">
        <ele>593.00000</ele>
        <time>2018-10-12T08:59:04Z</time>
      </trkpt>
      <trkpt lat="38.29317231" lon="-1.86430952">
        <ele>595.00000</ele>
        <time>2018-10-12T08:59:14Z</time>
      </trkpt>
      <trkpt lat="38.29342503" lon="-1.86478301">
        <ele>596.00000</ele>
        <time>2018-10-12T08:59:23Z</time>
      </trkpt>
      <trkpt lat="38.29370775" lon="-1.86531216">
        <ele>597.00000</ele>
        <time>2018-10-12T08:59:33Z</time>
      </trkpt>
      <trkpt lat="38.29397086" lon="-1.86581893">
        <ele>598.00000</ele>
        <time>2018-10-12T08:59:42Z</time>
      </trkpt>
      <trkpt lat="38.29411980" lon="-1.86610157">
        <ele>599.00000</ele>
        <time>2018-10-12T08:59:47Z</time>
      </trkpt>
      <trkpt lat="38.29440797" lon="-1.86664740">
        <ele>600.00000</ele>
        <time>2018-10-12T08:59:57Z</time>
      </trkpt>
      <trkpt lat="38.29473403" lon="-1.86726305">
        <ele>601.00000</ele>
        <time>2018-10-12T09:00:08Z</time>
      </trkpt>
      <trkpt lat="38.29490259" lon="-1.86755382">
        <ele>603.00000</ele>
        <time>2018-10-12T09:00:13Z</time>
      </trkpt>
      <trkpt lat="38.29530014" lon="-1.86810837">
        <ele>603.00000</ele>
        <time>2018-10-12T09:00:23Z</time>
      </trkpt>
      <trkpt lat="38.29568588" lon="-1.86861916">
        <ele>604.00000</ele>
        <time>2018-10-12T09:00:34Z</time>
      </trkpt>
      <trkpt lat="38.29578235" lon="-1.86874958">
        <ele>605.00000</ele>
        <time>2018-10-12T09:00:37Z</time>
      </trkpt>
      <trkpt lat="38.29590783" lon="-1.86892552">
        <ele>606.00000</ele>
        <time>2018-10-12T09:00:41Z</time>
      </trkpt>
      <trkpt lat="38.29593817" lon="-1.86896986">
        <ele>606.00000</ele>
        <time>2018-10-12T09:00:42Z</time>
      </trkpt>
      <trkpt lat="38.29606046" lon="-1.86914730">
        <ele>607.00000</ele>
        <time>2018-10-12T09:00:46Z</time>
      </trkpt>
      <trkpt lat="38.29615283" lon="-1.86928435">
        <ele>608.00000</ele>
        <time>2018-10-12T09:00:49Z</time>
      </trkpt>
      <trkpt lat="38.29624604" lon="-1.86943246">
        <ele>609.00000</ele>
        <time>2018-10-12T09:00:52Z</time>
      </trkpt>
      <trkpt lat="38.29633707" lon="-1.86957964">
        <ele>609.00000</ele>
        <time>2018-10-12T09:00:55Z</time>
      </trkpt>
      <trkpt lat="38.29657754" lon="-1.87000905">
        <ele>610.00000</ele>
        <time>2018-10-12T09:01:03Z</time>
      </trkpt>
      <trkpt lat="38.29685624" lon="-1.87053082">
        <ele>611.00000</ele>
        <time>2018-10-12T09:01:13Z</time>
      </trkpt>
      <trkpt lat="38.29701407" lon="-1.87086098">
        <ele>612.00000</ele>
        <time>2018-10-12T09:01:19Z</time>
      </trkpt>
      <trkpt lat="38.29712237" lon="-1.87109509">
        <ele>613.00000</ele>
        <time>2018-10-12T09:01:23Z</time>
      </trkpt>
      <trkpt lat="38.29738522" lon="-1.87174460">
        <ele>614.00000</ele>
        <time>2018-10-12T09:01:34Z</time>
      </trkpt>
      <trkpt lat="38.29744239" lon="-1.87190855">
        <ele>615.00000</ele>
        <time>2018-10-12T09:01:37Z</time>
      </trkpt>
      <trkpt lat="38.29751581" lon="-1.87212372">
        <ele>616.00000</ele>
        <time>2018-10-12T09:01:41Z</time>
      </trkpt>
      <trkpt lat="38.29760257" lon="-1.87239613">
        <ele>617.00000</ele>
        <time>2018-10-12T09:01:46Z</time>
      </trkpt>
      <trkpt lat="38.29767440" lon="-1.87261297">
        <ele>618.00000</ele>
        <time>2018-10-12T09:01:50Z</time>
      </trkpt>
      <trkpt lat="38.29775981" lon="-1.87288530">
        <ele>619.00000</ele>
        <time>2018-10-12T09:01:55Z</time>
      </trkpt>
      <trkpt lat="38.29779108" lon="-1.87299057">
        <ele>620.00000</ele>
        <time>2018-10-12T09:01:57Z</time>
      </trkpt>
      <trkpt lat="38.29789023" lon="-1.87330758">
        <ele>620.00000</ele>
        <time>2018-10-12T09:02:03Z</time>
      </trkpt>
      <trkpt lat="38.29795972" lon="-1.87352064">
        <ele>621.00000</ele>
        <time>2018-10-12T09:02:07Z</time>
      </trkpt>
      <trkpt lat="38.29806114" lon="-1.87384109">
        <ele>623.00000</ele>
        <time>2018-10-12T09:02:13Z</time>
      </trkpt>
      <trkpt lat="38.29812979" lon="-1.87407176">
        <ele>624.00000</ele>
        <time>2018-10-12T09:02:17Z</time>
      </trkpt>
      <trkpt lat="38.29818218" lon="-1.87424174">
        <ele>625.00000</ele>
        <time>2018-10-12T09:02:20Z</time>
      </trkpt>
      <trkpt lat="38.29830455" lon="-1.87463309">
        <ele>626.00000</ele>
        <time>2018-10-12T09:02:27Z</time>
      </trkpt>
      <trkpt lat="38.29839927" lon="-1.87493056">
        <ele>627.00000</ele>
        <time>2018-10-12T09:02:32Z</time>
      </trkpt>
      <trkpt lat="38.29856095" lon="-1.87543935">
        <ele>628.00000</ele>
        <time>2018-10-12T09:02:40Z</time>
      </trkpt>
      <trkpt lat="38.29866950" lon="-1.87577831">
        <ele>628.00000</ele>
        <time>2018-10-12T09:02:45Z</time>
      </trkpt>
      <trkpt lat="38.29880378" lon="-1.87619774">
        <ele>628.00000</ele>
        <time>2018-10-12T09:02:51Z</time>
      </trkpt>
      <trkpt lat="38.29892263" lon="-1.87657115">
        <ele>628.00000</ele>
        <time>2018-10-12T09:02:56Z</time>
      </trkpt>
      <trkpt lat="38.29899639" lon="-1.87679763">
        <ele>628.00000</ele>
        <time>2018-10-12T09:02:59Z</time>
      </trkpt>
      <trkpt lat="38.29909304" lon="-1.87709938">
        <ele>628.00000</ele>
        <time>2018-10-12T09:03:03Z</time>
      </trkpt>
      <trkpt lat="38.29914190" lon="-1.87724766">
        <ele>628.00000</ele>
        <time>2018-10-12T09:03:05Z</time>
      </trkpt>
      <trkpt lat="38.29921164" lon="-1.87746567">
        <ele>627.00000</ele>
        <time>2018-10-12T09:03:08Z</time>
      </trkpt>
      <trkpt lat="38.29930233" lon="-1.87774848">
        <ele>627.00000</ele>
        <time>2018-10-12T09:03:12Z</time>
      </trkpt>
      <trkpt lat="38.29950911" lon="-1.87839305">
        <ele>628.00000</ele>
        <time>2018-10-12T09:03:22Z</time>
      </trkpt>
      <trkpt lat="38.29958170" lon="-1.87861416">
        <ele>629.00000</ele>
        <time>2018-10-12T09:03:26Z</time>
      </trkpt>
      <trkpt lat="38.29963132" lon="-1.87878062">
        <ele>630.00000</ele>
        <time>2018-10-12T09:03:29Z</time>
      </trkpt>
      <trkpt lat="38.29966879" lon="-1.87888825">
        <ele>630.00000</ele>
        <time>2018-10-12T09:03:31Z</time>
      </trkpt>
      <trkpt lat="38.29970374" lon="-1.87899487">
        <ele>631.00000</ele>
        <time>2018-10-12T09:03:33Z</time>
      </trkpt>
      <trkpt lat="38.29973769" lon="-1.87910241">
        <ele>632.00000</ele>
        <time>2018-10-12T09:03:35Z</time>
      </trkpt>
      <trkpt lat="38.29982344" lon="-1.87937758">
        <ele>633.00000</ele>
        <time>2018-10-12T09:03:40Z</time>
      </trkpt>
      <trkpt lat="38.29990055" lon="-1.87961689">
        <ele>634.00000</ele>
        <time>2018-10-12T09:03:44Z</time>
      </trkpt>
      <trkpt lat="38.30010674" lon="-1.88025995">
        <ele>634.00000</ele>
        <time>2018-10-12T09:03:54Z</time>
      </trkpt>
      <trkpt lat="38.30024228" lon="-1.88067552">
        <ele>633.00000</ele>
        <time>2018-10-12T09:04:00Z</time>
      </trkpt>
      <trkpt lat="38.30040237" lon="-1.88118397">
        <ele>633.00000</ele>
        <time>2018-10-12T09:04:07Z</time>
      </trkpt>
      <trkpt lat="38.30053322" lon="-1.88158940">
        <ele>633.00000</ele>
        <time>2018-10-12T09:04:13Z</time>
      </trkpt>
      <trkpt lat="38.30061938" lon="-1.88184689">
        <ele>633.00000</ele>
        <time>2018-10-12T09:04:17Z</time>
      </trkpt>
      <trkpt lat="38.30076154" lon="-1.88226372">
        <ele>634.00000</ele>
        <time>2018-10-12T09:04:24Z</time>
      </trkpt>
      <trkpt lat="38.30086941" lon="-1.88259749">
        <ele>635.00000</ele>
        <time>2018-10-12T09:04:30Z</time>
      </trkpt>
      <trkpt lat="38.30090621" lon="-1.88270495">
        <ele>636.00000</ele>
        <time>2018-10-12T09:04:32Z</time>
      </trkpt>
      <trkpt lat="38.30094393" lon="-1.88281173">
        <ele>636.00000</ele>
        <time>2018-10-12T09:04:34Z</time>
      </trkpt>
      <trkpt lat="38.30099791" lon="-1.88296755">
        <ele>637.00000</ele>
        <time>2018-10-12T09:04:37Z</time>
      </trkpt>
      <trkpt lat="38.30103420" lon="-1.88308297">
        <ele>637.00000</ele>
        <time>2018-10-12T09:04:39Z</time>
      </trkpt>
      <trkpt lat="38.30110721" lon="-1.88332554">
        <ele>638.00000</ele>
        <time>2018-10-12T09:04:43Z</time>
      </trkpt>
      <trkpt lat="38.30114451" lon="-1.88344004">
        <ele>638.00000</ele>
        <time>2018-10-12T09:04:45Z</time>
      </trkpt>
      <trkpt lat="38.30126378" lon="-1.88378806">
        <ele>640.00000</ele>
        <time>2018-10-12T09:04:51Z</time>
      </trkpt>
      <trkpt lat="38.30140787" lon="-1.88426105">
        <ele>641.00000</ele>
        <time>2018-10-12T09:04:59Z</time>
      </trkpt>
      <trkpt lat="38.30151826" lon="-1.88462030">
        <ele>642.00000</ele>
        <time>2018-10-12T09:05:05Z</time>
      </trkpt>
      <trkpt lat="38.30166243" lon="-1.88506663">
        <ele>643.00000</ele>
        <time>2018-10-12T09:05:12Z</time>
      </trkpt>
      <trkpt lat="38.30181020" lon="-1.88553585">
        <ele>643.00000</ele>
        <time>2018-10-12T09:05:19Z</time>
      </trkpt>
      <trkpt lat="38.30203081" lon="-1.88622660">
        <ele>643.00000</ele>
        <time>2018-10-12T09:05:29Z</time>
      </trkpt>
      <trkpt lat="38.30218847" lon="-1.88672784">
        <ele>642.00000</ele>
        <time>2018-10-12T09:05:36Z</time>
      </trkpt>
      <trkpt lat="38.30232669" lon="-1.88715909">
        <ele>642.00000</ele>
        <time>2018-10-12T09:05:42Z</time>
      </trkpt>
      <trkpt lat="38.30253507" lon="-1.88780919">
        <ele>642.00000</ele>
        <time>2018-10-12T09:05:51Z</time>
      </trkpt>
      <trkpt lat="38.30275098" lon="-1.88848544">
        <ele>642.00000</ele>
        <time>2018-10-12T09:06:00Z</time>
      </trkpt>
      <trkpt lat="38.30286892" lon="-1.88885475">
        <ele>642.00000</ele>
        <time>2018-10-12T09:06:05Z</time>
      </trkpt>
      <trkpt lat="38.30307913" lon="-1.88951558">
        <ele>642.00000</ele>
        <time>2018-10-12T09:06:14Z</time>
      </trkpt>
      <trkpt lat="38.30329497" lon="-1.89019812">
        <ele>642.00000</ele>
        <time>2018-10-12T09:06:23Z</time>
      </trkpt>
      <trkpt lat="38.30350720" lon="-1.89085660">
        <ele>642.00000</ele>
        <time>2018-10-12T09:06:32Z</time>
      </trkpt>
      <trkpt lat="38.30371633" lon="-1.89151282">
        <ele>642.00000</ele>
        <time>2018-10-12T09:06:41Z</time>
      </trkpt>
      <trkpt lat="38.30385270" lon="-1.89194130">
        <ele>643.00000</ele>
        <time>2018-10-12T09:06:47Z</time>
      </trkpt>
      <trkpt lat="38.30406451" lon="-1.89260054">
        <ele>643.00000</ele>
        <time>2018-10-12T09:06:56Z</time>
      </trkpt>
      <trkpt lat="38.30429032" lon="-1.89330386">
        <ele>643.00000</ele>
        <time>2018-10-12T09:07:05Z</time>
      </trkpt>
      <trkpt lat="38.30441596" lon="-1.89369522">
        <ele>643.00000</ele>
        <time>2018-10-12T09:07:10Z</time>
      </trkpt>
      <trkpt lat="38.30463842" lon="-1.89438840">
        <ele>642.00000</ele>
        <time>2018-10-12T09:07:19Z</time>
      </trkpt>
      <trkpt lat="38.30478485" lon="-1.89509508">
        <ele>642.00000</ele>
        <time>2018-10-12T09:07:28Z</time>
      </trkpt>
      <trkpt lat="38.30476943" lon="-1.89584291">
        <ele>642.00000</ele>
        <time>2018-10-12T09:07:37Z</time>
      </trkpt>
      <trkpt lat="38.30466264" lon="-1.89653567">
        <ele>642.00000</ele>
        <time>2018-10-12T09:07:45Z</time>
      </trkpt>
      <trkpt lat="38.30463599" lon="-1.89671195">
        <ele>641.00000</ele>
        <time>2018-10-12T09:07:47Z</time>
      </trkpt>
      <trkpt lat="38.30459458" lon="-1.89742952">
        <ele>640.00000</ele>
        <time>2018-10-12T09:07:55Z</time>
      </trkpt>
      <trkpt lat="38.30460514" lon="-1.89760453">
        <ele>640.00000</ele>
        <time>2018-10-12T09:07:57Z</time>
      </trkpt>
      <trkpt lat="38.30472366" lon="-1.89831683">
        <ele>640.00000</ele>
        <time>2018-10-12T09:08:06Z</time>
      </trkpt>
      <trkpt lat="38.30479424" lon="-1.89858907">
        <ele>641.00000</ele>
        <time>2018-10-12T09:08:10Z</time>
      </trkpt>
      <trkpt lat="38.30482785" lon="-1.89871799">
        <ele>641.00000</ele>
        <time>2018-10-12T09:08:12Z</time>
      </trkpt>
      <trkpt lat="38.30489683" lon="-1.89896768">
        <ele>642.00000</ele>
        <time>2018-10-12T09:08:16Z</time>
      </trkpt>
      <trkpt lat="38.30494897" lon="-1.89915410">
        <ele>644.00000</ele>
        <time>2018-10-12T09:08:19Z</time>
      </trkpt>
      <trkpt lat="38.30502005" lon="-1.89940413">
        <ele>645.00000</ele>
        <time>2018-10-12T09:08:23Z</time>
      </trkpt>
      <trkpt lat="38.30511108" lon="-1.89972876">
        <ele>646.00000</ele>
        <time>2018-10-12T09:08:28Z</time>
      </trkpt>
      <trkpt lat="38.30520747" lon="-1.90007183">
        <ele>646.00000</ele>
        <time>2018-10-12T09:08:33Z</time>
      </trkpt>
      <trkpt lat="38.30530822" lon="-1.90042437">
        <ele>647.00000</ele>
        <time>2018-10-12T09:08:38Z</time>
      </trkpt>
      <trkpt lat="38.30548273" lon="-1.90103743">
        <ele>647.00000</ele>
        <time>2018-10-12T09:08:47Z</time>
      </trkpt>
      <trkpt lat="38.30558717" lon="-1.90141059">
        <ele>648.00000</ele>
        <time>2018-10-12T09:08:53Z</time>
      </trkpt>
      <trkpt lat="38.30565313" lon="-1.90164336">
        <ele>649.00000</ele>
        <time>2018-10-12T09:08:57Z</time>
      </trkpt>
      <trkpt lat="38.30568532" lon="-1.90175450">
        <ele>649.00000</ele>
        <time>2018-10-12T09:08:59Z</time>
      </trkpt>
      <trkpt lat="38.30573092" lon="-1.90192256">
        <ele>650.00000</ele>
        <time>2018-10-12T09:09:02Z</time>
      </trkpt>
      <trkpt lat="38.30574626" lon="-1.90198048">
        <ele>650.00000</ele>
        <time>2018-10-12T09:09:03Z</time>
      </trkpt>
      <trkpt lat="38.30579026" lon="-1.90214593">
        <ele>651.00000</ele>
        <time>2018-10-12T09:09:06Z</time>
      </trkpt>
      <trkpt lat="38.30580216" lon="-1.90219094">
        <ele>652.00000</ele>
        <time>2018-10-12T09:09:07Z</time>
      </trkpt>
      <trkpt lat="38.30584550" lon="-1.90237501">
        <ele>653.00000</ele>
        <time>2018-10-12T09:09:12Z</time>
      </trkpt>
      <trkpt lat="38.30586771" lon="-1.90246344">
        <ele>654.00000</ele>
        <time>2018-10-12T09:09:15Z</time>
      </trkpt>
      <trkpt lat="38.30587098" lon="-1.90247568">
        <ele>654.00000</ele>
        <time>2018-10-12T09:09:16Z</time>
      </trkpt>
      <trkpt lat="38.30587098" lon="-1.90247761">
        <ele>654.00000</ele>
        <time>2018-10-12T09:09:17Z</time>
      </trkpt>
      <trkpt lat="38.30585757" lon="-1.90249085">
        <ele>655.00000</ele>
        <time>2018-10-12T09:15:07Z</time>
      </trkpt>
      <trkpt lat="38.30585681" lon="-1.90251264">
        <ele>655.00000</ele>
        <time>2018-10-12T09:15:08Z</time>
      </trkpt>
      <trkpt lat="38.30587810" lon="-1.90263468">
        <ele>655.00000</ele>
        <time>2018-10-12T09:15:12Z</time>
      </trkpt>
      <trkpt lat="38.30598036" lon="-1.90327992">
        <ele>654.00000</ele>
        <time>2018-10-12T09:15:26Z</time>
      </trkpt>
      <trkpt lat="38.30603292" lon="-1.90385526">
        <ele>653.00000</ele>
        <time>2018-10-12T09:15:35Z</time>
      </trkpt>
      <trkpt lat="38.30609922" lon="-1.90455590">
        <ele>652.00000</ele>
        <time>2018-10-12T09:15:47Z</time>
      </trkpt>
      <trkpt lat="38.30618044" lon="-1.90524967">
        <ele>653.00000</ele>
        <time>2018-10-12T09:16:00Z</time>
      </trkpt>
      <trkpt lat="38.30625428" lon="-1.90595811">
        <ele>653.00000</ele>
        <time>2018-10-12T09:16:12Z</time>
      </trkpt>
      <trkpt lat="38.30631321" lon="-1.90651844">
        <ele>654.00000</ele>
        <time>2018-10-12T09:16:22Z</time>
      </trkpt>
      <trkpt lat="38.30634313" lon="-1.90681700">
        <ele>654.00000</ele>
        <time>2018-10-12T09:16:28Z</time>
      </trkpt>
      <trkpt lat="38.30635461" lon="-1.90692085">
        <ele>655.00000</ele>
        <time>2018-10-12T09:16:30Z</time>
      </trkpt>
      <trkpt lat="38.30638219" lon="-1.90718463">
        <ele>656.00000</ele>
        <time>2018-10-12T09:16:35Z</time>
      </trkpt>
      <trkpt lat="38.30641807" lon="-1.90744548">
        <ele>657.00000</ele>
        <time>2018-10-12T09:16:40Z</time>
      </trkpt>
      <trkpt lat="38.30642326" lon="-1.90749912">
        <ele>657.00000</ele>
        <time>2018-10-12T09:16:41Z</time>
      </trkpt>
      <trkpt lat="38.30646140" lon="-1.90782191">
        <ele>658.00000</ele>
        <time>2018-10-12T09:16:47Z</time>
      </trkpt>
      <trkpt lat="38.30646760" lon="-1.90787748">
        <ele>658.00000</ele>
        <time>2018-10-12T09:16:48Z</time>
      </trkpt>
      <trkpt lat="38.30649241" lon="-1.90810387">
        <ele>658.00000</ele>
        <time>2018-10-12T09:16:52Z</time>
      </trkpt>
      <trkpt lat="38.30653944" lon="-1.90854921">
        <ele>659.00000</ele>
        <time>2018-10-12T09:17:00Z</time>
      </trkpt>
      <trkpt lat="38.30661244" lon="-1.90918154">
        <ele>660.00000</ele>
        <time>2018-10-12T09:17:11Z</time>
      </trkpt>
      <trkpt lat="38.30667505" lon="-1.90975637">
        <ele>661.00000</ele>
        <time>2018-10-12T09:17:21Z</time>
      </trkpt>
      <trkpt lat="38.30670682" lon="-1.91003741">
        <ele>662.00000</ele>
        <time>2018-10-12T09:17:26Z</time>
      </trkpt>
      <trkpt lat="38.30677807" lon="-1.91071785">
        <ele>663.00000</ele>
        <time>2018-10-12T09:17:38Z</time>
      </trkpt>
      <trkpt lat="38.30681478" lon="-1.91105690">
        <ele>664.00000</ele>
        <time>2018-10-12T09:17:44Z</time>
      </trkpt>
      <trkpt lat="38.30686080" lon="-1.91145831">
        <ele>665.00000</ele>
        <time>2018-10-12T09:17:51Z</time>
      </trkpt>
      <trkpt lat="38.30686734" lon="-1.91151405">
        <ele>665.00000</ele>
        <time>2018-10-12T09:17:52Z</time>
      </trkpt>
      <trkpt lat="38.30695048" lon="-1.91201445">
        <ele>666.00000</ele>
        <time>2018-10-12T09:18:01Z</time>
      </trkpt>
      <trkpt lat="38.30714251" lon="-1.91269137">
        <ele>667.00000</ele>
        <time>2018-10-12T09:18:12Z</time>
      </trkpt>
      <trkpt lat="38.30739540" lon="-1.91335841">
        <ele>667.00000</ele>
        <time>2018-10-12T09:18:22Z</time>
      </trkpt>
      <trkpt lat="38.30759002" lon="-1.91386207">
        <ele>667.00000</ele>
        <time>2018-10-12T09:18:29Z</time>
      </trkpt>
      <trkpt lat="38.30782002" lon="-1.91446247">
        <ele>667.00000</ele>
        <time>2018-10-12T09:18:37Z</time>
      </trkpt>
      <trkpt lat="38.30802228" lon="-1.91499405">
        <ele>666.00000</ele>
        <time>2018-10-12T09:18:44Z</time>
      </trkpt>
      <trkpt lat="38.30827935" lon="-1.91567516">
        <ele>665.00000</ele>
        <time>2018-10-12T09:18:53Z</time>
      </trkpt>
      <trkpt lat="38.30850088" lon="-1.91624932">
        <ele>665.00000</ele>
        <time>2018-10-12T09:19:01Z</time>
      </trkpt>
      <trkpt lat="38.30866249" lon="-1.91670505">
        <ele>666.00000</ele>
        <time>2018-10-12T09:19:08Z</time>
      </trkpt>
      <trkpt lat="38.30876022" lon="-1.91700847">
        <ele>667.00000</ele>
        <time>2018-10-12T09:19:13Z</time>
      </trkpt>
      <trkpt lat="38.30882535" lon="-1.91724962">
        <ele>668.00000</ele>
        <time>2018-10-12T09:19:17Z</time>
      </trkpt>
      <trkpt lat="38.30889182" lon="-1.91755506">
        <ele>669.00000</ele>
        <time>2018-10-12T09:19:22Z</time>
      </trkpt>
      <trkpt lat="38.30896516" lon="-1.91791380">
        <ele>670.00000</ele>
        <time>2018-10-12T09:19:28Z</time>
      </trkpt>
      <trkpt lat="38.30901914" lon="-1.91820834">
        <ele>671.00000</ele>
        <time>2018-10-12T09:19:33Z</time>
      </trkpt>
      <trkpt lat="38.30908158" lon="-1.91856181">
        <ele>672.00000</ele>
        <time>2018-10-12T09:19:39Z</time>
      </trkpt>
      <trkpt lat="38.30914218" lon="-1.91891795">
        <ele>673.00000</ele>
        <time>2018-10-12T09:19:45Z</time>
      </trkpt>
      <trkpt lat="38.30920203" lon="-1.91926404">
        <ele>674.00000</ele>
        <time>2018-10-12T09:19:51Z</time>
      </trkpt>
      <trkpt lat="38.30925760" lon="-1.91961147">
        <ele>676.00000</ele>
        <time>2018-10-12T09:19:57Z</time>
      </trkpt>
      <trkpt lat="38.30932340" lon="-1.91995924">
        <ele>677.00000</ele>
        <time>2018-10-12T09:20:03Z</time>
      </trkpt>
      <trkpt lat="38.30939649" lon="-1.92037180">
        <ele>678.00000</ele>
        <time>2018-10-12T09:20:10Z</time>
      </trkpt>
      <trkpt lat="38.30946992" lon="-1.92077899">
        <ele>679.00000</ele>
        <time>2018-10-12T09:20:17Z</time>
      </trkpt>
      <trkpt lat="38.30952859" lon="-1.92112223">
        <ele>680.00000</ele>
        <time>2018-10-12T09:20:23Z</time>
      </trkpt>
      <trkpt lat="38.30958793" lon="-1.92146681">
        <ele>681.00000</ele>
        <time>2018-10-12T09:20:29Z</time>
      </trkpt>
      <trkpt lat="38.30964669" lon="-1.92181583">
        <ele>683.00000</ele>
        <time>2018-10-12T09:20:35Z</time>
      </trkpt>
      <trkpt lat="38.30970914" lon="-1.92216393">
        <ele>684.00000</ele>
        <time>2018-10-12T09:20:41Z</time>
      </trkpt>
      <trkpt lat="38.30975859" lon="-1.92245411">
        <ele>684.00000</ele>
        <time>2018-10-12T09:20:46Z</time>
      </trkpt>
      <trkpt lat="38.30980712" lon="-1.92274899">
        <ele>685.00000</ele>
        <time>2018-10-12T09:20:51Z</time>
      </trkpt>
      <trkpt lat="38.30986990" lon="-1.92309969">
        <ele>687.00000</ele>
        <time>2018-10-12T09:20:57Z</time>
      </trkpt>
      <trkpt lat="38.30991215" lon="-1.92333882">
        <ele>688.00000</ele>
        <time>2018-10-12T09:21:01Z</time>
      </trkpt>
      <trkpt lat="38.30999513" lon="-1.92381525">
        <ele>689.00000</ele>
        <time>2018-10-12T09:21:09Z</time>
      </trkpt>
      <trkpt lat="38.31006855" lon="-1.92423284">
        <ele>690.00000</ele>
        <time>2018-10-12T09:21:16Z</time>
      </trkpt>
      <trkpt lat="38.31012178" lon="-1.92453794">
        <ele>690.00000</ele>
        <time>2018-10-12T09:21:21Z</time>
      </trkpt>
      <trkpt lat="38.31018489" lon="-1.92491697">
        <ele>690.00000</ele>
        <time>2018-10-12T09:21:27Z</time>
      </trkpt>
      <trkpt lat="38.31019671" lon="-1.92498142">
        <ele>691.00000</ele>
        <time>2018-10-12T09:21:28Z</time>
      </trkpt>
      <trkpt lat="38.31029864" lon="-1.92555651">
        <ele>691.00000</ele>
        <time>2018-10-12T09:21:37Z</time>
      </trkpt>
      <trkpt lat="38.31040911" lon="-1.92618297">
        <ele>692.00000</ele>
        <time>2018-10-12T09:21:47Z</time>
      </trkpt>
      <trkpt lat="38.31048522" lon="-1.92661296">
        <ele>693.00000</ele>
        <time>2018-10-12T09:21:54Z</time>
      </trkpt>
      <trkpt lat="38.31056795" lon="-1.92709081">
        <ele>694.00000</ele>
        <time>2018-10-12T09:22:02Z</time>
      </trkpt>
      <trkpt lat="38.31065093" lon="-1.92757420">
        <ele>695.00000</ele>
        <time>2018-10-12T09:22:10Z</time>
      </trkpt>
      <trkpt lat="38.31077389" lon="-1.92828113">
        <ele>695.00000</ele>
        <time>2018-10-12T09:22:21Z</time>
      </trkpt>
      <trkpt lat="38.31082510" lon="-1.92860274">
        <ele>696.00000</ele>
        <time>2018-10-12T09:22:26Z</time>
      </trkpt>
      <trkpt lat="38.31083592" lon="-1.92866535">
        <ele>696.00000</ele>
        <time>2018-10-12T09:22:27Z</time>
      </trkpt>
      <trkpt lat="38.31087355" lon="-1.92885294">
        <ele>696.00000</ele>
        <time>2018-10-12T09:22:30Z</time>
      </trkpt>
      <trkpt lat="38.31089744" lon="-1.92904187">
        <ele>696.00000</ele>
        <time>2018-10-12T09:22:33Z</time>
      </trkpt>
      <trkpt lat="38.31090875" lon="-1.92910264">
        <ele>696.00000</ele>
        <time>2018-10-12T09:22:34Z</time>
      </trkpt>
      <trkpt lat="38.31092292" lon="-1.92916299">
        <ele>696.00000</ele>
        <time>2018-10-12T09:22:35Z</time>
      </trkpt>
      <trkpt lat="38.31094463" lon="-1.92928696">
        <ele>696.00000</ele>
        <time>2018-10-12T09:22:37Z</time>
      </trkpt>
      <trkpt lat="38.31095603" lon="-1.92934814">
        <ele>696.00000</ele>
        <time>2018-10-12T09:22:38Z</time>
      </trkpt>
      <trkpt lat="38.31097447" lon="-1.92947471">
        <ele>695.00000</ele>
        <time>2018-10-12T09:22:40Z</time>
      </trkpt>
      <trkpt lat="38.31098067" lon="-1.92954260">
        <ele>695.00000</ele>
        <time>2018-10-12T09:22:41Z</time>
      </trkpt>
      <trkpt lat="38.31100523" lon="-1.92968258">
        <ele>695.00000</ele>
        <time>2018-10-12T09:22:43Z</time>
      </trkpt>
      <trkpt lat="38.31109500" lon="-1.93002590">
        <ele>695.00000</ele>
        <time>2018-10-12T09:22:48Z</time>
      </trkpt>
      <trkpt lat="38.31114077" lon="-1.93022665">
        <ele>695.00000</ele>
        <time>2018-10-12T09:22:51Z</time>
      </trkpt>
      <trkpt lat="38.31109617" lon="-1.93040133">
        <ele>695.00000</ele>
        <time>2018-10-12T09:22:54Z</time>
      </trkpt>
      <trkpt lat="38.31101948" lon="-1.93047869">
        <ele>695.00000</ele>
        <time>2018-10-12T09:22:56Z</time>
      </trkpt>
      <trkpt lat="38.31097690" lon="-1.93051029">
        <ele>695.00000</ele>
        <time>2018-10-12T09:22:57Z</time>
      </trkpt>
      <trkpt lat="38.31084715" lon="-1.93058255">
        <ele>695.00000</ele>
        <time>2018-10-12T09:23:00Z</time>
      </trkpt>
      <trkpt lat="38.31076031" lon="-1.93061381">
        <ele>695.00000</ele>
        <time>2018-10-12T09:23:02Z</time>
      </trkpt>
      <trkpt lat="38.31062092" lon="-1.93063653">
        <ele>695.00000</ele>
        <time>2018-10-12T09:23:05Z</time>
      </trkpt>
      <trkpt lat="38.31003569" lon="-1.93059260">
        <ele>696.00000</ele>
        <time>2018-10-12T09:23:15Z</time>
      </trkpt>
      <trkpt lat="38.30963898" lon="-1.93050803">
        <ele>694.00000</ele>
        <time>2018-10-12T09:23:21Z</time>
      </trkpt>
      <trkpt lat="38.30912827" lon="-1.93026018">
        <ele>694.00000</ele>
        <time>2018-10-12T09:23:29Z</time>
      </trkpt>
      <trkpt lat="38.30892912" lon="-1.93015867">
        <ele>693.00000</ele>
        <time>2018-10-12T09:23:32Z</time>
      </trkpt>
      <trkpt lat="38.30840064" lon="-1.92988852">
        <ele>692.00000</ele>
        <time>2018-10-12T09:23:40Z</time>
      </trkpt>
      <trkpt lat="38.30788356" lon="-1.92962173">
        <ele>692.00000</ele>
        <time>2018-10-12T09:23:48Z</time>
      </trkpt>
      <trkpt lat="38.30736195" lon="-1.92935820">
        <ele>691.00000</ele>
        <time>2018-10-12T09:23:56Z</time>
      </trkpt>
      <trkpt lat="38.30723656" lon="-1.92930724">
        <ele>691.00000</ele>
        <time>2018-10-12T09:23:58Z</time>
      </trkpt>
      <trkpt lat="38.30676516" lon="-1.92959658">
        <ele>691.00000</ele>
        <time>2018-10-12T09:24:07Z</time>
      </trkpt>
      <trkpt lat="38.30664404" lon="-1.92975693">
        <ele>692.00000</ele>
        <time>2018-10-12T09:24:10Z</time>
      </trkpt>
      <trkpt lat="38.30648805" lon="-1.92996731">
        <ele>692.00000</ele>
        <time>2018-10-12T09:24:14Z</time>
      </trkpt>
      <trkpt lat="38.30629678" lon="-1.93022221">
        <ele>693.00000</ele>
        <time>2018-10-12T09:24:19Z</time>
      </trkpt>
      <trkpt lat="38.30603057" lon="-1.93057333">
        <ele>694.00000</ele>
        <time>2018-10-12T09:24:26Z</time>
      </trkpt>
      <trkpt lat="38.30575372" lon="-1.93092319">
        <ele>695.00000</ele>
        <time>2018-10-12T09:24:34Z</time>
      </trkpt>
      <trkpt lat="38.30555674" lon="-1.93118990">
        <ele>696.00000</ele>
        <time>2018-10-12T09:24:40Z</time>
      </trkpt>
      <trkpt lat="38.30541039" lon="-1.93136701">
        <ele>697.00000</ele>
        <time>2018-10-12T09:24:44Z</time>
      </trkpt>
      <trkpt lat="38.30524619" lon="-1.93151319">
        <ele>697.00000</ele>
        <time>2018-10-12T09:24:48Z</time>
      </trkpt>
      <trkpt lat="38.30511770" lon="-1.93161360">
        <ele>697.00000</ele>
        <time>2018-10-12T09:24:51Z</time>
      </trkpt>
      <trkpt lat="38.30481268" lon="-1.93184595">
        <ele>698.00000</ele>
        <time>2018-10-12T09:24:58Z</time>
      </trkpt>
      <trkpt lat="38.30437607" lon="-1.93218383">
        <ele>699.00000</ele>
        <time>2018-10-12T09:25:08Z</time>
      </trkpt>
      <trkpt lat="38.30397868" lon="-1.93248817">
        <ele>700.00000</ele>
        <time>2018-10-12T09:25:17Z</time>
      </trkpt>
      <trkpt lat="38.30357744" lon="-1.93284155">
        <ele>701.00000</ele>
        <time>2018-10-12T09:25:27Z</time>
      </trkpt>
      <trkpt lat="38.30335456" lon="-1.93317599">
        <ele>702.00000</ele>
        <time>2018-10-12T09:25:34Z</time>
      </trkpt>
      <trkpt lat="38.30306639" lon="-1.93363473">
        <ele>703.00000</ele>
        <time>2018-10-12T09:25:43Z</time>
      </trkpt>
      <trkpt lat="38.30262660" lon="-1.93410219">
        <ele>704.00000</ele>
        <time>2018-10-12T09:25:54Z</time>
      </trkpt>
      <trkpt lat="38.30224581" lon="-1.93433345">
        <ele>705.00000</ele>
        <time>2018-10-12T09:26:02Z</time>
      </trkpt>
      <trkpt lat="38.30190994" lon="-1.93453101">
        <ele>707.00000</ele>
        <time>2018-10-12T09:26:09Z</time>
      </trkpt>
      <trkpt lat="38.30157609" lon="-1.93473117">
        <ele>708.00000</ele>
        <time>2018-10-12T09:26:16Z</time>
      </trkpt>
      <trkpt lat="38.30113797" lon="-1.93494617">
        <ele>709.00000</ele>
        <time>2018-10-12T09:26:25Z</time>
      </trkpt>
      <trkpt lat="38.30074829" lon="-1.93508614">
        <ele>709.00000</ele>
        <time>2018-10-12T09:26:33Z</time>
      </trkpt>
      <trkpt lat="38.30032727" lon="-1.93526610">
        <ele>711.00000</ele>
        <time>2018-10-12T09:26:42Z</time>
      </trkpt>
      <trkpt lat="38.30009602" lon="-1.93538580">
        <ele>712.00000</ele>
        <time>2018-10-12T09:26:47Z</time>
      </trkpt>
      <trkpt lat="38.29959511" lon="-1.93561881">
        <ele>713.00000</ele>
        <time>2018-10-12T09:26:58Z</time>
      </trkpt>
      <trkpt lat="38.29935866" lon="-1.93569668">
        <ele>714.00000</ele>
        <time>2018-10-12T09:27:03Z</time>
      </trkpt>
      <trkpt lat="38.29907200" lon="-1.93577983">
        <ele>715.00000</ele>
        <time>2018-10-12T09:27:09Z</time>
      </trkpt>
      <trkpt lat="38.29869071" lon="-1.93589709">
        <ele>716.00000</ele>
        <time>2018-10-12T09:27:17Z</time>
      </trkpt>
      <trkpt lat="38.29839910" lon="-1.93598686">
        <ele>717.00000</ele>
        <time>2018-10-12T09:27:23Z</time>
      </trkpt>
      <trkpt lat="38.29805251" lon="-1.93609373">
        <ele>718.00000</ele>
        <time>2018-10-12T09:27:30Z</time>
      </trkpt>
      <trkpt lat="38.29760299" lon="-1.93622952">
        <ele>719.00000</ele>
        <time>2018-10-12T09:27:39Z</time>
      </trkpt>
      <trkpt lat="38.29725958" lon="-1.93634670">
        <ele>720.00000</ele>
        <time>2018-10-12T09:27:46Z</time>
      </trkpt>
      <trkpt lat="38.29697124" lon="-1.93647142">
        <ele>721.00000</ele>
        <time>2018-10-12T09:27:52Z</time>
      </trkpt>
      <trkpt lat="38.29692682" lon="-1.93650218">
        <ele>721.00000</ele>
        <time>2018-10-12T09:27:53Z</time>
      </trkpt>
      <trkpt lat="38.29677594" lon="-1.93667083">
        <ele>722.00000</ele>
        <time>2018-10-12T09:27:57Z</time>
      </trkpt>
      <trkpt lat="38.29667838" lon="-1.93681793">
        <ele>722.00000</ele>
        <time>2018-10-12T09:28:00Z</time>
      </trkpt>
      <trkpt lat="38.29646321" lon="-1.93719109">
        <ele>723.00000</ele>
        <time>2018-10-12T09:28:07Z</time>
      </trkpt>
      <trkpt lat="38.29614730" lon="-1.93769954">
        <ele>724.00000</ele>
        <time>2018-10-12T09:28:17Z</time>
      </trkpt>
      <trkpt lat="38.29589392" lon="-1.93802123">
        <ele>725.00000</ele>
        <time>2018-10-12T09:28:24Z</time>
      </trkpt>
      <trkpt lat="38.29551950" lon="-1.93850236">
        <ele>726.00000</ele>
        <time>2018-10-12T09:28:34Z</time>
      </trkpt>
      <trkpt lat="38.29510778" lon="-1.93903243">
        <ele>727.00000</ele>
        <time>2018-10-12T09:28:45Z</time>
      </trkpt>
      <trkpt lat="38.29504265" lon="-1.93913309">
        <ele>727.00000</ele>
        <time>2018-10-12T09:28:47Z</time>
      </trkpt>
      <trkpt lat="38.29478348" lon="-1.93961078">
        <ele>729.00000</ele>
        <time>2018-10-12T09:28:56Z</time>
      </trkpt>
      <trkpt lat="38.29458483" lon="-1.93999886">
        <ele>730.00000</ele>
        <time>2018-10-12T09:29:03Z</time>
      </trkpt>
      <trkpt lat="38.29428635" lon="-1.94056254">
        <ele>731.00000</ele>
        <time>2018-10-12T09:29:13Z</time>
      </trkpt>
      <trkpt lat="38.29404839" lon="-1.94100435">
        <ele>731.00000</ele>
        <time>2018-10-12T09:29:21Z</time>
      </trkpt>
      <trkpt lat="38.29383691" lon="-1.94139503">
        <ele>733.00000</ele>
        <time>2018-10-12T09:29:28Z</time>
      </trkpt>
      <trkpt lat="38.29348118" lon="-1.94195033">
        <ele>734.00000</ele>
        <time>2018-10-12T09:29:39Z</time>
      </trkpt>
      <trkpt lat="38.29326552" lon="-1.94220900">
        <ele>735.00000</ele>
        <time>2018-10-12T09:29:45Z</time>
      </trkpt>
      <trkpt lat="38.29300652" lon="-1.94250547">
        <ele>736.00000</ele>
        <time>2018-10-12T09:29:52Z</time>
      </trkpt>
      <trkpt lat="38.29270527" lon="-1.94284477">
        <ele>737.00000</ele>
        <time>2018-10-12T09:30:00Z</time>
      </trkpt>
      <trkpt lat="38.29237343" lon="-1.94322874">
        <ele>738.00000</ele>
        <time>2018-10-12T09:30:09Z</time>
      </trkpt>
      <trkpt lat="38.29220898" lon="-1.94345992">
        <ele>739.00000</ele>
        <time>2018-10-12T09:30:14Z</time>
      </trkpt>
      <trkpt lat="38.29202684" lon="-1.94375295">
        <ele>740.00000</ele>
        <time>2018-10-12T09:30:20Z</time>
      </trkpt>
      <trkpt lat="38.29188192" lon="-1.94400357">
        <ele>741.00000</ele>
        <time>2018-10-12T09:30:25Z</time>
      </trkpt>
      <trkpt lat="38.29164429" lon="-1.94441637">
        <ele>742.00000</ele>
        <time>2018-10-12T09:30:33Z</time>
      </trkpt>
      <trkpt lat="38.29138739" lon="-1.94486271">
        <ele>743.00000</ele>
        <time>2018-10-12T09:30:42Z</time>
      </trkpt>
      <trkpt lat="38.29122939" lon="-1.94514040">
        <ele>745.00000</ele>
        <time>2018-10-12T09:30:48Z</time>
      </trkpt>
      <trkpt lat="38.29111145" lon="-1.94532439">
        <ele>745.00000</ele>
        <time>2018-10-12T09:30:52Z</time>
      </trkpt>
      <trkpt lat="38.29094088" lon="-1.94555271">
        <ele>747.00000</ele>
        <time>2018-10-12T09:30:57Z</time>
      </trkpt>
      <trkpt lat="38.29058507" lon="-1.94602402">
        <ele>748.00000</ele>
        <time>2018-10-12T09:31:08Z</time>
      </trkpt>
      <trkpt lat="38.29039078" lon="-1.94626953">
        <ele>749.00000</ele>
        <time>2018-10-12T09:31:14Z</time>
      </trkpt>
      <trkpt lat="38.29013446" lon="-1.94661377">
        <ele>750.00000</ele>
        <time>2018-10-12T09:31:22Z</time>
      </trkpt>
      <trkpt lat="38.28991586" lon="-1.94692927">
        <ele>751.00000</ele>
        <time>2018-10-12T09:31:29Z</time>
      </trkpt>
      <trkpt lat="38.28976557" lon="-1.94715734">
        <ele>752.00000</ele>
        <time>2018-10-12T09:31:34Z</time>
      </trkpt>
      <trkpt lat="38.28970287" lon="-1.94724778">
        <ele>752.00000</ele>
        <time>2018-10-12T09:31:36Z</time>
      </trkpt>
      <trkpt lat="38.28952074" lon="-1.94751927">
        <ele>753.00000</ele>
        <time>2018-10-12T09:31:42Z</time>
      </trkpt>
      <trkpt lat="38.28932401" lon="-1.94782923">
        <ele>754.00000</ele>
        <time>2018-10-12T09:31:49Z</time>
      </trkpt>
      <trkpt lat="38.28916241" lon="-1.94808983">
        <ele>755.00000</ele>
        <time>2018-10-12T09:31:55Z</time>
      </trkpt>
      <trkpt lat="38.28902620" lon="-1.94829183">
        <ele>756.00000</ele>
        <time>2018-10-12T09:32:00Z</time>
      </trkpt>
      <trkpt lat="38.28886971" lon="-1.94854128">
        <ele>757.00000</ele>
        <time>2018-10-12T09:32:06Z</time>
      </trkpt>
      <trkpt lat="38.28870601" lon="-1.94880237">
        <ele>759.00000</ele>
        <time>2018-10-12T09:32:12Z</time>
      </trkpt>
      <trkpt lat="38.28857140" lon="-1.94902617">
        <ele>760.00000</ele>
        <time>2018-10-12T09:32:17Z</time>
      </trkpt>
      <trkpt lat="38.28842656" lon="-1.94929364">
        <ele>760.00000</ele>
        <time>2018-10-12T09:32:23Z</time>
      </trkpt>
      <trkpt lat="38.28831081" lon="-1.94951861">
        <ele>762.00000</ele>
        <time>2018-10-12T09:32:28Z</time>
      </trkpt>
      <trkpt lat="38.28822062" lon="-1.94969396">
        <ele>763.00000</ele>
        <time>2018-10-12T09:32:32Z</time>
      </trkpt>
      <trkpt lat="38.28809020" lon="-1.94994533">
        <ele>764.00000</ele>
        <time>2018-10-12T09:32:38Z</time>
      </trkpt>
      <trkpt lat="38.28798316" lon="-1.95015957">
        <ele>765.00000</ele>
        <time>2018-10-12T09:32:43Z</time>
      </trkpt>
      <trkpt lat="38.28787771" lon="-1.95036635">
        <ele>766.00000</ele>
        <time>2018-10-12T09:32:48Z</time>
      </trkpt>
      <trkpt lat="38.28774771" lon="-1.95061236">
        <ele>767.00000</ele>
        <time>2018-10-12T09:32:54Z</time>
      </trkpt>
      <trkpt lat="38.28766171" lon="-1.95077732">
        <ele>768.00000</ele>
        <time>2018-10-12T09:32:58Z</time>
      </trkpt>
      <trkpt lat="38.28763958" lon="-1.95081923">
        <ele>768.00000</ele>
        <time>2018-10-12T09:32:59Z</time>
      </trkpt>
      <trkpt lat="38.28755719" lon="-1.95098410">
        <ele>769.00000</ele>
        <time>2018-10-12T09:33:03Z</time>
      </trkpt>
      <trkpt lat="38.28749223" lon="-1.95110756">
        <ele>771.00000</ele>
        <time>2018-10-12T09:33:06Z</time>
      </trkpt>
      <trkpt lat="38.28738226" lon="-1.95131761">
        <ele>772.00000</ele>
        <time>2018-10-12T09:33:11Z</time>
      </trkpt>
      <trkpt lat="38.28726944" lon="-1.95153764">
        <ele>773.00000</ele>
        <time>2018-10-12T09:33:16Z</time>
      </trkpt>
      <trkpt lat="38.28713248" lon="-1.95179664">
        <ele>774.00000</ele>
        <time>2018-10-12T09:33:22Z</time>
      </trkpt>
      <trkpt lat="38.28698848" lon="-1.95206176">
        <ele>775.00000</ele>
        <time>2018-10-12T09:33:28Z</time>
      </trkpt>
      <trkpt lat="38.28684255" lon="-1.95233467">
        <ele>776.00000</ele>
        <time>2018-10-12T09:33:34Z</time>
      </trkpt>
      <trkpt lat="38.28667600" lon="-1.95264774">
        <ele>777.00000</ele>
        <time>2018-10-12T09:33:41Z</time>
      </trkpt>
      <trkpt lat="38.28651239" lon="-1.95295963">
        <ele>778.00000</ele>
        <time>2018-10-12T09:33:48Z</time>
      </trkpt>
      <trkpt lat="38.28637417" lon="-1.95321645">
        <ele>779.00000</ele>
        <time>2018-10-12T09:33:54Z</time>
      </trkpt>
      <trkpt lat="38.28625448" lon="-1.95343916">
        <ele>780.00000</ele>
        <time>2018-10-12T09:33:59Z</time>
      </trkpt>
      <trkpt lat="38.28613311" lon="-1.95366254">
        <ele>782.00000</ele>
        <time>2018-10-12T09:34:04Z</time>
      </trkpt>
      <trkpt lat="38.28601459" lon="-1.95388323">
        <ele>783.00000</ele>
        <time>2018-10-12T09:34:09Z</time>
      </trkpt>
      <trkpt lat="38.28584745" lon="-1.95419722">
        <ele>784.00000</ele>
        <time>2018-10-12T09:34:16Z</time>
      </trkpt>
      <trkpt lat="38.28566380" lon="-1.95456300">
        <ele>785.00000</ele>
        <time>2018-10-12T09:34:24Z</time>
      </trkpt>
      <trkpt lat="38.28550262" lon="-1.95489032">
        <ele>786.00000</ele>
        <time>2018-10-12T09:34:31Z</time>
      </trkpt>
      <trkpt lat="38.28547948" lon="-1.95493633">
        <ele>786.00000</ele>
        <time>2018-10-12T09:34:32Z</time>
      </trkpt>
      <trkpt lat="38.28530631" lon="-1.95525602">
        <ele>787.00000</ele>
        <time>2018-10-12T09:34:39Z</time>
      </trkpt>
      <trkpt lat="38.28512644" lon="-1.95556045">
        <ele>788.00000</ele>
        <time>2018-10-12T09:34:46Z</time>
      </trkpt>
      <trkpt lat="38.28500071" lon="-1.95577402">
        <ele>789.00000</ele>
        <time>2018-10-12T09:34:51Z</time>
      </trkpt>
      <trkpt lat="38.28479301" lon="-1.95611634">
        <ele>790.00000</ele>
        <time>2018-10-12T09:34:59Z</time>
      </trkpt>
      <trkpt lat="38.28463442" lon="-1.95637509">
        <ele>791.00000</ele>
        <time>2018-10-12T09:35:05Z</time>
      </trkpt>
      <trkpt lat="38.28444365" lon="-1.95668178">
        <ele>792.00000</ele>
        <time>2018-10-12T09:35:12Z</time>
      </trkpt>
      <trkpt lat="38.28426931" lon="-1.95701848">
        <ele>793.00000</ele>
        <time>2018-10-12T09:35:19Z</time>
      </trkpt>
      <trkpt lat="38.28412807" lon="-1.95744873">
        <ele>794.00000</ele>
        <time>2018-10-12T09:35:27Z</time>
      </trkpt>
      <trkpt lat="38.28408264" lon="-1.95761234">
        <ele>794.00000</ele>
        <time>2018-10-12T09:35:30Z</time>
      </trkpt>
      <trkpt lat="38.28397703" lon="-1.95799430">
        <ele>795.00000</ele>
        <time>2018-10-12T09:35:37Z</time>
      </trkpt>
      <trkpt lat="38.28387997" lon="-1.95829831">
        <ele>796.00000</ele>
        <time>2018-10-12T09:35:43Z</time>
      </trkpt>
      <trkpt lat="38.28378533" lon="-1.95853007">
        <ele>797.00000</ele>
        <time>2018-10-12T09:35:48Z</time>
      </trkpt>
      <trkpt lat="38.28369858" lon="-1.95869570">
        <ele>798.00000</ele>
        <time>2018-10-12T09:35:52Z</time>
      </trkpt>
      <trkpt lat="38.28360504" lon="-1.95885127">
        <ele>799.00000</ele>
        <time>2018-10-12T09:35:56Z</time>
      </trkpt>
      <trkpt lat="38.28350731" lon="-1.95901011">
        <ele>801.00000</ele>
        <time>2018-10-12T09:36:00Z</time>
      </trkpt>
      <trkpt lat="38.28340773" lon="-1.95916811">
        <ele>802.00000</ele>
        <time>2018-10-12T09:36:04Z</time>
      </trkpt>
      <trkpt lat="38.28328125" lon="-1.95937229">
        <ele>803.00000</ele>
        <time>2018-10-12T09:36:09Z</time>
      </trkpt>
      <trkpt lat="38.28315217" lon="-1.95958142">
        <ele>804.00000</ele>
        <time>2018-10-12T09:36:14Z</time>
      </trkpt>
      <trkpt lat="38.28295050" lon="-1.95990068">
        <ele>805.00000</ele>
        <time>2018-10-12T09:36:22Z</time>
      </trkpt>
      <trkpt lat="38.28281572" lon="-1.96008408">
        <ele>806.00000</ele>
        <time>2018-10-12T09:36:27Z</time>
      </trkpt>
      <trkpt lat="38.28267389" lon="-1.96025792">
        <ele>807.00000</ele>
        <time>2018-10-12T09:36:32Z</time>
      </trkpt>
      <trkpt lat="38.28256057" lon="-1.96039639">
        <ele>808.00000</ele>
        <time>2018-10-12T09:36:36Z</time>
      </trkpt>
      <trkpt lat="38.28241422" lon="-1.96056772">
        <ele>809.00000</ele>
        <time>2018-10-12T09:36:41Z</time>
      </trkpt>
      <trkpt lat="38.28224105" lon="-1.96078305">
        <ele>810.00000</ele>
        <time>2018-10-12T09:36:47Z</time>
      </trkpt>
      <trkpt lat="38.28203964" lon="-1.96103593">
        <ele>811.00000</ele>
        <time>2018-10-12T09:36:54Z</time>
      </trkpt>
      <trkpt lat="38.28183704" lon="-1.96127976">
        <ele>813.00000</ele>
        <time>2018-10-12T09:37:01Z</time>
      </trkpt>
      <trkpt lat="38.28169723" lon="-1.96145217">
        <ele>814.00000</ele>
        <time>2018-10-12T09:37:06Z</time>
      </trkpt>
      <trkpt lat="38.28155977" lon="-1.96163582">
        <ele>815.00000</ele>
        <time>2018-10-12T09:37:11Z</time>
      </trkpt>
      <trkpt lat="38.28142147" lon="-1.96188795">
        <ele>816.00000</ele>
        <time>2018-10-12T09:37:17Z</time>
      </trkpt>
      <trkpt lat="38.28135668" lon="-1.96213538">
        <ele>817.00000</ele>
        <time>2018-10-12T09:37:22Z</time>
      </trkpt>
      <trkpt lat="38.28131636" lon="-1.96244811">
        <ele>818.00000</ele>
        <time>2018-10-12T09:37:28Z</time>
      </trkpt>
      <trkpt lat="38.28126934" lon="-1.96281231">
        <ele>819.00000</ele>
        <time>2018-10-12T09:37:35Z</time>
      </trkpt>
      <trkpt lat="38.28119021" lon="-1.96311506">
        <ele>820.00000</ele>
        <time>2018-10-12T09:37:41Z</time>
      </trkpt>
      <trkpt lat="38.28110053" lon="-1.96336015">
        <ele>821.00000</ele>
        <time>2018-10-12T09:37:46Z</time>
      </trkpt>
      <trkpt lat="38.28099165" lon="-1.96364748">
        <ele>822.00000</ele>
        <time>2018-10-12T09:37:52Z</time>
      </trkpt>
      <trkpt lat="38.28088738" lon="-1.96392718">
        <ele>823.00000</ele>
        <time>2018-10-12T09:37:58Z</time>
      </trkpt>
      <trkpt lat="38.28078185" lon="-1.96421200">
        <ele>824.00000</ele>
        <time>2018-10-12T09:38:04Z</time>
      </trkpt>
      <trkpt lat="38.28067640" lon="-1.96449271">
        <ele>825.00000</ele>
        <time>2018-10-12T09:38:10Z</time>
      </trkpt>
      <trkpt lat="38.28055445" lon="-1.96482027">
        <ele>826.00000</ele>
        <time>2018-10-12T09:38:17Z</time>
      </trkpt>
      <trkpt lat="38.28046602" lon="-1.96505413">
        <ele>827.00000</ele>
        <time>2018-10-12T09:38:22Z</time>
      </trkpt>
      <trkpt lat="38.28040927" lon="-1.96525278">
        <ele>828.00000</ele>
        <time>2018-10-12T09:38:26Z</time>
      </trkpt>
      <trkpt lat="38.28036862" lon="-1.96552846">
        <ele>829.00000</ele>
        <time>2018-10-12T09:38:31Z</time>
      </trkpt>
      <trkpt lat="38.28033450" lon="-1.96618728">
        <ele>831.00000</ele>
        <time>2018-10-12T09:38:43Z</time>
      </trkpt>
      <trkpt lat="38.28028849" lon="-1.96645349">
        <ele>832.00000</ele>
        <time>2018-10-12T09:38:48Z</time>
      </trkpt>
      <trkpt lat="38.28020056" lon="-1.96681709">
        <ele>833.00000</ele>
        <time>2018-10-12T09:38:55Z</time>
      </trkpt>
      <trkpt lat="38.28013468" lon="-1.96708498">
        <ele>834.00000</ele>
        <time>2018-10-12T09:39:00Z</time>
      </trkpt>
      <trkpt lat="38.28004105" lon="-1.96747055">
        <ele>835.00000</ele>
        <time>2018-10-12T09:39:07Z</time>
      </trkpt>
      <trkpt lat="38.27992497" lon="-1.96798042">
        <ele>836.00000</ele>
        <time>2018-10-12T09:39:16Z</time>
      </trkpt>
      <trkpt lat="38.27980552" lon="-1.96849909">
        <ele>837.00000</ele>
        <time>2018-10-12T09:39:26Z</time>
      </trkpt>
      <trkpt lat="38.27977208" lon="-1.96865156">
        <ele>838.00000</ele>
        <time>2018-10-12T09:39:29Z</time>
      </trkpt>
      <trkpt lat="38.27970310" lon="-1.96895331">
        <ele>839.00000</ele>
        <time>2018-10-12T09:39:35Z</time>
      </trkpt>
      <trkpt lat="38.27964786" lon="-1.96915271">
        <ele>840.00000</ele>
        <time>2018-10-12T09:39:39Z</time>
      </trkpt>
      <trkpt lat="38.27956764" lon="-1.96939378">
        <ele>841.00000</ele>
        <time>2018-10-12T09:39:44Z</time>
      </trkpt>
      <trkpt lat="38.27945809" lon="-1.96968086">
        <ele>842.00000</ele>
        <time>2018-10-12T09:39:50Z</time>
      </trkpt>
      <trkpt lat="38.27932281" lon="-1.97000104">
        <ele>844.00000</ele>
        <time>2018-10-12T09:39:57Z</time>
      </trkpt>
      <trkpt lat="38.27917462" lon="-1.97031335">
        <ele>845.00000</ele>
        <time>2018-10-12T09:40:04Z</time>
      </trkpt>
      <trkpt lat="38.27907797" lon="-1.97049206">
        <ele>846.00000</ele>
        <time>2018-10-12T09:40:08Z</time>
      </trkpt>
      <trkpt lat="38.27889206" lon="-1.97086287">
        <ele>847.00000</ele>
        <time>2018-10-12T09:40:16Z</time>
      </trkpt>
      <trkpt lat="38.27877908" lon="-1.97116831">
        <ele>848.00000</ele>
        <time>2018-10-12T09:40:22Z</time>
      </trkpt>
      <trkpt lat="38.27862736" lon="-1.97172026">
        <ele>849.00000</ele>
        <time>2018-10-12T09:40:32Z</time>
      </trkpt>
      <trkpt lat="38.27860674" lon="-1.97195612">
        <ele>849.00000</ele>
        <time>2018-10-12T09:40:36Z</time>
      </trkpt>
      <trkpt lat="38.27859484" lon="-1.97235208">
        <ele>850.00000</ele>
        <time>2018-10-12T09:40:43Z</time>
      </trkpt>
      <trkpt lat="38.27858889" lon="-1.97265417">
        <ele>851.00000</ele>
        <time>2018-10-12T09:40:49Z</time>
      </trkpt>
      <trkpt lat="38.27858512" lon="-1.97280731">
        <ele>852.00000</ele>
        <time>2018-10-12T09:40:52Z</time>
      </trkpt>
      <trkpt lat="38.27858235" lon="-1.97286045">
        <ele>852.00000</ele>
        <time>2018-10-12T09:40:53Z</time>
      </trkpt>
      <trkpt lat="38.27857682" lon="-1.97302482">
        <ele>853.00000</ele>
        <time>2018-10-12T09:40:56Z</time>
      </trkpt>
      <trkpt lat="38.27857338" lon="-1.97308106">
        <ele>853.00000</ele>
        <time>2018-10-12T09:40:57Z</time>
      </trkpt>
      <trkpt lat="38.27854656" lon="-1.97335523">
        <ele>855.00000</ele>
        <time>2018-10-12T09:41:02Z</time>
      </trkpt>
      <trkpt lat="38.27849644" lon="-1.97372957">
        <ele>856.00000</ele>
        <time>2018-10-12T09:41:09Z</time>
      </trkpt>
      <trkpt lat="38.27843056" lon="-1.97416962">
        <ele>857.00000</ele>
        <time>2018-10-12T09:41:17Z</time>
      </trkpt>
      <trkpt lat="38.27833324" lon="-1.97459567">
        <ele>858.00000</ele>
        <time>2018-10-12T09:41:25Z</time>
      </trkpt>
      <trkpt lat="38.27820911" lon="-1.97493229">
        <ele>859.00000</ele>
        <time>2018-10-12T09:41:31Z</time>
      </trkpt>
      <trkpt lat="38.27792010" lon="-1.97552966">
        <ele>860.00000</ele>
        <time>2018-10-12T09:41:42Z</time>
      </trkpt>
      <trkpt lat="38.27789084" lon="-1.97557786">
        <ele>860.00000</ele>
        <time>2018-10-12T09:41:43Z</time>
      </trkpt>
      <trkpt lat="38.27777023" lon="-1.97577324">
        <ele>860.00000</ele>
        <time>2018-10-12T09:41:47Z</time>
      </trkpt>
      <trkpt lat="38.27764534" lon="-1.97596720">
        <ele>861.00000</ele>
        <time>2018-10-12T09:41:51Z</time>
      </trkpt>
      <trkpt lat="38.27761500" lon="-1.97601581">
        <ele>861.00000</ele>
        <time>2018-10-12T09:41:52Z</time>
      </trkpt>
      <trkpt lat="38.27734418" lon="-1.97645151">
        <ele>862.00000</ele>
        <time>2018-10-12T09:42:01Z</time>
      </trkpt>
      <trkpt lat="38.27721434" lon="-1.97666047">
        <ele>862.00000</ele>
        <time>2018-10-12T09:42:05Z</time>
      </trkpt>
      <trkpt lat="38.27714863" lon="-1.97676507">
        <ele>862.00000</ele>
        <time>2018-10-12T09:42:07Z</time>
      </trkpt>
      <trkpt lat="38.27702164" lon="-1.97696062">
        <ele>862.00000</ele>
        <time>2018-10-12T09:42:11Z</time>
      </trkpt>
      <trkpt lat="38.27695844" lon="-1.97704888">
        <ele>862.00000</ele>
        <time>2018-10-12T09:42:13Z</time>
      </trkpt>
      <trkpt lat="38.27674319" lon="-1.97711904">
        <ele>862.00000</ele>
        <time>2018-10-12T09:42:18Z</time>
      </trkpt>
      <trkpt lat="38.27659710" lon="-1.97711619">
        <ele>862.00000</ele>
        <time>2018-10-12T09:42:22Z</time>
      </trkpt>
      <trkpt lat="38.27646391" lon="-1.97711049">
        <ele>863.00000</ele>
        <time>2018-10-12T09:42:26Z</time>
      </trkpt>
      <trkpt lat="38.27636802" lon="-1.97710236">
        <ele>864.00000</ele>
        <time>2018-10-12T09:42:29Z</time>
      </trkpt>
      <trkpt lat="38.27624280" lon="-1.97708602">
        <ele>865.00000</ele>
        <time>2018-10-12T09:42:33Z</time>
      </trkpt>
      <trkpt lat="38.27614372" lon="-1.97707269">
        <ele>866.00000</ele>
        <time>2018-10-12T09:42:36Z</time>
      </trkpt>
      <trkpt lat="38.27611003" lon="-1.97706858">
        <ele>866.00000</ele>
        <time>2018-10-12T09:42:37Z</time>
      </trkpt>
      <trkpt lat="38.27597239" lon="-1.97706229">
        <ele>867.00000</ele>
        <time>2018-10-12T09:42:41Z</time>
      </trkpt>
      <trkpt lat="38.27593828" lon="-1.97706372">
        <ele>867.00000</ele>
        <time>2018-10-12T09:42:42Z</time>
      </trkpt>
      <trkpt lat="38.27577383" lon="-1.97709230">
        <ele>868.00000</ele>
        <time>2018-10-12T09:42:47Z</time>
      </trkpt>
      <trkpt lat="38.27565363" lon="-1.97714637">
        <ele>869.00000</ele>
        <time>2018-10-12T09:42:51Z</time>
      </trkpt>
      <trkpt lat="38.27556545" lon="-1.97719188">
        <ele>870.00000</ele>
        <time>2018-10-12T09:42:54Z</time>
      </trkpt>
      <trkpt lat="38.27550728" lon="-1.97722197">
        <ele>871.00000</ele>
        <time>2018-10-12T09:42:56Z</time>
      </trkpt>
      <trkpt lat="38.27541952" lon="-1.97727411">
        <ele>872.00000</ele>
        <time>2018-10-12T09:42:59Z</time>
      </trkpt>
      <trkpt lat="38.27530218" lon="-1.97736019">
        <ele>873.00000</ele>
        <time>2018-10-12T09:43:03Z</time>
      </trkpt>
      <trkpt lat="38.27516379" lon="-1.97746999">
        <ele>874.00000</ele>
        <time>2018-10-12T09:43:08Z</time>
      </trkpt>
      <trkpt lat="38.27502935" lon="-1.97757652">
        <ele>875.00000</ele>
        <time>2018-10-12T09:43:13Z</time>
      </trkpt>
      <trkpt lat="38.27495081" lon="-1.97764182">
        <ele>876.00000</ele>
        <time>2018-10-12T09:43:16Z</time>
      </trkpt>
      <trkpt lat="38.27487244" lon="-1.97771147">
        <ele>877.00000</ele>
        <time>2018-10-12T09:43:19Z</time>
      </trkpt>
      <trkpt lat="38.27479365" lon="-1.97778222">
        <ele>878.00000</ele>
        <time>2018-10-12T09:43:22Z</time>
      </trkpt>
      <trkpt lat="38.27471628" lon="-1.97786193">
        <ele>879.00000</ele>
        <time>2018-10-12T09:43:25Z</time>
      </trkpt>
      <trkpt lat="38.27464261" lon="-1.97793577">
        <ele>881.00000</ele>
        <time>2018-10-12T09:43:28Z</time>
      </trkpt>
      <trkpt lat="38.27457404" lon="-1.97801465">
        <ele>882.00000</ele>
        <time>2018-10-12T09:43:31Z</time>
      </trkpt>
      <trkpt lat="38.27447589" lon="-1.97812462">
        <ele>883.00000</ele>
        <time>2018-10-12T09:43:35Z</time>
      </trkpt>
      <trkpt lat="38.27408152" lon="-1.97864849">
        <ele>884.00000</ele>
        <time>2018-10-12T09:43:49Z</time>
      </trkpt>
      <trkpt lat="38.27389360" lon="-1.97891335">
        <ele>884.00000</ele>
        <time>2018-10-12T09:43:55Z</time>
      </trkpt>
      <trkpt lat="38.27372755" lon="-1.97914361">
        <ele>884.00000</ele>
        <time>2018-10-12T09:44:00Z</time>
      </trkpt>
      <trkpt lat="38.27360275" lon="-1.97933337">
        <ele>884.00000</ele>
        <time>2018-10-12T09:44:04Z</time>
      </trkpt>
      <trkpt lat="38.27347232" lon="-1.97951501">
        <ele>884.00000</ele>
        <time>2018-10-12T09:44:08Z</time>
      </trkpt>
      <trkpt lat="38.27343997" lon="-1.97956010">
        <ele>884.00000</ele>
        <time>2018-10-12T09:44:09Z</time>
      </trkpt>
      <trkpt lat="38.27333603" lon="-1.97969170">
        <ele>884.00000</ele>
        <time>2018-10-12T09:44:12Z</time>
      </trkpt>
      <trkpt lat="38.27318617" lon="-1.97983159">
        <ele>884.00000</ele>
        <time>2018-10-12T09:44:16Z</time>
      </trkpt>
      <trkpt lat="38.27287570" lon="-1.98004977">
        <ele>885.00000</ele>
        <time>2018-10-12T09:44:25Z</time>
      </trkpt>
      <trkpt lat="38.27275978" lon="-1.98011817">
        <ele>886.00000</ele>
        <time>2018-10-12T09:44:29Z</time>
      </trkpt>
      <trkpt lat="38.27267244" lon="-1.98018237">
        <ele>887.00000</ele>
        <time>2018-10-12T09:44:32Z</time>
      </trkpt>
      <trkpt lat="38.27254168" lon="-1.98027424">
        <ele>888.00000</ele>
        <time>2018-10-12T09:44:36Z</time>
      </trkpt>
      <trkpt lat="38.27240095" lon="-1.98036460">
        <ele>889.00000</ele>
        <time>2018-10-12T09:44:41Z</time>
      </trkpt>
      <trkpt lat="38.27239835" lon="-1.98036577">
        <ele>889.00000</ele>
        <time>2018-10-12T09:44:42Z</time>
      </trkpt>
      <trkpt lat="38.27238444" lon="-1.98036912">
        <ele>891.00000</ele>
        <time>2018-10-12T09:45:23Z</time>
      </trkpt>
      <trkpt lat="38.27236658" lon="-1.98037524">
        <ele>891.00000</ele>
        <time>2018-10-12T09:45:24Z</time>
      </trkpt>
      <trkpt lat="38.27201387" lon="-1.98048563">
        <ele>891.00000</ele>
        <time>2018-10-12T09:45:32Z</time>
      </trkpt>
      <trkpt lat="38.27182997" lon="-1.98054112">
        <ele>891.00000</ele>
        <time>2018-10-12T09:45:35Z</time>
      </trkpt>
      <trkpt lat="38.27159780" lon="-1.98062242">
        <ele>891.00000</ele>
        <time>2018-10-12T09:45:39Z</time>
      </trkpt>
      <trkpt lat="38.27134416" lon="-1.98068001">
        <ele>890.00000</ele>
        <time>2018-10-12T09:45:43Z</time>
      </trkpt>
      <trkpt lat="38.27106948" lon="-1.98075561">
        <ele>890.00000</ele>
        <time>2018-10-12T09:45:47Z</time>
      </trkpt>
      <trkpt lat="38.27094526" lon="-1.98085200">
        <ele>890.00000</ele>
        <time>2018-10-12T09:45:49Z</time>
      </trkpt>
      <trkpt lat="38.27073018" lon="-1.98108494">
        <ele>889.00000</ele>
        <time>2018-10-12T09:45:53Z</time>
      </trkpt>
      <trkpt lat="38.27067528" lon="-1.98113833">
        <ele>889.00000</ele>
        <time>2018-10-12T09:45:54Z</time>
      </trkpt>
      <trkpt lat="38.27041704" lon="-1.98144779">
        <ele>888.00000</ele>
        <time>2018-10-12T09:45:59Z</time>
      </trkpt>
      <trkpt lat="38.27018771" lon="-1.98172062">
        <ele>888.00000</ele>
        <time>2018-10-12T09:46:03Z</time>
      </trkpt>
      <trkpt lat="38.27004790" lon="-1.98183730">
        <ele>888.00000</ele>
        <time>2018-10-12T09:46:05Z</time>
      </trkpt>
      <trkpt lat="38.26989325" lon="-1.98194090">
        <ele>887.00000</ele>
        <time>2018-10-12T09:46:07Z</time>
      </trkpt>
      <trkpt lat="38.26981052" lon="-1.98197811">
        <ele>887.00000</ele>
        <time>2018-10-12T09:46:08Z</time>
      </trkpt>
      <trkpt lat="38.26963677" lon="-1.98201944">
        <ele>886.00000</ele>
        <time>2018-10-12T09:46:10Z</time>
      </trkpt>
      <trkpt lat="38.26945655" lon="-1.98201399">
        <ele>884.00000</ele>
        <time>2018-10-12T09:46:12Z</time>
      </trkpt>
      <trkpt lat="38.26936352" lon="-1.98200142">
        <ele>884.00000</ele>
        <time>2018-10-12T09:46:13Z</time>
      </trkpt>
      <trkpt lat="38.26926846" lon="-1.98198867">
        <ele>883.00000</ele>
        <time>2018-10-12T09:46:14Z</time>
      </trkpt>
      <trkpt lat="38.26909555" lon="-1.98197945">
        <ele>882.00000</ele>
        <time>2018-10-12T09:46:16Z</time>
      </trkpt>
      <trkpt lat="38.26902120" lon="-1.98200183">
        <ele>882.00000</ele>
        <time>2018-10-12T09:46:17Z</time>
      </trkpt>
      <trkpt lat="38.26891986" lon="-1.98210636">
        <ele>881.00000</ele>
        <time>2018-10-12T09:46:19Z</time>
      </trkpt>
      <trkpt lat="38.26888684" lon="-1.98230132">
        <ele>880.00000</ele>
        <time>2018-10-12T09:46:22Z</time>
      </trkpt>
      <trkpt lat="38.26888583" lon="-1.98236435">
        <ele>880.00000</ele>
        <time>2018-10-12T09:46:23Z</time>
      </trkpt>
      <trkpt lat="38.26889044" lon="-1.98248916">
        <ele>880.00000</ele>
        <time>2018-10-12T09:46:25Z</time>
      </trkpt>
      <trkpt lat="38.26890477" lon="-1.98260986">
        <ele>880.00000</ele>
        <time>2018-10-12T09:46:27Z</time>
      </trkpt>
      <trkpt lat="38.26891617" lon="-1.98272695">
        <ele>882.00000</ele>
        <time>2018-10-12T09:46:29Z</time>
      </trkpt>
      <trkpt lat="38.26892095" lon="-1.98278646">
        <ele>882.00000</ele>
        <time>2018-10-12T09:46:30Z</time>
      </trkpt>
      <trkpt lat="38.26892171" lon="-1.98284564">
        <ele>883.00000</ele>
        <time>2018-10-12T09:46:31Z</time>
      </trkpt>
      <trkpt lat="38.26891735" lon="-1.98290079">
        <ele>884.00000</ele>
        <time>2018-10-12T09:46:32Z</time>
      </trkpt>
      <trkpt lat="38.26889430" lon="-1.98302208">
        <ele>885.00000</ele>
        <time>2018-10-12T09:46:34Z</time>
      </trkpt>
      <trkpt lat="38.26887259" lon="-1.98308193">
        <ele>885.00000</ele>
        <time>2018-10-12T09:46:35Z</time>
      </trkpt>
      <trkpt lat="38.26881710" lon="-1.98318628">
        <ele>886.00000</ele>
        <time>2018-10-12T09:46:37Z</time>
      </trkpt>
      <trkpt lat="38.26878617" lon="-1.98323607">
        <ele>886.00000</ele>
        <time>2018-10-12T09:46:38Z</time>
      </trkpt>
      <trkpt lat="38.26867897" lon="-1.98336825">
        <ele>887.00000</ele>
        <time>2018-10-12T09:46:41Z</time>
      </trkpt>
      <trkpt lat="38.26860026" lon="-1.98344109">
        <ele>887.00000</ele>
        <time>2018-10-12T09:46:43Z</time>
      </trkpt>
      <trkpt lat="38.26848207" lon="-1.98354754">
        <ele>888.00000</ele>
        <time>2018-10-12T09:46:46Z</time>
      </trkpt>
      <trkpt lat="38.26839800" lon="-1.98360563">
        <ele>888.00000</ele>
        <time>2018-10-12T09:46:48Z</time>
      </trkpt>
      <trkpt lat="38.26811520" lon="-1.98370931">
        <ele>889.00000</ele>
        <time>2018-10-12T09:46:54Z</time>
      </trkpt>
      <trkpt lat="38.26782980" lon="-1.98370722">
        <ele>890.00000</ele>
        <time>2018-10-12T09:47:00Z</time>
      </trkpt>
      <trkpt lat="38.26768881" lon="-1.98370579">
        <ele>891.00000</ele>
        <time>2018-10-12T09:47:03Z</time>
      </trkpt>
      <trkpt lat="38.26747055" lon="-1.98368651">
        <ele>891.00000</ele>
        <time>2018-10-12T09:47:08Z</time>
      </trkpt>
      <trkpt lat="38.26723854" lon="-1.98375860">
        <ele>893.00000</ele>
        <time>2018-10-12T09:47:14Z</time>
      </trkpt>
      <trkpt lat="38.26713083" lon="-1.98380101">
        <ele>894.00000</ele>
        <time>2018-10-12T09:47:18Z</time>
      </trkpt>
      <trkpt lat="38.26708188" lon="-1.98382498">
        <ele>895.00000</ele>
        <time>2018-10-12T09:47:20Z</time>
      </trkpt>
      <trkpt lat="38.26703251" lon="-1.98384585">
        <ele>896.00000</ele>
        <time>2018-10-12T09:47:22Z</time>
      </trkpt>
      <trkpt lat="38.26698222" lon="-1.98386480">
        <ele>897.00000</ele>
        <time>2018-10-12T09:47:24Z</time>
      </trkpt>
      <trkpt lat="38.26685783" lon="-1.98387318">
        <ele>898.00000</ele>
        <time>2018-10-12T09:47:29Z</time>
      </trkpt>
      <trkpt lat="38.26677309" lon="-1.98383387">
        <ele>900.00000</ele>
        <time>2018-10-12T09:47:33Z</time>
      </trkpt>
      <trkpt lat="38.26671089" lon="-1.98380034">
        <ele>901.00000</ele>
        <time>2018-10-12T09:47:36Z</time>
      </trkpt>
      <trkpt lat="38.26660897" lon="-1.98373890">
        <ele>902.00000</ele>
        <time>2018-10-12T09:47:41Z</time>
      </trkpt>
      <trkpt lat="38.26652993" lon="-1.98369674">
        <ele>903.00000</ele>
        <time>2018-10-12T09:47:45Z</time>
      </trkpt>
      <trkpt lat="38.26645349" lon="-1.98365827">
        <ele>904.00000</ele>
        <time>2018-10-12T09:47:49Z</time>
      </trkpt>
      <trkpt lat="38.26637822" lon="-1.98361493">
        <ele>905.00000</ele>
        <time>2018-10-12T09:47:53Z</time>
      </trkpt>
      <trkpt lat="38.26630379" lon="-1.98357881">
        <ele>907.00000</ele>
        <time>2018-10-12T09:47:57Z</time>
      </trkpt>
      <trkpt lat="38.26622768" lon="-1.98354452">
        <ele>908.00000</ele>
        <time>2018-10-12T09:48:01Z</time>
      </trkpt>
      <trkpt lat="38.26616917" lon="-1.98351996">
        <ele>909.00000</ele>
        <time>2018-10-12T09:48:04Z</time>
      </trkpt>
      <trkpt lat="38.26610941" lon="-1.98349960">
        <ele>910.00000</ele>
        <time>2018-10-12T09:48:07Z</time>
      </trkpt>
      <trkpt lat="38.26604965" lon="-1.98347805">
        <ele>911.00000</ele>
        <time>2018-10-12T09:48:10Z</time>
      </trkpt>
      <trkpt lat="38.26597320" lon="-1.98344604">
        <ele>912.00000</ele>
        <time>2018-10-12T09:48:14Z</time>
      </trkpt>
      <trkpt lat="38.26591621" lon="-1.98341368">
        <ele>913.00000</ele>
        <time>2018-10-12T09:48:17Z</time>
      </trkpt>
      <trkpt lat="38.26584387" lon="-1.98338921">
        <ele>915.00000</ele>
        <time>2018-10-12T09:48:21Z</time>
      </trkpt>
      <trkpt lat="38.26578645" lon="-1.98336532">
        <ele>916.00000</ele>
        <time>2018-10-12T09:48:24Z</time>
      </trkpt>
      <trkpt lat="38.26570792" lon="-1.98332123">
        <ele>917.00000</ele>
        <time>2018-10-12T09:48:28Z</time>
      </trkpt>
      <trkpt lat="38.26562401" lon="-1.98326616">
        <ele>918.00000</ele>
        <time>2018-10-12T09:48:32Z</time>
      </trkpt>
      <trkpt lat="38.26554749" lon="-1.98323071">
        <ele>919.00000</ele>
        <time>2018-10-12T09:48:36Z</time>
      </trkpt>
      <trkpt lat="38.26548747" lon="-1.98321226">
        <ele>920.00000</ele>
        <time>2018-10-12T09:48:39Z</time>
      </trkpt>
      <trkpt lat="38.26542100" lon="-1.98318159">
        <ele>921.00000</ele>
        <time>2018-10-12T09:48:42Z</time>
      </trkpt>
      <trkpt lat="38.26533693" lon="-1.98316977">
        <ele>922.00000</ele>
        <time>2018-10-12T09:48:46Z</time>
      </trkpt>
      <trkpt lat="38.26525764" lon="-1.98315401">
        <ele>924.00000</ele>
        <time>2018-10-12T09:48:50Z</time>
      </trkpt>
      <trkpt lat="38.26519184" lon="-1.98314026">
        <ele>925.00000</ele>
        <time>2018-10-12T09:48:53Z</time>
      </trkpt>
      <trkpt lat="38.26509771" lon="-1.98311738">
        <ele>926.00000</ele>
        <time>2018-10-12T09:48:57Z</time>
      </trkpt>
      <trkpt lat="38.26499311" lon="-1.98309953">
        <ele>927.00000</ele>
        <time>2018-10-12T09:49:01Z</time>
      </trkpt>
      <trkpt lat="38.26472782" lon="-1.98308310">
        <ele>928.00000</ele>
        <time>2018-10-12T09:49:09Z</time>
      </trkpt>
      <trkpt lat="38.26454761" lon="-1.98307078">
        <ele>929.00000</ele>
        <time>2018-10-12T09:49:17Z</time>
      </trkpt>
      <trkpt lat="38.26448885" lon="-1.98307530">
        <ele>930.00000</ele>
        <time>2018-10-12T09:49:20Z</time>
      </trkpt>
      <trkpt lat="38.26440327" lon="-1.98308193">
        <ele>931.00000</ele>
        <time>2018-10-12T09:49:24Z</time>
      </trkpt>
      <trkpt lat="38.26433278" lon="-1.98308729">
        <ele>932.00000</ele>
        <time>2018-10-12T09:49:27Z</time>
      </trkpt>
      <trkpt lat="38.26424058" lon="-1.98307690">
        <ele>934.00000</ele>
        <time>2018-10-12T09:49:30Z</time>
      </trkpt>
      <trkpt lat="38.26415525" lon="-1.98305728">
        <ele>935.00000</ele>
        <time>2018-10-12T09:49:33Z</time>
      </trkpt>
      <trkpt lat="38.26404117" lon="-1.98304790">
        <ele>936.00000</ele>
        <time>2018-10-12T09:49:37Z</time>
      </trkpt>
      <trkpt lat="38.26392391" lon="-1.98302803">
        <ele>937.00000</ele>
        <time>2018-10-12T09:49:41Z</time>
      </trkpt>
      <trkpt lat="38.26377488" lon="-1.98299526">
        <ele>938.00000</ele>
        <time>2018-10-12T09:49:46Z</time>
      </trkpt>
      <trkpt lat="38.26359978" lon="-1.98298394">
        <ele>939.00000</ele>
        <time>2018-10-12T09:49:52Z</time>
      </trkpt>
      <trkpt lat="38.26340323" lon="-1.98299283">
        <ele>940.00000</ele>
        <time>2018-10-12T09:49:59Z</time>
      </trkpt>
      <trkpt lat="38.26323224" lon="-1.98303474">
        <ele>941.00000</ele>
        <time>2018-10-12T09:50:05Z</time>
      </trkpt>
      <trkpt lat="38.26317189" lon="-1.98304899">
        <ele>941.00000</ele>
        <time>2018-10-12T09:50:07Z</time>
      </trkpt>
      <trkpt lat="38.26296159" lon="-1.98310338">
        <ele>942.00000</ele>
        <time>2018-10-12T09:50:14Z</time>
      </trkpt>
      <trkpt lat="38.26280241" lon="-1.98313825">
        <ele>942.00000</ele>
        <time>2018-10-12T09:50:19Z</time>
      </trkpt>
      <trkpt lat="38.26264006" lon="-1.98317388">
        <ele>943.00000</ele>
        <time>2018-10-12T09:50:24Z</time>
      </trkpt>
      <trkpt lat="38.26260737" lon="-1.98318108">
        <ele>943.00000</ele>
        <time>2018-10-12T09:50:25Z</time>
      </trkpt>
      <trkpt lat="38.26248415" lon="-1.98322283">
        <ele>944.00000</ele>
        <time>2018-10-12T09:50:29Z</time>
      </trkpt>
      <trkpt lat="38.26239522" lon="-1.98325887">
        <ele>944.00000</ele>
        <time>2018-10-12T09:50:32Z</time>
      </trkpt>
      <trkpt lat="38.26222549" lon="-1.98335593">
        <ele>945.00000</ele>
        <time>2018-10-12T09:50:38Z</time>
      </trkpt>
      <trkpt lat="38.26211904" lon="-1.98344780">
        <ele>946.00000</ele>
        <time>2018-10-12T09:50:42Z</time>
      </trkpt>
      <trkpt lat="38.26199725" lon="-1.98358694">
        <ele>947.00000</ele>
        <time>2018-10-12T09:50:47Z</time>
      </trkpt>
      <trkpt lat="38.26182357" lon="-1.98384040">
        <ele>948.00000</ele>
        <time>2018-10-12T09:50:55Z</time>
      </trkpt>
      <trkpt lat="38.26172634" lon="-1.98400771">
        <ele>949.00000</ele>
        <time>2018-10-12T09:51:00Z</time>
      </trkpt>
      <trkpt lat="38.26164144" lon="-1.98418021">
        <ele>950.00000</ele>
        <time>2018-10-12T09:51:05Z</time>
      </trkpt>
      <trkpt lat="38.26156801" lon="-1.98440250">
        <ele>952.00000</ele>
        <time>2018-10-12T09:51:11Z</time>
      </trkpt>
      <trkpt lat="38.26150607" lon="-1.98458480">
        <ele>953.00000</ele>
        <time>2018-10-12T09:51:16Z</time>
      </trkpt>
      <trkpt lat="38.26141890" lon="-1.98472788">
        <ele>954.00000</ele>
        <time>2018-10-12T09:51:21Z</time>
      </trkpt>
      <trkpt lat="38.26131949" lon="-1.98478873">
        <ele>955.00000</ele>
        <time>2018-10-12T09:51:25Z</time>
      </trkpt>
      <trkpt lat="38.26121823" lon="-1.98485922">
        <ele>956.00000</ele>
        <time>2018-10-12T09:51:29Z</time>
      </trkpt>
      <trkpt lat="38.26109435" lon="-1.98494472">
        <ele>957.00000</ele>
        <time>2018-10-12T09:51:34Z</time>
      </trkpt>
      <trkpt lat="38.26101900" lon="-1.98498479">
        <ele>958.00000</ele>
        <time>2018-10-12T09:51:37Z</time>
      </trkpt>
      <trkpt lat="38.26091632" lon="-1.98502996">
        <ele>959.00000</ele>
        <time>2018-10-12T09:51:41Z</time>
      </trkpt>
      <trkpt lat="38.26081381" lon="-1.98507506">
        <ele>960.00000</ele>
        <time>2018-10-12T09:51:45Z</time>
      </trkpt>
      <trkpt lat="38.26068288" lon="-1.98512502">
        <ele>961.00000</ele>
        <time>2018-10-12T09:51:50Z</time>
      </trkpt>
      <trkpt lat="38.26057299" lon="-1.98518754">
        <ele>963.00000</ele>
        <time>2018-10-12T09:51:54Z</time>
      </trkpt>
      <trkpt lat="38.26048976" lon="-1.98522828">
        <ele>964.00000</ele>
        <time>2018-10-12T09:51:57Z</time>
      </trkpt>
      <trkpt lat="38.26041106" lon="-1.98527011">
        <ele>965.00000</ele>
        <time>2018-10-12T09:52:00Z</time>
      </trkpt>
      <trkpt lat="38.26029371" lon="-1.98533649">
        <ele>966.00000</ele>
        <time>2018-10-12T09:52:04Z</time>
      </trkpt>
      <trkpt lat="38.25986531" lon="-1.98575852">
        <ele>966.00000</ele>
        <time>2018-10-12T09:52:17Z</time>
      </trkpt>
      <trkpt lat="38.25964420" lon="-1.98610645">
        <ele>966.00000</ele>
        <time>2018-10-12T09:52:25Z</time>
      </trkpt>
      <trkpt lat="38.25954588" lon="-1.98639336">
        <ele>967.00000</ele>
        <time>2018-10-12T09:52:31Z</time>
      </trkpt>
      <trkpt lat="38.25944999" lon="-1.98657425">
        <ele>968.00000</ele>
        <time>2018-10-12T09:52:36Z</time>
      </trkpt>
      <trkpt lat="38.25933574" lon="-1.98666670">
        <ele>969.00000</ele>
        <time>2018-10-12T09:52:40Z</time>
      </trkpt>
      <trkpt lat="38.25920792" lon="-1.98671934">
        <ele>971.00000</ele>
        <time>2018-10-12T09:52:44Z</time>
      </trkpt>
      <trkpt lat="38.25904095" lon="-1.98677214">
        <ele>972.00000</ele>
        <time>2018-10-12T09:52:49Z</time>
      </trkpt>
      <trkpt lat="38.25887641" lon="-1.98683157">
        <ele>973.00000</ele>
        <time>2018-10-12T09:52:54Z</time>
      </trkpt>
      <trkpt lat="38.25872336" lon="-1.98692050">
        <ele>974.00000</ele>
        <time>2018-10-12T09:52:59Z</time>
      </trkpt>
      <trkpt lat="38.25855706" lon="-1.98705352">
        <ele>975.00000</ele>
        <time>2018-10-12T09:53:05Z</time>
      </trkpt>
      <trkpt lat="38.25844927" lon="-1.98715419">
        <ele>976.00000</ele>
        <time>2018-10-12T09:53:09Z</time>
      </trkpt>
      <trkpt lat="38.25831659" lon="-1.98727757">
        <ele>977.00000</ele>
        <time>2018-10-12T09:53:14Z</time>
      </trkpt>
      <trkpt lat="38.25821014" lon="-1.98736793">
        <ele>978.00000</ele>
        <time>2018-10-12T09:53:18Z</time>
      </trkpt>
      <trkpt lat="38.25812992" lon="-1.98743130">
        <ele>979.00000</ele>
        <time>2018-10-12T09:53:21Z</time>
      </trkpt>
      <trkpt lat="38.25799196" lon="-1.98754311">
        <ele>980.00000</ele>
        <time>2018-10-12T09:53:26Z</time>
      </trkpt>
      <trkpt lat="38.25788534" lon="-1.98764118">
        <ele>981.00000</ele>
        <time>2018-10-12T09:53:30Z</time>
      </trkpt>
      <trkpt lat="38.25778190" lon="-1.98775157">
        <ele>982.00000</ele>
        <time>2018-10-12T09:53:34Z</time>
      </trkpt>
      <trkpt lat="38.25762449" lon="-1.98790923">
        <ele>984.00000</ele>
        <time>2018-10-12T09:53:40Z</time>
      </trkpt>
      <trkpt lat="38.25745333" lon="-1.98802599">
        <ele>985.00000</ele>
        <time>2018-10-12T09:53:46Z</time>
      </trkpt>
      <trkpt lat="38.25730330" lon="-1.98812180">
        <ele>985.00000</ele>
        <time>2018-10-12T09:53:51Z</time>
      </trkpt>
      <trkpt lat="38.25712049" lon="-1.98823814">
        <ele>987.00000</ele>
        <time>2018-10-12T09:53:57Z</time>
      </trkpt>
      <trkpt lat="38.25691387" lon="-1.98838289">
        <ele>988.00000</ele>
        <time>2018-10-12T09:54:04Z</time>
      </trkpt>
      <trkpt lat="38.25674884" lon="-1.98852505">
        <ele>989.00000</ele>
        <time>2018-10-12T09:54:10Z</time>
      </trkpt>
      <trkpt lat="38.25661187" lon="-1.98865137">
        <ele>990.00000</ele>
        <time>2018-10-12T09:54:15Z</time>
      </trkpt>
      <trkpt lat="38.25647475" lon="-1.98878095">
        <ele>991.00000</ele>
        <time>2018-10-12T09:54:20Z</time>
      </trkpt>
      <trkpt lat="38.25627258" lon="-1.98895806">
        <ele>992.00000</ele>
        <time>2018-10-12T09:54:27Z</time>
      </trkpt>
      <trkpt lat="38.25605498" lon="-1.98923701">
        <ele>993.00000</ele>
        <time>2018-10-12T09:54:36Z</time>
      </trkpt>
      <trkpt lat="38.25594677" lon="-1.98940783">
        <ele>994.00000</ele>
        <time>2018-10-12T09:54:41Z</time>
      </trkpt>
      <trkpt lat="38.25582532" lon="-1.98958377">
        <ele>995.00000</ele>
        <time>2018-10-12T09:54:46Z</time>
      </trkpt>
      <trkpt lat="38.25565718" lon="-1.98977018">
        <ele>996.00000</ele>
        <time>2018-10-12T09:54:52Z</time>
      </trkpt>
      <trkpt lat="38.25533456" lon="-1.98994662">
        <ele>997.00000</ele>
        <time>2018-10-12T09:55:03Z</time>
      </trkpt>
      <trkpt lat="38.25527806" lon="-1.98996892">
        <ele>999.00000</ele>
        <time>2018-10-12T09:55:05Z</time>
      </trkpt>
      <trkpt lat="38.25519693" lon="-1.99001066">
        <ele>1000.0000</ele>
        <time>2018-10-12T09:55:08Z</time>
      </trkpt>
      <trkpt lat="38.25509324" lon="-1.99007143">
        <ele>1001.0000</ele>
        <time>2018-10-12T09:55:12Z</time>
      </trkpt>
      <trkpt lat="38.25500791" lon="-1.99015256">
        <ele>1002.0000</ele>
        <time>2018-10-12T09:55:16Z</time>
      </trkpt>
      <trkpt lat="38.25492778" lon="-1.99022322">
        <ele>1003.0000</ele>
        <time>2018-10-12T09:55:20Z</time>
      </trkpt>
      <trkpt lat="38.25484799" lon="-1.99029154">
        <ele>1004.0000</ele>
        <time>2018-10-12T09:55:24Z</time>
      </trkpt>
      <trkpt lat="38.25477012" lon="-1.99036924">
        <ele>1005.0000</ele>
        <time>2018-10-12T09:55:28Z</time>
      </trkpt>
      <trkpt lat="38.25469024" lon="-1.99042171">
        <ele>1007.0000</ele>
        <time>2018-10-12T09:55:32Z</time>
      </trkpt>
      <trkpt lat="38.25461363" lon="-1.99048365">
        <ele>1008.0000</ele>
        <time>2018-10-12T09:55:36Z</time>
      </trkpt>
      <trkpt lat="38.25454833" lon="-1.99053654">
        <ele>1009.0000</ele>
        <time>2018-10-12T09:55:39Z</time>
      </trkpt>
      <trkpt lat="38.25447960" lon="-1.99058876">
        <ele>1010.0000</ele>
        <time>2018-10-12T09:55:42Z</time>
      </trkpt>
      <trkpt lat="38.25439721" lon="-1.99064944">
        <ele>1011.0000</ele>
        <time>2018-10-12T09:55:46Z</time>
      </trkpt>
      <trkpt lat="38.25432814" lon="-1.99070711">
        <ele>1012.0000</ele>
        <time>2018-10-12T09:55:49Z</time>
      </trkpt>
      <trkpt lat="38.25425799" lon="-1.99077459">
        <ele>1014.0000</ele>
        <time>2018-10-12T09:55:53Z</time>
      </trkpt>
      <trkpt lat="38.25419319" lon="-1.99085195">
        <ele>1015.0000</ele>
        <time>2018-10-12T09:55:57Z</time>
      </trkpt>
      <trkpt lat="38.25414634" lon="-1.99095463">
        <ele>1016.0000</ele>
        <time>2018-10-12T09:56:01Z</time>
      </trkpt>
      <trkpt lat="38.25409102" lon="-1.99105982">
        <ele>1017.0000</ele>
        <time>2018-10-12T09:56:05Z</time>
      </trkpt>
      <trkpt lat="38.25405171" lon="-1.99117717">
        <ele>1018.0000</ele>
        <time>2018-10-12T09:56:09Z</time>
      </trkpt>
      <trkpt lat="38.25401659" lon="-1.99128513">
        <ele>1020.0000</ele>
        <time>2018-10-12T09:56:13Z</time>
      </trkpt>
      <trkpt lat="38.25393922" lon="-1.99137305">
        <ele>1021.0000</ele>
        <time>2018-10-12T09:56:17Z</time>
      </trkpt>
      <trkpt lat="38.25382053" lon="-1.99138085">
        <ele>1022.0000</ele>
        <time>2018-10-12T09:56:22Z</time>
      </trkpt>
      <trkpt lat="38.25372490" lon="-1.99132444">
        <ele>1023.0000</ele>
        <time>2018-10-12T09:56:27Z</time>
      </trkpt>
      <trkpt lat="38.25363814" lon="-1.99127825">
        <ele>1024.0000</ele>
        <time>2018-10-12T09:56:31Z</time>
      </trkpt>
      <trkpt lat="38.25354603" lon="-1.99123685">
        <ele>1025.0000</ele>
        <time>2018-10-12T09:56:35Z</time>
      </trkpt>
      <trkpt lat="38.25344880" lon="-1.99120885">
        <ele>1027.0000</ele>
        <time>2018-10-12T09:56:39Z</time>
      </trkpt>
      <trkpt lat="38.25335525" lon="-1.99119418">
        <ele>1028.0000</ele>
        <time>2018-10-12T09:56:43Z</time>
      </trkpt>
      <trkpt lat="38.25325660" lon="-1.99117465">
        <ele>1029.0000</ele>
        <time>2018-10-12T09:56:47Z</time>
      </trkpt>
      <trkpt lat="38.25320354" lon="-1.99117046">
        <ele>1030.0000</ele>
        <time>2018-10-12T09:56:49Z</time>
      </trkpt>
      <trkpt lat="38.25309877" lon="-1.99119728">
        <ele>1031.0000</ele>
        <time>2018-10-12T09:56:53Z</time>
      </trkpt>
      <trkpt lat="38.25301612" lon="-1.99128722">
        <ele>1032.0000</ele>
        <time>2018-10-12T09:56:57Z</time>
      </trkpt>
      <trkpt lat="38.25295502" lon="-1.99143541">
        <ele>1033.0000</ele>
        <time>2018-10-12T09:57:02Z</time>
      </trkpt>
      <trkpt lat="38.25292593" lon="-1.99156626">
        <ele>1034.0000</ele>
        <time>2018-10-12T09:57:06Z</time>
      </trkpt>
      <trkpt lat="38.25289291" lon="-1.99169953">
        <ele>1035.0000</ele>
        <time>2018-10-12T09:57:10Z</time>
      </trkpt>
      <trkpt lat="38.25284237" lon="-1.99184780">
        <ele>1036.0000</ele>
        <time>2018-10-12T09:57:15Z</time>
      </trkpt>
      <trkpt lat="38.25281261" lon="-1.99197781">
        <ele>1038.0000</ele>
        <time>2018-10-12T09:57:20Z</time>
      </trkpt>
      <trkpt lat="38.25278277" lon="-1.99205802">
        <ele>1039.0000</ele>
        <time>2018-10-12T09:57:23Z</time>
      </trkpt>
      <trkpt lat="38.25273927" lon="-1.99215911">
        <ele>1040.0000</ele>
        <time>2018-10-12T09:57:27Z</time>
      </trkpt>
      <trkpt lat="38.25271748" lon="-1.99223463">
        <ele>1041.0000</ele>
        <time>2018-10-12T09:57:30Z</time>
      </trkpt>
      <trkpt lat="38.25267590" lon="-1.99234418">
        <ele>1043.0000</ele>
        <time>2018-10-12T09:57:34Z</time>
      </trkpt>
      <trkpt lat="38.25262729" lon="-1.99248097">
        <ele>1044.0000</ele>
        <time>2018-10-12T09:57:39Z</time>
      </trkpt>
      <trkpt lat="38.25258814" lon="-1.99258952">
        <ele>1045.0000</ele>
        <time>2018-10-12T09:57:43Z</time>
      </trkpt>
      <trkpt lat="38.25254850" lon="-1.99269815">
        <ele>1046.0000</ele>
        <time>2018-10-12T09:57:47Z</time>
      </trkpt>
      <trkpt lat="38.25251053" lon="-1.99280309">
        <ele>1047.0000</ele>
        <time>2018-10-12T09:57:51Z</time>
      </trkpt>
      <trkpt lat="38.25245185" lon="-1.99289269">
        <ele>1048.0000</ele>
        <time>2018-10-12T09:57:55Z</time>
      </trkpt>
      <trkpt lat="38.25239972" lon="-1.99294910">
        <ele>1050.0000</ele>
        <time>2018-10-12T09:57:58Z</time>
      </trkpt>
      <trkpt lat="38.25233392" lon="-1.99303166">
        <ele>1050.0000</ele>
        <time>2018-10-12T09:58:02Z</time>
      </trkpt>
      <trkpt lat="38.25227189" lon="-1.99311180">
        <ele>1052.0000</ele>
        <time>2018-10-12T09:58:06Z</time>
      </trkpt>
      <trkpt lat="38.25218673" lon="-1.99321716">
        <ele>1053.0000</ele>
        <time>2018-10-12T09:58:11Z</time>
      </trkpt>
      <trkpt lat="38.25210224" lon="-1.99332972">
        <ele>1054.0000</ele>
        <time>2018-10-12T09:58:16Z</time>
      </trkpt>
      <trkpt lat="38.25201750" lon="-1.99344690">
        <ele>1055.0000</ele>
        <time>2018-10-12T09:58:21Z</time>
      </trkpt>
      <trkpt lat="38.25195095" lon="-1.99354631">
        <ele>1056.0000</ele>
        <time>2018-10-12T09:58:25Z</time>
      </trkpt>
      <trkpt lat="38.25188473" lon="-1.99364522">
        <ele>1057.0000</ele>
        <time>2018-10-12T09:58:29Z</time>
      </trkpt>
      <trkpt lat="38.25179186" lon="-1.99379199">
        <ele>1058.0000</ele>
        <time>2018-10-12T09:58:35Z</time>
      </trkpt>
      <trkpt lat="38.25173922" lon="-1.99386483">
        <ele>1059.0000</ele>
        <time>2018-10-12T09:58:39Z</time>
      </trkpt>
      <trkpt lat="38.25168566" lon="-1.99394563">
        <ele>1060.0000</ele>
        <time>2018-10-12T09:58:43Z</time>
      </trkpt>
      <trkpt lat="38.25163244" lon="-1.99403900">
        <ele>1062.0000</ele>
        <time>2018-10-12T09:58:47Z</time>
      </trkpt>
      <trkpt lat="38.25156521" lon="-1.99412835">
        <ele>1063.0000</ele>
        <time>2018-10-12T09:58:51Z</time>
      </trkpt>
      <trkpt lat="38.25150487" lon="-1.99419734">
        <ele>1064.0000</ele>
        <time>2018-10-12T09:58:54Z</time>
      </trkpt>
      <trkpt lat="38.25141484" lon="-1.99427068">
        <ele>1065.0000</ele>
        <time>2018-10-12T09:58:58Z</time>
      </trkpt>
      <trkpt lat="38.25131745" lon="-1.99433790">
        <ele>1066.0000</ele>
        <time>2018-10-12T09:59:02Z</time>
      </trkpt>
      <trkpt lat="38.25119297" lon="-1.99440537">
        <ele>1067.0000</ele>
        <time>2018-10-12T09:59:07Z</time>
      </trkpt>
      <trkpt lat="38.25104311" lon="-1.99449573">
        <ele>1068.0000</ele>
        <time>2018-10-12T09:59:13Z</time>
      </trkpt>
      <trkpt lat="38.25079928" lon="-1.99463403">
        <ele>1069.0000</ele>
        <time>2018-10-12T09:59:22Z</time>
      </trkpt>
      <trkpt lat="38.25059182" lon="-1.99470109">
        <ele>1070.0000</ele>
        <time>2018-10-12T09:59:28Z</time>
      </trkpt>
      <trkpt lat="38.25032654" lon="-1.99474249">
        <ele>1070.0000</ele>
        <time>2018-10-12T09:59:36Z</time>
      </trkpt>
      <trkpt lat="38.25017399" lon="-1.99478767">
        <ele>1071.0000</ele>
        <time>2018-10-12T09:59:41Z</time>
      </trkpt>
      <trkpt lat="38.25014457" lon="-1.99480184">
        <ele>1071.0000</ele>
        <time>2018-10-12T09:59:42Z</time>
      </trkpt>
      <trkpt lat="38.24997182" lon="-1.99494869">
        <ele>1072.0000</ele>
        <time>2018-10-12T09:59:49Z</time>
      </trkpt>
      <trkpt lat="38.24995044" lon="-1.99497811">
        <ele>1072.0000</ele>
        <time>2018-10-12T09:59:50Z</time>
      </trkpt>
      <trkpt lat="38.24987224" lon="-1.99510904">
        <ele>1073.0000</ele>
        <time>2018-10-12T09:59:54Z</time>
      </trkpt>
      <trkpt lat="38.24979378" lon="-1.99525513">
        <ele>1075.0000</ele>
        <time>2018-10-12T09:59:58Z</time>
      </trkpt>
      <trkpt lat="38.24959631" lon="-1.99563751">
        <ele>1076.0000</ele>
        <time>2018-10-12T10:00:08Z</time>
      </trkpt>
      <trkpt lat="38.24934426" lon="-1.99571639">
        <ele>1076.0000</ele>
        <time>2018-10-12T10:00:16Z</time>
      </trkpt>
      <trkpt lat="38.24926153" lon="-1.99558898">
        <ele>1076.0000</ele>
        <time>2018-10-12T10:00:20Z</time>
      </trkpt>
      <trkpt lat="38.24915919" lon="-1.99538731">
        <ele>1078.0000</ele>
        <time>2018-10-12T10:00:27Z</time>
      </trkpt>
      <trkpt lat="38.24908853" lon="-1.99530492">
        <ele>1079.0000</ele>
        <time>2018-10-12T10:00:31Z</time>
      </trkpt>
      <trkpt lat="38.24899675" lon="-1.99526418">
        <ele>1080.0000</ele>
        <time>2018-10-12T10:00:35Z</time>
      </trkpt>
      <trkpt lat="38.24891335" lon="-1.99526385">
        <ele>1081.0000</ele>
        <time>2018-10-12T10:00:38Z</time>
      </trkpt>
      <trkpt lat="38.24877454" lon="-1.99527785">
        <ele>1082.0000</ele>
        <time>2018-10-12T10:00:43Z</time>
      </trkpt>
      <trkpt lat="38.24864538" lon="-1.99533526">
        <ele>1084.0000</ele>
        <time>2018-10-12T10:00:48Z</time>
      </trkpt>
      <trkpt lat="38.24855058" lon="-1.99538949">
        <ele>1085.0000</ele>
        <time>2018-10-12T10:00:52Z</time>
      </trkpt>
      <trkpt lat="38.24840582" lon="-1.99546225">
        <ele>1086.0000</ele>
        <time>2018-10-12T10:00:58Z</time>
      </trkpt>
      <trkpt lat="38.24829493" lon="-1.99553651">
        <ele>1087.0000</ele>
        <time>2018-10-12T10:01:03Z</time>
      </trkpt>
      <trkpt lat="38.24815412" lon="-1.99560399">
        <ele>1088.0000</ele>
        <time>2018-10-12T10:01:09Z</time>
      </trkpt>
      <trkpt lat="38.24806418" lon="-1.99564732">
        <ele>1089.0000</ele>
        <time>2018-10-12T10:01:13Z</time>
      </trkpt>
      <trkpt lat="38.24795203" lon="-1.99567842">
        <ele>1090.0000</ele>
        <time>2018-10-12T10:01:18Z</time>
      </trkpt>
      <trkpt lat="38.24783460" lon="-1.99568537">
        <ele>1091.0000</ele>
        <time>2018-10-12T10:01:23Z</time>
      </trkpt>
      <trkpt lat="38.24776947" lon="-1.99568169">
        <ele>1092.0000</ele>
        <time>2018-10-12T10:01:26Z</time>
      </trkpt>
      <trkpt lat="38.24768045" lon="-1.99566258">
        <ele>1093.0000</ele>
        <time>2018-10-12T10:01:30Z</time>
      </trkpt>
      <trkpt lat="38.24765824" lon="-1.99566157">
        <ele>1093.0000</ele>
        <time>2018-10-12T10:01:31Z</time>
      </trkpt>
      <trkpt lat="38.24755037" lon="-1.99562452">
        <ele>1094.0000</ele>
        <time>2018-10-12T10:01:36Z</time>
      </trkpt>
      <trkpt lat="38.24748532" lon="-1.99558379">
        <ele>1095.0000</ele>
        <time>2018-10-12T10:01:39Z</time>
      </trkpt>
      <trkpt lat="38.24740041" lon="-1.99556442">
        <ele>1096.0000</ele>
        <time>2018-10-12T10:01:43Z</time>
      </trkpt>
      <trkpt lat="38.24731291" lon="-1.99552763">
        <ele>1098.0000</ele>
        <time>2018-10-12T10:01:47Z</time>
      </trkpt>
      <trkpt lat="38.24721794" lon="-1.99549863">
        <ele>1099.0000</ele>
        <time>2018-10-12T10:01:51Z</time>
      </trkpt>
      <trkpt lat="38.24712339" lon="-1.99550575">
        <ele>1100.0000</ele>
        <time>2018-10-12T10:01:55Z</time>
      </trkpt>
      <trkpt lat="38.24710076" lon="-1.99551103">
        <ele>1100.0000</ele>
        <time>2018-10-12T10:01:56Z</time>
      </trkpt>
      <trkpt lat="38.24702725" lon="-1.99551413">
        <ele>1101.0000</ele>
        <time>2018-10-12T10:01:59Z</time>
      </trkpt>
      <trkpt lat="38.24692617" lon="-1.99551975">
        <ele>1102.0000</ele>
        <time>2018-10-12T10:02:03Z</time>
      </trkpt>
      <trkpt lat="38.24681720" lon="-1.99552855">
        <ele>1103.0000</ele>
        <time>2018-10-12T10:02:07Z</time>
      </trkpt>
      <trkpt lat="38.24670991" lon="-1.99555126">
        <ele>1105.0000</ele>
        <time>2018-10-12T10:02:11Z</time>
      </trkpt>
      <trkpt lat="38.24661260" lon="-1.99560617">
        <ele>1106.0000</ele>
        <time>2018-10-12T10:02:15Z</time>
      </trkpt>
      <trkpt lat="38.24652593" lon="-1.99574011">
        <ele>1107.0000</ele>
        <time>2018-10-12T10:02:20Z</time>
      </trkpt>
      <trkpt lat="38.24650917" lon="-1.99595301">
        <ele>1108.0000</ele>
        <time>2018-10-12T10:02:26Z</time>
      </trkpt>
      <trkpt lat="38.24659693" lon="-1.99615518">
        <ele>1109.0000</ele>
        <time>2018-10-12T10:02:32Z</time>
      </trkpt>
      <trkpt lat="38.24667932" lon="-1.99625325">
        <ele>1110.0000</ele>
        <time>2018-10-12T10:02:35Z</time>
      </trkpt>
      <trkpt lat="38.24697470" lon="-1.99659582">
        <ele>1111.0000</ele>
        <time>2018-10-12T10:02:45Z</time>
      </trkpt>
      <trkpt lat="38.24705366" lon="-1.99688801">
        <ele>1111.0000</ele>
        <time>2018-10-12T10:02:52Z</time>
      </trkpt>
      <trkpt lat="38.24700923" lon="-1.99713016">
        <ele>1112.0000</ele>
        <time>2018-10-12T10:02:58Z</time>
      </trkpt>
      <trkpt lat="38.24696296" lon="-1.99733368">
        <ele>1113.0000</ele>
        <time>2018-10-12T10:03:03Z</time>
      </trkpt>
      <trkpt lat="38.24695768" lon="-1.99754624">
        <ele>1114.0000</ele>
        <time>2018-10-12T10:03:08Z</time>
      </trkpt>
      <trkpt lat="38.24698518" lon="-1.99774933">
        <ele>1116.0000</ele>
        <time>2018-10-12T10:03:13Z</time>
      </trkpt>
      <trkpt lat="38.24703111" lon="-1.99792644">
        <ele>1117.0000</ele>
        <time>2018-10-12T10:03:18Z</time>
      </trkpt>
      <trkpt lat="38.24706036" lon="-1.99805812">
        <ele>1118.0000</ele>
        <time>2018-10-12T10:03:22Z</time>
      </trkpt>
      <trkpt lat="38.24708995" lon="-1.99818754">
        <ele>1119.0000</ele>
        <time>2018-10-12T10:03:26Z</time>
      </trkpt>
      <trkpt lat="38.24712247" lon="-1.99831251">
        <ele>1120.0000</ele>
        <time>2018-10-12T10:03:30Z</time>
      </trkpt>
      <trkpt lat="38.24714745" lon="-1.99846800">
        <ele>1121.0000</ele>
        <time>2018-10-12T10:03:35Z</time>
      </trkpt>
      <trkpt lat="38.24715684" lon="-1.99856188">
        <ele>1122.0000</ele>
        <time>2018-10-12T10:03:38Z</time>
      </trkpt>
      <trkpt lat="38.24714879" lon="-1.99869540">
        <ele>1124.0000</ele>
        <time>2018-10-12T10:03:42Z</time>
      </trkpt>
      <trkpt lat="38.24712348" lon="-1.99882800">
        <ele>1125.0000</ele>
        <time>2018-10-12T10:03:46Z</time>
      </trkpt>
      <trkpt lat="38.24709632" lon="-1.99896245">
        <ele>1126.0000</ele>
        <time>2018-10-12T10:03:50Z</time>
      </trkpt>
      <trkpt lat="38.24707729" lon="-1.99913713">
        <ele>1127.0000</ele>
        <time>2018-10-12T10:03:55Z</time>
      </trkpt>
      <trkpt lat="38.24705198" lon="-1.99935061">
        <ele>1128.0000</ele>
        <time>2018-10-12T10:04:01Z</time>
      </trkpt>
      <trkpt lat="38.24704678" lon="-1.99955974">
        <ele>1129.0000</ele>
        <time>2018-10-12T10:04:07Z</time>
      </trkpt>
      <trkpt lat="38.24704108" lon="-1.99968027">
        <ele>1131.0000</ele>
        <time>2018-10-12T10:04:11Z</time>
      </trkpt>
      <trkpt lat="38.24703748" lon="-1.99977013">
        <ele>1132.0000</ele>
        <time>2018-10-12T10:04:14Z</time>
      </trkpt>
      <trkpt lat="38.24702491" lon="-1.99993022">
        <ele>1133.0000</ele>
        <time>2018-10-12T10:04:18Z</time>
      </trkpt>
      <trkpt lat="38.24700647" lon="-2.00003139">
        <ele>1133.0000</ele>
        <time>2018-10-12T10:04:20Z</time>
      </trkpt>
      <trkpt lat="38.24682408" lon="-2.00052458">
        <ele>1132.0000</ele>
        <time>2018-10-12T10:04:28Z</time>
      </trkpt>
      <trkpt lat="38.24670061" lon="-2.00078367">
        <ele>1131.0000</ele>
        <time>2018-10-12T10:04:32Z</time>
      </trkpt>
      <trkpt lat="38.24661126" lon="-2.00096195">
        <ele>1130.0000</ele>
        <time>2018-10-12T10:04:35Z</time>
      </trkpt>
      <trkpt lat="38.24635980" lon="-2.00141835">
        <ele>1130.0000</ele>
        <time>2018-10-12T10:04:43Z</time>
      </trkpt>
      <trkpt lat="38.24626978" lon="-2.00158137">
        <ele>1130.0000</ele>
        <time>2018-10-12T10:04:46Z</time>
      </trkpt>
      <trkpt lat="38.24605487" lon="-2.00196853">
        <ele>1130.0000</ele>
        <time>2018-10-12T10:04:53Z</time>
      </trkpt>
      <trkpt lat="38.24569294" lon="-2.00254881">
        <ele>1131.0000</ele>
        <time>2018-10-12T10:05:05Z</time>
      </trkpt>
      <trkpt lat="38.24555698" lon="-2.00277336">
        <ele>1131.0000</ele>
        <time>2018-10-12T10:05:10Z</time>
      </trkpt>
      <trkpt lat="38.24538985" lon="-2.00311283">
        <ele>1132.0000</ele>
        <time>2018-10-12T10:05:18Z</time>
      </trkpt>
      <trkpt lat="38.24536621" lon="-2.00325876">
        <ele>1133.0000</ele>
        <time>2018-10-12T10:05:21Z</time>
      </trkpt>
      <trkpt lat="38.24536479" lon="-2.00331190">
        <ele>1133.0000</ele>
        <time>2018-10-12T10:05:22Z</time>
      </trkpt>
      <trkpt lat="38.24535917" lon="-2.00354785">
        <ele>1134.0000</ele>
        <time>2018-10-12T10:05:26Z</time>
      </trkpt>
      <trkpt lat="38.24536286" lon="-2.00366671">
        <ele>1134.0000</ele>
        <time>2018-10-12T10:05:28Z</time>
      </trkpt>
      <trkpt lat="38.24537451" lon="-2.00388564">
        <ele>1135.0000</ele>
        <time>2018-10-12T10:05:32Z</time>
      </trkpt>
      <trkpt lat="38.24538197" lon="-2.00398840">
        <ele>1135.0000</ele>
        <time>2018-10-12T10:05:34Z</time>
      </trkpt>
      <trkpt lat="38.24540401" lon="-2.00430750">
        <ele>1137.0000</ele>
        <time>2018-10-12T10:05:41Z</time>
      </trkpt>
      <trkpt lat="38.24542505" lon="-2.00455561">
        <ele>1137.0000</ele>
        <time>2018-10-12T10:05:46Z</time>
      </trkpt>
      <trkpt lat="38.24543813" lon="-2.00485224">
        <ele>1139.0000</ele>
        <time>2018-10-12T10:05:52Z</time>
      </trkpt>
      <trkpt lat="38.24546378" lon="-2.00522490">
        <ele>1140.0000</ele>
        <time>2018-10-12T10:06:00Z</time>
      </trkpt>
      <trkpt lat="38.24546889" lon="-2.00539807">
        <ele>1141.0000</ele>
        <time>2018-10-12T10:06:04Z</time>
      </trkpt>
      <trkpt lat="38.24547685" lon="-2.00555942">
        <ele>1142.0000</ele>
        <time>2018-10-12T10:06:08Z</time>
      </trkpt>
      <trkpt lat="38.24548498" lon="-2.00570686">
        <ele>1143.0000</ele>
        <time>2018-10-12T10:06:12Z</time>
      </trkpt>
      <trkpt lat="38.24548867" lon="-2.00587333">
        <ele>1144.0000</ele>
        <time>2018-10-12T10:06:16Z</time>
      </trkpt>
      <trkpt lat="38.24549797" lon="-2.00603853">
        <ele>1145.0000</ele>
        <time>2018-10-12T10:06:20Z</time>
      </trkpt>
      <trkpt lat="38.24550845" lon="-2.00621346">
        <ele>1146.0000</ele>
        <time>2018-10-12T10:06:24Z</time>
      </trkpt>
      <trkpt lat="38.24552429" lon="-2.00639242">
        <ele>1147.0000</ele>
        <time>2018-10-12T10:06:28Z</time>
      </trkpt>
      <trkpt lat="38.24554852" lon="-2.00666324">
        <ele>1148.0000</ele>
        <time>2018-10-12T10:06:34Z</time>
      </trkpt>
      <trkpt lat="38.24557702" lon="-2.00684412">
        <ele>1149.0000</ele>
        <time>2018-10-12T10:06:38Z</time>
      </trkpt>
      <trkpt lat="38.24560761" lon="-2.00702047">
        <ele>1150.0000</ele>
        <time>2018-10-12T10:06:42Z</time>
      </trkpt>
      <trkpt lat="38.24562588" lon="-2.00710714">
        <ele>1150.0000</ele>
        <time>2018-10-12T10:06:44Z</time>
      </trkpt>
      <trkpt lat="38.24566779" lon="-2.00732666">
        <ele>1151.0000</ele>
        <time>2018-10-12T10:06:49Z</time>
      </trkpt>
      <trkpt lat="38.24571146" lon="-2.00754040">
        <ele>1152.0000</ele>
        <time>2018-10-12T10:06:54Z</time>
      </trkpt>
      <trkpt lat="38.24574750" lon="-2.00770955">
        <ele>1154.0000</ele>
        <time>2018-10-12T10:06:58Z</time>
      </trkpt>
      <trkpt lat="38.24578388" lon="-2.00792731">
        <ele>1155.0000</ele>
        <time>2018-10-12T10:07:03Z</time>
      </trkpt>
      <trkpt lat="38.24582587" lon="-2.00815211">
        <ele>1156.0000</ele>
        <time>2018-10-12T10:07:08Z</time>
      </trkpt>
      <trkpt lat="38.24588505" lon="-2.00838765">
        <ele>1157.0000</ele>
        <time>2018-10-12T10:07:13Z</time>
      </trkpt>
      <trkpt lat="38.24594674" lon="-2.00872653">
        <ele>1158.0000</ele>
        <time>2018-10-12T10:07:20Z</time>
      </trkpt>
      <trkpt lat="38.24594959" lon="-2.00888344">
        <ele>1158.0000</ele>
        <time>2018-10-12T10:07:23Z</time>
      </trkpt>
      <trkpt lat="38.24586259" lon="-2.00941912">
        <ele>1159.0000</ele>
        <time>2018-10-12T10:07:33Z</time>
      </trkpt>
      <trkpt lat="38.24575220" lon="-2.00996587">
        <ele>1159.0000</ele>
        <time>2018-10-12T10:07:43Z</time>
      </trkpt>
      <trkpt lat="38.24566259" lon="-2.01036402">
        <ele>1160.0000</ele>
        <time>2018-10-12T10:07:51Z</time>
      </trkpt>
      <trkpt lat="38.24565354" lon="-2.01040500">
        <ele>1160.0000</ele>
        <time>2018-10-12T10:07:52Z</time>
      </trkpt>
      <trkpt lat="38.24561348" lon="-2.01060273">
        <ele>1161.0000</ele>
        <time>2018-10-12T10:07:57Z</time>
      </trkpt>
      <trkpt lat="38.24559160" lon="-2.01070642">
        <ele>1162.0000</ele>
        <time>2018-10-12T10:08:00Z</time>
      </trkpt>
      <trkpt lat="38.24557056" lon="-2.01082745">
        <ele>1163.0000</ele>
        <time>2018-10-12T10:08:04Z</time>
      </trkpt>
      <trkpt lat="38.24554516" lon="-2.01095310">
        <ele>1165.0000</ele>
        <time>2018-10-12T10:08:08Z</time>
      </trkpt>
      <trkpt lat="38.24551524" lon="-2.01107664">
        <ele>1166.0000</ele>
        <time>2018-10-12T10:08:12Z</time>
      </trkpt>
      <trkpt lat="38.24549730" lon="-2.01116709">
        <ele>1167.0000</ele>
        <time>2018-10-12T10:08:15Z</time>
      </trkpt>
      <trkpt lat="38.24548884" lon="-2.01119676">
        <ele>1167.0000</ele>
        <time>2018-10-12T10:08:16Z</time>
      </trkpt>
      <trkpt lat="38.24545808" lon="-2.01132249">
        <ele>1168.0000</ele>
        <time>2018-10-12T10:08:20Z</time>
      </trkpt>
      <trkpt lat="38.24541918" lon="-2.01145375">
        <ele>1169.0000</ele>
        <time>2018-10-12T10:08:24Z</time>
      </trkpt>
      <trkpt lat="38.24536437" lon="-2.01162717">
        <ele>1170.0000</ele>
        <time>2018-10-12T10:08:29Z</time>
      </trkpt>
      <trkpt lat="38.24531030" lon="-2.01176295">
        <ele>1171.0000</ele>
        <time>2018-10-12T10:08:33Z</time>
      </trkpt>
      <trkpt lat="38.24523755" lon="-2.01192766">
        <ele>1172.0000</ele>
        <time>2018-10-12T10:08:38Z</time>
      </trkpt>
      <trkpt lat="38.24516194" lon="-2.01210192">
        <ele>1173.0000</ele>
        <time>2018-10-12T10:08:43Z</time>
      </trkpt>
      <trkpt lat="38.24508022" lon="-2.01228029">
        <ele>1174.0000</ele>
        <time>2018-10-12T10:08:48Z</time>
      </trkpt>
      <trkpt lat="38.24498584" lon="-2.01249218">
        <ele>1175.0000</ele>
        <time>2018-10-12T10:08:54Z</time>
      </trkpt>
      <trkpt lat="38.24490831" lon="-2.01267021">
        <ele>1176.0000</ele>
        <time>2018-10-12T10:08:59Z</time>
      </trkpt>
      <trkpt lat="38.24482767" lon="-2.01286358">
        <ele>1177.0000</ele>
        <time>2018-10-12T10:09:04Z</time>
      </trkpt>
      <trkpt lat="38.24469532" lon="-2.01315108">
        <ele>1178.0000</ele>
        <time>2018-10-12T10:09:11Z</time>
      </trkpt>
      <trkpt lat="38.24452567" lon="-2.01352098">
        <ele>1179.0000</ele>
        <time>2018-10-12T10:09:19Z</time>
      </trkpt>
      <trkpt lat="38.24429509" lon="-2.01404862">
        <ele>1180.0000</ele>
        <time>2018-10-12T10:09:29Z</time>
      </trkpt>
      <trkpt lat="38.24406785" lon="-2.01455455">
        <ele>1180.0000</ele>
        <time>2018-10-12T10:09:38Z</time>
      </trkpt>
      <trkpt lat="38.24396945" lon="-2.01477424">
        <ele>1181.0000</ele>
        <time>2018-10-12T10:09:42Z</time>
      </trkpt>
      <trkpt lat="38.24383744" lon="-2.01507397">
        <ele>1181.0000</ele>
        <time>2018-10-12T10:09:47Z</time>
      </trkpt>
      <trkpt lat="38.24372822" lon="-2.01532409">
        <ele>1181.0000</ele>
        <time>2018-10-12T10:09:51Z</time>
      </trkpt>
      <trkpt lat="38.24353585" lon="-2.01576028">
        <ele>1180.0000</ele>
        <time>2018-10-12T10:09:58Z</time>
      </trkpt>
      <trkpt lat="38.24335078" lon="-2.01612196">
        <ele>1180.0000</ele>
        <time>2018-10-12T10:10:04Z</time>
      </trkpt>
      <trkpt lat="38.24325875" lon="-2.01630930">
        <ele>1180.0000</ele>
        <time>2018-10-12T10:10:07Z</time>
      </trkpt>
      <trkpt lat="38.24315615" lon="-2.01651767">
        <ele>1180.0000</ele>
        <time>2018-10-12T10:10:10Z</time>
      </trkpt>
      <trkpt lat="38.24299472" lon="-2.01685555">
        <ele>1180.0000</ele>
        <time>2018-10-12T10:10:14Z</time>
      </trkpt>
      <trkpt lat="38.24290378" lon="-2.01704054">
        <ele>1179.0000</ele>
        <time>2018-10-12T10:10:16Z</time>
      </trkpt>
      <trkpt lat="38.24276992" lon="-2.01732259">
        <ele>1177.0000</ele>
        <time>2018-10-12T10:10:19Z</time>
      </trkpt>
      <trkpt lat="38.24267688" lon="-2.01751621">
        <ele>1176.0000</ele>
        <time>2018-10-12T10:10:21Z</time>
      </trkpt>
      <trkpt lat="38.24257864" lon="-2.01772299">
        <ele>1175.0000</ele>
        <time>2018-10-12T10:10:23Z</time>
      </trkpt>
      <trkpt lat="38.24247487" lon="-2.01793472">
        <ele>1174.0000</ele>
        <time>2018-10-12T10:10:25Z</time>
      </trkpt>
      <trkpt lat="38.24237781" lon="-2.01813178">
        <ele>1173.0000</ele>
        <time>2018-10-12T10:10:27Z</time>
      </trkpt>
      <trkpt lat="38.24221445" lon="-2.01846236">
        <ele>1173.0000</ele>
        <time>2018-10-12T10:10:31Z</time>
      </trkpt>
      <trkpt lat="38.24195075" lon="-2.01901171">
        <ele>1174.0000</ele>
        <time>2018-10-12T10:10:39Z</time>
      </trkpt>
      <trkpt lat="38.24188998" lon="-2.01913408">
        <ele>1175.0000</ele>
        <time>2018-10-12T10:10:41Z</time>
      </trkpt>
      <trkpt lat="38.24180206" lon="-2.01931723">
        <ele>1176.0000</ele>
        <time>2018-10-12T10:10:44Z</time>
      </trkpt>
      <trkpt lat="38.24168429" lon="-2.01956089">
        <ele>1177.0000</ele>
        <time>2018-10-12T10:10:48Z</time>
      </trkpt>
      <trkpt lat="38.24153887" lon="-2.01986256">
        <ele>1178.0000</ele>
        <time>2018-10-12T10:10:53Z</time>
      </trkpt>
      <trkpt lat="38.24126008" lon="-2.02041526">
        <ele>1179.0000</ele>
        <time>2018-10-12T10:11:02Z</time>
      </trkpt>
      <trkpt lat="38.24108214" lon="-2.02072304">
        <ele>1179.0000</ele>
        <time>2018-10-12T10:11:09Z</time>
      </trkpt>
      <trkpt lat="38.24103352" lon="-2.02080585">
        <ele>1180.0000</ele>
        <time>2018-10-12T10:11:11Z</time>
      </trkpt>
      <trkpt lat="38.24098533" lon="-2.02088875">
        <ele>1181.0000</ele>
        <time>2018-10-12T10:11:13Z</time>
      </trkpt>
      <trkpt lat="38.24091265" lon="-2.02101297">
        <ele>1182.0000</ele>
        <time>2018-10-12T10:11:16Z</time>
      </trkpt>
      <trkpt lat="38.24081216" lon="-2.02118145">
        <ele>1183.0000</ele>
        <time>2018-10-12T10:11:20Z</time>
      </trkpt>
      <trkpt lat="38.24070378" lon="-2.02137163">
        <ele>1184.0000</ele>
        <time>2018-10-12T10:11:24Z</time>
      </trkpt>
      <trkpt lat="38.24042935" lon="-2.02187991">
        <ele>1184.0000</ele>
        <time>2018-10-12T10:11:33Z</time>
      </trkpt>
      <trkpt lat="38.24022115" lon="-2.02226615">
        <ele>1184.0000</ele>
        <time>2018-10-12T10:11:39Z</time>
      </trkpt>
      <trkpt lat="38.24010137" lon="-2.02249070">
        <ele>1183.0000</ele>
        <time>2018-10-12T10:11:42Z</time>
      </trkpt>
      <trkpt lat="38.24005711" lon="-2.02257134">
        <ele>1183.0000</ele>
        <time>2018-10-12T10:11:43Z</time>
      </trkpt>
      <trkpt lat="38.24001126" lon="-2.02265557">
        <ele>1183.0000</ele>
        <time>2018-10-12T10:11:44Z</time>
      </trkpt>
      <trkpt lat="38.23986358" lon="-2.02292916">
        <ele>1182.0000</ele>
        <time>2018-10-12T10:11:47Z</time>
      </trkpt>
      <trkpt lat="38.23975478" lon="-2.02312739">
        <ele>1180.0000</ele>
        <time>2018-10-12T10:11:49Z</time>
      </trkpt>
      <trkpt lat="38.23963785" lon="-2.02334297">
        <ele>1178.0000</ele>
        <time>2018-10-12T10:11:51Z</time>
      </trkpt>
      <trkpt lat="38.23951749" lon="-2.02357415">
        <ele>1177.0000</ele>
        <time>2018-10-12T10:11:53Z</time>
      </trkpt>
      <trkpt lat="38.23939813" lon="-2.02380012">
        <ele>1175.0000</ele>
        <time>2018-10-12T10:11:55Z</time>
      </trkpt>
      <trkpt lat="38.23928983" lon="-2.02401269">
        <ele>1174.0000</ele>
        <time>2018-10-12T10:11:57Z</time>
      </trkpt>
      <trkpt lat="38.23914432" lon="-2.02429725">
        <ele>1173.0000</ele>
        <time>2018-10-12T10:12:00Z</time>
      </trkpt>
      <trkpt lat="38.23890125" lon="-2.02475968">
        <ele>1172.0000</ele>
        <time>2018-10-12T10:12:07Z</time>
      </trkpt>
      <trkpt lat="38.23882724" lon="-2.02488801">
        <ele>1174.0000</ele>
        <time>2018-10-12T10:12:10Z</time>
      </trkpt>
      <trkpt lat="38.23877753" lon="-2.02495993">
        <ele>1175.0000</ele>
        <time>2018-10-12T10:12:12Z</time>
      </trkpt>
      <trkpt lat="38.23872682" lon="-2.02502556">
        <ele>1177.0000</ele>
        <time>2018-10-12T10:12:14Z</time>
      </trkpt>
      <trkpt lat="38.23868491" lon="-2.02509806">
        <ele>1178.0000</ele>
        <time>2018-10-12T10:12:16Z</time>
      </trkpt>
      <trkpt lat="38.23864426" lon="-2.02517517">
        <ele>1179.0000</ele>
        <time>2018-10-12T10:12:18Z</time>
      </trkpt>
      <trkpt lat="38.23858324" lon="-2.02530870">
        <ele>1181.0000</ele>
        <time>2018-10-12T10:12:21Z</time>
      </trkpt>
      <trkpt lat="38.23827068" lon="-2.02592443">
        <ele>1181.0000</ele>
        <time>2018-10-12T10:12:34Z</time>
      </trkpt>
      <trkpt lat="38.23812559" lon="-2.02615175">
        <ele>1182.0000</ele>
        <time>2018-10-12T10:12:40Z</time>
      </trkpt>
      <trkpt lat="38.23805870" lon="-2.02626247">
        <ele>1182.0000</ele>
        <time>2018-10-12T10:12:43Z</time>
      </trkpt>
      <trkpt lat="38.23801620" lon="-2.02633431">
        <ele>1183.0000</ele>
        <time>2018-10-12T10:12:45Z</time>
      </trkpt>
      <trkpt lat="38.23792526" lon="-2.02647496">
        <ele>1184.0000</ele>
        <time>2018-10-12T10:12:49Z</time>
      </trkpt>
      <trkpt lat="38.23783826" lon="-2.02661946">
        <ele>1185.0000</ele>
        <time>2018-10-12T10:12:53Z</time>
      </trkpt>
      <trkpt lat="38.23777355" lon="-2.02672951">
        <ele>1186.0000</ele>
        <time>2018-10-12T10:12:57Z</time>
      </trkpt>
      <trkpt lat="38.23772409" lon="-2.02683387">
        <ele>1187.0000</ele>
        <time>2018-10-12T10:13:03Z</time>
      </trkpt>
      <trkpt lat="38.23762536" lon="-2.02702908">
        <ele>1188.0000</ele>
        <time>2018-10-12T10:13:12Z</time>
      </trkpt>
      <trkpt lat="38.23752963" lon="-2.02724676">
        <ele>1188.0000</ele>
        <time>2018-10-12T10:13:19Z</time>
      </trkpt>
      <trkpt lat="38.23724716" lon="-2.02786350">
        <ele>1188.0000</ele>
        <time>2018-10-12T10:13:34Z</time>
      </trkpt>
      <trkpt lat="38.23704734" lon="-2.02832543">
        <ele>1189.0000</ele>
        <time>2018-10-12T10:13:45Z</time>
      </trkpt>
      <trkpt lat="38.23688649" lon="-2.02868577">
        <ele>1190.0000</ele>
        <time>2018-10-12T10:13:55Z</time>
      </trkpt>
      <trkpt lat="38.23687157" lon="-2.02872097">
        <ele>1190.0000</ele>
        <time>2018-10-12T10:13:56Z</time>
      </trkpt>
      <trkpt lat="38.23677518" lon="-2.02892574">
        <ele>1191.0000</ele>
        <time>2018-10-12T10:14:02Z</time>
      </trkpt>
      <trkpt lat="38.23668767" lon="-2.02911375">
        <ele>1192.0000</ele>
        <time>2018-10-12T10:14:07Z</time>
      </trkpt>
      <trkpt lat="38.23656362" lon="-2.02938943">
        <ele>1193.0000</ele>
        <time>2018-10-12T10:14:14Z</time>
      </trkpt>
      <trkpt lat="38.23629884" lon="-2.02998722">
        <ele>1193.0000</ele>
        <time>2018-10-12T10:14:26Z</time>
      </trkpt>
      <trkpt lat="38.23606397" lon="-2.03052945">
        <ele>1194.0000</ele>
        <time>2018-10-12T10:14:38Z</time>
      </trkpt>
      <trkpt lat="38.23600287" lon="-2.03063582">
        <ele>1195.0000</ele>
        <time>2018-10-12T10:14:41Z</time>
      </trkpt>
      <trkpt lat="38.23591863" lon="-2.03076448">
        <ele>1196.0000</ele>
        <time>2018-10-12T10:14:45Z</time>
      </trkpt>
      <trkpt lat="38.23582652" lon="-2.03089431">
        <ele>1198.0000</ele>
        <time>2018-10-12T10:14:50Z</time>
      </trkpt>
      <trkpt lat="38.23577329" lon="-2.03095961">
        <ele>1198.0000</ele>
        <time>2018-10-12T10:14:53Z</time>
      </trkpt>
      <trkpt lat="38.23575535" lon="-2.03097788">
        <ele>1199.0000</ele>
        <time>2018-10-12T10:14:54Z</time>
      </trkpt>
      <trkpt lat="38.23571713" lon="-2.03101007">
        <ele>1199.0000</ele>
        <time>2018-10-12T10:14:56Z</time>
      </trkpt>
      <trkpt lat="38.23567966" lon="-2.03103865">
        <ele>1200.0000</ele>
        <time>2018-10-12T10:14:58Z</time>
      </trkpt>
      <trkpt lat="38.23562820" lon="-2.03109120">
        <ele>1201.0000</ele>
        <time>2018-10-12T10:15:01Z</time>
      </trkpt>
      <trkpt lat="38.23557615" lon="-2.03113739">
        <ele>1202.0000</ele>
        <time>2018-10-12T10:15:04Z</time>
      </trkpt>
      <trkpt lat="38.23550063" lon="-2.03118609">
        <ele>1203.0000</ele>
        <time>2018-10-12T10:15:08Z</time>
      </trkpt>
      <trkpt lat="38.23542871" lon="-2.03125666">
        <ele>1204.0000</ele>
        <time>2018-10-12T10:15:12Z</time>
      </trkpt>
      <trkpt lat="38.23535168" lon="-2.03132489">
        <ele>1206.0000</ele>
        <time>2018-10-12T10:15:16Z</time>
      </trkpt>
      <trkpt lat="38.23527297" lon="-2.03138667">
        <ele>1207.0000</ele>
        <time>2018-10-12T10:15:20Z</time>
      </trkpt>
      <trkpt lat="38.23519242" lon="-2.03144836">
        <ele>1208.0000</ele>
        <time>2018-10-12T10:15:24Z</time>
      </trkpt>
      <trkpt lat="38.23511741" lon="-2.03151290">
        <ele>1209.0000</ele>
        <time>2018-10-12T10:15:28Z</time>
      </trkpt>
      <trkpt lat="38.23506074" lon="-2.03155690">
        <ele>1210.0000</ele>
        <time>2018-10-12T10:15:31Z</time>
      </trkpt>
      <trkpt lat="38.23498665" lon="-2.03162463">
        <ele>1211.0000</ele>
        <time>2018-10-12T10:15:35Z</time>
      </trkpt>
      <trkpt lat="38.23491197" lon="-2.03169303">
        <ele>1213.0000</ele>
        <time>2018-10-12T10:15:39Z</time>
      </trkpt>
      <trkpt lat="38.23482278" lon="-2.03177726">
        <ele>1214.0000</ele>
        <time>2018-10-12T10:15:43Z</time>
      </trkpt>
      <trkpt lat="38.23475522" lon="-2.03184625">
        <ele>1215.0000</ele>
        <time>2018-10-12T10:15:46Z</time>
      </trkpt>
      <trkpt lat="38.23466478" lon="-2.03193426">
        <ele>1216.0000</ele>
        <time>2018-10-12T10:15:50Z</time>
      </trkpt>
      <trkpt lat="38.23455045" lon="-2.03204263">
        <ele>1217.0000</ele>
        <time>2018-10-12T10:15:55Z</time>
      </trkpt>
      <trkpt lat="38.23442674" lon="-2.03216300">
        <ele>1218.0000</ele>
        <time>2018-10-12T10:16:00Z</time>
      </trkpt>
      <trkpt lat="38.23426891" lon="-2.03231094">
        <ele>1219.0000</ele>
        <time>2018-10-12T10:16:06Z</time>
      </trkpt>
      <trkpt lat="38.23387831" lon="-2.03270749">
        <ele>1220.0000</ele>
        <time>2018-10-12T10:16:19Z</time>
      </trkpt>
      <trkpt lat="38.23368511" lon="-2.03293338">
        <ele>1220.0000</ele>
        <time>2018-10-12T10:16:25Z</time>
      </trkpt>
      <trkpt lat="38.23353557" lon="-2.03311854">
        <ele>1220.0000</ele>
        <time>2018-10-12T10:16:30Z</time>
      </trkpt>
      <trkpt lat="38.23331681" lon="-2.03337460">
        <ele>1221.0000</ele>
        <time>2018-10-12T10:16:39Z</time>
      </trkpt>
      <trkpt lat="38.23323349" lon="-2.03346949">
        <ele>1222.0000</ele>
        <time>2018-10-12T10:16:43Z</time>
      </trkpt>
      <trkpt lat="38.23317800" lon="-2.03354786">
        <ele>1224.0000</ele>
        <time>2018-10-12T10:16:46Z</time>
      </trkpt>
      <trkpt lat="38.23310147" lon="-2.03363964">
        <ele>1225.0000</ele>
        <time>2018-10-12T10:16:50Z</time>
      </trkpt>
      <trkpt lat="38.23304565" lon="-2.03370946">
        <ele>1226.0000</ele>
        <time>2018-10-12T10:16:53Z</time>
      </trkpt>
      <trkpt lat="38.23297114" lon="-2.03381013">
        <ele>1228.0000</ele>
        <time>2018-10-12T10:16:57Z</time>
      </trkpt>
      <trkpt lat="38.23293568" lon="-2.03386218">
        <ele>1229.0000</ele>
        <time>2018-10-12T10:16:59Z</time>
      </trkpt>
      <trkpt lat="38.23287785" lon="-2.03393686">
        <ele>1230.0000</ele>
        <time>2018-10-12T10:17:02Z</time>
      </trkpt>
      <trkpt lat="38.23280266" lon="-2.03403769">
        <ele>1231.0000</ele>
        <time>2018-10-12T10:17:06Z</time>
      </trkpt>
      <trkpt lat="38.23273334" lon="-2.03414808">
        <ele>1232.0000</ele>
        <time>2018-10-12T10:17:10Z</time>
      </trkpt>
      <trkpt lat="38.23265849" lon="-2.03425613">
        <ele>1233.0000</ele>
        <time>2018-10-12T10:17:14Z</time>
      </trkpt>
      <trkpt lat="38.23254290" lon="-2.03441270">
        <ele>1234.0000</ele>
        <time>2018-10-12T10:17:20Z</time>
      </trkpt>
      <trkpt lat="38.23246646" lon="-2.03451069">
        <ele>1235.0000</ele>
        <time>2018-10-12T10:17:24Z</time>
      </trkpt>
      <trkpt lat="38.23238558" lon="-2.03461303">
        <ele>1236.0000</ele>
        <time>2018-10-12T10:17:28Z</time>
      </trkpt>
      <trkpt lat="38.23229949" lon="-2.03471311">
        <ele>1237.0000</ele>
        <time>2018-10-12T10:17:32Z</time>
      </trkpt>
      <trkpt lat="38.23219640" lon="-2.03484345">
        <ele>1238.0000</ele>
        <time>2018-10-12T10:17:37Z</time>
      </trkpt>
      <trkpt lat="38.23209565" lon="-2.03497898">
        <ele>1239.0000</ele>
        <time>2018-10-12T10:17:42Z</time>
      </trkpt>
      <trkpt lat="38.23194762" lon="-2.03517084">
        <ele>1241.0000</ele>
        <time>2018-10-12T10:17:49Z</time>
      </trkpt>
      <trkpt lat="38.23183723" lon="-2.03532222">
        <ele>1242.0000</ele>
        <time>2018-10-12T10:17:54Z</time>
      </trkpt>
      <trkpt lat="38.23166565" lon="-2.03557024">
        <ele>1243.0000</ele>
        <time>2018-10-12T10:18:01Z</time>
      </trkpt>
      <trkpt lat="38.23143046" lon="-2.03590971">
        <ele>1243.0000</ele>
        <time>2018-10-12T10:18:09Z</time>
      </trkpt>
      <trkpt lat="38.23121630" lon="-2.03622411">
        <ele>1243.0000</ele>
        <time>2018-10-12T10:18:16Z</time>
      </trkpt>
      <trkpt lat="38.23101019" lon="-2.03652712">
        <ele>1243.0000</ele>
        <time>2018-10-12T10:18:23Z</time>
      </trkpt>
      <trkpt lat="38.23090357" lon="-2.03668235">
        <ele>1244.0000</ele>
        <time>2018-10-12T10:18:27Z</time>
      </trkpt>
      <trkpt lat="38.23076887" lon="-2.03687572">
        <ele>1245.0000</ele>
        <time>2018-10-12T10:18:32Z</time>
      </trkpt>
      <trkpt lat="38.23063887" lon="-2.03706951">
        <ele>1246.0000</ele>
        <time>2018-10-12T10:18:37Z</time>
      </trkpt>
      <trkpt lat="38.23051507" lon="-2.03729289">
        <ele>1247.0000</ele>
        <time>2018-10-12T10:18:42Z</time>
      </trkpt>
      <trkpt lat="38.23045330" lon="-2.03744846">
        <ele>1248.0000</ele>
        <time>2018-10-12T10:18:45Z</time>
      </trkpt>
      <trkpt lat="38.23035799" lon="-2.03773571">
        <ele>1248.0000</ele>
        <time>2018-10-12T10:18:50Z</time>
      </trkpt>
      <trkpt lat="38.23014970" lon="-2.03839679">
        <ele>1249.0000</ele>
        <time>2018-10-12T10:19:01Z</time>
      </trkpt>
      <trkpt lat="38.23001568" lon="-2.03883692">
        <ele>1249.0000</ele>
        <time>2018-10-12T10:19:08Z</time>
      </trkpt>
      <trkpt lat="38.22994066" lon="-2.03908402">
        <ele>1249.0000</ele>
        <time>2018-10-12T10:19:12Z</time>
      </trkpt>
      <trkpt lat="38.22978643" lon="-2.03958819">
        <ele>1249.0000</ele>
        <time>2018-10-12T10:19:20Z</time>
      </trkpt>
      <trkpt lat="38.22966121" lon="-2.03999220">
        <ele>1249.0000</ele>
        <time>2018-10-12T10:19:26Z</time>
      </trkpt>
      <trkpt lat="38.22958091" lon="-2.04026679">
        <ele>1250.0000</ele>
        <time>2018-10-12T10:19:30Z</time>
      </trkpt>
      <trkpt lat="38.22942643" lon="-2.04098369">
        <ele>1250.0000</ele>
        <time>2018-10-12T10:19:40Z</time>
      </trkpt>
      <trkpt lat="38.22928729" lon="-2.04168643">
        <ele>1250.0000</ele>
        <time>2018-10-12T10:19:50Z</time>
      </trkpt>
      <trkpt lat="38.22925066" lon="-2.04188844">
        <ele>1250.0000</ele>
        <time>2018-10-12T10:19:53Z</time>
      </trkpt>
      <trkpt lat="38.22919375" lon="-2.04223201">
        <ele>1251.0000</ele>
        <time>2018-10-12T10:19:58Z</time>
      </trkpt>
      <trkpt lat="38.22908512" lon="-2.04293693">
        <ele>1252.0000</ele>
        <time>2018-10-12T10:20:08Z</time>
      </trkpt>
      <trkpt lat="38.22896375" lon="-2.04362475">
        <ele>1252.0000</ele>
        <time>2018-10-12T10:20:18Z</time>
      </trkpt>
      <trkpt lat="38.22888563" lon="-2.04394896">
        <ele>1252.0000</ele>
        <time>2018-10-12T10:20:23Z</time>
      </trkpt>
      <trkpt lat="38.22882159" lon="-2.04418181">
        <ele>1253.0000</ele>
        <time>2018-10-12T10:20:27Z</time>
      </trkpt>
      <trkpt lat="38.22878790" lon="-2.04430159">
        <ele>1253.0000</ele>
        <time>2018-10-12T10:20:29Z</time>
      </trkpt>
      <trkpt lat="38.22869553" lon="-2.04463016">
        <ele>1253.0000</ele>
        <time>2018-10-12T10:20:34Z</time>
      </trkpt>
      <trkpt lat="38.22861397" lon="-2.04493635">
        <ele>1253.0000</ele>
        <time>2018-10-12T10:20:38Z</time>
      </trkpt>
      <trkpt lat="38.22847626" lon="-2.04543088">
        <ele>1252.0000</ele>
        <time>2018-10-12T10:20:44Z</time>
      </trkpt>
      <trkpt lat="38.22845170" lon="-2.04551797">
        <ele>1252.0000</ele>
        <time>2018-10-12T10:20:45Z</time>
      </trkpt>
      <trkpt lat="38.22839780" lon="-2.04569608">
        <ele>1251.0000</ele>
        <time>2018-10-12T10:20:47Z</time>
      </trkpt>
      <trkpt lat="38.22837023" lon="-2.04578879">
        <ele>1251.0000</ele>
        <time>2018-10-12T10:20:48Z</time>
      </trkpt>
      <trkpt lat="38.22831348" lon="-2.04598266">
        <ele>1250.0000</ele>
        <time>2018-10-12T10:20:50Z</time>
      </trkpt>
      <trkpt lat="38.22825472" lon="-2.04618860">
        <ele>1249.0000</ele>
        <time>2018-10-12T10:20:52Z</time>
      </trkpt>
      <trkpt lat="38.22817191" lon="-2.04652170">
        <ele>1248.0000</ele>
        <time>2018-10-12T10:20:55Z</time>
      </trkpt>
      <trkpt lat="38.22810376" lon="-2.04688112">
        <ele>1247.0000</ele>
        <time>2018-10-12T10:20:58Z</time>
      </trkpt>
      <trkpt lat="38.22806211" lon="-2.04713023">
        <ele>1246.0000</ele>
        <time>2018-10-12T10:21:00Z</time>
      </trkpt>
      <trkpt lat="38.22804082" lon="-2.04725453">
        <ele>1245.0000</ele>
        <time>2018-10-12T10:21:01Z</time>
      </trkpt>
      <trkpt lat="38.22799773" lon="-2.04750347">
        <ele>1244.0000</ele>
        <time>2018-10-12T10:21:03Z</time>
      </trkpt>
      <trkpt lat="38.22795658" lon="-2.04775149">
        <ele>1242.0000</ele>
        <time>2018-10-12T10:21:05Z</time>
      </trkpt>
      <trkpt lat="38.22791450" lon="-2.04799616">
        <ele>1241.0000</ele>
        <time>2018-10-12T10:21:07Z</time>
      </trkpt>
      <trkpt lat="38.22785197" lon="-2.04836379">
        <ele>1240.0000</ele>
        <time>2018-10-12T10:21:10Z</time>
      </trkpt>
      <trkpt lat="38.22771669" lon="-2.04913954">
        <ele>1239.0000</ele>
        <time>2018-10-12T10:21:16Z</time>
      </trkpt>
      <trkpt lat="38.22764460" lon="-2.04955712">
        <ele>1238.0000</ele>
        <time>2018-10-12T10:21:19Z</time>
      </trkpt>
      <trkpt lat="38.22759624" lon="-2.04984420">
        <ele>1237.0000</ele>
        <time>2018-10-12T10:21:21Z</time>
      </trkpt>
      <trkpt lat="38.22754754" lon="-2.05012776">
        <ele>1235.0000</ele>
        <time>2018-10-12T10:21:23Z</time>
      </trkpt>
      <trkpt lat="38.22749750" lon="-2.05040135">
        <ele>1234.0000</ele>
        <time>2018-10-12T10:21:25Z</time>
      </trkpt>
      <trkpt lat="38.22745048" lon="-2.05066354">
        <ele>1233.0000</ele>
        <time>2018-10-12T10:21:27Z</time>
      </trkpt>
      <trkpt lat="38.22740455" lon="-2.05091834">
        <ele>1231.0000</ele>
        <time>2018-10-12T10:21:29Z</time>
      </trkpt>
      <trkpt lat="38.22729952" lon="-2.05151153">
        <ele>1231.0000</ele>
        <time>2018-10-12T10:21:34Z</time>
      </trkpt>
      <trkpt lat="38.22721562" lon="-2.05204336">
        <ele>1231.0000</ele>
        <time>2018-10-12T10:21:42Z</time>
      </trkpt>
      <trkpt lat="38.22717891" lon="-2.05222844">
        <ele>1231.0000</ele>
        <time>2018-10-12T10:21:46Z</time>
      </trkpt>
      <trkpt lat="38.22711680" lon="-2.05258131">
        <ele>1231.0000</ele>
        <time>2018-10-12T10:21:52Z</time>
      </trkpt>
      <trkpt lat="38.22705829" lon="-2.05292279">
        <ele>1230.0000</ele>
        <time>2018-10-12T10:21:57Z</time>
      </trkpt>
      <trkpt lat="38.22704597" lon="-2.05299798">
        <ele>1230.0000</ele>
        <time>2018-10-12T10:21:58Z</time>
      </trkpt>
      <trkpt lat="38.22697422" lon="-2.05341397">
        <ele>1229.0000</ele>
        <time>2018-10-12T10:22:03Z</time>
      </trkpt>
      <trkpt lat="38.22691253" lon="-2.05379359">
        <ele>1228.0000</ele>
        <time>2018-10-12T10:22:07Z</time>
      </trkpt>
      <trkpt lat="38.22686115" lon="-2.05408872">
        <ele>1227.0000</ele>
        <time>2018-10-12T10:22:10Z</time>
      </trkpt>
      <trkpt lat="38.22682628" lon="-2.05428401">
        <ele>1225.0000</ele>
        <time>2018-10-12T10:22:12Z</time>
      </trkpt>
      <trkpt lat="38.22675688" lon="-2.05467302">
        <ele>1224.0000</ele>
        <time>2018-10-12T10:22:16Z</time>
      </trkpt>
      <trkpt lat="38.22665479" lon="-2.05525900">
        <ele>1224.0000</ele>
        <time>2018-10-12T10:22:22Z</time>
      </trkpt>
      <trkpt lat="38.22660634" lon="-2.05553904">
        <ele>1223.0000</ele>
        <time>2018-10-12T10:22:25Z</time>
      </trkpt>
      <trkpt lat="38.22657390" lon="-2.05572235">
        <ele>1223.0000</ele>
        <time>2018-10-12T10:22:27Z</time>
      </trkpt>
      <trkpt lat="38.22644683" lon="-2.05646004">
        <ele>1223.0000</ele>
        <time>2018-10-12T10:22:35Z</time>
      </trkpt>
      <trkpt lat="38.22640987" lon="-2.05674829">
        <ele>1222.0000</ele>
        <time>2018-10-12T10:22:38Z</time>
      </trkpt>
      <trkpt lat="38.22626838" lon="-2.05741767">
        <ele>1222.0000</ele>
        <time>2018-10-12T10:22:45Z</time>
      </trkpt>
      <trkpt lat="38.22614265" lon="-2.05773283">
        <ele>1222.0000</ele>
        <time>2018-10-12T10:22:49Z</time>
      </trkpt>
      <trkpt lat="38.22606101" lon="-2.05792780">
        <ele>1222.0000</ele>
        <time>2018-10-12T10:22:52Z</time>
      </trkpt>
      <trkpt lat="38.22592740" lon="-2.05826014">
        <ele>1223.0000</ele>
        <time>2018-10-12T10:23:01Z</time>
      </trkpt>
      <trkpt lat="38.22588793" lon="-2.05833926">
        <ele>1224.0000</ele>
        <time>2018-10-12T10:28:19Z</time>
      </trkpt>
      <trkpt lat="38.22579279" lon="-2.05855669">
        <ele>1224.0000</ele>
        <time>2018-10-12T10:28:25Z</time>
      </trkpt>
      <trkpt lat="38.22574409" lon="-2.05867228">
        <ele>1224.0000</ele>
        <time>2018-10-12T10:28:27Z</time>
      </trkpt>
      <trkpt lat="38.22569757" lon="-2.05879859">
        <ele>1224.0000</ele>
        <time>2018-10-12T10:28:29Z</time>
      </trkpt>
      <trkpt lat="38.22556044" lon="-2.05913303">
        <ele>1223.0000</ele>
        <time>2018-10-12T10:28:34Z</time>
      </trkpt>
      <trkpt lat="38.22546833" lon="-2.05934685">
        <ele>1222.0000</ele>
        <time>2018-10-12T10:28:37Z</time>
      </trkpt>
      <trkpt lat="38.22527278" lon="-2.05983066">
        <ele>1221.0000</ele>
        <time>2018-10-12T10:28:43Z</time>
      </trkpt>
      <trkpt lat="38.22509399" lon="-2.06028009">
        <ele>1220.0000</ele>
        <time>2018-10-12T10:28:48Z</time>
      </trkpt>
      <trkpt lat="38.22493306" lon="-2.06066968">
        <ele>1219.0000</ele>
        <time>2018-10-12T10:28:52Z</time>
      </trkpt>
      <trkpt lat="38.22484480" lon="-2.06088141">
        <ele>1219.0000</ele>
        <time>2018-10-12T10:28:54Z</time>
      </trkpt>
      <trkpt lat="38.22475377" lon="-2.06110026">
        <ele>1218.0000</ele>
        <time>2018-10-12T10:28:56Z</time>
      </trkpt>
      <trkpt lat="38.22462150" lon="-2.06141970">
        <ele>1217.0000</ele>
        <time>2018-10-12T10:28:59Z</time>
      </trkpt>
      <trkpt lat="38.22453810" lon="-2.06162874">
        <ele>1216.0000</ele>
        <time>2018-10-12T10:29:01Z</time>
      </trkpt>
      <trkpt lat="38.22445445" lon="-2.06182890">
        <ele>1214.0000</ele>
        <time>2018-10-12T10:29:03Z</time>
      </trkpt>
      <trkpt lat="38.22437365" lon="-2.06202479">
        <ele>1213.0000</ele>
        <time>2018-10-12T10:29:05Z</time>
      </trkpt>
      <trkpt lat="38.22411037" lon="-2.06271001">
        <ele>1212.0000</ele>
        <time>2018-10-12T10:29:12Z</time>
      </trkpt>
      <trkpt lat="38.22394584" lon="-2.06310580">
        <ele>1212.0000</ele>
        <time>2018-10-12T10:29:16Z</time>
      </trkpt>
      <trkpt lat="38.22368608" lon="-2.06378323">
        <ele>1210.0000</ele>
        <time>2018-10-12T10:29:23Z</time>
      </trkpt>
      <trkpt lat="38.22364803" lon="-2.06388347">
        <ele>1210.0000</ele>
        <time>2018-10-12T10:29:24Z</time>
      </trkpt>
      <trkpt lat="38.22340738" lon="-2.06450650">
        <ele>1210.0000</ele>
        <time>2018-10-12T10:29:30Z</time>
      </trkpt>
      <trkpt lat="38.22327872" lon="-2.06484002">
        <ele>1209.0000</ele>
        <time>2018-10-12T10:29:33Z</time>
      </trkpt>
      <trkpt lat="38.22315006" lon="-2.06518770">
        <ele>1208.0000</ele>
        <time>2018-10-12T10:29:36Z</time>
      </trkpt>
      <trkpt lat="38.22302685" lon="-2.06555726">
        <ele>1206.0000</ele>
        <time>2018-10-12T10:29:39Z</time>
      </trkpt>
      <trkpt lat="38.22292216" lon="-2.06594282">
        <ele>1205.0000</ele>
        <time>2018-10-12T10:29:42Z</time>
      </trkpt>
      <trkpt lat="38.22281554" lon="-2.06632453">
        <ele>1203.0000</ele>
        <time>2018-10-12T10:29:45Z</time>
      </trkpt>
      <trkpt lat="38.22278008" lon="-2.06645227">
        <ele>1202.0000</ele>
        <time>2018-10-12T10:29:46Z</time>
      </trkpt>
      <trkpt lat="38.22274463" lon="-2.06657943">
        <ele>1201.0000</ele>
        <time>2018-10-12T10:29:47Z</time>
      </trkpt>
      <trkpt lat="38.22267464" lon="-2.06683566">
        <ele>1199.0000</ele>
        <time>2018-10-12T10:29:49Z</time>
      </trkpt>
      <trkpt lat="38.22260482" lon="-2.06709936">
        <ele>1198.0000</ele>
        <time>2018-10-12T10:29:51Z</time>
      </trkpt>
      <trkpt lat="38.22253198" lon="-2.06736699">
        <ele>1197.0000</ele>
        <time>2018-10-12T10:29:53Z</time>
      </trkpt>
      <trkpt lat="38.22238320" lon="-2.06790670">
        <ele>1196.0000</ele>
        <time>2018-10-12T10:29:57Z</time>
      </trkpt>
      <trkpt lat="38.22227826" lon="-2.06829939">
        <ele>1194.0000</ele>
        <time>2018-10-12T10:30:00Z</time>
      </trkpt>
      <trkpt lat="38.22220902" lon="-2.06856233">
        <ele>1192.0000</ele>
        <time>2018-10-12T10:30:02Z</time>
      </trkpt>
      <trkpt lat="38.22217390" lon="-2.06869460">
        <ele>1191.0000</ele>
        <time>2018-10-12T10:30:03Z</time>
      </trkpt>
      <trkpt lat="38.22213836" lon="-2.06882678">
        <ele>1190.0000</ele>
        <time>2018-10-12T10:30:04Z</time>
      </trkpt>
      <trkpt lat="38.22206754" lon="-2.06909039">
        <ele>1188.0000</ele>
        <time>2018-10-12T10:30:06Z</time>
      </trkpt>
      <trkpt lat="38.22195891" lon="-2.06949130">
        <ele>1187.0000</ele>
        <time>2018-10-12T10:30:09Z</time>
      </trkpt>
      <trkpt lat="38.22188322" lon="-2.06976078">
        <ele>1186.0000</ele>
        <time>2018-10-12T10:30:11Z</time>
      </trkpt>
      <trkpt lat="38.22181088" lon="-2.07002908">
        <ele>1185.0000</ele>
        <time>2018-10-12T10:30:13Z</time>
      </trkpt>
      <trkpt lat="38.22173620" lon="-2.07045472">
        <ele>1183.0000</ele>
        <time>2018-10-12T10:30:16Z</time>
      </trkpt>
      <trkpt lat="38.22174609" lon="-2.07120942">
        <ele>1182.0000</ele>
        <time>2018-10-12T10:30:21Z</time>
      </trkpt>
      <trkpt lat="38.22176654" lon="-2.07149893">
        <ele>1181.0000</ele>
        <time>2018-10-12T10:30:23Z</time>
      </trkpt>
      <trkpt lat="38.22177601" lon="-2.07164051">
        <ele>1180.0000</ele>
        <time>2018-10-12T10:30:24Z</time>
      </trkpt>
      <trkpt lat="38.22179211" lon="-2.07192230">
        <ele>1179.0000</ele>
        <time>2018-10-12T10:30:26Z</time>
      </trkpt>
      <trkpt lat="38.22180946" lon="-2.07219958">
        <ele>1177.0000</ele>
        <time>2018-10-12T10:30:28Z</time>
      </trkpt>
      <trkpt lat="38.22184315" lon="-2.07274164">
        <ele>1176.0000</ele>
        <time>2018-10-12T10:30:32Z</time>
      </trkpt>
      <trkpt lat="38.22187048" lon="-2.07325637">
        <ele>1175.0000</ele>
        <time>2018-10-12T10:30:36Z</time>
      </trkpt>
      <trkpt lat="38.22191599" lon="-2.07395483">
        <ele>1174.0000</ele>
        <time>2018-10-12T10:30:42Z</time>
      </trkpt>
      <trkpt lat="38.22197643" lon="-2.07467769">
        <ele>1174.0000</ele>
        <time>2018-10-12T10:30:49Z</time>
      </trkpt>
      <trkpt lat="38.22198632" lon="-2.07487642">
        <ele>1175.0000</ele>
        <time>2018-10-12T10:30:51Z</time>
      </trkpt>
      <trkpt lat="38.22199562" lon="-2.07506895">
        <ele>1175.0000</ele>
        <time>2018-10-12T10:30:53Z</time>
      </trkpt>
      <trkpt lat="38.22200082" lon="-2.07516233">
        <ele>1175.0000</ele>
        <time>2018-10-12T10:30:54Z</time>
      </trkpt>
      <trkpt lat="38.22201490" lon="-2.07543483">
        <ele>1175.0000</ele>
        <time>2018-10-12T10:30:57Z</time>
      </trkpt>
      <trkpt lat="38.22203812" lon="-2.07587680">
        <ele>1176.0000</ele>
        <time>2018-10-12T10:31:02Z</time>
      </trkpt>
      <trkpt lat="38.22205798" lon="-2.07623329">
        <ele>1177.0000</ele>
        <time>2018-10-12T10:31:06Z</time>
      </trkpt>
      <trkpt lat="38.22206368" lon="-2.07632398">
        <ele>1177.0000</ele>
        <time>2018-10-12T10:31:07Z</time>
      </trkpt>
      <trkpt lat="38.22210207" lon="-2.07684709">
        <ele>1177.0000</ele>
        <time>2018-10-12T10:31:13Z</time>
      </trkpt>
      <trkpt lat="38.22219695" lon="-2.07759451">
        <ele>1178.0000</ele>
        <time>2018-10-12T10:31:22Z</time>
      </trkpt>
      <trkpt lat="38.22223610" lon="-2.07786097">
        <ele>1178.0000</ele>
        <time>2018-10-12T10:31:25Z</time>
      </trkpt>
      <trkpt lat="38.22226108" lon="-2.07804344">
        <ele>1178.0000</ele>
        <time>2018-10-12T10:31:27Z</time>
      </trkpt>
      <trkpt lat="38.22228572" lon="-2.07822809">
        <ele>1178.0000</ele>
        <time>2018-10-12T10:31:29Z</time>
      </trkpt>
      <trkpt lat="38.22232285" lon="-2.07850906">
        <ele>1177.0000</ele>
        <time>2018-10-12T10:31:32Z</time>
      </trkpt>
      <trkpt lat="38.22234909" lon="-2.07869991">
        <ele>1177.0000</ele>
        <time>2018-10-12T10:31:34Z</time>
      </trkpt>
      <trkpt lat="38.22244271" lon="-2.07946761">
        <ele>1176.0000</ele>
        <time>2018-10-12T10:31:42Z</time>
      </trkpt>
      <trkpt lat="38.22245721" lon="-2.07966987">
        <ele>1175.0000</ele>
        <time>2018-10-12T10:31:44Z</time>
      </trkpt>
      <trkpt lat="38.22246551" lon="-2.07998486">
        <ele>1175.0000</ele>
        <time>2018-10-12T10:31:47Z</time>
      </trkpt>
      <trkpt lat="38.22247037" lon="-2.08053530">
        <ele>1173.0000</ele>
        <time>2018-10-12T10:31:52Z</time>
      </trkpt>
      <trkpt lat="38.22249418" lon="-2.08102296">
        <ele>1173.0000</ele>
        <time>2018-10-12T10:31:56Z</time>
      </trkpt>
      <trkpt lat="38.22250541" lon="-2.08114801">
        <ele>1172.0000</ele>
        <time>2018-10-12T10:31:57Z</time>
      </trkpt>
      <trkpt lat="38.22252804" lon="-2.08139855">
        <ele>1171.0000</ele>
        <time>2018-10-12T10:31:59Z</time>
      </trkpt>
      <trkpt lat="38.22256215" lon="-2.08177071">
        <ele>1169.0000</ele>
        <time>2018-10-12T10:32:02Z</time>
      </trkpt>
      <trkpt lat="38.22258428" lon="-2.08201789">
        <ele>1168.0000</ele>
        <time>2018-10-12T10:32:04Z</time>
      </trkpt>
      <trkpt lat="38.22260557" lon="-2.08226423">
        <ele>1166.0000</ele>
        <time>2018-10-12T10:32:06Z</time>
      </trkpt>
      <trkpt lat="38.22263667" lon="-2.08263278">
        <ele>1165.0000</ele>
        <time>2018-10-12T10:32:09Z</time>
      </trkpt>
      <trkpt lat="38.22267640" lon="-2.08311332">
        <ele>1164.0000</ele>
        <time>2018-10-12T10:32:13Z</time>
      </trkpt>
      <trkpt lat="38.22271244" lon="-2.08334307">
        <ele>1163.0000</ele>
        <time>2018-10-12T10:32:15Z</time>
      </trkpt>
      <trkpt lat="38.22274513" lon="-2.08345404">
        <ele>1163.0000</ele>
        <time>2018-10-12T10:32:16Z</time>
      </trkpt>
      <trkpt lat="38.22288586" lon="-2.08377876">
        <ele>1162.0000</ele>
        <time>2018-10-12T10:32:19Z</time>
      </trkpt>
      <trkpt lat="38.22304185" lon="-2.08410431">
        <ele>1161.0000</ele>
        <time>2018-10-12T10:32:22Z</time>
      </trkpt>
      <trkpt lat="38.22323438" lon="-2.08453573">
        <ele>1160.0000</ele>
        <time>2018-10-12T10:32:26Z</time>
      </trkpt>
      <trkpt lat="38.22332558" lon="-2.08473656">
        <ele>1159.0000</ele>
        <time>2018-10-12T10:32:28Z</time>
      </trkpt>
      <trkpt lat="38.22349313" lon="-2.08510913">
        <ele>1158.0000</ele>
        <time>2018-10-12T10:32:32Z</time>
      </trkpt>
      <trkpt lat="38.22364644" lon="-2.08547157">
        <ele>1156.0000</ele>
        <time>2018-10-12T10:32:36Z</time>
      </trkpt>
      <trkpt lat="38.22375951" lon="-2.08573183">
        <ele>1156.0000</ele>
        <time>2018-10-12T10:32:39Z</time>
      </trkpt>
      <trkpt lat="38.22383830" lon="-2.08590298">
        <ele>1155.0000</ele>
        <time>2018-10-12T10:32:41Z</time>
      </trkpt>
      <trkpt lat="38.22414524" lon="-2.08656029">
        <ele>1155.0000</ele>
        <time>2018-10-12T10:32:48Z</time>
      </trkpt>
      <trkpt lat="38.22437952" lon="-2.08706346">
        <ele>1154.0000</ele>
        <time>2018-10-12T10:32:53Z</time>
      </trkpt>
      <trkpt lat="38.22447264" lon="-2.08726261">
        <ele>1152.0000</ele>
        <time>2018-10-12T10:32:55Z</time>
      </trkpt>
      <trkpt lat="38.22456794" lon="-2.08746101">
        <ele>1151.0000</ele>
        <time>2018-10-12T10:32:57Z</time>
      </trkpt>
      <trkpt lat="38.22471387" lon="-2.08777014">
        <ele>1150.0000</ele>
        <time>2018-10-12T10:33:00Z</time>
      </trkpt>
      <trkpt lat="38.22492954" lon="-2.08824346">
        <ele>1149.0000</ele>
        <time>2018-10-12T10:33:05Z</time>
      </trkpt>
      <trkpt lat="38.22496960" lon="-2.08832879">
        <ele>1149.0000</ele>
        <time>2018-10-12T10:33:06Z</time>
      </trkpt>
      <trkpt lat="38.22501000" lon="-2.08841278">
        <ele>1148.0000</ele>
        <time>2018-10-12T10:33:07Z</time>
      </trkpt>
      <trkpt lat="38.22508712" lon="-2.08857664">
        <ele>1148.0000</ele>
        <time>2018-10-12T10:33:09Z</time>
      </trkpt>
      <trkpt lat="38.22515627" lon="-2.08873271">
        <ele>1148.0000</ele>
        <time>2018-10-12T10:33:11Z</time>
      </trkpt>
      <trkpt lat="38.22538794" lon="-2.08924200">
        <ele>1150.0000</ele>
        <time>2018-10-12T10:33:18Z</time>
      </trkpt>
      <trkpt lat="38.22551434" lon="-2.08952179">
        <ele>1150.0000</ele>
        <time>2018-10-12T10:33:22Z</time>
      </trkpt>
      <trkpt lat="38.22557587" lon="-2.08965648">
        <ele>1151.0000</ele>
        <time>2018-10-12T10:33:24Z</time>
      </trkpt>
      <trkpt lat="38.22572699" lon="-2.08998061">
        <ele>1151.0000</ele>
        <time>2018-10-12T10:33:29Z</time>
      </trkpt>
      <trkpt lat="38.22589614" lon="-2.09034346">
        <ele>1152.0000</ele>
        <time>2018-10-12T10:33:34Z</time>
      </trkpt>
      <trkpt lat="38.22609948" lon="-2.09086004">
        <ele>1152.0000</ele>
        <time>2018-10-12T10:33:41Z</time>
      </trkpt>
      <trkpt lat="38.22611340" lon="-2.09093129">
        <ele>1152.0000</ele>
        <time>2018-10-12T10:33:42Z</time>
      </trkpt>
      <trkpt lat="38.22610468" lon="-2.09133043">
        <ele>1152.0000</ele>
        <time>2018-10-12T10:33:48Z</time>
      </trkpt>
      <trkpt lat="38.22608758" lon="-2.09145868">
        <ele>1153.0000</ele>
        <time>2018-10-12T10:33:50Z</time>
      </trkpt>
      <trkpt lat="38.22601541" lon="-2.09194013">
        <ele>1154.0000</ele>
        <time>2018-10-12T10:33:57Z</time>
      </trkpt>
      <trkpt lat="38.22590259" lon="-2.09261245">
        <ele>1154.0000</ele>
        <time>2018-10-12T10:34:07Z</time>
      </trkpt>
      <trkpt lat="38.22579916" lon="-2.09334176">
        <ele>1155.0000</ele>
        <time>2018-10-12T10:34:19Z</time>
      </trkpt>
      <trkpt lat="38.22575474" lon="-2.09358357">
        <ele>1156.0000</ele>
        <time>2018-10-12T10:34:23Z</time>
      </trkpt>
      <trkpt lat="38.22574459" lon="-2.09364627">
        <ele>1156.0000</ele>
        <time>2018-10-12T10:34:24Z</time>
      </trkpt>
      <trkpt lat="38.22570696" lon="-2.09389731">
        <ele>1157.0000</ele>
        <time>2018-10-12T10:34:28Z</time>
      </trkpt>
      <trkpt lat="38.22569782" lon="-2.09396277">
        <ele>1157.0000</ele>
        <time>2018-10-12T10:34:29Z</time>
      </trkpt>
      <trkpt lat="38.22560017" lon="-2.09464807">
        <ele>1158.0000</ele>
        <time>2018-10-12T10:34:39Z</time>
      </trkpt>
      <trkpt lat="38.22549984" lon="-2.09536557">
        <ele>1158.0000</ele>
        <time>2018-10-12T10:34:48Z</time>
      </trkpt>
      <trkpt lat="38.22540253" lon="-2.09607979">
        <ele>1158.0000</ele>
        <time>2018-10-12T10:34:57Z</time>
      </trkpt>
      <trkpt lat="38.22535928" lon="-2.09640140">
        <ele>1157.0000</ele>
        <time>2018-10-12T10:35:01Z</time>
      </trkpt>
      <trkpt lat="38.22530136" lon="-2.09684271">
        <ele>1157.0000</ele>
        <time>2018-10-12T10:35:06Z</time>
      </trkpt>
      <trkpt lat="38.22528912" lon="-2.09693659">
        <ele>1157.0000</ele>
        <time>2018-10-12T10:35:07Z</time>
      </trkpt>
      <trkpt lat="38.22527655" lon="-2.09703139">
        <ele>1157.0000</ele>
        <time>2018-10-12T10:35:08Z</time>
      </trkpt>
      <trkpt lat="38.22526381" lon="-2.09712618">
        <ele>1157.0000</ele>
        <time>2018-10-12T10:35:09Z</time>
      </trkpt>
      <trkpt lat="38.22516557" lon="-2.09785122">
        <ele>1156.0000</ele>
        <time>2018-10-12T10:35:17Z</time>
      </trkpt>
      <trkpt lat="38.22511763" lon="-2.09822036">
        <ele>1156.0000</ele>
        <time>2018-10-12T10:35:21Z</time>
      </trkpt>
      <trkpt lat="38.22506264" lon="-2.09861624">
        <ele>1155.0000</ele>
        <time>2018-10-12T10:35:25Z</time>
      </trkpt>
      <trkpt lat="38.22503289" lon="-2.09882033">
        <ele>1155.0000</ele>
        <time>2018-10-12T10:35:27Z</time>
      </trkpt>
      <trkpt lat="38.22501730" lon="-2.09892092">
        <ele>1154.0000</ele>
        <time>2018-10-12T10:35:28Z</time>
      </trkpt>
      <trkpt lat="38.22498545" lon="-2.09911840">
        <ele>1154.0000</ele>
        <time>2018-10-12T10:35:30Z</time>
      </trkpt>
      <trkpt lat="38.22496977" lon="-2.09921319">
        <ele>1153.0000</ele>
        <time>2018-10-12T10:35:31Z</time>
      </trkpt>
      <trkpt lat="38.22493063" lon="-2.09948209">
        <ele>1153.0000</ele>
        <time>2018-10-12T10:35:34Z</time>
      </trkpt>
      <trkpt lat="38.22484136" lon="-2.10016412">
        <ele>1153.0000</ele>
        <time>2018-10-12T10:35:42Z</time>
      </trkpt>
      <trkpt lat="38.22475268" lon="-2.10088773">
        <ele>1153.0000</ele>
        <time>2018-10-12T10:35:50Z</time>
      </trkpt>
      <trkpt lat="38.22464883" lon="-2.10166406">
        <ele>1153.0000</ele>
        <time>2018-10-12T10:35:57Z</time>
      </trkpt>
      <trkpt lat="38.22461371" lon="-2.10191661">
        <ele>1152.0000</ele>
        <time>2018-10-12T10:35:59Z</time>
      </trkpt>
      <trkpt lat="38.22458228" lon="-2.10215776">
        <ele>1150.0000</ele>
        <time>2018-10-12T10:36:01Z</time>
      </trkpt>
      <trkpt lat="38.22454942" lon="-2.10239270">
        <ele>1149.0000</ele>
        <time>2018-10-12T10:36:03Z</time>
      </trkpt>
      <trkpt lat="38.22451765" lon="-2.10262522">
        <ele>1147.0000</ele>
        <time>2018-10-12T10:36:05Z</time>
      </trkpt>
      <trkpt lat="38.22447096" lon="-2.10297491">
        <ele>1146.0000</ele>
        <time>2018-10-12T10:36:08Z</time>
      </trkpt>
      <trkpt lat="38.22437365" lon="-2.10368813">
        <ele>1145.0000</ele>
        <time>2018-10-12T10:36:15Z</time>
      </trkpt>
      <trkpt lat="38.22433618" lon="-2.10392223">
        <ele>1145.0000</ele>
        <time>2018-10-12T10:36:18Z</time>
      </trkpt>
      <trkpt lat="38.22431799" lon="-2.10405827">
        <ele>1145.0000</ele>
        <time>2018-10-12T10:36:20Z</time>
      </trkpt>
      <trkpt lat="38.22429888" lon="-2.10418777">
        <ele>1146.0000</ele>
        <time>2018-10-12T10:36:22Z</time>
      </trkpt>
      <trkpt lat="38.22427458" lon="-2.10437343">
        <ele>1147.0000</ele>
        <time>2018-10-12T10:36:25Z</time>
      </trkpt>
      <trkpt lat="38.22426058" lon="-2.10449555">
        <ele>1149.0000</ele>
        <time>2018-10-12T10:36:27Z</time>
      </trkpt>
      <trkpt lat="38.22424725" lon="-2.10461500">
        <ele>1150.0000</ele>
        <time>2018-10-12T10:36:29Z</time>
      </trkpt>
      <trkpt lat="38.22422713" lon="-2.10478833">
        <ele>1151.0000</ele>
        <time>2018-10-12T10:36:32Z</time>
      </trkpt>
      <trkpt lat="38.22421867" lon="-2.10495547">
        <ele>1152.0000</ele>
        <time>2018-10-12T10:36:35Z</time>
      </trkpt>
      <trkpt lat="38.22419780" lon="-2.10520558">
        <ele>1153.0000</ele>
        <time>2018-10-12T10:36:39Z</time>
      </trkpt>
      <trkpt lat="38.22418657" lon="-2.10538932">
        <ele>1153.0000</ele>
        <time>2018-10-12T10:36:42Z</time>
      </trkpt>
      <trkpt lat="38.22415044" lon="-2.10583213">
        <ele>1154.0000</ele>
        <time>2018-10-12T10:36:49Z</time>
      </trkpt>
      <trkpt lat="38.22413736" lon="-2.10604176">
        <ele>1154.0000</ele>
        <time>2018-10-12T10:36:52Z</time>
      </trkpt>
      <trkpt lat="38.22412211" lon="-2.10631845">
        <ele>1154.0000</ele>
        <time>2018-10-12T10:36:56Z</time>
      </trkpt>
      <trkpt lat="38.22409680" lon="-2.10699378">
        <ele>1155.0000</ele>
        <time>2018-10-12T10:37:06Z</time>
      </trkpt>
      <trkpt lat="38.22409160" lon="-2.10773449">
        <ele>1155.0000</ele>
        <time>2018-10-12T10:37:16Z</time>
      </trkpt>
      <trkpt lat="38.22405757" lon="-2.10812718">
        <ele>1154.0000</ele>
        <time>2018-10-12T10:37:21Z</time>
      </trkpt>
      <trkpt lat="38.22400954" lon="-2.10829029">
        <ele>1154.0000</ele>
        <time>2018-10-12T10:37:23Z</time>
      </trkpt>
      <trkpt lat="38.22392069" lon="-2.10854108">
        <ele>1154.0000</ele>
        <time>2018-10-12T10:37:26Z</time>
      </trkpt>
      <trkpt lat="38.22386537" lon="-2.10870612">
        <ele>1154.0000</ele>
        <time>2018-10-12T10:37:28Z</time>
      </trkpt>
      <trkpt lat="38.22381248" lon="-2.10886722">
        <ele>1153.0000</ele>
        <time>2018-10-12T10:37:30Z</time>
      </trkpt>
      <trkpt lat="38.22374207" lon="-2.10910962">
        <ele>1152.0000</ele>
        <time>2018-10-12T10:37:33Z</time>
      </trkpt>
      <trkpt lat="38.22364275" lon="-2.10946728">
        <ele>1152.0000</ele>
        <time>2018-10-12T10:37:37Z</time>
      </trkpt>
      <trkpt lat="38.22350285" lon="-2.10995913">
        <ele>1151.0000</ele>
        <time>2018-10-12T10:37:42Z</time>
      </trkpt>
      <trkpt lat="38.22344477" lon="-2.11014127">
        <ele>1151.0000</ele>
        <time>2018-10-12T10:37:44Z</time>
      </trkpt>
      <trkpt lat="38.22338467" lon="-2.11031922">
        <ele>1151.0000</ele>
        <time>2018-10-12T10:37:46Z</time>
      </trkpt>
      <trkpt lat="38.22317797" lon="-2.11097242">
        <ele>1150.0000</ele>
        <time>2018-10-12T10:37:54Z</time>
      </trkpt>
      <trkpt lat="38.22308812" lon="-2.11124617">
        <ele>1151.0000</ele>
        <time>2018-10-12T10:37:58Z</time>
      </trkpt>
      <trkpt lat="38.22298787" lon="-2.11155798">
        <ele>1152.0000</ele>
        <time>2018-10-12T10:38:03Z</time>
      </trkpt>
      <trkpt lat="38.22289315" lon="-2.11185973">
        <ele>1152.0000</ele>
        <time>2018-10-12T10:38:08Z</time>
      </trkpt>
      <trkpt lat="38.22285871" lon="-2.11198571">
        <ele>1153.0000</ele>
        <time>2018-10-12T10:38:10Z</time>
      </trkpt>
      <trkpt lat="38.22276818" lon="-2.11231310">
        <ele>1153.0000</ele>
        <time>2018-10-12T10:38:15Z</time>
      </trkpt>
      <trkpt lat="38.22256978" lon="-2.11302355">
        <ele>1153.0000</ele>
        <time>2018-10-12T10:38:24Z</time>
      </trkpt>
      <trkpt lat="38.22251907" lon="-2.11321701">
        <ele>1153.0000</ele>
        <time>2018-10-12T10:38:26Z</time>
      </trkpt>
      <trkpt lat="38.22244741" lon="-2.11349822">
        <ele>1152.0000</ele>
        <time>2018-10-12T10:38:29Z</time>
      </trkpt>
      <trkpt lat="38.22238043" lon="-2.11375328">
        <ele>1151.0000</ele>
        <time>2018-10-12T10:38:32Z</time>
      </trkpt>
      <trkpt lat="38.22219888" lon="-2.11443414">
        <ele>1150.0000</ele>
        <time>2018-10-12T10:38:41Z</time>
      </trkpt>
      <trkpt lat="38.22209143" lon="-2.11484218">
        <ele>1152.0000</ele>
        <time>2018-10-12T10:38:46Z</time>
      </trkpt>
      <trkpt lat="38.22197819" lon="-2.11526077">
        <ele>1152.0000</ele>
        <time>2018-10-12T10:38:51Z</time>
      </trkpt>
      <trkpt lat="38.22190971" lon="-2.11550988">
        <ele>1151.0000</ele>
        <time>2018-10-12T10:38:54Z</time>
      </trkpt>
      <trkpt lat="38.22173067" lon="-2.11620088">
        <ele>1151.0000</ele>
        <time>2018-10-12T10:39:02Z</time>
      </trkpt>
      <trkpt lat="38.22165749" lon="-2.11647816">
        <ele>1151.0000</ele>
        <time>2018-10-12T10:39:05Z</time>
      </trkpt>
      <trkpt lat="38.22163268" lon="-2.11656943">
        <ele>1150.0000</ele>
        <time>2018-10-12T10:39:06Z</time>
      </trkpt>
      <trkpt lat="38.22155993" lon="-2.11684629">
        <ele>1150.0000</ele>
        <time>2018-10-12T10:39:09Z</time>
      </trkpt>
      <trkpt lat="38.22153579" lon="-2.11693757">
        <ele>1149.0000</ele>
        <time>2018-10-12T10:39:10Z</time>
      </trkpt>
      <trkpt lat="38.22134552" lon="-2.11759253">
        <ele>1149.0000</ele>
        <time>2018-10-12T10:39:18Z</time>
      </trkpt>
      <trkpt lat="38.22126396" lon="-2.11786846">
        <ele>1149.0000</ele>
        <time>2018-10-12T10:39:22Z</time>
      </trkpt>
      <trkpt lat="38.22119372" lon="-2.11814825">
        <ele>1151.0000</ele>
        <time>2018-10-12T10:39:26Z</time>
      </trkpt>
      <trkpt lat="38.22101871" lon="-2.11890128">
        <ele>1151.0000</ele>
        <time>2018-10-12T10:39:34Z</time>
      </trkpt>
      <trkpt lat="38.22089030" lon="-2.11943521">
        <ele>1149.0000</ele>
        <time>2018-10-12T10:39:39Z</time>
      </trkpt>
      <trkpt lat="38.22084194" lon="-2.11963537">
        <ele>1148.0000</ele>
        <time>2018-10-12T10:39:41Z</time>
      </trkpt>
      <trkpt lat="38.22066013" lon="-2.12036275">
        <ele>1147.0000</ele>
        <time>2018-10-12T10:39:49Z</time>
      </trkpt>
      <trkpt lat="38.22046685" lon="-2.12103866">
        <ele>1148.0000</ele>
        <time>2018-10-12T10:39:57Z</time>
      </trkpt>
      <trkpt lat="38.22027339" lon="-2.12170964">
        <ele>1149.0000</ele>
        <time>2018-10-12T10:40:05Z</time>
      </trkpt>
      <trkpt lat="38.22007164" lon="-2.12240869">
        <ele>1149.0000</ele>
        <time>2018-10-12T10:40:14Z</time>
      </trkpt>
      <trkpt lat="38.21989302" lon="-2.12301872">
        <ele>1149.0000</ele>
        <time>2018-10-12T10:40:22Z</time>
      </trkpt>
      <trkpt lat="38.21987148" lon="-2.12309072">
        <ele>1149.0000</ele>
        <time>2018-10-12T10:40:23Z</time>
      </trkpt>
      <trkpt lat="38.21980929" lon="-2.12330278">
        <ele>1149.0000</ele>
        <time>2018-10-12T10:40:26Z</time>
      </trkpt>
      <trkpt lat="38.21972697" lon="-2.12357193">
        <ele>1150.0000</ele>
        <time>2018-10-12T10:40:30Z</time>
      </trkpt>
      <trkpt lat="38.21964676" lon="-2.12384434">
        <ele>1151.0000</ele>
        <time>2018-10-12T10:40:34Z</time>
      </trkpt>
      <trkpt lat="38.21956797" lon="-2.12411667">
        <ele>1152.0000</ele>
        <time>2018-10-12T10:40:38Z</time>
      </trkpt>
      <trkpt lat="38.21954852" lon="-2.12418573">
        <ele>1152.0000</ele>
        <time>2018-10-12T10:40:39Z</time>
      </trkpt>
      <trkpt lat="38.21946680" lon="-2.12446116">
        <ele>1153.0000</ele>
        <time>2018-10-12T10:40:43Z</time>
      </trkpt>
      <trkpt lat="38.21941005" lon="-2.12465847">
        <ele>1153.0000</ele>
        <time>2018-10-12T10:40:46Z</time>
      </trkpt>
      <trkpt lat="38.21929849" lon="-2.12505108">
        <ele>1154.0000</ele>
        <time>2018-10-12T10:40:52Z</time>
      </trkpt>
      <trkpt lat="38.21925943" lon="-2.12518276">
        <ele>1154.0000</ele>
        <time>2018-10-12T10:40:54Z</time>
      </trkpt>
      <trkpt lat="38.21918089" lon="-2.12544998">
        <ele>1155.0000</ele>
        <time>2018-10-12T10:40:58Z</time>
      </trkpt>
      <trkpt lat="38.21900445" lon="-2.12604668">
        <ele>1156.0000</ele>
        <time>2018-10-12T10:41:05Z</time>
      </trkpt>
      <trkpt lat="38.21894553" lon="-2.12624450">
        <ele>1156.0000</ele>
        <time>2018-10-12T10:41:07Z</time>
      </trkpt>
      <trkpt lat="38.21882349" lon="-2.12664918">
        <ele>1154.0000</ele>
        <time>2018-10-12T10:41:11Z</time>
      </trkpt>
      <trkpt lat="38.21872911" lon="-2.12695285">
        <ele>1153.0000</ele>
        <time>2018-10-12T10:41:14Z</time>
      </trkpt>
      <trkpt lat="38.21860950" lon="-2.12735552">
        <ele>1152.0000</ele>
        <time>2018-10-12T10:41:18Z</time>
      </trkpt>
      <trkpt lat="38.21840699" lon="-2.12805935">
        <ele>1152.0000</ele>
        <time>2018-10-12T10:41:25Z</time>
      </trkpt>
      <trkpt lat="38.21820876" lon="-2.12875320">
        <ele>1151.0000</ele>
        <time>2018-10-12T10:41:32Z</time>
      </trkpt>
      <trkpt lat="38.21800273" lon="-2.12944001">
        <ele>1152.0000</ele>
        <time>2018-10-12T10:41:40Z</time>
      </trkpt>
      <trkpt lat="38.21793350" lon="-2.12967487">
        <ele>1153.0000</ele>
        <time>2018-10-12T10:41:43Z</time>
      </trkpt>
      <trkpt lat="38.21785924" lon="-2.12990974">
        <ele>1154.0000</ele>
        <time>2018-10-12T10:41:46Z</time>
      </trkpt>
      <trkpt lat="38.21773418" lon="-2.13033922">
        <ele>1155.0000</ele>
        <time>2018-10-12T10:41:51Z</time>
      </trkpt>
      <trkpt lat="38.21759261" lon="-2.13081054">
        <ele>1155.0000</ele>
        <time>2018-10-12T10:41:56Z</time>
      </trkpt>
      <trkpt lat="38.21750694" lon="-2.13110961">
        <ele>1154.0000</ele>
        <time>2018-10-12T10:41:59Z</time>
      </trkpt>
      <trkpt lat="38.21747845" lon="-2.13121094">
        <ele>1153.0000</ele>
        <time>2018-10-12T10:42:00Z</time>
      </trkpt>
      <trkpt lat="38.21744978" lon="-2.13131261">
        <ele>1153.0000</ele>
        <time>2018-10-12T10:42:01Z</time>
      </trkpt>
      <trkpt lat="38.21735540" lon="-2.13163037">
        <ele>1152.0000</ele>
        <time>2018-10-12T10:42:04Z</time>
      </trkpt>
      <trkpt lat="38.21723219" lon="-2.13204997">
        <ele>1150.0000</ele>
        <time>2018-10-12T10:42:08Z</time>
      </trkpt>
      <trkpt lat="38.21713831" lon="-2.13236421">
        <ele>1149.0000</ele>
        <time>2018-10-12T10:42:11Z</time>
      </trkpt>
      <trkpt lat="38.21704669" lon="-2.13267476">
        <ele>1148.0000</ele>
        <time>2018-10-12T10:42:14Z</time>
      </trkpt>
      <trkpt lat="38.21687470" lon="-2.13328060">
        <ele>1147.0000</ele>
        <time>2018-10-12T10:42:21Z</time>
      </trkpt>
      <trkpt lat="38.21674218" lon="-2.13371126">
        <ele>1149.0000</ele>
        <time>2018-10-12T10:42:28Z</time>
      </trkpt>
      <trkpt lat="38.21670597" lon="-2.13383129">
        <ele>1151.0000</ele>
        <time>2018-10-12T10:42:30Z</time>
      </trkpt>
      <trkpt lat="38.21666817" lon="-2.13395652">
        <ele>1152.0000</ele>
        <time>2018-10-12T10:42:32Z</time>
      </trkpt>
      <trkpt lat="38.21662894" lon="-2.13408845">
        <ele>1153.0000</ele>
        <time>2018-10-12T10:42:34Z</time>
      </trkpt>
      <trkpt lat="38.21643741" lon="-2.13474903">
        <ele>1154.0000</ele>
        <time>2018-10-12T10:42:42Z</time>
      </trkpt>
      <trkpt lat="38.21634546" lon="-2.13504868">
        <ele>1153.0000</ele>
        <time>2018-10-12T10:42:45Z</time>
      </trkpt>
      <trkpt lat="38.21626558" lon="-2.13531648">
        <ele>1152.0000</ele>
        <time>2018-10-12T10:42:48Z</time>
      </trkpt>
      <trkpt lat="38.21624061" lon="-2.13540022">
        <ele>1151.0000</ele>
        <time>2018-10-12T10:42:49Z</time>
      </trkpt>
      <trkpt lat="38.21604078" lon="-2.13608938">
        <ele>1151.0000</ele>
        <time>2018-10-12T10:42:58Z</time>
      </trkpt>
      <trkpt lat="38.21586987" lon="-2.13658710">
        <ele>1152.0000</ele>
        <time>2018-10-12T10:43:05Z</time>
      </trkpt>
      <trkpt lat="38.21575974" lon="-2.13686772">
        <ele>1153.0000</ele>
        <time>2018-10-12T10:43:09Z</time>
      </trkpt>
      <trkpt lat="38.21545430" lon="-2.13749653">
        <ele>1154.0000</ele>
        <time>2018-10-12T10:43:18Z</time>
      </trkpt>
      <trkpt lat="38.21517183" lon="-2.13792325">
        <ele>1154.0000</ele>
        <time>2018-10-12T10:43:25Z</time>
      </trkpt>
      <trkpt lat="38.21504677" lon="-2.13807287">
        <ele>1154.0000</ele>
        <time>2018-10-12T10:43:28Z</time>
      </trkpt>
      <trkpt lat="38.21487595" lon="-2.13827555">
        <ele>1155.0000</ele>
        <time>2018-10-12T10:43:32Z</time>
      </trkpt>
      <trkpt lat="38.21474921" lon="-2.13844377">
        <ele>1156.0000</ele>
        <time>2018-10-12T10:43:35Z</time>
      </trkpt>
      <trkpt lat="38.21462114" lon="-2.13862926">
        <ele>1157.0000</ele>
        <time>2018-10-12T10:43:38Z</time>
      </trkpt>
      <trkpt lat="38.21424194" lon="-2.13917610">
        <ele>1157.0000</ele>
        <time>2018-10-12T10:43:45Z</time>
      </trkpt>
      <trkpt lat="38.21398193" lon="-2.13955421">
        <ele>1155.0000</ele>
        <time>2018-10-12T10:43:49Z</time>
      </trkpt>
      <trkpt lat="38.21383844" lon="-2.13975193">
        <ele>1154.0000</ele>
        <time>2018-10-12T10:43:51Z</time>
      </trkpt>
      <trkpt lat="38.21367750" lon="-2.13993717">
        <ele>1152.0000</ele>
        <time>2018-10-12T10:43:53Z</time>
      </trkpt>
      <trkpt lat="38.21349654" lon="-2.14008193">
        <ele>1151.0000</ele>
        <time>2018-10-12T10:43:55Z</time>
      </trkpt>
      <trkpt lat="38.21331415" lon="-2.14019559">
        <ele>1149.0000</ele>
        <time>2018-10-12T10:43:57Z</time>
      </trkpt>
      <trkpt lat="38.21305414" lon="-2.14035308">
        <ele>1148.0000</ele>
        <time>2018-10-12T10:44:00Z</time>
      </trkpt>
      <trkpt lat="38.21251519" lon="-2.14067730">
        <ele>1148.0000</ele>
        <time>2018-10-12T10:44:07Z</time>
      </trkpt>
      <trkpt lat="38.21231746" lon="-2.14079523">
        <ele>1150.0000</ele>
        <time>2018-10-12T10:44:10Z</time>
      </trkpt>
      <trkpt lat="38.21214093" lon="-2.14091375">
        <ele>1151.0000</ele>
        <time>2018-10-12T10:44:13Z</time>
      </trkpt>
      <trkpt lat="38.21208863" lon="-2.14096044">
        <ele>1152.0000</ele>
        <time>2018-10-12T10:44:14Z</time>
      </trkpt>
      <trkpt lat="38.21199844" lon="-2.14107242">
        <ele>1152.0000</ele>
        <time>2018-10-12T10:44:16Z</time>
      </trkpt>
      <trkpt lat="38.21188621" lon="-2.14127870">
        <ele>1154.0000</ele>
        <time>2018-10-12T10:44:19Z</time>
      </trkpt>
      <trkpt lat="38.21168144" lon="-2.14193584">
        <ele>1155.0000</ele>
        <time>2018-10-12T10:44:27Z</time>
      </trkpt>
      <trkpt lat="38.21163970" lon="-2.14219316">
        <ele>1155.0000</ele>
        <time>2018-10-12T10:44:30Z</time>
      </trkpt>
      <trkpt lat="38.21162209" lon="-2.14245317">
        <ele>1154.0000</ele>
        <time>2018-10-12T10:44:33Z</time>
      </trkpt>
      <trkpt lat="38.21154657" lon="-2.14313034">
        <ele>1154.0000</ele>
        <time>2018-10-12T10:44:40Z</time>
      </trkpt>
      <trkpt lat="38.21147960" lon="-2.14333235">
        <ele>1153.0000</ele>
        <time>2018-10-12T10:44:42Z</time>
      </trkpt>
      <trkpt lat="38.21140333" lon="-2.14353058">
        <ele>1153.0000</ele>
        <time>2018-10-12T10:44:44Z</time>
      </trkpt>
      <trkpt lat="38.21136351" lon="-2.14362882">
        <ele>1152.0000</ele>
        <time>2018-10-12T10:44:45Z</time>
      </trkpt>
      <trkpt lat="38.21123192" lon="-2.14391447">
        <ele>1151.0000</ele>
        <time>2018-10-12T10:44:48Z</time>
      </trkpt>
      <trkpt lat="38.21107517" lon="-2.14418957">
        <ele>1150.0000</ele>
        <time>2018-10-12T10:44:51Z</time>
      </trkpt>
      <trkpt lat="38.21088566" lon="-2.14446273">
        <ele>1149.0000</ele>
        <time>2018-10-12T10:44:54Z</time>
      </trkpt>
      <trkpt lat="38.21074836" lon="-2.14465593">
        <ele>1149.0000</ele>
        <time>2018-10-12T10:44:56Z</time>
      </trkpt>
      <trkpt lat="38.21054494" lon="-2.14493597">
        <ele>1147.0000</ele>
        <time>2018-10-12T10:44:59Z</time>
      </trkpt>
      <trkpt lat="38.21042021" lon="-2.14510143">
        <ele>1146.0000</ele>
        <time>2018-10-12T10:45:01Z</time>
      </trkpt>
      <trkpt lat="38.21024780" lon="-2.14532841">
        <ele>1145.0000</ele>
        <time>2018-10-12T10:45:04Z</time>
      </trkpt>
      <trkpt lat="38.21013967" lon="-2.14547258">
        <ele>1145.0000</ele>
        <time>2018-10-12T10:45:06Z</time>
      </trkpt>
      <trkpt lat="38.20992568" lon="-2.14576201">
        <ele>1145.0000</ele>
        <time>2018-10-12T10:45:10Z</time>
      </trkpt>
      <trkpt lat="38.20982459" lon="-2.14591372">
        <ele>1145.0000</ele>
        <time>2018-10-12T10:45:12Z</time>
      </trkpt>
      <trkpt lat="38.20950893" lon="-2.14650968">
        <ele>1145.0000</ele>
        <time>2018-10-12T10:45:19Z</time>
      </trkpt>
      <trkpt lat="38.20943660" lon="-2.14669282">
        <ele>1145.0000</ele>
        <time>2018-10-12T10:45:21Z</time>
      </trkpt>
      <trkpt lat="38.20922948" lon="-2.14733772">
        <ele>1144.0000</ele>
        <time>2018-10-12T10:45:28Z</time>
      </trkpt>
      <trkpt lat="38.20920090" lon="-2.14743143">
        <ele>1144.0000</ele>
        <time>2018-10-12T10:45:29Z</time>
      </trkpt>
      <trkpt lat="38.20900853" lon="-2.14811976">
        <ele>1143.0000</ele>
        <time>2018-10-12T10:45:36Z</time>
      </trkpt>
      <trkpt lat="38.20894148" lon="-2.14842117">
        <ele>1143.0000</ele>
        <time>2018-10-12T10:45:39Z</time>
      </trkpt>
      <trkpt lat="38.20890066" lon="-2.14872141">
        <ele>1142.0000</ele>
        <time>2018-10-12T10:45:42Z</time>
      </trkpt>
      <trkpt lat="38.20888968" lon="-2.14881495">
        <ele>1142.0000</ele>
        <time>2018-10-12T10:45:43Z</time>
      </trkpt>
      <trkpt lat="38.20878901" lon="-2.14957846">
        <ele>1140.0000</ele>
        <time>2018-10-12T10:45:52Z</time>
      </trkpt>
      <trkpt lat="38.20876395" lon="-2.14976345">
        <ele>1140.0000</ele>
        <time>2018-10-12T10:45:54Z</time>
      </trkpt>
      <trkpt lat="38.20875079" lon="-2.14985975">
        <ele>1140.0000</ele>
        <time>2018-10-12T10:45:55Z</time>
      </trkpt>
      <trkpt lat="38.20873612" lon="-2.14995807">
        <ele>1139.0000</ele>
        <time>2018-10-12T10:45:56Z</time>
      </trkpt>
      <trkpt lat="38.20871089" lon="-2.15015706">
        <ele>1138.0000</ele>
        <time>2018-10-12T10:45:58Z</time>
      </trkpt>
      <trkpt lat="38.20867158" lon="-2.15052989">
        <ele>1137.0000</ele>
        <time>2018-10-12T10:46:02Z</time>
      </trkpt>
      <trkpt lat="38.20864778" lon="-2.15068269">
        <ele>1137.0000</ele>
        <time>2018-10-12T10:46:04Z</time>
      </trkpt>
      <trkpt lat="38.20862523" lon="-2.15083038">
        <ele>1137.0000</ele>
        <time>2018-10-12T10:46:06Z</time>
      </trkpt>
      <trkpt lat="38.20860042" lon="-2.15098796">
        <ele>1137.0000</ele>
        <time>2018-10-12T10:46:08Z</time>
      </trkpt>
      <trkpt lat="38.20856940" lon="-2.15113573">
        <ele>1137.0000</ele>
        <time>2018-10-12T10:46:10Z</time>
      </trkpt>
      <trkpt lat="38.20853990" lon="-2.15126884">
        <ele>1138.0000</ele>
        <time>2018-10-12T10:46:12Z</time>
      </trkpt>
      <trkpt lat="38.20847880" lon="-2.15164787">
        <ele>1139.0000</ele>
        <time>2018-10-12T10:46:18Z</time>
      </trkpt>
      <trkpt lat="38.20848475" lon="-2.15171040">
        <ele>1139.0000</ele>
        <time>2018-10-12T10:46:19Z</time>
      </trkpt>
      <trkpt lat="38.20853755" lon="-2.15187854">
        <ele>1139.0000</ele>
        <time>2018-10-12T10:46:22Z</time>
      </trkpt>
      <trkpt lat="38.20857963" lon="-2.15198750">
        <ele>1140.0000</ele>
        <time>2018-10-12T10:46:24Z</time>
      </trkpt>
      <trkpt lat="38.20865431" lon="-2.15220375">
        <ele>1140.0000</ele>
        <time>2018-10-12T10:46:28Z</time>
      </trkpt>
      <trkpt lat="38.20869580" lon="-2.15235823">
        <ele>1141.0000</ele>
        <time>2018-10-12T10:46:31Z</time>
      </trkpt>
      <trkpt lat="38.20870201" lon="-2.15241003">
        <ele>1141.0000</ele>
        <time>2018-10-12T10:46:32Z</time>
      </trkpt>
      <trkpt lat="38.20869329" lon="-2.15250810">
        <ele>1142.0000</ele>
        <time>2018-10-12T10:46:34Z</time>
      </trkpt>
      <trkpt lat="38.20865507" lon="-2.15259008">
        <ele>1142.0000</ele>
        <time>2018-10-12T10:46:36Z</time>
      </trkpt>
      <trkpt lat="38.20859656" lon="-2.15265420">
        <ele>1143.0000</ele>
        <time>2018-10-12T10:46:38Z</time>
      </trkpt>
      <trkpt lat="38.20856329" lon="-2.15267859">
        <ele>1144.0000</ele>
        <time>2018-10-12T10:46:39Z</time>
      </trkpt>
      <trkpt lat="38.20852699" lon="-2.15270122">
        <ele>1144.0000</ele>
        <time>2018-10-12T10:46:40Z</time>
      </trkpt>
      <trkpt lat="38.20845399" lon="-2.15275134">
        <ele>1145.0000</ele>
        <time>2018-10-12T10:46:42Z</time>
      </trkpt>
      <trkpt lat="38.20838324" lon="-2.15280063">
        <ele>1146.0000</ele>
        <time>2018-10-12T10:46:44Z</time>
      </trkpt>
      <trkpt lat="38.20835039" lon="-2.15282695">
        <ele>1146.0000</ele>
        <time>2018-10-12T10:46:45Z</time>
      </trkpt>
      <trkpt lat="38.20814318" lon="-2.15296978">
        <ele>1148.0000</ele>
        <time>2018-10-12T10:46:51Z</time>
      </trkpt>
      <trkpt lat="38.20810798" lon="-2.15299593">
        <ele>1148.0000</ele>
        <time>2018-10-12T10:46:52Z</time>
      </trkpt>
      <trkpt lat="38.20807420" lon="-2.15302367">
        <ele>1149.0000</ele>
        <time>2018-10-12T10:46:53Z</time>
      </trkpt>
      <trkpt lat="38.20793448" lon="-2.15312266">
        <ele>1150.0000</ele>
        <time>2018-10-12T10:46:57Z</time>
      </trkpt>
      <trkpt lat="38.20764228" lon="-2.15341553">
        <ele>1150.0000</ele>
        <time>2018-10-12T10:47:06Z</time>
      </trkpt>
      <trkpt lat="38.20753139" lon="-2.15349784">
        <ele>1150.0000</ele>
        <time>2018-10-12T10:47:09Z</time>
      </trkpt>
      <trkpt lat="38.20740885" lon="-2.15363052">
        <ele>1150.0000</ele>
        <time>2018-10-12T10:47:13Z</time>
      </trkpt>
      <trkpt lat="38.20732260" lon="-2.15368970">
        <ele>1150.0000</ele>
        <time>2018-10-12T10:47:16Z</time>
      </trkpt>
      <trkpt lat="38.20724573" lon="-2.15374192">
        <ele>1150.0000</ele>
        <time>2018-10-12T10:47:19Z</time>
      </trkpt>
      <trkpt lat="38.20717222" lon="-2.15380704">
        <ele>1150.0000</ele>
        <time>2018-10-12T10:47:22Z</time>
      </trkpt>
      <trkpt lat="38.20713409" lon="-2.15386245">
        <ele>1150.0000</ele>
        <time>2018-10-12T10:47:24Z</time>
      </trkpt>
      <trkpt lat="38.20710048" lon="-2.15393872">
        <ele>1150.0000</ele>
        <time>2018-10-12T10:47:26Z</time>
      </trkpt>
      <trkpt lat="38.20707692" lon="-2.15401533">
        <ele>1150.0000</ele>
        <time>2018-10-12T10:47:28Z</time>
      </trkpt>
      <trkpt lat="38.20684206" lon="-2.15418297">
        <ele>1150.0000</ele>
        <time>2018-10-12T10:47:35Z</time>
      </trkpt>
      <trkpt lat="38.20676277" lon="-2.15421793">
        <ele>1150.0000</ele>
        <time>2018-10-12T10:47:37Z</time>
      </trkpt>
      <trkpt lat="38.20656152" lon="-2.15431415">
        <ele>1150.0000</ele>
        <time>2018-10-12T10:47:42Z</time>
      </trkpt>
      <trkpt lat="38.20632599" lon="-2.15444600">
        <ele>1150.0000</ele>
        <time>2018-10-12T10:47:48Z</time>
      </trkpt>
      <trkpt lat="38.20621501" lon="-2.15456116">
        <ele>1150.0000</ele>
        <time>2018-10-12T10:47:56Z</time>
      </trkpt>
      <trkpt lat="38.20616732" lon="-2.15460089">
        <ele>1151.0000</ele>
        <time>2018-10-12T10:48:23Z</time>
      </trkpt>
      <trkpt lat="38.20605584" lon="-2.15463627">
        <ele>1151.0000</ele>
        <time>2018-10-12T10:48:26Z</time>
      </trkpt>
      <trkpt lat="38.20601569" lon="-2.15465454">
        <ele>1151.0000</ele>
        <time>2018-10-12T10:48:27Z</time>
      </trkpt>
      <trkpt lat="38.20586364" lon="-2.15471992">
        <ele>1151.0000</ele>
        <time>2018-10-12T10:48:31Z</time>
      </trkpt>
      <trkpt lat="38.20577572" lon="-2.15476644">
        <ele>1151.0000</ele>
        <time>2018-10-12T10:48:33Z</time>
      </trkpt>
      <trkpt lat="38.20569483" lon="-2.15480918">
        <ele>1151.0000</ele>
        <time>2018-10-12T10:48:35Z</time>
      </trkpt>
      <trkpt lat="38.20554622" lon="-2.15484447">
        <ele>1151.0000</ele>
        <time>2018-10-12T10:48:39Z</time>
      </trkpt>
      <trkpt lat="38.20543072" lon="-2.15483140">
        <ele>1151.0000</ele>
        <time>2018-10-12T10:48:42Z</time>
      </trkpt>
      <trkpt lat="38.20487106" lon="-2.15491354">
        <ele>1152.0000</ele>
        <time>2018-10-12T10:48:54Z</time>
      </trkpt>
      <trkpt lat="38.20460979" lon="-2.15495545">
        <ele>1152.0000</ele>
        <time>2018-10-12T10:49:00Z</time>
      </trkpt>
      <trkpt lat="38.20450837" lon="-2.15495721">
        <ele>1152.0000</ele>
        <time>2018-10-12T10:49:06Z</time>
      </trkpt>
      <trkpt lat="38.20447149" lon="-2.15497598">
        <ele>1152.0000</ele>
        <time>2018-10-12T10:49:09Z</time>
      </trkpt>
      <trkpt lat="38.20441726" lon="-2.15505360">
        <ele>1152.0000</ele>
        <time>2018-10-12T10:49:12Z</time>
      </trkpt>
      <trkpt lat="38.20434425" lon="-2.15521235">
        <ele>1152.0000</ele>
        <time>2018-10-12T10:49:16Z</time>
      </trkpt>
      <trkpt lat="38.20430243" lon="-2.15529123">
        <ele>1152.0000</ele>
        <time>2018-10-12T10:49:18Z</time>
      </trkpt>
      <trkpt lat="38.20422045" lon="-2.15544797">
        <ele>1152.0000</ele>
        <time>2018-10-12T10:49:22Z</time>
      </trkpt>
      <trkpt lat="38.20413974" lon="-2.15561066">
        <ele>1153.0000</ele>
        <time>2018-10-12T10:49:26Z</time>
      </trkpt>
      <trkpt lat="38.20405206" lon="-2.15577403">
        <ele>1154.0000</ele>
        <time>2018-10-12T10:49:30Z</time>
      </trkpt>
      <trkpt lat="38.20393681" lon="-2.15598726">
        <ele>1155.0000</ele>
        <time>2018-10-12T10:49:35Z</time>
      </trkpt>
      <trkpt lat="38.20391359" lon="-2.15603227">
        <ele>1155.0000</ele>
        <time>2018-10-12T10:49:36Z</time>
      </trkpt>
      <trkpt lat="38.20382047" lon="-2.15621475">
        <ele>1156.0000</ele>
        <time>2018-10-12T10:49:40Z</time>
      </trkpt>
      <trkpt lat="38.20379616" lon="-2.15626068">
        <ele>1156.0000</ele>
        <time>2018-10-12T10:49:41Z</time>
      </trkpt>
      <trkpt lat="38.20359751" lon="-2.15663602">
        <ele>1157.0000</ele>
        <time>2018-10-12T10:49:49Z</time>
      </trkpt>
      <trkpt lat="38.20326911" lon="-2.15725519">
        <ele>1158.0000</ele>
        <time>2018-10-12T10:50:01Z</time>
      </trkpt>
      <trkpt lat="38.20324053" lon="-2.15731009">
        <ele>1158.0000</ele>
        <time>2018-10-12T10:50:02Z</time>
      </trkpt>
      <trkpt lat="38.20296116" lon="-2.15785282">
        <ele>1159.0000</ele>
        <time>2018-10-12T10:50:12Z</time>
      </trkpt>
      <trkpt lat="38.20291296" lon="-2.15796103">
        <ele>1160.0000</ele>
        <time>2018-10-12T10:50:14Z</time>
      </trkpt>
      <trkpt lat="38.20278354" lon="-2.15835431">
        <ele>1161.0000</ele>
        <time>2018-10-12T10:50:21Z</time>
      </trkpt>
      <trkpt lat="38.20274323" lon="-2.15869981">
        <ele>1162.0000</ele>
        <time>2018-10-12T10:50:27Z</time>
      </trkpt>
      <trkpt lat="38.20276125" lon="-2.15897290">
        <ele>1163.0000</ele>
        <time>2018-10-12T10:50:32Z</time>
      </trkpt>
      <trkpt lat="38.20281020" lon="-2.15923332">
        <ele>1164.0000</ele>
        <time>2018-10-12T10:50:37Z</time>
      </trkpt>
      <trkpt lat="38.20285387" lon="-2.15938470">
        <ele>1165.0000</ele>
        <time>2018-10-12T10:50:40Z</time>
      </trkpt>
      <trkpt lat="38.20286946" lon="-2.15943499">
        <ele>1165.0000</ele>
        <time>2018-10-12T10:50:41Z</time>
      </trkpt>
      <trkpt lat="38.20291548" lon="-2.15958394">
        <ele>1166.0000</ele>
        <time>2018-10-12T10:50:44Z</time>
      </trkpt>
      <trkpt lat="38.20298999" lon="-2.15984453">
        <ele>1167.0000</ele>
        <time>2018-10-12T10:50:49Z</time>
      </trkpt>
      <trkpt lat="38.20304414" lon="-2.16011761">
        <ele>1168.0000</ele>
        <time>2018-10-12T10:50:54Z</time>
      </trkpt>
      <trkpt lat="38.20307456" lon="-2.16045666">
        <ele>1170.0000</ele>
        <time>2018-10-12T10:51:00Z</time>
      </trkpt>
      <trkpt lat="38.20305788" lon="-2.16081222">
        <ele>1171.0000</ele>
        <time>2018-10-12T10:51:06Z</time>
      </trkpt>
      <trkpt lat="38.20286996" lon="-2.16146416">
        <ele>1172.0000</ele>
        <time>2018-10-12T10:51:16Z</time>
      </trkpt>
      <trkpt lat="38.20273912" lon="-2.16184906">
        <ele>1171.0000</ele>
        <time>2018-10-12T10:51:21Z</time>
      </trkpt>
      <trkpt lat="38.20265170" lon="-2.16209842">
        <ele>1171.0000</ele>
        <time>2018-10-12T10:51:24Z</time>
      </trkpt>
      <trkpt lat="38.20252890" lon="-2.16244535">
        <ele>1170.0000</ele>
        <time>2018-10-12T10:51:28Z</time>
      </trkpt>
      <trkpt lat="38.20233654" lon="-2.16298288">
        <ele>1169.0000</ele>
        <time>2018-10-12T10:51:34Z</time>
      </trkpt>
      <trkpt lat="38.20224484" lon="-2.16324565">
        <ele>1168.0000</ele>
        <time>2018-10-12T10:51:37Z</time>
      </trkpt>
      <trkpt lat="38.20221466" lon="-2.16333216">
        <ele>1168.0000</ele>
        <time>2018-10-12T10:51:38Z</time>
      </trkpt>
      <trkpt lat="38.20209405" lon="-2.16367741">
        <ele>1168.0000</ele>
        <time>2018-10-12T10:51:42Z</time>
      </trkpt>
      <trkpt lat="38.20185751" lon="-2.16435718">
        <ele>1168.0000</ele>
        <time>2018-10-12T10:51:50Z</time>
      </trkpt>
      <trkpt lat="38.20162223" lon="-2.16503519">
        <ele>1169.0000</ele>
        <time>2018-10-12T10:51:58Z</time>
      </trkpt>
      <trkpt lat="38.20137128" lon="-2.16574841">
        <ele>1169.0000</ele>
        <time>2018-10-12T10:52:06Z</time>
      </trkpt>
      <trkpt lat="38.20112954" lon="-2.16644151">
        <ele>1169.0000</ele>
        <time>2018-10-12T10:52:13Z</time>
      </trkpt>
      <trkpt lat="38.20088136" lon="-2.16715103">
        <ele>1168.0000</ele>
        <time>2018-10-12T10:52:20Z</time>
      </trkpt>
      <trkpt lat="38.20063392" lon="-2.16785570">
        <ele>1167.0000</ele>
        <time>2018-10-12T10:52:27Z</time>
      </trkpt>
      <trkpt lat="38.20048104" lon="-2.16828226">
        <ele>1167.0000</ele>
        <time>2018-10-12T10:52:31Z</time>
      </trkpt>
      <trkpt lat="38.20033008" lon="-2.16871158">
        <ele>1167.0000</ele>
        <time>2018-10-12T10:52:35Z</time>
      </trkpt>
      <trkpt lat="38.20029445" lon="-2.16881736">
        <ele>1167.0000</ele>
        <time>2018-10-12T10:52:36Z</time>
      </trkpt>
      <trkpt lat="38.20015221" lon="-2.16922690">
        <ele>1166.0000</ele>
        <time>2018-10-12T10:52:40Z</time>
      </trkpt>
      <trkpt lat="38.20004543" lon="-2.16952680">
        <ele>1166.0000</ele>
        <time>2018-10-12T10:52:43Z</time>
      </trkpt>
      <trkpt lat="38.19994024" lon="-2.16982930">
        <ele>1166.0000</ele>
        <time>2018-10-12T10:52:46Z</time>
      </trkpt>
      <trkpt lat="38.19972180" lon="-2.17046507">
        <ele>1165.0000</ele>
        <time>2018-10-12T10:52:52Z</time>
      </trkpt>
      <trkpt lat="38.19964536" lon="-2.17069029">
        <ele>1165.0000</ele>
        <time>2018-10-12T10:52:54Z</time>
      </trkpt>
      <trkpt lat="38.19941544" lon="-2.17136126">
        <ele>1164.0000</ele>
        <time>2018-10-12T10:53:00Z</time>
      </trkpt>
      <trkpt lat="38.19918612" lon="-2.17202176">
        <ele>1164.0000</ele>
        <time>2018-10-12T10:53:06Z</time>
      </trkpt>
      <trkpt lat="38.19896047" lon="-2.17265887">
        <ele>1164.0000</ele>
        <time>2018-10-12T10:53:12Z</time>
      </trkpt>
      <trkpt lat="38.19888881" lon="-2.17286372">
        <ele>1164.0000</ele>
        <time>2018-10-12T10:53:14Z</time>
      </trkpt>
      <trkpt lat="38.19878538" lon="-2.17315935">
        <ele>1164.0000</ele>
        <time>2018-10-12T10:53:17Z</time>
      </trkpt>
      <trkpt lat="38.19858572" lon="-2.17373007">
        <ele>1164.0000</ele>
        <time>2018-10-12T10:53:23Z</time>
      </trkpt>
      <trkpt lat="38.19848380" lon="-2.17401414">
        <ele>1164.0000</ele>
        <time>2018-10-12T10:53:26Z</time>
      </trkpt>
      <trkpt lat="38.19835312" lon="-2.17439602">
        <ele>1164.0000</ele>
        <time>2018-10-12T10:53:30Z</time>
      </trkpt>
      <trkpt lat="38.19810762" lon="-2.17510211">
        <ele>1164.0000</ele>
        <time>2018-10-12T10:53:37Z</time>
      </trkpt>
      <trkpt lat="38.19799614" lon="-2.17541366">
        <ele>1164.0000</ele>
        <time>2018-10-12T10:53:40Z</time>
      </trkpt>
      <trkpt lat="38.19795909" lon="-2.17551768">
        <ele>1164.0000</ele>
        <time>2018-10-12T10:53:41Z</time>
      </trkpt>
      <trkpt lat="38.19774108" lon="-2.17615169">
        <ele>1163.0000</ele>
        <time>2018-10-12T10:53:47Z</time>
      </trkpt>
      <trkpt lat="38.19766723" lon="-2.17636283">
        <ele>1162.0000</ele>
        <time>2018-10-12T10:53:49Z</time>
      </trkpt>
      <trkpt lat="38.19744310" lon="-2.17700899">
        <ele>1161.0000</ele>
        <time>2018-10-12T10:53:55Z</time>
      </trkpt>
      <trkpt lat="38.19736674" lon="-2.17722793">
        <ele>1161.0000</ele>
        <time>2018-10-12T10:53:57Z</time>
      </trkpt>
      <trkpt lat="38.19713833" lon="-2.17787912">
        <ele>1161.0000</ele>
        <time>2018-10-12T10:54:03Z</time>
      </trkpt>
      <trkpt lat="38.19695527" lon="-2.17840751">
        <ele>1160.0000</ele>
        <time>2018-10-12T10:54:08Z</time>
      </trkpt>
      <trkpt lat="38.19680700" lon="-2.17882359">
        <ele>1160.0000</ele>
        <time>2018-10-12T10:54:12Z</time>
      </trkpt>
      <trkpt lat="38.19655571" lon="-2.17954871">
        <ele>1160.0000</ele>
        <time>2018-10-12T10:54:19Z</time>
      </trkpt>
      <trkpt lat="38.19632361" lon="-2.18021867">
        <ele>1159.0000</ele>
        <time>2018-10-12T10:54:25Z</time>
      </trkpt>
      <trkpt lat="38.19624180" lon="-2.18045152">
        <ele>1159.0000</ele>
        <time>2018-10-12T10:54:27Z</time>
      </trkpt>
      <trkpt lat="38.19603385" lon="-2.18105091">
        <ele>1158.0000</ele>
        <time>2018-10-12T10:54:32Z</time>
      </trkpt>
      <trkpt lat="38.19599261" lon="-2.18117253">
        <ele>1158.0000</ele>
        <time>2018-10-12T10:54:33Z</time>
      </trkpt>
      <trkpt lat="38.19595120" lon="-2.18129407">
        <ele>1158.0000</ele>
        <time>2018-10-12T10:54:34Z</time>
      </trkpt>
      <trkpt lat="38.19586705" lon="-2.18153857">
        <ele>1157.0000</ele>
        <time>2018-10-12T10:54:36Z</time>
      </trkpt>
      <trkpt lat="38.19570318" lon="-2.18202338">
        <ele>1156.0000</ele>
        <time>2018-10-12T10:54:40Z</time>
      </trkpt>
      <trkpt lat="38.19558299" lon="-2.18236964">
        <ele>1155.0000</ele>
        <time>2018-10-12T10:54:43Z</time>
      </trkpt>
      <trkpt lat="38.19528442" lon="-2.18297875">
        <ele>1155.0000</ele>
        <time>2018-10-12T10:54:49Z</time>
      </trkpt>
      <trkpt lat="38.19516364" lon="-2.18315158">
        <ele>1155.0000</ele>
        <time>2018-10-12T10:54:51Z</time>
      </trkpt>
      <trkpt lat="38.19496071" lon="-2.18336658">
        <ele>1155.0000</ele>
        <time>2018-10-12T10:54:54Z</time>
      </trkpt>
      <trkpt lat="38.19467791" lon="-2.18353296">
        <ele>1156.0000</ele>
        <time>2018-10-12T10:54:58Z</time>
      </trkpt>
      <trkpt lat="38.19455587" lon="-2.18361846">
        <ele>1156.0000</ele>
        <time>2018-10-12T10:55:00Z</time>
      </trkpt>
      <trkpt lat="38.19450373" lon="-2.18366732">
        <ele>1156.0000</ele>
        <time>2018-10-12T10:55:01Z</time>
      </trkpt>
      <trkpt lat="38.19441949" lon="-2.18377520">
        <ele>1157.0000</ele>
        <time>2018-10-12T10:55:03Z</time>
      </trkpt>
      <trkpt lat="38.19435378" lon="-2.18389271">
        <ele>1158.0000</ele>
        <time>2018-10-12T10:55:05Z</time>
      </trkpt>
      <trkpt lat="38.19432813" lon="-2.18395222">
        <ele>1158.0000</ele>
        <time>2018-10-12T10:55:06Z</time>
      </trkpt>
      <trkpt lat="38.19428505" lon="-2.18407007">
        <ele>1159.0000</ele>
        <time>2018-10-12T10:55:08Z</time>
      </trkpt>
      <trkpt lat="38.19426510" lon="-2.18412674">
        <ele>1159.0000</ele>
        <time>2018-10-12T10:55:09Z</time>
      </trkpt>
      <trkpt lat="38.19421414" lon="-2.18429680">
        <ele>1160.0000</ele>
        <time>2018-10-12T10:55:12Z</time>
      </trkpt>
      <trkpt lat="38.19417214" lon="-2.18446712">
        <ele>1161.0000</ele>
        <time>2018-10-12T10:55:15Z</time>
      </trkpt>
      <trkpt lat="38.19414096" lon="-2.18463510">
        <ele>1162.0000</ele>
        <time>2018-10-12T10:55:18Z</time>
      </trkpt>
      <trkpt lat="38.19410811" lon="-2.18490399">
        <ele>1164.0000</ele>
        <time>2018-10-12T10:55:22Z</time>
      </trkpt>
      <trkpt lat="38.19403217" lon="-2.18564436">
        <ele>1164.0000</ele>
        <time>2018-10-12T10:55:31Z</time>
      </trkpt>
      <trkpt lat="38.19397073" lon="-2.18605281">
        <ele>1163.0000</ele>
        <time>2018-10-12T10:55:35Z</time>
      </trkpt>
      <trkpt lat="38.19385254" lon="-2.18649169">
        <ele>1161.0000</ele>
        <time>2018-10-12T10:55:39Z</time>
      </trkpt>
      <trkpt lat="38.19372413" lon="-2.18683049">
        <ele>1160.0000</ele>
        <time>2018-10-12T10:55:42Z</time>
      </trkpt>
      <trkpt lat="38.19363554" lon="-2.18706183">
        <ele>1159.0000</ele>
        <time>2018-10-12T10:55:44Z</time>
      </trkpt>
      <trkpt lat="38.19359145" lon="-2.18717934">
        <ele>1158.0000</ele>
        <time>2018-10-12T10:55:45Z</time>
      </trkpt>
      <trkpt lat="38.19350117" lon="-2.18741864">
        <ele>1157.0000</ele>
        <time>2018-10-12T10:55:47Z</time>
      </trkpt>
      <trkpt lat="38.19335550" lon="-2.18779633">
        <ele>1156.0000</ele>
        <time>2018-10-12T10:55:50Z</time>
      </trkpt>
      <trkpt lat="38.19320571" lon="-2.18820000">
        <ele>1154.0000</ele>
        <time>2018-10-12T10:55:53Z</time>
      </trkpt>
      <trkpt lat="38.19305911" lon="-2.18860980">
        <ele>1153.0000</ele>
        <time>2018-10-12T10:55:56Z</time>
      </trkpt>
      <trkpt lat="38.19297647" lon="-2.18889914">
        <ele>1152.0000</ele>
        <time>2018-10-12T10:55:58Z</time>
      </trkpt>
      <trkpt lat="38.19291947" lon="-2.18919854">
        <ele>1150.0000</ele>
        <time>2018-10-12T10:56:00Z</time>
      </trkpt>
      <trkpt lat="38.19288477" lon="-2.18951789">
        <ele>1149.0000</ele>
        <time>2018-10-12T10:56:02Z</time>
      </trkpt>
      <trkpt lat="38.19286440" lon="-2.18985292">
        <ele>1148.0000</ele>
        <time>2018-10-12T10:56:04Z</time>
      </trkpt>
      <trkpt lat="38.19284839" lon="-2.19018610">
        <ele>1146.0000</ele>
        <time>2018-10-12T10:56:06Z</time>
      </trkpt>
      <trkpt lat="38.19284009" lon="-2.19035365">
        <ele>1144.0000</ele>
        <time>2018-10-12T10:56:07Z</time>
      </trkpt>
      <trkpt lat="38.19283154" lon="-2.19052037">
        <ele>1143.0000</ele>
        <time>2018-10-12T10:56:08Z</time>
      </trkpt>
      <trkpt lat="38.19282283" lon="-2.19068641">
        <ele>1142.0000</ele>
        <time>2018-10-12T10:56:09Z</time>
      </trkpt>
      <trkpt lat="38.19281394" lon="-2.19085304">
        <ele>1140.0000</ele>
        <time>2018-10-12T10:56:10Z</time>
      </trkpt>
      <trkpt lat="38.19280430" lon="-2.19101867">
        <ele>1138.0000</ele>
        <time>2018-10-12T10:56:11Z</time>
      </trkpt>
      <trkpt lat="38.19279483" lon="-2.19118379">
        <ele>1137.0000</ele>
        <time>2018-10-12T10:56:12Z</time>
      </trkpt>
      <trkpt lat="38.19278595" lon="-2.19135034">
        <ele>1135.0000</ele>
        <time>2018-10-12T10:56:13Z</time>
      </trkpt>
      <trkpt lat="38.19277622" lon="-2.19151865">
        <ele>1134.0000</ele>
        <time>2018-10-12T10:56:14Z</time>
      </trkpt>
      <trkpt lat="38.19276583" lon="-2.19168964">
        <ele>1133.0000</ele>
        <time>2018-10-12T10:56:15Z</time>
      </trkpt>
      <trkpt lat="38.19274663" lon="-2.19203934">
        <ele>1131.0000</ele>
        <time>2018-10-12T10:56:17Z</time>
      </trkpt>
      <trkpt lat="38.19273649" lon="-2.19221829">
        <ele>1130.0000</ele>
        <time>2018-10-12T10:56:18Z</time>
      </trkpt>
      <trkpt lat="38.19271101" lon="-2.19258039">
        <ele>1128.0000</ele>
        <time>2018-10-12T10:56:20Z</time>
      </trkpt>
      <trkpt lat="38.19269416" lon="-2.19276420">
        <ele>1126.0000</ele>
        <time>2018-10-12T10:56:21Z</time>
      </trkpt>
      <trkpt lat="38.19264706" lon="-2.19313653">
        <ele>1125.0000</ele>
        <time>2018-10-12T10:56:23Z</time>
      </trkpt>
      <trkpt lat="38.19261831" lon="-2.19332395">
        <ele>1123.0000</ele>
        <time>2018-10-12T10:56:24Z</time>
      </trkpt>
      <trkpt lat="38.19258579" lon="-2.19351153">
        <ele>1122.0000</ele>
        <time>2018-10-12T10:56:25Z</time>
      </trkpt>
      <trkpt lat="38.19255108" lon="-2.19369912">
        <ele>1121.0000</ele>
        <time>2018-10-12T10:56:26Z</time>
      </trkpt>
      <trkpt lat="38.19248193" lon="-2.19406952">
        <ele>1119.0000</ele>
        <time>2018-10-12T10:56:28Z</time>
      </trkpt>
      <trkpt lat="38.19241144" lon="-2.19443572">
        <ele>1117.0000</ele>
        <time>2018-10-12T10:56:30Z</time>
      </trkpt>
      <trkpt lat="38.19237733" lon="-2.19461644">
        <ele>1115.0000</ele>
        <time>2018-10-12T10:56:31Z</time>
      </trkpt>
      <trkpt lat="38.19234447" lon="-2.19479304">
        <ele>1114.0000</ele>
        <time>2018-10-12T10:56:32Z</time>
      </trkpt>
      <trkpt lat="38.19228161" lon="-2.19513771">
        <ele>1112.0000</ele>
        <time>2018-10-12T10:56:34Z</time>
      </trkpt>
      <trkpt lat="38.19225311" lon="-2.19530459">
        <ele>1111.0000</ele>
        <time>2018-10-12T10:56:35Z</time>
      </trkpt>
      <trkpt lat="38.19220265" lon="-2.19561967">
        <ele>1109.0000</ele>
        <time>2018-10-12T10:56:37Z</time>
      </trkpt>
      <trkpt lat="38.19214791" lon="-2.19590842">
        <ele>1108.0000</ele>
        <time>2018-10-12T10:56:39Z</time>
      </trkpt>
      <trkpt lat="38.19210978" lon="-2.19603926">
        <ele>1106.0000</ele>
        <time>2018-10-12T10:56:40Z</time>
      </trkpt>
      <trkpt lat="38.19199210" lon="-2.19627329">
        <ele>1105.0000</ele>
        <time>2018-10-12T10:56:42Z</time>
      </trkpt>
      <trkpt lat="38.19160426" lon="-2.19659674">
        <ele>1104.0000</ele>
        <time>2018-10-12T10:56:46Z</time>
      </trkpt>
      <trkpt lat="38.19128701" lon="-2.19679607">
        <ele>1104.0000</ele>
        <time>2018-10-12T10:56:49Z</time>
      </trkpt>
      <trkpt lat="38.19118861" lon="-2.19686337">
        <ele>1103.0000</ele>
        <time>2018-10-12T10:56:50Z</time>
      </trkpt>
      <trkpt lat="38.19109423" lon="-2.19693604">
        <ele>1102.0000</ele>
        <time>2018-10-12T10:56:51Z</time>
      </trkpt>
      <trkpt lat="38.19100756" lon="-2.19702313">
        <ele>1100.0000</ele>
        <time>2018-10-12T10:56:52Z</time>
      </trkpt>
      <trkpt lat="38.19087747" lon="-2.19724860">
        <ele>1098.0000</ele>
        <time>2018-10-12T10:56:54Z</time>
      </trkpt>
      <trkpt lat="38.19079474" lon="-2.19751129">
        <ele>1097.0000</ele>
        <time>2018-10-12T10:56:56Z</time>
      </trkpt>
      <trkpt lat="38.19076356" lon="-2.19764892">
        <ele>1096.0000</ele>
        <time>2018-10-12T10:56:57Z</time>
      </trkpt>
      <trkpt lat="38.19073632" lon="-2.19778941">
        <ele>1095.0000</ele>
        <time>2018-10-12T10:56:58Z</time>
      </trkpt>
      <trkpt lat="38.19070304" lon="-2.19808068">
        <ele>1094.0000</ele>
        <time>2018-10-12T10:57:00Z</time>
      </trkpt>
      <trkpt lat="38.19069407" lon="-2.19838242">
        <ele>1093.0000</ele>
        <time>2018-10-12T10:57:02Z</time>
      </trkpt>
      <trkpt lat="38.19069986" lon="-2.19853590">
        <ele>1092.0000</ele>
        <time>2018-10-12T10:57:03Z</time>
      </trkpt>
      <trkpt lat="38.19072442" lon="-2.19883639">
        <ele>1091.0000</ele>
        <time>2018-10-12T10:57:05Z</time>
      </trkpt>
      <trkpt lat="38.19072752" lon="-2.19913034">
        <ele>1090.0000</ele>
        <time>2018-10-12T10:57:07Z</time>
      </trkpt>
      <trkpt lat="38.19067345" lon="-2.19940552">
        <ele>1089.0000</ele>
        <time>2018-10-12T10:57:09Z</time>
      </trkpt>
      <trkpt lat="38.19055074" lon="-2.19963384">
        <ele>1087.0000</ele>
        <time>2018-10-12T10:57:11Z</time>
      </trkpt>
      <trkpt lat="38.19036500" lon="-2.19978480">
        <ele>1086.0000</ele>
        <time>2018-10-12T10:57:13Z</time>
      </trkpt>
      <trkpt lat="38.19014959" lon="-2.19987030">
        <ele>1085.0000</ele>
        <time>2018-10-12T10:57:15Z</time>
      </trkpt>
      <trkpt lat="38.19004381" lon="-2.19990835">
        <ele>1085.0000</ele>
        <time>2018-10-12T10:57:16Z</time>
      </trkpt>
      <trkpt lat="38.18994683" lon="-2.19995529">
        <ele>1084.0000</ele>
        <time>2018-10-12T10:57:17Z</time>
      </trkpt>
      <trkpt lat="38.18986536" lon="-2.20001874">
        <ele>1083.0000</ele>
        <time>2018-10-12T10:57:18Z</time>
      </trkpt>
      <trkpt lat="38.18976636" lon="-2.20020071">
        <ele>1082.0000</ele>
        <time>2018-10-12T10:57:20Z</time>
      </trkpt>
      <trkpt lat="38.18987189" lon="-2.20082659">
        <ele>1081.0000</ele>
        <time>2018-10-12T10:57:26Z</time>
      </trkpt>
      <trkpt lat="38.18985966" lon="-2.20093488">
        <ele>1081.0000</ele>
        <time>2018-10-12T10:57:27Z</time>
      </trkpt>
      <trkpt lat="38.18979327" lon="-2.20113999">
        <ele>1080.0000</ele>
        <time>2018-10-12T10:57:29Z</time>
      </trkpt>
      <trkpt lat="38.18972127" lon="-2.20134342">
        <ele>1080.0000</ele>
        <time>2018-10-12T10:57:31Z</time>
      </trkpt>
      <trkpt lat="38.18961080" lon="-2.20164709">
        <ele>1081.0000</ele>
        <time>2018-10-12T10:57:34Z</time>
      </trkpt>
      <trkpt lat="38.18949823" lon="-2.20195370">
        <ele>1081.0000</ele>
        <time>2018-10-12T10:57:37Z</time>
      </trkpt>
      <trkpt lat="38.18938055" lon="-2.20226249">
        <ele>1081.0000</ele>
        <time>2018-10-12T10:57:40Z</time>
      </trkpt>
      <trkpt lat="38.18930125" lon="-2.20247397">
        <ele>1081.0000</ele>
        <time>2018-10-12T10:57:42Z</time>
      </trkpt>
      <trkpt lat="38.18914015" lon="-2.20289826">
        <ele>1080.0000</ele>
        <time>2018-10-12T10:57:46Z</time>
      </trkpt>
      <trkpt lat="38.18903052" lon="-2.20321082">
        <ele>1080.0000</ele>
        <time>2018-10-12T10:57:49Z</time>
      </trkpt>
      <trkpt lat="38.18895609" lon="-2.20341718">
        <ele>1079.0000</ele>
        <time>2018-10-12T10:57:51Z</time>
      </trkpt>
      <trkpt lat="38.18891393" lon="-2.20351768">
        <ele>1079.0000</ele>
        <time>2018-10-12T10:57:52Z</time>
      </trkpt>
      <trkpt lat="38.18853917" lon="-2.20377098">
        <ele>1079.0000</ele>
        <time>2018-10-12T10:57:57Z</time>
      </trkpt>
      <trkpt lat="38.18845007" lon="-2.20380158">
        <ele>1079.0000</ele>
        <time>2018-10-12T10:57:58Z</time>
      </trkpt>
      <trkpt lat="38.18804766" lon="-2.20415311">
        <ele>1078.0000</ele>
        <time>2018-10-12T10:58:03Z</time>
      </trkpt>
      <trkpt lat="38.18793752" lon="-2.20461856">
        <ele>1077.0000</ele>
        <time>2018-10-12T10:58:07Z</time>
      </trkpt>
      <trkpt lat="38.18795051" lon="-2.20472744">
        <ele>1076.0000</ele>
        <time>2018-10-12T10:58:08Z</time>
      </trkpt>
      <trkpt lat="38.18795193" lon="-2.20482668">
        <ele>1075.0000</ele>
        <time>2018-10-12T10:58:09Z</time>
      </trkpt>
      <trkpt lat="38.18788320" lon="-2.20498954">
        <ele>1074.0000</ele>
        <time>2018-10-12T10:58:11Z</time>
      </trkpt>
      <trkpt lat="38.18755899" lon="-2.20506079">
        <ele>1073.0000</ele>
        <time>2018-10-12T10:58:15Z</time>
      </trkpt>
      <trkpt lat="38.18746293" lon="-2.20505777">
        <ele>1073.0000</ele>
        <time>2018-10-12T10:58:16Z</time>
      </trkpt>
      <trkpt lat="38.18681116" lon="-2.20498762">
        <ele>1071.0000</ele>
        <time>2018-10-12T10:58:22Z</time>
      </trkpt>
      <trkpt lat="38.18656884" lon="-2.20497672">
        <ele>1070.0000</ele>
        <time>2018-10-12T10:58:24Z</time>
      </trkpt>
      <trkpt lat="38.18644395" lon="-2.20497278">
        <ele>1068.0000</ele>
        <time>2018-10-12T10:58:25Z</time>
      </trkpt>
      <trkpt lat="38.18619785" lon="-2.20494093">
        <ele>1067.0000</ele>
        <time>2018-10-12T10:58:27Z</time>
      </trkpt>
      <trkpt lat="38.18607891" lon="-2.20492475">
        <ele>1065.0000</ele>
        <time>2018-10-12T10:58:28Z</time>
      </trkpt>
      <trkpt lat="38.18596358" lon="-2.20491855">
        <ele>1064.0000</ele>
        <time>2018-10-12T10:58:29Z</time>
      </trkpt>
      <trkpt lat="38.18585076" lon="-2.20493003">
        <ele>1062.0000</ele>
        <time>2018-10-12T10:58:30Z</time>
      </trkpt>
      <trkpt lat="38.18573903" lon="-2.20496322">
        <ele>1061.0000</ele>
        <time>2018-10-12T10:58:31Z</time>
      </trkpt>
      <trkpt lat="38.18563023" lon="-2.20501737">
        <ele>1060.0000</ele>
        <time>2018-10-12T10:58:32Z</time>
      </trkpt>
      <trkpt lat="38.18552370" lon="-2.20508493">
        <ele>1059.0000</ele>
        <time>2018-10-12T10:58:33Z</time>
      </trkpt>
      <trkpt lat="38.18530778" lon="-2.20522977">
        <ele>1057.0000</ele>
        <time>2018-10-12T10:58:35Z</time>
      </trkpt>
      <trkpt lat="38.18509882" lon="-2.20537394">
        <ele>1055.0000</ele>
        <time>2018-10-12T10:58:37Z</time>
      </trkpt>
      <trkpt lat="38.18500595" lon="-2.20545013">
        <ele>1055.0000</ele>
        <time>2018-10-12T10:58:38Z</time>
      </trkpt>
      <trkpt lat="38.18492271" lon="-2.20553831">
        <ele>1054.0000</ele>
        <time>2018-10-12T10:58:39Z</time>
      </trkpt>
      <trkpt lat="38.18479757" lon="-2.20576445">
        <ele>1052.0000</ele>
        <time>2018-10-12T10:58:41Z</time>
      </trkpt>
      <trkpt lat="38.18475491" lon="-2.20589454">
        <ele>1051.0000</ele>
        <time>2018-10-12T10:58:42Z</time>
      </trkpt>
      <trkpt lat="38.18471610" lon="-2.20602722">
        <ele>1050.0000</ele>
        <time>2018-10-12T10:58:43Z</time>
      </trkpt>
      <trkpt lat="38.18463396" lon="-2.20629259">
        <ele>1049.0000</ele>
        <time>2018-10-12T10:58:45Z</time>
      </trkpt>
      <trkpt lat="38.18454042" lon="-2.20656333">
        <ele>1048.0000</ele>
        <time>2018-10-12T10:58:47Z</time>
      </trkpt>
      <trkpt lat="38.18448736" lon="-2.20669954">
        <ele>1047.0000</ele>
        <time>2018-10-12T10:58:48Z</time>
      </trkpt>
      <trkpt lat="38.18435425" lon="-2.20696181">
        <ele>1045.0000</ele>
        <time>2018-10-12T10:58:50Z</time>
      </trkpt>
      <trkpt lat="38.18418226" lon="-2.20720530">
        <ele>1044.0000</ele>
        <time>2018-10-12T10:58:52Z</time>
      </trkpt>
      <trkpt lat="38.18408561" lon="-2.20731770">
        <ele>1044.0000</ele>
        <time>2018-10-12T10:58:53Z</time>
      </trkpt>
      <trkpt lat="38.18388579" lon="-2.20753119">
        <ele>1042.0000</ele>
        <time>2018-10-12T10:58:55Z</time>
      </trkpt>
      <trkpt lat="38.18378848" lon="-2.20763596">
        <ele>1040.0000</ele>
        <time>2018-10-12T10:58:56Z</time>
      </trkpt>
      <trkpt lat="38.18361078" lon="-2.20783009">
        <ele>1039.0000</ele>
        <time>2018-10-12T10:58:58Z</time>
      </trkpt>
      <trkpt lat="38.18353266" lon="-2.20791609">
        <ele>1037.0000</ele>
        <time>2018-10-12T10:58:59Z</time>
      </trkpt>
      <trkpt lat="38.18346527" lon="-2.20799773">
        <ele>1035.0000</ele>
        <time>2018-10-12T10:59:00Z</time>
      </trkpt>
      <trkpt lat="38.18341540" lon="-2.20807920">
        <ele>1033.0000</ele>
        <time>2018-10-12T10:59:01Z</time>
      </trkpt>
      <trkpt lat="38.18335966" lon="-2.20828380">
        <ele>1032.0000</ele>
        <time>2018-10-12T10:59:03Z</time>
      </trkpt>
      <trkpt lat="38.18336955" lon="-2.20851774">
        <ele>1032.0000</ele>
        <time>2018-10-12T10:59:05Z</time>
      </trkpt>
      <trkpt lat="38.18337701" lon="-2.20876593">
        <ele>1031.0000</ele>
        <time>2018-10-12T10:59:07Z</time>
      </trkpt>
      <trkpt lat="38.18331238" lon="-2.20914009">
        <ele>1031.0000</ele>
        <time>2018-10-12T10:59:10Z</time>
      </trkpt>
      <trkpt lat="38.18321230" lon="-2.20936222">
        <ele>1030.0000</ele>
        <time>2018-10-12T10:59:12Z</time>
      </trkpt>
      <trkpt lat="38.18309982" lon="-2.20957294">
        <ele>1029.0000</ele>
        <time>2018-10-12T10:59:14Z</time>
      </trkpt>
      <trkpt lat="38.18298658" lon="-2.20977477">
        <ele>1028.0000</ele>
        <time>2018-10-12T10:59:16Z</time>
      </trkpt>
      <trkpt lat="38.18282204" lon="-2.21007501">
        <ele>1027.0000</ele>
        <time>2018-10-12T10:59:19Z</time>
      </trkpt>
      <trkpt lat="38.18267150" lon="-2.21040115">
        <ele>1027.0000</ele>
        <time>2018-10-12T10:59:22Z</time>
      </trkpt>
      <trkpt lat="38.18259950" lon="-2.21065605">
        <ele>1027.0000</ele>
        <time>2018-10-12T10:59:24Z</time>
      </trkpt>
      <trkpt lat="38.18249490" lon="-2.21104958">
        <ele>1027.0000</ele>
        <time>2018-10-12T10:59:27Z</time>
      </trkpt>
      <trkpt lat="38.18229499" lon="-2.21134906">
        <ele>1025.0000</ele>
        <time>2018-10-12T10:59:30Z</time>
      </trkpt>
      <trkpt lat="38.18222039" lon="-2.21143363">
        <ele>1025.0000</ele>
        <time>2018-10-12T10:59:31Z</time>
      </trkpt>
      <trkpt lat="38.18214730" lon="-2.21151687">
        <ele>1024.0000</ele>
        <time>2018-10-12T10:59:32Z</time>
      </trkpt>
      <trkpt lat="38.18201461" lon="-2.21169121">
        <ele>1023.0000</ele>
        <time>2018-10-12T10:59:34Z</time>
      </trkpt>
      <trkpt lat="38.18180046" lon="-2.21205809">
        <ele>1022.0000</ele>
        <time>2018-10-12T10:59:38Z</time>
      </trkpt>
      <trkpt lat="38.18157339" lon="-2.21237610">
        <ele>1022.0000</ele>
        <time>2018-10-12T10:59:42Z</time>
      </trkpt>
      <trkpt lat="38.18149787" lon="-2.21263451">
        <ele>1024.0000</ele>
        <time>2018-10-12T10:59:45Z</time>
      </trkpt>
      <trkpt lat="38.18152184" lon="-2.21296392">
        <ele>1025.0000</ele>
        <time>2018-10-12T10:59:49Z</time>
      </trkpt>
      <trkpt lat="38.18153911" lon="-2.21304061">
        <ele>1025.0000</ele>
        <time>2018-10-12T10:59:50Z</time>
      </trkpt>
      <trkpt lat="38.18157406" lon="-2.21319551">
        <ele>1026.0000</ele>
        <time>2018-10-12T10:59:52Z</time>
      </trkpt>
      <trkpt lat="38.18161563" lon="-2.21334949">
        <ele>1028.0000</ele>
        <time>2018-10-12T10:59:54Z</time>
      </trkpt>
      <trkpt lat="38.18167515" lon="-2.21356633">
        <ele>1029.0000</ele>
        <time>2018-10-12T10:59:57Z</time>
      </trkpt>
      <trkpt lat="38.18172628" lon="-2.21377948">
        <ele>1031.0000</ele>
        <time>2018-10-12T11:00:00Z</time>
      </trkpt>
      <trkpt lat="38.18176785" lon="-2.21405591">
        <ele>1032.0000</ele>
        <time>2018-10-12T11:00:04Z</time>
      </trkpt>
      <trkpt lat="38.18179375" lon="-2.21432548">
        <ele>1033.0000</ele>
        <time>2018-10-12T11:00:08Z</time>
      </trkpt>
      <trkpt lat="38.18180431" lon="-2.21457333">
        <ele>1034.0000</ele>
        <time>2018-10-12T11:00:12Z</time>
      </trkpt>
      <trkpt lat="38.18180456" lon="-2.21468665">
        <ele>1035.0000</ele>
        <time>2018-10-12T11:00:14Z</time>
      </trkpt>
      <trkpt lat="38.18181646" lon="-2.21478640">
        <ele>1036.0000</ele>
        <time>2018-10-12T11:00:16Z</time>
      </trkpt>
      <trkpt lat="38.18184505" lon="-2.21491321">
        <ele>1037.0000</ele>
        <time>2018-10-12T11:00:19Z</time>
      </trkpt>
      <trkpt lat="38.18190598" lon="-2.21508203">
        <ele>1038.0000</ele>
        <time>2018-10-12T11:00:23Z</time>
      </trkpt>
      <trkpt lat="38.18196650" lon="-2.21520398">
        <ele>1039.0000</ele>
        <time>2018-10-12T11:00:26Z</time>
      </trkpt>
      <trkpt lat="38.18209399" lon="-2.21541889">
        <ele>1040.0000</ele>
        <time>2018-10-12T11:00:32Z</time>
      </trkpt>
      <trkpt lat="38.18214948" lon="-2.21563733">
        <ele>1041.0000</ele>
        <time>2018-10-12T11:00:37Z</time>
      </trkpt>
      <trkpt lat="38.18214562" lon="-2.21568770">
        <ele>1042.0000</ele>
        <time>2018-10-12T11:00:38Z</time>
      </trkpt>
      <trkpt lat="38.18209558" lon="-2.21582776">
        <ele>1042.0000</ele>
        <time>2018-10-12T11:00:41Z</time>
      </trkpt>
      <trkpt lat="38.18157205" lon="-2.21594209">
        <ele>1043.0000</ele>
        <time>2018-10-12T11:00:54Z</time>
      </trkpt>
      <trkpt lat="38.18146686" lon="-2.21585324">
        <ele>1044.0000</ele>
        <time>2018-10-12T11:00:57Z</time>
      </trkpt>
      <trkpt lat="38.18143702" lon="-2.21581771">
        <ele>1044.0000</ele>
        <time>2018-10-12T11:00:58Z</time>
      </trkpt>
      <trkpt lat="38.18124331" lon="-2.21562123">
        <ele>1045.0000</ele>
        <time>2018-10-12T11:01:04Z</time>
      </trkpt>
      <trkpt lat="38.18109034" lon="-2.21556608">
        <ele>1045.0000</ele>
        <time>2018-10-12T11:01:08Z</time>
      </trkpt>
      <trkpt lat="38.18101398" lon="-2.21559902">
        <ele>1046.0000</ele>
        <time>2018-10-12T11:01:10Z</time>
      </trkpt>
      <trkpt lat="38.18092614" lon="-2.21602105">
        <ele>1047.0000</ele>
        <time>2018-10-12T11:01:18Z</time>
      </trkpt>
      <trkpt lat="38.18104558" lon="-2.21622389">
        <ele>1048.0000</ele>
        <time>2018-10-12T11:01:22Z</time>
      </trkpt>
      <trkpt lat="38.18126376" lon="-2.21646588">
        <ele>1048.0000</ele>
        <time>2018-10-12T11:01:28Z</time>
      </trkpt>
      <trkpt lat="38.18140768" lon="-2.21662287">
        <ele>1049.0000</ele>
        <time>2018-10-12T11:01:32Z</time>
      </trkpt>
      <trkpt lat="38.18166316" lon="-2.21689277">
        <ele>1050.0000</ele>
        <time>2018-10-12T11:01:39Z</time>
      </trkpt>
      <trkpt lat="38.18190800" lon="-2.21715831">
        <ele>1051.0000</ele>
        <time>2018-10-12T11:01:46Z</time>
      </trkpt>
      <trkpt lat="38.18211168" lon="-2.21738579">
        <ele>1053.0000</ele>
        <time>2018-10-12T11:01:52Z</time>
      </trkpt>
      <trkpt lat="38.18224956" lon="-2.21753130">
        <ele>1054.0000</ele>
        <time>2018-10-12T11:01:56Z</time>
      </trkpt>
      <trkpt lat="38.18247369" lon="-2.21780975">
        <ele>1055.0000</ele>
        <time>2018-10-12T11:02:03Z</time>
      </trkpt>
      <trkpt lat="38.18262037" lon="-2.21801108">
        <ele>1056.0000</ele>
        <time>2018-10-12T11:02:08Z</time>
      </trkpt>
      <trkpt lat="38.18276320" lon="-2.21821627">
        <ele>1057.0000</ele>
        <time>2018-10-12T11:02:13Z</time>
      </trkpt>
      <trkpt lat="38.18298884" lon="-2.21854610">
        <ele>1058.0000</ele>
        <time>2018-10-12T11:02:21Z</time>
      </trkpt>
      <trkpt lat="38.18314977" lon="-2.21879940">
        <ele>1059.0000</ele>
        <time>2018-10-12T11:02:27Z</time>
      </trkpt>
      <trkpt lat="38.18325195" lon="-2.21895815">
        <ele>1060.0000</ele>
        <time>2018-10-12T11:02:31Z</time>
      </trkpt>
      <trkpt lat="38.18338229" lon="-2.21915295">
        <ele>1061.0000</ele>
        <time>2018-10-12T11:02:36Z</time>
      </trkpt>
      <trkpt lat="38.18351053" lon="-2.21934691">
        <ele>1063.0000</ele>
        <time>2018-10-12T11:02:41Z</time>
      </trkpt>
      <trkpt lat="38.18371647" lon="-2.21966458">
        <ele>1064.0000</ele>
        <time>2018-10-12T11:02:49Z</time>
      </trkpt>
      <trkpt lat="38.18384790" lon="-2.21986457">
        <ele>1065.0000</ele>
        <time>2018-10-12T11:02:54Z</time>
      </trkpt>
      <trkpt lat="38.18397631" lon="-2.22006289">
        <ele>1066.0000</ele>
        <time>2018-10-12T11:02:59Z</time>
      </trkpt>
      <trkpt lat="38.18415979" lon="-2.22033413">
        <ele>1067.0000</ele>
        <time>2018-10-12T11:03:06Z</time>
      </trkpt>
      <trkpt lat="38.18431226" lon="-2.22056706">
        <ele>1069.0000</ele>
        <time>2018-10-12T11:03:12Z</time>
      </trkpt>
      <trkpt lat="38.18441770" lon="-2.22071760">
        <ele>1070.0000</ele>
        <time>2018-10-12T11:03:16Z</time>
      </trkpt>
      <trkpt lat="38.18456523" lon="-2.22094533">
        <ele>1071.0000</ele>
        <time>2018-10-12T11:03:22Z</time>
      </trkpt>
      <trkpt lat="38.18469112" lon="-2.22113896">
        <ele>1072.0000</ele>
        <time>2018-10-12T11:03:27Z</time>
      </trkpt>
      <trkpt lat="38.18484535" lon="-2.22137407">
        <ele>1073.0000</ele>
        <time>2018-10-12T11:03:33Z</time>
      </trkpt>
      <trkpt lat="38.18497996" lon="-2.22158194">
        <ele>1074.0000</ele>
        <time>2018-10-12T11:03:38Z</time>
      </trkpt>
      <trkpt lat="38.18518985" lon="-2.22190146">
        <ele>1076.0000</ele>
        <time>2018-10-12T11:03:46Z</time>
      </trkpt>
      <trkpt lat="38.18534307" lon="-2.22213213">
        <ele>1077.0000</ele>
        <time>2018-10-12T11:03:52Z</time>
      </trkpt>
      <trkpt lat="38.18547315" lon="-2.22232525">
        <ele>1078.0000</ele>
        <time>2018-10-12T11:03:57Z</time>
      </trkpt>
      <trkpt lat="38.18566518" lon="-2.22262666">
        <ele>1079.0000</ele>
        <time>2018-10-12T11:04:05Z</time>
      </trkpt>
      <trkpt lat="38.18583467" lon="-2.22288298">
        <ele>1080.0000</ele>
        <time>2018-10-12T11:04:12Z</time>
      </trkpt>
      <trkpt lat="38.18593324" lon="-2.22302891">
        <ele>1081.0000</ele>
        <time>2018-10-12T11:04:16Z</time>
      </trkpt>
      <trkpt lat="38.18602569" lon="-2.22317517">
        <ele>1082.0000</ele>
        <time>2018-10-12T11:04:20Z</time>
      </trkpt>
      <trkpt lat="38.18614547" lon="-2.22336184">
        <ele>1083.0000</ele>
        <time>2018-10-12T11:04:25Z</time>
      </trkpt>
      <trkpt lat="38.18629592" lon="-2.22359125">
        <ele>1084.0000</ele>
        <time>2018-10-12T11:04:31Z</time>
      </trkpt>
      <trkpt lat="38.18644621" lon="-2.22382829">
        <ele>1085.0000</ele>
        <time>2018-10-12T11:04:37Z</time>
      </trkpt>
      <trkpt lat="38.18660563" lon="-2.22405619">
        <ele>1087.0000</ele>
        <time>2018-10-12T11:04:43Z</time>
      </trkpt>
      <trkpt lat="38.18668199" lon="-2.22417337">
        <ele>1088.0000</ele>
        <time>2018-10-12T11:04:46Z</time>
      </trkpt>
      <trkpt lat="38.18688157" lon="-2.22448870">
        <ele>1089.0000</ele>
        <time>2018-10-12T11:04:54Z</time>
      </trkpt>
      <trkpt lat="38.18700151" lon="-2.22468785">
        <ele>1090.0000</ele>
        <time>2018-10-12T11:04:59Z</time>
      </trkpt>
      <trkpt lat="38.18709229" lon="-2.22486228">
        <ele>1091.0000</ele>
        <time>2018-10-12T11:05:03Z</time>
      </trkpt>
      <trkpt lat="38.18723235" lon="-2.22523477">
        <ele>1091.0000</ele>
        <time>2018-10-12T11:05:10Z</time>
      </trkpt>
      <trkpt lat="38.18732488" lon="-2.22559955">
        <ele>1091.0000</ele>
        <time>2018-10-12T11:05:15Z</time>
      </trkpt>
      <trkpt lat="38.18737668" lon="-2.22585923">
        <ele>1091.0000</ele>
        <time>2018-10-12T11:05:18Z</time>
      </trkpt>
      <trkpt lat="38.18744860" lon="-2.22614647">
        <ele>1089.0000</ele>
        <time>2018-10-12T11:05:21Z</time>
      </trkpt>
      <trkpt lat="38.18749512" lon="-2.22635887">
        <ele>1088.0000</ele>
        <time>2018-10-12T11:05:23Z</time>
      </trkpt>
      <trkpt lat="38.18757366" lon="-2.22669381">
        <ele>1087.0000</ele>
        <time>2018-10-12T11:05:26Z</time>
      </trkpt>
      <trkpt lat="38.18762068" lon="-2.22690730">
        <ele>1085.0000</ele>
        <time>2018-10-12T11:05:28Z</time>
      </trkpt>
      <trkpt lat="38.18766284" lon="-2.22708709">
        <ele>1084.0000</ele>
        <time>2018-10-12T11:05:30Z</time>
      </trkpt>
      <trkpt lat="38.18770182" lon="-2.22724492">
        <ele>1084.0000</ele>
        <time>2018-10-12T11:05:32Z</time>
      </trkpt>
      <trkpt lat="38.18774130" lon="-2.22735716">
        <ele>1083.0000</ele>
        <time>2018-10-12T11:05:34Z</time>
      </trkpt>
      <trkpt lat="38.18780994" lon="-2.22743335">
        <ele>1082.0000</ele>
        <time>2018-10-12T11:05:36Z</time>
      </trkpt>
      <trkpt lat="38.18785152" lon="-2.22746520">
        <ele>1081.0000</ele>
        <time>2018-10-12T11:05:37Z</time>
      </trkpt>
      <trkpt lat="38.18794196" lon="-2.22751214">
        <ele>1081.0000</ele>
        <time>2018-10-12T11:05:39Z</time>
      </trkpt>
      <trkpt lat="38.18807062" lon="-2.22758573">
        <ele>1080.0000</ele>
        <time>2018-10-12T11:05:42Z</time>
      </trkpt>
      <trkpt lat="38.18825125" lon="-2.22773040">
        <ele>1080.0000</ele>
        <time>2018-10-12T11:05:47Z</time>
      </trkpt>
      <trkpt lat="38.18844152" lon="-2.22788773">
        <ele>1080.0000</ele>
        <time>2018-10-12T11:05:52Z</time>
      </trkpt>
      <trkpt lat="38.18861000" lon="-2.22805285">
        <ele>1081.0000</ele>
        <time>2018-10-12T11:05:57Z</time>
      </trkpt>
      <trkpt lat="38.18864830" lon="-2.22807473">
        <ele>1081.0000</ele>
        <time>2018-10-12T11:05:58Z</time>
      </trkpt>
      <trkpt lat="38.18871720" lon="-2.22811304">
        <ele>1082.0000</ele>
        <time>2018-10-12T11:06:00Z</time>
      </trkpt>
      <trkpt lat="38.18882432" lon="-2.22815109">
        <ele>1083.0000</ele>
        <time>2018-10-12T11:06:03Z</time>
      </trkpt>
      <trkpt lat="38.18898165" lon="-2.22817749">
        <ele>1084.0000</ele>
        <time>2018-10-12T11:06:07Z</time>
      </trkpt>
      <trkpt lat="38.18902054" lon="-2.22817054">
        <ele>1084.0000</ele>
        <time>2018-10-12T11:06:08Z</time>
      </trkpt>
      <trkpt lat="38.18913672" lon="-2.22813340">
        <ele>1085.0000</ele>
        <time>2018-10-12T11:06:11Z</time>
      </trkpt>
      <trkpt lat="38.18917695" lon="-2.22811999">
        <ele>1085.0000</ele>
        <time>2018-10-12T11:06:12Z</time>
      </trkpt>
      <trkpt lat="38.18932154" lon="-2.22806643">
        <ele>1086.0000</ele>
        <time>2018-10-12T11:06:16Z</time>
      </trkpt>
      <trkpt lat="38.18948071" lon="-2.22801505">
        <ele>1087.0000</ele>
        <time>2018-10-12T11:06:20Z</time>
      </trkpt>
      <trkpt lat="38.18952212" lon="-2.22801673">
        <ele>1087.0000</ele>
        <time>2018-10-12T11:06:21Z</time>
      </trkpt>
      <trkpt lat="38.18975983" lon="-2.22816827">
        <ele>1088.0000</ele>
        <time>2018-10-12T11:06:27Z</time>
      </trkpt>
      <trkpt lat="38.19015109" lon="-2.22861469">
        <ele>1088.0000</ele>
        <time>2018-10-12T11:06:37Z</time>
      </trkpt>
      <trkpt lat="38.19032183" lon="-2.22886120">
        <ele>1088.0000</ele>
        <time>2018-10-12T11:06:42Z</time>
      </trkpt>
      <trkpt lat="38.19034656" lon="-2.22891351">
        <ele>1088.0000</ele>
        <time>2018-10-12T11:06:43Z</time>
      </trkpt>
      <trkpt lat="38.19054764" lon="-2.22954818">
        <ele>1089.0000</ele>
        <time>2018-10-12T11:06:54Z</time>
      </trkpt>
      <trkpt lat="38.19062702" lon="-2.22970291">
        <ele>1090.0000</ele>
        <time>2018-10-12T11:06:57Z</time>
      </trkpt>
      <trkpt lat="38.19085685" lon="-2.22999653">
        <ele>1090.0000</ele>
        <time>2018-10-12T11:07:04Z</time>
      </trkpt>
      <trkpt lat="38.19104922" lon="-2.23022988">
        <ele>1091.0000</ele>
        <time>2018-10-12T11:07:10Z</time>
      </trkpt>
      <trkpt lat="38.19110965" lon="-2.23030675">
        <ele>1092.0000</ele>
        <time>2018-10-12T11:07:12Z</time>
      </trkpt>
      <trkpt lat="38.19126823" lon="-2.23045268">
        <ele>1093.0000</ele>
        <time>2018-10-12T11:07:17Z</time>
      </trkpt>
      <trkpt lat="38.19140553" lon="-2.23051194">
        <ele>1094.0000</ele>
        <time>2018-10-12T11:07:21Z</time>
      </trkpt>
      <trkpt lat="38.19154358" lon="-2.23057329">
        <ele>1095.0000</ele>
        <time>2018-10-12T11:07:25Z</time>
      </trkpt>
      <trkpt lat="38.19171583" lon="-2.23060975">
        <ele>1096.0000</ele>
        <time>2018-10-12T11:07:30Z</time>
      </trkpt>
      <trkpt lat="38.19182144" lon="-2.23062593">
        <ele>1098.0000</ele>
        <time>2018-10-12T11:07:33Z</time>
      </trkpt>
      <trkpt lat="38.19195765" lon="-2.23064647">
        <ele>1099.0000</ele>
        <time>2018-10-12T11:07:37Z</time>
      </trkpt>
      <trkpt lat="38.19208354" lon="-2.23067983">
        <ele>1100.0000</ele>
        <time>2018-10-12T11:07:41Z</time>
      </trkpt>
      <trkpt lat="38.19225537" lon="-2.23078125">
        <ele>1101.0000</ele>
        <time>2018-10-12T11:07:46Z</time>
      </trkpt>
      <trkpt lat="38.19244639" lon="-2.23104025">
        <ele>1102.0000</ele>
        <time>2018-10-12T11:07:53Z</time>
      </trkpt>
      <trkpt lat="38.19255435" lon="-2.23130411">
        <ele>1103.0000</ele>
        <time>2018-10-12T11:07:59Z</time>
      </trkpt>
      <trkpt lat="38.19271654" lon="-2.23164550">
        <ele>1104.0000</ele>
        <time>2018-10-12T11:08:07Z</time>
      </trkpt>
      <trkpt lat="38.19277002" lon="-2.23172270">
        <ele>1105.0000</ele>
        <time>2018-10-12T11:08:09Z</time>
      </trkpt>
      <trkpt lat="38.19293179" lon="-2.23191976">
        <ele>1105.0000</ele>
        <time>2018-10-12T11:08:14Z</time>
      </trkpt>
      <trkpt lat="38.19301863" lon="-2.23206007">
        <ele>1106.0000</ele>
        <time>2018-10-12T11:08:17Z</time>
      </trkpt>
      <trkpt lat="38.19308426" lon="-2.23220743">
        <ele>1106.0000</ele>
        <time>2018-10-12T11:08:20Z</time>
      </trkpt>
      <trkpt lat="38.19325407" lon="-2.23268997">
        <ele>1106.0000</ele>
        <time>2018-10-12T11:08:30Z</time>
      </trkpt>
      <trkpt lat="38.19337293" lon="-2.23289449">
        <ele>1107.0000</ele>
        <time>2018-10-12T11:08:35Z</time>
      </trkpt>
      <trkpt lat="38.19356672" lon="-2.23306691">
        <ele>1109.0000</ele>
        <time>2018-10-12T11:08:41Z</time>
      </trkpt>
      <trkpt lat="38.19360243" lon="-2.23309733">
        <ele>1109.0000</ele>
        <time>2018-10-12T11:08:42Z</time>
      </trkpt>
      <trkpt lat="38.19388389" lon="-2.23336698">
        <ele>1109.0000</ele>
        <time>2018-10-12T11:08:49Z</time>
      </trkpt>
      <trkpt lat="38.19409503" lon="-2.23362171">
        <ele>1109.0000</ele>
        <time>2018-10-12T11:08:54Z</time>
      </trkpt>
      <trkpt lat="38.19431732" lon="-2.23394877">
        <ele>1108.0000</ele>
        <time>2018-10-12T11:09:00Z</time>
      </trkpt>
      <trkpt lat="38.19439695" lon="-2.23404457">
        <ele>1108.0000</ele>
        <time>2018-10-12T11:09:02Z</time>
      </trkpt>
      <trkpt lat="38.19460599" lon="-2.23422889">
        <ele>1108.0000</ele>
        <time>2018-10-12T11:09:07Z</time>
      </trkpt>
      <trkpt lat="38.19469761" lon="-2.23446249">
        <ele>1109.0000</ele>
        <time>2018-10-12T11:09:11Z</time>
      </trkpt>
      <trkpt lat="38.19478595" lon="-2.23516699">
        <ele>1110.0000</ele>
        <time>2018-10-12T11:09:21Z</time>
      </trkpt>
      <trkpt lat="38.19479031" lon="-2.23548123">
        <ele>1109.0000</ele>
        <time>2018-10-12T11:09:25Z</time>
      </trkpt>
      <trkpt lat="38.19484756" lon="-2.23587644">
        <ele>1109.0000</ele>
        <time>2018-10-12T11:09:30Z</time>
      </trkpt>
      <trkpt lat="38.19488377" lon="-2.23603527">
        <ele>1109.0000</ele>
        <time>2018-10-12T11:09:32Z</time>
      </trkpt>
      <trkpt lat="38.19498494" lon="-2.23643744">
        <ele>1108.0000</ele>
        <time>2018-10-12T11:09:37Z</time>
      </trkpt>
      <trkpt lat="38.19504328" lon="-2.23659326">
        <ele>1108.0000</ele>
        <time>2018-10-12T11:09:39Z</time>
      </trkpt>
      <trkpt lat="38.19521921" lon="-2.23697891">
        <ele>1107.0000</ele>
        <time>2018-10-12T11:09:44Z</time>
      </trkpt>
      <trkpt lat="38.19540051" lon="-2.23738719">
        <ele>1106.0000</ele>
        <time>2018-10-12T11:09:49Z</time>
      </trkpt>
      <trkpt lat="38.19543278" lon="-2.23747730">
        <ele>1105.0000</ele>
        <time>2018-10-12T11:09:50Z</time>
      </trkpt>
      <trkpt lat="38.19545608" lon="-2.23757260">
        <ele>1105.0000</ele>
        <time>2018-10-12T11:09:51Z</time>
      </trkpt>
      <trkpt lat="38.19538040" lon="-2.23798407">
        <ele>1104.0000</ele>
        <time>2018-10-12T11:09:55Z</time>
      </trkpt>
      <trkpt lat="38.19519155" lon="-2.23841859">
        <ele>1103.0000</ele>
        <time>2018-10-12T11:09:59Z</time>
      </trkpt>
      <trkpt lat="38.19507747" lon="-2.23864976">
        <ele>1102.0000</ele>
        <time>2018-10-12T11:10:01Z</time>
      </trkpt>
      <trkpt lat="38.19497630" lon="-2.23889476">
        <ele>1100.0000</ele>
        <time>2018-10-12T11:10:03Z</time>
      </trkpt>
      <trkpt lat="38.19494068" lon="-2.23902803">
        <ele>1099.0000</ele>
        <time>2018-10-12T11:10:04Z</time>
      </trkpt>
      <trkpt lat="38.19491612" lon="-2.23916667">
        <ele>1098.0000</ele>
        <time>2018-10-12T11:10:05Z</time>
      </trkpt>
      <trkpt lat="38.19489098" lon="-2.23945777">
        <ele>1096.0000</ele>
        <time>2018-10-12T11:10:07Z</time>
      </trkpt>
      <trkpt lat="38.19486675" lon="-2.23976287">
        <ele>1095.0000</ele>
        <time>2018-10-12T11:10:09Z</time>
      </trkpt>
      <trkpt lat="38.19484152" lon="-2.23991744">
        <ele>1094.0000</ele>
        <time>2018-10-12T11:10:10Z</time>
      </trkpt>
      <trkpt lat="38.19480883" lon="-2.24007032">
        <ele>1093.0000</ele>
        <time>2018-10-12T11:10:11Z</time>
      </trkpt>
      <trkpt lat="38.19477614" lon="-2.24022313">
        <ele>1092.0000</ele>
        <time>2018-10-12T11:10:12Z</time>
      </trkpt>
      <trkpt lat="38.19474488" lon="-2.24037551">
        <ele>1091.0000</ele>
        <time>2018-10-12T11:10:13Z</time>
      </trkpt>
      <trkpt lat="38.19471588" lon="-2.24052110">
        <ele>1090.0000</ele>
        <time>2018-10-12T11:10:14Z</time>
      </trkpt>
      <trkpt lat="38.19465871" lon="-2.24080659">
        <ele>1087.0000</ele>
        <time>2018-10-12T11:10:16Z</time>
      </trkpt>
      <trkpt lat="38.19464120" lon="-2.24094212">
        <ele>1086.0000</ele>
        <time>2018-10-12T11:10:17Z</time>
      </trkpt>
      <trkpt lat="38.19463466" lon="-2.24106693">
        <ele>1085.0000</ele>
        <time>2018-10-12T11:10:18Z</time>
      </trkpt>
      <trkpt lat="38.19463072" lon="-2.24117875">
        <ele>1084.0000</ele>
        <time>2018-10-12T11:10:19Z</time>
      </trkpt>
      <trkpt lat="38.19463994" lon="-2.24137606">
        <ele>1083.0000</ele>
        <time>2018-10-12T11:10:21Z</time>
      </trkpt>
      <trkpt lat="38.19465855" lon="-2.24146222">
        <ele>1083.0000</ele>
        <time>2018-10-12T11:10:22Z</time>
      </trkpt>
      <trkpt lat="38.19513204" lon="-2.24185684">
        <ele>1082.0000</ele>
        <time>2018-10-12T11:10:29Z</time>
      </trkpt>
      <trkpt lat="38.19518459" lon="-2.24194477">
        <ele>1082.0000</ele>
        <time>2018-10-12T11:10:30Z</time>
      </trkpt>
      <trkpt lat="38.19523757" lon="-2.24225850">
        <ele>1081.0000</ele>
        <time>2018-10-12T11:10:33Z</time>
      </trkpt>
      <trkpt lat="38.19517521" lon="-2.24246235">
        <ele>1079.0000</ele>
        <time>2018-10-12T11:10:35Z</time>
      </trkpt>
      <trkpt lat="38.19513321" lon="-2.24256528">
        <ele>1079.0000</ele>
        <time>2018-10-12T11:10:36Z</time>
      </trkpt>
      <trkpt lat="38.19508485" lon="-2.24267064">
        <ele>1078.0000</ele>
        <time>2018-10-12T11:10:37Z</time>
      </trkpt>
      <trkpt lat="38.19502676" lon="-2.24277139">
        <ele>1078.0000</ele>
        <time>2018-10-12T11:10:38Z</time>
      </trkpt>
      <trkpt lat="38.19496331" lon="-2.24287047">
        <ele>1077.0000</ele>
        <time>2018-10-12T11:10:39Z</time>
      </trkpt>
      <trkpt lat="38.19490246" lon="-2.24297390">
        <ele>1076.0000</ele>
        <time>2018-10-12T11:10:40Z</time>
      </trkpt>
      <trkpt lat="38.19484890" lon="-2.24307809">
        <ele>1076.0000</ele>
        <time>2018-10-12T11:10:41Z</time>
      </trkpt>
      <trkpt lat="38.19480942" lon="-2.24317632">
        <ele>1075.0000</ele>
        <time>2018-10-12T11:10:42Z</time>
      </trkpt>
      <trkpt lat="38.19478478" lon="-2.24327187">
        <ele>1074.0000</ele>
        <time>2018-10-12T11:10:43Z</time>
      </trkpt>
      <trkpt lat="38.19478000" lon="-2.24336651">
        <ele>1073.0000</ele>
        <time>2018-10-12T11:10:44Z</time>
      </trkpt>
      <trkpt lat="38.19482669" lon="-2.24355535">
        <ele>1071.0000</ele>
        <time>2018-10-12T11:10:46Z</time>
      </trkpt>
      <trkpt lat="38.19501595" lon="-2.24376381">
        <ele>1070.0000</ele>
        <time>2018-10-12T11:10:49Z</time>
      </trkpt>
      <trkpt lat="38.19535844" lon="-2.24406874">
        <ele>1069.0000</ele>
        <time>2018-10-12T11:10:54Z</time>
      </trkpt>
      <trkpt lat="38.19541099" lon="-2.24427519">
        <ele>1067.0000</ele>
        <time>2018-10-12T11:10:56Z</time>
      </trkpt>
      <trkpt lat="38.19540328" lon="-2.24449002">
        <ele>1066.0000</ele>
        <time>2018-10-12T11:10:58Z</time>
      </trkpt>
      <trkpt lat="38.19539062" lon="-2.24460175">
        <ele>1066.0000</ele>
        <time>2018-10-12T11:10:59Z</time>
      </trkpt>
      <trkpt lat="38.19535173" lon="-2.24484692">
        <ele>1065.0000</ele>
        <time>2018-10-12T11:11:01Z</time>
      </trkpt>
      <trkpt lat="38.19520354" lon="-2.24519410">
        <ele>1063.0000</ele>
        <time>2018-10-12T11:11:04Z</time>
      </trkpt>
      <trkpt lat="38.19514461" lon="-2.24530180">
        <ele>1063.0000</ele>
        <time>2018-10-12T11:11:05Z</time>
      </trkpt>
      <trkpt lat="38.19508703" lon="-2.24540281">
        <ele>1062.0000</ele>
        <time>2018-10-12T11:11:06Z</time>
      </trkpt>
      <trkpt lat="38.19504244" lon="-2.24549886">
        <ele>1061.0000</ele>
        <time>2018-10-12T11:11:07Z</time>
      </trkpt>
      <trkpt lat="38.19499718" lon="-2.24569978">
        <ele>1059.0000</ele>
        <time>2018-10-12T11:11:09Z</time>
      </trkpt>
      <trkpt lat="38.19501042" lon="-2.24590748">
        <ele>1058.0000</ele>
        <time>2018-10-12T11:11:11Z</time>
      </trkpt>
      <trkpt lat="38.19501997" lon="-2.24601225">
        <ele>1057.0000</ele>
        <time>2018-10-12T11:11:12Z</time>
      </trkpt>
      <trkpt lat="38.19503582" lon="-2.24622851">
        <ele>1057.0000</ele>
        <time>2018-10-12T11:11:14Z</time>
      </trkpt>
      <trkpt lat="38.19502601" lon="-2.24645214">
        <ele>1057.0000</ele>
        <time>2018-10-12T11:11:16Z</time>
      </trkpt>
      <trkpt lat="38.19487044" lon="-2.24670862">
        <ele>1055.0000</ele>
        <time>2018-10-12T11:11:19Z</time>
      </trkpt>
      <trkpt lat="38.19471110" lon="-2.24682698">
        <ele>1054.0000</ele>
        <time>2018-10-12T11:11:21Z</time>
      </trkpt>
      <trkpt lat="38.19462678" lon="-2.24688196">
        <ele>1053.0000</ele>
        <time>2018-10-12T11:11:22Z</time>
      </trkpt>
      <trkpt lat="38.19452905" lon="-2.24693879">
        <ele>1052.0000</ele>
        <time>2018-10-12T11:11:23Z</time>
      </trkpt>
      <trkpt lat="38.19435529" lon="-2.24705915">
        <ele>1052.0000</ele>
        <time>2018-10-12T11:11:25Z</time>
      </trkpt>
      <trkpt lat="38.19428103" lon="-2.24712227">
        <ele>1051.0000</ele>
        <time>2018-10-12T11:11:26Z</time>
      </trkpt>
      <trkpt lat="38.19421657" lon="-2.24718882">
        <ele>1051.0000</ele>
        <time>2018-10-12T11:11:27Z</time>
      </trkpt>
      <trkpt lat="38.19416024" lon="-2.24726644">
        <ele>1050.0000</ele>
        <time>2018-10-12T11:11:28Z</time>
      </trkpt>
      <trkpt lat="38.19408313" lon="-2.24745386">
        <ele>1048.0000</ele>
        <time>2018-10-12T11:11:30Z</time>
      </trkpt>
      <trkpt lat="38.19407726" lon="-2.24767405">
        <ele>1047.0000</ele>
        <time>2018-10-12T11:11:32Z</time>
      </trkpt>
      <trkpt lat="38.19416871" lon="-2.24798250">
        <ele>1046.0000</ele>
        <time>2018-10-12T11:11:35Z</time>
      </trkpt>
      <trkpt lat="38.19432377" lon="-2.24814243">
        <ele>1046.0000</ele>
        <time>2018-10-12T11:11:37Z</time>
      </trkpt>
      <trkpt lat="38.19450600" lon="-2.24828878">
        <ele>1045.0000</ele>
        <time>2018-10-12T11:11:39Z</time>
      </trkpt>
      <trkpt lat="38.19458914" lon="-2.24836723">
        <ele>1044.0000</ele>
        <time>2018-10-12T11:11:40Z</time>
      </trkpt>
      <trkpt lat="38.19467280" lon="-2.24844049">
        <ele>1043.0000</ele>
        <time>2018-10-12T11:11:41Z</time>
      </trkpt>
      <trkpt lat="38.19474941" lon="-2.24850621">
        <ele>1042.0000</ele>
        <time>2018-10-12T11:11:42Z</time>
      </trkpt>
      <trkpt lat="38.19488360" lon="-2.24865356">
        <ele>1041.0000</ele>
        <time>2018-10-12T11:11:44Z</time>
      </trkpt>
      <trkpt lat="38.19497128" lon="-2.24886545">
        <ele>1039.0000</ele>
        <time>2018-10-12T11:11:46Z</time>
      </trkpt>
      <trkpt lat="38.19501570" lon="-2.24912370">
        <ele>1038.0000</ele>
        <time>2018-10-12T11:11:48Z</time>
      </trkpt>
      <trkpt lat="38.19507647" lon="-2.24966207">
        <ele>1036.0000</ele>
        <time>2018-10-12T11:11:52Z</time>
      </trkpt>
      <trkpt lat="38.19510664" lon="-2.24994672">
        <ele>1035.0000</ele>
        <time>2018-10-12T11:11:54Z</time>
      </trkpt>
      <trkpt lat="38.19512525" lon="-2.25021134">
        <ele>1034.0000</ele>
        <time>2018-10-12T11:11:56Z</time>
      </trkpt>
      <trkpt lat="38.19512584" lon="-2.25032550">
        <ele>1032.0000</ele>
        <time>2018-10-12T11:11:57Z</time>
      </trkpt>
      <trkpt lat="38.19511159" lon="-2.25043555">
        <ele>1031.0000</ele>
        <time>2018-10-12T11:11:58Z</time>
      </trkpt>
      <trkpt lat="38.19508426" lon="-2.25054116">
        <ele>1030.0000</ele>
        <time>2018-10-12T11:11:59Z</time>
      </trkpt>
      <trkpt lat="38.19504747" lon="-2.25064535">
        <ele>1029.0000</ele>
        <time>2018-10-12T11:12:00Z</time>
      </trkpt>
      <trkpt lat="38.19494957" lon="-2.25086001">
        <ele>1027.0000</ele>
        <time>2018-10-12T11:12:02Z</time>
      </trkpt>
      <trkpt lat="38.19484027" lon="-2.25123091">
        <ele>1026.0000</ele>
        <time>2018-10-12T11:12:05Z</time>
      </trkpt>
      <trkpt lat="38.19480967" lon="-2.25135538">
        <ele>1026.0000</ele>
        <time>2018-10-12T11:12:06Z</time>
      </trkpt>
      <trkpt lat="38.19472761" lon="-2.25172142">
        <ele>1025.0000</ele>
        <time>2018-10-12T11:12:09Z</time>
      </trkpt>
      <trkpt lat="38.19470716" lon="-2.25197162">
        <ele>1023.0000</ele>
        <time>2018-10-12T11:12:11Z</time>
      </trkpt>
      <trkpt lat="38.19468881" lon="-2.25223221">
        <ele>1022.0000</ele>
        <time>2018-10-12T11:12:13Z</time>
      </trkpt>
      <trkpt lat="38.19463700" lon="-2.25249230">
        <ele>1020.0000</ele>
        <time>2018-10-12T11:12:15Z</time>
      </trkpt>
      <trkpt lat="38.19459049" lon="-2.25262189">
        <ele>1019.0000</ele>
        <time>2018-10-12T11:12:16Z</time>
      </trkpt>
      <trkpt lat="38.19447255" lon="-2.25287443">
        <ele>1018.0000</ele>
        <time>2018-10-12T11:12:18Z</time>
      </trkpt>
      <trkpt lat="38.19435160" lon="-2.25310971">
        <ele>1016.0000</ele>
        <time>2018-10-12T11:12:20Z</time>
      </trkpt>
      <trkpt lat="38.19425487" lon="-2.25332614">
        <ele>1014.0000</ele>
        <time>2018-10-12T11:12:22Z</time>
      </trkpt>
      <trkpt lat="38.19422151" lon="-2.25343376">
        <ele>1013.0000</ele>
        <time>2018-10-12T11:12:23Z</time>
      </trkpt>
      <trkpt lat="38.19419243" lon="-2.25353627">
        <ele>1012.0000</ele>
        <time>2018-10-12T11:12:24Z</time>
      </trkpt>
      <trkpt lat="38.19417139" lon="-2.25363442">
        <ele>1011.0000</ele>
        <time>2018-10-12T11:12:25Z</time>
      </trkpt>
      <trkpt lat="38.19415706" lon="-2.25373174">
        <ele>1010.0000</ele>
        <time>2018-10-12T11:12:26Z</time>
      </trkpt>
      <trkpt lat="38.19414960" lon="-2.25383450">
        <ele>1010.0000</ele>
        <time>2018-10-12T11:12:27Z</time>
      </trkpt>
      <trkpt lat="38.19416603" lon="-2.25427899">
        <ele>1008.0000</ele>
        <time>2018-10-12T11:12:31Z</time>
      </trkpt>
      <trkpt lat="38.19415857" lon="-2.25465081">
        <ele>1007.0000</ele>
        <time>2018-10-12T11:12:34Z</time>
      </trkpt>
      <trkpt lat="38.19416971" lon="-2.25487033">
        <ele>1005.0000</ele>
        <time>2018-10-12T11:12:36Z</time>
      </trkpt>
      <trkpt lat="38.19418204" lon="-2.25508860">
        <ele>1003.0000</ele>
        <time>2018-10-12T11:12:38Z</time>
      </trkpt>
      <trkpt lat="38.19419461" lon="-2.25531265">
        <ele>1002.0000</ele>
        <time>2018-10-12T11:12:40Z</time>
      </trkpt>
      <trkpt lat="38.19421037" lon="-2.25541532">
        <ele>1000.0000</ele>
        <time>2018-10-12T11:12:41Z</time>
      </trkpt>
      <trkpt lat="38.19424104" lon="-2.25562512">
        <ele>999.00000</ele>
        <time>2018-10-12T11:12:43Z</time>
      </trkpt>
      <trkpt lat="38.19427214" lon="-2.25585890">
        <ele>998.00000</ele>
        <time>2018-10-12T11:12:45Z</time>
      </trkpt>
      <trkpt lat="38.19429435" lon="-2.25598705">
        <ele>997.00000</ele>
        <time>2018-10-12T11:12:46Z</time>
      </trkpt>
      <trkpt lat="38.19432972" lon="-2.25609409">
        <ele>997.00000</ele>
        <time>2018-10-12T11:12:47Z</time>
      </trkpt>
      <trkpt lat="38.19439544" lon="-2.25632233">
        <ele>995.00000</ele>
        <time>2018-10-12T11:12:49Z</time>
      </trkpt>
      <trkpt lat="38.19440533" lon="-2.25656381">
        <ele>993.00000</ele>
        <time>2018-10-12T11:12:51Z</time>
      </trkpt>
      <trkpt lat="38.19435286" lon="-2.25680454">
        <ele>992.00000</ele>
        <time>2018-10-12T11:12:53Z</time>
      </trkpt>
      <trkpt lat="38.19432352" lon="-2.25693664">
        <ele>991.00000</ele>
        <time>2018-10-12T11:12:54Z</time>
      </trkpt>
      <trkpt lat="38.19428480" lon="-2.25720159">
        <ele>990.00000</ele>
        <time>2018-10-12T11:12:56Z</time>
      </trkpt>
      <trkpt lat="38.19423870" lon="-2.25745506">
        <ele>989.00000</ele>
        <time>2018-10-12T11:12:58Z</time>
      </trkpt>
      <trkpt lat="38.19418279" lon="-2.25768581">
        <ele>988.00000</ele>
        <time>2018-10-12T11:13:00Z</time>
      </trkpt>
      <trkpt lat="38.19415479" lon="-2.25789427">
        <ele>986.00000</ele>
        <time>2018-10-12T11:13:02Z</time>
      </trkpt>
      <trkpt lat="38.19416720" lon="-2.25799771">
        <ele>985.00000</ele>
        <time>2018-10-12T11:13:03Z</time>
      </trkpt>
      <trkpt lat="38.19419838" lon="-2.25809871">
        <ele>984.00000</ele>
        <time>2018-10-12T11:13:04Z</time>
      </trkpt>
      <trkpt lat="38.19429645" lon="-2.25829669">
        <ele>982.00000</ele>
        <time>2018-10-12T11:13:06Z</time>
      </trkpt>
      <trkpt lat="38.19444338" lon="-2.25862928">
        <ele>981.00000</ele>
        <time>2018-10-12T11:13:09Z</time>
      </trkpt>
      <trkpt lat="38.19449870" lon="-2.25887965">
        <ele>980.00000</ele>
        <time>2018-10-12T11:13:11Z</time>
      </trkpt>
      <trkpt lat="38.19454774" lon="-2.25912566">
        <ele>979.00000</ele>
        <time>2018-10-12T11:13:13Z</time>
      </trkpt>
      <trkpt lat="38.19458981" lon="-2.25936748">
        <ele>977.00000</ele>
        <time>2018-10-12T11:13:15Z</time>
      </trkpt>
      <trkpt lat="38.19460071" lon="-2.25948373">
        <ele>976.00000</ele>
        <time>2018-10-12T11:13:16Z</time>
      </trkpt>
      <trkpt lat="38.19459686" lon="-2.25960410">
        <ele>975.00000</ele>
        <time>2018-10-12T11:13:17Z</time>
      </trkpt>
      <trkpt lat="38.19457833" lon="-2.25972496">
        <ele>974.00000</ele>
        <time>2018-10-12T11:13:18Z</time>
      </trkpt>
      <trkpt lat="38.19451446" lon="-2.25996284">
        <ele>972.00000</ele>
        <time>2018-10-12T11:13:20Z</time>
      </trkpt>
      <trkpt lat="38.19442293" lon="-2.26020248">
        <ele>971.00000</ele>
        <time>2018-10-12T11:13:22Z</time>
      </trkpt>
      <trkpt lat="38.19430567" lon="-2.26045335">
        <ele>970.00000</ele>
        <time>2018-10-12T11:13:24Z</time>
      </trkpt>
      <trkpt lat="38.19420785" lon="-2.26070146">
        <ele>968.00000</ele>
        <time>2018-10-12T11:13:26Z</time>
      </trkpt>
      <trkpt lat="38.19412931" lon="-2.26095149">
        <ele>966.00000</ele>
        <time>2018-10-12T11:13:28Z</time>
      </trkpt>
      <trkpt lat="38.19409964" lon="-2.26107059">
        <ele>965.00000</ele>
        <time>2018-10-12T11:13:29Z</time>
      </trkpt>
      <trkpt lat="38.19407156" lon="-2.26118744">
        <ele>964.00000</ele>
        <time>2018-10-12T11:13:30Z</time>
      </trkpt>
      <trkpt lat="38.19404424" lon="-2.26130328">
        <ele>962.00000</ele>
        <time>2018-10-12T11:13:31Z</time>
      </trkpt>
      <trkpt lat="38.19399210" lon="-2.26153596">
        <ele>960.00000</ele>
        <time>2018-10-12T11:13:33Z</time>
      </trkpt>
      <trkpt lat="38.19393561" lon="-2.26178423">
        <ele>959.00000</ele>
        <time>2018-10-12T11:13:35Z</time>
      </trkpt>
      <trkpt lat="38.19388791" lon="-2.26204642">
        <ele>958.00000</ele>
        <time>2018-10-12T11:13:37Z</time>
      </trkpt>
      <trkpt lat="38.19384290" lon="-2.26231908">
        <ele>957.00000</ele>
        <time>2018-10-12T11:13:39Z</time>
      </trkpt>
      <trkpt lat="38.19379831" lon="-2.26258881">
        <ele>955.00000</ele>
        <time>2018-10-12T11:13:41Z</time>
      </trkpt>
      <trkpt lat="38.19376931" lon="-2.26283146">
        <ele>954.00000</ele>
        <time>2018-10-12T11:13:43Z</time>
      </trkpt>
      <trkpt lat="38.19375841" lon="-2.26294378">
        <ele>953.00000</ele>
        <time>2018-10-12T11:13:44Z</time>
      </trkpt>
      <trkpt lat="38.19374735" lon="-2.26304990">
        <ele>952.00000</ele>
        <time>2018-10-12T11:13:45Z</time>
      </trkpt>
      <trkpt lat="38.19374106" lon="-2.26315291">
        <ele>951.00000</ele>
        <time>2018-10-12T11:13:46Z</time>
      </trkpt>
      <trkpt lat="38.19374324" lon="-2.26325383">
        <ele>950.00000</ele>
        <time>2018-10-12T11:13:47Z</time>
      </trkpt>
      <trkpt lat="38.19380887" lon="-2.26343899">
        <ele>949.00000</ele>
        <time>2018-10-12T11:13:49Z</time>
      </trkpt>
      <trkpt lat="38.19394231" lon="-2.26359724">
        <ele>948.00000</ele>
        <time>2018-10-12T11:13:51Z</time>
      </trkpt>
      <trkpt lat="38.19400493" lon="-2.26368055">
        <ele>948.00000</ele>
        <time>2018-10-12T11:13:52Z</time>
      </trkpt>
      <trkpt lat="38.19411942" lon="-2.26388775">
        <ele>948.00000</ele>
        <time>2018-10-12T11:13:55Z</time>
      </trkpt>
      <trkpt lat="38.19415597" lon="-2.26398984">
        <ele>946.00000</ele>
        <time>2018-10-12T11:13:58Z</time>
      </trkpt>
      <trkpt lat="38.19415161" lon="-2.26402840">
        <ele>944.00000</ele>
        <time>2018-10-12T11:14:00Z</time>
      </trkpt>
      <trkpt lat="38.19414784" lon="-2.26403351">
        <ele>944.00000</ele>
        <time>2018-10-12T11:14:02Z</time>
      </trkpt>
      <trkpt lat="38.19416837" lon="-2.26406218">
        <ele>944.00000</ele>
        <time>2018-10-12T11:14:12Z</time>
      </trkpt>
      <trkpt lat="38.19418899" lon="-2.26407643">
        <ele>944.00000</ele>
        <time>2018-10-12T11:14:13Z</time>
      </trkpt>
      <trkpt lat="38.19423342" lon="-2.26412479">
        <ele>944.00000</ele>
        <time>2018-10-12T11:14:15Z</time>
      </trkpt>
      <trkpt lat="38.19428463" lon="-2.26419772">
        <ele>944.00000</ele>
        <time>2018-10-12T11:14:17Z</time>
      </trkpt>
      <trkpt lat="38.19437130" lon="-2.26431020">
        <ele>944.00000</ele>
        <time>2018-10-12T11:14:20Z</time>
      </trkpt>
      <trkpt lat="38.19449569" lon="-2.26443450">
        <ele>943.00000</ele>
        <time>2018-10-12T11:14:24Z</time>
      </trkpt>
      <trkpt lat="38.19452477" lon="-2.26448857">
        <ele>943.00000</ele>
        <time>2018-10-12T11:14:25Z</time>
      </trkpt>
      <trkpt lat="38.19456291" lon="-2.26461597">
        <ele>942.00000</ele>
        <time>2018-10-12T11:14:27Z</time>
      </trkpt>
      <trkpt lat="38.19458571" lon="-2.26480021">
        <ele>941.00000</ele>
        <time>2018-10-12T11:14:29Z</time>
      </trkpt>
      <trkpt lat="38.19460700" lon="-2.26489869">
        <ele>941.00000</ele>
        <time>2018-10-12T11:14:30Z</time>
      </trkpt>
      <trkpt lat="38.19474379" lon="-2.26509173">
        <ele>940.00000</ele>
        <time>2018-10-12T11:14:33Z</time>
      </trkpt>
      <trkpt lat="38.19480967" lon="-2.26511210">
        <ele>938.00000</ele>
        <time>2018-10-12T11:14:34Z</time>
      </trkpt>
      <trkpt lat="38.19493817" lon="-2.26511537">
        <ele>936.00000</ele>
        <time>2018-10-12T11:14:36Z</time>
      </trkpt>
      <trkpt lat="38.19500581" lon="-2.26510673">
        <ele>936.00000</ele>
        <time>2018-10-12T11:14:37Z</time>
      </trkpt>
      <trkpt lat="38.19507504" lon="-2.26510447">
        <ele>935.00000</ele>
        <time>2018-10-12T11:14:38Z</time>
      </trkpt>
      <trkpt lat="38.19514973" lon="-2.26511344">
        <ele>935.00000</ele>
        <time>2018-10-12T11:14:39Z</time>
      </trkpt>
      <trkpt lat="38.19529641" lon="-2.26516951">
        <ele>935.00000</ele>
        <time>2018-10-12T11:14:41Z</time>
      </trkpt>
      <trkpt lat="38.19545391" lon="-2.26521980">
        <ele>934.00000</ele>
        <time>2018-10-12T11:14:43Z</time>
      </trkpt>
      <trkpt lat="38.19570670" lon="-2.26517831">
        <ele>933.00000</ele>
        <time>2018-10-12T11:14:46Z</time>
      </trkpt>
      <trkpt lat="38.19579195" lon="-2.26515501">
        <ele>933.00000</ele>
        <time>2018-10-12T11:14:47Z</time>
      </trkpt>
      <trkpt lat="38.19594684" lon="-2.26510673">
        <ele>932.00000</ele>
        <time>2018-10-12T11:14:49Z</time>
      </trkpt>
      <trkpt lat="38.19616310" lon="-2.26503708">
        <ele>930.00000</ele>
        <time>2018-10-12T11:14:52Z</time>
      </trkpt>
      <trkpt lat="38.19650860" lon="-2.26494974">
        <ele>929.00000</ele>
        <time>2018-10-12T11:14:57Z</time>
      </trkpt>
      <trkpt lat="38.19660466" lon="-2.26495334">
        <ele>929.00000</ele>
        <time>2018-10-12T11:14:58Z</time>
      </trkpt>
      <trkpt lat="38.19681580" lon="-2.26494387">
        <ele>928.00000</ele>
        <time>2018-10-12T11:15:00Z</time>
      </trkpt>
      <trkpt lat="38.19718477" lon="-2.26490305">
        <ele>927.00000</ele>
        <time>2018-10-12T11:15:06Z</time>
      </trkpt>
      <trkpt lat="38.19733497" lon="-2.26484765">
        <ele>927.00000</ele>
        <time>2018-10-12T11:15:08Z</time>
      </trkpt>
      <trkpt lat="38.19760755" lon="-2.26491537">
        <ele>928.00000</ele>
        <time>2018-10-12T11:15:13Z</time>
      </trkpt>
      <trkpt lat="38.19778332" lon="-2.26501571">
        <ele>929.00000</ele>
        <time>2018-10-12T11:15:16Z</time>
      </trkpt>
      <trkpt lat="38.19793378" lon="-2.26515065">
        <ele>930.00000</ele>
        <time>2018-10-12T11:15:19Z</time>
      </trkpt>
      <trkpt lat="38.19797711" lon="-2.26519290">
        <ele>930.00000</ele>
        <time>2018-10-12T11:15:20Z</time>
      </trkpt>
      <trkpt lat="38.19816344" lon="-2.26536314">
        <ele>931.00000</ele>
        <time>2018-10-12T11:15:24Z</time>
      </trkpt>
      <trkpt lat="38.19828699" lon="-2.26558802">
        <ele>932.00000</ele>
        <time>2018-10-12T11:15:28Z</time>
      </trkpt>
      <trkpt lat="38.19830819" lon="-2.26564669">
        <ele>932.00000</ele>
        <time>2018-10-12T11:15:29Z</time>
      </trkpt>
      <trkpt lat="38.19843920" lon="-2.26584476">
        <ele>933.00000</ele>
        <time>2018-10-12T11:15:33Z</time>
      </trkpt>
      <trkpt lat="38.19852017" lon="-2.26594224">
        <ele>933.00000</ele>
        <time>2018-10-12T11:15:35Z</time>
      </trkpt>
      <trkpt lat="38.19861162" lon="-2.26656099">
        <ele>933.00000</ele>
        <time>2018-10-12T11:15:43Z</time>
      </trkpt>
      <trkpt lat="38.19859519" lon="-2.26695997">
        <ele>932.00000</ele>
        <time>2018-10-12T11:15:48Z</time>
      </trkpt>
      <trkpt lat="38.19860232" lon="-2.26703650">
        <ele>932.00000</ele>
        <time>2018-10-12T11:15:52Z</time>
      </trkpt>
      <trkpt lat="38.19862620" lon="-2.26707992">
        <ele>932.00000</ele>
        <time>2018-10-12T11:15:56Z</time>
      </trkpt>
      <trkpt lat="38.19864397" lon="-2.26713348">
        <ele>932.00000</ele>
        <time>2018-10-12T11:16:00Z</time>
      </trkpt>
      <trkpt lat="38.19866853" lon="-2.26717480">
        <ele>932.00000</ele>
        <time>2018-10-12T11:16:06Z</time>
      </trkpt>
      <trkpt lat="38.19881538" lon="-2.26723875">
        <ele>932.00000</ele>
        <time>2018-10-12T11:16:11Z</time>
      </trkpt>
      <trkpt lat="38.19899844" lon="-2.26728376">
        <ele>932.00000</ele>
        <time>2018-10-12T11:16:15Z</time>
      </trkpt>
      <trkpt lat="38.19914203" lon="-2.26733003">
        <ele>931.00000</ele>
        <time>2018-10-12T11:16:18Z</time>
      </trkpt>
      <trkpt lat="38.19919148" lon="-2.26734554">
        <ele>930.00000</ele>
        <time>2018-10-12T11:16:19Z</time>
      </trkpt>
      <trkpt lat="38.19935635" lon="-2.26739407">
        <ele>930.00000</ele>
        <time>2018-10-12T11:16:22Z</time>
      </trkpt>
      <trkpt lat="38.19951393" lon="-2.26747630">
        <ele>929.00000</ele>
        <time>2018-10-12T11:16:25Z</time>
      </trkpt>
      <trkpt lat="38.19973790" lon="-2.26774368">
        <ele>929.00000</ele>
        <time>2018-10-12T11:16:31Z</time>
      </trkpt>
      <trkpt lat="38.19981266" lon="-2.26781342">
        <ele>929.00000</ele>
        <time>2018-10-12T11:16:33Z</time>
      </trkpt>
      <trkpt lat="38.20003101" lon="-2.26783529">
        <ele>930.00000</ele>
        <time>2018-10-12T11:16:38Z</time>
      </trkpt>
      <trkpt lat="38.20015699" lon="-2.26777830">
        <ele>930.00000</ele>
        <time>2018-10-12T11:16:41Z</time>
      </trkpt>
      <trkpt lat="38.20028917" lon="-2.26771828">
        <ele>931.00000</ele>
        <time>2018-10-12T11:16:44Z</time>
      </trkpt>
      <trkpt lat="38.20046117" lon="-2.26772750">
        <ele>931.00000</ele>
        <time>2018-10-12T11:16:48Z</time>
      </trkpt>
      <trkpt lat="38.20098252" lon="-2.26781275">
        <ele>931.00000</ele>
        <time>2018-10-12T11:16:56Z</time>
      </trkpt>
      <trkpt lat="38.20143875" lon="-2.26741494">
        <ele>929.00000</ele>
        <time>2018-10-12T11:17:04Z</time>
      </trkpt>
      <trkpt lat="38.20157940" lon="-2.26717916">
        <ele>928.00000</ele>
        <time>2018-10-12T11:17:07Z</time>
      </trkpt>
      <trkpt lat="38.20177746" lon="-2.26685226">
        <ele>927.00000</ele>
        <time>2018-10-12T11:17:11Z</time>
      </trkpt>
      <trkpt lat="38.20191040" lon="-2.26662168">
        <ele>926.00000</ele>
        <time>2018-10-12T11:17:14Z</time>
      </trkpt>
      <trkpt lat="38.20193915" lon="-2.26653769">
        <ele>925.00000</ele>
        <time>2018-10-12T11:17:15Z</time>
      </trkpt>
      <trkpt lat="38.20201467" lon="-2.26628489">
        <ele>924.00000</ele>
        <time>2018-10-12T11:17:18Z</time>
      </trkpt>
      <trkpt lat="38.20201995" lon="-2.26621507">
        <ele>924.00000</ele>
        <time>2018-10-12T11:17:19Z</time>
      </trkpt>
      <trkpt lat="38.20214191" lon="-2.26578634">
        <ele>923.00000</ele>
        <time>2018-10-12T11:17:24Z</time>
      </trkpt>
      <trkpt lat="38.20225020" lon="-2.26553278">
        <ele>923.00000</ele>
        <time>2018-10-12T11:17:27Z</time>
      </trkpt>
      <trkpt lat="38.20232883" lon="-2.26539784">
        <ele>922.00000</ele>
        <time>2018-10-12T11:17:29Z</time>
      </trkpt>
      <trkpt lat="38.20240217" lon="-2.26528334">
        <ele>922.00000</ele>
        <time>2018-10-12T11:17:31Z</time>
      </trkpt>
      <trkpt lat="38.20266167" lon="-2.26510204">
        <ele>922.00000</ele>
        <time>2018-10-12T11:17:35Z</time>
      </trkpt>
      <trkpt lat="38.20287776" lon="-2.26497095">
        <ele>921.00000</ele>
        <time>2018-10-12T11:17:38Z</time>
      </trkpt>
      <trkpt lat="38.20295655" lon="-2.26494790">
        <ele>921.00000</ele>
        <time>2018-10-12T11:17:39Z</time>
      </trkpt>
      <trkpt lat="38.20319795" lon="-2.26485217">
        <ele>920.00000</ele>
        <time>2018-10-12T11:17:42Z</time>
      </trkpt>
      <trkpt lat="38.20328118" lon="-2.26481152">
        <ele>920.00000</ele>
        <time>2018-10-12T11:17:43Z</time>
      </trkpt>
      <trkpt lat="38.20351478" lon="-2.26468906">
        <ele>919.00000</ele>
        <time>2018-10-12T11:17:46Z</time>
      </trkpt>
      <trkpt lat="38.20366306" lon="-2.26462595">
        <ele>918.00000</ele>
        <time>2018-10-12T11:17:48Z</time>
      </trkpt>
      <trkpt lat="38.20380278" lon="-2.26458731">
        <ele>916.00000</ele>
        <time>2018-10-12T11:17:50Z</time>
      </trkpt>
      <trkpt lat="38.20395307" lon="-2.26456895">
        <ele>916.00000</ele>
        <time>2018-10-12T11:17:52Z</time>
      </trkpt>
      <trkpt lat="38.20425683" lon="-2.26464799">
        <ele>916.00000</ele>
        <time>2018-10-12T11:17:56Z</time>
      </trkpt>
      <trkpt lat="38.20434233" lon="-2.26467339">
        <ele>916.00000</ele>
        <time>2018-10-12T11:17:57Z</time>
      </trkpt>
      <trkpt lat="38.20441776" lon="-2.26468236">
        <ele>915.00000</ele>
        <time>2018-10-12T11:17:58Z</time>
      </trkpt>
      <trkpt lat="38.20463460" lon="-2.26470390">
        <ele>915.00000</ele>
        <time>2018-10-12T11:18:01Z</time>
      </trkpt>
      <trkpt lat="38.20477894" lon="-2.26469493">
        <ele>915.00000</ele>
        <time>2018-10-12T11:18:03Z</time>
      </trkpt>
      <trkpt lat="38.20489453" lon="-2.26470222">
        <ele>915.00000</ele>
        <time>2018-10-12T11:18:05Z</time>
      </trkpt>
      <trkpt lat="38.20502797" lon="-2.26469988">
        <ele>915.00000</ele>
        <time>2018-10-12T11:18:07Z</time>
      </trkpt>
      <trkpt lat="38.20533751" lon="-2.26461589">
        <ele>915.00000</ele>
        <time>2018-10-12T11:18:13Z</time>
      </trkpt>
      <trkpt lat="38.20549107" lon="-2.26453123">
        <ele>916.00000</ele>
        <time>2018-10-12T11:18:16Z</time>
      </trkpt>
      <trkpt lat="38.20553390" lon="-2.26450525">
        <ele>917.00000</ele>
        <time>2018-10-12T11:18:17Z</time>
      </trkpt>
      <trkpt lat="38.20567639" lon="-2.26441539">
        <ele>917.00000</ele>
        <time>2018-10-12T11:18:20Z</time>
      </trkpt>
      <trkpt lat="38.20576809" lon="-2.26434985">
        <ele>918.00000</ele>
        <time>2018-10-12T11:18:22Z</time>
      </trkpt>
      <trkpt lat="38.20582265" lon="-2.26431615">
        <ele>918.00000</ele>
        <time>2018-10-12T11:18:23Z</time>
      </trkpt>
      <trkpt lat="38.20601301" lon="-2.26416427">
        <ele>919.00000</ele>
        <time>2018-10-12T11:18:27Z</time>
      </trkpt>
      <trkpt lat="38.20618936" lon="-2.26400812">
        <ele>919.00000</ele>
        <time>2018-10-12T11:18:31Z</time>
      </trkpt>
      <trkpt lat="38.20628014" lon="-2.26387694">
        <ele>920.00000</ele>
        <time>2018-10-12T11:18:34Z</time>
      </trkpt>
      <trkpt lat="38.20630093" lon="-2.26382640">
        <ele>920.00000</ele>
        <time>2018-10-12T11:18:35Z</time>
      </trkpt>
      <trkpt lat="38.20638173" lon="-2.26362255">
        <ele>921.00000</ele>
        <time>2018-10-12T11:18:39Z</time>
      </trkpt>
      <trkpt lat="38.20639195" lon="-2.26357335">
        <ele>921.00000</ele>
        <time>2018-10-12T11:18:40Z</time>
      </trkpt>
      <trkpt lat="38.20639623" lon="-2.26344469">
        <ele>922.00000</ele>
        <time>2018-10-12T11:18:43Z</time>
      </trkpt>
      <trkpt lat="38.20639229" lon="-2.26340663">
        <ele>922.00000</ele>
        <time>2018-10-12T11:18:44Z</time>
      </trkpt>
      <trkpt lat="38.20643437" lon="-2.26327453">
        <ele>923.00000</ele>
        <time>2018-10-12T11:18:47Z</time>
      </trkpt>
      <trkpt lat="38.20646253" lon="-2.26322868">
        <ele>923.00000</ele>
        <time>2018-10-12T11:18:48Z</time>
      </trkpt>
      <trkpt lat="38.20654450" lon="-2.26314034">
        <ele>925.00000</ele>
        <time>2018-10-12T11:18:51Z</time>
      </trkpt>
      <trkpt lat="38.20674659" lon="-2.26311502">
        <ele>926.00000</ele>
        <time>2018-10-12T11:18:56Z</time>
      </trkpt>
      <trkpt lat="38.20684676" lon="-2.26316959">
        <ele>926.00000</ele>
        <time>2018-10-12T11:18:58Z</time>
      </trkpt>
      <trkpt lat="38.20694667" lon="-2.26334905">
        <ele>927.00000</ele>
        <time>2018-10-12T11:19:02Z</time>
      </trkpt>
      <trkpt lat="38.20695589" lon="-2.26340663">
        <ele>927.00000</ele>
        <time>2018-10-12T11:19:03Z</time>
      </trkpt>
      <trkpt lat="38.20700509" lon="-2.26364258">
        <ele>928.00000</ele>
        <time>2018-10-12T11:19:07Z</time>
      </trkpt>
      <trkpt lat="38.20709243" lon="-2.26395288">
        <ele>929.00000</ele>
        <time>2018-10-12T11:19:12Z</time>
      </trkpt>
      <trkpt lat="38.20718572" lon="-2.26412815">
        <ele>929.00000</ele>
        <time>2018-10-12T11:19:15Z</time>
      </trkpt>
      <trkpt lat="38.20735713" lon="-2.26430727">
        <ele>929.00000</ele>
        <time>2018-10-12T11:19:19Z</time>
      </trkpt>
      <trkpt lat="38.20740633" lon="-2.26433727">
        <ele>929.00000</ele>
        <time>2018-10-12T11:19:20Z</time>
      </trkpt>
      <trkpt lat="38.20773582" lon="-2.26450617">
        <ele>929.00000</ele>
        <time>2018-10-12T11:19:27Z</time>
      </trkpt>
      <trkpt lat="38.20785351" lon="-2.26459787">
        <ele>930.00000</ele>
        <time>2018-10-12T11:19:30Z</time>
      </trkpt>
      <trkpt lat="38.20807755" lon="-2.26474296">
        <ele>930.00000</ele>
        <time>2018-10-12T11:19:35Z</time>
      </trkpt>
      <trkpt lat="38.20837486" lon="-2.26467372">
        <ele>930.00000</ele>
        <time>2018-10-12T11:19:41Z</time>
      </trkpt>
      <trkpt lat="38.20865448" lon="-2.26451061">
        <ele>930.00000</ele>
        <time>2018-10-12T11:19:45Z</time>
      </trkpt>
      <trkpt lat="38.20896084" lon="-2.26427583">
        <ele>928.00000</ele>
        <time>2018-10-12T11:19:49Z</time>
      </trkpt>
      <trkpt lat="38.20910710" lon="-2.26416335">
        <ele>927.00000</ele>
        <time>2018-10-12T11:19:51Z</time>
      </trkpt>
      <trkpt lat="38.20926519" lon="-2.26404902">
        <ele>925.00000</ele>
        <time>2018-10-12T11:19:53Z</time>
      </trkpt>
      <trkpt lat="38.20942210" lon="-2.26393218">
        <ele>924.00000</ele>
        <time>2018-10-12T11:19:55Z</time>
      </trkpt>
      <trkpt lat="38.20957892" lon="-2.26381651">
        <ele>922.00000</ele>
        <time>2018-10-12T11:19:57Z</time>
      </trkpt>
      <trkpt lat="38.20982837" lon="-2.26365507">
        <ele>922.00000</ele>
        <time>2018-10-12T11:20:00Z</time>
      </trkpt>
      <trkpt lat="38.20990975" lon="-2.26361450">
        <ele>921.00000</ele>
        <time>2018-10-12T11:20:01Z</time>
      </trkpt>
      <trkpt lat="38.20999424" lon="-2.26358324">
        <ele>921.00000</ele>
        <time>2018-10-12T11:20:02Z</time>
      </trkpt>
      <trkpt lat="38.21051753" lon="-2.26340102">
        <ele>921.00000</ele>
        <time>2018-10-12T11:20:09Z</time>
      </trkpt>
      <trkpt lat="38.21085398" lon="-2.26325316">
        <ele>922.00000</ele>
        <time>2018-10-12T11:20:15Z</time>
      </trkpt>
      <trkpt lat="38.21090745" lon="-2.26322893">
        <ele>923.00000</ele>
        <time>2018-10-12T11:20:16Z</time>
      </trkpt>
      <trkpt lat="38.21104550" lon="-2.26315140">
        <ele>924.00000</ele>
        <time>2018-10-12T11:20:19Z</time>
      </trkpt>
      <trkpt lat="38.21113888" lon="-2.26309432">
        <ele>926.00000</ele>
        <time>2018-10-12T11:20:21Z</time>
      </trkpt>
      <trkpt lat="38.21118062" lon="-2.26306163">
        <ele>926.00000</ele>
        <time>2018-10-12T11:20:22Z</time>
      </trkpt>
      <trkpt lat="38.21124533" lon="-2.26298385">
        <ele>927.00000</ele>
        <time>2018-10-12T11:20:24Z</time>
      </trkpt>
      <trkpt lat="38.21130618" lon="-2.26282803">
        <ele>928.00000</ele>
        <time>2018-10-12T11:20:27Z</time>
      </trkpt>
      <trkpt lat="38.21132051" lon="-2.26277304">
        <ele>929.00000</ele>
        <time>2018-10-12T11:20:28Z</time>
      </trkpt>
      <trkpt lat="38.21134859" lon="-2.26254799">
        <ele>929.00000</ele>
        <time>2018-10-12T11:20:33Z</time>
      </trkpt>
      <trkpt lat="38.21130970" lon="-2.26249937">
        <ele>930.00000</ele>
        <time>2018-10-12T11:20:35Z</time>
      </trkpt>
      <trkpt lat="38.21130802" lon="-2.26247364">
        <ele>930.00000</ele>
        <time>2018-10-12T11:20:39Z</time>
      </trkpt>
      <trkpt lat="38.21141188" lon="-2.26242855">
        <ele>931.00000</ele>
        <time>2018-10-12T11:20:42Z</time>
      </trkpt>
      <trkpt lat="38.21176920" lon="-2.26213485">
        <ele>933.00000</ele>
        <time>2018-10-12T11:20:46Z</time>
      </trkpt>
      <trkpt lat="38.21182108" lon="-2.26208304">
        <ele>933.00000</ele>
        <time>2018-10-12T11:20:47Z</time>
      </trkpt>
      <trkpt lat="38.21195016" lon="-2.26187459">
        <ele>933.00000</ele>
        <time>2018-10-12T11:20:51Z</time>
      </trkpt>
      <trkpt lat="38.21201185" lon="-2.26177761">
        <ele>933.00000</ele>
        <time>2018-10-12T11:20:53Z</time>
      </trkpt>
      <trkpt lat="38.21212165" lon="-2.26169354">
        <ele>934.00000</ele>
        <time>2018-10-12T11:20:56Z</time>
      </trkpt>
      <trkpt lat="38.21253354" lon="-2.26171701">
        <ele>935.00000</ele>
        <time>2018-10-12T11:21:00Z</time>
      </trkpt>
      <trkpt lat="38.21268467" lon="-2.26188540">
        <ele>936.00000</ele>
        <time>2018-10-12T11:21:04Z</time>
      </trkpt>
      <trkpt lat="38.21268609" lon="-2.26211842">
        <ele>937.00000</ele>
        <time>2018-10-12T11:21:08Z</time>
      </trkpt>
      <trkpt lat="38.21267637" lon="-2.26245126">
        <ele>937.00000</ele>
        <time>2018-10-12T11:21:14Z</time>
      </trkpt>
      <trkpt lat="38.21271535" lon="-2.26270976">
        <ele>938.00000</ele>
        <time>2018-10-12T11:21:19Z</time>
      </trkpt>
      <trkpt lat="38.21273370" lon="-2.26276055">
        <ele>939.00000</ele>
        <time>2018-10-12T11:21:20Z</time>
      </trkpt>
      <trkpt lat="38.21292238" lon="-2.26304847">
        <ele>940.00000</ele>
        <time>2018-10-12T11:21:27Z</time>
      </trkpt>
      <trkpt lat="38.21297133" lon="-2.26312081">
        <ele>941.00000</ele>
        <time>2018-10-12T11:21:29Z</time>
      </trkpt>
      <trkpt lat="38.21307166" lon="-2.26326397">
        <ele>942.00000</ele>
        <time>2018-10-12T11:21:33Z</time>
      </trkpt>
      <trkpt lat="38.21320527" lon="-2.26349607">
        <ele>943.00000</ele>
        <time>2018-10-12T11:21:39Z</time>
      </trkpt>
      <trkpt lat="38.21327115" lon="-2.26361023">
        <ele>944.00000</ele>
        <time>2018-10-12T11:21:42Z</time>
      </trkpt>
      <trkpt lat="38.21335698" lon="-2.26376630">
        <ele>945.00000</ele>
        <time>2018-10-12T11:21:46Z</time>
      </trkpt>
      <trkpt lat="38.21349126" lon="-2.26397953">
        <ele>946.00000</ele>
        <time>2018-10-12T11:21:52Z</time>
      </trkpt>
      <trkpt lat="38.21355991" lon="-2.26408297">
        <ele>948.00000</ele>
        <time>2018-10-12T11:21:55Z</time>
      </trkpt>
      <trkpt lat="38.21365839" lon="-2.26427064">
        <ele>949.00000</ele>
        <time>2018-10-12T11:22:00Z</time>
      </trkpt>
      <trkpt lat="38.21378395" lon="-2.26448924">
        <ele>950.00000</ele>
        <time>2018-10-12T11:22:06Z</time>
      </trkpt>
      <trkpt lat="38.21388630" lon="-2.26467657">
        <ele>951.00000</ele>
        <time>2018-10-12T11:22:11Z</time>
      </trkpt>
      <trkpt lat="38.21399576" lon="-2.26491001">
        <ele>952.00000</ele>
        <time>2018-10-12T11:22:17Z</time>
      </trkpt>
      <trkpt lat="38.21410951" lon="-2.26508419">
        <ele>953.00000</ele>
        <time>2018-10-12T11:22:22Z</time>
      </trkpt>
      <trkpt lat="38.21426399" lon="-2.26527378">
        <ele>954.00000</ele>
        <time>2018-10-12T11:22:28Z</time>
      </trkpt>
      <trkpt lat="38.21440271" lon="-2.26542374">
        <ele>956.00000</ele>
        <time>2018-10-12T11:22:33Z</time>
      </trkpt>
      <trkpt lat="38.21464897" lon="-2.26561426">
        <ele>957.00000</ele>
        <time>2018-10-12T11:22:41Z</time>
      </trkpt>
      <trkpt lat="38.21477260" lon="-2.26570017">
        <ele>958.00000</ele>
        <time>2018-10-12T11:22:45Z</time>
      </trkpt>
      <trkpt lat="38.21490688" lon="-2.26577745">
        <ele>959.00000</ele>
        <time>2018-10-12T11:22:49Z</time>
      </trkpt>
      <trkpt lat="38.21518122" lon="-2.26585758">
        <ele>960.00000</ele>
        <time>2018-10-12T11:22:56Z</time>
      </trkpt>
      <trkpt lat="38.21554566" lon="-2.26587150">
        <ele>960.00000</ele>
        <time>2018-10-12T11:23:02Z</time>
      </trkpt>
      <trkpt lat="38.21592201" lon="-2.26582942">
        <ele>959.00000</ele>
        <time>2018-10-12T11:23:07Z</time>
      </trkpt>
      <trkpt lat="38.21608965" lon="-2.26579229">
        <ele>958.00000</ele>
        <time>2018-10-12T11:23:09Z</time>
      </trkpt>
      <trkpt lat="38.21625678" lon="-2.26575776">
        <ele>956.00000</ele>
        <time>2018-10-12T11:23:11Z</time>
      </trkpt>
      <trkpt lat="38.21645208" lon="-2.26572808">
        <ele>955.00000</ele>
        <time>2018-10-12T11:23:13Z</time>
      </trkpt>
      <trkpt lat="38.21666934" lon="-2.26572850">
        <ele>953.00000</ele>
        <time>2018-10-12T11:23:15Z</time>
      </trkpt>
      <trkpt lat="38.21689347" lon="-2.26573336">
        <ele>951.00000</ele>
        <time>2018-10-12T11:23:17Z</time>
      </trkpt>
      <trkpt lat="38.21713361" lon="-2.26573512">
        <ele>950.00000</ele>
        <time>2018-10-12T11:23:19Z</time>
      </trkpt>
      <trkpt lat="38.21738029" lon="-2.26572356">
        <ele>948.00000</ele>
        <time>2018-10-12T11:23:21Z</time>
      </trkpt>
      <trkpt lat="38.21749337" lon="-2.26570084">
        <ele>947.00000</ele>
        <time>2018-10-12T11:23:22Z</time>
      </trkpt>
      <trkpt lat="38.21760870" lon="-2.26566757">
        <ele>946.00000</ele>
        <time>2018-10-12T11:23:23Z</time>
      </trkpt>
      <trkpt lat="38.21772563" lon="-2.26562331">
        <ele>945.00000</ele>
        <time>2018-10-12T11:23:24Z</time>
      </trkpt>
      <trkpt lat="38.21783878" lon="-2.26557428">
        <ele>944.00000</ele>
        <time>2018-10-12T11:23:25Z</time>
      </trkpt>
      <trkpt lat="38.21795755" lon="-2.26552030">
        <ele>943.00000</ele>
        <time>2018-10-12T11:23:26Z</time>
      </trkpt>
      <trkpt lat="38.21807825" lon="-2.26546808">
        <ele>942.00000</ele>
        <time>2018-10-12T11:23:27Z</time>
      </trkpt>
      <trkpt lat="38.21820792" lon="-2.26541535">
        <ele>941.00000</ele>
        <time>2018-10-12T11:23:28Z</time>
      </trkpt>
      <trkpt lat="38.21833223" lon="-2.26536070">
        <ele>940.00000</ele>
        <time>2018-10-12T11:23:29Z</time>
      </trkpt>
      <trkpt lat="38.21846382" lon="-2.26530798">
        <ele>939.00000</ele>
        <time>2018-10-12T11:23:30Z</time>
      </trkpt>
      <trkpt lat="38.21859634" lon="-2.26525643">
        <ele>937.00000</ele>
        <time>2018-10-12T11:23:31Z</time>
      </trkpt>
      <trkpt lat="38.21873841" lon="-2.26519357">
        <ele>936.00000</ele>
        <time>2018-10-12T11:23:32Z</time>
      </trkpt>
      <trkpt lat="38.21887998" lon="-2.26512358">
        <ele>935.00000</ele>
        <time>2018-10-12T11:23:33Z</time>
      </trkpt>
      <trkpt lat="38.21900621" lon="-2.26505292">
        <ele>933.00000</ele>
        <time>2018-10-12T11:23:34Z</time>
      </trkpt>
      <trkpt lat="38.21913370" lon="-2.26498369">
        <ele>932.00000</ele>
        <time>2018-10-12T11:23:35Z</time>
      </trkpt>
      <trkpt lat="38.21925382" lon="-2.26491420">
        <ele>930.00000</ele>
        <time>2018-10-12T11:23:36Z</time>
      </trkpt>
      <trkpt lat="38.21937368" lon="-2.26485284">
        <ele>929.00000</ele>
        <time>2018-10-12T11:23:37Z</time>
      </trkpt>
      <trkpt lat="38.21948918" lon="-2.26479266">
        <ele>928.00000</ele>
        <time>2018-10-12T11:23:38Z</time>
      </trkpt>
      <trkpt lat="38.21960234" lon="-2.26473080">
        <ele>927.00000</ele>
        <time>2018-10-12T11:23:39Z</time>
      </trkpt>
      <trkpt lat="38.21969244" lon="-2.26468604">
        <ele>925.00000</ele>
        <time>2018-10-12T11:23:40Z</time>
      </trkpt>
      <trkpt lat="38.21978481" lon="-2.26465755">
        <ele>924.00000</ele>
        <time>2018-10-12T11:23:41Z</time>
      </trkpt>
      <trkpt lat="38.21989461" lon="-2.26464548">
        <ele>922.00000</ele>
        <time>2018-10-12T11:23:42Z</time>
      </trkpt>
      <trkpt lat="38.22009963" lon="-2.26464204">
        <ele>921.00000</ele>
        <time>2018-10-12T11:23:44Z</time>
      </trkpt>
      <trkpt lat="38.22028487" lon="-2.26455680">
        <ele>920.00000</ele>
        <time>2018-10-12T11:23:46Z</time>
      </trkpt>
      <trkpt lat="38.22037498" lon="-2.26450391">
        <ele>920.00000</ele>
        <time>2018-10-12T11:23:47Z</time>
      </trkpt>
      <trkpt lat="38.22073180" lon="-2.26430634">
        <ele>919.00000</ele>
        <time>2018-10-12T11:23:51Z</time>
      </trkpt>
      <trkpt lat="38.22079751" lon="-2.26428346">
        <ele>919.00000</ele>
        <time>2018-10-12T11:23:52Z</time>
      </trkpt>
      <trkpt lat="38.22095233" lon="-2.26442277">
        <ele>918.00000</ele>
        <time>2018-10-12T11:23:55Z</time>
      </trkpt>
      <trkpt lat="38.22096163" lon="-2.26451346">
        <ele>918.00000</ele>
        <time>2018-10-12T11:23:56Z</time>
      </trkpt>
      <trkpt lat="38.22090564" lon="-2.26467037">
        <ele>918.00000</ele>
        <time>2018-10-12T11:23:58Z</time>
      </trkpt>
      <trkpt lat="38.22071688" lon="-2.26478973">
        <ele>917.00000</ele>
        <time>2018-10-12T11:24:01Z</time>
      </trkpt>
      <trkpt lat="38.22065276" lon="-2.26481546">
        <ele>917.00000</ele>
        <time>2018-10-12T11:24:02Z</time>
      </trkpt>
      <trkpt lat="38.22058746" lon="-2.26484882">
        <ele>917.00000</ele>
        <time>2018-10-12T11:24:03Z</time>
      </trkpt>
      <trkpt lat="38.22047380" lon="-2.26496625">
        <ele>916.00000</ele>
        <time>2018-10-12T11:24:05Z</time>
      </trkpt>
      <trkpt lat="38.22036584" lon="-2.26511654">
        <ele>915.00000</ele>
        <time>2018-10-12T11:24:07Z</time>
      </trkpt>
      <trkpt lat="38.22025026" lon="-2.26529172">
        <ele>913.00000</ele>
        <time>2018-10-12T11:24:09Z</time>
      </trkpt>
      <trkpt lat="38.22005513" lon="-2.26556581">
        <ele>912.00000</ele>
        <time>2018-10-12T11:24:12Z</time>
      </trkpt>
      <trkpt lat="38.21992361" lon="-2.26572548">
        <ele>911.00000</ele>
        <time>2018-10-12T11:24:14Z</time>
      </trkpt>
      <trkpt lat="38.21982186" lon="-2.26586261">
        <ele>909.00000</ele>
        <time>2018-10-12T11:24:16Z</time>
      </trkpt>
      <trkpt lat="38.21979152" lon="-2.26593629">
        <ele>908.00000</ele>
        <time>2018-10-12T11:24:17Z</time>
      </trkpt>
      <trkpt lat="38.21978330" lon="-2.26601759">
        <ele>907.00000</ele>
        <time>2018-10-12T11:24:18Z</time>
      </trkpt>
      <trkpt lat="38.21981155" lon="-2.26615958">
        <ele>905.00000</ele>
        <time>2018-10-12T11:24:20Z</time>
      </trkpt>
      <trkpt lat="38.22002059" lon="-2.26617375">
        <ele>904.00000</ele>
        <time>2018-10-12T11:24:24Z</time>
      </trkpt>
      <trkpt lat="38.22007977" lon="-2.26615212">
        <ele>904.00000</ele>
        <time>2018-10-12T11:24:25Z</time>
      </trkpt>
      <trkpt lat="38.22014632" lon="-2.26612505">
        <ele>904.00000</ele>
        <time>2018-10-12T11:24:26Z</time>
      </trkpt>
      <trkpt lat="38.22021120" lon="-2.26610720">
        <ele>904.00000</ele>
        <time>2018-10-12T11:24:27Z</time>
      </trkpt>
      <trkpt lat="38.22028747" lon="-2.26609370">
        <ele>904.00000</ele>
        <time>2018-10-12T11:24:28Z</time>
      </trkpt>
      <trkpt lat="38.22064655" lon="-2.26608398">
        <ele>902.00000</ele>
        <time>2018-10-12T11:24:32Z</time>
      </trkpt>
      <trkpt lat="38.22084286" lon="-2.26606529">
        <ele>901.00000</ele>
        <time>2018-10-12T11:24:34Z</time>
      </trkpt>
      <trkpt lat="38.22105232" lon="-2.26603788">
        <ele>900.00000</ele>
        <time>2018-10-12T11:24:36Z</time>
      </trkpt>
      <trkpt lat="38.22126128" lon="-2.26598742">
        <ele>899.00000</ele>
        <time>2018-10-12T11:24:38Z</time>
      </trkpt>
      <trkpt lat="38.22142473" lon="-2.26596680">
        <ele>897.00000</ele>
        <time>2018-10-12T11:24:40Z</time>
      </trkpt>
      <trkpt lat="38.22149815" lon="-2.26598021">
        <ele>896.00000</ele>
        <time>2018-10-12T11:24:41Z</time>
      </trkpt>
      <trkpt lat="38.22161315" lon="-2.26606554">
        <ele>894.00000</ele>
        <time>2018-10-12T11:24:43Z</time>
      </trkpt>
      <trkpt lat="38.22170921" lon="-2.26623116">
        <ele>892.00000</ele>
        <time>2018-10-12T11:24:45Z</time>
      </trkpt>
      <trkpt lat="38.22181172" lon="-2.26658865">
        <ele>891.00000</ele>
        <time>2018-10-12T11:24:48Z</time>
      </trkpt>
      <trkpt lat="38.22186470" lon="-2.26684849">
        <ele>891.00000</ele>
        <time>2018-10-12T11:24:50Z</time>
      </trkpt>
      <trkpt lat="38.22189931" lon="-2.26709878">
        <ele>890.00000</ele>
        <time>2018-10-12T11:24:52Z</time>
      </trkpt>
      <trkpt lat="38.22192605" lon="-2.26735149">
        <ele>887.00000</ele>
        <time>2018-10-12T11:24:54Z</time>
      </trkpt>
      <trkpt lat="38.22193016" lon="-2.26746884">
        <ele>886.00000</ele>
        <time>2018-10-12T11:24:55Z</time>
      </trkpt>
      <trkpt lat="38.22191851" lon="-2.26767797">
        <ele>884.00000</ele>
        <time>2018-10-12T11:24:57Z</time>
      </trkpt>
      <trkpt lat="38.22188967" lon="-2.26777402">
        <ele>883.00000</ele>
        <time>2018-10-12T11:24:58Z</time>
      </trkpt>
      <trkpt lat="38.22178758" lon="-2.26793797">
        <ele>881.00000</ele>
        <time>2018-10-12T11:25:00Z</time>
      </trkpt>
      <trkpt lat="38.22174726" lon="-2.26802020">
        <ele>880.00000</ele>
        <time>2018-10-12T11:25:01Z</time>
      </trkpt>
      <trkpt lat="38.22173285" lon="-2.26811592">
        <ele>880.00000</ele>
        <time>2018-10-12T11:25:02Z</time>
      </trkpt>
      <trkpt lat="38.22178297" lon="-2.26839219">
        <ele>879.00000</ele>
        <time>2018-10-12T11:25:05Z</time>
      </trkpt>
      <trkpt lat="38.22189135" lon="-2.26855630">
        <ele>877.00000</ele>
        <time>2018-10-12T11:25:07Z</time>
      </trkpt>
      <trkpt lat="38.22200476" lon="-2.26872964">
        <ele>877.00000</ele>
        <time>2018-10-12T11:25:09Z</time>
      </trkpt>
      <trkpt lat="38.22205983" lon="-2.26882972">
        <ele>876.00000</ele>
        <time>2018-10-12T11:25:10Z</time>
      </trkpt>
      <trkpt lat="38.22209352" lon="-2.26893793">
        <ele>876.00000</ele>
        <time>2018-10-12T11:25:11Z</time>
      </trkpt>
      <trkpt lat="38.22213166" lon="-2.26917807">
        <ele>875.00000</ele>
        <time>2018-10-12T11:25:13Z</time>
      </trkpt>
      <trkpt lat="38.22214038" lon="-2.26931168">
        <ele>874.00000</ele>
        <time>2018-10-12T11:25:14Z</time>
      </trkpt>
      <trkpt lat="38.22215102" lon="-2.26943984">
        <ele>873.00000</ele>
        <time>2018-10-12T11:25:15Z</time>
      </trkpt>
      <trkpt lat="38.22219771" lon="-2.26969926">
        <ele>871.00000</ele>
        <time>2018-10-12T11:25:17Z</time>
      </trkpt>
      <trkpt lat="38.22222788" lon="-2.26982130">
        <ele>870.00000</ele>
        <time>2018-10-12T11:25:18Z</time>
      </trkpt>
      <trkpt lat="38.22229972" lon="-2.27006161">
        <ele>867.00000</ele>
        <time>2018-10-12T11:25:20Z</time>
      </trkpt>
      <trkpt lat="38.22237415" lon="-2.27029086">
        <ele>866.00000</ele>
        <time>2018-10-12T11:25:22Z</time>
      </trkpt>
      <trkpt lat="38.22242536" lon="-2.27041189">
        <ele>865.00000</ele>
        <time>2018-10-12T11:25:23Z</time>
      </trkpt>
      <trkpt lat="38.22253332" lon="-2.27064457">
        <ele>863.00000</ele>
        <time>2018-10-12T11:25:25Z</time>
      </trkpt>
      <trkpt lat="38.22266240" lon="-2.27085689">
        <ele>861.00000</ele>
        <time>2018-10-12T11:25:27Z</time>
      </trkpt>
      <trkpt lat="38.22278846" lon="-2.27103232">
        <ele>860.00000</ele>
        <time>2018-10-12T11:25:29Z</time>
      </trkpt>
      <trkpt lat="38.22292232" lon="-2.27115067">
        <ele>858.00000</ele>
        <time>2018-10-12T11:25:31Z</time>
      </trkpt>
      <trkpt lat="38.22306104" lon="-2.27117171">
        <ele>856.00000</ele>
        <time>2018-10-12T11:25:33Z</time>
      </trkpt>
      <trkpt lat="38.22320245" lon="-2.27108906">
        <ele>855.00000</ele>
        <time>2018-10-12T11:25:35Z</time>
      </trkpt>
      <trkpt lat="38.22344217" lon="-2.27078019">
        <ele>853.00000</ele>
        <time>2018-10-12T11:25:39Z</time>
      </trkpt>
      <trkpt lat="38.22363093" lon="-2.27074800">
        <ele>852.00000</ele>
        <time>2018-10-12T11:25:42Z</time>
      </trkpt>
      <trkpt lat="38.22377577" lon="-2.27085454">
        <ele>851.00000</ele>
        <time>2018-10-12T11:25:44Z</time>
      </trkpt>
      <trkpt lat="38.22382656" lon="-2.27093693">
        <ele>850.00000</ele>
        <time>2018-10-12T11:25:45Z</time>
      </trkpt>
      <trkpt lat="38.22387208" lon="-2.27102897">
        <ele>850.00000</ele>
        <time>2018-10-12T11:25:46Z</time>
      </trkpt>
      <trkpt lat="38.22391985" lon="-2.27112318">
        <ele>850.00000</ele>
        <time>2018-10-12T11:25:47Z</time>
      </trkpt>
      <trkpt lat="38.22401675" lon="-2.27131848">
        <ele>849.00000</ele>
        <time>2018-10-12T11:25:49Z</time>
      </trkpt>
      <trkpt lat="38.22406402" lon="-2.27154772">
        <ele>848.00000</ele>
        <time>2018-10-12T11:25:51Z</time>
      </trkpt>
      <trkpt lat="38.22409135" lon="-2.27188233">
        <ele>848.00000</ele>
        <time>2018-10-12T11:25:54Z</time>
      </trkpt>
      <trkpt lat="38.22411540" lon="-2.27196170">
        <ele>847.00000</ele>
        <time>2018-10-12T11:25:55Z</time>
      </trkpt>
      <trkpt lat="38.22420593" lon="-2.27205877">
        <ele>845.00000</ele>
        <time>2018-10-12T11:25:57Z</time>
      </trkpt>
      <trkpt lat="38.22434272" lon="-2.27204938">
        <ele>844.00000</ele>
        <time>2018-10-12T11:25:59Z</time>
      </trkpt>
      <trkpt lat="38.22456710" lon="-2.27183656">
        <ele>842.00000</ele>
        <time>2018-10-12T11:26:03Z</time>
      </trkpt>
      <trkpt lat="38.22474245" lon="-2.27157530">
        <ele>841.00000</ele>
        <time>2018-10-12T11:26:07Z</time>
      </trkpt>
      <trkpt lat="38.22479719" lon="-2.27150858">
        <ele>840.00000</ele>
        <time>2018-10-12T11:26:08Z</time>
      </trkpt>
      <trkpt lat="38.22498226" lon="-2.27135645">
        <ele>840.00000</ele>
        <time>2018-10-12T11:26:11Z</time>
      </trkpt>
      <trkpt lat="38.22519533" lon="-2.27127841">
        <ele>840.00000</ele>
        <time>2018-10-12T11:26:14Z</time>
      </trkpt>
      <trkpt lat="38.22527110" lon="-2.27124958">
        <ele>840.00000</ele>
        <time>2018-10-12T11:26:15Z</time>
      </trkpt>
      <trkpt lat="38.22554385" lon="-2.27110834">
        <ele>839.00000</ele>
        <time>2018-10-12T11:26:19Z</time>
      </trkpt>
      <trkpt lat="38.22575122" lon="-2.27106895">
        <ele>839.00000</ele>
        <time>2018-10-12T11:26:22Z</time>
      </trkpt>
      <trkpt lat="38.22623217" lon="-2.27095504">
        <ele>838.00000</ele>
        <time>2018-10-12T11:26:29Z</time>
      </trkpt>
      <trkpt lat="38.22629964" lon="-2.27094599">
        <ele>838.00000</ele>
        <time>2018-10-12T11:26:30Z</time>
      </trkpt>
      <trkpt lat="38.22662570" lon="-2.27108865">
        <ele>838.00000</ele>
        <time>2018-10-12T11:26:35Z</time>
      </trkpt>
      <trkpt lat="38.22681119" lon="-2.27122041">
        <ele>838.00000</ele>
        <time>2018-10-12T11:26:38Z</time>
      </trkpt>
      <trkpt lat="38.22687531" lon="-2.27124572">
        <ele>838.00000</ele>
        <time>2018-10-12T11:26:39Z</time>
      </trkpt>
      <trkpt lat="38.22712526" lon="-2.27127908">
        <ele>838.00000</ele>
        <time>2018-10-12T11:26:43Z</time>
      </trkpt>
      <trkpt lat="38.22718444" lon="-2.27126684">
        <ele>837.00000</ele>
        <time>2018-10-12T11:26:44Z</time>
      </trkpt>
      <trkpt lat="38.22742994" lon="-2.27119451">
        <ele>837.00000</ele>
        <time>2018-10-12T11:26:48Z</time>
      </trkpt>
      <trkpt lat="38.22749633" lon="-2.27121102">
        <ele>837.00000</ele>
        <time>2018-10-12T11:26:49Z</time>
      </trkpt>
      <trkpt lat="38.22781006" lon="-2.27144194">
        <ele>837.00000</ele>
        <time>2018-10-12T11:26:54Z</time>
      </trkpt>
      <trkpt lat="38.22787410" lon="-2.27149165">
        <ele>837.00000</ele>
        <time>2018-10-12T11:26:55Z</time>
      </trkpt>
      <trkpt lat="38.22793554" lon="-2.27155183">
        <ele>837.00000</ele>
        <time>2018-10-12T11:26:56Z</time>
      </trkpt>
      <trkpt lat="38.22812271" lon="-2.27173196">
        <ele>836.00000</ele>
        <time>2018-10-12T11:26:59Z</time>
      </trkpt>
      <trkpt lat="38.22831599" lon="-2.27184846">
        <ele>836.00000</ele>
        <time>2018-10-12T11:27:02Z</time>
      </trkpt>
      <trkpt lat="38.22845170" lon="-2.27195374">
        <ele>835.00000</ele>
        <time>2018-10-12T11:27:04Z</time>
      </trkpt>
      <trkpt lat="38.22853007" lon="-2.27197553">
        <ele>834.00000</ele>
        <time>2018-10-12T11:27:05Z</time>
      </trkpt>
      <trkpt lat="38.22871103" lon="-2.27200454">
        <ele>832.00000</ele>
        <time>2018-10-12T11:27:07Z</time>
      </trkpt>
      <trkpt lat="38.22887490" lon="-2.27194469">
        <ele>831.00000</ele>
        <time>2018-10-12T11:27:09Z</time>
      </trkpt>
      <trkpt lat="38.22895428" lon="-2.27194787">
        <ele>830.00000</ele>
        <time>2018-10-12T11:27:10Z</time>
      </trkpt>
      <trkpt lat="38.22904086" lon="-2.27197604">
        <ele>828.00000</ele>
        <time>2018-10-12T11:27:11Z</time>
      </trkpt>
      <trkpt lat="38.22924932" lon="-2.27192063">
        <ele>827.00000</ele>
        <time>2018-10-12T11:27:14Z</time>
      </trkpt>
      <trkpt lat="38.22936365" lon="-2.27181888">
        <ele>826.00000</ele>
        <time>2018-10-12T11:27:16Z</time>
      </trkpt>
      <trkpt lat="38.22942727" lon="-2.27178426">
        <ele>826.00000</ele>
        <time>2018-10-12T11:27:17Z</time>
      </trkpt>
      <trkpt lat="38.22974352" lon="-2.27180471">
        <ele>825.00000</ele>
        <time>2018-10-12T11:27:21Z</time>
      </trkpt>
      <trkpt lat="38.22991459" lon="-2.27181460">
        <ele>823.00000</ele>
        <time>2018-10-12T11:27:23Z</time>
      </trkpt>
      <trkpt lat="38.23006245" lon="-2.27182340">
        <ele>822.00000</ele>
        <time>2018-10-12T11:27:25Z</time>
      </trkpt>
      <trkpt lat="38.23012489" lon="-2.27182097">
        <ele>822.00000</ele>
        <time>2018-10-12T11:27:26Z</time>
      </trkpt>
      <trkpt lat="38.23028742" lon="-2.27195835">
        <ele>821.00000</ele>
        <time>2018-10-12T11:27:29Z</time>
      </trkpt>
      <trkpt lat="38.23034098" lon="-2.27216010">
        <ele>819.00000</ele>
        <time>2018-10-12T11:27:31Z</time>
      </trkpt>
      <trkpt lat="38.23045447" lon="-2.27243009">
        <ele>818.00000</ele>
        <time>2018-10-12T11:27:34Z</time>
      </trkpt>
      <trkpt lat="38.23055991" lon="-2.27268934">
        <ele>817.00000</ele>
        <time>2018-10-12T11:27:37Z</time>
      </trkpt>
      <trkpt lat="38.23058766" lon="-2.27275991">
        <ele>817.00000</ele>
        <time>2018-10-12T11:27:38Z</time>
      </trkpt>
      <trkpt lat="38.23062621" lon="-2.27281666">
        <ele>816.00000</ele>
        <time>2018-10-12T11:27:39Z</time>
      </trkpt>
      <trkpt lat="38.23071883" lon="-2.27291967">
        <ele>814.00000</ele>
        <time>2018-10-12T11:27:41Z</time>
      </trkpt>
      <trkpt lat="38.23077281" lon="-2.27308857">
        <ele>813.00000</ele>
        <time>2018-10-12T11:27:43Z</time>
      </trkpt>
      <trkpt lat="38.23079679" lon="-2.27318337">
        <ele>812.00000</ele>
        <time>2018-10-12T11:27:44Z</time>
      </trkpt>
      <trkpt lat="38.23084834" lon="-2.27337649">
        <ele>811.00000</ele>
        <time>2018-10-12T11:27:46Z</time>
      </trkpt>
      <trkpt lat="38.23091254" lon="-2.27351579">
        <ele>810.00000</ele>
        <time>2018-10-12T11:27:48Z</time>
      </trkpt>
      <trkpt lat="38.23102897" lon="-2.27366214">
        <ele>809.00000</ele>
        <time>2018-10-12T11:27:51Z</time>
      </trkpt>
      <trkpt lat="38.23106551" lon="-2.27369558">
        <ele>809.00000</ele>
        <time>2018-10-12T11:27:52Z</time>
      </trkpt>
      <trkpt lat="38.23113248" lon="-2.27376423">
        <ele>809.00000</ele>
        <time>2018-10-12T11:27:54Z</time>
      </trkpt>
      <trkpt lat="38.23119191" lon="-2.27381737">
        <ele>809.00000</ele>
        <time>2018-10-12T11:27:56Z</time>
      </trkpt>
      <trkpt lat="38.23130968" lon="-2.27385090">
        <ele>809.00000</ele>
        <time>2018-10-12T11:27:59Z</time>
      </trkpt>
      <trkpt lat="38.23134580" lon="-2.27385174">
        <ele>810.00000</ele>
        <time>2018-10-12T11:28:00Z</time>
      </trkpt>
      <trkpt lat="38.23141579" lon="-2.27382400">
        <ele>811.00000</ele>
        <time>2018-10-12T11:28:02Z</time>
      </trkpt>
      <trkpt lat="38.23146952" lon="-2.27375694">
        <ele>812.00000</ele>
        <time>2018-10-12T11:28:04Z</time>
      </trkpt>
      <trkpt lat="38.23149039" lon="-2.27371998">
        <ele>812.00000</ele>
        <time>2018-10-12T11:28:05Z</time>
      </trkpt>
      <trkpt lat="38.23151914" lon="-2.27363741">
        <ele>813.00000</ele>
        <time>2018-10-12T11:28:07Z</time>
      </trkpt>
      <trkpt lat="38.23153230" lon="-2.27359467">
        <ele>813.00000</ele>
        <time>2018-10-12T11:28:08Z</time>
      </trkpt>
      <trkpt lat="38.23157412" lon="-2.27347564">
        <ele>814.00000</ele>
        <time>2018-10-12T11:28:11Z</time>
      </trkpt>
      <trkpt lat="38.23163079" lon="-2.27332209">
        <ele>816.00000</ele>
        <time>2018-10-12T11:28:15Z</time>
      </trkpt>
      <trkpt lat="38.23167739" lon="-2.27317046">
        <ele>817.00000</ele>
        <time>2018-10-12T11:28:19Z</time>
      </trkpt>
      <trkpt lat="38.23171259" lon="-2.27301590">
        <ele>818.00000</ele>
        <time>2018-10-12T11:28:23Z</time>
      </trkpt>
      <trkpt lat="38.23173824" lon="-2.27285639">
        <ele>819.00000</ele>
        <time>2018-10-12T11:28:27Z</time>
      </trkpt>
      <trkpt lat="38.23175735" lon="-2.27269738">
        <ele>820.00000</ele>
        <time>2018-10-12T11:28:31Z</time>
      </trkpt>
      <trkpt lat="38.23178887" lon="-2.27253930">
        <ele>821.00000</ele>
        <time>2018-10-12T11:28:35Z</time>
      </trkpt>
      <trkpt lat="38.23184268" lon="-2.27237644">
        <ele>823.00000</ele>
        <time>2018-10-12T11:28:39Z</time>
      </trkpt>
      <trkpt lat="38.23195290" lon="-2.27226706">
        <ele>824.00000</ele>
        <time>2018-10-12T11:28:43Z</time>
      </trkpt>
      <trkpt lat="38.23206287" lon="-2.27217435">
        <ele>825.00000</ele>
        <time>2018-10-12T11:28:47Z</time>
      </trkpt>
      <trkpt lat="38.23215147" lon="-2.27193430">
        <ele>825.00000</ele>
        <time>2018-10-12T11:28:53Z</time>
      </trkpt>
      <trkpt lat="38.23250368" lon="-2.27176523">
        <ele>824.00000</ele>
        <time>2018-10-12T11:28:58Z</time>
      </trkpt>
      <trkpt lat="38.23266411" lon="-2.27162827">
        <ele>823.00000</ele>
        <time>2018-10-12T11:29:00Z</time>
      </trkpt>
      <trkpt lat="38.23283677" lon="-2.27150690">
        <ele>822.00000</ele>
        <time>2018-10-12T11:29:02Z</time>
      </trkpt>
      <trkpt lat="38.23301631" lon="-2.27142325">
        <ele>820.00000</ele>
        <time>2018-10-12T11:29:04Z</time>
      </trkpt>
      <trkpt lat="38.23308991" lon="-2.27135921">
        <ele>819.00000</ele>
        <time>2018-10-12T11:29:05Z</time>
      </trkpt>
      <trkpt lat="38.23319443" lon="-2.27117372">
        <ele>818.00000</ele>
        <time>2018-10-12T11:29:07Z</time>
      </trkpt>
      <trkpt lat="38.23326626" lon="-2.27096635">
        <ele>817.00000</ele>
        <time>2018-10-12T11:29:09Z</time>
      </trkpt>
      <trkpt lat="38.23330415" lon="-2.27086108">
        <ele>816.00000</ele>
        <time>2018-10-12T11:29:10Z</time>
      </trkpt>
      <trkpt lat="38.23337833" lon="-2.27066419">
        <ele>815.00000</ele>
        <time>2018-10-12T11:29:12Z</time>
      </trkpt>
      <trkpt lat="38.23343424" lon="-2.27049202">
        <ele>814.00000</ele>
        <time>2018-10-12T11:29:14Z</time>
      </trkpt>
      <trkpt lat="38.23348159" lon="-2.27033369">
        <ele>814.00000</ele>
        <time>2018-10-12T11:29:16Z</time>
      </trkpt>
      <trkpt lat="38.23355946" lon="-2.26978744">
        <ele>816.00000</ele>
        <time>2018-10-12T11:29:27Z</time>
      </trkpt>
      <trkpt lat="38.23355829" lon="-2.26972499">
        <ele>817.00000</ele>
        <time>2018-10-12T11:29:29Z</time>
      </trkpt>
      <trkpt lat="38.23356080" lon="-2.26969675">
        <ele>818.00000</ele>
        <time>2018-10-12T11:29:30Z</time>
      </trkpt>
      <trkpt lat="38.23357664" lon="-2.26962667">
        <ele>819.00000</ele>
        <time>2018-10-12T11:29:32Z</time>
      </trkpt>
      <trkpt lat="38.23358863" lon="-2.26958426">
        <ele>819.00000</ele>
        <time>2018-10-12T11:29:33Z</time>
      </trkpt>
      <trkpt lat="38.23360682" lon="-2.26949550">
        <ele>820.00000</ele>
        <time>2018-10-12T11:29:35Z</time>
      </trkpt>
      <trkpt lat="38.23361897" lon="-2.26945367">
        <ele>820.00000</ele>
        <time>2018-10-12T11:29:36Z</time>
      </trkpt>
      <trkpt lat="38.23363716" lon="-2.26933666">
        <ele>821.00000</ele>
        <time>2018-10-12T11:29:39Z</time>
      </trkpt>
      <trkpt lat="38.23365124" lon="-2.26917615">
        <ele>822.00000</ele>
        <time>2018-10-12T11:29:43Z</time>
      </trkpt>
      <trkpt lat="38.23368159" lon="-2.26902267">
        <ele>823.00000</ele>
        <time>2018-10-12T11:29:47Z</time>
      </trkpt>
      <trkpt lat="38.23373582" lon="-2.26889267">
        <ele>825.00000</ele>
        <time>2018-10-12T11:29:51Z</time>
      </trkpt>
      <trkpt lat="38.23384453" lon="-2.26878337">
        <ele>826.00000</ele>
        <time>2018-10-12T11:29:56Z</time>
      </trkpt>
      <trkpt lat="38.23397085" lon="-2.26879251">
        <ele>827.00000</ele>
        <time>2018-10-12T11:30:00Z</time>
      </trkpt>
      <trkpt lat="38.23407445" lon="-2.26882134">
        <ele>828.00000</ele>
        <time>2018-10-12T11:30:03Z</time>
      </trkpt>
      <trkpt lat="38.23417570" lon="-2.26883450">
        <ele>829.00000</ele>
        <time>2018-10-12T11:30:06Z</time>
      </trkpt>
      <trkpt lat="38.23431082" lon="-2.26881841">
        <ele>831.00000</ele>
        <time>2018-10-12T11:30:10Z</time>
      </trkpt>
      <trkpt lat="38.23442967" lon="-2.26876602">
        <ele>832.00000</ele>
        <time>2018-10-12T11:30:14Z</time>
      </trkpt>
      <trkpt lat="38.23451902" lon="-2.26864658">
        <ele>833.00000</ele>
        <time>2018-10-12T11:30:18Z</time>
      </trkpt>
      <trkpt lat="38.23456789" lon="-2.26849319">
        <ele>834.00000</ele>
        <time>2018-10-12T11:30:22Z</time>
      </trkpt>
      <trkpt lat="38.23465506" lon="-2.26832228">
        <ele>835.00000</ele>
        <time>2018-10-12T11:30:27Z</time>
      </trkpt>
      <trkpt lat="38.23476126" lon="-2.26824793">
        <ele>837.00000</ele>
        <time>2018-10-12T11:30:31Z</time>
      </trkpt>
      <trkpt lat="38.23486218" lon="-2.26822698">
        <ele>838.00000</ele>
        <time>2018-10-12T11:30:35Z</time>
      </trkpt>
      <trkpt lat="38.23498187" lon="-2.26823905">
        <ele>839.00000</ele>
        <time>2018-10-12T11:30:39Z</time>
      </trkpt>
      <trkpt lat="38.23507986" lon="-2.26825246">
        <ele>840.00000</ele>
        <time>2018-10-12T11:30:42Z</time>
      </trkpt>
      <trkpt lat="38.23520617" lon="-2.26825238">
        <ele>841.00000</ele>
        <time>2018-10-12T11:30:46Z</time>
      </trkpt>
      <trkpt lat="38.23534422" lon="-2.26820971">
        <ele>843.00000</ele>
        <time>2018-10-12T11:30:51Z</time>
      </trkpt>
      <trkpt lat="38.23546006" lon="-2.26809530">
        <ele>844.00000</ele>
        <time>2018-10-12T11:30:56Z</time>
      </trkpt>
      <trkpt lat="38.23553181" lon="-2.26792708">
        <ele>845.00000</ele>
        <time>2018-10-12T11:31:01Z</time>
      </trkpt>
      <trkpt lat="38.23559903" lon="-2.26778727">
        <ele>846.00000</ele>
        <time>2018-10-12T11:31:05Z</time>
      </trkpt>
      <trkpt lat="38.23568679" lon="-2.26765148">
        <ele>847.00000</ele>
        <time>2018-10-12T11:31:09Z</time>
      </trkpt>
      <trkpt lat="38.23578963" lon="-2.26752944">
        <ele>849.00000</ele>
        <time>2018-10-12T11:31:13Z</time>
      </trkpt>
      <trkpt lat="38.23581813" lon="-2.26751921">
        <ele>849.00000</ele>
        <time>2018-10-12T11:31:14Z</time>
      </trkpt>
      <trkpt lat="38.23600052" lon="-2.26764444">
        <ele>849.00000</ele>
        <time>2018-10-12T11:31:20Z</time>
      </trkpt>
      <trkpt lat="38.23614528" lon="-2.26771015">
        <ele>850.00000</ele>
        <time>2018-10-12T11:31:24Z</time>
      </trkpt>
      <trkpt lat="38.23630604" lon="-2.26770135">
        <ele>850.00000</ele>
        <time>2018-10-12T11:31:28Z</time>
      </trkpt>
      <trkpt lat="38.23660201" lon="-2.26788341">
        <ele>850.00000</ele>
        <time>2018-10-12T11:31:36Z</time>
      </trkpt>
      <trkpt lat="38.23688264" lon="-2.26799120">
        <ele>851.00000</ele>
        <time>2018-10-12T11:31:43Z</time>
      </trkpt>
      <trkpt lat="38.23716167" lon="-2.26802037">
        <ele>851.00000</ele>
        <time>2018-10-12T11:31:50Z</time>
      </trkpt>
      <trkpt lat="38.23732771" lon="-2.26801618">
        <ele>852.00000</ele>
        <time>2018-10-12T11:31:54Z</time>
      </trkpt>
      <trkpt lat="38.23752519" lon="-2.26798550">
        <ele>852.00000</ele>
        <time>2018-10-12T11:31:59Z</time>
      </trkpt>
      <trkpt lat="38.23770188" lon="-2.26790872">
        <ele>853.00000</ele>
        <time>2018-10-12T11:32:04Z</time>
      </trkpt>
      <trkpt lat="38.23792467" lon="-2.26784485">
        <ele>854.00000</ele>
        <time>2018-10-12T11:32:11Z</time>
      </trkpt>
      <trkpt lat="38.23808695" lon="-2.26778274">
        <ele>855.00000</ele>
        <time>2018-10-12T11:32:16Z</time>
      </trkpt>
      <trkpt lat="38.23820178" lon="-2.26769381">
        <ele>856.00000</ele>
        <time>2018-10-12T11:32:20Z</time>
      </trkpt>
      <trkpt lat="38.23831242" lon="-2.26761728">
        <ele>857.00000</ele>
        <time>2018-10-12T11:32:24Z</time>
      </trkpt>
      <trkpt lat="38.23839138" lon="-2.26755224">
        <ele>859.00000</ele>
        <time>2018-10-12T11:32:27Z</time>
      </trkpt>
      <trkpt lat="38.23850009" lon="-2.26747680">
        <ele>860.00000</ele>
        <time>2018-10-12T11:32:31Z</time>
      </trkpt>
      <trkpt lat="38.23864803" lon="-2.26742575">
        <ele>861.00000</ele>
        <time>2018-10-12T11:32:36Z</time>
      </trkpt>
      <trkpt lat="38.23877477" lon="-2.26745660">
        <ele>862.00000</ele>
        <time>2018-10-12T11:32:40Z</time>
      </trkpt>
      <trkpt lat="38.23887761" lon="-2.26756037">
        <ele>863.00000</ele>
        <time>2018-10-12T11:32:44Z</time>
      </trkpt>
      <trkpt lat="38.23888893" lon="-2.26759524">
        <ele>863.00000</ele>
        <time>2018-10-12T11:32:45Z</time>
      </trkpt>
      <trkpt lat="38.23893251" lon="-2.26778894">
        <ele>864.00000</ele>
        <time>2018-10-12T11:32:50Z</time>
      </trkpt>
      <trkpt lat="38.23900485" lon="-2.26797611">
        <ele>865.00000</ele>
        <time>2018-10-12T11:32:55Z</time>
      </trkpt>
      <trkpt lat="38.23916218" lon="-2.26832605">
        <ele>867.00000</ele>
        <time>2018-10-12T11:33:04Z</time>
      </trkpt>
      <trkpt lat="38.23924994" lon="-2.26848221">
        <ele>868.00000</ele>
        <time>2018-10-12T11:33:08Z</time>
      </trkpt>
      <trkpt lat="38.23947524" lon="-2.26864976">
        <ele>869.00000</ele>
        <time>2018-10-12T11:33:15Z</time>
      </trkpt>
      <trkpt lat="38.23952444" lon="-2.26881665">
        <ele>869.00000</ele>
        <time>2018-10-12T11:33:19Z</time>
      </trkpt>
      <trkpt lat="38.23953199" lon="-2.26901622">
        <ele>870.00000</ele>
        <time>2018-10-12T11:33:23Z</time>
      </trkpt>
      <trkpt lat="38.23953299" lon="-2.26939626">
        <ele>871.00000</ele>
        <time>2018-10-12T11:33:31Z</time>
      </trkpt>
      <trkpt lat="38.23961002" lon="-2.26964553">
        <ele>872.00000</ele>
        <time>2018-10-12T11:33:37Z</time>
      </trkpt>
      <trkpt lat="38.23978789" lon="-2.26979942">
        <ele>873.00000</ele>
        <time>2018-10-12T11:33:43Z</time>
      </trkpt>
      <trkpt lat="38.23988319" lon="-2.26972432">
        <ele>873.00000</ele>
        <time>2018-10-12T11:33:46Z</time>
      </trkpt>
      <trkpt lat="38.24003515" lon="-2.26930305">
        <ele>873.00000</ele>
        <time>2018-10-12T11:33:52Z</time>
      </trkpt>
      <trkpt lat="38.24009357" lon="-2.26911605">
        <ele>873.00000</ele>
        <time>2018-10-12T11:33:54Z</time>
      </trkpt>
      <trkpt lat="38.24012710" lon="-2.26901798">
        <ele>872.00000</ele>
        <time>2018-10-12T11:33:55Z</time>
      </trkpt>
      <trkpt lat="38.24016826" lon="-2.26892578">
        <ele>871.00000</ele>
        <time>2018-10-12T11:33:56Z</time>
      </trkpt>
      <trkpt lat="38.24020505" lon="-2.26884196">
        <ele>871.00000</ele>
        <time>2018-10-12T11:33:57Z</time>
      </trkpt>
      <trkpt lat="38.24030337" lon="-2.26866611">
        <ele>870.00000</ele>
        <time>2018-10-12T11:33:59Z</time>
      </trkpt>
      <trkpt lat="38.24042759" lon="-2.26848196">
        <ele>868.00000</ele>
        <time>2018-10-12T11:34:01Z</time>
      </trkpt>
      <trkpt lat="38.24055240" lon="-2.26830963">
        <ele>866.00000</ele>
        <time>2018-10-12T11:34:03Z</time>
      </trkpt>
      <trkpt lat="38.24067846" lon="-2.26814341">
        <ele>865.00000</ele>
        <time>2018-10-12T11:34:05Z</time>
      </trkpt>
      <trkpt lat="38.24079841" lon="-2.26797192">
        <ele>862.00000</ele>
        <time>2018-10-12T11:34:07Z</time>
      </trkpt>
      <trkpt lat="38.24086320" lon="-2.26788265">
        <ele>861.00000</ele>
        <time>2018-10-12T11:34:08Z</time>
      </trkpt>
      <trkpt lat="38.24092565" lon="-2.26779020">
        <ele>860.00000</ele>
        <time>2018-10-12T11:34:09Z</time>
      </trkpt>
      <trkpt lat="38.24097569" lon="-2.26769456">
        <ele>859.00000</ele>
        <time>2018-10-12T11:34:10Z</time>
      </trkpt>
      <trkpt lat="38.24101651" lon="-2.26759599">
        <ele>858.00000</ele>
        <time>2018-10-12T11:34:11Z</time>
      </trkpt>
      <trkpt lat="38.24107719" lon="-2.26738988">
        <ele>857.00000</ele>
        <time>2018-10-12T11:34:13Z</time>
      </trkpt>
      <trkpt lat="38.24110217" lon="-2.26729340">
        <ele>856.00000</ele>
        <time>2018-10-12T11:34:14Z</time>
      </trkpt>
      <trkpt lat="38.24112564" lon="-2.26720171">
        <ele>855.00000</ele>
        <time>2018-10-12T11:34:15Z</time>
      </trkpt>
      <trkpt lat="38.24117509" lon="-2.26705661">
        <ele>854.00000</ele>
        <time>2018-10-12T11:34:17Z</time>
      </trkpt>
      <trkpt lat="38.24124642" lon="-2.26697145">
        <ele>852.00000</ele>
        <time>2018-10-12T11:34:19Z</time>
      </trkpt>
      <trkpt lat="38.24134005" lon="-2.26693323">
        <ele>851.00000</ele>
        <time>2018-10-12T11:34:21Z</time>
      </trkpt>
      <trkpt lat="38.24148765" lon="-2.26713264">
        <ele>850.00000</ele>
        <time>2018-10-12T11:34:26Z</time>
      </trkpt>
      <trkpt lat="38.24152386" lon="-2.26719408">
        <ele>850.00000</ele>
        <time>2018-10-12T11:34:27Z</time>
      </trkpt>
      <trkpt lat="38.24161891" lon="-2.26731260">
        <ele>849.00000</ele>
        <time>2018-10-12T11:34:29Z</time>
      </trkpt>
      <trkpt lat="38.24171170" lon="-2.26744931">
        <ele>849.00000</ele>
        <time>2018-10-12T11:34:31Z</time>
      </trkpt>
      <trkpt lat="38.24180616" lon="-2.26767729">
        <ele>848.00000</ele>
        <time>2018-10-12T11:34:34Z</time>
      </trkpt>
      <trkpt lat="38.24184866" lon="-2.26791098">
        <ele>847.00000</ele>
        <time>2018-10-12T11:34:37Z</time>
      </trkpt>
      <trkpt lat="38.24188655" lon="-2.26816965">
        <ele>845.00000</ele>
        <time>2018-10-12T11:34:40Z</time>
      </trkpt>
      <trkpt lat="38.24194187" lon="-2.26841658">
        <ele>844.00000</ele>
        <time>2018-10-12T11:34:43Z</time>
      </trkpt>
      <trkpt lat="38.24203088" lon="-2.26867432">
        <ele>844.00000</ele>
        <time>2018-10-12T11:34:46Z</time>
      </trkpt>
      <trkpt lat="38.24215142" lon="-2.26895880">
        <ele>843.00000</ele>
        <time>2018-10-12T11:34:49Z</time>
      </trkpt>
      <trkpt lat="38.24228947" lon="-2.26920330">
        <ele>843.00000</ele>
        <time>2018-10-12T11:34:52Z</time>
      </trkpt>
      <trkpt lat="38.24235987" lon="-2.26936541">
        <ele>842.00000</ele>
        <time>2018-10-12T11:34:54Z</time>
      </trkpt>
      <trkpt lat="38.24240690" lon="-2.26963413">
        <ele>842.00000</ele>
        <time>2018-10-12T11:34:58Z</time>
      </trkpt>
      <trkpt lat="38.24241293" lon="-2.26970194">
        <ele>842.00000</ele>
        <time>2018-10-12T11:34:59Z</time>
      </trkpt>
      <trkpt lat="38.24242441" lon="-2.26983346">
        <ele>842.00000</ele>
        <time>2018-10-12T11:35:01Z</time>
      </trkpt>
      <trkpt lat="38.24246356" lon="-2.26996036">
        <ele>842.00000</ele>
        <time>2018-10-12T11:35:03Z</time>
      </trkpt>
      <trkpt lat="38.24289925" lon="-2.26987914">
        <ele>841.00000</ele>
        <time>2018-10-12T11:35:13Z</time>
      </trkpt>
      <trkpt lat="38.24290453" lon="-2.26978618">
        <ele>841.00000</ele>
        <time>2018-10-12T11:35:14Z</time>
      </trkpt>
      <trkpt lat="38.24290369" lon="-2.26968702">
        <ele>841.00000</ele>
        <time>2018-10-12T11:35:15Z</time>
      </trkpt>
      <trkpt lat="38.24289950" lon="-2.26959172">
        <ele>841.00000</ele>
        <time>2018-10-12T11:35:16Z</time>
      </trkpt>
      <trkpt lat="38.24289623" lon="-2.26950338">
        <ele>840.00000</ele>
        <time>2018-10-12T11:35:17Z</time>
      </trkpt>
      <trkpt lat="38.24291920" lon="-2.26928888">
        <ele>838.00000</ele>
        <time>2018-10-12T11:35:20Z</time>
      </trkpt>
      <trkpt lat="38.24296773" lon="-2.26913943">
        <ele>837.00000</ele>
        <time>2018-10-12T11:35:22Z</time>
      </trkpt>
      <trkpt lat="38.24300277" lon="-2.26905704">
        <ele>836.00000</ele>
        <time>2018-10-12T11:35:23Z</time>
      </trkpt>
      <trkpt lat="38.24308340" lon="-2.26886317">
        <ele>835.00000</ele>
        <time>2018-10-12T11:35:25Z</time>
      </trkpt>
      <trkpt lat="38.24321064" lon="-2.26855815">
        <ele>834.00000</ele>
        <time>2018-10-12T11:35:28Z</time>
      </trkpt>
      <trkpt lat="38.24330954" lon="-2.26828666">
        <ele>832.00000</ele>
        <time>2018-10-12T11:35:31Z</time>
      </trkpt>
      <trkpt lat="38.24332488" lon="-2.26820242">
        <ele>831.00000</ele>
        <time>2018-10-12T11:35:32Z</time>
      </trkpt>
      <trkpt lat="38.24334198" lon="-2.26803026">
        <ele>829.00000</ele>
        <time>2018-10-12T11:35:34Z</time>
      </trkpt>
      <trkpt lat="38.24336159" lon="-2.26777670">
        <ele>828.00000</ele>
        <time>2018-10-12T11:35:37Z</time>
      </trkpt>
      <trkpt lat="38.24337048" lon="-2.26770428">
        <ele>828.00000</ele>
        <time>2018-10-12T11:35:38Z</time>
      </trkpt>
      <trkpt lat="38.24355941" lon="-2.26761074">
        <ele>827.00000</ele>
        <time>2018-10-12T11:35:43Z</time>
      </trkpt>
      <trkpt lat="38.24354658" lon="-2.26813880">
        <ele>826.00000</ele>
        <time>2018-10-12T11:35:49Z</time>
      </trkpt>
      <trkpt lat="38.24355589" lon="-2.26834131">
        <ele>824.00000</ele>
        <time>2018-10-12T11:35:51Z</time>
      </trkpt>
      <trkpt lat="38.24354918" lon="-2.26855203">
        <ele>823.00000</ele>
        <time>2018-10-12T11:35:53Z</time>
      </trkpt>
      <trkpt lat="38.24353577" lon="-2.26865513">
        <ele>822.00000</ele>
        <time>2018-10-12T11:35:54Z</time>
      </trkpt>
      <trkpt lat="38.24351725" lon="-2.26875261">
        <ele>822.00000</ele>
        <time>2018-10-12T11:35:55Z</time>
      </trkpt>
      <trkpt lat="38.24348850" lon="-2.26891580">
        <ele>821.00000</ele>
        <time>2018-10-12T11:35:57Z</time>
      </trkpt>
      <trkpt lat="38.24350895" lon="-2.26904472">
        <ele>819.00000</ele>
        <time>2018-10-12T11:35:59Z</time>
      </trkpt>
      <trkpt lat="38.24364624" lon="-2.26919333">
        <ele>818.00000</ele>
        <time>2018-10-12T11:36:02Z</time>
      </trkpt>
      <trkpt lat="38.24371053" lon="-2.26923557">
        <ele>818.00000</ele>
        <time>2018-10-12T11:36:03Z</time>
      </trkpt>
      <trkpt lat="38.24399904" lon="-2.26942266">
        <ele>817.00000</ele>
        <time>2018-10-12T11:36:07Z</time>
      </trkpt>
      <trkpt lat="38.24406031" lon="-2.26947354">
        <ele>817.00000</ele>
        <time>2018-10-12T11:36:08Z</time>
      </trkpt>
      <trkpt lat="38.24411161" lon="-2.26952617">
        <ele>816.00000</ele>
        <time>2018-10-12T11:36:09Z</time>
      </trkpt>
      <trkpt lat="38.24415570" lon="-2.26958636">
        <ele>815.00000</ele>
        <time>2018-10-12T11:36:10Z</time>
      </trkpt>
      <trkpt lat="38.24419216" lon="-2.26965576">
        <ele>814.00000</ele>
        <time>2018-10-12T11:36:11Z</time>
      </trkpt>
      <trkpt lat="38.24422057" lon="-2.26972868">
        <ele>813.00000</ele>
        <time>2018-10-12T11:36:12Z</time>
      </trkpt>
      <trkpt lat="38.24424304" lon="-2.26980445">
        <ele>812.00000</ele>
        <time>2018-10-12T11:36:13Z</time>
      </trkpt>
      <trkpt lat="38.24426357" lon="-2.26988836">
        <ele>811.00000</ele>
        <time>2018-10-12T11:36:14Z</time>
      </trkpt>
      <trkpt lat="38.24428210" lon="-2.26997016">
        <ele>810.00000</ele>
        <time>2018-10-12T11:36:15Z</time>
      </trkpt>
      <trkpt lat="38.24430380" lon="-2.27005407">
        <ele>810.00000</ele>
        <time>2018-10-12T11:36:16Z</time>
      </trkpt>
      <trkpt lat="38.24439550" lon="-2.27040041">
        <ele>808.00000</ele>
        <time>2018-10-12T11:36:20Z</time>
      </trkpt>
      <trkpt lat="38.24441000" lon="-2.27047517">
        <ele>808.00000</ele>
        <time>2018-10-12T11:36:21Z</time>
      </trkpt>
      <trkpt lat="38.24446658" lon="-2.27068112">
        <ele>807.00000</ele>
        <time>2018-10-12T11:36:24Z</time>
      </trkpt>
      <trkpt lat="38.24450355" lon="-2.27085035">
        <ele>807.00000</ele>
        <time>2018-10-12T11:36:26Z</time>
      </trkpt>
      <trkpt lat="38.24459281" lon="-2.27109074">
        <ele>806.00000</ele>
        <time>2018-10-12T11:36:29Z</time>
      </trkpt>
      <trkpt lat="38.24470119" lon="-2.27133616">
        <ele>806.00000</ele>
        <time>2018-10-12T11:36:32Z</time>
      </trkpt>
      <trkpt lat="38.24481359" lon="-2.27143708">
        <ele>805.00000</ele>
        <time>2018-10-12T11:36:34Z</time>
      </trkpt>
      <trkpt lat="38.24495080" lon="-2.27142057">
        <ele>804.00000</ele>
        <time>2018-10-12T11:36:36Z</time>
      </trkpt>
      <trkpt lat="38.24504963" lon="-2.27130146">
        <ele>802.00000</ele>
        <time>2018-10-12T11:36:38Z</time>
      </trkpt>
      <trkpt lat="38.24512783" lon="-2.27105101">
        <ele>800.00000</ele>
        <time>2018-10-12T11:36:41Z</time>
      </trkpt>
      <trkpt lat="38.24513822" lon="-2.27097691">
        <ele>799.00000</ele>
        <time>2018-10-12T11:36:42Z</time>
      </trkpt>
      <trkpt lat="38.24513831" lon="-2.27090072">
        <ele>799.00000</ele>
        <time>2018-10-12T11:36:43Z</time>
      </trkpt>
      <trkpt lat="38.24511718" lon="-2.27075287">
        <ele>798.00000</ele>
        <time>2018-10-12T11:36:45Z</time>
      </trkpt>
      <trkpt lat="38.24511316" lon="-2.27069352">
        <ele>797.00000</ele>
        <time>2018-10-12T11:36:46Z</time>
      </trkpt>
      <trkpt lat="38.24511450" lon="-2.27063862">
        <ele>796.00000</ele>
        <time>2018-10-12T11:36:47Z</time>
      </trkpt>
      <trkpt lat="38.24513210" lon="-2.27055346">
        <ele>795.00000</ele>
        <time>2018-10-12T11:36:49Z</time>
      </trkpt>
      <trkpt lat="38.24527845" lon="-2.27025322">
        <ele>794.00000</ele>
        <time>2018-10-12T11:36:55Z</time>
      </trkpt>
      <trkpt lat="38.24529731" lon="-2.27008734">
        <ele>794.00000</ele>
        <time>2018-10-12T11:36:57Z</time>
      </trkpt>
      <trkpt lat="38.24531232" lon="-2.26989389">
        <ele>793.00000</ele>
        <time>2018-10-12T11:36:59Z</time>
      </trkpt>
      <trkpt lat="38.24531625" lon="-2.26968669">
        <ele>792.00000</ele>
        <time>2018-10-12T11:37:01Z</time>
      </trkpt>
      <trkpt lat="38.24529748" lon="-2.26948628">
        <ele>791.00000</ele>
        <time>2018-10-12T11:37:03Z</time>
      </trkpt>
      <trkpt lat="38.24528440" lon="-2.26938687">
        <ele>790.00000</ele>
        <time>2018-10-12T11:37:04Z</time>
      </trkpt>
      <trkpt lat="38.24525037" lon="-2.26921303">
        <ele>788.00000</ele>
        <time>2018-10-12T11:37:06Z</time>
      </trkpt>
      <trkpt lat="38.24523478" lon="-2.26905260">
        <ele>787.00000</ele>
        <time>2018-10-12T11:37:08Z</time>
      </trkpt>
      <trkpt lat="38.24524886" lon="-2.26896995">
        <ele>787.00000</ele>
        <time>2018-10-12T11:37:09Z</time>
      </trkpt>
      <trkpt lat="38.24527233" lon="-2.26888597">
        <ele>785.00000</ele>
        <time>2018-10-12T11:37:10Z</time>
      </trkpt>
      <trkpt lat="38.24538155" lon="-2.26861783">
        <ele>784.00000</ele>
        <time>2018-10-12T11:37:13Z</time>
      </trkpt>
      <trkpt lat="38.24550728" lon="-2.26835330">
        <ele>783.00000</ele>
        <time>2018-10-12T11:37:16Z</time>
      </trkpt>
      <trkpt lat="38.24562194" lon="-2.26821432">
        <ele>782.00000</ele>
        <time>2018-10-12T11:37:18Z</time>
      </trkpt>
      <trkpt lat="38.24576368" lon="-2.26809748">
        <ele>780.00000</ele>
        <time>2018-10-12T11:37:20Z</time>
      </trkpt>
      <trkpt lat="38.24592185" lon="-2.26799991">
        <ele>779.00000</ele>
        <time>2018-10-12T11:37:22Z</time>
      </trkpt>
      <trkpt lat="38.24600416" lon="-2.26795281">
        <ele>779.00000</ele>
        <time>2018-10-12T11:37:23Z</time>
      </trkpt>
      <trkpt lat="38.24641303" lon="-2.26769900">
        <ele>777.00000</ele>
        <time>2018-10-12T11:37:28Z</time>
      </trkpt>
      <trkpt lat="38.24652518" lon="-2.26756925">
        <ele>776.00000</ele>
        <time>2018-10-12T11:37:30Z</time>
      </trkpt>
      <trkpt lat="38.24660682" lon="-2.26742869">
        <ele>775.00000</ele>
        <time>2018-10-12T11:37:32Z</time>
      </trkpt>
      <trkpt lat="38.24672039" lon="-2.26733858">
        <ele>774.00000</ele>
        <time>2018-10-12T11:37:34Z</time>
      </trkpt>
      <trkpt lat="38.24695006" lon="-2.26729709">
        <ele>773.00000</ele>
        <time>2018-10-12T11:37:37Z</time>
      </trkpt>
      <trkpt lat="38.24712792" lon="-2.26726968">
        <ele>773.00000</ele>
        <time>2018-10-12T11:37:39Z</time>
      </trkpt>
      <trkpt lat="38.24747996" lon="-2.26709794">
        <ele>771.00000</ele>
        <time>2018-10-12T11:37:43Z</time>
      </trkpt>
      <trkpt lat="38.24764877" lon="-2.26699241">
        <ele>770.00000</ele>
        <time>2018-10-12T11:37:45Z</time>
      </trkpt>
      <trkpt lat="38.24779897" lon="-2.26687774">
        <ele>769.00000</ele>
        <time>2018-10-12T11:37:47Z</time>
      </trkpt>
      <trkpt lat="38.24785647" lon="-2.26682058">
        <ele>768.00000</ele>
        <time>2018-10-12T11:37:48Z</time>
      </trkpt>
      <trkpt lat="38.24790869" lon="-2.26675621">
        <ele>767.00000</ele>
        <time>2018-10-12T11:37:49Z</time>
      </trkpt>
      <trkpt lat="38.24799888" lon="-2.26662009">
        <ele>766.00000</ele>
        <time>2018-10-12T11:37:51Z</time>
      </trkpt>
      <trkpt lat="38.24838311" lon="-2.26648732">
        <ele>765.00000</ele>
        <time>2018-10-12T11:37:57Z</time>
      </trkpt>
      <trkpt lat="38.24844983" lon="-2.26647910">
        <ele>765.00000</ele>
        <time>2018-10-12T11:37:58Z</time>
      </trkpt>
      <trkpt lat="38.24857690" lon="-2.26643845">
        <ele>765.00000</ele>
        <time>2018-10-12T11:38:00Z</time>
      </trkpt>
      <trkpt lat="38.24863892" lon="-2.26640962">
        <ele>765.00000</ele>
        <time>2018-10-12T11:38:01Z</time>
      </trkpt>
      <trkpt lat="38.24876273" lon="-2.26633929">
        <ele>765.00000</ele>
        <time>2018-10-12T11:38:03Z</time>
      </trkpt>
      <trkpt lat="38.24921987" lon="-2.26605892">
        <ele>764.00000</ele>
        <time>2018-10-12T11:38:10Z</time>
      </trkpt>
      <trkpt lat="38.24947720" lon="-2.26592430">
        <ele>764.00000</ele>
        <time>2018-10-12T11:38:14Z</time>
      </trkpt>
      <trkpt lat="38.24980644" lon="-2.26595632">
        <ele>763.00000</ele>
        <time>2018-10-12T11:38:19Z</time>
      </trkpt>
      <trkpt lat="38.25024540" lon="-2.26608524">
        <ele>763.00000</ele>
        <time>2018-10-12T11:38:25Z</time>
      </trkpt>
      <trkpt lat="38.25040264" lon="-2.26613662">
        <ele>763.00000</ele>
        <time>2018-10-12T11:38:27Z</time>
      </trkpt>
      <trkpt lat="38.25056752" lon="-2.26618439">
        <ele>762.00000</ele>
        <time>2018-10-12T11:38:29Z</time>
      </trkpt>
      <trkpt lat="38.25065620" lon="-2.26619219">
        <ele>762.00000</ele>
        <time>2018-10-12T11:38:30Z</time>
      </trkpt>
      <trkpt lat="38.25083540" lon="-2.26618750">
        <ele>760.00000</ele>
        <time>2018-10-12T11:38:32Z</time>
      </trkpt>
      <trkpt lat="38.25102919" lon="-2.26618850">
        <ele>759.00000</ele>
        <time>2018-10-12T11:38:34Z</time>
      </trkpt>
      <trkpt lat="38.25132231" lon="-2.26619110">
        <ele>758.00000</ele>
        <time>2018-10-12T11:38:37Z</time>
      </trkpt>
      <trkpt lat="38.25158550" lon="-2.26617417">
        <ele>757.00000</ele>
        <time>2018-10-12T11:38:40Z</time>
      </trkpt>
      <trkpt lat="38.25182447" lon="-2.26608180">
        <ele>755.00000</ele>
        <time>2018-10-12T11:38:43Z</time>
      </trkpt>
      <trkpt lat="38.25189580" lon="-2.26606093">
        <ele>754.00000</ele>
        <time>2018-10-12T11:38:44Z</time>
      </trkpt>
      <trkpt lat="38.25203351" lon="-2.26608088">
        <ele>753.00000</ele>
        <time>2018-10-12T11:38:46Z</time>
      </trkpt>
      <trkpt lat="38.25215002" lon="-2.26616302">
        <ele>752.00000</ele>
        <time>2018-10-12T11:38:48Z</time>
      </trkpt>
      <trkpt lat="38.25221288" lon="-2.26620493">
        <ele>751.00000</ele>
        <time>2018-10-12T11:38:49Z</time>
      </trkpt>
      <trkpt lat="38.25228212" lon="-2.26623695">
        <ele>751.00000</ele>
        <time>2018-10-12T11:38:50Z</time>
      </trkpt>
      <trkpt lat="38.25243442" lon="-2.26626662">
        <ele>750.00000</ele>
        <time>2018-10-12T11:38:52Z</time>
      </trkpt>
      <trkpt lat="38.25267146" lon="-2.26628682">
        <ele>749.00000</ele>
        <time>2018-10-12T11:38:55Z</time>
      </trkpt>
      <trkpt lat="38.25275419" lon="-2.26629562">
        <ele>749.00000</ele>
        <time>2018-10-12T11:38:56Z</time>
      </trkpt>
      <trkpt lat="38.25291738" lon="-2.26631968">
        <ele>747.00000</ele>
        <time>2018-10-12T11:38:58Z</time>
      </trkpt>
      <trkpt lat="38.25306415" lon="-2.26639889">
        <ele>746.00000</ele>
        <time>2018-10-12T11:39:00Z</time>
      </trkpt>
      <trkpt lat="38.25317538" lon="-2.26652260">
        <ele>745.00000</ele>
        <time>2018-10-12T11:39:02Z</time>
      </trkpt>
      <trkpt lat="38.25322466" lon="-2.26658748">
        <ele>744.00000</ele>
        <time>2018-10-12T11:39:03Z</time>
      </trkpt>
      <trkpt lat="38.25327705" lon="-2.26664900">
        <ele>744.00000</ele>
        <time>2018-10-12T11:39:04Z</time>
      </trkpt>
      <trkpt lat="38.25338107" lon="-2.26677138">
        <ele>743.00000</ele>
        <time>2018-10-12T11:39:06Z</time>
      </trkpt>
      <trkpt lat="38.25382338" lon="-2.26727899">
        <ele>743.00000</ele>
        <time>2018-10-12T11:39:15Z</time>
      </trkpt>
      <trkpt lat="38.25392841" lon="-2.26737571">
        <ele>743.00000</ele>
        <time>2018-10-12T11:39:17Z</time>
      </trkpt>
      <trkpt lat="38.25408708" lon="-2.26743204">
        <ele>743.00000</ele>
        <time>2018-10-12T11:39:20Z</time>
      </trkpt>
      <trkpt lat="38.25418221" lon="-2.26740195">
        <ele>743.00000</ele>
        <time>2018-10-12T11:39:22Z</time>
      </trkpt>
      <trkpt lat="38.25433158" lon="-2.26715695">
        <ele>743.00000</ele>
        <time>2018-10-12T11:39:26Z</time>
      </trkpt>
      <trkpt lat="38.25436117" lon="-2.26707053">
        <ele>743.00000</ele>
        <time>2018-10-12T11:39:27Z</time>
      </trkpt>
      <trkpt lat="38.25441473" lon="-2.26688219">
        <ele>743.00000</ele>
        <time>2018-10-12T11:39:29Z</time>
      </trkpt>
      <trkpt lat="38.25443032" lon="-2.26678638">
        <ele>743.00000</ele>
        <time>2018-10-12T11:39:30Z</time>
      </trkpt>
      <trkpt lat="38.25439763" lon="-2.26637776">
        <ele>742.00000</ele>
        <time>2018-10-12T11:39:34Z</time>
      </trkpt>
      <trkpt lat="38.25445077" lon="-2.26605330">
        <ele>741.00000</ele>
        <time>2018-10-12T11:39:37Z</time>
      </trkpt>
      <trkpt lat="38.25448052" lon="-2.26594937">
        <ele>741.00000</ele>
        <time>2018-10-12T11:39:38Z</time>
      </trkpt>
      <trkpt lat="38.25451347" lon="-2.26585079">
        <ele>740.00000</ele>
        <time>2018-10-12T11:39:39Z</time>
      </trkpt>
      <trkpt lat="38.25459075" lon="-2.26567871">
        <ele>738.00000</ele>
        <time>2018-10-12T11:39:41Z</time>
      </trkpt>
      <trkpt lat="38.25468303" lon="-2.26554921">
        <ele>737.00000</ele>
        <time>2018-10-12T11:39:43Z</time>
      </trkpt>
      <trkpt lat="38.25480088" lon="-2.26545693">
        <ele>736.00000</ele>
        <time>2018-10-12T11:39:45Z</time>
      </trkpt>
      <trkpt lat="38.25500288" lon="-2.26538862">
        <ele>735.00000</ele>
        <time>2018-10-12T11:39:48Z</time>
      </trkpt>
      <trkpt lat="38.25512610" lon="-2.26539784">
        <ele>734.00000</ele>
        <time>2018-10-12T11:39:50Z</time>
      </trkpt>
      <trkpt lat="38.25516876" lon="-2.26542022">
        <ele>734.00000</ele>
        <time>2018-10-12T11:39:51Z</time>
      </trkpt>
      <trkpt lat="38.25525862" lon="-2.26549875">
        <ele>734.00000</ele>
        <time>2018-10-12T11:39:53Z</time>
      </trkpt>
      <trkpt lat="38.25532131" lon="-2.26561862">
        <ele>734.00000</ele>
        <time>2018-10-12T11:39:55Z</time>
      </trkpt>
      <trkpt lat="38.25537102" lon="-2.26574577">
        <ele>734.00000</ele>
        <time>2018-10-12T11:39:57Z</time>
      </trkpt>
      <trkpt lat="38.25542525" lon="-2.26587493">
        <ele>735.00000</ele>
        <time>2018-10-12T11:39:59Z</time>
      </trkpt>
      <trkpt lat="38.25549180" lon="-2.26605355">
        <ele>736.00000</ele>
        <time>2018-10-12T11:40:02Z</time>
      </trkpt>
      <trkpt lat="38.25557528" lon="-2.26634943">
        <ele>737.00000</ele>
        <time>2018-10-12T11:40:07Z</time>
      </trkpt>
      <trkpt lat="38.25561351" lon="-2.26652529">
        <ele>738.00000</ele>
        <time>2018-10-12T11:40:11Z</time>
      </trkpt>
      <trkpt lat="38.25563832" lon="-2.26664984">
        <ele>739.00000</ele>
        <time>2018-10-12T11:40:14Z</time>
      </trkpt>
      <trkpt lat="38.25567134" lon="-2.26678320">
        <ele>740.00000</ele>
        <time>2018-10-12T11:40:17Z</time>
      </trkpt>
      <trkpt lat="38.25573446" lon="-2.26697581">
        <ele>741.00000</ele>
        <time>2018-10-12T11:40:22Z</time>
      </trkpt>
      <trkpt lat="38.25575692" lon="-2.26704220">
        <ele>741.00000</ele>
        <time>2018-10-12T11:40:24Z</time>
      </trkpt>
      <trkpt lat="38.25577947" lon="-2.26712694">
        <ele>742.00000</ele>
        <time>2018-10-12T11:40:26Z</time>
      </trkpt>
      <trkpt lat="38.25582364" lon="-2.26725619">
        <ele>742.00000</ele>
        <time>2018-10-12T11:40:29Z</time>
      </trkpt>
      <trkpt lat="38.25589254" lon="-2.26741679">
        <ele>743.00000</ele>
        <time>2018-10-12T11:40:33Z</time>
      </trkpt>
      <trkpt lat="38.25595851" lon="-2.26747621">
        <ele>744.00000</ele>
        <time>2018-10-12T11:40:35Z</time>
      </trkpt>
      <trkpt lat="38.25612816" lon="-2.26750865">
        <ele>744.00000</ele>
        <time>2018-10-12T11:40:39Z</time>
      </trkpt>
      <trkpt lat="38.25616931" lon="-2.26749407">
        <ele>745.00000</ele>
        <time>2018-10-12T11:40:40Z</time>
      </trkpt>
      <trkpt lat="38.25633695" lon="-2.26730816">
        <ele>746.00000</ele>
        <time>2018-10-12T11:40:45Z</time>
      </trkpt>
      <trkpt lat="38.25636520" lon="-2.26726742">
        <ele>746.00000</ele>
        <time>2018-10-12T11:40:46Z</time>
      </trkpt>
      <trkpt lat="38.25647114" lon="-2.26710330">
        <ele>747.00000</ele>
        <time>2018-10-12T11:40:50Z</time>
      </trkpt>
      <trkpt lat="38.25652722" lon="-2.26697950">
        <ele>747.00000</ele>
        <time>2018-10-12T11:40:53Z</time>
      </trkpt>
      <trkpt lat="38.25664113" lon="-2.26641548">
        <ele>748.00000</ele>
        <time>2018-10-12T11:41:03Z</time>
      </trkpt>
      <trkpt lat="38.25669578" lon="-2.26605900">
        <ele>748.00000</ele>
        <time>2018-10-12T11:41:08Z</time>
      </trkpt>
      <trkpt lat="38.25674674" lon="-2.26584442">
        <ele>747.00000</ele>
        <time>2018-10-12T11:41:11Z</time>
      </trkpt>
      <trkpt lat="38.25681396" lon="-2.26565474">
        <ele>747.00000</ele>
        <time>2018-10-12T11:41:14Z</time>
      </trkpt>
      <trkpt lat="38.25695159" lon="-2.26547009">
        <ele>746.00000</ele>
        <time>2018-10-12T11:41:18Z</time>
      </trkpt>
      <trkpt lat="38.25717807" lon="-2.26527370">
        <ele>746.00000</ele>
        <time>2018-10-12T11:41:23Z</time>
      </trkpt>
      <trkpt lat="38.25768694" lon="-2.26494136">
        <ele>747.00000</ele>
        <time>2018-10-12T11:41:33Z</time>
      </trkpt>
      <trkpt lat="38.25784116" lon="-2.26485913">
        <ele>747.00000</ele>
        <time>2018-10-12T11:41:36Z</time>
      </trkpt>
      <trkpt lat="38.25807762" lon="-2.26476634">
        <ele>748.00000</ele>
        <time>2018-10-12T11:41:40Z</time>
      </trkpt>
      <trkpt lat="38.25837719" lon="-2.26468261">
        <ele>748.00000</ele>
        <time>2018-10-12T11:41:45Z</time>
      </trkpt>
      <trkpt lat="38.25874968" lon="-2.26463441">
        <ele>748.00000</ele>
        <time>2018-10-12T11:41:51Z</time>
      </trkpt>
      <trkpt lat="38.25932225" lon="-2.26457415">
        <ele>749.00000</ele>
        <time>2018-10-12T11:42:00Z</time>
      </trkpt>
      <trkpt lat="38.25950355" lon="-2.26456593">
        <ele>749.00000</ele>
        <time>2018-10-12T11:42:03Z</time>
      </trkpt>
      <trkpt lat="38.25966808" lon="-2.26456484">
        <ele>750.00000</ele>
        <time>2018-10-12T11:42:06Z</time>
      </trkpt>
      <trkpt lat="38.25988157" lon="-2.26454992">
        <ele>750.00000</ele>
        <time>2018-10-12T11:42:10Z</time>
      </trkpt>
      <trkpt lat="38.25997880" lon="-2.26450977">
        <ele>751.00000</ele>
        <time>2018-10-12T11:42:12Z</time>
      </trkpt>
      <trkpt lat="38.26013647" lon="-2.26442914">
        <ele>752.00000</ele>
        <time>2018-10-12T11:42:15Z</time>
      </trkpt>
      <trkpt lat="38.26019229" lon="-2.26440433">
        <ele>753.00000</ele>
        <time>2018-10-12T11:42:16Z</time>
      </trkpt>
      <trkpt lat="38.26024929" lon="-2.26438195">
        <ele>753.00000</ele>
        <time>2018-10-12T11:42:17Z</time>
      </trkpt>
      <trkpt lat="38.26036479" lon="-2.26434230">
        <ele>754.00000</ele>
        <time>2018-10-12T11:42:19Z</time>
      </trkpt>
      <trkpt lat="38.26041449" lon="-2.26432705">
        <ele>754.00000</ele>
        <time>2018-10-12T11:42:20Z</time>
      </trkpt>
      <trkpt lat="38.26063133" lon="-2.26425245">
        <ele>754.00000</ele>
        <time>2018-10-12T11:42:24Z</time>
      </trkpt>
      <trkpt lat="38.26093006" lon="-2.26410912">
        <ele>755.00000</ele>
        <time>2018-10-12T11:42:30Z</time>
      </trkpt>
      <trkpt lat="38.26109535" lon="-2.26409219">
        <ele>755.00000</ele>
        <time>2018-10-12T11:42:34Z</time>
      </trkpt>
      <trkpt lat="38.26113944" lon="-2.26408691">
        <ele>755.00000</ele>
        <time>2018-10-12T11:42:35Z</time>
      </trkpt>
      <trkpt lat="38.26129141" lon="-2.26405212">
        <ele>756.00000</ele>
        <time>2018-10-12T11:42:38Z</time>
      </trkpt>
      <trkpt lat="38.26142895" lon="-2.26396746">
        <ele>758.00000</ele>
        <time>2018-10-12T11:42:41Z</time>
      </trkpt>
      <trkpt lat="38.26147053" lon="-2.26393586">
        <ele>758.00000</ele>
        <time>2018-10-12T11:42:42Z</time>
      </trkpt>
      <trkpt lat="38.26161780" lon="-2.26377870">
        <ele>759.00000</ele>
        <time>2018-10-12T11:42:46Z</time>
      </trkpt>
      <trkpt lat="38.26177957" lon="-2.26355415">
        <ele>760.00000</ele>
        <time>2018-10-12T11:42:51Z</time>
      </trkpt>
      <trkpt lat="38.26193924" lon="-2.26343974">
        <ele>761.00000</ele>
        <time>2018-10-12T11:42:55Z</time>
      </trkpt>
      <trkpt lat="38.26205693" lon="-2.26337989">
        <ele>761.00000</ele>
        <time>2018-10-12T11:42:58Z</time>
      </trkpt>
      <trkpt lat="38.26228424" lon="-2.26334050">
        <ele>762.00000</ele>
        <time>2018-10-12T11:43:04Z</time>
      </trkpt>
      <trkpt lat="38.26240142" lon="-2.26330823">
        <ele>763.00000</ele>
        <time>2018-10-12T11:43:07Z</time>
      </trkpt>
      <trkpt lat="38.26254668" lon="-2.26323606">
        <ele>765.00000</ele>
        <time>2018-10-12T11:43:11Z</time>
      </trkpt>
      <trkpt lat="38.26268272" lon="-2.26316431">
        <ele>766.00000</ele>
        <time>2018-10-12T11:43:15Z</time>
      </trkpt>
      <trkpt lat="38.26284633" lon="-2.26305442">
        <ele>767.00000</ele>
        <time>2018-10-12T11:43:20Z</time>
      </trkpt>
      <trkpt lat="38.26311372" lon="-2.26287698">
        <ele>768.00000</ele>
        <time>2018-10-12T11:43:28Z</time>
      </trkpt>
      <trkpt lat="38.26331933" lon="-2.26275846">
        <ele>769.00000</ele>
        <time>2018-10-12T11:43:34Z</time>
      </trkpt>
      <trkpt lat="38.26356139" lon="-2.26262292">
        <ele>770.00000</ele>
        <time>2018-10-12T11:43:42Z</time>
      </trkpt>
      <trkpt lat="38.26365083" lon="-2.26257255">
        <ele>771.00000</ele>
        <time>2018-10-12T11:43:45Z</time>
      </trkpt>
      <trkpt lat="38.26374437" lon="-2.26253835">
        <ele>772.00000</ele>
        <time>2018-10-12T11:43:48Z</time>
      </trkpt>
      <trkpt lat="38.26383917" lon="-2.26250499">
        <ele>773.00000</ele>
        <time>2018-10-12T11:43:51Z</time>
      </trkpt>
      <trkpt lat="38.26394923" lon="-2.26242067">
        <ele>775.00000</ele>
        <time>2018-10-12T11:43:55Z</time>
      </trkpt>
      <trkpt lat="38.26404034" lon="-2.26228488">
        <ele>776.00000</ele>
        <time>2018-10-12T11:43:59Z</time>
      </trkpt>
      <trkpt lat="38.26405685" lon="-2.26207894">
        <ele>777.00000</ele>
        <time>2018-10-12T11:44:04Z</time>
      </trkpt>
      <trkpt lat="38.26403573" lon="-2.26195799">
        <ele>778.00000</ele>
        <time>2018-10-12T11:44:07Z</time>
      </trkpt>
      <trkpt lat="38.26401578" lon="-2.26183771">
        <ele>779.00000</ele>
        <time>2018-10-12T11:44:10Z</time>
      </trkpt>
      <trkpt lat="38.26401955" lon="-2.26171483">
        <ele>780.00000</ele>
        <time>2018-10-12T11:44:13Z</time>
      </trkpt>
      <trkpt lat="38.26408334" lon="-2.26156898">
        <ele>781.00000</ele>
        <time>2018-10-12T11:44:17Z</time>
      </trkpt>
      <trkpt lat="38.26423035" lon="-2.26136622">
        <ele>782.00000</ele>
        <time>2018-10-12T11:44:23Z</time>
      </trkpt>
      <trkpt lat="38.26437687" lon="-2.26123320">
        <ele>783.00000</ele>
        <time>2018-10-12T11:44:28Z</time>
      </trkpt>
      <trkpt lat="38.26462397" lon="-2.26096482">
        <ele>784.00000</ele>
        <time>2018-10-12T11:44:37Z</time>
      </trkpt>
      <trkpt lat="38.26472933" lon="-2.26079039">
        <ele>785.00000</ele>
        <time>2018-10-12T11:44:42Z</time>
      </trkpt>
      <trkpt lat="38.26480929" lon="-2.26069903">
        <ele>787.00000</ele>
        <time>2018-10-12T11:44:45Z</time>
      </trkpt>
      <trkpt lat="38.26498246" lon="-2.26062426">
        <ele>788.00000</ele>
        <time>2018-10-12T11:44:50Z</time>
      </trkpt>
      <trkpt lat="38.26515907" lon="-2.26056198">
        <ele>789.00000</ele>
        <time>2018-10-12T11:44:55Z</time>
      </trkpt>
      <trkpt lat="38.26532302" lon="-2.26046576">
        <ele>790.00000</ele>
        <time>2018-10-12T11:45:00Z</time>
      </trkpt>
      <trkpt lat="38.26546417" lon="-2.26039275">
        <ele>791.00000</ele>
        <time>2018-10-12T11:45:04Z</time>
      </trkpt>
      <trkpt lat="38.26572401" lon="-2.26022402">
        <ele>792.00000</ele>
        <time>2018-10-12T11:45:12Z</time>
      </trkpt>
      <trkpt lat="38.26584764" lon="-2.26004515">
        <ele>793.00000</ele>
        <time>2018-10-12T11:45:17Z</time>
      </trkpt>
      <trkpt lat="38.26601117" lon="-2.25985195">
        <ele>794.00000</ele>
        <time>2018-10-12T11:45:23Z</time>
      </trkpt>
      <trkpt lat="38.26618116" lon="-2.25974449">
        <ele>795.00000</ele>
        <time>2018-10-12T11:45:28Z</time>
      </trkpt>
      <trkpt lat="38.26632524" lon="-2.25967895">
        <ele>796.00000</ele>
        <time>2018-10-12T11:45:32Z</time>
      </trkpt>
      <trkpt lat="38.26639691" lon="-2.25964785">
        <ele>796.00000</ele>
        <time>2018-10-12T11:45:34Z</time>
      </trkpt>
      <trkpt lat="38.26654041" lon="-2.25958599">
        <ele>797.00000</ele>
        <time>2018-10-12T11:45:38Z</time>
      </trkpt>
      <trkpt lat="38.26661400" lon="-2.25955397">
        <ele>797.00000</ele>
        <time>2018-10-12T11:45:40Z</time>
      </trkpt>
      <trkpt lat="38.26694986" lon="-2.25936831">
        <ele>799.00000</ele>
        <time>2018-10-12T11:45:49Z</time>
      </trkpt>
      <trkpt lat="38.26720484" lon="-2.25921023">
        <ele>800.00000</ele>
        <time>2018-10-12T11:45:56Z</time>
      </trkpt>
      <trkpt lat="38.26747038" lon="-2.25902650">
        <ele>801.00000</ele>
        <time>2018-10-12T11:46:03Z</time>
      </trkpt>
      <trkpt lat="38.26771404" lon="-2.25886104">
        <ele>801.00000</ele>
        <time>2018-10-12T11:46:09Z</time>
      </trkpt>
      <trkpt lat="38.26787313" lon="-2.25877395">
        <ele>801.00000</ele>
        <time>2018-10-12T11:46:13Z</time>
      </trkpt>
      <trkpt lat="38.26795695" lon="-2.25874529">
        <ele>801.00000</ele>
        <time>2018-10-12T11:46:15Z</time>
      </trkpt>
      <trkpt lat="38.26804655" lon="-2.25872852">
        <ele>801.00000</ele>
        <time>2018-10-12T11:46:17Z</time>
      </trkpt>
      <trkpt lat="38.26826138" lon="-2.25876138">
        <ele>801.00000</ele>
        <time>2018-10-12T11:46:21Z</time>
      </trkpt>
      <trkpt lat="38.26838116" lon="-2.25880404">
        <ele>801.00000</ele>
        <time>2018-10-12T11:46:23Z</time>
      </trkpt>
      <trkpt lat="38.26850605" lon="-2.25885073">
        <ele>801.00000</ele>
        <time>2018-10-12T11:46:25Z</time>
      </trkpt>
      <trkpt lat="38.26870570" lon="-2.25892349">
        <ele>799.00000</ele>
        <time>2018-10-12T11:46:28Z</time>
      </trkpt>
      <trkpt lat="38.26890930" lon="-2.25903153">
        <ele>798.00000</ele>
        <time>2018-10-12T11:46:31Z</time>
      </trkpt>
      <trkpt lat="38.26904534" lon="-2.25912516">
        <ele>798.00000</ele>
        <time>2018-10-12T11:46:33Z</time>
      </trkpt>
      <trkpt lat="38.26911533" lon="-2.25916556">
        <ele>798.00000</ele>
        <time>2018-10-12T11:46:34Z</time>
      </trkpt>
      <trkpt lat="38.26918356" lon="-2.25919791">
        <ele>797.00000</ele>
        <time>2018-10-12T11:46:35Z</time>
      </trkpt>
      <trkpt lat="38.26925589" lon="-2.25921073">
        <ele>797.00000</ele>
        <time>2018-10-12T11:46:36Z</time>
      </trkpt>
      <trkpt lat="38.26939336" lon="-2.25917285">
        <ele>796.00000</ele>
        <time>2018-10-12T11:46:38Z</time>
      </trkpt>
      <trkpt lat="38.26946938" lon="-2.25904301">
        <ele>795.00000</ele>
        <time>2018-10-12T11:46:40Z</time>
      </trkpt>
      <trkpt lat="38.26947977" lon="-2.25887018">
        <ele>794.00000</ele>
        <time>2018-10-12T11:46:42Z</time>
      </trkpt>
      <trkpt lat="38.26944272" lon="-2.25860774">
        <ele>793.00000</ele>
        <time>2018-10-12T11:46:45Z</time>
      </trkpt>
      <trkpt lat="38.26941188" lon="-2.25833189">
        <ele>793.00000</ele>
        <time>2018-10-12T11:46:48Z</time>
      </trkpt>
      <trkpt lat="38.26940962" lon="-2.25824120">
        <ele>793.00000</ele>
        <time>2018-10-12T11:46:49Z</time>
      </trkpt>
      <trkpt lat="38.26943007" lon="-2.25806493">
        <ele>792.00000</ele>
        <time>2018-10-12T11:46:51Z</time>
      </trkpt>
      <trkpt lat="38.26959603" lon="-2.25788648">
        <ele>792.00000</ele>
        <time>2018-10-12T11:46:55Z</time>
      </trkpt>
      <trkpt lat="38.26969544" lon="-2.25784624">
        <ele>792.00000</ele>
        <time>2018-10-12T11:46:57Z</time>
      </trkpt>
      <trkpt lat="38.26987003" lon="-2.25768498">
        <ele>792.00000</ele>
        <time>2018-10-12T11:47:01Z</time>
      </trkpt>
      <trkpt lat="38.26994589" lon="-2.25758708">
        <ele>792.00000</ele>
        <time>2018-10-12T11:47:03Z</time>
      </trkpt>
      <trkpt lat="38.27010414" lon="-2.25736646">
        <ele>793.00000</ele>
        <time>2018-10-12T11:47:07Z</time>
      </trkpt>
      <trkpt lat="38.27030950" lon="-2.25707779">
        <ele>793.00000</ele>
        <time>2018-10-12T11:47:12Z</time>
      </trkpt>
      <trkpt lat="38.27066254" lon="-2.25664839">
        <ele>793.00000</ele>
        <time>2018-10-12T11:47:20Z</time>
      </trkpt>
      <trkpt lat="38.27092959" lon="-2.25651453">
        <ele>793.00000</ele>
        <time>2018-10-12T11:47:25Z</time>
      </trkpt>
      <trkpt lat="38.27102514" lon="-2.25647706">
        <ele>793.00000</ele>
        <time>2018-10-12T11:47:27Z</time>
      </trkpt>
      <trkpt lat="38.27116562" lon="-2.25644026">
        <ele>794.00000</ele>
        <time>2018-10-12T11:47:30Z</time>
      </trkpt>
      <trkpt lat="38.27148037" lon="-2.25643984">
        <ele>795.00000</ele>
        <time>2018-10-12T11:47:36Z</time>
      </trkpt>
      <trkpt lat="38.27167860" lon="-2.25645300">
        <ele>796.00000</ele>
        <time>2018-10-12T11:47:40Z</time>
      </trkpt>
      <trkpt lat="38.27182436" lon="-2.25646005">
        <ele>797.00000</ele>
        <time>2018-10-12T11:47:44Z</time>
      </trkpt>
      <trkpt lat="38.27190625" lon="-2.25643876">
        <ele>798.00000</ele>
        <time>2018-10-12T11:47:48Z</time>
      </trkpt>
      <trkpt lat="38.27191363" lon="-2.25643247">
        <ele>798.00000</ele>
        <time>2018-10-12T11:47:49Z</time>
      </trkpt>
      <trkpt lat="38.27191597" lon="-2.25643255">
        <ele>798.00000</ele>
        <time>2018-10-12T11:47:50Z</time>
      </trkpt>
      <trkpt lat="38.27193525" lon="-2.25641462">
        <ele>799.00000</ele>
        <time>2018-10-12T11:52:38Z</time>
      </trkpt>
      <trkpt lat="38.27194917" lon="-2.25639928">
        <ele>799.00000</ele>
        <time>2018-10-12T11:52:39Z</time>
      </trkpt>
      <trkpt lat="38.27212234" lon="-2.25619845">
        <ele>799.00000</ele>
        <time>2018-10-12T11:52:45Z</time>
      </trkpt>
      <trkpt lat="38.27224102" lon="-2.25603424">
        <ele>798.00000</ele>
        <time>2018-10-12T11:52:48Z</time>
      </trkpt>
      <trkpt lat="38.27226508" lon="-2.25596585">
        <ele>798.00000</ele>
        <time>2018-10-12T11:52:49Z</time>
      </trkpt>
      <trkpt lat="38.27223666" lon="-2.25575295">
        <ele>797.00000</ele>
        <time>2018-10-12T11:52:52Z</time>
      </trkpt>
      <trkpt lat="38.27221931" lon="-2.25569075">
        <ele>796.00000</ele>
        <time>2018-10-12T11:52:53Z</time>
      </trkpt>
      <trkpt lat="38.27220967" lon="-2.25562244">
        <ele>796.00000</ele>
        <time>2018-10-12T11:52:54Z</time>
      </trkpt>
      <trkpt lat="38.27221420" lon="-2.25555480">
        <ele>795.00000</ele>
        <time>2018-10-12T11:52:55Z</time>
      </trkpt>
      <trkpt lat="38.27229442" lon="-2.25541876">
        <ele>794.00000</ele>
        <time>2018-10-12T11:52:58Z</time>
      </trkpt>
      <trkpt lat="38.27238888" lon="-2.25541407">
        <ele>794.00000</ele>
        <time>2018-10-12T11:53:00Z</time>
      </trkpt>
      <trkpt lat="38.27249248" lon="-2.25546067">
        <ele>793.00000</ele>
        <time>2018-10-12T11:53:02Z</time>
      </trkpt>
      <trkpt lat="38.27254562" lon="-2.25549512">
        <ele>793.00000</ele>
        <time>2018-10-12T11:53:03Z</time>
      </trkpt>
      <trkpt lat="38.27264838" lon="-2.25556863">
        <ele>793.00000</ele>
        <time>2018-10-12T11:53:05Z</time>
      </trkpt>
      <trkpt lat="38.27269180" lon="-2.25561054">
        <ele>793.00000</ele>
        <time>2018-10-12T11:53:06Z</time>
      </trkpt>
      <trkpt lat="38.27277218" lon="-2.25570123">
        <ele>793.00000</ele>
        <time>2018-10-12T11:53:08Z</time>
      </trkpt>
      <trkpt lat="38.27289498" lon="-2.25583015">
        <ele>793.00000</ele>
        <time>2018-10-12T11:53:11Z</time>
      </trkpt>
      <trkpt lat="38.27297427" lon="-2.25591002">
        <ele>793.00000</ele>
        <time>2018-10-12T11:53:13Z</time>
      </trkpt>
      <trkpt lat="38.27317778" lon="-2.25592209">
        <ele>794.00000</ele>
        <time>2018-10-12T11:53:17Z</time>
      </trkpt>
      <trkpt lat="38.27323277" lon="-2.25591338">
        <ele>794.00000</ele>
        <time>2018-10-12T11:53:18Z</time>
      </trkpt>
      <trkpt lat="38.27344349" lon="-2.25599493">
        <ele>794.00000</ele>
        <time>2018-10-12T11:53:22Z</time>
      </trkpt>
      <trkpt lat="38.27353066" lon="-2.25605570">
        <ele>794.00000</ele>
        <time>2018-10-12T11:53:24Z</time>
      </trkpt>
      <trkpt lat="38.27369889" lon="-2.25610423">
        <ele>794.00000</ele>
        <time>2018-10-12T11:53:28Z</time>
      </trkpt>
      <trkpt lat="38.27377550" lon="-2.25607431">
        <ele>794.00000</ele>
        <time>2018-10-12T11:53:30Z</time>
      </trkpt>
      <trkpt lat="38.27385697" lon="-2.25594573">
        <ele>796.00000</ele>
        <time>2018-10-12T11:53:33Z</time>
      </trkpt>
      <trkpt lat="38.27388832" lon="-2.25582830">
        <ele>797.00000</ele>
        <time>2018-10-12T11:53:35Z</time>
      </trkpt>
      <trkpt lat="38.27394129" lon="-2.25557835">
        <ele>798.00000</ele>
        <time>2018-10-12T11:53:39Z</time>
      </trkpt>
      <trkpt lat="38.27403031" lon="-2.25534718">
        <ele>798.00000</ele>
        <time>2018-10-12T11:53:43Z</time>
      </trkpt>
      <trkpt lat="38.27405353" lon="-2.25529077">
        <ele>798.00000</ele>
        <time>2018-10-12T11:53:44Z</time>
      </trkpt>
      <trkpt lat="38.27418403" lon="-2.25501534">
        <ele>798.00000</ele>
        <time>2018-10-12T11:53:49Z</time>
      </trkpt>
      <trkpt lat="38.27439618" lon="-2.25484686">
        <ele>798.00000</ele>
        <time>2018-10-12T11:53:54Z</time>
      </trkpt>
      <trkpt lat="38.27453549" lon="-2.25478593">
        <ele>799.00000</ele>
        <time>2018-10-12T11:53:57Z</time>
      </trkpt>
      <trkpt lat="38.27484796" lon="-2.25464536">
        <ele>800.00000</ele>
        <time>2018-10-12T11:54:04Z</time>
      </trkpt>
      <trkpt lat="38.27497386" lon="-2.25457018">
        <ele>801.00000</ele>
        <time>2018-10-12T11:54:07Z</time>
      </trkpt>
      <trkpt lat="38.27504427" lon="-2.25449994">
        <ele>801.00000</ele>
        <time>2018-10-12T11:54:09Z</time>
      </trkpt>
      <trkpt lat="38.27512792" lon="-2.25436809">
        <ele>802.00000</ele>
        <time>2018-10-12T11:54:12Z</time>
      </trkpt>
      <trkpt lat="38.27517746" lon="-2.25426759">
        <ele>802.00000</ele>
        <time>2018-10-12T11:54:14Z</time>
      </trkpt>
      <trkpt lat="38.27526873" lon="-2.25405301">
        <ele>803.00000</ele>
        <time>2018-10-12T11:54:18Z</time>
      </trkpt>
      <trkpt lat="38.27554274" lon="-2.25387414">
        <ele>803.00000</ele>
        <time>2018-10-12T11:54:27Z</time>
      </trkpt>
      <trkpt lat="38.27563201" lon="-2.25382377">
        <ele>805.00000</ele>
        <time>2018-10-12T11:54:30Z</time>
      </trkpt>
      <trkpt lat="38.27569814" lon="-2.25377767">
        <ele>806.00000</ele>
        <time>2018-10-12T11:54:32Z</time>
      </trkpt>
      <trkpt lat="38.27579378" lon="-2.25370005">
        <ele>807.00000</ele>
        <time>2018-10-12T11:54:35Z</time>
      </trkpt>
      <trkpt lat="38.27582504" lon="-2.25367323">
        <ele>807.00000</ele>
        <time>2018-10-12T11:54:36Z</time>
      </trkpt>
      <trkpt lat="38.27596016" lon="-2.25359167">
        <ele>808.00000</ele>
        <time>2018-10-12T11:54:40Z</time>
      </trkpt>
      <trkpt lat="38.27612084" lon="-2.25351104">
        <ele>809.00000</ele>
        <time>2018-10-12T11:54:45Z</time>
      </trkpt>
      <trkpt lat="38.27624137" lon="-2.25339973">
        <ele>810.00000</ele>
        <time>2018-10-12T11:54:49Z</time>
      </trkpt>
      <trkpt lat="38.27630524" lon="-2.25328087">
        <ele>811.00000</ele>
        <time>2018-10-12T11:54:52Z</time>
      </trkpt>
      <trkpt lat="38.27636517" lon="-2.25310938">
        <ele>812.00000</ele>
        <time>2018-10-12T11:54:56Z</time>
      </trkpt>
      <trkpt lat="38.27643449" lon="-2.25294048">
        <ele>814.00000</ele>
        <time>2018-10-12T11:55:00Z</time>
      </trkpt>
      <trkpt lat="38.27672584" lon="-2.25308918">
        <ele>815.00000</ele>
        <time>2018-10-12T11:55:09Z</time>
      </trkpt>
      <trkpt lat="38.27688183" lon="-2.25322354">
        <ele>815.00000</ele>
        <time>2018-10-12T11:55:14Z</time>
      </trkpt>
      <trkpt lat="38.27705861" lon="-2.25316210">
        <ele>815.00000</ele>
        <time>2018-10-12T11:55:18Z</time>
      </trkpt>
      <trkpt lat="38.27735843" lon="-2.25302984">
        <ele>815.00000</ele>
        <time>2018-10-12T11:55:24Z</time>
      </trkpt>
      <trkpt lat="38.27751047" lon="-2.25301944">
        <ele>815.00000</ele>
        <time>2018-10-12T11:55:27Z</time>
      </trkpt>
      <trkpt lat="38.27769647" lon="-2.25317551">
        <ele>815.00000</ele>
        <time>2018-10-12T11:55:32Z</time>
      </trkpt>
      <trkpt lat="38.27782723" lon="-2.25343183">
        <ele>815.00000</ele>
        <time>2018-10-12T11:55:38Z</time>
      </trkpt>
      <trkpt lat="38.27785916" lon="-2.25346385">
        <ele>816.00000</ele>
        <time>2018-10-12T11:55:39Z</time>
      </trkpt>
      <trkpt lat="38.27796561" lon="-2.25354096">
        <ele>816.00000</ele>
        <time>2018-10-12T11:55:42Z</time>
      </trkpt>
      <trkpt lat="38.27800207" lon="-2.25356267">
        <ele>817.00000</ele>
        <time>2018-10-12T11:55:43Z</time>
      </trkpt>
      <trkpt lat="38.27810861" lon="-2.25363316">
        <ele>818.00000</ele>
        <time>2018-10-12T11:55:46Z</time>
      </trkpt>
      <trkpt lat="38.27814197" lon="-2.25366091">
        <ele>818.00000</ele>
        <time>2018-10-12T11:55:47Z</time>
      </trkpt>
      <trkpt lat="38.27817357" lon="-2.25368798">
        <ele>818.00000</ele>
        <time>2018-10-12T11:55:48Z</time>
      </trkpt>
      <trkpt lat="38.27826686" lon="-2.25377188">
        <ele>819.00000</ele>
        <time>2018-10-12T11:55:51Z</time>
      </trkpt>
      <trkpt lat="38.27838487" lon="-2.25389946">
        <ele>820.00000</ele>
        <time>2018-10-12T11:55:55Z</time>
      </trkpt>
      <trkpt lat="38.27850113" lon="-2.25403030">
        <ele>821.00000</ele>
        <time>2018-10-12T11:55:59Z</time>
      </trkpt>
      <trkpt lat="38.27864605" lon="-2.25419366">
        <ele>822.00000</ele>
        <time>2018-10-12T11:56:04Z</time>
      </trkpt>
      <trkpt lat="38.27894738" lon="-2.25455526">
        <ele>824.00000</ele>
        <time>2018-10-12T11:56:15Z</time>
      </trkpt>
      <trkpt lat="38.27905878" lon="-2.25473773">
        <ele>825.00000</ele>
        <time>2018-10-12T11:56:20Z</time>
      </trkpt>
      <trkpt lat="38.27908049" lon="-2.25515725">
        <ele>826.00000</ele>
        <time>2018-10-12T11:56:29Z</time>
      </trkpt>
      <trkpt lat="38.27911670" lon="-2.25525976">
        <ele>827.00000</ele>
        <time>2018-10-12T11:56:32Z</time>
      </trkpt>
      <trkpt lat="38.27915819" lon="-2.25530510">
        <ele>828.00000</ele>
        <time>2018-10-12T11:56:34Z</time>
      </trkpt>
      <trkpt lat="38.27926539" lon="-2.25532120">
        <ele>829.00000</ele>
        <time>2018-10-12T11:56:37Z</time>
      </trkpt>
      <trkpt lat="38.27952674" lon="-2.25513814">
        <ele>829.00000</ele>
        <time>2018-10-12T11:56:42Z</time>
      </trkpt>
      <trkpt lat="38.27978197" lon="-2.25491132">
        <ele>827.00000</ele>
        <time>2018-10-12T11:56:46Z</time>
      </trkpt>
      <trkpt lat="38.27984115" lon="-2.25483924">
        <ele>826.00000</ele>
        <time>2018-10-12T11:56:47Z</time>
      </trkpt>
      <trkpt lat="38.27994894" lon="-2.25468048">
        <ele>825.00000</ele>
        <time>2018-10-12T11:56:49Z</time>
      </trkpt>
      <trkpt lat="38.28000023" lon="-2.25459658">
        <ele>825.00000</ele>
        <time>2018-10-12T11:56:50Z</time>
      </trkpt>
      <trkpt lat="38.28004902" lon="-2.25451419">
        <ele>824.00000</ele>
        <time>2018-10-12T11:56:51Z</time>
      </trkpt>
      <trkpt lat="38.28013468" lon="-2.25435107">
        <ele>822.00000</ele>
        <time>2018-10-12T11:56:53Z</time>
      </trkpt>
      <trkpt lat="38.28022395" lon="-2.25422040">
        <ele>821.00000</ele>
        <time>2018-10-12T11:56:55Z</time>
      </trkpt>
      <trkpt lat="38.28034942" lon="-2.25416910">
        <ele>820.00000</ele>
        <time>2018-10-12T11:56:57Z</time>
      </trkpt>
      <trkpt lat="38.28056517" lon="-2.25413583">
        <ele>818.00000</ele>
        <time>2018-10-12T11:57:00Z</time>
      </trkpt>
      <trkpt lat="38.28064061" lon="-2.25410951">
        <ele>818.00000</ele>
        <time>2018-10-12T11:57:01Z</time>
      </trkpt>
      <trkpt lat="38.28080548" lon="-2.25404933">
        <ele>818.00000</ele>
        <time>2018-10-12T11:57:03Z</time>
      </trkpt>
      <trkpt lat="38.28097832" lon="-2.25397590">
        <ele>817.00000</ele>
        <time>2018-10-12T11:57:05Z</time>
      </trkpt>
      <trkpt lat="38.28116649" lon="-2.25390683">
        <ele>816.00000</ele>
        <time>2018-10-12T11:57:07Z</time>
      </trkpt>
      <trkpt lat="38.28125945" lon="-2.25387691">
        <ele>815.00000</ele>
        <time>2018-10-12T11:57:08Z</time>
      </trkpt>
      <trkpt lat="38.28145500" lon="-2.25382779">
        <ele>814.00000</ele>
        <time>2018-10-12T11:57:10Z</time>
      </trkpt>
      <trkpt lat="38.28161937" lon="-2.25378764">
        <ele>812.00000</ele>
        <time>2018-10-12T11:57:12Z</time>
      </trkpt>
      <trkpt lat="38.28168894" lon="-2.25376971">
        <ele>810.00000</ele>
        <time>2018-10-12T11:57:13Z</time>
      </trkpt>
      <trkpt lat="38.28176127" lon="-2.25375328">
        <ele>809.00000</ele>
        <time>2018-10-12T11:57:14Z</time>
      </trkpt>
      <trkpt lat="38.28190611" lon="-2.25371698">
        <ele>808.00000</ele>
        <time>2018-10-12T11:57:16Z</time>
      </trkpt>
      <trkpt lat="38.28205774" lon="-2.25366074">
        <ele>807.00000</ele>
        <time>2018-10-12T11:57:18Z</time>
      </trkpt>
      <trkpt lat="38.28255621" lon="-2.25344575">
        <ele>806.00000</ele>
        <time>2018-10-12T11:57:24Z</time>
      </trkpt>
      <trkpt lat="38.28273131" lon="-2.25337374">
        <ele>804.00000</ele>
        <time>2018-10-12T11:57:26Z</time>
      </trkpt>
      <trkpt lat="38.28290859" lon="-2.25329428">
        <ele>803.00000</ele>
        <time>2018-10-12T11:57:28Z</time>
      </trkpt>
      <trkpt lat="38.28299853" lon="-2.25325137">
        <ele>803.00000</ele>
        <time>2018-10-12T11:57:29Z</time>
      </trkpt>
      <trkpt lat="38.28308813" lon="-2.25320502">
        <ele>802.00000</ele>
        <time>2018-10-12T11:57:30Z</time>
      </trkpt>
      <trkpt lat="38.28327270" lon="-2.25311055">
        <ele>801.00000</ele>
        <time>2018-10-12T11:57:32Z</time>
      </trkpt>
      <trkpt lat="38.28346833" lon="-2.25303160">
        <ele>799.00000</ele>
        <time>2018-10-12T11:57:34Z</time>
      </trkpt>
      <trkpt lat="38.28354905" lon="-2.25301031">
        <ele>798.00000</ele>
        <time>2018-10-12T11:57:35Z</time>
      </trkpt>
      <trkpt lat="38.28363379" lon="-2.25300528">
        <ele>797.00000</ele>
        <time>2018-10-12T11:57:36Z</time>
      </trkpt>
      <trkpt lat="38.28391442" lon="-2.25304760">
        <ele>796.00000</ele>
        <time>2018-10-12T11:57:39Z</time>
      </trkpt>
      <trkpt lat="38.28410552" lon="-2.25308155">
        <ele>795.00000</ele>
        <time>2018-10-12T11:57:41Z</time>
      </trkpt>
      <trkpt lat="38.28427316" lon="-2.25308566">
        <ele>793.00000</ele>
        <time>2018-10-12T11:57:43Z</time>
      </trkpt>
      <trkpt lat="38.28441507" lon="-2.25305674">
        <ele>791.00000</ele>
        <time>2018-10-12T11:57:45Z</time>
      </trkpt>
      <trkpt lat="38.28453375" lon="-2.25296286">
        <ele>790.00000</ele>
        <time>2018-10-12T11:57:47Z</time>
      </trkpt>
      <trkpt lat="38.28468932" lon="-2.25275700">
        <ele>789.00000</ele>
        <time>2018-10-12T11:57:50Z</time>
      </trkpt>
      <trkpt lat="38.28479024" lon="-2.25260009">
        <ele>788.00000</ele>
        <time>2018-10-12T11:57:52Z</time>
      </trkpt>
      <trkpt lat="38.28486367" lon="-2.25241578">
        <ele>788.00000</ele>
        <time>2018-10-12T11:57:54Z</time>
      </trkpt>
      <trkpt lat="38.28491287" lon="-2.25222643">
        <ele>787.00000</ele>
        <time>2018-10-12T11:57:56Z</time>
      </trkpt>
      <trkpt lat="38.28493424" lon="-2.25213054">
        <ele>786.00000</ele>
        <time>2018-10-12T11:57:57Z</time>
      </trkpt>
      <trkpt lat="38.28496073" lon="-2.25204211">
        <ele>786.00000</ele>
        <time>2018-10-12T11:57:58Z</time>
      </trkpt>
      <trkpt lat="38.28499350" lon="-2.25197019">
        <ele>785.00000</ele>
        <time>2018-10-12T11:57:59Z</time>
      </trkpt>
      <trkpt lat="38.28514890" lon="-2.25188730">
        <ele>784.00000</ele>
        <time>2018-10-12T11:58:02Z</time>
      </trkpt>
      <trkpt lat="38.28525678" lon="-2.25193063">
        <ele>783.00000</ele>
        <time>2018-10-12T11:58:04Z</time>
      </trkpt>
      <trkpt lat="38.28540153" lon="-2.25208008">
        <ele>783.00000</ele>
        <time>2018-10-12T11:58:07Z</time>
      </trkpt>
      <trkpt lat="38.28549709" lon="-2.25220212">
        <ele>783.00000</ele>
        <time>2018-10-12T11:58:09Z</time>
      </trkpt>
      <trkpt lat="38.28554998" lon="-2.25226264">
        <ele>782.00000</ele>
        <time>2018-10-12T11:58:10Z</time>
      </trkpt>
      <trkpt lat="38.28572290" lon="-2.25243128">
        <ele>782.00000</ele>
        <time>2018-10-12T11:58:13Z</time>
      </trkpt>
      <trkpt lat="38.28578459" lon="-2.25247370">
        <ele>782.00000</ele>
        <time>2018-10-12T11:58:14Z</time>
      </trkpt>
      <trkpt lat="38.28599011" lon="-2.25259607">
        <ele>781.00000</ele>
        <time>2018-10-12T11:58:17Z</time>
      </trkpt>
      <trkpt lat="38.28611659" lon="-2.25270923">
        <ele>780.00000</ele>
        <time>2018-10-12T11:58:19Z</time>
      </trkpt>
      <trkpt lat="38.28620804" lon="-2.25285348">
        <ele>780.00000</ele>
        <time>2018-10-12T11:58:21Z</time>
      </trkpt>
      <trkpt lat="38.28625288" lon="-2.25292305">
        <ele>779.00000</ele>
        <time>2018-10-12T11:58:22Z</time>
      </trkpt>
      <trkpt lat="38.28630452" lon="-2.25299170">
        <ele>779.00000</ele>
        <time>2018-10-12T11:58:23Z</time>
      </trkpt>
      <trkpt lat="38.28650023" lon="-2.25314282">
        <ele>778.00000</ele>
        <time>2018-10-12T11:58:26Z</time>
      </trkpt>
      <trkpt lat="38.28657651" lon="-2.25318607">
        <ele>778.00000</ele>
        <time>2018-10-12T11:58:27Z</time>
      </trkpt>
      <trkpt lat="38.28665563" lon="-2.25321776">
        <ele>778.00000</ele>
        <time>2018-10-12T11:58:28Z</time>
      </trkpt>
      <trkpt lat="38.28697876" lon="-2.25324776">
        <ele>777.00000</ele>
        <time>2018-10-12T11:58:32Z</time>
      </trkpt>
      <trkpt lat="38.28715511" lon="-2.25322622">
        <ele>775.00000</ele>
        <time>2018-10-12T11:58:34Z</time>
      </trkpt>
      <trkpt lat="38.28724287" lon="-2.25319655">
        <ele>774.00000</ele>
        <time>2018-10-12T11:58:35Z</time>
      </trkpt>
      <trkpt lat="38.28740732" lon="-2.25312463">
        <ele>773.00000</ele>
        <time>2018-10-12T11:58:37Z</time>
      </trkpt>
      <trkpt lat="38.28756834" lon="-2.25302523">
        <ele>772.00000</ele>
        <time>2018-10-12T11:58:39Z</time>
      </trkpt>
      <trkpt lat="38.28772466" lon="-2.25289782">
        <ele>771.00000</ele>
        <time>2018-10-12T11:58:41Z</time>
      </trkpt>
      <trkpt lat="38.28780102" lon="-2.25284812">
        <ele>770.00000</ele>
        <time>2018-10-12T11:58:42Z</time>
      </trkpt>
      <trkpt lat="38.28788056" lon="-2.25281048">
        <ele>769.00000</ele>
        <time>2018-10-12T11:58:43Z</time>
      </trkpt>
      <trkpt lat="38.28803773" lon="-2.25278081">
        <ele>768.00000</ele>
        <time>2018-10-12T11:58:45Z</time>
      </trkpt>
      <trkpt lat="38.28810411" lon="-2.25275491">
        <ele>767.00000</ele>
        <time>2018-10-12T11:58:46Z</time>
      </trkpt>
      <trkpt lat="38.28821274" lon="-2.25263077">
        <ele>766.00000</ele>
        <time>2018-10-12T11:58:48Z</time>
      </trkpt>
      <trkpt lat="38.28829371" lon="-2.25248434">
        <ele>765.00000</ele>
        <time>2018-10-12T11:58:50Z</time>
      </trkpt>
      <trkpt lat="38.28840477" lon="-2.25241720">
        <ele>763.00000</ele>
        <time>2018-10-12T11:58:52Z</time>
      </trkpt>
      <trkpt lat="38.28860074" lon="-2.25240211">
        <ele>762.00000</ele>
        <time>2018-10-12T11:58:55Z</time>
      </trkpt>
      <trkpt lat="38.28866209" lon="-2.25235853">
        <ele>762.00000</ele>
        <time>2018-10-12T11:58:56Z</time>
      </trkpt>
      <trkpt lat="38.28875119" lon="-2.25223070">
        <ele>761.00000</ele>
        <time>2018-10-12T11:58:58Z</time>
      </trkpt>
      <trkpt lat="38.28878682" lon="-2.25215611">
        <ele>761.00000</ele>
        <time>2018-10-12T11:58:59Z</time>
      </trkpt>
      <trkpt lat="38.28881775" lon="-2.25207455">
        <ele>761.00000</ele>
        <time>2018-10-12T11:59:00Z</time>
      </trkpt>
      <trkpt lat="38.28888111" lon="-2.25190096">
        <ele>760.00000</ele>
        <time>2018-10-12T11:59:02Z</time>
      </trkpt>
      <trkpt lat="38.28891858" lon="-2.25181622">
        <ele>759.00000</ele>
        <time>2018-10-12T11:59:03Z</time>
      </trkpt>
      <trkpt lat="38.28896233" lon="-2.25174078">
        <ele>759.00000</ele>
        <time>2018-10-12T11:59:04Z</time>
      </trkpt>
      <trkpt lat="38.28914749" lon="-2.25164607">
        <ele>757.00000</ele>
        <time>2018-10-12T11:59:07Z</time>
      </trkpt>
      <trkpt lat="38.28935570" lon="-2.25183986">
        <ele>756.00000</ele>
        <time>2018-10-12T11:59:11Z</time>
      </trkpt>
      <trkpt lat="38.28940582" lon="-2.25191169">
        <ele>756.00000</ele>
        <time>2018-10-12T11:59:12Z</time>
      </trkpt>
      <trkpt lat="38.28951956" lon="-2.25203784">
        <ele>756.00000</ele>
        <time>2018-10-12T11:59:14Z</time>
      </trkpt>
      <trkpt lat="38.28973280" lon="-2.25203842">
        <ele>755.00000</ele>
        <time>2018-10-12T11:59:17Z</time>
      </trkpt>
      <trkpt lat="38.28987009" lon="-2.25194379">
        <ele>754.00000</ele>
        <time>2018-10-12T11:59:19Z</time>
      </trkpt>
      <trkpt lat="38.29002474" lon="-2.25190926">
        <ele>753.00000</ele>
        <time>2018-10-12T11:59:21Z</time>
      </trkpt>
      <trkpt lat="38.29010085" lon="-2.25190582">
        <ele>752.00000</ele>
        <time>2018-10-12T11:59:22Z</time>
      </trkpt>
      <trkpt lat="38.29017704" lon="-2.25189627">
        <ele>751.00000</ele>
        <time>2018-10-12T11:59:23Z</time>
      </trkpt>
      <trkpt lat="38.29031182" lon="-2.25183458">
        <ele>750.00000</ele>
        <time>2018-10-12T11:59:25Z</time>
      </trkpt>
      <trkpt lat="38.29037049" lon="-2.25178319">
        <ele>749.00000</ele>
        <time>2018-10-12T11:59:26Z</time>
      </trkpt>
      <trkpt lat="38.29048331" lon="-2.25168546">
        <ele>748.00000</ele>
        <time>2018-10-12T11:59:28Z</time>
      </trkpt>
      <trkpt lat="38.29060954" lon="-2.25165839">
        <ele>747.00000</ele>
        <time>2018-10-12T11:59:30Z</time>
      </trkpt>
      <trkpt lat="38.29068096" lon="-2.25167255">
        <ele>746.00000</ele>
        <time>2018-10-12T11:59:31Z</time>
      </trkpt>
      <trkpt lat="38.29083225" lon="-2.25169292">
        <ele>746.00000</ele>
        <time>2018-10-12T11:59:33Z</time>
      </trkpt>
      <trkpt lat="38.29091238" lon="-2.25169158">
        <ele>745.00000</ele>
        <time>2018-10-12T11:59:34Z</time>
      </trkpt>
      <trkpt lat="38.29107851" lon="-2.25167767">
        <ele>744.00000</ele>
        <time>2018-10-12T11:59:36Z</time>
      </trkpt>
      <trkpt lat="38.29116971" lon="-2.25167909">
        <ele>744.00000</ele>
        <time>2018-10-12T11:59:37Z</time>
      </trkpt>
      <trkpt lat="38.29135403" lon="-2.25169921">
        <ele>743.00000</ele>
        <time>2018-10-12T11:59:39Z</time>
      </trkpt>
      <trkpt lat="38.29154086" lon="-2.25173190">
        <ele>741.00000</ele>
        <time>2018-10-12T11:59:41Z</time>
      </trkpt>
      <trkpt lat="38.29171411" lon="-2.25176861">
        <ele>739.00000</ele>
        <time>2018-10-12T11:59:43Z</time>
      </trkpt>
      <trkpt lat="38.29179131" lon="-2.25177724">
        <ele>738.00000</ele>
        <time>2018-10-12T11:59:44Z</time>
      </trkpt>
      <trkpt lat="38.29186415" lon="-2.25176920">
        <ele>737.00000</ele>
        <time>2018-10-12T11:59:45Z</time>
      </trkpt>
      <trkpt lat="38.29193305" lon="-2.25174087">
        <ele>736.00000</ele>
        <time>2018-10-12T11:59:46Z</time>
      </trkpt>
      <trkpt lat="38.29199499" lon="-2.25169200">
        <ele>734.00000</ele>
        <time>2018-10-12T11:59:47Z</time>
      </trkpt>
      <trkpt lat="38.29207269" lon="-2.25156334">
        <ele>733.00000</ele>
        <time>2018-10-12T11:59:49Z</time>
      </trkpt>
      <trkpt lat="38.29207856" lon="-2.25138908">
        <ele>731.00000</ele>
        <time>2018-10-12T11:59:51Z</time>
      </trkpt>
      <trkpt lat="38.29204469" lon="-2.25119378">
        <ele>731.00000</ele>
        <time>2018-10-12T11:59:53Z</time>
      </trkpt>
      <trkpt lat="38.29197982" lon="-2.25090678">
        <ele>730.00000</ele>
        <time>2018-10-12T11:59:56Z</time>
      </trkpt>
      <trkpt lat="38.29194889" lon="-2.25070780">
        <ele>730.00000</ele>
        <time>2018-10-12T11:59:59Z</time>
      </trkpt>
      <trkpt lat="38.29194637" lon="-2.25063982">
        <ele>729.00000</ele>
        <time>2018-10-12T12:00:00Z</time>
      </trkpt>
      <trkpt lat="38.29194813" lon="-2.25056841">
        <ele>727.00000</ele>
        <time>2018-10-12T12:00:01Z</time>
      </trkpt>
      <trkpt lat="38.29195618" lon="-2.25040739">
        <ele>726.00000</ele>
        <time>2018-10-12T12:00:03Z</time>
      </trkpt>
      <trkpt lat="38.29196515" lon="-2.25031997">
        <ele>726.00000</ele>
        <time>2018-10-12T12:00:04Z</time>
      </trkpt>
      <trkpt lat="38.29210538" lon="-2.24998989">
        <ele>725.00000</ele>
        <time>2018-10-12T12:00:08Z</time>
      </trkpt>
      <trkpt lat="38.29220965" lon="-2.24983767">
        <ele>724.00000</ele>
        <time>2018-10-12T12:00:10Z</time>
      </trkpt>
      <trkpt lat="38.29228601" lon="-2.24966257">
        <ele>722.00000</ele>
        <time>2018-10-12T12:00:12Z</time>
      </trkpt>
      <trkpt lat="38.29231970" lon="-2.24958797">
        <ele>722.00000</ele>
        <time>2018-10-12T12:00:13Z</time>
      </trkpt>
      <trkpt lat="38.29235583" lon="-2.24952637">
        <ele>721.00000</ele>
        <time>2018-10-12T12:00:14Z</time>
      </trkpt>
      <trkpt lat="38.29244376" lon="-2.24943878">
        <ele>720.00000</ele>
        <time>2018-10-12T12:00:16Z</time>
      </trkpt>
      <trkpt lat="38.29253914" lon="-2.24945001">
        <ele>719.00000</ele>
        <time>2018-10-12T12:00:18Z</time>
      </trkpt>
      <trkpt lat="38.29259044" lon="-2.24951983">
        <ele>718.00000</ele>
        <time>2018-10-12T12:00:20Z</time>
      </trkpt>
      <trkpt lat="38.29263210" lon="-2.24972351">
        <ele>717.00000</ele>
        <time>2018-10-12T12:00:26Z</time>
      </trkpt>
      <trkpt lat="38.29262925" lon="-2.24979015">
        <ele>717.00000</ele>
        <time>2018-10-12T12:00:28Z</time>
      </trkpt>
      <trkpt lat="38.29261031" lon="-2.24986282">
        <ele>717.00000</ele>
        <time>2018-10-12T12:00:30Z</time>
      </trkpt>
      <trkpt lat="38.29258776" lon="-2.24993381">
        <ele>717.00000</ele>
        <time>2018-10-12T12:00:32Z</time>
      </trkpt>
      <trkpt lat="38.29257552" lon="-2.25004378">
        <ele>718.00000</ele>
        <time>2018-10-12T12:00:35Z</time>
      </trkpt>
      <trkpt lat="38.29259413" lon="-2.25019969">
        <ele>719.00000</ele>
        <time>2018-10-12T12:00:39Z</time>
      </trkpt>
      <trkpt lat="38.29262422" lon="-2.25027848">
        <ele>719.00000</ele>
        <time>2018-10-12T12:00:41Z</time>
      </trkpt>
      <trkpt lat="38.29270293" lon="-2.25043321">
        <ele>720.00000</ele>
        <time>2018-10-12T12:00:45Z</time>
      </trkpt>
      <trkpt lat="38.29274391" lon="-2.25051049">
        <ele>720.00000</ele>
        <time>2018-10-12T12:00:47Z</time>
      </trkpt>
      <trkpt lat="38.29282874" lon="-2.25066916">
        <ele>721.00000</ele>
        <time>2018-10-12T12:00:51Z</time>
      </trkpt>
      <trkpt lat="38.29292446" lon="-2.25080838">
        <ele>721.00000</ele>
        <time>2018-10-12T12:00:55Z</time>
      </trkpt>
      <trkpt lat="38.29302940" lon="-2.25093076">
        <ele>722.00000</ele>
        <time>2018-10-12T12:00:59Z</time>
      </trkpt>
      <trkpt lat="38.29314515" lon="-2.25104886">
        <ele>723.00000</ele>
        <time>2018-10-12T12:01:03Z</time>
      </trkpt>
      <trkpt lat="38.29339720" lon="-2.25121105">
        <ele>724.00000</ele>
        <time>2018-10-12T12:01:11Z</time>
      </trkpt>
      <trkpt lat="38.29352368" lon="-2.25126218">
        <ele>726.00000</ele>
        <time>2018-10-12T12:01:15Z</time>
      </trkpt>
      <trkpt lat="38.29370817" lon="-2.25134264">
        <ele>727.00000</ele>
        <time>2018-10-12T12:01:21Z</time>
      </trkpt>
      <trkpt lat="38.29384571" lon="-2.25137759">
        <ele>728.00000</ele>
        <time>2018-10-12T12:01:26Z</time>
      </trkpt>
      <trkpt lat="38.29399659" lon="-2.25139997">
        <ele>729.00000</ele>
        <time>2018-10-12T12:01:31Z</time>
      </trkpt>
      <trkpt lat="38.29414973" lon="-2.25141439">
        <ele>730.00000</ele>
        <time>2018-10-12T12:01:36Z</time>
      </trkpt>
      <trkpt lat="38.29426975" lon="-2.25139612">
        <ele>731.00000</ele>
        <time>2018-10-12T12:01:40Z</time>
      </trkpt>
      <trkpt lat="38.29437822" lon="-2.25134373">
        <ele>733.00000</ele>
        <time>2018-10-12T12:01:44Z</time>
      </trkpt>
      <trkpt lat="38.29452909" lon="-2.25121624">
        <ele>734.00000</ele>
        <time>2018-10-12T12:01:50Z</time>
      </trkpt>
      <trkpt lat="38.29468265" lon="-2.25107484">
        <ele>735.00000</ele>
        <time>2018-10-12T12:01:56Z</time>
      </trkpt>
      <trkpt lat="38.29481181" lon="-2.25096738">
        <ele>736.00000</ele>
        <time>2018-10-12T12:02:01Z</time>
      </trkpt>
      <trkpt lat="38.29492120" lon="-2.25088943">
        <ele>737.00000</ele>
        <time>2018-10-12T12:02:05Z</time>
      </trkpt>
      <trkpt lat="38.29508305" lon="-2.25074191">
        <ele>738.00000</ele>
        <time>2018-10-12T12:02:11Z</time>
      </trkpt>
      <trkpt lat="38.29521481" lon="-2.25055273">
        <ele>739.00000</ele>
        <time>2018-10-12T12:02:17Z</time>
      </trkpt>
      <trkpt lat="38.29529738" lon="-2.25037847">
        <ele>741.00000</ele>
        <time>2018-10-12T12:02:22Z</time>
      </trkpt>
      <trkpt lat="38.29535194" lon="-2.25024193">
        <ele>742.00000</ele>
        <time>2018-10-12T12:02:26Z</time>
      </trkpt>
      <trkpt lat="38.29541397" lon="-2.25007186">
        <ele>743.00000</ele>
        <time>2018-10-12T12:02:31Z</time>
      </trkpt>
      <trkpt lat="38.29546853" lon="-2.24990104">
        <ele>744.00000</ele>
        <time>2018-10-12T12:02:36Z</time>
      </trkpt>
      <trkpt lat="38.29551665" lon="-2.24973248">
        <ele>745.00000</ele>
        <time>2018-10-12T12:02:41Z</time>
      </trkpt>
      <trkpt lat="38.29556660" lon="-2.24960985">
        <ele>746.00000</ele>
        <time>2018-10-12T12:02:45Z</time>
      </trkpt>
      <trkpt lat="38.29563533" lon="-2.24941799">
        <ele>747.00000</ele>
        <time>2018-10-12T12:02:51Z</time>
      </trkpt>
      <trkpt lat="38.29569317" lon="-2.24924608">
        <ele>748.00000</ele>
        <time>2018-10-12T12:02:56Z</time>
      </trkpt>
      <trkpt lat="38.29575855" lon="-2.24909051">
        <ele>749.00000</ele>
        <time>2018-10-12T12:03:01Z</time>
      </trkpt>
      <trkpt lat="38.29582745" lon="-2.24892765">
        <ele>750.00000</ele>
        <time>2018-10-12T12:03:06Z</time>
      </trkpt>
      <trkpt lat="38.29588294" lon="-2.24878918">
        <ele>751.00000</ele>
        <time>2018-10-12T12:03:10Z</time>
      </trkpt>
      <trkpt lat="38.29595787" lon="-2.24855599">
        <ele>752.00000</ele>
        <time>2018-10-12T12:03:17Z</time>
      </trkpt>
      <trkpt lat="38.29602451" lon="-2.24836162">
        <ele>753.00000</ele>
        <time>2018-10-12T12:03:23Z</time>
      </trkpt>
      <trkpt lat="38.29607295" lon="-2.24818828">
        <ele>755.00000</ele>
        <time>2018-10-12T12:03:28Z</time>
      </trkpt>
      <trkpt lat="38.29610095" lon="-2.24796331">
        <ele>756.00000</ele>
        <time>2018-10-12T12:03:34Z</time>
      </trkpt>
      <trkpt lat="38.29611159" lon="-2.24777455">
        <ele>757.00000</ele>
        <time>2018-10-12T12:03:39Z</time>
      </trkpt>
      <trkpt lat="38.29612190" lon="-2.24750339">
        <ele>758.00000</ele>
        <time>2018-10-12T12:03:46Z</time>
      </trkpt>
      <trkpt lat="38.29615292" lon="-2.24717700">
        <ele>759.00000</ele>
        <time>2018-10-12T12:03:54Z</time>
      </trkpt>
      <trkpt lat="38.29615929" lon="-2.24705111">
        <ele>759.00000</ele>
        <time>2018-10-12T12:03:57Z</time>
      </trkpt>
      <trkpt lat="38.29614973" lon="-2.24678129">
        <ele>760.00000</ele>
        <time>2018-10-12T12:04:04Z</time>
      </trkpt>
      <trkpt lat="38.29612400" lon="-2.24660251">
        <ele>762.00000</ele>
        <time>2018-10-12T12:04:09Z</time>
      </trkpt>
      <trkpt lat="38.29611260" lon="-2.24649027">
        <ele>762.00000</ele>
        <time>2018-10-12T12:04:12Z</time>
      </trkpt>
      <trkpt lat="38.29610715" lon="-2.24645272">
        <ele>763.00000</ele>
        <time>2018-10-12T12:04:13Z</time>
      </trkpt>
      <trkpt lat="38.29608796" lon="-2.24635256">
        <ele>764.00000</ele>
        <time>2018-10-12T12:04:16Z</time>
      </trkpt>
      <trkpt lat="38.29606432" lon="-2.24621082">
        <ele>764.00000</ele>
        <time>2018-10-12T12:04:20Z</time>
      </trkpt>
      <trkpt lat="38.29605284" lon="-2.24607168">
        <ele>766.00000</ele>
        <time>2018-10-12T12:04:24Z</time>
      </trkpt>
      <trkpt lat="38.29610070" lon="-2.24594880">
        <ele>767.00000</ele>
        <time>2018-10-12T12:04:28Z</time>
      </trkpt>
      <trkpt lat="38.29619474" lon="-2.24583372">
        <ele>768.00000</ele>
        <time>2018-10-12T12:04:33Z</time>
      </trkpt>
      <trkpt lat="38.29630480" lon="-2.24582391">
        <ele>769.00000</ele>
        <time>2018-10-12T12:04:37Z</time>
      </trkpt>
      <trkpt lat="38.29643145" lon="-2.24590220">
        <ele>770.00000</ele>
        <time>2018-10-12T12:04:42Z</time>
      </trkpt>
      <trkpt lat="38.29656145" lon="-2.24598501">
        <ele>772.00000</ele>
        <time>2018-10-12T12:04:47Z</time>
      </trkpt>
      <trkpt lat="38.29671652" lon="-2.24599767">
        <ele>773.00000</ele>
        <time>2018-10-12T12:04:52Z</time>
      </trkpt>
      <trkpt lat="38.29683981" lon="-2.24598770">
        <ele>774.00000</ele>
        <time>2018-10-12T12:04:56Z</time>
      </trkpt>
      <trkpt lat="38.29698113" lon="-2.24593564">
        <ele>775.00000</ele>
        <time>2018-10-12T12:05:01Z</time>
      </trkpt>
      <trkpt lat="38.29718305" lon="-2.24580002">
        <ele>776.00000</ele>
        <time>2018-10-12T12:05:08Z</time>
      </trkpt>
      <trkpt lat="38.29735295" lon="-2.24567589">
        <ele>777.00000</ele>
        <time>2018-10-12T12:05:14Z</time>
      </trkpt>
      <trkpt lat="38.29765537" lon="-2.24550683">
        <ele>778.00000</ele>
        <time>2018-10-12T12:05:23Z</time>
      </trkpt>
      <trkpt lat="38.29775797" lon="-2.24545134">
        <ele>778.00000</ele>
        <time>2018-10-12T12:05:26Z</time>
      </trkpt>
      <trkpt lat="38.29800875" lon="-2.24533399">
        <ele>779.00000</ele>
        <time>2018-10-12T12:05:33Z</time>
      </trkpt>
      <trkpt lat="38.29819190" lon="-2.24523148">
        <ele>779.00000</ele>
        <time>2018-10-12T12:05:38Z</time>
      </trkpt>
      <trkpt lat="38.29839231" lon="-2.24506929">
        <ele>780.00000</ele>
        <time>2018-10-12T12:05:44Z</time>
      </trkpt>
      <trkpt lat="38.29858819" lon="-2.24488229">
        <ele>780.00000</ele>
        <time>2018-10-12T12:05:50Z</time>
      </trkpt>
      <trkpt lat="38.29878919" lon="-2.24468347">
        <ele>780.00000</ele>
        <time>2018-10-12T12:05:56Z</time>
      </trkpt>
      <trkpt lat="38.29890872" lon="-2.24455883">
        <ele>780.00000</ele>
        <time>2018-10-12T12:05:59Z</time>
      </trkpt>
      <trkpt lat="38.29902950" lon="-2.24438876">
        <ele>780.00000</ele>
        <time>2018-10-12T12:06:02Z</time>
      </trkpt>
      <trkpt lat="38.29924953" lon="-2.24409305">
        <ele>779.00000</ele>
        <time>2018-10-12T12:06:07Z</time>
      </trkpt>
      <trkpt lat="38.29934039" lon="-2.24397637">
        <ele>778.00000</ele>
        <time>2018-10-12T12:06:09Z</time>
      </trkpt>
      <trkpt lat="38.29947835" lon="-2.24382181">
        <ele>778.00000</ele>
        <time>2018-10-12T12:06:12Z</time>
      </trkpt>
      <trkpt lat="38.29969452" lon="-2.24371343">
        <ele>778.00000</ele>
        <time>2018-10-12T12:06:16Z</time>
      </trkpt>
      <trkpt lat="38.29975160" lon="-2.24368929">
        <ele>777.00000</ele>
        <time>2018-10-12T12:06:17Z</time>
      </trkpt>
      <trkpt lat="38.29991010" lon="-2.24349106">
        <ele>777.00000</ele>
        <time>2018-10-12T12:06:21Z</time>
      </trkpt>
      <trkpt lat="38.29997557" lon="-2.24338889">
        <ele>777.00000</ele>
        <time>2018-10-12T12:06:23Z</time>
      </trkpt>
      <trkpt lat="38.30019635" lon="-2.24323935">
        <ele>778.00000</ele>
        <time>2018-10-12T12:06:28Z</time>
      </trkpt>
      <trkpt lat="38.30028846" lon="-2.24320423">
        <ele>778.00000</ele>
        <time>2018-10-12T12:06:30Z</time>
      </trkpt>
      <trkpt lat="38.30037815" lon="-2.24316417">
        <ele>778.00000</ele>
        <time>2018-10-12T12:06:32Z</time>
      </trkpt>
      <trkpt lat="38.30060211" lon="-2.24302687">
        <ele>778.00000</ele>
        <time>2018-10-12T12:06:37Z</time>
      </trkpt>
      <trkpt lat="38.30077763" lon="-2.24285303">
        <ele>778.00000</ele>
        <time>2018-10-12T12:06:41Z</time>
      </trkpt>
      <trkpt lat="38.30107326" lon="-2.24239588">
        <ele>778.00000</ele>
        <time>2018-10-12T12:06:50Z</time>
      </trkpt>
      <trkpt lat="38.30109723" lon="-2.24233369">
        <ele>778.00000</ele>
        <time>2018-10-12T12:06:51Z</time>
      </trkpt>
      <trkpt lat="38.30114912" lon="-2.24198408">
        <ele>779.00000</ele>
        <time>2018-10-12T12:06:56Z</time>
      </trkpt>
      <trkpt lat="38.30133603" lon="-2.24168200">
        <ele>779.00000</ele>
        <time>2018-10-12T12:07:02Z</time>
      </trkpt>
      <trkpt lat="38.30153552" lon="-2.24155677">
        <ele>779.00000</ele>
        <time>2018-10-12T12:07:06Z</time>
      </trkpt>
      <trkpt lat="38.30162898" lon="-2.24148242">
        <ele>779.00000</ele>
        <time>2018-10-12T12:07:08Z</time>
      </trkpt>
      <trkpt lat="38.30176309" lon="-2.24126868">
        <ele>779.00000</ele>
        <time>2018-10-12T12:07:12Z</time>
      </trkpt>
      <trkpt lat="38.30178706" lon="-2.24121068">
        <ele>779.00000</ele>
        <time>2018-10-12T12:07:13Z</time>
      </trkpt>
      <trkpt lat="38.30183610" lon="-2.24109694">
        <ele>779.00000</ele>
        <time>2018-10-12T12:07:15Z</time>
      </trkpt>
      <trkpt lat="38.30202821" lon="-2.24064063">
        <ele>780.00000</ele>
        <time>2018-10-12T12:07:22Z</time>
      </trkpt>
      <trkpt lat="38.30221270" lon="-2.24020938">
        <ele>780.00000</ele>
        <time>2018-10-12T12:07:28Z</time>
      </trkpt>
      <trkpt lat="38.30225033" lon="-2.23993169">
        <ele>778.00000</ele>
        <time>2018-10-12T12:07:31Z</time>
      </trkpt>
      <trkpt lat="38.30222435" lon="-2.23973379">
        <ele>778.00000</ele>
        <time>2018-10-12T12:07:33Z</time>
      </trkpt>
      <trkpt lat="38.30217280" lon="-2.23954645">
        <ele>778.00000</ele>
        <time>2018-10-12T12:07:35Z</time>
      </trkpt>
      <trkpt lat="38.30213676" lon="-2.23945182">
        <ele>777.00000</ele>
        <time>2018-10-12T12:07:36Z</time>
      </trkpt>
      <trkpt lat="38.30202721" lon="-2.23917203">
        <ele>775.00000</ele>
        <time>2018-10-12T12:07:39Z</time>
      </trkpt>
      <trkpt lat="38.30201262" lon="-2.23908729">
        <ele>775.00000</ele>
        <time>2018-10-12T12:07:40Z</time>
      </trkpt>
      <trkpt lat="38.30202293" lon="-2.23900046">
        <ele>774.00000</ele>
        <time>2018-10-12T12:07:41Z</time>
      </trkpt>
      <trkpt lat="38.30213089" lon="-2.23878865">
        <ele>773.00000</ele>
        <time>2018-10-12T12:07:44Z</time>
      </trkpt>
      <trkpt lat="38.30219937" lon="-2.23864431">
        <ele>772.00000</ele>
        <time>2018-10-12T12:07:46Z</time>
      </trkpt>
      <trkpt lat="38.30223994" lon="-2.23857491">
        <ele>772.00000</ele>
        <time>2018-10-12T12:07:47Z</time>
      </trkpt>
      <trkpt lat="38.30239006" lon="-2.23846955">
        <ele>771.00000</ele>
        <time>2018-10-12T12:07:50Z</time>
      </trkpt>
      <trkpt lat="38.30247656" lon="-2.23859544">
        <ele>771.00000</ele>
        <time>2018-10-12T12:07:53Z</time>
      </trkpt>
      <trkpt lat="38.30249751" lon="-2.23865462">
        <ele>771.00000</ele>
        <time>2018-10-12T12:07:54Z</time>
      </trkpt>
      <trkpt lat="38.30251847" lon="-2.23870919">
        <ele>771.00000</ele>
        <time>2018-10-12T12:07:55Z</time>
      </trkpt>
      <trkpt lat="38.30254403" lon="-2.23876132">
        <ele>771.00000</ele>
        <time>2018-10-12T12:07:56Z</time>
      </trkpt>
      <trkpt lat="38.30257538" lon="-2.23880968">
        <ele>771.00000</ele>
        <time>2018-10-12T12:07:57Z</time>
      </trkpt>
      <trkpt lat="38.30265727" lon="-2.23888169">
        <ele>771.00000</ele>
        <time>2018-10-12T12:07:59Z</time>
      </trkpt>
      <trkpt lat="38.30275341" lon="-2.23892418">
        <ele>771.00000</ele>
        <time>2018-10-12T12:08:01Z</time>
      </trkpt>
      <trkpt lat="38.30285048" lon="-2.23895176">
        <ele>772.00000</ele>
        <time>2018-10-12T12:08:03Z</time>
      </trkpt>
      <trkpt lat="38.30289901" lon="-2.23896031">
        <ele>773.00000</ele>
        <time>2018-10-12T12:08:04Z</time>
      </trkpt>
      <trkpt lat="38.30299498" lon="-2.23896852">
        <ele>774.00000</ele>
        <time>2018-10-12T12:08:06Z</time>
      </trkpt>
      <trkpt lat="38.30304075" lon="-2.23896986">
        <ele>774.00000</ele>
        <time>2018-10-12T12:08:07Z</time>
      </trkpt>
      <trkpt lat="38.30313236" lon="-2.23896400">
        <ele>775.00000</ele>
        <time>2018-10-12T12:08:09Z</time>
      </trkpt>
      <trkpt lat="38.30322381" lon="-2.23894170">
        <ele>775.00000</ele>
        <time>2018-10-12T12:08:11Z</time>
      </trkpt>
      <trkpt lat="38.30332355" lon="-2.23891345">
        <ele>776.00000</ele>
        <time>2018-10-12T12:08:13Z</time>
      </trkpt>
      <trkpt lat="38.30337787" lon="-2.23889560">
        <ele>777.00000</ele>
        <time>2018-10-12T12:08:14Z</time>
      </trkpt>
      <trkpt lat="38.30342422" lon="-2.23887213">
        <ele>777.00000</ele>
        <time>2018-10-12T12:08:15Z</time>
      </trkpt>
      <trkpt lat="38.30354156" lon="-2.23877180">
        <ele>778.00000</ele>
        <time>2018-10-12T12:08:18Z</time>
      </trkpt>
      <trkpt lat="38.30357207" lon="-2.23873249">
        <ele>778.00000</ele>
        <time>2018-10-12T12:08:19Z</time>
      </trkpt>
      <trkpt lat="38.30366000" lon="-2.23861581">
        <ele>779.00000</ele>
        <time>2018-10-12T12:08:22Z</time>
      </trkpt>
      <trkpt lat="38.30374977" lon="-2.23846158">
        <ele>780.00000</ele>
        <time>2018-10-12T12:08:26Z</time>
      </trkpt>
      <trkpt lat="38.30383493" lon="-2.23830786">
        <ele>781.00000</ele>
        <time>2018-10-12T12:08:30Z</time>
      </trkpt>
      <trkpt lat="38.30389293" lon="-2.23819177">
        <ele>782.00000</ele>
        <time>2018-10-12T12:08:33Z</time>
      </trkpt>
      <trkpt lat="38.30394037" lon="-2.23807032">
        <ele>783.00000</ele>
        <time>2018-10-12T12:08:36Z</time>
      </trkpt>
      <trkpt lat="38.30400391" lon="-2.23795314">
        <ele>784.00000</ele>
        <time>2018-10-12T12:08:39Z</time>
      </trkpt>
      <trkpt lat="38.30412335" lon="-2.23775667">
        <ele>786.00000</ele>
        <time>2018-10-12T12:08:44Z</time>
      </trkpt>
      <trkpt lat="38.30428579" lon="-2.23756061">
        <ele>787.00000</ele>
        <time>2018-10-12T12:08:50Z</time>
      </trkpt>
      <trkpt lat="38.30444094" lon="-2.23737093">
        <ele>788.00000</ele>
        <time>2018-10-12T12:08:57Z</time>
      </trkpt>
      <trkpt lat="38.30453633" lon="-2.23726247">
        <ele>789.00000</ele>
        <time>2018-10-12T12:09:01Z</time>
      </trkpt>
      <trkpt lat="38.30465418" lon="-2.23712341">
        <ele>790.00000</ele>
        <time>2018-10-12T12:09:06Z</time>
      </trkpt>
      <trkpt lat="38.30474127" lon="-2.23701353">
        <ele>792.00000</ele>
        <time>2018-10-12T12:09:10Z</time>
      </trkpt>
      <trkpt lat="38.30484931" lon="-2.23686031">
        <ele>793.00000</ele>
        <time>2018-10-12T12:09:15Z</time>
      </trkpt>
      <trkpt lat="38.30506950" lon="-2.23647734">
        <ele>793.00000</ele>
        <time>2018-10-12T12:09:23Z</time>
      </trkpt>
      <trkpt lat="38.30518878" lon="-2.23627257">
        <ele>793.00000</ele>
        <time>2018-10-12T12:09:26Z</time>
      </trkpt>
      <trkpt lat="38.30544736" lon="-2.23607199">
        <ele>792.00000</ele>
        <time>2018-10-12T12:09:30Z</time>
      </trkpt>
      <trkpt lat="38.30551349" lon="-2.23604324">
        <ele>791.00000</ele>
        <time>2018-10-12T12:09:31Z</time>
      </trkpt>
      <trkpt lat="38.30564400" lon="-2.23598356">
        <ele>790.00000</ele>
        <time>2018-10-12T12:09:33Z</time>
      </trkpt>
      <trkpt lat="38.30570845" lon="-2.23594609">
        <ele>790.00000</ele>
        <time>2018-10-12T12:09:34Z</time>
      </trkpt>
      <trkpt lat="38.30578381" lon="-2.23589060">
        <ele>789.00000</ele>
        <time>2018-10-12T12:09:35Z</time>
      </trkpt>
      <trkpt lat="38.30592446" lon="-2.23576890">
        <ele>788.00000</ele>
        <time>2018-10-12T12:09:37Z</time>
      </trkpt>
      <trkpt lat="38.30599914" lon="-2.23570939">
        <ele>788.00000</ele>
        <time>2018-10-12T12:09:38Z</time>
      </trkpt>
      <trkpt lat="38.30607583" lon="-2.23566245">
        <ele>787.00000</ele>
        <time>2018-10-12T12:09:39Z</time>
      </trkpt>
      <trkpt lat="38.30632880" lon="-2.23556664">
        <ele>787.00000</ele>
        <time>2018-10-12T12:09:42Z</time>
      </trkpt>
      <trkpt lat="38.30639527" lon="-2.23552398">
        <ele>787.00000</ele>
        <time>2018-10-12T12:09:43Z</time>
      </trkpt>
      <trkpt lat="38.30650473" lon="-2.23540378">
        <ele>785.00000</ele>
        <time>2018-10-12T12:09:45Z</time>
      </trkpt>
      <trkpt lat="38.30659962" lon="-2.23523112">
        <ele>784.00000</ele>
        <time>2018-10-12T12:09:47Z</time>
      </trkpt>
      <trkpt lat="38.30665117" lon="-2.23513162">
        <ele>783.00000</ele>
        <time>2018-10-12T12:09:48Z</time>
      </trkpt>
      <trkpt lat="38.30675611" lon="-2.23494504">
        <ele>781.00000</ele>
        <time>2018-10-12T12:09:50Z</time>
      </trkpt>
      <trkpt lat="38.30686122" lon="-2.23477791">
        <ele>780.00000</ele>
        <time>2018-10-12T12:09:52Z</time>
      </trkpt>
      <trkpt lat="38.30690195" lon="-2.23469342">
        <ele>780.00000</ele>
        <time>2018-10-12T12:09:53Z</time>
      </trkpt>
      <trkpt lat="38.30694864" lon="-2.23451237">
        <ele>778.00000</ele>
        <time>2018-10-12T12:09:55Z</time>
      </trkpt>
      <trkpt lat="38.30694571" lon="-2.23417919">
        <ele>777.00000</ele>
        <time>2018-10-12T12:09:58Z</time>
      </trkpt>
      <trkpt lat="38.30694571" lon="-2.23406125">
        <ele>776.00000</ele>
        <time>2018-10-12T12:09:59Z</time>
      </trkpt>
      <trkpt lat="38.30693397" lon="-2.23383469">
        <ele>776.00000</ele>
        <time>2018-10-12T12:10:01Z</time>
      </trkpt>
      <trkpt lat="38.30691008" lon="-2.23372824">
        <ele>776.00000</ele>
        <time>2018-10-12T12:10:02Z</time>
      </trkpt>
      <trkpt lat="38.30677178" lon="-2.23346455">
        <ele>775.00000</ele>
        <time>2018-10-12T12:10:05Z</time>
      </trkpt>
      <trkpt lat="38.30673683" lon="-2.23339120">
        <ele>774.00000</ele>
        <time>2018-10-12T12:10:06Z</time>
      </trkpt>
      <trkpt lat="38.30671059" lon="-2.23324402">
        <ele>772.00000</ele>
        <time>2018-10-12T12:10:08Z</time>
      </trkpt>
      <trkpt lat="38.30683473" lon="-2.23310932">
        <ele>771.00000</ele>
        <time>2018-10-12T12:10:11Z</time>
      </trkpt>
      <trkpt lat="38.30693741" lon="-2.23308962">
        <ele>770.00000</ele>
        <time>2018-10-12T12:10:13Z</time>
      </trkpt>
      <trkpt lat="38.30699097" lon="-2.23308686">
        <ele>770.00000</ele>
        <time>2018-10-12T12:10:14Z</time>
      </trkpt>
      <trkpt lat="38.30703690" lon="-2.23308661">
        <ele>770.00000</ele>
        <time>2018-10-12T12:10:15Z</time>
      </trkpt>
      <trkpt lat="38.30752020" lon="-2.23310278">
        <ele>770.00000</ele>
        <time>2018-10-12T12:10:24Z</time>
      </trkpt>
      <trkpt lat="38.30762514" lon="-2.23311871">
        <ele>770.00000</ele>
        <time>2018-10-12T12:10:26Z</time>
      </trkpt>
      <trkpt lat="38.30785506" lon="-2.23293305">
        <ele>771.00000</ele>
        <time>2018-10-12T12:10:32Z</time>
      </trkpt>
      <trkpt lat="38.30795153" lon="-2.23255368">
        <ele>772.00000</ele>
        <time>2018-10-12T12:10:38Z</time>
      </trkpt>
      <trkpt lat="38.30796486" lon="-2.23218689">
        <ele>772.00000</ele>
        <time>2018-10-12T12:10:43Z</time>
      </trkpt>
      <trkpt lat="38.30796578" lon="-2.23202344">
        <ele>772.00000</ele>
        <time>2018-10-12T12:10:45Z</time>
      </trkpt>
      <trkpt lat="38.30797383" lon="-2.23193803">
        <ele>772.00000</ele>
        <time>2018-10-12T12:10:46Z</time>
      </trkpt>
      <trkpt lat="38.30807282" lon="-2.23170317">
        <ele>771.00000</ele>
        <time>2018-10-12T12:10:49Z</time>
      </trkpt>
      <trkpt lat="38.30820165" lon="-2.23157493">
        <ele>771.00000</ele>
        <time>2018-10-12T12:10:51Z</time>
      </trkpt>
      <trkpt lat="38.30826703" lon="-2.23150712">
        <ele>770.00000</ele>
        <time>2018-10-12T12:10:52Z</time>
      </trkpt>
      <trkpt lat="38.30831975" lon="-2.23143504">
        <ele>770.00000</ele>
        <time>2018-10-12T12:10:53Z</time>
      </trkpt>
      <trkpt lat="38.30837868" lon="-2.23126379">
        <ele>769.00000</ele>
        <time>2018-10-12T12:10:55Z</time>
      </trkpt>
      <trkpt lat="38.30837993" lon="-2.23107034">
        <ele>767.00000</ele>
        <time>2018-10-12T12:10:57Z</time>
      </trkpt>
      <trkpt lat="38.30833056" lon="-2.23089063">
        <ele>766.00000</ele>
        <time>2018-10-12T12:10:59Z</time>
      </trkpt>
      <trkpt lat="38.30825940" lon="-2.23073842">
        <ele>764.00000</ele>
        <time>2018-10-12T12:11:01Z</time>
      </trkpt>
      <trkpt lat="38.30815983" lon="-2.23054991">
        <ele>763.00000</ele>
        <time>2018-10-12T12:11:04Z</time>
      </trkpt>
      <trkpt lat="38.30804793" lon="-2.23030666">
        <ele>763.00000</ele>
        <time>2018-10-12T12:11:08Z</time>
      </trkpt>
      <trkpt lat="38.30812336" lon="-2.23008027">
        <ele>764.00000</ele>
        <time>2018-10-12T12:11:13Z</time>
      </trkpt>
      <trkpt lat="38.30821464" lon="-2.23007163">
        <ele>764.00000</ele>
        <time>2018-10-12T12:11:15Z</time>
      </trkpt>
      <trkpt lat="38.30826368" lon="-2.23007046">
        <ele>765.00000</ele>
        <time>2018-10-12T12:11:16Z</time>
      </trkpt>
      <trkpt lat="38.30848119" lon="-2.23007708">
        <ele>765.00000</ele>
        <time>2018-10-12T12:11:21Z</time>
      </trkpt>
      <trkpt lat="38.30852461" lon="-2.23007859">
        <ele>765.00000</ele>
        <time>2018-10-12T12:11:22Z</time>
      </trkpt>
      <trkpt lat="38.30869023" lon="-2.23008161">
        <ele>767.00000</ele>
        <time>2018-10-12T12:11:26Z</time>
      </trkpt>
      <trkpt lat="38.30888595" lon="-2.23005780">
        <ele>768.00000</ele>
        <time>2018-10-12T12:11:31Z</time>
      </trkpt>
      <trkpt lat="38.30892585" lon="-2.23004255">
        <ele>768.00000</ele>
        <time>2018-10-12T12:11:32Z</time>
      </trkpt>
      <trkpt lat="38.30896466" lon="-2.23002319">
        <ele>768.00000</ele>
        <time>2018-10-12T12:11:33Z</time>
      </trkpt>
      <trkpt lat="38.30909407" lon="-2.22984080">
        <ele>769.00000</ele>
        <time>2018-10-12T12:11:38Z</time>
      </trkpt>
      <trkpt lat="38.30910681" lon="-2.22979780">
        <ele>769.00000</ele>
        <time>2018-10-12T12:11:39Z</time>
      </trkpt>
      <trkpt lat="38.30913464" lon="-2.22967257">
        <ele>769.00000</ele>
        <time>2018-10-12T12:11:42Z</time>
      </trkpt>
      <trkpt lat="38.30914084" lon="-2.22963091">
        <ele>769.00000</ele>
        <time>2018-10-12T12:11:43Z</time>
      </trkpt>
      <trkpt lat="38.30915685" lon="-2.22951248">
        <ele>770.00000</ele>
        <time>2018-10-12T12:11:46Z</time>
      </trkpt>
      <trkpt lat="38.30916004" lon="-2.22947342">
        <ele>770.00000</ele>
        <time>2018-10-12T12:11:47Z</time>
      </trkpt>
      <trkpt lat="38.30916515" lon="-2.22935641">
        <ele>771.00000</ele>
        <time>2018-10-12T12:11:50Z</time>
      </trkpt>
      <trkpt lat="38.30917102" lon="-2.22924099">
        <ele>772.00000</ele>
        <time>2018-10-12T12:11:53Z</time>
      </trkpt>
      <trkpt lat="38.30917303" lon="-2.22920293">
        <ele>773.00000</ele>
        <time>2018-10-12T12:11:54Z</time>
      </trkpt>
      <trkpt lat="38.30917596" lon="-2.22903789">
        <ele>774.00000</ele>
        <time>2018-10-12T12:11:58Z</time>
      </trkpt>
      <trkpt lat="38.30918468" lon="-2.22885131">
        <ele>775.00000</ele>
        <time>2018-10-12T12:12:02Z</time>
      </trkpt>
      <trkpt lat="38.30920765" lon="-2.22875995">
        <ele>776.00000</ele>
        <time>2018-10-12T12:12:04Z</time>
      </trkpt>
      <trkpt lat="38.30925568" lon="-2.22867295">
        <ele>776.00000</ele>
        <time>2018-10-12T12:12:06Z</time>
      </trkpt>
      <trkpt lat="38.30944444" lon="-2.22851034">
        <ele>776.00000</ele>
        <time>2018-10-12T12:12:11Z</time>
      </trkpt>
      <trkpt lat="38.30958676" lon="-2.22829853">
        <ele>776.00000</ele>
        <time>2018-10-12T12:12:15Z</time>
      </trkpt>
      <trkpt lat="38.30969187" lon="-2.22806140">
        <ele>775.00000</ele>
        <time>2018-10-12T12:12:19Z</time>
      </trkpt>
      <trkpt lat="38.30988432" lon="-2.22774532">
        <ele>775.00000</ele>
        <time>2018-10-12T12:12:25Z</time>
      </trkpt>
      <trkpt lat="38.30983185" lon="-2.22719103">
        <ele>775.00000</ele>
        <time>2018-10-12T12:12:35Z</time>
      </trkpt>
      <trkpt lat="38.30976027" lon="-2.22710369">
        <ele>776.00000</ele>
        <time>2018-10-12T12:12:37Z</time>
      </trkpt>
      <trkpt lat="38.30969396" lon="-2.22701350">
        <ele>776.00000</ele>
        <time>2018-10-12T12:12:39Z</time>
      </trkpt>
      <trkpt lat="38.30963395" lon="-2.22692373">
        <ele>777.00000</ele>
        <time>2018-10-12T12:12:41Z</time>
      </trkpt>
      <trkpt lat="38.30958366" lon="-2.22683060">
        <ele>777.00000</ele>
        <time>2018-10-12T12:12:43Z</time>
      </trkpt>
      <trkpt lat="38.30978977" lon="-2.22654193">
        <ele>777.00000</ele>
        <time>2018-10-12T12:12:52Z</time>
      </trkpt>
      <trkpt lat="38.31016863" lon="-2.22641939">
        <ele>778.00000</ele>
        <time>2018-10-12T12:12:59Z</time>
      </trkpt>
      <trkpt lat="38.31022228" lon="-2.22638527">
        <ele>778.00000</ele>
        <time>2018-10-12T12:13:00Z</time>
      </trkpt>
      <trkpt lat="38.31032697" lon="-2.22628410">
        <ele>777.00000</ele>
        <time>2018-10-12T12:13:02Z</time>
      </trkpt>
      <trkpt lat="38.31038371" lon="-2.22603659">
        <ele>777.00000</ele>
        <time>2018-10-12T12:13:05Z</time>
      </trkpt>
      <trkpt lat="38.31032160" lon="-2.22570994">
        <ele>777.00000</ele>
        <time>2018-10-12T12:13:09Z</time>
      </trkpt>
      <trkpt lat="38.31031741" lon="-2.22563534">
        <ele>776.00000</ele>
        <time>2018-10-12T12:13:10Z</time>
      </trkpt>
      <trkpt lat="38.31033149" lon="-2.22555940">
        <ele>776.00000</ele>
        <time>2018-10-12T12:13:11Z</time>
      </trkpt>
      <trkpt lat="38.31041514" lon="-2.22544097">
        <ele>775.00000</ele>
        <time>2018-10-12T12:13:13Z</time>
      </trkpt>
      <trkpt lat="38.31045965" lon="-2.22540593">
        <ele>775.00000</ele>
        <time>2018-10-12T12:13:14Z</time>
      </trkpt>
      <trkpt lat="38.31056694" lon="-2.22537794">
        <ele>775.00000</ele>
        <time>2018-10-12T12:13:16Z</time>
      </trkpt>
      <trkpt lat="38.31067783" lon="-2.22537534">
        <ele>775.00000</ele>
        <time>2018-10-12T12:13:18Z</time>
      </trkpt>
      <trkpt lat="38.31078931" lon="-2.22537861">
        <ele>775.00000</ele>
        <time>2018-10-12T12:13:20Z</time>
      </trkpt>
      <trkpt lat="38.31100163" lon="-2.22535765">
        <ele>775.00000</ele>
        <time>2018-10-12T12:13:24Z</time>
      </trkpt>
      <trkpt lat="38.31118896" lon="-2.22506454">
        <ele>776.00000</ele>
        <time>2018-10-12T12:13:30Z</time>
      </trkpt>
      <trkpt lat="38.31123087" lon="-2.22493034">
        <ele>776.00000</ele>
        <time>2018-10-12T12:13:32Z</time>
      </trkpt>
      <trkpt lat="38.31141871" lon="-2.22478064">
        <ele>776.00000</ele>
        <time>2018-10-12T12:13:36Z</time>
      </trkpt>
      <trkpt lat="38.31154913" lon="-2.22472038">
        <ele>776.00000</ele>
        <time>2018-10-12T12:13:38Z</time>
      </trkpt>
      <trkpt lat="38.31165684" lon="-2.22453237">
        <ele>776.00000</ele>
        <time>2018-10-12T12:13:41Z</time>
      </trkpt>
      <trkpt lat="38.31161962" lon="-2.22428502">
        <ele>775.00000</ele>
        <time>2018-10-12T12:13:44Z</time>
      </trkpt>
      <trkpt lat="38.31151820" lon="-2.22392929">
        <ele>774.00000</ele>
        <time>2018-10-12T12:13:48Z</time>
      </trkpt>
      <trkpt lat="38.31145660" lon="-2.22377037">
        <ele>773.00000</ele>
        <time>2018-10-12T12:13:50Z</time>
      </trkpt>
      <trkpt lat="38.31144922" lon="-2.22369267">
        <ele>773.00000</ele>
        <time>2018-10-12T12:13:51Z</time>
      </trkpt>
      <trkpt lat="38.31151829" lon="-2.22354020">
        <ele>771.00000</ele>
        <time>2018-10-12T12:13:54Z</time>
      </trkpt>
      <trkpt lat="38.31160026" lon="-2.22351380">
        <ele>771.00000</ele>
        <time>2018-10-12T12:13:56Z</time>
      </trkpt>
      <trkpt lat="38.31163966" lon="-2.22350634">
        <ele>771.00000</ele>
        <time>2018-10-12T12:13:57Z</time>
      </trkpt>
      <trkpt lat="38.31168324" lon="-2.22349377">
        <ele>771.00000</ele>
        <time>2018-10-12T12:13:58Z</time>
      </trkpt>
      <trkpt lat="38.31172607" lon="-2.22348857">
        <ele>771.00000</ele>
        <time>2018-10-12T12:13:59Z</time>
      </trkpt>
      <trkpt lat="38.31182238" lon="-2.22347751">
        <ele>771.00000</ele>
        <time>2018-10-12T12:14:01Z</time>
      </trkpt>
      <trkpt lat="38.31210234" lon="-2.22343149">
        <ele>772.00000</ele>
        <time>2018-10-12T12:14:08Z</time>
      </trkpt>
      <trkpt lat="38.31213503" lon="-2.22341867">
        <ele>773.00000</ele>
        <time>2018-10-12T12:14:09Z</time>
      </trkpt>
      <trkpt lat="38.31222346" lon="-2.22335094">
        <ele>774.00000</ele>
        <time>2018-10-12T12:14:12Z</time>
      </trkpt>
      <trkpt lat="38.31232186" lon="-2.22320292">
        <ele>775.00000</ele>
        <time>2018-10-12T12:14:16Z</time>
      </trkpt>
      <trkpt lat="38.31240643" lon="-2.22303955">
        <ele>776.00000</ele>
        <time>2018-10-12T12:14:20Z</time>
      </trkpt>
      <trkpt lat="38.31243845" lon="-2.22295238">
        <ele>776.00000</ele>
        <time>2018-10-12T12:14:22Z</time>
      </trkpt>
      <trkpt lat="38.31253602" lon="-2.22270168">
        <ele>777.00000</ele>
        <time>2018-10-12T12:14:28Z</time>
      </trkpt>
      <trkpt lat="38.31262042" lon="-2.22255039">
        <ele>778.00000</ele>
        <time>2018-10-12T12:14:32Z</time>
      </trkpt>
      <trkpt lat="38.31263442" lon="-2.22251350">
        <ele>778.00000</ele>
        <time>2018-10-12T12:14:33Z</time>
      </trkpt>
      <trkpt lat="38.31266351" lon="-2.22243413">
        <ele>779.00000</ele>
        <time>2018-10-12T12:14:35Z</time>
      </trkpt>
      <trkpt lat="38.31270374" lon="-2.22233371">
        <ele>779.00000</ele>
        <time>2018-10-12T12:14:37Z</time>
      </trkpt>
      <trkpt lat="38.31271849" lon="-2.22227496">
        <ele>780.00000</ele>
        <time>2018-10-12T12:14:38Z</time>
      </trkpt>
      <trkpt lat="38.31273769" lon="-2.22211075">
        <ele>781.00000</ele>
        <time>2018-10-12T12:14:41Z</time>
      </trkpt>
      <trkpt lat="38.31274615" lon="-2.22194882">
        <ele>782.00000</ele>
        <time>2018-10-12T12:14:44Z</time>
      </trkpt>
      <trkpt lat="38.31274816" lon="-2.22189601">
        <ele>782.00000</ele>
        <time>2018-10-12T12:14:45Z</time>
      </trkpt>
      <trkpt lat="38.31273961" lon="-2.22168319">
        <ele>782.00000</ele>
        <time>2018-10-12T12:14:49Z</time>
      </trkpt>
      <trkpt lat="38.31272176" lon="-2.22151572">
        <ele>783.00000</ele>
        <time>2018-10-12T12:14:52Z</time>
      </trkpt>
      <trkpt lat="38.31271925" lon="-2.22145797">
        <ele>783.00000</ele>
        <time>2018-10-12T12:14:53Z</time>
      </trkpt>
      <trkpt lat="38.31271036" lon="-2.22128673">
        <ele>783.00000</ele>
        <time>2018-10-12T12:14:56Z</time>
      </trkpt>
      <trkpt lat="38.31268840" lon="-2.22111591">
        <ele>784.00000</ele>
        <time>2018-10-12T12:14:59Z</time>
      </trkpt>
      <trkpt lat="38.31268765" lon="-2.22085188">
        <ele>784.00000</ele>
        <time>2018-10-12T12:15:03Z</time>
      </trkpt>
      <trkpt lat="38.31286928" lon="-2.22070637">
        <ele>783.00000</ele>
        <time>2018-10-12T12:15:09Z</time>
      </trkpt>
      <trkpt lat="38.31291773" lon="-2.22072070">
        <ele>783.00000</ele>
        <time>2018-10-12T12:15:10Z</time>
      </trkpt>
      <trkpt lat="38.31346532" lon="-2.22092606">
        <ele>783.00000</ele>
        <time>2018-10-12T12:15:23Z</time>
      </trkpt>
      <trkpt lat="38.31354168" lon="-2.22092480">
        <ele>784.00000</ele>
        <time>2018-10-12T12:15:25Z</time>
      </trkpt>
      <trkpt lat="38.31364964" lon="-2.22087585">
        <ele>785.00000</ele>
        <time>2018-10-12T12:15:28Z</time>
      </trkpt>
      <trkpt lat="38.31377184" lon="-2.22074677">
        <ele>786.00000</ele>
        <time>2018-10-12T12:15:32Z</time>
      </trkpt>
      <trkpt lat="38.31388726" lon="-2.22054501">
        <ele>787.00000</ele>
        <time>2018-10-12T12:15:37Z</time>
      </trkpt>
      <trkpt lat="38.31396027" lon="-2.22020957">
        <ele>788.00000</ele>
        <time>2018-10-12T12:15:44Z</time>
      </trkpt>
      <trkpt lat="38.31395876" lon="-2.21998787">
        <ele>789.00000</ele>
        <time>2018-10-12T12:15:48Z</time>
      </trkpt>
      <trkpt lat="38.31386924" lon="-2.21953382">
        <ele>789.00000</ele>
        <time>2018-10-12T12:15:55Z</time>
      </trkpt>
      <trkpt lat="38.31408357" lon="-2.21906620">
        <ele>789.00000</ele>
        <time>2018-10-12T12:16:03Z</time>
      </trkpt>
      <trkpt lat="38.31411986" lon="-2.21901716">
        <ele>789.00000</ele>
        <time>2018-10-12T12:16:04Z</time>
      </trkpt>
      <trkpt lat="38.31428155" lon="-2.21868247">
        <ele>789.00000</ele>
        <time>2018-10-12T12:16:10Z</time>
      </trkpt>
      <trkpt lat="38.31431725" lon="-2.21856018">
        <ele>789.00000</ele>
        <time>2018-10-12T12:16:12Z</time>
      </trkpt>
      <trkpt lat="38.31432606" lon="-2.21849581">
        <ele>789.00000</ele>
        <time>2018-10-12T12:16:13Z</time>
      </trkpt>
      <trkpt lat="38.31423402" lon="-2.21816263">
        <ele>790.00000</ele>
        <time>2018-10-12T12:16:18Z</time>
      </trkpt>
      <trkpt lat="38.31415590" lon="-2.21801678">
        <ele>790.00000</ele>
        <time>2018-10-12T12:16:20Z</time>
      </trkpt>
      <trkpt lat="38.31398097" lon="-2.21762107">
        <ele>789.00000</ele>
        <time>2018-10-12T12:16:25Z</time>
      </trkpt>
      <trkpt lat="38.31392431" lon="-2.21746349">
        <ele>788.00000</ele>
        <time>2018-10-12T12:16:27Z</time>
      </trkpt>
      <trkpt lat="38.31392314" lon="-2.21730927">
        <ele>787.00000</ele>
        <time>2018-10-12T12:16:29Z</time>
      </trkpt>
      <trkpt lat="38.31410192" lon="-2.21720114">
        <ele>787.00000</ele>
        <time>2018-10-12T12:16:33Z</time>
      </trkpt>
      <trkpt lat="38.31422757" lon="-2.21717641">
        <ele>787.00000</ele>
        <time>2018-10-12T12:16:35Z</time>
      </trkpt>
      <trkpt lat="38.31442739" lon="-2.21719234">
        <ele>787.00000</ele>
        <time>2018-10-12T12:16:38Z</time>
      </trkpt>
      <trkpt lat="38.31449143" lon="-2.21719561">
        <ele>787.00000</ele>
        <time>2018-10-12T12:16:39Z</time>
      </trkpt>
      <trkpt lat="38.31468740" lon="-2.21717432">
        <ele>787.00000</ele>
        <time>2018-10-12T12:16:42Z</time>
      </trkpt>
      <trkpt lat="38.31493425" lon="-2.21684340">
        <ele>787.00000</ele>
        <time>2018-10-12T12:16:48Z</time>
      </trkpt>
      <trkpt lat="38.31499007" lon="-2.21668087">
        <ele>787.00000</ele>
        <time>2018-10-12T12:16:50Z</time>
      </trkpt>
      <trkpt lat="38.31507808" lon="-2.21643151">
        <ele>787.00000</ele>
        <time>2018-10-12T12:16:53Z</time>
      </trkpt>
      <trkpt lat="38.31511412" lon="-2.21626136">
        <ele>786.00000</ele>
        <time>2018-10-12T12:16:55Z</time>
      </trkpt>
      <trkpt lat="38.31519467" lon="-2.21616220">
        <ele>786.00000</ele>
        <time>2018-10-12T12:16:57Z</time>
      </trkpt>
      <trkpt lat="38.31541109" lon="-2.21622440">
        <ele>785.00000</ele>
        <time>2018-10-12T12:17:01Z</time>
      </trkpt>
      <trkpt lat="38.31566129" lon="-2.21641852">
        <ele>785.00000</ele>
        <time>2018-10-12T12:17:06Z</time>
      </trkpt>
      <trkpt lat="38.31578166" lon="-2.21663670">
        <ele>785.00000</ele>
        <time>2018-10-12T12:17:10Z</time>
      </trkpt>
      <trkpt lat="38.31586430" lon="-2.21684424">
        <ele>785.00000</ele>
        <time>2018-10-12T12:17:13Z</time>
      </trkpt>
      <trkpt lat="38.31623436" lon="-2.21710885">
        <ele>785.00000</ele>
        <time>2018-10-12T12:17:20Z</time>
      </trkpt>
      <trkpt lat="38.31669059" lon="-2.21672630">
        <ele>783.00000</ele>
        <time>2018-10-12T12:17:28Z</time>
      </trkpt>
      <trkpt lat="38.31675119" lon="-2.21639472">
        <ele>783.00000</ele>
        <time>2018-10-12T12:17:31Z</time>
      </trkpt>
      <trkpt lat="38.31676955" lon="-2.21627318">
        <ele>781.00000</ele>
        <time>2018-10-12T12:17:32Z</time>
      </trkpt>
      <trkpt lat="38.31680685" lon="-2.21602499">
        <ele>780.00000</ele>
        <time>2018-10-12T12:17:34Z</time>
      </trkpt>
      <trkpt lat="38.31685454" lon="-2.21577035">
        <ele>779.00000</ele>
        <time>2018-10-12T12:17:36Z</time>
      </trkpt>
      <trkpt lat="38.31688396" lon="-2.21565174">
        <ele>777.00000</ele>
        <time>2018-10-12T12:17:37Z</time>
      </trkpt>
      <trkpt lat="38.31691749" lon="-2.21553616">
        <ele>776.00000</ele>
        <time>2018-10-12T12:17:38Z</time>
      </trkpt>
      <trkpt lat="38.31695361" lon="-2.21542007">
        <ele>775.00000</ele>
        <time>2018-10-12T12:17:39Z</time>
      </trkpt>
      <trkpt lat="38.31699083" lon="-2.21530750">
        <ele>774.00000</ele>
        <time>2018-10-12T12:17:40Z</time>
      </trkpt>
      <trkpt lat="38.31706929" lon="-2.21507264">
        <ele>772.00000</ele>
        <time>2018-10-12T12:17:42Z</time>
      </trkpt>
      <trkpt lat="38.31720373" lon="-2.21457400">
        <ele>772.00000</ele>
        <time>2018-10-12T12:17:46Z</time>
      </trkpt>
      <trkpt lat="38.31721982" lon="-2.21432682">
        <ele>771.00000</ele>
        <time>2018-10-12T12:17:48Z</time>
      </trkpt>
      <trkpt lat="38.31718931" lon="-2.21409615">
        <ele>769.00000</ele>
        <time>2018-10-12T12:17:50Z</time>
      </trkpt>
      <trkpt lat="38.31715864" lon="-2.21398534">
        <ele>767.00000</ele>
        <time>2018-10-12T12:17:51Z</time>
      </trkpt>
      <trkpt lat="38.31708094" lon="-2.21377931">
        <ele>766.00000</ele>
        <time>2018-10-12T12:17:53Z</time>
      </trkpt>
      <trkpt lat="38.31700625" lon="-2.21360078">
        <ele>765.00000</ele>
        <time>2018-10-12T12:17:55Z</time>
      </trkpt>
      <trkpt lat="38.31696082" lon="-2.21343322">
        <ele>764.00000</ele>
        <time>2018-10-12T12:17:57Z</time>
      </trkpt>
      <trkpt lat="38.31696677" lon="-2.21335904">
        <ele>763.00000</ele>
        <time>2018-10-12T12:17:58Z</time>
      </trkpt>
      <trkpt lat="38.31701070" lon="-2.21323943">
        <ele>762.00000</ele>
        <time>2018-10-12T12:18:00Z</time>
      </trkpt>
      <trkpt lat="38.31711413" lon="-2.21316031">
        <ele>762.00000</ele>
        <time>2018-10-12T12:18:04Z</time>
      </trkpt>
      <trkpt lat="38.31715570" lon="-2.21314606">
        <ele>762.00000</ele>
        <time>2018-10-12T12:18:06Z</time>
      </trkpt>
      <trkpt lat="38.31721429" lon="-2.21312862">
        <ele>762.00000</ele>
        <time>2018-10-12T12:18:08Z</time>
      </trkpt>
      <trkpt lat="38.31727380" lon="-2.21310725">
        <ele>762.00000</ele>
        <time>2018-10-12T12:18:10Z</time>
      </trkpt>
      <trkpt lat="38.31736324" lon="-2.21306299">
        <ele>762.00000</ele>
        <time>2018-10-12T12:18:12Z</time>
      </trkpt>
      <trkpt lat="38.31747882" lon="-2.21293332">
        <ele>762.00000</ele>
        <time>2018-10-12T12:18:15Z</time>
      </trkpt>
      <trkpt lat="38.31751571" lon="-2.21287281">
        <ele>762.00000</ele>
        <time>2018-10-12T12:18:16Z</time>
      </trkpt>
      <trkpt lat="38.31755124" lon="-2.21280642">
        <ele>762.00000</ele>
        <time>2018-10-12T12:18:17Z</time>
      </trkpt>
      <trkpt lat="38.31763984" lon="-2.21259654">
        <ele>762.00000</ele>
        <time>2018-10-12T12:18:20Z</time>
      </trkpt>
      <trkpt lat="38.31772165" lon="-2.21237140">
        <ele>762.00000</ele>
        <time>2018-10-12T12:18:23Z</time>
      </trkpt>
      <trkpt lat="38.31778116" lon="-2.21213503">
        <ele>762.00000</ele>
        <time>2018-10-12T12:18:26Z</time>
      </trkpt>
      <trkpt lat="38.31773942" lon="-2.21172248">
        <ele>762.00000</ele>
        <time>2018-10-12T12:18:31Z</time>
      </trkpt>
      <trkpt lat="38.31772626" lon="-2.21164545">
        <ele>762.00000</ele>
        <time>2018-10-12T12:18:32Z</time>
      </trkpt>
      <trkpt lat="38.31786297" lon="-2.21141042">
        <ele>763.00000</ele>
        <time>2018-10-12T12:18:37Z</time>
      </trkpt>
      <trkpt lat="38.31790722" lon="-2.21137722">
        <ele>763.00000</ele>
        <time>2018-10-12T12:18:38Z</time>
      </trkpt>
      <trkpt lat="38.31813622" lon="-2.21088814">
        <ele>763.00000</ele>
        <time>2018-10-12T12:18:46Z</time>
      </trkpt>
      <trkpt lat="38.31815022" lon="-2.21081010">
        <ele>763.00000</ele>
        <time>2018-10-12T12:18:47Z</time>
      </trkpt>
      <trkpt lat="38.31817209" lon="-2.21011550">
        <ele>764.00000</ele>
        <time>2018-10-12T12:18:56Z</time>
      </trkpt>
      <trkpt lat="38.31817863" lon="-2.20997862">
        <ele>764.00000</ele>
        <time>2018-10-12T12:18:58Z</time>
      </trkpt>
      <trkpt lat="38.31822280" lon="-2.20972104">
        <ele>764.00000</ele>
        <time>2018-10-12T12:19:02Z</time>
      </trkpt>
      <trkpt lat="38.31824543" lon="-2.20966011">
        <ele>764.00000</ele>
        <time>2018-10-12T12:19:03Z</time>
      </trkpt>
      <trkpt lat="38.31826882" lon="-2.20960294">
        <ele>765.00000</ele>
        <time>2018-10-12T12:19:04Z</time>
      </trkpt>
      <trkpt lat="38.31834292" lon="-2.20943254">
        <ele>766.00000</ele>
        <time>2018-10-12T12:19:07Z</time>
      </trkpt>
      <trkpt lat="38.31839723" lon="-2.20930815">
        <ele>766.00000</ele>
        <time>2018-10-12T12:19:09Z</time>
      </trkpt>
      <trkpt lat="38.31840779" lon="-2.20900691">
        <ele>767.00000</ele>
        <time>2018-10-12T12:19:13Z</time>
      </trkpt>
      <trkpt lat="38.31836680" lon="-2.20884949">
        <ele>767.00000</ele>
        <time>2018-10-12T12:19:15Z</time>
      </trkpt>
      <trkpt lat="38.31829782" lon="-2.20859427">
        <ele>767.00000</ele>
        <time>2018-10-12T12:19:18Z</time>
      </trkpt>
      <trkpt lat="38.31839547" lon="-2.20828623">
        <ele>765.00000</ele>
        <time>2018-10-12T12:19:22Z</time>
      </trkpt>
      <trkpt lat="38.31855732" lon="-2.20800410">
        <ele>764.00000</ele>
        <time>2018-10-12T12:19:26Z</time>
      </trkpt>
      <trkpt lat="38.31863402" lon="-2.20786336">
        <ele>764.00000</ele>
        <time>2018-10-12T12:19:28Z</time>
      </trkpt>
      <trkpt lat="38.31878598" lon="-2.20770193">
        <ele>763.00000</ele>
        <time>2018-10-12T12:19:31Z</time>
      </trkpt>
      <trkpt lat="38.31889704" lon="-2.20758534">
        <ele>763.00000</ele>
        <time>2018-10-12T12:19:33Z</time>
      </trkpt>
      <trkpt lat="38.31899419" lon="-2.20744167">
        <ele>763.00000</ele>
        <time>2018-10-12T12:19:35Z</time>
      </trkpt>
      <trkpt lat="38.31906753" lon="-2.20729448">
        <ele>763.00000</ele>
        <time>2018-10-12T12:19:37Z</time>
      </trkpt>
      <trkpt lat="38.31901447" lon="-2.20696181">
        <ele>762.00000</ele>
        <time>2018-10-12T12:19:41Z</time>
      </trkpt>
      <trkpt lat="38.31892269" lon="-2.20682292">
        <ele>761.00000</ele>
        <time>2018-10-12T12:19:43Z</time>
      </trkpt>
      <trkpt lat="38.31880652" lon="-2.20669744">
        <ele>761.00000</ele>
        <time>2018-10-12T12:19:45Z</time>
      </trkpt>
      <trkpt lat="38.31860946" lon="-2.20654724">
        <ele>760.00000</ele>
        <time>2018-10-12T12:19:48Z</time>
      </trkpt>
      <trkpt lat="38.31856688" lon="-2.20648974">
        <ele>759.00000</ele>
        <time>2018-10-12T12:19:49Z</time>
      </trkpt>
      <trkpt lat="38.31851416" lon="-2.20624038">
        <ele>758.00000</ele>
        <time>2018-10-12T12:19:52Z</time>
      </trkpt>
      <trkpt lat="38.31849060" lon="-2.20614189">
        <ele>758.00000</ele>
        <time>2018-10-12T12:19:53Z</time>
      </trkpt>
      <trkpt lat="38.31826580" lon="-2.20580250">
        <ele>757.00000</ele>
        <time>2018-10-12T12:19:57Z</time>
      </trkpt>
      <trkpt lat="38.31821057" lon="-2.20572137">
        <ele>756.00000</ele>
        <time>2018-10-12T12:19:58Z</time>
      </trkpt>
      <trkpt lat="38.31815969" lon="-2.20555968">
        <ele>755.00000</ele>
        <time>2018-10-12T12:20:00Z</time>
      </trkpt>
      <trkpt lat="38.31818701" lon="-2.20539556">
        <ele>754.00000</ele>
        <time>2018-10-12T12:20:02Z</time>
      </trkpt>
      <trkpt lat="38.31828692" lon="-2.20527067">
        <ele>752.00000</ele>
        <time>2018-10-12T12:20:04Z</time>
      </trkpt>
      <trkpt lat="38.31839212" lon="-2.20517286">
        <ele>751.00000</ele>
        <time>2018-10-12T12:20:06Z</time>
      </trkpt>
      <trkpt lat="38.31844333" lon="-2.20513036">
        <ele>751.00000</ele>
        <time>2018-10-12T12:20:07Z</time>
      </trkpt>
      <trkpt lat="38.31849521" lon="-2.20509474">
        <ele>751.00000</ele>
        <time>2018-10-12T12:20:08Z</time>
      </trkpt>
      <trkpt lat="38.31863662" lon="-2.20503346">
        <ele>751.00000</ele>
        <time>2018-10-12T12:20:11Z</time>
      </trkpt>
      <trkpt lat="38.31879193" lon="-2.20495082">
        <ele>751.00000</ele>
        <time>2018-10-12T12:20:14Z</time>
      </trkpt>
      <trkpt lat="38.31884097" lon="-2.20491000">
        <ele>752.00000</ele>
        <time>2018-10-12T12:20:15Z</time>
      </trkpt>
      <trkpt lat="38.31892529" lon="-2.20480464">
        <ele>753.00000</ele>
        <time>2018-10-12T12:20:17Z</time>
      </trkpt>
      <trkpt lat="38.31898958" lon="-2.20466961">
        <ele>754.00000</ele>
        <time>2018-10-12T12:20:19Z</time>
      </trkpt>
      <trkpt lat="38.31901615" lon="-2.20460205">
        <ele>754.00000</ele>
        <time>2018-10-12T12:20:20Z</time>
      </trkpt>
      <trkpt lat="38.31903417" lon="-2.20453717">
        <ele>755.00000</ele>
        <time>2018-10-12T12:20:21Z</time>
      </trkpt>
      <trkpt lat="38.31904431" lon="-2.20447364">
        <ele>755.00000</ele>
        <time>2018-10-12T12:20:22Z</time>
      </trkpt>
      <trkpt lat="38.31907826" lon="-2.20434573">
        <ele>755.00000</ele>
        <time>2018-10-12T12:20:24Z</time>
      </trkpt>
      <trkpt lat="38.31928797" lon="-2.20423777">
        <ele>756.00000</ele>
        <time>2018-10-12T12:20:29Z</time>
      </trkpt>
      <trkpt lat="38.31933902" lon="-2.20423199">
        <ele>756.00000</ele>
        <time>2018-10-12T12:20:30Z</time>
      </trkpt>
      <trkpt lat="38.31938646" lon="-2.20422260">
        <ele>756.00000</ele>
        <time>2018-10-12T12:20:31Z</time>
      </trkpt>
      <trkpt lat="38.31953658" lon="-2.20406016">
        <ele>757.00000</ele>
        <time>2018-10-12T12:20:36Z</time>
      </trkpt>
      <trkpt lat="38.31956801" lon="-2.20396393">
        <ele>757.00000</ele>
        <time>2018-10-12T12:20:38Z</time>
      </trkpt>
      <trkpt lat="38.31958218" lon="-2.20386637">
        <ele>758.00000</ele>
        <time>2018-10-12T12:20:40Z</time>
      </trkpt>
      <trkpt lat="38.31958629" lon="-2.20381708">
        <ele>759.00000</ele>
        <time>2018-10-12T12:20:41Z</time>
      </trkpt>
      <trkpt lat="38.31958805" lon="-2.20376688">
        <ele>759.00000</ele>
        <time>2018-10-12T12:20:42Z</time>
      </trkpt>
      <trkpt lat="38.31958478" lon="-2.20366135">
        <ele>761.00000</ele>
        <time>2018-10-12T12:20:44Z</time>
      </trkpt>
      <trkpt lat="38.31957749" lon="-2.20345926">
        <ele>762.00000</ele>
        <time>2018-10-12T12:20:48Z</time>
      </trkpt>
      <trkpt lat="38.31956248" lon="-2.20326522">
        <ele>763.00000</ele>
        <time>2018-10-12T12:20:52Z</time>
      </trkpt>
      <trkpt lat="38.31956005" lon="-2.20321820">
        <ele>763.00000</ele>
        <time>2018-10-12T12:20:53Z</time>
      </trkpt>
      <trkpt lat="38.31953155" lon="-2.20286959">
        <ele>764.00000</ele>
        <time>2018-10-12T12:21:00Z</time>
      </trkpt>
      <trkpt lat="38.31952032" lon="-2.20270782">
        <ele>765.00000</ele>
        <time>2018-10-12T12:21:03Z</time>
      </trkpt>
      <trkpt lat="38.31950255" lon="-2.20236425">
        <ele>766.00000</ele>
        <time>2018-10-12T12:21:09Z</time>
      </trkpt>
      <trkpt lat="38.31951714" lon="-2.20217004">
        <ele>767.00000</ele>
        <time>2018-10-12T12:21:12Z</time>
      </trkpt>
      <trkpt lat="38.31959769" lon="-2.20193476">
        <ele>767.00000</ele>
        <time>2018-10-12T12:21:16Z</time>
      </trkpt>
      <trkpt lat="38.31983917" lon="-2.20149655">
        <ele>767.00000</ele>
        <time>2018-10-12T12:21:23Z</time>
      </trkpt>
      <trkpt lat="38.31998652" lon="-2.20123755">
        <ele>766.00000</ele>
        <time>2018-10-12T12:21:27Z</time>
      </trkpt>
      <trkpt lat="38.32004168" lon="-2.20110956">
        <ele>766.00000</ele>
        <time>2018-10-12T12:21:29Z</time>
      </trkpt>
      <trkpt lat="38.32014578" lon="-2.20090395">
        <ele>766.00000</ele>
        <time>2018-10-12T12:21:32Z</time>
      </trkpt>
      <trkpt lat="38.32042213" lon="-2.20042384">
        <ele>766.00000</ele>
        <time>2018-10-12T12:21:40Z</time>
      </trkpt>
      <trkpt lat="38.32065498" lon="-2.20021747">
        <ele>766.00000</ele>
        <time>2018-10-12T12:21:45Z</time>
      </trkpt>
      <trkpt lat="38.32076562" lon="-2.19997054">
        <ele>766.00000</ele>
        <time>2018-10-12T12:21:49Z</time>
      </trkpt>
      <trkpt lat="38.32080594" lon="-2.19975270">
        <ele>767.00000</ele>
        <time>2018-10-12T12:21:52Z</time>
      </trkpt>
      <trkpt lat="38.32107005" lon="-2.19942438">
        <ele>767.00000</ele>
        <time>2018-10-12T12:21:58Z</time>
      </trkpt>
      <trkpt lat="38.32112764" lon="-2.19938842">
        <ele>767.00000</ele>
        <time>2018-10-12T12:21:59Z</time>
      </trkpt>
      <trkpt lat="38.32125638" lon="-2.19923109">
        <ele>767.00000</ele>
        <time>2018-10-12T12:22:02Z</time>
      </trkpt>
      <trkpt lat="38.32131749" lon="-2.19910503">
        <ele>767.00000</ele>
        <time>2018-10-12T12:22:04Z</time>
      </trkpt>
      <trkpt lat="38.32143894" lon="-2.19874226">
        <ele>767.00000</ele>
        <time>2018-10-12T12:22:09Z</time>
      </trkpt>
      <trkpt lat="38.32156207" lon="-2.19826893">
        <ele>767.00000</ele>
        <time>2018-10-12T12:22:15Z</time>
      </trkpt>
      <trkpt lat="38.32160448" lon="-2.19793542">
        <ele>767.00000</ele>
        <time>2018-10-12T12:22:19Z</time>
      </trkpt>
      <trkpt lat="38.32167841" lon="-2.19734282">
        <ele>767.00000</ele>
        <time>2018-10-12T12:22:26Z</time>
      </trkpt>
      <trkpt lat="38.32169911" lon="-2.19717484">
        <ele>767.00000</ele>
        <time>2018-10-12T12:22:28Z</time>
      </trkpt>
      <trkpt lat="38.32178142" lon="-2.19645291">
        <ele>767.00000</ele>
        <time>2018-10-12T12:22:37Z</time>
      </trkpt>
      <trkpt lat="38.32181738" lon="-2.19573944">
        <ele>767.00000</ele>
        <time>2018-10-12T12:22:46Z</time>
      </trkpt>
      <trkpt lat="38.32189047" lon="-2.19528472">
        <ele>768.00000</ele>
        <time>2018-10-12T12:22:52Z</time>
      </trkpt>
      <trkpt lat="38.32201897" lon="-2.19500661">
        <ele>768.00000</ele>
        <time>2018-10-12T12:22:56Z</time>
      </trkpt>
      <trkpt lat="38.32222441" lon="-2.19441385">
        <ele>769.00000</ele>
        <time>2018-10-12T12:23:04Z</time>
      </trkpt>
      <trkpt lat="38.32251501" lon="-2.19402861">
        <ele>769.00000</ele>
        <time>2018-10-12T12:23:10Z</time>
      </trkpt>
      <trkpt lat="38.32294014" lon="-2.19364330">
        <ele>767.00000</ele>
        <time>2018-10-12T12:23:16Z</time>
      </trkpt>
      <trkpt lat="38.32300711" lon="-2.19355487">
        <ele>767.00000</ele>
        <time>2018-10-12T12:23:17Z</time>
      </trkpt>
      <trkpt lat="38.32317768" lon="-2.19322999">
        <ele>766.00000</ele>
        <time>2018-10-12T12:23:20Z</time>
      </trkpt>
      <trkpt lat="38.32328706" lon="-2.19299504">
        <ele>765.00000</ele>
        <time>2018-10-12T12:23:22Z</time>
      </trkpt>
      <trkpt lat="38.32334021" lon="-2.19287526">
        <ele>765.00000</ele>
        <time>2018-10-12T12:23:23Z</time>
      </trkpt>
      <trkpt lat="38.32344657" lon="-2.19264023">
        <ele>763.00000</ele>
        <time>2018-10-12T12:23:25Z</time>
      </trkpt>
      <trkpt lat="38.32350097" lon="-2.19253320">
        <ele>761.00000</ele>
        <time>2018-10-12T12:23:26Z</time>
      </trkpt>
      <trkpt lat="38.32356149" lon="-2.19243488">
        <ele>760.00000</ele>
        <time>2018-10-12T12:23:27Z</time>
      </trkpt>
      <trkpt lat="38.32370608" lon="-2.19226724">
        <ele>758.00000</ele>
        <time>2018-10-12T12:23:29Z</time>
      </trkpt>
      <trkpt lat="38.32396583" lon="-2.19208284">
        <ele>757.00000</ele>
        <time>2018-10-12T12:23:32Z</time>
      </trkpt>
      <trkpt lat="38.32404462" lon="-2.19203808">
        <ele>757.00000</ele>
        <time>2018-10-12T12:23:33Z</time>
      </trkpt>
      <trkpt lat="38.32417203" lon="-2.19194152">
        <ele>756.00000</ele>
        <time>2018-10-12T12:23:35Z</time>
      </trkpt>
      <trkpt lat="38.32425509" lon="-2.19177849">
        <ele>754.00000</ele>
        <time>2018-10-12T12:23:37Z</time>
      </trkpt>
      <trkpt lat="38.32429256" lon="-2.19157682">
        <ele>752.00000</ele>
        <time>2018-10-12T12:23:39Z</time>
      </trkpt>
      <trkpt lat="38.32426733" lon="-2.19132612">
        <ele>751.00000</ele>
        <time>2018-10-12T12:23:42Z</time>
      </trkpt>
      <trkpt lat="38.32421008" lon="-2.19118053">
        <ele>749.00000</ele>
        <time>2018-10-12T12:23:44Z</time>
      </trkpt>
      <trkpt lat="38.32412366" lon="-2.19109294">
        <ele>748.00000</ele>
        <time>2018-10-12T12:23:46Z</time>
      </trkpt>
      <trkpt lat="38.32405812" lon="-2.19106712">
        <ele>747.00000</ele>
        <time>2018-10-12T12:23:48Z</time>
      </trkpt>
      <trkpt lat="38.32403339" lon="-2.19106050">
        <ele>747.00000</ele>
        <time>2018-10-12T12:23:49Z</time>
      </trkpt>
      <trkpt lat="38.32399835" lon="-2.19103418">
        <ele>746.00000</ele>
        <time>2018-10-12T12:23:51Z</time>
      </trkpt>
      <trkpt lat="38.32400648" lon="-2.19101691">
        <ele>746.00000</ele>
        <time>2018-10-12T12:23:54Z</time>
      </trkpt>
      <trkpt lat="38.32405887" lon="-2.19102337">
        <ele>746.00000</ele>
        <time>2018-10-12T12:28:09Z</time>
      </trkpt>
      <trkpt lat="38.32408184" lon="-2.19101767">
        <ele>746.00000</ele>
        <time>2018-10-12T12:28:10Z</time>
      </trkpt>
      <trkpt lat="38.32423841" lon="-2.19100057">
        <ele>746.00000</ele>
        <time>2018-10-12T12:28:14Z</time>
      </trkpt>
      <trkpt lat="38.32428996" lon="-2.19100610">
        <ele>745.00000</ele>
        <time>2018-10-12T12:28:15Z</time>
      </trkpt>
      <trkpt lat="38.32455340" lon="-2.19111900">
        <ele>744.00000</ele>
        <time>2018-10-12T12:28:20Z</time>
      </trkpt>
      <trkpt lat="38.32460353" lon="-2.19115429">
        <ele>744.00000</ele>
        <time>2018-10-12T12:28:21Z</time>
      </trkpt>
      <trkpt lat="38.32470403" lon="-2.19123182">
        <ele>743.00000</ele>
        <time>2018-10-12T12:28:23Z</time>
      </trkpt>
      <trkpt lat="38.32479757" lon="-2.19132277">
        <ele>741.00000</ele>
        <time>2018-10-12T12:28:25Z</time>
      </trkpt>
      <trkpt lat="38.32488021" lon="-2.19142536">
        <ele>741.00000</ele>
        <time>2018-10-12T12:28:27Z</time>
      </trkpt>
      <trkpt lat="38.32494744" lon="-2.19153969">
        <ele>741.00000</ele>
        <time>2018-10-12T12:28:29Z</time>
      </trkpt>
      <trkpt lat="38.32500359" lon="-2.19172996">
        <ele>740.00000</ele>
        <time>2018-10-12T12:28:32Z</time>
      </trkpt>
      <trkpt lat="38.32490217" lon="-2.19209491">
        <ele>740.00000</ele>
        <time>2018-10-12T12:28:37Z</time>
      </trkpt>
      <trkpt lat="38.32465952" lon="-2.19266907">
        <ele>740.00000</ele>
        <time>2018-10-12T12:28:43Z</time>
      </trkpt>
      <trkpt lat="38.32462280" lon="-2.19276705">
        <ele>739.00000</ele>
        <time>2018-10-12T12:28:44Z</time>
      </trkpt>
      <trkpt lat="38.32458752" lon="-2.19286269">
        <ele>737.00000</ele>
        <time>2018-10-12T12:28:45Z</time>
      </trkpt>
      <trkpt lat="38.32455474" lon="-2.19295355">
        <ele>736.00000</ele>
        <time>2018-10-12T12:28:46Z</time>
      </trkpt>
      <trkpt lat="38.32449724" lon="-2.19311574">
        <ele>735.00000</ele>
        <time>2018-10-12T12:28:48Z</time>
      </trkpt>
      <trkpt lat="38.32444603" lon="-2.19324977">
        <ele>735.00000</ele>
        <time>2018-10-12T12:28:50Z</time>
      </trkpt>
      <trkpt lat="38.32440337" lon="-2.19336510">
        <ele>735.00000</ele>
        <time>2018-10-12T12:28:52Z</time>
      </trkpt>
      <trkpt lat="38.32437034" lon="-2.19347046">
        <ele>735.00000</ele>
        <time>2018-10-12T12:28:54Z</time>
      </trkpt>
      <trkpt lat="38.32432801" lon="-2.19361756">
        <ele>736.00000</ele>
        <time>2018-10-12T12:28:57Z</time>
      </trkpt>
      <trkpt lat="38.32430027" lon="-2.19371664">
        <ele>737.00000</ele>
        <time>2018-10-12T12:28:59Z</time>
      </trkpt>
      <trkpt lat="38.32426046" lon="-2.19386835">
        <ele>739.00000</ele>
        <time>2018-10-12T12:29:02Z</time>
      </trkpt>
      <trkpt lat="38.32420539" lon="-2.19406784">
        <ele>740.00000</ele>
        <time>2018-10-12T12:29:06Z</time>
      </trkpt>
      <trkpt lat="38.32413397" lon="-2.19435006">
        <ele>741.00000</ele>
        <time>2018-10-12T12:29:11Z</time>
      </trkpt>
      <trkpt lat="38.32412802" lon="-2.19441066">
        <ele>741.00000</ele>
        <time>2018-10-12T12:29:12Z</time>
      </trkpt>
      <trkpt lat="38.32410480" lon="-2.19511021">
        <ele>740.00000</ele>
        <time>2018-10-12T12:29:23Z</time>
      </trkpt>
      <trkpt lat="38.32396969" lon="-2.19562319">
        <ele>740.00000</ele>
        <time>2018-10-12T12:29:30Z</time>
      </trkpt>
      <trkpt lat="38.32390724" lon="-2.19584137">
        <ele>739.00000</ele>
        <time>2018-10-12T12:29:33Z</time>
      </trkpt>
      <trkpt lat="38.32383910" lon="-2.19611755">
        <ele>739.00000</ele>
        <time>2018-10-12T12:29:37Z</time>
      </trkpt>
      <trkpt lat="38.32371370" lon="-2.19674561">
        <ele>738.00000</ele>
        <time>2018-10-12T12:29:45Z</time>
      </trkpt>
      <trkpt lat="38.32368881" lon="-2.19691844">
        <ele>738.00000</ele>
        <time>2018-10-12T12:29:47Z</time>
      </trkpt>
      <trkpt lat="38.32373407" lon="-2.19743250">
        <ele>737.00000</ele>
        <time>2018-10-12T12:29:53Z</time>
      </trkpt>
      <trkpt lat="38.32375327" lon="-2.19770634">
        <ele>737.00000</ele>
        <time>2018-10-12T12:29:56Z</time>
      </trkpt>
      <trkpt lat="38.32374271" lon="-2.19845887">
        <ele>737.00000</ele>
        <time>2018-10-12T12:30:05Z</time>
      </trkpt>
      <trkpt lat="38.32369627" lon="-2.19893664">
        <ele>736.00000</ele>
        <time>2018-10-12T12:30:10Z</time>
      </trkpt>
      <trkpt lat="38.32371287" lon="-2.19912791">
        <ele>736.00000</ele>
        <time>2018-10-12T12:30:12Z</time>
      </trkpt>
      <trkpt lat="38.32378051" lon="-2.19952982">
        <ele>736.00000</ele>
        <time>2018-10-12T12:30:17Z</time>
      </trkpt>
      <trkpt lat="38.32387095" lon="-2.20011320">
        <ele>735.00000</ele>
        <time>2018-10-12T12:30:24Z</time>
      </trkpt>
      <trkpt lat="38.32400958" lon="-2.20088618">
        <ele>735.00000</ele>
        <time>2018-10-12T12:30:31Z</time>
      </trkpt>
      <trkpt lat="38.32409198" lon="-2.20112280">
        <ele>734.00000</ele>
        <time>2018-10-12T12:30:33Z</time>
      </trkpt>
      <trkpt lat="38.32418301" lon="-2.20136856">
        <ele>732.00000</ele>
        <time>2018-10-12T12:30:35Z</time>
      </trkpt>
      <trkpt lat="38.32427806" lon="-2.20162781">
        <ele>731.00000</ele>
        <time>2018-10-12T12:30:37Z</time>
      </trkpt>
      <trkpt lat="38.32437478" lon="-2.20189084">
        <ele>729.00000</ele>
        <time>2018-10-12T12:30:39Z</time>
      </trkpt>
      <trkpt lat="38.32442399" lon="-2.20202118">
        <ele>728.00000</ele>
        <time>2018-10-12T12:30:40Z</time>
      </trkpt>
      <trkpt lat="38.32447470" lon="-2.20215411">
        <ele>727.00000</ele>
        <time>2018-10-12T12:30:41Z</time>
      </trkpt>
      <trkpt lat="38.32457486" lon="-2.20241898">
        <ele>725.00000</ele>
        <time>2018-10-12T12:30:43Z</time>
      </trkpt>
      <trkpt lat="38.32462406" lon="-2.20254924">
        <ele>724.00000</ele>
        <time>2018-10-12T12:30:44Z</time>
      </trkpt>
      <trkpt lat="38.32467284" lon="-2.20267714">
        <ele>722.00000</ele>
        <time>2018-10-12T12:30:45Z</time>
      </trkpt>
      <trkpt lat="38.32472071" lon="-2.20280539">
        <ele>721.00000</ele>
        <time>2018-10-12T12:30:46Z</time>
      </trkpt>
      <trkpt lat="38.32480503" lon="-2.20307093">
        <ele>719.00000</ele>
        <time>2018-10-12T12:30:48Z</time>
      </trkpt>
      <trkpt lat="38.32484149" lon="-2.20320780">
        <ele>718.00000</ele>
        <time>2018-10-12T12:30:49Z</time>
      </trkpt>
      <trkpt lat="38.32490477" lon="-2.20349145">
        <ele>716.00000</ele>
        <time>2018-10-12T12:30:51Z</time>
      </trkpt>
      <trkpt lat="38.32495875" lon="-2.20377484">
        <ele>714.00000</ele>
        <time>2018-10-12T12:30:53Z</time>
      </trkpt>
      <trkpt lat="38.32500846" lon="-2.20404013">
        <ele>713.00000</ele>
        <time>2018-10-12T12:30:55Z</time>
      </trkpt>
      <trkpt lat="38.32505414" lon="-2.20430248">
        <ele>712.00000</ele>
        <time>2018-10-12T12:30:57Z</time>
      </trkpt>
      <trkpt lat="38.32509672" lon="-2.20457095">
        <ele>711.00000</ele>
        <time>2018-10-12T12:30:59Z</time>
      </trkpt>
      <trkpt lat="38.32512974" lon="-2.20484420">
        <ele>709.00000</ele>
        <time>2018-10-12T12:31:01Z</time>
      </trkpt>
      <trkpt lat="38.32515799" lon="-2.20512893">
        <ele>708.00000</ele>
        <time>2018-10-12T12:31:03Z</time>
      </trkpt>
      <trkpt lat="38.32521004" lon="-2.20541501">
        <ele>706.00000</ele>
        <time>2018-10-12T12:31:05Z</time>
      </trkpt>
      <trkpt lat="38.32524952" lon="-2.20554996">
        <ele>705.00000</ele>
        <time>2018-10-12T12:31:06Z</time>
      </trkpt>
      <trkpt lat="38.32529847" lon="-2.20567896">
        <ele>704.00000</ele>
        <time>2018-10-12T12:31:07Z</time>
      </trkpt>
      <trkpt lat="38.32541079" lon="-2.20591709">
        <ele>703.00000</ele>
        <time>2018-10-12T12:31:09Z</time>
      </trkpt>
      <trkpt lat="38.32546636" lon="-2.20602639">
        <ele>702.00000</ele>
        <time>2018-10-12T12:31:10Z</time>
      </trkpt>
      <trkpt lat="38.32551640" lon="-2.20613786">
        <ele>701.00000</ele>
        <time>2018-10-12T12:31:11Z</time>
      </trkpt>
      <trkpt lat="38.32555579" lon="-2.20625655">
        <ele>700.00000</ele>
        <time>2018-10-12T12:31:12Z</time>
      </trkpt>
      <trkpt lat="38.32559712" lon="-2.20649753">
        <ele>699.00000</ele>
        <time>2018-10-12T12:31:14Z</time>
      </trkpt>
      <trkpt lat="38.32560827" lon="-2.20661530">
        <ele>699.00000</ele>
        <time>2018-10-12T12:31:15Z</time>
      </trkpt>
      <trkpt lat="38.32562486" lon="-2.20673223">
        <ele>698.00000</ele>
        <time>2018-10-12T12:31:16Z</time>
      </trkpt>
      <trkpt lat="38.32575285" lon="-2.20703557">
        <ele>697.00000</ele>
        <time>2018-10-12T12:31:19Z</time>
      </trkpt>
      <trkpt lat="38.32579761" lon="-2.20712626">
        <ele>696.00000</ele>
        <time>2018-10-12T12:31:20Z</time>
      </trkpt>
      <trkpt lat="38.32582821" lon="-2.20744980">
        <ele>695.00000</ele>
        <time>2018-10-12T12:31:23Z</time>
      </trkpt>
      <trkpt lat="38.32577213" lon="-2.20764879">
        <ele>694.00000</ele>
        <time>2018-10-12T12:31:25Z</time>
      </trkpt>
      <trkpt lat="38.32569032" lon="-2.20779983">
        <ele>693.00000</ele>
        <time>2018-10-12T12:31:27Z</time>
      </trkpt>
      <trkpt lat="38.32563978" lon="-2.20785255">
        <ele>693.00000</ele>
        <time>2018-10-12T12:31:28Z</time>
      </trkpt>
      <trkpt lat="38.32551690" lon="-2.20791759">
        <ele>691.00000</ele>
        <time>2018-10-12T12:31:30Z</time>
      </trkpt>
      <trkpt lat="38.32544943" lon="-2.20793939">
        <ele>691.00000</ele>
        <time>2018-10-12T12:31:31Z</time>
      </trkpt>
      <trkpt lat="38.32538212" lon="-2.20797266">
        <ele>691.00000</ele>
        <time>2018-10-12T12:31:32Z</time>
      </trkpt>
      <trkpt lat="38.32525840" lon="-2.20808875">
        <ele>691.00000</ele>
        <time>2018-10-12T12:31:34Z</time>
      </trkpt>
      <trkpt lat="38.32513460" lon="-2.20834935">
        <ele>690.00000</ele>
        <time>2018-10-12T12:31:37Z</time>
      </trkpt>
      <trkpt lat="38.32499228" lon="-2.20870357">
        <ele>689.00000</ele>
        <time>2018-10-12T12:31:41Z</time>
      </trkpt>
      <trkpt lat="38.32491810" lon="-2.20885586">
        <ele>689.00000</ele>
        <time>2018-10-12T12:31:43Z</time>
      </trkpt>
      <trkpt lat="38.32505154" lon="-2.20918561">
        <ele>688.00000</ele>
        <time>2018-10-12T12:31:48Z</time>
      </trkpt>
      <trkpt lat="38.32541607" lon="-2.20962323">
        <ele>688.00000</ele>
        <time>2018-10-12T12:31:54Z</time>
      </trkpt>
      <trkpt lat="38.32546644" lon="-2.20981970">
        <ele>688.00000</ele>
        <time>2018-10-12T12:31:56Z</time>
      </trkpt>
      <trkpt lat="38.32543149" lon="-2.21012673">
        <ele>687.00000</ele>
        <time>2018-10-12T12:31:59Z</time>
      </trkpt>
      <trkpt lat="38.32537181" lon="-2.21029512">
        <ele>685.00000</ele>
        <time>2018-10-12T12:32:01Z</time>
      </trkpt>
      <trkpt lat="38.32527928" lon="-2.21044340">
        <ele>684.00000</ele>
        <time>2018-10-12T12:32:03Z</time>
      </trkpt>
      <trkpt lat="38.32522521" lon="-2.21050978">
        <ele>683.00000</ele>
        <time>2018-10-12T12:32:04Z</time>
      </trkpt>
      <trkpt lat="38.32516855" lon="-2.21057524">
        <ele>682.00000</ele>
        <time>2018-10-12T12:32:05Z</time>
      </trkpt>
      <trkpt lat="38.32511248" lon="-2.21064574">
        <ele>681.00000</ele>
        <time>2018-10-12T12:32:06Z</time>
      </trkpt>
      <trkpt lat="38.32500435" lon="-2.21080114">
        <ele>680.00000</ele>
        <time>2018-10-12T12:32:08Z</time>
      </trkpt>
      <trkpt lat="38.32490159" lon="-2.21096324">
        <ele>679.00000</ele>
        <time>2018-10-12T12:32:10Z</time>
      </trkpt>
      <trkpt lat="38.32485071" lon="-2.21103742">
        <ele>677.00000</ele>
        <time>2018-10-12T12:32:11Z</time>
      </trkpt>
      <trkpt lat="38.32480067" lon="-2.21110674">
        <ele>675.00000</ele>
        <time>2018-10-12T12:32:12Z</time>
      </trkpt>
      <trkpt lat="38.32475339" lon="-2.21117162">
        <ele>674.00000</ele>
        <time>2018-10-12T12:32:13Z</time>
      </trkpt>
      <trkpt lat="38.32471149" lon="-2.21123507">
        <ele>673.00000</ele>
        <time>2018-10-12T12:32:14Z</time>
      </trkpt>
      <trkpt lat="38.32467838" lon="-2.21130137">
        <ele>672.00000</ele>
        <time>2018-10-12T12:32:15Z</time>
      </trkpt>
      <trkpt lat="38.32465784" lon="-2.21137429">
        <ele>670.00000</ele>
        <time>2018-10-12T12:32:16Z</time>
      </trkpt>
      <trkpt lat="38.32465248" lon="-2.21145870">
        <ele>669.00000</ele>
        <time>2018-10-12T12:32:17Z</time>
      </trkpt>
      <trkpt lat="38.32466421" lon="-2.21155517">
        <ele>668.00000</ele>
        <time>2018-10-12T12:32:18Z</time>
      </trkpt>
      <trkpt lat="38.32472766" lon="-2.21177905">
        <ele>666.00000</ele>
        <time>2018-10-12T12:32:20Z</time>
      </trkpt>
      <trkpt lat="38.32483847" lon="-2.21199447">
        <ele>665.00000</ele>
        <time>2018-10-12T12:32:22Z</time>
      </trkpt>
      <trkpt lat="38.32497325" lon="-2.21216848">
        <ele>663.00000</ele>
        <time>2018-10-12T12:32:24Z</time>
      </trkpt>
      <trkpt lat="38.32503763" lon="-2.21223914">
        <ele>661.00000</ele>
        <time>2018-10-12T12:32:25Z</time>
      </trkpt>
      <trkpt lat="38.32509965" lon="-2.21230359">
        <ele>660.00000</ele>
        <time>2018-10-12T12:32:26Z</time>
      </trkpt>
      <trkpt lat="38.32515724" lon="-2.21236629">
        <ele>658.00000</ele>
        <time>2018-10-12T12:32:27Z</time>
      </trkpt>
      <trkpt lat="38.32520795" lon="-2.21242823">
        <ele>656.00000</ele>
        <time>2018-10-12T12:32:28Z</time>
      </trkpt>
      <trkpt lat="38.32524809" lon="-2.21249001">
        <ele>654.00000</ele>
        <time>2018-10-12T12:32:29Z</time>
      </trkpt>
      <trkpt lat="38.32527416" lon="-2.21255480">
        <ele>652.00000</ele>
        <time>2018-10-12T12:32:30Z</time>
      </trkpt>
      <trkpt lat="38.32528322" lon="-2.21262965">
        <ele>650.00000</ele>
        <time>2018-10-12T12:32:31Z</time>
      </trkpt>
      <trkpt lat="38.32526503" lon="-2.21282629">
        <ele>649.00000</ele>
        <time>2018-10-12T12:32:33Z</time>
      </trkpt>
      <trkpt lat="38.32523217" lon="-2.21304690">
        <ele>648.00000</ele>
        <time>2018-10-12T12:32:35Z</time>
      </trkpt>
      <trkpt lat="38.32521004" lon="-2.21324555">
        <ele>646.00000</ele>
        <time>2018-10-12T12:32:37Z</time>
      </trkpt>
      <trkpt lat="38.32522840" lon="-2.21342794">
        <ele>645.00000</ele>
        <time>2018-10-12T12:32:39Z</time>
      </trkpt>
      <trkpt lat="38.32525639" lon="-2.21351679">
        <ele>643.00000</ele>
        <time>2018-10-12T12:32:40Z</time>
      </trkpt>
      <trkpt lat="38.32529554" lon="-2.21360354">
        <ele>642.00000</ele>
        <time>2018-10-12T12:32:41Z</time>
      </trkpt>
      <trkpt lat="38.32534390" lon="-2.21368845">
        <ele>640.00000</ele>
        <time>2018-10-12T12:32:42Z</time>
      </trkpt>
      <trkpt lat="38.32539964" lon="-2.21377554">
        <ele>639.00000</ele>
        <time>2018-10-12T12:32:43Z</time>
      </trkpt>
      <trkpt lat="38.32545831" lon="-2.21386447">
        <ele>637.00000</ele>
        <time>2018-10-12T12:32:44Z</time>
      </trkpt>
      <trkpt lat="38.32551439" lon="-2.21395139">
        <ele>636.00000</ele>
        <time>2018-10-12T12:32:45Z</time>
      </trkpt>
      <trkpt lat="38.32556669" lon="-2.21403613">
        <ele>633.00000</ele>
        <time>2018-10-12T12:32:46Z</time>
      </trkpt>
      <trkpt lat="38.32561631" lon="-2.21412146">
        <ele>631.00000</ele>
        <time>2018-10-12T12:32:47Z</time>
      </trkpt>
      <trkpt lat="38.32566359" lon="-2.21420528">
        <ele>630.00000</ele>
        <time>2018-10-12T12:32:48Z</time>
      </trkpt>
      <trkpt lat="38.32571337" lon="-2.21428843">
        <ele>629.00000</ele>
        <time>2018-10-12T12:32:49Z</time>
      </trkpt>
      <trkpt lat="38.32576903" lon="-2.21437325">
        <ele>627.00000</ele>
        <time>2018-10-12T12:32:50Z</time>
      </trkpt>
      <trkpt lat="38.32582871" lon="-2.21446302">
        <ele>625.00000</ele>
        <time>2018-10-12T12:32:51Z</time>
      </trkpt>
      <trkpt lat="38.32588797" lon="-2.21455656">
        <ele>623.00000</ele>
        <time>2018-10-12T12:32:52Z</time>
      </trkpt>
      <trkpt lat="38.32594270" lon="-2.21465262">
        <ele>622.00000</ele>
        <time>2018-10-12T12:32:53Z</time>
      </trkpt>
      <trkpt lat="38.32599182" lon="-2.21475027">
        <ele>621.00000</ele>
        <time>2018-10-12T12:32:54Z</time>
      </trkpt>
      <trkpt lat="38.32608218" lon="-2.21493601">
        <ele>619.00000</ele>
        <time>2018-10-12T12:32:56Z</time>
      </trkpt>
      <trkpt lat="38.32612878" lon="-2.21502235">
        <ele>618.00000</ele>
        <time>2018-10-12T12:32:57Z</time>
      </trkpt>
      <trkpt lat="38.32617748" lon="-2.21510524">
        <ele>617.00000</ele>
        <time>2018-10-12T12:32:58Z</time>
      </trkpt>
      <trkpt lat="38.32622844" lon="-2.21518286">
        <ele>615.00000</ele>
        <time>2018-10-12T12:32:59Z</time>
      </trkpt>
      <trkpt lat="38.32628410" lon="-2.21525444">
        <ele>614.00000</ele>
        <time>2018-10-12T12:33:00Z</time>
      </trkpt>
      <trkpt lat="38.32634671" lon="-2.21532166">
        <ele>612.00000</ele>
        <time>2018-10-12T12:33:01Z</time>
      </trkpt>
      <trkpt lat="38.32641494" lon="-2.21538729">
        <ele>611.00000</ele>
        <time>2018-10-12T12:33:02Z</time>
      </trkpt>
      <trkpt lat="38.32656120" lon="-2.21551554">
        <ele>610.00000</ele>
        <time>2018-10-12T12:33:04Z</time>
      </trkpt>
      <trkpt lat="38.32670629" lon="-2.21564160">
        <ele>608.00000</ele>
        <time>2018-10-12T12:33:06Z</time>
      </trkpt>
      <trkpt lat="38.32682155" lon="-2.21573732">
        <ele>607.00000</ele>
        <time>2018-10-12T12:33:08Z</time>
      </trkpt>
      <trkpt lat="38.32687200" lon="-2.21578191">
        <ele>605.00000</ele>
        <time>2018-10-12T12:33:09Z</time>
      </trkpt>
      <trkpt lat="38.32691090" lon="-2.21581796">
        <ele>604.00000</ele>
        <time>2018-10-12T12:33:10Z</time>
      </trkpt>
      <trkpt lat="38.32693898" lon="-2.21584302">
        <ele>603.00000</ele>
        <time>2018-10-12T12:33:11Z</time>
      </trkpt>
      <trkpt lat="38.32697644" lon="-2.21588191">
        <ele>602.00000</ele>
        <time>2018-10-12T12:33:13Z</time>
      </trkpt>
      <trkpt lat="38.32699849" lon="-2.21595668">
        <ele>601.00000</ele>
        <time>2018-10-12T12:33:16Z</time>
      </trkpt>
      <trkpt lat="38.32694384" lon="-2.21609900">
        <ele>601.00000</ele>
        <time>2018-10-12T12:33:24Z</time>
      </trkpt>
      <trkpt lat="38.32679045" lon="-2.21622440">
        <ele>601.00000</ele>
        <time>2018-10-12T12:33:32Z</time>
      </trkpt>
      <trkpt lat="38.32668190" lon="-2.21634359">
        <ele>601.00000</ele>
        <time>2018-10-12T12:33:37Z</time>
      </trkpt>
      <trkpt lat="38.32657797" lon="-2.21649320">
        <ele>602.00000</ele>
        <time>2018-10-12T12:33:44Z</time>
      </trkpt>
      <trkpt lat="38.32653614" lon="-2.21656797">
        <ele>602.00000</ele>
        <time>2018-10-12T12:33:47Z</time>
      </trkpt>
      <trkpt lat="38.32649054" lon="-2.21665321">
        <ele>602.00000</ele>
        <time>2018-10-12T12:33:50Z</time>
      </trkpt>
      <trkpt lat="38.32640446" lon="-2.21680367">
        <ele>602.00000</ele>
        <time>2018-10-12T12:33:55Z</time>
      </trkpt>
      <trkpt lat="38.32632467" lon="-2.21701431">
        <ele>602.00000</ele>
        <time>2018-10-12T12:34:00Z</time>
      </trkpt>
      <trkpt lat="38.32627329" lon="-2.21718287">
        <ele>602.00000</ele>
        <time>2018-10-12T12:34:04Z</time>
      </trkpt>
      <trkpt lat="38.32623280" lon="-2.21743114">
        <ele>602.00000</ele>
        <time>2018-10-12T12:34:09Z</time>
      </trkpt>
      <trkpt lat="38.32654193" lon="-2.21792282">
        <ele>603.00000</ele>
        <time>2018-10-12T12:34:26Z</time>
      </trkpt>
      <trkpt lat="38.32673261" lon="-2.21811946">
        <ele>603.00000</ele>
        <time>2018-10-12T12:34:32Z</time>
      </trkpt>
      <trkpt lat="38.32687066" lon="-2.21827193">
        <ele>603.00000</ele>
        <time>2018-10-12T12:34:37Z</time>
      </trkpt>
      <trkpt lat="38.32692003" lon="-2.21832792">
        <ele>603.00000</ele>
        <time>2018-10-12T12:34:39Z</time>
      </trkpt>
      <trkpt lat="38.32700159" lon="-2.21844870">
        <ele>604.00000</ele>
        <time>2018-10-12T12:34:44Z</time>
      </trkpt>
      <trkpt lat="38.32702606" lon="-2.21845071">
        <ele>605.00000</ele>
        <time>2018-10-12T12:34:45Z</time>
      </trkpt>
      <trkpt lat="38.32705180" lon="-2.21844610">
        <ele>605.00000</ele>
        <time>2018-10-12T12:34:46Z</time>
      </trkpt>
      <trkpt lat="38.32710318" lon="-2.21841869">
        <ele>607.00000</ele>
        <time>2018-10-12T12:34:48Z</time>
      </trkpt>
      <trkpt lat="38.32712665" lon="-2.21839740">
        <ele>607.00000</ele>
        <time>2018-10-12T12:34:49Z</time>
      </trkpt>
      <trkpt lat="38.32715079" lon="-2.21837645">
        <ele>608.00000</ele>
        <time>2018-10-12T12:34:50Z</time>
      </trkpt>
      <trkpt lat="38.32722983" lon="-2.21830788">
        <ele>609.00000</ele>
        <time>2018-10-12T12:34:53Z</time>
      </trkpt>
      <trkpt lat="38.32725791" lon="-2.21828232">
        <ele>609.00000</ele>
        <time>2018-10-12T12:34:54Z</time>
      </trkpt>
      <trkpt lat="38.32746695" lon="-2.21814192">
        <ele>610.00000</ele>
        <time>2018-10-12T12:35:01Z</time>
      </trkpt>
      <trkpt lat="38.32749478" lon="-2.21811837">
        <ele>610.00000</ele>
        <time>2018-10-12T12:35:02Z</time>
      </trkpt>
      <trkpt lat="38.32761229" lon="-2.21804209">
        <ele>611.00000</ele>
        <time>2018-10-12T12:35:06Z</time>
      </trkpt>
      <trkpt lat="38.32770114" lon="-2.21800731">
        <ele>612.00000</ele>
        <time>2018-10-12T12:35:09Z</time>
      </trkpt>
      <trkpt lat="38.32781019" lon="-2.21796364">
        <ele>614.00000</ele>
        <time>2018-10-12T12:35:13Z</time>
      </trkpt>
      <trkpt lat="38.32788848" lon="-2.21793757">
        <ele>615.00000</ele>
        <time>2018-10-12T12:35:16Z</time>
      </trkpt>
      <trkpt lat="38.32797599" lon="-2.21794964">
        <ele>616.00000</ele>
        <time>2018-10-12T12:35:20Z</time>
      </trkpt>
      <trkpt lat="38.32804648" lon="-2.21798929">
        <ele>617.00000</ele>
        <time>2018-10-12T12:35:23Z</time>
      </trkpt>
      <trkpt lat="38.32809945" lon="-2.21807135">
        <ele>618.00000</ele>
        <time>2018-10-12T12:35:26Z</time>
      </trkpt>
      <trkpt lat="38.32815846" lon="-2.21812357">
        <ele>619.00000</ele>
        <time>2018-10-12T12:35:29Z</time>
      </trkpt>
      <trkpt lat="38.32823943" lon="-2.21818459">
        <ele>621.00000</ele>
        <time>2018-10-12T12:35:32Z</time>
      </trkpt>
      <trkpt lat="38.32833180" lon="-2.21823220">
        <ele>622.00000</ele>
        <time>2018-10-12T12:35:35Z</time>
      </trkpt>
      <trkpt lat="38.32863908" lon="-2.21829112">
        <ele>622.00000</ele>
        <time>2018-10-12T12:35:45Z</time>
      </trkpt>
      <trkpt lat="38.32889255" lon="-2.21841065">
        <ele>622.00000</ele>
        <time>2018-10-12T12:35:54Z</time>
      </trkpt>
      <trkpt lat="38.32891769" lon="-2.21841216">
        <ele>622.00000</ele>
        <time>2018-10-12T12:35:55Z</time>
      </trkpt>
      <trkpt lat="38.32903755" lon="-2.21824904">
        <ele>623.00000</ele>
        <time>2018-10-12T12:36:03Z</time>
      </trkpt>
      <trkpt lat="38.32906505" lon="-2.21808945">
        <ele>624.00000</ele>
        <time>2018-10-12T12:36:08Z</time>
      </trkpt>
      <trkpt lat="38.32912892" lon="-2.21796708">
        <ele>624.00000</ele>
        <time>2018-10-12T12:36:12Z</time>
      </trkpt>
      <trkpt lat="38.32918373" lon="-2.21791553">
        <ele>626.00000</ele>
        <time>2018-10-12T12:36:15Z</time>
      </trkpt>
      <trkpt lat="38.32925104" lon="-2.21784378">
        <ele>627.00000</ele>
        <time>2018-10-12T12:36:18Z</time>
      </trkpt>
      <trkpt lat="38.32929655" lon="-2.21781168">
        <ele>628.00000</ele>
        <time>2018-10-12T12:36:20Z</time>
      </trkpt>
      <trkpt lat="38.32932237" lon="-2.21781134">
        <ele>629.00000</ele>
        <time>2018-10-12T12:36:21Z</time>
      </trkpt>
      <trkpt lat="38.32936344" lon="-2.21784344">
        <ele>630.00000</ele>
        <time>2018-10-12T12:36:23Z</time>
      </trkpt>
      <trkpt lat="38.32940594" lon="-2.21789759">
        <ele>631.00000</ele>
        <time>2018-10-12T12:36:25Z</time>
      </trkpt>
      <trkpt lat="38.32954650" lon="-2.21808727">
        <ele>632.00000</ele>
        <time>2018-10-12T12:36:31Z</time>
      </trkpt>
      <trkpt lat="38.32978799" lon="-2.21849078">
        <ele>633.00000</ele>
        <time>2018-10-12T12:36:44Z</time>
      </trkpt>
      <trkpt lat="38.32986476" lon="-2.21860586">
        <ele>634.00000</ele>
        <time>2018-10-12T12:36:48Z</time>
      </trkpt>
      <trkpt lat="38.32988790" lon="-2.21873184">
        <ele>635.00000</ele>
        <time>2018-10-12T12:36:53Z</time>
      </trkpt>
      <trkpt lat="38.32988957" lon="-2.21875070">
        <ele>636.00000</ele>
        <time>2018-10-12T12:36:55Z</time>
      </trkpt>
      <trkpt lat="38.32991028" lon="-2.21869144">
        <ele>638.00000</ele>
        <time>2018-10-12T12:49:41Z</time>
      </trkpt>
      <trkpt lat="38.32992478" lon="-2.21868197">
        <ele>638.00000</ele>
        <time>2018-10-12T12:49:42Z</time>
      </trkpt>
      <trkpt lat="38.32999083" lon="-2.21872027">
        <ele>638.00000</ele>
        <time>2018-10-12T12:49:46Z</time>
      </trkpt>
      <trkpt lat="38.33003592" lon="-2.21878741">
        <ele>638.00000</ele>
        <time>2018-10-12T12:49:49Z</time>
      </trkpt>
      <trkpt lat="38.33006870" lon="-2.21883167">
        <ele>638.00000</ele>
        <time>2018-10-12T12:49:51Z</time>
      </trkpt>
      <trkpt lat="38.33014422" lon="-2.21891624">
        <ele>638.00000</ele>
        <time>2018-10-12T12:49:55Z</time>
      </trkpt>
      <trkpt lat="38.33028587" lon="-2.21899922">
        <ele>638.00000</ele>
        <time>2018-10-12T12:50:00Z</time>
      </trkpt>
      <trkpt lat="38.33037815" lon="-2.21905413">
        <ele>638.00000</ele>
        <time>2018-10-12T12:50:03Z</time>
      </trkpt>
      <trkpt lat="38.33047153" lon="-2.21909964">
        <ele>639.00000</ele>
        <time>2018-10-12T12:50:06Z</time>
      </trkpt>
      <trkpt lat="38.33056591" lon="-2.21913241">
        <ele>639.00000</ele>
        <time>2018-10-12T12:50:09Z</time>
      </trkpt>
      <trkpt lat="38.33072391" lon="-2.21917181">
        <ele>640.00000</ele>
        <time>2018-10-12T12:50:14Z</time>
      </trkpt>
      <trkpt lat="38.33096162" lon="-2.21921766">
        <ele>640.00000</ele>
        <time>2018-10-12T12:50:21Z</time>
      </trkpt>
      <trkpt lat="38.33102457" lon="-2.21922688">
        <ele>641.00000</ele>
        <time>2018-10-12T12:50:23Z</time>
      </trkpt>
      <trkpt lat="38.33130553" lon="-2.21925948">
        <ele>642.00000</ele>
        <time>2018-10-12T12:50:32Z</time>
      </trkpt>
      <trkpt lat="38.33152782" lon="-2.21928698">
        <ele>643.00000</ele>
        <time>2018-10-12T12:50:39Z</time>
      </trkpt>
      <trkpt lat="38.33174625" lon="-2.21930357">
        <ele>643.00000</ele>
        <time>2018-10-12T12:50:45Z</time>
      </trkpt>
      <trkpt lat="38.33233189" lon="-2.21938203">
        <ele>643.00000</ele>
        <time>2018-10-12T12:50:56Z</time>
      </trkpt>
      <trkpt lat="38.33247321" lon="-2.21945872">
        <ele>642.00000</ele>
        <time>2018-10-12T12:50:58Z</time>
      </trkpt>
      <trkpt lat="38.33259232" lon="-2.21961479">
        <ele>641.00000</ele>
        <time>2018-10-12T12:51:00Z</time>
      </trkpt>
      <trkpt lat="38.33271285" lon="-2.21995275">
        <ele>640.00000</ele>
        <time>2018-10-12T12:51:03Z</time>
      </trkpt>
      <trkpt lat="38.33274822" lon="-2.22007613">
        <ele>639.00000</ele>
        <time>2018-10-12T12:51:04Z</time>
      </trkpt>
      <trkpt lat="38.33278954" lon="-2.22019867">
        <ele>638.00000</ele>
        <time>2018-10-12T12:51:05Z</time>
      </trkpt>
      <trkpt lat="38.33290555" lon="-2.22043337">
        <ele>636.00000</ele>
        <time>2018-10-12T12:51:07Z</time>
      </trkpt>
      <trkpt lat="38.33307294" lon="-2.22063001">
        <ele>635.00000</ele>
        <time>2018-10-12T12:51:09Z</time>
      </trkpt>
      <trkpt lat="38.33317344" lon="-2.22070754">
        <ele>633.00000</ele>
        <time>2018-10-12T12:51:10Z</time>
      </trkpt>
      <trkpt lat="38.33328064" lon="-2.22077661">
        <ele>630.00000</ele>
        <time>2018-10-12T12:51:11Z</time>
      </trkpt>
      <trkpt lat="38.33350486" lon="-2.22090695">
        <ele>629.00000</ele>
        <time>2018-10-12T12:51:13Z</time>
      </trkpt>
      <trkpt lat="38.33362195" lon="-2.22096528">
        <ele>628.00000</ele>
        <time>2018-10-12T12:51:14Z</time>
      </trkpt>
      <trkpt lat="38.33374399" lon="-2.22101507">
        <ele>626.00000</ele>
        <time>2018-10-12T12:51:15Z</time>
      </trkpt>
      <trkpt lat="38.33387014" lon="-2.22105380">
        <ele>625.00000</ele>
        <time>2018-10-12T12:51:16Z</time>
      </trkpt>
      <trkpt lat="38.33399939" lon="-2.22108154">
        <ele>624.00000</ele>
        <time>2018-10-12T12:51:17Z</time>
      </trkpt>
      <trkpt lat="38.33412981" lon="-2.22110266">
        <ele>623.00000</ele>
        <time>2018-10-12T12:51:18Z</time>
      </trkpt>
      <trkpt lat="38.33439107" lon="-2.22114030">
        <ele>621.00000</ele>
        <time>2018-10-12T12:51:20Z</time>
      </trkpt>
      <trkpt lat="38.33464639" lon="-2.22117240">
        <ele>619.00000</ele>
        <time>2018-10-12T12:51:22Z</time>
      </trkpt>
      <trkpt lat="38.33488770" lon="-2.22119688">
        <ele>617.00000</ele>
        <time>2018-10-12T12:51:24Z</time>
      </trkpt>
      <trkpt lat="38.33550377" lon="-2.22131129">
        <ele>616.00000</ele>
        <time>2018-10-12T12:51:30Z</time>
      </trkpt>
      <trkpt lat="38.33568382" lon="-2.22138237">
        <ele>616.00000</ele>
        <time>2018-10-12T12:51:32Z</time>
      </trkpt>
      <trkpt lat="38.33598297" lon="-2.22151782">
        <ele>617.00000</ele>
        <time>2018-10-12T12:51:36Z</time>
      </trkpt>
      <trkpt lat="38.33609445" lon="-2.22155864">
        <ele>618.00000</ele>
        <time>2018-10-12T12:51:39Z</time>
      </trkpt>
      <trkpt lat="38.33613158" lon="-2.22156920">
        <ele>619.00000</ele>
        <time>2018-10-12T12:51:41Z</time>
      </trkpt>
      <trkpt lat="38.33614910" lon="-2.22157155">
        <ele>619.00000</ele>
        <time>2018-10-12T12:51:42Z</time>
      </trkpt>
      <trkpt lat="38.33620316" lon="-2.22160759">
        <ele>621.00000</ele>
        <time>2018-10-12T12:51:45Z</time>
      </trkpt>
      <trkpt lat="38.33620634" lon="-2.22173131">
        <ele>621.00000</ele>
        <time>2018-10-12T12:51:48Z</time>
      </trkpt>
      <trkpt lat="38.33619578" lon="-2.22188520">
        <ele>621.00000</ele>
        <time>2018-10-12T12:51:51Z</time>
      </trkpt>
      <trkpt lat="38.33618430" lon="-2.22211511">
        <ele>621.00000</ele>
        <time>2018-10-12T12:51:55Z</time>
      </trkpt>
      <trkpt lat="38.33617491" lon="-2.22229507">
        <ele>621.00000</ele>
        <time>2018-10-12T12:51:58Z</time>
      </trkpt>
      <trkpt lat="38.33616645" lon="-2.22260537">
        <ele>621.00000</ele>
        <time>2018-10-12T12:52:03Z</time>
      </trkpt>
      <trkpt lat="38.33617600" lon="-2.22292053">
        <ele>621.00000</ele>
        <time>2018-10-12T12:52:08Z</time>
      </trkpt>
      <trkpt lat="38.33621087" lon="-2.22316537">
        <ele>622.00000</ele>
        <time>2018-10-12T12:52:12Z</time>
      </trkpt>
      <trkpt lat="38.33622311" lon="-2.22322555">
        <ele>622.00000</ele>
        <time>2018-10-12T12:52:13Z</time>
      </trkpt>
      <trkpt lat="38.33632763" lon="-2.22356552">
        <ele>623.00000</ele>
        <time>2018-10-12T12:52:19Z</time>
      </trkpt>
      <trkpt lat="38.33644397" lon="-2.22382460">
        <ele>624.00000</ele>
        <time>2018-10-12T12:52:24Z</time>
      </trkpt>
      <trkpt lat="38.33654564" lon="-2.22402879">
        <ele>625.00000</ele>
        <time>2018-10-12T12:52:28Z</time>
      </trkpt>
      <trkpt lat="38.33666869" lon="-2.22428611">
        <ele>626.00000</ele>
        <time>2018-10-12T12:52:33Z</time>
      </trkpt>
      <trkpt lat="38.33679081" lon="-2.22453438">
        <ele>627.00000</ele>
        <time>2018-10-12T12:52:38Z</time>
      </trkpt>
      <trkpt lat="38.33691042" lon="-2.22478475">
        <ele>629.00000</ele>
        <time>2018-10-12T12:52:43Z</time>
      </trkpt>
      <trkpt lat="38.33703498" lon="-2.22502548">
        <ele>630.00000</ele>
        <time>2018-10-12T12:52:48Z</time>
      </trkpt>
      <trkpt lat="38.33717789" lon="-2.22531675">
        <ele>631.00000</ele>
        <time>2018-10-12T12:52:54Z</time>
      </trkpt>
      <trkpt lat="38.33727763" lon="-2.22550459">
        <ele>632.00000</ele>
        <time>2018-10-12T12:52:58Z</time>
      </trkpt>
      <trkpt lat="38.33743278" lon="-2.22578094">
        <ele>633.00000</ele>
        <time>2018-10-12T12:53:04Z</time>
      </trkpt>
      <trkpt lat="38.33758391" lon="-2.22605285">
        <ele>634.00000</ele>
        <time>2018-10-12T12:53:10Z</time>
      </trkpt>
      <trkpt lat="38.33773721" lon="-2.22632224">
        <ele>635.00000</ele>
        <time>2018-10-12T12:53:16Z</time>
      </trkpt>
      <trkpt lat="38.33786093" lon="-2.22654512">
        <ele>636.00000</ele>
        <time>2018-10-12T12:53:21Z</time>
      </trkpt>
      <trkpt lat="38.33790762" lon="-2.22663883">
        <ele>637.00000</ele>
        <time>2018-10-12T12:53:23Z</time>
      </trkpt>
      <trkpt lat="38.33801105" lon="-2.22680957">
        <ele>637.00000</ele>
        <time>2018-10-12T12:53:27Z</time>
      </trkpt>
      <trkpt lat="38.33812731" lon="-2.22702213">
        <ele>639.00000</ele>
        <time>2018-10-12T12:53:32Z</time>
      </trkpt>
      <trkpt lat="38.33826771" lon="-2.22726521">
        <ele>640.00000</ele>
        <time>2018-10-12T12:53:38Z</time>
      </trkpt>
      <trkpt lat="38.33841062" lon="-2.22752085">
        <ele>641.00000</ele>
        <time>2018-10-12T12:53:44Z</time>
      </trkpt>
      <trkpt lat="38.33856208" lon="-2.22779804">
        <ele>642.00000</ele>
        <time>2018-10-12T12:53:50Z</time>
      </trkpt>
      <trkpt lat="38.33869208" lon="-2.22803089">
        <ele>643.00000</ele>
        <time>2018-10-12T12:53:55Z</time>
      </trkpt>
      <trkpt lat="38.33890163" lon="-2.22840431">
        <ele>644.00000</ele>
        <time>2018-10-12T12:54:03Z</time>
      </trkpt>
      <trkpt lat="38.33904898" lon="-2.22863799">
        <ele>645.00000</ele>
        <time>2018-10-12T12:54:08Z</time>
      </trkpt>
      <trkpt lat="38.33943061" lon="-2.22921718">
        <ele>646.00000</ele>
        <time>2018-10-12T12:54:19Z</time>
      </trkpt>
      <trkpt lat="38.33953622" lon="-2.22938348">
        <ele>645.00000</ele>
        <time>2018-10-12T12:54:22Z</time>
      </trkpt>
      <trkpt lat="38.33964418" lon="-2.22954215">
        <ele>645.00000</ele>
        <time>2018-10-12T12:54:25Z</time>
      </trkpt>
      <trkpt lat="38.33975088" lon="-2.22970920">
        <ele>644.00000</ele>
        <time>2018-10-12T12:54:28Z</time>
      </trkpt>
      <trkpt lat="38.33990553" lon="-2.22996661">
        <ele>644.00000</ele>
        <time>2018-10-12T12:54:32Z</time>
      </trkpt>
      <trkpt lat="38.33998532" lon="-2.23010382">
        <ele>644.00000</ele>
        <time>2018-10-12T12:54:34Z</time>
      </trkpt>
      <trkpt lat="38.34008968" lon="-2.23032435">
        <ele>644.00000</ele>
        <time>2018-10-12T12:54:37Z</time>
      </trkpt>
      <trkpt lat="38.34022656" lon="-2.23073649">
        <ele>643.00000</ele>
        <time>2018-10-12T12:54:42Z</time>
      </trkpt>
      <trkpt lat="38.34027618" lon="-2.23091167">
        <ele>643.00000</ele>
        <time>2018-10-12T12:54:44Z</time>
      </trkpt>
      <trkpt lat="38.34032261" lon="-2.23109113">
        <ele>642.00000</ele>
        <time>2018-10-12T12:54:46Z</time>
      </trkpt>
      <trkpt lat="38.34034784" lon="-2.23117972">
        <ele>642.00000</ele>
        <time>2018-10-12T12:54:47Z</time>
      </trkpt>
      <trkpt lat="38.34037307" lon="-2.23126782">
        <ele>642.00000</ele>
        <time>2018-10-12T12:54:48Z</time>
      </trkpt>
      <trkpt lat="38.34042328" lon="-2.23144174">
        <ele>641.00000</ele>
        <time>2018-10-12T12:54:50Z</time>
      </trkpt>
      <trkpt lat="38.34061590" lon="-2.23212378">
        <ele>640.00000</ele>
        <time>2018-10-12T12:54:58Z</time>
      </trkpt>
      <trkpt lat="38.34070499" lon="-2.23245210">
        <ele>640.00000</ele>
        <time>2018-10-12T12:55:02Z</time>
      </trkpt>
      <trkpt lat="38.34074850" lon="-2.23260800">
        <ele>640.00000</ele>
        <time>2018-10-12T12:55:04Z</time>
      </trkpt>
      <trkpt lat="38.34078680" lon="-2.23275988">
        <ele>640.00000</ele>
        <time>2018-10-12T12:55:06Z</time>
      </trkpt>
      <trkpt lat="38.34082754" lon="-2.23290824">
        <ele>641.00000</ele>
        <time>2018-10-12T12:55:08Z</time>
      </trkpt>
      <trkpt lat="38.34089493" lon="-2.23312851">
        <ele>641.00000</ele>
        <time>2018-10-12T12:55:11Z</time>
      </trkpt>
      <trkpt lat="38.34095771" lon="-2.23335994">
        <ele>642.00000</ele>
        <time>2018-10-12T12:55:14Z</time>
      </trkpt>
      <trkpt lat="38.34117120" lon="-2.23408564">
        <ele>642.00000</ele>
        <time>2018-10-12T12:55:23Z</time>
      </trkpt>
      <trkpt lat="38.34131687" lon="-2.23458881">
        <ele>641.00000</ele>
        <time>2018-10-12T12:55:29Z</time>
      </trkpt>
      <trkpt lat="38.34140597" lon="-2.23492249">
        <ele>640.00000</ele>
        <time>2018-10-12T12:55:33Z</time>
      </trkpt>
      <trkpt lat="38.34147068" lon="-2.23517999">
        <ele>640.00000</ele>
        <time>2018-10-12T12:55:36Z</time>
      </trkpt>
      <trkpt lat="38.34164687" lon="-2.23587317">
        <ele>639.00000</ele>
        <time>2018-10-12T12:55:43Z</time>
      </trkpt>
      <trkpt lat="38.34167235" lon="-2.23598163">
        <ele>639.00000</ele>
        <time>2018-10-12T12:55:44Z</time>
      </trkpt>
      <trkpt lat="38.34169666" lon="-2.23609076">
        <ele>639.00000</ele>
        <time>2018-10-12T12:55:45Z</time>
      </trkpt>
      <trkpt lat="38.34171803" lon="-2.23619948">
        <ele>638.00000</ele>
        <time>2018-10-12T12:55:46Z</time>
      </trkpt>
      <trkpt lat="38.34176003" lon="-2.23641229">
        <ele>637.00000</ele>
        <time>2018-10-12T12:55:48Z</time>
      </trkpt>
      <trkpt lat="38.34181493" lon="-2.23661354">
        <ele>636.00000</ele>
        <time>2018-10-12T12:55:50Z</time>
      </trkpt>
      <trkpt lat="38.34184644" lon="-2.23671203">
        <ele>635.00000</ele>
        <time>2018-10-12T12:55:51Z</time>
      </trkpt>
      <trkpt lat="38.34190419" lon="-2.23691252">
        <ele>635.00000</ele>
        <time>2018-10-12T12:55:53Z</time>
      </trkpt>
      <trkpt lat="38.34201199" lon="-2.23731628">
        <ele>634.00000</ele>
        <time>2018-10-12T12:55:57Z</time>
      </trkpt>
      <trkpt lat="38.34219127" lon="-2.23801617">
        <ele>634.00000</ele>
        <time>2018-10-12T12:56:04Z</time>
      </trkpt>
      <trkpt lat="38.34228917" lon="-2.23842521">
        <ele>634.00000</ele>
        <time>2018-10-12T12:56:08Z</time>
      </trkpt>
      <trkpt lat="38.34231063" lon="-2.23863710">
        <ele>634.00000</ele>
        <time>2018-10-12T12:56:10Z</time>
      </trkpt>
      <trkpt lat="38.34207393" lon="-2.23934814">
        <ele>634.00000</ele>
        <time>2018-10-12T12:56:17Z</time>
      </trkpt>
      <trkpt lat="38.34201232" lon="-2.23944361">
        <ele>633.00000</ele>
        <time>2018-10-12T12:56:18Z</time>
      </trkpt>
      <trkpt lat="38.34194317" lon="-2.23953464">
        <ele>633.00000</ele>
        <time>2018-10-12T12:56:19Z</time>
      </trkpt>
      <trkpt lat="38.34178308" lon="-2.23970085">
        <ele>632.00000</ele>
        <time>2018-10-12T12:56:21Z</time>
      </trkpt>
      <trkpt lat="38.34160320" lon="-2.23984795">
        <ele>631.00000</ele>
        <time>2018-10-12T12:56:23Z</time>
      </trkpt>
      <trkpt lat="38.34141134" lon="-2.23998030">
        <ele>629.00000</ele>
        <time>2018-10-12T12:56:25Z</time>
      </trkpt>
      <trkpt lat="38.34131671" lon="-2.24004861">
        <ele>628.00000</ele>
        <time>2018-10-12T12:56:26Z</time>
      </trkpt>
      <trkpt lat="38.34122953" lon="-2.24012514">
        <ele>627.00000</ele>
        <time>2018-10-12T12:56:27Z</time>
      </trkpt>
      <trkpt lat="38.34115887" lon="-2.24021206">
        <ele>626.00000</ele>
        <time>2018-10-12T12:56:28Z</time>
      </trkpt>
      <trkpt lat="38.34111051" lon="-2.24031155">
        <ele>625.00000</ele>
        <time>2018-10-12T12:56:29Z</time>
      </trkpt>
      <trkpt lat="38.34108771" lon="-2.24042102">
        <ele>623.00000</ele>
        <time>2018-10-12T12:56:30Z</time>
      </trkpt>
      <trkpt lat="38.34109568" lon="-2.24064624">
        <ele>622.00000</ele>
        <time>2018-10-12T12:56:32Z</time>
      </trkpt>
      <trkpt lat="38.34110942" lon="-2.24075739">
        <ele>622.00000</ele>
        <time>2018-10-12T12:56:33Z</time>
      </trkpt>
      <trkpt lat="38.34118645" lon="-2.24132107">
        <ele>621.00000</ele>
        <time>2018-10-12T12:56:38Z</time>
      </trkpt>
      <trkpt lat="38.34122392" lon="-2.24179515">
        <ele>621.00000</ele>
        <time>2018-10-12T12:56:42Z</time>
      </trkpt>
      <trkpt lat="38.34121948" lon="-2.24205499">
        <ele>620.00000</ele>
        <time>2018-10-12T12:56:44Z</time>
      </trkpt>
      <trkpt lat="38.34119928" lon="-2.24232874">
        <ele>620.00000</ele>
        <time>2018-10-12T12:56:46Z</time>
      </trkpt>
      <trkpt lat="38.34115552" lon="-2.24274474">
        <ele>619.00000</ele>
        <time>2018-10-12T12:56:49Z</time>
      </trkpt>
      <trkpt lat="38.34112610" lon="-2.24300466">
        <ele>617.00000</ele>
        <time>2018-10-12T12:56:51Z</time>
      </trkpt>
      <trkpt lat="38.34109777" lon="-2.24323634">
        <ele>615.00000</ele>
        <time>2018-10-12T12:56:53Z</time>
      </trkpt>
      <trkpt lat="38.34107564" lon="-2.24343759">
        <ele>615.00000</ele>
        <time>2018-10-12T12:56:55Z</time>
      </trkpt>
      <trkpt lat="38.34106500" lon="-2.24352937">
        <ele>615.00000</ele>
        <time>2018-10-12T12:56:56Z</time>
      </trkpt>
      <trkpt lat="38.34104572" lon="-2.24369684">
        <ele>615.00000</ele>
        <time>2018-10-12T12:56:58Z</time>
      </trkpt>
      <trkpt lat="38.34099928" lon="-2.24411618">
        <ele>617.00000</ele>
        <time>2018-10-12T12:57:04Z</time>
      </trkpt>
      <trkpt lat="38.34098445" lon="-2.24424443">
        <ele>618.00000</ele>
        <time>2018-10-12T12:57:06Z</time>
      </trkpt>
      <trkpt lat="38.34097062" lon="-2.24436949">
        <ele>620.00000</ele>
        <time>2018-10-12T12:57:08Z</time>
      </trkpt>
      <trkpt lat="38.34095436" lon="-2.24449094">
        <ele>621.00000</ele>
        <time>2018-10-12T12:57:10Z</time>
      </trkpt>
      <trkpt lat="38.34094053" lon="-2.24461273">
        <ele>622.00000</ele>
        <time>2018-10-12T12:57:12Z</time>
      </trkpt>
      <trkpt lat="38.34093332" lon="-2.24467249">
        <ele>622.00000</ele>
        <time>2018-10-12T12:57:13Z</time>
      </trkpt>
      <trkpt lat="38.34092066" lon="-2.24478942">
        <ele>623.00000</ele>
        <time>2018-10-12T12:57:15Z</time>
      </trkpt>
      <trkpt lat="38.34091370" lon="-2.24484533">
        <ele>623.00000</ele>
        <time>2018-10-12T12:57:16Z</time>
      </trkpt>
      <trkpt lat="38.34090063" lon="-2.24496477">
        <ele>624.00000</ele>
        <time>2018-10-12T12:57:18Z</time>
      </trkpt>
      <trkpt lat="38.34088504" lon="-2.24508647">
        <ele>625.00000</ele>
        <time>2018-10-12T12:57:20Z</time>
      </trkpt>
      <trkpt lat="38.34087112" lon="-2.24521153">
        <ele>625.00000</ele>
        <time>2018-10-12T12:57:22Z</time>
      </trkpt>
      <trkpt lat="38.34085620" lon="-2.24533860">
        <ele>626.00000</ele>
        <time>2018-10-12T12:57:24Z</time>
      </trkpt>
      <trkpt lat="38.34084497" lon="-2.24546156">
        <ele>626.00000</ele>
        <time>2018-10-12T12:57:26Z</time>
      </trkpt>
      <trkpt lat="38.34083366" lon="-2.24557832">
        <ele>627.00000</ele>
        <time>2018-10-12T12:57:28Z</time>
      </trkpt>
      <trkpt lat="38.34082033" lon="-2.24575057">
        <ele>627.00000</ele>
        <time>2018-10-12T12:57:31Z</time>
      </trkpt>
      <trkpt lat="38.34081371" lon="-2.24592223">
        <ele>629.00000</ele>
        <time>2018-10-12T12:57:34Z</time>
      </trkpt>
      <trkpt lat="38.34081245" lon="-2.24609565">
        <ele>630.00000</ele>
        <time>2018-10-12T12:57:37Z</time>
      </trkpt>
      <trkpt lat="38.34082083" lon="-2.24633211">
        <ele>631.00000</ele>
        <time>2018-10-12T12:57:41Z</time>
      </trkpt>
      <trkpt lat="38.34085034" lon="-2.24657108">
        <ele>632.00000</ele>
        <time>2018-10-12T12:57:45Z</time>
      </trkpt>
      <trkpt lat="38.34089837" lon="-2.24686989">
        <ele>633.00000</ele>
        <time>2018-10-12T12:57:50Z</time>
      </trkpt>
      <trkpt lat="38.34092871" lon="-2.24705086">
        <ele>633.00000</ele>
        <time>2018-10-12T12:57:53Z</time>
      </trkpt>
      <trkpt lat="38.34105762" lon="-2.24772384">
        <ele>634.00000</ele>
        <time>2018-10-12T12:58:04Z</time>
      </trkpt>
      <trkpt lat="38.34111495" lon="-2.24806121">
        <ele>634.00000</ele>
        <time>2018-10-12T12:58:09Z</time>
      </trkpt>
      <trkpt lat="38.34120523" lon="-2.24851719">
        <ele>634.00000</ele>
        <time>2018-10-12T12:58:15Z</time>
      </trkpt>
      <trkpt lat="38.34131109" lon="-2.24908590">
        <ele>633.00000</ele>
        <time>2018-10-12T12:58:22Z</time>
      </trkpt>
      <trkpt lat="38.34140639" lon="-2.24960516">
        <ele>633.00000</ele>
        <time>2018-10-12T12:58:29Z</time>
      </trkpt>
      <trkpt lat="38.34148359" lon="-2.25001688">
        <ele>634.00000</ele>
        <time>2018-10-12T12:58:35Z</time>
      </trkpt>
      <trkpt lat="38.34154226" lon="-2.25033849">
        <ele>636.00000</ele>
        <time>2018-10-12T12:58:40Z</time>
      </trkpt>
      <trkpt lat="38.34158820" lon="-2.25058492">
        <ele>637.00000</ele>
        <time>2018-10-12T12:58:44Z</time>
      </trkpt>
      <trkpt lat="38.34163061" lon="-2.25082858">
        <ele>638.00000</ele>
        <time>2018-10-12T12:58:48Z</time>
      </trkpt>
      <trkpt lat="38.34168216" lon="-2.25113284">
        <ele>639.00000</ele>
        <time>2018-10-12T12:58:53Z</time>
      </trkpt>
      <trkpt lat="38.34172432" lon="-2.25137433">
        <ele>640.00000</ele>
        <time>2018-10-12T12:58:57Z</time>
      </trkpt>
      <trkpt lat="38.34177981" lon="-2.25167029">
        <ele>641.00000</ele>
        <time>2018-10-12T12:59:02Z</time>
      </trkpt>
      <trkpt lat="38.34183689" lon="-2.25196466">
        <ele>642.00000</ele>
        <time>2018-10-12T12:59:07Z</time>
      </trkpt>
      <trkpt lat="38.34189455" lon="-2.25224713">
        <ele>643.00000</ele>
        <time>2018-10-12T12:59:12Z</time>
      </trkpt>
      <trkpt lat="38.34192842" lon="-2.25235677">
        <ele>644.00000</ele>
        <time>2018-10-12T12:59:14Z</time>
      </trkpt>
      <trkpt lat="38.34200763" lon="-2.25250806">
        <ele>645.00000</ele>
        <time>2018-10-12T12:59:17Z</time>
      </trkpt>
      <trkpt lat="38.34221600" lon="-2.25264779">
        <ele>646.00000</ele>
        <time>2018-10-12T12:59:22Z</time>
      </trkpt>
      <trkpt lat="38.34226026" lon="-2.25266070">
        <ele>646.00000</ele>
        <time>2018-10-12T12:59:23Z</time>
      </trkpt>
      <trkpt lat="38.34239571" lon="-2.25269355">
        <ele>647.00000</ele>
        <time>2018-10-12T12:59:26Z</time>
      </trkpt>
      <trkpt lat="38.34301387" lon="-2.25274066">
        <ele>648.00000</ele>
        <time>2018-10-12T12:59:35Z</time>
      </trkpt>
      <trkpt lat="38.34352266" lon="-2.25260512">
        <ele>645.00000</ele>
        <time>2018-10-12T12:59:40Z</time>
      </trkpt>
      <trkpt lat="38.34363170" lon="-2.25255643">
        <ele>644.00000</ele>
        <time>2018-10-12T12:59:41Z</time>
      </trkpt>
      <trkpt lat="38.34385508" lon="-2.25244805">
        <ele>642.00000</ele>
        <time>2018-10-12T12:59:43Z</time>
      </trkpt>
      <trkpt lat="38.34397067" lon="-2.25239172">
        <ele>641.00000</ele>
        <time>2018-10-12T12:59:44Z</time>
      </trkpt>
      <trkpt lat="38.34420754" lon="-2.25227949">
        <ele>639.00000</ele>
        <time>2018-10-12T12:59:46Z</time>
      </trkpt>
      <trkpt lat="38.34445070" lon="-2.25216625">
        <ele>637.00000</ele>
        <time>2018-10-12T12:59:48Z</time>
      </trkpt>
      <trkpt lat="38.34457324" lon="-2.25210917">
        <ele>634.00000</ele>
        <time>2018-10-12T12:59:49Z</time>
      </trkpt>
      <trkpt lat="38.34482420" lon="-2.25200741">
        <ele>632.00000</ele>
        <time>2018-10-12T12:59:51Z</time>
      </trkpt>
      <trkpt lat="38.34495244" lon="-2.25196466">
        <ele>631.00000</ele>
        <time>2018-10-12T12:59:52Z</time>
      </trkpt>
      <trkpt lat="38.34508303" lon="-2.25192678">
        <ele>629.00000</ele>
        <time>2018-10-12T12:59:53Z</time>
      </trkpt>
      <trkpt lat="38.34521563" lon="-2.25189342">
        <ele>628.00000</ele>
        <time>2018-10-12T12:59:54Z</time>
      </trkpt>
      <trkpt lat="38.34535008" lon="-2.25186534">
        <ele>627.00000</ele>
        <time>2018-10-12T12:59:55Z</time>
      </trkpt>
      <trkpt lat="38.34548545" lon="-2.25184061">
        <ele>625.00000</ele>
        <time>2018-10-12T12:59:56Z</time>
      </trkpt>
      <trkpt lat="38.34562165" lon="-2.25181681">
        <ele>624.00000</ele>
        <time>2018-10-12T12:59:57Z</time>
      </trkpt>
      <trkpt lat="38.34575886" lon="-2.25179116">
        <ele>623.00000</ele>
        <time>2018-10-12T12:59:58Z</time>
      </trkpt>
      <trkpt lat="38.34603312" lon="-2.25173047">
        <ele>621.00000</ele>
        <time>2018-10-12T13:00:00Z</time>
      </trkpt>
      <trkpt lat="38.34644098" lon="-2.25162067">
        <ele>619.00000</ele>
        <time>2018-10-12T13:00:03Z</time>
      </trkpt>
      <trkpt lat="38.34657710" lon="-2.25158622">
        <ele>618.00000</ele>
        <time>2018-10-12T13:00:04Z</time>
      </trkpt>
      <trkpt lat="38.34684616" lon="-2.25151615">
        <ele>617.00000</ele>
        <time>2018-10-12T13:00:06Z</time>
      </trkpt>
      <trkpt lat="38.34711304" lon="-2.25144490">
        <ele>616.00000</ele>
        <time>2018-10-12T13:00:08Z</time>
      </trkpt>
      <trkpt lat="38.34737766" lon="-2.25136972">
        <ele>614.00000</ele>
        <time>2018-10-12T13:00:10Z</time>
      </trkpt>
      <trkpt lat="38.34763691" lon="-2.25127793">
        <ele>613.00000</ele>
        <time>2018-10-12T13:00:12Z</time>
      </trkpt>
      <trkpt lat="38.34788694" lon="-2.25116084">
        <ele>612.00000</ele>
        <time>2018-10-12T13:00:14Z</time>
      </trkpt>
      <trkpt lat="38.34826715" lon="-2.25102606">
        <ele>610.00000</ele>
        <time>2018-10-12T13:00:17Z</time>
      </trkpt>
      <trkpt lat="38.34864526" lon="-2.25089949">
        <ele>609.00000</ele>
        <time>2018-10-12T13:00:20Z</time>
      </trkpt>
      <trkpt lat="38.34888531" lon="-2.25078223">
        <ele>608.00000</ele>
        <time>2018-10-12T13:00:22Z</time>
      </trkpt>
      <trkpt lat="38.34900149" lon="-2.25071308">
        <ele>607.00000</ele>
        <time>2018-10-12T13:00:23Z</time>
      </trkpt>
      <trkpt lat="38.34922662" lon="-2.25055743">
        <ele>605.00000</ele>
        <time>2018-10-12T13:00:25Z</time>
      </trkpt>
      <trkpt lat="38.34944246" lon="-2.25037612">
        <ele>604.00000</ele>
        <time>2018-10-12T13:00:27Z</time>
      </trkpt>
      <trkpt lat="38.34984479" lon="-2.24994764">
        <ele>603.00000</ele>
        <time>2018-10-12T13:00:31Z</time>
      </trkpt>
      <trkpt lat="38.35005040" lon="-2.24973876">
        <ele>602.00000</ele>
        <time>2018-10-12T13:00:33Z</time>
      </trkpt>
      <trkpt lat="38.35028182" lon="-2.24957196">
        <ele>602.00000</ele>
        <time>2018-10-12T13:00:35Z</time>
      </trkpt>
      <trkpt lat="38.35053630" lon="-2.24946535">
        <ele>600.00000</ele>
        <time>2018-10-12T13:00:37Z</time>
      </trkpt>
      <trkpt lat="38.35080343" lon="-2.24942352">
        <ele>598.00000</ele>
        <time>2018-10-12T13:00:39Z</time>
      </trkpt>
      <trkpt lat="38.35120132" lon="-2.24948613">
        <ele>597.00000</ele>
        <time>2018-10-12T13:00:42Z</time>
      </trkpt>
      <trkpt lat="38.35132990" lon="-2.24953240">
        <ele>596.00000</ele>
        <time>2018-10-12T13:00:43Z</time>
      </trkpt>
      <trkpt lat="38.35145512" lon="-2.24958688">
        <ele>595.00000</ele>
        <time>2018-10-12T13:00:44Z</time>
      </trkpt>
      <trkpt lat="38.35157523" lon="-2.24965369">
        <ele>594.00000</ele>
        <time>2018-10-12T13:00:45Z</time>
      </trkpt>
      <trkpt lat="38.35168789" lon="-2.24973960">
        <ele>594.00000</ele>
        <time>2018-10-12T13:00:46Z</time>
      </trkpt>
      <trkpt lat="38.35186181" lon="-2.24998343">
        <ele>592.00000</ele>
        <time>2018-10-12T13:00:48Z</time>
      </trkpt>
      <trkpt lat="38.35192719" lon="-2.25012592">
        <ele>592.00000</ele>
        <time>2018-10-12T13:00:49Z</time>
      </trkpt>
      <trkpt lat="38.35205988" lon="-2.25040387">
        <ele>590.00000</ele>
        <time>2018-10-12T13:00:51Z</time>
      </trkpt>
      <trkpt lat="38.35221268" lon="-2.25065382">
        <ele>590.00000</ele>
        <time>2018-10-12T13:00:53Z</time>
      </trkpt>
      <trkpt lat="38.35229264" lon="-2.25077133">
        <ele>589.00000</ele>
        <time>2018-10-12T13:00:54Z</time>
      </trkpt>
      <trkpt lat="38.35260545" lon="-2.25122312">
        <ele>588.00000</ele>
        <time>2018-10-12T13:00:58Z</time>
      </trkpt>
      <trkpt lat="38.35291810" lon="-2.25163333">
        <ele>587.00000</ele>
        <time>2018-10-12T13:01:02Z</time>
      </trkpt>
      <trkpt lat="38.35299588" lon="-2.25173148">
        <ele>586.00000</ele>
        <time>2018-10-12T13:01:03Z</time>
      </trkpt>
      <trkpt lat="38.35335790" lon="-2.25221419">
        <ele>586.00000</ele>
        <time>2018-10-12T13:01:08Z</time>
      </trkpt>
      <trkpt lat="38.35366828" lon="-2.25284904">
        <ele>586.00000</ele>
        <time>2018-10-12T13:01:14Z</time>
      </trkpt>
      <trkpt lat="38.35382536" lon="-2.25328163">
        <ele>586.00000</ele>
        <time>2018-10-12T13:01:18Z</time>
      </trkpt>
      <trkpt lat="38.35390063" lon="-2.25362168">
        <ele>585.00000</ele>
        <time>2018-10-12T13:01:21Z</time>
      </trkpt>
      <trkpt lat="38.35395318" lon="-2.25384397">
        <ele>585.00000</ele>
        <time>2018-10-12T13:01:23Z</time>
      </trkpt>
      <trkpt lat="38.35399626" lon="-2.25406676">
        <ele>585.00000</ele>
        <time>2018-10-12T13:01:25Z</time>
      </trkpt>
      <trkpt lat="38.35404320" lon="-2.25440422">
        <ele>585.00000</ele>
        <time>2018-10-12T13:01:28Z</time>
      </trkpt>
      <trkpt lat="38.35407086" lon="-2.25462969">
        <ele>584.00000</ele>
        <time>2018-10-12T13:01:30Z</time>
      </trkpt>
      <trkpt lat="38.35413029" lon="-2.25519287">
        <ele>583.00000</ele>
        <time>2018-10-12T13:01:35Z</time>
      </trkpt>
      <trkpt lat="38.35414672" lon="-2.25542278">
        <ele>583.00000</ele>
        <time>2018-10-12T13:01:37Z</time>
      </trkpt>
      <trkpt lat="38.35417681" lon="-2.25588806">
        <ele>582.00000</ele>
        <time>2018-10-12T13:01:41Z</time>
      </trkpt>
      <trkpt lat="38.35419491" lon="-2.25623625">
        <ele>581.00000</ele>
        <time>2018-10-12T13:01:44Z</time>
      </trkpt>
      <trkpt lat="38.35421604" lon="-2.25679859">
        <ele>580.00000</ele>
        <time>2018-10-12T13:01:49Z</time>
      </trkpt>
      <trkpt lat="38.35422643" lon="-2.25701166">
        <ele>580.00000</ele>
        <time>2018-10-12T13:01:51Z</time>
      </trkpt>
      <trkpt lat="38.35432609" lon="-2.25761096">
        <ele>580.00000</ele>
        <time>2018-10-12T13:01:57Z</time>
      </trkpt>
      <trkpt lat="38.35439734" lon="-2.25807423">
        <ele>580.00000</ele>
        <time>2018-10-12T13:02:02Z</time>
      </trkpt>
      <trkpt lat="38.35434772" lon="-2.25881268">
        <ele>581.00000</ele>
        <time>2018-10-12T13:02:10Z</time>
      </trkpt>
      <trkpt lat="38.35433389" lon="-2.25890421">
        <ele>581.00000</ele>
        <time>2018-10-12T13:02:11Z</time>
      </trkpt>
      <trkpt lat="38.35424755" lon="-2.25944903">
        <ele>581.00000</ele>
        <time>2018-10-12T13:02:17Z</time>
      </trkpt>
      <trkpt lat="38.35416105" lon="-2.26019142">
        <ele>581.00000</ele>
        <time>2018-10-12T13:02:25Z</time>
      </trkpt>
      <trkpt lat="38.35413808" lon="-2.26047405">
        <ele>581.00000</ele>
        <time>2018-10-12T13:02:28Z</time>
      </trkpt>
      <trkpt lat="38.35411973" lon="-2.26076507">
        <ele>581.00000</ele>
        <time>2018-10-12T13:02:31Z</time>
      </trkpt>
      <trkpt lat="38.35410791" lon="-2.26096356">
        <ele>581.00000</ele>
        <time>2018-10-12T13:02:33Z</time>
      </trkpt>
      <trkpt lat="38.35409886" lon="-2.26116313">
        <ele>580.00000</ele>
        <time>2018-10-12T13:02:35Z</time>
      </trkpt>
      <trkpt lat="38.35409970" lon="-2.26136044">
        <ele>580.00000</ele>
        <time>2018-10-12T13:02:37Z</time>
      </trkpt>
      <trkpt lat="38.35412300" lon="-2.26154853">
        <ele>579.00000</ele>
        <time>2018-10-12T13:02:39Z</time>
      </trkpt>
      <trkpt lat="38.35417882" lon="-2.26171600">
        <ele>579.00000</ele>
        <time>2018-10-12T13:02:41Z</time>
      </trkpt>
      <trkpt lat="38.35426440" lon="-2.26194541">
        <ele>579.00000</ele>
        <time>2018-10-12T13:02:44Z</time>
      </trkpt>
      <trkpt lat="38.35438225" lon="-2.26228974">
        <ele>579.00000</ele>
        <time>2018-10-12T13:02:49Z</time>
      </trkpt>
      <trkpt lat="38.35452139" lon="-2.26266676">
        <ele>580.00000</ele>
        <time>2018-10-12T13:02:59Z</time>
      </trkpt>
      <trkpt lat="38.35452709" lon="-2.26268185">
        <ele>581.00000</ele>
        <time>2018-10-12T13:03:26Z</time>
      </trkpt>
      <trkpt lat="38.35459305" lon="-2.26289341">
        <ele>581.00000</ele>
        <time>2018-10-12T13:03:33Z</time>
      </trkpt>
      <trkpt lat="38.35465106" lon="-2.26306339">
        <ele>581.00000</ele>
        <time>2018-10-12T13:03:36Z</time>
      </trkpt>
      <trkpt lat="38.35473018" lon="-2.26328836">
        <ele>581.00000</ele>
        <time>2018-10-12T13:03:39Z</time>
      </trkpt>
      <trkpt lat="38.35483420" lon="-2.26358089">
        <ele>581.00000</ele>
        <time>2018-10-12T13:03:43Z</time>
      </trkpt>
      <trkpt lat="38.35485951" lon="-2.26365641">
        <ele>580.00000</ele>
        <time>2018-10-12T13:03:44Z</time>
      </trkpt>
      <trkpt lat="38.35504023" lon="-2.26419704">
        <ele>579.00000</ele>
        <time>2018-10-12T13:03:51Z</time>
      </trkpt>
      <trkpt lat="38.35524114" lon="-2.26475000">
        <ele>579.00000</ele>
        <time>2018-10-12T13:03:58Z</time>
      </trkpt>
      <trkpt lat="38.35533485" lon="-2.26498913">
        <ele>579.00000</ele>
        <time>2018-10-12T13:04:01Z</time>
      </trkpt>
      <trkpt lat="38.35577507" lon="-2.26520975">
        <ele>579.00000</ele>
        <time>2018-10-12T13:04:10Z</time>
      </trkpt>
      <trkpt lat="38.35588227" lon="-2.26522198">
        <ele>579.00000</ele>
        <time>2018-10-12T13:04:14Z</time>
      </trkpt>
      <trkpt lat="38.35593542" lon="-2.26522224">
        <ele>581.00000</ele>
        <time>2018-10-12T13:04:16Z</time>
      </trkpt>
      <trkpt lat="38.35598479" lon="-2.26520882">
        <ele>583.00000</ele>
        <time>2018-10-12T13:04:18Z</time>
      </trkpt>
      <trkpt lat="38.35602929" lon="-2.26518586">
        <ele>584.00000</ele>
        <time>2018-10-12T13:04:20Z</time>
      </trkpt>
      <trkpt lat="38.35607447" lon="-2.26516331">
        <ele>585.00000</ele>
        <time>2018-10-12T13:04:22Z</time>
      </trkpt>
      <trkpt lat="38.35612040" lon="-2.26515552">
        <ele>586.00000</ele>
        <time>2018-10-12T13:04:24Z</time>
      </trkpt>
      <trkpt lat="38.35614345" lon="-2.26515568">
        <ele>587.00000</ele>
        <time>2018-10-12T13:04:25Z</time>
      </trkpt>
      <trkpt lat="38.35621302" lon="-2.26516976">
        <ele>588.00000</ele>
        <time>2018-10-12T13:04:28Z</time>
      </trkpt>
      <trkpt lat="38.35628561" lon="-2.26518066">
        <ele>589.00000</ele>
        <time>2018-10-12T13:04:31Z</time>
      </trkpt>
      <trkpt lat="38.35635568" lon="-2.26518619">
        <ele>590.00000</ele>
        <time>2018-10-12T13:04:34Z</time>
      </trkpt>
      <trkpt lat="38.35646616" lon="-2.26522274">
        <ele>591.00000</ele>
        <time>2018-10-12T13:04:39Z</time>
      </trkpt>
      <trkpt lat="38.35652634" lon="-2.26527605">
        <ele>592.00000</ele>
        <time>2018-10-12T13:04:42Z</time>
      </trkpt>
      <trkpt lat="38.35661301" lon="-2.26534201">
        <ele>594.00000</ele>
        <time>2018-10-12T13:04:46Z</time>
      </trkpt>
      <trkpt lat="38.35672088" lon="-2.26543203">
        <ele>595.00000</ele>
        <time>2018-10-12T13:04:51Z</time>
      </trkpt>
      <trkpt lat="38.35680646" lon="-2.26550915">
        <ele>596.00000</ele>
        <time>2018-10-12T13:04:55Z</time>
      </trkpt>
      <trkpt lat="38.35688827" lon="-2.26558383">
        <ele>597.00000</ele>
        <time>2018-10-12T13:04:59Z</time>
      </trkpt>
      <trkpt lat="38.35694351" lon="-2.26565483">
        <ele>599.00000</ele>
        <time>2018-10-12T13:05:02Z</time>
      </trkpt>
      <trkpt lat="38.35703780" lon="-2.26577393">
        <ele>600.00000</ele>
        <time>2018-10-12T13:05:07Z</time>
      </trkpt>
      <trkpt lat="38.35711307" lon="-2.26591743">
        <ele>601.00000</ele>
        <time>2018-10-12T13:05:12Z</time>
      </trkpt>
      <trkpt lat="38.35715725" lon="-2.26608482">
        <ele>602.00000</ele>
        <time>2018-10-12T13:05:17Z</time>
      </trkpt>
      <trkpt lat="38.35718977" lon="-2.26627785">
        <ele>603.00000</ele>
        <time>2018-10-12T13:05:23Z</time>
      </trkpt>
      <trkpt lat="38.35717082" lon="-2.26641238">
        <ele>604.00000</ele>
        <time>2018-10-12T13:05:27Z</time>
      </trkpt>
      <trkpt lat="38.35714727" lon="-2.26654230">
        <ele>606.00000</ele>
        <time>2018-10-12T13:05:31Z</time>
      </trkpt>
      <trkpt lat="38.35714543" lon="-2.26663945">
        <ele>607.00000</ele>
        <time>2018-10-12T13:05:34Z</time>
      </trkpt>
      <trkpt lat="38.35713847" lon="-2.26678051">
        <ele>608.00000</ele>
        <time>2018-10-12T13:05:38Z</time>
      </trkpt>
      <trkpt lat="38.35711995" lon="-2.26692183">
        <ele>609.00000</ele>
        <time>2018-10-12T13:05:42Z</time>
      </trkpt>
      <trkpt lat="38.35712053" lon="-2.26706114">
        <ele>610.00000</ele>
        <time>2018-10-12T13:05:46Z</time>
      </trkpt>
      <trkpt lat="38.35711115" lon="-2.26717094">
        <ele>611.00000</ele>
        <time>2018-10-12T13:05:49Z</time>
      </trkpt>
      <trkpt lat="38.35710561" lon="-2.26731394">
        <ele>612.00000</ele>
        <time>2018-10-12T13:05:53Z</time>
      </trkpt>
      <trkpt lat="38.35716144" lon="-2.26751510">
        <ele>614.00000</ele>
        <time>2018-10-12T13:05:59Z</time>
      </trkpt>
      <trkpt lat="38.35724450" lon="-2.26761242">
        <ele>615.00000</ele>
        <time>2018-10-12T13:06:03Z</time>
      </trkpt>
      <trkpt lat="38.35735213" lon="-2.26765668">
        <ele>616.00000</ele>
        <time>2018-10-12T13:06:07Z</time>
      </trkpt>
      <trkpt lat="38.35743712" lon="-2.26765978">
        <ele>617.00000</ele>
        <time>2018-10-12T13:06:10Z</time>
      </trkpt>
      <trkpt lat="38.35755212" lon="-2.26765491">
        <ele>618.00000</ele>
        <time>2018-10-12T13:06:14Z</time>
      </trkpt>
      <trkpt lat="38.35766041" lon="-2.26763756">
        <ele>619.00000</ele>
        <time>2018-10-12T13:06:18Z</time>
      </trkpt>
      <trkpt lat="38.35776711" lon="-2.26761803">
        <ele>620.00000</ele>
        <time>2018-10-12T13:06:22Z</time>
      </trkpt>
      <trkpt lat="38.35787256" lon="-2.26757428">
        <ele>621.00000</ele>
        <time>2018-10-12T13:06:26Z</time>
      </trkpt>
      <trkpt lat="38.35800399" lon="-2.26751779">
        <ele>623.00000</ele>
        <time>2018-10-12T13:06:31Z</time>
      </trkpt>
      <trkpt lat="38.35813273" lon="-2.26744151">
        <ele>624.00000</ele>
        <time>2018-10-12T13:06:36Z</time>
      </trkpt>
      <trkpt lat="38.35825871" lon="-2.26735350">
        <ele>625.00000</ele>
        <time>2018-10-12T13:06:41Z</time>
      </trkpt>
      <trkpt lat="38.35835318" lon="-2.26726767">
        <ele>626.00000</ele>
        <time>2018-10-12T13:06:45Z</time>
      </trkpt>
      <trkpt lat="38.35845418" lon="-2.26713239">
        <ele>627.00000</ele>
        <time>2018-10-12T13:06:50Z</time>
      </trkpt>
      <trkpt lat="38.35852433" lon="-2.26692636">
        <ele>629.00000</ele>
        <time>2018-10-12T13:06:56Z</time>
      </trkpt>
      <trkpt lat="38.35856180" lon="-2.26678898">
        <ele>629.00000</ele>
        <time>2018-10-12T13:07:00Z</time>
      </trkpt>
      <trkpt lat="38.35860371" lon="-2.26658337">
        <ele>630.00000</ele>
        <time>2018-10-12T13:07:06Z</time>
      </trkpt>
      <trkpt lat="38.35865777" lon="-2.26637491">
        <ele>631.00000</ele>
        <time>2018-10-12T13:07:12Z</time>
      </trkpt>
      <trkpt lat="38.35872885" lon="-2.26617727">
        <ele>632.00000</ele>
        <time>2018-10-12T13:07:18Z</time>
      </trkpt>
      <trkpt lat="38.35884603" lon="-2.26597216">
        <ele>634.00000</ele>
        <time>2018-10-12T13:07:25Z</time>
      </trkpt>
      <trkpt lat="38.35897369" lon="-2.26577100">
        <ele>635.00000</ele>
        <time>2018-10-12T13:07:32Z</time>
      </trkpt>
      <trkpt lat="38.35912448" lon="-2.26555139">
        <ele>636.00000</ele>
        <time>2018-10-12T13:07:40Z</time>
      </trkpt>
      <trkpt lat="38.35929497" lon="-2.26535350">
        <ele>637.00000</ele>
        <time>2018-10-12T13:07:48Z</time>
      </trkpt>
      <trkpt lat="38.35940846" lon="-2.26523674">
        <ele>638.00000</ele>
        <time>2018-10-12T13:07:53Z</time>
      </trkpt>
      <trkpt lat="38.35954844" lon="-2.26510237">
        <ele>639.00000</ele>
        <time>2018-10-12T13:07:59Z</time>
      </trkpt>
      <trkpt lat="38.35969168" lon="-2.26497639">
        <ele>640.00000</ele>
        <time>2018-10-12T13:08:05Z</time>
      </trkpt>
      <trkpt lat="38.35987684" lon="-2.26485477">
        <ele>642.00000</ele>
        <time>2018-10-12T13:08:12Z</time>
      </trkpt>
      <trkpt lat="38.36001992" lon="-2.26478529">
        <ele>643.00000</ele>
        <time>2018-10-12T13:08:17Z</time>
      </trkpt>
      <trkpt lat="38.36022829" lon="-2.26470817">
        <ele>644.00000</ele>
        <time>2018-10-12T13:08:24Z</time>
      </trkpt>
      <trkpt lat="38.36041579" lon="-2.26457390">
        <ele>645.00000</ele>
        <time>2018-10-12T13:08:31Z</time>
      </trkpt>
      <trkpt lat="38.36057220" lon="-2.26438614">
        <ele>646.00000</ele>
        <time>2018-10-12T13:08:38Z</time>
      </trkpt>
      <trkpt lat="38.36066692" lon="-2.26422605">
        <ele>647.00000</ele>
        <time>2018-10-12T13:08:43Z</time>
      </trkpt>
      <trkpt lat="38.36074696" lon="-2.26405941">
        <ele>648.00000</ele>
        <time>2018-10-12T13:08:48Z</time>
      </trkpt>
      <trkpt lat="38.36089113" lon="-2.26391340">
        <ele>649.00000</ele>
        <time>2018-10-12T13:08:54Z</time>
      </trkpt>
      <trkpt lat="38.36103924" lon="-2.26386353">
        <ele>650.00000</ele>
        <time>2018-10-12T13:08:59Z</time>
      </trkpt>
      <trkpt lat="38.36119431" lon="-2.26386789">
        <ele>651.00000</ele>
        <time>2018-10-12T13:09:04Z</time>
      </trkpt>
      <trkpt lat="38.36137980" lon="-2.26384299">
        <ele>652.00000</ele>
        <time>2018-10-12T13:09:10Z</time>
      </trkpt>
      <trkpt lat="38.36158817" lon="-2.26367502">
        <ele>654.00000</ele>
        <time>2018-10-12T13:09:18Z</time>
      </trkpt>
      <trkpt lat="38.36170376" lon="-2.26354569">
        <ele>655.00000</ele>
        <time>2018-10-12T13:09:23Z</time>
      </trkpt>
      <trkpt lat="38.36181758" lon="-2.26341778">
        <ele>656.00000</ele>
        <time>2018-10-12T13:09:28Z</time>
      </trkpt>
      <trkpt lat="38.36188824" lon="-2.26329197">
        <ele>657.00000</ele>
        <time>2018-10-12T13:09:32Z</time>
      </trkpt>
      <trkpt lat="38.36188514" lon="-2.26313372">
        <ele>658.00000</ele>
        <time>2018-10-12T13:09:36Z</time>
      </trkpt>
      <trkpt lat="38.36182923" lon="-2.26294973">
        <ele>659.00000</ele>
        <time>2018-10-12T13:09:41Z</time>
      </trkpt>
      <trkpt lat="38.36177769" lon="-2.26276785">
        <ele>660.00000</ele>
        <time>2018-10-12T13:09:46Z</time>
      </trkpt>
      <trkpt lat="38.36177282" lon="-2.26257330">
        <ele>661.00000</ele>
        <time>2018-10-12T13:09:51Z</time>
      </trkpt>
      <trkpt lat="38.36191540" lon="-2.26240290">
        <ele>662.00000</ele>
        <time>2018-10-12T13:09:57Z</time>
      </trkpt>
      <trkpt lat="38.36215454" lon="-2.26231782">
        <ele>663.00000</ele>
        <time>2018-10-12T13:10:04Z</time>
      </trkpt>
      <trkpt lat="38.36240625" lon="-2.26228815">
        <ele>665.00000</ele>
        <time>2018-10-12T13:10:11Z</time>
      </trkpt>
      <trkpt lat="38.36265427" lon="-2.26219804">
        <ele>666.00000</ele>
        <time>2018-10-12T13:10:18Z</time>
      </trkpt>
      <trkpt lat="38.36289525" lon="-2.26211540">
        <ele>667.00000</ele>
        <time>2018-10-12T13:10:25Z</time>
      </trkpt>
      <trkpt lat="38.36306825" lon="-2.26206938">
        <ele>668.00000</ele>
        <time>2018-10-12T13:10:30Z</time>
      </trkpt>
      <trkpt lat="38.36328274" lon="-2.26206083">
        <ele>669.00000</ele>
        <time>2018-10-12T13:10:36Z</time>
      </trkpt>
      <trkpt lat="38.36350075" lon="-2.26204524">
        <ele>670.00000</ele>
        <time>2018-10-12T13:10:42Z</time>
      </trkpt>
      <trkpt lat="38.36375154" lon="-2.26203133">
        <ele>671.00000</ele>
        <time>2018-10-12T13:10:49Z</time>
      </trkpt>
      <trkpt lat="38.36393569" lon="-2.26207307">
        <ele>672.00000</ele>
        <time>2018-10-12T13:10:54Z</time>
      </trkpt>
      <trkpt lat="38.36417667" lon="-2.26216770">
        <ele>673.00000</ele>
        <time>2018-10-12T13:11:00Z</time>
      </trkpt>
      <trkpt lat="38.36468352" lon="-2.26251153">
        <ele>675.00000</ele>
        <time>2018-10-12T13:11:13Z</time>
      </trkpt>
      <trkpt lat="38.36499458" lon="-2.26289089">
        <ele>675.00000</ele>
        <time>2018-10-12T13:11:21Z</time>
      </trkpt>
      <trkpt lat="38.36521167" lon="-2.26300757">
        <ele>675.00000</ele>
        <time>2018-10-12T13:11:25Z</time>
      </trkpt>
      <trkpt lat="38.36557972" lon="-2.26314411">
        <ele>675.00000</ele>
        <time>2018-10-12T13:11:31Z</time>
      </trkpt>
      <trkpt lat="38.36598532" lon="-2.26328887">
        <ele>674.00000</ele>
        <time>2018-10-12T13:11:37Z</time>
      </trkpt>
      <trkpt lat="38.36625438" lon="-2.26339540">
        <ele>673.00000</ele>
        <time>2018-10-12T13:11:41Z</time>
      </trkpt>
      <trkpt lat="38.36637801" lon="-2.26346983">
        <ele>673.00000</ele>
        <time>2018-10-12T13:11:43Z</time>
      </trkpt>
      <trkpt lat="38.36670616" lon="-2.26373604">
        <ele>673.00000</ele>
        <time>2018-10-12T13:11:49Z</time>
      </trkpt>
      <trkpt lat="38.36713314" lon="-2.26421632">
        <ele>675.00000</ele>
        <time>2018-10-12T13:11:58Z</time>
      </trkpt>
      <trkpt lat="38.36727580" lon="-2.26440483">
        <ele>675.00000</ele>
        <time>2018-10-12T13:12:01Z</time>
      </trkpt>
      <trkpt lat="38.36775113" lon="-2.26492309">
        <ele>675.00000</ele>
        <time>2018-10-12T13:12:08Z</time>
      </trkpt>
      <trkpt lat="38.36791022" lon="-2.26508184">
        <ele>673.00000</ele>
        <time>2018-10-12T13:12:10Z</time>
      </trkpt>
      <trkpt lat="38.36805615" lon="-2.26522777">
        <ele>672.00000</ele>
        <time>2018-10-12T13:12:12Z</time>
      </trkpt>
      <trkpt lat="38.36819211" lon="-2.26535794">
        <ele>671.00000</ele>
        <time>2018-10-12T13:12:14Z</time>
      </trkpt>
      <trkpt lat="38.36838766" lon="-2.26550647">
        <ele>670.00000</ele>
        <time>2018-10-12T13:12:17Z</time>
      </trkpt>
      <trkpt lat="38.36894958" lon="-2.26567813">
        <ele>671.00000</ele>
        <time>2018-10-12T13:12:25Z</time>
      </trkpt>
      <trkpt lat="38.36908612" lon="-2.26570922">
        <ele>672.00000</ele>
        <time>2018-10-12T13:12:27Z</time>
      </trkpt>
      <trkpt lat="38.36934286" lon="-2.26573487">
        <ele>672.00000</ele>
        <time>2018-10-12T13:12:31Z</time>
      </trkpt>
      <trkpt lat="38.36950513" lon="-2.26571618">
        <ele>673.00000</ele>
        <time>2018-10-12T13:12:34Z</time>
      </trkpt>
      <trkpt lat="38.36967084" lon="-2.26568307">
        <ele>674.00000</ele>
        <time>2018-10-12T13:12:38Z</time>
      </trkpt>
      <trkpt lat="38.36977981" lon="-2.26565809">
        <ele>675.00000</ele>
        <time>2018-10-12T13:12:41Z</time>
      </trkpt>
      <trkpt lat="38.36984887" lon="-2.26563957">
        <ele>676.00000</ele>
        <time>2018-10-12T13:12:43Z</time>
      </trkpt>
      <trkpt lat="38.36988265" lon="-2.26562993">
        <ele>676.00000</ele>
        <time>2018-10-12T13:12:44Z</time>
      </trkpt>
      <trkpt lat="38.36994820" lon="-2.26560914">
        <ele>677.00000</ele>
        <time>2018-10-12T13:12:46Z</time>
      </trkpt>
      <trkpt lat="38.36998047" lon="-2.26560235">
        <ele>677.00000</ele>
        <time>2018-10-12T13:12:47Z</time>
      </trkpt>
      <trkpt lat="38.37007753" lon="-2.26559045">
        <ele>679.00000</ele>
        <time>2018-10-12T13:12:50Z</time>
      </trkpt>
      <trkpt lat="38.37017292" lon="-2.26557796">
        <ele>679.00000</ele>
        <time>2018-10-12T13:12:53Z</time>
      </trkpt>
      <trkpt lat="38.37020217" lon="-2.26557587">
        <ele>680.00000</ele>
        <time>2018-10-12T13:12:54Z</time>
      </trkpt>
      <trkpt lat="38.37028766" lon="-2.26557101">
        <ele>681.00000</ele>
        <time>2018-10-12T13:12:57Z</time>
      </trkpt>
      <trkpt lat="38.37031667" lon="-2.26556958">
        <ele>681.00000</ele>
        <time>2018-10-12T13:12:58Z</time>
      </trkpt>
      <trkpt lat="38.37040266" lon="-2.26555718">
        <ele>682.00000</ele>
        <time>2018-10-12T13:13:01Z</time>
      </trkpt>
      <trkpt lat="38.37048757" lon="-2.26554418">
        <ele>683.00000</ele>
        <time>2018-10-12T13:13:04Z</time>
      </trkpt>
      <trkpt lat="38.37060006" lon="-2.26552935">
        <ele>684.00000</ele>
        <time>2018-10-12T13:13:08Z</time>
      </trkpt>
      <trkpt lat="38.37074238" lon="-2.26551426">
        <ele>686.00000</ele>
        <time>2018-10-12T13:13:13Z</time>
      </trkpt>
      <trkpt lat="38.37091614" lon="-2.26548140">
        <ele>687.00000</ele>
        <time>2018-10-12T13:13:19Z</time>
      </trkpt>
      <trkpt lat="38.37105955" lon="-2.26545534">
        <ele>688.00000</ele>
        <time>2018-10-12T13:13:24Z</time>
      </trkpt>
      <trkpt lat="38.37117514" lon="-2.26544033">
        <ele>689.00000</ele>
        <time>2018-10-12T13:13:28Z</time>
      </trkpt>
      <trkpt lat="38.37135443" lon="-2.26545299">
        <ele>690.00000</ele>
        <time>2018-10-12T13:13:34Z</time>
      </trkpt>
      <trkpt lat="38.37145409" lon="-2.26552491">
        <ele>691.00000</ele>
        <time>2018-10-12T13:13:38Z</time>
      </trkpt>
      <trkpt lat="38.37152819" lon="-2.26577200">
        <ele>692.00000</ele>
        <time>2018-10-12T13:13:45Z</time>
      </trkpt>
      <trkpt lat="38.37154168" lon="-2.26607283">
        <ele>694.00000</ele>
        <time>2018-10-12T13:13:53Z</time>
      </trkpt>
      <trkpt lat="38.37153137" lon="-2.26626226">
        <ele>695.00000</ele>
        <time>2018-10-12T13:13:58Z</time>
      </trkpt>
      <trkpt lat="38.37151846" lon="-2.26644968">
        <ele>696.00000</ele>
        <time>2018-10-12T13:14:03Z</time>
      </trkpt>
      <trkpt lat="38.37150011" lon="-2.26663366">
        <ele>697.00000</ele>
        <time>2018-10-12T13:14:08Z</time>
      </trkpt>
      <trkpt lat="38.37147538" lon="-2.26681723">
        <ele>698.00000</ele>
        <time>2018-10-12T13:14:13Z</time>
      </trkpt>
      <trkpt lat="38.37145937" lon="-2.26696718">
        <ele>699.00000</ele>
        <time>2018-10-12T13:14:17Z</time>
      </trkpt>
      <trkpt lat="38.37144244" lon="-2.26715711">
        <ele>701.00000</ele>
        <time>2018-10-12T13:14:22Z</time>
      </trkpt>
      <trkpt lat="38.37143775" lon="-2.26734437">
        <ele>702.00000</ele>
        <time>2018-10-12T13:14:27Z</time>
      </trkpt>
      <trkpt lat="38.37144386" lon="-2.26756489">
        <ele>703.00000</ele>
        <time>2018-10-12T13:14:33Z</time>
      </trkpt>
      <trkpt lat="38.37145619" lon="-2.26774754">
        <ele>704.00000</ele>
        <time>2018-10-12T13:14:38Z</time>
      </trkpt>
      <trkpt lat="38.37148066" lon="-2.26796689">
        <ele>705.00000</ele>
        <time>2018-10-12T13:14:44Z</time>
      </trkpt>
      <trkpt lat="38.37150371" lon="-2.26811198">
        <ele>706.00000</ele>
        <time>2018-10-12T13:14:48Z</time>
      </trkpt>
      <trkpt lat="38.37154721" lon="-2.26836436">
        <ele>707.00000</ele>
        <time>2018-10-12T13:14:55Z</time>
      </trkpt>
      <trkpt lat="38.37157756" lon="-2.26858271">
        <ele>708.00000</ele>
        <time>2018-10-12T13:15:01Z</time>
      </trkpt>
      <trkpt lat="38.37161569" lon="-2.26876619">
        <ele>709.00000</ele>
        <time>2018-10-12T13:15:06Z</time>
      </trkpt>
      <trkpt lat="38.37167688" lon="-2.26905696">
        <ele>710.00000</ele>
        <time>2018-10-12T13:15:14Z</time>
      </trkpt>
      <trkpt lat="38.37174092" lon="-2.26922686">
        <ele>712.00000</ele>
        <time>2018-10-12T13:15:19Z</time>
      </trkpt>
      <trkpt lat="38.37179339" lon="-2.26931512">
        <ele>713.00000</ele>
        <time>2018-10-12T13:15:22Z</time>
      </trkpt>
      <trkpt lat="38.37188425" lon="-2.26945401">
        <ele>714.00000</ele>
        <time>2018-10-12T13:15:27Z</time>
      </trkpt>
      <trkpt lat="38.37199280" lon="-2.26960807">
        <ele>715.00000</ele>
        <time>2018-10-12T13:15:33Z</time>
      </trkpt>
      <trkpt lat="38.37205558" lon="-2.26971259">
        <ele>716.00000</ele>
        <time>2018-10-12T13:15:37Z</time>
      </trkpt>
      <trkpt lat="38.37210645" lon="-2.26978777">
        <ele>717.00000</ele>
        <time>2018-10-12T13:15:40Z</time>
      </trkpt>
      <trkpt lat="38.37218290" lon="-2.26991853">
        <ele>719.00000</ele>
        <time>2018-10-12T13:15:45Z</time>
      </trkpt>
      <trkpt lat="38.37224132" lon="-2.27006387">
        <ele>720.00000</ele>
        <time>2018-10-12T13:15:50Z</time>
      </trkpt>
      <trkpt lat="38.37227619" lon="-2.27018399">
        <ele>721.00000</ele>
        <time>2018-10-12T13:15:54Z</time>
      </trkpt>
      <trkpt lat="38.37230091" lon="-2.27027828">
        <ele>722.00000</ele>
        <time>2018-10-12T13:15:57Z</time>
      </trkpt>
      <trkpt lat="38.37234509" lon="-2.27039806">
        <ele>723.00000</ele>
        <time>2018-10-12T13:16:01Z</time>
      </trkpt>
      <trkpt lat="38.37240820" lon="-2.27054709">
        <ele>725.00000</ele>
        <time>2018-10-12T13:16:06Z</time>
      </trkpt>
      <trkpt lat="38.37248506" lon="-2.27068816">
        <ele>726.00000</ele>
        <time>2018-10-12T13:16:11Z</time>
      </trkpt>
      <trkpt lat="38.37257131" lon="-2.27081850">
        <ele>727.00000</ele>
        <time>2018-10-12T13:16:16Z</time>
      </trkpt>
      <trkpt lat="38.37267014" lon="-2.27093182">
        <ele>728.00000</ele>
        <time>2018-10-12T13:16:21Z</time>
      </trkpt>
      <trkpt lat="38.37273568" lon="-2.27104137">
        <ele>729.00000</ele>
        <time>2018-10-12T13:16:25Z</time>
      </trkpt>
      <trkpt lat="38.37278975" lon="-2.27116433">
        <ele>731.00000</ele>
        <time>2018-10-12T13:16:29Z</time>
      </trkpt>
      <trkpt lat="38.37281892" lon="-2.27126131">
        <ele>732.00000</ele>
        <time>2018-10-12T13:16:32Z</time>
      </trkpt>
      <trkpt lat="38.37284993" lon="-2.27142744">
        <ele>733.00000</ele>
        <time>2018-10-12T13:16:37Z</time>
      </trkpt>
      <trkpt lat="38.37287005" lon="-2.27159542">
        <ele>734.00000</ele>
        <time>2018-10-12T13:16:42Z</time>
      </trkpt>
      <trkpt lat="38.37289134" lon="-2.27172559">
        <ele>735.00000</ele>
        <time>2018-10-12T13:16:46Z</time>
      </trkpt>
      <trkpt lat="38.37291841" lon="-2.27189172">
        <ele>736.00000</ele>
        <time>2018-10-12T13:16:51Z</time>
      </trkpt>
      <trkpt lat="38.37296158" lon="-2.27205575">
        <ele>737.00000</ele>
        <time>2018-10-12T13:16:56Z</time>
      </trkpt>
      <trkpt lat="38.37305143" lon="-2.27221895">
        <ele>738.00000</ele>
        <time>2018-10-12T13:17:01Z</time>
      </trkpt>
      <trkpt lat="38.37315218" lon="-2.27236085">
        <ele>740.00000</ele>
        <time>2018-10-12T13:17:06Z</time>
      </trkpt>
      <trkpt lat="38.37321974" lon="-2.27243009">
        <ele>741.00000</ele>
        <time>2018-10-12T13:17:09Z</time>
      </trkpt>
      <trkpt lat="38.37331244" lon="-2.27253410">
        <ele>742.00000</ele>
        <time>2018-10-12T13:17:13Z</time>
      </trkpt>
      <trkpt lat="38.37345879" lon="-2.27270920">
        <ele>743.00000</ele>
        <time>2018-10-12T13:17:19Z</time>
      </trkpt>
      <trkpt lat="38.37353884" lon="-2.27281783">
        <ele>744.00000</ele>
        <time>2018-10-12T13:17:22Z</time>
      </trkpt>
      <trkpt lat="38.37364085" lon="-2.27302378">
        <ele>744.00000</ele>
        <time>2018-10-12T13:17:26Z</time>
      </trkpt>
      <trkpt lat="38.37370312" lon="-2.27334296">
        <ele>744.00000</ele>
        <time>2018-10-12T13:17:30Z</time>
      </trkpt>
      <trkpt lat="38.37372123" lon="-2.27389331">
        <ele>742.00000</ele>
        <time>2018-10-12T13:17:35Z</time>
      </trkpt>
      <trkpt lat="38.37371352" lon="-2.27415114">
        <ele>741.00000</ele>
        <time>2018-10-12T13:17:37Z</time>
      </trkpt>
      <trkpt lat="38.37370145" lon="-2.27442867">
        <ele>740.00000</ele>
        <time>2018-10-12T13:17:39Z</time>
      </trkpt>
      <trkpt lat="38.37370396" lon="-2.27457493">
        <ele>739.00000</ele>
        <time>2018-10-12T13:17:40Z</time>
      </trkpt>
      <trkpt lat="38.37371695" lon="-2.27472530">
        <ele>737.00000</ele>
        <time>2018-10-12T13:17:41Z</time>
      </trkpt>
      <trkpt lat="38.37373791" lon="-2.27487810">
        <ele>736.00000</ele>
        <time>2018-10-12T13:17:42Z</time>
      </trkpt>
      <trkpt lat="38.37376146" lon="-2.27503191">
        <ele>734.00000</ele>
        <time>2018-10-12T13:17:43Z</time>
      </trkpt>
      <trkpt lat="38.37378459" lon="-2.27518782">
        <ele>733.00000</ele>
        <time>2018-10-12T13:17:44Z</time>
      </trkpt>
      <trkpt lat="38.37383430" lon="-2.27550666">
        <ele>731.00000</ele>
        <time>2018-10-12T13:17:46Z</time>
      </trkpt>
      <trkpt lat="38.37385961" lon="-2.27566407">
        <ele>730.00000</ele>
        <time>2018-10-12T13:17:47Z</time>
      </trkpt>
      <trkpt lat="38.37387319" lon="-2.27581554">
        <ele>728.00000</ele>
        <time>2018-10-12T13:17:48Z</time>
      </trkpt>
      <trkpt lat="38.37386825" lon="-2.27596499">
        <ele>727.00000</ele>
        <time>2018-10-12T13:17:49Z</time>
      </trkpt>
      <trkpt lat="38.37383924" lon="-2.27610882">
        <ele>726.00000</ele>
        <time>2018-10-12T13:17:50Z</time>
      </trkpt>
      <trkpt lat="38.37378443" lon="-2.27624083">
        <ele>725.00000</ele>
        <time>2018-10-12T13:17:51Z</time>
      </trkpt>
      <trkpt lat="38.37370731" lon="-2.27635407">
        <ele>724.00000</ele>
        <time>2018-10-12T13:17:52Z</time>
      </trkpt>
      <trkpt lat="38.37361159" lon="-2.27644409">
        <ele>723.00000</ele>
        <time>2018-10-12T13:17:53Z</time>
      </trkpt>
      <trkpt lat="38.37350590" lon="-2.27651174">
        <ele>721.00000</ele>
        <time>2018-10-12T13:17:54Z</time>
      </trkpt>
      <trkpt lat="38.37328176" lon="-2.27661752">
        <ele>720.00000</ele>
        <time>2018-10-12T13:17:56Z</time>
      </trkpt>
      <trkpt lat="38.37304824" lon="-2.27690619">
        <ele>719.00000</ele>
        <time>2018-10-12T13:17:59Z</time>
      </trkpt>
      <trkpt lat="38.37303006" lon="-2.27727156">
        <ele>718.00000</ele>
        <time>2018-10-12T13:18:02Z</time>
      </trkpt>
      <trkpt lat="38.37302360" lon="-2.27770331">
        <ele>718.00000</ele>
        <time>2018-10-12T13:18:07Z</time>
      </trkpt>
      <trkpt lat="38.37299385" lon="-2.27796005">
        <ele>721.00000</ele>
        <time>2018-10-12T13:18:12Z</time>
      </trkpt>
      <trkpt lat="38.37298697" lon="-2.27800187">
        <ele>722.00000</ele>
        <time>2018-10-12T13:18:13Z</time>
      </trkpt>
      <trkpt lat="38.37297909" lon="-2.27804085">
        <ele>723.00000</ele>
        <time>2018-10-12T13:18:14Z</time>
      </trkpt>
      <trkpt lat="38.37297046" lon="-2.27807890">
        <ele>725.00000</ele>
        <time>2018-10-12T13:18:15Z</time>
      </trkpt>
      <trkpt lat="38.37295043" lon="-2.27814889">
        <ele>726.00000</ele>
        <time>2018-10-12T13:18:17Z</time>
      </trkpt>
      <trkpt lat="38.37293081" lon="-2.27822257">
        <ele>727.00000</ele>
        <time>2018-10-12T13:18:19Z</time>
      </trkpt>
      <trkpt lat="38.37289938" lon="-2.27833061">
        <ele>728.00000</ele>
        <time>2018-10-12T13:18:22Z</time>
      </trkpt>
      <trkpt lat="38.37287415" lon="-2.27840420">
        <ele>729.00000</ele>
        <time>2018-10-12T13:18:24Z</time>
      </trkpt>
      <trkpt lat="38.37286217" lon="-2.27843890">
        <ele>730.00000</ele>
        <time>2018-10-12T13:18:25Z</time>
      </trkpt>
      <trkpt lat="38.37283434" lon="-2.27854091">
        <ele>731.00000</ele>
        <time>2018-10-12T13:18:28Z</time>
      </trkpt>
      <trkpt lat="38.37280877" lon="-2.27864233">
        <ele>732.00000</ele>
        <time>2018-10-12T13:18:31Z</time>
      </trkpt>
      <trkpt lat="38.37279981" lon="-2.27867737">
        <ele>732.00000</ele>
        <time>2018-10-12T13:18:32Z</time>
      </trkpt>
      <trkpt lat="38.37277441" lon="-2.27882640">
        <ele>733.00000</ele>
        <time>2018-10-12T13:18:36Z</time>
      </trkpt>
      <trkpt lat="38.37275722" lon="-2.27898255">
        <ele>735.00000</ele>
        <time>2018-10-12T13:18:40Z</time>
      </trkpt>
      <trkpt lat="38.37275672" lon="-2.27911926">
        <ele>736.00000</ele>
        <time>2018-10-12T13:18:43Z</time>
      </trkpt>
      <trkpt lat="38.37276410" lon="-2.27933275">
        <ele>737.00000</ele>
        <time>2018-10-12T13:18:47Z</time>
      </trkpt>
      <trkpt lat="38.37277064" lon="-2.27946703">
        <ele>738.00000</ele>
        <time>2018-10-12T13:18:50Z</time>
      </trkpt>
      <trkpt lat="38.37278287" lon="-2.27963500">
        <ele>739.00000</ele>
        <time>2018-10-12T13:18:54Z</time>
      </trkpt>
      <trkpt lat="38.37278975" lon="-2.27975570">
        <ele>740.00000</ele>
        <time>2018-10-12T13:18:57Z</time>
      </trkpt>
      <trkpt lat="38.37280601" lon="-2.27994622">
        <ele>741.00000</ele>
        <time>2018-10-12T13:19:02Z</time>
      </trkpt>
      <trkpt lat="38.37280207" lon="-2.28017949">
        <ele>743.00000</ele>
        <time>2018-10-12T13:19:08Z</time>
      </trkpt>
      <trkpt lat="38.37277902" lon="-2.28037336">
        <ele>744.00000</ele>
        <time>2018-10-12T13:19:13Z</time>
      </trkpt>
      <trkpt lat="38.37271439" lon="-2.28068970">
        <ele>745.00000</ele>
        <time>2018-10-12T13:19:21Z</time>
      </trkpt>
      <trkpt lat="38.37266888" lon="-2.28084300">
        <ele>746.00000</ele>
        <time>2018-10-12T13:19:25Z</time>
      </trkpt>
      <trkpt lat="38.37259621" lon="-2.28102263">
        <ele>747.00000</ele>
        <time>2018-10-12T13:19:30Z</time>
      </trkpt>
      <trkpt lat="38.37246512" lon="-2.28125950">
        <ele>748.00000</ele>
        <time>2018-10-12T13:19:37Z</time>
      </trkpt>
      <trkpt lat="38.37233142" lon="-2.28145111">
        <ele>749.00000</ele>
        <time>2018-10-12T13:19:43Z</time>
      </trkpt>
      <trkpt lat="38.37231047" lon="-2.28148480">
        <ele>749.00000</ele>
        <time>2018-10-12T13:19:44Z</time>
      </trkpt>
      <trkpt lat="38.37218047" lon="-2.28168698">
        <ele>750.00000</ele>
        <time>2018-10-12T13:19:50Z</time>
      </trkpt>
      <trkpt lat="38.37204610" lon="-2.28188445">
        <ele>751.00000</ele>
        <time>2018-10-12T13:19:56Z</time>
      </trkpt>
      <trkpt lat="38.37193328" lon="-2.28204782">
        <ele>752.00000</ele>
        <time>2018-10-12T13:20:01Z</time>
      </trkpt>
      <trkpt lat="38.37179892" lon="-2.28225770">
        <ele>753.00000</ele>
        <time>2018-10-12T13:20:07Z</time>
      </trkpt>
      <trkpt lat="38.37171535" lon="-2.28250580">
        <ele>755.00000</ele>
        <time>2018-10-12T13:20:13Z</time>
      </trkpt>
      <trkpt lat="38.37168266" lon="-2.28281769">
        <ele>756.00000</ele>
        <time>2018-10-12T13:20:20Z</time>
      </trkpt>
      <trkpt lat="38.37162449" lon="-2.28306957">
        <ele>757.00000</ele>
        <time>2018-10-12T13:20:26Z</time>
      </trkpt>
      <trkpt lat="38.37152877" lon="-2.28325104">
        <ele>758.00000</ele>
        <time>2018-10-12T13:20:31Z</time>
      </trkpt>
      <trkpt lat="38.37140346" lon="-2.28340275">
        <ele>759.00000</ele>
        <time>2018-10-12T13:20:36Z</time>
      </trkpt>
      <trkpt lat="38.37119978" lon="-2.28355019">
        <ele>760.00000</ele>
        <time>2018-10-12T13:20:43Z</time>
      </trkpt>
      <trkpt lat="38.37104958" lon="-2.28364809">
        <ele>761.00000</ele>
        <time>2018-10-12T13:20:48Z</time>
      </trkpt>
      <trkpt lat="38.37090943" lon="-2.28375865">
        <ele>762.00000</ele>
        <time>2018-10-12T13:20:53Z</time>
      </trkpt>
      <trkpt lat="38.37076585" lon="-2.28385210">
        <ele>763.00000</ele>
        <time>2018-10-12T13:20:58Z</time>
      </trkpt>
      <trkpt lat="38.37062411" lon="-2.28394615">
        <ele>764.00000</ele>
        <time>2018-10-12T13:21:03Z</time>
      </trkpt>
      <trkpt lat="38.37047500" lon="-2.28403181">
        <ele>766.00000</ele>
        <time>2018-10-12T13:21:08Z</time>
      </trkpt>
      <trkpt lat="38.37031709" lon="-2.28410222">
        <ele>767.00000</ele>
        <time>2018-10-12T13:21:13Z</time>
      </trkpt>
      <trkpt lat="38.37019731" lon="-2.28417162">
        <ele>768.00000</ele>
        <time>2018-10-12T13:21:17Z</time>
      </trkpt>
      <trkpt lat="38.37006974" lon="-2.28429811">
        <ele>769.00000</ele>
        <time>2018-10-12T13:21:22Z</time>
      </trkpt>
      <trkpt lat="38.36997846" lon="-2.28447614">
        <ele>770.00000</ele>
        <time>2018-10-12T13:21:27Z</time>
      </trkpt>
      <trkpt lat="38.36990495" lon="-2.28466188">
        <ele>772.00000</ele>
        <time>2018-10-12T13:21:32Z</time>
      </trkpt>
      <trkpt lat="38.36984074" lon="-2.28481980">
        <ele>773.00000</ele>
        <time>2018-10-12T13:21:36Z</time>
      </trkpt>
      <trkpt lat="38.36978475" lon="-2.28498877">
        <ele>774.00000</ele>
        <time>2018-10-12T13:21:40Z</time>
      </trkpt>
      <trkpt lat="38.36976195" lon="-2.28512632">
        <ele>775.00000</ele>
        <time>2018-10-12T13:21:43Z</time>
      </trkpt>
      <trkpt lat="38.36976472" lon="-2.28532103">
        <ele>776.00000</ele>
        <time>2018-10-12T13:21:47Z</time>
      </trkpt>
      <trkpt lat="38.36979154" lon="-2.28583409">
        <ele>777.00000</ele>
        <time>2018-10-12T13:21:56Z</time>
      </trkpt>
      <trkpt lat="38.36982649" lon="-2.28651973">
        <ele>777.00000</ele>
        <time>2018-10-12T13:22:05Z</time>
      </trkpt>
      <trkpt lat="38.36984837" lon="-2.28668309">
        <ele>776.00000</ele>
        <time>2018-10-12T13:22:07Z</time>
      </trkpt>
      <trkpt lat="38.36994082" lon="-2.28707218">
        <ele>775.00000</ele>
        <time>2018-10-12T13:22:12Z</time>
      </trkpt>
      <trkpt lat="38.36996555" lon="-2.28714259">
        <ele>775.00000</ele>
        <time>2018-10-12T13:22:13Z</time>
      </trkpt>
      <trkpt lat="38.37011936" lon="-2.28745364">
        <ele>775.00000</ele>
        <time>2018-10-12T13:22:18Z</time>
      </trkpt>
      <trkpt lat="38.37019111" lon="-2.28756076">
        <ele>775.00000</ele>
        <time>2018-10-12T13:22:20Z</time>
      </trkpt>
      <trkpt lat="38.37026269" lon="-2.28765900">
        <ele>775.00000</ele>
        <time>2018-10-12T13:22:22Z</time>
      </trkpt>
      <trkpt lat="38.37030141" lon="-2.28769596">
        <ele>775.00000</ele>
        <time>2018-10-12T13:22:23Z</time>
      </trkpt>
      <trkpt lat="38.37038339" lon="-2.28775681">
        <ele>775.00000</ele>
        <time>2018-10-12T13:22:25Z</time>
      </trkpt>
      <trkpt lat="38.37056896" lon="-2.28796619">
        <ele>776.00000</ele>
        <time>2018-10-12T13:22:30Z</time>
      </trkpt>
      <trkpt lat="38.37071875" lon="-2.28816979">
        <ele>776.00000</ele>
        <time>2018-10-12T13:22:34Z</time>
      </trkpt>
      <trkpt lat="38.37080860" lon="-2.28850959">
        <ele>777.00000</ele>
        <time>2018-10-12T13:22:39Z</time>
      </trkpt>
      <trkpt lat="38.37081925" lon="-2.28878720">
        <ele>777.00000</ele>
        <time>2018-10-12T13:22:43Z</time>
      </trkpt>
      <trkpt lat="38.37080181" lon="-2.28891494">
        <ele>777.00000</ele>
        <time>2018-10-12T13:22:45Z</time>
      </trkpt>
      <trkpt lat="38.37075747" lon="-2.28908442">
        <ele>778.00000</ele>
        <time>2018-10-12T13:22:48Z</time>
      </trkpt>
      <trkpt lat="38.37071221" lon="-2.28927846">
        <ele>778.00000</ele>
        <time>2018-10-12T13:22:52Z</time>
      </trkpt>
      <trkpt lat="38.37068866" lon="-2.28944661">
        <ele>780.00000</ele>
        <time>2018-10-12T13:22:56Z</time>
      </trkpt>
      <trkpt lat="38.37069377" lon="-2.28957275">
        <ele>781.00000</ele>
        <time>2018-10-12T13:22:59Z</time>
      </trkpt>
      <trkpt lat="38.37063149" lon="-2.28969261">
        <ele>782.00000</ele>
        <time>2018-10-12T13:23:02Z</time>
      </trkpt>
      <trkpt lat="38.37043016" lon="-2.28993108">
        <ele>783.00000</ele>
        <time>2018-10-12T13:23:09Z</time>
      </trkpt>
      <trkpt lat="38.37017116" lon="-2.29020894">
        <ele>784.00000</ele>
        <time>2018-10-12T13:23:18Z</time>
      </trkpt>
      <trkpt lat="38.37003520" lon="-2.29034330">
        <ele>785.00000</ele>
        <time>2018-10-12T13:23:23Z</time>
      </trkpt>
      <trkpt lat="38.36989757" lon="-2.29046073">
        <ele>786.00000</ele>
        <time>2018-10-12T13:23:28Z</time>
      </trkpt>
      <trkpt lat="38.36978257" lon="-2.29054589">
        <ele>787.00000</ele>
        <time>2018-10-12T13:23:32Z</time>
      </trkpt>
      <trkpt lat="38.36961510" lon="-2.29068009">
        <ele>788.00000</ele>
        <time>2018-10-12T13:23:38Z</time>
      </trkpt>
      <trkpt lat="38.36947051" lon="-2.29078888">
        <ele>789.00000</ele>
        <time>2018-10-12T13:23:43Z</time>
      </trkpt>
      <trkpt lat="38.36932450" lon="-2.29088896">
        <ele>790.00000</ele>
        <time>2018-10-12T13:23:48Z</time>
      </trkpt>
      <trkpt lat="38.36918955" lon="-2.29100053">
        <ele>791.00000</ele>
        <time>2018-10-12T13:23:53Z</time>
      </trkpt>
      <trkpt lat="38.36905385" lon="-2.29113640">
        <ele>792.00000</ele>
        <time>2018-10-12T13:23:58Z</time>
      </trkpt>
      <trkpt lat="38.36893030" lon="-2.29130010">
        <ele>794.00000</ele>
        <time>2018-10-12T13:24:03Z</time>
      </trkpt>
      <trkpt lat="38.36883173" lon="-2.29160713">
        <ele>795.00000</ele>
        <time>2018-10-12T13:24:10Z</time>
      </trkpt>
      <trkpt lat="38.36872092" lon="-2.29222202">
        <ele>796.00000</ele>
        <time>2018-10-12T13:24:22Z</time>
      </trkpt>
      <trkpt lat="38.36855521" lon="-2.29264229">
        <ele>797.00000</ele>
        <time>2018-10-12T13:24:31Z</time>
      </trkpt>
      <trkpt lat="38.36839134" lon="-2.29288117">
        <ele>798.00000</ele>
        <time>2018-10-12T13:24:37Z</time>
      </trkpt>
      <trkpt lat="38.36808356" lon="-2.29322508">
        <ele>799.00000</ele>
        <time>2018-10-12T13:24:47Z</time>
      </trkpt>
      <trkpt lat="38.36805380" lon="-2.29325802">
        <ele>799.00000</ele>
        <time>2018-10-12T13:24:48Z</time>
      </trkpt>
      <trkpt lat="38.36786488" lon="-2.29349674">
        <ele>800.00000</ele>
        <time>2018-10-12T13:24:55Z</time>
      </trkpt>
      <trkpt lat="38.36777905" lon="-2.29364510">
        <ele>801.00000</ele>
        <time>2018-10-12T13:24:59Z</time>
      </trkpt>
      <trkpt lat="38.36770134" lon="-2.29389136">
        <ele>803.00000</ele>
        <time>2018-10-12T13:25:05Z</time>
      </trkpt>
      <trkpt lat="38.36767813" lon="-2.29410066">
        <ele>804.00000</ele>
        <time>2018-10-12T13:25:10Z</time>
      </trkpt>
      <trkpt lat="38.36769866" lon="-2.29427752">
        <ele>805.00000</ele>
        <time>2018-10-12T13:25:14Z</time>
      </trkpt>
      <trkpt lat="38.36779623" lon="-2.29464741">
        <ele>806.00000</ele>
        <time>2018-10-12T13:25:22Z</time>
      </trkpt>
      <trkpt lat="38.36795565" lon="-2.29527463">
        <ele>807.00000</ele>
        <time>2018-10-12T13:25:34Z</time>
      </trkpt>
      <trkpt lat="38.36795481" lon="-2.29553430">
        <ele>807.00000</ele>
        <time>2018-10-12T13:25:39Z</time>
      </trkpt>
      <trkpt lat="38.36792858" lon="-2.29588592">
        <ele>808.00000</ele>
        <time>2018-10-12T13:25:46Z</time>
      </trkpt>
      <trkpt lat="38.36790561" lon="-2.29621793">
        <ele>809.00000</ele>
        <time>2018-10-12T13:25:52Z</time>
      </trkpt>
      <trkpt lat="38.36790578" lon="-2.29648824">
        <ele>810.00000</ele>
        <time>2018-10-12T13:25:57Z</time>
      </trkpt>
      <trkpt lat="38.36791617" lon="-2.29664892">
        <ele>811.00000</ele>
        <time>2018-10-12T13:26:00Z</time>
      </trkpt>
      <trkpt lat="38.36792849" lon="-2.29675604">
        <ele>811.00000</ele>
        <time>2018-10-12T13:26:02Z</time>
      </trkpt>
      <trkpt lat="38.36795364" lon="-2.29696685">
        <ele>812.00000</ele>
        <time>2018-10-12T13:26:06Z</time>
      </trkpt>
      <trkpt lat="38.36795926" lon="-2.29701873">
        <ele>813.00000</ele>
        <time>2018-10-12T13:26:07Z</time>
      </trkpt>
      <trkpt lat="38.36800745" lon="-2.29727396">
        <ele>814.00000</ele>
        <time>2018-10-12T13:26:12Z</time>
      </trkpt>
      <trkpt lat="38.36806068" lon="-2.29752626">
        <ele>815.00000</ele>
        <time>2018-10-12T13:26:17Z</time>
      </trkpt>
      <trkpt lat="38.36810108" lon="-2.29772726">
        <ele>816.00000</ele>
        <time>2018-10-12T13:26:21Z</time>
      </trkpt>
      <trkpt lat="38.36813955" lon="-2.29791442">
        <ele>817.00000</ele>
        <time>2018-10-12T13:26:25Z</time>
      </trkpt>
      <trkpt lat="38.36819345" lon="-2.29818784">
        <ele>818.00000</ele>
        <time>2018-10-12T13:26:31Z</time>
      </trkpt>
      <trkpt lat="38.36823821" lon="-2.29841013">
        <ele>819.00000</ele>
        <time>2018-10-12T13:26:36Z</time>
      </trkpt>
      <trkpt lat="38.36827659" lon="-2.29863166">
        <ele>820.00000</ele>
        <time>2018-10-12T13:26:41Z</time>
      </trkpt>
      <trkpt lat="38.36831197" lon="-2.29889972">
        <ele>821.00000</ele>
        <time>2018-10-12T13:26:47Z</time>
      </trkpt>
      <trkpt lat="38.36831616" lon="-2.29916886">
        <ele>823.00000</ele>
        <time>2018-10-12T13:26:53Z</time>
      </trkpt>
      <trkpt lat="38.36829042" lon="-2.29942702">
        <ele>824.00000</ele>
        <time>2018-10-12T13:26:59Z</time>
      </trkpt>
      <trkpt lat="38.36826763" lon="-2.29968401">
        <ele>825.00000</ele>
        <time>2018-10-12T13:27:05Z</time>
      </trkpt>
      <trkpt lat="38.36824080" lon="-2.29989700">
        <ele>826.00000</ele>
        <time>2018-10-12T13:27:10Z</time>
      </trkpt>
      <trkpt lat="38.36821532" lon="-2.30010897">
        <ele>827.00000</ele>
        <time>2018-10-12T13:27:15Z</time>
      </trkpt>
      <trkpt lat="38.36820392" lon="-2.30032145">
        <ele>829.00000</ele>
        <time>2018-10-12T13:27:20Z</time>
      </trkpt>
      <trkpt lat="38.36820124" lon="-2.30052949">
        <ele>830.00000</ele>
        <time>2018-10-12T13:27:25Z</time>
      </trkpt>
      <trkpt lat="38.36820811" lon="-2.30069696">
        <ele>831.00000</ele>
        <time>2018-10-12T13:27:29Z</time>
      </trkpt>
      <trkpt lat="38.36822479" lon="-2.30090484">
        <ele>832.00000</ele>
        <time>2018-10-12T13:27:34Z</time>
      </trkpt>
      <trkpt lat="38.36824273" lon="-2.30111137">
        <ele>833.00000</ele>
        <time>2018-10-12T13:27:39Z</time>
      </trkpt>
      <trkpt lat="38.36826687" lon="-2.30136064">
        <ele>834.00000</ele>
        <time>2018-10-12T13:27:45Z</time>
      </trkpt>
      <trkpt lat="38.36828162" lon="-2.30152409">
        <ele>835.00000</ele>
        <time>2018-10-12T13:27:49Z</time>
      </trkpt>
      <trkpt lat="38.36831021" lon="-2.30181578">
        <ele>836.00000</ele>
        <time>2018-10-12T13:27:56Z</time>
      </trkpt>
      <trkpt lat="38.36833837" lon="-2.30206724">
        <ele>837.00000</ele>
        <time>2018-10-12T13:28:02Z</time>
      </trkpt>
      <trkpt lat="38.36836595" lon="-2.30230554">
        <ele>838.00000</ele>
        <time>2018-10-12T13:28:08Z</time>
      </trkpt>
      <trkpt lat="38.36837290" lon="-2.30234493">
        <ele>838.00000</ele>
        <time>2018-10-12T13:28:09Z</time>
      </trkpt>
      <trkpt lat="38.36841632" lon="-2.30254333">
        <ele>839.00000</ele>
        <time>2018-10-12T13:28:14Z</time>
      </trkpt>
      <trkpt lat="38.36846997" lon="-2.30274667">
        <ele>840.00000</ele>
        <time>2018-10-12T13:28:19Z</time>
      </trkpt>
      <trkpt lat="38.36856049" lon="-2.30302864">
        <ele>842.00000</ele>
        <time>2018-10-12T13:28:26Z</time>
      </trkpt>
      <trkpt lat="38.36865453" lon="-2.30326057">
        <ele>843.00000</ele>
        <time>2018-10-12T13:28:32Z</time>
      </trkpt>
      <trkpt lat="38.36872234" lon="-2.30340935">
        <ele>844.00000</ele>
        <time>2018-10-12T13:28:36Z</time>
      </trkpt>
      <trkpt lat="38.36888101" lon="-2.30369534">
        <ele>845.00000</ele>
        <time>2018-10-12T13:28:44Z</time>
      </trkpt>
      <trkpt lat="38.36902258" lon="-2.30390648">
        <ele>846.00000</ele>
        <time>2018-10-12T13:28:50Z</time>
      </trkpt>
      <trkpt lat="38.36921319" lon="-2.30413983">
        <ele>847.00000</ele>
        <time>2018-10-12T13:28:57Z</time>
      </trkpt>
      <trkpt lat="38.36946540" lon="-2.30439087">
        <ele>848.00000</ele>
        <time>2018-10-12T13:29:05Z</time>
      </trkpt>
      <trkpt lat="38.36963656" lon="-2.30452422">
        <ele>849.00000</ele>
        <time>2018-10-12T13:29:10Z</time>
      </trkpt>
      <trkpt lat="38.36981392" lon="-2.30464392">
        <ele>850.00000</ele>
        <time>2018-10-12T13:29:15Z</time>
      </trkpt>
      <trkpt lat="38.37006362" lon="-2.30478473">
        <ele>851.00000</ele>
        <time>2018-10-12T13:29:23Z</time>
      </trkpt>
      <trkpt lat="38.37043250" lon="-2.30492848">
        <ele>852.00000</ele>
        <time>2018-10-12T13:29:33Z</time>
      </trkpt>
      <trkpt lat="38.37061724" lon="-2.30499713">
        <ele>853.00000</ele>
        <time>2018-10-12T13:29:38Z</time>
      </trkpt>
      <trkpt lat="38.37076309" lon="-2.30504550">
        <ele>853.00000</ele>
        <time>2018-10-12T13:29:42Z</time>
      </trkpt>
      <trkpt lat="38.37094849" lon="-2.30511046">
        <ele>855.00000</ele>
        <time>2018-10-12T13:29:47Z</time>
      </trkpt>
      <trkpt lat="38.37120247" lon="-2.30518581">
        <ele>856.00000</ele>
        <time>2018-10-12T13:29:54Z</time>
      </trkpt>
      <trkpt lat="38.37146876" lon="-2.30523635">
        <ele>857.00000</ele>
        <time>2018-10-12T13:30:01Z</time>
      </trkpt>
      <trkpt lat="38.37192800" lon="-2.30526410">
        <ele>858.00000</ele>
        <time>2018-10-12T13:30:12Z</time>
      </trkpt>
      <trkpt lat="38.37220989" lon="-2.30525471">
        <ele>859.00000</ele>
        <time>2018-10-12T13:30:18Z</time>
      </trkpt>
      <trkpt lat="38.37241399" lon="-2.30524959">
        <ele>860.00000</ele>
        <time>2018-10-12T13:30:22Z</time>
      </trkpt>
      <trkpt lat="38.37282487" lon="-2.30523962">
        <ele>860.00000</ele>
        <time>2018-10-12T13:30:30Z</time>
      </trkpt>
      <trkpt lat="38.37336340" lon="-2.30522629">
        <ele>860.00000</ele>
        <time>2018-10-12T13:30:41Z</time>
      </trkpt>
      <trkpt lat="38.37350849" lon="-2.30523266">
        <ele>861.00000</ele>
        <time>2018-10-12T13:30:44Z</time>
      </trkpt>
      <trkpt lat="38.37360832" lon="-2.30524859">
        <ele>861.00000</ele>
        <time>2018-10-12T13:30:46Z</time>
      </trkpt>
      <trkpt lat="38.37374570" lon="-2.30529000">
        <ele>863.00000</ele>
        <time>2018-10-12T13:30:49Z</time>
      </trkpt>
      <trkpt lat="38.37383103" lon="-2.30533283">
        <ele>864.00000</ele>
        <time>2018-10-12T13:30:51Z</time>
      </trkpt>
      <trkpt lat="38.37387118" lon="-2.30536166">
        <ele>864.00000</ele>
        <time>2018-10-12T13:30:52Z</time>
      </trkpt>
      <trkpt lat="38.37398123" lon="-2.30546669">
        <ele>865.00000</ele>
        <time>2018-10-12T13:30:55Z</time>
      </trkpt>
      <trkpt lat="38.37407193" lon="-2.30559099">
        <ele>866.00000</ele>
        <time>2018-10-12T13:30:58Z</time>
      </trkpt>
      <trkpt lat="38.37417419" lon="-2.30585217">
        <ele>866.00000</ele>
        <time>2018-10-12T13:31:03Z</time>
      </trkpt>
      <trkpt lat="38.37418860" lon="-2.30590690">
        <ele>866.00000</ele>
        <time>2018-10-12T13:31:04Z</time>
      </trkpt>
      <trkpt lat="38.37421333" lon="-2.30613858">
        <ele>867.00000</ele>
        <time>2018-10-12T13:31:08Z</time>
      </trkpt>
      <trkpt lat="38.37420713" lon="-2.30625811">
        <ele>868.00000</ele>
        <time>2018-10-12T13:31:10Z</time>
      </trkpt>
      <trkpt lat="38.37416430" lon="-2.30643773">
        <ele>868.00000</ele>
        <time>2018-10-12T13:31:13Z</time>
      </trkpt>
      <trkpt lat="38.37412389" lon="-2.30655617">
        <ele>869.00000</ele>
        <time>2018-10-12T13:31:15Z</time>
      </trkpt>
      <trkpt lat="38.37399875" lon="-2.30676454">
        <ele>869.00000</ele>
        <time>2018-10-12T13:31:19Z</time>
      </trkpt>
      <trkpt lat="38.37380756" lon="-2.30701290">
        <ele>869.00000</ele>
        <time>2018-10-12T13:31:24Z</time>
      </trkpt>
      <trkpt lat="38.37358091" lon="-2.30770030">
        <ele>870.00000</ele>
        <time>2018-10-12T13:31:34Z</time>
      </trkpt>
      <trkpt lat="38.37342644" lon="-2.30830824">
        <ele>870.00000</ele>
        <time>2018-10-12T13:31:42Z</time>
      </trkpt>
      <trkpt lat="38.37315922" lon="-2.30873705">
        <ele>870.00000</ele>
        <time>2018-10-12T13:31:49Z</time>
      </trkpt>
      <trkpt lat="38.37275882" lon="-2.30912840">
        <ele>870.00000</ele>
        <time>2018-10-12T13:31:58Z</time>
      </trkpt>
      <trkpt lat="38.37256193" lon="-2.30925053">
        <ele>871.00000</ele>
        <time>2018-10-12T13:32:02Z</time>
      </trkpt>
      <trkpt lat="38.37250728" lon="-2.30926897">
        <ele>871.00000</ele>
        <time>2018-10-12T13:32:03Z</time>
      </trkpt>
      <trkpt lat="38.37204049" lon="-2.30941372">
        <ele>872.00000</ele>
        <time>2018-10-12T13:32:11Z</time>
      </trkpt>
      <trkpt lat="38.37178694" lon="-2.30976576">
        <ele>873.00000</ele>
        <time>2018-10-12T13:32:17Z</time>
      </trkpt>
      <trkpt lat="38.37159072" lon="-2.31037697">
        <ele>873.00000</ele>
        <time>2018-10-12T13:32:25Z</time>
      </trkpt>
      <trkpt lat="38.37152098" lon="-2.31112732">
        <ele>874.00000</ele>
        <time>2018-10-12T13:32:34Z</time>
      </trkpt>
      <trkpt lat="38.37141009" lon="-2.31151079">
        <ele>874.00000</ele>
        <time>2018-10-12T13:32:39Z</time>
      </trkpt>
      <trkpt lat="38.37137404" lon="-2.31158061">
        <ele>874.00000</ele>
        <time>2018-10-12T13:32:40Z</time>
      </trkpt>
      <trkpt lat="38.37092435" lon="-2.31205017">
        <ele>874.00000</ele>
        <time>2018-10-12T13:32:49Z</time>
      </trkpt>
      <trkpt lat="38.37057089" lon="-2.31228436">
        <ele>875.00000</ele>
        <time>2018-10-12T13:32:56Z</time>
      </trkpt>
      <trkpt lat="38.37039043" lon="-2.31239031">
        <ele>875.00000</ele>
        <time>2018-10-12T13:33:00Z</time>
      </trkpt>
      <trkpt lat="38.37029999" lon="-2.31242702">
        <ele>876.00000</ele>
        <time>2018-10-12T13:33:02Z</time>
      </trkpt>
      <trkpt lat="38.37016185" lon="-2.31246834">
        <ele>877.00000</ele>
        <time>2018-10-12T13:33:05Z</time>
      </trkpt>
      <trkpt lat="38.36996722" lon="-2.31250899">
        <ele>878.00000</ele>
        <time>2018-10-12T13:33:09Z</time>
      </trkpt>
      <trkpt lat="38.36968987" lon="-2.31265869">
        <ele>879.00000</ele>
        <time>2018-10-12T13:33:15Z</time>
      </trkpt>
      <trkpt lat="38.36960949" lon="-2.31274603">
        <ele>879.00000</ele>
        <time>2018-10-12T13:33:17Z</time>
      </trkpt>
      <trkpt lat="38.36950002" lon="-2.31291795">
        <ele>879.00000</ele>
        <time>2018-10-12T13:33:20Z</time>
      </trkpt>
      <trkpt lat="38.36926507" lon="-2.31344902">
        <ele>879.00000</ele>
        <time>2018-10-12T13:33:27Z</time>
      </trkpt>
      <trkpt lat="38.36920280" lon="-2.31361457">
        <ele>878.00000</ele>
        <time>2018-10-12T13:33:29Z</time>
      </trkpt>
      <trkpt lat="38.36910942" lon="-2.31385370">
        <ele>878.00000</ele>
        <time>2018-10-12T13:33:32Z</time>
      </trkpt>
      <trkpt lat="38.36907707" lon="-2.31392989">
        <ele>877.00000</ele>
        <time>2018-10-12T13:33:33Z</time>
      </trkpt>
      <trkpt lat="38.36895042" lon="-2.31422292">
        <ele>877.00000</ele>
        <time>2018-10-12T13:33:37Z</time>
      </trkpt>
      <trkpt lat="38.36881077" lon="-2.31457446">
        <ele>877.00000</ele>
        <time>2018-10-12T13:33:43Z</time>
      </trkpt>
      <trkpt lat="38.36875093" lon="-2.31472341">
        <ele>877.00000</ele>
        <time>2018-10-12T13:33:47Z</time>
      </trkpt>
      <trkpt lat="38.36873265" lon="-2.31479080">
        <ele>878.00000</ele>
        <time>2018-10-12T13:33:50Z</time>
      </trkpt>
      <trkpt lat="38.36873006" lon="-2.31479499">
        <ele>878.00000</ele>
        <time>2018-10-12T13:33:51Z</time>
      </trkpt>
      <trkpt lat="38.36873064" lon="-2.31481787">
        <ele>880.00000</ele>
        <time>2018-10-12T13:34:58Z</time>
      </trkpt>
      <trkpt lat="38.36872788" lon="-2.31504452">
        <ele>880.00000</ele>
        <time>2018-10-12T13:35:04Z</time>
      </trkpt>
      <trkpt lat="38.36867608" lon="-2.31541064">
        <ele>880.00000</ele>
        <time>2018-10-12T13:35:11Z</time>
      </trkpt>
      <trkpt lat="38.36857683" lon="-2.31601464">
        <ele>880.00000</ele>
        <time>2018-10-12T13:35:20Z</time>
      </trkpt>
      <trkpt lat="38.36855236" lon="-2.31616250">
        <ele>880.00000</ele>
        <time>2018-10-12T13:35:22Z</time>
      </trkpt>
      <trkpt lat="38.36854666" lon="-2.31630868">
        <ele>880.00000</ele>
        <time>2018-10-12T13:35:24Z</time>
      </trkpt>
      <trkpt lat="38.36857122" lon="-2.31653063">
        <ele>879.00000</ele>
        <time>2018-10-12T13:35:27Z</time>
      </trkpt>
      <trkpt lat="38.36858170" lon="-2.31660339">
        <ele>879.00000</ele>
        <time>2018-10-12T13:35:28Z</time>
      </trkpt>
      <trkpt lat="38.36863073" lon="-2.31693925">
        <ele>878.00000</ele>
        <time>2018-10-12T13:35:33Z</time>
      </trkpt>
      <trkpt lat="38.36866627" lon="-2.31717067">
        <ele>878.00000</ele>
        <time>2018-10-12T13:35:37Z</time>
      </trkpt>
      <trkpt lat="38.36868463" lon="-2.31730755">
        <ele>879.00000</ele>
        <time>2018-10-12T13:35:40Z</time>
      </trkpt>
      <trkpt lat="38.36871991" lon="-2.31746739">
        <ele>880.00000</ele>
        <time>2018-10-12T13:35:44Z</time>
      </trkpt>
      <trkpt lat="38.36883902" lon="-2.31790442">
        <ele>880.00000</ele>
        <time>2018-10-12T13:35:53Z</time>
      </trkpt>
      <trkpt lat="38.36883089" lon="-2.31800140">
        <ele>880.00000</ele>
        <time>2018-10-12T13:35:55Z</time>
      </trkpt>
      <trkpt lat="38.36878814" lon="-2.31816225">
        <ele>880.00000</ele>
        <time>2018-10-12T13:35:59Z</time>
      </trkpt>
      <trkpt lat="38.36868789" lon="-2.31834070">
        <ele>881.00000</ele>
        <time>2018-10-12T13:36:04Z</time>
      </trkpt>
      <trkpt lat="38.36861288" lon="-2.31843869">
        <ele>882.00000</ele>
        <time>2018-10-12T13:36:07Z</time>
      </trkpt>
      <trkpt lat="38.36847273" lon="-2.31858839">
        <ele>883.00000</ele>
        <time>2018-10-12T13:36:12Z</time>
      </trkpt>
      <trkpt lat="38.36829788" lon="-2.31872124">
        <ele>884.00000</ele>
        <time>2018-10-12T13:36:17Z</time>
      </trkpt>
      <trkpt lat="38.36807224" lon="-2.31889148">
        <ele>885.00000</ele>
        <time>2018-10-12T13:36:23Z</time>
      </trkpt>
      <trkpt lat="38.36800670" lon="-2.31897245">
        <ele>885.00000</ele>
        <time>2018-10-12T13:36:25Z</time>
      </trkpt>
      <trkpt lat="38.36794761" lon="-2.31921410">
        <ele>885.00000</ele>
        <time>2018-10-12T13:36:29Z</time>
      </trkpt>
      <trkpt lat="38.36807979" lon="-2.31949204">
        <ele>885.00000</ele>
        <time>2018-10-12T13:36:34Z</time>
      </trkpt>
      <trkpt lat="38.36842303" lon="-2.31984366">
        <ele>885.00000</ele>
        <time>2018-10-12T13:36:43Z</time>
      </trkpt>
      <trkpt lat="38.36849327" lon="-2.31993050">
        <ele>886.00000</ele>
        <time>2018-10-12T13:36:45Z</time>
      </trkpt>
      <trkpt lat="38.36823192" lon="-2.32039620">
        <ele>886.00000</ele>
        <time>2018-10-12T13:36:57Z</time>
      </trkpt>
      <trkpt lat="38.36817886" lon="-2.32038605">
        <ele>886.00000</ele>
        <time>2018-10-12T13:36:58Z</time>
      </trkpt>
      <trkpt lat="38.36796211" lon="-2.32034054">
        <ele>886.00000</ele>
        <time>2018-10-12T13:37:02Z</time>
      </trkpt>
      <trkpt lat="38.36762649" lon="-2.32052712">
        <ele>886.00000</ele>
        <time>2018-10-12T13:37:08Z</time>
      </trkpt>
      <trkpt lat="38.36738074" lon="-2.32078637">
        <ele>886.00000</ele>
        <time>2018-10-12T13:37:13Z</time>
      </trkpt>
      <trkpt lat="38.36713054" lon="-2.32118519">
        <ele>886.00000</ele>
        <time>2018-10-12T13:37:20Z</time>
      </trkpt>
      <trkpt lat="38.36684865" lon="-2.32172280">
        <ele>888.00000</ele>
        <time>2018-10-12T13:37:30Z</time>
      </trkpt>
      <trkpt lat="38.36674069" lon="-2.32198909">
        <ele>889.00000</ele>
        <time>2018-10-12T13:37:35Z</time>
      </trkpt>
      <trkpt lat="38.36665344" lon="-2.32226679">
        <ele>890.00000</ele>
        <time>2018-10-12T13:37:40Z</time>
      </trkpt>
      <trkpt lat="38.36653400" lon="-2.32262494">
        <ele>891.00000</ele>
        <time>2018-10-12T13:37:47Z</time>
      </trkpt>
      <trkpt lat="38.36646937" lon="-2.32282636">
        <ele>892.00000</ele>
        <time>2018-10-12T13:37:51Z</time>
      </trkpt>
      <trkpt lat="38.36645261" lon="-2.32287473">
        <ele>893.00000</ele>
        <time>2018-10-12T13:37:52Z</time>
      </trkpt>
      <trkpt lat="38.36640701" lon="-2.32301286">
        <ele>894.00000</ele>
        <time>2018-10-12T13:37:55Z</time>
      </trkpt>
      <trkpt lat="38.36634784" lon="-2.32319106">
        <ele>895.00000</ele>
        <time>2018-10-12T13:37:59Z</time>
      </trkpt>
      <trkpt lat="38.36628983" lon="-2.32337898">
        <ele>896.00000</ele>
        <time>2018-10-12T13:38:03Z</time>
      </trkpt>
      <trkpt lat="38.36622496" lon="-2.32356992">
        <ele>897.00000</ele>
        <time>2018-10-12T13:38:07Z</time>
      </trkpt>
      <trkpt lat="38.36610736" lon="-2.32390411">
        <ele>898.00000</ele>
        <time>2018-10-12T13:38:14Z</time>
      </trkpt>
      <trkpt lat="38.36597828" lon="-2.32428054">
        <ele>899.00000</ele>
        <time>2018-10-12T13:38:22Z</time>
      </trkpt>
      <trkpt lat="38.36583034" lon="-2.32469704">
        <ele>900.00000</ele>
        <time>2018-10-12T13:38:31Z</time>
      </trkpt>
      <trkpt lat="38.36571156" lon="-2.32509685">
        <ele>901.00000</ele>
        <time>2018-10-12T13:38:39Z</time>
      </trkpt>
      <trkpt lat="38.36564300" lon="-2.32548166">
        <ele>902.00000</ele>
        <time>2018-10-12T13:38:47Z</time>
      </trkpt>
      <trkpt lat="38.36561006" lon="-2.32572608">
        <ele>903.00000</ele>
        <time>2018-10-12T13:38:54Z</time>
      </trkpt>
      <trkpt lat="38.36559036" lon="-2.32586363">
        <ele>904.00000</ele>
        <time>2018-10-12T13:38:58Z</time>
      </trkpt>
      <trkpt lat="38.36549950" lon="-2.32631139">
        <ele>905.00000</ele>
        <time>2018-10-12T13:39:08Z</time>
      </trkpt>
      <trkpt lat="38.36546262" lon="-2.32679402">
        <ele>907.00000</ele>
        <time>2018-10-12T13:39:18Z</time>
      </trkpt>
      <trkpt lat="38.36542013" lon="-2.32712225">
        <ele>908.00000</ele>
        <time>2018-10-12T13:39:25Z</time>
      </trkpt>
      <trkpt lat="38.36534352" lon="-2.32750858">
        <ele>909.00000</ele>
        <time>2018-10-12T13:39:33Z</time>
      </trkpt>
      <trkpt lat="38.36533027" lon="-2.32755711">
        <ele>909.00000</ele>
        <time>2018-10-12T13:39:34Z</time>
      </trkpt>
      <trkpt lat="38.36525693" lon="-2.32784612">
        <ele>910.00000</ele>
        <time>2018-10-12T13:39:40Z</time>
      </trkpt>
      <trkpt lat="38.36521276" lon="-2.32824090">
        <ele>911.00000</ele>
        <time>2018-10-12T13:39:48Z</time>
      </trkpt>
      <trkpt lat="38.36518887" lon="-2.32843754">
        <ele>912.00000</ele>
        <time>2018-10-12T13:39:52Z</time>
      </trkpt>
      <trkpt lat="38.36515115" lon="-2.32878464">
        <ele>913.00000</ele>
        <time>2018-10-12T13:39:59Z</time>
      </trkpt>
      <trkpt lat="38.36504705" lon="-2.32910499">
        <ele>914.00000</ele>
        <time>2018-10-12T13:40:06Z</time>
      </trkpt>
      <trkpt lat="38.36491227" lon="-2.32945838">
        <ele>915.00000</ele>
        <time>2018-10-12T13:40:14Z</time>
      </trkpt>
      <trkpt lat="38.36473792" lon="-2.32964579">
        <ele>917.00000</ele>
        <time>2018-10-12T13:40:20Z</time>
      </trkpt>
      <trkpt lat="38.36461504" lon="-2.32974814">
        <ele>917.00000</ele>
        <time>2018-10-12T13:40:24Z</time>
      </trkpt>
      <trkpt lat="38.36445277" lon="-2.32984864">
        <ele>918.00000</ele>
        <time>2018-10-12T13:40:29Z</time>
      </trkpt>
      <trkpt lat="38.36417189" lon="-2.33001267">
        <ele>920.00000</ele>
        <time>2018-10-12T13:40:38Z</time>
      </trkpt>
      <trkpt lat="38.36401482" lon="-2.33010889">
        <ele>921.00000</ele>
        <time>2018-10-12T13:40:43Z</time>
      </trkpt>
      <trkpt lat="38.36383377" lon="-2.33023504">
        <ele>922.00000</ele>
        <time>2018-10-12T13:40:49Z</time>
      </trkpt>
      <trkpt lat="38.36362481" lon="-2.33027159">
        <ele>923.00000</ele>
        <time>2018-10-12T13:40:55Z</time>
      </trkpt>
      <trkpt lat="38.36341693" lon="-2.33019665">
        <ele>924.00000</ele>
        <time>2018-10-12T13:41:01Z</time>
      </trkpt>
      <trkpt lat="38.36327469" lon="-2.33013681">
        <ele>924.00000</ele>
        <time>2018-10-12T13:41:05Z</time>
      </trkpt>
      <trkpt lat="38.36298753" lon="-2.32997043">
        <ele>925.00000</ele>
        <time>2018-10-12T13:41:13Z</time>
      </trkpt>
      <trkpt lat="38.36270690" lon="-2.32974470">
        <ele>926.00000</ele>
        <time>2018-10-12T13:41:21Z</time>
      </trkpt>
      <trkpt lat="38.36237825" lon="-2.32956147">
        <ele>927.00000</ele>
        <time>2018-10-12T13:41:31Z</time>
      </trkpt>
      <trkpt lat="38.36207298" lon="-2.32962811">
        <ele>928.00000</ele>
        <time>2018-10-12T13:41:40Z</time>
      </trkpt>
      <trkpt lat="38.36188833" lon="-2.32973439">
        <ele>929.00000</ele>
        <time>2018-10-12T13:41:46Z</time>
      </trkpt>
      <trkpt lat="38.36179646" lon="-2.32979566">
        <ele>930.00000</ele>
        <time>2018-10-12T13:41:49Z</time>
      </trkpt>
      <trkpt lat="38.36163947" lon="-2.32991343">
        <ele>932.00000</ele>
        <time>2018-10-12T13:41:54Z</time>
      </trkpt>
      <trkpt lat="38.36152522" lon="-2.33003421">
        <ele>933.00000</ele>
        <time>2018-10-12T13:41:58Z</time>
      </trkpt>
      <trkpt lat="38.36138675" lon="-2.33019816">
        <ele>934.00000</ele>
        <time>2018-10-12T13:42:03Z</time>
      </trkpt>
      <trkpt lat="38.36126253" lon="-2.33038231">
        <ele>935.00000</ele>
        <time>2018-10-12T13:42:08Z</time>
      </trkpt>
      <trkpt lat="38.36116941" lon="-2.33057711">
        <ele>936.00000</ele>
        <time>2018-10-12T13:42:13Z</time>
      </trkpt>
      <trkpt lat="38.36110076" lon="-2.33078607">
        <ele>937.00000</ele>
        <time>2018-10-12T13:42:18Z</time>
      </trkpt>
      <trkpt lat="38.36104460" lon="-2.33100048">
        <ele>939.00000</ele>
        <time>2018-10-12T13:42:23Z</time>
      </trkpt>
      <trkpt lat="38.36098610" lon="-2.33125939">
        <ele>940.00000</ele>
        <time>2018-10-12T13:42:29Z</time>
      </trkpt>
      <trkpt lat="38.36092617" lon="-2.33152292">
        <ele>941.00000</ele>
        <time>2018-10-12T13:42:35Z</time>
      </trkpt>
      <trkpt lat="38.36085626" lon="-2.33172333">
        <ele>942.00000</ele>
        <time>2018-10-12T13:42:40Z</time>
      </trkpt>
      <trkpt lat="38.36077689" lon="-2.33192207">
        <ele>943.00000</ele>
        <time>2018-10-12T13:42:45Z</time>
      </trkpt>
      <trkpt lat="38.36068217" lon="-2.33215316">
        <ele>944.00000</ele>
        <time>2018-10-12T13:42:51Z</time>
      </trkpt>
      <trkpt lat="38.36060908" lon="-2.33239925">
        <ele>945.00000</ele>
        <time>2018-10-12T13:42:57Z</time>
      </trkpt>
      <trkpt lat="38.36054932" lon="-2.33259857">
        <ele>946.00000</ele>
        <time>2018-10-12T13:43:02Z</time>
      </trkpt>
      <trkpt lat="38.36050875" lon="-2.33282580">
        <ele>947.00000</ele>
        <time>2018-10-12T13:43:07Z</time>
      </trkpt>
      <trkpt lat="38.36048637" lon="-2.33300937">
        <ele>948.00000</ele>
        <time>2018-10-12T13:43:11Z</time>
      </trkpt>
      <trkpt lat="38.36044840" lon="-2.33328312">
        <ele>950.00000</ele>
        <time>2018-10-12T13:43:17Z</time>
      </trkpt>
      <trkpt lat="38.36036324" lon="-2.33350776">
        <ele>950.00000</ele>
        <time>2018-10-12T13:43:22Z</time>
      </trkpt>
      <trkpt lat="38.36033600" lon="-2.33354715">
        <ele>951.00000</ele>
        <time>2018-10-12T13:43:23Z</time>
      </trkpt>
      <trkpt lat="38.36013106" lon="-2.33377363">
        <ele>951.00000</ele>
        <time>2018-10-12T13:43:29Z</time>
      </trkpt>
      <trkpt lat="38.36001179" lon="-2.33389140">
        <ele>951.00000</ele>
        <time>2018-10-12T13:43:32Z</time>
      </trkpt>
      <trkpt lat="38.35996300" lon="-2.33391931">
        <ele>951.00000</ele>
        <time>2018-10-12T13:43:33Z</time>
      </trkpt>
      <trkpt lat="38.35970928" lon="-2.33389659">
        <ele>951.00000</ele>
        <time>2018-10-12T13:43:37Z</time>
      </trkpt>
      <trkpt lat="38.35946160" lon="-2.33381847">
        <ele>949.00000</ele>
        <time>2018-10-12T13:43:40Z</time>
      </trkpt>
      <trkpt lat="38.35927116" lon="-2.33379450">
        <ele>948.00000</ele>
        <time>2018-10-12T13:43:42Z</time>
      </trkpt>
      <trkpt lat="38.35917544" lon="-2.33380607">
        <ele>948.00000</ele>
        <time>2018-10-12T13:43:43Z</time>
      </trkpt>
      <trkpt lat="38.35901518" lon="-2.33387539">
        <ele>946.00000</ele>
        <time>2018-10-12T13:43:45Z</time>
      </trkpt>
      <trkpt lat="38.35894544" lon="-2.33391855">
        <ele>945.00000</ele>
        <time>2018-10-12T13:43:46Z</time>
      </trkpt>
      <trkpt lat="38.35887914" lon="-2.33396289">
        <ele>945.00000</ele>
        <time>2018-10-12T13:43:47Z</time>
      </trkpt>
      <trkpt lat="38.35847756" lon="-2.33447184">
        <ele>944.00000</ele>
        <time>2018-10-12T13:43:56Z</time>
      </trkpt>
      <trkpt lat="38.35841487" lon="-2.33458014">
        <ele>945.00000</ele>
        <time>2018-10-12T13:43:58Z</time>
      </trkpt>
      <trkpt lat="38.35826357" lon="-2.33491038">
        <ele>946.00000</ele>
        <time>2018-10-12T13:44:04Z</time>
      </trkpt>
      <trkpt lat="38.35821613" lon="-2.33502019">
        <ele>947.00000</ele>
        <time>2018-10-12T13:44:06Z</time>
      </trkpt>
      <trkpt lat="38.35819484" lon="-2.33507467">
        <ele>948.00000</ele>
        <time>2018-10-12T13:44:07Z</time>
      </trkpt>
      <trkpt lat="38.35809987" lon="-2.33528304">
        <ele>948.00000</ele>
        <time>2018-10-12T13:44:11Z</time>
      </trkpt>
      <trkpt lat="38.35802352" lon="-2.33542436">
        <ele>948.00000</ele>
        <time>2018-10-12T13:44:14Z</time>
      </trkpt>
      <trkpt lat="38.35799535" lon="-2.33546610">
        <ele>949.00000</ele>
        <time>2018-10-12T13:44:15Z</time>
      </trkpt>
      <trkpt lat="38.35789360" lon="-2.33562067">
        <ele>949.00000</ele>
        <time>2018-10-12T13:44:19Z</time>
      </trkpt>
      <trkpt lat="38.35784138" lon="-2.33569510">
        <ele>950.00000</ele>
        <time>2018-10-12T13:44:21Z</time>
      </trkpt>
      <trkpt lat="38.35776410" lon="-2.33580222">
        <ele>951.00000</ele>
        <time>2018-10-12T13:44:24Z</time>
      </trkpt>
      <trkpt lat="38.35766653" lon="-2.33595837">
        <ele>952.00000</ele>
        <time>2018-10-12T13:44:28Z</time>
      </trkpt>
      <trkpt lat="38.35764868" lon="-2.33599534">
        <ele>952.00000</ele>
        <time>2018-10-12T13:44:29Z</time>
      </trkpt>
      <trkpt lat="38.35759939" lon="-2.33613154">
        <ele>953.00000</ele>
        <time>2018-10-12T13:44:32Z</time>
      </trkpt>
      <trkpt lat="38.35758782" lon="-2.33618234">
        <ele>954.00000</ele>
        <time>2018-10-12T13:44:33Z</time>
      </trkpt>
      <trkpt lat="38.35756469" lon="-2.33633246">
        <ele>955.00000</ele>
        <time>2018-10-12T13:44:36Z</time>
      </trkpt>
      <trkpt lat="38.35755798" lon="-2.33652616">
        <ele>956.00000</ele>
        <time>2018-10-12T13:44:40Z</time>
      </trkpt>
      <trkpt lat="38.35755715" lon="-2.33665399">
        <ele>957.00000</ele>
        <time>2018-10-12T13:44:43Z</time>
      </trkpt>
      <trkpt lat="38.35756394" lon="-2.33681316">
        <ele>958.00000</ele>
        <time>2018-10-12T13:44:47Z</time>
      </trkpt>
      <trkpt lat="38.35754072" lon="-2.33697568">
        <ele>959.00000</ele>
        <time>2018-10-12T13:44:51Z</time>
      </trkpt>
      <trkpt lat="38.35745288" lon="-2.33711902">
        <ele>960.00000</ele>
        <time>2018-10-12T13:44:55Z</time>
      </trkpt>
      <trkpt lat="38.35719496" lon="-2.33727953">
        <ele>961.00000</ele>
        <time>2018-10-12T13:45:03Z</time>
      </trkpt>
      <trkpt lat="38.35702657" lon="-2.33736569">
        <ele>962.00000</ele>
        <time>2018-10-12T13:45:08Z</time>
      </trkpt>
      <trkpt lat="38.35690487" lon="-2.33751079">
        <ele>964.00000</ele>
        <time>2018-10-12T13:45:13Z</time>
      </trkpt>
      <trkpt lat="38.35679682" lon="-2.33774296">
        <ele>965.00000</ele>
        <time>2018-10-12T13:45:19Z</time>
      </trkpt>
      <trkpt lat="38.35653816" lon="-2.33842668">
        <ele>966.00000</ele>
        <time>2018-10-12T13:45:32Z</time>
      </trkpt>
      <trkpt lat="38.35633758" lon="-2.33877385">
        <ele>965.00000</ele>
        <time>2018-10-12T13:45:37Z</time>
      </trkpt>
      <trkpt lat="38.35628159" lon="-2.33883094">
        <ele>965.00000</ele>
        <time>2018-10-12T13:45:38Z</time>
      </trkpt>
      <trkpt lat="38.35614815" lon="-2.33889522">
        <ele>964.00000</ele>
        <time>2018-10-12T13:45:40Z</time>
      </trkpt>
      <trkpt lat="38.35600750" lon="-2.33891190">
        <ele>962.00000</ele>
        <time>2018-10-12T13:45:42Z</time>
      </trkpt>
      <trkpt lat="38.35594187" lon="-2.33891333">
        <ele>962.00000</ele>
        <time>2018-10-12T13:45:43Z</time>
      </trkpt>
      <trkpt lat="38.35581312" lon="-2.33891836">
        <ele>961.00000</ele>
        <time>2018-10-12T13:45:45Z</time>
      </trkpt>
      <trkpt lat="38.35568932" lon="-2.33894602">
        <ele>961.00000</ele>
        <time>2018-10-12T13:45:47Z</time>
      </trkpt>
      <trkpt lat="38.35557424" lon="-2.33900335">
        <ele>961.00000</ele>
        <time>2018-10-12T13:45:49Z</time>
      </trkpt>
      <trkpt lat="38.35552227" lon="-2.33903939">
        <ele>960.00000</ele>
        <time>2018-10-12T13:45:50Z</time>
      </trkpt>
      <trkpt lat="38.35542898" lon="-2.33912472">
        <ele>960.00000</ele>
        <time>2018-10-12T13:45:52Z</time>
      </trkpt>
      <trkpt lat="38.35500955" lon="-2.33958036">
        <ele>961.00000</ele>
        <time>2018-10-12T13:46:04Z</time>
      </trkpt>
      <trkpt lat="38.35491291" lon="-2.33967307">
        <ele>962.00000</ele>
        <time>2018-10-12T13:46:07Z</time>
      </trkpt>
      <trkpt lat="38.35485205" lon="-2.33973417">
        <ele>963.00000</ele>
        <time>2018-10-12T13:46:09Z</time>
      </trkpt>
      <trkpt lat="38.35468559" lon="-2.33991639">
        <ele>965.00000</ele>
        <time>2018-10-12T13:46:15Z</time>
      </trkpt>
      <trkpt lat="38.35458811" lon="-2.34005453">
        <ele>965.00000</ele>
        <time>2018-10-12T13:46:19Z</time>
      </trkpt>
      <trkpt lat="38.35454544" lon="-2.34013348">
        <ele>966.00000</ele>
        <time>2018-10-12T13:46:21Z</time>
      </trkpt>
      <trkpt lat="38.35446414" lon="-2.34028846">
        <ele>967.00000</ele>
        <time>2018-10-12T13:46:25Z</time>
      </trkpt>
      <trkpt lat="38.35438275" lon="-2.34048167">
        <ele>968.00000</ele>
        <time>2018-10-12T13:46:30Z</time>
      </trkpt>
      <trkpt lat="38.35431897" lon="-2.34063405">
        <ele>970.00000</ele>
        <time>2018-10-12T13:46:34Z</time>
      </trkpt>
      <trkpt lat="38.35425233" lon="-2.34078249">
        <ele>971.00000</ele>
        <time>2018-10-12T13:46:38Z</time>
      </trkpt>
      <trkpt lat="38.35414655" lon="-2.34095374">
        <ele>972.00000</ele>
        <time>2018-10-12T13:46:43Z</time>
      </trkpt>
      <trkpt lat="38.35395050" lon="-2.34100922">
        <ele>973.00000</ele>
        <time>2018-10-12T13:46:49Z</time>
      </trkpt>
      <trkpt lat="38.35368471" lon="-2.34086975">
        <ele>974.00000</ele>
        <time>2018-10-12T13:46:57Z</time>
      </trkpt>
      <trkpt lat="38.35354205" lon="-2.34073069">
        <ele>975.00000</ele>
        <time>2018-10-12T13:47:02Z</time>
      </trkpt>
      <trkpt lat="38.35335748" lon="-2.34057580">
        <ele>976.00000</ele>
        <time>2018-10-12T13:47:08Z</time>
      </trkpt>
      <trkpt lat="38.35314625" lon="-2.34047530">
        <ele>978.00000</ele>
        <time>2018-10-12T13:47:14Z</time>
      </trkpt>
      <trkpt lat="38.35300267" lon="-2.34041528">
        <ele>979.00000</ele>
        <time>2018-10-12T13:47:18Z</time>
      </trkpt>
      <trkpt lat="38.35283059" lon="-2.34031998">
        <ele>980.00000</ele>
        <time>2018-10-12T13:47:23Z</time>
      </trkpt>
      <trkpt lat="38.35262079" lon="-2.34019802">
        <ele>981.00000</ele>
        <time>2018-10-12T13:47:29Z</time>
      </trkpt>
      <trkpt lat="38.35239683" lon="-2.34012887">
        <ele>982.00000</ele>
        <time>2018-10-12T13:47:35Z</time>
      </trkpt>
      <trkpt lat="38.35220966" lon="-2.34017011">
        <ele>983.00000</ele>
        <time>2018-10-12T13:47:40Z</time>
      </trkpt>
      <trkpt lat="38.35202794" lon="-2.34034932">
        <ele>984.00000</ele>
        <time>2018-10-12T13:47:47Z</time>
      </trkpt>
      <trkpt lat="38.35192878" lon="-2.34048267">
        <ele>985.00000</ele>
        <time>2018-10-12T13:47:52Z</time>
      </trkpt>
      <trkpt lat="38.35183499" lon="-2.34061787">
        <ele>986.00000</ele>
        <time>2018-10-12T13:47:57Z</time>
      </trkpt>
      <trkpt lat="38.35173642" lon="-2.34075467">
        <ele>987.00000</ele>
        <time>2018-10-12T13:48:02Z</time>
      </trkpt>
      <trkpt lat="38.35164715" lon="-2.34089598">
        <ele>988.00000</ele>
        <time>2018-10-12T13:48:07Z</time>
      </trkpt>
      <trkpt lat="38.35156040" lon="-2.34105046">
        <ele>989.00000</ele>
        <time>2018-10-12T13:48:12Z</time>
      </trkpt>
      <trkpt lat="38.35145194" lon="-2.34123855">
        <ele>991.00000</ele>
        <time>2018-10-12T13:48:18Z</time>
      </trkpt>
      <trkpt lat="38.35135420" lon="-2.34141080">
        <ele>992.00000</ele>
        <time>2018-10-12T13:48:23Z</time>
      </trkpt>
      <trkpt lat="38.35122931" lon="-2.34160266">
        <ele>993.00000</ele>
        <time>2018-10-12T13:48:28Z</time>
      </trkpt>
      <trkpt lat="38.35086663" lon="-2.34166201">
        <ele>993.00000</ele>
        <time>2018-10-12T13:48:37Z</time>
      </trkpt>
      <trkpt lat="38.35062313" lon="-2.34149328">
        <ele>994.00000</ele>
        <time>2018-10-12T13:48:45Z</time>
      </trkpt>
      <trkpt lat="38.35050168" lon="-2.34142430">
        <ele>995.00000</ele>
        <time>2018-10-12T13:48:49Z</time>
      </trkpt>
      <trkpt lat="38.35033932" lon="-2.34139085">
        <ele>997.00000</ele>
        <time>2018-10-12T13:48:54Z</time>
      </trkpt>
      <trkpt lat="38.35020882" lon="-2.34139580">
        <ele>998.00000</ele>
        <time>2018-10-12T13:48:58Z</time>
      </trkpt>
      <trkpt lat="38.35003891" lon="-2.34143570">
        <ele>999.00000</ele>
        <time>2018-10-12T13:49:03Z</time>
      </trkpt>
      <trkpt lat="38.34990522" lon="-2.34149311">
        <ele>1000.0000</ele>
        <time>2018-10-12T13:49:07Z</time>
      </trkpt>
      <trkpt lat="38.34974840" lon="-2.34159705">
        <ele>1001.0000</ele>
        <time>2018-10-12T13:49:12Z</time>
      </trkpt>
      <trkpt lat="38.34961806" lon="-2.34174004">
        <ele>1002.0000</ele>
        <time>2018-10-12T13:49:17Z</time>
      </trkpt>
      <trkpt lat="38.34954799" lon="-2.34183476">
        <ele>1003.0000</ele>
        <time>2018-10-12T13:49:20Z</time>
      </trkpt>
      <trkpt lat="38.34943726" lon="-2.34199108">
        <ele>1004.0000</ele>
        <time>2018-10-12T13:49:25Z</time>
      </trkpt>
      <trkpt lat="38.34930667" lon="-2.34213056">
        <ele>1005.0000</ele>
        <time>2018-10-12T13:49:30Z</time>
      </trkpt>
      <trkpt lat="38.34917323" lon="-2.34227648">
        <ele>1006.0000</ele>
        <time>2018-10-12T13:49:35Z</time>
      </trkpt>
      <trkpt lat="38.34904306" lon="-2.34248050">
        <ele>1007.0000</ele>
        <time>2018-10-12T13:49:41Z</time>
      </trkpt>
      <trkpt lat="38.34896025" lon="-2.34269801">
        <ele>1008.0000</ele>
        <time>2018-10-12T13:49:47Z</time>
      </trkpt>
      <trkpt lat="38.34891784" lon="-2.34284159">
        <ele>1009.0000</ele>
        <time>2018-10-12T13:49:51Z</time>
      </trkpt>
      <trkpt lat="38.34889319" lon="-2.34291007">
        <ele>1010.0000</ele>
        <time>2018-10-12T13:49:53Z</time>
      </trkpt>
      <trkpt lat="38.34883259" lon="-2.34307989">
        <ele>1012.0000</ele>
        <time>2018-10-12T13:49:58Z</time>
      </trkpt>
      <trkpt lat="38.34877702" lon="-2.34325046">
        <ele>1012.0000</ele>
        <time>2018-10-12T13:50:03Z</time>
      </trkpt>
      <trkpt lat="38.34870628" lon="-2.34341123">
        <ele>1014.0000</ele>
        <time>2018-10-12T13:50:08Z</time>
      </trkpt>
      <trkpt lat="38.34863411" lon="-2.34356855">
        <ele>1015.0000</ele>
        <time>2018-10-12T13:50:13Z</time>
      </trkpt>
      <trkpt lat="38.34853881" lon="-2.34371742">
        <ele>1016.0000</ele>
        <time>2018-10-12T13:50:18Z</time>
      </trkpt>
      <trkpt lat="38.34839472" lon="-2.34395739">
        <ele>1017.0000</ele>
        <time>2018-10-12T13:50:26Z</time>
      </trkpt>
      <trkpt lat="38.34830830" lon="-2.34411137">
        <ele>1018.0000</ele>
        <time>2018-10-12T13:50:31Z</time>
      </trkpt>
      <trkpt lat="38.34822884" lon="-2.34427959">
        <ele>1020.0000</ele>
        <time>2018-10-12T13:50:36Z</time>
      </trkpt>
      <trkpt lat="38.34816304" lon="-2.34445855">
        <ele>1021.0000</ele>
        <time>2018-10-12T13:50:41Z</time>
      </trkpt>
      <trkpt lat="38.34811091" lon="-2.34460338">
        <ele>1022.0000</ele>
        <time>2018-10-12T13:50:45Z</time>
      </trkpt>
      <trkpt lat="38.34805810" lon="-2.34474940">
        <ele>1023.0000</ele>
        <time>2018-10-12T13:50:49Z</time>
      </trkpt>
      <trkpt lat="38.34801116" lon="-2.34489566">
        <ele>1024.0000</ele>
        <time>2018-10-12T13:50:53Z</time>
      </trkpt>
      <trkpt lat="38.34796708" lon="-2.34512440">
        <ele>1025.0000</ele>
        <time>2018-10-12T13:50:59Z</time>
      </trkpt>
      <trkpt lat="38.34794034" lon="-2.34531559">
        <ele>1026.0000</ele>
        <time>2018-10-12T13:51:04Z</time>
      </trkpt>
      <trkpt lat="38.34789239" lon="-2.34554006">
        <ele>1027.0000</ele>
        <time>2018-10-12T13:51:10Z</time>
      </trkpt>
      <trkpt lat="38.34784244" lon="-2.34572656">
        <ele>1028.0000</ele>
        <time>2018-10-12T13:51:15Z</time>
      </trkpt>
      <trkpt lat="38.34779156" lon="-2.34594834">
        <ele>1029.0000</ele>
        <time>2018-10-12T13:51:21Z</time>
      </trkpt>
      <trkpt lat="38.34783104" lon="-2.34613685">
        <ele>1030.0000</ele>
        <time>2018-10-12T13:51:26Z</time>
      </trkpt>
      <trkpt lat="38.34795450" lon="-2.34626845">
        <ele>1032.0000</ele>
        <time>2018-10-12T13:51:31Z</time>
      </trkpt>
      <trkpt lat="38.34806883" lon="-2.34634942">
        <ele>1033.0000</ele>
        <time>2018-10-12T13:51:35Z</time>
      </trkpt>
      <trkpt lat="38.34818031" lon="-2.34644841">
        <ele>1034.0000</ele>
        <time>2018-10-12T13:51:39Z</time>
      </trkpt>
      <trkpt lat="38.34825851" lon="-2.34658872">
        <ele>1035.0000</ele>
        <time>2018-10-12T13:51:43Z</time>
      </trkpt>
      <trkpt lat="38.34832959" lon="-2.34678586">
        <ele>1036.0000</ele>
        <time>2018-10-12T13:51:48Z</time>
      </trkpt>
      <trkpt lat="38.34841718" lon="-2.34702165">
        <ele>1037.0000</ele>
        <time>2018-10-12T13:51:53Z</time>
      </trkpt>
      <trkpt lat="38.34850184" lon="-2.34716791">
        <ele>1038.0000</ele>
        <time>2018-10-12T13:51:57Z</time>
      </trkpt>
      <trkpt lat="38.34863059" lon="-2.34737930">
        <ele>1039.0000</ele>
        <time>2018-10-12T13:52:03Z</time>
      </trkpt>
      <trkpt lat="38.34874676" lon="-2.34757661">
        <ele>1040.0000</ele>
        <time>2018-10-12T13:52:08Z</time>
      </trkpt>
      <trkpt lat="38.34891431" lon="-2.34786721">
        <ele>1041.0000</ele>
        <time>2018-10-12T13:52:15Z</time>
      </trkpt>
      <trkpt lat="38.34920416" lon="-2.34838337">
        <ele>1042.0000</ele>
        <time>2018-10-12T13:52:28Z</time>
      </trkpt>
      <trkpt lat="38.34933031" lon="-2.34861480">
        <ele>1043.0000</ele>
        <time>2018-10-12T13:52:34Z</time>
      </trkpt>
      <trkpt lat="38.34935244" lon="-2.34865193">
        <ele>1043.0000</ele>
        <time>2018-10-12T13:52:35Z</time>
      </trkpt>
      <trkpt lat="38.34952770" lon="-2.34895024">
        <ele>1045.0000</ele>
        <time>2018-10-12T13:52:43Z</time>
      </trkpt>
      <trkpt lat="38.34967120" lon="-2.34916741">
        <ele>1046.0000</ele>
        <time>2018-10-12T13:52:49Z</time>
      </trkpt>
      <trkpt lat="38.34989382" lon="-2.34950546">
        <ele>1047.0000</ele>
        <time>2018-10-12T13:52:58Z</time>
      </trkpt>
      <trkpt lat="38.34998938" lon="-2.34976345">
        <ele>1048.0000</ele>
        <time>2018-10-12T13:53:04Z</time>
      </trkpt>
      <trkpt lat="38.35004545" lon="-2.35022043">
        <ele>1049.0000</ele>
        <time>2018-10-12T13:53:13Z</time>
      </trkpt>
      <trkpt lat="38.35010396" lon="-2.35073257">
        <ele>1050.0000</ele>
        <time>2018-10-12T13:53:23Z</time>
      </trkpt>
      <trkpt lat="38.35017001" lon="-2.35092518">
        <ele>1050.0000</ele>
        <time>2018-10-12T13:53:27Z</time>
      </trkpt>
      <trkpt lat="38.35021368" lon="-2.35101085">
        <ele>1051.0000</ele>
        <time>2018-10-12T13:53:29Z</time>
      </trkpt>
      <trkpt lat="38.35039355" lon="-2.35135769">
        <ele>1052.0000</ele>
        <time>2018-10-12T13:53:37Z</time>
      </trkpt>
      <trkpt lat="38.35041501" lon="-2.35140237">
        <ele>1052.0000</ele>
        <time>2018-10-12T13:53:38Z</time>
      </trkpt>
      <trkpt lat="38.35058357" lon="-2.35171057">
        <ele>1053.0000</ele>
        <time>2018-10-12T13:53:46Z</time>
      </trkpt>
      <trkpt lat="38.35073520" lon="-2.35188751">
        <ele>1054.0000</ele>
        <time>2018-10-12T13:53:52Z</time>
      </trkpt>
      <trkpt lat="38.35078977" lon="-2.35206864">
        <ele>1055.0000</ele>
        <time>2018-10-12T13:53:56Z</time>
      </trkpt>
      <trkpt lat="38.35080519" lon="-2.35226629">
        <ele>1056.0000</ele>
        <time>2018-10-12T13:54:00Z</time>
      </trkpt>
      <trkpt lat="38.35084735" lon="-2.35245253">
        <ele>1057.0000</ele>
        <time>2018-10-12T13:54:04Z</time>
      </trkpt>
      <trkpt lat="38.35104474" lon="-2.35280851">
        <ele>1058.0000</ele>
        <time>2018-10-12T13:54:12Z</time>
      </trkpt>
      <trkpt lat="38.35146292" lon="-2.35330514">
        <ele>1057.0000</ele>
        <time>2018-10-12T13:54:22Z</time>
      </trkpt>
      <trkpt lat="38.35173876" lon="-2.35334915">
        <ele>1057.0000</ele>
        <time>2018-10-12T13:54:27Z</time>
      </trkpt>
      <trkpt lat="38.35178914" lon="-2.35333213">
        <ele>1057.0000</ele>
        <time>2018-10-12T13:54:28Z</time>
      </trkpt>
      <trkpt lat="38.35215794" lon="-2.35318168">
        <ele>1057.0000</ele>
        <time>2018-10-12T13:54:36Z</time>
      </trkpt>
      <trkpt lat="38.35238995" lon="-2.35315200">
        <ele>1058.0000</ele>
        <time>2018-10-12T13:54:41Z</time>
      </trkpt>
      <trkpt lat="38.35259883" lon="-2.35326038">
        <ele>1059.0000</ele>
        <time>2018-10-12T13:54:46Z</time>
      </trkpt>
      <trkpt lat="38.35266094" lon="-2.35332811">
        <ele>1059.0000</ele>
        <time>2018-10-12T13:54:48Z</time>
      </trkpt>
      <trkpt lat="38.35268902" lon="-2.35336717">
        <ele>1059.0000</ele>
        <time>2018-10-12T13:54:49Z</time>
      </trkpt>
      <trkpt lat="38.35271760" lon="-2.35340497">
        <ele>1059.0000</ele>
        <time>2018-10-12T13:54:50Z</time>
      </trkpt>
      <trkpt lat="38.35292078" lon="-2.35361862">
        <ele>1060.0000</ele>
        <time>2018-10-12T13:54:56Z</time>
      </trkpt>
      <trkpt lat="38.35306663" lon="-2.35378677">
        <ele>1061.0000</ele>
        <time>2018-10-12T13:55:00Z</time>
      </trkpt>
      <trkpt lat="38.35338204" lon="-2.35427820">
        <ele>1061.0000</ele>
        <time>2018-10-12T13:55:09Z</time>
      </trkpt>
      <trkpt lat="38.35357968" lon="-2.35435724">
        <ele>1060.0000</ele>
        <time>2018-10-12T13:55:13Z</time>
      </trkpt>
      <trkpt lat="38.35414672" lon="-2.35433435">
        <ele>1061.0000</ele>
        <time>2018-10-12T13:55:25Z</time>
      </trkpt>
      <trkpt lat="38.35419181" lon="-2.35432731">
        <ele>1061.0000</ele>
        <time>2018-10-12T13:55:26Z</time>
      </trkpt>
      <trkpt lat="38.35446758" lon="-2.35426479">
        <ele>1062.0000</ele>
        <time>2018-10-12T13:55:32Z</time>
      </trkpt>
      <trkpt lat="38.35480277" lon="-2.35419111">
        <ele>1063.0000</ele>
        <time>2018-10-12T13:55:39Z</time>
      </trkpt>
      <trkpt lat="38.35485281" lon="-2.35419086">
        <ele>1063.0000</ele>
        <time>2018-10-12T13:55:40Z</time>
      </trkpt>
      <trkpt lat="38.35490310" lon="-2.35419664">
        <ele>1063.0000</ele>
        <time>2018-10-12T13:55:41Z</time>
      </trkpt>
      <trkpt lat="38.35519529" lon="-2.35476896">
        <ele>1064.0000</ele>
        <time>2018-10-12T13:55:52Z</time>
      </trkpt>
      <trkpt lat="38.35516512" lon="-2.35549500">
        <ele>1064.0000</ele>
        <time>2018-10-12T13:56:02Z</time>
      </trkpt>
      <trkpt lat="38.35543795" lon="-2.35608483">
        <ele>1064.0000</ele>
        <time>2018-10-12T13:56:10Z</time>
      </trkpt>
      <trkpt lat="38.35554532" lon="-2.35630779">
        <ele>1063.0000</ele>
        <time>2018-10-12T13:56:13Z</time>
      </trkpt>
      <trkpt lat="38.35555957" lon="-2.35686670">
        <ele>1063.0000</ele>
        <time>2018-10-12T13:56:20Z</time>
      </trkpt>
      <trkpt lat="38.35549193" lon="-2.35718118">
        <ele>1063.0000</ele>
        <time>2018-10-12T13:56:24Z</time>
      </trkpt>
      <trkpt lat="38.35555211" lon="-2.35757740">
        <ele>1063.0000</ele>
        <time>2018-10-12T13:56:29Z</time>
      </trkpt>
      <trkpt lat="38.35568128" lon="-2.35796112">
        <ele>1064.0000</ele>
        <time>2018-10-12T13:56:34Z</time>
      </trkpt>
      <trkpt lat="38.35584623" lon="-2.35843847">
        <ele>1065.0000</ele>
        <time>2018-10-12T13:56:40Z</time>
      </trkpt>
      <trkpt lat="38.35584355" lon="-2.35885539">
        <ele>1065.0000</ele>
        <time>2018-10-12T13:56:45Z</time>
      </trkpt>
      <trkpt lat="38.35578739" lon="-2.35922436">
        <ele>1065.0000</ele>
        <time>2018-10-12T13:56:50Z</time>
      </trkpt>
      <trkpt lat="38.35578228" lon="-2.35969877">
        <ele>1066.0000</ele>
        <time>2018-10-12T13:56:57Z</time>
      </trkpt>
      <trkpt lat="38.35580231" lon="-2.35983389">
        <ele>1067.0000</ele>
        <time>2018-10-12T13:56:59Z</time>
      </trkpt>
      <trkpt lat="38.35584917" lon="-2.36010060">
        <ele>1068.0000</ele>
        <time>2018-10-12T13:57:03Z</time>
      </trkpt>
      <trkpt lat="38.35594346" lon="-2.36061659">
        <ele>1069.0000</ele>
        <time>2018-10-12T13:57:11Z</time>
      </trkpt>
      <trkpt lat="38.35601571" lon="-2.36107366">
        <ele>1070.0000</ele>
        <time>2018-10-12T13:57:18Z</time>
      </trkpt>
      <trkpt lat="38.35601580" lon="-2.36158990">
        <ele>1071.0000</ele>
        <time>2018-10-12T13:57:26Z</time>
      </trkpt>
      <trkpt lat="38.35596425" lon="-2.36196574">
        <ele>1072.0000</ele>
        <time>2018-10-12T13:57:32Z</time>
      </trkpt>
      <trkpt lat="38.35591337" lon="-2.36240110">
        <ele>1073.0000</ele>
        <time>2018-10-12T13:57:39Z</time>
      </trkpt>
      <trkpt lat="38.35591698" lon="-2.36246396">
        <ele>1073.0000</ele>
        <time>2018-10-12T13:57:40Z</time>
      </trkpt>
      <trkpt lat="38.35592485" lon="-2.36252574">
        <ele>1073.0000</ele>
        <time>2018-10-12T13:57:41Z</time>
      </trkpt>
      <trkpt lat="38.35604698" lon="-2.36283327">
        <ele>1074.0000</ele>
        <time>2018-10-12T13:57:47Z</time>
      </trkpt>
      <trkpt lat="38.35610121" lon="-2.36292731">
        <ele>1075.0000</ele>
        <time>2018-10-12T13:57:49Z</time>
      </trkpt>
      <trkpt lat="38.35631780" lon="-2.36326469">
        <ele>1075.0000</ele>
        <time>2018-10-12T13:57:56Z</time>
      </trkpt>
      <trkpt lat="38.35668174" lon="-2.36385284">
        <ele>1074.0000</ele>
        <time>2018-10-12T13:58:07Z</time>
      </trkpt>
      <trkpt lat="38.35686019" lon="-2.36414495">
        <ele>1075.0000</ele>
        <time>2018-10-12T13:58:13Z</time>
      </trkpt>
      <trkpt lat="38.35691166" lon="-2.36424252">
        <ele>1076.0000</ele>
        <time>2018-10-12T13:58:15Z</time>
      </trkpt>
      <trkpt lat="38.35698969" lon="-2.36438694">
        <ele>1076.0000</ele>
        <time>2018-10-12T13:58:18Z</time>
      </trkpt>
      <trkpt lat="38.35703847" lon="-2.36448065">
        <ele>1077.0000</ele>
        <time>2018-10-12T13:58:20Z</time>
      </trkpt>
      <trkpt lat="38.35710905" lon="-2.36461568">
        <ele>1078.0000</ele>
        <time>2018-10-12T13:58:23Z</time>
      </trkpt>
      <trkpt lat="38.35715406" lon="-2.36470470">
        <ele>1079.0000</ele>
        <time>2018-10-12T13:58:25Z</time>
      </trkpt>
      <trkpt lat="38.35720955" lon="-2.36484568">
        <ele>1081.0000</ele>
        <time>2018-10-12T13:58:28Z</time>
      </trkpt>
      <trkpt lat="38.35723268" lon="-2.36494794">
        <ele>1081.0000</ele>
        <time>2018-10-12T13:58:30Z</time>
      </trkpt>
      <trkpt lat="38.35721533" lon="-2.36510686">
        <ele>1082.0000</ele>
        <time>2018-10-12T13:58:33Z</time>
      </trkpt>
      <trkpt lat="38.35710377" lon="-2.36531968">
        <ele>1083.0000</ele>
        <time>2018-10-12T13:58:38Z</time>
      </trkpt>
      <trkpt lat="38.35700101" lon="-2.36540417">
        <ele>1084.0000</ele>
        <time>2018-10-12T13:58:41Z</time>
      </trkpt>
      <trkpt lat="38.35696614" lon="-2.36542982">
        <ele>1084.0000</ele>
        <time>2018-10-12T13:58:42Z</time>
      </trkpt>
      <trkpt lat="38.35682775" lon="-2.36552621">
        <ele>1085.0000</ele>
        <time>2018-10-12T13:58:46Z</time>
      </trkpt>
      <trkpt lat="38.35655677" lon="-2.36571497">
        <ele>1086.0000</ele>
        <time>2018-10-12T13:58:54Z</time>
      </trkpt>
      <trkpt lat="38.35613599" lon="-2.36600473">
        <ele>1086.0000</ele>
        <time>2018-10-12T13:59:03Z</time>
      </trkpt>
      <trkpt lat="38.35576711" lon="-2.36622601">
        <ele>1086.0000</ele>
        <time>2018-10-12T13:59:10Z</time>
      </trkpt>
      <trkpt lat="38.35571371" lon="-2.36625711">
        <ele>1085.0000</ele>
        <time>2018-10-12T13:59:11Z</time>
      </trkpt>
      <trkpt lat="38.35547500" lon="-2.36649599">
        <ele>1085.0000</ele>
        <time>2018-10-12T13:59:16Z</time>
      </trkpt>
      <trkpt lat="38.35520326" lon="-2.36682540">
        <ele>1085.0000</ele>
        <time>2018-10-12T13:59:22Z</time>
      </trkpt>
      <trkpt lat="38.35515766" lon="-2.36688106">
        <ele>1085.0000</ele>
        <time>2018-10-12T13:59:23Z</time>
      </trkpt>
      <trkpt lat="38.35492825" lon="-2.36717166">
        <ele>1085.0000</ele>
        <time>2018-10-12T13:59:28Z</time>
      </trkpt>
      <trkpt lat="38.35484476" lon="-2.36729781">
        <ele>1085.0000</ele>
        <time>2018-10-12T13:59:30Z</time>
      </trkpt>
      <trkpt lat="38.35478357" lon="-2.36771564">
        <ele>1084.0000</ele>
        <time>2018-10-12T13:59:35Z</time>
      </trkpt>
      <trkpt lat="38.35479581" lon="-2.36790600">
        <ele>1084.0000</ele>
        <time>2018-10-12T13:59:37Z</time>
      </trkpt>
      <trkpt lat="38.35482448" lon="-2.36839952">
        <ele>1083.0000</ele>
        <time>2018-10-12T13:59:42Z</time>
      </trkpt>
      <trkpt lat="38.35476480" lon="-2.36914535">
        <ele>1082.0000</ele>
        <time>2018-10-12T13:59:50Z</time>
      </trkpt>
      <trkpt lat="38.35457176" lon="-2.36983333">
        <ele>1082.0000</ele>
        <time>2018-10-12T13:59:58Z</time>
      </trkpt>
      <trkpt lat="38.35437085" lon="-2.37054680">
        <ele>1083.0000</ele>
        <time>2018-10-12T14:00:07Z</time>
      </trkpt>
      <trkpt lat="38.35427999" lon="-2.37086422">
        <ele>1084.0000</ele>
        <time>2018-10-12T14:00:11Z</time>
      </trkpt>
      <trkpt lat="38.35409265" lon="-2.37159680">
        <ele>1084.0000</ele>
        <time>2018-10-12T14:00:20Z</time>
      </trkpt>
      <trkpt lat="38.35400247" lon="-2.37191422">
        <ele>1084.0000</ele>
        <time>2018-10-12T14:00:24Z</time>
      </trkpt>
      <trkpt lat="38.35375285" lon="-2.37218789">
        <ele>1084.0000</ele>
        <time>2018-10-12T14:00:29Z</time>
      </trkpt>
      <trkpt lat="38.35344658" lon="-2.37211832">
        <ele>1084.0000</ele>
        <time>2018-10-12T14:00:34Z</time>
      </trkpt>
      <trkpt lat="38.35339201" lon="-2.37207457">
        <ele>1084.0000</ele>
        <time>2018-10-12T14:00:35Z</time>
      </trkpt>
      <trkpt lat="38.35333334" lon="-2.37204037">
        <ele>1084.0000</ele>
        <time>2018-10-12T14:00:36Z</time>
      </trkpt>
      <trkpt lat="38.35305933" lon="-2.37200927">
        <ele>1083.0000</ele>
        <time>2018-10-12T14:00:40Z</time>
      </trkpt>
      <trkpt lat="38.35298691" lon="-2.37202126">
        <ele>1083.0000</ele>
        <time>2018-10-12T14:00:41Z</time>
      </trkpt>
      <trkpt lat="38.35272624" lon="-2.37217591">
        <ele>1083.0000</ele>
        <time>2018-10-12T14:00:45Z</time>
      </trkpt>
      <trkpt lat="38.35224755" lon="-2.37254261">
        <ele>1083.0000</ele>
        <time>2018-10-12T14:00:53Z</time>
      </trkpt>
      <trkpt lat="38.35175947" lon="-2.37252443">
        <ele>1083.0000</ele>
        <time>2018-10-12T14:01:00Z</time>
      </trkpt>
      <trkpt lat="38.35142252" lon="-2.37242091">
        <ele>1083.0000</ele>
        <time>2018-10-12T14:01:05Z</time>
      </trkpt>
      <trkpt lat="38.35115371" lon="-2.37256709">
        <ele>1082.0000</ele>
        <time>2018-10-12T14:01:10Z</time>
      </trkpt>
      <trkpt lat="38.35104273" lon="-2.37273456">
        <ele>1082.0000</ele>
        <time>2018-10-12T14:01:13Z</time>
      </trkpt>
      <trkpt lat="38.35087249" lon="-2.37311468">
        <ele>1084.0000</ele>
        <time>2018-10-12T14:01:19Z</time>
      </trkpt>
      <trkpt lat="38.35081441" lon="-2.37332414">
        <ele>1086.0000</ele>
        <time>2018-10-12T14:01:22Z</time>
      </trkpt>
      <trkpt lat="38.35079580" lon="-2.37347259">
        <ele>1086.0000</ele>
        <time>2018-10-12T14:01:24Z</time>
      </trkpt>
      <trkpt lat="38.35082975" lon="-2.37422419">
        <ele>1086.0000</ele>
        <time>2018-10-12T14:01:33Z</time>
      </trkpt>
      <trkpt lat="38.35100485" lon="-2.37491939">
        <ele>1086.0000</ele>
        <time>2018-10-12T14:01:41Z</time>
      </trkpt>
      <trkpt lat="38.35105723" lon="-2.37508661">
        <ele>1086.0000</ele>
        <time>2018-10-12T14:01:43Z</time>
      </trkpt>
      <trkpt lat="38.35107224" lon="-2.37517202">
        <ele>1086.0000</ele>
        <time>2018-10-12T14:01:44Z</time>
      </trkpt>
      <trkpt lat="38.35110300" lon="-2.37589303">
        <ele>1086.0000</ele>
        <time>2018-10-12T14:01:52Z</time>
      </trkpt>
      <trkpt lat="38.35112781" lon="-2.37663860">
        <ele>1087.0000</ele>
        <time>2018-10-12T14:02:00Z</time>
      </trkpt>
      <trkpt lat="38.35121951" lon="-2.37733773">
        <ele>1087.0000</ele>
        <time>2018-10-12T14:02:07Z</time>
      </trkpt>
      <trkpt lat="38.35126326" lon="-2.37752691">
        <ele>1087.0000</ele>
        <time>2018-10-12T14:02:09Z</time>
      </trkpt>
      <trkpt lat="38.35151983" lon="-2.37787753">
        <ele>1086.0000</ele>
        <time>2018-10-12T14:02:14Z</time>
      </trkpt>
      <trkpt lat="38.35182921" lon="-2.37814256">
        <ele>1086.0000</ele>
        <time>2018-10-12T14:02:19Z</time>
      </trkpt>
      <trkpt lat="38.35174505" lon="-2.37883441">
        <ele>1086.0000</ele>
        <time>2018-10-12T14:02:27Z</time>
      </trkpt>
      <trkpt lat="38.35140475" lon="-2.37945115">
        <ele>1086.0000</ele>
        <time>2018-10-12T14:02:36Z</time>
      </trkpt>
      <trkpt lat="38.35120718" lon="-2.37973487">
        <ele>1087.0000</ele>
        <time>2018-10-12T14:02:41Z</time>
      </trkpt>
      <trkpt lat="38.35116318" lon="-2.37978114">
        <ele>1087.0000</ele>
        <time>2018-10-12T14:02:42Z</time>
      </trkpt>
      <trkpt lat="38.35083243" lon="-2.38008440">
        <ele>1088.0000</ele>
        <time>2018-10-12T14:02:49Z</time>
      </trkpt>
      <trkpt lat="38.35034578" lon="-2.38051699">
        <ele>1089.0000</ele>
        <time>2018-10-12T14:02:59Z</time>
      </trkpt>
      <trkpt lat="38.34996566" lon="-2.38090977">
        <ele>1089.0000</ele>
        <time>2018-10-12T14:03:07Z</time>
      </trkpt>
      <trkpt lat="38.34983456" lon="-2.38120615">
        <ele>1089.0000</ele>
        <time>2018-10-12T14:03:11Z</time>
      </trkpt>
      <trkpt lat="38.34967573" lon="-2.38158233">
        <ele>1088.0000</ele>
        <time>2018-10-12T14:03:16Z</time>
      </trkpt>
      <trkpt lat="38.34949401" lon="-2.38180101">
        <ele>1088.0000</ele>
        <time>2018-10-12T14:03:20Z</time>
      </trkpt>
      <trkpt lat="38.34900375" lon="-2.38222975">
        <ele>1088.0000</ele>
        <time>2018-10-12T14:03:29Z</time>
      </trkpt>
      <trkpt lat="38.34862682" lon="-2.38247827">
        <ele>1088.0000</ele>
        <time>2018-10-12T14:03:35Z</time>
      </trkpt>
      <trkpt lat="38.34825977" lon="-2.38249948">
        <ele>1087.0000</ele>
        <time>2018-10-12T14:03:40Z</time>
      </trkpt>
      <trkpt lat="38.34811007" lon="-2.38250233">
        <ele>1087.0000</ele>
        <time>2018-10-12T14:03:42Z</time>
      </trkpt>
      <trkpt lat="38.34803598" lon="-2.38251423">
        <ele>1087.0000</ele>
        <time>2018-10-12T14:03:43Z</time>
      </trkpt>
      <trkpt lat="38.34775870" lon="-2.38265069">
        <ele>1087.0000</ele>
        <time>2018-10-12T14:03:47Z</time>
      </trkpt>
      <trkpt lat="38.34743608" lon="-2.38288630">
        <ele>1087.0000</ele>
        <time>2018-10-12T14:03:52Z</time>
      </trkpt>
      <trkpt lat="38.34693602" lon="-2.38325393">
        <ele>1086.0000</ele>
        <time>2018-10-12T14:04:00Z</time>
      </trkpt>
      <trkpt lat="38.34660988" lon="-2.38348762">
        <ele>1086.0000</ele>
        <time>2018-10-12T14:04:05Z</time>
      </trkpt>
      <trkpt lat="38.34605810" lon="-2.38379649">
        <ele>1086.0000</ele>
        <time>2018-10-12T14:04:13Z</time>
      </trkpt>
      <trkpt lat="38.34562039" lon="-2.38402423">
        <ele>1086.0000</ele>
        <time>2018-10-12T14:04:19Z</time>
      </trkpt>
      <trkpt lat="38.34513450" lon="-2.38428281">
        <ele>1086.0000</ele>
        <time>2018-10-12T14:04:26Z</time>
      </trkpt>
      <trkpt lat="38.34459026" lon="-2.38458464">
        <ele>1085.0000</ele>
        <time>2018-10-12T14:04:34Z</time>
      </trkpt>
      <trkpt lat="38.34444927" lon="-2.38467684">
        <ele>1085.0000</ele>
        <time>2018-10-12T14:04:36Z</time>
      </trkpt>
      <trkpt lat="38.34438155" lon="-2.38473451">
        <ele>1085.0000</ele>
        <time>2018-10-12T14:04:37Z</time>
      </trkpt>
      <trkpt lat="38.34411459" lon="-2.38513668">
        <ele>1084.0000</ele>
        <time>2018-10-12T14:04:42Z</time>
      </trkpt>
      <trkpt lat="38.34390822" lon="-2.38559919">
        <ele>1083.0000</ele>
        <time>2018-10-12T14:04:47Z</time>
      </trkpt>
      <trkpt lat="38.34381837" lon="-2.38577772">
        <ele>1083.0000</ele>
        <time>2018-10-12T14:04:49Z</time>
      </trkpt>
      <trkpt lat="38.34377252" lon="-2.38586590">
        <ele>1082.0000</ele>
        <time>2018-10-12T14:04:50Z</time>
      </trkpt>
      <trkpt lat="38.34351838" lon="-2.38638491">
        <ele>1081.0000</ele>
        <time>2018-10-12T14:04:56Z</time>
      </trkpt>
      <trkpt lat="38.34337681" lon="-2.38675346">
        <ele>1081.0000</ele>
        <time>2018-10-12T14:05:00Z</time>
      </trkpt>
      <trkpt lat="38.34331160" lon="-2.38716300">
        <ele>1080.0000</ele>
        <time>2018-10-12T14:05:04Z</time>
      </trkpt>
      <trkpt lat="38.34329961" lon="-2.38726459">
        <ele>1080.0000</ele>
        <time>2018-10-12T14:05:05Z</time>
      </trkpt>
      <trkpt lat="38.34327681" lon="-2.38766114">
        <ele>1080.0000</ele>
        <time>2018-10-12T14:05:09Z</time>
      </trkpt>
      <trkpt lat="38.34332317" lon="-2.38811384">
        <ele>1079.0000</ele>
        <time>2018-10-12T14:05:14Z</time>
      </trkpt>
      <trkpt lat="38.34338142" lon="-2.38826564">
        <ele>1079.0000</ele>
        <time>2018-10-12T14:05:16Z</time>
      </trkpt>
      <trkpt lat="38.34352215" lon="-2.38839933">
        <ele>1079.0000</ele>
        <time>2018-10-12T14:05:19Z</time>
      </trkpt>
      <trkpt lat="38.34370345" lon="-2.38842464">
        <ele>1080.0000</ele>
        <time>2018-10-12T14:05:22Z</time>
      </trkpt>
      <trkpt lat="38.34382541" lon="-2.38844778">
        <ele>1082.0000</ele>
        <time>2018-10-12T14:05:24Z</time>
      </trkpt>
      <trkpt lat="38.34392574" lon="-2.38852464">
        <ele>1083.0000</ele>
        <time>2018-10-12T14:05:26Z</time>
      </trkpt>
      <trkpt lat="38.34396329" lon="-2.38858030">
        <ele>1083.0000</ele>
        <time>2018-10-12T14:05:27Z</time>
      </trkpt>
      <trkpt lat="38.34399539" lon="-2.38864350">
        <ele>1083.0000</ele>
        <time>2018-10-12T14:05:28Z</time>
      </trkpt>
      <trkpt lat="38.34401719" lon="-2.38870686">
        <ele>1083.0000</ele>
        <time>2018-10-12T14:05:29Z</time>
      </trkpt>
      <trkpt lat="38.34397645" lon="-2.38897969">
        <ele>1084.0000</ele>
        <time>2018-10-12T14:05:33Z</time>
      </trkpt>
      <trkpt lat="38.34389070" lon="-2.38915739">
        <ele>1084.0000</ele>
        <time>2018-10-12T14:05:36Z</time>
      </trkpt>
      <trkpt lat="38.34379859" lon="-2.38932411">
        <ele>1085.0000</ele>
        <time>2018-10-12T14:05:39Z</time>
      </trkpt>
      <trkpt lat="38.34369675" lon="-2.38955972">
        <ele>1086.0000</ele>
        <time>2018-10-12T14:05:43Z</time>
      </trkpt>
      <trkpt lat="38.34368082" lon="-2.38962368">
        <ele>1086.0000</ele>
        <time>2018-10-12T14:05:44Z</time>
      </trkpt>
      <trkpt lat="38.34366121" lon="-2.38988905">
        <ele>1087.0000</ele>
        <time>2018-10-12T14:05:48Z</time>
      </trkpt>
      <trkpt lat="38.34365861" lon="-2.38995493">
        <ele>1087.0000</ele>
        <time>2018-10-12T14:05:49Z</time>
      </trkpt>
      <trkpt lat="38.34361989" lon="-2.39022860">
        <ele>1088.0000</ele>
        <time>2018-10-12T14:05:53Z</time>
      </trkpt>
      <trkpt lat="38.34353548" lon="-2.39059581">
        <ele>1088.0000</ele>
        <time>2018-10-12T14:05:58Z</time>
      </trkpt>
      <trkpt lat="38.34358636" lon="-2.39133543">
        <ele>1088.0000</ele>
        <time>2018-10-12T14:06:07Z</time>
      </trkpt>
      <trkpt lat="38.34370773" lon="-2.39168873">
        <ele>1088.0000</ele>
        <time>2018-10-12T14:06:12Z</time>
      </trkpt>
      <trkpt lat="38.34374712" lon="-2.39184304">
        <ele>1088.0000</ele>
        <time>2018-10-12T14:06:14Z</time>
      </trkpt>
      <trkpt lat="38.34375081" lon="-2.39217546">
        <ele>1087.0000</ele>
        <time>2018-10-12T14:06:18Z</time>
      </trkpt>
      <trkpt lat="38.34369155" lon="-2.39241016">
        <ele>1087.0000</ele>
        <time>2018-10-12T14:06:21Z</time>
      </trkpt>
      <trkpt lat="38.34362106" lon="-2.39263596">
        <ele>1087.0000</ele>
        <time>2018-10-12T14:06:24Z</time>
      </trkpt>
      <trkpt lat="38.34361167" lon="-2.39304760">
        <ele>1087.0000</ele>
        <time>2018-10-12T14:06:29Z</time>
      </trkpt>
      <trkpt lat="38.34366540" lon="-2.39346980">
        <ele>1087.0000</ele>
        <time>2018-10-12T14:06:34Z</time>
      </trkpt>
      <trkpt lat="38.34365895" lon="-2.39414848">
        <ele>1087.0000</ele>
        <time>2018-10-12T14:06:42Z</time>
      </trkpt>
      <trkpt lat="38.34370312" lon="-2.39451125">
        <ele>1087.0000</ele>
        <time>2018-10-12T14:06:46Z</time>
      </trkpt>
      <trkpt lat="38.34381217" lon="-2.39507795">
        <ele>1086.0000</ele>
        <time>2018-10-12T14:06:52Z</time>
      </trkpt>
      <trkpt lat="38.34381611" lon="-2.39517266">
        <ele>1086.0000</ele>
        <time>2018-10-12T14:06:53Z</time>
      </trkpt>
      <trkpt lat="38.34380554" lon="-2.39535824">
        <ele>1085.0000</ele>
        <time>2018-10-12T14:06:55Z</time>
      </trkpt>
      <trkpt lat="38.34374746" lon="-2.39561984">
        <ele>1084.0000</ele>
        <time>2018-10-12T14:06:58Z</time>
      </trkpt>
      <trkpt lat="38.34366909" lon="-2.39595838">
        <ele>1084.0000</ele>
        <time>2018-10-12T14:07:02Z</time>
      </trkpt>
      <trkpt lat="38.34366951" lon="-2.39620875">
        <ele>1084.0000</ele>
        <time>2018-10-12T14:07:05Z</time>
      </trkpt>
      <trkpt lat="38.34369138" lon="-2.39654235">
        <ele>1085.0000</ele>
        <time>2018-10-12T14:07:10Z</time>
      </trkpt>
      <trkpt lat="38.34353640" lon="-2.39688660">
        <ele>1085.0000</ele>
        <time>2018-10-12T14:07:16Z</time>
      </trkpt>
      <trkpt lat="38.34341512" lon="-2.39696279">
        <ele>1085.0000</ele>
        <time>2018-10-12T14:07:18Z</time>
      </trkpt>
      <trkpt lat="38.34328821" lon="-2.39705138">
        <ele>1085.0000</ele>
        <time>2018-10-12T14:07:20Z</time>
      </trkpt>
      <trkpt lat="38.34322543" lon="-2.39743058">
        <ele>1085.0000</ele>
        <time>2018-10-12T14:07:24Z</time>
      </trkpt>
      <trkpt lat="38.34335376" lon="-2.39775504">
        <ele>1084.0000</ele>
        <time>2018-10-12T14:07:27Z</time>
      </trkpt>
      <trkpt lat="38.34338955" lon="-2.39786761">
        <ele>1083.0000</ele>
        <time>2018-10-12T14:07:28Z</time>
      </trkpt>
      <trkpt lat="38.34345191" lon="-2.39808965">
        <ele>1081.0000</ele>
        <time>2018-10-12T14:07:30Z</time>
      </trkpt>
      <trkpt lat="38.34346650" lon="-2.39820851">
        <ele>1080.0000</ele>
        <time>2018-10-12T14:07:31Z</time>
      </trkpt>
      <trkpt lat="38.34345627" lon="-2.39832602">
        <ele>1079.0000</ele>
        <time>2018-10-12T14:07:32Z</time>
      </trkpt>
      <trkpt lat="38.34333742" lon="-2.39854160">
        <ele>1078.0000</ele>
        <time>2018-10-12T14:07:34Z</time>
      </trkpt>
      <trkpt lat="38.34316953" lon="-2.39872684">
        <ele>1075.0000</ele>
        <time>2018-10-12T14:07:36Z</time>
      </trkpt>
      <trkpt lat="38.34308931" lon="-2.39882742">
        <ele>1075.0000</ele>
        <time>2018-10-12T14:07:37Z</time>
      </trkpt>
      <trkpt lat="38.34301790" lon="-2.39893815">
        <ele>1074.0000</ele>
        <time>2018-10-12T14:07:38Z</time>
      </trkpt>
      <trkpt lat="38.34290047" lon="-2.39919539">
        <ele>1073.0000</ele>
        <time>2018-10-12T14:07:40Z</time>
      </trkpt>
      <trkpt lat="38.34281916" lon="-2.39948708">
        <ele>1072.0000</ele>
        <time>2018-10-12T14:07:42Z</time>
      </trkpt>
      <trkpt lat="38.34276057" lon="-2.39979847">
        <ele>1070.0000</ele>
        <time>2018-10-12T14:07:44Z</time>
      </trkpt>
      <trkpt lat="38.34271020" lon="-2.40012394">
        <ele>1068.0000</ele>
        <time>2018-10-12T14:07:46Z</time>
      </trkpt>
      <trkpt lat="38.34262738" lon="-2.40044438">
        <ele>1066.0000</ele>
        <time>2018-10-12T14:07:48Z</time>
      </trkpt>
      <trkpt lat="38.34251834" lon="-2.40075493">
        <ele>1064.0000</ele>
        <time>2018-10-12T14:07:50Z</time>
      </trkpt>
      <trkpt lat="38.34240116" lon="-2.40106489">
        <ele>1063.0000</ele>
        <time>2018-10-12T14:07:52Z</time>
      </trkpt>
      <trkpt lat="38.34234139" lon="-2.40121996">
        <ele>1061.0000</ele>
        <time>2018-10-12T14:07:53Z</time>
      </trkpt>
      <trkpt lat="38.34228498" lon="-2.40137477">
        <ele>1060.0000</ele>
        <time>2018-10-12T14:07:54Z</time>
      </trkpt>
      <trkpt lat="38.34223528" lon="-2.40153201">
        <ele>1058.0000</ele>
        <time>2018-10-12T14:07:55Z</time>
      </trkpt>
      <trkpt lat="38.34219429" lon="-2.40169454">
        <ele>1057.0000</ele>
        <time>2018-10-12T14:07:56Z</time>
      </trkpt>
      <trkpt lat="38.34216143" lon="-2.40186050">
        <ele>1056.0000</ele>
        <time>2018-10-12T14:07:57Z</time>
      </trkpt>
      <trkpt lat="38.34210745" lon="-2.40219762">
        <ele>1054.0000</ele>
        <time>2018-10-12T14:07:59Z</time>
      </trkpt>
      <trkpt lat="38.34208323" lon="-2.40236903">
        <ele>1053.0000</ele>
        <time>2018-10-12T14:08:00Z</time>
      </trkpt>
      <trkpt lat="38.34206035" lon="-2.40254094">
        <ele>1052.0000</ele>
        <time>2018-10-12T14:08:01Z</time>
      </trkpt>
      <trkpt lat="38.34201433" lon="-2.40287982">
        <ele>1050.0000</ele>
        <time>2018-10-12T14:08:03Z</time>
      </trkpt>
      <trkpt lat="38.34199229" lon="-2.40303874">
        <ele>1049.0000</ele>
        <time>2018-10-12T14:08:04Z</time>
      </trkpt>
      <trkpt lat="38.34197234" lon="-2.40318736">
        <ele>1048.0000</ele>
        <time>2018-10-12T14:08:05Z</time>
      </trkpt>
      <trkpt lat="38.34195457" lon="-2.40346773">
        <ele>1046.0000</ele>
        <time>2018-10-12T14:08:07Z</time>
      </trkpt>
      <trkpt lat="38.34199497" lon="-2.40374676">
        <ele>1045.0000</ele>
        <time>2018-10-12T14:08:09Z</time>
      </trkpt>
      <trkpt lat="38.34210938" lon="-2.40417374">
        <ele>1044.0000</ele>
        <time>2018-10-12T14:08:12Z</time>
      </trkpt>
      <trkpt lat="38.34224391" lon="-2.40473382">
        <ele>1043.0000</ele>
        <time>2018-10-12T14:08:16Z</time>
      </trkpt>
      <trkpt lat="38.34229194" lon="-2.40498402">
        <ele>1042.0000</ele>
        <time>2018-10-12T14:08:18Z</time>
      </trkpt>
      <trkpt lat="38.34230300" lon="-2.40518962">
        <ele>1040.0000</ele>
        <time>2018-10-12T14:08:20Z</time>
      </trkpt>
      <trkpt lat="38.34221240" lon="-2.40532885">
        <ele>1038.0000</ele>
        <time>2018-10-12T14:08:22Z</time>
      </trkpt>
      <trkpt lat="38.34196329" lon="-2.40533991">
        <ele>1037.0000</ele>
        <time>2018-10-12T14:08:25Z</time>
      </trkpt>
      <trkpt lat="38.34187528" lon="-2.40531611">
        <ele>1037.0000</ele>
        <time>2018-10-12T14:08:26Z</time>
      </trkpt>
      <trkpt lat="38.34159323" lon="-2.40525282">
        <ele>1037.0000</ele>
        <time>2018-10-12T14:08:29Z</time>
      </trkpt>
      <trkpt lat="38.34149281" lon="-2.40525115">
        <ele>1036.0000</ele>
        <time>2018-10-12T14:08:30Z</time>
      </trkpt>
      <trkpt lat="38.34128628" lon="-2.40529566">
        <ele>1034.0000</ele>
        <time>2018-10-12T14:08:32Z</time>
      </trkpt>
      <trkpt lat="38.34118125" lon="-2.40533581">
        <ele>1032.0000</ele>
        <time>2018-10-12T14:08:33Z</time>
      </trkpt>
      <trkpt lat="38.34098327" lon="-2.40543840">
        <ele>1031.0000</ele>
        <time>2018-10-12T14:08:35Z</time>
      </trkpt>
      <trkpt lat="38.34082729" lon="-2.40561123">
        <ele>1029.0000</ele>
        <time>2018-10-12T14:08:37Z</time>
      </trkpt>
      <trkpt lat="38.34072067" lon="-2.40585205">
        <ele>1028.0000</ele>
        <time>2018-10-12T14:08:39Z</time>
      </trkpt>
      <trkpt lat="38.34063216" lon="-2.40611784">
        <ele>1027.0000</ele>
        <time>2018-10-12T14:08:41Z</time>
      </trkpt>
      <trkpt lat="38.34058907" lon="-2.40641430">
        <ele>1026.0000</ele>
        <time>2018-10-12T14:08:43Z</time>
      </trkpt>
      <trkpt lat="38.34058891" lon="-2.40672041">
        <ele>1025.0000</ele>
        <time>2018-10-12T14:08:45Z</time>
      </trkpt>
      <trkpt lat="38.34060047" lon="-2.40687078">
        <ele>1024.0000</ele>
        <time>2018-10-12T14:08:46Z</time>
      </trkpt>
      <trkpt lat="38.34061791" lon="-2.40702409">
        <ele>1023.0000</ele>
        <time>2018-10-12T14:08:47Z</time>
      </trkpt>
      <trkpt lat="38.34064247" lon="-2.40718318">
        <ele>1021.0000</ele>
        <time>2018-10-12T14:08:48Z</time>
      </trkpt>
      <trkpt lat="38.34066979" lon="-2.40734017">
        <ele>1020.0000</ele>
        <time>2018-10-12T14:08:49Z</time>
      </trkpt>
      <trkpt lat="38.34069251" lon="-2.40748945">
        <ele>1019.0000</ele>
        <time>2018-10-12T14:08:50Z</time>
      </trkpt>
      <trkpt lat="38.34072545" lon="-2.40777368">
        <ele>1017.0000</ele>
        <time>2018-10-12T14:08:52Z</time>
      </trkpt>
      <trkpt lat="38.34072662" lon="-2.40790679">
        <ele>1016.0000</ele>
        <time>2018-10-12T14:08:53Z</time>
      </trkpt>
      <trkpt lat="38.34070047" lon="-2.40803369">
        <ele>1015.0000</ele>
        <time>2018-10-12T14:08:54Z</time>
      </trkpt>
      <trkpt lat="38.34061732" lon="-2.40827945">
        <ele>1013.0000</ele>
        <time>2018-10-12T14:08:56Z</time>
      </trkpt>
      <trkpt lat="38.34041867" lon="-2.40853602">
        <ele>1012.0000</ele>
        <time>2018-10-12T14:08:59Z</time>
      </trkpt>
      <trkpt lat="38.34013595" lon="-2.40844549">
        <ele>1011.0000</ele>
        <time>2018-10-12T14:09:03Z</time>
      </trkpt>
      <trkpt lat="38.34009957" lon="-2.40824826">
        <ele>1009.0000</ele>
        <time>2018-10-12T14:09:05Z</time>
      </trkpt>
      <trkpt lat="38.34006504" lon="-2.40795616">
        <ele>1008.0000</ele>
        <time>2018-10-12T14:09:08Z</time>
      </trkpt>
      <trkpt lat="38.33992741" lon="-2.40789799">
        <ele>1007.0000</ele>
        <time>2018-10-12T14:09:10Z</time>
      </trkpt>
      <trkpt lat="38.33979464" lon="-2.40800921">
        <ele>1005.0000</ele>
        <time>2018-10-12T14:09:12Z</time>
      </trkpt>
      <trkpt lat="38.33974284" lon="-2.40821566">
        <ele>1004.0000</ele>
        <time>2018-10-12T14:09:14Z</time>
      </trkpt>
      <trkpt lat="38.33972364" lon="-2.40846049">
        <ele>1003.0000</ele>
        <time>2018-10-12T14:09:16Z</time>
      </trkpt>
      <trkpt lat="38.33969674" lon="-2.40885805">
        <ele>1003.0000</ele>
        <time>2018-10-12T14:09:19Z</time>
      </trkpt>
      <trkpt lat="38.33969950" lon="-2.40899987">
        <ele>1003.0000</ele>
        <time>2018-10-12T14:09:20Z</time>
      </trkpt>
      <trkpt lat="38.33972129" lon="-2.40913985">
        <ele>1002.0000</ele>
        <time>2018-10-12T14:09:21Z</time>
      </trkpt>
      <trkpt lat="38.33983018" lon="-2.40939164">
        <ele>1000.0000</ele>
        <time>2018-10-12T14:09:23Z</time>
      </trkpt>
      <trkpt lat="38.33990092" lon="-2.40949398">
        <ele>999.00000</ele>
        <time>2018-10-12T14:09:24Z</time>
      </trkpt>
      <trkpt lat="38.33997309" lon="-2.40959071">
        <ele>998.00000</ele>
        <time>2018-10-12T14:09:25Z</time>
      </trkpt>
      <trkpt lat="38.34002447" lon="-2.40969523">
        <ele>996.00000</ele>
        <time>2018-10-12T14:09:26Z</time>
      </trkpt>
      <trkpt lat="38.34006009" lon="-2.40980797">
        <ele>995.00000</ele>
        <time>2018-10-12T14:09:27Z</time>
      </trkpt>
      <trkpt lat="38.34006889" lon="-2.40993990">
        <ele>994.00000</ele>
        <time>2018-10-12T14:09:28Z</time>
      </trkpt>
      <trkpt lat="38.34005238" lon="-2.41020661">
        <ele>992.00000</ele>
        <time>2018-10-12T14:09:30Z</time>
      </trkpt>
      <trkpt lat="38.33998340" lon="-2.41047793">
        <ele>991.00000</ele>
        <time>2018-10-12T14:09:32Z</time>
      </trkpt>
      <trkpt lat="38.33995004" lon="-2.41061263">
        <ele>991.00000</ele>
        <time>2018-10-12T14:09:33Z</time>
      </trkpt>
      <trkpt lat="38.33988742" lon="-2.41091136">
        <ele>989.00000</ele>
        <time>2018-10-12T14:09:35Z</time>
      </trkpt>
      <trkpt lat="38.33986915" lon="-2.41106869">
        <ele>988.00000</ele>
        <time>2018-10-12T14:09:36Z</time>
      </trkpt>
      <trkpt lat="38.33986127" lon="-2.41122669">
        <ele>987.00000</ele>
        <time>2018-10-12T14:09:37Z</time>
      </trkpt>
      <trkpt lat="38.33986387" lon="-2.41137966">
        <ele>986.00000</ele>
        <time>2018-10-12T14:09:38Z</time>
      </trkpt>
      <trkpt lat="38.33989656" lon="-2.41165853">
        <ele>985.00000</ele>
        <time>2018-10-12T14:09:40Z</time>
      </trkpt>
      <trkpt lat="38.33990218" lon="-2.41179096">
        <ele>984.00000</ele>
        <time>2018-10-12T14:09:41Z</time>
      </trkpt>
      <trkpt lat="38.33987913" lon="-2.41193831">
        <ele>983.00000</ele>
        <time>2018-10-12T14:09:42Z</time>
      </trkpt>
      <trkpt lat="38.33968869" lon="-2.41232807">
        <ele>981.00000</ele>
        <time>2018-10-12T14:09:45Z</time>
      </trkpt>
      <trkpt lat="38.33950839" lon="-2.41252739">
        <ele>980.00000</ele>
        <time>2018-10-12T14:09:47Z</time>
      </trkpt>
      <trkpt lat="38.33920245" lon="-2.41268598">
        <ele>978.00000</ele>
        <time>2018-10-12T14:09:50Z</time>
      </trkpt>
      <trkpt lat="38.33908963" lon="-2.41269369">
        <ele>977.00000</ele>
        <time>2018-10-12T14:09:51Z</time>
      </trkpt>
      <trkpt lat="38.33897405" lon="-2.41268942">
        <ele>975.00000</ele>
        <time>2018-10-12T14:09:52Z</time>
      </trkpt>
      <trkpt lat="38.33885595" lon="-2.41269143">
        <ele>974.00000</ele>
        <time>2018-10-12T14:09:53Z</time>
      </trkpt>
      <trkpt lat="38.33873583" lon="-2.41270300">
        <ele>972.00000</ele>
        <time>2018-10-12T14:09:54Z</time>
      </trkpt>
      <trkpt lat="38.33861438" lon="-2.41273049">
        <ele>970.00000</ele>
        <time>2018-10-12T14:09:55Z</time>
      </trkpt>
      <trkpt lat="38.33849376" lon="-2.41277558">
        <ele>968.00000</ele>
        <time>2018-10-12T14:09:56Z</time>
      </trkpt>
      <trkpt lat="38.33837592" lon="-2.41283928">
        <ele>967.00000</ele>
        <time>2018-10-12T14:09:57Z</time>
      </trkpt>
      <trkpt lat="38.33826477" lon="-2.41292528">
        <ele>966.00000</ele>
        <time>2018-10-12T14:09:58Z</time>
      </trkpt>
      <trkpt lat="38.33806562" lon="-2.41314807">
        <ele>965.00000</ele>
        <time>2018-10-12T14:10:00Z</time>
      </trkpt>
      <trkpt lat="38.33797501" lon="-2.41327757">
        <ele>964.00000</ele>
        <time>2018-10-12T14:10:01Z</time>
      </trkpt>
      <trkpt lat="38.33770545" lon="-2.41367898">
        <ele>963.00000</ele>
        <time>2018-10-12T14:10:04Z</time>
      </trkpt>
      <trkpt lat="38.33749724" lon="-2.41392692">
        <ele>961.00000</ele>
        <time>2018-10-12T14:10:06Z</time>
      </trkpt>
      <trkpt lat="38.33729046" lon="-2.41414812">
        <ele>960.00000</ele>
        <time>2018-10-12T14:10:08Z</time>
      </trkpt>
      <trkpt lat="38.33718971" lon="-2.41425381">
        <ele>959.00000</ele>
        <time>2018-10-12T14:10:09Z</time>
      </trkpt>
      <trkpt lat="38.33709055" lon="-2.41435834">
        <ele>957.00000</ele>
        <time>2018-10-12T14:10:10Z</time>
      </trkpt>
      <trkpt lat="38.33699198" lon="-2.41445875">
        <ele>956.00000</ele>
        <time>2018-10-12T14:10:11Z</time>
      </trkpt>
      <trkpt lat="38.33689643" lon="-2.41455439">
        <ele>954.00000</ele>
        <time>2018-10-12T14:10:12Z</time>
      </trkpt>
      <trkpt lat="38.33680490" lon="-2.41464341">
        <ele>952.00000</ele>
        <time>2018-10-12T14:10:13Z</time>
      </trkpt>
      <trkpt lat="38.33671839" lon="-2.41472169">
        <ele>950.00000</ele>
        <time>2018-10-12T14:10:14Z</time>
      </trkpt>
      <trkpt lat="38.33663399" lon="-2.41478791">
        <ele>949.00000</ele>
        <time>2018-10-12T14:10:15Z</time>
      </trkpt>
      <trkpt lat="38.33646166" lon="-2.41488179">
        <ele>948.00000</ele>
        <time>2018-10-12T14:10:17Z</time>
      </trkpt>
      <trkpt lat="38.33631061" lon="-2.41495454">
        <ele>948.00000</ele>
        <time>2018-10-12T14:10:19Z</time>
      </trkpt>
      <trkpt lat="38.33629586" lon="-2.41539283">
        <ele>947.00000</ele>
        <time>2018-10-12T14:10:24Z</time>
      </trkpt>
      <trkpt lat="38.33643919" lon="-2.41555343">
        <ele>946.00000</ele>
        <time>2018-10-12T14:10:26Z</time>
      </trkpt>
      <trkpt lat="38.33651480" lon="-2.41563876">
        <ele>946.00000</ele>
        <time>2018-10-12T14:10:27Z</time>
      </trkpt>
      <trkpt lat="38.33667598" lon="-2.41579013">
        <ele>944.00000</ele>
        <time>2018-10-12T14:10:29Z</time>
      </trkpt>
      <trkpt lat="38.33676164" lon="-2.41583146">
        <ele>943.00000</ele>
        <time>2018-10-12T14:10:30Z</time>
      </trkpt>
      <trkpt lat="38.33684940" lon="-2.41584680">
        <ele>942.00000</ele>
        <time>2018-10-12T14:10:31Z</time>
      </trkpt>
      <trkpt lat="38.33700430" lon="-2.41587596">
        <ele>940.00000</ele>
        <time>2018-10-12T14:10:33Z</time>
      </trkpt>
      <trkpt lat="38.33712441" lon="-2.41599432">
        <ele>938.00000</ele>
        <time>2018-10-12T14:10:35Z</time>
      </trkpt>
      <trkpt lat="38.33715937" lon="-2.41618878">
        <ele>937.00000</ele>
        <time>2018-10-12T14:10:37Z</time>
      </trkpt>
      <trkpt lat="38.33716884" lon="-2.41629640">
        <ele>937.00000</ele>
        <time>2018-10-12T14:10:38Z</time>
      </trkpt>
      <trkpt lat="38.33721695" lon="-2.41673276">
        <ele>936.00000</ele>
        <time>2018-10-12T14:10:42Z</time>
      </trkpt>
      <trkpt lat="38.33723044" lon="-2.41695656">
        <ele>934.00000</ele>
        <time>2018-10-12T14:10:44Z</time>
      </trkpt>
      <trkpt lat="38.33724520" lon="-2.41717466">
        <ele>933.00000</ele>
        <time>2018-10-12T14:10:46Z</time>
      </trkpt>
      <trkpt lat="38.33729800" lon="-2.41793389">
        <ele>932.00000</ele>
        <time>2018-10-12T14:10:53Z</time>
      </trkpt>
      <trkpt lat="38.33730328" lon="-2.41804587">
        <ele>932.00000</ele>
        <time>2018-10-12T14:10:54Z</time>
      </trkpt>
      <trkpt lat="38.33734134" lon="-2.41875490">
        <ele>931.00000</ele>
        <time>2018-10-12T14:11:00Z</time>
      </trkpt>
      <trkpt lat="38.33736187" lon="-2.41900367">
        <ele>931.00000</ele>
        <time>2018-10-12T14:11:02Z</time>
      </trkpt>
      <trkpt lat="38.33743597" lon="-2.41963684">
        <ele>929.00000</ele>
        <time>2018-10-12T14:11:07Z</time>
      </trkpt>
      <trkpt lat="38.33748693" lon="-2.41989207">
        <ele>928.00000</ele>
        <time>2018-10-12T14:11:09Z</time>
      </trkpt>
      <trkpt lat="38.33751744" lon="-2.42002316">
        <ele>928.00000</ele>
        <time>2018-10-12T14:11:10Z</time>
      </trkpt>
      <trkpt lat="38.33758408" lon="-2.42029666">
        <ele>926.00000</ele>
        <time>2018-10-12T14:11:12Z</time>
      </trkpt>
      <trkpt lat="38.33765088" lon="-2.42057670">
        <ele>925.00000</ele>
        <time>2018-10-12T14:11:14Z</time>
      </trkpt>
      <trkpt lat="38.33774317" lon="-2.42103377">
        <ele>925.00000</ele>
        <time>2018-10-12T14:11:17Z</time>
      </trkpt>
      <trkpt lat="38.33778072" lon="-2.42118867">
        <ele>924.00000</ele>
        <time>2018-10-12T14:11:18Z</time>
      </trkpt>
      <trkpt lat="38.33783294" lon="-2.42134055">
        <ele>923.00000</ele>
        <time>2018-10-12T14:11:19Z</time>
      </trkpt>
      <trkpt lat="38.33789178" lon="-2.42148580">
        <ele>922.00000</ele>
        <time>2018-10-12T14:11:20Z</time>
      </trkpt>
      <trkpt lat="38.33795833" lon="-2.42162863">
        <ele>921.00000</ele>
        <time>2018-10-12T14:11:21Z</time>
      </trkpt>
      <trkpt lat="38.33809169" lon="-2.42192829">
        <ele>919.00000</ele>
        <time>2018-10-12T14:11:23Z</time>
      </trkpt>
      <trkpt lat="38.33821373" lon="-2.42223565">
        <ele>918.00000</ele>
        <time>2018-10-12T14:11:25Z</time>
      </trkpt>
      <trkpt lat="38.33832487" lon="-2.42255617">
        <ele>916.00000</ele>
        <time>2018-10-12T14:11:27Z</time>
      </trkpt>
      <trkpt lat="38.33837935" lon="-2.42272675">
        <ele>915.00000</ele>
        <time>2018-10-12T14:11:28Z</time>
      </trkpt>
      <trkpt lat="38.33843559" lon="-2.42289388">
        <ele>913.00000</ele>
        <time>2018-10-12T14:11:29Z</time>
      </trkpt>
      <trkpt lat="38.33848622" lon="-2.42305481">
        <ele>911.00000</ele>
        <time>2018-10-12T14:11:30Z</time>
      </trkpt>
      <trkpt lat="38.33853844" lon="-2.42320334">
        <ele>910.00000</ele>
        <time>2018-10-12T14:11:31Z</time>
      </trkpt>
      <trkpt lat="38.33863156" lon="-2.42346854">
        <ele>909.00000</ele>
        <time>2018-10-12T14:11:33Z</time>
      </trkpt>
      <trkpt lat="38.33872997" lon="-2.42369594">
        <ele>906.00000</ele>
        <time>2018-10-12T14:11:35Z</time>
      </trkpt>
      <trkpt lat="38.33879099" lon="-2.42379368">
        <ele>905.00000</ele>
        <time>2018-10-12T14:11:36Z</time>
      </trkpt>
      <trkpt lat="38.33886642" lon="-2.42387750">
        <ele>903.00000</ele>
        <time>2018-10-12T14:11:37Z</time>
      </trkpt>
      <trkpt lat="38.33904622" lon="-2.42402527">
        <ele>902.00000</ele>
        <time>2018-10-12T14:11:39Z</time>
      </trkpt>
      <trkpt lat="38.33914789" lon="-2.42409400">
        <ele>900.00000</ele>
        <time>2018-10-12T14:11:40Z</time>
      </trkpt>
      <trkpt lat="38.33925635" lon="-2.42415837">
        <ele>899.00000</ele>
        <time>2018-10-12T14:11:41Z</time>
      </trkpt>
      <trkpt lat="38.33936112" lon="-2.42421831">
        <ele>898.00000</ele>
        <time>2018-10-12T14:11:42Z</time>
      </trkpt>
      <trkpt lat="38.33946271" lon="-2.42426482">
        <ele>897.00000</ele>
        <time>2018-10-12T14:11:43Z</time>
      </trkpt>
      <trkpt lat="38.33955399" lon="-2.42430112">
        <ele>896.00000</ele>
        <time>2018-10-12T14:11:44Z</time>
      </trkpt>
      <trkpt lat="38.33970839" lon="-2.42437949">
        <ele>895.00000</ele>
        <time>2018-10-12T14:11:46Z</time>
      </trkpt>
      <trkpt lat="38.33975357" lon="-2.42445384">
        <ele>894.00000</ele>
        <time>2018-10-12T14:11:47Z</time>
      </trkpt>
      <trkpt lat="38.33977645" lon="-2.42465752">
        <ele>893.00000</ele>
        <time>2018-10-12T14:11:49Z</time>
      </trkpt>
      <trkpt lat="38.33948744" lon="-2.42504040">
        <ele>892.00000</ele>
        <time>2018-10-12T14:11:53Z</time>
      </trkpt>
      <trkpt lat="38.33939138" lon="-2.42509388">
        <ele>891.00000</ele>
        <time>2018-10-12T14:11:54Z</time>
      </trkpt>
      <trkpt lat="38.33929608" lon="-2.42514425">
        <ele>891.00000</ele>
        <time>2018-10-12T14:11:55Z</time>
      </trkpt>
      <trkpt lat="38.33920581" lon="-2.42519237">
        <ele>890.00000</ele>
        <time>2018-10-12T14:11:56Z</time>
      </trkpt>
      <trkpt lat="38.33911805" lon="-2.42523947">
        <ele>889.00000</ele>
        <time>2018-10-12T14:11:57Z</time>
      </trkpt>
      <trkpt lat="38.33894303" lon="-2.42532757">
        <ele>887.00000</ele>
        <time>2018-10-12T14:11:59Z</time>
      </trkpt>
      <trkpt lat="38.33857381" lon="-2.42546427">
        <ele>886.00000</ele>
        <time>2018-10-12T14:12:03Z</time>
      </trkpt>
      <trkpt lat="38.33828422" lon="-2.42553049">
        <ele>886.00000</ele>
        <time>2018-10-12T14:12:06Z</time>
      </trkpt>
      <trkpt lat="38.33779295" lon="-2.42563149">
        <ele>885.00000</ele>
        <time>2018-10-12T14:12:11Z</time>
      </trkpt>
      <trkpt lat="38.33743480" lon="-2.42574607">
        <ele>885.00000</ele>
        <time>2018-10-12T14:12:15Z</time>
      </trkpt>
      <trkpt lat="38.33717940" lon="-2.42584121">
        <ele>885.00000</ele>
        <time>2018-10-12T14:12:18Z</time>
      </trkpt>
      <trkpt lat="38.33666710" lon="-2.42613743">
        <ele>885.00000</ele>
        <time>2018-10-12T14:12:25Z</time>
      </trkpt>
      <trkpt lat="38.33653441" lon="-2.42618604">
        <ele>885.00000</ele>
        <time>2018-10-12T14:12:27Z</time>
      </trkpt>
      <trkpt lat="38.33622747" lon="-2.42620599">
        <ele>885.00000</ele>
        <time>2018-10-12T14:12:32Z</time>
      </trkpt>
      <trkpt lat="38.33606821" lon="-2.42620406">
        <ele>886.00000</ele>
        <time>2018-10-12T14:12:35Z</time>
      </trkpt>
      <trkpt lat="38.33592387" lon="-2.42624899">
        <ele>887.00000</ele>
        <time>2018-10-12T14:12:38Z</time>
      </trkpt>
      <trkpt lat="38.33587752" lon="-2.42627196">
        <ele>887.00000</ele>
        <time>2018-10-12T14:12:39Z</time>
      </trkpt>
      <trkpt lat="38.33583259" lon="-2.42630045">
        <ele>888.00000</ele>
        <time>2018-10-12T14:12:40Z</time>
      </trkpt>
      <trkpt lat="38.33578993" lon="-2.42633515">
        <ele>889.00000</ele>
        <time>2018-10-12T14:12:41Z</time>
      </trkpt>
      <trkpt lat="38.33570737" lon="-2.42641604">
        <ele>890.00000</ele>
        <time>2018-10-12T14:12:43Z</time>
      </trkpt>
      <trkpt lat="38.33562162" lon="-2.42649483">
        <ele>891.00000</ele>
        <time>2018-10-12T14:12:45Z</time>
      </trkpt>
      <trkpt lat="38.33549933" lon="-2.42660564">
        <ele>892.00000</ele>
        <time>2018-10-12T14:12:48Z</time>
      </trkpt>
      <trkpt lat="38.33514042" lon="-2.42696279">
        <ele>894.00000</ele>
        <time>2018-10-12T14:12:58Z</time>
      </trkpt>
      <trkpt lat="38.33486482" lon="-2.42721341">
        <ele>895.00000</ele>
        <time>2018-10-12T14:13:06Z</time>
      </trkpt>
      <trkpt lat="38.33471328" lon="-2.42736856">
        <ele>896.00000</ele>
        <time>2018-10-12T14:13:11Z</time>
      </trkpt>
      <trkpt lat="38.33454497" lon="-2.42752312">
        <ele>897.00000</ele>
        <time>2018-10-12T14:13:17Z</time>
      </trkpt>
      <trkpt lat="38.33444790" lon="-2.42762790">
        <ele>898.00000</ele>
        <time>2018-10-12T14:13:21Z</time>
      </trkpt>
      <trkpt lat="38.33440289" lon="-2.42773904">
        <ele>899.00000</ele>
        <time>2018-10-12T14:13:24Z</time>
      </trkpt>
      <trkpt lat="38.33438470" lon="-2.42785605">
        <ele>900.00000</ele>
        <time>2018-10-12T14:13:27Z</time>
      </trkpt>
      <trkpt lat="38.33442678" lon="-2.42805412">
        <ele>901.00000</ele>
        <time>2018-10-12T14:13:32Z</time>
      </trkpt>
      <trkpt lat="38.33447950" lon="-2.42826358">
        <ele>902.00000</ele>
        <time>2018-10-12T14:13:37Z</time>
      </trkpt>
      <trkpt lat="38.33454715" lon="-2.42846424">
        <ele>903.00000</ele>
        <time>2018-10-12T14:13:42Z</time>
      </trkpt>
      <trkpt lat="38.33465896" lon="-2.42871193">
        <ele>903.00000</ele>
        <time>2018-10-12T14:13:48Z</time>
      </trkpt>
      <trkpt lat="38.33477094" lon="-2.42902935">
        <ele>903.00000</ele>
        <time>2018-10-12T14:13:55Z</time>
      </trkpt>
      <trkpt lat="38.33481855" lon="-2.42919615">
        <ele>903.00000</ele>
        <time>2018-10-12T14:13:58Z</time>
      </trkpt>
      <trkpt lat="38.33497161" lon="-2.42968817">
        <ele>903.00000</ele>
        <time>2018-10-12T14:14:08Z</time>
      </trkpt>
      <trkpt lat="38.33498250" lon="-2.42988673">
        <ele>904.00000</ele>
        <time>2018-10-12T14:14:12Z</time>
      </trkpt>
      <trkpt lat="38.33492727" lon="-2.43012621">
        <ele>905.00000</ele>
        <time>2018-10-12T14:14:17Z</time>
      </trkpt>
      <trkpt lat="38.33484093" lon="-2.43030985">
        <ele>905.00000</ele>
        <time>2018-10-12T14:14:21Z</time>
      </trkpt>
      <trkpt lat="38.33473800" lon="-2.43043617">
        <ele>905.00000</ele>
        <time>2018-10-12T14:14:24Z</time>
      </trkpt>
      <trkpt lat="38.33463105" lon="-2.43055762">
        <ele>905.00000</ele>
        <time>2018-10-12T14:14:27Z</time>
      </trkpt>
      <trkpt lat="38.33443114" lon="-2.43075451">
        <ele>904.00000</ele>
        <time>2018-10-12T14:14:33Z</time>
      </trkpt>
      <trkpt lat="38.33420273" lon="-2.43094042">
        <ele>904.00000</ele>
        <time>2018-10-12T14:14:42Z</time>
      </trkpt>
      <trkpt lat="38.33416527" lon="-2.43097303">
        <ele>905.00000</ele>
        <time>2018-10-12T14:14:44Z</time>
      </trkpt>
      <trkpt lat="38.33412445" lon="-2.43100119">
        <ele>905.00000</ele>
        <time>2018-10-12T14:14:46Z</time>
      </trkpt>
      <trkpt lat="38.33407642" lon="-2.43103086">
        <ele>905.00000</ele>
        <time>2018-10-12T14:14:48Z</time>
      </trkpt>
      <trkpt lat="38.33402629" lon="-2.43106783">
        <ele>905.00000</ele>
        <time>2018-10-12T14:14:50Z</time>
      </trkpt>
      <trkpt lat="38.33396620" lon="-2.43108610">
        <ele>905.00000</ele>
        <time>2018-10-12T14:14:52Z</time>
      </trkpt>
      <trkpt lat="38.33394155" lon="-2.43108476">
        <ele>905.00000</ele>
        <time>2018-10-12T14:14:53Z</time>
      </trkpt>
      <trkpt lat="38.33391046" lon="-2.43106422">
        <ele>905.00000</ele>
        <time>2018-10-12T14:14:56Z</time>
      </trkpt>
      <trkpt lat="38.33352942" lon="-2.43117813">
        <ele>906.00000</ele>
        <time>2018-10-12T14:44:06Z</time>
      </trkpt>
      <trkpt lat="38.33341760" lon="-2.43120554">
        <ele>906.00000</ele>
        <time>2018-10-12T14:44:09Z</time>
      </trkpt>
      <trkpt lat="38.33324468" lon="-2.43125357">
        <ele>906.00000</ele>
        <time>2018-10-12T14:44:12Z</time>
      </trkpt>
      <trkpt lat="38.33305542" lon="-2.43137989">
        <ele>905.00000</ele>
        <time>2018-10-12T14:44:15Z</time>
      </trkpt>
      <trkpt lat="38.33295031" lon="-2.43157736">
        <ele>904.00000</ele>
        <time>2018-10-12T14:44:18Z</time>
      </trkpt>
      <trkpt lat="38.33295358" lon="-2.43176814">
        <ele>902.00000</ele>
        <time>2018-10-12T14:44:20Z</time>
      </trkpt>
      <trkpt lat="38.33295593" lon="-2.43186604">
        <ele>901.00000</ele>
        <time>2018-10-12T14:44:21Z</time>
      </trkpt>
      <trkpt lat="38.33286926" lon="-2.43211079">
        <ele>900.00000</ele>
        <time>2018-10-12T14:44:24Z</time>
      </trkpt>
      <trkpt lat="38.33273825" lon="-2.43217097">
        <ele>898.00000</ele>
        <time>2018-10-12T14:44:26Z</time>
      </trkpt>
      <trkpt lat="38.33260908" lon="-2.43213317">
        <ele>896.00000</ele>
        <time>2018-10-12T14:44:28Z</time>
      </trkpt>
      <trkpt lat="38.33250598" lon="-2.43206444">
        <ele>895.00000</ele>
        <time>2018-10-12T14:44:30Z</time>
      </trkpt>
      <trkpt lat="38.33240867" lon="-2.43200384">
        <ele>895.00000</ele>
        <time>2018-10-12T14:44:32Z</time>
      </trkpt>
      <trkpt lat="38.33231613" lon="-2.43194919">
        <ele>895.00000</ele>
        <time>2018-10-12T14:44:34Z</time>
      </trkpt>
      <trkpt lat="38.33223148" lon="-2.43189202">
        <ele>895.00000</ele>
        <time>2018-10-12T14:44:36Z</time>
      </trkpt>
      <trkpt lat="38.33219259" lon="-2.43186159">
        <ele>895.00000</ele>
        <time>2018-10-12T14:44:37Z</time>
      </trkpt>
      <trkpt lat="38.33209955" lon="-2.43174877">
        <ele>896.00000</ele>
        <time>2018-10-12T14:44:40Z</time>
      </trkpt>
      <trkpt lat="38.33205034" lon="-2.43167158">
        <ele>896.00000</ele>
        <time>2018-10-12T14:44:42Z</time>
      </trkpt>
      <trkpt lat="38.33198069" lon="-2.43153822">
        <ele>897.00000</ele>
        <time>2018-10-12T14:44:45Z</time>
      </trkpt>
      <trkpt lat="38.33191649" lon="-2.43138466">
        <ele>899.00000</ele>
        <time>2018-10-12T14:44:48Z</time>
      </trkpt>
      <trkpt lat="38.33181741" lon="-2.43115508">
        <ele>899.00000</ele>
        <time>2018-10-12T14:44:52Z</time>
      </trkpt>
      <trkpt lat="38.33171465" lon="-2.43100111">
        <ele>899.00000</ele>
        <time>2018-10-12T14:44:55Z</time>
      </trkpt>
      <trkpt lat="38.33153209" lon="-2.43085518">
        <ele>899.00000</ele>
        <time>2018-10-12T14:44:59Z</time>
      </trkpt>
      <trkpt lat="38.33147677" lon="-2.43082853">
        <ele>899.00000</ele>
        <time>2018-10-12T14:45:00Z</time>
      </trkpt>
      <trkpt lat="38.33122448" lon="-2.43082727">
        <ele>899.00000</ele>
        <time>2018-10-12T14:45:04Z</time>
      </trkpt>
      <trkpt lat="38.33081561" lon="-2.43096398">
        <ele>898.00000</ele>
        <time>2018-10-12T14:45:10Z</time>
      </trkpt>
      <trkpt lat="38.33054521" lon="-2.43109574">
        <ele>896.00000</ele>
        <time>2018-10-12T14:45:14Z</time>
      </trkpt>
      <trkpt lat="38.33022946" lon="-2.43128509">
        <ele>896.00000</ele>
        <time>2018-10-12T14:45:19Z</time>
      </trkpt>
      <trkpt lat="38.33009887" lon="-2.43135273">
        <ele>896.00000</ele>
        <time>2018-10-12T14:45:21Z</time>
      </trkpt>
      <trkpt lat="38.32951893" lon="-2.43154669">
        <ele>896.00000</ele>
        <time>2018-10-12T14:45:29Z</time>
      </trkpt>
      <trkpt lat="38.32936721" lon="-2.43154744">
        <ele>895.00000</ele>
        <time>2018-10-12T14:45:31Z</time>
      </trkpt>
      <trkpt lat="38.32929236" lon="-2.43154048">
        <ele>895.00000</ele>
        <time>2018-10-12T14:45:32Z</time>
      </trkpt>
      <trkpt lat="38.32900352" lon="-2.43148634">
        <ele>895.00000</ele>
        <time>2018-10-12T14:45:36Z</time>
      </trkpt>
      <trkpt lat="38.32848804" lon="-2.43139632">
        <ele>894.00000</ele>
        <time>2018-10-12T14:45:44Z</time>
      </trkpt>
      <trkpt lat="38.32816332" lon="-2.43139506">
        <ele>895.00000</ele>
        <time>2018-10-12T14:45:49Z</time>
      </trkpt>
      <trkpt lat="38.32792058" lon="-2.43131862">
        <ele>895.00000</ele>
        <time>2018-10-12T14:45:53Z</time>
      </trkpt>
      <trkpt lat="38.32782100" lon="-2.43127360">
        <ele>895.00000</ele>
        <time>2018-10-12T14:45:55Z</time>
      </trkpt>
      <trkpt lat="38.32768304" lon="-2.43120051">
        <ele>896.00000</ele>
        <time>2018-10-12T14:45:58Z</time>
      </trkpt>
      <trkpt lat="38.32753493" lon="-2.43116766">
        <ele>896.00000</ele>
        <time>2018-10-12T14:46:01Z</time>
      </trkpt>
      <trkpt lat="38.32734340" lon="-2.43110555">
        <ele>896.00000</ele>
        <time>2018-10-12T14:46:05Z</time>
      </trkpt>
      <trkpt lat="38.32722086" lon="-2.43093607">
        <ele>896.00000</ele>
        <time>2018-10-12T14:46:09Z</time>
      </trkpt>
      <trkpt lat="38.32719161" lon="-2.43077614">
        <ele>897.00000</ele>
        <time>2018-10-12T14:46:12Z</time>
      </trkpt>
      <trkpt lat="38.32718549" lon="-2.43072031">
        <ele>897.00000</ele>
        <time>2018-10-12T14:46:13Z</time>
      </trkpt>
      <trkpt lat="38.32717459" lon="-2.43060850">
        <ele>897.00000</ele>
        <time>2018-10-12T14:46:15Z</time>
      </trkpt>
      <trkpt lat="38.32716336" lon="-2.43049099">
        <ele>897.00000</ele>
        <time>2018-10-12T14:46:17Z</time>
      </trkpt>
      <trkpt lat="38.32715079" lon="-2.43036358">
        <ele>898.00000</ele>
        <time>2018-10-12T14:46:19Z</time>
      </trkpt>
      <trkpt lat="38.32713478" lon="-2.43017415">
        <ele>898.00000</ele>
        <time>2018-10-12T14:46:22Z</time>
      </trkpt>
      <trkpt lat="38.32713293" lon="-2.42991305">
        <ele>898.00000</ele>
        <time>2018-10-12T14:46:26Z</time>
      </trkpt>
      <trkpt lat="38.32714257" lon="-2.42976905">
        <ele>899.00000</ele>
        <time>2018-10-12T14:46:28Z</time>
      </trkpt>
      <trkpt lat="38.32718800" lon="-2.42910236">
        <ele>898.00000</ele>
        <time>2018-10-12T14:46:36Z</time>
      </trkpt>
      <trkpt lat="38.32724248" lon="-2.42893572">
        <ele>898.00000</ele>
        <time>2018-10-12T14:46:38Z</time>
      </trkpt>
      <trkpt lat="38.32728171" lon="-2.42885987">
        <ele>897.00000</ele>
        <time>2018-10-12T14:46:39Z</time>
      </trkpt>
      <trkpt lat="38.32737383" lon="-2.42872039">
        <ele>897.00000</ele>
        <time>2018-10-12T14:46:41Z</time>
      </trkpt>
      <trkpt lat="38.32752085" lon="-2.42852543">
        <ele>896.00000</ele>
        <time>2018-10-12T14:46:44Z</time>
      </trkpt>
      <trkpt lat="38.32757567" lon="-2.42846684">
        <ele>896.00000</ele>
        <time>2018-10-12T14:46:45Z</time>
      </trkpt>
      <trkpt lat="38.32774532" lon="-2.42828462">
        <ele>895.00000</ele>
        <time>2018-10-12T14:46:48Z</time>
      </trkpt>
      <trkpt lat="38.32790491" lon="-2.42807297">
        <ele>895.00000</ele>
        <time>2018-10-12T14:46:51Z</time>
      </trkpt>
      <trkpt lat="38.32808101" lon="-2.42777047">
        <ele>894.00000</ele>
        <time>2018-10-12T14:46:55Z</time>
      </trkpt>
      <trkpt lat="38.32812032" lon="-2.42769110">
        <ele>894.00000</ele>
        <time>2018-10-12T14:46:56Z</time>
      </trkpt>
      <trkpt lat="38.32815276" lon="-2.42761096">
        <ele>894.00000</ele>
        <time>2018-10-12T14:46:57Z</time>
      </trkpt>
      <trkpt lat="38.32819794" lon="-2.42745431">
        <ele>893.00000</ele>
        <time>2018-10-12T14:46:59Z</time>
      </trkpt>
      <trkpt lat="38.32824949" lon="-2.42714501">
        <ele>892.00000</ele>
        <time>2018-10-12T14:47:03Z</time>
      </trkpt>
      <trkpt lat="38.32826273" lon="-2.42698987">
        <ele>892.00000</ele>
        <time>2018-10-12T14:47:05Z</time>
      </trkpt>
      <trkpt lat="38.32831570" lon="-2.42647304">
        <ele>892.00000</ele>
        <time>2018-10-12T14:47:13Z</time>
      </trkpt>
      <trkpt lat="38.32831780" lon="-2.42626709">
        <ele>894.00000</ele>
        <time>2018-10-12T14:47:17Z</time>
      </trkpt>
      <trkpt lat="38.32831394" lon="-2.42621429">
        <ele>894.00000</ele>
        <time>2018-10-12T14:47:18Z</time>
      </trkpt>
      <trkpt lat="38.32830548" lon="-2.42616282">
        <ele>894.00000</ele>
        <time>2018-10-12T14:47:19Z</time>
      </trkpt>
      <trkpt lat="38.32811102" lon="-2.42581732">
        <ele>895.00000</ele>
        <time>2018-10-12T14:47:26Z</time>
      </trkpt>
      <trkpt lat="38.32806534" lon="-2.42577348">
        <ele>895.00000</ele>
        <time>2018-10-12T14:47:27Z</time>
      </trkpt>
      <trkpt lat="38.32754264" lon="-2.42570794">
        <ele>893.00000</ele>
        <time>2018-10-12T14:47:35Z</time>
      </trkpt>
      <trkpt lat="38.32747123" lon="-2.42576125">
        <ele>893.00000</ele>
        <time>2018-10-12T14:47:36Z</time>
      </trkpt>
      <trkpt lat="38.32739939" lon="-2.42581816">
        <ele>893.00000</ele>
        <time>2018-10-12T14:47:37Z</time>
      </trkpt>
      <trkpt lat="38.32725489" lon="-2.42594799">
        <ele>892.00000</ele>
        <time>2018-10-12T14:47:39Z</time>
      </trkpt>
      <trkpt lat="38.32710284" lon="-2.42608722">
        <ele>890.00000</ele>
        <time>2018-10-12T14:47:41Z</time>
      </trkpt>
      <trkpt lat="38.32702238" lon="-2.42614137">
        <ele>889.00000</ele>
        <time>2018-10-12T14:47:42Z</time>
      </trkpt>
      <trkpt lat="38.32693596" lon="-2.42617623">
        <ele>889.00000</ele>
        <time>2018-10-12T14:47:43Z</time>
      </trkpt>
      <trkpt lat="38.32675944" lon="-2.42618177">
        <ele>888.00000</ele>
        <time>2018-10-12T14:47:45Z</time>
      </trkpt>
      <trkpt lat="38.32656045" lon="-2.42602905">
        <ele>887.00000</ele>
        <time>2018-10-12T14:47:48Z</time>
      </trkpt>
      <trkpt lat="38.32650949" lon="-2.42597389">
        <ele>887.00000</ele>
        <time>2018-10-12T14:47:49Z</time>
      </trkpt>
      <trkpt lat="38.32637328" lon="-2.42583232">
        <ele>887.00000</ele>
        <time>2018-10-12T14:47:52Z</time>
      </trkpt>
      <trkpt lat="38.32629164" lon="-2.42575295">
        <ele>887.00000</ele>
        <time>2018-10-12T14:47:54Z</time>
      </trkpt>
      <trkpt lat="38.32607707" lon="-2.42554876">
        <ele>889.00000</ele>
        <time>2018-10-12T14:48:00Z</time>
      </trkpt>
      <trkpt lat="38.32604262" lon="-2.42551809">
        <ele>889.00000</ele>
        <time>2018-10-12T14:48:01Z</time>
      </trkpt>
      <trkpt lat="38.32597573" lon="-2.42545405">
        <ele>890.00000</ele>
        <time>2018-10-12T14:48:03Z</time>
      </trkpt>
      <trkpt lat="38.32588881" lon="-2.42534525">
        <ele>891.00000</ele>
        <time>2018-10-12T14:48:06Z</time>
      </trkpt>
      <trkpt lat="38.32577657" lon="-2.42521198">
        <ele>892.00000</ele>
        <time>2018-10-12T14:48:10Z</time>
      </trkpt>
      <trkpt lat="38.32574162" lon="-2.42518977">
        <ele>892.00000</ele>
        <time>2018-10-12T14:48:11Z</time>
      </trkpt>
      <trkpt lat="38.32558890" lon="-2.42520226">
        <ele>893.00000</ele>
        <time>2018-10-12T14:48:15Z</time>
      </trkpt>
      <trkpt lat="38.32555060" lon="-2.42521785">
        <ele>893.00000</ele>
        <time>2018-10-12T14:48:16Z</time>
      </trkpt>
      <trkpt lat="38.32551338" lon="-2.42523947">
        <ele>894.00000</ele>
        <time>2018-10-12T14:48:17Z</time>
      </trkpt>
      <trkpt lat="38.32541288" lon="-2.42533092">
        <ele>894.00000</ele>
        <time>2018-10-12T14:48:20Z</time>
      </trkpt>
      <trkpt lat="38.32538346" lon="-2.42536788">
        <ele>895.00000</ele>
        <time>2018-10-12T14:48:21Z</time>
      </trkpt>
      <trkpt lat="38.32530953" lon="-2.42549101">
        <ele>895.00000</ele>
        <time>2018-10-12T14:48:24Z</time>
      </trkpt>
      <trkpt lat="38.32521348" lon="-2.42569897">
        <ele>896.00000</ele>
        <time>2018-10-12T14:48:28Z</time>
      </trkpt>
      <trkpt lat="38.32497174" lon="-2.42631923">
        <ele>896.00000</ele>
        <time>2018-10-12T14:48:36Z</time>
      </trkpt>
      <trkpt lat="38.32491542" lon="-2.42652601">
        <ele>895.00000</ele>
        <time>2018-10-12T14:48:38Z</time>
      </trkpt>
      <trkpt lat="38.32488273" lon="-2.42676372">
        <ele>894.00000</ele>
        <time>2018-10-12T14:48:40Z</time>
      </trkpt>
      <trkpt lat="38.32484845" lon="-2.42701401">
        <ele>893.00000</ele>
        <time>2018-10-12T14:48:42Z</time>
      </trkpt>
      <trkpt lat="38.32479170" lon="-2.42725390">
        <ele>891.00000</ele>
        <time>2018-10-12T14:48:44Z</time>
      </trkpt>
      <trkpt lat="38.32475901" lon="-2.42736051">
        <ele>890.00000</ele>
        <time>2018-10-12T14:48:45Z</time>
      </trkpt>
      <trkpt lat="38.32472540" lon="-2.42745716">
        <ele>889.00000</ele>
        <time>2018-10-12T14:48:46Z</time>
      </trkpt>
      <trkpt lat="38.32468357" lon="-2.42754232">
        <ele>888.00000</ele>
        <time>2018-10-12T14:48:47Z</time>
      </trkpt>
      <trkpt lat="38.32464016" lon="-2.42761130">
        <ele>887.00000</ele>
        <time>2018-10-12T14:48:48Z</time>
      </trkpt>
      <trkpt lat="38.32459246" lon="-2.42767031">
        <ele>886.00000</ele>
        <time>2018-10-12T14:48:49Z</time>
      </trkpt>
      <trkpt lat="38.32447386" lon="-2.42773728">
        <ele>884.00000</ele>
        <time>2018-10-12T14:48:51Z</time>
      </trkpt>
      <trkpt lat="38.32433086" lon="-2.42772320">
        <ele>883.00000</ele>
        <time>2018-10-12T14:48:53Z</time>
      </trkpt>
      <trkpt lat="38.32418770" lon="-2.42761951">
        <ele>883.00000</ele>
        <time>2018-10-12T14:48:55Z</time>
      </trkpt>
      <trkpt lat="38.32411444" lon="-2.42754885">
        <ele>883.00000</ele>
        <time>2018-10-12T14:48:56Z</time>
      </trkpt>
      <trkpt lat="38.32395368" lon="-2.42740343">
        <ele>882.00000</ele>
        <time>2018-10-12T14:48:58Z</time>
      </trkpt>
      <trkpt lat="38.32375410" lon="-2.42727267">
        <ele>880.00000</ele>
        <time>2018-10-12T14:49:00Z</time>
      </trkpt>
      <trkpt lat="38.32364195" lon="-2.42722020">
        <ele>879.00000</ele>
        <time>2018-10-12T14:49:01Z</time>
      </trkpt>
      <trkpt lat="38.32352503" lon="-2.42717024">
        <ele>878.00000</ele>
        <time>2018-10-12T14:49:02Z</time>
      </trkpt>
      <trkpt lat="38.32340567" lon="-2.42711794">
        <ele>877.00000</ele>
        <time>2018-10-12T14:49:03Z</time>
      </trkpt>
      <trkpt lat="38.32328631" lon="-2.42707100">
        <ele>876.00000</ele>
        <time>2018-10-12T14:49:04Z</time>
      </trkpt>
      <trkpt lat="38.32304793" lon="-2.42701216">
        <ele>873.00000</ele>
        <time>2018-10-12T14:49:06Z</time>
      </trkpt>
      <trkpt lat="38.32293033" lon="-2.42699515">
        <ele>871.00000</ele>
        <time>2018-10-12T14:49:07Z</time>
      </trkpt>
      <trkpt lat="38.32281617" lon="-2.42698098">
        <ele>870.00000</ele>
        <time>2018-10-12T14:49:08Z</time>
      </trkpt>
      <trkpt lat="38.32270268" lon="-2.42697101">
        <ele>868.00000</ele>
        <time>2018-10-12T14:49:09Z</time>
      </trkpt>
      <trkpt lat="38.32258852" lon="-2.42696070">
        <ele>865.00000</ele>
        <time>2018-10-12T14:49:10Z</time>
      </trkpt>
      <trkpt lat="38.32247226" lon="-2.42694561">
        <ele>863.00000</ele>
        <time>2018-10-12T14:49:11Z</time>
      </trkpt>
      <trkpt lat="38.32235693" lon="-2.42692004">
        <ele>862.00000</ele>
        <time>2018-10-12T14:49:12Z</time>
      </trkpt>
      <trkpt lat="38.32224402" lon="-2.42687864">
        <ele>861.00000</ele>
        <time>2018-10-12T14:49:13Z</time>
      </trkpt>
      <trkpt lat="38.32202073" lon="-2.42677244">
        <ele>859.00000</ele>
        <time>2018-10-12T14:49:15Z</time>
      </trkpt>
      <trkpt lat="38.32179517" lon="-2.42666180">
        <ele>857.00000</ele>
        <time>2018-10-12T14:49:17Z</time>
      </trkpt>
      <trkpt lat="38.32158177" lon="-2.42654462">
        <ele>855.00000</ele>
        <time>2018-10-12T14:49:19Z</time>
      </trkpt>
      <trkpt lat="38.32148571" lon="-2.42647513">
        <ele>854.00000</ele>
        <time>2018-10-12T14:49:20Z</time>
      </trkpt>
      <trkpt lat="38.32139753" lon="-2.42640481">
        <ele>852.00000</ele>
        <time>2018-10-12T14:49:21Z</time>
      </trkpt>
      <trkpt lat="38.32130751" lon="-2.42630112">
        <ele>851.00000</ele>
        <time>2018-10-12T14:49:22Z</time>
      </trkpt>
      <trkpt lat="38.32109436" lon="-2.42614371">
        <ele>850.00000</ele>
        <time>2018-10-12T14:49:25Z</time>
      </trkpt>
      <trkpt lat="38.32076160" lon="-2.42601664">
        <ele>852.00000</ele>
        <time>2018-10-12T14:49:32Z</time>
      </trkpt>
      <trkpt lat="38.32070904" lon="-2.42600541">
        <ele>853.00000</ele>
        <time>2018-10-12T14:49:33Z</time>
      </trkpt>
      <trkpt lat="38.32051819" lon="-2.42595965">
        <ele>854.00000</ele>
        <time>2018-10-12T14:49:36Z</time>
      </trkpt>
      <trkpt lat="38.32036203" lon="-2.42591078">
        <ele>854.00000</ele>
        <time>2018-10-12T14:49:38Z</time>
      </trkpt>
      <trkpt lat="38.31995048" lon="-2.42579360">
        <ele>854.00000</ele>
        <time>2018-10-12T14:49:43Z</time>
      </trkpt>
      <trkpt lat="38.31978578" lon="-2.42571908">
        <ele>853.00000</ele>
        <time>2018-10-12T14:49:45Z</time>
      </trkpt>
      <trkpt lat="38.31963197" lon="-2.42562144">
        <ele>851.00000</ele>
        <time>2018-10-12T14:49:47Z</time>
      </trkpt>
      <trkpt lat="38.31948009" lon="-2.42552228">
        <ele>849.00000</ele>
        <time>2018-10-12T14:49:49Z</time>
      </trkpt>
      <trkpt lat="38.31940230" lon="-2.42547752">
        <ele>848.00000</ele>
        <time>2018-10-12T14:49:50Z</time>
      </trkpt>
      <trkpt lat="38.31924296" lon="-2.42540719">
        <ele>847.00000</ele>
        <time>2018-10-12T14:49:52Z</time>
      </trkpt>
      <trkpt lat="38.31916166" lon="-2.42538699">
        <ele>847.00000</ele>
        <time>2018-10-12T14:49:53Z</time>
      </trkpt>
      <trkpt lat="38.31883586" lon="-2.42535766">
        <ele>846.00000</ele>
        <time>2018-10-12T14:49:57Z</time>
      </trkpt>
      <trkpt lat="38.31875463" lon="-2.42535313">
        <ele>846.00000</ele>
        <time>2018-10-12T14:49:58Z</time>
      </trkpt>
      <trkpt lat="38.31867417" lon="-2.42534098">
        <ele>846.00000</ele>
        <time>2018-10-12T14:49:59Z</time>
      </trkpt>
      <trkpt lat="38.31838642" lon="-2.42519756">
        <ele>846.00000</ele>
        <time>2018-10-12T14:50:03Z</time>
      </trkpt>
      <trkpt lat="38.31786691" lon="-2.42496362">
        <ele>845.00000</ele>
        <time>2018-10-12T14:50:11Z</time>
      </trkpt>
      <trkpt lat="38.31759600" lon="-2.42489062">
        <ele>845.00000</ele>
        <time>2018-10-12T14:50:15Z</time>
      </trkpt>
      <trkpt lat="38.31746960" lon="-2.42482122">
        <ele>845.00000</ele>
        <time>2018-10-12T14:50:17Z</time>
      </trkpt>
      <trkpt lat="38.31722703" lon="-2.42464411">
        <ele>845.00000</ele>
        <time>2018-10-12T14:50:22Z</time>
      </trkpt>
      <trkpt lat="38.31708379" lon="-2.42459675">
        <ele>845.00000</ele>
        <time>2018-10-12T14:50:25Z</time>
      </trkpt>
      <trkpt lat="38.31674633" lon="-2.42467286">
        <ele>846.00000</ele>
        <time>2018-10-12T14:50:31Z</time>
      </trkpt>
      <trkpt lat="38.31627435" lon="-2.42486950">
        <ele>846.00000</ele>
        <time>2018-10-12T14:50:38Z</time>
      </trkpt>
      <trkpt lat="38.31613051" lon="-2.42490881">
        <ele>845.00000</ele>
        <time>2018-10-12T14:50:40Z</time>
      </trkpt>
      <trkpt lat="38.31591770" lon="-2.42497192">
        <ele>844.00000</ele>
        <time>2018-10-12T14:50:43Z</time>
      </trkpt>
      <trkpt lat="38.31577604" lon="-2.42501551">
        <ele>842.00000</ele>
        <time>2018-10-12T14:50:45Z</time>
      </trkpt>
      <trkpt lat="38.31563388" lon="-2.42505624">
        <ele>841.00000</ele>
        <time>2018-10-12T14:50:47Z</time>
      </trkpt>
      <trkpt lat="38.31514572" lon="-2.42528633">
        <ele>840.00000</ele>
        <time>2018-10-12T14:50:54Z</time>
      </trkpt>
      <trkpt lat="38.31479578" lon="-2.42549110">
        <ele>839.00000</ele>
        <time>2018-10-12T14:50:59Z</time>
      </trkpt>
      <trkpt lat="38.31465127" lon="-2.42556410">
        <ele>838.00000</ele>
        <time>2018-10-12T14:51:01Z</time>
      </trkpt>
      <trkpt lat="38.31435975" lon="-2.42569704">
        <ele>837.00000</ele>
        <time>2018-10-12T14:51:05Z</time>
      </trkpt>
      <trkpt lat="38.31421047" lon="-2.42575328">
        <ele>837.00000</ele>
        <time>2018-10-12T14:51:07Z</time>
      </trkpt>
      <trkpt lat="38.31413604" lon="-2.42578094">
        <ele>837.00000</ele>
        <time>2018-10-12T14:51:08Z</time>
      </trkpt>
      <trkpt lat="38.31384426" lon="-2.42588060">
        <ele>836.00000</ele>
        <time>2018-10-12T14:51:12Z</time>
      </trkpt>
      <trkpt lat="38.31378241" lon="-2.42591170">
        <ele>836.00000</ele>
        <time>2018-10-12T14:51:13Z</time>
      </trkpt>
      <trkpt lat="38.31366900" lon="-2.42599309">
        <ele>836.00000</ele>
        <time>2018-10-12T14:51:15Z</time>
      </trkpt>
      <trkpt lat="38.31348175" lon="-2.42625444">
        <ele>836.00000</ele>
        <time>2018-10-12T14:51:19Z</time>
      </trkpt>
      <trkpt lat="38.31339382" lon="-2.42639525">
        <ele>836.00000</ele>
        <time>2018-10-12T14:51:21Z</time>
      </trkpt>
      <trkpt lat="38.31320632" lon="-2.42654294">
        <ele>835.00000</ele>
        <time>2018-10-12T14:51:24Z</time>
      </trkpt>
      <trkpt lat="38.31313222" lon="-2.42658368">
        <ele>834.00000</ele>
        <time>2018-10-12T14:51:25Z</time>
      </trkpt>
      <trkpt lat="38.31305829" lon="-2.42663271">
        <ele>834.00000</ele>
        <time>2018-10-12T14:51:26Z</time>
      </trkpt>
      <trkpt lat="38.31299107" lon="-2.42669013">
        <ele>834.00000</ele>
        <time>2018-10-12T14:51:27Z</time>
      </trkpt>
      <trkpt lat="38.31283441" lon="-2.42690797">
        <ele>832.00000</ele>
        <time>2018-10-12T14:51:30Z</time>
      </trkpt>
      <trkpt lat="38.31278823" lon="-2.42699204">
        <ele>832.00000</ele>
        <time>2018-10-12T14:51:31Z</time>
      </trkpt>
      <trkpt lat="38.31270433" lon="-2.42716597">
        <ele>831.00000</ele>
        <time>2018-10-12T14:51:33Z</time>
      </trkpt>
      <trkpt lat="38.31261648" lon="-2.42732849">
        <ele>830.00000</ele>
        <time>2018-10-12T14:51:35Z</time>
      </trkpt>
      <trkpt lat="38.31251900" lon="-2.42746311">
        <ele>830.00000</ele>
        <time>2018-10-12T14:51:37Z</time>
      </trkpt>
      <trkpt lat="38.31246837" lon="-2.42752002">
        <ele>830.00000</ele>
        <time>2018-10-12T14:51:38Z</time>
      </trkpt>
      <trkpt lat="38.31231423" lon="-2.42764600">
        <ele>830.00000</ele>
        <time>2018-10-12T14:51:41Z</time>
      </trkpt>
      <trkpt lat="38.31202313" lon="-2.42771356">
        <ele>830.00000</ele>
        <time>2018-10-12T14:51:46Z</time>
      </trkpt>
      <trkpt lat="38.31189103" lon="-2.42771255">
        <ele>830.00000</ele>
        <time>2018-10-12T14:51:48Z</time>
      </trkpt>
      <trkpt lat="38.31153329" lon="-2.42771951">
        <ele>830.00000</ele>
        <time>2018-10-12T14:51:53Z</time>
      </trkpt>
      <trkpt lat="38.31146104" lon="-2.42773368">
        <ele>830.00000</ele>
        <time>2018-10-12T14:51:54Z</time>
      </trkpt>
      <trkpt lat="38.31118561" lon="-2.42793752">
        <ele>829.00000</ele>
        <time>2018-10-12T14:51:58Z</time>
      </trkpt>
      <trkpt lat="38.31111906" lon="-2.42800332">
        <ele>829.00000</ele>
        <time>2018-10-12T14:51:59Z</time>
      </trkpt>
      <trkpt lat="38.31104580" lon="-2.42806476">
        <ele>829.00000</ele>
        <time>2018-10-12T14:52:00Z</time>
      </trkpt>
      <trkpt lat="38.31089073" lon="-2.42816668">
        <ele>827.00000</ele>
        <time>2018-10-12T14:52:02Z</time>
      </trkpt>
      <trkpt lat="38.31073600" lon="-2.42825629">
        <ele>826.00000</ele>
        <time>2018-10-12T14:52:04Z</time>
      </trkpt>
      <trkpt lat="38.31059519" lon="-2.42834111">
        <ele>824.00000</ele>
        <time>2018-10-12T14:52:06Z</time>
      </trkpt>
      <trkpt lat="38.31047667" lon="-2.42843683">
        <ele>822.00000</ele>
        <time>2018-10-12T14:52:08Z</time>
      </trkpt>
      <trkpt lat="38.31042788" lon="-2.42850305">
        <ele>821.00000</ele>
        <time>2018-10-12T14:52:09Z</time>
      </trkpt>
      <trkpt lat="38.31039151" lon="-2.42858536">
        <ele>819.00000</ele>
        <time>2018-10-12T14:52:10Z</time>
      </trkpt>
      <trkpt lat="38.31036083" lon="-2.42868511">
        <ele>818.00000</ele>
        <time>2018-10-12T14:52:11Z</time>
      </trkpt>
      <trkpt lat="38.31030559" lon="-2.42890060">
        <ele>817.00000</ele>
        <time>2018-10-12T14:52:13Z</time>
      </trkpt>
      <trkpt lat="38.31025212" lon="-2.42911518">
        <ele>815.00000</ele>
        <time>2018-10-12T14:52:15Z</time>
      </trkpt>
      <trkpt lat="38.31017777" lon="-2.42930470">
        <ele>814.00000</ele>
        <time>2018-10-12T14:52:17Z</time>
      </trkpt>
      <trkpt lat="38.31013879" lon="-2.42939019">
        <ele>812.00000</ele>
        <time>2018-10-12T14:52:18Z</time>
      </trkpt>
      <trkpt lat="38.31009898" lon="-2.42947351">
        <ele>811.00000</ele>
        <time>2018-10-12T14:52:19Z</time>
      </trkpt>
      <trkpt lat="38.31005606" lon="-2.42955917">
        <ele>810.00000</ele>
        <time>2018-10-12T14:52:20Z</time>
      </trkpt>
      <trkpt lat="38.31001306" lon="-2.42964634">
        <ele>809.00000</ele>
        <time>2018-10-12T14:52:21Z</time>
      </trkpt>
      <trkpt lat="38.30997283" lon="-2.42972957">
        <ele>807.00000</ele>
        <time>2018-10-12T14:52:22Z</time>
      </trkpt>
      <trkpt lat="38.30993788" lon="-2.42981608">
        <ele>806.00000</ele>
        <time>2018-10-12T14:52:23Z</time>
      </trkpt>
      <trkpt lat="38.30988616" lon="-2.43002026">
        <ele>804.00000</ele>
        <time>2018-10-12T14:52:25Z</time>
      </trkpt>
      <trkpt lat="38.30985414" lon="-2.43022997">
        <ele>802.00000</ele>
        <time>2018-10-12T14:52:27Z</time>
      </trkpt>
      <trkpt lat="38.30982648" lon="-2.43043365">
        <ele>801.00000</ele>
        <time>2018-10-12T14:52:29Z</time>
      </trkpt>
      <trkpt lat="38.30982028" lon="-2.43062619">
        <ele>798.00000</ele>
        <time>2018-10-12T14:52:31Z</time>
      </trkpt>
      <trkpt lat="38.30982397" lon="-2.43072308">
        <ele>797.00000</ele>
        <time>2018-10-12T14:52:32Z</time>
      </trkpt>
      <trkpt lat="38.30983344" lon="-2.43081755">
        <ele>796.00000</ele>
        <time>2018-10-12T14:52:33Z</time>
      </trkpt>
      <trkpt lat="38.30987996" lon="-2.43098275">
        <ele>794.00000</ele>
        <time>2018-10-12T14:52:35Z</time>
      </trkpt>
      <trkpt lat="38.30993830" lon="-2.43115969">
        <ele>793.00000</ele>
        <time>2018-10-12T14:52:37Z</time>
      </trkpt>
      <trkpt lat="38.30996671" lon="-2.43125575">
        <ele>792.00000</ele>
        <time>2018-10-12T14:52:38Z</time>
      </trkpt>
      <trkpt lat="38.31001189" lon="-2.43144778">
        <ele>790.00000</ele>
        <time>2018-10-12T14:52:40Z</time>
      </trkpt>
      <trkpt lat="38.31003913" lon="-2.43176353">
        <ele>790.00000</ele>
        <time>2018-10-12T14:52:43Z</time>
      </trkpt>
      <trkpt lat="38.31005606" lon="-2.43186227">
        <ele>789.00000</ele>
        <time>2018-10-12T14:52:44Z</time>
      </trkpt>
      <trkpt lat="38.31007786" lon="-2.43196159">
        <ele>788.00000</ele>
        <time>2018-10-12T14:52:45Z</time>
      </trkpt>
      <trkpt lat="38.31014315" lon="-2.43215689">
        <ele>786.00000</ele>
        <time>2018-10-12T14:52:47Z</time>
      </trkpt>
      <trkpt lat="38.31022932" lon="-2.43233819">
        <ele>785.00000</ele>
        <time>2018-10-12T14:52:49Z</time>
      </trkpt>
      <trkpt lat="38.31026871" lon="-2.43251765">
        <ele>784.00000</ele>
        <time>2018-10-12T14:52:51Z</time>
      </trkpt>
      <trkpt lat="38.31020400" lon="-2.43273725">
        <ele>783.00000</ele>
        <time>2018-10-12T14:52:54Z</time>
      </trkpt>
      <trkpt lat="38.31009152" lon="-2.43288033">
        <ele>783.00000</ele>
        <time>2018-10-12T14:52:57Z</time>
      </trkpt>
      <trkpt lat="38.31005774" lon="-2.43291914">
        <ele>783.00000</ele>
        <time>2018-10-12T14:52:58Z</time>
      </trkpt>
      <trkpt lat="38.30999144" lon="-2.43299826">
        <ele>783.00000</ele>
        <time>2018-10-12T14:53:00Z</time>
      </trkpt>
      <trkpt lat="38.30995632" lon="-2.43304001">
        <ele>783.00000</ele>
        <time>2018-10-12T14:53:01Z</time>
      </trkpt>
      <trkpt lat="38.30988851" lon="-2.43313162">
        <ele>783.00000</ele>
        <time>2018-10-12T14:53:03Z</time>
      </trkpt>
      <trkpt lat="38.30985607" lon="-2.43318267">
        <ele>783.00000</ele>
        <time>2018-10-12T14:53:04Z</time>
      </trkpt>
      <trkpt lat="38.30976538" lon="-2.43334360">
        <ele>784.00000</ele>
        <time>2018-10-12T14:53:07Z</time>
      </trkpt>
      <trkpt lat="38.30971609" lon="-2.43345399">
        <ele>785.00000</ele>
        <time>2018-10-12T14:53:09Z</time>
      </trkpt>
      <trkpt lat="38.30964946" lon="-2.43363806">
        <ele>786.00000</ele>
        <time>2018-10-12T14:53:12Z</time>
      </trkpt>
      <trkpt lat="38.30961668" lon="-2.43377208">
        <ele>786.00000</ele>
        <time>2018-10-12T14:53:14Z</time>
      </trkpt>
      <trkpt lat="38.30959321" lon="-2.43420249">
        <ele>786.00000</ele>
        <time>2018-10-12T14:53:20Z</time>
      </trkpt>
      <trkpt lat="38.30965926" lon="-2.43480239">
        <ele>787.00000</ele>
        <time>2018-10-12T14:53:29Z</time>
      </trkpt>
      <trkpt lat="38.30970763" lon="-2.43506155">
        <ele>787.00000</ele>
        <time>2018-10-12T14:53:33Z</time>
      </trkpt>
      <trkpt lat="38.30972456" lon="-2.43512165">
        <ele>787.00000</ele>
        <time>2018-10-12T14:53:34Z</time>
      </trkpt>
      <trkpt lat="38.30979807" lon="-2.43536582">
        <ele>787.00000</ele>
        <time>2018-10-12T14:53:38Z</time>
      </trkpt>
      <trkpt lat="38.30987183" lon="-2.43551292">
        <ele>787.00000</ele>
        <time>2018-10-12T14:53:41Z</time>
      </trkpt>
      <trkpt lat="38.31001047" lon="-2.43570738">
        <ele>788.00000</ele>
        <time>2018-10-12T14:53:46Z</time>
      </trkpt>
      <trkpt lat="38.31044917" lon="-2.43613603">
        <ele>789.00000</ele>
        <time>2018-10-12T14:53:59Z</time>
      </trkpt>
      <trkpt lat="38.31063534" lon="-2.43632772">
        <ele>789.00000</ele>
        <time>2018-10-12T14:54:04Z</time>
      </trkpt>
      <trkpt lat="38.31074137" lon="-2.43645027">
        <ele>789.00000</ele>
        <time>2018-10-12T14:54:07Z</time>
      </trkpt>
      <trkpt lat="38.31100531" lon="-2.43683307">
        <ele>790.00000</ele>
        <time>2018-10-12T14:54:16Z</time>
      </trkpt>
      <trkpt lat="38.31117387" lon="-2.43707195">
        <ele>791.00000</ele>
        <time>2018-10-12T14:54:22Z</time>
      </trkpt>
      <trkpt lat="38.31144746" lon="-2.43747328">
        <ele>793.00000</ele>
        <time>2018-10-12T14:54:32Z</time>
      </trkpt>
      <trkpt lat="38.31165810" lon="-2.43778400">
        <ele>794.00000</ele>
        <time>2018-10-12T14:54:40Z</time>
      </trkpt>
      <trkpt lat="38.31176756" lon="-2.43792297">
        <ele>795.00000</ele>
        <time>2018-10-12T14:54:44Z</time>
      </trkpt>
      <trkpt lat="38.31189681" lon="-2.43804518">
        <ele>796.00000</ele>
        <time>2018-10-12T14:54:48Z</time>
      </trkpt>
      <trkpt lat="38.31229722" lon="-2.43851314">
        <ele>797.00000</ele>
        <time>2018-10-12T14:54:58Z</time>
      </trkpt>
      <trkpt lat="38.31264481" lon="-2.43909912">
        <ele>795.00000</ele>
        <time>2018-10-12T14:55:07Z</time>
      </trkpt>
      <trkpt lat="38.31277063" lon="-2.43918302">
        <ele>795.00000</ele>
        <time>2018-10-12T14:55:09Z</time>
      </trkpt>
      <trkpt lat="38.31290625" lon="-2.43924714">
        <ele>795.00000</ele>
        <time>2018-10-12T14:55:11Z</time>
      </trkpt>
      <trkpt lat="38.31299149" lon="-2.43936055">
        <ele>794.00000</ele>
        <time>2018-10-12T14:55:13Z</time>
      </trkpt>
      <trkpt lat="38.31299073" lon="-2.43942836">
        <ele>794.00000</ele>
        <time>2018-10-12T14:55:14Z</time>
      </trkpt>
      <trkpt lat="38.31296333" lon="-2.43948938">
        <ele>794.00000</ele>
        <time>2018-10-12T14:55:15Z</time>
      </trkpt>
      <trkpt lat="38.31286350" lon="-2.43956331">
        <ele>793.00000</ele>
        <time>2018-10-12T14:55:17Z</time>
      </trkpt>
      <trkpt lat="38.31254214" lon="-2.43954671">
        <ele>792.00000</ele>
        <time>2018-10-12T14:55:22Z</time>
      </trkpt>
      <trkpt lat="38.31232303" lon="-2.43946515">
        <ele>792.00000</ele>
        <time>2018-10-12T14:55:25Z</time>
      </trkpt>
      <trkpt lat="38.31224952" lon="-2.43943003">
        <ele>792.00000</ele>
        <time>2018-10-12T14:55:26Z</time>
      </trkpt>
      <trkpt lat="38.31172507" lon="-2.43911219">
        <ele>791.00000</ele>
        <time>2018-10-12T14:55:34Z</time>
      </trkpt>
      <trkpt lat="38.31144838" lon="-2.43896090">
        <ele>791.00000</ele>
        <time>2018-10-12T14:55:40Z</time>
      </trkpt>
      <trkpt lat="38.31129558" lon="-2.43896668">
        <ele>792.00000</ele>
        <time>2018-10-12T14:55:44Z</time>
      </trkpt>
      <trkpt lat="38.31122333" lon="-2.43899996">
        <ele>793.00000</ele>
        <time>2018-10-12T14:55:46Z</time>
      </trkpt>
      <trkpt lat="38.31115812" lon="-2.43905729">
        <ele>794.00000</ele>
        <time>2018-10-12T14:55:48Z</time>
      </trkpt>
      <trkpt lat="38.31112710" lon="-2.43909157">
        <ele>795.00000</ele>
        <time>2018-10-12T14:55:49Z</time>
      </trkpt>
      <trkpt lat="38.31109726" lon="-2.43912661">
        <ele>795.00000</ele>
        <time>2018-10-12T14:55:50Z</time>
      </trkpt>
      <trkpt lat="38.31096525" lon="-2.43925083">
        <ele>796.00000</ele>
        <time>2018-10-12T14:55:54Z</time>
      </trkpt>
      <trkpt lat="38.31085486" lon="-2.43932761">
        <ele>798.00000</ele>
        <time>2018-10-12T14:55:57Z</time>
      </trkpt>
      <trkpt lat="38.31065721" lon="-2.43942718">
        <ele>799.00000</ele>
        <time>2018-10-12T14:56:02Z</time>
      </trkpt>
      <trkpt lat="38.31040517" lon="-2.43950455">
        <ele>799.00000</ele>
        <time>2018-10-12T14:56:08Z</time>
      </trkpt>
      <trkpt lat="38.31002346" lon="-2.43955668">
        <ele>800.00000</ele>
        <time>2018-10-12T14:56:17Z</time>
      </trkpt>
      <trkpt lat="38.30977376" lon="-2.43956440">
        <ele>801.00000</ele>
        <time>2018-10-12T14:56:23Z</time>
      </trkpt>
      <trkpt lat="38.30955365" lon="-2.43952617">
        <ele>802.00000</ele>
        <time>2018-10-12T14:56:28Z</time>
      </trkpt>
      <trkpt lat="38.30942474" lon="-2.43945568">
        <ele>802.00000</ele>
        <time>2018-10-12T14:56:31Z</time>
      </trkpt>
      <trkpt lat="38.30927898" lon="-2.43930783">
        <ele>802.00000</ele>
        <time>2018-10-12T14:56:35Z</time>
      </trkpt>
      <trkpt lat="38.30908980" lon="-2.43910389">
        <ele>802.00000</ele>
        <time>2018-10-12T14:56:40Z</time>
      </trkpt>
      <trkpt lat="38.30888360" lon="-2.43899577">
        <ele>802.00000</ele>
        <time>2018-10-12T14:56:44Z</time>
      </trkpt>
      <trkpt lat="38.30841975" lon="-2.43877926">
        <ele>801.00000</ele>
        <time>2018-10-12T14:56:52Z</time>
      </trkpt>
      <trkpt lat="38.30836736" lon="-2.43873526">
        <ele>801.00000</ele>
        <time>2018-10-12T14:56:53Z</time>
      </trkpt>
      <trkpt lat="38.30821439" lon="-2.43850819">
        <ele>800.00000</ele>
        <time>2018-10-12T14:56:57Z</time>
      </trkpt>
      <trkpt lat="38.30797542" lon="-2.43810527">
        <ele>801.00000</ele>
        <time>2018-10-12T14:57:05Z</time>
      </trkpt>
      <trkpt lat="38.30791843" lon="-2.43801626">
        <ele>802.00000</ele>
        <time>2018-10-12T14:57:07Z</time>
      </trkpt>
      <trkpt lat="38.30779052" lon="-2.43786815">
        <ele>803.00000</ele>
        <time>2018-10-12T14:57:11Z</time>
      </trkpt>
      <trkpt lat="38.30775381" lon="-2.43784066">
        <ele>804.00000</ele>
        <time>2018-10-12T14:57:12Z</time>
      </trkpt>
      <trkpt lat="38.30763026" lon="-2.43777486">
        <ele>804.00000</ele>
        <time>2018-10-12T14:57:15Z</time>
      </trkpt>
      <trkpt lat="38.30758650" lon="-2.43775064">
        <ele>804.00000</ele>
        <time>2018-10-12T14:57:16Z</time>
      </trkpt>
      <trkpt lat="38.30754283" lon="-2.43772004">
        <ele>805.00000</ele>
        <time>2018-10-12T14:57:17Z</time>
      </trkpt>
      <trkpt lat="38.30736782" lon="-2.43730011">
        <ele>805.00000</ele>
        <time>2018-10-12T14:57:23Z</time>
      </trkpt>
      <trkpt lat="38.30726246" lon="-2.43669133">
        <ele>803.00000</ele>
        <time>2018-10-12T14:57:29Z</time>
      </trkpt>
      <trkpt lat="38.30722952" lon="-2.43659326">
        <ele>803.00000</ele>
        <time>2018-10-12T14:57:30Z</time>
      </trkpt>
      <trkpt lat="38.30718836" lon="-2.43649947">
        <ele>802.00000</ele>
        <time>2018-10-12T14:57:31Z</time>
      </trkpt>
      <trkpt lat="38.30713790" lon="-2.43641079">
        <ele>800.00000</ele>
        <time>2018-10-12T14:57:32Z</time>
      </trkpt>
      <trkpt lat="38.30702450" lon="-2.43623779">
        <ele>799.00000</ele>
        <time>2018-10-12T14:57:34Z</time>
      </trkpt>
      <trkpt lat="38.30690966" lon="-2.43606663">
        <ele>797.00000</ele>
        <time>2018-10-12T14:57:36Z</time>
      </trkpt>
      <trkpt lat="38.30668495" lon="-2.43574007">
        <ele>796.00000</ele>
        <time>2018-10-12T14:57:40Z</time>
      </trkpt>
      <trkpt lat="38.30657472" lon="-2.43558970">
        <ele>796.00000</ele>
        <time>2018-10-12T14:57:42Z</time>
      </trkpt>
      <trkpt lat="38.30634942" lon="-2.43534076">
        <ele>795.00000</ele>
        <time>2018-10-12T14:57:46Z</time>
      </trkpt>
      <trkpt lat="38.30624733" lon="-2.43522668">
        <ele>795.00000</ele>
        <time>2018-10-12T14:57:48Z</time>
      </trkpt>
      <trkpt lat="38.30602940" lon="-2.43495770">
        <ele>795.00000</ele>
        <time>2018-10-12T14:57:53Z</time>
      </trkpt>
      <trkpt lat="38.30587299" lon="-2.43460625">
        <ele>794.00000</ele>
        <time>2018-10-12T14:57:57Z</time>
      </trkpt>
      <trkpt lat="38.30583435" lon="-2.43451908">
        <ele>794.00000</ele>
        <time>2018-10-12T14:57:58Z</time>
      </trkpt>
      <trkpt lat="38.30579319" lon="-2.43442646">
        <ele>793.00000</ele>
        <time>2018-10-12T14:57:59Z</time>
      </trkpt>
      <trkpt lat="38.30569689" lon="-2.43423258">
        <ele>791.00000</ele>
        <time>2018-10-12T14:58:01Z</time>
      </trkpt>
      <trkpt lat="38.30564274" lon="-2.43413175">
        <ele>790.00000</ele>
        <time>2018-10-12T14:58:02Z</time>
      </trkpt>
      <trkpt lat="38.30558683" lon="-2.43402983">
        <ele>788.00000</ele>
        <time>2018-10-12T14:58:03Z</time>
      </trkpt>
      <trkpt lat="38.30553344" lon="-2.43392581">
        <ele>787.00000</ele>
        <time>2018-10-12T14:58:04Z</time>
      </trkpt>
      <trkpt lat="38.30548265" lon="-2.43382221">
        <ele>786.00000</ele>
        <time>2018-10-12T14:58:05Z</time>
      </trkpt>
      <trkpt lat="38.30539338" lon="-2.43361718">
        <ele>784.00000</ele>
        <time>2018-10-12T14:58:07Z</time>
      </trkpt>
      <trkpt lat="38.30530394" lon="-2.43334058">
        <ele>783.00000</ele>
        <time>2018-10-12T14:58:10Z</time>
      </trkpt>
      <trkpt lat="38.30524988" lon="-2.43319147">
        <ele>783.00000</ele>
        <time>2018-10-12T14:58:12Z</time>
      </trkpt>
      <trkpt lat="38.30516489" lon="-2.43307731">
        <ele>783.00000</ele>
        <time>2018-10-12T14:58:14Z</time>
      </trkpt>
      <trkpt lat="38.30494109" lon="-2.43284203">
        <ele>784.00000</ele>
        <time>2018-10-12T14:58:19Z</time>
      </trkpt>
      <trkpt lat="38.30491167" lon="-2.43278721">
        <ele>784.00000</ele>
        <time>2018-10-12T14:58:20Z</time>
      </trkpt>
      <trkpt lat="38.30481134" lon="-2.43251061">
        <ele>785.00000</ele>
        <time>2018-10-12T14:58:24Z</time>
      </trkpt>
      <trkpt lat="38.30474244" lon="-2.43234909">
        <ele>785.00000</ele>
        <time>2018-10-12T14:58:26Z</time>
      </trkpt>
      <trkpt lat="38.30445586" lon="-2.43206075">
        <ele>784.00000</ele>
        <time>2018-10-12T14:58:31Z</time>
      </trkpt>
      <trkpt lat="38.30425017" lon="-2.43195463">
        <ele>784.00000</ele>
        <time>2018-10-12T14:58:34Z</time>
      </trkpt>
      <trkpt lat="38.30391506" lon="-2.43199780">
        <ele>783.00000</ele>
        <time>2018-10-12T14:58:39Z</time>
      </trkpt>
      <trkpt lat="38.30380258" lon="-2.43204927">
        <ele>783.00000</ele>
        <time>2018-10-12T14:58:41Z</time>
      </trkpt>
      <trkpt lat="38.30369747" lon="-2.43209277">
        <ele>783.00000</ele>
        <time>2018-10-12T14:58:43Z</time>
      </trkpt>
      <trkpt lat="38.30335197" lon="-2.43209235">
        <ele>784.00000</ele>
        <time>2018-10-12T14:58:49Z</time>
      </trkpt>
      <trkpt lat="38.30299565" lon="-2.43261295">
        <ele>784.00000</ele>
        <time>2018-10-12T14:58:56Z</time>
      </trkpt>
      <trkpt lat="38.30304645" lon="-2.43306959">
        <ele>783.00000</ele>
        <time>2018-10-12T14:59:00Z</time>
      </trkpt>
      <trkpt lat="38.30312507" lon="-2.43326372">
        <ele>781.00000</ele>
        <time>2018-10-12T14:59:02Z</time>
      </trkpt>
      <trkpt lat="38.30316999" lon="-2.43335098">
        <ele>780.00000</ele>
        <time>2018-10-12T14:59:03Z</time>
      </trkpt>
      <trkpt lat="38.30322322" lon="-2.43341736">
        <ele>779.00000</ele>
        <time>2018-10-12T14:59:04Z</time>
      </trkpt>
      <trkpt lat="38.30328256" lon="-2.43346690">
        <ele>778.00000</ele>
        <time>2018-10-12T14:59:05Z</time>
      </trkpt>
      <trkpt lat="38.30334576" lon="-2.43349707">
        <ele>776.00000</ele>
        <time>2018-10-12T14:59:06Z</time>
      </trkpt>
      <trkpt lat="38.30341332" lon="-2.43349967">
        <ele>775.00000</ele>
        <time>2018-10-12T14:59:07Z</time>
      </trkpt>
      <trkpt lat="38.30354207" lon="-2.43344016">
        <ele>774.00000</ele>
        <time>2018-10-12T14:59:09Z</time>
      </trkpt>
      <trkpt lat="38.30364609" lon="-2.43335223">
        <ele>772.00000</ele>
        <time>2018-10-12T14:59:11Z</time>
      </trkpt>
      <trkpt lat="38.30369126" lon="-2.43332650">
        <ele>772.00000</ele>
        <time>2018-10-12T14:59:12Z</time>
      </trkpt>
      <trkpt lat="38.30372957" lon="-2.43333580">
        <ele>771.00000</ele>
        <time>2018-10-12T14:59:13Z</time>
      </trkpt>
      <trkpt lat="38.30376452" lon="-2.43339724">
        <ele>770.00000</ele>
        <time>2018-10-12T14:59:15Z</time>
      </trkpt>
      <trkpt lat="38.30375958" lon="-2.43342666">
        <ele>768.00000</ele>
        <time>2018-10-12T14:59:16Z</time>
      </trkpt>
      <trkpt lat="38.30369755" lon="-2.43351493">
        <ele>766.00000</ele>
        <time>2018-10-12T14:59:18Z</time>
      </trkpt>
      <trkpt lat="38.30361206" lon="-2.43363269">
        <ele>765.00000</ele>
        <time>2018-10-12T14:59:20Z</time>
      </trkpt>
      <trkpt lat="38.30364818" lon="-2.43380888">
        <ele>764.00000</ele>
        <time>2018-10-12T14:59:23Z</time>
      </trkpt>
      <trkpt lat="38.30369554" lon="-2.43382967">
        <ele>763.00000</ele>
        <time>2018-10-12T14:59:24Z</time>
      </trkpt>
      <trkpt lat="38.30374474" lon="-2.43384215">
        <ele>762.00000</ele>
        <time>2018-10-12T14:59:25Z</time>
      </trkpt>
      <trkpt lat="38.30385656" lon="-2.43390670">
        <ele>760.00000</ele>
        <time>2018-10-12T14:59:27Z</time>
      </trkpt>
      <trkpt lat="38.30399477" lon="-2.43412077">
        <ele>759.00000</ele>
        <time>2018-10-12T14:59:30Z</time>
      </trkpt>
      <trkpt lat="38.30401481" lon="-2.43431674">
        <ele>757.00000</ele>
        <time>2018-10-12T14:59:32Z</time>
      </trkpt>
      <trkpt lat="38.30393635" lon="-2.43453785">
        <ele>756.00000</ele>
        <time>2018-10-12T14:59:34Z</time>
      </trkpt>
      <trkpt lat="38.30379067" lon="-2.43470641">
        <ele>755.00000</ele>
        <time>2018-10-12T14:59:36Z</time>
      </trkpt>
      <trkpt lat="38.30362161" lon="-2.43483047">
        <ele>754.00000</ele>
        <time>2018-10-12T14:59:38Z</time>
      </trkpt>
      <trkpt lat="38.30353402" lon="-2.43488227">
        <ele>754.00000</ele>
        <time>2018-10-12T14:59:39Z</time>
      </trkpt>
      <trkpt lat="38.30335498" lon="-2.43496038">
        <ele>752.00000</ele>
        <time>2018-10-12T14:59:41Z</time>
      </trkpt>
      <trkpt lat="38.30326345" lon="-2.43498645">
        <ele>751.00000</ele>
        <time>2018-10-12T14:59:42Z</time>
      </trkpt>
      <trkpt lat="38.30317066" lon="-2.43500531">
        <ele>749.00000</ele>
        <time>2018-10-12T14:59:43Z</time>
      </trkpt>
      <trkpt lat="38.30298249" lon="-2.43503113">
        <ele>747.00000</ele>
        <time>2018-10-12T14:59:45Z</time>
      </trkpt>
      <trkpt lat="38.30288845" lon="-2.43504605">
        <ele>746.00000</ele>
        <time>2018-10-12T14:59:46Z</time>
      </trkpt>
      <trkpt lat="38.30279390" lon="-2.43506273">
        <ele>745.00000</ele>
        <time>2018-10-12T14:59:47Z</time>
      </trkpt>
      <trkpt lat="38.30269851" lon="-2.43508041">
        <ele>744.00000</ele>
        <time>2018-10-12T14:59:48Z</time>
      </trkpt>
      <trkpt lat="38.30249818" lon="-2.43511000">
        <ele>742.00000</ele>
        <time>2018-10-12T14:59:50Z</time>
      </trkpt>
      <trkpt lat="38.30229870" lon="-2.43514973">
        <ele>740.00000</ele>
        <time>2018-10-12T14:59:52Z</time>
      </trkpt>
      <trkpt lat="38.30219702" lon="-2.43516189">
        <ele>740.00000</ele>
        <time>2018-10-12T14:59:53Z</time>
      </trkpt>
      <trkpt lat="38.30178287" lon="-2.43504596">
        <ele>739.00000</ele>
        <time>2018-10-12T14:59:57Z</time>
      </trkpt>
      <trkpt lat="38.30155857" lon="-2.43495167">
        <ele>738.00000</ele>
        <time>2018-10-12T14:59:59Z</time>
      </trkpt>
      <trkpt lat="38.30131650" lon="-2.43489056">
        <ele>737.00000</ele>
        <time>2018-10-12T15:00:01Z</time>
      </trkpt>
      <trkpt lat="38.30107402" lon="-2.43486693">
        <ele>736.00000</ele>
        <time>2018-10-12T15:00:03Z</time>
      </trkpt>
      <trkpt lat="38.30095415" lon="-2.43485393">
        <ele>735.00000</ele>
        <time>2018-10-12T15:00:04Z</time>
      </trkpt>
      <trkpt lat="38.30083974" lon="-2.43484212">
        <ele>734.00000</ele>
        <time>2018-10-12T15:00:05Z</time>
      </trkpt>
      <trkpt lat="38.30064310" lon="-2.43482929">
        <ele>732.00000</ele>
        <time>2018-10-12T15:00:07Z</time>
      </trkpt>
      <trkpt lat="38.30055752" lon="-2.43482292">
        <ele>731.00000</ele>
        <time>2018-10-12T15:00:08Z</time>
      </trkpt>
      <trkpt lat="38.30048167" lon="-2.43481764">
        <ele>729.00000</ele>
        <time>2018-10-12T15:00:09Z</time>
      </trkpt>
      <trkpt lat="38.30041847" lon="-2.43480096">
        <ele>728.00000</ele>
        <time>2018-10-12T15:00:10Z</time>
      </trkpt>
      <trkpt lat="38.30035552" lon="-2.43476668">
        <ele>726.00000</ele>
        <time>2018-10-12T15:00:11Z</time>
      </trkpt>
      <trkpt lat="38.30029500" lon="-2.43472066">
        <ele>725.00000</ele>
        <time>2018-10-12T15:00:12Z</time>
      </trkpt>
      <trkpt lat="38.30022987" lon="-2.43468018">
        <ele>723.00000</ele>
        <time>2018-10-12T15:00:13Z</time>
      </trkpt>
      <trkpt lat="38.30016735" lon="-2.43464196">
        <ele>722.00000</ele>
        <time>2018-10-12T15:00:14Z</time>
      </trkpt>
      <trkpt lat="38.30010926" lon="-2.43460474">
        <ele>721.00000</ele>
        <time>2018-10-12T15:00:15Z</time>
      </trkpt>
      <trkpt lat="38.29999803" lon="-2.43453953">
        <ele>720.00000</ele>
        <time>2018-10-12T15:00:17Z</time>
      </trkpt>
      <trkpt lat="38.29985160" lon="-2.43442587">
        <ele>719.00000</ele>
        <time>2018-10-12T15:00:20Z</time>
      </trkpt>
      <trkpt lat="38.29974582" lon="-2.43428866">
        <ele>719.00000</ele>
        <time>2018-10-12T15:00:23Z</time>
      </trkpt>
      <trkpt lat="38.29971606" lon="-2.43423409">
        <ele>719.00000</ele>
        <time>2018-10-12T15:00:24Z</time>
      </trkpt>
      <trkpt lat="38.29961691" lon="-2.43404240">
        <ele>720.00000</ele>
        <time>2018-10-12T15:00:27Z</time>
      </trkpt>
      <trkpt lat="38.29951113" lon="-2.43377971">
        <ele>721.00000</ele>
        <time>2018-10-12T15:00:31Z</time>
      </trkpt>
      <trkpt lat="38.29947559" lon="-2.43372087">
        <ele>721.00000</ele>
        <time>2018-10-12T15:00:32Z</time>
      </trkpt>
      <trkpt lat="38.29932253" lon="-2.43351476">
        <ele>722.00000</ele>
        <time>2018-10-12T15:00:36Z</time>
      </trkpt>
      <trkpt lat="38.29918918" lon="-2.43327596">
        <ele>722.00000</ele>
        <time>2018-10-12T15:00:40Z</time>
      </trkpt>
      <trkpt lat="38.29905834" lon="-2.43302148">
        <ele>722.00000</ele>
        <time>2018-10-12T15:00:44Z</time>
      </trkpt>
      <trkpt lat="38.29859289" lon="-2.43293372">
        <ele>722.00000</ele>
        <time>2018-10-12T15:00:51Z</time>
      </trkpt>
      <trkpt lat="38.29851469" lon="-2.43294211">
        <ele>722.00000</ele>
        <time>2018-10-12T15:00:52Z</time>
      </trkpt>
      <trkpt lat="38.29829039" lon="-2.43273725">
        <ele>721.00000</ele>
        <time>2018-10-12T15:00:56Z</time>
      </trkpt>
      <trkpt lat="38.29823959" lon="-2.43256459">
        <ele>720.00000</ele>
        <time>2018-10-12T15:00:58Z</time>
      </trkpt>
      <trkpt lat="38.29821612" lon="-2.43247800">
        <ele>719.00000</ele>
        <time>2018-10-12T15:00:59Z</time>
      </trkpt>
      <trkpt lat="38.29805653" lon="-2.43198950">
        <ele>718.00000</ele>
        <time>2018-10-12T15:01:05Z</time>
      </trkpt>
      <trkpt lat="38.29792401" lon="-2.43147997">
        <ele>718.00000</ele>
        <time>2018-10-12T15:01:11Z</time>
      </trkpt>
      <trkpt lat="38.29779728" lon="-2.43098669">
        <ele>718.00000</ele>
        <time>2018-10-12T15:01:16Z</time>
      </trkpt>
      <trkpt lat="38.29774791" lon="-2.43093322">
        <ele>718.00000</ele>
        <time>2018-10-12T15:01:17Z</time>
      </trkpt>
      <trkpt lat="38.29754213" lon="-2.43089550">
        <ele>716.00000</ele>
        <time>2018-10-12T15:01:20Z</time>
      </trkpt>
      <trkpt lat="38.29732177" lon="-2.43084470">
        <ele>715.00000</ele>
        <time>2018-10-12T15:01:23Z</time>
      </trkpt>
      <trkpt lat="38.29719252" lon="-2.43074135">
        <ele>715.00000</ele>
        <time>2018-10-12T15:01:25Z</time>
      </trkpt>
      <trkpt lat="38.29704836" lon="-2.43064069">
        <ele>714.00000</ele>
        <time>2018-10-12T15:01:27Z</time>
      </trkpt>
      <trkpt lat="38.29650320" lon="-2.43062501">
        <ele>713.00000</ele>
        <time>2018-10-12T15:01:34Z</time>
      </trkpt>
      <trkpt lat="38.29627588" lon="-2.43062803">
        <ele>713.00000</ele>
        <time>2018-10-12T15:01:37Z</time>
      </trkpt>
      <trkpt lat="38.29570717" lon="-2.43081956">
        <ele>713.00000</ele>
        <time>2018-10-12T15:01:45Z</time>
      </trkpt>
      <trkpt lat="38.29563718" lon="-2.43082911">
        <ele>713.00000</ele>
        <time>2018-10-12T15:01:46Z</time>
      </trkpt>
      <trkpt lat="38.29545730" lon="-2.43077823">
        <ele>713.00000</ele>
        <time>2018-10-12T15:01:49Z</time>
      </trkpt>
      <trkpt lat="38.29530877" lon="-2.43065041">
        <ele>713.00000</ele>
        <time>2018-10-12T15:01:52Z</time>
      </trkpt>
      <trkpt lat="38.29487015" lon="-2.43028898">
        <ele>713.00000</ele>
        <time>2018-10-12T15:01:59Z</time>
      </trkpt>
      <trkpt lat="38.29458357" lon="-2.43004373">
        <ele>713.00000</ele>
        <time>2018-10-12T15:02:04Z</time>
      </trkpt>
      <trkpt lat="38.29454275" lon="-2.42998782">
        <ele>713.00000</ele>
        <time>2018-10-12T15:02:05Z</time>
      </trkpt>
      <trkpt lat="38.29444200" lon="-2.42972195">
        <ele>713.00000</ele>
        <time>2018-10-12T15:02:09Z</time>
      </trkpt>
      <trkpt lat="38.29442021" lon="-2.42948072">
        <ele>712.00000</ele>
        <time>2018-10-12T15:02:12Z</time>
      </trkpt>
      <trkpt lat="38.29439976" lon="-2.42929858">
        <ele>712.00000</ele>
        <time>2018-10-12T15:02:14Z</time>
      </trkpt>
      <trkpt lat="38.29425659" lon="-2.42891443">
        <ele>713.00000</ele>
        <time>2018-10-12T15:02:19Z</time>
      </trkpt>
      <trkpt lat="38.29417956" lon="-2.42879625">
        <ele>713.00000</ele>
        <time>2018-10-12T15:02:21Z</time>
      </trkpt>
      <trkpt lat="38.29408024" lon="-2.42865770">
        <ele>713.00000</ele>
        <time>2018-10-12T15:02:24Z</time>
      </trkpt>
      <trkpt lat="38.29405518" lon="-2.42861185">
        <ele>714.00000</ele>
        <time>2018-10-12T15:02:25Z</time>
      </trkpt>
      <trkpt lat="38.29401545" lon="-2.42840607">
        <ele>714.00000</ele>
        <time>2018-10-12T15:02:29Z</time>
      </trkpt>
      <trkpt lat="38.29403548" lon="-2.42827950">
        <ele>715.00000</ele>
        <time>2018-10-12T15:02:31Z</time>
      </trkpt>
      <trkpt lat="38.29406113" lon="-2.42815361">
        <ele>717.00000</ele>
        <time>2018-10-12T15:02:33Z</time>
      </trkpt>
      <trkpt lat="38.29408711" lon="-2.42791447">
        <ele>717.00000</ele>
        <time>2018-10-12T15:02:37Z</time>
      </trkpt>
      <trkpt lat="38.29407337" lon="-2.42780509">
        <ele>718.00000</ele>
        <time>2018-10-12T15:02:39Z</time>
      </trkpt>
      <trkpt lat="38.29419524" lon="-2.42754483">
        <ele>718.00000</ele>
        <time>2018-10-12T15:02:47Z</time>
      </trkpt>
      <trkpt lat="38.29439330" lon="-2.42768623">
        <ele>718.00000</ele>
        <time>2018-10-12T15:02:51Z</time>
      </trkpt>
      <trkpt lat="38.29446488" lon="-2.42772622">
        <ele>718.00000</ele>
        <time>2018-10-12T15:02:52Z</time>
      </trkpt>
      <trkpt lat="38.29476714" lon="-2.42787240">
        <ele>718.00000</ele>
        <time>2018-10-12T15:02:56Z</time>
      </trkpt>
      <trkpt lat="38.29504433" lon="-2.42790198">
        <ele>717.00000</ele>
        <time>2018-10-12T15:02:59Z</time>
      </trkpt>
      <trkpt lat="38.29513544" lon="-2.42787960">
        <ele>716.00000</ele>
        <time>2018-10-12T15:03:00Z</time>
      </trkpt>
      <trkpt lat="38.29533568" lon="-2.42780836">
        <ele>714.00000</ele>
        <time>2018-10-12T15:03:02Z</time>
      </trkpt>
      <trkpt lat="38.29553752" lon="-2.42772093">
        <ele>713.00000</ele>
        <time>2018-10-12T15:03:04Z</time>
      </trkpt>
      <trkpt lat="38.29574841" lon="-2.42763016">
        <ele>711.00000</ele>
        <time>2018-10-12T15:03:06Z</time>
      </trkpt>
      <trkpt lat="38.29585502" lon="-2.42759043">
        <ele>710.00000</ele>
        <time>2018-10-12T15:03:07Z</time>
      </trkpt>
      <trkpt lat="38.29596055" lon="-2.42754642">
        <ele>708.00000</ele>
        <time>2018-10-12T15:03:08Z</time>
      </trkpt>
      <trkpt lat="38.29607379" lon="-2.42750493">
        <ele>707.00000</ele>
        <time>2018-10-12T15:03:09Z</time>
      </trkpt>
      <trkpt lat="38.29618586" lon="-2.42746789">
        <ele>706.00000</ele>
        <time>2018-10-12T15:03:10Z</time>
      </trkpt>
      <trkpt lat="38.29639658" lon="-2.42742212">
        <ele>704.00000</ele>
        <time>2018-10-12T15:03:12Z</time>
      </trkpt>
      <trkpt lat="38.29657444" lon="-2.42740469">
        <ele>703.00000</ele>
        <time>2018-10-12T15:03:14Z</time>
      </trkpt>
      <trkpt lat="38.29664695" lon="-2.42739035">
        <ele>703.00000</ele>
        <time>2018-10-12T15:03:15Z</time>
      </trkpt>
      <trkpt lat="38.29673361" lon="-2.42732020">
        <ele>702.00000</ele>
        <time>2018-10-12T15:03:17Z</time>
      </trkpt>
      <trkpt lat="38.29674015" lon="-2.42726555">
        <ele>702.00000</ele>
        <time>2018-10-12T15:03:18Z</time>
      </trkpt>
      <trkpt lat="38.29665843" lon="-2.42719019">
        <ele>702.00000</ele>
        <time>2018-10-12T15:03:20Z</time>
      </trkpt>
      <trkpt lat="38.29652641" lon="-2.42719497">
        <ele>701.00000</ele>
        <time>2018-10-12T15:03:22Z</time>
      </trkpt>
      <trkpt lat="38.29635626" lon="-2.42718860">
        <ele>701.00000</ele>
        <time>2018-10-12T15:03:24Z</time>
      </trkpt>
      <trkpt lat="38.29607446" lon="-2.42718273">
        <ele>700.00000</ele>
        <time>2018-10-12T15:03:27Z</time>
      </trkpt>
      <trkpt lat="38.29588285" lon="-2.42718189">
        <ele>700.00000</ele>
        <time>2018-10-12T15:03:29Z</time>
      </trkpt>
      <trkpt lat="38.29577791" lon="-2.42717980">
        <ele>699.00000</ele>
        <time>2018-10-12T15:03:30Z</time>
      </trkpt>
      <trkpt lat="38.29567490" lon="-2.42717326">
        <ele>698.00000</ele>
        <time>2018-10-12T15:03:31Z</time>
      </trkpt>
      <trkpt lat="38.29557348" lon="-2.42717460">
        <ele>696.00000</ele>
        <time>2018-10-12T15:03:32Z</time>
      </trkpt>
      <trkpt lat="38.29546988" lon="-2.42716756">
        <ele>695.00000</ele>
        <time>2018-10-12T15:03:33Z</time>
      </trkpt>
      <trkpt lat="38.29526477" lon="-2.42712004">
        <ele>693.00000</ele>
        <time>2018-10-12T15:03:35Z</time>
      </trkpt>
      <trkpt lat="38.29507199" lon="-2.42704996">
        <ele>693.00000</ele>
        <time>2018-10-12T15:03:37Z</time>
      </trkpt>
      <trkpt lat="38.29498414" lon="-2.42699489">
        <ele>692.00000</ele>
        <time>2018-10-12T15:03:38Z</time>
      </trkpt>
      <trkpt lat="38.29483880" lon="-2.42683161">
        <ele>690.00000</ele>
        <time>2018-10-12T15:03:40Z</time>
      </trkpt>
      <trkpt lat="38.29473772" lon="-2.42659952">
        <ele>689.00000</ele>
        <time>2018-10-12T15:03:42Z</time>
      </trkpt>
      <trkpt lat="38.29466957" lon="-2.42633616">
        <ele>688.00000</ele>
        <time>2018-10-12T15:03:44Z</time>
      </trkpt>
      <trkpt lat="38.29458885" lon="-2.42606065">
        <ele>686.00000</ele>
        <time>2018-10-12T15:03:46Z</time>
      </trkpt>
      <trkpt lat="38.29448349" lon="-2.42577583">
        <ele>685.00000</ele>
        <time>2018-10-12T15:03:48Z</time>
      </trkpt>
      <trkpt lat="38.29442331" lon="-2.42563426">
        <ele>684.00000</ele>
        <time>2018-10-12T15:03:49Z</time>
      </trkpt>
      <trkpt lat="38.29435542" lon="-2.42549479">
        <ele>682.00000</ele>
        <time>2018-10-12T15:03:50Z</time>
      </trkpt>
      <trkpt lat="38.29428367" lon="-2.42535799">
        <ele>681.00000</ele>
        <time>2018-10-12T15:03:51Z</time>
      </trkpt>
      <trkpt lat="38.29421326" lon="-2.42521818">
        <ele>680.00000</ele>
        <time>2018-10-12T15:03:52Z</time>
      </trkpt>
      <trkpt lat="38.29414738" lon="-2.42507267">
        <ele>678.00000</ele>
        <time>2018-10-12T15:03:53Z</time>
      </trkpt>
      <trkpt lat="38.29408611" lon="-2.42492658">
        <ele>677.00000</ele>
        <time>2018-10-12T15:03:54Z</time>
      </trkpt>
      <trkpt lat="38.29402651" lon="-2.42478308">
        <ele>676.00000</ele>
        <time>2018-10-12T15:03:55Z</time>
      </trkpt>
      <trkpt lat="38.29397236" lon="-2.42465551">
        <ele>674.00000</ele>
        <time>2018-10-12T15:03:56Z</time>
      </trkpt>
      <trkpt lat="38.29392828" lon="-2.42453849">
        <ele>673.00000</ele>
        <time>2018-10-12T15:03:57Z</time>
      </trkpt>
      <trkpt lat="38.29385871" lon="-2.42433356">
        <ele>671.00000</ele>
        <time>2018-10-12T15:03:59Z</time>
      </trkpt>
      <trkpt lat="38.29382560" lon="-2.42413893">
        <ele>671.00000</ele>
        <time>2018-10-12T15:04:01Z</time>
      </trkpt>
      <trkpt lat="38.29393498" lon="-2.42388102">
        <ele>670.00000</ele>
        <time>2018-10-12T15:04:04Z</time>
      </trkpt>
      <trkpt lat="38.29417009" lon="-2.42381379">
        <ele>670.00000</ele>
        <time>2018-10-12T15:04:07Z</time>
      </trkpt>
      <trkpt lat="38.29440571" lon="-2.42381128">
        <ele>669.00000</ele>
        <time>2018-10-12T15:04:10Z</time>
      </trkpt>
      <trkpt lat="38.29455273" lon="-2.42379988">
        <ele>668.00000</ele>
        <time>2018-10-12T15:04:12Z</time>
      </trkpt>
      <trkpt lat="38.29462012" lon="-2.42379519">
        <ele>668.00000</ele>
        <time>2018-10-12T15:04:13Z</time>
      </trkpt>
      <trkpt lat="38.29475490" lon="-2.42379686">
        <ele>668.00000</ele>
        <time>2018-10-12T15:04:15Z</time>
      </trkpt>
      <trkpt lat="38.29481927" lon="-2.42379636">
        <ele>668.00000</ele>
        <time>2018-10-12T15:04:16Z</time>
      </trkpt>
      <trkpt lat="38.29494064" lon="-2.42379737">
        <ele>668.00000</ele>
        <time>2018-10-12T15:04:18Z</time>
      </trkpt>
      <trkpt lat="38.29509110" lon="-2.42380944">
        <ele>668.00000</ele>
        <time>2018-10-12T15:04:21Z</time>
      </trkpt>
      <trkpt lat="38.29518833" lon="-2.42380818">
        <ele>669.00000</ele>
        <time>2018-10-12T15:04:23Z</time>
      </trkpt>
      <trkpt lat="38.29538086" lon="-2.42380541">
        <ele>671.00000</ele>
        <time>2018-10-12T15:04:27Z</time>
      </trkpt>
      <trkpt lat="38.29557959" lon="-2.42379837">
        <ele>672.00000</ele>
        <time>2018-10-12T15:04:31Z</time>
      </trkpt>
      <trkpt lat="38.29599022" lon="-2.42372654">
        <ele>673.00000</ele>
        <time>2018-10-12T15:04:39Z</time>
      </trkpt>
      <trkpt lat="38.29619499" lon="-2.42367692">
        <ele>673.00000</ele>
        <time>2018-10-12T15:04:43Z</time>
      </trkpt>
      <trkpt lat="38.29655173" lon="-2.42358296">
        <ele>673.00000</ele>
        <time>2018-10-12T15:04:50Z</time>
      </trkpt>
      <trkpt lat="38.29699060" lon="-2.42341079">
        <ele>674.00000</ele>
        <time>2018-10-12T15:04:59Z</time>
      </trkpt>
      <trkpt lat="38.29734868" lon="-2.42326151">
        <ele>675.00000</ele>
        <time>2018-10-12T15:05:07Z</time>
      </trkpt>
      <trkpt lat="38.29760282" lon="-2.42313612">
        <ele>676.00000</ele>
        <time>2018-10-12T15:05:13Z</time>
      </trkpt>
      <trkpt lat="38.29770977" lon="-2.42304266">
        <ele>676.00000</ele>
        <time>2018-10-12T15:05:16Z</time>
      </trkpt>
      <trkpt lat="38.29787121" lon="-2.42284024">
        <ele>677.00000</ele>
        <time>2018-10-12T15:05:21Z</time>
      </trkpt>
      <trkpt lat="38.29826172" lon="-2.42233405">
        <ele>678.00000</ele>
        <time>2018-10-12T15:05:32Z</time>
      </trkpt>
      <trkpt lat="38.29829919" lon="-2.42228653">
        <ele>678.00000</ele>
        <time>2018-10-12T15:05:33Z</time>
      </trkpt>
      <trkpt lat="38.29869951" lon="-2.42181094">
        <ele>678.00000</ele>
        <time>2018-10-12T15:05:43Z</time>
      </trkpt>
      <trkpt lat="38.29875089" lon="-2.42177112">
        <ele>678.00000</ele>
        <time>2018-10-12T15:05:44Z</time>
      </trkpt>
      <trkpt lat="38.29923838" lon="-2.42179635">
        <ele>678.00000</ele>
        <time>2018-10-12T15:05:52Z</time>
      </trkpt>
      <trkpt lat="38.29941046" lon="-2.42188470">
        <ele>678.00000</ele>
        <time>2018-10-12T15:05:55Z</time>
      </trkpt>
      <trkpt lat="38.29956896" lon="-2.42198017">
        <ele>678.00000</ele>
        <time>2018-10-12T15:05:58Z</time>
      </trkpt>
      <trkpt lat="38.29988831" lon="-2.42219223">
        <ele>678.00000</ele>
        <time>2018-10-12T15:06:04Z</time>
      </trkpt>
      <trkpt lat="38.30000733" lon="-2.42226700">
        <ele>678.00000</ele>
        <time>2018-10-12T15:06:06Z</time>
      </trkpt>
      <trkpt lat="38.30013608" lon="-2.42233891">
        <ele>678.00000</ele>
        <time>2018-10-12T15:06:08Z</time>
      </trkpt>
      <trkpt lat="38.30027111" lon="-2.42241536">
        <ele>678.00000</ele>
        <time>2018-10-12T15:06:10Z</time>
      </trkpt>
      <trkpt lat="38.30048896" lon="-2.42253237">
        <ele>678.00000</ele>
        <time>2018-10-12T15:06:13Z</time>
      </trkpt>
      <trkpt lat="38.30056557" lon="-2.42257026">
        <ele>677.00000</ele>
        <time>2018-10-12T15:06:14Z</time>
      </trkpt>
      <trkpt lat="38.30072659" lon="-2.42263169">
        <ele>677.00000</ele>
        <time>2018-10-12T15:06:16Z</time>
      </trkpt>
      <trkpt lat="38.30096664" lon="-2.42259331">
        <ele>676.00000</ele>
        <time>2018-10-12T15:06:19Z</time>
      </trkpt>
      <trkpt lat="38.30106664" lon="-2.42243849">
        <ele>675.00000</ele>
        <time>2018-10-12T15:06:21Z</time>
      </trkpt>
      <trkpt lat="38.30111073" lon="-2.42224680">
        <ele>674.00000</ele>
        <time>2018-10-12T15:06:23Z</time>
      </trkpt>
      <trkpt lat="38.30112850" lon="-2.42215015">
        <ele>673.00000</ele>
        <time>2018-10-12T15:06:24Z</time>
      </trkpt>
      <trkpt lat="38.30114208" lon="-2.42205661">
        <ele>673.00000</ele>
        <time>2018-10-12T15:06:25Z</time>
      </trkpt>
      <trkpt lat="38.30099187" lon="-2.42174548">
        <ele>673.00000</ele>
        <time>2018-10-12T15:06:30Z</time>
      </trkpt>
      <trkpt lat="38.30086061" lon="-2.42163727">
        <ele>673.00000</ele>
        <time>2018-10-12T15:06:33Z</time>
      </trkpt>
      <trkpt lat="38.30075089" lon="-2.42153710">
        <ele>674.00000</ele>
        <time>2018-10-12T15:06:36Z</time>
      </trkpt>
      <trkpt lat="38.30068652" lon="-2.42147332">
        <ele>675.00000</ele>
        <time>2018-10-12T15:06:38Z</time>
      </trkpt>
      <trkpt lat="38.30059524" lon="-2.42137399">
        <ele>676.00000</ele>
        <time>2018-10-12T15:06:41Z</time>
      </trkpt>
      <trkpt lat="38.30051377" lon="-2.42127642">
        <ele>678.00000</ele>
        <time>2018-10-12T15:06:44Z</time>
      </trkpt>
      <trkpt lat="38.30043992" lon="-2.42119202">
        <ele>679.00000</ele>
        <time>2018-10-12T15:06:47Z</time>
      </trkpt>
      <trkpt lat="38.30036382" lon="-2.42110535">
        <ele>680.00000</ele>
        <time>2018-10-12T15:06:50Z</time>
      </trkpt>
      <trkpt lat="38.30034085" lon="-2.42107417">
        <ele>680.00000</ele>
        <time>2018-10-12T15:06:51Z</time>
      </trkpt>
      <trkpt lat="38.30027690" lon="-2.42097074">
        <ele>681.00000</ele>
        <time>2018-10-12T15:06:54Z</time>
      </trkpt>
      <trkpt lat="38.30024203" lon="-2.42089262">
        <ele>682.00000</ele>
        <time>2018-10-12T15:06:56Z</time>
      </trkpt>
      <trkpt lat="38.30019341" lon="-2.42077292">
        <ele>683.00000</ele>
        <time>2018-10-12T15:06:59Z</time>
      </trkpt>
      <trkpt lat="38.30011554" lon="-2.42062825">
        <ele>684.00000</ele>
        <time>2018-10-12T15:07:03Z</time>
      </trkpt>
      <trkpt lat="38.29995528" lon="-2.42052197">
        <ele>685.00000</ele>
        <time>2018-10-12T15:07:08Z</time>
      </trkpt>
      <trkpt lat="38.29963560" lon="-2.42046363">
        <ele>686.00000</ele>
        <time>2018-10-12T15:07:17Z</time>
      </trkpt>
      <trkpt lat="38.29926570" lon="-2.42017714">
        <ele>688.00000</ele>
        <time>2018-10-12T15:07:29Z</time>
      </trkpt>
      <trkpt lat="38.29915716" lon="-2.41990900">
        <ele>689.00000</ele>
        <time>2018-10-12T15:07:35Z</time>
      </trkpt>
      <trkpt lat="38.29909522" lon="-2.41948362">
        <ele>690.00000</ele>
        <time>2018-10-12T15:07:43Z</time>
      </trkpt>
      <trkpt lat="38.29910477" lon="-2.41903075">
        <ele>690.00000</ele>
        <time>2018-10-12T15:07:50Z</time>
      </trkpt>
      <trkpt lat="38.29904861" lon="-2.41858458">
        <ele>689.00000</ele>
        <time>2018-10-12T15:07:56Z</time>
      </trkpt>
      <trkpt lat="38.29900955" lon="-2.41835500">
        <ele>689.00000</ele>
        <time>2018-10-12T15:07:59Z</time>
      </trkpt>
      <trkpt lat="38.29897267" lon="-2.41811754">
        <ele>689.00000</ele>
        <time>2018-10-12T15:08:02Z</time>
      </trkpt>
      <trkpt lat="38.29894912" lon="-2.41788494">
        <ele>688.00000</ele>
        <time>2018-10-12T15:08:05Z</time>
      </trkpt>
      <trkpt lat="38.29893395" lon="-2.41773130">
        <ele>688.00000</ele>
        <time>2018-10-12T15:08:07Z</time>
      </trkpt>
      <trkpt lat="38.29892649" lon="-2.41765360">
        <ele>688.00000</ele>
        <time>2018-10-12T15:08:08Z</time>
      </trkpt>
      <trkpt lat="38.29887796" lon="-2.41702898">
        <ele>687.00000</ele>
        <time>2018-10-12T15:08:16Z</time>
      </trkpt>
      <trkpt lat="38.29888265" lon="-2.41694700">
        <ele>687.00000</ele>
        <time>2018-10-12T15:08:17Z</time>
      </trkpt>
      <trkpt lat="38.29892414" lon="-2.41669278">
        <ele>686.00000</ele>
        <time>2018-10-12T15:08:20Z</time>
      </trkpt>
      <trkpt lat="38.29894669" lon="-2.41651064">
        <ele>686.00000</ele>
        <time>2018-10-12T15:08:22Z</time>
      </trkpt>
      <trkpt lat="38.29890361" lon="-2.41622314">
        <ele>686.00000</ele>
        <time>2018-10-12T15:08:25Z</time>
      </trkpt>
      <trkpt lat="38.29887117" lon="-2.41601812">
        <ele>685.00000</ele>
        <time>2018-10-12T15:08:27Z</time>
      </trkpt>
      <trkpt lat="38.29885306" lon="-2.41567832">
        <ele>684.00000</ele>
        <time>2018-10-12T15:08:30Z</time>
      </trkpt>
      <trkpt lat="38.29884736" lon="-2.41543332">
        <ele>684.00000</ele>
        <time>2018-10-12T15:08:32Z</time>
      </trkpt>
      <trkpt lat="38.29884510" lon="-2.41530700">
        <ele>683.00000</ele>
        <time>2018-10-12T15:08:33Z</time>
      </trkpt>
      <trkpt lat="38.29882306" lon="-2.41504792">
        <ele>682.00000</ele>
        <time>2018-10-12T15:08:35Z</time>
      </trkpt>
      <trkpt lat="38.29874678" lon="-2.41479864">
        <ele>680.00000</ele>
        <time>2018-10-12T15:08:37Z</time>
      </trkpt>
      <trkpt lat="38.29864050" lon="-2.41456336">
        <ele>678.00000</ele>
        <time>2018-10-12T15:08:39Z</time>
      </trkpt>
      <trkpt lat="38.29858719" lon="-2.41444048">
        <ele>677.00000</ele>
        <time>2018-10-12T15:08:40Z</time>
      </trkpt>
      <trkpt lat="38.29853287" lon="-2.41432053">
        <ele>677.00000</ele>
        <time>2018-10-12T15:08:41Z</time>
      </trkpt>
      <trkpt lat="38.29843271" lon="-2.41409598">
        <ele>675.00000</ele>
        <time>2018-10-12T15:08:43Z</time>
      </trkpt>
      <trkpt lat="38.29839692" lon="-2.41398241">
        <ele>674.00000</ele>
        <time>2018-10-12T15:08:44Z</time>
      </trkpt>
      <trkpt lat="38.29838477" lon="-2.41385987">
        <ele>673.00000</ele>
        <time>2018-10-12T15:08:45Z</time>
      </trkpt>
      <trkpt lat="38.29842257" lon="-2.41361076">
        <ele>672.00000</ele>
        <time>2018-10-12T15:08:47Z</time>
      </trkpt>
      <trkpt lat="38.29861409" lon="-2.41332141">
        <ele>671.00000</ele>
        <time>2018-10-12T15:08:50Z</time>
      </trkpt>
      <trkpt lat="38.29879900" lon="-2.41319702">
        <ele>670.00000</ele>
        <time>2018-10-12T15:08:52Z</time>
      </trkpt>
      <trkpt lat="38.29889296" lon="-2.41312301">
        <ele>669.00000</ele>
        <time>2018-10-12T15:08:53Z</time>
      </trkpt>
      <trkpt lat="38.29897058" lon="-2.41303073">
        <ele>668.00000</ele>
        <time>2018-10-12T15:08:54Z</time>
      </trkpt>
      <trkpt lat="38.29907644" lon="-2.41280023">
        <ele>666.00000</ele>
        <time>2018-10-12T15:08:56Z</time>
      </trkpt>
      <trkpt lat="38.29915724" lon="-2.41253879">
        <ele>666.00000</ele>
        <time>2018-10-12T15:08:58Z</time>
      </trkpt>
      <trkpt lat="38.29928272" lon="-2.41214568">
        <ele>665.00000</ele>
        <time>2018-10-12T15:09:01Z</time>
      </trkpt>
      <trkpt lat="38.29931080" lon="-2.41202867">
        <ele>664.00000</ele>
        <time>2018-10-12T15:09:02Z</time>
      </trkpt>
      <trkpt lat="38.29931315" lon="-2.41190311">
        <ele>664.00000</ele>
        <time>2018-10-12T15:09:03Z</time>
      </trkpt>
      <trkpt lat="38.29925464" lon="-2.41167286">
        <ele>662.00000</ele>
        <time>2018-10-12T15:09:05Z</time>
      </trkpt>
      <trkpt lat="38.29920368" lon="-2.41157026">
        <ele>661.00000</ele>
        <time>2018-10-12T15:09:06Z</time>
      </trkpt>
      <trkpt lat="38.29915439" lon="-2.41146004">
        <ele>661.00000</ele>
        <time>2018-10-12T15:09:07Z</time>
      </trkpt>
      <trkpt lat="38.29906915" lon="-2.41109593">
        <ele>659.00000</ele>
        <time>2018-10-12T15:09:10Z</time>
      </trkpt>
      <trkpt lat="38.29908767" lon="-2.41071187">
        <ele>658.00000</ele>
        <time>2018-10-12T15:09:13Z</time>
      </trkpt>
      <trkpt lat="38.29910821" lon="-2.41058514">
        <ele>657.00000</ele>
        <time>2018-10-12T15:09:14Z</time>
      </trkpt>
      <trkpt lat="38.29912497" lon="-2.41046201">
        <ele>657.00000</ele>
        <time>2018-10-12T15:09:15Z</time>
      </trkpt>
      <trkpt lat="38.29898717" lon="-2.40994250">
        <ele>656.00000</ele>
        <time>2018-10-12T15:09:20Z</time>
      </trkpt>
      <trkpt lat="38.29894610" lon="-2.40985541">
        <ele>656.00000</ele>
        <time>2018-10-12T15:09:21Z</time>
      </trkpt>
      <trkpt lat="38.29887729" lon="-2.40966925">
        <ele>655.00000</ele>
        <time>2018-10-12T15:09:23Z</time>
      </trkpt>
      <trkpt lat="38.29883856" lon="-2.40946775">
        <ele>655.00000</ele>
        <time>2018-10-12T15:09:25Z</time>
      </trkpt>
      <trkpt lat="38.29882691" lon="-2.40926994">
        <ele>655.00000</ele>
        <time>2018-10-12T15:09:27Z</time>
      </trkpt>
      <trkpt lat="38.29883563" lon="-2.40872922">
        <ele>655.00000</ele>
        <time>2018-10-12T15:09:32Z</time>
      </trkpt>
      <trkpt lat="38.29862197" lon="-2.40819303">
        <ele>655.00000</ele>
        <time>2018-10-12T15:09:37Z</time>
      </trkpt>
      <trkpt lat="38.29842165" lon="-2.40788617">
        <ele>654.00000</ele>
        <time>2018-10-12T15:09:40Z</time>
      </trkpt>
      <trkpt lat="38.29828301" lon="-2.40767218">
        <ele>654.00000</ele>
        <time>2018-10-12T15:09:42Z</time>
      </trkpt>
      <trkpt lat="38.29814219" lon="-2.40744947">
        <ele>652.00000</ele>
        <time>2018-10-12T15:09:44Z</time>
      </trkpt>
      <trkpt lat="38.29799358" lon="-2.40722852">
        <ele>650.00000</ele>
        <time>2018-10-12T15:09:46Z</time>
      </trkpt>
      <trkpt lat="38.29792292" lon="-2.40711520">
        <ele>649.00000</ele>
        <time>2018-10-12T15:09:47Z</time>
      </trkpt>
      <trkpt lat="38.29786299" lon="-2.40699182">
        <ele>648.00000</ele>
        <time>2018-10-12T15:09:48Z</time>
      </trkpt>
      <trkpt lat="38.29778403" lon="-2.40672418">
        <ele>646.00000</ele>
        <time>2018-10-12T15:09:50Z</time>
      </trkpt>
      <trkpt lat="38.29777096" lon="-2.40658312">
        <ele>645.00000</ele>
        <time>2018-10-12T15:09:51Z</time>
      </trkpt>
      <trkpt lat="38.29776518" lon="-2.40644113">
        <ele>644.00000</ele>
        <time>2018-10-12T15:09:52Z</time>
      </trkpt>
      <trkpt lat="38.29775503" lon="-2.40629855">
        <ele>643.00000</ele>
        <time>2018-10-12T15:09:53Z</time>
      </trkpt>
      <trkpt lat="38.29773894" lon="-2.40616067">
        <ele>642.00000</ele>
        <time>2018-10-12T15:09:54Z</time>
      </trkpt>
      <trkpt lat="38.29769896" lon="-2.40590016">
        <ele>640.00000</ele>
        <time>2018-10-12T15:09:56Z</time>
      </trkpt>
      <trkpt lat="38.29764666" lon="-2.40564895">
        <ele>638.00000</ele>
        <time>2018-10-12T15:09:58Z</time>
      </trkpt>
      <trkpt lat="38.29755571" lon="-2.40529968">
        <ele>637.00000</ele>
        <time>2018-10-12T15:10:01Z</time>
      </trkpt>
      <trkpt lat="38.29733334" lon="-2.40478746">
        <ele>637.00000</ele>
        <time>2018-10-12T15:10:06Z</time>
      </trkpt>
      <trkpt lat="38.29723913" lon="-2.40435269">
        <ele>637.00000</ele>
        <time>2018-10-12T15:10:10Z</time>
      </trkpt>
      <trkpt lat="38.29697887" lon="-2.40390359">
        <ele>638.00000</ele>
        <time>2018-10-12T15:10:16Z</time>
      </trkpt>
      <trkpt lat="38.29695641" lon="-2.40370485">
        <ele>639.00000</ele>
        <time>2018-10-12T15:10:18Z</time>
      </trkpt>
      <trkpt lat="38.29694048" lon="-2.40349489">
        <ele>639.00000</ele>
        <time>2018-10-12T15:10:20Z</time>
      </trkpt>
      <trkpt lat="38.29688809" lon="-2.40307210">
        <ele>639.00000</ele>
        <time>2018-10-12T15:10:24Z</time>
      </trkpt>
      <trkpt lat="38.29666824" lon="-2.40236878">
        <ele>638.00000</ele>
        <time>2018-10-12T15:10:31Z</time>
      </trkpt>
      <trkpt lat="38.29662809" lon="-2.40226803">
        <ele>637.00000</ele>
        <time>2018-10-12T15:10:32Z</time>
      </trkpt>
      <trkpt lat="38.29653169" lon="-2.40195211">
        <ele>636.00000</ele>
        <time>2018-10-12T15:10:35Z</time>
      </trkpt>
      <trkpt lat="38.29645626" lon="-2.40142925">
        <ele>635.00000</ele>
        <time>2018-10-12T15:10:40Z</time>
      </trkpt>
      <trkpt lat="38.29648358" lon="-2.40073163">
        <ele>635.00000</ele>
        <time>2018-10-12T15:10:47Z</time>
      </trkpt>
      <trkpt lat="38.29653245" lon="-2.39998396">
        <ele>635.00000</ele>
        <time>2018-10-12T15:10:55Z</time>
      </trkpt>
      <trkpt lat="38.29660805" lon="-2.39944450">
        <ele>635.00000</ele>
        <time>2018-10-12T15:11:01Z</time>
      </trkpt>
      <trkpt lat="38.29672423" lon="-2.39872357">
        <ele>636.00000</ele>
        <time>2018-10-12T15:11:09Z</time>
      </trkpt>
      <trkpt lat="38.29683428" lon="-2.39802444">
        <ele>637.00000</ele>
        <time>2018-10-12T15:11:17Z</time>
      </trkpt>
      <trkpt lat="38.29693327" lon="-2.39754809">
        <ele>637.00000</ele>
        <time>2018-10-12T15:11:23Z</time>
      </trkpt>
      <trkpt lat="38.29715028" lon="-2.39685039">
        <ele>637.00000</ele>
        <time>2018-10-12T15:11:32Z</time>
      </trkpt>
      <trkpt lat="38.29730384" lon="-2.39645987">
        <ele>637.00000</ele>
        <time>2018-10-12T15:11:37Z</time>
      </trkpt>
      <trkpt lat="38.29736796" lon="-2.39630070">
        <ele>637.00000</ele>
        <time>2018-10-12T15:11:39Z</time>
      </trkpt>
      <trkpt lat="38.29744432" lon="-2.39554926">
        <ele>636.00000</ele>
        <time>2018-10-12T15:11:47Z</time>
      </trkpt>
      <trkpt lat="38.29745429" lon="-2.39545354">
        <ele>635.00000</ele>
        <time>2018-10-12T15:11:48Z</time>
      </trkpt>
      <trkpt lat="38.29750835" lon="-2.39496043">
        <ele>634.00000</ele>
        <time>2018-10-12T15:11:53Z</time>
      </trkpt>
      <trkpt lat="38.29756761" lon="-2.39448032">
        <ele>634.00000</ele>
        <time>2018-10-12T15:11:58Z</time>
      </trkpt>
      <trkpt lat="38.29769007" lon="-2.39403834">
        <ele>634.00000</ele>
        <time>2018-10-12T15:12:03Z</time>
      </trkpt>
      <trkpt lat="38.29785905" lon="-2.39332244">
        <ele>633.00000</ele>
        <time>2018-10-12T15:12:11Z</time>
      </trkpt>
      <trkpt lat="38.29797456" lon="-2.39265097">
        <ele>634.00000</ele>
        <time>2018-10-12T15:12:19Z</time>
      </trkpt>
      <trkpt lat="38.29797824" lon="-2.39257226">
        <ele>634.00000</ele>
        <time>2018-10-12T15:12:20Z</time>
      </trkpt>
      <trkpt lat="38.29794832" lon="-2.39224294">
        <ele>635.00000</ele>
        <time>2018-10-12T15:12:24Z</time>
      </trkpt>
      <trkpt lat="38.29793214" lon="-2.39153726">
        <ele>635.00000</ele>
        <time>2018-10-12T15:12:32Z</time>
      </trkpt>
      <trkpt lat="38.29792376" lon="-2.39075875">
        <ele>634.00000</ele>
        <time>2018-10-12T15:12:40Z</time>
      </trkpt>
      <trkpt lat="38.29794212" lon="-2.39045709">
        <ele>634.00000</ele>
        <time>2018-10-12T15:12:43Z</time>
      </trkpt>
      <trkpt lat="38.29806650" lon="-2.39007672">
        <ele>633.00000</ele>
        <time>2018-10-12T15:12:47Z</time>
      </trkpt>
      <trkpt lat="38.29810624" lon="-2.38998695">
        <ele>633.00000</ele>
        <time>2018-10-12T15:12:48Z</time>
      </trkpt>
      <trkpt lat="38.29820464" lon="-2.38971462">
        <ele>632.00000</ele>
        <time>2018-10-12T15:12:51Z</time>
      </trkpt>
      <trkpt lat="38.29822140" lon="-2.38961806">
        <ele>632.00000</ele>
        <time>2018-10-12T15:12:52Z</time>
      </trkpt>
      <trkpt lat="38.29826474" lon="-2.38922319">
        <ele>631.00000</ele>
        <time>2018-10-12T15:12:56Z</time>
      </trkpt>
      <trkpt lat="38.29827530" lon="-2.38912789">
        <ele>630.00000</ele>
        <time>2018-10-12T15:12:57Z</time>
      </trkpt>
      <trkpt lat="38.29835216" lon="-2.38837662">
        <ele>631.00000</ele>
        <time>2018-10-12T15:13:05Z</time>
      </trkpt>
      <trkpt lat="38.29836674" lon="-2.38819297">
        <ele>631.00000</ele>
        <time>2018-10-12T15:13:07Z</time>
      </trkpt>
      <trkpt lat="38.29837420" lon="-2.38801913">
        <ele>631.00000</ele>
        <time>2018-10-12T15:13:09Z</time>
      </trkpt>
      <trkpt lat="38.29839633" lon="-2.38743441">
        <ele>632.00000</ele>
        <time>2018-10-12T15:13:16Z</time>
      </trkpt>
      <trkpt lat="38.29841804" lon="-2.38674122">
        <ele>632.00000</ele>
        <time>2018-10-12T15:13:24Z</time>
      </trkpt>
      <trkpt lat="38.29843137" lon="-2.38598057">
        <ele>633.00000</ele>
        <time>2018-10-12T15:13:33Z</time>
      </trkpt>
      <trkpt lat="38.29838636" lon="-2.38532250">
        <ele>632.00000</ele>
        <time>2018-10-12T15:13:41Z</time>
      </trkpt>
      <trkpt lat="38.29852483" lon="-2.38496258">
        <ele>632.00000</ele>
        <time>2018-10-12T15:13:46Z</time>
      </trkpt>
      <trkpt lat="38.29860806" lon="-2.38482495">
        <ele>632.00000</ele>
        <time>2018-10-12T15:13:48Z</time>
      </trkpt>
      <trkpt lat="38.29874879" lon="-2.38445908">
        <ele>631.00000</ele>
        <time>2018-10-12T15:13:53Z</time>
      </trkpt>
      <trkpt lat="38.29888014" lon="-2.38413169">
        <ele>631.00000</ele>
        <time>2018-10-12T15:13:59Z</time>
      </trkpt>
      <trkpt lat="38.29892984" lon="-2.38397872">
        <ele>631.00000</ele>
        <time>2018-10-12T15:14:02Z</time>
      </trkpt>
      <trkpt lat="38.29895356" lon="-2.38388048">
        <ele>632.00000</ele>
        <time>2018-10-12T15:14:04Z</time>
      </trkpt>
      <trkpt lat="38.29897292" lon="-2.38379188">
        <ele>633.00000</ele>
        <time>2018-10-12T15:14:06Z</time>
      </trkpt>
      <trkpt lat="38.29898457" lon="-2.38374729">
        <ele>634.00000</ele>
        <time>2018-10-12T15:14:07Z</time>
      </trkpt>
      <trkpt lat="38.29901383" lon="-2.38365601">
        <ele>635.00000</ele>
        <time>2018-10-12T15:14:09Z</time>
      </trkpt>
      <trkpt lat="38.29905264" lon="-2.38356934">
        <ele>636.00000</ele>
        <time>2018-10-12T15:14:11Z</time>
      </trkpt>
      <trkpt lat="38.29911952" lon="-2.38345535">
        <ele>637.00000</ele>
        <time>2018-10-12T15:14:14Z</time>
      </trkpt>
      <trkpt lat="38.29920971" lon="-2.38335971">
        <ele>638.00000</ele>
        <time>2018-10-12T15:14:17Z</time>
      </trkpt>
      <trkpt lat="38.29936746" lon="-2.38322795">
        <ele>638.00000</ele>
        <time>2018-10-12T15:14:21Z</time>
      </trkpt>
      <trkpt lat="38.29949738" lon="-2.38302586">
        <ele>638.00000</ele>
        <time>2018-10-12T15:14:25Z</time>
      </trkpt>
      <trkpt lat="38.29954893" lon="-2.38289695">
        <ele>638.00000</ele>
        <time>2018-10-12T15:14:27Z</time>
      </trkpt>
      <trkpt lat="38.29965831" lon="-2.38221491">
        <ele>637.00000</ele>
        <time>2018-10-12T15:14:35Z</time>
      </trkpt>
      <trkpt lat="38.29966695" lon="-2.38182264">
        <ele>636.00000</ele>
        <time>2018-10-12T15:14:39Z</time>
      </trkpt>
      <trkpt lat="38.29967298" lon="-2.38150907">
        <ele>634.00000</ele>
        <time>2018-10-12T15:14:42Z</time>
      </trkpt>
      <trkpt lat="38.29968773" lon="-2.38107615">
        <ele>633.00000</ele>
        <time>2018-10-12T15:14:46Z</time>
      </trkpt>
      <trkpt lat="38.29971305" lon="-2.38063434">
        <ele>632.00000</ele>
        <time>2018-10-12T15:14:50Z</time>
      </trkpt>
      <trkpt lat="38.29973325" lon="-2.38041582">
        <ele>631.00000</ele>
        <time>2018-10-12T15:14:52Z</time>
      </trkpt>
      <trkpt lat="38.29973643" lon="-2.38031188">
        <ele>630.00000</ele>
        <time>2018-10-12T15:14:53Z</time>
      </trkpt>
      <trkpt lat="38.29971942" lon="-2.38011474">
        <ele>630.00000</ele>
        <time>2018-10-12T15:14:55Z</time>
      </trkpt>
      <trkpt lat="38.29968673" lon="-2.37993973">
        <ele>630.00000</ele>
        <time>2018-10-12T15:14:57Z</time>
      </trkpt>
      <trkpt lat="38.29967290" lon="-2.37986387">
        <ele>629.00000</ele>
        <time>2018-10-12T15:14:58Z</time>
      </trkpt>
      <trkpt lat="38.29964113" lon="-2.37964066">
        <ele>628.00000</ele>
        <time>2018-10-12T15:15:01Z</time>
      </trkpt>
      <trkpt lat="38.29959964" lon="-2.37923179">
        <ele>628.00000</ele>
        <time>2018-10-12T15:15:06Z</time>
      </trkpt>
      <trkpt lat="38.29970416" lon="-2.37853257">
        <ele>629.00000</ele>
        <time>2018-10-12T15:15:15Z</time>
      </trkpt>
      <trkpt lat="38.29983182" lon="-2.37801994">
        <ele>629.00000</ele>
        <time>2018-10-12T15:15:21Z</time>
      </trkpt>
      <trkpt lat="38.30000725" lon="-2.37758114">
        <ele>629.00000</ele>
        <time>2018-10-12T15:15:26Z</time>
      </trkpt>
      <trkpt lat="38.30006676" lon="-2.37741116">
        <ele>629.00000</ele>
        <time>2018-10-12T15:15:28Z</time>
      </trkpt>
      <trkpt lat="38.30006559" lon="-2.37697748">
        <ele>629.00000</ele>
        <time>2018-10-12T15:15:33Z</time>
      </trkpt>
      <trkpt lat="38.30000759" lon="-2.37645369">
        <ele>629.00000</ele>
        <time>2018-10-12T15:15:40Z</time>
      </trkpt>
      <trkpt lat="38.29999325" lon="-2.37622889">
        <ele>629.00000</ele>
        <time>2018-10-12T15:15:43Z</time>
      </trkpt>
      <trkpt lat="38.29997993" lon="-2.37616100">
        <ele>630.00000</ele>
        <time>2018-10-12T15:15:44Z</time>
      </trkpt>
      <trkpt lat="38.29986769" lon="-2.37592664">
        <ele>631.00000</ele>
        <time>2018-10-12T15:15:48Z</time>
      </trkpt>
      <trkpt lat="38.29983165" lon="-2.37588054">
        <ele>631.00000</ele>
        <time>2018-10-12T15:15:49Z</time>
      </trkpt>
      <trkpt lat="38.29979519" lon="-2.37583679">
        <ele>632.00000</ele>
        <time>2018-10-12T15:15:50Z</time>
      </trkpt>
      <trkpt lat="38.29965027" lon="-2.37566789">
        <ele>633.00000</ele>
        <time>2018-10-12T15:15:54Z</time>
      </trkpt>
      <trkpt lat="38.29955262" lon="-2.37552733">
        <ele>634.00000</ele>
        <time>2018-10-12T15:15:57Z</time>
      </trkpt>
      <trkpt lat="38.29947383" lon="-2.37537872">
        <ele>635.00000</ele>
        <time>2018-10-12T15:16:00Z</time>
      </trkpt>
      <trkpt lat="38.29937727" lon="-2.37517177">
        <ele>636.00000</ele>
        <time>2018-10-12T15:16:04Z</time>
      </trkpt>
      <trkpt lat="38.29927140" lon="-2.37498485">
        <ele>638.00000</ele>
        <time>2018-10-12T15:16:08Z</time>
      </trkpt>
      <trkpt lat="38.29913754" lon="-2.37476550">
        <ele>639.00000</ele>
        <time>2018-10-12T15:16:13Z</time>
      </trkpt>
      <trkpt lat="38.29903864" lon="-2.37460272">
        <ele>640.00000</ele>
        <time>2018-10-12T15:16:17Z</time>
      </trkpt>
      <trkpt lat="38.29895013" lon="-2.37444413">
        <ele>641.00000</ele>
        <time>2018-10-12T15:16:21Z</time>
      </trkpt>
      <trkpt lat="38.29887301" lon="-2.37427239">
        <ele>643.00000</ele>
        <time>2018-10-12T15:16:25Z</time>
      </trkpt>
      <trkpt lat="38.29878131" lon="-2.37391440">
        <ele>644.00000</ele>
        <time>2018-10-12T15:16:32Z</time>
      </trkpt>
      <trkpt lat="38.29853581" lon="-2.37328944">
        <ele>644.00000</ele>
        <time>2018-10-12T15:16:43Z</time>
      </trkpt>
      <trkpt lat="38.29837404" lon="-2.37299733">
        <ele>643.00000</ele>
        <time>2018-10-12T15:16:48Z</time>
      </trkpt>
      <trkpt lat="38.29814102" lon="-2.37275669">
        <ele>643.00000</ele>
        <time>2018-10-12T15:16:53Z</time>
      </trkpt>
      <trkpt lat="38.29799970" lon="-2.37236877">
        <ele>642.00000</ele>
        <time>2018-10-12T15:16:58Z</time>
      </trkpt>
      <trkpt lat="38.29798428" lon="-2.37226987">
        <ele>642.00000</ele>
        <time>2018-10-12T15:16:59Z</time>
      </trkpt>
      <trkpt lat="38.29798520" lon="-2.37205093">
        <ele>642.00000</ele>
        <time>2018-10-12T15:17:01Z</time>
      </trkpt>
      <trkpt lat="38.29803952" lon="-2.37182705">
        <ele>641.00000</ele>
        <time>2018-10-12T15:17:03Z</time>
      </trkpt>
      <trkpt lat="38.29812233" lon="-2.37150217">
        <ele>639.00000</ele>
        <time>2018-10-12T15:17:06Z</time>
      </trkpt>
      <trkpt lat="38.29808738" lon="-2.37130151">
        <ele>638.00000</ele>
        <time>2018-10-12T15:17:08Z</time>
      </trkpt>
      <trkpt lat="38.29805443" lon="-2.37120637">
        <ele>637.00000</ele>
        <time>2018-10-12T15:17:09Z</time>
      </trkpt>
      <trkpt lat="38.29802141" lon="-2.37111015">
        <ele>636.00000</ele>
        <time>2018-10-12T15:17:10Z</time>
      </trkpt>
      <trkpt lat="38.29799459" lon="-2.37100705">
        <ele>635.00000</ele>
        <time>2018-10-12T15:17:11Z</time>
      </trkpt>
      <trkpt lat="38.29791882" lon="-2.37060824">
        <ele>635.00000</ele>
        <time>2018-10-12T15:17:15Z</time>
      </trkpt>
      <trkpt lat="38.29789166" lon="-2.37051327">
        <ele>635.00000</ele>
        <time>2018-10-12T15:17:16Z</time>
      </trkpt>
      <trkpt lat="38.29765227" lon="-2.36991765">
        <ele>635.00000</ele>
        <time>2018-10-12T15:17:23Z</time>
      </trkpt>
      <trkpt lat="38.29745362" lon="-2.36977349">
        <ele>635.00000</ele>
        <time>2018-10-12T15:17:27Z</time>
      </trkpt>
      <trkpt lat="38.29729747" lon="-2.36972076">
        <ele>636.00000</ele>
        <time>2018-10-12T15:17:30Z</time>
      </trkpt>
      <trkpt lat="38.29701231" lon="-2.36953980">
        <ele>637.00000</ele>
        <time>2018-10-12T15:17:36Z</time>
      </trkpt>
      <trkpt lat="38.29680712" lon="-2.36932287">
        <ele>638.00000</ele>
        <time>2018-10-12T15:17:41Z</time>
      </trkpt>
      <trkpt lat="38.29677578" lon="-2.36926973">
        <ele>639.00000</ele>
        <time>2018-10-12T15:17:42Z</time>
      </trkpt>
      <trkpt lat="38.29675566" lon="-2.36889263">
        <ele>639.00000</ele>
        <time>2018-10-12T15:17:47Z</time>
      </trkpt>
      <trkpt lat="38.29680285" lon="-2.36871192">
        <ele>639.00000</ele>
        <time>2018-10-12T15:17:49Z</time>
      </trkpt>
      <trkpt lat="38.29723829" lon="-2.36839667">
        <ele>638.00000</ele>
        <time>2018-10-12T15:17:55Z</time>
      </trkpt>
      <trkpt lat="38.29733753" lon="-2.36839542">
        <ele>637.00000</ele>
        <time>2018-10-12T15:17:56Z</time>
      </trkpt>
      <trkpt lat="38.29753501" lon="-2.36839374">
        <ele>636.00000</ele>
        <time>2018-10-12T15:17:58Z</time>
      </trkpt>
      <trkpt lat="38.29773676" lon="-2.36837178">
        <ele>634.00000</ele>
        <time>2018-10-12T15:18:00Z</time>
      </trkpt>
      <trkpt lat="38.29783810" lon="-2.36833347">
        <ele>633.00000</ele>
        <time>2018-10-12T15:18:01Z</time>
      </trkpt>
      <trkpt lat="38.29793290" lon="-2.36827472">
        <ele>632.00000</ele>
        <time>2018-10-12T15:18:02Z</time>
      </trkpt>
      <trkpt lat="38.29809509" lon="-2.36811739">
        <ele>630.00000</ele>
        <time>2018-10-12T15:18:04Z</time>
      </trkpt>
      <trkpt lat="38.29817220" lon="-2.36803349">
        <ele>630.00000</ele>
        <time>2018-10-12T15:18:05Z</time>
      </trkpt>
      <trkpt lat="38.29833313" lon="-2.36787473">
        <ele>629.00000</ele>
        <time>2018-10-12T15:18:07Z</time>
      </trkpt>
      <trkpt lat="38.29850463" lon="-2.36772118">
        <ele>628.00000</ele>
        <time>2018-10-12T15:18:09Z</time>
      </trkpt>
      <trkpt lat="38.29867050" lon="-2.36754750">
        <ele>626.00000</ele>
        <time>2018-10-12T15:18:11Z</time>
      </trkpt>
      <trkpt lat="38.29888131" lon="-2.36708658">
        <ele>625.00000</ele>
        <time>2018-10-12T15:18:15Z</time>
      </trkpt>
      <trkpt lat="38.29892557" lon="-2.36684074">
        <ele>624.00000</ele>
        <time>2018-10-12T15:18:17Z</time>
      </trkpt>
      <trkpt lat="38.29897049" lon="-2.36648594">
        <ele>624.00000</ele>
        <time>2018-10-12T15:18:20Z</time>
      </trkpt>
      <trkpt lat="38.29902146" lon="-2.36625627">
        <ele>624.00000</ele>
        <time>2018-10-12T15:18:22Z</time>
      </trkpt>
      <trkpt lat="38.29922187" lon="-2.36585939">
        <ele>624.00000</ele>
        <time>2018-10-12T15:18:26Z</time>
      </trkpt>
      <trkpt lat="38.29954046" lon="-2.36526628">
        <ele>623.00000</ele>
        <time>2018-10-12T15:18:32Z</time>
      </trkpt>
      <trkpt lat="38.29957600" lon="-2.36515539">
        <ele>623.00000</ele>
        <time>2018-10-12T15:18:33Z</time>
      </trkpt>
      <trkpt lat="38.29960467" lon="-2.36492154">
        <ele>623.00000</ele>
        <time>2018-10-12T15:18:35Z</time>
      </trkpt>
      <trkpt lat="38.29961238" lon="-2.36469154">
        <ele>622.00000</ele>
        <time>2018-10-12T15:18:37Z</time>
      </trkpt>
      <trkpt lat="38.29962680" lon="-2.36457997">
        <ele>621.00000</ele>
        <time>2018-10-12T15:18:38Z</time>
      </trkpt>
      <trkpt lat="38.29965420" lon="-2.36447319">
        <ele>621.00000</ele>
        <time>2018-10-12T15:18:39Z</time>
      </trkpt>
      <trkpt lat="38.29978806" lon="-2.36417840">
        <ele>619.00000</ele>
        <time>2018-10-12T15:18:42Z</time>
      </trkpt>
      <trkpt lat="38.29988571" lon="-2.36397421">
        <ele>619.00000</ele>
        <time>2018-10-12T15:18:44Z</time>
      </trkpt>
      <trkpt lat="38.29999912" lon="-2.36352042">
        <ele>618.00000</ele>
        <time>2018-10-12T15:18:48Z</time>
      </trkpt>
      <trkpt lat="38.30007548" lon="-2.36307475">
        <ele>617.00000</ele>
        <time>2018-10-12T15:18:52Z</time>
      </trkpt>
      <trkpt lat="38.30008093" lon="-2.36285381">
        <ele>616.00000</ele>
        <time>2018-10-12T15:18:54Z</time>
      </trkpt>
      <trkpt lat="38.30009618" lon="-2.36263210">
        <ele>616.00000</ele>
        <time>2018-10-12T15:18:56Z</time>
      </trkpt>
      <trkpt lat="38.30018553" lon="-2.36231267">
        <ele>615.00000</ele>
        <time>2018-10-12T15:18:59Z</time>
      </trkpt>
      <trkpt lat="38.30033389" lon="-2.36178872">
        <ele>614.00000</ele>
        <time>2018-10-12T15:19:04Z</time>
      </trkpt>
      <trkpt lat="38.30039106" lon="-2.36146023">
        <ele>614.00000</ele>
        <time>2018-10-12T15:19:07Z</time>
      </trkpt>
      <trkpt lat="38.30051922" lon="-2.36069387">
        <ele>613.00000</ele>
        <time>2018-10-12T15:19:14Z</time>
      </trkpt>
      <trkpt lat="38.30056649" lon="-2.36013782">
        <ele>613.00000</ele>
        <time>2018-10-12T15:19:19Z</time>
      </trkpt>
      <trkpt lat="38.30061821" lon="-2.35940306">
        <ele>612.00000</ele>
        <time>2018-10-12T15:19:26Z</time>
      </trkpt>
      <trkpt lat="38.30065073" lon="-2.35894331">
        <ele>612.00000</ele>
        <time>2018-10-12T15:19:31Z</time>
      </trkpt>
      <trkpt lat="38.30068258" lon="-2.35878154">
        <ele>612.00000</ele>
        <time>2018-10-12T15:19:33Z</time>
      </trkpt>
      <trkpt lat="38.30084569" lon="-2.35845892">
        <ele>613.00000</ele>
        <time>2018-10-12T15:19:38Z</time>
      </trkpt>
      <trkpt lat="38.30100947" lon="-2.35824225">
        <ele>614.00000</ele>
        <time>2018-10-12T15:19:42Z</time>
      </trkpt>
      <trkpt lat="38.30111517" lon="-2.35807981">
        <ele>615.00000</ele>
        <time>2018-10-12T15:19:45Z</time>
      </trkpt>
      <trkpt lat="38.30122045" lon="-2.35791728">
        <ele>616.00000</ele>
        <time>2018-10-12T15:19:48Z</time>
      </trkpt>
      <trkpt lat="38.30125582" lon="-2.35786381">
        <ele>616.00000</ele>
        <time>2018-10-12T15:19:49Z</time>
      </trkpt>
      <trkpt lat="38.30135741" lon="-2.35770128">
        <ele>617.00000</ele>
        <time>2018-10-12T15:19:52Z</time>
      </trkpt>
      <trkpt lat="38.30148515" lon="-2.35750749">
        <ele>619.00000</ele>
        <time>2018-10-12T15:19:56Z</time>
      </trkpt>
      <trkpt lat="38.30167902" lon="-2.35716719">
        <ele>620.00000</ele>
        <time>2018-10-12T15:20:03Z</time>
      </trkpt>
      <trkpt lat="38.30179117" lon="-2.35696166">
        <ele>621.00000</ele>
        <time>2018-10-12T15:20:07Z</time>
      </trkpt>
      <trkpt lat="38.30184666" lon="-2.35684541">
        <ele>622.00000</ele>
        <time>2018-10-12T15:20:09Z</time>
      </trkpt>
      <trkpt lat="38.30188496" lon="-2.35672739">
        <ele>622.00000</ele>
        <time>2018-10-12T15:20:11Z</time>
      </trkpt>
      <trkpt lat="38.30203961" lon="-2.35606396">
        <ele>623.00000</ele>
        <time>2018-10-12T15:20:22Z</time>
      </trkpt>
      <trkpt lat="38.30206861" lon="-2.35594435">
        <ele>623.00000</ele>
        <time>2018-10-12T15:20:24Z</time>
      </trkpt>
      <trkpt lat="38.30215746" lon="-2.35558460">
        <ele>624.00000</ele>
        <time>2018-10-12T15:20:30Z</time>
      </trkpt>
      <trkpt lat="38.30223633" lon="-2.35527866">
        <ele>626.00000</ele>
        <time>2018-10-12T15:20:35Z</time>
      </trkpt>
      <trkpt lat="38.30237271" lon="-2.35465278">
        <ele>627.00000</ele>
        <time>2018-10-12T15:20:45Z</time>
      </trkpt>
      <trkpt lat="38.30261712" lon="-2.35401584">
        <ele>628.00000</ele>
        <time>2018-10-12T15:20:55Z</time>
      </trkpt>
      <trkpt lat="38.30272533" lon="-2.35371854">
        <ele>628.00000</ele>
        <time>2018-10-12T15:20:59Z</time>
      </trkpt>
      <trkpt lat="38.30292918" lon="-2.35346674">
        <ele>627.00000</ele>
        <time>2018-10-12T15:21:03Z</time>
      </trkpt>
      <trkpt lat="38.30312574" lon="-2.35329726">
        <ele>626.00000</ele>
        <time>2018-10-12T15:21:06Z</time>
      </trkpt>
      <trkpt lat="38.30326563" lon="-2.35320523">
        <ele>625.00000</ele>
        <time>2018-10-12T15:21:08Z</time>
      </trkpt>
      <trkpt lat="38.30341860" lon="-2.35314823">
        <ele>625.00000</ele>
        <time>2018-10-12T15:21:10Z</time>
      </trkpt>
      <trkpt lat="38.30359060" lon="-2.35312216">
        <ele>624.00000</ele>
        <time>2018-10-12T15:21:12Z</time>
      </trkpt>
      <trkpt lat="38.30367660" lon="-2.35311294">
        <ele>623.00000</ele>
        <time>2018-10-12T15:21:13Z</time>
      </trkpt>
      <trkpt lat="38.30392671" lon="-2.35306257">
        <ele>622.00000</ele>
        <time>2018-10-12T15:21:16Z</time>
      </trkpt>
      <trkpt lat="38.30400617" lon="-2.35303407">
        <ele>622.00000</ele>
        <time>2018-10-12T15:21:17Z</time>
      </trkpt>
      <trkpt lat="38.30432200" lon="-2.35274028">
        <ele>621.00000</ele>
        <time>2018-10-12T15:21:22Z</time>
      </trkpt>
      <trkpt lat="38.30436525" lon="-2.35265864">
        <ele>621.00000</ele>
        <time>2018-10-12T15:21:23Z</time>
      </trkpt>
      <trkpt lat="38.30460020" lon="-2.35225682">
        <ele>620.00000</ele>
        <time>2018-10-12T15:21:28Z</time>
      </trkpt>
      <trkpt lat="38.30481771" lon="-2.35192900">
        <ele>620.00000</ele>
        <time>2018-10-12T15:21:32Z</time>
      </trkpt>
      <trkpt lat="38.30500127" lon="-2.35154553">
        <ele>620.00000</ele>
        <time>2018-10-12T15:21:36Z</time>
      </trkpt>
      <trkpt lat="38.30512851" lon="-2.35125895">
        <ele>618.00000</ele>
        <time>2018-10-12T15:21:39Z</time>
      </trkpt>
      <trkpt lat="38.30527737" lon="-2.35087783">
        <ele>617.00000</ele>
        <time>2018-10-12T15:21:43Z</time>
      </trkpt>
      <trkpt lat="38.30529615" lon="-2.35055294">
        <ele>617.00000</ele>
        <time>2018-10-12T15:21:46Z</time>
      </trkpt>
      <trkpt lat="38.30528668" lon="-2.35044297">
        <ele>617.00000</ele>
        <time>2018-10-12T15:21:47Z</time>
      </trkpt>
      <trkpt lat="38.30525692" lon="-2.35010912">
        <ele>616.00000</ele>
        <time>2018-10-12T15:21:50Z</time>
      </trkpt>
      <trkpt lat="38.30524569" lon="-2.34977561">
        <ele>615.00000</ele>
        <time>2018-10-12T15:21:53Z</time>
      </trkpt>
      <trkpt lat="38.30533479" lon="-2.34947352">
        <ele>614.00000</ele>
        <time>2018-10-12T15:21:56Z</time>
      </trkpt>
      <trkpt lat="38.30538843" lon="-2.34939029">
        <ele>614.00000</ele>
        <time>2018-10-12T15:21:57Z</time>
      </trkpt>
      <trkpt lat="38.30560251" lon="-2.34919432">
        <ele>613.00000</ele>
        <time>2018-10-12T15:22:00Z</time>
      </trkpt>
      <trkpt lat="38.30582345" lon="-2.34902744">
        <ele>612.00000</ele>
        <time>2018-10-12T15:22:03Z</time>
      </trkpt>
      <trkpt lat="38.30610928" lon="-2.34881152">
        <ele>611.00000</ele>
        <time>2018-10-12T15:22:07Z</time>
      </trkpt>
      <trkpt lat="38.30666936" lon="-2.34853181">
        <ele>610.00000</ele>
        <time>2018-10-12T15:22:15Z</time>
      </trkpt>
      <trkpt lat="38.30685510" lon="-2.34839293">
        <ele>610.00000</ele>
        <time>2018-10-12T15:22:18Z</time>
      </trkpt>
      <trkpt lat="38.30699700" lon="-2.34821976">
        <ele>610.00000</ele>
        <time>2018-10-12T15:22:21Z</time>
      </trkpt>
      <trkpt lat="38.30708024" lon="-2.34812521">
        <ele>610.00000</ele>
        <time>2018-10-12T15:22:23Z</time>
      </trkpt>
      <trkpt lat="38.30717294" lon="-2.34805891">
        <ele>611.00000</ele>
        <time>2018-10-12T15:22:25Z</time>
      </trkpt>
      <trkpt lat="38.30722080" lon="-2.34804072">
        <ele>611.00000</ele>
        <time>2018-10-12T15:22:26Z</time>
      </trkpt>
      <trkpt lat="38.30731694" lon="-2.34802521">
        <ele>612.00000</ele>
        <time>2018-10-12T15:22:28Z</time>
      </trkpt>
      <trkpt lat="38.30741434" lon="-2.34803200">
        <ele>612.00000</ele>
        <time>2018-10-12T15:22:30Z</time>
      </trkpt>
      <trkpt lat="38.30746153" lon="-2.34802144">
        <ele>612.00000</ele>
        <time>2018-10-12T15:22:31Z</time>
      </trkpt>
      <trkpt lat="38.30753521" lon="-2.34782623">
        <ele>613.00000</ele>
        <time>2018-10-12T15:22:35Z</time>
      </trkpt>
      <trkpt lat="38.30749112" lon="-2.34764333">
        <ele>613.00000</ele>
        <time>2018-10-12T15:22:38Z</time>
      </trkpt>
      <trkpt lat="38.30729565" lon="-2.34697974">
        <ele>613.00000</ele>
        <time>2018-10-12T15:22:49Z</time>
      </trkpt>
      <trkpt lat="38.30726413" lon="-2.34687471">
        <ele>613.00000</ele>
        <time>2018-10-12T15:22:51Z</time>
      </trkpt>
      <trkpt lat="38.30715894" lon="-2.34671277">
        <ele>613.00000</ele>
        <time>2018-10-12T15:22:55Z</time>
      </trkpt>
      <trkpt lat="38.30705425" lon="-2.34661060">
        <ele>613.00000</ele>
        <time>2018-10-12T15:22:58Z</time>
      </trkpt>
      <trkpt lat="38.30673054" lon="-2.34638378">
        <ele>613.00000</ele>
        <time>2018-10-12T15:23:06Z</time>
      </trkpt>
      <trkpt lat="38.30654497" lon="-2.34637792">
        <ele>613.00000</ele>
        <time>2018-10-12T15:23:10Z</time>
      </trkpt>
      <trkpt lat="38.30649845" lon="-2.34639409">
        <ele>613.00000</ele>
        <time>2018-10-12T15:23:11Z</time>
      </trkpt>
      <trkpt lat="38.30645285" lon="-2.34641605">
        <ele>613.00000</ele>
        <time>2018-10-12T15:23:12Z</time>
      </trkpt>
      <trkpt lat="38.30607793" lon="-2.34665787">
        <ele>613.00000</ele>
        <time>2018-10-12T15:23:20Z</time>
      </trkpt>
      <trkpt lat="38.30583368" lon="-2.34677815">
        <ele>613.00000</ele>
        <time>2018-10-12T15:23:25Z</time>
      </trkpt>
      <trkpt lat="38.30560150" lon="-2.34690036">
        <ele>612.00000</ele>
        <time>2018-10-12T15:23:30Z</time>
      </trkpt>
      <trkpt lat="38.30519774" lon="-2.34697354">
        <ele>612.00000</ele>
        <time>2018-10-12T15:23:37Z</time>
      </trkpt>
      <trkpt lat="38.30508735" lon="-2.34703263">
        <ele>612.00000</ele>
        <time>2018-10-12T15:23:39Z</time>
      </trkpt>
      <trkpt lat="38.30487261" lon="-2.34716171">
        <ele>611.00000</ele>
        <time>2018-10-12T15:23:43Z</time>
      </trkpt>
      <trkpt lat="38.30459534" lon="-2.34721971">
        <ele>611.00000</ele>
        <time>2018-10-12T15:23:48Z</time>
      </trkpt>
      <trkpt lat="38.30441663" lon="-2.34749891">
        <ele>612.00000</ele>
        <time>2018-10-12T15:23:54Z</time>
      </trkpt>
      <trkpt lat="38.30435520" lon="-2.34770880">
        <ele>612.00000</ele>
        <time>2018-10-12T15:23:57Z</time>
      </trkpt>
      <trkpt lat="38.30417071" lon="-2.34840919">
        <ele>611.00000</ele>
        <time>2018-10-12T15:24:06Z</time>
      </trkpt>
      <trkpt lat="38.30411153" lon="-2.34865796">
        <ele>610.00000</ele>
        <time>2018-10-12T15:24:09Z</time>
      </trkpt>
      <trkpt lat="38.30382303" lon="-2.34901889">
        <ele>610.00000</ele>
        <time>2018-10-12T15:24:14Z</time>
      </trkpt>
      <trkpt lat="38.30368272" lon="-2.34914638">
        <ele>610.00000</ele>
        <time>2018-10-12T15:24:16Z</time>
      </trkpt>
      <trkpt lat="38.30360954" lon="-2.34919315">
        <ele>609.00000</ele>
        <time>2018-10-12T15:24:17Z</time>
      </trkpt>
      <trkpt lat="38.30353377" lon="-2.34922902">
        <ele>609.00000</ele>
        <time>2018-10-12T15:24:18Z</time>
      </trkpt>
      <trkpt lat="38.30339371" lon="-2.34930312">
        <ele>607.00000</ele>
        <time>2018-10-12T15:24:20Z</time>
      </trkpt>
      <trkpt lat="38.30316237" lon="-2.34947679">
        <ele>607.00000</ele>
        <time>2018-10-12T15:24:24Z</time>
      </trkpt>
      <trkpt lat="38.30266775" lon="-2.34981542">
        <ele>608.00000</ele>
        <time>2018-10-12T15:24:33Z</time>
      </trkpt>
      <trkpt lat="38.30256700" lon="-2.34989941">
        <ele>609.00000</ele>
        <time>2018-10-12T15:24:35Z</time>
      </trkpt>
      <trkpt lat="38.30241143" lon="-2.35010937">
        <ele>609.00000</ele>
        <time>2018-10-12T15:24:39Z</time>
      </trkpt>
      <trkpt lat="38.30225855" lon="-2.35030911">
        <ele>609.00000</ele>
        <time>2018-10-12T15:24:43Z</time>
      </trkpt>
      <trkpt lat="38.30217967" lon="-2.35041297">
        <ele>610.00000</ele>
        <time>2018-10-12T15:24:45Z</time>
      </trkpt>
      <trkpt lat="38.30205420" lon="-2.35065604">
        <ele>610.00000</ele>
        <time>2018-10-12T15:24:49Z</time>
      </trkpt>
      <trkpt lat="38.30200759" lon="-2.35078814">
        <ele>611.00000</ele>
        <time>2018-10-12T15:24:51Z</time>
      </trkpt>
      <trkpt lat="38.30186887" lon="-2.35100733">
        <ele>611.00000</ele>
        <time>2018-10-12T15:24:55Z</time>
      </trkpt>
      <trkpt lat="38.30173451" lon="-2.35109743">
        <ele>611.00000</ele>
        <time>2018-10-12T15:24:58Z</time>
      </trkpt>
      <trkpt lat="38.30169009" lon="-2.35111654">
        <ele>611.00000</ele>
        <time>2018-10-12T15:24:59Z</time>
      </trkpt>
      <trkpt lat="38.30153234" lon="-2.35118729">
        <ele>612.00000</ele>
        <time>2018-10-12T15:25:03Z</time>
      </trkpt>
      <trkpt lat="38.30142388" lon="-2.35123037">
        <ele>613.00000</ele>
        <time>2018-10-12T15:25:06Z</time>
      </trkpt>
      <trkpt lat="38.30131877" lon="-2.35126440">
        <ele>614.00000</ele>
        <time>2018-10-12T15:25:09Z</time>
      </trkpt>
      <trkpt lat="38.30121232" lon="-2.35129860">
        <ele>615.00000</ele>
        <time>2018-10-12T15:25:12Z</time>
      </trkpt>
      <trkpt lat="38.30112028" lon="-2.35134604">
        <ele>616.00000</ele>
        <time>2018-10-12T15:25:15Z</time>
      </trkpt>
      <trkpt lat="38.30105767" lon="-2.35136792">
        <ele>618.00000</ele>
        <time>2018-10-12T15:25:17Z</time>
      </trkpt>
      <trkpt lat="38.30092934" lon="-2.35137990">
        <ele>619.00000</ele>
        <time>2018-10-12T15:25:21Z</time>
      </trkpt>
      <trkpt lat="38.30080429" lon="-2.35138476">
        <ele>620.00000</ele>
        <time>2018-10-12T15:25:25Z</time>
      </trkpt>
      <trkpt lat="38.30067085" lon="-2.35137797">
        <ele>621.00000</ele>
        <time>2018-10-12T15:25:30Z</time>
      </trkpt>
      <trkpt lat="38.30056683" lon="-2.35136498">
        <ele>623.00000</ele>
        <time>2018-10-12T15:25:34Z</time>
      </trkpt>
      <trkpt lat="38.30046867" lon="-2.35135115">
        <ele>624.00000</ele>
        <time>2018-10-12T15:25:38Z</time>
      </trkpt>
      <trkpt lat="38.30040028" lon="-2.35133171">
        <ele>625.00000</ele>
        <time>2018-10-12T15:25:41Z</time>
      </trkpt>
      <trkpt lat="38.30030757" lon="-2.35131368">
        <ele>626.00000</ele>
        <time>2018-10-12T15:25:45Z</time>
      </trkpt>
      <trkpt lat="38.30021328" lon="-2.35131486">
        <ele>627.00000</ele>
        <time>2018-10-12T15:25:49Z</time>
      </trkpt>
      <trkpt lat="38.30014404" lon="-2.35133640">
        <ele>628.00000</ele>
        <time>2018-10-12T15:25:52Z</time>
      </trkpt>
      <trkpt lat="38.30007338" lon="-2.35135006">
        <ele>630.00000</ele>
        <time>2018-10-12T15:25:55Z</time>
      </trkpt>
      <trkpt lat="38.30000482" lon="-2.35135316">
        <ele>631.00000</ele>
        <time>2018-10-12T15:25:58Z</time>
      </trkpt>
      <trkpt lat="38.29991346" lon="-2.35134621">
        <ele>632.00000</ele>
        <time>2018-10-12T15:26:02Z</time>
      </trkpt>
      <trkpt lat="38.29982763" lon="-2.35130966">
        <ele>633.00000</ele>
        <time>2018-10-12T15:26:06Z</time>
      </trkpt>
      <trkpt lat="38.29972838" lon="-2.35124093">
        <ele>634.00000</ele>
        <time>2018-10-12T15:26:11Z</time>
      </trkpt>
      <trkpt lat="38.29964046" lon="-2.35115393">
        <ele>635.00000</ele>
        <time>2018-10-12T15:26:16Z</time>
      </trkpt>
      <trkpt lat="38.29957206" lon="-2.35107966">
        <ele>636.00000</ele>
        <time>2018-10-12T15:26:20Z</time>
      </trkpt>
      <trkpt lat="38.29950727" lon="-2.35100003">
        <ele>637.00000</ele>
        <time>2018-10-12T15:26:24Z</time>
      </trkpt>
      <trkpt lat="38.29947089" lon="-2.35086014">
        <ele>639.00000</ele>
        <time>2018-10-12T15:26:29Z</time>
      </trkpt>
      <trkpt lat="38.29946930" lon="-2.35074858">
        <ele>640.00000</ele>
        <time>2018-10-12T15:26:33Z</time>
      </trkpt>
      <trkpt lat="38.29942571" lon="-2.35062955">
        <ele>641.00000</ele>
        <time>2018-10-12T15:26:38Z</time>
      </trkpt>
      <trkpt lat="38.29936604" lon="-2.35056074">
        <ele>642.00000</ele>
        <time>2018-10-12T15:26:42Z</time>
      </trkpt>
      <trkpt lat="38.29934634" lon="-2.35055604">
        <ele>643.00000</ele>
        <time>2018-10-12T15:26:43Z</time>
      </trkpt>
      <trkpt lat="38.29926277" lon="-2.35058505">
        <ele>644.00000</ele>
        <time>2018-10-12T15:26:47Z</time>
      </trkpt>
      <trkpt lat="38.29924559" lon="-2.35060541">
        <ele>644.00000</ele>
        <time>2018-10-12T15:26:48Z</time>
      </trkpt>
      <trkpt lat="38.29920921" lon="-2.35064464">
        <ele>645.00000</ele>
        <time>2018-10-12T15:26:50Z</time>
      </trkpt>
      <trkpt lat="38.29913721" lon="-2.35078487">
        <ele>646.00000</ele>
        <time>2018-10-12T15:26:56Z</time>
      </trkpt>
      <trkpt lat="38.29911869" lon="-2.35092946">
        <ele>647.00000</ele>
        <time>2018-10-12T15:27:01Z</time>
      </trkpt>
      <trkpt lat="38.29912145" lon="-2.35110129">
        <ele>648.00000</ele>
        <time>2018-10-12T15:27:07Z</time>
      </trkpt>
      <trkpt lat="38.29913989" lon="-2.35120698">
        <ele>649.00000</ele>
        <time>2018-10-12T15:27:11Z</time>
      </trkpt>
      <trkpt lat="38.29917459" lon="-2.35132735">
        <ele>651.00000</ele>
        <time>2018-10-12T15:27:16Z</time>
      </trkpt>
      <trkpt lat="38.29919630" lon="-2.35145417">
        <ele>652.00000</ele>
        <time>2018-10-12T15:27:21Z</time>
      </trkpt>
      <trkpt lat="38.29921281" lon="-2.35152767">
        <ele>653.00000</ele>
        <time>2018-10-12T15:27:24Z</time>
      </trkpt>
      <trkpt lat="38.29922899" lon="-2.35163019">
        <ele>654.00000</ele>
        <time>2018-10-12T15:27:28Z</time>
      </trkpt>
      <trkpt lat="38.29924475" lon="-2.35178056">
        <ele>656.00000</ele>
        <time>2018-10-12T15:27:34Z</time>
      </trkpt>
      <trkpt lat="38.29920401" lon="-2.35187510">
        <ele>657.00000</ele>
        <time>2018-10-12T15:27:38Z</time>
      </trkpt>
      <trkpt lat="38.29912271" lon="-2.35189522">
        <ele>658.00000</ele>
        <time>2018-10-12T15:27:42Z</time>
      </trkpt>
      <trkpt lat="38.29901810" lon="-2.35184309">
        <ele>659.00000</ele>
        <time>2018-10-12T15:27:47Z</time>
      </trkpt>
      <trkpt lat="38.29890411" lon="-2.35176656">
        <ele>660.00000</ele>
        <time>2018-10-12T15:27:53Z</time>
      </trkpt>
      <trkpt lat="38.29882808" lon="-2.35172364">
        <ele>661.00000</ele>
        <time>2018-10-12T15:27:57Z</time>
      </trkpt>
      <trkpt lat="38.29880981" lon="-2.35171409">
        <ele>661.00000</ele>
        <time>2018-10-12T15:27:58Z</time>
      </trkpt>
      <trkpt lat="38.29872851" lon="-2.35164226">
        <ele>662.00000</ele>
        <time>2018-10-12T15:28:03Z</time>
      </trkpt>
      <trkpt lat="38.29865651" lon="-2.35159113">
        <ele>664.00000</ele>
        <time>2018-10-12T15:28:07Z</time>
      </trkpt>
      <trkpt lat="38.29856665" lon="-2.35152474">
        <ele>665.00000</ele>
        <time>2018-10-12T15:28:12Z</time>
      </trkpt>
      <trkpt lat="38.29847152" lon="-2.35147135">
        <ele>666.00000</ele>
        <time>2018-10-12T15:28:17Z</time>
      </trkpt>
      <trkpt lat="38.29837546" lon="-2.35142441">
        <ele>667.00000</ele>
        <time>2018-10-12T15:28:22Z</time>
      </trkpt>
      <trkpt lat="38.29827521" lon="-2.35142407">
        <ele>668.00000</ele>
        <time>2018-10-12T15:28:27Z</time>
      </trkpt>
      <trkpt lat="38.29819743" lon="-2.35142709">
        <ele>669.00000</ele>
        <time>2018-10-12T15:28:31Z</time>
      </trkpt>
      <trkpt lat="38.29814018" lon="-2.35140555">
        <ele>670.00000</ele>
        <time>2018-10-12T15:28:34Z</time>
      </trkpt>
      <trkpt lat="38.29812811" lon="-2.35138543">
        <ele>670.00000</ele>
        <time>2018-10-12T15:28:35Z</time>
      </trkpt>
      <trkpt lat="38.29812954" lon="-2.35129667">
        <ele>671.00000</ele>
        <time>2018-10-12T15:28:38Z</time>
      </trkpt>
      <trkpt lat="38.29816742" lon="-2.35119919">
        <ele>672.00000</ele>
        <time>2018-10-12T15:28:42Z</time>
      </trkpt>
      <trkpt lat="38.29818176" lon="-2.35118033">
        <ele>673.00000</ele>
        <time>2018-10-12T15:28:43Z</time>
      </trkpt>
      <trkpt lat="38.29823062" lon="-2.35113138">
        <ele>673.00000</ele>
        <time>2018-10-12T15:28:46Z</time>
      </trkpt>
      <trkpt lat="38.29829583" lon="-2.35106298">
        <ele>674.00000</ele>
        <time>2018-10-12T15:28:50Z</time>
      </trkpt>
      <trkpt lat="38.29832961" lon="-2.35102836">
        <ele>675.00000</ele>
        <time>2018-10-12T15:28:52Z</time>
      </trkpt>
      <trkpt lat="38.29832416" lon="-2.35095678">
        <ele>676.00000</ele>
        <time>2018-10-12T15:28:55Z</time>
      </trkpt>
      <trkpt lat="38.29825728" lon="-2.35092753">
        <ele>677.00000</ele>
        <time>2018-10-12T15:28:59Z</time>
      </trkpt>
      <trkpt lat="38.29817891" lon="-2.35095268">
        <ele>678.00000</ele>
        <time>2018-10-12T15:29:03Z</time>
      </trkpt>
      <trkpt lat="38.29816172" lon="-2.35096198">
        <ele>678.00000</ele>
        <time>2018-10-12T15:29:04Z</time>
      </trkpt>
      <trkpt lat="38.29812887" lon="-2.35096919">
        <ele>679.00000</ele>
        <time>2018-10-12T15:29:06Z</time>
      </trkpt>
      <trkpt lat="38.29809366" lon="-2.35096617">
        <ele>680.00000</ele>
        <time>2018-10-12T15:29:08Z</time>
      </trkpt>
      <trkpt lat="38.29803071" lon="-2.35100816">
        <ele>681.00000</ele>
        <time>2018-10-12T15:29:12Z</time>
      </trkpt>
      <trkpt lat="38.29793164" lon="-2.35097288">
        <ele>682.00000</ele>
        <time>2018-10-12T15:29:17Z</time>
      </trkpt>
      <trkpt lat="38.29782678" lon="-2.35095284">
        <ele>683.00000</ele>
        <time>2018-10-12T15:29:22Z</time>
      </trkpt>
      <trkpt lat="38.29772494" lon="-2.35091513">
        <ele>684.00000</ele>
        <time>2018-10-12T15:29:27Z</time>
      </trkpt>
      <trkpt lat="38.29753601" lon="-2.35091513">
        <ele>685.00000</ele>
        <time>2018-10-12T15:29:35Z</time>
      </trkpt>
      <trkpt lat="38.29742906" lon="-2.35093046">
        <ele>686.00000</ele>
        <time>2018-10-12T15:29:41Z</time>
      </trkpt>
      <trkpt lat="38.29736477" lon="-2.35089073">
        <ele>687.00000</ele>
        <time>2018-10-12T15:29:44Z</time>
      </trkpt>
      <trkpt lat="38.29735362" lon="-2.35085553">
        <ele>687.00000</ele>
        <time>2018-10-12T15:29:45Z</time>
      </trkpt>
      <trkpt lat="38.29738229" lon="-2.35072460">
        <ele>689.00000</ele>
        <time>2018-10-12T15:29:49Z</time>
      </trkpt>
      <trkpt lat="38.29744474" lon="-2.35061606">
        <ele>690.00000</ele>
        <time>2018-10-12T15:29:53Z</time>
      </trkpt>
      <trkpt lat="38.29757968" lon="-2.35051120">
        <ele>691.00000</ele>
        <time>2018-10-12T15:29:59Z</time>
      </trkpt>
      <trkpt lat="38.29760483" lon="-2.35050341">
        <ele>691.00000</ele>
        <time>2018-10-12T15:30:00Z</time>
      </trkpt>
      <trkpt lat="38.29777825" lon="-2.35045320">
        <ele>692.00000</ele>
        <time>2018-10-12T15:30:08Z</time>
      </trkpt>
      <trkpt lat="38.29785344" lon="-2.35035630">
        <ele>693.00000</ele>
        <time>2018-10-12T15:30:13Z</time>
      </trkpt>
      <trkpt lat="38.29784078" lon="-2.35024943">
        <ele>695.00000</ele>
        <time>2018-10-12T15:30:17Z</time>
      </trkpt>
      <trkpt lat="38.29777121" lon="-2.35016905">
        <ele>696.00000</ele>
        <time>2018-10-12T15:30:22Z</time>
      </trkpt>
      <trkpt lat="38.29770541" lon="-2.35013158">
        <ele>697.00000</ele>
        <time>2018-10-12T15:30:26Z</time>
      </trkpt>
      <trkpt lat="38.29763559" lon="-2.35011365">
        <ele>698.00000</ele>
        <time>2018-10-12T15:30:30Z</time>
      </trkpt>
      <trkpt lat="38.29759469" lon="-2.35004156">
        <ele>699.00000</ele>
        <time>2018-10-12T15:30:34Z</time>
      </trkpt>
      <trkpt lat="38.29758723" lon="-2.34995573">
        <ele>700.00000</ele>
        <time>2018-10-12T15:30:38Z</time>
      </trkpt>
      <trkpt lat="38.29760885" lon="-2.34986378">
        <ele>701.00000</ele>
        <time>2018-10-12T15:30:42Z</time>
      </trkpt>
      <trkpt lat="38.29761573" lon="-2.34983780">
        <ele>701.00000</ele>
        <time>2018-10-12T15:30:43Z</time>
      </trkpt>
      <trkpt lat="38.29765001" lon="-2.34973420">
        <ele>703.00000</ele>
        <time>2018-10-12T15:30:47Z</time>
      </trkpt>
      <trkpt lat="38.29768831" lon="-2.34963756">
        <ele>704.00000</ele>
        <time>2018-10-12T15:30:52Z</time>
      </trkpt>
      <trkpt lat="38.29771790" lon="-2.34954661">
        <ele>705.00000</ele>
        <time>2018-10-12T15:30:57Z</time>
      </trkpt>
      <trkpt lat="38.29774514" lon="-2.34949909">
        <ele>706.00000</ele>
        <time>2018-10-12T15:31:00Z</time>
      </trkpt>
      <trkpt lat="38.29775621" lon="-2.34946229">
        <ele>706.00000</ele>
        <time>2018-10-12T15:31:02Z</time>
      </trkpt>
      <trkpt lat="38.29778848" lon="-2.34936070">
        <ele>707.00000</ele>
        <time>2018-10-12T15:31:08Z</time>
      </trkpt>
      <trkpt lat="38.29783902" lon="-2.34928929">
        <ele>709.00000</ele>
        <time>2018-10-12T15:31:13Z</time>
      </trkpt>
      <trkpt lat="38.29789434" lon="-2.34920036">
        <ele>710.00000</ele>
        <time>2018-10-12T15:31:19Z</time>
      </trkpt>
      <trkpt lat="38.29792644" lon="-2.34912249">
        <ele>711.00000</ele>
        <time>2018-10-12T15:31:24Z</time>
      </trkpt>
      <trkpt lat="38.29796358" lon="-2.34906901">
        <ele>712.00000</ele>
        <time>2018-10-12T15:31:28Z</time>
      </trkpt>
      <trkpt lat="38.29797196" lon="-2.34905476">
        <ele>712.00000</ele>
        <time>2018-10-12T15:31:29Z</time>
      </trkpt>
      <trkpt lat="38.29798948" lon="-2.34898335">
        <ele>713.00000</ele>
        <time>2018-10-12T15:31:33Z</time>
      </trkpt>
      <trkpt lat="38.29799434" lon="-2.34894689">
        <ele>714.00000</ele>
        <time>2018-10-12T15:31:35Z</time>
      </trkpt>
      <trkpt lat="38.29800280" lon="-2.34889048">
        <ele>714.00000</ele>
        <time>2018-10-12T15:31:38Z</time>
      </trkpt>
      <trkpt lat="38.29800523" lon="-2.34885510">
        <ele>714.00000</ele>
        <time>2018-10-12T15:31:40Z</time>
      </trkpt>
      <trkpt lat="38.29792887" lon="-2.34884019">
        <ele>715.00000</ele>
        <time>2018-10-12T15:31:45Z</time>
      </trkpt>
      <trkpt lat="38.29789409" lon="-2.34886826">
        <ele>716.00000</ele>
        <time>2018-10-12T15:31:47Z</time>
      </trkpt>
      <trkpt lat="38.29786115" lon="-2.34889484">
        <ele>716.00000</ele>
        <time>2018-10-12T15:31:49Z</time>
      </trkpt>
      <trkpt lat="38.29776409" lon="-2.34902149">
        <ele>717.00000</ele>
        <time>2018-10-12T15:31:57Z</time>
      </trkpt>
      <trkpt lat="38.29768169" lon="-2.34909961">
        <ele>718.00000</ele>
        <time>2018-10-12T15:32:03Z</time>
      </trkpt>
      <trkpt lat="38.29759159" lon="-2.34915534">
        <ele>719.00000</ele>
        <time>2018-10-12T15:32:09Z</time>
      </trkpt>
      <trkpt lat="38.29749637" lon="-2.34919072">
        <ele>721.00000</ele>
        <time>2018-10-12T15:32:15Z</time>
      </trkpt>
      <trkpt lat="38.29741540" lon="-2.34920606">
        <ele>722.00000</ele>
        <time>2018-10-12T15:32:20Z</time>
      </trkpt>
      <trkpt lat="38.29727701" lon="-2.34921058">
        <ele>723.00000</ele>
        <time>2018-10-12T15:32:28Z</time>
      </trkpt>
      <trkpt lat="38.29717475" lon="-2.34920270">
        <ele>724.00000</ele>
        <time>2018-10-12T15:32:34Z</time>
      </trkpt>
      <trkpt lat="38.29710250" lon="-2.34920865">
        <ele>725.00000</ele>
        <time>2018-10-12T15:32:38Z</time>
      </trkpt>
      <trkpt lat="38.29699714" lon="-2.34922944">
        <ele>726.00000</ele>
        <time>2018-10-12T15:32:44Z</time>
      </trkpt>
      <trkpt lat="38.29691760" lon="-2.34925325">
        <ele>727.00000</ele>
        <time>2018-10-12T15:32:49Z</time>
      </trkpt>
      <trkpt lat="38.29684006" lon="-2.34926733">
        <ele>728.00000</ele>
        <time>2018-10-12T15:32:54Z</time>
      </trkpt>
      <trkpt lat="38.29678080" lon="-2.34927940">
        <ele>729.00000</ele>
        <time>2018-10-12T15:32:58Z</time>
      </trkpt>
      <trkpt lat="38.29669774" lon="-2.34927764">
        <ele>730.00000</ele>
        <time>2018-10-12T15:33:03Z</time>
      </trkpt>
      <trkpt lat="38.29658794" lon="-2.34929457">
        <ele>732.00000</ele>
        <time>2018-10-12T15:33:09Z</time>
      </trkpt>
      <trkpt lat="38.29650856" lon="-2.34934712">
        <ele>733.00000</ele>
        <time>2018-10-12T15:33:14Z</time>
      </trkpt>
      <trkpt lat="38.29641351" lon="-2.34945701">
        <ele>734.00000</ele>
        <time>2018-10-12T15:33:21Z</time>
      </trkpt>
      <trkpt lat="38.29635408" lon="-2.34963068">
        <ele>735.00000</ele>
        <time>2018-10-12T15:33:29Z</time>
      </trkpt>
      <trkpt lat="38.29627588" lon="-2.34969807">
        <ele>736.00000</ele>
        <time>2018-10-12T15:33:34Z</time>
      </trkpt>
      <trkpt lat="38.29625660" lon="-2.34969615">
        <ele>736.00000</ele>
        <time>2018-10-12T15:33:35Z</time>
      </trkpt>
      <trkpt lat="38.29621243" lon="-2.34959615">
        <ele>737.00000</ele>
        <time>2018-10-12T15:33:40Z</time>
      </trkpt>
      <trkpt lat="38.29623565" lon="-2.34943698">
        <ele>738.00000</ele>
        <time>2018-10-12T15:33:46Z</time>
      </trkpt>
      <trkpt lat="38.29628074" lon="-2.34933950">
        <ele>739.00000</ele>
        <time>2018-10-12T15:33:50Z</time>
      </trkpt>
      <trkpt lat="38.29633790" lon="-2.34920966">
        <ele>740.00000</ele>
        <time>2018-10-12T15:33:55Z</time>
      </trkpt>
      <trkpt lat="38.29648719" lon="-2.34901277">
        <ele>741.00000</ele>
        <time>2018-10-12T15:34:04Z</time>
      </trkpt>
      <trkpt lat="38.29669112" lon="-2.34890347">
        <ele>743.00000</ele>
        <time>2018-10-12T15:34:13Z</time>
      </trkpt>
      <trkpt lat="38.29681157" lon="-2.34878922">
        <ele>744.00000</ele>
        <time>2018-10-12T15:34:18Z</time>
      </trkpt>
      <trkpt lat="38.29689153" lon="-2.34867028">
        <ele>745.00000</ele>
        <time>2018-10-12T15:34:22Z</time>
      </trkpt>
      <trkpt lat="38.29696051" lon="-2.34855378">
        <ele>746.00000</ele>
        <time>2018-10-12T15:34:26Z</time>
      </trkpt>
      <trkpt lat="38.29707157" lon="-2.34838698">
        <ele>747.00000</ele>
        <time>2018-10-12T15:34:32Z</time>
      </trkpt>
      <trkpt lat="38.29726763" lon="-2.34803385">
        <ele>748.00000</ele>
        <time>2018-10-12T15:34:43Z</time>
      </trkpt>
      <trkpt lat="38.29737751" lon="-2.34784157">
        <ele>748.00000</ele>
        <time>2018-10-12T15:34:49Z</time>
      </trkpt>
      <trkpt lat="38.29745245" lon="-2.34761970">
        <ele>749.00000</ele>
        <time>2018-10-12T15:34:55Z</time>
      </trkpt>
      <trkpt lat="38.29749142" lon="-2.34745809">
        <ele>749.00000</ele>
        <time>2018-10-12T15:34:59Z</time>
      </trkpt>
      <trkpt lat="38.29753769" lon="-2.34689072">
        <ele>750.00000</ele>
        <time>2018-10-12T15:35:13Z</time>
      </trkpt>
      <trkpt lat="38.29753744" lon="-2.34667799">
        <ele>750.00000</ele>
        <time>2018-10-12T15:35:18Z</time>
      </trkpt>
      <trkpt lat="38.29743292" lon="-2.34639954">
        <ele>751.00000</ele>
        <time>2018-10-12T15:35:28Z</time>
      </trkpt>
      <trkpt lat="38.29738916" lon="-2.34643240">
        <ele>751.00000</ele>
        <time>2018-10-12T15:35:30Z</time>
      </trkpt>
      <trkpt lat="38.29733032" lon="-2.34650172">
        <ele>752.00000</ele>
        <time>2018-10-12T15:35:33Z</time>
      </trkpt>
      <trkpt lat="38.29731012" lon="-2.34652963">
        <ele>753.00000</ele>
        <time>2018-10-12T15:35:34Z</time>
      </trkpt>
      <trkpt lat="38.29725212" lon="-2.34661621">
        <ele>754.00000</ele>
        <time>2018-10-12T15:35:37Z</time>
      </trkpt>
      <trkpt lat="38.29711700" lon="-2.34678913">
        <ele>755.00000</ele>
        <time>2018-10-12T15:35:44Z</time>
      </trkpt>
      <trkpt lat="38.29704928" lon="-2.34687589">
        <ele>755.00000</ele>
        <time>2018-10-12T15:35:48Z</time>
      </trkpt>
      <trkpt lat="38.29701692" lon="-2.34695174">
        <ele>756.00000</ele>
        <time>2018-10-12T15:35:51Z</time>
      </trkpt>
      <trkpt lat="38.29701558" lon="-2.34703129">
        <ele>757.00000</ele>
        <time>2018-10-12T15:35:54Z</time>
      </trkpt>
      <trkpt lat="38.29700619" lon="-2.34710748">
        <ele>758.00000</ele>
        <time>2018-10-12T15:35:57Z</time>
      </trkpt>
      <trkpt lat="38.29698960" lon="-2.34726673">
        <ele>760.00000</ele>
        <time>2018-10-12T15:36:02Z</time>
      </trkpt>
      <trkpt lat="38.29698021" lon="-2.34733203">
        <ele>761.00000</ele>
        <time>2018-10-12T15:36:04Z</time>
      </trkpt>
      <trkpt lat="38.29695448" lon="-2.34746622">
        <ele>762.00000</ele>
        <time>2018-10-12T15:36:08Z</time>
      </trkpt>
      <trkpt lat="38.29690704" lon="-2.34755398">
        <ele>763.00000</ele>
        <time>2018-10-12T15:36:11Z</time>
      </trkpt>
      <trkpt lat="38.29673244" lon="-2.34772439">
        <ele>764.00000</ele>
        <time>2018-10-12T15:36:19Z</time>
      </trkpt>
      <trkpt lat="38.29649297" lon="-2.34796470">
        <ele>765.00000</ele>
        <time>2018-10-12T15:36:29Z</time>
      </trkpt>
      <trkpt lat="38.29637831" lon="-2.34811054">
        <ele>765.00000</ele>
        <time>2018-10-12T15:36:34Z</time>
      </trkpt>
      <trkpt lat="38.29621779" lon="-2.34830777">
        <ele>765.00000</ele>
        <time>2018-10-12T15:36:41Z</time>
      </trkpt>
      <trkpt lat="38.29601998" lon="-2.34854414">
        <ele>766.00000</ele>
        <time>2018-10-12T15:36:49Z</time>
      </trkpt>
      <trkpt lat="38.29581563" lon="-2.34880473">
        <ele>766.00000</ele>
        <time>2018-10-12T15:36:58Z</time>
      </trkpt>
      <trkpt lat="38.29561019" lon="-2.34905870">
        <ele>767.00000</ele>
        <time>2018-10-12T15:37:07Z</time>
      </trkpt>
      <trkpt lat="38.29529402" lon="-2.34944955">
        <ele>768.00000</ele>
        <time>2018-10-12T15:37:21Z</time>
      </trkpt>
      <trkpt lat="38.29527156" lon="-2.34947931">
        <ele>768.00000</ele>
        <time>2018-10-12T15:37:22Z</time>
      </trkpt>
      <trkpt lat="38.29509026" lon="-2.34968818">
        <ele>770.00000</ele>
        <time>2018-10-12T15:37:30Z</time>
      </trkpt>
      <trkpt lat="38.29496084" lon="-2.34988809">
        <ele>771.00000</ele>
        <time>2018-10-12T15:37:37Z</time>
      </trkpt>
      <trkpt lat="38.29485330" lon="-2.35007937">
        <ele>772.00000</ele>
        <time>2018-10-12T15:37:43Z</time>
      </trkpt>
      <trkpt lat="38.29474769" lon="-2.35022203">
        <ele>773.00000</ele>
        <time>2018-10-12T15:37:48Z</time>
      </trkpt>
      <trkpt lat="38.29446447" lon="-2.35036326">
        <ele>774.00000</ele>
        <time>2018-10-12T15:37:58Z</time>
      </trkpt>
      <trkpt lat="38.29423899" lon="-2.35043568">
        <ele>775.00000</ele>
        <time>2018-10-12T15:38:06Z</time>
      </trkpt>
      <trkpt lat="38.29407177" lon="-2.35046342">
        <ele>776.00000</ele>
        <time>2018-10-12T15:38:12Z</time>
      </trkpt>
      <trkpt lat="38.29390699" lon="-2.35047742">
        <ele>777.00000</ele>
        <time>2018-10-12T15:38:18Z</time>
      </trkpt>
      <trkpt lat="38.29377296" lon="-2.35048337">
        <ele>778.00000</ele>
        <time>2018-10-12T15:38:23Z</time>
      </trkpt>
      <trkpt lat="38.29363642" lon="-2.35048924">
        <ele>779.00000</ele>
        <time>2018-10-12T15:38:28Z</time>
      </trkpt>
      <trkpt lat="38.29343140" lon="-2.35047751">
        <ele>780.00000</ele>
        <time>2018-10-12T15:38:36Z</time>
      </trkpt>
      <trkpt lat="38.29327549" lon="-2.35048052">
        <ele>781.00000</ele>
        <time>2018-10-12T15:38:42Z</time>
      </trkpt>
      <trkpt lat="38.29312755" lon="-2.35055152">
        <ele>783.00000</ele>
        <time>2018-10-12T15:38:48Z</time>
      </trkpt>
      <trkpt lat="38.29302965" lon="-2.35067632">
        <ele>784.00000</ele>
        <time>2018-10-12T15:38:53Z</time>
      </trkpt>
      <trkpt lat="38.29291616" lon="-2.35084262">
        <ele>785.00000</ele>
        <time>2018-10-12T15:38:59Z</time>
      </trkpt>
      <trkpt lat="38.29279026" lon="-2.35108285">
        <ele>786.00000</ele>
        <time>2018-10-12T15:39:07Z</time>
      </trkpt>
      <trkpt lat="38.29274073" lon="-2.35129659">
        <ele>787.00000</ele>
        <time>2018-10-12T15:39:14Z</time>
      </trkpt>
      <trkpt lat="38.29273981" lon="-2.35144771">
        <ele>788.00000</ele>
        <time>2018-10-12T15:39:19Z</time>
      </trkpt>
      <trkpt lat="38.29273268" lon="-2.35153581">
        <ele>789.00000</ele>
        <time>2018-10-12T15:39:23Z</time>
      </trkpt>
      <trkpt lat="38.29273042" lon="-2.35160890">
        <ele>790.00000</ele>
        <time>2018-10-12T15:39:26Z</time>
      </trkpt>
      <trkpt lat="38.29273352" lon="-2.35169171">
        <ele>791.00000</ele>
        <time>2018-10-12T15:39:29Z</time>
      </trkpt>
      <trkpt lat="38.29273620" lon="-2.35178659">
        <ele>792.00000</ele>
        <time>2018-10-12T15:39:32Z</time>
      </trkpt>
      <trkpt lat="38.29274894" lon="-2.35189874">
        <ele>793.00000</ele>
        <time>2018-10-12T15:39:36Z</time>
      </trkpt>
      <trkpt lat="38.29275707" lon="-2.35202346">
        <ele>794.00000</ele>
        <time>2018-10-12T15:39:40Z</time>
      </trkpt>
      <trkpt lat="38.29281440" lon="-2.35226159">
        <ele>795.00000</ele>
        <time>2018-10-12T15:39:48Z</time>
      </trkpt>
      <trkpt lat="38.29290761" lon="-2.35238933">
        <ele>796.00000</ele>
        <time>2018-10-12T15:39:56Z</time>
      </trkpt>
      <trkpt lat="38.29292069" lon="-2.35240384">
        <ele>797.00000</ele>
        <time>2018-10-12T15:39:57Z</time>
      </trkpt>
      <trkpt lat="38.29294458" lon="-2.35247064">
        <ele>797.00000</ele>
        <time>2018-10-12T15:40:00Z</time>
      </trkpt>
      <trkpt lat="38.29302462" lon="-2.35257240">
        <ele>799.00000</ele>
        <time>2018-10-12T15:40:06Z</time>
      </trkpt>
      <trkpt lat="38.29303502" lon="-2.35259695">
        <ele>799.00000</ele>
        <time>2018-10-12T15:40:07Z</time>
      </trkpt>
      <trkpt lat="38.29308355" lon="-2.35269200">
        <ele>800.00000</ele>
        <time>2018-10-12T15:40:12Z</time>
      </trkpt>
      <trkpt lat="38.29313074" lon="-2.35279074">
        <ele>801.00000</ele>
        <time>2018-10-12T15:40:17Z</time>
      </trkpt>
      <trkpt lat="38.29316594" lon="-2.35288286">
        <ele>802.00000</ele>
        <time>2018-10-12T15:40:22Z</time>
      </trkpt>
      <trkpt lat="38.29318053" lon="-2.35291991">
        <ele>802.00000</ele>
        <time>2018-10-12T15:40:24Z</time>
      </trkpt>
      <trkpt lat="38.29321590" lon="-2.35296576">
        <ele>803.00000</ele>
        <time>2018-10-12T15:40:27Z</time>
      </trkpt>
      <trkpt lat="38.29322344" lon="-2.35300465">
        <ele>803.00000</ele>
        <time>2018-10-12T15:40:29Z</time>
      </trkpt>
      <trkpt lat="38.29323576" lon="-2.35303558">
        <ele>803.00000</ele>
        <time>2018-10-12T15:40:31Z</time>
      </trkpt>
      <trkpt lat="38.29326317" lon="-2.35305435">
        <ele>804.00000</ele>
        <time>2018-10-12T15:40:33Z</time>
      </trkpt>
      <trkpt lat="38.29332168" lon="-2.35311781">
        <ele>805.00000</ele>
        <time>2018-10-12T15:40:38Z</time>
      </trkpt>
      <trkpt lat="38.29334917" lon="-2.35316072">
        <ele>806.00000</ele>
        <time>2018-10-12T15:40:41Z</time>
      </trkpt>
      <trkpt lat="38.29338169" lon="-2.35317958">
        <ele>806.00000</ele>
        <time>2018-10-12T15:40:43Z</time>
      </trkpt>
      <trkpt lat="38.29345621" lon="-2.35318109">
        <ele>807.00000</ele>
        <time>2018-10-12T15:40:48Z</time>
      </trkpt>
      <trkpt lat="38.29349342" lon="-2.35320397">
        <ele>808.00000</ele>
        <time>2018-10-12T15:40:51Z</time>
      </trkpt>
      <trkpt lat="38.29351731" lon="-2.35324664">
        <ele>808.00000</ele>
        <time>2018-10-12T15:40:53Z</time>
      </trkpt>
      <trkpt lat="38.29355268" lon="-2.35327413">
        <ele>809.00000</ele>
        <time>2018-10-12T15:40:56Z</time>
      </trkpt>
      <trkpt lat="38.29356559" lon="-2.35327958">
        <ele>809.00000</ele>
        <time>2018-10-12T15:40:57Z</time>
      </trkpt>
      <trkpt lat="38.29362225" lon="-2.35332123">
        <ele>811.00000</ele>
        <time>2018-10-12T15:41:02Z</time>
      </trkpt>
      <trkpt lat="38.29364161" lon="-2.35334764">
        <ele>811.00000</ele>
        <time>2018-10-12T15:41:04Z</time>
      </trkpt>
      <trkpt lat="38.29365880" lon="-2.35337580">
        <ele>812.00000</ele>
        <time>2018-10-12T15:41:06Z</time>
      </trkpt>
      <trkpt lat="38.29366349" lon="-2.35339332">
        <ele>812.00000</ele>
        <time>2018-10-12T15:41:07Z</time>
      </trkpt>
      <trkpt lat="38.29368562" lon="-2.35350899">
        <ele>813.00000</ele>
        <time>2018-10-12T15:41:13Z</time>
      </trkpt>
      <trkpt lat="38.29370213" lon="-2.35366866">
        <ele>814.00000</ele>
        <time>2018-10-12T15:41:20Z</time>
      </trkpt>
      <trkpt lat="38.29371630" lon="-2.35387352">
        <ele>815.00000</ele>
        <time>2018-10-12T15:41:29Z</time>
      </trkpt>
      <trkpt lat="38.29374295" lon="-2.35402707">
        <ele>816.00000</ele>
        <time>2018-10-12T15:41:36Z</time>
      </trkpt>
      <trkpt lat="38.29375343" lon="-2.35406278">
        <ele>816.00000</ele>
        <time>2018-10-12T15:41:38Z</time>
      </trkpt>
      <trkpt lat="38.29378218" lon="-2.35419153">
        <ele>817.00000</ele>
        <time>2018-10-12T15:41:44Z</time>
      </trkpt>
      <trkpt lat="38.29382132" lon="-2.35431952">
        <ele>819.00000</ele>
        <time>2018-10-12T15:41:50Z</time>
      </trkpt>
      <trkpt lat="38.29384680" lon="-2.35440610">
        <ele>820.00000</ele>
        <time>2018-10-12T15:41:54Z</time>
      </trkpt>
      <trkpt lat="38.29390221" lon="-2.35449914">
        <ele>821.00000</ele>
        <time>2018-10-12T15:41:59Z</time>
      </trkpt>
      <trkpt lat="38.29395384" lon="-2.35454281">
        <ele>822.00000</ele>
        <time>2018-10-12T15:42:03Z</time>
      </trkpt>
      <trkpt lat="38.29396432" lon="-2.35455790">
        <ele>822.00000</ele>
        <time>2018-10-12T15:42:04Z</time>
      </trkpt>
      <trkpt lat="38.29399726" lon="-2.35464859">
        <ele>823.00000</ele>
        <time>2018-10-12T15:42:09Z</time>
      </trkpt>
      <trkpt lat="38.29401553" lon="-2.35471129">
        <ele>824.00000</ele>
        <time>2018-10-12T15:42:12Z</time>
      </trkpt>
      <trkpt lat="38.29402408" lon="-2.35475588">
        <ele>824.00000</ele>
        <time>2018-10-12T15:42:14Z</time>
      </trkpt>
      <trkpt lat="38.29406850" lon="-2.35486401">
        <ele>825.00000</ele>
        <time>2018-10-12T15:42:19Z</time>
      </trkpt>
      <trkpt lat="38.29410505" lon="-2.35502787">
        <ele>826.00000</ele>
        <time>2018-10-12T15:42:25Z</time>
      </trkpt>
      <trkpt lat="38.29409415" lon="-2.35542434">
        <ele>826.00000</ele>
        <time>2018-10-12T15:42:32Z</time>
      </trkpt>
      <trkpt lat="38.29390263" lon="-2.35577235">
        <ele>825.00000</ele>
        <time>2018-10-12T15:42:37Z</time>
      </trkpt>
      <trkpt lat="38.29381654" lon="-2.35586866">
        <ele>824.00000</ele>
        <time>2018-10-12T15:42:39Z</time>
      </trkpt>
      <trkpt lat="38.29371881" lon="-2.35600462">
        <ele>824.00000</ele>
        <time>2018-10-12T15:42:42Z</time>
      </trkpt>
      <trkpt lat="38.29367430" lon="-2.35637518">
        <ele>825.00000</ele>
        <time>2018-10-12T15:42:54Z</time>
      </trkpt>
      <trkpt lat="38.29369953" lon="-2.35644400">
        <ele>826.00000</ele>
        <time>2018-10-12T15:42:57Z</time>
      </trkpt>
      <trkpt lat="38.29370406" lon="-2.35650879">
        <ele>828.00000</ele>
        <time>2018-10-12T15:43:00Z</time>
      </trkpt>
      <trkpt lat="38.29369467" lon="-2.35655288">
        <ele>828.00000</ele>
        <time>2018-10-12T15:43:02Z</time>
      </trkpt>
      <trkpt lat="38.29367523" lon="-2.35658775">
        <ele>829.00000</ele>
        <time>2018-10-12T15:43:04Z</time>
      </trkpt>
      <trkpt lat="38.29359535" lon="-2.35658414">
        <ele>830.00000</ele>
        <time>2018-10-12T15:43:08Z</time>
      </trkpt>
      <trkpt lat="38.29352050" lon="-2.35653871">
        <ele>831.00000</ele>
        <time>2018-10-12T15:43:12Z</time>
      </trkpt>
      <trkpt lat="38.29341505" lon="-2.35649982">
        <ele>832.00000</ele>
        <time>2018-10-12T15:43:18Z</time>
      </trkpt>
      <trkpt lat="38.29332319" lon="-2.35640628">
        <ele>834.00000</ele>
        <time>2018-10-12T15:43:24Z</time>
      </trkpt>
      <trkpt lat="38.29325295" lon="-2.35631533">
        <ele>835.00000</ele>
        <time>2018-10-12T15:43:29Z</time>
      </trkpt>
      <trkpt lat="38.29323920" lon="-2.35626999">
        <ele>835.00000</ele>
        <time>2018-10-12T15:43:31Z</time>
      </trkpt>
      <trkpt lat="38.29324297" lon="-2.35617712">
        <ele>836.00000</ele>
        <time>2018-10-12T15:43:35Z</time>
      </trkpt>
      <trkpt lat="38.29325328" lon="-2.35603697">
        <ele>837.00000</ele>
        <time>2018-10-12T15:43:42Z</time>
      </trkpt>
      <trkpt lat="38.29326384" lon="-2.35602021">
        <ele>837.00000</ele>
        <time>2018-10-12T15:43:43Z</time>
      </trkpt>
      <trkpt lat="38.29331707" lon="-2.35593999">
        <ele>838.00000</ele>
        <time>2018-10-12T15:43:48Z</time>
      </trkpt>
      <trkpt lat="38.29333987" lon="-2.35590529">
        <ele>838.00000</ele>
        <time>2018-10-12T15:43:50Z</time>
      </trkpt>
      <trkpt lat="38.29340592" lon="-2.35582365">
        <ele>839.00000</ele>
        <time>2018-10-12T15:43:55Z</time>
      </trkpt>
      <trkpt lat="38.29349426" lon="-2.35565140">
        <ele>840.00000</ele>
        <time>2018-10-12T15:44:03Z</time>
      </trkpt>
      <trkpt lat="38.29347431" lon="-2.35545250">
        <ele>841.00000</ele>
        <time>2018-10-12T15:44:11Z</time>
      </trkpt>
      <trkpt lat="38.29336090" lon="-2.35529702">
        <ele>842.00000</ele>
        <time>2018-10-12T15:44:19Z</time>
      </trkpt>
      <trkpt lat="38.29328354" lon="-2.35516509">
        <ele>843.00000</ele>
        <time>2018-10-12T15:44:27Z</time>
      </trkpt>
      <trkpt lat="38.29327206" lon="-2.35515159">
        <ele>843.00000</ele>
        <time>2018-10-12T15:44:28Z</time>
      </trkpt>
      <trkpt lat="38.29323694" lon="-2.35503634">
        <ele>844.00000</ele>
        <time>2018-10-12T15:44:34Z</time>
      </trkpt>
      <trkpt lat="38.29318271" lon="-2.35496509">
        <ele>845.00000</ele>
        <time>2018-10-12T15:44:39Z</time>
      </trkpt>
      <trkpt lat="38.29316879" lon="-2.35488614">
        <ele>846.00000</ele>
        <time>2018-10-12T15:44:43Z</time>
      </trkpt>
      <trkpt lat="38.29311632" lon="-2.35479385">
        <ele>848.00000</ele>
        <time>2018-10-12T15:44:49Z</time>
      </trkpt>
      <trkpt lat="38.29305899" lon="-2.35473836">
        <ele>849.00000</ele>
        <time>2018-10-12T15:44:54Z</time>
      </trkpt>
      <trkpt lat="38.29303292" lon="-2.35472286">
        <ele>849.00000</ele>
        <time>2018-10-12T15:44:56Z</time>
      </trkpt>
      <trkpt lat="38.29298950" lon="-2.35472923">
        <ele>850.00000</ele>
        <time>2018-10-12T15:44:59Z</time>
      </trkpt>
      <trkpt lat="38.29295547" lon="-2.35477491">
        <ele>851.00000</ele>
        <time>2018-10-12T15:45:02Z</time>
      </trkpt>
      <trkpt lat="38.29294583" lon="-2.35479234">
        <ele>851.00000</ele>
        <time>2018-10-12T15:45:03Z</time>
      </trkpt>
      <trkpt lat="38.29291784" lon="-2.35489150">
        <ele>852.00000</ele>
        <time>2018-10-12T15:45:09Z</time>
      </trkpt>
      <trkpt lat="38.29292463" lon="-2.35494171">
        <ele>853.00000</ele>
        <time>2018-10-12T15:45:12Z</time>
      </trkpt>
      <trkpt lat="38.29292722" lon="-2.35498228">
        <ele>853.00000</ele>
        <time>2018-10-12T15:45:14Z</time>
      </trkpt>
      <trkpt lat="38.29290619" lon="-2.35500625">
        <ele>853.00000</ele>
        <time>2018-10-12T15:45:16Z</time>
      </trkpt>
      <trkpt lat="38.29289814" lon="-2.35502050">
        <ele>854.00000</ele>
        <time>2018-10-12T15:45:17Z</time>
      </trkpt>
      <trkpt lat="38.29290904" lon="-2.35508965">
        <ele>854.00000</ele>
        <time>2018-10-12T15:45:21Z</time>
      </trkpt>
      <trkpt lat="38.29290124" lon="-2.35514287">
        <ele>855.00000</ele>
        <time>2018-10-12T15:45:24Z</time>
      </trkpt>
      <trkpt lat="38.29288255" lon="-2.35516618">
        <ele>855.00000</ele>
        <time>2018-10-12T15:45:26Z</time>
      </trkpt>
      <trkpt lat="38.29288632" lon="-2.35525058">
        <ele>856.00000</ele>
        <time>2018-10-12T15:45:31Z</time>
      </trkpt>
      <trkpt lat="38.29288548" lon="-2.35528822">
        <ele>856.00000</ele>
        <time>2018-10-12T15:45:33Z</time>
      </trkpt>
      <trkpt lat="38.29286369" lon="-2.35533071">
        <ele>857.00000</ele>
        <time>2018-10-12T15:45:36Z</time>
      </trkpt>
      <trkpt lat="38.29285933" lon="-2.35539542">
        <ele>857.00000</ele>
        <time>2018-10-12T15:45:40Z</time>
      </trkpt>
      <trkpt lat="38.29283201" lon="-2.35548175">
        <ele>858.00000</ele>
        <time>2018-10-12T15:45:46Z</time>
      </trkpt>
      <trkpt lat="38.29282731" lon="-2.35549760">
        <ele>858.00000</ele>
        <time>2018-10-12T15:45:47Z</time>
      </trkpt>
      <trkpt lat="38.29283611" lon="-2.35554294">
        <ele>859.00000</ele>
        <time>2018-10-12T15:45:50Z</time>
      </trkpt>
      <trkpt lat="38.29282061" lon="-2.35560891">
        <ele>860.00000</ele>
        <time>2018-10-12T15:45:54Z</time>
      </trkpt>
      <trkpt lat="38.29280619" lon="-2.35569926">
        <ele>861.00000</ele>
        <time>2018-10-12T15:46:00Z</time>
      </trkpt>
      <trkpt lat="38.29279596" lon="-2.35577772">
        <ele>862.00000</ele>
        <time>2018-10-12T15:46:05Z</time>
      </trkpt>
      <trkpt lat="38.29278247" lon="-2.35580873">
        <ele>862.00000</ele>
        <time>2018-10-12T15:46:07Z</time>
      </trkpt>
      <trkpt lat="38.29274861" lon="-2.35588274">
        <ele>863.00000</ele>
        <time>2018-10-12T15:46:12Z</time>
      </trkpt>
      <trkpt lat="38.29271223" lon="-2.35595776">
        <ele>864.00000</ele>
        <time>2018-10-12T15:46:18Z</time>
      </trkpt>
      <trkpt lat="38.29270712" lon="-2.35598651">
        <ele>865.00000</ele>
        <time>2018-10-12T15:46:21Z</time>
      </trkpt>
      <trkpt lat="38.29231996" lon="-2.35653544">
        <ele>873.00000</ele>
        <time>2018-10-12T15:47:33Z</time>
      </trkpt>
      <trkpt lat="38.29216841" lon="-2.35673854">
        <ele>874.00000</ele>
        <time>2018-10-12T15:47:44Z</time>
      </trkpt>
      <trkpt lat="38.29208493" lon="-2.35685169">
        <ele>875.00000</ele>
        <time>2018-10-12T15:47:51Z</time>
      </trkpt>
      <trkpt lat="38.29201712" lon="-2.35697315">
        <ele>876.00000</ele>
        <time>2018-10-12T15:47:58Z</time>
      </trkpt>
      <trkpt lat="38.29194663" lon="-2.35709091">
        <ele>877.00000</ele>
        <time>2018-10-12T15:48:05Z</time>
      </trkpt>
      <trkpt lat="38.29189751" lon="-2.35717641">
        <ele>878.00000</ele>
        <time>2018-10-12T15:48:10Z</time>
      </trkpt>
      <trkpt lat="38.29181964" lon="-2.35727137">
        <ele>879.00000</ele>
        <time>2018-10-12T15:48:16Z</time>
      </trkpt>
      <trkpt lat="38.29175191" lon="-2.35734187">
        <ele>881.00000</ele>
        <time>2018-10-12T15:48:21Z</time>
      </trkpt>
      <trkpt lat="38.29160800" lon="-2.35737623">
        <ele>882.00000</ele>
        <time>2018-10-12T15:48:28Z</time>
      </trkpt>
      <trkpt lat="38.29144841" lon="-2.35736592">
        <ele>882.00000</ele>
        <time>2018-10-12T15:48:36Z</time>
      </trkpt>
      <trkpt lat="38.29135822" lon="-2.35731597">
        <ele>882.00000</ele>
        <time>2018-10-12T15:48:41Z</time>
      </trkpt>
      <trkpt lat="38.29117138" lon="-2.35706426">
        <ele>884.00000</ele>
        <time>2018-10-12T15:48:51Z</time>
      </trkpt>
      <trkpt lat="38.29096192" lon="-2.35680785">
        <ele>885.00000</ele>
        <time>2018-10-12T15:49:00Z</time>
      </trkpt>
      <trkpt lat="38.29078724" lon="-2.35663661">
        <ele>886.00000</ele>
        <time>2018-10-12T15:49:09Z</time>
      </trkpt>
      <trkpt lat="38.29061977" lon="-2.35657056">
        <ele>887.00000</ele>
        <time>2018-10-12T15:49:16Z</time>
      </trkpt>
      <trkpt lat="38.29048239" lon="-2.35660476">
        <ele>888.00000</ele>
        <time>2018-10-12T15:49:21Z</time>
      </trkpt>
      <trkpt lat="38.29023554" lon="-2.35721589">
        <ele>888.00000</ele>
        <time>2018-10-12T15:49:36Z</time>
      </trkpt>
      <trkpt lat="38.29015810" lon="-2.35738947">
        <ele>889.00000</ele>
        <time>2018-10-12T15:49:41Z</time>
      </trkpt>
      <trkpt lat="38.29005382" lon="-2.35753507">
        <ele>890.00000</ele>
        <time>2018-10-12T15:49:46Z</time>
      </trkpt>
      <trkpt lat="38.28993681" lon="-2.35760916">
        <ele>892.00000</ele>
        <time>2018-10-12T15:49:50Z</time>
      </trkpt>
      <trkpt lat="38.28980455" lon="-2.35765610">
        <ele>893.00000</ele>
        <time>2018-10-12T15:49:54Z</time>
      </trkpt>
      <trkpt lat="38.28949349" lon="-2.35783640">
        <ele>894.00000</ele>
        <time>2018-10-12T15:50:05Z</time>
      </trkpt>
      <trkpt lat="38.28939920" lon="-2.35806187">
        <ele>895.00000</ele>
        <time>2018-10-12T15:50:12Z</time>
      </trkpt>
      <trkpt lat="38.28939551" lon="-2.35819154">
        <ele>896.00000</ele>
        <time>2018-10-12T15:50:16Z</time>
      </trkpt>
      <trkpt lat="38.28942921" lon="-2.35834962">
        <ele>897.00000</ele>
        <time>2018-10-12T15:50:21Z</time>
      </trkpt>
      <trkpt lat="38.28945167" lon="-2.35856051">
        <ele>898.00000</ele>
        <time>2018-10-12T15:50:27Z</time>
      </trkpt>
      <trkpt lat="38.28940465" lon="-2.35871214">
        <ele>899.00000</ele>
        <time>2018-10-12T15:50:33Z</time>
      </trkpt>
      <trkpt lat="38.28934555" lon="-2.35879403">
        <ele>900.00000</ele>
        <time>2018-10-12T15:50:38Z</time>
      </trkpt>
      <trkpt lat="38.28931069" lon="-2.35885187">
        <ele>901.00000</ele>
        <time>2018-10-12T15:50:42Z</time>
      </trkpt>
      <trkpt lat="38.28927196" lon="-2.35887299">
        <ele>902.00000</ele>
        <time>2018-10-12T15:50:45Z</time>
      </trkpt>
      <trkpt lat="38.28925788" lon="-2.35890601">
        <ele>903.00000</ele>
        <time>2018-10-12T15:50:47Z</time>
      </trkpt>
      <trkpt lat="38.28921086" lon="-2.35894490">
        <ele>903.00000</ele>
        <time>2018-10-12T15:50:51Z</time>
      </trkpt>
      <trkpt lat="38.28917540" lon="-2.35897575">
        <ele>904.00000</ele>
        <time>2018-10-12T15:50:54Z</time>
      </trkpt>
      <trkpt lat="38.28912804" lon="-2.35906569">
        <ele>905.00000</ele>
        <time>2018-10-12T15:51:00Z</time>
      </trkpt>
      <trkpt lat="38.28908555" lon="-2.35913249">
        <ele>906.00000</ele>
        <time>2018-10-12T15:51:05Z</time>
      </trkpt>
      <trkpt lat="38.28901941" lon="-2.35921279">
        <ele>907.00000</ele>
        <time>2018-10-12T15:51:12Z</time>
      </trkpt>
      <trkpt lat="38.28897315" lon="-2.35929644">
        <ele>908.00000</ele>
        <time>2018-10-12T15:51:18Z</time>
      </trkpt>
      <trkpt lat="38.28894255" lon="-2.35934833">
        <ele>909.00000</ele>
        <time>2018-10-12T15:51:22Z</time>
      </trkpt>
      <trkpt lat="38.28891942" lon="-2.35939241">
        <ele>909.00000</ele>
        <time>2018-10-12T15:51:25Z</time>
      </trkpt>
      <trkpt lat="38.28885186" lon="-2.35949174">
        <ele>910.00000</ele>
        <time>2018-10-12T15:51:32Z</time>
      </trkpt>
      <trkpt lat="38.28880081" lon="-2.35959744">
        <ele>912.00000</ele>
        <time>2018-10-12T15:51:38Z</time>
      </trkpt>
      <trkpt lat="38.28867576" lon="-2.35975141">
        <ele>913.00000</ele>
        <time>2018-10-12T15:51:47Z</time>
      </trkpt>
      <trkpt lat="38.28838616" lon="-2.35993380">
        <ele>913.00000</ele>
        <time>2018-10-12T15:51:58Z</time>
      </trkpt>
      <trkpt lat="38.28799447" lon="-2.36001444">
        <ele>915.00000</ele>
        <time>2018-10-12T15:52:13Z</time>
      </trkpt>
      <trkpt lat="38.28790672" lon="-2.35999289">
        <ele>916.00000</ele>
        <time>2018-10-12T15:52:17Z</time>
      </trkpt>
      <trkpt lat="38.28781351" lon="-2.35996305">
        <ele>917.00000</ele>
        <time>2018-10-12T15:52:21Z</time>
      </trkpt>
      <trkpt lat="38.28776657" lon="-2.35998694">
        <ele>917.00000</ele>
        <time>2018-10-12T15:52:23Z</time>
      </trkpt>
      <trkpt lat="38.28767253" lon="-2.36007655">
        <ele>917.00000</ele>
        <time>2018-10-12T15:52:28Z</time>
      </trkpt>
      <trkpt lat="38.28762969" lon="-2.36021183">
        <ele>918.00000</ele>
        <time>2018-10-12T15:52:34Z</time>
      </trkpt>
      <trkpt lat="38.28761033" lon="-2.36033932">
        <ele>919.00000</ele>
        <time>2018-10-12T15:52:39Z</time>
      </trkpt>
      <trkpt lat="38.28757907" lon="-2.36045298">
        <ele>920.00000</ele>
        <time>2018-10-12T15:52:44Z</time>
      </trkpt>
      <trkpt lat="38.28757639" lon="-2.36047293">
        <ele>920.00000</ele>
        <time>2018-10-12T15:52:45Z</time>
      </trkpt>
      <trkpt lat="38.28757085" lon="-2.36053328">
        <ele>921.00000</ele>
        <time>2018-10-12T15:52:48Z</time>
      </trkpt>
      <trkpt lat="38.28755652" lon="-2.36061978">
        <ele>922.00000</ele>
        <time>2018-10-12T15:52:53Z</time>
      </trkpt>
      <trkpt lat="38.28754822" lon="-2.36065112">
        <ele>923.00000</ele>
        <time>2018-10-12T15:52:55Z</time>
      </trkpt>
      <trkpt lat="38.28752827" lon="-2.36069488">
        <ele>923.00000</ele>
        <time>2018-10-12T15:52:58Z</time>
      </trkpt>
      <trkpt lat="38.28752534" lon="-2.36071139">
        <ele>924.00000</ele>
        <time>2018-10-12T15:52:59Z</time>
      </trkpt>
      <trkpt lat="38.28751545" lon="-2.36077928">
        <ele>924.00000</ele>
        <time>2018-10-12T15:53:03Z</time>
      </trkpt>
      <trkpt lat="38.28750547" lon="-2.36079043">
        <ele>924.00000</ele>
        <time>2018-10-12T15:53:04Z</time>
      </trkpt>
      <trkpt lat="38.28746935" lon="-2.36088146">
        <ele>926.00000</ele>
        <time>2018-10-12T15:53:10Z</time>
      </trkpt>
      <trkpt lat="38.28744797" lon="-2.36090166">
        <ele>926.00000</ele>
        <time>2018-10-12T15:53:12Z</time>
      </trkpt>
      <trkpt lat="38.28742031" lon="-2.36093301">
        <ele>927.00000</ele>
        <time>2018-10-12T15:53:15Z</time>
      </trkpt>
      <trkpt lat="38.28740900" lon="-2.36097785">
        <ele>927.00000</ele>
        <time>2018-10-12T15:53:18Z</time>
      </trkpt>
      <trkpt lat="38.28738871" lon="-2.36102764">
        <ele>928.00000</ele>
        <time>2018-10-12T15:53:21Z</time>
      </trkpt>
      <trkpt lat="38.28738310" lon="-2.36104533">
        <ele>928.00000</ele>
        <time>2018-10-12T15:53:22Z</time>
      </trkpt>
      <trkpt lat="38.28737455" lon="-2.36109796">
        <ele>929.00000</ele>
        <time>2018-10-12T15:53:25Z</time>
      </trkpt>
      <trkpt lat="38.28737170" lon="-2.36121799">
        <ele>930.00000</ele>
        <time>2018-10-12T15:53:32Z</time>
      </trkpt>
      <trkpt lat="38.28735996" lon="-2.36131371">
        <ele>931.00000</ele>
        <time>2018-10-12T15:53:38Z</time>
      </trkpt>
      <trkpt lat="38.28735862" lon="-2.36133123">
        <ele>931.00000</ele>
        <time>2018-10-12T15:53:39Z</time>
      </trkpt>
      <trkpt lat="38.28734379" lon="-2.36147456">
        <ele>932.00000</ele>
        <time>2018-10-12T15:53:46Z</time>
      </trkpt>
      <trkpt lat="38.28734697" lon="-2.36151748">
        <ele>932.00000</ele>
        <time>2018-10-12T15:53:48Z</time>
      </trkpt>
      <trkpt lat="38.28735787" lon="-2.36162426">
        <ele>933.00000</ele>
        <time>2018-10-12T15:53:53Z</time>
      </trkpt>
      <trkpt lat="38.28736114" lon="-2.36169953">
        <ele>934.00000</ele>
        <time>2018-10-12T15:53:57Z</time>
      </trkpt>
      <trkpt lat="38.28733063" lon="-2.36182040">
        <ele>935.00000</ele>
        <time>2018-10-12T15:54:03Z</time>
      </trkpt>
      <trkpt lat="38.28722862" lon="-2.36184890">
        <ele>936.00000</ele>
        <time>2018-10-12T15:54:09Z</time>
      </trkpt>
      <trkpt lat="38.28718814" lon="-2.36174815">
        <ele>936.00000</ele>
        <time>2018-10-12T15:54:15Z</time>
      </trkpt>
      <trkpt lat="38.28719099" lon="-2.36171303">
        <ele>936.00000</ele>
        <time>2018-10-12T15:54:17Z</time>
      </trkpt>
      <trkpt lat="38.28719509" lon="-2.36160624">
        <ele>937.00000</ele>
        <time>2018-10-12T15:54:23Z</time>
      </trkpt>
      <trkpt lat="38.28719132" lon="-2.36146149">
        <ele>939.00000</ele>
        <time>2018-10-12T15:54:31Z</time>
      </trkpt>
      <trkpt lat="38.28719518" lon="-2.36144489">
        <ele>939.00000</ele>
        <time>2018-10-12T15:54:32Z</time>
      </trkpt>
      <trkpt lat="38.28719157" lon="-2.36137323">
        <ele>940.00000</ele>
        <time>2018-10-12T15:54:36Z</time>
      </trkpt>
      <trkpt lat="38.28716810" lon="-2.36126367">
        <ele>941.00000</ele>
        <time>2018-10-12T15:54:42Z</time>
      </trkpt>
      <trkpt lat="38.28713374" lon="-2.36115488">
        <ele>942.00000</ele>
        <time>2018-10-12T15:54:49Z</time>
      </trkpt>
      <trkpt lat="38.28712242" lon="-2.36106678">
        <ele>942.00000</ele>
        <time>2018-10-12T15:54:54Z</time>
      </trkpt>
      <trkpt lat="38.28712242" lon="-2.36104792">
        <ele>943.00000</ele>
        <time>2018-10-12T15:54:55Z</time>
      </trkpt>
      <trkpt lat="38.28710222" lon="-2.36091080">
        <ele>944.00000</ele>
        <time>2018-10-12T15:55:03Z</time>
      </trkpt>
      <trkpt lat="38.28708663" lon="-2.36083913">
        <ele>945.00000</ele>
        <time>2018-10-12T15:55:08Z</time>
      </trkpt>
      <trkpt lat="38.28706936" lon="-2.36077526">
        <ele>945.00000</ele>
        <time>2018-10-12T15:55:12Z</time>
      </trkpt>
      <trkpt lat="38.28706149" lon="-2.36074291">
        <ele>946.00000</ele>
        <time>2018-10-12T15:55:14Z</time>
      </trkpt>
      <trkpt lat="38.28700968" lon="-2.36060117">
        <ele>947.00000</ele>
        <time>2018-10-12T15:55:22Z</time>
      </trkpt>
      <trkpt lat="38.28693819" lon="-2.36041123">
        <ele>948.00000</ele>
        <time>2018-10-12T15:55:31Z</time>
      </trkpt>
      <trkpt lat="38.28682084" lon="-2.36023739">
        <ele>949.00000</ele>
        <time>2018-10-12T15:55:41Z</time>
      </trkpt>
      <trkpt lat="38.28680508" lon="-2.36024418">
        <ele>949.00000</ele>
        <time>2018-10-12T15:55:42Z</time>
      </trkpt>
      <trkpt lat="38.28675529" lon="-2.36038274">
        <ele>950.00000</ele>
        <time>2018-10-12T15:55:48Z</time>
      </trkpt>
      <trkpt lat="38.28678019" lon="-2.36041258">
        <ele>950.00000</ele>
        <time>2018-10-12T15:55:50Z</time>
      </trkpt>
      <trkpt lat="38.28681715" lon="-2.36051500">
        <ele>951.00000</ele>
        <time>2018-10-12T15:55:55Z</time>
      </trkpt>
      <trkpt lat="38.28681841" lon="-2.36053462">
        <ele>952.00000</ele>
        <time>2018-10-12T15:55:56Z</time>
      </trkpt>
      <trkpt lat="38.28682453" lon="-2.36059052">
        <ele>952.00000</ele>
        <time>2018-10-12T15:55:59Z</time>
      </trkpt>
      <trkpt lat="38.28682235" lon="-2.36061081">
        <ele>952.00000</ele>
        <time>2018-10-12T15:56:00Z</time>
      </trkpt>
      <trkpt lat="38.28680676" lon="-2.36069924">
        <ele>953.00000</ele>
        <time>2018-10-12T15:56:04Z</time>
      </trkpt>
      <trkpt lat="38.28674825" lon="-2.36086671">
        <ele>954.00000</ele>
        <time>2018-10-12T15:56:11Z</time>
      </trkpt>
      <trkpt lat="38.28673250" lon="-2.36088515">
        <ele>954.00000</ele>
        <time>2018-10-12T15:56:12Z</time>
      </trkpt>
      <trkpt lat="38.28656201" lon="-2.36098020">
        <ele>955.00000</ele>
        <time>2018-10-12T15:56:21Z</time>
      </trkpt>
      <trkpt lat="38.28624484" lon="-2.36069153">
        <ele>956.00000</ele>
        <time>2018-10-12T15:56:39Z</time>
      </trkpt>
      <trkpt lat="38.28621709" lon="-2.36056974">
        <ele>957.00000</ele>
        <time>2018-10-12T15:56:43Z</time>
      </trkpt>
      <trkpt lat="38.28619304" lon="-2.36044971">
        <ele>959.00000</ele>
        <time>2018-10-12T15:56:48Z</time>
      </trkpt>
      <trkpt lat="38.28618926" lon="-2.36038425">
        <ele>960.00000</ele>
        <time>2018-10-12T15:56:51Z</time>
      </trkpt>
      <trkpt lat="38.28618507" lon="-2.36023622">
        <ele>961.00000</ele>
        <time>2018-10-12T15:56:58Z</time>
      </trkpt>
      <trkpt lat="38.28615196" lon="-2.36006355">
        <ele>962.00000</ele>
        <time>2018-10-12T15:57:07Z</time>
      </trkpt>
      <trkpt lat="38.28614291" lon="-2.35990907">
        <ele>963.00000</ele>
        <time>2018-10-12T15:57:14Z</time>
      </trkpt>
      <trkpt lat="38.28612263" lon="-2.35969869">
        <ele>964.00000</ele>
        <time>2018-10-12T15:57:23Z</time>
      </trkpt>
      <trkpt lat="38.28611324" lon="-2.35956039">
        <ele>965.00000</ele>
        <time>2018-10-12T15:57:30Z</time>
      </trkpt>
      <trkpt lat="38.28611819" lon="-2.35941622">
        <ele>966.00000</ele>
        <time>2018-10-12T15:57:38Z</time>
      </trkpt>
      <trkpt lat="38.28613545" lon="-2.35933366">
        <ele>967.00000</ele>
        <time>2018-10-12T15:57:43Z</time>
      </trkpt>
      <trkpt lat="38.28615331" lon="-2.35931136">
        <ele>967.00000</ele>
        <time>2018-10-12T15:57:45Z</time>
      </trkpt>
      <trkpt lat="38.28617149" lon="-2.35924087">
        <ele>968.00000</ele>
        <time>2018-10-12T15:57:49Z</time>
      </trkpt>
      <trkpt lat="38.28617351" lon="-2.35920399">
        <ele>968.00000</ele>
        <time>2018-10-12T15:57:51Z</time>
      </trkpt>
      <trkpt lat="38.28617468" lon="-2.35918379">
        <ele>968.00000</ele>
        <time>2018-10-12T15:57:52Z</time>
      </trkpt>
      <trkpt lat="38.28622371" lon="-2.35903635">
        <ele>969.00000</ele>
        <time>2018-10-12T15:58:00Z</time>
      </trkpt>
      <trkpt lat="38.28624106" lon="-2.35888908">
        <ele>970.00000</ele>
        <time>2018-10-12T15:58:07Z</time>
      </trkpt>
      <trkpt lat="38.28628038" lon="-2.35874072">
        <ele>971.00000</ele>
        <time>2018-10-12T15:58:15Z</time>
      </trkpt>
      <trkpt lat="38.28633477" lon="-2.35858507">
        <ele>972.00000</ele>
        <time>2018-10-12T15:58:22Z</time>
      </trkpt>
      <trkpt lat="38.28639487" lon="-2.35846990">
        <ele>973.00000</ele>
        <time>2018-10-12T15:58:27Z</time>
      </trkpt>
      <trkpt lat="38.28640736" lon="-2.35844953">
        <ele>973.00000</ele>
        <time>2018-10-12T15:58:28Z</time>
      </trkpt>
      <trkpt lat="38.28645656" lon="-2.35838751">
        <ele>975.00000</ele>
        <time>2018-10-12T15:58:32Z</time>
      </trkpt>
      <trkpt lat="38.28650275" lon="-2.35832171">
        <ele>975.00000</ele>
        <time>2018-10-12T15:58:36Z</time>
      </trkpt>
      <trkpt lat="38.28659855" lon="-2.35821677">
        <ele>977.00000</ele>
        <time>2018-10-12T15:58:43Z</time>
      </trkpt>
      <trkpt lat="38.28668271" lon="-2.35811870">
        <ele>978.00000</ele>
        <time>2018-10-12T15:58:50Z</time>
      </trkpt>
      <trkpt lat="38.28678631" lon="-2.35800127">
        <ele>979.00000</ele>
        <time>2018-10-12T15:58:58Z</time>
      </trkpt>
      <trkpt lat="38.28692042" lon="-2.35783992">
        <ele>980.00000</ele>
        <time>2018-10-12T15:59:08Z</time>
      </trkpt>
      <trkpt lat="38.28697138" lon="-2.35774939">
        <ele>980.00000</ele>
        <time>2018-10-12T15:59:13Z</time>
      </trkpt>
      <trkpt lat="38.28703550" lon="-2.35767161">
        <ele>981.00000</ele>
        <time>2018-10-12T15:59:18Z</time>
      </trkpt>
      <trkpt lat="38.28712058" lon="-2.35759139">
        <ele>982.00000</ele>
        <time>2018-10-12T15:59:24Z</time>
      </trkpt>
      <trkpt lat="38.28720708" lon="-2.35744379">
        <ele>983.00000</ele>
        <time>2018-10-12T15:59:32Z</time>
      </trkpt>
      <trkpt lat="38.28725284" lon="-2.35720482">
        <ele>984.00000</ele>
        <time>2018-10-12T15:59:41Z</time>
      </trkpt>
      <trkpt lat="38.28732878" lon="-2.35683191">
        <ele>984.00000</ele>
        <time>2018-10-12T15:59:50Z</time>
      </trkpt>
      <trkpt lat="38.28765786" lon="-2.35624233">
        <ele>985.00000</ele>
        <time>2018-10-12T16:00:05Z</time>
      </trkpt>
      <trkpt lat="38.28774050" lon="-2.35616832">
        <ele>985.00000</ele>
        <time>2018-10-12T16:00:08Z</time>
      </trkpt>
      <trkpt lat="38.28786171" lon="-2.35603638">
        <ele>986.00000</ele>
        <time>2018-10-12T16:00:13Z</time>
      </trkpt>
      <trkpt lat="38.28798911" lon="-2.35585383">
        <ele>987.00000</ele>
        <time>2018-10-12T16:00:19Z</time>
      </trkpt>
      <trkpt lat="38.28814032" lon="-2.35557597">
        <ele>988.00000</ele>
        <time>2018-10-12T16:00:27Z</time>
      </trkpt>
      <trkpt lat="38.28831315" lon="-2.35522527">
        <ele>989.00000</ele>
        <time>2018-10-12T16:00:37Z</time>
      </trkpt>
      <trkpt lat="38.28859487" lon="-2.35480810">
        <ele>990.00000</ele>
        <time>2018-10-12T16:00:49Z</time>
      </trkpt>
      <trkpt lat="38.28872219" lon="-2.35464784">
        <ele>990.00000</ele>
        <time>2018-10-12T16:00:53Z</time>
      </trkpt>
      <trkpt lat="38.28886862" lon="-2.35447383">
        <ele>990.00000</ele>
        <time>2018-10-12T16:00:58Z</time>
      </trkpt>
      <trkpt lat="38.28890676" lon="-2.35440661">
        <ele>990.00000</ele>
        <time>2018-10-12T16:01:00Z</time>
      </trkpt>
      <trkpt lat="38.28899553" lon="-2.35412422">
        <ele>990.00000</ele>
        <time>2018-10-12T16:01:07Z</time>
      </trkpt>
      <trkpt lat="38.28900030" lon="-2.35403537">
        <ele>991.00000</ele>
        <time>2018-10-12T16:01:09Z</time>
      </trkpt>
      <trkpt lat="38.28897885" lon="-2.35387385">
        <ele>992.00000</ele>
        <time>2018-10-12T16:01:13Z</time>
      </trkpt>
      <trkpt lat="38.28892763" lon="-2.35369557">
        <ele>993.00000</ele>
        <time>2018-10-12T16:01:18Z</time>
      </trkpt>
      <trkpt lat="38.28887851" lon="-2.35353137">
        <ele>994.00000</ele>
        <time>2018-10-12T16:01:24Z</time>
      </trkpt>
      <trkpt lat="38.28884499" lon="-2.35344353">
        <ele>995.00000</ele>
        <time>2018-10-12T16:01:28Z</time>
      </trkpt>
      <trkpt lat="38.28875941" lon="-2.35325376">
        <ele>997.00000</ele>
        <time>2018-10-12T16:01:36Z</time>
      </trkpt>
      <trkpt lat="38.28870224" lon="-2.35312870">
        <ele>998.00000</ele>
        <time>2018-10-12T16:01:42Z</time>
      </trkpt>
      <trkpt lat="38.28863603" lon="-2.35302736">
        <ele>998.00000</ele>
        <time>2018-10-12T16:01:48Z</time>
      </trkpt>
      <trkpt lat="38.28856855" lon="-2.35291815">
        <ele>1000.0000</ele>
        <time>2018-10-12T16:01:55Z</time>
      </trkpt>
      <trkpt lat="38.28848943" lon="-2.35280307">
        <ele>1001.0000</ele>
        <time>2018-10-12T16:02:03Z</time>
      </trkpt>
      <trkpt lat="38.28844073" lon="-2.35266887">
        <ele>1002.0000</ele>
        <time>2018-10-12T16:02:10Z</time>
      </trkpt>
      <trkpt lat="38.28840670" lon="-2.35255530">
        <ele>1003.0000</ele>
        <time>2018-10-12T16:02:17Z</time>
      </trkpt>
      <trkpt lat="38.28840418" lon="-2.35253811">
        <ele>1003.0000</ele>
        <time>2018-10-12T16:02:18Z</time>
      </trkpt>
      <trkpt lat="38.28839178" lon="-2.35250433">
        <ele>1003.0000</ele>
        <time>2018-10-12T16:02:20Z</time>
      </trkpt>
      <trkpt lat="38.28836118" lon="-2.35243418">
        <ele>1004.0000</ele>
        <time>2018-10-12T16:02:24Z</time>
      </trkpt>
      <trkpt lat="38.28828281" lon="-2.35231348">
        <ele>1005.0000</ele>
        <time>2018-10-12T16:02:32Z</time>
      </trkpt>
      <trkpt lat="38.28824208" lon="-2.35221700">
        <ele>1006.0000</ele>
        <time>2018-10-12T16:02:38Z</time>
      </trkpt>
      <trkpt lat="38.28820461" lon="-2.35212631">
        <ele>1007.0000</ele>
        <time>2018-10-12T16:02:45Z</time>
      </trkpt>
      <trkpt lat="38.28816211" lon="-2.35201098">
        <ele>1008.0000</ele>
        <time>2018-10-12T16:02:52Z</time>
      </trkpt>
      <trkpt lat="38.28814309" lon="-2.35187980">
        <ele>1009.0000</ele>
        <time>2018-10-12T16:02:59Z</time>
      </trkpt>
      <trkpt lat="38.28812431" lon="-2.35171803">
        <ele>1010.0000</ele>
        <time>2018-10-12T16:03:07Z</time>
      </trkpt>
      <trkpt lat="38.28811920" lon="-2.35157067">
        <ele>1012.0000</ele>
        <time>2018-10-12T16:03:13Z</time>
      </trkpt>
      <trkpt lat="38.28809908" lon="-2.35139071">
        <ele>1013.0000</ele>
        <time>2018-10-12T16:03:21Z</time>
      </trkpt>
      <trkpt lat="38.28805491" lon="-2.35114479">
        <ele>1014.0000</ele>
        <time>2018-10-12T16:03:31Z</time>
      </trkpt>
      <trkpt lat="38.28803890" lon="-2.35092619">
        <ele>1014.0000</ele>
        <time>2018-10-12T16:03:39Z</time>
      </trkpt>
      <trkpt lat="38.28803773" lon="-2.35086433">
        <ele>1015.0000</ele>
        <time>2018-10-12T16:03:41Z</time>
      </trkpt>
      <trkpt lat="38.28806430" lon="-2.35057264">
        <ele>1016.0000</ele>
        <time>2018-10-12T16:03:51Z</time>
      </trkpt>
      <trkpt lat="38.28811727" lon="-2.35033350">
        <ele>1017.0000</ele>
        <time>2018-10-12T16:03:58Z</time>
      </trkpt>
      <trkpt lat="38.28817301" lon="-2.35014474">
        <ele>1018.0000</ele>
        <time>2018-10-12T16:04:03Z</time>
      </trkpt>
      <trkpt lat="38.28818340" lon="-2.35006906">
        <ele>1018.0000</ele>
        <time>2018-10-12T16:04:05Z</time>
      </trkpt>
      <trkpt lat="38.28818198" lon="-2.34992145">
        <ele>1019.0000</ele>
        <time>2018-10-12T16:04:10Z</time>
      </trkpt>
      <trkpt lat="38.28818273" lon="-2.34983135">
        <ele>1020.0000</ele>
        <time>2018-10-12T16:04:13Z</time>
      </trkpt>
      <trkpt lat="38.28817259" lon="-2.34968651">
        <ele>1021.0000</ele>
        <time>2018-10-12T16:04:18Z</time>
      </trkpt>
      <trkpt lat="38.28815842" lon="-2.34947411">
        <ele>1022.0000</ele>
        <time>2018-10-12T16:04:26Z</time>
      </trkpt>
      <trkpt lat="38.28812666" lon="-2.34929993">
        <ele>1024.0000</ele>
        <time>2018-10-12T16:04:33Z</time>
      </trkpt>
      <trkpt lat="38.28807100" lon="-2.34911469">
        <ele>1025.0000</ele>
        <time>2018-10-12T16:04:41Z</time>
      </trkpt>
      <trkpt lat="38.28797578" lon="-2.34890875">
        <ele>1026.0000</ele>
        <time>2018-10-12T16:04:50Z</time>
      </trkpt>
      <trkpt lat="38.28786598" lon="-2.34877196">
        <ele>1027.0000</ele>
        <time>2018-10-12T16:04:57Z</time>
      </trkpt>
      <trkpt lat="38.28767328" lon="-2.34867238">
        <ele>1028.0000</ele>
        <time>2018-10-12T16:05:07Z</time>
      </trkpt>
      <trkpt lat="38.28748603" lon="-2.34859962">
        <ele>1029.0000</ele>
        <time>2018-10-12T16:05:16Z</time>
      </trkpt>
      <trkpt lat="38.28725762" lon="-2.34828748">
        <ele>1030.0000</ele>
        <time>2018-10-12T16:05:31Z</time>
      </trkpt>
      <trkpt lat="38.28722359" lon="-2.34814139">
        <ele>1031.0000</ele>
        <time>2018-10-12T16:05:37Z</time>
      </trkpt>
      <trkpt lat="38.28717640" lon="-2.34805840">
        <ele>1032.0000</ele>
        <time>2018-10-12T16:05:42Z</time>
      </trkpt>
      <trkpt lat="38.28715645" lon="-2.34795782">
        <ele>1034.0000</ele>
        <time>2018-10-12T16:05:47Z</time>
      </trkpt>
      <trkpt lat="38.28714882" lon="-2.34794265">
        <ele>1034.0000</ele>
        <time>2018-10-12T16:05:48Z</time>
      </trkpt>
      <trkpt lat="38.28712552" lon="-2.34790577">
        <ele>1035.0000</ele>
        <time>2018-10-12T16:05:51Z</time>
      </trkpt>
      <trkpt lat="38.28710826" lon="-2.34785942">
        <ele>1035.0000</ele>
        <time>2018-10-12T16:05:54Z</time>
      </trkpt>
      <trkpt lat="38.28710365" lon="-2.34784316">
        <ele>1036.0000</ele>
        <time>2018-10-12T16:05:55Z</time>
      </trkpt>
      <trkpt lat="38.28705428" lon="-2.34777116">
        <ele>1037.0000</ele>
        <time>2018-10-12T16:06:01Z</time>
      </trkpt>
      <trkpt lat="38.28704237" lon="-2.34776504">
        <ele>1037.0000</ele>
        <time>2018-10-12T16:06:02Z</time>
      </trkpt>
      <trkpt lat="38.28699334" lon="-2.34772707">
        <ele>1038.0000</ele>
        <time>2018-10-12T16:06:06Z</time>
      </trkpt>
      <trkpt lat="38.28690080" lon="-2.34771014">
        <ele>1039.0000</ele>
        <time>2018-10-12T16:06:12Z</time>
      </trkpt>
      <trkpt lat="38.28680315" lon="-2.34770930">
        <ele>1040.0000</ele>
        <time>2018-10-12T16:06:18Z</time>
      </trkpt>
      <trkpt lat="38.28678647" lon="-2.34770787">
        <ele>1040.0000</ele>
        <time>2018-10-12T16:06:19Z</time>
      </trkpt>
      <trkpt lat="38.28661481" lon="-2.34770846">
        <ele>1041.0000</ele>
        <time>2018-10-12T16:06:29Z</time>
      </trkpt>
      <trkpt lat="38.28652169" lon="-2.34771994">
        <ele>1041.0000</ele>
        <time>2018-10-12T16:06:34Z</time>
      </trkpt>
      <trkpt lat="38.28640183" lon="-2.34770293">
        <ele>1042.0000</ele>
        <time>2018-10-12T16:06:40Z</time>
      </trkpt>
      <trkpt lat="38.28630401" lon="-2.34758977">
        <ele>1043.0000</ele>
        <time>2018-10-12T16:06:47Z</time>
      </trkpt>
      <trkpt lat="38.28629965" lon="-2.34756865">
        <ele>1043.0000</ele>
        <time>2018-10-12T16:06:48Z</time>
      </trkpt>
      <trkpt lat="38.28633436" lon="-2.34748793">
        <ele>1043.0000</ele>
        <time>2018-10-12T16:06:52Z</time>
      </trkpt>
      <trkpt lat="38.28635422" lon="-2.34740965">
        <ele>1044.0000</ele>
        <time>2018-10-12T16:06:56Z</time>
      </trkpt>
      <trkpt lat="38.28637241" lon="-2.34735885">
        <ele>1044.0000</ele>
        <time>2018-10-12T16:06:59Z</time>
      </trkpt>
      <trkpt lat="38.28640317" lon="-2.34732138">
        <ele>1045.0000</ele>
        <time>2018-10-12T16:07:02Z</time>
      </trkpt>
      <trkpt lat="38.28645589" lon="-2.34724838">
        <ele>1046.0000</ele>
        <time>2018-10-12T16:07:07Z</time>
      </trkpt>
      <trkpt lat="38.28646553" lon="-2.34720714">
        <ele>1046.0000</ele>
        <time>2018-10-12T16:07:09Z</time>
      </trkpt>
      <trkpt lat="38.28648665" lon="-2.34714486">
        <ele>1046.0000</ele>
        <time>2018-10-12T16:07:12Z</time>
      </trkpt>
      <trkpt lat="38.28653368" lon="-2.34704956">
        <ele>1047.0000</ele>
        <time>2018-10-12T16:07:17Z</time>
      </trkpt>
      <trkpt lat="38.28655757" lon="-2.34698954">
        <ele>1047.0000</ele>
        <time>2018-10-12T16:07:20Z</time>
      </trkpt>
      <trkpt lat="38.28657114" lon="-2.34689936">
        <ele>1048.0000</ele>
        <time>2018-10-12T16:07:24Z</time>
      </trkpt>
      <trkpt lat="38.28657709" lon="-2.34687941">
        <ele>1048.0000</ele>
        <time>2018-10-12T16:07:25Z</time>
      </trkpt>
      <trkpt lat="38.28658003" lon="-2.34685870">
        <ele>1048.0000</ele>
        <time>2018-10-12T16:07:26Z</time>
      </trkpt>
      <trkpt lat="38.28658338" lon="-2.34671127">
        <ele>1049.0000</ele>
        <time>2018-10-12T16:07:33Z</time>
      </trkpt>
      <trkpt lat="38.28659822" lon="-2.34656559">
        <ele>1050.0000</ele>
        <time>2018-10-12T16:07:40Z</time>
      </trkpt>
      <trkpt lat="38.28660006" lon="-2.34642611">
        <ele>1051.0000</ele>
        <time>2018-10-12T16:07:47Z</time>
      </trkpt>
      <trkpt lat="38.28662395" lon="-2.34630784">
        <ele>1052.0000</ele>
        <time>2018-10-12T16:07:53Z</time>
      </trkpt>
      <trkpt lat="38.28662320" lon="-2.34620131">
        <ele>1053.0000</ele>
        <time>2018-10-12T16:08:00Z</time>
      </trkpt>
      <trkpt lat="38.28663518" lon="-2.34612470">
        <ele>1054.0000</ele>
        <time>2018-10-12T16:08:05Z</time>
      </trkpt>
      <trkpt lat="38.28664608" lon="-2.34600031">
        <ele>1055.0000</ele>
        <time>2018-10-12T16:08:13Z</time>
      </trkpt>
      <trkpt lat="38.28664021" lon="-2.34594206">
        <ele>1056.0000</ele>
        <time>2018-10-12T16:08:17Z</time>
      </trkpt>
      <trkpt lat="38.28665689" lon="-2.34587525">
        <ele>1057.0000</ele>
        <time>2018-10-12T16:08:21Z</time>
      </trkpt>
      <trkpt lat="38.28666837" lon="-2.34573452">
        <ele>1057.0000</ele>
        <time>2018-10-12T16:08:28Z</time>
      </trkpt>
      <trkpt lat="38.28667072" lon="-2.34561894">
        <ele>1059.0000</ele>
        <time>2018-10-12T16:08:33Z</time>
      </trkpt>
      <trkpt lat="38.28667625" lon="-2.34550209">
        <ele>1060.0000</ele>
        <time>2018-10-12T16:08:39Z</time>
      </trkpt>
      <trkpt lat="38.28667533" lon="-2.34543252">
        <ele>1060.0000</ele>
        <time>2018-10-12T16:08:43Z</time>
      </trkpt>
      <trkpt lat="38.28668723" lon="-2.34539967">
        <ele>1061.0000</ele>
        <time>2018-10-12T16:08:45Z</time>
      </trkpt>
      <trkpt lat="38.28669947" lon="-2.34526312">
        <ele>1062.0000</ele>
        <time>2018-10-12T16:08:53Z</time>
      </trkpt>
      <trkpt lat="38.28671514" lon="-2.34515273">
        <ele>1063.0000</ele>
        <time>2018-10-12T16:08:59Z</time>
      </trkpt>
      <trkpt lat="38.28673275" lon="-2.34506363">
        <ele>1064.0000</ele>
        <time>2018-10-12T16:09:04Z</time>
      </trkpt>
      <trkpt lat="38.28675873" lon="-2.34496230">
        <ele>1065.0000</ele>
        <time>2018-10-12T16:09:10Z</time>
      </trkpt>
      <trkpt lat="38.28677239" lon="-2.34482240">
        <ele>1066.0000</ele>
        <time>2018-10-12T16:09:18Z</time>
      </trkpt>
      <trkpt lat="38.28682797" lon="-2.34468930">
        <ele>1067.0000</ele>
        <time>2018-10-12T16:09:26Z</time>
      </trkpt>
      <trkpt lat="38.28683769" lon="-2.34456508">
        <ele>1068.0000</ele>
        <time>2018-10-12T16:09:33Z</time>
      </trkpt>
      <trkpt lat="38.28687038" lon="-2.34446902">
        <ele>1069.0000</ele>
        <time>2018-10-12T16:09:39Z</time>
      </trkpt>
      <trkpt lat="38.28690784" lon="-2.34432167">
        <ele>1070.0000</ele>
        <time>2018-10-12T16:09:47Z</time>
      </trkpt>
      <trkpt lat="38.28692955" lon="-2.34424087">
        <ele>1070.0000</ele>
        <time>2018-10-12T16:09:51Z</time>
      </trkpt>
      <trkpt lat="38.28696585" lon="-2.34412738">
        <ele>1071.0000</ele>
        <time>2018-10-12T16:09:57Z</time>
      </trkpt>
      <trkpt lat="38.28699996" lon="-2.34399394">
        <ele>1072.0000</ele>
        <time>2018-10-12T16:10:04Z</time>
      </trkpt>
      <trkpt lat="38.28701161" lon="-2.34397902">
        <ele>1072.0000</ele>
        <time>2018-10-12T16:10:05Z</time>
      </trkpt>
      <trkpt lat="38.28705696" lon="-2.34387475">
        <ele>1073.0000</ele>
        <time>2018-10-12T16:10:11Z</time>
      </trkpt>
      <trkpt lat="38.28706366" lon="-2.34385748">
        <ele>1073.0000</ele>
        <time>2018-10-12T16:10:12Z</time>
      </trkpt>
      <trkpt lat="38.28710641" lon="-2.34373125">
        <ele>1074.0000</ele>
        <time>2018-10-12T16:10:20Z</time>
      </trkpt>
      <trkpt lat="38.28711530" lon="-2.34371809">
        <ele>1074.0000</ele>
        <time>2018-10-12T16:10:21Z</time>
      </trkpt>
      <trkpt lat="38.28715704" lon="-2.34360292">
        <ele>1075.0000</ele>
        <time>2018-10-12T16:10:28Z</time>
      </trkpt>
      <trkpt lat="38.28716785" lon="-2.34358775">
        <ele>1075.0000</ele>
        <time>2018-10-12T16:10:29Z</time>
      </trkpt>
      <trkpt lat="38.28719736" lon="-2.34347954">
        <ele>1076.0000</ele>
        <time>2018-10-12T16:10:35Z</time>
      </trkpt>
      <trkpt lat="38.28725209" lon="-2.34333495">
        <ele>1078.0000</ele>
        <time>2018-10-12T16:10:43Z</time>
      </trkpt>
      <trkpt lat="38.28730163" lon="-2.34315181">
        <ele>1079.0000</ele>
        <time>2018-10-12T16:10:50Z</time>
      </trkpt>
      <trkpt lat="38.28732283" lon="-2.34299222">
        <ele>1080.0000</ele>
        <time>2018-10-12T16:10:56Z</time>
      </trkpt>
      <trkpt lat="38.28733708" lon="-2.34291477">
        <ele>1081.0000</ele>
        <time>2018-10-12T16:11:00Z</time>
      </trkpt>
      <trkpt lat="38.28737036" lon="-2.34281418">
        <ele>1082.0000</ele>
        <time>2018-10-12T16:11:06Z</time>
      </trkpt>
      <trkpt lat="38.28737212" lon="-2.34279692">
        <ele>1082.0000</ele>
        <time>2018-10-12T16:11:07Z</time>
      </trkpt>
      <trkpt lat="38.28738402" lon="-2.34269432">
        <ele>1083.0000</ele>
        <time>2018-10-12T16:11:13Z</time>
      </trkpt>
      <trkpt lat="38.28738603" lon="-2.34267781">
        <ele>1083.0000</ele>
        <time>2018-10-12T16:11:14Z</time>
      </trkpt>
      <trkpt lat="38.28740179" lon="-2.34261134">
        <ele>1084.0000</ele>
        <time>2018-10-12T16:11:18Z</time>
      </trkpt>
      <trkpt lat="38.28743180" lon="-2.34253557">
        <ele>1085.0000</ele>
        <time>2018-10-12T16:11:23Z</time>
      </trkpt>
      <trkpt lat="38.28743197" lon="-2.34251881">
        <ele>1085.0000</ele>
        <time>2018-10-12T16:11:24Z</time>
      </trkpt>
      <trkpt lat="38.28745351" lon="-2.34238310">
        <ele>1086.0000</ele>
        <time>2018-10-12T16:11:33Z</time>
      </trkpt>
      <trkpt lat="38.28747865" lon="-2.34228738">
        <ele>1087.0000</ele>
        <time>2018-10-12T16:11:39Z</time>
      </trkpt>
      <trkpt lat="38.28749584" lon="-2.34218118">
        <ele>1088.0000</ele>
        <time>2018-10-12T16:11:45Z</time>
      </trkpt>
      <trkpt lat="38.28752676" lon="-2.34207783">
        <ele>1089.0000</ele>
        <time>2018-10-12T16:11:51Z</time>
      </trkpt>
      <trkpt lat="38.28754730" lon="-2.34198907">
        <ele>1090.0000</ele>
        <time>2018-10-12T16:11:56Z</time>
      </trkpt>
      <trkpt lat="38.28754336" lon="-2.34192285">
        <ele>1091.0000</ele>
        <time>2018-10-12T16:12:02Z</time>
      </trkpt>
      <trkpt lat="38.28749768" lon="-2.34191397">
        <ele>1093.0000</ele>
        <time>2018-10-12T16:15:24Z</time>
      </trkpt>
      <trkpt lat="38.28739810" lon="-2.34191958">
        <ele>1093.0000</ele>
        <time>2018-10-12T16:15:30Z</time>
      </trkpt>
      <trkpt lat="38.28738419" lon="-2.34193182">
        <ele>1093.0000</ele>
        <time>2018-10-12T16:15:31Z</time>
      </trkpt>
      <trkpt lat="38.28736164" lon="-2.34195906">
        <ele>1093.0000</ele>
        <time>2018-10-12T16:15:33Z</time>
      </trkpt>
      <trkpt lat="38.28734287" lon="-2.34199460">
        <ele>1094.0000</ele>
        <time>2018-10-12T16:15:35Z</time>
      </trkpt>
      <trkpt lat="38.28732870" lon="-2.34203450">
        <ele>1094.0000</ele>
        <time>2018-10-12T16:15:37Z</time>
      </trkpt>
      <trkpt lat="38.28730464" lon="-2.34209669">
        <ele>1095.0000</ele>
        <time>2018-10-12T16:15:40Z</time>
      </trkpt>
      <trkpt lat="38.28727749" lon="-2.34218588">
        <ele>1096.0000</ele>
        <time>2018-10-12T16:15:44Z</time>
      </trkpt>
      <trkpt lat="38.28723935" lon="-2.34227892">
        <ele>1097.0000</ele>
        <time>2018-10-12T16:15:49Z</time>
      </trkpt>
      <trkpt lat="38.28723315" lon="-2.34229744">
        <ele>1098.0000</ele>
        <time>2018-10-12T16:15:50Z</time>
      </trkpt>
      <trkpt lat="38.28720725" lon="-2.34236776">
        <ele>1099.0000</ele>
        <time>2018-10-12T16:15:54Z</time>
      </trkpt>
      <trkpt lat="38.28716157" lon="-2.34247170">
        <ele>1100.0000</ele>
        <time>2018-10-12T16:16:00Z</time>
      </trkpt>
      <trkpt lat="38.28709250" lon="-2.34257371">
        <ele>1101.0000</ele>
        <time>2018-10-12T16:16:07Z</time>
      </trkpt>
      <trkpt lat="38.28703466" lon="-2.34267001">
        <ele>1102.0000</ele>
        <time>2018-10-12T16:16:13Z</time>
      </trkpt>
      <trkpt lat="38.28693727" lon="-2.34280689">
        <ele>1103.0000</ele>
        <time>2018-10-12T16:16:22Z</time>
      </trkpt>
      <trkpt lat="38.28685764" lon="-2.34292072">
        <ele>1104.0000</ele>
        <time>2018-10-12T16:16:29Z</time>
      </trkpt>
      <trkpt lat="38.28675060" lon="-2.34306740">
        <ele>1105.0000</ele>
        <time>2018-10-12T16:16:38Z</time>
      </trkpt>
      <trkpt lat="38.28666737" lon="-2.34316052">
        <ele>1106.0000</ele>
        <time>2018-10-12T16:16:45Z</time>
      </trkpt>
      <trkpt lat="38.28657140" lon="-2.34325071">
        <ele>1107.0000</ele>
        <time>2018-10-12T16:16:52Z</time>
      </trkpt>
      <trkpt lat="38.28649085" lon="-2.34336555">
        <ele>1108.0000</ele>
        <time>2018-10-12T16:16:59Z</time>
      </trkpt>
      <trkpt lat="38.28641365" lon="-2.34347543">
        <ele>1109.0000</ele>
        <time>2018-10-12T16:17:06Z</time>
      </trkpt>
      <trkpt lat="38.28634207" lon="-2.34358197">
        <ele>1110.0000</ele>
        <time>2018-10-12T16:17:13Z</time>
      </trkpt>
      <trkpt lat="38.28626789" lon="-2.34369370">
        <ele>1111.0000</ele>
        <time>2018-10-12T16:17:20Z</time>
      </trkpt>
      <trkpt lat="38.28619589" lon="-2.34379068">
        <ele>1112.0000</ele>
        <time>2018-10-12T16:17:26Z</time>
      </trkpt>
      <trkpt lat="38.28611089" lon="-2.34389662">
        <ele>1113.0000</ele>
        <time>2018-10-12T16:17:33Z</time>
      </trkpt>
      <trkpt lat="38.28603814" lon="-2.34398949">
        <ele>1114.0000</ele>
        <time>2018-10-12T16:17:39Z</time>
      </trkpt>
      <trkpt lat="38.28596832" lon="-2.34408019">
        <ele>1115.0000</ele>
        <time>2018-10-12T16:17:45Z</time>
      </trkpt>
      <trkpt lat="38.28588877" lon="-2.34418010">
        <ele>1116.0000</ele>
        <time>2018-10-12T16:17:52Z</time>
      </trkpt>
      <trkpt lat="38.28581107" lon="-2.34427263">
        <ele>1117.0000</ele>
        <time>2018-10-12T16:17:59Z</time>
      </trkpt>
      <trkpt lat="38.28573446" lon="-2.34437129">
        <ele>1118.0000</ele>
        <time>2018-10-12T16:18:06Z</time>
      </trkpt>
      <trkpt lat="38.28566095" lon="-2.34444958">
        <ele>1120.0000</ele>
        <time>2018-10-12T16:18:12Z</time>
      </trkpt>
      <trkpt lat="38.28554738" lon="-2.34456173">
        <ele>1121.0000</ele>
        <time>2018-10-12T16:18:20Z</time>
      </trkpt>
      <trkpt lat="38.28540380" lon="-2.34465024">
        <ele>1122.0000</ele>
        <time>2018-10-12T16:18:29Z</time>
      </trkpt>
      <trkpt lat="38.28529257" lon="-2.34466407">
        <ele>1123.0000</ele>
        <time>2018-10-12T16:18:36Z</time>
      </trkpt>
      <trkpt lat="38.28519710" lon="-2.34466600">
        <ele>1124.0000</ele>
        <time>2018-10-12T16:18:43Z</time>
      </trkpt>
      <trkpt lat="38.28513331" lon="-2.34467388">
        <ele>1125.0000</ele>
        <time>2018-10-12T16:18:48Z</time>
      </trkpt>
      <trkpt lat="38.28505000" lon="-2.34467882">
        <ele>1126.0000</ele>
        <time>2018-10-12T16:18:54Z</time>
      </trkpt>
      <trkpt lat="38.28495377" lon="-2.34470229">
        <ele>1127.0000</ele>
        <time>2018-10-12T16:19:01Z</time>
      </trkpt>
      <trkpt lat="38.28485772" lon="-2.34472400">
        <ele>1128.0000</ele>
        <time>2018-10-12T16:19:08Z</time>
      </trkpt>
      <trkpt lat="38.28474942" lon="-2.34477697">
        <ele>1129.0000</ele>
        <time>2018-10-12T16:19:16Z</time>
      </trkpt>
      <trkpt lat="38.28467809" lon="-2.34480648">
        <ele>1130.0000</ele>
        <time>2018-10-12T16:19:21Z</time>
      </trkpt>
      <trkpt lat="38.28461171" lon="-2.34484420">
        <ele>1131.0000</ele>
        <time>2018-10-12T16:19:26Z</time>
      </trkpt>
      <trkpt lat="38.28454650" lon="-2.34488108">
        <ele>1132.0000</ele>
        <time>2018-10-12T16:19:31Z</time>
      </trkpt>
      <trkpt lat="38.28453417" lon="-2.34488560">
        <ele>1133.0000</ele>
        <time>2018-10-12T16:19:32Z</time>
      </trkpt>
      <trkpt lat="38.28448120" lon="-2.34489960">
        <ele>1133.0000</ele>
        <time>2018-10-12T16:19:36Z</time>
      </trkpt>
      <trkpt lat="38.28445564" lon="-2.34490555">
        <ele>1134.0000</ele>
        <time>2018-10-12T16:19:38Z</time>
      </trkpt>
      <trkpt lat="38.28441750" lon="-2.34493263">
        <ele>1135.0000</ele>
        <time>2018-10-12T16:19:41Z</time>
      </trkpt>
      <trkpt lat="38.28437827" lon="-2.34493908">
        <ele>1135.0000</ele>
        <time>2018-10-12T16:19:44Z</time>
      </trkpt>
      <trkpt lat="38.28432454" lon="-2.34494017">
        <ele>1136.0000</ele>
        <time>2018-10-12T16:19:48Z</time>
      </trkpt>
      <trkpt lat="38.28423980" lon="-2.34494226">
        <ele>1137.0000</ele>
        <time>2018-10-12T16:19:54Z</time>
      </trkpt>
      <trkpt lat="38.28415883" lon="-2.34494226">
        <ele>1138.0000</ele>
        <time>2018-10-12T16:20:00Z</time>
      </trkpt>
      <trkpt lat="38.28411684" lon="-2.34495568">
        <ele>1138.0000</ele>
        <time>2018-10-12T16:20:03Z</time>
      </trkpt>
      <trkpt lat="38.28410418" lon="-2.34495216">
        <ele>1138.0000</ele>
        <time>2018-10-12T16:20:04Z</time>
      </trkpt>
      <trkpt lat="38.28409094" lon="-2.34495392">
        <ele>1138.0000</ele>
        <time>2018-10-12T16:20:05Z</time>
      </trkpt>
      <trkpt lat="38.28404970" lon="-2.34497454">
        <ele>1139.0000</ele>
        <time>2018-10-12T16:20:08Z</time>
      </trkpt>
      <trkpt lat="38.28403369" lon="-2.34497470">
        <ele>1139.0000</ele>
        <time>2018-10-12T16:20:09Z</time>
      </trkpt>
      <trkpt lat="38.28384359" lon="-2.34498015">
        <ele>1140.0000</ele>
        <time>2018-10-12T16:20:19Z</time>
      </trkpt>
      <trkpt lat="38.28363287" lon="-2.34491712">
        <ele>1141.0000</ele>
        <time>2018-10-12T16:20:28Z</time>
      </trkpt>
      <trkpt lat="38.28355726" lon="-2.34491159">
        <ele>1141.0000</ele>
        <time>2018-10-12T16:20:31Z</time>
      </trkpt>
      <trkpt lat="38.28336138" lon="-2.34493640">
        <ele>1141.0000</ele>
        <time>2018-10-12T16:20:39Z</time>
      </trkpt>
      <trkpt lat="38.28321252" lon="-2.34493154">
        <ele>1142.0000</ele>
        <time>2018-10-12T16:20:45Z</time>
      </trkpt>
      <trkpt lat="38.28304655" lon="-2.34484110">
        <ele>1143.0000</ele>
        <time>2018-10-12T16:20:54Z</time>
      </trkpt>
      <trkpt lat="38.28294203" lon="-2.34477077">
        <ele>1144.0000</ele>
        <time>2018-10-12T16:21:01Z</time>
      </trkpt>
      <trkpt lat="38.28283206" lon="-2.34469911">
        <ele>1145.0000</ele>
        <time>2018-10-12T16:21:08Z</time>
      </trkpt>
      <trkpt lat="38.28270030" lon="-2.34464588">
        <ele>1146.0000</ele>
        <time>2018-10-12T16:21:16Z</time>
      </trkpt>
      <trkpt lat="38.28257080" lon="-2.34461118">
        <ele>1147.0000</ele>
        <time>2018-10-12T16:21:24Z</time>
      </trkpt>
      <trkpt lat="38.28242428" lon="-2.34466591">
        <ele>1149.0000</ele>
        <time>2018-10-12T16:21:32Z</time>
      </trkpt>
      <trkpt lat="38.28227441" lon="-2.34477111">
        <ele>1149.0000</ele>
        <time>2018-10-12T16:21:40Z</time>
      </trkpt>
      <trkpt lat="38.28209194" lon="-2.34489323">
        <ele>1151.0000</ele>
        <time>2018-10-12T16:21:50Z</time>
      </trkpt>
      <trkpt lat="38.28193184" lon="-2.34496582">
        <ele>1152.0000</ele>
        <time>2018-10-12T16:21:58Z</time>
      </trkpt>
      <trkpt lat="38.28179405" lon="-2.34499247">
        <ele>1153.0000</ele>
        <time>2018-10-12T16:22:05Z</time>
      </trkpt>
      <trkpt lat="38.28172590" lon="-2.34501686">
        <ele>1154.0000</ele>
        <time>2018-10-12T16:22:09Z</time>
      </trkpt>
      <trkpt lat="38.28166019" lon="-2.34500437">
        <ele>1155.0000</ele>
        <time>2018-10-12T16:22:13Z</time>
      </trkpt>
      <trkpt lat="38.28164217" lon="-2.34500396">
        <ele>1155.0000</ele>
        <time>2018-10-12T16:22:14Z</time>
      </trkpt>
      <trkpt lat="38.28159263" lon="-2.34501921">
        <ele>1156.0000</ele>
        <time>2018-10-12T16:22:17Z</time>
      </trkpt>
      <trkpt lat="38.28150068" lon="-2.34500471">
        <ele>1157.0000</ele>
        <time>2018-10-12T16:22:23Z</time>
      </trkpt>
      <trkpt lat="38.28140781" lon="-2.34500152">
        <ele>1158.0000</ele>
        <time>2018-10-12T16:22:30Z</time>
      </trkpt>
      <trkpt lat="38.28138023" lon="-2.34499608">
        <ele>1159.0000</ele>
        <time>2018-10-12T16:22:32Z</time>
      </trkpt>
      <trkpt lat="38.28132474" lon="-2.34499147">
        <ele>1159.0000</ele>
        <time>2018-10-12T16:22:36Z</time>
      </trkpt>
      <trkpt lat="38.28124252" lon="-2.34503690">
        <ele>1160.0000</ele>
        <time>2018-10-12T16:22:42Z</time>
      </trkpt>
      <trkpt lat="38.28120522" lon="-2.34507353">
        <ele>1161.0000</ele>
        <time>2018-10-12T16:22:45Z</time>
      </trkpt>
      <trkpt lat="38.28116423" lon="-2.34511787">
        <ele>1162.0000</ele>
        <time>2018-10-12T16:22:48Z</time>
      </trkpt>
      <trkpt lat="38.28107681" lon="-2.34520487">
        <ele>1163.0000</ele>
        <time>2018-10-12T16:22:54Z</time>
      </trkpt>
      <trkpt lat="38.28095502" lon="-2.34532398">
        <ele>1164.0000</ele>
        <time>2018-10-12T16:23:02Z</time>
      </trkpt>
      <trkpt lat="38.28071186" lon="-2.34560854">
        <ele>1165.0000</ele>
        <time>2018-10-12T16:23:14Z</time>
      </trkpt>
      <trkpt lat="38.28030534" lon="-2.34597500">
        <ele>1166.0000</ele>
        <time>2018-10-12T16:23:30Z</time>
      </trkpt>
      <trkpt lat="38.28012135" lon="-2.34600744">
        <ele>1167.0000</ele>
        <time>2018-10-12T16:23:36Z</time>
      </trkpt>
      <trkpt lat="38.27997501" lon="-2.34599478">
        <ele>1168.0000</ele>
        <time>2018-10-12T16:23:41Z</time>
      </trkpt>
      <trkpt lat="38.27977870" lon="-2.34594080">
        <ele>1169.0000</ele>
        <time>2018-10-12T16:23:48Z</time>
      </trkpt>
      <trkpt lat="38.27956764" lon="-2.34572396">
        <ele>1170.0000</ele>
        <time>2018-10-12T16:23:57Z</time>
      </trkpt>
      <trkpt lat="38.27945902" lon="-2.34546982">
        <ele>1171.0000</ele>
        <time>2018-10-12T16:24:06Z</time>
      </trkpt>
      <trkpt lat="38.27941685" lon="-2.34532356">
        <ele>1172.0000</ele>
        <time>2018-10-12T16:24:12Z</time>
      </trkpt>
      <trkpt lat="38.27936740" lon="-2.34517377">
        <ele>1173.0000</ele>
        <time>2018-10-12T16:24:19Z</time>
      </trkpt>
      <trkpt lat="38.27936011" lon="-2.34515642">
        <ele>1174.0000</ele>
        <time>2018-10-12T16:24:20Z</time>
      </trkpt>
      <trkpt lat="38.27932675" lon="-2.34508585">
        <ele>1175.0000</ele>
        <time>2018-10-12T16:24:24Z</time>
      </trkpt>
      <trkpt lat="38.27928786" lon="-2.34497889">
        <ele>1176.0000</ele>
        <time>2018-10-12T16:24:30Z</time>
      </trkpt>
      <trkpt lat="38.27922700" lon="-2.34488904">
        <ele>1177.0000</ele>
        <time>2018-10-12T16:24:35Z</time>
      </trkpt>
      <trkpt lat="38.27916238" lon="-2.34479491">
        <ele>1178.0000</ele>
        <time>2018-10-12T16:24:41Z</time>
      </trkpt>
      <trkpt lat="38.27907755" lon="-2.34470363">
        <ele>1179.0000</ele>
        <time>2018-10-12T16:24:48Z</time>
      </trkpt>
      <trkpt lat="38.27899256" lon="-2.34462643">
        <ele>1180.0000</ele>
        <time>2018-10-12T16:24:55Z</time>
      </trkpt>
      <trkpt lat="38.27891000" lon="-2.34457883">
        <ele>1181.0000</ele>
        <time>2018-10-12T16:25:02Z</time>
      </trkpt>
      <trkpt lat="38.27885275" lon="-2.34457237">
        <ele>1182.0000</ele>
        <time>2018-10-12T16:25:06Z</time>
      </trkpt>
      <trkpt lat="38.27883884" lon="-2.34457514">
        <ele>1182.0000</ele>
        <time>2018-10-12T16:25:07Z</time>
      </trkpt>
      <trkpt lat="38.27876105" lon="-2.34461562">
        <ele>1183.0000</ele>
        <time>2018-10-12T16:25:13Z</time>
      </trkpt>
      <trkpt lat="38.27875309" lon="-2.34474965">
        <ele>1184.0000</ele>
        <time>2018-10-12T16:25:20Z</time>
      </trkpt>
      <trkpt lat="38.27876633" lon="-2.34487454">
        <ele>1185.0000</ele>
        <time>2018-10-12T16:25:27Z</time>
      </trkpt>
      <trkpt lat="38.27878654" lon="-2.34497336">
        <ele>1186.0000</ele>
        <time>2018-10-12T16:25:33Z</time>
      </trkpt>
      <trkpt lat="38.27878536" lon="-2.34508149">
        <ele>1187.0000</ele>
        <time>2018-10-12T16:25:39Z</time>
      </trkpt>
      <trkpt lat="38.27877145" lon="-2.34515106">
        <ele>1188.0000</ele>
        <time>2018-10-12T16:25:43Z</time>
      </trkpt>
      <trkpt lat="38.27877681" lon="-2.34516816">
        <ele>1188.0000</ele>
        <time>2018-10-12T16:25:44Z</time>
      </trkpt>
      <trkpt lat="38.27876784" lon="-2.34524016">
        <ele>1189.0000</ele>
        <time>2018-10-12T16:25:48Z</time>
      </trkpt>
      <trkpt lat="38.27873473" lon="-2.34529866">
        <ele>1189.0000</ele>
        <time>2018-10-12T16:25:52Z</time>
      </trkpt>
      <trkpt lat="38.27869174" lon="-2.34539715">
        <ele>1190.0000</ele>
        <time>2018-10-12T16:25:58Z</time>
      </trkpt>
      <trkpt lat="38.27860616" lon="-2.34550092">
        <ele>1191.0000</ele>
        <time>2018-10-12T16:26:05Z</time>
      </trkpt>
      <trkpt lat="38.27844355" lon="-2.34558750">
        <ele>1192.0000</ele>
        <time>2018-10-12T16:26:14Z</time>
      </trkpt>
      <trkpt lat="38.27826920" lon="-2.34563243">
        <ele>1193.0000</ele>
        <time>2018-10-12T16:26:23Z</time>
      </trkpt>
      <trkpt lat="38.27806360" lon="-2.34568046">
        <ele>1194.0000</ele>
        <time>2018-10-12T16:26:34Z</time>
      </trkpt>
      <trkpt lat="38.27788087" lon="-2.34572388">
        <ele>1195.0000</ele>
        <time>2018-10-12T16:26:43Z</time>
      </trkpt>
      <trkpt lat="38.27774701" lon="-2.34577216">
        <ele>1197.0000</ele>
        <time>2018-10-12T16:26:50Z</time>
      </trkpt>
      <trkpt lat="38.27753663" lon="-2.34588724">
        <ele>1198.0000</ele>
        <time>2018-10-12T16:27:01Z</time>
      </trkpt>
      <trkpt lat="38.27737720" lon="-2.34598497">
        <ele>1199.0000</ele>
        <time>2018-10-12T16:27:09Z</time>
      </trkpt>
      <trkpt lat="38.27719305" lon="-2.34610081">
        <ele>1200.0000</ele>
        <time>2018-10-12T16:27:17Z</time>
      </trkpt>
      <trkpt lat="38.27704134" lon="-2.34622076">
        <ele>1200.0000</ele>
        <time>2018-10-12T16:27:22Z</time>
      </trkpt>
      <trkpt lat="38.27696439" lon="-2.34630189">
        <ele>1201.0000</ele>
        <time>2018-10-12T16:27:25Z</time>
      </trkpt>
      <trkpt lat="38.27686943" lon="-2.34642829">
        <ele>1202.0000</ele>
        <time>2018-10-12T16:27:30Z</time>
      </trkpt>
      <trkpt lat="38.27679910" lon="-2.34655989">
        <ele>1203.0000</ele>
        <time>2018-10-12T16:27:35Z</time>
      </trkpt>
      <trkpt lat="38.27658964" lon="-2.34702802">
        <ele>1204.0000</ele>
        <time>2018-10-12T16:27:49Z</time>
      </trkpt>
      <trkpt lat="38.27653700" lon="-2.34715945">
        <ele>1204.0000</ele>
        <time>2018-10-12T16:27:54Z</time>
      </trkpt>
      <trkpt lat="38.27647321" lon="-2.34730294">
        <ele>1205.0000</ele>
        <time>2018-10-12T16:27:59Z</time>
      </trkpt>
      <trkpt lat="38.27641840" lon="-2.34742691">
        <ele>1206.0000</ele>
        <time>2018-10-12T16:28:03Z</time>
      </trkpt>
      <trkpt lat="38.27640205" lon="-2.34746430">
        <ele>1206.0000</ele>
        <time>2018-10-12T16:28:04Z</time>
      </trkpt>
      <trkpt lat="38.27633726" lon="-2.34757619">
        <ele>1208.0000</ele>
        <time>2018-10-12T16:28:09Z</time>
      </trkpt>
      <trkpt lat="38.27630323" lon="-2.34767083">
        <ele>1209.0000</ele>
        <time>2018-10-12T16:28:13Z</time>
      </trkpt>
      <trkpt lat="38.27627574" lon="-2.34776085">
        <ele>1210.0000</ele>
        <time>2018-10-12T16:28:17Z</time>
      </trkpt>
      <trkpt lat="38.27624053" lon="-2.34784425">
        <ele>1211.0000</ele>
        <time>2018-10-12T16:28:21Z</time>
      </trkpt>
      <trkpt lat="38.27616577" lon="-2.34798884">
        <ele>1212.0000</ele>
        <time>2018-10-12T16:28:28Z</time>
      </trkpt>
      <trkpt lat="38.27609108" lon="-2.34809160">
        <ele>1213.0000</ele>
        <time>2018-10-12T16:28:34Z</time>
      </trkpt>
      <trkpt lat="38.27601213" lon="-2.34817634">
        <ele>1215.0000</ele>
        <time>2018-10-12T16:28:40Z</time>
      </trkpt>
      <trkpt lat="38.27593350" lon="-2.34828438">
        <ele>1216.0000</ele>
        <time>2018-10-12T16:28:46Z</time>
      </trkpt>
      <trkpt lat="38.27578397" lon="-2.34844406">
        <ele>1217.0000</ele>
        <time>2018-10-12T16:28:55Z</time>
      </trkpt>
      <trkpt lat="38.27556235" lon="-2.34851128">
        <ele>1218.0000</ele>
        <time>2018-10-12T16:29:05Z</time>
      </trkpt>
      <trkpt lat="38.27538642" lon="-2.34853835">
        <ele>1219.0000</ele>
        <time>2018-10-12T16:29:13Z</time>
      </trkpt>
      <trkpt lat="38.27520252" lon="-2.34857414">
        <ele>1220.0000</ele>
        <time>2018-10-12T16:29:20Z</time>
      </trkpt>
      <trkpt lat="38.27502331" lon="-2.34862502">
        <ele>1220.0000</ele>
        <time>2018-10-12T16:29:26Z</time>
      </trkpt>
      <trkpt lat="38.27490923" lon="-2.34865671">
        <ele>1220.0000</ele>
        <time>2018-10-12T16:29:30Z</time>
      </trkpt>
      <trkpt lat="38.27458427" lon="-2.34874413">
        <ele>1221.0000</ele>
        <time>2018-10-12T16:29:40Z</time>
      </trkpt>
      <trkpt lat="38.27403031" lon="-2.34887924">
        <ele>1220.0000</ele>
        <time>2018-10-12T16:29:51Z</time>
      </trkpt>
      <trkpt lat="38.27369914" lon="-2.34893691">
        <ele>1221.0000</ele>
        <time>2018-10-12T16:30:01Z</time>
      </trkpt>
      <trkpt lat="38.27359579" lon="-2.34896122">
        <ele>1222.0000</ele>
        <time>2018-10-12T16:30:04Z</time>
      </trkpt>
      <trkpt lat="38.27349898" lon="-2.34898645">
        <ele>1223.0000</ele>
        <time>2018-10-12T16:30:07Z</time>
      </trkpt>
      <trkpt lat="38.27337451" lon="-2.34903372">
        <ele>1224.0000</ele>
        <time>2018-10-12T16:30:11Z</time>
      </trkpt>
      <trkpt lat="38.27304367" lon="-2.34931267">
        <ele>1225.0000</ele>
        <time>2018-10-12T16:30:21Z</time>
      </trkpt>
      <trkpt lat="38.27281200" lon="-2.34945860">
        <ele>1225.0000</ele>
        <time>2018-10-12T16:30:25Z</time>
      </trkpt>
      <trkpt lat="38.27242953" lon="-2.34964242">
        <ele>1223.0000</ele>
        <time>2018-10-12T16:30:30Z</time>
      </trkpt>
      <trkpt lat="38.27224228" lon="-2.34971274">
        <ele>1222.0000</ele>
        <time>2018-10-12T16:30:32Z</time>
      </trkpt>
      <trkpt lat="38.27204296" lon="-2.34977175">
        <ele>1220.0000</ele>
        <time>2018-10-12T16:30:34Z</time>
      </trkpt>
      <trkpt lat="38.27194514" lon="-2.34981232">
        <ele>1220.0000</ele>
        <time>2018-10-12T16:30:35Z</time>
      </trkpt>
      <trkpt lat="38.27185001" lon="-2.34986303">
        <ele>1219.0000</ele>
        <time>2018-10-12T16:30:36Z</time>
      </trkpt>
      <trkpt lat="38.27166343" lon="-2.34997560">
        <ele>1218.0000</ele>
        <time>2018-10-12T16:30:38Z</time>
      </trkpt>
      <trkpt lat="38.27156896" lon="-2.35002111">
        <ele>1216.0000</ele>
        <time>2018-10-12T16:30:39Z</time>
      </trkpt>
      <trkpt lat="38.27147400" lon="-2.35005212">
        <ele>1215.0000</ele>
        <time>2018-10-12T16:30:40Z</time>
      </trkpt>
      <trkpt lat="38.27129236" lon="-2.35010367">
        <ele>1213.0000</ele>
        <time>2018-10-12T16:30:42Z</time>
      </trkpt>
      <trkpt lat="38.27089933" lon="-2.35026561">
        <ele>1213.0000</ele>
        <time>2018-10-12T16:30:47Z</time>
      </trkpt>
      <trkpt lat="38.27048719" lon="-2.35031808">
        <ele>1212.0000</ele>
        <time>2018-10-12T16:30:52Z</time>
      </trkpt>
      <trkpt lat="38.27040094" lon="-2.35034348">
        <ele>1212.0000</ele>
        <time>2018-10-12T16:30:53Z</time>
      </trkpt>
      <trkpt lat="38.27014404" lon="-2.35048019">
        <ele>1212.0000</ele>
        <time>2018-10-12T16:30:56Z</time>
      </trkpt>
      <trkpt lat="38.26966929" lon="-2.35081228">
        <ele>1211.0000</ele>
        <time>2018-10-12T16:31:02Z</time>
      </trkpt>
      <trkpt lat="38.26960391" lon="-2.35085385">
        <ele>1211.0000</ele>
        <time>2018-10-12T16:31:03Z</time>
      </trkpt>
      <trkpt lat="38.26946410" lon="-2.35087322">
        <ele>1209.0000</ele>
        <time>2018-10-12T16:31:05Z</time>
      </trkpt>
      <trkpt lat="38.26920803" lon="-2.35073600">
        <ele>1208.0000</ele>
        <time>2018-10-12T16:31:09Z</time>
      </trkpt>
      <trkpt lat="38.26870730" lon="-2.35039302">
        <ele>1208.0000</ele>
        <time>2018-10-12T16:31:18Z</time>
      </trkpt>
      <trkpt lat="38.26824378" lon="-2.34999035">
        <ele>1208.0000</ele>
        <time>2018-10-12T16:31:26Z</time>
      </trkpt>
      <trkpt lat="38.26817798" lon="-2.34992715">
        <ele>1208.0000</ele>
        <time>2018-10-12T16:31:28Z</time>
      </trkpt>
      <trkpt lat="38.26815694" lon="-2.34990477">
        <ele>1208.0000</ele>
        <time>2018-10-12T16:31:29Z</time>
      </trkpt>
      <trkpt lat="38.26811872" lon="-2.34986387">
        <ele>1208.0000</ele>
        <time>2018-10-12T16:31:32Z</time>
      </trkpt>
      <trkpt lat="38.26807614" lon="-2.34980938">
        <ele>1209.0000</ele>
        <time>2018-10-12T16:31:36Z</time>
      </trkpt>
      <trkpt lat="38.26805627" lon="-2.34978206">
        <ele>1211.0000</ele>
        <time>2018-10-12T16:31:38Z</time>
      </trkpt>
      <trkpt lat="38.26803348" lon="-2.34975348">
        <ele>1211.0000</ele>
        <time>2018-10-12T16:31:40Z</time>
      </trkpt>
      <trkpt lat="38.26800665" lon="-2.34973219">
        <ele>1212.0000</ele>
        <time>2018-10-12T16:31:42Z</time>
      </trkpt>
      <trkpt lat="38.26796005" lon="-2.34967519">
        <ele>1213.0000</ele>
        <time>2018-10-12T16:31:46Z</time>
      </trkpt>
      <trkpt lat="38.26791328" lon="-2.34963831">
        <ele>1214.0000</ele>
        <time>2018-10-12T16:31:50Z</time>
      </trkpt>
      <trkpt lat="38.26788126" lon="-2.34959607">
        <ele>1215.0000</ele>
        <time>2018-10-12T16:31:54Z</time>
      </trkpt>
      <trkpt lat="38.26783608" lon="-2.34954024">
        <ele>1216.0000</ele>
        <time>2018-10-12T16:31:59Z</time>
      </trkpt>
      <trkpt lat="38.26779090" lon="-2.34950227">
        <ele>1217.0000</ele>
        <time>2018-10-12T16:32:03Z</time>
      </trkpt>
      <trkpt lat="38.26775729" lon="-2.34947386">
        <ele>1218.0000</ele>
        <time>2018-10-12T16:32:06Z</time>
      </trkpt>
      <trkpt lat="38.26772896" lon="-2.34945391">
        <ele>1218.0000</ele>
        <time>2018-10-12T16:32:09Z</time>
      </trkpt>
      <trkpt lat="38.26770633" lon="-2.34940152">
        <ele>1219.0000</ele>
        <time>2018-10-12T16:32:13Z</time>
      </trkpt>
      <trkpt lat="38.26765646" lon="-2.34935073">
        <ele>1221.0000</ele>
        <time>2018-10-12T16:32:19Z</time>
      </trkpt>
      <trkpt lat="38.26760273" lon="-2.34930957">
        <ele>1222.0000</ele>
        <time>2018-10-12T16:32:25Z</time>
      </trkpt>
      <trkpt lat="38.26753241" lon="-2.34925651">
        <ele>1223.0000</ele>
        <time>2018-10-12T16:32:33Z</time>
      </trkpt>
      <trkpt lat="38.26752218" lon="-2.34921284">
        <ele>1223.0000</ele>
        <time>2018-10-12T16:32:36Z</time>
      </trkpt>
      <trkpt lat="38.26750860" lon="-2.34918594">
        <ele>1224.0000</ele>
        <time>2018-10-12T16:32:38Z</time>
      </trkpt>
      <trkpt lat="38.26744481" lon="-2.34914084">
        <ele>1225.0000</ele>
        <time>2018-10-12T16:32:45Z</time>
      </trkpt>
      <trkpt lat="38.26738782" lon="-2.34907781">
        <ele>1226.0000</ele>
        <time>2018-10-12T16:32:52Z</time>
      </trkpt>
      <trkpt lat="38.26734675" lon="-2.34901101">
        <ele>1227.0000</ele>
        <time>2018-10-12T16:32:58Z</time>
      </trkpt>
      <trkpt lat="38.26728782" lon="-2.34892350">
        <ele>1228.0000</ele>
        <time>2018-10-12T16:33:06Z</time>
      </trkpt>
      <trkpt lat="38.26724424" lon="-2.34891126">
        <ele>1229.0000</ele>
        <time>2018-10-12T16:33:10Z</time>
      </trkpt>
      <trkpt lat="38.26722286" lon="-2.34884320">
        <ele>1230.0000</ele>
        <time>2018-10-12T16:33:15Z</time>
      </trkpt>
      <trkpt lat="38.26715136" lon="-2.34879526">
        <ele>1231.0000</ele>
        <time>2018-10-12T16:33:22Z</time>
      </trkpt>
      <trkpt lat="38.26714105" lon="-2.34878403">
        <ele>1231.0000</ele>
        <time>2018-10-12T16:33:23Z</time>
      </trkpt>
      <trkpt lat="38.26709470" lon="-2.34869208">
        <ele>1232.0000</ele>
        <time>2018-10-12T16:33:30Z</time>
      </trkpt>
      <trkpt lat="38.26704257" lon="-2.34865067">
        <ele>1233.0000</ele>
        <time>2018-10-12T16:33:35Z</time>
      </trkpt>
      <trkpt lat="38.26701926" lon="-2.34863441">
        <ele>1233.0000</ele>
        <time>2018-10-12T16:33:37Z</time>
      </trkpt>
      <trkpt lat="38.26699797" lon="-2.34861262">
        <ele>1233.0000</ele>
        <time>2018-10-12T16:33:39Z</time>
      </trkpt>
      <trkpt lat="38.26695699" lon="-2.34853684">
        <ele>1234.0000</ele>
        <time>2018-10-12T16:33:44Z</time>
      </trkpt>
      <trkpt lat="38.26693662" lon="-2.34850793">
        <ele>1234.0000</ele>
        <time>2018-10-12T16:33:46Z</time>
      </trkpt>
      <trkpt lat="38.26685389" lon="-2.34846828">
        <ele>1235.0000</ele>
        <time>2018-10-12T16:33:52Z</time>
      </trkpt>
      <trkpt lat="38.26675314" lon="-2.34842386">
        <ele>1236.0000</ele>
        <time>2018-10-12T16:33:58Z</time>
      </trkpt>
      <trkpt lat="38.26653219" lon="-2.34841246">
        <ele>1237.0000</ele>
        <time>2018-10-12T16:34:08Z</time>
      </trkpt>
      <trkpt lat="38.26633010" lon="-2.34845261">
        <ele>1238.0000</ele>
        <time>2018-10-12T16:34:18Z</time>
      </trkpt>
      <trkpt lat="38.26620488" lon="-2.34852192">
        <ele>1239.0000</ele>
        <time>2018-10-12T16:34:25Z</time>
      </trkpt>
      <trkpt lat="38.26610564" lon="-2.34860700">
        <ele>1240.0000</ele>
        <time>2018-10-12T16:34:31Z</time>
      </trkpt>
      <trkpt lat="38.26597220" lon="-2.34874907">
        <ele>1241.0000</ele>
        <time>2018-10-12T16:34:40Z</time>
      </trkpt>
      <trkpt lat="38.26590430" lon="-2.34890514">
        <ele>1242.0000</ele>
        <time>2018-10-12T16:34:47Z</time>
      </trkpt>
      <trkpt lat="38.26584412" lon="-2.34909005">
        <ele>1243.0000</ele>
        <time>2018-10-12T16:34:55Z</time>
      </trkpt>
      <trkpt lat="38.26581663" lon="-2.34925802">
        <ele>1245.0000</ele>
        <time>2018-10-12T16:35:02Z</time>
      </trkpt>
      <trkpt lat="38.26579358" lon="-2.34940781">
        <ele>1246.0000</ele>
        <time>2018-10-12T16:35:09Z</time>
      </trkpt>
      <trkpt lat="38.26577254" lon="-2.34956413">
        <ele>1247.0000</ele>
        <time>2018-10-12T16:35:17Z</time>
      </trkpt>
      <trkpt lat="38.26575678" lon="-2.34968600">
        <ele>1248.0000</ele>
        <time>2018-10-12T16:35:24Z</time>
      </trkpt>
      <trkpt lat="38.26576500" lon="-2.34978416">
        <ele>1249.0000</ele>
        <time>2018-10-12T16:35:30Z</time>
      </trkpt>
      <trkpt lat="38.26574580" lon="-2.34989237">
        <ele>1250.0000</ele>
        <time>2018-10-12T16:35:37Z</time>
      </trkpt>
      <trkpt lat="38.26575653" lon="-2.35002723">
        <ele>1251.0000</ele>
        <time>2018-10-12T16:35:45Z</time>
      </trkpt>
      <trkpt lat="38.26572837" lon="-2.35017106">
        <ele>1252.0000</ele>
        <time>2018-10-12T16:35:54Z</time>
      </trkpt>
      <trkpt lat="38.26572359" lon="-2.35032001">
        <ele>1253.0000</ele>
        <time>2018-10-12T16:36:02Z</time>
      </trkpt>
      <trkpt lat="38.26570180" lon="-2.35039620">
        <ele>1254.0000</ele>
        <time>2018-10-12T16:36:07Z</time>
      </trkpt>
      <trkpt lat="38.26570465" lon="-2.35041305">
        <ele>1254.0000</ele>
        <time>2018-10-12T16:36:08Z</time>
      </trkpt>
      <trkpt lat="38.26570364" lon="-2.35048740">
        <ele>1255.0000</ele>
        <time>2018-10-12T16:36:12Z</time>
      </trkpt>
      <trkpt lat="38.26569149" lon="-2.35054196">
        <ele>1255.0000</ele>
        <time>2018-10-12T16:36:15Z</time>
      </trkpt>
      <trkpt lat="38.26566508" lon="-2.35068345">
        <ele>1256.0000</ele>
        <time>2018-10-12T16:36:23Z</time>
      </trkpt>
      <trkpt lat="38.26565628" lon="-2.35083483">
        <ele>1257.0000</ele>
        <time>2018-10-12T16:36:31Z</time>
      </trkpt>
      <trkpt lat="38.26561924" lon="-2.35101060">
        <ele>1258.0000</ele>
        <time>2018-10-12T16:36:39Z</time>
      </trkpt>
      <trkpt lat="38.26560423" lon="-2.35107262">
        <ele>1259.0000</ele>
        <time>2018-10-12T16:36:42Z</time>
      </trkpt>
      <trkpt lat="38.26559761" lon="-2.35114135">
        <ele>1259.0000</ele>
        <time>2018-10-12T16:36:45Z</time>
      </trkpt>
      <trkpt lat="38.26558076" lon="-2.35126960">
        <ele>1260.0000</ele>
        <time>2018-10-12T16:36:50Z</time>
      </trkpt>
      <trkpt lat="38.26555478" lon="-2.35134445">
        <ele>1262.0000</ele>
        <time>2018-10-12T16:36:54Z</time>
      </trkpt>
      <trkpt lat="38.26554941" lon="-2.35146389">
        <ele>1263.0000</ele>
        <time>2018-10-12T16:36:59Z</time>
      </trkpt>
      <trkpt lat="38.26553927" lon="-2.35159087">
        <ele>1264.0000</ele>
        <time>2018-10-12T16:37:05Z</time>
      </trkpt>
      <trkpt lat="38.26552184" lon="-2.35173353">
        <ele>1265.0000</ele>
        <time>2018-10-12T16:37:11Z</time>
      </trkpt>
      <trkpt lat="38.26549879" lon="-2.35187988">
        <ele>1266.0000</ele>
        <time>2018-10-12T16:37:18Z</time>
      </trkpt>
      <trkpt lat="38.26548504" lon="-2.35202179">
        <ele>1267.0000</ele>
        <time>2018-10-12T16:37:25Z</time>
      </trkpt>
      <trkpt lat="38.26546719" lon="-2.35213486">
        <ele>1268.0000</ele>
        <time>2018-10-12T16:37:31Z</time>
      </trkpt>
      <trkpt lat="38.26545411" lon="-2.35219697">
        <ele>1269.0000</ele>
        <time>2018-10-12T16:37:34Z</time>
      </trkpt>
      <trkpt lat="38.26545285" lon="-2.35227157">
        <ele>1269.0000</ele>
        <time>2018-10-12T16:37:38Z</time>
      </trkpt>
      <trkpt lat="38.26545336" lon="-2.35228842">
        <ele>1269.0000</ele>
        <time>2018-10-12T16:37:39Z</time>
      </trkpt>
      <trkpt lat="38.26544271" lon="-2.35237609">
        <ele>1270.0000</ele>
        <time>2018-10-12T16:37:44Z</time>
      </trkpt>
      <trkpt lat="38.26543257" lon="-2.35250257">
        <ele>1271.0000</ele>
        <time>2018-10-12T16:37:50Z</time>
      </trkpt>
      <trkpt lat="38.26541991" lon="-2.35268027">
        <ele>1273.0000</ele>
        <time>2018-10-12T16:37:58Z</time>
      </trkpt>
      <trkpt lat="38.26539552" lon="-2.35277432">
        <ele>1274.0000</ele>
        <time>2018-10-12T16:38:03Z</time>
      </trkpt>
      <trkpt lat="38.26536183" lon="-2.35281044">
        <ele>1274.0000</ele>
        <time>2018-10-12T16:38:06Z</time>
      </trkpt>
      <trkpt lat="38.26534850" lon="-2.35281564">
        <ele>1274.0000</ele>
        <time>2018-10-12T16:38:07Z</time>
      </trkpt>
      <trkpt lat="38.26532159" lon="-2.35280659">
        <ele>1275.0000</ele>
        <time>2018-10-12T16:38:09Z</time>
      </trkpt>
      <trkpt lat="38.26529142" lon="-2.35276971">
        <ele>1275.0000</ele>
        <time>2018-10-12T16:38:12Z</time>
      </trkpt>
      <trkpt lat="38.26528413" lon="-2.35275537">
        <ele>1275.0000</ele>
        <time>2018-10-12T16:38:13Z</time>
      </trkpt>
      <trkpt lat="38.26527767" lon="-2.35271665">
        <ele>1276.0000</ele>
        <time>2018-10-12T16:38:15Z</time>
      </trkpt>
      <trkpt lat="38.26526904" lon="-2.35259804">
        <ele>1277.0000</ele>
        <time>2018-10-12T16:38:21Z</time>
      </trkpt>
      <trkpt lat="38.26526141" lon="-2.35244650">
        <ele>1278.0000</ele>
        <time>2018-10-12T16:38:28Z</time>
      </trkpt>
      <trkpt lat="38.26525119" lon="-2.35226486">
        <ele>1279.0000</ele>
        <time>2018-10-12T16:38:36Z</time>
      </trkpt>
      <trkpt lat="38.26523258" lon="-2.35208490">
        <ele>1280.0000</ele>
        <time>2018-10-12T16:38:44Z</time>
      </trkpt>
      <trkpt lat="38.26522688" lon="-2.35192665">
        <ele>1281.0000</ele>
        <time>2018-10-12T16:38:51Z</time>
      </trkpt>
      <trkpt lat="38.26521330" lon="-2.35177142">
        <ele>1282.0000</ele>
        <time>2018-10-12T16:38:58Z</time>
      </trkpt>
      <trkpt lat="38.26519779" lon="-2.35164175">
        <ele>1283.0000</ele>
        <time>2018-10-12T16:39:03Z</time>
      </trkpt>
      <trkpt lat="38.26517944" lon="-2.35144997">
        <ele>1284.0000</ele>
        <time>2018-10-12T16:39:10Z</time>
      </trkpt>
      <trkpt lat="38.26515479" lon="-2.35131679">
        <ele>1286.0000</ele>
        <time>2018-10-12T16:39:15Z</time>
      </trkpt>
      <trkpt lat="38.26507885" lon="-2.35119064">
        <ele>1287.0000</ele>
        <time>2018-10-12T16:39:21Z</time>
      </trkpt>
      <trkpt lat="38.26501079" lon="-2.35107162">
        <ele>1288.0000</ele>
        <time>2018-10-12T16:39:27Z</time>
      </trkpt>
      <trkpt lat="38.26498950" lon="-2.35089023">
        <ele>1289.0000</ele>
        <time>2018-10-12T16:39:35Z</time>
      </trkpt>
      <trkpt lat="38.26498129" lon="-2.35072972">
        <ele>1290.0000</ele>
        <time>2018-10-12T16:39:42Z</time>
      </trkpt>
      <trkpt lat="38.26495748" lon="-2.35054263">
        <ele>1291.0000</ele>
        <time>2018-10-12T16:39:50Z</time>
      </trkpt>
      <trkpt lat="38.26488146" lon="-2.35039595">
        <ele>1292.0000</ele>
        <time>2018-10-12T16:39:57Z</time>
      </trkpt>
      <trkpt lat="38.26478079" lon="-2.35023426">
        <ele>1293.0000</ele>
        <time>2018-10-12T16:40:04Z</time>
      </trkpt>
      <trkpt lat="38.26468625" lon="-2.35005162">
        <ele>1294.0000</ele>
        <time>2018-10-12T16:40:12Z</time>
      </trkpt>
      <trkpt lat="38.26467879" lon="-2.35002673">
        <ele>1294.0000</ele>
        <time>2018-10-12T16:40:13Z</time>
      </trkpt>
      <trkpt lat="38.26460729" lon="-2.34980863">
        <ele>1295.0000</ele>
        <time>2018-10-12T16:40:22Z</time>
      </trkpt>
      <trkpt lat="38.26456035" lon="-2.34965298">
        <ele>1296.0000</ele>
        <time>2018-10-12T16:40:29Z</time>
      </trkpt>
      <trkpt lat="38.26448114" lon="-2.34952507">
        <ele>1297.0000</ele>
        <time>2018-10-12T16:40:36Z</time>
      </trkpt>
      <trkpt lat="38.26441509" lon="-2.34943304">
        <ele>1298.0000</ele>
        <time>2018-10-12T16:40:41Z</time>
      </trkpt>
      <trkpt lat="38.26437327" lon="-2.34933229">
        <ele>1299.0000</ele>
        <time>2018-10-12T16:40:46Z</time>
      </trkpt>
      <trkpt lat="38.26432976" lon="-2.34919809">
        <ele>1300.0000</ele>
        <time>2018-10-12T16:40:52Z</time>
      </trkpt>
      <trkpt lat="38.26425910" lon="-2.34909784">
        <ele>1301.0000</ele>
        <time>2018-10-12T16:40:58Z</time>
      </trkpt>
      <trkpt lat="38.26421820" lon="-2.34900782">
        <ele>1303.0000</ele>
        <time>2018-10-12T16:41:03Z</time>
      </trkpt>
      <trkpt lat="38.26420127" lon="-2.34897228">
        <ele>1303.0000</ele>
        <time>2018-10-12T16:41:05Z</time>
      </trkpt>
      <trkpt lat="38.26414905" lon="-2.34889048">
        <ele>1304.0000</ele>
        <time>2018-10-12T16:41:09Z</time>
      </trkpt>
      <trkpt lat="38.26408241" lon="-2.34875092">
        <ele>1305.0000</ele>
        <time>2018-10-12T16:41:14Z</time>
      </trkpt>
      <trkpt lat="38.26404637" lon="-2.34860507">
        <ele>1306.0000</ele>
        <time>2018-10-12T16:41:19Z</time>
      </trkpt>
      <trkpt lat="38.26400086" lon="-2.34848823">
        <ele>1307.0000</ele>
        <time>2018-10-12T16:41:24Z</time>
      </trkpt>
      <trkpt lat="38.26397077" lon="-2.34833291">
        <ele>1308.0000</ele>
        <time>2018-10-12T16:41:31Z</time>
      </trkpt>
      <trkpt lat="38.26391561" lon="-2.34814650">
        <ele>1309.0000</ele>
        <time>2018-10-12T16:41:39Z</time>
      </trkpt>
      <trkpt lat="38.26386138" lon="-2.34796755">
        <ele>1310.0000</ele>
        <time>2018-10-12T16:41:47Z</time>
      </trkpt>
      <trkpt lat="38.26379986" lon="-2.34774844">
        <ele>1311.0000</ele>
        <time>2018-10-12T16:41:55Z</time>
      </trkpt>
      <trkpt lat="38.26373565" lon="-2.34753906">
        <ele>1312.0000</ele>
        <time>2018-10-12T16:42:02Z</time>
      </trkpt>
      <trkpt lat="38.26371713" lon="-2.34748517">
        <ele>1312.0000</ele>
        <time>2018-10-12T16:42:04Z</time>
      </trkpt>
      <trkpt lat="38.26359878" lon="-2.34724444">
        <ele>1313.0000</ele>
        <time>2018-10-12T16:42:14Z</time>
      </trkpt>
      <trkpt lat="38.26359082" lon="-2.34722969">
        <ele>1313.0000</ele>
        <time>2018-10-12T16:42:15Z</time>
      </trkpt>
      <trkpt lat="38.26348009" lon="-2.34710706">
        <ele>1315.0000</ele>
        <time>2018-10-12T16:42:23Z</time>
      </trkpt>
      <trkpt lat="38.26339392" lon="-2.34697546">
        <ele>1316.0000</ele>
        <time>2018-10-12T16:42:30Z</time>
      </trkpt>
      <trkpt lat="38.26330960" lon="-2.34682861">
        <ele>1317.0000</ele>
        <time>2018-10-12T16:42:37Z</time>
      </trkpt>
      <trkpt lat="38.26329125" lon="-2.34679860">
        <ele>1317.0000</ele>
        <time>2018-10-12T16:42:39Z</time>
      </trkpt>
      <trkpt lat="38.26328169" lon="-2.34675133">
        <ele>1318.0000</ele>
        <time>2018-10-12T16:42:41Z</time>
      </trkpt>
      <trkpt lat="38.26324573" lon="-2.34664027">
        <ele>1319.0000</ele>
        <time>2018-10-12T16:42:46Z</time>
      </trkpt>
      <trkpt lat="38.26319091" lon="-2.34647070">
        <ele>1320.0000</ele>
        <time>2018-10-12T16:42:53Z</time>
      </trkpt>
      <trkpt lat="38.26317834" lon="-2.34645394">
        <ele>1321.0000</ele>
        <time>2018-10-12T16:42:54Z</time>
      </trkpt>
      <trkpt lat="38.26314389" lon="-2.34636677">
        <ele>1321.0000</ele>
        <time>2018-10-12T16:42:58Z</time>
      </trkpt>
      <trkpt lat="38.26310701" lon="-2.34624766">
        <ele>1323.0000</ele>
        <time>2018-10-12T16:43:03Z</time>
      </trkpt>
      <trkpt lat="38.26304683" lon="-2.34614264">
        <ele>1324.0000</ele>
        <time>2018-10-12T16:43:09Z</time>
      </trkpt>
      <trkpt lat="38.26301397" lon="-2.34604105">
        <ele>1325.0000</ele>
        <time>2018-10-12T16:43:14Z</time>
      </trkpt>
      <trkpt lat="38.26293610" lon="-2.34592295">
        <ele>1326.0000</ele>
        <time>2018-10-12T16:43:21Z</time>
      </trkpt>
      <trkpt lat="38.26289135" lon="-2.34581935">
        <ele>1327.0000</ele>
        <time>2018-10-12T16:43:26Z</time>
      </trkpt>
      <trkpt lat="38.26278825" lon="-2.34576201">
        <ele>1328.0000</ele>
        <time>2018-10-12T16:43:33Z</time>
      </trkpt>
      <trkpt lat="38.26277526" lon="-2.34575933">
        <ele>1328.0000</ele>
        <time>2018-10-12T16:43:36Z</time>
      </trkpt>
      <trkpt lat="38.26273293" lon="-2.34577811">
        <ele>1329.0000</ele>
        <time>2018-10-12T16:44:02Z</time>
      </trkpt>
      <trkpt lat="38.26271675" lon="-2.34578875">
        <ele>1329.0000</ele>
        <time>2018-10-12T16:44:05Z</time>
      </trkpt>
      <trkpt lat="38.26269554" lon="-2.34580091">
        <ele>1329.0000</ele>
        <time>2018-10-12T16:44:27Z</time>
      </trkpt>
      <trkpt lat="38.26267937" lon="-2.34580912">
        <ele>1329.0000</ele>
        <time>2018-10-12T16:44:28Z</time>
      </trkpt>
      <trkpt lat="38.26256747" lon="-2.34588590">
        <ele>1329.0000</ele>
        <time>2018-10-12T16:44:32Z</time>
      </trkpt>
      <trkpt lat="38.26243772" lon="-2.34599243">
        <ele>1329.0000</ele>
        <time>2018-10-12T16:44:35Z</time>
      </trkpt>
      <trkpt lat="38.26223714" lon="-2.34615605">
        <ele>1328.0000</ele>
        <time>2018-10-12T16:44:39Z</time>
      </trkpt>
      <trkpt lat="38.26218551" lon="-2.34617373">
        <ele>1328.0000</ele>
        <time>2018-10-12T16:44:40Z</time>
      </trkpt>
      <trkpt lat="38.26213320" lon="-2.34616736">
        <ele>1328.0000</ele>
        <time>2018-10-12T16:44:41Z</time>
      </trkpt>
      <trkpt lat="38.26209071" lon="-2.34612990">
        <ele>1326.0000</ele>
        <time>2018-10-12T16:44:42Z</time>
      </trkpt>
      <trkpt lat="38.26205592" lon="-2.34598170">
        <ele>1325.0000</ele>
        <time>2018-10-12T16:44:44Z</time>
      </trkpt>
      <trkpt lat="38.26206958" lon="-2.34579311">
        <ele>1324.0000</ele>
        <time>2018-10-12T16:44:46Z</time>
      </trkpt>
      <trkpt lat="38.26208224" lon="-2.34569203">
        <ele>1324.0000</ele>
        <time>2018-10-12T16:44:47Z</time>
      </trkpt>
      <trkpt lat="38.26210621" lon="-2.34547711">
        <ele>1323.0000</ele>
        <time>2018-10-12T16:44:49Z</time>
      </trkpt>
      <trkpt lat="38.26211728" lon="-2.34536463">
        <ele>1322.0000</ele>
        <time>2018-10-12T16:44:50Z</time>
      </trkpt>
      <trkpt lat="38.26212683" lon="-2.34524854">
        <ele>1321.0000</ele>
        <time>2018-10-12T16:44:51Z</time>
      </trkpt>
      <trkpt lat="38.26213655" lon="-2.34500597">
        <ele>1319.0000</ele>
        <time>2018-10-12T16:44:53Z</time>
      </trkpt>
      <trkpt lat="38.26213194" lon="-2.34474990">
        <ele>1318.0000</ele>
        <time>2018-10-12T16:44:55Z</time>
      </trkpt>
      <trkpt lat="38.26211552" lon="-2.34448604">
        <ele>1316.0000</ele>
        <time>2018-10-12T16:44:57Z</time>
      </trkpt>
      <trkpt lat="38.26209045" lon="-2.34422293">
        <ele>1315.0000</ele>
        <time>2018-10-12T16:44:59Z</time>
      </trkpt>
      <trkpt lat="38.26206455" lon="-2.34395018">
        <ele>1313.0000</ele>
        <time>2018-10-12T16:45:01Z</time>
      </trkpt>
      <trkpt lat="38.26204477" lon="-2.34368397">
        <ele>1312.0000</ele>
        <time>2018-10-12T16:45:03Z</time>
      </trkpt>
      <trkpt lat="38.26200446" lon="-2.34343595">
        <ele>1311.0000</ele>
        <time>2018-10-12T16:45:05Z</time>
      </trkpt>
      <trkpt lat="38.26191008" lon="-2.34318416">
        <ele>1309.0000</ele>
        <time>2018-10-12T16:45:07Z</time>
      </trkpt>
      <trkpt lat="38.26185241" lon="-2.34305810">
        <ele>1308.0000</ele>
        <time>2018-10-12T16:45:08Z</time>
      </trkpt>
      <trkpt lat="38.26173523" lon="-2.34280765">
        <ele>1307.0000</ele>
        <time>2018-10-12T16:45:10Z</time>
      </trkpt>
      <trkpt lat="38.26163389" lon="-2.34260011">
        <ele>1306.0000</ele>
        <time>2018-10-12T16:45:12Z</time>
      </trkpt>
      <trkpt lat="38.26158410" lon="-2.34250389">
        <ele>1304.0000</ele>
        <time>2018-10-12T16:45:13Z</time>
      </trkpt>
      <trkpt lat="38.26152468" lon="-2.34240791">
        <ele>1303.0000</ele>
        <time>2018-10-12T16:45:14Z</time>
      </trkpt>
      <trkpt lat="38.26145351" lon="-2.34231546">
        <ele>1299.0000</ele>
        <time>2018-10-12T16:45:15Z</time>
      </trkpt>
      <trkpt lat="38.26129468" lon="-2.34213776">
        <ele>1298.0000</ele>
        <time>2018-10-12T16:45:17Z</time>
      </trkpt>
      <trkpt lat="38.26112226" lon="-2.34198538">
        <ele>1297.0000</ele>
        <time>2018-10-12T16:45:19Z</time>
      </trkpt>
      <trkpt lat="38.26080819" lon="-2.34180475">
        <ele>1295.0000</ele>
        <time>2018-10-12T16:45:22Z</time>
      </trkpt>
      <trkpt lat="38.26069445" lon="-2.34174499">
        <ele>1294.0000</ele>
        <time>2018-10-12T16:45:23Z</time>
      </trkpt>
      <trkpt lat="38.26058356" lon="-2.34168539">
        <ele>1292.0000</ele>
        <time>2018-10-12T16:45:24Z</time>
      </trkpt>
      <trkpt lat="38.26047727" lon="-2.34162680">
        <ele>1291.0000</ele>
        <time>2018-10-12T16:45:25Z</time>
      </trkpt>
      <trkpt lat="38.26027309" lon="-2.34149596">
        <ele>1289.0000</ele>
        <time>2018-10-12T16:45:27Z</time>
      </trkpt>
      <trkpt lat="38.26017645" lon="-2.34141667">
        <ele>1288.0000</ele>
        <time>2018-10-12T16:45:28Z</time>
      </trkpt>
      <trkpt lat="38.26008341" lon="-2.34132589">
        <ele>1287.0000</ele>
        <time>2018-10-12T16:45:29Z</time>
      </trkpt>
      <trkpt lat="38.25999448" lon="-2.34122891">
        <ele>1285.0000</ele>
        <time>2018-10-12T16:45:30Z</time>
      </trkpt>
      <trkpt lat="38.25990948" lon="-2.34113043">
        <ele>1283.0000</ele>
        <time>2018-10-12T16:45:31Z</time>
      </trkpt>
      <trkpt lat="38.25982759" lon="-2.34102884">
        <ele>1282.0000</ele>
        <time>2018-10-12T16:45:32Z</time>
      </trkpt>
      <trkpt lat="38.25967881" lon="-2.34081133">
        <ele>1281.0000</ele>
        <time>2018-10-12T16:45:34Z</time>
      </trkpt>
      <trkpt lat="38.25961377" lon="-2.34069381">
        <ele>1280.0000</ele>
        <time>2018-10-12T16:45:35Z</time>
      </trkpt>
      <trkpt lat="38.25955635" lon="-2.34056943">
        <ele>1278.0000</ele>
        <time>2018-10-12T16:45:36Z</time>
      </trkpt>
      <trkpt lat="38.25950807" lon="-2.34043842">
        <ele>1277.0000</ele>
        <time>2018-10-12T16:45:37Z</time>
      </trkpt>
      <trkpt lat="38.25940875" lon="-2.34002267">
        <ele>1276.0000</ele>
        <time>2018-10-12T16:45:40Z</time>
      </trkpt>
      <trkpt lat="38.25936826" lon="-2.33973568">
        <ele>1274.0000</ele>
        <time>2018-10-12T16:45:42Z</time>
      </trkpt>
      <trkpt lat="38.25934966" lon="-2.33942287">
        <ele>1273.0000</ele>
        <time>2018-10-12T16:45:44Z</time>
      </trkpt>
      <trkpt lat="38.25931965" lon="-2.33909119">
        <ele>1272.0000</ele>
        <time>2018-10-12T16:45:46Z</time>
      </trkpt>
      <trkpt lat="38.25928193" lon="-2.33875902">
        <ele>1271.0000</ele>
        <time>2018-10-12T16:45:48Z</time>
      </trkpt>
      <trkpt lat="38.25926818" lon="-2.33860295">
        <ele>1269.0000</ele>
        <time>2018-10-12T16:45:49Z</time>
      </trkpt>
      <trkpt lat="38.25925410" lon="-2.33845417">
        <ele>1268.0000</ele>
        <time>2018-10-12T16:45:50Z</time>
      </trkpt>
      <trkpt lat="38.25923642" lon="-2.33831436">
        <ele>1266.0000</ele>
        <time>2018-10-12T16:45:51Z</time>
      </trkpt>
      <trkpt lat="38.25921823" lon="-2.33818335">
        <ele>1264.0000</ele>
        <time>2018-10-12T16:45:52Z</time>
      </trkpt>
      <trkpt lat="38.25921035" lon="-2.33805511">
        <ele>1262.0000</ele>
        <time>2018-10-12T16:45:53Z</time>
      </trkpt>
      <trkpt lat="38.25922016" lon="-2.33792603">
        <ele>1260.0000</ele>
        <time>2018-10-12T16:45:54Z</time>
      </trkpt>
      <trkpt lat="38.25924622" lon="-2.33779418">
        <ele>1259.0000</ele>
        <time>2018-10-12T16:45:55Z</time>
      </trkpt>
      <trkpt lat="38.25933448" lon="-2.33752110">
        <ele>1258.0000</ele>
        <time>2018-10-12T16:45:57Z</time>
      </trkpt>
      <trkpt lat="38.25948905" lon="-2.33707476">
        <ele>1256.0000</ele>
        <time>2018-10-12T16:46:00Z</time>
      </trkpt>
      <trkpt lat="38.25956985" lon="-2.33678567">
        <ele>1255.0000</ele>
        <time>2018-10-12T16:46:02Z</time>
      </trkpt>
      <trkpt lat="38.25960237" lon="-2.33663571">
        <ele>1254.0000</ele>
        <time>2018-10-12T16:46:03Z</time>
      </trkpt>
      <trkpt lat="38.25962802" lon="-2.33647998">
        <ele>1252.0000</ele>
        <time>2018-10-12T16:46:04Z</time>
      </trkpt>
      <trkpt lat="38.25964830" lon="-2.33632575">
        <ele>1250.0000</ele>
        <time>2018-10-12T16:46:05Z</time>
      </trkpt>
      <trkpt lat="38.25966540" lon="-2.33617815">
        <ele>1248.0000</ele>
        <time>2018-10-12T16:46:06Z</time>
      </trkpt>
      <trkpt lat="38.25968267" lon="-2.33603733">
        <ele>1245.0000</ele>
        <time>2018-10-12T16:46:07Z</time>
      </trkpt>
      <trkpt lat="38.25970404" lon="-2.33590397">
        <ele>1244.0000</ele>
        <time>2018-10-12T16:46:08Z</time>
      </trkpt>
      <trkpt lat="38.25972542" lon="-2.33577179">
        <ele>1242.0000</ele>
        <time>2018-10-12T16:46:09Z</time>
      </trkpt>
      <trkpt lat="38.25974243" lon="-2.33563668">
        <ele>1241.0000</ele>
        <time>2018-10-12T16:46:10Z</time>
      </trkpt>
      <trkpt lat="38.25975324" lon="-2.33549754">
        <ele>1240.0000</ele>
        <time>2018-10-12T16:46:11Z</time>
      </trkpt>
      <trkpt lat="38.25975794" lon="-2.33535454">
        <ele>1238.0000</ele>
        <time>2018-10-12T16:46:12Z</time>
      </trkpt>
      <trkpt lat="38.25975710" lon="-2.33520903">
        <ele>1236.0000</ele>
        <time>2018-10-12T16:46:13Z</time>
      </trkpt>
      <trkpt lat="38.25975417" lon="-2.33506922">
        <ele>1235.0000</ele>
        <time>2018-10-12T16:46:14Z</time>
      </trkpt>
      <trkpt lat="38.25975894" lon="-2.33479907">
        <ele>1234.0000</ele>
        <time>2018-10-12T16:46:16Z</time>
      </trkpt>
      <trkpt lat="38.25978979" lon="-2.33455030">
        <ele>1232.0000</ele>
        <time>2018-10-12T16:46:18Z</time>
      </trkpt>
      <trkpt lat="38.25981259" lon="-2.33444603">
        <ele>1231.0000</ele>
        <time>2018-10-12T16:46:19Z</time>
      </trkpt>
      <trkpt lat="38.25983287" lon="-2.33435642">
        <ele>1229.0000</ele>
        <time>2018-10-12T16:46:20Z</time>
      </trkpt>
      <trkpt lat="38.25984897" lon="-2.33427713">
        <ele>1228.0000</ele>
        <time>2018-10-12T16:46:21Z</time>
      </trkpt>
      <trkpt lat="38.25985827" lon="-2.33419650">
        <ele>1225.0000</ele>
        <time>2018-10-12T16:46:22Z</time>
      </trkpt>
      <trkpt lat="38.25985475" lon="-2.33411586">
        <ele>1224.0000</ele>
        <time>2018-10-12T16:46:23Z</time>
      </trkpt>
      <trkpt lat="38.25984159" lon="-2.33403230">
        <ele>1223.0000</ele>
        <time>2018-10-12T16:46:24Z</time>
      </trkpt>
      <trkpt lat="38.25964252" lon="-2.33379333">
        <ele>1222.0000</ele>
        <time>2018-10-12T16:46:27Z</time>
      </trkpt>
      <trkpt lat="38.25955040" lon="-2.33371529">
        <ele>1222.0000</ele>
        <time>2018-10-12T16:46:28Z</time>
      </trkpt>
      <trkpt lat="38.25947178" lon="-2.33362820">
        <ele>1221.0000</ele>
        <time>2018-10-12T16:46:29Z</time>
      </trkpt>
      <trkpt lat="38.25932049" lon="-2.33346040">
        <ele>1221.0000</ele>
        <time>2018-10-12T16:46:31Z</time>
      </trkpt>
      <trkpt lat="38.25913785" lon="-2.33332956">
        <ele>1218.0000</ele>
        <time>2018-10-12T16:46:33Z</time>
      </trkpt>
      <trkpt lat="38.25903986" lon="-2.33327290">
        <ele>1216.0000</ele>
        <time>2018-10-12T16:46:34Z</time>
      </trkpt>
      <trkpt lat="38.25893986" lon="-2.33321900">
        <ele>1214.0000</ele>
        <time>2018-10-12T16:46:35Z</time>
      </trkpt>
      <trkpt lat="38.25884381" lon="-2.33316066">
        <ele>1212.0000</ele>
        <time>2018-10-12T16:46:36Z</time>
      </trkpt>
      <trkpt lat="38.25875203" lon="-2.33309520">
        <ele>1211.0000</ele>
        <time>2018-10-12T16:46:37Z</time>
      </trkpt>
      <trkpt lat="38.25866527" lon="-2.33301389">
        <ele>1210.0000</ele>
        <time>2018-10-12T16:46:38Z</time>
      </trkpt>
      <trkpt lat="38.25858715" lon="-2.33291516">
        <ele>1209.0000</ele>
        <time>2018-10-12T16:46:39Z</time>
      </trkpt>
      <trkpt lat="38.25851700" lon="-2.33280032">
        <ele>1207.0000</ele>
        <time>2018-10-12T16:46:40Z</time>
      </trkpt>
      <trkpt lat="38.25845204" lon="-2.33267351">
        <ele>1206.0000</ele>
        <time>2018-10-12T16:46:41Z</time>
      </trkpt>
      <trkpt lat="38.25838859" lon="-2.33254099">
        <ele>1205.0000</ele>
        <time>2018-10-12T16:46:42Z</time>
      </trkpt>
      <trkpt lat="38.25826319" lon="-2.33227662">
        <ele>1203.0000</ele>
        <time>2018-10-12T16:46:44Z</time>
      </trkpt>
      <trkpt lat="38.25820343" lon="-2.33214478">
        <ele>1201.0000</ele>
        <time>2018-10-12T16:46:45Z</time>
      </trkpt>
      <trkpt lat="38.25814635" lon="-2.33201201">
        <ele>1200.0000</ele>
        <time>2018-10-12T16:46:46Z</time>
      </trkpt>
      <trkpt lat="38.25809044" lon="-2.33187664">
        <ele>1199.0000</ele>
        <time>2018-10-12T16:46:47Z</time>
      </trkpt>
      <trkpt lat="38.25803739" lon="-2.33174035">
        <ele>1197.0000</ele>
        <time>2018-10-12T16:46:48Z</time>
      </trkpt>
      <trkpt lat="38.25798315" lon="-2.33160607">
        <ele>1196.0000</ele>
        <time>2018-10-12T16:46:49Z</time>
      </trkpt>
      <trkpt lat="38.25792641" lon="-2.33147590">
        <ele>1194.0000</ele>
        <time>2018-10-12T16:46:50Z</time>
      </trkpt>
      <trkpt lat="38.25786162" lon="-2.33135101">
        <ele>1192.0000</ele>
        <time>2018-10-12T16:46:51Z</time>
      </trkpt>
      <trkpt lat="38.25778953" lon="-2.33122888">
        <ele>1191.0000</ele>
        <time>2018-10-12T16:46:52Z</time>
      </trkpt>
      <trkpt lat="38.25771410" lon="-2.33111187">
        <ele>1189.0000</ele>
        <time>2018-10-12T16:46:53Z</time>
      </trkpt>
      <trkpt lat="38.25763966" lon="-2.33100241">
        <ele>1188.0000</ele>
        <time>2018-10-12T16:46:54Z</time>
      </trkpt>
      <trkpt lat="38.25756884" lon="-2.33089679">
        <ele>1186.0000</ele>
        <time>2018-10-12T16:46:55Z</time>
      </trkpt>
      <trkpt lat="38.25750329" lon="-2.33079210">
        <ele>1183.0000</ele>
        <time>2018-10-12T16:46:56Z</time>
      </trkpt>
      <trkpt lat="38.25744638" lon="-2.33068264">
        <ele>1182.0000</ele>
        <time>2018-10-12T16:46:57Z</time>
      </trkpt>
      <trkpt lat="38.25739885" lon="-2.33057292">
        <ele>1181.0000</ele>
        <time>2018-10-12T16:46:58Z</time>
      </trkpt>
      <trkpt lat="38.25735828" lon="-2.33046848">
        <ele>1179.0000</ele>
        <time>2018-10-12T16:46:59Z</time>
      </trkpt>
      <trkpt lat="38.25731646" lon="-2.33036974">
        <ele>1177.0000</ele>
        <time>2018-10-12T16:47:00Z</time>
      </trkpt>
      <trkpt lat="38.25725938" lon="-2.33027896">
        <ele>1176.0000</ele>
        <time>2018-10-12T16:47:01Z</time>
      </trkpt>
      <trkpt lat="38.25709526" lon="-2.33012314">
        <ele>1174.0000</ele>
        <time>2018-10-12T16:47:03Z</time>
      </trkpt>
      <trkpt lat="38.25699501" lon="-2.33005089">
        <ele>1173.0000</ele>
        <time>2018-10-12T16:47:04Z</time>
      </trkpt>
      <trkpt lat="38.25677608" lon="-2.32991603">
        <ele>1171.0000</ele>
        <time>2018-10-12T16:47:06Z</time>
      </trkpt>
      <trkpt lat="38.25654214" lon="-2.32979667">
        <ele>1170.0000</ele>
        <time>2018-10-12T16:47:08Z</time>
      </trkpt>
      <trkpt lat="38.25643326" lon="-2.32974043">
        <ele>1169.0000</ele>
        <time>2018-10-12T16:47:09Z</time>
      </trkpt>
      <trkpt lat="38.25633360" lon="-2.32968804">
        <ele>1167.0000</ele>
        <time>2018-10-12T16:47:10Z</time>
      </trkpt>
      <trkpt lat="38.25624450" lon="-2.32964236">
        <ele>1166.0000</ele>
        <time>2018-10-12T16:47:11Z</time>
      </trkpt>
      <trkpt lat="38.25616520" lon="-2.32959877">
        <ele>1164.0000</ele>
        <time>2018-10-12T16:47:12Z</time>
      </trkpt>
      <trkpt lat="38.25609186" lon="-2.32954882">
        <ele>1162.0000</ele>
        <time>2018-10-12T16:47:13Z</time>
      </trkpt>
      <trkpt lat="38.25602950" lon="-2.32949081">
        <ele>1160.0000</ele>
        <time>2018-10-12T16:47:14Z</time>
      </trkpt>
      <trkpt lat="38.25597644" lon="-2.32941253">
        <ele>1159.0000</ele>
        <time>2018-10-12T16:47:15Z</time>
      </trkpt>
      <trkpt lat="38.25593814" lon="-2.32931907">
        <ele>1157.0000</ele>
        <time>2018-10-12T16:47:16Z</time>
      </trkpt>
      <trkpt lat="38.25591358" lon="-2.32921756">
        <ele>1156.0000</ele>
        <time>2018-10-12T16:47:17Z</time>
      </trkpt>
      <trkpt lat="38.25589254" lon="-2.32910742">
        <ele>1155.0000</ele>
        <time>2018-10-12T16:47:18Z</time>
      </trkpt>
      <trkpt lat="38.25588097" lon="-2.32898840">
        <ele>1155.0000</ele>
        <time>2018-10-12T16:47:19Z</time>
      </trkpt>
      <trkpt lat="38.25586723" lon="-2.32863862">
        <ele>1154.0000</ele>
        <time>2018-10-12T16:47:22Z</time>
      </trkpt>
      <trkpt lat="38.25586186" lon="-2.32840854">
        <ele>1152.0000</ele>
        <time>2018-10-12T16:47:24Z</time>
      </trkpt>
      <trkpt lat="38.25586010" lon="-2.32821618">
        <ele>1151.0000</ele>
        <time>2018-10-12T16:47:26Z</time>
      </trkpt>
      <trkpt lat="38.25586153" lon="-2.32806329">
        <ele>1150.0000</ele>
        <time>2018-10-12T16:47:28Z</time>
      </trkpt>
      <trkpt lat="38.25586278" lon="-2.32800018">
        <ele>1148.0000</ele>
        <time>2018-10-12T16:47:29Z</time>
      </trkpt>
      <trkpt lat="38.25584317" lon="-2.32791074">
        <ele>1148.0000</ele>
        <time>2018-10-12T16:47:31Z</time>
      </trkpt>
      <trkpt lat="38.25573203" lon="-2.32791828">
        <ele>1148.0000</ele>
        <time>2018-10-12T16:47:35Z</time>
      </trkpt>
      <trkpt lat="38.25566254" lon="-2.32798492">
        <ele>1148.0000</ele>
        <time>2018-10-12T16:47:39Z</time>
      </trkpt>
      <trkpt lat="38.25549239" lon="-2.32833445">
        <ele>1149.0000</ele>
        <time>2018-10-12T16:47:51Z</time>
      </trkpt>
      <trkpt lat="38.25547453" lon="-2.32845674">
        <ele>1149.0000</ele>
        <time>2018-10-12T16:47:53Z</time>
      </trkpt>
      <trkpt lat="38.25538124" lon="-2.32917004">
        <ele>1147.0000</ele>
        <time>2018-10-12T16:48:01Z</time>
      </trkpt>
      <trkpt lat="38.25537010" lon="-2.32928227">
        <ele>1146.0000</ele>
        <time>2018-10-12T16:48:02Z</time>
      </trkpt>
      <trkpt lat="38.25534822" lon="-2.32964571">
        <ele>1145.0000</ele>
        <time>2018-10-12T16:48:05Z</time>
      </trkpt>
      <trkpt lat="38.25534218" lon="-2.32990815">
        <ele>1143.0000</ele>
        <time>2018-10-12T16:48:07Z</time>
      </trkpt>
      <trkpt lat="38.25534210" lon="-2.33004393">
        <ele>1142.0000</ele>
        <time>2018-10-12T16:48:08Z</time>
      </trkpt>
      <trkpt lat="38.25533950" lon="-2.33018249">
        <ele>1141.0000</ele>
        <time>2018-10-12T16:48:09Z</time>
      </trkpt>
      <trkpt lat="38.25531888" lon="-2.33046085">
        <ele>1139.0000</ele>
        <time>2018-10-12T16:48:11Z</time>
      </trkpt>
      <trkpt lat="38.25529726" lon="-2.33059857">
        <ele>1138.0000</ele>
        <time>2018-10-12T16:48:12Z</time>
      </trkpt>
      <trkpt lat="38.25523615" lon="-2.33086779">
        <ele>1137.0000</ele>
        <time>2018-10-12T16:48:14Z</time>
      </trkpt>
      <trkpt lat="38.25516348" lon="-2.33113291">
        <ele>1135.0000</ele>
        <time>2018-10-12T16:48:16Z</time>
      </trkpt>
      <trkpt lat="38.25508318" lon="-2.33138898">
        <ele>1133.0000</ele>
        <time>2018-10-12T16:48:18Z</time>
      </trkpt>
      <trkpt lat="38.25495419" lon="-2.33171914">
        <ele>1132.0000</ele>
        <time>2018-10-12T16:48:21Z</time>
      </trkpt>
      <trkpt lat="38.25490683" lon="-2.33180958">
        <ele>1132.0000</ele>
        <time>2018-10-12T16:48:22Z</time>
      </trkpt>
      <trkpt lat="38.25472318" lon="-2.33196130">
        <ele>1131.0000</ele>
        <time>2018-10-12T16:48:25Z</time>
      </trkpt>
      <trkpt lat="38.25452176" lon="-2.33197747">
        <ele>1131.0000</ele>
        <time>2018-10-12T16:48:28Z</time>
      </trkpt>
      <trkpt lat="38.25434633" lon="-2.33196993">
        <ele>1131.0000</ele>
        <time>2018-10-12T16:48:31Z</time>
      </trkpt>
      <trkpt lat="38.25423795" lon="-2.33197286">
        <ele>1131.0000</ele>
        <time>2018-10-12T16:48:33Z</time>
      </trkpt>
      <trkpt lat="38.25418456" lon="-2.33197990">
        <ele>1131.0000</ele>
        <time>2018-10-12T16:48:34Z</time>
      </trkpt>
      <trkpt lat="38.25407962" lon="-2.33200421">
        <ele>1132.0000</ele>
        <time>2018-10-12T16:48:36Z</time>
      </trkpt>
      <trkpt lat="38.25398549" lon="-2.33204855">
        <ele>1133.0000</ele>
        <time>2018-10-12T16:48:38Z</time>
      </trkpt>
      <trkpt lat="38.25394065" lon="-2.33207629">
        <ele>1134.0000</ele>
        <time>2018-10-12T16:48:39Z</time>
      </trkpt>
      <trkpt lat="38.25382305" lon="-2.33217252">
        <ele>1134.0000</ele>
        <time>2018-10-12T16:48:42Z</time>
      </trkpt>
      <trkpt lat="38.25375147" lon="-2.33223597">
        <ele>1135.0000</ele>
        <time>2018-10-12T16:48:44Z</time>
      </trkpt>
      <trkpt lat="38.25371576" lon="-2.33226497">
        <ele>1135.0000</ele>
        <time>2018-10-12T16:48:45Z</time>
      </trkpt>
      <trkpt lat="38.25363789" lon="-2.33231225">
        <ele>1135.0000</ele>
        <time>2018-10-12T16:48:47Z</time>
      </trkpt>
      <trkpt lat="38.25355617" lon="-2.33232825">
        <ele>1136.0000</ele>
        <time>2018-10-12T16:48:49Z</time>
      </trkpt>
      <trkpt lat="38.25323590" lon="-2.33223765">
        <ele>1137.0000</ele>
        <time>2018-10-12T16:48:58Z</time>
      </trkpt>
      <trkpt lat="38.25312475" lon="-2.33216020">
        <ele>1138.0000</ele>
        <time>2018-10-12T16:49:02Z</time>
      </trkpt>
      <trkpt lat="38.25307362" lon="-2.33211628">
        <ele>1138.0000</ele>
        <time>2018-10-12T16:49:04Z</time>
      </trkpt>
      <trkpt lat="38.25295343" lon="-2.33202835">
        <ele>1139.0000</ele>
        <time>2018-10-12T16:49:09Z</time>
      </trkpt>
      <trkpt lat="38.25281873" lon="-2.33190388">
        <ele>1140.0000</ele>
        <time>2018-10-12T16:49:16Z</time>
      </trkpt>
      <trkpt lat="38.25273072" lon="-2.33174873">
        <ele>1141.0000</ele>
        <time>2018-10-12T16:49:22Z</time>
      </trkpt>
      <trkpt lat="38.25268814" lon="-2.33163708">
        <ele>1142.0000</ele>
        <time>2018-10-12T16:49:26Z</time>
      </trkpt>
      <trkpt lat="38.25263810" lon="-2.33148411">
        <ele>1143.0000</ele>
        <time>2018-10-12T16:49:32Z</time>
      </trkpt>
      <trkpt lat="38.25255202" lon="-2.33128990">
        <ele>1144.0000</ele>
        <time>2018-10-12T16:49:40Z</time>
      </trkpt>
      <trkpt lat="38.25248404" lon="-2.33112126">
        <ele>1145.0000</ele>
        <time>2018-10-12T16:49:47Z</time>
      </trkpt>
      <trkpt lat="38.25239880" lon="-2.33095094">
        <ele>1147.0000</ele>
        <time>2018-10-12T16:49:54Z</time>
      </trkpt>
      <trkpt lat="38.25229595" lon="-2.33081423">
        <ele>1148.0000</ele>
        <time>2018-10-12T16:50:00Z</time>
      </trkpt>
      <trkpt lat="38.25192086" lon="-2.33064190">
        <ele>1148.0000</ele>
        <time>2018-10-12T16:50:11Z</time>
      </trkpt>
      <trkpt lat="38.25147125" lon="-2.33049103">
        <ele>1148.0000</ele>
        <time>2018-10-12T16:50:20Z</time>
      </trkpt>
      <trkpt lat="38.25130068" lon="-2.33043302">
        <ele>1148.0000</ele>
        <time>2018-10-12T16:50:23Z</time>
      </trkpt>
      <trkpt lat="38.25085611" lon="-2.33026329">
        <ele>1147.0000</ele>
        <time>2018-10-12T16:50:30Z</time>
      </trkpt>
      <trkpt lat="38.25071303" lon="-2.33020562">
        <ele>1146.0000</ele>
        <time>2018-10-12T16:50:32Z</time>
      </trkpt>
      <trkpt lat="38.25056760" lon="-2.33013706">
        <ele>1146.0000</ele>
        <time>2018-10-12T16:50:34Z</time>
      </trkpt>
      <trkpt lat="38.25049485" lon="-2.33009842">
        <ele>1145.0000</ele>
        <time>2018-10-12T16:50:35Z</time>
      </trkpt>
      <trkpt lat="38.25021397" lon="-2.32991636">
        <ele>1144.0000</ele>
        <time>2018-10-12T16:50:39Z</time>
      </trkpt>
      <trkpt lat="38.24999495" lon="-2.32980145">
        <ele>1143.0000</ele>
        <time>2018-10-12T16:50:42Z</time>
      </trkpt>
      <trkpt lat="38.24961433" lon="-2.32964772">
        <ele>1142.0000</ele>
        <time>2018-10-12T16:50:47Z</time>
      </trkpt>
      <trkpt lat="38.24946538" lon="-2.32958410">
        <ele>1142.0000</ele>
        <time>2018-10-12T16:50:49Z</time>
      </trkpt>
      <trkpt lat="38.24932146" lon="-2.32952023">
        <ele>1141.0000</ele>
        <time>2018-10-12T16:50:51Z</time>
      </trkpt>
      <trkpt lat="38.24911443" lon="-2.32941135">
        <ele>1140.0000</ele>
        <time>2018-10-12T16:50:54Z</time>
      </trkpt>
      <trkpt lat="38.24893162" lon="-2.32927355">
        <ele>1140.0000</ele>
        <time>2018-10-12T16:50:57Z</time>
      </trkpt>
      <trkpt lat="38.24888083" lon="-2.32921748">
        <ele>1139.0000</ele>
        <time>2018-10-12T16:50:58Z</time>
      </trkpt>
      <trkpt lat="38.24879407" lon="-2.32909334">
        <ele>1139.0000</ele>
        <time>2018-10-12T16:51:00Z</time>
      </trkpt>
      <trkpt lat="38.24872425" lon="-2.32896326">
        <ele>1139.0000</ele>
        <time>2018-10-12T16:51:02Z</time>
      </trkpt>
      <trkpt lat="38.24865586" lon="-2.32883677">
        <ele>1139.0000</ele>
        <time>2018-10-12T16:51:04Z</time>
      </trkpt>
      <trkpt lat="38.24862342" lon="-2.32877156">
        <ele>1139.0000</ele>
        <time>2018-10-12T16:51:05Z</time>
      </trkpt>
      <trkpt lat="38.24857505" lon="-2.32862563">
        <ele>1140.0000</ele>
        <time>2018-10-12T16:51:07Z</time>
      </trkpt>
      <trkpt lat="38.24859509" lon="-2.32822305">
        <ele>1140.0000</ele>
        <time>2018-10-12T16:51:12Z</time>
      </trkpt>
      <trkpt lat="38.24860716" lon="-2.32814325">
        <ele>1140.0000</ele>
        <time>2018-10-12T16:51:13Z</time>
      </trkpt>
      <trkpt lat="38.24837272" lon="-2.32782307">
        <ele>1140.0000</ele>
        <time>2018-10-12T16:51:19Z</time>
      </trkpt>
      <trkpt lat="38.24787961" lon="-2.32749232">
        <ele>1139.0000</ele>
        <time>2018-10-12T16:51:27Z</time>
      </trkpt>
      <trkpt lat="38.24776059" lon="-2.32739483">
        <ele>1139.0000</ele>
        <time>2018-10-12T16:51:29Z</time>
      </trkpt>
      <trkpt lat="38.24752271" lon="-2.32717313">
        <ele>1139.0000</ele>
        <time>2018-10-12T16:51:33Z</time>
      </trkpt>
      <trkpt lat="38.24738860" lon="-2.32670173">
        <ele>1138.0000</ele>
        <time>2018-10-12T16:51:38Z</time>
      </trkpt>
      <trkpt lat="38.24739119" lon="-2.32646402">
        <ele>1138.0000</ele>
        <time>2018-10-12T16:51:40Z</time>
      </trkpt>
      <trkpt lat="38.24740955" lon="-2.32593613">
        <ele>1137.0000</ele>
        <time>2018-10-12T16:51:44Z</time>
      </trkpt>
      <trkpt lat="38.24740343" lon="-2.32579381">
        <ele>1136.0000</ele>
        <time>2018-10-12T16:51:45Z</time>
      </trkpt>
      <trkpt lat="38.24738549" lon="-2.32564897">
        <ele>1135.0000</ele>
        <time>2018-10-12T16:51:46Z</time>
      </trkpt>
      <trkpt lat="38.24735423" lon="-2.32550404">
        <ele>1134.0000</ele>
        <time>2018-10-12T16:51:47Z</time>
      </trkpt>
      <trkpt lat="38.24730888" lon="-2.32536071">
        <ele>1133.0000</ele>
        <time>2018-10-12T16:51:48Z</time>
      </trkpt>
      <trkpt lat="38.24725046" lon="-2.32521998">
        <ele>1132.0000</ele>
        <time>2018-10-12T16:51:49Z</time>
      </trkpt>
      <trkpt lat="38.24718198" lon="-2.32508034">
        <ele>1131.0000</ele>
        <time>2018-10-12T16:51:50Z</time>
      </trkpt>
      <trkpt lat="38.24710646" lon="-2.32494179">
        <ele>1129.0000</ele>
        <time>2018-10-12T16:51:51Z</time>
      </trkpt>
      <trkpt lat="38.24702641" lon="-2.32480667">
        <ele>1128.0000</ele>
        <time>2018-10-12T16:51:52Z</time>
      </trkpt>
      <trkpt lat="38.24694804" lon="-2.32467482">
        <ele>1127.0000</ele>
        <time>2018-10-12T16:51:53Z</time>
      </trkpt>
      <trkpt lat="38.24687127" lon="-2.32454440">
        <ele>1126.0000</ele>
        <time>2018-10-12T16:51:54Z</time>
      </trkpt>
      <trkpt lat="38.24679985" lon="-2.32441507">
        <ele>1125.0000</ele>
        <time>2018-10-12T16:51:55Z</time>
      </trkpt>
      <trkpt lat="38.24673757" lon="-2.32428791">
        <ele>1122.0000</ele>
        <time>2018-10-12T16:51:56Z</time>
      </trkpt>
      <trkpt lat="38.24668737" lon="-2.32415783">
        <ele>1121.0000</ele>
        <time>2018-10-12T16:51:57Z</time>
      </trkpt>
      <trkpt lat="38.24664772" lon="-2.32402640">
        <ele>1120.0000</ele>
        <time>2018-10-12T16:51:58Z</time>
      </trkpt>
      <trkpt lat="38.24661796" lon="-2.32389749">
        <ele>1118.0000</ele>
        <time>2018-10-12T16:51:59Z</time>
      </trkpt>
      <trkpt lat="38.24659056" lon="-2.32377863">
        <ele>1117.0000</ele>
        <time>2018-10-12T16:52:00Z</time>
      </trkpt>
      <trkpt lat="38.24655912" lon="-2.32367629">
        <ele>1116.0000</ele>
        <time>2018-10-12T16:52:01Z</time>
      </trkpt>
      <trkpt lat="38.24645678" lon="-2.32353162">
        <ele>1114.0000</ele>
        <time>2018-10-12T16:52:03Z</time>
      </trkpt>
      <trkpt lat="38.24629945" lon="-2.32345651">
        <ele>1113.0000</ele>
        <time>2018-10-12T16:52:05Z</time>
      </trkpt>
      <trkpt lat="38.24592025" lon="-2.32346389">
        <ele>1112.0000</ele>
        <time>2018-10-12T16:52:09Z</time>
      </trkpt>
      <trkpt lat="38.24582143" lon="-2.32348225">
        <ele>1112.0000</ele>
        <time>2018-10-12T16:52:10Z</time>
      </trkpt>
      <trkpt lat="38.24552899" lon="-2.32355441">
        <ele>1110.0000</ele>
        <time>2018-10-12T16:52:13Z</time>
      </trkpt>
      <trkpt lat="38.24543184" lon="-2.32357604">
        <ele>1109.0000</ele>
        <time>2018-10-12T16:52:14Z</time>
      </trkpt>
      <trkpt lat="38.24523948" lon="-2.32361988">
        <ele>1108.0000</ele>
        <time>2018-10-12T16:52:16Z</time>
      </trkpt>
      <trkpt lat="38.24504753" lon="-2.32366288">
        <ele>1107.0000</ele>
        <time>2018-10-12T16:52:18Z</time>
      </trkpt>
      <trkpt lat="38.24476154" lon="-2.32373865">
        <ele>1105.0000</ele>
        <time>2018-10-12T16:52:21Z</time>
      </trkpt>
      <trkpt lat="38.24430255" lon="-2.32394870">
        <ele>1105.0000</ele>
        <time>2018-10-12T16:52:26Z</time>
      </trkpt>
      <trkpt lat="38.24414832" lon="-2.32410318">
        <ele>1104.0000</ele>
        <time>2018-10-12T16:52:28Z</time>
      </trkpt>
      <trkpt lat="38.24408085" lon="-2.32419144">
        <ele>1103.0000</ele>
        <time>2018-10-12T16:52:29Z</time>
      </trkpt>
      <trkpt lat="38.24396207" lon="-2.32437768">
        <ele>1102.0000</ele>
        <time>2018-10-12T16:52:31Z</time>
      </trkpt>
      <trkpt lat="38.24390600" lon="-2.32446905">
        <ele>1102.0000</ele>
        <time>2018-10-12T16:52:32Z</time>
      </trkpt>
      <trkpt lat="38.24373006" lon="-2.32471514">
        <ele>1102.0000</ele>
        <time>2018-10-12T16:52:35Z</time>
      </trkpt>
      <trkpt lat="38.24352730" lon="-2.32489082">
        <ele>1102.0000</ele>
        <time>2018-10-12T16:52:38Z</time>
      </trkpt>
      <trkpt lat="38.24324542" lon="-2.32502921">
        <ele>1102.0000</ele>
        <time>2018-10-12T16:52:42Z</time>
      </trkpt>
      <trkpt lat="38.24302992" lon="-2.32506056">
        <ele>1102.0000</ele>
        <time>2018-10-12T16:52:45Z</time>
      </trkpt>
      <trkpt lat="38.24274268" lon="-2.32506701">
        <ele>1103.0000</ele>
        <time>2018-10-12T16:52:49Z</time>
      </trkpt>
      <trkpt lat="38.24266992" lon="-2.32506911">
        <ele>1103.0000</ele>
        <time>2018-10-12T16:52:50Z</time>
      </trkpt>
      <trkpt lat="38.24230883" lon="-2.32506668">
        <ele>1104.0000</ele>
        <time>2018-10-12T16:52:55Z</time>
      </trkpt>
      <trkpt lat="38.24216491" lon="-2.32506500">
        <ele>1104.0000</ele>
        <time>2018-10-12T16:52:57Z</time>
      </trkpt>
      <trkpt lat="38.24173634" lon="-2.32506852">
        <ele>1104.0000</ele>
        <time>2018-10-12T16:53:03Z</time>
      </trkpt>
      <trkpt lat="38.24127417" lon="-2.32506777">
        <ele>1104.0000</ele>
        <time>2018-10-12T16:53:10Z</time>
      </trkpt>
      <trkpt lat="38.24069414" lon="-2.32506894">
        <ele>1104.0000</ele>
        <time>2018-10-12T16:53:18Z</time>
      </trkpt>
      <trkpt lat="38.24044737" lon="-2.32506324">
        <ele>1103.0000</ele>
        <time>2018-10-12T16:53:21Z</time>
      </trkpt>
      <trkpt lat="38.24036423" lon="-2.32506039">
        <ele>1103.0000</ele>
        <time>2018-10-12T16:53:22Z</time>
      </trkpt>
      <trkpt lat="38.24019550" lon="-2.32504824">
        <ele>1102.0000</ele>
        <time>2018-10-12T16:53:24Z</time>
      </trkpt>
      <trkpt lat="38.23994345" lon="-2.32498914">
        <ele>1101.0000</ele>
        <time>2018-10-12T16:53:27Z</time>
      </trkpt>
      <trkpt lat="38.23986114" lon="-2.32495377">
        <ele>1101.0000</ele>
        <time>2018-10-12T16:53:28Z</time>
      </trkpt>
      <trkpt lat="38.23978101" lon="-2.32490750">
        <ele>1101.0000</ele>
        <time>2018-10-12T16:53:29Z</time>
      </trkpt>
      <trkpt lat="38.23955738" lon="-2.32468999">
        <ele>1100.0000</ele>
        <time>2018-10-12T16:53:32Z</time>
      </trkpt>
      <trkpt lat="38.23942428" lon="-2.32449461">
        <ele>1098.0000</ele>
        <time>2018-10-12T16:53:34Z</time>
      </trkpt>
      <trkpt lat="38.23929696" lon="-2.32427274">
        <ele>1098.0000</ele>
        <time>2018-10-12T16:53:36Z</time>
      </trkpt>
      <trkpt lat="38.23923368" lon="-2.32415573">
        <ele>1097.0000</ele>
        <time>2018-10-12T16:53:37Z</time>
      </trkpt>
      <trkpt lat="38.23909621" lon="-2.32392188">
        <ele>1096.0000</ele>
        <time>2018-10-12T16:53:39Z</time>
      </trkpt>
      <trkpt lat="38.23901583" lon="-2.32381274">
        <ele>1095.0000</ele>
        <time>2018-10-12T16:53:40Z</time>
      </trkpt>
      <trkpt lat="38.23892673" lon="-2.32371166">
        <ele>1093.0000</ele>
        <time>2018-10-12T16:53:41Z</time>
      </trkpt>
      <trkpt lat="38.23883176" lon="-2.32362105">
        <ele>1092.0000</ele>
        <time>2018-10-12T16:53:42Z</time>
      </trkpt>
      <trkpt lat="38.23872565" lon="-2.32354486">
        <ele>1091.0000</ele>
        <time>2018-10-12T16:53:43Z</time>
      </trkpt>
      <trkpt lat="38.23861241" lon="-2.32348727">
        <ele>1090.0000</ele>
        <time>2018-10-12T16:53:44Z</time>
      </trkpt>
      <trkpt lat="38.23849364" lon="-2.32345081">
        <ele>1088.0000</ele>
        <time>2018-10-12T16:53:45Z</time>
      </trkpt>
      <trkpt lat="38.23825023" lon="-2.32343598">
        <ele>1087.0000</ele>
        <time>2018-10-12T16:53:47Z</time>
      </trkpt>
      <trkpt lat="38.23790104" lon="-2.32357629">
        <ele>1086.0000</ele>
        <time>2018-10-12T16:53:50Z</time>
      </trkpt>
      <trkpt lat="38.23770021" lon="-2.32376975">
        <ele>1084.0000</ele>
        <time>2018-10-12T16:53:52Z</time>
      </trkpt>
      <trkpt lat="38.23754489" lon="-2.32402330">
        <ele>1083.0000</ele>
        <time>2018-10-12T16:53:54Z</time>
      </trkpt>
      <trkpt lat="38.23740290" lon="-2.32446787">
        <ele>1082.0000</ele>
        <time>2018-10-12T16:53:57Z</time>
      </trkpt>
      <trkpt lat="38.23737080" lon="-2.32462109">
        <ele>1081.0000</ele>
        <time>2018-10-12T16:53:58Z</time>
      </trkpt>
      <trkpt lat="38.23729394" lon="-2.32492033">
        <ele>1080.0000</ele>
        <time>2018-10-12T16:54:00Z</time>
      </trkpt>
      <trkpt lat="38.23724339" lon="-2.32506031">
        <ele>1080.0000</ele>
        <time>2018-10-12T16:54:01Z</time>
      </trkpt>
      <trkpt lat="38.23718229" lon="-2.32518981">
        <ele>1079.0000</ele>
        <time>2018-10-12T16:54:02Z</time>
      </trkpt>
      <trkpt lat="38.23703007" lon="-2.32540623">
        <ele>1078.0000</ele>
        <time>2018-10-12T16:54:04Z</time>
      </trkpt>
      <trkpt lat="38.23647603" lon="-2.32569373">
        <ele>1077.0000</ele>
        <time>2018-10-12T16:54:10Z</time>
      </trkpt>
      <trkpt lat="38.23614612" lon="-2.32575098">
        <ele>1077.0000</ele>
        <time>2018-10-12T16:54:14Z</time>
      </trkpt>
      <trkpt lat="38.23607169" lon="-2.32576380">
        <ele>1077.0000</ele>
        <time>2018-10-12T16:54:15Z</time>
      </trkpt>
      <trkpt lat="38.23593498" lon="-2.32579087">
        <ele>1077.0000</ele>
        <time>2018-10-12T16:54:17Z</time>
      </trkpt>
      <trkpt lat="38.23575200" lon="-2.32582155">
        <ele>1079.0000</ele>
        <time>2018-10-12T16:54:20Z</time>
      </trkpt>
      <trkpt lat="38.23559182" lon="-2.32585030">
        <ele>1080.0000</ele>
        <time>2018-10-12T16:54:23Z</time>
      </trkpt>
      <trkpt lat="38.23549736" lon="-2.32586723">
        <ele>1082.0000</ele>
        <time>2018-10-12T16:54:25Z</time>
      </trkpt>
      <trkpt lat="38.23540776" lon="-2.32588567">
        <ele>1083.0000</ele>
        <time>2018-10-12T16:54:27Z</time>
      </trkpt>
      <trkpt lat="38.23528370" lon="-2.32590721">
        <ele>1084.0000</ele>
        <time>2018-10-12T16:54:30Z</time>
      </trkpt>
      <trkpt lat="38.23519544" lon="-2.32592029">
        <ele>1085.0000</ele>
        <time>2018-10-12T16:54:32Z</time>
      </trkpt>
      <trkpt lat="38.23514917" lon="-2.32592834">
        <ele>1085.0000</ele>
        <time>2018-10-12T16:54:33Z</time>
      </trkpt>
      <trkpt lat="38.23500056" lon="-2.32595365">
        <ele>1086.0000</ele>
        <time>2018-10-12T16:54:36Z</time>
      </trkpt>
      <trkpt lat="38.23495069" lon="-2.32596036">
        <ele>1087.0000</ele>
        <time>2018-10-12T16:54:37Z</time>
      </trkpt>
      <trkpt lat="38.23481432" lon="-2.32598617">
        <ele>1087.0000</ele>
        <time>2018-10-12T16:54:40Z</time>
      </trkpt>
      <trkpt lat="38.23464106" lon="-2.32600914">
        <ele>1088.0000</ele>
        <time>2018-10-12T16:54:44Z</time>
      </trkpt>
      <trkpt lat="38.23451106" lon="-2.32603185">
        <ele>1089.0000</ele>
        <time>2018-10-12T16:54:47Z</time>
      </trkpt>
      <trkpt lat="38.23423312" lon="-2.32608550">
        <ele>1090.0000</ele>
        <time>2018-10-12T16:54:53Z</time>
      </trkpt>
      <trkpt lat="38.23394947" lon="-2.32612229">
        <ele>1090.0000</ele>
        <time>2018-10-12T16:54:59Z</time>
      </trkpt>
      <trkpt lat="38.23374998" lon="-2.32616848">
        <ele>1090.0000</ele>
        <time>2018-10-12T16:55:03Z</time>
      </trkpt>
      <trkpt lat="38.23358084" lon="-2.32620083">
        <ele>1089.0000</ele>
        <time>2018-10-12T16:55:06Z</time>
      </trkpt>
      <trkpt lat="38.23338738" lon="-2.32623210">
        <ele>1089.0000</ele>
        <time>2018-10-12T16:55:09Z</time>
      </trkpt>
      <trkpt lat="38.23316392" lon="-2.32628323">
        <ele>1089.0000</ele>
        <time>2018-10-12T16:55:12Z</time>
      </trkpt>
      <trkpt lat="38.23291137" lon="-2.32636931">
        <ele>1088.0000</ele>
        <time>2018-10-12T16:55:15Z</time>
      </trkpt>
      <trkpt lat="38.23263469" lon="-2.32650292">
        <ele>1086.0000</ele>
        <time>2018-10-12T16:55:18Z</time>
      </trkpt>
      <trkpt lat="38.23254081" lon="-2.32656218">
        <ele>1085.0000</ele>
        <time>2018-10-12T16:55:19Z</time>
      </trkpt>
      <trkpt lat="38.23244676" lon="-2.32662839">
        <ele>1084.0000</ele>
        <time>2018-10-12T16:55:20Z</time>
      </trkpt>
      <trkpt lat="38.23235188" lon="-2.32670031">
        <ele>1083.0000</ele>
        <time>2018-10-12T16:55:21Z</time>
      </trkpt>
      <trkpt lat="38.23216094" lon="-2.32685705">
        <ele>1082.0000</ele>
        <time>2018-10-12T16:55:23Z</time>
      </trkpt>
      <trkpt lat="38.23196564" lon="-2.32702838">
        <ele>1080.0000</ele>
        <time>2018-10-12T16:55:25Z</time>
      </trkpt>
      <trkpt lat="38.23186640" lon="-2.32711630">
        <ele>1079.0000</ele>
        <time>2018-10-12T16:55:26Z</time>
      </trkpt>
      <trkpt lat="38.23176481" lon="-2.32720381">
        <ele>1078.0000</ele>
        <time>2018-10-12T16:55:27Z</time>
      </trkpt>
      <trkpt lat="38.23155200" lon="-2.32737078">
        <ele>1076.0000</ele>
        <time>2018-10-12T16:55:29Z</time>
      </trkpt>
      <trkpt lat="38.23144244" lon="-2.32745091">
        <ele>1075.0000</ele>
        <time>2018-10-12T16:55:30Z</time>
      </trkpt>
      <trkpt lat="38.23132879" lon="-2.32752542">
        <ele>1074.0000</ele>
        <time>2018-10-12T16:55:31Z</time>
      </trkpt>
      <trkpt lat="38.23121018" lon="-2.32759047">
        <ele>1073.0000</ele>
        <time>2018-10-12T16:55:32Z</time>
      </trkpt>
      <trkpt lat="38.23108722" lon="-2.32764638">
        <ele>1072.0000</ele>
        <time>2018-10-12T16:55:33Z</time>
      </trkpt>
      <trkpt lat="38.23083031" lon="-2.32772927">
        <ele>1070.0000</ele>
        <time>2018-10-12T16:55:35Z</time>
      </trkpt>
      <trkpt lat="38.23056193" lon="-2.32776381">
        <ele>1068.0000</ele>
        <time>2018-10-12T16:55:37Z</time>
      </trkpt>
      <trkpt lat="38.23029035" lon="-2.32774855">
        <ele>1067.0000</ele>
        <time>2018-10-12T16:55:39Z</time>
      </trkpt>
      <trkpt lat="38.23001970" lon="-2.32767705">
        <ele>1065.0000</ele>
        <time>2018-10-12T16:55:41Z</time>
      </trkpt>
      <trkpt lat="38.22975785" lon="-2.32756524">
        <ele>1063.0000</ele>
        <time>2018-10-12T16:55:43Z</time>
      </trkpt>
      <trkpt lat="38.22963137" lon="-2.32750246">
        <ele>1062.0000</ele>
        <time>2018-10-12T16:55:44Z</time>
      </trkpt>
      <trkpt lat="38.22939081" lon="-2.32737254">
        <ele>1060.0000</ele>
        <time>2018-10-12T16:55:46Z</time>
      </trkpt>
      <trkpt lat="38.22917665" lon="-2.32723139">
        <ele>1059.0000</ele>
        <time>2018-10-12T16:55:48Z</time>
      </trkpt>
      <trkpt lat="38.22908386" lon="-2.32715201">
        <ele>1059.0000</ele>
        <time>2018-10-12T16:55:49Z</time>
      </trkpt>
      <trkpt lat="38.22877214" lon="-2.32659445">
        <ele>1058.0000</ele>
        <time>2018-10-12T16:55:55Z</time>
      </trkpt>
      <trkpt lat="38.22874515" lon="-2.32642765">
        <ele>1060.0000</ele>
        <time>2018-10-12T16:55:57Z</time>
      </trkpt>
      <trkpt lat="38.22874205" lon="-2.32635322">
        <ele>1061.0000</ele>
        <time>2018-10-12T16:55:58Z</time>
      </trkpt>
      <trkpt lat="38.22874188" lon="-2.32628432">
        <ele>1062.0000</ele>
        <time>2018-10-12T16:55:59Z</time>
      </trkpt>
      <trkpt lat="38.22874289" lon="-2.32622195">
        <ele>1063.0000</ele>
        <time>2018-10-12T16:56:00Z</time>
      </trkpt>
      <trkpt lat="38.22875202" lon="-2.32610905">
        <ele>1065.0000</ele>
        <time>2018-10-12T16:56:02Z</time>
      </trkpt>
      <trkpt lat="38.22876694" lon="-2.32599900">
        <ele>1065.0000</ele>
        <time>2018-10-12T16:56:04Z</time>
      </trkpt>
      <trkpt lat="38.22877792" lon="-2.32594569">
        <ele>1066.0000</ele>
        <time>2018-10-12T16:56:05Z</time>
      </trkpt>
      <trkpt lat="38.22880692" lon="-2.32585013">
        <ele>1067.0000</ele>
        <time>2018-10-12T16:56:07Z</time>
      </trkpt>
      <trkpt lat="38.22884003" lon="-2.32576749">
        <ele>1069.0000</ele>
        <time>2018-10-12T16:56:09Z</time>
      </trkpt>
      <trkpt lat="38.22887817" lon="-2.32567889">
        <ele>1070.0000</ele>
        <time>2018-10-12T16:56:11Z</time>
      </trkpt>
      <trkpt lat="38.22891731" lon="-2.32559038">
        <ele>1071.0000</ele>
        <time>2018-10-12T16:56:13Z</time>
      </trkpt>
      <trkpt lat="38.22895620" lon="-2.32550597">
        <ele>1072.0000</ele>
        <time>2018-10-12T16:56:15Z</time>
      </trkpt>
      <trkpt lat="38.22901362" lon="-2.32537899">
        <ele>1073.0000</ele>
        <time>2018-10-12T16:56:18Z</time>
      </trkpt>
      <trkpt lat="38.22903851" lon="-2.32533624">
        <ele>1074.0000</ele>
        <time>2018-10-12T16:56:19Z</time>
      </trkpt>
      <trkpt lat="38.22911630" lon="-2.32521160">
        <ele>1075.0000</ele>
        <time>2018-10-12T16:56:22Z</time>
      </trkpt>
      <trkpt lat="38.22920573" lon="-2.32505603">
        <ele>1076.0000</ele>
        <time>2018-10-12T16:56:26Z</time>
      </trkpt>
      <trkpt lat="38.22922308" lon="-2.32502074">
        <ele>1076.0000</ele>
        <time>2018-10-12T16:56:27Z</time>
      </trkpt>
      <trkpt lat="38.22929425" lon="-2.32490046">
        <ele>1077.0000</ele>
        <time>2018-10-12T16:56:31Z</time>
      </trkpt>
      <trkpt lat="38.22936072" lon="-2.32474749">
        <ele>1078.0000</ele>
        <time>2018-10-12T16:56:36Z</time>
      </trkpt>
      <trkpt lat="38.22942148" lon="-2.32459209">
        <ele>1079.0000</ele>
        <time>2018-10-12T16:56:41Z</time>
      </trkpt>
      <trkpt lat="38.22950405" lon="-2.32434432">
        <ele>1080.0000</ele>
        <time>2018-10-12T16:56:49Z</time>
      </trkpt>
      <trkpt lat="38.22954118" lon="-2.32412380">
        <ele>1081.0000</ele>
        <time>2018-10-12T16:56:56Z</time>
      </trkpt>
      <trkpt lat="38.22955953" lon="-2.32390109">
        <ele>1083.0000</ele>
        <time>2018-10-12T16:57:03Z</time>
      </trkpt>
      <trkpt lat="38.22958015" lon="-2.32370512">
        <ele>1084.0000</ele>
        <time>2018-10-12T16:57:09Z</time>
      </trkpt>
      <trkpt lat="38.22959382" lon="-2.32344411">
        <ele>1085.0000</ele>
        <time>2018-10-12T16:57:17Z</time>
      </trkpt>
      <trkpt lat="38.22962072" lon="-2.32322249">
        <ele>1086.0000</ele>
        <time>2018-10-12T16:57:24Z</time>
      </trkpt>
      <trkpt lat="38.22963338" lon="-2.32303440">
        <ele>1087.0000</ele>
        <time>2018-10-12T16:57:30Z</time>
      </trkpt>
      <trkpt lat="38.22963883" lon="-2.32281773">
        <ele>1088.0000</ele>
        <time>2018-10-12T16:57:37Z</time>
      </trkpt>
      <trkpt lat="38.22963883" lon="-2.32266099">
        <ele>1089.0000</ele>
        <time>2018-10-12T16:57:42Z</time>
      </trkpt>
      <trkpt lat="38.22959155" lon="-2.32244566">
        <ele>1090.0000</ele>
        <time>2018-10-12T16:57:49Z</time>
      </trkpt>
      <trkpt lat="38.22951100" lon="-2.32224365">
        <ele>1091.0000</ele>
        <time>2018-10-12T16:57:56Z</time>
      </trkpt>
      <trkpt lat="38.22936340" lon="-2.32204634">
        <ele>1093.0000</ele>
        <time>2018-10-12T16:58:04Z</time>
      </trkpt>
      <trkpt lat="38.22920112" lon="-2.32191458">
        <ele>1094.0000</ele>
        <time>2018-10-12T16:58:11Z</time>
      </trkpt>
      <trkpt lat="38.22894640" lon="-2.32182129">
        <ele>1095.0000</ele>
        <time>2018-10-12T16:58:20Z</time>
      </trkpt>
      <trkpt lat="38.22867868" lon="-2.32179815">
        <ele>1096.0000</ele>
        <time>2018-10-12T16:58:28Z</time>
      </trkpt>
      <trkpt lat="38.22824123" lon="-2.32172523">
        <ele>1097.0000</ele>
        <time>2018-10-12T16:58:40Z</time>
      </trkpt>
      <trkpt lat="38.22778978" lon="-2.32131066">
        <ele>1098.0000</ele>
        <time>2018-10-12T16:58:54Z</time>
      </trkpt>
      <trkpt lat="38.22764586" lon="-2.32097078">
        <ele>1098.0000</ele>
        <time>2018-10-12T16:59:02Z</time>
      </trkpt>
      <trkpt lat="38.22756716" lon="-2.32066241">
        <ele>1099.0000</ele>
        <time>2018-10-12T16:59:09Z</time>
      </trkpt>
      <trkpt lat="38.22747529" lon="-2.32030752">
        <ele>1100.0000</ele>
        <time>2018-10-12T16:59:17Z</time>
      </trkpt>
      <trkpt lat="38.22737135" lon="-2.32005866">
        <ele>1101.0000</ele>
        <time>2018-10-12T16:59:23Z</time>
      </trkpt>
      <trkpt lat="38.22713222" lon="-2.31977803">
        <ele>1103.0000</ele>
        <time>2018-10-12T16:59:31Z</time>
      </trkpt>
      <trkpt lat="38.22668504" lon="-2.31965054">
        <ele>1103.0000</ele>
        <time>2018-10-12T16:59:41Z</time>
      </trkpt>
      <trkpt lat="38.22614475" lon="-2.31978742">
        <ele>1103.0000</ele>
        <time>2018-10-12T16:59:51Z</time>
      </trkpt>
      <trkpt lat="38.22586680" lon="-2.31987895">
        <ele>1104.0000</ele>
        <time>2018-10-12T16:59:56Z</time>
      </trkpt>
      <trkpt lat="38.22530966" lon="-2.32005254">
        <ele>1104.0000</ele>
        <time>2018-10-12T17:00:06Z</time>
      </trkpt>
      <trkpt lat="38.22474740" lon="-2.32020308">
        <ele>1105.0000</ele>
        <time>2018-10-12T17:00:16Z</time>
      </trkpt>
      <trkpt lat="38.22444347" lon="-2.32018464">
        <ele>1105.0000</ele>
        <time>2018-10-12T17:00:21Z</time>
      </trkpt>
      <trkpt lat="38.22397744" lon="-2.31977149">
        <ele>1104.0000</ele>
        <time>2018-10-12T17:00:29Z</time>
      </trkpt>
      <trkpt lat="38.22389823" lon="-2.31958961">
        <ele>1104.0000</ele>
        <time>2018-10-12T17:00:31Z</time>
      </trkpt>
      <trkpt lat="38.22383427" lon="-2.31939012">
        <ele>1104.0000</ele>
        <time>2018-10-12T17:00:33Z</time>
      </trkpt>
      <trkpt lat="38.22374165" lon="-2.31907311">
        <ele>1102.0000</ele>
        <time>2018-10-12T17:00:36Z</time>
      </trkpt>
      <trkpt lat="38.22361241" lon="-2.31862636">
        <ele>1101.0000</ele>
        <time>2018-10-12T17:00:40Z</time>
      </trkpt>
      <trkpt lat="38.22347737" lon="-2.31816577">
        <ele>1100.0000</ele>
        <time>2018-10-12T17:00:44Z</time>
      </trkpt>
      <trkpt lat="38.22334863" lon="-2.31783234">
        <ele>1099.0000</ele>
        <time>2018-10-12T17:00:47Z</time>
      </trkpt>
      <trkpt lat="38.22322374" lon="-2.31763981">
        <ele>1098.0000</ele>
        <time>2018-10-12T17:00:49Z</time>
      </trkpt>
      <trkpt lat="38.22314838" lon="-2.31756010">
        <ele>1097.0000</ele>
        <time>2018-10-12T17:00:50Z</time>
      </trkpt>
      <trkpt lat="38.22268604" lon="-2.31737310">
        <ele>1096.0000</ele>
        <time>2018-10-12T17:00:55Z</time>
      </trkpt>
      <trkpt lat="38.22248630" lon="-2.31737695">
        <ele>1096.0000</ele>
        <time>2018-10-12T17:00:57Z</time>
      </trkpt>
      <trkpt lat="38.22228563" lon="-2.31738584">
        <ele>1095.0000</ele>
        <time>2018-10-12T17:00:59Z</time>
      </trkpt>
      <trkpt lat="38.22218530" lon="-2.31737980">
        <ele>1095.0000</ele>
        <time>2018-10-12T17:01:00Z</time>
      </trkpt>
      <trkpt lat="38.22180049" lon="-2.31722021">
        <ele>1094.0000</ele>
        <time>2018-10-12T17:01:04Z</time>
      </trkpt>
      <trkpt lat="38.22163956" lon="-2.31704897">
        <ele>1093.0000</ele>
        <time>2018-10-12T17:01:06Z</time>
      </trkpt>
      <trkpt lat="38.22152095" lon="-2.31682014">
        <ele>1091.0000</ele>
        <time>2018-10-12T17:01:08Z</time>
      </trkpt>
      <trkpt lat="38.22145474" lon="-2.31655284">
        <ele>1090.0000</ele>
        <time>2018-10-12T17:01:10Z</time>
      </trkpt>
      <trkpt lat="38.22144786" lon="-2.31612981">
        <ele>1089.0000</ele>
        <time>2018-10-12T17:01:13Z</time>
      </trkpt>
      <trkpt lat="38.22146647" lon="-2.31585044">
        <ele>1088.0000</ele>
        <time>2018-10-12T17:01:15Z</time>
      </trkpt>
      <trkpt lat="38.22147837" lon="-2.31558096">
        <ele>1086.0000</ele>
        <time>2018-10-12T17:01:17Z</time>
      </trkpt>
      <trkpt lat="38.22147955" lon="-2.31520629">
        <ele>1085.0000</ele>
        <time>2018-10-12T17:01:20Z</time>
      </trkpt>
      <trkpt lat="38.22145205" lon="-2.31486741">
        <ele>1085.0000</ele>
        <time>2018-10-12T17:01:23Z</time>
      </trkpt>
      <trkpt lat="38.22141760" lon="-2.31465459">
        <ele>1085.0000</ele>
        <time>2018-10-12T17:01:25Z</time>
      </trkpt>
      <trkpt lat="38.22122038" lon="-2.31399527">
        <ele>1086.0000</ele>
        <time>2018-10-12T17:01:32Z</time>
      </trkpt>
      <trkpt lat="38.22110538" lon="-2.31374692">
        <ele>1087.0000</ele>
        <time>2018-10-12T17:01:35Z</time>
      </trkpt>
      <trkpt lat="38.22106297" lon="-2.31367014">
        <ele>1087.0000</ele>
        <time>2018-10-12T17:01:36Z</time>
      </trkpt>
      <trkpt lat="38.22083590" lon="-2.31331391">
        <ele>1089.0000</ele>
        <time>2018-10-12T17:01:41Z</time>
      </trkpt>
      <trkpt lat="38.22069064" lon="-2.31313143">
        <ele>1089.0000</ele>
        <time>2018-10-12T17:01:44Z</time>
      </trkpt>
      <trkpt lat="38.22030885" lon="-2.31268870">
        <ele>1090.0000</ele>
        <time>2018-10-12T17:01:52Z</time>
      </trkpt>
      <trkpt lat="38.21993845" lon="-2.31228402">
        <ele>1091.0000</ele>
        <time>2018-10-12T17:02:00Z</time>
      </trkpt>
      <trkpt lat="38.21989084" lon="-2.31223658">
        <ele>1091.0000</ele>
        <time>2018-10-12T17:02:01Z</time>
      </trkpt>
      <trkpt lat="38.21959027" lon="-2.31199066">
        <ele>1092.0000</ele>
        <time>2018-10-12T17:02:07Z</time>
      </trkpt>
      <trkpt lat="38.21905902" lon="-2.31175621">
        <ele>1093.0000</ele>
        <time>2018-10-12T17:02:18Z</time>
      </trkpt>
      <trkpt lat="38.21886062" lon="-2.31169662">
        <ele>1094.0000</ele>
        <time>2018-10-12T17:02:22Z</time>
      </trkpt>
      <trkpt lat="38.21875409" lon="-2.31166971">
        <ele>1094.0000</ele>
        <time>2018-10-12T17:02:24Z</time>
      </trkpt>
      <trkpt lat="38.21856097" lon="-2.31161825">
        <ele>1094.0000</ele>
        <time>2018-10-12T17:02:28Z</time>
      </trkpt>
      <trkpt lat="38.21839090" lon="-2.31156863">
        <ele>1095.0000</ele>
        <time>2018-10-12T17:02:32Z</time>
      </trkpt>
      <trkpt lat="38.21827548" lon="-2.31153728">
        <ele>1096.0000</ele>
        <time>2018-10-12T17:02:35Z</time>
      </trkpt>
      <trkpt lat="38.21816987" lon="-2.31150736">
        <ele>1097.0000</ele>
        <time>2018-10-12T17:02:38Z</time>
      </trkpt>
      <trkpt lat="38.21800885" lon="-2.31145807">
        <ele>1098.0000</ele>
        <time>2018-10-12T17:02:43Z</time>
      </trkpt>
      <trkpt lat="38.21785672" lon="-2.31141650">
        <ele>1099.0000</ele>
        <time>2018-10-12T17:02:48Z</time>
      </trkpt>
      <trkpt lat="38.21762588" lon="-2.31135254">
        <ele>1101.0000</ele>
        <time>2018-10-12T17:02:56Z</time>
      </trkpt>
      <trkpt lat="38.21742950" lon="-2.31130426">
        <ele>1102.0000</ele>
        <time>2018-10-12T17:03:03Z</time>
      </trkpt>
      <trkpt lat="38.21723403" lon="-2.31128549">
        <ele>1102.0000</ele>
        <time>2018-10-12T17:03:10Z</time>
      </trkpt>
      <trkpt lat="38.21717485" lon="-2.31128775">
        <ele>1103.0000</ele>
        <time>2018-10-12T17:03:12Z</time>
      </trkpt>
      <trkpt lat="38.21698307" lon="-2.31132924">
        <ele>1104.0000</ele>
        <time>2018-10-12T17:03:19Z</time>
      </trkpt>
      <trkpt lat="38.21685550" lon="-2.31137886">
        <ele>1105.0000</ele>
        <time>2018-10-12T17:03:24Z</time>
      </trkpt>
      <trkpt lat="38.21672047" lon="-2.31145396">
        <ele>1106.0000</ele>
        <time>2018-10-12T17:03:30Z</time>
      </trkpt>
      <trkpt lat="38.21659365" lon="-2.31154482">
        <ele>1107.0000</ele>
        <time>2018-10-12T17:03:36Z</time>
      </trkpt>
      <trkpt lat="38.21645937" lon="-2.31162361">
        <ele>1108.0000</ele>
        <time>2018-10-12T17:03:42Z</time>
      </trkpt>
      <trkpt lat="38.21633826" lon="-2.31171439">
        <ele>1109.0000</ele>
        <time>2018-10-12T17:03:48Z</time>
      </trkpt>
      <trkpt lat="38.21616374" lon="-2.31177742">
        <ele>1110.0000</ele>
        <time>2018-10-12T17:03:56Z</time>
      </trkpt>
      <trkpt lat="38.21610574" lon="-2.31180944">
        <ele>1111.0000</ele>
        <time>2018-10-12T17:03:59Z</time>
      </trkpt>
      <trkpt lat="38.21601203" lon="-2.31179427">
        <ele>1112.0000</ele>
        <time>2018-10-12T17:04:03Z</time>
      </trkpt>
      <trkpt lat="38.21587398" lon="-2.31180877">
        <ele>1113.0000</ele>
        <time>2018-10-12T17:04:09Z</time>
      </trkpt>
      <trkpt lat="38.21574783" lon="-2.31174590">
        <ele>1114.0000</ele>
        <time>2018-10-12T17:04:15Z</time>
      </trkpt>
      <trkpt lat="38.21566443" lon="-2.31172696">
        <ele>1114.0000</ele>
        <time>2018-10-12T17:04:19Z</time>
      </trkpt>
      <trkpt lat="38.21559252" lon="-2.31165924">
        <ele>1115.0000</ele>
        <time>2018-10-12T17:04:23Z</time>
      </trkpt>
      <trkpt lat="38.21557248" lon="-2.31165111">
        <ele>1115.0000</ele>
        <time>2018-10-12T17:04:24Z</time>
      </trkpt>
      <trkpt lat="38.21547140" lon="-2.31153191">
        <ele>1116.0000</ele>
        <time>2018-10-12T17:04:30Z</time>
      </trkpt>
      <trkpt lat="38.21529638" lon="-2.31132010">
        <ele>1117.0000</ele>
        <time>2018-10-12T17:04:39Z</time>
      </trkpt>
      <trkpt lat="38.21524978" lon="-2.31122011">
        <ele>1118.0000</ele>
        <time>2018-10-12T17:04:43Z</time>
      </trkpt>
      <trkpt lat="38.21523704" lon="-2.31119790">
        <ele>1118.0000</ele>
        <time>2018-10-12T17:04:44Z</time>
      </trkpt>
      <trkpt lat="38.21514350" lon="-2.31105498">
        <ele>1119.0000</ele>
        <time>2018-10-12T17:04:51Z</time>
      </trkpt>
      <trkpt lat="38.21509706" lon="-2.31100511">
        <ele>1120.0000</ele>
        <time>2018-10-12T17:04:54Z</time>
      </trkpt>
      <trkpt lat="38.21506672" lon="-2.31093797">
        <ele>1120.0000</ele>
        <time>2018-10-12T17:04:57Z</time>
      </trkpt>
      <trkpt lat="38.21495700" lon="-2.31080965">
        <ele>1121.0000</ele>
        <time>2018-10-12T17:05:04Z</time>
      </trkpt>
      <trkpt lat="38.21491266" lon="-2.31075751">
        <ele>1122.0000</ele>
        <time>2018-10-12T17:05:07Z</time>
      </trkpt>
      <trkpt lat="38.21484980" lon="-2.31070496">
        <ele>1122.0000</ele>
        <time>2018-10-12T17:05:11Z</time>
      </trkpt>
      <trkpt lat="38.21474125" lon="-2.31060840">
        <ele>1124.0000</ele>
        <time>2018-10-12T17:05:18Z</time>
      </trkpt>
      <trkpt lat="38.21472491" lon="-2.31059163">
        <ele>1124.0000</ele>
        <time>2018-10-12T17:05:19Z</time>
      </trkpt>
      <trkpt lat="38.21457328" lon="-2.31049105">
        <ele>1125.0000</ele>
        <time>2018-10-12T17:05:28Z</time>
      </trkpt>
      <trkpt lat="38.21444487" lon="-2.31042567">
        <ele>1126.0000</ele>
        <time>2018-10-12T17:05:36Z</time>
      </trkpt>
      <trkpt lat="38.21426047" lon="-2.31036985">
        <ele>1127.0000</ele>
        <time>2018-10-12T17:05:47Z</time>
      </trkpt>
      <trkpt lat="38.21419785" lon="-2.31034663">
        <ele>1127.0000</ele>
        <time>2018-10-12T17:05:51Z</time>
      </trkpt>
      <trkpt lat="38.21411462" lon="-2.31033883">
        <ele>1128.0000</ele>
        <time>2018-10-12T17:05:56Z</time>
      </trkpt>
      <trkpt lat="38.21409786" lon="-2.31033666">
        <ele>1128.0000</ele>
        <time>2018-10-12T17:05:57Z</time>
      </trkpt>
      <trkpt lat="38.21392837" lon="-2.31032090">
        <ele>1129.0000</ele>
        <time>2018-10-12T17:06:07Z</time>
      </trkpt>
      <trkpt lat="38.21381086" lon="-2.31031017">
        <ele>1130.0000</ele>
        <time>2018-10-12T17:06:14Z</time>
      </trkpt>
      <trkpt lat="38.21369150" lon="-2.31029734">
        <ele>1131.0000</ele>
        <time>2018-10-12T17:06:21Z</time>
      </trkpt>
      <trkpt lat="38.21364364" lon="-2.31028301">
        <ele>1132.0000</ele>
        <time>2018-10-12T17:06:24Z</time>
      </trkpt>
      <trkpt lat="38.21355664" lon="-2.31028075">
        <ele>1132.0000</ele>
        <time>2018-10-12T17:06:29Z</time>
      </trkpt>
      <trkpt lat="38.21352152" lon="-2.31027832">
        <ele>1132.0000</ele>
        <time>2018-10-12T17:06:31Z</time>
      </trkpt>
      <trkpt lat="38.21342119" lon="-2.31027103">
        <ele>1133.0000</ele>
        <time>2018-10-12T17:06:37Z</time>
      </trkpt>
      <trkpt lat="38.21337123" lon="-2.31025644">
        <ele>1134.0000</ele>
        <time>2018-10-12T17:06:40Z</time>
      </trkpt>
      <trkpt lat="38.21335472" lon="-2.31025527">
        <ele>1134.0000</ele>
        <time>2018-10-12T17:06:41Z</time>
      </trkpt>
      <trkpt lat="38.21321709" lon="-2.31025292">
        <ele>1135.0000</ele>
        <time>2018-10-12T17:06:49Z</time>
      </trkpt>
      <trkpt lat="38.21305205" lon="-2.31023012">
        <ele>1136.0000</ele>
        <time>2018-10-12T17:06:58Z</time>
      </trkpt>
      <trkpt lat="38.21284702" lon="-2.31021311">
        <ele>1137.0000</ele>
        <time>2018-10-12T17:07:08Z</time>
      </trkpt>
      <trkpt lat="38.21258635" lon="-2.31018385">
        <ele>1138.0000</ele>
        <time>2018-10-12T17:07:20Z</time>
      </trkpt>
      <trkpt lat="38.21256355" lon="-2.31018151">
        <ele>1138.0000</ele>
        <time>2018-10-12T17:07:21Z</time>
      </trkpt>
      <trkpt lat="38.21202300" lon="-2.31012920">
        <ele>1139.0000</ele>
        <time>2018-10-12T17:07:40Z</time>
      </trkpt>
      <trkpt lat="38.21144574" lon="-2.31016265">
        <ele>1138.0000</ele>
        <time>2018-10-12T17:07:53Z</time>
      </trkpt>
      <trkpt lat="38.21104877" lon="-2.31033523">
        <ele>1138.0000</ele>
        <time>2018-10-12T17:08:03Z</time>
      </trkpt>
      <trkpt lat="38.21086278" lon="-2.31049055">
        <ele>1138.0000</ele>
        <time>2018-10-12T17:08:08Z</time>
      </trkpt>
      <trkpt lat="38.21048928" lon="-2.31101836">
        <ele>1138.0000</ele>
        <time>2018-10-12T17:08:20Z</time>
      </trkpt>
      <trkpt lat="38.21025308" lon="-2.31164691">
        <ele>1138.0000</ele>
        <time>2018-10-12T17:08:33Z</time>
      </trkpt>
      <trkpt lat="38.21004998" lon="-2.31203868">
        <ele>1139.0000</ele>
        <time>2018-10-12T17:08:41Z</time>
      </trkpt>
      <trkpt lat="38.20998511" lon="-2.31212678">
        <ele>1139.0000</ele>
        <time>2018-10-12T17:08:43Z</time>
      </trkpt>
      <trkpt lat="38.20975360" lon="-2.31228629">
        <ele>1138.0000</ele>
        <time>2018-10-12T17:08:49Z</time>
      </trkpt>
      <trkpt lat="38.20947691" lon="-2.31236508">
        <ele>1138.0000</ele>
        <time>2018-10-12T17:08:56Z</time>
      </trkpt>
      <trkpt lat="38.20900233" lon="-2.31219249">
        <ele>1139.0000</ele>
        <time>2018-10-12T17:09:08Z</time>
      </trkpt>
      <trkpt lat="38.20850897" lon="-2.31188119">
        <ele>1138.0000</ele>
        <time>2018-10-12T17:09:20Z</time>
      </trkpt>
      <trkpt lat="38.20836790" lon="-2.31180424">
        <ele>1138.0000</ele>
        <time>2018-10-12T17:09:23Z</time>
      </trkpt>
      <trkpt lat="38.20784546" lon="-2.31150358">
        <ele>1138.0000</ele>
        <time>2018-10-12T17:09:35Z</time>
      </trkpt>
      <trkpt lat="38.20770800" lon="-2.31142479">
        <ele>1138.0000</ele>
        <time>2018-10-12T17:09:38Z</time>
      </trkpt>
      <trkpt lat="38.20717013" lon="-2.31109723">
        <ele>1137.0000</ele>
        <time>2018-10-12T17:09:48Z</time>
      </trkpt>
      <trkpt lat="38.20704918" lon="-2.31102456">
        <ele>1137.0000</ele>
        <time>2018-10-12T17:09:50Z</time>
      </trkpt>
      <trkpt lat="38.20686436" lon="-2.31090780">
        <ele>1136.0000</ele>
        <time>2018-10-12T17:09:53Z</time>
      </trkpt>
      <trkpt lat="38.20667660" lon="-2.31077595">
        <ele>1135.0000</ele>
        <time>2018-10-12T17:09:56Z</time>
      </trkpt>
      <trkpt lat="38.20661407" lon="-2.31072750">
        <ele>1135.0000</ele>
        <time>2018-10-12T17:09:57Z</time>
      </trkpt>
      <trkpt lat="38.20617000" lon="-2.31033054">
        <ele>1133.0000</ele>
        <time>2018-10-12T17:10:04Z</time>
      </trkpt>
      <trkpt lat="38.20596657" lon="-2.31015837">
        <ele>1132.0000</ele>
        <time>2018-10-12T17:10:07Z</time>
      </trkpt>
      <trkpt lat="38.20582643" lon="-2.31004673">
        <ele>1131.0000</ele>
        <time>2018-10-12T17:10:09Z</time>
      </trkpt>
      <trkpt lat="38.20552987" lon="-2.30984690">
        <ele>1130.0000</ele>
        <time>2018-10-12T17:10:13Z</time>
      </trkpt>
      <trkpt lat="38.20528680" lon="-2.30972712">
        <ele>1129.0000</ele>
        <time>2018-10-12T17:10:16Z</time>
      </trkpt>
      <trkpt lat="38.20502000" lon="-2.30963375">
        <ele>1128.0000</ele>
        <time>2018-10-12T17:10:19Z</time>
      </trkpt>
      <trkpt lat="38.20461801" lon="-2.30955521">
        <ele>1127.0000</ele>
        <time>2018-10-12T17:10:23Z</time>
      </trkpt>
      <trkpt lat="38.20427804" lon="-2.30954641">
        <ele>1126.0000</ele>
        <time>2018-10-12T17:10:26Z</time>
      </trkpt>
      <trkpt lat="38.20403052" lon="-2.30956158">
        <ele>1124.0000</ele>
        <time>2018-10-12T17:10:28Z</time>
      </trkpt>
      <trkpt lat="38.20376523" lon="-2.30957742">
        <ele>1123.0000</ele>
        <time>2018-10-12T17:10:30Z</time>
      </trkpt>
      <trkpt lat="38.20348368" lon="-2.30956627">
        <ele>1121.0000</ele>
        <time>2018-10-12T17:10:32Z</time>
      </trkpt>
      <trkpt lat="38.20319426" lon="-2.30949394">
        <ele>1119.0000</ele>
        <time>2018-10-12T17:10:34Z</time>
      </trkpt>
      <trkpt lat="38.20305403" lon="-2.30943049">
        <ele>1118.0000</ele>
        <time>2018-10-12T17:10:35Z</time>
      </trkpt>
      <trkpt lat="38.20292143" lon="-2.30934952">
        <ele>1117.0000</ele>
        <time>2018-10-12T17:10:36Z</time>
      </trkpt>
      <trkpt lat="38.20279880" lon="-2.30925262">
        <ele>1115.0000</ele>
        <time>2018-10-12T17:10:37Z</time>
      </trkpt>
      <trkpt lat="38.20268598" lon="-2.30914500">
        <ele>1113.0000</ele>
        <time>2018-10-12T17:10:38Z</time>
      </trkpt>
      <trkpt lat="38.20258188" lon="-2.30903092">
        <ele>1112.0000</ele>
        <time>2018-10-12T17:10:39Z</time>
      </trkpt>
      <trkpt lat="38.20248423" lon="-2.30891366">
        <ele>1110.0000</ele>
        <time>2018-10-12T17:10:40Z</time>
      </trkpt>
      <trkpt lat="38.20239152" lon="-2.30879673">
        <ele>1109.0000</ele>
        <time>2018-10-12T17:10:41Z</time>
      </trkpt>
      <trkpt lat="38.20230293" lon="-2.30868265">
        <ele>1106.0000</ele>
        <time>2018-10-12T17:10:42Z</time>
      </trkpt>
      <trkpt lat="38.20221601" lon="-2.30857101">
        <ele>1105.0000</ele>
        <time>2018-10-12T17:10:43Z</time>
      </trkpt>
      <trkpt lat="38.20197394" lon="-2.30824663">
        <ele>1104.0000</ele>
        <time>2018-10-12T17:10:46Z</time>
      </trkpt>
      <trkpt lat="38.20153682" lon="-2.30768035">
        <ele>1104.0000</ele>
        <time>2018-10-12T17:10:52Z</time>
      </trkpt>
      <trkpt lat="38.20114673" lon="-2.30722320">
        <ele>1105.0000</ele>
        <time>2018-10-12T17:10:58Z</time>
      </trkpt>
      <trkpt lat="38.20107942" lon="-2.30717366">
        <ele>1106.0000</ele>
        <time>2018-10-12T17:10:59Z</time>
      </trkpt>
      <trkpt lat="38.20081732" lon="-2.30707903">
        <ele>1106.0000</ele>
        <time>2018-10-12T17:11:03Z</time>
      </trkpt>
      <trkpt lat="38.20069720" lon="-2.30707844">
        <ele>1107.0000</ele>
        <time>2018-10-12T17:11:05Z</time>
      </trkpt>
      <trkpt lat="38.20064155" lon="-2.30708624">
        <ele>1108.0000</ele>
        <time>2018-10-12T17:11:06Z</time>
      </trkpt>
      <trkpt lat="38.20053711" lon="-2.30710811">
        <ele>1110.0000</ele>
        <time>2018-10-12T17:11:08Z</time>
      </trkpt>
      <trkpt lat="38.20044667" lon="-2.30714877">
        <ele>1111.0000</ele>
        <time>2018-10-12T17:11:10Z</time>
      </trkpt>
      <trkpt lat="38.20040719" lon="-2.30717559">
        <ele>1111.0000</ele>
        <time>2018-10-12T17:11:11Z</time>
      </trkpt>
      <trkpt lat="38.20033645" lon="-2.30723611">
        <ele>1112.0000</ele>
        <time>2018-10-12T17:11:13Z</time>
      </trkpt>
      <trkpt lat="38.20027316" lon="-2.30729537">
        <ele>1113.0000</ele>
        <time>2018-10-12T17:11:15Z</time>
      </trkpt>
      <trkpt lat="38.20019102" lon="-2.30737977">
        <ele>1114.0000</ele>
        <time>2018-10-12T17:11:18Z</time>
      </trkpt>
      <trkpt lat="38.20009103" lon="-2.30749201">
        <ele>1115.0000</ele>
        <time>2018-10-12T17:11:22Z</time>
      </trkpt>
      <trkpt lat="38.20000754" lon="-2.30760759">
        <ele>1116.0000</ele>
        <time>2018-10-12T17:11:26Z</time>
      </trkpt>
      <trkpt lat="38.19986916" lon="-2.30775780">
        <ele>1117.0000</ele>
        <time>2018-10-12T17:11:32Z</time>
      </trkpt>
      <trkpt lat="38.19976715" lon="-2.30788579">
        <ele>1118.0000</ele>
        <time>2018-10-12T17:11:37Z</time>
      </trkpt>
      <trkpt lat="38.19970630" lon="-2.30795762">
        <ele>1119.0000</ele>
        <time>2018-10-12T17:11:40Z</time>
      </trkpt>
      <trkpt lat="38.19950438" lon="-2.30818008">
        <ele>1120.0000</ele>
        <time>2018-10-12T17:11:50Z</time>
      </trkpt>
      <trkpt lat="38.19932375" lon="-2.30837428">
        <ele>1121.0000</ele>
        <time>2018-10-12T17:11:59Z</time>
      </trkpt>
      <trkpt lat="38.19910724" lon="-2.30857252">
        <ele>1122.0000</ele>
        <time>2018-10-12T17:12:09Z</time>
      </trkpt>
      <trkpt lat="38.19888118" lon="-2.30874468">
        <ele>1123.0000</ele>
        <time>2018-10-12T17:12:19Z</time>
      </trkpt>
      <trkpt lat="38.19870399" lon="-2.30886722">
        <ele>1124.0000</ele>
        <time>2018-10-12T17:12:27Z</time>
      </trkpt>
      <trkpt lat="38.19840819" lon="-2.30904576">
        <ele>1125.0000</ele>
        <time>2018-10-12T17:12:40Z</time>
      </trkpt>
      <trkpt lat="38.19820845" lon="-2.30914860">
        <ele>1126.0000</ele>
        <time>2018-10-12T17:12:49Z</time>
      </trkpt>
      <trkpt lat="38.19798088" lon="-2.30924382">
        <ele>1127.0000</ele>
        <time>2018-10-12T17:12:59Z</time>
      </trkpt>
      <trkpt lat="38.19769414" lon="-2.30934474">
        <ele>1129.0000</ele>
        <time>2018-10-12T17:13:10Z</time>
      </trkpt>
      <trkpt lat="38.19737001" lon="-2.30942655">
        <ele>1130.0000</ele>
        <time>2018-10-12T17:13:22Z</time>
      </trkpt>
      <trkpt lat="38.19709181" lon="-2.30945044">
        <ele>1131.0000</ele>
        <time>2018-10-12T17:13:32Z</time>
      </trkpt>
      <trkpt lat="38.19673466" lon="-2.30942219">
        <ele>1132.0000</ele>
        <time>2018-10-12T17:13:44Z</time>
      </trkpt>
      <trkpt lat="38.19632537" lon="-2.30931054">
        <ele>1133.0000</ele>
        <time>2018-10-12T17:13:58Z</time>
      </trkpt>
      <trkpt lat="38.19610350" lon="-2.30920510">
        <ele>1134.0000</ele>
        <time>2018-10-12T17:14:05Z</time>
      </trkpt>
      <trkpt lat="38.19598808" lon="-2.30913511">
        <ele>1134.0000</ele>
        <time>2018-10-12T17:14:08Z</time>
      </trkpt>
      <trkpt lat="38.19585263" lon="-2.30903570">
        <ele>1134.0000</ele>
        <time>2018-10-12T17:14:12Z</time>
      </trkpt>
      <trkpt lat="38.19563437" lon="-2.30884945">
        <ele>1135.0000</ele>
        <time>2018-10-12T17:14:19Z</time>
      </trkpt>
      <trkpt lat="38.19539297" lon="-2.30857419">
        <ele>1136.0000</ele>
        <time>2018-10-12T17:14:28Z</time>
      </trkpt>
      <trkpt lat="38.19502651" lon="-2.30804974">
        <ele>1137.0000</ele>
        <time>2018-10-12T17:14:43Z</time>
      </trkpt>
      <trkpt lat="38.19487991" lon="-2.30782669">
        <ele>1137.0000</ele>
        <time>2018-10-12T17:14:49Z</time>
      </trkpt>
      <trkpt lat="38.19475360" lon="-2.30764120">
        <ele>1138.0000</ele>
        <time>2018-10-12T17:14:54Z</time>
      </trkpt>
      <trkpt lat="38.19450834" lon="-2.30736971">
        <ele>1138.0000</ele>
        <time>2018-10-12T17:15:02Z</time>
      </trkpt>
      <trkpt lat="38.19447716" lon="-2.30733694">
        <ele>1138.0000</ele>
        <time>2018-10-12T17:15:03Z</time>
      </trkpt>
      <trkpt lat="38.19444288" lon="-2.30730978">
        <ele>1138.0000</ele>
        <time>2018-10-12T17:15:04Z</time>
      </trkpt>
      <trkpt lat="38.19436971" lon="-2.30725446">
        <ele>1138.0000</ele>
        <time>2018-10-12T17:15:06Z</time>
      </trkpt>
      <trkpt lat="38.19408036" lon="-2.30706050">
        <ele>1138.0000</ele>
        <time>2018-10-12T17:15:13Z</time>
      </trkpt>
      <trkpt lat="38.19354141" lon="-2.30689505">
        <ele>1138.0000</ele>
        <time>2018-10-12T17:15:23Z</time>
      </trkpt>
      <trkpt lat="38.19326723" lon="-2.30688759">
        <ele>1137.0000</ele>
        <time>2018-10-12T17:15:27Z</time>
      </trkpt>
      <trkpt lat="38.19319473" lon="-2.30689605">
        <ele>1137.0000</ele>
        <time>2018-10-12T17:15:28Z</time>
      </trkpt>
      <trkpt lat="38.19304495" lon="-2.30692002">
        <ele>1136.0000</ele>
        <time>2018-10-12T17:15:30Z</time>
      </trkpt>
      <trkpt lat="38.19281025" lon="-2.30697350">
        <ele>1135.0000</ele>
        <time>2018-10-12T17:15:33Z</time>
      </trkpt>
      <trkpt lat="38.19256525" lon="-2.30703569">
        <ele>1134.0000</ele>
        <time>2018-10-12T17:15:36Z</time>
      </trkpt>
      <trkpt lat="38.19231287" lon="-2.30710770">
        <ele>1133.0000</ele>
        <time>2018-10-12T17:15:39Z</time>
      </trkpt>
      <trkpt lat="38.19205236" lon="-2.30717249">
        <ele>1131.0000</ele>
        <time>2018-10-12T17:15:42Z</time>
      </trkpt>
      <trkpt lat="38.19178062" lon="-2.30720870">
        <ele>1130.0000</ele>
        <time>2018-10-12T17:15:45Z</time>
      </trkpt>
      <trkpt lat="38.19168817" lon="-2.30720543">
        <ele>1130.0000</ele>
        <time>2018-10-12T17:15:46Z</time>
      </trkpt>
      <trkpt lat="38.19159597" lon="-2.30718984">
        <ele>1129.0000</ele>
        <time>2018-10-12T17:15:47Z</time>
      </trkpt>
      <trkpt lat="38.19150452" lon="-2.30716310">
        <ele>1129.0000</ele>
        <time>2018-10-12T17:15:48Z</time>
      </trkpt>
      <trkpt lat="38.19124778" lon="-2.30702019">
        <ele>1128.0000</ele>
        <time>2018-10-12T17:15:51Z</time>
      </trkpt>
      <trkpt lat="38.19103094" lon="-2.30681668">
        <ele>1127.0000</ele>
        <time>2018-10-12T17:15:54Z</time>
      </trkpt>
      <trkpt lat="38.19087487" lon="-2.30657561">
        <ele>1126.0000</ele>
        <time>2018-10-12T17:15:57Z</time>
      </trkpt>
      <trkpt lat="38.19080078" lon="-2.30641325">
        <ele>1125.0000</ele>
        <time>2018-10-12T17:15:59Z</time>
      </trkpt>
      <trkpt lat="38.19071285" lon="-2.30610329">
        <ele>1125.0000</ele>
        <time>2018-10-12T17:16:03Z</time>
      </trkpt>
      <trkpt lat="38.19067220" lon="-2.30578344">
        <ele>1127.0000</ele>
        <time>2018-10-12T17:16:08Z</time>
      </trkpt>
      <trkpt lat="38.19065443" lon="-2.30562971">
        <ele>1128.0000</ele>
        <time>2018-10-12T17:16:11Z</time>
      </trkpt>
      <trkpt lat="38.19064437" lon="-2.30554137">
        <ele>1129.0000</ele>
        <time>2018-10-12T17:16:13Z</time>
      </trkpt>
      <trkpt lat="38.19064127" lon="-2.30541522">
        <ele>1131.0000</ele>
        <time>2018-10-12T17:16:16Z</time>
      </trkpt>
      <trkpt lat="38.19064185" lon="-2.30530165">
        <ele>1132.0000</ele>
        <time>2018-10-12T17:16:19Z</time>
      </trkpt>
      <trkpt lat="38.19063339" lon="-2.30516066">
        <ele>1133.0000</ele>
        <time>2018-10-12T17:16:23Z</time>
      </trkpt>
      <trkpt lat="38.19060724" lon="-2.30497316">
        <ele>1134.0000</ele>
        <time>2018-10-12T17:16:29Z</time>
      </trkpt>
      <trkpt lat="38.19059919" lon="-2.30478624">
        <ele>1135.0000</ele>
        <time>2018-10-12T17:16:35Z</time>
      </trkpt>
      <trkpt lat="38.19057631" lon="-2.30463285">
        <ele>1136.0000</ele>
        <time>2018-10-12T17:16:40Z</time>
      </trkpt>
      <trkpt lat="38.19055837" lon="-2.30442599">
        <ele>1137.0000</ele>
        <time>2018-10-12T17:16:47Z</time>
      </trkpt>
      <trkpt lat="38.19054328" lon="-2.30425542">
        <ele>1138.0000</ele>
        <time>2018-10-12T17:16:53Z</time>
      </trkpt>
      <trkpt lat="38.19052384" lon="-2.30405492">
        <ele>1139.0000</ele>
        <time>2018-10-12T17:17:00Z</time>
      </trkpt>
      <trkpt lat="38.19050313" lon="-2.30385694">
        <ele>1140.0000</ele>
        <time>2018-10-12T17:17:07Z</time>
      </trkpt>
      <trkpt lat="38.19048168" lon="-2.30366131">
        <ele>1141.0000</ele>
        <time>2018-10-12T17:17:14Z</time>
      </trkpt>
      <trkpt lat="38.19043449" lon="-2.30344531">
        <ele>1142.0000</ele>
        <time>2018-10-12T17:17:22Z</time>
      </trkpt>
      <trkpt lat="38.19036877" lon="-2.30320449">
        <ele>1144.0000</ele>
        <time>2018-10-12T17:17:31Z</time>
      </trkpt>
      <trkpt lat="38.19028495" lon="-2.30299386">
        <ele>1145.0000</ele>
        <time>2018-10-12T17:17:39Z</time>
      </trkpt>
      <trkpt lat="38.19018403" lon="-2.30280568">
        <ele>1146.0000</ele>
        <time>2018-10-12T17:17:47Z</time>
      </trkpt>
      <trkpt lat="38.19006082" lon="-2.30264475">
        <ele>1147.0000</ele>
        <time>2018-10-12T17:17:55Z</time>
      </trkpt>
      <trkpt lat="38.18989444" lon="-2.30250293">
        <ele>1148.0000</ele>
        <time>2018-10-12T17:18:04Z</time>
      </trkpt>
      <trkpt lat="38.18973183" lon="-2.30242112">
        <ele>1149.0000</ele>
        <time>2018-10-12T17:18:12Z</time>
      </trkpt>
      <trkpt lat="38.18951499" lon="-2.30237879">
        <ele>1150.0000</ele>
        <time>2018-10-12T17:18:22Z</time>
      </trkpt>
      <trkpt lat="38.18930368" lon="-2.30239220">
        <ele>1151.0000</ele>
        <time>2018-10-12T17:18:31Z</time>
      </trkpt>
      <trkpt lat="38.18911886" lon="-2.30245926">
        <ele>1152.0000</ele>
        <time>2018-10-12T17:18:39Z</time>
      </trkpt>
      <trkpt lat="38.18896338" lon="-2.30257191">
        <ele>1154.0000</ele>
        <time>2018-10-12T17:18:47Z</time>
      </trkpt>
      <trkpt lat="38.18879591" lon="-2.30275179">
        <ele>1155.0000</ele>
        <time>2018-10-12T17:18:57Z</time>
      </trkpt>
      <trkpt lat="38.18868954" lon="-2.30292605">
        <ele>1156.0000</ele>
        <time>2018-10-12T17:19:05Z</time>
      </trkpt>
      <trkpt lat="38.18859089" lon="-2.30316543">
        <ele>1157.0000</ele>
        <time>2018-10-12T17:19:15Z</time>
      </trkpt>
      <trkpt lat="38.18855904" lon="-2.30329879">
        <ele>1157.0000</ele>
        <time>2018-10-12T17:19:19Z</time>
      </trkpt>
      <trkpt lat="38.18853087" lon="-2.30341429">
        <ele>1158.0000</ele>
        <time>2018-10-12T17:19:22Z</time>
      </trkpt>
      <trkpt lat="38.18850690" lon="-2.30353625">
        <ele>1158.0000</ele>
        <time>2018-10-12T17:19:25Z</time>
      </trkpt>
      <trkpt lat="38.18845275" lon="-2.30375887">
        <ele>1159.0000</ele>
        <time>2018-10-12T17:19:31Z</time>
      </trkpt>
      <trkpt lat="38.18841436" lon="-2.30397387">
        <ele>1160.0000</ele>
        <time>2018-10-12T17:19:37Z</time>
      </trkpt>
      <trkpt lat="38.18836851" lon="-2.30417973">
        <ele>1161.0000</ele>
        <time>2018-10-12T17:19:43Z</time>
      </trkpt>
      <trkpt lat="38.18832803" lon="-2.30438089">
        <ele>1162.0000</ele>
        <time>2018-10-12T17:19:49Z</time>
      </trkpt>
      <trkpt lat="38.18826634" lon="-2.30469337">
        <ele>1163.0000</ele>
        <time>2018-10-12T17:19:57Z</time>
      </trkpt>
      <trkpt lat="38.18819811" lon="-2.30501306">
        <ele>1165.0000</ele>
        <time>2018-10-12T17:20:06Z</time>
      </trkpt>
      <trkpt lat="38.18816098" lon="-2.30520634">
        <ele>1166.0000</ele>
        <time>2018-10-12T17:20:12Z</time>
      </trkpt>
      <trkpt lat="38.18810465" lon="-2.30537842">
        <ele>1167.0000</ele>
        <time>2018-10-12T17:20:18Z</time>
      </trkpt>
      <trkpt lat="38.18802402" lon="-2.30555813">
        <ele>1168.0000</ele>
        <time>2018-10-12T17:20:25Z</time>
      </trkpt>
      <trkpt lat="38.18792930" lon="-2.30574295">
        <ele>1169.0000</ele>
        <time>2018-10-12T17:20:33Z</time>
      </trkpt>
      <trkpt lat="38.18784314" lon="-2.30586038">
        <ele>1170.0000</ele>
        <time>2018-10-12T17:20:39Z</time>
      </trkpt>
      <trkpt lat="38.18773861" lon="-2.30598494">
        <ele>1171.0000</ele>
        <time>2018-10-12T17:20:46Z</time>
      </trkpt>
      <trkpt lat="38.18764273" lon="-2.30607077">
        <ele>1173.0000</ele>
        <time>2018-10-12T17:20:52Z</time>
      </trkpt>
      <trkpt lat="38.18755480" lon="-2.30615601">
        <ele>1174.0000</ele>
        <time>2018-10-12T17:20:58Z</time>
      </trkpt>
      <trkpt lat="38.18745145" lon="-2.30620999">
        <ele>1175.0000</ele>
        <time>2018-10-12T17:21:04Z</time>
      </trkpt>
      <trkpt lat="38.18734324" lon="-2.30628610">
        <ele>1176.0000</ele>
        <time>2018-10-12T17:21:11Z</time>
      </trkpt>
      <trkpt lat="38.18724811" lon="-2.30634042">
        <ele>1177.0000</ele>
        <time>2018-10-12T17:21:17Z</time>
      </trkpt>
      <trkpt lat="38.18711383" lon="-2.30640152">
        <ele>1178.0000</ele>
        <time>2018-10-12T17:21:25Z</time>
      </trkpt>
      <trkpt lat="38.18701400" lon="-2.30646028">
        <ele>1179.0000</ele>
        <time>2018-10-12T17:21:31Z</time>
      </trkpt>
      <trkpt lat="38.18689791" lon="-2.30652549">
        <ele>1180.0000</ele>
        <time>2018-10-12T17:21:38Z</time>
      </trkpt>
      <trkpt lat="38.18676061" lon="-2.30658483">
        <ele>1181.0000</ele>
        <time>2018-10-12T17:21:46Z</time>
      </trkpt>
      <trkpt lat="38.18666347" lon="-2.30664736">
        <ele>1182.0000</ele>
        <time>2018-10-12T17:21:52Z</time>
      </trkpt>
      <trkpt lat="38.18654612" lon="-2.30670855">
        <ele>1183.0000</ele>
        <time>2018-10-12T17:21:59Z</time>
      </trkpt>
      <trkpt lat="38.18644529" lon="-2.30676337">
        <ele>1184.0000</ele>
        <time>2018-10-12T17:22:05Z</time>
      </trkpt>
      <trkpt lat="38.18631369" lon="-2.30683470">
        <ele>1186.0000</ele>
        <time>2018-10-12T17:22:13Z</time>
      </trkpt>
      <trkpt lat="38.18619752" lon="-2.30690276">
        <ele>1187.0000</ele>
        <time>2018-10-12T17:22:20Z</time>
      </trkpt>
      <trkpt lat="38.18609300" lon="-2.30695037">
        <ele>1188.0000</ele>
        <time>2018-10-12T17:22:26Z</time>
      </trkpt>
      <trkpt lat="38.18597280" lon="-2.30700954">
        <ele>1189.0000</ele>
        <time>2018-10-12T17:22:33Z</time>
      </trkpt>
      <trkpt lat="38.18585294" lon="-2.30707408">
        <ele>1190.0000</ele>
        <time>2018-10-12T17:22:40Z</time>
      </trkpt>
      <trkpt lat="38.18575562" lon="-2.30713242">
        <ele>1191.0000</ele>
        <time>2018-10-12T17:22:46Z</time>
      </trkpt>
      <trkpt lat="38.18564968" lon="-2.30719009">
        <ele>1192.0000</ele>
        <time>2018-10-12T17:22:52Z</time>
      </trkpt>
      <trkpt lat="38.18563199" lon="-2.30719713">
        <ele>1192.0000</ele>
        <time>2018-10-12T17:22:53Z</time>
      </trkpt>
      <trkpt lat="38.18550433" lon="-2.30725245">
        <ele>1193.0000</ele>
        <time>2018-10-12T17:23:00Z</time>
      </trkpt>
      <trkpt lat="38.18537794" lon="-2.30733484">
        <ele>1194.0000</ele>
        <time>2018-10-12T17:23:07Z</time>
      </trkpt>
      <trkpt lat="38.18518809" lon="-2.30743191">
        <ele>1195.0000</ele>
        <time>2018-10-12T17:23:17Z</time>
      </trkpt>
      <trkpt lat="38.18494484" lon="-2.30755160">
        <ele>1197.0000</ele>
        <time>2018-10-12T17:23:27Z</time>
      </trkpt>
      <trkpt lat="38.18468710" lon="-2.30769007">
        <ele>1198.0000</ele>
        <time>2018-10-12T17:23:37Z</time>
      </trkpt>
      <trkpt lat="38.18440597" lon="-2.30784513">
        <ele>1198.0000</ele>
        <time>2018-10-12T17:23:48Z</time>
      </trkpt>
      <trkpt lat="38.18433053" lon="-2.30788386">
        <ele>1199.0000</ele>
        <time>2018-10-12T17:23:51Z</time>
      </trkpt>
      <trkpt lat="38.18410078" lon="-2.30800364">
        <ele>1200.0000</ele>
        <time>2018-10-12T17:24:00Z</time>
      </trkpt>
      <trkpt lat="38.18379560" lon="-2.30816910">
        <ele>1201.0000</ele>
        <time>2018-10-12T17:24:12Z</time>
      </trkpt>
      <trkpt lat="38.18360055" lon="-2.30827110">
        <ele>1202.0000</ele>
        <time>2018-10-12T17:24:20Z</time>
      </trkpt>
      <trkpt lat="38.18347005" lon="-2.30833388">
        <ele>1203.0000</ele>
        <time>2018-10-12T17:24:26Z</time>
      </trkpt>
      <trkpt lat="38.18329696" lon="-2.30840614">
        <ele>1204.0000</ele>
        <time>2018-10-12T17:24:34Z</time>
      </trkpt>
      <trkpt lat="38.18317526" lon="-2.30842550">
        <ele>1205.0000</ele>
        <time>2018-10-12T17:24:39Z</time>
      </trkpt>
      <trkpt lat="38.18312941" lon="-2.30843195">
        <ele>1205.0000</ele>
        <time>2018-10-12T17:24:41Z</time>
      </trkpt>
      <trkpt lat="38.18302053" lon="-2.30843472">
        <ele>1206.0000</ele>
        <time>2018-10-12T17:24:46Z</time>
      </trkpt>
      <trkpt lat="38.18291332" lon="-2.30841217">
        <ele>1207.0000</ele>
        <time>2018-10-12T17:24:51Z</time>
      </trkpt>
      <trkpt lat="38.18277703" lon="-2.30833497">
        <ele>1208.0000</ele>
        <time>2018-10-12T17:24:58Z</time>
      </trkpt>
      <trkpt lat="38.18272490" lon="-2.30831653">
        <ele>1209.0000</ele>
        <time>2018-10-12T17:25:01Z</time>
      </trkpt>
      <trkpt lat="38.18269539" lon="-2.30828694">
        <ele>1209.0000</ele>
        <time>2018-10-12T17:25:03Z</time>
      </trkpt>
      <trkpt lat="38.18263655" lon="-2.30822768">
        <ele>1210.0000</ele>
        <time>2018-10-12T17:25:07Z</time>
      </trkpt>
      <trkpt lat="38.18254946" lon="-2.30815233">
        <ele>1211.0000</ele>
        <time>2018-10-12T17:25:13Z</time>
      </trkpt>
      <trkpt lat="38.18248970" lon="-2.30806952">
        <ele>1213.0000</ele>
        <time>2018-10-12T17:25:18Z</time>
      </trkpt>
      <trkpt lat="38.18242013" lon="-2.30798578">
        <ele>1214.0000</ele>
        <time>2018-10-12T17:25:24Z</time>
      </trkpt>
      <trkpt lat="38.18237118" lon="-2.30790532">
        <ele>1214.0000</ele>
        <time>2018-10-12T17:25:29Z</time>
      </trkpt>
      <trkpt lat="38.18236003" lon="-2.30786710">
        <ele>1215.0000</ele>
        <time>2018-10-12T17:25:31Z</time>
      </trkpt>
      <trkpt lat="38.18225978" lon="-2.30772946">
        <ele>1216.0000</ele>
        <time>2018-10-12T17:25:40Z</time>
      </trkpt>
      <trkpt lat="38.18221695" lon="-2.30761363">
        <ele>1217.0000</ele>
        <time>2018-10-12T17:25:46Z</time>
      </trkpt>
      <trkpt lat="38.18217806" lon="-2.30757289">
        <ele>1217.0000</ele>
        <time>2018-10-12T17:25:49Z</time>
      </trkpt>
      <trkpt lat="38.18216658" lon="-2.30755923">
        <ele>1217.0000</ele>
        <time>2018-10-12T17:25:50Z</time>
      </trkpt>
      <trkpt lat="38.18213389" lon="-2.30748505">
        <ele>1218.0000</ele>
        <time>2018-10-12T17:25:54Z</time>
      </trkpt>
      <trkpt lat="38.18212802" lon="-2.30746351">
        <ele>1218.0000</ele>
        <time>2018-10-12T17:25:55Z</time>
      </trkpt>
      <trkpt lat="38.18211863" lon="-2.30744264">
        <ele>1218.0000</ele>
        <time>2018-10-12T17:25:56Z</time>
      </trkpt>
      <trkpt lat="38.18207161" lon="-2.30738287">
        <ele>1219.0000</ele>
        <time>2018-10-12T17:26:00Z</time>
      </trkpt>
      <trkpt lat="38.18206541" lon="-2.30736217">
        <ele>1219.0000</ele>
        <time>2018-10-12T17:26:01Z</time>
      </trkpt>
      <trkpt lat="38.18202559" lon="-2.30726050">
        <ele>1220.0000</ele>
        <time>2018-10-12T17:26:06Z</time>
      </trkpt>
      <trkpt lat="38.18197622" lon="-2.30720258">
        <ele>1221.0000</ele>
        <time>2018-10-12T17:26:10Z</time>
      </trkpt>
      <trkpt lat="38.18196273" lon="-2.30713795">
        <ele>1221.0000</ele>
        <time>2018-10-12T17:26:13Z</time>
      </trkpt>
      <trkpt lat="38.18190305" lon="-2.30702958">
        <ele>1222.0000</ele>
        <time>2018-10-12T17:26:19Z</time>
      </trkpt>
      <trkpt lat="38.18183952" lon="-2.30688239">
        <ele>1223.0000</ele>
        <time>2018-10-12T17:26:26Z</time>
      </trkpt>
      <trkpt lat="38.18178151" lon="-2.30675239">
        <ele>1224.0000</ele>
        <time>2018-10-12T17:26:32Z</time>
      </trkpt>
      <trkpt lat="38.18171680" lon="-2.30654678">
        <ele>1226.0000</ele>
        <time>2018-10-12T17:26:40Z</time>
      </trkpt>
      <trkpt lat="38.18164078" lon="-2.30632692">
        <ele>1227.0000</ele>
        <time>2018-10-12T17:26:48Z</time>
      </trkpt>
      <trkpt lat="38.18155897" lon="-2.30605761">
        <ele>1228.0000</ele>
        <time>2018-10-12T17:26:57Z</time>
      </trkpt>
      <trkpt lat="38.18140299" lon="-2.30556031">
        <ele>1228.0000</ele>
        <time>2018-10-12T17:27:11Z</time>
      </trkpt>
      <trkpt lat="38.18133895" lon="-2.30534389">
        <ele>1228.0000</ele>
        <time>2018-10-12T17:27:16Z</time>
      </trkpt>
      <trkpt lat="38.18129033" lon="-2.30519050">
        <ele>1229.0000</ele>
        <time>2018-10-12T17:27:20Z</time>
      </trkpt>
      <trkpt lat="38.18116905" lon="-2.30475976">
        <ele>1229.0000</ele>
        <time>2018-10-12T17:27:31Z</time>
      </trkpt>
      <trkpt lat="38.18107299" lon="-2.30449363">
        <ele>1229.0000</ele>
        <time>2018-10-12T17:27:41Z</time>
      </trkpt>
      <trkpt lat="38.18107416" lon="-2.30449330">
        <ele>1229.0000</ele>
        <time>2018-10-12T17:27:42Z</time>
      </trkpt>
      <trkpt lat="38.18106377" lon="-2.30440956">
        <ele>1230.0000</ele>
        <time>2018-10-12T17:33:05Z</time>
      </trkpt>
      <trkpt lat="38.18105388" lon="-2.30437980">
        <ele>1230.0000</ele>
        <time>2018-10-12T17:33:06Z</time>
      </trkpt>
      <trkpt lat="38.18099856" lon="-2.30421602">
        <ele>1230.0000</ele>
        <time>2018-10-12T17:33:10Z</time>
      </trkpt>
      <trkpt lat="38.18092647" lon="-2.30400723">
        <ele>1230.0000</ele>
        <time>2018-10-12T17:33:15Z</time>
      </trkpt>
      <trkpt lat="38.18074484" lon="-2.30371931">
        <ele>1231.0000</ele>
        <time>2018-10-12T17:33:23Z</time>
      </trkpt>
      <trkpt lat="38.18069404" lon="-2.30365913">
        <ele>1231.0000</ele>
        <time>2018-10-12T17:33:25Z</time>
      </trkpt>
      <trkpt lat="38.18056454" lon="-2.30353290">
        <ele>1232.0000</ele>
        <time>2018-10-12T17:33:30Z</time>
      </trkpt>
      <trkpt lat="38.18053848" lon="-2.30351001">
        <ele>1232.0000</ele>
        <time>2018-10-12T17:33:31Z</time>
      </trkpt>
      <trkpt lat="38.18042448" lon="-2.30342905">
        <ele>1233.0000</ele>
        <time>2018-10-12T17:33:35Z</time>
      </trkpt>
      <trkpt lat="38.18036824" lon="-2.30338362">
        <ele>1233.0000</ele>
        <time>2018-10-12T17:33:37Z</time>
      </trkpt>
      <trkpt lat="38.18022717" lon="-2.30328622">
        <ele>1234.0000</ele>
        <time>2018-10-12T17:33:42Z</time>
      </trkpt>
      <trkpt lat="38.18019825" lon="-2.30326878">
        <ele>1234.0000</ele>
        <time>2018-10-12T17:33:43Z</time>
      </trkpt>
      <trkpt lat="38.18000849" lon="-2.30318086">
        <ele>1235.0000</ele>
        <time>2018-10-12T17:33:49Z</time>
      </trkpt>
      <trkpt lat="38.17978167" lon="-2.30314725">
        <ele>1237.0000</ele>
        <time>2018-10-12T17:33:56Z</time>
      </trkpt>
      <trkpt lat="38.17957774" lon="-2.30320910">
        <ele>1238.0000</ele>
        <time>2018-10-12T17:34:02Z</time>
      </trkpt>
      <trkpt lat="38.17925496" lon="-2.30338127">
        <ele>1239.0000</ele>
        <time>2018-10-12T17:34:12Z</time>
      </trkpt>
      <trkpt lat="38.17891356" lon="-2.30358512">
        <ele>1240.0000</ele>
        <time>2018-10-12T17:34:22Z</time>
      </trkpt>
      <trkpt lat="38.17862732" lon="-2.30371202">
        <ele>1240.0000</ele>
        <time>2018-10-12T17:34:29Z</time>
      </trkpt>
      <trkpt lat="38.17832205" lon="-2.30380732">
        <ele>1240.0000</ele>
        <time>2018-10-12T17:34:36Z</time>
      </trkpt>
      <trkpt lat="38.17810605" lon="-2.30384035">
        <ele>1241.0000</ele>
        <time>2018-10-12T17:34:41Z</time>
      </trkpt>
      <trkpt lat="38.17780237" lon="-2.30388234">
        <ele>1242.0000</ele>
        <time>2018-10-12T17:34:48Z</time>
      </trkpt>
      <trkpt lat="38.17737649" lon="-2.30399667">
        <ele>1243.0000</ele>
        <time>2018-10-12T17:34:58Z</time>
      </trkpt>
      <trkpt lat="38.17710273" lon="-2.30413966">
        <ele>1244.0000</ele>
        <time>2018-10-12T17:35:05Z</time>
      </trkpt>
      <trkpt lat="38.17687718" lon="-2.30429523">
        <ele>1245.0000</ele>
        <time>2018-10-12T17:35:11Z</time>
      </trkpt>
      <trkpt lat="38.17680492" lon="-2.30435499">
        <ele>1245.0000</ele>
        <time>2018-10-12T17:35:13Z</time>
      </trkpt>
      <trkpt lat="38.17653947" lon="-2.30459790">
        <ele>1246.0000</ele>
        <time>2018-10-12T17:35:21Z</time>
      </trkpt>
      <trkpt lat="38.17636496" lon="-2.30478809">
        <ele>1247.0000</ele>
        <time>2018-10-12T17:35:27Z</time>
      </trkpt>
      <trkpt lat="38.17616656" lon="-2.30500493">
        <ele>1248.0000</ele>
        <time>2018-10-12T17:35:34Z</time>
      </trkpt>
      <trkpt lat="38.17600605" lon="-2.30518271">
        <ele>1250.0000</ele>
        <time>2018-10-12T17:35:40Z</time>
      </trkpt>
      <trkpt lat="38.17587319" lon="-2.30531984">
        <ele>1250.0000</ele>
        <time>2018-10-12T17:35:45Z</time>
      </trkpt>
      <trkpt lat="38.17571553" lon="-2.30548496">
        <ele>1251.0000</ele>
        <time>2018-10-12T17:35:51Z</time>
      </trkpt>
      <trkpt lat="38.17553373" lon="-2.30568034">
        <ele>1253.0000</ele>
        <time>2018-10-12T17:35:58Z</time>
      </trkpt>
      <trkpt lat="38.17537866" lon="-2.30584789">
        <ele>1254.0000</ele>
        <time>2018-10-12T17:36:04Z</time>
      </trkpt>
      <trkpt lat="38.17525201" lon="-2.30598846">
        <ele>1255.0000</ele>
        <time>2018-10-12T17:36:09Z</time>
      </trkpt>
      <trkpt lat="38.17509845" lon="-2.30615149">
        <ele>1256.0000</ele>
        <time>2018-10-12T17:36:15Z</time>
      </trkpt>
      <trkpt lat="38.17494766" lon="-2.30631242">
        <ele>1257.0000</ele>
        <time>2018-10-12T17:36:21Z</time>
      </trkpt>
      <trkpt lat="38.17471129" lon="-2.30655633">
        <ele>1258.0000</ele>
        <time>2018-10-12T17:36:30Z</time>
      </trkpt>
      <trkpt lat="38.17447811" lon="-2.30680804">
        <ele>1259.0000</ele>
        <time>2018-10-12T17:36:39Z</time>
      </trkpt>
      <trkpt lat="38.17421332" lon="-2.30708649">
        <ele>1260.0000</ele>
        <time>2018-10-12T17:36:49Z</time>
      </trkpt>
      <trkpt lat="38.17407771" lon="-2.30720962">
        <ele>1261.0000</ele>
        <time>2018-10-12T17:36:54Z</time>
      </trkpt>
      <trkpt lat="38.17385181" lon="-2.30738254">
        <ele>1262.0000</ele>
        <time>2018-10-12T17:37:02Z</time>
      </trkpt>
      <trkpt lat="38.17366255" lon="-2.30747113">
        <ele>1263.0000</ele>
        <time>2018-10-12T17:37:08Z</time>
      </trkpt>
      <trkpt lat="38.17359776" lon="-2.30749435">
        <ele>1263.0000</ele>
        <time>2018-10-12T17:37:10Z</time>
      </trkpt>
      <trkpt lat="38.17342752" lon="-2.30752117">
        <ele>1264.0000</ele>
        <time>2018-10-12T17:37:15Z</time>
      </trkpt>
      <trkpt lat="38.17332736" lon="-2.30754816">
        <ele>1264.0000</ele>
        <time>2018-10-12T17:37:18Z</time>
      </trkpt>
      <trkpt lat="38.17298940" lon="-2.30758018">
        <ele>1265.0000</ele>
        <time>2018-10-12T17:37:28Z</time>
      </trkpt>
      <trkpt lat="38.17268338" lon="-2.30761673">
        <ele>1266.0000</ele>
        <time>2018-10-12T17:37:37Z</time>
      </trkpt>
      <trkpt lat="38.17230694" lon="-2.30766618">
        <ele>1267.0000</ele>
        <time>2018-10-12T17:37:48Z</time>
      </trkpt>
      <trkpt lat="38.17190176" lon="-2.30772896">
        <ele>1268.0000</ele>
        <time>2018-10-12T17:38:00Z</time>
      </trkpt>
      <trkpt lat="38.17160320" lon="-2.30782141">
        <ele>1270.0000</ele>
        <time>2018-10-12T17:38:09Z</time>
      </trkpt>
      <trkpt lat="38.17127890" lon="-2.30796592">
        <ele>1271.0000</ele>
        <time>2018-10-12T17:38:19Z</time>
      </trkpt>
      <trkpt lat="38.17090264" lon="-2.30812165">
        <ele>1272.0000</ele>
        <time>2018-10-12T17:38:31Z</time>
      </trkpt>
      <trkpt lat="38.17061858" lon="-2.30821134">
        <ele>1273.0000</ele>
        <time>2018-10-12T17:38:40Z</time>
      </trkpt>
      <trkpt lat="38.17032353" lon="-2.30828359">
        <ele>1274.0000</ele>
        <time>2018-10-12T17:38:50Z</time>
      </trkpt>
      <trkpt lat="38.17012463" lon="-2.30831226">
        <ele>1275.0000</ele>
        <time>2018-10-12T17:38:57Z</time>
      </trkpt>
      <trkpt lat="38.16996596" lon="-2.30834964">
        <ele>1275.0000</ele>
        <time>2018-10-12T17:39:02Z</time>
      </trkpt>
      <trkpt lat="38.16986756" lon="-2.30836641">
        <ele>1276.0000</ele>
        <time>2018-10-12T17:39:05Z</time>
      </trkpt>
      <trkpt lat="38.16969548" lon="-2.30841033">
        <ele>1277.0000</ele>
        <time>2018-10-12T17:39:11Z</time>
      </trkpt>
      <trkpt lat="38.16966857" lon="-2.30841636">
        <ele>1277.0000</ele>
        <time>2018-10-12T17:39:12Z</time>
      </trkpt>
      <trkpt lat="38.16954268" lon="-2.30845559">
        <ele>1278.0000</ele>
        <time>2018-10-12T17:39:17Z</time>
      </trkpt>
      <trkpt lat="38.16942675" lon="-2.30848970">
        <ele>1279.0000</ele>
        <time>2018-10-12T17:39:22Z</time>
      </trkpt>
      <trkpt lat="38.16932274" lon="-2.30852625">
        <ele>1280.0000</ele>
        <time>2018-10-12T17:39:27Z</time>
      </trkpt>
      <trkpt lat="38.16918033" lon="-2.30858140">
        <ele>1281.0000</ele>
        <time>2018-10-12T17:39:34Z</time>
      </trkpt>
      <trkpt lat="38.16902928" lon="-2.30865919">
        <ele>1283.0000</ele>
        <time>2018-10-12T17:39:42Z</time>
      </trkpt>
      <trkpt lat="38.16888914" lon="-2.30872876">
        <ele>1283.0000</ele>
        <time>2018-10-12T17:39:49Z</time>
      </trkpt>
      <trkpt lat="38.16871857" lon="-2.30881081">
        <ele>1285.0000</ele>
        <time>2018-10-12T17:39:57Z</time>
      </trkpt>
      <trkpt lat="38.16849720" lon="-2.30894316">
        <ele>1286.0000</ele>
        <time>2018-10-12T17:40:07Z</time>
      </trkpt>
      <trkpt lat="38.16841145" lon="-2.30899522">
        <ele>1286.0000</ele>
        <time>2018-10-12T17:40:12Z</time>
      </trkpt>
      <trkpt lat="38.16841087" lon="-2.30899916">
        <ele>1286.0000</ele>
        <time>2018-10-12T17:40:13Z</time>
      </trkpt>
      <trkpt lat="38.16832579" lon="-2.30906621">
        <ele>1287.0000</ele>
        <time>2018-10-12T17:40:55Z</time>
      </trkpt>
      <trkpt lat="38.16824776" lon="-2.30911843">
        <ele>1287.0000</ele>
        <time>2018-10-12T17:40:58Z</time>
      </trkpt>
      <trkpt lat="38.16811557" lon="-2.30924324">
        <ele>1287.0000</ele>
        <time>2018-10-12T17:41:03Z</time>
      </trkpt>
      <trkpt lat="38.16798171" lon="-2.30941490">
        <ele>1288.0000</ele>
        <time>2018-10-12T17:41:09Z</time>
      </trkpt>
      <trkpt lat="38.16786713" lon="-2.30963735">
        <ele>1288.0000</ele>
        <time>2018-10-12T17:41:16Z</time>
      </trkpt>
      <trkpt lat="38.16757888" lon="-2.31015267">
        <ele>1289.0000</ele>
        <time>2018-10-12T17:41:30Z</time>
      </trkpt>
      <trkpt lat="38.16728836" lon="-2.31072717">
        <ele>1289.0000</ele>
        <time>2018-10-12T17:41:44Z</time>
      </trkpt>
      <trkpt lat="38.16717462" lon="-2.31094921">
        <ele>1289.0000</ele>
        <time>2018-10-12T17:41:49Z</time>
      </trkpt>
      <trkpt lat="38.16699684" lon="-2.31130896">
        <ele>1289.0000</ele>
        <time>2018-10-12T17:41:57Z</time>
      </trkpt>
      <trkpt lat="38.16690615" lon="-2.31153795">
        <ele>1289.0000</ele>
        <time>2018-10-12T17:42:02Z</time>
      </trkpt>
      <trkpt lat="38.16680624" lon="-2.31182637">
        <ele>1289.0000</ele>
        <time>2018-10-12T17:42:08Z</time>
      </trkpt>
      <trkpt lat="38.16672435" lon="-2.31202779">
        <ele>1289.0000</ele>
        <time>2018-10-12T17:42:12Z</time>
      </trkpt>
      <trkpt lat="38.16650155" lon="-2.31267529">
        <ele>1290.0000</ele>
        <time>2018-10-12T17:42:25Z</time>
      </trkpt>
      <trkpt lat="38.16628639" lon="-2.31332019">
        <ele>1290.0000</ele>
        <time>2018-10-12T17:42:38Z</time>
      </trkpt>
      <trkpt lat="38.16626862" lon="-2.31336965">
        <ele>1290.0000</ele>
        <time>2018-10-12T17:42:39Z</time>
      </trkpt>
      <trkpt lat="38.16603594" lon="-2.31403861">
        <ele>1291.0000</ele>
        <time>2018-10-12T17:42:53Z</time>
      </trkpt>
      <trkpt lat="38.16581642" lon="-2.31466465">
        <ele>1292.0000</ele>
        <time>2018-10-12T17:43:07Z</time>
      </trkpt>
      <trkpt lat="38.16557141" lon="-2.31531240">
        <ele>1293.0000</ele>
        <time>2018-10-12T17:43:22Z</time>
      </trkpt>
      <trkpt lat="38.16541660" lon="-2.31566629">
        <ele>1293.0000</ele>
        <time>2018-10-12T17:43:30Z</time>
      </trkpt>
      <trkpt lat="38.16532390" lon="-2.31586041">
        <ele>1293.0000</ele>
        <time>2018-10-12T17:43:34Z</time>
      </trkpt>
      <trkpt lat="38.16500304" lon="-2.31642778">
        <ele>1293.0000</ele>
        <time>2018-10-12T17:43:47Z</time>
      </trkpt>
      <trkpt lat="38.16486080" lon="-2.31665720">
        <ele>1293.0000</ele>
        <time>2018-10-12T17:43:52Z</time>
      </trkpt>
      <trkpt lat="38.16450524" lon="-2.31717788">
        <ele>1293.0000</ele>
        <time>2018-10-12T17:44:04Z</time>
      </trkpt>
      <trkpt lat="38.16431690" lon="-2.31742682">
        <ele>1293.0000</ele>
        <time>2018-10-12T17:44:10Z</time>
      </trkpt>
      <trkpt lat="38.16396276" lon="-2.31794969">
        <ele>1292.0000</ele>
        <time>2018-10-12T17:44:21Z</time>
      </trkpt>
      <trkpt lat="38.16361893" lon="-2.31848143">
        <ele>1291.0000</ele>
        <time>2018-10-12T17:44:30Z</time>
      </trkpt>
      <trkpt lat="38.16353813" lon="-2.31861982">
        <ele>1291.0000</ele>
        <time>2018-10-12T17:44:32Z</time>
      </trkpt>
      <trkpt lat="38.16328718" lon="-2.31906482">
        <ele>1290.0000</ele>
        <time>2018-10-12T17:44:38Z</time>
      </trkpt>
      <trkpt lat="38.16324569" lon="-2.31914461">
        <ele>1290.0000</ele>
        <time>2018-10-12T17:44:39Z</time>
      </trkpt>
      <trkpt lat="38.16306950" lon="-2.31946698">
        <ele>1289.0000</ele>
        <time>2018-10-12T17:44:43Z</time>
      </trkpt>
      <trkpt lat="38.16286657" lon="-2.31978641">
        <ele>1288.0000</ele>
        <time>2018-10-12T17:44:47Z</time>
      </trkpt>
      <trkpt lat="38.16269944" lon="-2.32002614">
        <ele>1287.0000</ele>
        <time>2018-10-12T17:44:50Z</time>
      </trkpt>
      <trkpt lat="38.16246508" lon="-2.32035102">
        <ele>1285.0000</ele>
        <time>2018-10-12T17:44:54Z</time>
      </trkpt>
      <trkpt lat="38.16228638" lon="-2.32060222">
        <ele>1284.0000</ele>
        <time>2018-10-12T17:44:57Z</time>
      </trkpt>
      <trkpt lat="38.16203911" lon="-2.32093540">
        <ele>1283.0000</ele>
        <time>2018-10-12T17:45:01Z</time>
      </trkpt>
      <trkpt lat="38.16184616" lon="-2.32118007">
        <ele>1281.0000</ele>
        <time>2018-10-12T17:45:04Z</time>
      </trkpt>
      <trkpt lat="38.16149177" lon="-2.32152692">
        <ele>1280.0000</ele>
        <time>2018-10-12T17:45:09Z</time>
      </trkpt>
      <trkpt lat="38.16115122" lon="-2.32182447">
        <ele>1280.0000</ele>
        <time>2018-10-12T17:45:14Z</time>
      </trkpt>
      <trkpt lat="38.16090387" lon="-2.32203436">
        <ele>1280.0000</ele>
        <time>2018-10-12T17:45:18Z</time>
      </trkpt>
      <trkpt lat="38.16064596" lon="-2.32225430">
        <ele>1280.0000</ele>
        <time>2018-10-12T17:45:23Z</time>
      </trkpt>
      <trkpt lat="38.16047471" lon="-2.32239486">
        <ele>1281.0000</ele>
        <time>2018-10-12T17:45:27Z</time>
      </trkpt>
      <trkpt lat="38.16040146" lon="-2.32246141">
        <ele>1282.0000</ele>
        <time>2018-10-12T17:45:29Z</time>
      </trkpt>
      <trkpt lat="38.16033205" lon="-2.32251824">
        <ele>1284.0000</ele>
        <time>2018-10-12T17:45:31Z</time>
      </trkpt>
      <trkpt lat="38.16023633" lon="-2.32259402">
        <ele>1285.0000</ele>
        <time>2018-10-12T17:45:34Z</time>
      </trkpt>
      <trkpt lat="38.16011915" lon="-2.32269208">
        <ele>1286.0000</ele>
        <time>2018-10-12T17:45:38Z</time>
      </trkpt>
      <trkpt lat="38.16001379" lon="-2.32279216">
        <ele>1287.0000</ele>
        <time>2018-10-12T17:45:42Z</time>
      </trkpt>
      <trkpt lat="38.15987231" lon="-2.32293876">
        <ele>1288.0000</ele>
        <time>2018-10-12T17:45:48Z</time>
      </trkpt>
      <trkpt lat="38.15973057" lon="-2.32315527">
        <ele>1289.0000</ele>
        <time>2018-10-12T17:45:55Z</time>
      </trkpt>
      <trkpt lat="38.15958925" lon="-2.32346054">
        <ele>1290.0000</ele>
        <time>2018-10-12T17:46:04Z</time>
      </trkpt>
      <trkpt lat="38.15949168" lon="-2.32375181">
        <ele>1291.0000</ele>
        <time>2018-10-12T17:46:12Z</time>
      </trkpt>
      <trkpt lat="38.15945832" lon="-2.32424307">
        <ele>1292.0000</ele>
        <time>2018-10-12T17:46:23Z</time>
      </trkpt>
      <trkpt lat="38.15943343" lon="-2.32495662">
        <ele>1292.0000</ele>
        <time>2018-10-12T17:46:34Z</time>
      </trkpt>
      <trkpt lat="38.15941013" lon="-2.32513817">
        <ele>1291.0000</ele>
        <time>2018-10-12T17:46:36Z</time>
      </trkpt>
      <trkpt lat="38.15937543" lon="-2.32534496">
        <ele>1291.0000</ele>
        <time>2018-10-12T17:46:38Z</time>
      </trkpt>
      <trkpt lat="38.15930292" lon="-2.32570705">
        <ele>1290.0000</ele>
        <time>2018-10-12T17:46:41Z</time>
      </trkpt>
      <trkpt lat="38.15926420" lon="-2.32598491">
        <ele>1288.0000</ele>
        <time>2018-10-12T17:46:43Z</time>
      </trkpt>
      <trkpt lat="38.15924844" lon="-2.32629127">
        <ele>1287.0000</ele>
        <time>2018-10-12T17:46:45Z</time>
      </trkpt>
      <trkpt lat="38.15924760" lon="-2.32644852">
        <ele>1286.0000</ele>
        <time>2018-10-12T17:46:46Z</time>
      </trkpt>
      <trkpt lat="38.15925205" lon="-2.32660476">
        <ele>1284.0000</ele>
        <time>2018-10-12T17:46:47Z</time>
      </trkpt>
      <trkpt lat="38.15925959" lon="-2.32675781">
        <ele>1283.0000</ele>
        <time>2018-10-12T17:46:48Z</time>
      </trkpt>
      <trkpt lat="38.15926889" lon="-2.32690567">
        <ele>1282.0000</ele>
        <time>2018-10-12T17:46:49Z</time>
      </trkpt>
      <trkpt lat="38.15927937" lon="-2.32704858">
        <ele>1281.0000</ele>
        <time>2018-10-12T17:46:50Z</time>
      </trkpt>
      <trkpt lat="38.15928951" lon="-2.32719107">
        <ele>1279.0000</ele>
        <time>2018-10-12T17:46:51Z</time>
      </trkpt>
      <trkpt lat="38.15929287" lon="-2.32733365">
        <ele>1278.0000</ele>
        <time>2018-10-12T17:46:52Z</time>
      </trkpt>
      <trkpt lat="38.15928323" lon="-2.32747170">
        <ele>1276.0000</ele>
        <time>2018-10-12T17:46:53Z</time>
      </trkpt>
      <trkpt lat="38.15925708" lon="-2.32760069">
        <ele>1274.0000</ele>
        <time>2018-10-12T17:46:54Z</time>
      </trkpt>
      <trkpt lat="38.15921416" lon="-2.32771544">
        <ele>1273.0000</ele>
        <time>2018-10-12T17:46:55Z</time>
      </trkpt>
      <trkpt lat="38.15915423" lon="-2.32781125">
        <ele>1272.0000</ele>
        <time>2018-10-12T17:46:56Z</time>
      </trkpt>
      <trkpt lat="38.15908013" lon="-2.32788375">
        <ele>1270.0000</ele>
        <time>2018-10-12T17:46:57Z</time>
      </trkpt>
      <trkpt lat="38.15890604" lon="-2.32794075">
        <ele>1269.0000</ele>
        <time>2018-10-12T17:46:59Z</time>
      </trkpt>
      <trkpt lat="38.15881627" lon="-2.32791895">
        <ele>1268.0000</ele>
        <time>2018-10-12T17:47:00Z</time>
      </trkpt>
      <trkpt lat="38.15865525" lon="-2.32778233">
        <ele>1266.0000</ele>
        <time>2018-10-12T17:47:02Z</time>
      </trkpt>
      <trkpt lat="38.15854243" lon="-2.32754847">
        <ele>1265.0000</ele>
        <time>2018-10-12T17:47:04Z</time>
      </trkpt>
      <trkpt lat="38.15846499" lon="-2.32726424">
        <ele>1263.0000</ele>
        <time>2018-10-12T17:47:06Z</time>
      </trkpt>
      <trkpt lat="38.15843364" lon="-2.32711605">
        <ele>1262.0000</ele>
        <time>2018-10-12T17:47:07Z</time>
      </trkpt>
      <trkpt lat="38.15840782" lon="-2.32696929">
        <ele>1260.0000</ele>
        <time>2018-10-12T17:47:08Z</time>
      </trkpt>
      <trkpt lat="38.15838687" lon="-2.32682134">
        <ele>1259.0000</ele>
        <time>2018-10-12T17:47:09Z</time>
      </trkpt>
      <trkpt lat="38.15836993" lon="-2.32666787">
        <ele>1258.0000</ele>
        <time>2018-10-12T17:47:10Z</time>
      </trkpt>
      <trkpt lat="38.15835736" lon="-2.32650853">
        <ele>1256.0000</ele>
        <time>2018-10-12T17:47:11Z</time>
      </trkpt>
      <trkpt lat="38.15834864" lon="-2.32634492">
        <ele>1254.0000</ele>
        <time>2018-10-12T17:47:12Z</time>
      </trkpt>
      <trkpt lat="38.15834454" lon="-2.32617678">
        <ele>1250.0000</ele>
        <time>2018-10-12T17:47:13Z</time>
      </trkpt>
      <trkpt lat="38.15834521" lon="-2.32600428">
        <ele>1248.0000</ele>
        <time>2018-10-12T17:47:14Z</time>
      </trkpt>
      <trkpt lat="38.15834923" lon="-2.32582708">
        <ele>1247.0000</ele>
        <time>2018-10-12T17:47:15Z</time>
      </trkpt>
      <trkpt lat="38.15835460" lon="-2.32564570">
        <ele>1246.0000</ele>
        <time>2018-10-12T17:47:16Z</time>
      </trkpt>
      <trkpt lat="38.15836038" lon="-2.32546054">
        <ele>1245.0000</ele>
        <time>2018-10-12T17:47:17Z</time>
      </trkpt>
      <trkpt lat="38.15836650" lon="-2.32527178">
        <ele>1243.0000</ele>
        <time>2018-10-12T17:47:18Z</time>
      </trkpt>
      <trkpt lat="38.15837245" lon="-2.32508026">
        <ele>1241.0000</ele>
        <time>2018-10-12T17:47:19Z</time>
      </trkpt>
      <trkpt lat="38.15837882" lon="-2.32488621">
        <ele>1240.0000</ele>
        <time>2018-10-12T17:47:20Z</time>
      </trkpt>
      <trkpt lat="38.15838444" lon="-2.32468815">
        <ele>1238.0000</ele>
        <time>2018-10-12T17:47:21Z</time>
      </trkpt>
      <trkpt lat="38.15838955" lon="-2.32448732">
        <ele>1236.0000</ele>
        <time>2018-10-12T17:47:22Z</time>
      </trkpt>
      <trkpt lat="38.15839525" lon="-2.32428465">
        <ele>1235.0000</ele>
        <time>2018-10-12T17:47:23Z</time>
      </trkpt>
      <trkpt lat="38.15840296" lon="-2.32408180">
        <ele>1232.0000</ele>
        <time>2018-10-12T17:47:24Z</time>
      </trkpt>
      <trkpt lat="38.15841017" lon="-2.32387569">
        <ele>1231.0000</ele>
        <time>2018-10-12T17:47:25Z</time>
      </trkpt>
      <trkpt lat="38.15841780" lon="-2.32366799">
        <ele>1229.0000</ele>
        <time>2018-10-12T17:47:26Z</time>
      </trkpt>
      <trkpt lat="38.15842651" lon="-2.32345844">
        <ele>1228.0000</ele>
        <time>2018-10-12T17:47:27Z</time>
      </trkpt>
      <trkpt lat="38.15843439" lon="-2.32324630">
        <ele>1225.0000</ele>
        <time>2018-10-12T17:47:28Z</time>
      </trkpt>
      <trkpt lat="38.15844076" lon="-2.32302878">
        <ele>1224.0000</ele>
        <time>2018-10-12T17:47:29Z</time>
      </trkpt>
      <trkpt lat="38.15844789" lon="-2.32280868">
        <ele>1222.0000</ele>
        <time>2018-10-12T17:47:30Z</time>
      </trkpt>
      <trkpt lat="38.15845476" lon="-2.32258723">
        <ele>1220.0000</ele>
        <time>2018-10-12T17:47:31Z</time>
      </trkpt>
      <trkpt lat="38.15846105" lon="-2.32236477">
        <ele>1218.0000</ele>
        <time>2018-10-12T17:47:32Z</time>
      </trkpt>
      <trkpt lat="38.15846951" lon="-2.32214407">
        <ele>1216.0000</ele>
        <time>2018-10-12T17:47:33Z</time>
      </trkpt>
      <trkpt lat="38.15847915" lon="-2.32192564">
        <ele>1215.0000</ele>
        <time>2018-10-12T17:47:34Z</time>
      </trkpt>
      <trkpt lat="38.15848829" lon="-2.32170428">
        <ele>1213.0000</ele>
        <time>2018-10-12T17:47:35Z</time>
      </trkpt>
      <trkpt lat="38.15849935" lon="-2.32148216">
        <ele>1211.0000</ele>
        <time>2018-10-12T17:47:36Z</time>
      </trkpt>
      <trkpt lat="38.15851201" lon="-2.32125987">
        <ele>1209.0000</ele>
        <time>2018-10-12T17:47:37Z</time>
      </trkpt>
      <trkpt lat="38.15852299" lon="-2.32103842">
        <ele>1207.0000</ele>
        <time>2018-10-12T17:47:38Z</time>
      </trkpt>
      <trkpt lat="38.15852785" lon="-2.32081546">
        <ele>1205.0000</ele>
        <time>2018-10-12T17:47:39Z</time>
      </trkpt>
      <trkpt lat="38.15852986" lon="-2.32059409">
        <ele>1203.0000</ele>
        <time>2018-10-12T17:47:40Z</time>
      </trkpt>
      <trkpt lat="38.15852810" lon="-2.32037030">
        <ele>1202.0000</ele>
        <time>2018-10-12T17:47:41Z</time>
      </trkpt>
      <trkpt lat="38.15852508" lon="-2.32014642">
        <ele>1200.0000</ele>
        <time>2018-10-12T17:47:42Z</time>
      </trkpt>
      <trkpt lat="38.15851796" lon="-2.31992061">
        <ele>1198.0000</ele>
        <time>2018-10-12T17:47:43Z</time>
      </trkpt>
      <trkpt lat="38.15850706" lon="-2.31969882">
        <ele>1196.0000</ele>
        <time>2018-10-12T17:47:44Z</time>
      </trkpt>
      <trkpt lat="38.15849080" lon="-2.31948349">
        <ele>1195.0000</ele>
        <time>2018-10-12T17:47:45Z</time>
      </trkpt>
      <trkpt lat="38.15847119" lon="-2.31927302">
        <ele>1193.0000</ele>
        <time>2018-10-12T17:47:46Z</time>
      </trkpt>
      <trkpt lat="38.15844663" lon="-2.31906557">
        <ele>1192.0000</ele>
        <time>2018-10-12T17:47:47Z</time>
      </trkpt>
      <trkpt lat="38.15842123" lon="-2.31886357">
        <ele>1189.0000</ele>
        <time>2018-10-12T17:47:48Z</time>
      </trkpt>
      <trkpt lat="38.15839433" lon="-2.31866517">
        <ele>1188.0000</ele>
        <time>2018-10-12T17:47:49Z</time>
      </trkpt>
      <trkpt lat="38.15836633" lon="-2.31846970">
        <ele>1186.0000</ele>
        <time>2018-10-12T17:47:50Z</time>
      </trkpt>
      <trkpt lat="38.15833699" lon="-2.31827532">
        <ele>1183.0000</ele>
        <time>2018-10-12T17:47:51Z</time>
      </trkpt>
      <trkpt lat="38.15830707" lon="-2.31808028">
        <ele>1181.0000</ele>
        <time>2018-10-12T17:47:52Z</time>
      </trkpt>
      <trkpt lat="38.15827832" lon="-2.31788640">
        <ele>1179.0000</ele>
        <time>2018-10-12T17:47:53Z</time>
      </trkpt>
      <trkpt lat="38.15824974" lon="-2.31769362">
        <ele>1178.0000</ele>
        <time>2018-10-12T17:47:54Z</time>
      </trkpt>
      <trkpt lat="38.15822141" lon="-2.31750084">
        <ele>1176.0000</ele>
        <time>2018-10-12T17:47:55Z</time>
      </trkpt>
      <trkpt lat="38.15819241" lon="-2.31730939">
        <ele>1175.0000</ele>
        <time>2018-10-12T17:47:56Z</time>
      </trkpt>
      <trkpt lat="38.15813776" lon="-2.31692693">
        <ele>1173.0000</ele>
        <time>2018-10-12T17:47:58Z</time>
      </trkpt>
      <trkpt lat="38.15808914" lon="-2.31654630">
        <ele>1172.0000</ele>
        <time>2018-10-12T17:48:00Z</time>
      </trkpt>
      <trkpt lat="38.15806425" lon="-2.31635880">
        <ele>1171.0000</ele>
        <time>2018-10-12T17:48:01Z</time>
      </trkpt>
      <trkpt lat="38.15799786" lon="-2.31599260">
        <ele>1169.0000</ele>
        <time>2018-10-12T17:48:03Z</time>
      </trkpt>
      <trkpt lat="38.15794799" lon="-2.31581482">
        <ele>1167.0000</ele>
        <time>2018-10-12T17:48:04Z</time>
      </trkpt>
      <trkpt lat="38.15788638" lon="-2.31564542">
        <ele>1166.0000</ele>
        <time>2018-10-12T17:48:05Z</time>
      </trkpt>
      <trkpt lat="38.15781497" lon="-2.31548524">
        <ele>1165.0000</ele>
        <time>2018-10-12T17:48:06Z</time>
      </trkpt>
      <trkpt lat="38.15773425" lon="-2.31533420">
        <ele>1164.0000</ele>
        <time>2018-10-12T17:48:07Z</time>
      </trkpt>
      <trkpt lat="38.15764348" lon="-2.31519355">
        <ele>1162.0000</ele>
        <time>2018-10-12T17:48:08Z</time>
      </trkpt>
      <trkpt lat="38.15754331" lon="-2.31506296">
        <ele>1160.0000</ele>
        <time>2018-10-12T17:48:09Z</time>
      </trkpt>
      <trkpt lat="38.15743527" lon="-2.31494419">
        <ele>1159.0000</ele>
        <time>2018-10-12T17:48:10Z</time>
      </trkpt>
      <trkpt lat="38.15732220" lon="-2.31483430">
        <ele>1158.0000</ele>
        <time>2018-10-12T17:48:11Z</time>
      </trkpt>
      <trkpt lat="38.15720527" lon="-2.31473355">
        <ele>1156.0000</ele>
        <time>2018-10-12T17:48:12Z</time>
      </trkpt>
      <trkpt lat="38.15708482" lon="-2.31464101">
        <ele>1154.0000</ele>
        <time>2018-10-12T17:48:13Z</time>
      </trkpt>
      <trkpt lat="38.15696178" lon="-2.31455217">
        <ele>1152.0000</ele>
        <time>2018-10-12T17:48:14Z</time>
      </trkpt>
      <trkpt lat="38.15683697" lon="-2.31446282">
        <ele>1151.0000</ele>
        <time>2018-10-12T17:48:15Z</time>
      </trkpt>
      <trkpt lat="38.15671116" lon="-2.31437254">
        <ele>1150.0000</ele>
        <time>2018-10-12T17:48:16Z</time>
      </trkpt>
      <trkpt lat="38.15658358" lon="-2.31428185">
        <ele>1148.0000</ele>
        <time>2018-10-12T17:48:17Z</time>
      </trkpt>
      <trkpt lat="38.15645459" lon="-2.31419107">
        <ele>1146.0000</ele>
        <time>2018-10-12T17:48:18Z</time>
      </trkpt>
      <trkpt lat="38.15632458" lon="-2.31409871">
        <ele>1145.0000</ele>
        <time>2018-10-12T17:48:19Z</time>
      </trkpt>
      <trkpt lat="38.15606030" lon="-2.31390927">
        <ele>1143.0000</ele>
        <time>2018-10-12T17:48:21Z</time>
      </trkpt>
      <trkpt lat="38.15592627" lon="-2.31381288">
        <ele>1141.0000</ele>
        <time>2018-10-12T17:48:22Z</time>
      </trkpt>
      <trkpt lat="38.15579158" lon="-2.31371356">
        <ele>1139.0000</ele>
        <time>2018-10-12T17:48:23Z</time>
      </trkpt>
      <trkpt lat="38.15565629" lon="-2.31361247">
        <ele>1138.0000</ele>
        <time>2018-10-12T17:48:24Z</time>
      </trkpt>
      <trkpt lat="38.15551967" lon="-2.31351189">
        <ele>1136.0000</ele>
        <time>2018-10-12T17:48:25Z</time>
      </trkpt>
      <trkpt lat="38.15538153" lon="-2.31341189">
        <ele>1135.0000</ele>
        <time>2018-10-12T17:48:26Z</time>
      </trkpt>
      <trkpt lat="38.15524374" lon="-2.31330980">
        <ele>1133.0000</ele>
        <time>2018-10-12T17:48:27Z</time>
      </trkpt>
      <trkpt lat="38.15510745" lon="-2.31320293">
        <ele>1132.0000</ele>
        <time>2018-10-12T17:48:28Z</time>
      </trkpt>
      <trkpt lat="38.15497426" lon="-2.31308927">
        <ele>1130.0000</ele>
        <time>2018-10-12T17:48:29Z</time>
      </trkpt>
      <trkpt lat="38.15484518" lon="-2.31296639">
        <ele>1128.0000</ele>
        <time>2018-10-12T17:48:30Z</time>
      </trkpt>
      <trkpt lat="38.15472104" lon="-2.31283647">
        <ele>1126.0000</ele>
        <time>2018-10-12T17:48:31Z</time>
      </trkpt>
      <trkpt lat="38.15460051" lon="-2.31270345">
        <ele>1125.0000</ele>
        <time>2018-10-12T17:48:32Z</time>
      </trkpt>
      <trkpt lat="38.15448191" lon="-2.31257286">
        <ele>1123.0000</ele>
        <time>2018-10-12T17:48:33Z</time>
      </trkpt>
      <trkpt lat="38.15436489" lon="-2.31244680">
        <ele>1122.0000</ele>
        <time>2018-10-12T17:48:34Z</time>
      </trkpt>
      <trkpt lat="38.15424880" lon="-2.31232568">
        <ele>1120.0000</ele>
        <time>2018-10-12T17:48:35Z</time>
      </trkpt>
      <trkpt lat="38.15413355" lon="-2.31221110">
        <ele>1119.0000</ele>
        <time>2018-10-12T17:48:36Z</time>
      </trkpt>
      <trkpt lat="38.15401864" lon="-2.31210364">
        <ele>1117.0000</ele>
        <time>2018-10-12T17:48:37Z</time>
      </trkpt>
      <trkpt lat="38.15379191" lon="-2.31190701">
        <ele>1116.0000</ele>
        <time>2018-10-12T17:48:39Z</time>
      </trkpt>
      <trkpt lat="38.15344515" lon="-2.31165194">
        <ele>1116.0000</ele>
        <time>2018-10-12T17:48:42Z</time>
      </trkpt>
      <trkpt lat="38.15308774" lon="-2.31144885">
        <ele>1115.0000</ele>
        <time>2018-10-12T17:48:45Z</time>
      </trkpt>
      <trkpt lat="38.15285121" lon="-2.31135179">
        <ele>1115.0000</ele>
        <time>2018-10-12T17:48:47Z</time>
      </trkpt>
      <trkpt lat="38.15261115" lon="-2.31132790">
        <ele>1114.0000</ele>
        <time>2018-10-12T17:48:49Z</time>
      </trkpt>
      <trkpt lat="38.15215199" lon="-2.31153426">
        <ele>1114.0000</ele>
        <time>2018-10-12T17:48:53Z</time>
      </trkpt>
      <trkpt lat="38.15204612" lon="-2.31162688">
        <ele>1114.0000</ele>
        <time>2018-10-12T17:48:54Z</time>
      </trkpt>
      <trkpt lat="38.15182987" lon="-2.31183299">
        <ele>1112.0000</ele>
        <time>2018-10-12T17:48:56Z</time>
      </trkpt>
      <trkpt lat="38.15171948" lon="-2.31193886">
        <ele>1111.0000</ele>
        <time>2018-10-12T17:48:57Z</time>
      </trkpt>
      <trkpt lat="38.15160758" lon="-2.31204070">
        <ele>1109.0000</ele>
        <time>2018-10-12T17:48:58Z</time>
      </trkpt>
      <trkpt lat="38.15149292" lon="-2.31214229">
        <ele>1108.0000</ele>
        <time>2018-10-12T17:48:59Z</time>
      </trkpt>
      <trkpt lat="38.15137758" lon="-2.31224287">
        <ele>1107.0000</ele>
        <time>2018-10-12T17:49:00Z</time>
      </trkpt>
      <trkpt lat="38.15126434" lon="-2.31234001">
        <ele>1106.0000</ele>
        <time>2018-10-12T17:49:01Z</time>
      </trkpt>
      <trkpt lat="38.15115010" lon="-2.31242953">
        <ele>1105.0000</ele>
        <time>2018-10-12T17:49:02Z</time>
      </trkpt>
      <trkpt lat="38.15103258" lon="-2.31250640">
        <ele>1103.0000</ele>
        <time>2018-10-12T17:49:03Z</time>
      </trkpt>
      <trkpt lat="38.15090702" lon="-2.31256909">
        <ele>1102.0000</ele>
        <time>2018-10-12T17:49:04Z</time>
      </trkpt>
      <trkpt lat="38.15078180" lon="-2.31261888">
        <ele>1101.0000</ele>
        <time>2018-10-12T17:49:05Z</time>
      </trkpt>
      <trkpt lat="38.15065808" lon="-2.31266322">
        <ele>1099.0000</ele>
        <time>2018-10-12T17:49:06Z</time>
      </trkpt>
      <trkpt lat="38.15053923" lon="-2.31270940">
        <ele>1098.0000</ele>
        <time>2018-10-12T17:49:07Z</time>
      </trkpt>
      <trkpt lat="38.15042448" lon="-2.31276657">
        <ele>1097.0000</ele>
        <time>2018-10-12T17:49:08Z</time>
      </trkpt>
      <trkpt lat="38.15031660" lon="-2.31283279">
        <ele>1096.0000</ele>
        <time>2018-10-12T17:49:09Z</time>
      </trkpt>
      <trkpt lat="38.15012206" lon="-2.31298928">
        <ele>1094.0000</ele>
        <time>2018-10-12T17:49:11Z</time>
      </trkpt>
      <trkpt lat="38.14994327" lon="-2.31314300">
        <ele>1093.0000</ele>
        <time>2018-10-12T17:49:13Z</time>
      </trkpt>
      <trkpt lat="38.14972987" lon="-2.31323185">
        <ele>1091.0000</ele>
        <time>2018-10-12T17:49:15Z</time>
      </trkpt>
      <trkpt lat="38.14948428" lon="-2.31324719">
        <ele>1090.0000</ele>
        <time>2018-10-12T17:49:17Z</time>
      </trkpt>
      <trkpt lat="38.14923953" lon="-2.31319287">
        <ele>1088.0000</ele>
        <time>2018-10-12T17:49:19Z</time>
      </trkpt>
      <trkpt lat="38.14902453" lon="-2.31305985">
        <ele>1087.0000</ele>
        <time>2018-10-12T17:49:21Z</time>
      </trkpt>
      <trkpt lat="38.14892051" lon="-2.31297997">
        <ele>1085.0000</ele>
        <time>2018-10-12T17:49:22Z</time>
      </trkpt>
      <trkpt lat="38.14881700" lon="-2.31288953">
        <ele>1084.0000</ele>
        <time>2018-10-12T17:49:23Z</time>
      </trkpt>
      <trkpt lat="38.14871574" lon="-2.31279373">
        <ele>1083.0000</ele>
        <time>2018-10-12T17:49:24Z</time>
      </trkpt>
      <trkpt lat="38.14861373" lon="-2.31270178">
        <ele>1081.0000</ele>
        <time>2018-10-12T17:49:25Z</time>
      </trkpt>
      <trkpt lat="38.14851290" lon="-2.31262701">
        <ele>1080.0000</ele>
        <time>2018-10-12T17:49:26Z</time>
      </trkpt>
      <trkpt lat="38.14840771" lon="-2.31256674">
        <ele>1078.0000</ele>
        <time>2018-10-12T17:49:27Z</time>
      </trkpt>
      <trkpt lat="38.14830117" lon="-2.31251788">
        <ele>1076.0000</ele>
        <time>2018-10-12T17:49:28Z</time>
      </trkpt>
      <trkpt lat="38.14819456" lon="-2.31247530">
        <ele>1074.0000</ele>
        <time>2018-10-12T17:49:29Z</time>
      </trkpt>
      <trkpt lat="38.14809028" lon="-2.31243129">
        <ele>1072.0000</ele>
        <time>2018-10-12T17:49:30Z</time>
      </trkpt>
      <trkpt lat="38.14798861" lon="-2.31238142">
        <ele>1071.0000</ele>
        <time>2018-10-12T17:49:31Z</time>
      </trkpt>
      <trkpt lat="38.14789566" lon="-2.31232761">
        <ele>1067.0000</ele>
        <time>2018-10-12T17:49:32Z</time>
      </trkpt>
      <trkpt lat="38.14781519" lon="-2.31227380">
        <ele>1066.0000</ele>
        <time>2018-10-12T17:49:33Z</time>
      </trkpt>
      <trkpt lat="38.14774621" lon="-2.31222359">
        <ele>1065.0000</ele>
        <time>2018-10-12T17:49:34Z</time>
      </trkpt>
      <trkpt lat="38.14768217" lon="-2.31218227">
        <ele>1064.0000</ele>
        <time>2018-10-12T17:49:35Z</time>
      </trkpt>
      <trkpt lat="38.14762350" lon="-2.31215888">
        <ele>1063.0000</ele>
        <time>2018-10-12T17:49:36Z</time>
      </trkpt>
      <trkpt lat="38.14756466" lon="-2.31214622">
        <ele>1061.0000</ele>
        <time>2018-10-12T17:49:37Z</time>
      </trkpt>
      <trkpt lat="38.14746567" lon="-2.31217481">
        <ele>1060.0000</ele>
        <time>2018-10-12T17:49:39Z</time>
      </trkpt>
      <trkpt lat="38.14741889" lon="-2.31248762">
        <ele>1059.0000</ele>
        <time>2018-10-12T17:49:45Z</time>
      </trkpt>
      <trkpt lat="38.14741563" lon="-2.31249541">
        <ele>1059.0000</ele>
        <time>2018-10-12T17:49:47Z</time>
      </trkpt>
      <trkpt lat="38.14740682" lon="-2.31252450">
        <ele>1060.0000</ele>
        <time>2018-10-12T17:50:55Z</time>
      </trkpt>
      <trkpt lat="38.14739970" lon="-2.31254411">
        <ele>1060.0000</ele>
        <time>2018-10-12T17:50:56Z</time>
      </trkpt>
      <trkpt lat="38.14734932" lon="-2.31286254">
        <ele>1060.0000</ele>
        <time>2018-10-12T17:51:04Z</time>
      </trkpt>
      <trkpt lat="38.14728076" lon="-2.31333243">
        <ele>1059.0000</ele>
        <time>2018-10-12T17:51:12Z</time>
      </trkpt>
      <trkpt lat="38.14715512" lon="-2.31397440">
        <ele>1059.0000</ele>
        <time>2018-10-12T17:51:22Z</time>
      </trkpt>
      <trkpt lat="38.14692830" lon="-2.31459986">
        <ele>1059.0000</ele>
        <time>2018-10-12T17:51:32Z</time>
      </trkpt>
      <trkpt lat="38.14688480" lon="-2.31480320">
        <ele>1059.0000</ele>
        <time>2018-10-12T17:51:35Z</time>
      </trkpt>
      <trkpt lat="38.14693710" lon="-2.31514175">
        <ele>1059.0000</ele>
        <time>2018-10-12T17:51:40Z</time>
      </trkpt>
      <trkpt lat="38.14716828" lon="-2.31581440">
        <ele>1060.0000</ele>
        <time>2018-10-12T17:51:52Z</time>
      </trkpt>
      <trkpt lat="38.14719862" lon="-2.31595052">
        <ele>1061.0000</ele>
        <time>2018-10-12T17:51:55Z</time>
      </trkpt>
      <trkpt lat="38.14723399" lon="-2.31619644">
        <ele>1062.0000</ele>
        <time>2018-10-12T17:52:01Z</time>
      </trkpt>
      <trkpt lat="38.14722519" lon="-2.31642225">
        <ele>1063.0000</ele>
        <time>2018-10-12T17:52:07Z</time>
      </trkpt>
      <trkpt lat="38.14718353" lon="-2.31669072">
        <ele>1064.0000</ele>
        <time>2018-10-12T17:52:14Z</time>
      </trkpt>
      <trkpt lat="38.14714305" lon="-2.31698091">
        <ele>1066.0000</ele>
        <time>2018-10-12T17:52:21Z</time>
      </trkpt>
      <trkpt lat="38.14710357" lon="-2.31731752">
        <ele>1067.0000</ele>
        <time>2018-10-12T17:52:29Z</time>
      </trkpt>
      <trkpt lat="38.14708353" lon="-2.31801507">
        <ele>1067.0000</ele>
        <time>2018-10-12T17:52:42Z</time>
      </trkpt>
      <trkpt lat="38.14707817" lon="-2.31848319">
        <ele>1068.0000</ele>
        <time>2018-10-12T17:52:50Z</time>
      </trkpt>
      <trkpt lat="38.14707683" lon="-2.31859719">
        <ele>1068.0000</ele>
        <time>2018-10-12T17:52:52Z</time>
      </trkpt>
      <trkpt lat="38.14707507" lon="-2.31892014">
        <ele>1068.0000</ele>
        <time>2018-10-12T17:52:58Z</time>
      </trkpt>
      <trkpt lat="38.14707775" lon="-2.31907781">
        <ele>1069.0000</ele>
        <time>2018-10-12T17:53:01Z</time>
      </trkpt>
      <trkpt lat="38.14708379" lon="-2.31934645">
        <ele>1070.0000</ele>
        <time>2018-10-12T17:53:06Z</time>
      </trkpt>
      <trkpt lat="38.14714497" lon="-2.31984861">
        <ele>1070.0000</ele>
        <time>2018-10-12T17:53:14Z</time>
      </trkpt>
      <trkpt lat="38.14713039" lon="-2.32008950">
        <ele>1070.0000</ele>
        <time>2018-10-12T17:53:17Z</time>
      </trkpt>
      <trkpt lat="38.14709544" lon="-2.32045185">
        <ele>1070.0000</ele>
        <time>2018-10-12T17:53:21Z</time>
      </trkpt>
      <trkpt lat="38.14711413" lon="-2.32064438">
        <ele>1069.0000</ele>
        <time>2018-10-12T17:53:23Z</time>
      </trkpt>
      <trkpt lat="38.14715067" lon="-2.32084379">
        <ele>1068.0000</ele>
        <time>2018-10-12T17:53:25Z</time>
      </trkpt>
      <trkpt lat="38.14717146" lon="-2.32094588">
        <ele>1068.0000</ele>
        <time>2018-10-12T17:53:26Z</time>
      </trkpt>
      <trkpt lat="38.14720055" lon="-2.32115132">
        <ele>1067.0000</ele>
        <time>2018-10-12T17:53:28Z</time>
      </trkpt>
      <trkpt lat="38.14720214" lon="-2.32125249">
        <ele>1067.0000</ele>
        <time>2018-10-12T17:53:29Z</time>
      </trkpt>
      <trkpt lat="38.14720088" lon="-2.32145022">
        <ele>1065.0000</ele>
        <time>2018-10-12T17:53:31Z</time>
      </trkpt>
      <trkpt lat="38.14716576" lon="-2.32172875">
        <ele>1064.0000</ele>
        <time>2018-10-12T17:53:34Z</time>
      </trkpt>
      <trkpt lat="38.14704003" lon="-2.32219655">
        <ele>1064.0000</ele>
        <time>2018-10-12T17:53:40Z</time>
      </trkpt>
      <trkpt lat="38.14699343" lon="-2.32232739">
        <ele>1064.0000</ele>
        <time>2018-10-12T17:53:42Z</time>
      </trkpt>
      <trkpt lat="38.14675463" lon="-2.32276995">
        <ele>1065.0000</ele>
        <time>2018-10-12T17:53:50Z</time>
      </trkpt>
      <trkpt lat="38.14661943" lon="-2.32295352">
        <ele>1066.0000</ele>
        <time>2018-10-12T17:53:54Z</time>
      </trkpt>
      <trkpt lat="38.14648658" lon="-2.32314722">
        <ele>1067.0000</ele>
        <time>2018-10-12T17:53:59Z</time>
      </trkpt>
      <trkpt lat="38.14636370" lon="-2.32330740">
        <ele>1068.0000</ele>
        <time>2018-10-12T17:54:04Z</time>
      </trkpt>
      <trkpt lat="38.14588517" lon="-2.32363211">
        <ele>1069.0000</ele>
        <time>2018-10-12T17:54:15Z</time>
      </trkpt>
      <trkpt lat="38.14549525" lon="-2.32370403">
        <ele>1069.0000</ele>
        <time>2018-10-12T17:54:21Z</time>
      </trkpt>
      <trkpt lat="38.14520398" lon="-2.32366832">
        <ele>1067.0000</ele>
        <time>2018-10-12T17:54:25Z</time>
      </trkpt>
      <trkpt lat="38.14506844" lon="-2.32365667">
        <ele>1066.0000</ele>
        <time>2018-10-12T17:54:27Z</time>
      </trkpt>
      <trkpt lat="38.14478689" lon="-2.32359557">
        <ele>1066.0000</ele>
        <time>2018-10-12T17:54:32Z</time>
      </trkpt>
      <trkpt lat="38.14457986" lon="-2.32351946">
        <ele>1066.0000</ele>
        <time>2018-10-12T17:54:36Z</time>
      </trkpt>
      <trkpt lat="38.14435204" lon="-2.32344469">
        <ele>1067.0000</ele>
        <time>2018-10-12T17:54:41Z</time>
      </trkpt>
      <trkpt lat="38.14426152" lon="-2.32341980">
        <ele>1068.0000</ele>
        <time>2018-10-12T17:54:43Z</time>
      </trkpt>
      <trkpt lat="38.14409011" lon="-2.32337345">
        <ele>1069.0000</ele>
        <time>2018-10-12T17:54:47Z</time>
      </trkpt>
      <trkpt lat="38.14400578" lon="-2.32336549">
        <ele>1069.0000</ele>
        <time>2018-10-12T17:54:49Z</time>
      </trkpt>
      <trkpt lat="38.14383069" lon="-2.32338393">
        <ele>1069.0000</ele>
        <time>2018-10-12T17:54:53Z</time>
      </trkpt>
      <trkpt lat="38.14379104" lon="-2.32340329">
        <ele>1070.0000</ele>
        <time>2018-10-12T17:54:54Z</time>
      </trkpt>
      <trkpt lat="38.14361326" lon="-2.32372893">
        <ele>1071.0000</ele>
        <time>2018-10-12T17:55:01Z</time>
      </trkpt>
      <trkpt lat="38.14359867" lon="-2.32417996">
        <ele>1071.0000</ele>
        <time>2018-10-12T17:55:08Z</time>
      </trkpt>
      <trkpt lat="38.14362097" lon="-2.32431013">
        <ele>1071.0000</ele>
        <time>2018-10-12T17:55:10Z</time>
      </trkpt>
      <trkpt lat="38.14386094" lon="-2.32495872">
        <ele>1072.0000</ele>
        <time>2018-10-12T17:55:22Z</time>
      </trkpt>
      <trkpt lat="38.14397980" lon="-2.32523499">
        <ele>1073.0000</ele>
        <time>2018-10-12T17:55:27Z</time>
      </trkpt>
      <trkpt lat="38.14414635" lon="-2.32546322">
        <ele>1073.0000</ele>
        <time>2018-10-12T17:55:32Z</time>
      </trkpt>
      <trkpt lat="38.14418382" lon="-2.32549290">
        <ele>1073.0000</ele>
        <time>2018-10-12T17:55:33Z</time>
      </trkpt>
      <trkpt lat="38.14433444" lon="-2.32565877">
        <ele>1074.0000</ele>
        <time>2018-10-12T17:55:38Z</time>
      </trkpt>
      <trkpt lat="38.14440267" lon="-2.32583664">
        <ele>1076.0000</ele>
        <time>2018-10-12T17:55:43Z</time>
      </trkpt>
      <trkpt lat="38.14448372" lon="-2.32612657">
        <ele>1077.0000</ele>
        <time>2018-10-12T17:55:49Z</time>
      </trkpt>
      <trkpt lat="38.14450333" lon="-2.32632765">
        <ele>1078.0000</ele>
        <time>2018-10-12T17:55:54Z</time>
      </trkpt>
      <trkpt lat="38.14454005" lon="-2.32651549">
        <ele>1079.0000</ele>
        <time>2018-10-12T17:55:59Z</time>
      </trkpt>
      <trkpt lat="38.14448758" lon="-2.32676099">
        <ele>1080.0000</ele>
        <time>2018-10-12T17:56:05Z</time>
      </trkpt>
      <trkpt lat="38.14446838" lon="-2.32692712">
        <ele>1082.0000</ele>
        <time>2018-10-12T17:56:10Z</time>
      </trkpt>
      <trkpt lat="38.14446704" lon="-2.32705822">
        <ele>1083.0000</ele>
        <time>2018-10-12T17:56:14Z</time>
      </trkpt>
      <trkpt lat="38.14448615" lon="-2.32731127">
        <ele>1084.0000</ele>
        <time>2018-10-12T17:56:21Z</time>
      </trkpt>
      <trkpt lat="38.14455756" lon="-2.32746625">
        <ele>1085.0000</ele>
        <time>2018-10-12T17:56:26Z</time>
      </trkpt>
      <trkpt lat="38.14462110" lon="-2.32754613">
        <ele>1086.0000</ele>
        <time>2018-10-12T17:56:29Z</time>
      </trkpt>
      <trkpt lat="38.14482520" lon="-2.32782281">
        <ele>1088.0000</ele>
        <time>2018-10-12T17:56:38Z</time>
      </trkpt>
      <trkpt lat="38.14497364" lon="-2.32800546">
        <ele>1088.0000</ele>
        <time>2018-10-12T17:56:43Z</time>
      </trkpt>
      <trkpt lat="38.14513038" lon="-2.32827468">
        <ele>1088.0000</ele>
        <time>2018-10-12T17:56:48Z</time>
      </trkpt>
      <trkpt lat="38.14515167" lon="-2.32865547">
        <ele>1087.0000</ele>
        <time>2018-10-12T17:56:52Z</time>
      </trkpt>
      <trkpt lat="38.14514606" lon="-2.32876603">
        <ele>1087.0000</ele>
        <time>2018-10-12T17:56:53Z</time>
      </trkpt>
      <trkpt lat="38.14514815" lon="-2.32886795">
        <ele>1086.0000</ele>
        <time>2018-10-12T17:56:54Z</time>
      </trkpt>
      <trkpt lat="38.14514421" lon="-2.32908739">
        <ele>1084.0000</ele>
        <time>2018-10-12T17:56:56Z</time>
      </trkpt>
      <trkpt lat="38.14513013" lon="-2.32921488">
        <ele>1083.0000</ele>
        <time>2018-10-12T17:56:57Z</time>
      </trkpt>
      <trkpt lat="38.14511379" lon="-2.32934321">
        <ele>1082.0000</ele>
        <time>2018-10-12T17:56:58Z</time>
      </trkpt>
      <trkpt lat="38.14508604" lon="-2.32958042">
        <ele>1081.0000</ele>
        <time>2018-10-12T17:57:00Z</time>
      </trkpt>
      <trkpt lat="38.14506224" lon="-2.32979927">
        <ele>1079.0000</ele>
        <time>2018-10-12T17:57:02Z</time>
      </trkpt>
      <trkpt lat="38.14502879" lon="-2.33018433">
        <ele>1079.0000</ele>
        <time>2018-10-12T17:57:06Z</time>
      </trkpt>
      <trkpt lat="38.14500072" lon="-2.33053076">
        <ele>1079.0000</ele>
        <time>2018-10-12T17:57:10Z</time>
      </trkpt>
      <trkpt lat="38.14498797" lon="-2.33069454">
        <ele>1079.0000</ele>
        <time>2018-10-12T17:57:12Z</time>
      </trkpt>
      <trkpt lat="38.14497951" lon="-2.33092697">
        <ele>1080.0000</ele>
        <time>2018-10-12T17:57:15Z</time>
      </trkpt>
      <trkpt lat="38.14498110" lon="-2.33100249">
        <ele>1080.0000</ele>
        <time>2018-10-12T17:57:16Z</time>
      </trkpt>
      <trkpt lat="38.14504003" lon="-2.33135445">
        <ele>1081.0000</ele>
        <time>2018-10-12T17:57:21Z</time>
      </trkpt>
      <trkpt lat="38.14515670" lon="-2.33157707">
        <ele>1081.0000</ele>
        <time>2018-10-12T17:57:25Z</time>
      </trkpt>
      <trkpt lat="38.14532342" lon="-2.33180807">
        <ele>1082.0000</ele>
        <time>2018-10-12T17:57:30Z</time>
      </trkpt>
      <trkpt lat="38.14535602" lon="-2.33185166">
        <ele>1082.0000</ele>
        <time>2018-10-12T17:57:31Z</time>
      </trkpt>
      <trkpt lat="38.14548066" lon="-2.33202567">
        <ele>1083.0000</ele>
        <time>2018-10-12T17:57:35Z</time>
      </trkpt>
      <trkpt lat="38.14554378" lon="-2.33210655">
        <ele>1084.0000</ele>
        <time>2018-10-12T17:57:37Z</time>
      </trkpt>
      <trkpt lat="38.14572625" lon="-2.33234829">
        <ele>1084.0000</ele>
        <time>2018-10-12T17:57:43Z</time>
      </trkpt>
      <trkpt lat="38.14581393" lon="-2.33246052">
        <ele>1085.0000</ele>
        <time>2018-10-12T17:57:46Z</time>
      </trkpt>
      <trkpt lat="38.14600654" lon="-2.33271785">
        <ele>1086.0000</ele>
        <time>2018-10-12T17:57:53Z</time>
      </trkpt>
      <trkpt lat="38.14615717" lon="-2.33296721">
        <ele>1087.0000</ele>
        <time>2018-10-12T17:57:59Z</time>
      </trkpt>
      <trkpt lat="38.14637828" lon="-2.33361320">
        <ele>1088.0000</ele>
        <time>2018-10-12T17:58:12Z</time>
      </trkpt>
      <trkpt lat="38.14641407" lon="-2.33371437">
        <ele>1088.0000</ele>
        <time>2018-10-12T17:58:14Z</time>
      </trkpt>
      <trkpt lat="38.14645959" lon="-2.33387706">
        <ele>1088.0000</ele>
        <time>2018-10-12T17:58:17Z</time>
      </trkpt>
      <trkpt lat="38.14656335" lon="-2.33417395">
        <ele>1088.0000</ele>
        <time>2018-10-12T17:58:23Z</time>
      </trkpt>
      <trkpt lat="38.14671188" lon="-2.33444628">
        <ele>1089.0000</ele>
        <time>2018-10-12T17:58:28Z</time>
      </trkpt>
      <trkpt lat="38.14682378" lon="-2.33462096">
        <ele>1089.0000</ele>
        <time>2018-10-12T17:58:31Z</time>
      </trkpt>
      <trkpt lat="38.14693098" lon="-2.33479723">
        <ele>1089.0000</ele>
        <time>2018-10-12T17:58:34Z</time>
      </trkpt>
      <trkpt lat="38.14726048" lon="-2.33533593">
        <ele>1090.0000</ele>
        <time>2018-10-12T17:58:44Z</time>
      </trkpt>
      <trkpt lat="38.14740909" lon="-2.33560432">
        <ele>1091.0000</ele>
        <time>2018-10-12T17:58:49Z</time>
      </trkpt>
      <trkpt lat="38.14758569" lon="-2.33608745">
        <ele>1092.0000</ele>
        <time>2018-10-12T17:58:57Z</time>
      </trkpt>
      <trkpt lat="38.14770639" lon="-2.33639943">
        <ele>1093.0000</ele>
        <time>2018-10-12T17:59:02Z</time>
      </trkpt>
      <trkpt lat="38.14780614" lon="-2.33662339">
        <ele>1095.0000</ele>
        <time>2018-10-12T17:59:06Z</time>
      </trkpt>
      <trkpt lat="38.14795324" lon="-2.33690410">
        <ele>1096.0000</ele>
        <time>2018-10-12T17:59:11Z</time>
      </trkpt>
      <trkpt lat="38.14823739" lon="-2.33748782">
        <ele>1097.0000</ele>
        <time>2018-10-12T17:59:21Z</time>
      </trkpt>
      <trkpt lat="38.14835121" lon="-2.33794354">
        <ele>1097.0000</ele>
        <time>2018-10-12T17:59:28Z</time>
      </trkpt>
      <trkpt lat="38.14841165" lon="-2.33839089">
        <ele>1097.0000</ele>
        <time>2018-10-12T17:59:35Z</time>
      </trkpt>
      <trkpt lat="38.14843906" lon="-2.33869196">
        <ele>1097.0000</ele>
        <time>2018-10-12T17:59:40Z</time>
      </trkpt>
      <trkpt lat="38.14844383" lon="-2.33906588">
        <ele>1097.0000</ele>
        <time>2018-10-12T17:59:46Z</time>
      </trkpt>
      <trkpt lat="38.14845389" lon="-2.33935799">
        <ele>1098.0000</ele>
        <time>2018-10-12T17:59:51Z</time>
      </trkpt>
      <trkpt lat="38.14846160" lon="-2.33941851">
        <ele>1098.0000</ele>
        <time>2018-10-12T17:59:52Z</time>
      </trkpt>
      <trkpt lat="38.14850619" lon="-2.33984297">
        <ele>1099.0000</ele>
        <time>2018-10-12T17:59:59Z</time>
      </trkpt>
      <trkpt lat="38.14856017" lon="-2.34059172">
        <ele>1099.0000</ele>
        <time>2018-10-12T18:00:10Z</time>
      </trkpt>
      <trkpt lat="38.14854978" lon="-2.34079649">
        <ele>1099.0000</ele>
        <time>2018-10-12T18:00:13Z</time>
      </trkpt>
      <trkpt lat="38.14853981" lon="-2.34093639">
        <ele>1099.0000</ele>
        <time>2018-10-12T18:00:15Z</time>
      </trkpt>
      <trkpt lat="38.14851935" lon="-2.34122447">
        <ele>1099.0000</ele>
        <time>2018-10-12T18:00:19Z</time>
      </trkpt>
      <trkpt lat="38.14849957" lon="-2.34146947">
        <ele>1099.0000</ele>
        <time>2018-10-12T18:00:22Z</time>
      </trkpt>
      <trkpt lat="38.14846546" lon="-2.34216358">
        <ele>1099.0000</ele>
        <time>2018-10-12T18:00:31Z</time>
      </trkpt>
      <trkpt lat="38.14853159" lon="-2.34257563">
        <ele>1099.0000</ele>
        <time>2018-10-12T18:00:37Z</time>
      </trkpt>
      <trkpt lat="38.14859027" lon="-2.34286800">
        <ele>1099.0000</ele>
        <time>2018-10-12T18:00:41Z</time>
      </trkpt>
      <trkpt lat="38.14863955" lon="-2.34309322">
        <ele>1100.0000</ele>
        <time>2018-10-12T18:00:44Z</time>
      </trkpt>
      <trkpt lat="38.14867945" lon="-2.34322766">
        <ele>1101.0000</ele>
        <time>2018-10-12T18:00:46Z</time>
      </trkpt>
      <trkpt lat="38.14882596" lon="-2.34366503">
        <ele>1102.0000</ele>
        <time>2018-10-12T18:00:53Z</time>
      </trkpt>
      <trkpt lat="38.14884742" lon="-2.34372429">
        <ele>1102.0000</ele>
        <time>2018-10-12T18:00:54Z</time>
      </trkpt>
      <trkpt lat="38.14894750" lon="-2.34414330">
        <ele>1103.0000</ele>
        <time>2018-10-12T18:01:01Z</time>
      </trkpt>
      <trkpt lat="38.14906971" lon="-2.34457631">
        <ele>1104.0000</ele>
        <time>2018-10-12T18:01:09Z</time>
      </trkpt>
      <trkpt lat="38.14916074" lon="-2.34482291">
        <ele>1105.0000</ele>
        <time>2018-10-12T18:01:14Z</time>
      </trkpt>
      <trkpt lat="38.14918186" lon="-2.34487001">
        <ele>1105.0000</ele>
        <time>2018-10-12T18:01:15Z</time>
      </trkpt>
      <trkpt lat="38.14927473" lon="-2.34510588">
        <ele>1106.0000</ele>
        <time>2018-10-12T18:01:20Z</time>
      </trkpt>
      <trkpt lat="38.14930004" lon="-2.34515114">
        <ele>1106.0000</ele>
        <time>2018-10-12T18:01:21Z</time>
      </trkpt>
      <trkpt lat="38.14945545" lon="-2.34544887">
        <ele>1107.0000</ele>
        <time>2018-10-12T18:01:27Z</time>
      </trkpt>
      <trkpt lat="38.14957078" lon="-2.34569312">
        <ele>1108.0000</ele>
        <time>2018-10-12T18:01:32Z</time>
      </trkpt>
      <trkpt lat="38.14961462" lon="-2.34579018">
        <ele>1108.0000</ele>
        <time>2018-10-12T18:01:34Z</time>
      </trkpt>
      <trkpt lat="38.14973423" lon="-2.34602009">
        <ele>1110.0000</ele>
        <time>2018-10-12T18:01:39Z</time>
      </trkpt>
      <trkpt lat="38.14988443" lon="-2.34635713">
        <ele>1111.0000</ele>
        <time>2018-10-12T18:01:46Z</time>
      </trkpt>
      <trkpt lat="38.15003631" lon="-2.34663725">
        <ele>1112.0000</ele>
        <time>2018-10-12T18:01:52Z</time>
      </trkpt>
      <trkpt lat="38.15028442" lon="-2.34699365">
        <ele>1112.0000</ele>
        <time>2018-10-12T18:02:00Z</time>
      </trkpt>
      <trkpt lat="38.15056915" lon="-2.34730697">
        <ele>1113.0000</ele>
        <time>2018-10-12T18:02:08Z</time>
      </trkpt>
      <trkpt lat="38.15067292" lon="-2.34742524">
        <ele>1113.0000</ele>
        <time>2018-10-12T18:02:11Z</time>
      </trkpt>
      <trkpt lat="38.15071893" lon="-2.34782346">
        <ele>1113.0000</ele>
        <time>2018-10-12T18:02:17Z</time>
      </trkpt>
      <trkpt lat="38.15032465" lon="-2.34813476">
        <ele>1112.0000</ele>
        <time>2018-10-12T18:02:25Z</time>
      </trkpt>
      <trkpt lat="38.15013631" lon="-2.34816469">
        <ele>1112.0000</ele>
        <time>2018-10-12T18:02:29Z</time>
      </trkpt>
      <trkpt lat="38.14982358" lon="-2.34817961">
        <ele>1113.0000</ele>
        <time>2018-10-12T18:02:36Z</time>
      </trkpt>
      <trkpt lat="38.14966407" lon="-2.34820165">
        <ele>1114.0000</ele>
        <time>2018-10-12T18:02:40Z</time>
      </trkpt>
      <trkpt lat="38.14962183" lon="-2.34820400">
        <ele>1114.0000</ele>
        <time>2018-10-12T18:02:41Z</time>
      </trkpt>
      <trkpt lat="38.14948855" lon="-2.34821112">
        <ele>1115.0000</ele>
        <time>2018-10-12T18:02:44Z</time>
      </trkpt>
      <trkpt lat="38.14944203" lon="-2.34820802">
        <ele>1116.0000</ele>
        <time>2018-10-12T18:02:45Z</time>
      </trkpt>
      <trkpt lat="38.14919234" lon="-2.34819143">
        <ele>1117.0000</ele>
        <time>2018-10-12T18:02:50Z</time>
      </trkpt>
      <trkpt lat="38.14899796" lon="-2.34823753">
        <ele>1117.0000</ele>
        <time>2018-10-12T18:02:54Z</time>
      </trkpt>
      <trkpt lat="38.14885706" lon="-2.34836845">
        <ele>1118.0000</ele>
        <time>2018-10-12T18:02:58Z</time>
      </trkpt>
      <trkpt lat="38.14874382" lon="-2.34853995">
        <ele>1119.0000</ele>
        <time>2018-10-12T18:03:02Z</time>
      </trkpt>
      <trkpt lat="38.14865665" lon="-2.34867313">
        <ele>1120.0000</ele>
        <time>2018-10-12T18:03:05Z</time>
      </trkpt>
      <trkpt lat="38.14837535" lon="-2.34928024">
        <ele>1121.0000</ele>
        <time>2018-10-12T18:03:16Z</time>
      </trkpt>
      <trkpt lat="38.14810696" lon="-2.34958500">
        <ele>1121.0000</ele>
        <time>2018-10-12T18:03:23Z</time>
      </trkpt>
      <trkpt lat="38.14795291" lon="-2.34973621">
        <ele>1121.0000</ele>
        <time>2018-10-12T18:03:27Z</time>
      </trkpt>
      <trkpt lat="38.14783154" lon="-2.34984601">
        <ele>1121.0000</ele>
        <time>2018-10-12T18:03:30Z</time>
      </trkpt>
      <trkpt lat="38.14752434" lon="-2.35004986">
        <ele>1121.0000</ele>
        <time>2018-10-12T18:03:36Z</time>
      </trkpt>
      <trkpt lat="38.14739584" lon="-2.35010258">
        <ele>1121.0000</ele>
        <time>2018-10-12T18:03:38Z</time>
      </trkpt>
      <trkpt lat="38.14732653" lon="-2.35012387">
        <ele>1120.0000</ele>
        <time>2018-10-12T18:03:39Z</time>
      </trkpt>
      <trkpt lat="38.14717993" lon="-2.35015640">
        <ele>1120.0000</ele>
        <time>2018-10-12T18:03:41Z</time>
      </trkpt>
      <trkpt lat="38.14694666" lon="-2.35018271">
        <ele>1119.0000</ele>
        <time>2018-10-12T18:03:44Z</time>
      </trkpt>
      <trkpt lat="38.14678640" lon="-2.35019780">
        <ele>1118.0000</ele>
        <time>2018-10-12T18:03:46Z</time>
      </trkpt>
      <trkpt lat="38.14670719" lon="-2.35020769">
        <ele>1118.0000</ele>
        <time>2018-10-12T18:03:47Z</time>
      </trkpt>
      <trkpt lat="38.14648473" lon="-2.35024860">
        <ele>1116.0000</ele>
        <time>2018-10-12T18:03:50Z</time>
      </trkpt>
      <trkpt lat="38.14636001" lon="-2.35028338">
        <ele>1116.0000</ele>
        <time>2018-10-12T18:03:52Z</time>
      </trkpt>
      <trkpt lat="38.14620796" lon="-2.35033216">
        <ele>1116.0000</ele>
        <time>2018-10-12T18:03:55Z</time>
      </trkpt>
      <trkpt lat="38.14607217" lon="-2.35037198">
        <ele>1116.0000</ele>
        <time>2018-10-12T18:03:58Z</time>
      </trkpt>
      <trkpt lat="38.14593194" lon="-2.35039855">
        <ele>1118.0000</ele>
        <time>2018-10-12T18:04:01Z</time>
      </trkpt>
      <trkpt lat="38.14583497" lon="-2.35041380">
        <ele>1119.0000</ele>
        <time>2018-10-12T18:04:03Z</time>
      </trkpt>
      <trkpt lat="38.14567588" lon="-2.35043099">
        <ele>1120.0000</ele>
        <time>2018-10-12T18:04:06Z</time>
      </trkpt>
      <trkpt lat="38.14539131" lon="-2.35036402">
        <ele>1121.0000</ele>
        <time>2018-10-12T18:04:11Z</time>
      </trkpt>
      <trkpt lat="38.14519610" lon="-2.35028631">
        <ele>1121.0000</ele>
        <time>2018-10-12T18:04:14Z</time>
      </trkpt>
      <trkpt lat="38.14482562" lon="-2.35030157">
        <ele>1120.0000</ele>
        <time>2018-10-12T18:04:19Z</time>
      </trkpt>
      <trkpt lat="38.14474842" lon="-2.35032219">
        <ele>1120.0000</ele>
        <time>2018-10-12T18:04:20Z</time>
      </trkpt>
      <trkpt lat="38.14459352" lon="-2.35037240">
        <ele>1119.0000</ele>
        <time>2018-10-12T18:04:22Z</time>
      </trkpt>
      <trkpt lat="38.14452035" lon="-2.35041355">
        <ele>1119.0000</ele>
        <time>2018-10-12T18:04:23Z</time>
      </trkpt>
      <trkpt lat="38.14438599" lon="-2.35051849">
        <ele>1118.0000</ele>
        <time>2018-10-12T18:04:25Z</time>
      </trkpt>
      <trkpt lat="38.14425791" lon="-2.35062888">
        <ele>1118.0000</ele>
        <time>2018-10-12T18:04:27Z</time>
      </trkpt>
      <trkpt lat="38.14395222" lon="-2.35091538">
        <ele>1117.0000</ele>
        <time>2018-10-12T18:04:32Z</time>
      </trkpt>
      <trkpt lat="38.14361376" lon="-2.35140211">
        <ele>1116.0000</ele>
        <time>2018-10-12T18:04:39Z</time>
      </trkpt>
      <trkpt lat="38.14341620" lon="-2.35186622">
        <ele>1116.0000</ele>
        <time>2018-10-12T18:04:45Z</time>
      </trkpt>
      <trkpt lat="38.14314966" lon="-2.35254515">
        <ele>1116.0000</ele>
        <time>2018-10-12T18:04:54Z</time>
      </trkpt>
      <trkpt lat="38.14305813" lon="-2.35274649">
        <ele>1116.0000</ele>
        <time>2018-10-12T18:04:57Z</time>
      </trkpt>
      <trkpt lat="38.14294204" lon="-2.35299157">
        <ele>1117.0000</ele>
        <time>2018-10-12T18:05:01Z</time>
      </trkpt>
      <trkpt lat="38.14276300" lon="-2.35332744">
        <ele>1118.0000</ele>
        <time>2018-10-12T18:05:07Z</time>
      </trkpt>
      <trkpt lat="38.14256410" lon="-2.35365701">
        <ele>1119.0000</ele>
        <time>2018-10-12T18:05:13Z</time>
      </trkpt>
      <trkpt lat="38.14233519" lon="-2.35435112">
        <ele>1119.0000</ele>
        <time>2018-10-12T18:05:23Z</time>
      </trkpt>
      <trkpt lat="38.14224533" lon="-2.35506727">
        <ele>1119.0000</ele>
        <time>2018-10-12T18:05:32Z</time>
      </trkpt>
      <trkpt lat="38.14227593" lon="-2.35578183">
        <ele>1118.0000</ele>
        <time>2018-10-12T18:05:41Z</time>
      </trkpt>
      <trkpt lat="38.14230811" lon="-2.35623378">
        <ele>1118.0000</ele>
        <time>2018-10-12T18:05:47Z</time>
      </trkpt>
      <trkpt lat="38.14231960" lon="-2.35693023">
        <ele>1118.0000</ele>
        <time>2018-10-12T18:05:57Z</time>
      </trkpt>
      <trkpt lat="38.14231323" lon="-2.35715554">
        <ele>1119.0000</ele>
        <time>2018-10-12T18:06:01Z</time>
      </trkpt>
      <trkpt lat="38.14231943" lon="-2.35731781">
        <ele>1120.0000</ele>
        <time>2018-10-12T18:06:04Z</time>
      </trkpt>
      <trkpt lat="38.14233376" lon="-2.35737070">
        <ele>1120.0000</ele>
        <time>2018-10-12T18:06:05Z</time>
      </trkpt>
      <trkpt lat="38.14239587" lon="-2.35757631">
        <ele>1121.0000</ele>
        <time>2018-10-12T18:06:09Z</time>
      </trkpt>
      <trkpt lat="38.14249218" lon="-2.35784377">
        <ele>1122.0000</ele>
        <time>2018-10-12T18:06:15Z</time>
      </trkpt>
      <trkpt lat="38.14258086" lon="-2.35803597">
        <ele>1123.0000</ele>
        <time>2018-10-12T18:06:19Z</time>
      </trkpt>
      <trkpt lat="38.14258597" lon="-2.35811996">
        <ele>1123.0000</ele>
        <time>2018-10-12T18:06:20Z</time>
      </trkpt>
      <trkpt lat="38.14264280" lon="-2.35830201">
        <ele>1124.0000</ele>
        <time>2018-10-12T18:06:23Z</time>
      </trkpt>
      <trkpt lat="38.14269955" lon="-2.35840226">
        <ele>1125.0000</ele>
        <time>2018-10-12T18:06:25Z</time>
      </trkpt>
      <trkpt lat="38.14284916" lon="-2.35863259">
        <ele>1126.0000</ele>
        <time>2018-10-12T18:06:31Z</time>
      </trkpt>
      <trkpt lat="38.14292561" lon="-2.35886444">
        <ele>1127.0000</ele>
        <time>2018-10-12T18:06:36Z</time>
      </trkpt>
      <trkpt lat="38.14306944" lon="-2.35948135">
        <ele>1128.0000</ele>
        <time>2018-10-12T18:06:49Z</time>
      </trkpt>
      <trkpt lat="38.14310624" lon="-2.35981553">
        <ele>1129.0000</ele>
        <time>2018-10-12T18:06:55Z</time>
      </trkpt>
      <trkpt lat="38.14311495" lon="-2.36006598">
        <ele>1130.0000</ele>
        <time>2018-10-12T18:07:00Z</time>
      </trkpt>
      <trkpt lat="38.14311613" lon="-2.36033798">
        <ele>1131.0000</ele>
        <time>2018-10-12T18:07:05Z</time>
      </trkpt>
      <trkpt lat="38.14308973" lon="-2.36077115">
        <ele>1133.0000</ele>
        <time>2018-10-12T18:07:13Z</time>
      </trkpt>
      <trkpt lat="38.14304832" lon="-2.36126854">
        <ele>1133.0000</ele>
        <time>2018-10-12T18:07:21Z</time>
      </trkpt>
      <trkpt lat="38.14300247" lon="-2.36171697">
        <ele>1133.0000</ele>
        <time>2018-10-12T18:07:28Z</time>
      </trkpt>
      <trkpt lat="38.14289577" lon="-2.36218635">
        <ele>1133.0000</ele>
        <time>2018-10-12T18:07:35Z</time>
      </trkpt>
      <trkpt lat="38.14272830" lon="-2.36262288">
        <ele>1133.0000</ele>
        <time>2018-10-12T18:07:42Z</time>
      </trkpt>
      <trkpt lat="38.14251322" lon="-2.36302077">
        <ele>1133.0000</ele>
        <time>2018-10-12T18:07:49Z</time>
      </trkpt>
      <trkpt lat="38.14237073" lon="-2.36328195">
        <ele>1133.0000</ele>
        <time>2018-10-12T18:07:54Z</time>
      </trkpt>
      <trkpt lat="38.14228682" lon="-2.36342889">
        <ele>1134.0000</ele>
        <time>2018-10-12T18:07:57Z</time>
      </trkpt>
      <trkpt lat="38.14202128" lon="-2.36385435">
        <ele>1134.0000</ele>
        <time>2018-10-12T18:08:05Z</time>
      </trkpt>
      <trkpt lat="38.14185566" lon="-2.36455491">
        <ele>1134.0000</ele>
        <time>2018-10-12T18:08:16Z</time>
      </trkpt>
      <trkpt lat="38.14180989" lon="-2.36477117">
        <ele>1135.0000</ele>
        <time>2018-10-12T18:08:20Z</time>
      </trkpt>
      <trkpt lat="38.14177058" lon="-2.36494543">
        <ele>1135.0000</ele>
        <time>2018-10-12T18:08:23Z</time>
      </trkpt>
      <trkpt lat="38.14174376" lon="-2.36506529">
        <ele>1136.0000</ele>
        <time>2018-10-12T18:08:25Z</time>
      </trkpt>
      <trkpt lat="38.14170436" lon="-2.36524575">
        <ele>1137.0000</ele>
        <time>2018-10-12T18:08:28Z</time>
      </trkpt>
      <trkpt lat="38.14169498" lon="-2.36530509">
        <ele>1137.0000</ele>
        <time>2018-10-12T18:08:29Z</time>
      </trkpt>
      <trkpt lat="38.14164418" lon="-2.36552864">
        <ele>1138.0000</ele>
        <time>2018-10-12T18:08:33Z</time>
      </trkpt>
      <trkpt lat="38.14161174" lon="-2.36576383">
        <ele>1139.0000</ele>
        <time>2018-10-12T18:08:37Z</time>
      </trkpt>
      <trkpt lat="38.14160387" lon="-2.36582645">
        <ele>1139.0000</ele>
        <time>2018-10-12T18:08:38Z</time>
      </trkpt>
      <trkpt lat="38.14160437" lon="-2.36594296">
        <ele>1140.0000</ele>
        <time>2018-10-12T18:08:40Z</time>
      </trkpt>
      <trkpt lat="38.14161552" lon="-2.36606374">
        <ele>1141.0000</ele>
        <time>2018-10-12T18:08:42Z</time>
      </trkpt>
      <trkpt lat="38.14162608" lon="-2.36618595">
        <ele>1141.0000</ele>
        <time>2018-10-12T18:08:44Z</time>
      </trkpt>
      <trkpt lat="38.14173462" lon="-2.36693445">
        <ele>1142.0000</ele>
        <time>2018-10-12T18:08:54Z</time>
      </trkpt>
      <trkpt lat="38.14178617" lon="-2.36743921">
        <ele>1140.0000</ele>
        <time>2018-10-12T18:09:00Z</time>
      </trkpt>
      <trkpt lat="38.14178491" lon="-2.36781103">
        <ele>1139.0000</ele>
        <time>2018-10-12T18:09:05Z</time>
      </trkpt>
      <trkpt lat="38.14176899" lon="-2.36795361">
        <ele>1139.0000</ele>
        <time>2018-10-12T18:09:07Z</time>
      </trkpt>
      <trkpt lat="38.14174057" lon="-2.36828737">
        <ele>1139.0000</ele>
        <time>2018-10-12T18:09:12Z</time>
      </trkpt>
      <trkpt lat="38.14174057" lon="-2.36849843">
        <ele>1139.0000</ele>
        <time>2018-10-12T18:09:15Z</time>
      </trkpt>
      <trkpt lat="38.14177360" lon="-2.36871745">
        <ele>1139.0000</ele>
        <time>2018-10-12T18:09:18Z</time>
      </trkpt>
      <trkpt lat="38.14180813" lon="-2.36917778">
        <ele>1139.0000</ele>
        <time>2018-10-12T18:09:24Z</time>
      </trkpt>
      <trkpt lat="38.14183361" lon="-2.36950887">
        <ele>1139.0000</ele>
        <time>2018-10-12T18:09:29Z</time>
      </trkpt>
      <trkpt lat="38.14191794" lon="-2.36976326">
        <ele>1139.0000</ele>
        <time>2018-10-12T18:09:33Z</time>
      </trkpt>
      <trkpt lat="38.14201592" lon="-2.36993618">
        <ele>1139.0000</ele>
        <time>2018-10-12T18:09:36Z</time>
      </trkpt>
      <trkpt lat="38.14218850" lon="-2.37062299">
        <ele>1140.0000</ele>
        <time>2018-10-12T18:09:45Z</time>
      </trkpt>
      <trkpt lat="38.14218314" lon="-2.37100018">
        <ele>1140.0000</ele>
        <time>2018-10-12T18:09:50Z</time>
      </trkpt>
      <trkpt lat="38.14203503" lon="-2.37131215">
        <ele>1140.0000</ele>
        <time>2018-10-12T18:09:55Z</time>
      </trkpt>
      <trkpt lat="38.14193252" lon="-2.37149002">
        <ele>1140.0000</ele>
        <time>2018-10-12T18:09:58Z</time>
      </trkpt>
      <trkpt lat="38.14177921" lon="-2.37181699">
        <ele>1140.0000</ele>
        <time>2018-10-12T18:10:03Z</time>
      </trkpt>
      <trkpt lat="38.14166991" lon="-2.37210047">
        <ele>1140.0000</ele>
        <time>2018-10-12T18:10:07Z</time>
      </trkpt>
      <trkpt lat="38.14163547" lon="-2.37216970">
        <ele>1140.0000</ele>
        <time>2018-10-12T18:10:08Z</time>
      </trkpt>
      <trkpt lat="38.14143497" lon="-2.37229275">
        <ele>1140.0000</ele>
        <time>2018-10-12T18:10:12Z</time>
      </trkpt>
      <trkpt lat="38.14127387" lon="-2.37218504">
        <ele>1140.0000</ele>
        <time>2018-10-12T18:10:16Z</time>
      </trkpt>
      <trkpt lat="38.14117723" lon="-2.37209100">
        <ele>1140.0000</ele>
        <time>2018-10-12T18:10:19Z</time>
      </trkpt>
      <trkpt lat="38.14110707" lon="-2.37203928">
        <ele>1140.0000</ele>
        <time>2018-10-12T18:10:21Z</time>
      </trkpt>
      <trkpt lat="38.14103012" lon="-2.37200944">
        <ele>1141.0000</ele>
        <time>2018-10-12T18:10:23Z</time>
      </trkpt>
      <trkpt lat="38.14090431" lon="-2.37201632">
        <ele>1142.0000</ele>
        <time>2018-10-12T18:10:26Z</time>
      </trkpt>
      <trkpt lat="38.14078629" lon="-2.37211086">
        <ele>1144.0000</ele>
        <time>2018-10-12T18:10:29Z</time>
      </trkpt>
      <trkpt lat="38.14070742" lon="-2.37220466">
        <ele>1144.0000</ele>
        <time>2018-10-12T18:10:31Z</time>
      </trkpt>
      <trkpt lat="38.14066417" lon="-2.37225277">
        <ele>1145.0000</ele>
        <time>2018-10-12T18:10:32Z</time>
      </trkpt>
      <trkpt lat="38.14019889" lon="-2.37264823">
        <ele>1145.0000</ele>
        <time>2018-10-12T18:10:42Z</time>
      </trkpt>
      <trkpt lat="38.13968441" lon="-2.37301686">
        <ele>1145.0000</ele>
        <time>2018-10-12T18:10:53Z</time>
      </trkpt>
      <trkpt lat="38.13940362" lon="-2.37332171">
        <ele>1145.0000</ele>
        <time>2018-10-12T18:10:59Z</time>
      </trkpt>
      <trkpt lat="38.13932038" lon="-2.37344484">
        <ele>1145.0000</ele>
        <time>2018-10-12T18:11:01Z</time>
      </trkpt>
      <trkpt lat="38.13914596" lon="-2.37381088">
        <ele>1144.0000</ele>
        <time>2018-10-12T18:11:06Z</time>
      </trkpt>
      <trkpt lat="38.13908619" lon="-2.37395706">
        <ele>1144.0000</ele>
        <time>2018-10-12T18:11:08Z</time>
      </trkpt>
      <trkpt lat="38.13891814" lon="-2.37460071">
        <ele>1144.0000</ele>
        <time>2018-10-12T18:11:17Z</time>
      </trkpt>
      <trkpt lat="38.13889592" lon="-2.37497379">
        <ele>1144.0000</ele>
        <time>2018-10-12T18:11:22Z</time>
      </trkpt>
      <trkpt lat="38.13887396" lon="-2.37540529">
        <ele>1145.0000</ele>
        <time>2018-10-12T18:11:28Z</time>
      </trkpt>
      <trkpt lat="38.13892727" lon="-2.37591583">
        <ele>1145.0000</ele>
        <time>2018-10-12T18:11:35Z</time>
      </trkpt>
      <trkpt lat="38.13892518" lon="-2.37598607">
        <ele>1145.0000</ele>
        <time>2018-10-12T18:11:36Z</time>
      </trkpt>
      <trkpt lat="38.13891721" lon="-2.37605011">
        <ele>1145.0000</ele>
        <time>2018-10-12T18:11:37Z</time>
      </trkpt>
      <trkpt lat="38.13895049" lon="-2.37646476">
        <ele>1146.0000</ele>
        <time>2018-10-12T18:11:43Z</time>
      </trkpt>
      <trkpt lat="38.13899257" lon="-2.37666098">
        <ele>1146.0000</ele>
        <time>2018-10-12T18:11:46Z</time>
      </trkpt>
      <trkpt lat="38.13899810" lon="-2.37672518">
        <ele>1147.0000</ele>
        <time>2018-10-12T18:11:47Z</time>
      </trkpt>
      <trkpt lat="38.13902090" lon="-2.37702811">
        <ele>1148.0000</ele>
        <time>2018-10-12T18:11:52Z</time>
      </trkpt>
      <trkpt lat="38.13901780" lon="-2.37708879">
        <ele>1148.0000</ele>
        <time>2018-10-12T18:11:53Z</time>
      </trkpt>
      <trkpt lat="38.13899952" lon="-2.37719926">
        <ele>1149.0000</ele>
        <time>2018-10-12T18:11:55Z</time>
      </trkpt>
      <trkpt lat="38.13893867" lon="-2.37751384">
        <ele>1150.0000</ele>
        <time>2018-10-12T18:12:01Z</time>
      </trkpt>
      <trkpt lat="38.13892534" lon="-2.37756874">
        <ele>1150.0000</ele>
        <time>2018-10-12T18:12:02Z</time>
      </trkpt>
      <trkpt lat="38.13882736" lon="-2.37806051">
        <ele>1151.0000</ele>
        <time>2018-10-12T18:12:11Z</time>
      </trkpt>
      <trkpt lat="38.13878847" lon="-2.37842864">
        <ele>1152.0000</ele>
        <time>2018-10-12T18:12:19Z</time>
      </trkpt>
      <trkpt lat="38.13878118" lon="-2.37859385">
        <ele>1153.0000</ele>
        <time>2018-10-12T18:12:23Z</time>
      </trkpt>
      <trkpt lat="38.13876735" lon="-2.37879736">
        <ele>1154.0000</ele>
        <time>2018-10-12T18:12:28Z</time>
      </trkpt>
      <trkpt lat="38.13877011" lon="-2.37898419">
        <ele>1155.0000</ele>
        <time>2018-10-12T18:12:33Z</time>
      </trkpt>
      <trkpt lat="38.13877305" lon="-2.37914051">
        <ele>1156.0000</ele>
        <time>2018-10-12T18:12:37Z</time>
      </trkpt>
      <trkpt lat="38.13877757" lon="-2.37944151">
        <ele>1157.0000</ele>
        <time>2018-10-12T18:12:45Z</time>
      </trkpt>
      <trkpt lat="38.13873725" lon="-2.37965676">
        <ele>1158.0000</ele>
        <time>2018-10-12T18:12:51Z</time>
      </trkpt>
      <trkpt lat="38.13869400" lon="-2.37982456">
        <ele>1160.0000</ele>
        <time>2018-10-12T18:12:56Z</time>
      </trkpt>
      <trkpt lat="38.13862041" lon="-2.38000779">
        <ele>1160.0000</ele>
        <time>2018-10-12T18:13:01Z</time>
      </trkpt>
      <trkpt lat="38.13860490" lon="-2.38004484">
        <ele>1161.0000</ele>
        <time>2018-10-12T18:13:02Z</time>
      </trkpt>
      <trkpt lat="38.13852813" lon="-2.38022337">
        <ele>1162.0000</ele>
        <time>2018-10-12T18:13:07Z</time>
      </trkpt>
      <trkpt lat="38.13847985" lon="-2.38035170">
        <ele>1163.0000</ele>
        <time>2018-10-12T18:13:11Z</time>
      </trkpt>
      <trkpt lat="38.13844724" lon="-2.38044817">
        <ele>1164.0000</ele>
        <time>2018-10-12T18:13:14Z</time>
      </trkpt>
      <trkpt lat="38.13838706" lon="-2.38060165">
        <ele>1165.0000</ele>
        <time>2018-10-12T18:13:19Z</time>
      </trkpt>
      <trkpt lat="38.13834054" lon="-2.38075210">
        <ele>1166.0000</ele>
        <time>2018-10-12T18:13:24Z</time>
      </trkpt>
      <trkpt lat="38.13831011" lon="-2.38086291">
        <ele>1167.0000</ele>
        <time>2018-10-12T18:13:30Z</time>
      </trkpt>
      <trkpt lat="38.13830961" lon="-2.38099736">
        <ele>1168.0000</ele>
        <time>2018-10-12T18:13:36Z</time>
      </trkpt>
      <trkpt lat="38.13834004" lon="-2.38116575">
        <ele>1168.0000</ele>
        <time>2018-10-12T18:13:42Z</time>
      </trkpt>
      <trkpt lat="38.13839334" lon="-2.38135778">
        <ele>1168.0000</ele>
        <time>2018-10-12T18:13:48Z</time>
      </trkpt>
      <trkpt lat="38.13841992" lon="-2.38145702">
        <ele>1168.0000</ele>
        <time>2018-10-12T18:13:51Z</time>
      </trkpt>
      <trkpt lat="38.13843877" lon="-2.38158258">
        <ele>1168.0000</ele>
        <time>2018-10-12T18:13:55Z</time>
      </trkpt>
      <trkpt lat="38.13845864" lon="-2.38174687">
        <ele>1168.0000</ele>
        <time>2018-10-12T18:14:01Z</time>
      </trkpt>
      <trkpt lat="38.13846224" lon="-2.38177067">
        <ele>1168.0000</ele>
        <time>2018-10-12T18:14:02Z</time>
      </trkpt>
      <trkpt lat="38.13848773" lon="-2.38190461">
        <ele>1169.0000</ele>
        <time>2018-10-12T18:14:08Z</time>
      </trkpt>
      <trkpt lat="38.13848580" lon="-2.38190713">
        <ele>1170.0000</ele>
        <time>2018-10-12T18:14:09Z</time>
      </trkpt>
      <trkpt lat="38.13844288" lon="-2.38189539">
        <ele>1172.0000</ele>
        <time>2018-10-12T18:15:57Z</time>
      </trkpt>
      <trkpt lat="38.13840374" lon="-2.38168434">
        <ele>1172.0000</ele>
        <time>2018-10-12T18:16:01Z</time>
      </trkpt>
      <trkpt lat="38.13837088" lon="-2.38144051">
        <ele>1172.0000</ele>
        <time>2018-10-12T18:16:04Z</time>
      </trkpt>
      <trkpt lat="38.13827960" lon="-2.38136926">
        <ele>1170.0000</ele>
        <time>2018-10-12T18:16:07Z</time>
      </trkpt>
      <trkpt lat="38.13822051" lon="-2.38143196">
        <ele>1168.0000</ele>
        <time>2018-10-12T18:16:09Z</time>
      </trkpt>
      <trkpt lat="38.13819687" lon="-2.38147320">
        <ele>1167.0000</ele>
        <time>2018-10-12T18:16:10Z</time>
      </trkpt>
      <trkpt lat="38.13814549" lon="-2.38154981">
        <ele>1167.0000</ele>
        <time>2018-10-12T18:16:12Z</time>
      </trkpt>
      <trkpt lat="38.13803996" lon="-2.38162986">
        <ele>1167.0000</ele>
        <time>2018-10-12T18:16:15Z</time>
      </trkpt>
      <trkpt lat="38.13778381" lon="-2.38175248">
        <ele>1167.0000</ele>
        <time>2018-10-12T18:16:22Z</time>
      </trkpt>
      <trkpt lat="38.13769396" lon="-2.38185013">
        <ele>1167.0000</ele>
        <time>2018-10-12T18:16:25Z</time>
      </trkpt>
      <trkpt lat="38.13760763" lon="-2.38201995">
        <ele>1168.0000</ele>
        <time>2018-10-12T18:16:29Z</time>
      </trkpt>
      <trkpt lat="38.13750939" lon="-2.38226604">
        <ele>1169.0000</ele>
        <time>2018-10-12T18:16:34Z</time>
      </trkpt>
      <trkpt lat="38.13745038" lon="-2.38242077">
        <ele>1169.0000</ele>
        <time>2018-10-12T18:16:37Z</time>
      </trkpt>
      <trkpt lat="38.13739858" lon="-2.38257366">
        <ele>1169.0000</ele>
        <time>2018-10-12T18:16:40Z</time>
      </trkpt>
      <trkpt lat="38.13733664" lon="-2.38299510">
        <ele>1170.0000</ele>
        <time>2018-10-12T18:16:50Z</time>
      </trkpt>
      <trkpt lat="38.13737880" lon="-2.38338285">
        <ele>1170.0000</ele>
        <time>2018-10-12T18:16:58Z</time>
      </trkpt>
      <trkpt lat="38.13742113" lon="-2.38378484">
        <ele>1171.0000</ele>
        <time>2018-10-12T18:17:07Z</time>
      </trkpt>
      <trkpt lat="38.13742859" lon="-2.38387227">
        <ele>1171.0000</ele>
        <time>2018-10-12T18:17:09Z</time>
      </trkpt>
      <trkpt lat="38.13743412" lon="-2.38395055">
        <ele>1171.0000</ele>
        <time>2018-10-12T18:17:11Z</time>
      </trkpt>
      <trkpt lat="38.13749145" lon="-2.38415599">
        <ele>1171.0000</ele>
        <time>2018-10-12T18:17:18Z</time>
      </trkpt>
      <trkpt lat="38.13764719" lon="-2.38483702">
        <ele>1171.0000</ele>
        <time>2018-10-12T18:17:34Z</time>
      </trkpt>
      <trkpt lat="38.13765347" lon="-2.38491925">
        <ele>1171.0000</ele>
        <time>2018-10-12T18:17:36Z</time>
      </trkpt>
      <trkpt lat="38.13765875" lon="-2.38495470">
        <ele>1171.0000</ele>
        <time>2018-10-12T18:17:37Z</time>
      </trkpt>
      <trkpt lat="38.13767636" lon="-2.38529426">
        <ele>1171.0000</ele>
        <time>2018-10-12T18:17:45Z</time>
      </trkpt>
      <trkpt lat="38.13771106" lon="-2.38558259">
        <ele>1171.0000</ele>
        <time>2018-10-12T18:17:53Z</time>
      </trkpt>
      <trkpt lat="38.13774467" lon="-2.38583992">
        <ele>1171.0000</ele>
        <time>2018-10-12T18:17:59Z</time>
      </trkpt>
      <trkpt lat="38.13778130" lon="-2.38607604">
        <ele>1171.0000</ele>
        <time>2018-10-12T18:18:02Z</time>
      </trkpt>
      <trkpt lat="38.13779680" lon="-2.38655095">
        <ele>1170.0000</ele>
        <time>2018-10-12T18:18:07Z</time>
      </trkpt>
      <trkpt lat="38.13781281" lon="-2.38662664">
        <ele>1169.0000</ele>
        <time>2018-10-12T18:18:08Z</time>
      </trkpt>
      <trkpt lat="38.13788800" lon="-2.38678690">
        <ele>1168.0000</ele>
        <time>2018-10-12T18:18:11Z</time>
      </trkpt>
      <trkpt lat="38.13796008" lon="-2.38686771">
        <ele>1168.0000</ele>
        <time>2018-10-12T18:18:14Z</time>
      </trkpt>
      <trkpt lat="38.13806260" lon="-2.38693929">
        <ele>1169.0000</ele>
        <time>2018-10-12T18:18:21Z</time>
      </trkpt>
      <trkpt lat="38.13806385" lon="-2.38698212">
        <ele>1169.0000</ele>
        <time>2018-10-12T18:18:22Z</time>
      </trkpt>
      <trkpt lat="38.13809973" lon="-2.38712998">
        <ele>1170.0000</ele>
        <time>2018-10-12T18:18:29Z</time>
      </trkpt>
      <trkpt lat="38.13805203" lon="-2.38706686">
        <ele>1171.0000</ele>
        <time>2018-10-12T18:20:29Z</time>
      </trkpt>
      <trkpt lat="38.13803938" lon="-2.38704079">
        <ele>1171.0000</ele>
        <time>2018-10-12T18:20:30Z</time>
      </trkpt>
      <trkpt lat="38.13795363" lon="-2.38689528">
        <ele>1171.0000</ele>
        <time>2018-10-12T18:20:34Z</time>
      </trkpt>
      <trkpt lat="38.13784592" lon="-2.38676788">
        <ele>1171.0000</ele>
        <time>2018-10-12T18:20:37Z</time>
      </trkpt>
      <trkpt lat="38.13777292" lon="-2.38665078">
        <ele>1171.0000</ele>
        <time>2018-10-12T18:20:39Z</time>
      </trkpt>
      <trkpt lat="38.13774559" lon="-2.38657744">
        <ele>1170.0000</ele>
        <time>2018-10-12T18:20:40Z</time>
      </trkpt>
      <trkpt lat="38.13771684" lon="-2.38633328">
        <ele>1169.0000</ele>
        <time>2018-10-12T18:20:43Z</time>
      </trkpt>
      <trkpt lat="38.13771567" lon="-2.38625566">
        <ele>1168.0000</ele>
        <time>2018-10-12T18:20:44Z</time>
      </trkpt>
      <trkpt lat="38.13771198" lon="-2.38611677">
        <ele>1168.0000</ele>
        <time>2018-10-12T18:20:46Z</time>
      </trkpt>
      <trkpt lat="38.13766244" lon="-2.38586087">
        <ele>1167.0000</ele>
        <time>2018-10-12T18:20:51Z</time>
      </trkpt>
      <trkpt lat="38.13766697" lon="-2.38575920">
        <ele>1167.0000</ele>
        <time>2018-10-12T18:20:53Z</time>
      </trkpt>
      <trkpt lat="38.13766982" lon="-2.38561788">
        <ele>1168.0000</ele>
        <time>2018-10-12T18:20:56Z</time>
      </trkpt>
      <trkpt lat="38.13765951" lon="-2.38552660">
        <ele>1169.0000</ele>
        <time>2018-10-12T18:20:58Z</time>
      </trkpt>
      <trkpt lat="38.13759480" lon="-2.38520071">
        <ele>1170.0000</ele>
        <time>2018-10-12T18:21:05Z</time>
      </trkpt>
      <trkpt lat="38.13759472" lon="-2.38508529">
        <ele>1171.0000</ele>
        <time>2018-10-12T18:21:12Z</time>
      </trkpt>
      <trkpt lat="38.13759648" lon="-2.38504774">
        <ele>1171.0000</ele>
        <time>2018-10-12T18:21:16Z</time>
      </trkpt>
      <trkpt lat="38.13760343" lon="-2.38486695">
        <ele>1172.0000</ele>
        <time>2018-10-12T18:21:27Z</time>
      </trkpt>
      <trkpt lat="38.13753764" lon="-2.38458674">
        <ele>1172.0000</ele>
        <time>2018-10-12T18:21:32Z</time>
      </trkpt>
      <trkpt lat="38.13749690" lon="-2.38441499">
        <ele>1171.0000</ele>
        <time>2018-10-12T18:21:36Z</time>
      </trkpt>
      <trkpt lat="38.13741685" lon="-2.38422347">
        <ele>1171.0000</ele>
        <time>2018-10-12T18:21:41Z</time>
      </trkpt>
      <trkpt lat="38.13739196" lon="-2.38416966">
        <ele>1171.0000</ele>
        <time>2018-10-12T18:21:44Z</time>
      </trkpt>
      <trkpt lat="38.13745181" lon="-2.38439756">
        <ele>1171.0000</ele>
        <time>2018-10-12T18:58:54Z</time>
      </trkpt>
      <trkpt lat="38.13746136" lon="-2.38442933">
        <ele>1171.0000</ele>
        <time>2018-10-12T18:58:55Z</time>
      </trkpt>
      <trkpt lat="38.13748408" lon="-2.38451281">
        <ele>1171.0000</ele>
        <time>2018-10-12T18:58:57Z</time>
      </trkpt>
      <trkpt lat="38.13753537" lon="-2.38467131">
        <ele>1171.0000</ele>
        <time>2018-10-12T18:59:00Z</time>
      </trkpt>
      <trkpt lat="38.13764115" lon="-2.38523785">
        <ele>1170.0000</ele>
        <time>2018-10-12T18:59:11Z</time>
      </trkpt>
      <trkpt lat="38.13762255" lon="-2.38544756">
        <ele>1170.0000</ele>
        <time>2018-10-12T18:59:15Z</time>
      </trkpt>
      <trkpt lat="38.13765825" lon="-2.38582282">
        <ele>1170.0000</ele>
        <time>2018-10-12T18:59:22Z</time>
      </trkpt>
      <trkpt lat="38.13768164" lon="-2.38600982">
        <ele>1170.0000</ele>
        <time>2018-10-12T18:59:25Z</time>
      </trkpt>
      <trkpt lat="38.13770293" lon="-2.38614795">
        <ele>1170.0000</ele>
        <time>2018-10-12T18:59:27Z</time>
      </trkpt>
      <trkpt lat="38.13773578" lon="-2.38649982">
        <ele>1169.0000</ele>
        <time>2018-10-12T18:59:32Z</time>
      </trkpt>
      <trkpt lat="38.13779974" lon="-2.38665103">
        <ele>1168.0000</ele>
        <time>2018-10-12T18:59:35Z</time>
      </trkpt>
      <trkpt lat="38.13784995" lon="-2.38672949">
        <ele>1167.0000</ele>
        <time>2018-10-12T18:59:37Z</time>
      </trkpt>
      <trkpt lat="38.13789529" lon="-2.38680426">
        <ele>1167.0000</ele>
        <time>2018-10-12T18:59:39Z</time>
      </trkpt>
      <trkpt lat="38.13801934" lon="-2.38698514">
        <ele>1168.0000</ele>
        <time>2018-10-12T18:59:45Z</time>
      </trkpt>
      <trkpt lat="38.13811071" lon="-2.38710248">
        <ele>1169.0000</ele>
        <time>2018-10-12T18:59:50Z</time>
      </trkpt>
      <trkpt lat="38.13825186" lon="-2.38726610">
        <ele>1170.0000</ele>
        <time>2018-10-12T18:59:57Z</time>
      </trkpt>
      <trkpt lat="38.13831632" lon="-2.38737154">
        <ele>1170.0000</ele>
        <time>2018-10-12T19:00:02Z</time>
      </trkpt>
      <trkpt lat="38.13835437" lon="-2.38743063">
        <ele>1171.0000</ele>
        <time>2018-10-12T19:00:05Z</time>
      </trkpt>
      <trkpt lat="38.13838957" lon="-2.38749107">
        <ele>1172.0000</ele>
        <time>2018-10-12T19:00:08Z</time>
      </trkpt>
      <trkpt lat="38.13842318" lon="-2.38754396">
        <ele>1172.0000</ele>
        <time>2018-10-12T19:00:11Z</time>
      </trkpt>
      <trkpt lat="38.13849116" lon="-2.38762635">
        <ele>1173.0000</ele>
        <time>2018-10-12T19:00:17Z</time>
      </trkpt>
      <trkpt lat="38.13853634" lon="-2.38770715">
        <ele>1175.0000</ele>
        <time>2018-10-12T19:00:22Z</time>
      </trkpt>
      <trkpt lat="38.13859594" lon="-2.38780673">
        <ele>1176.0000</ele>
        <time>2018-10-12T19:00:29Z</time>
      </trkpt>
      <trkpt lat="38.13866224" lon="-2.38789994">
        <ele>1177.0000</ele>
        <time>2018-10-12T19:00:37Z</time>
      </trkpt>
      <trkpt lat="38.13869819" lon="-2.38788770">
        <ele>1177.0000</ele>
        <time>2018-10-12T19:00:40Z</time>
      </trkpt>
      <trkpt lat="38.13871052" lon="-2.38777991">
        <ele>1178.0000</ele>
        <time>2018-10-12T19:00:45Z</time>
      </trkpt>
      <trkpt lat="38.13870389" lon="-2.38775828">
        <ele>1178.0000</ele>
        <time>2018-10-12T19:00:46Z</time>
      </trkpt>
      <trkpt lat="38.13867942" lon="-2.38758302">
        <ele>1178.0000</ele>
        <time>2018-10-12T19:00:53Z</time>
      </trkpt>
      <trkpt lat="38.13862938" lon="-2.38743935">
        <ele>1179.0000</ele>
        <time>2018-10-12T19:00:59Z</time>
      </trkpt>
      <trkpt lat="38.13856526" lon="-2.38727306">
        <ele>1180.0000</ele>
        <time>2018-10-12T19:01:06Z</time>
      </trkpt>
      <trkpt lat="38.13853818" lon="-2.38703601">
        <ele>1181.0000</ele>
        <time>2018-10-12T19:01:14Z</time>
      </trkpt>
      <trkpt lat="38.13854271" lon="-2.38702822">
        <ele>1181.0000</ele>
        <time>2018-10-12T19:01:15Z</time>
      </trkpt>
      <trkpt lat="38.13854690" lon="-2.38698438">
        <ele>1183.0000</ele>
        <time>2018-10-12T19:02:41Z</time>
      </trkpt>
      <trkpt lat="38.13853600" lon="-2.38694775">
        <ele>1183.0000</ele>
        <time>2018-10-12T19:02:42Z</time>
      </trkpt>
      <trkpt lat="38.13850558" lon="-2.38685874">
        <ele>1182.0000</ele>
        <time>2018-10-12T19:02:44Z</time>
      </trkpt>
      <trkpt lat="38.13841631" lon="-2.38648239">
        <ele>1182.0000</ele>
        <time>2018-10-12T19:02:53Z</time>
      </trkpt>
      <trkpt lat="38.13848186" lon="-2.38642372">
        <ele>1182.0000</ele>
        <time>2018-10-12T19:02:55Z</time>
      </trkpt>
      <trkpt lat="38.13857121" lon="-2.38638030">
        <ele>1182.0000</ele>
        <time>2018-10-12T19:02:57Z</time>
      </trkpt>
      <trkpt lat="38.13861429" lon="-2.38607260">
        <ele>1181.0000</ele>
        <time>2018-10-12T19:03:02Z</time>
      </trkpt>
      <trkpt lat="38.13856283" lon="-2.38600043">
        <ele>1181.0000</ele>
        <time>2018-10-12T19:03:04Z</time>
      </trkpt>
      <trkpt lat="38.13853877" lon="-2.38597235">
        <ele>1181.0000</ele>
        <time>2018-10-12T19:03:05Z</time>
      </trkpt>
      <trkpt lat="38.13849837" lon="-2.38592424">
        <ele>1181.0000</ele>
        <time>2018-10-12T19:03:07Z</time>
      </trkpt>
      <trkpt lat="38.13846836" lon="-2.38586724">
        <ele>1181.0000</ele>
        <time>2018-10-12T19:03:09Z</time>
      </trkpt>
      <trkpt lat="38.13844037" lon="-2.38576909">
        <ele>1181.0000</ele>
        <time>2018-10-12T19:03:12Z</time>
      </trkpt>
      <trkpt lat="38.13844079" lon="-2.38565032">
        <ele>1183.0000</ele>
        <time>2018-10-12T19:03:15Z</time>
      </trkpt>
      <trkpt lat="38.13847163" lon="-2.38547078">
        <ele>1184.0000</ele>
        <time>2018-10-12T19:03:20Z</time>
      </trkpt>
      <trkpt lat="38.13853332" lon="-2.38527724">
        <ele>1185.0000</ele>
        <time>2018-10-12T19:03:27Z</time>
      </trkpt>
      <trkpt lat="38.13855210" lon="-2.38516417">
        <ele>1186.0000</ele>
        <time>2018-10-12T19:03:31Z</time>
      </trkpt>
      <trkpt lat="38.13856383" lon="-2.38499896">
        <ele>1187.0000</ele>
        <time>2018-10-12T19:03:37Z</time>
      </trkpt>
      <trkpt lat="38.13858655" lon="-2.38484549">
        <ele>1188.0000</ele>
        <time>2018-10-12T19:03:43Z</time>
      </trkpt>
      <trkpt lat="38.13860918" lon="-2.38465396">
        <ele>1189.0000</ele>
        <time>2018-10-12T19:03:50Z</time>
      </trkpt>
      <trkpt lat="38.13863608" lon="-2.38448482">
        <ele>1190.0000</ele>
        <time>2018-10-12T19:03:56Z</time>
      </trkpt>
      <trkpt lat="38.13869568" lon="-2.38428130">
        <ele>1191.0000</ele>
        <time>2018-10-12T19:04:04Z</time>
      </trkpt>
      <trkpt lat="38.13878947" lon="-2.38422632">
        <ele>1192.0000</ele>
        <time>2018-10-12T19:04:10Z</time>
      </trkpt>
      <trkpt lat="38.13882300" lon="-2.38424350">
        <ele>1192.0000</ele>
        <time>2018-10-12T19:04:12Z</time>
      </trkpt>
      <trkpt lat="38.13894982" lon="-2.38434316">
        <ele>1193.0000</ele>
        <time>2018-10-12T19:04:19Z</time>
      </trkpt>
      <trkpt lat="38.13914922" lon="-2.38450795">
        <ele>1194.0000</ele>
        <time>2018-10-12T19:04:29Z</time>
      </trkpt>
      <trkpt lat="38.13952758" lon="-2.38454584">
        <ele>1195.0000</ele>
        <time>2018-10-12T19:04:43Z</time>
      </trkpt>
      <trkpt lat="38.13981860" lon="-2.38451700">
        <ele>1197.0000</ele>
        <time>2018-10-12T19:04:54Z</time>
      </trkpt>
      <trkpt lat="38.14000007" lon="-2.38451742">
        <ele>1197.0000</ele>
        <time>2018-10-12T19:05:01Z</time>
      </trkpt>
      <trkpt lat="38.14018774" lon="-2.38453678">
        <ele>1198.0000</ele>
        <time>2018-10-12T19:05:08Z</time>
      </trkpt>
      <trkpt lat="38.14033166" lon="-2.38459965">
        <ele>1199.0000</ele>
        <time>2018-10-12T19:05:14Z</time>
      </trkpt>
      <trkpt lat="38.14035622" lon="-2.38460920">
        <ele>1199.0000</ele>
        <time>2018-10-12T19:05:15Z</time>
      </trkpt>
      <trkpt lat="38.14043576" lon="-2.38463183">
        <ele>1200.0000</ele>
        <time>2018-10-12T19:05:18Z</time>
      </trkpt>
      <trkpt lat="38.14046099" lon="-2.38464038">
        <ele>1201.0000</ele>
        <time>2018-10-12T19:05:19Z</time>
      </trkpt>
      <trkpt lat="38.14052713" lon="-2.38467131">
        <ele>1201.0000</ele>
        <time>2018-10-12T19:05:22Z</time>
      </trkpt>
      <trkpt lat="38.14054976" lon="-2.38468657">
        <ele>1202.0000</ele>
        <time>2018-10-12T19:05:23Z</time>
      </trkpt>
      <trkpt lat="38.14063810" lon="-2.38474071">
        <ele>1203.0000</ele>
        <time>2018-10-12T19:05:27Z</time>
      </trkpt>
      <trkpt lat="38.14072242" lon="-2.38480081">
        <ele>1204.0000</ele>
        <time>2018-10-12T19:05:31Z</time>
      </trkpt>
      <trkpt lat="38.14081035" lon="-2.38488790">
        <ele>1205.0000</ele>
        <time>2018-10-12T19:05:35Z</time>
      </trkpt>
      <trkpt lat="38.14085796" lon="-2.38500910">
        <ele>1207.0000</ele>
        <time>2018-10-12T19:05:39Z</time>
      </trkpt>
      <trkpt lat="38.14088973" lon="-2.38513601">
        <ele>1208.0000</ele>
        <time>2018-10-12T19:05:43Z</time>
      </trkpt>
      <trkpt lat="38.14095544" lon="-2.38530708">
        <ele>1209.0000</ele>
        <time>2018-10-12T19:05:49Z</time>
      </trkpt>
      <trkpt lat="38.14111386" lon="-2.38544278">
        <ele>1210.0000</ele>
        <time>2018-10-12T19:05:56Z</time>
      </trkpt>
      <trkpt lat="38.14137462" lon="-2.38548033">
        <ele>1211.0000</ele>
        <time>2018-10-12T19:06:06Z</time>
      </trkpt>
      <trkpt lat="38.14156598" lon="-2.38549475">
        <ele>1212.0000</ele>
        <time>2018-10-12T19:06:14Z</time>
      </trkpt>
      <trkpt lat="38.14169246" lon="-2.38555066">
        <ele>1213.0000</ele>
        <time>2018-10-12T19:06:20Z</time>
      </trkpt>
      <trkpt lat="38.14175692" lon="-2.38566583">
        <ele>1214.0000</ele>
        <time>2018-10-12T19:06:25Z</time>
      </trkpt>
      <trkpt lat="38.14174711" lon="-2.38586531">
        <ele>1215.0000</ele>
        <time>2018-10-12T19:06:31Z</time>
      </trkpt>
      <trkpt lat="38.14168651" lon="-2.38613739">
        <ele>1216.0000</ele>
        <time>2018-10-12T19:06:39Z</time>
      </trkpt>
      <trkpt lat="38.14161107" lon="-2.38637745">
        <ele>1217.0000</ele>
        <time>2018-10-12T19:06:45Z</time>
      </trkpt>
      <trkpt lat="38.14156355" lon="-2.38663285">
        <ele>1217.0000</ele>
        <time>2018-10-12T19:06:50Z</time>
      </trkpt>
      <trkpt lat="38.14159414" lon="-2.38687969">
        <ele>1217.0000</ele>
        <time>2018-10-12T19:06:55Z</time>
      </trkpt>
      <trkpt lat="38.14170612" lon="-2.38707457">
        <ele>1217.0000</ele>
        <time>2018-10-12T19:07:00Z</time>
      </trkpt>
      <trkpt lat="38.14179271" lon="-2.38714842">
        <ele>1217.0000</ele>
        <time>2018-10-12T19:07:03Z</time>
      </trkpt>
      <trkpt lat="38.14198365" lon="-2.38732310">
        <ele>1218.0000</ele>
        <time>2018-10-12T19:07:10Z</time>
      </trkpt>
      <trkpt lat="38.14222387" lon="-2.38794830">
        <ele>1218.0000</ele>
        <time>2018-10-12T19:07:23Z</time>
      </trkpt>
      <trkpt lat="38.14230677" lon="-2.38814243">
        <ele>1218.0000</ele>
        <time>2018-10-12T19:07:27Z</time>
      </trkpt>
      <trkpt lat="38.14240660" lon="-2.38835516">
        <ele>1218.0000</ele>
        <time>2018-10-12T19:07:32Z</time>
      </trkpt>
      <trkpt lat="38.14257415" lon="-2.38862874">
        <ele>1218.0000</ele>
        <time>2018-10-12T19:07:40Z</time>
      </trkpt>
      <trkpt lat="38.14270022" lon="-2.38876604">
        <ele>1220.0000</ele>
        <time>2018-10-12T19:07:46Z</time>
      </trkpt>
      <trkpt lat="38.14280239" lon="-2.38881365">
        <ele>1221.0000</ele>
        <time>2018-10-12T19:07:50Z</time>
      </trkpt>
      <trkpt lat="38.14288202" lon="-2.38883620">
        <ele>1221.0000</ele>
        <time>2018-10-12T19:07:53Z</time>
      </trkpt>
      <trkpt lat="38.14298671" lon="-2.38885028">
        <ele>1222.0000</ele>
        <time>2018-10-12T19:07:57Z</time>
      </trkpt>
      <trkpt lat="38.14308646" lon="-2.38884994">
        <ele>1223.0000</ele>
        <time>2018-10-12T19:08:01Z</time>
      </trkpt>
      <trkpt lat="38.14327606" lon="-2.38884458">
        <ele>1224.0000</ele>
        <time>2018-10-12T19:08:09Z</time>
      </trkpt>
      <trkpt lat="38.14341385" lon="-2.38884055">
        <ele>1225.0000</ele>
        <time>2018-10-12T19:08:15Z</time>
      </trkpt>
      <trkpt lat="38.14354671" lon="-2.38886168">
        <ele>1226.0000</ele>
        <time>2018-10-12T19:08:21Z</time>
      </trkpt>
      <trkpt lat="38.14365651" lon="-2.38885841">
        <ele>1227.0000</ele>
        <time>2018-10-12T19:08:26Z</time>
      </trkpt>
      <trkpt lat="38.14374276" lon="-2.38889236">
        <ele>1229.0000</ele>
        <time>2018-10-12T19:08:30Z</time>
      </trkpt>
      <trkpt lat="38.14385457" lon="-2.38892002">
        <ele>1230.0000</ele>
        <time>2018-10-12T19:08:35Z</time>
      </trkpt>
      <trkpt lat="38.14387645" lon="-2.38892890">
        <ele>1230.0000</ele>
        <time>2018-10-12T19:08:36Z</time>
      </trkpt>
      <trkpt lat="38.14398181" lon="-2.38897860">
        <ele>1231.0000</ele>
        <time>2018-10-12T19:08:41Z</time>
      </trkpt>
      <trkpt lat="38.14407602" lon="-2.38903116">
        <ele>1232.0000</ele>
        <time>2018-10-12T19:08:46Z</time>
      </trkpt>
      <trkpt lat="38.14417686" lon="-2.38908221">
        <ele>1233.0000</ele>
        <time>2018-10-12T19:08:51Z</time>
      </trkpt>
      <trkpt lat="38.14425825" lon="-2.38911976">
        <ele>1234.0000</ele>
        <time>2018-10-12T19:08:55Z</time>
      </trkpt>
      <trkpt lat="38.14427769" lon="-2.38912956">
        <ele>1234.0000</ele>
        <time>2018-10-12T19:08:56Z</time>
      </trkpt>
      <trkpt lat="38.14435363" lon="-2.38916535">
        <ele>1235.0000</ele>
        <time>2018-10-12T19:09:00Z</time>
      </trkpt>
      <trkpt lat="38.14437098" lon="-2.38917600">
        <ele>1235.0000</ele>
        <time>2018-10-12T19:09:01Z</time>
      </trkpt>
      <trkpt lat="38.14446067" lon="-2.38922260">
        <ele>1236.0000</ele>
        <time>2018-10-12T19:09:06Z</time>
      </trkpt>
      <trkpt lat="38.14449889" lon="-2.38923853">
        <ele>1237.0000</ele>
        <time>2018-10-12T19:09:08Z</time>
      </trkpt>
      <trkpt lat="38.14457508" lon="-2.38927256">
        <ele>1238.0000</ele>
        <time>2018-10-12T19:09:12Z</time>
      </trkpt>
      <trkpt lat="38.14461146" lon="-2.38928295">
        <ele>1239.0000</ele>
        <time>2018-10-12T19:09:14Z</time>
      </trkpt>
      <trkpt lat="38.14464918" lon="-2.38926426">
        <ele>1240.0000</ele>
        <time>2018-10-12T19:09:16Z</time>
      </trkpt>
      <trkpt lat="38.14471799" lon="-2.38924934">
        <ele>1241.0000</ele>
        <time>2018-10-12T19:09:20Z</time>
      </trkpt>
      <trkpt lat="38.14478723" lon="-2.38919377">
        <ele>1242.0000</ele>
        <time>2018-10-12T19:09:24Z</time>
      </trkpt>
      <trkpt lat="38.14486308" lon="-2.38915798">
        <ele>1243.0000</ele>
        <time>2018-10-12T19:09:28Z</time>
      </trkpt>
      <trkpt lat="38.14496233" lon="-2.38911263">
        <ele>1244.0000</ele>
        <time>2018-10-12T19:09:33Z</time>
      </trkpt>
      <trkpt lat="38.14506442" lon="-2.38908899">
        <ele>1245.0000</ele>
        <time>2018-10-12T19:09:38Z</time>
      </trkpt>
      <trkpt lat="38.14517171" lon="-2.38907022">
        <ele>1246.0000</ele>
        <time>2018-10-12T19:09:43Z</time>
      </trkpt>
      <trkpt lat="38.14525410" lon="-2.38908967">
        <ele>1247.0000</ele>
        <time>2018-10-12T19:09:47Z</time>
      </trkpt>
      <trkpt lat="38.14532761" lon="-2.38908958">
        <ele>1248.0000</ele>
        <time>2018-10-12T19:09:51Z</time>
      </trkpt>
      <trkpt lat="38.14540238" lon="-2.38908204">
        <ele>1250.0000</ele>
        <time>2018-10-12T19:09:55Z</time>
      </trkpt>
      <trkpt lat="38.14550179" lon="-2.38909453">
        <ele>1251.0000</ele>
        <time>2018-10-12T19:10:00Z</time>
      </trkpt>
      <trkpt lat="38.14559080" lon="-2.38911431">
        <ele>1252.0000</ele>
        <time>2018-10-12T19:10:05Z</time>
      </trkpt>
      <trkpt lat="38.14568216" lon="-2.38912847">
        <ele>1253.0000</ele>
        <time>2018-10-12T19:10:10Z</time>
      </trkpt>
      <trkpt lat="38.14578828" lon="-2.38911774">
        <ele>1254.0000</ele>
        <time>2018-10-12T19:10:16Z</time>
      </trkpt>
      <trkpt lat="38.14584310" lon="-2.38909956">
        <ele>1255.0000</ele>
        <time>2018-10-12T19:10:19Z</time>
      </trkpt>
      <trkpt lat="38.14595667" lon="-2.38906410">
        <ele>1256.0000</ele>
        <time>2018-10-12T19:10:25Z</time>
      </trkpt>
      <trkpt lat="38.14608005" lon="-2.38900216">
        <ele>1257.0000</ele>
        <time>2018-10-12T19:10:32Z</time>
      </trkpt>
      <trkpt lat="38.14620411" lon="-2.38900442">
        <ele>1258.0000</ele>
        <time>2018-10-12T19:10:39Z</time>
      </trkpt>
      <trkpt lat="38.14627326" lon="-2.38898925">
        <ele>1259.0000</ele>
        <time>2018-10-12T19:10:43Z</time>
      </trkpt>
      <trkpt lat="38.14630695" lon="-2.38899922">
        <ele>1260.0000</ele>
        <time>2018-10-12T19:10:45Z</time>
      </trkpt>
      <trkpt lat="38.14634048" lon="-2.38899746">
        <ele>1260.0000</ele>
        <time>2018-10-12T19:10:47Z</time>
      </trkpt>
      <trkpt lat="38.14641030" lon="-2.38899151">
        <ele>1261.0000</ele>
        <time>2018-10-12T19:10:51Z</time>
      </trkpt>
      <trkpt lat="38.14649680" lon="-2.38900174">
        <ele>1262.0000</ele>
        <time>2018-10-12T19:10:56Z</time>
      </trkpt>
      <trkpt lat="38.14658758" lon="-2.38901020">
        <ele>1263.0000</ele>
        <time>2018-10-12T19:11:01Z</time>
      </trkpt>
      <trkpt lat="38.14663720" lon="-2.38903191">
        <ele>1263.0000</ele>
        <time>2018-10-12T19:11:04Z</time>
      </trkpt>
      <trkpt lat="38.14668900" lon="-2.38902990">
        <ele>1264.0000</ele>
        <time>2018-10-12T19:11:07Z</time>
      </trkpt>
      <trkpt lat="38.14672353" lon="-2.38903560">
        <ele>1264.0000</ele>
        <time>2018-10-12T19:11:09Z</time>
      </trkpt>
      <trkpt lat="38.14677399" lon="-2.38905253">
        <ele>1265.0000</ele>
        <time>2018-10-12T19:11:12Z</time>
      </trkpt>
      <trkpt lat="38.14688027" lon="-2.38905714">
        <ele>1266.0000</ele>
        <time>2018-10-12T19:11:18Z</time>
      </trkpt>
      <trkpt lat="38.14696325" lon="-2.38906745">
        <ele>1267.0000</ele>
        <time>2018-10-12T19:11:23Z</time>
      </trkpt>
      <trkpt lat="38.14701003" lon="-2.38907977">
        <ele>1268.0000</ele>
        <time>2018-10-12T19:11:26Z</time>
      </trkpt>
      <trkpt lat="38.14704598" lon="-2.38906955">
        <ele>1269.0000</ele>
        <time>2018-10-12T19:11:28Z</time>
      </trkpt>
      <trkpt lat="38.14713961" lon="-2.38910282">
        <ele>1270.0000</ele>
        <time>2018-10-12T19:11:33Z</time>
      </trkpt>
      <trkpt lat="38.14724891" lon="-2.38913803">
        <ele>1271.0000</ele>
        <time>2018-10-12T19:11:39Z</time>
      </trkpt>
      <trkpt lat="38.14733818" lon="-2.38921849">
        <ele>1272.0000</ele>
        <time>2018-10-12T19:11:45Z</time>
      </trkpt>
      <trkpt lat="38.14742954" lon="-2.38929024">
        <ele>1273.0000</ele>
        <time>2018-10-12T19:11:51Z</time>
      </trkpt>
      <trkpt lat="38.14747757" lon="-2.38939502">
        <ele>1274.0000</ele>
        <time>2018-10-12T19:11:56Z</time>
      </trkpt>
      <trkpt lat="38.14751696" lon="-2.38948236">
        <ele>1275.0000</ele>
        <time>2018-10-12T19:12:00Z</time>
      </trkpt>
      <trkpt lat="38.14756046" lon="-2.38961622">
        <ele>1276.0000</ele>
        <time>2018-10-12T19:12:06Z</time>
      </trkpt>
      <trkpt lat="38.14759072" lon="-2.38975100">
        <ele>1277.0000</ele>
        <time>2018-10-12T19:12:12Z</time>
      </trkpt>
      <trkpt lat="38.14761327" lon="-2.38986097">
        <ele>1278.0000</ele>
        <time>2018-10-12T19:12:17Z</time>
      </trkpt>
      <trkpt lat="38.14763012" lon="-2.38999474">
        <ele>1279.0000</ele>
        <time>2018-10-12T19:12:23Z</time>
      </trkpt>
      <trkpt lat="38.14764864" lon="-2.39012408">
        <ele>1280.0000</ele>
        <time>2018-10-12T19:12:29Z</time>
      </trkpt>
      <trkpt lat="38.14766289" lon="-2.39026498">
        <ele>1282.0000</ele>
        <time>2018-10-12T19:12:35Z</time>
      </trkpt>
      <trkpt lat="38.14767580" lon="-2.39038802">
        <ele>1283.0000</ele>
        <time>2018-10-12T19:12:40Z</time>
      </trkpt>
      <trkpt lat="38.14770363" lon="-2.39050118">
        <ele>1284.0000</ele>
        <time>2018-10-12T19:12:45Z</time>
      </trkpt>
      <trkpt lat="38.14775325" lon="-2.39061861">
        <ele>1285.0000</ele>
        <time>2018-10-12T19:12:50Z</time>
      </trkpt>
      <trkpt lat="38.14780949" lon="-2.39076772">
        <ele>1286.0000</ele>
        <time>2018-10-12T19:12:56Z</time>
      </trkpt>
      <trkpt lat="38.14787453" lon="-2.39097978">
        <ele>1287.0000</ele>
        <time>2018-10-12T19:13:03Z</time>
      </trkpt>
      <trkpt lat="38.14794796" lon="-2.39119084">
        <ele>1288.0000</ele>
        <time>2018-10-12T19:13:10Z</time>
      </trkpt>
      <trkpt lat="38.14806103" lon="-2.39144741">
        <ele>1288.0000</ele>
        <time>2018-10-12T19:13:18Z</time>
      </trkpt>
      <trkpt lat="38.14814049" lon="-2.39160608">
        <ele>1288.0000</ele>
        <time>2018-10-12T19:13:23Z</time>
      </trkpt>
      <trkpt lat="38.14818525" lon="-2.39170448">
        <ele>1288.0000</ele>
        <time>2018-10-12T19:13:26Z</time>
      </trkpt>
      <trkpt lat="38.14823915" lon="-2.39187153">
        <ele>1288.0000</ele>
        <time>2018-10-12T19:13:30Z</time>
      </trkpt>
      <trkpt lat="38.14826153" lon="-2.39202375">
        <ele>1288.0000</ele>
        <time>2018-10-12T19:13:33Z</time>
      </trkpt>
      <trkpt lat="38.14826169" lon="-2.39219172">
        <ele>1288.0000</ele>
        <time>2018-10-12T19:13:36Z</time>
      </trkpt>
      <trkpt lat="38.14823026" lon="-2.39259699">
        <ele>1287.0000</ele>
        <time>2018-10-12T19:13:43Z</time>
      </trkpt>
      <trkpt lat="38.14813630" lon="-2.39309521">
        <ele>1287.0000</ele>
        <time>2018-10-12T19:13:52Z</time>
      </trkpt>
      <trkpt lat="38.14811107" lon="-2.39326008">
        <ele>1287.0000</ele>
        <time>2018-10-12T19:13:55Z</time>
      </trkpt>
      <trkpt lat="38.14814854" lon="-2.39393365">
        <ele>1287.0000</ele>
        <time>2018-10-12T19:14:08Z</time>
      </trkpt>
      <trkpt lat="38.14838156" lon="-2.39407933">
        <ele>1288.0000</ele>
        <time>2018-10-12T19:14:16Z</time>
      </trkpt>
      <trkpt lat="38.14843964" lon="-2.39408670">
        <ele>1288.0000</ele>
        <time>2018-10-12T19:14:18Z</time>
      </trkpt>
      <trkpt lat="38.14854685" lon="-2.39409031">
        <ele>1289.0000</ele>
        <time>2018-10-12T19:14:22Z</time>
      </trkpt>
      <trkpt lat="38.14867199" lon="-2.39407086">
        <ele>1290.0000</ele>
        <time>2018-10-12T19:14:27Z</time>
      </trkpt>
      <trkpt lat="38.14882588" lon="-2.39405209">
        <ele>1291.0000</ele>
        <time>2018-10-12T19:14:33Z</time>
      </trkpt>
      <trkpt lat="38.14898455" lon="-2.39402560">
        <ele>1292.0000</ele>
        <time>2018-10-12T19:14:40Z</time>
      </trkpt>
      <trkpt lat="38.14919929" lon="-2.39412409">
        <ele>1293.0000</ele>
        <time>2018-10-12T19:14:49Z</time>
      </trkpt>
      <trkpt lat="38.14921949" lon="-2.39416868">
        <ele>1293.0000</ele>
        <time>2018-10-12T19:14:51Z</time>
      </trkpt>
      <trkpt lat="38.14924665" lon="-2.39433489">
        <ele>1294.0000</ele>
        <time>2018-10-12T19:14:56Z</time>
      </trkpt>
      <trkpt lat="38.14926467" lon="-2.39445853">
        <ele>1294.0000</ele>
        <time>2018-10-12T19:15:00Z</time>
      </trkpt>
      <trkpt lat="38.14927725" lon="-2.39457730">
        <ele>1295.0000</ele>
        <time>2018-10-12T19:15:04Z</time>
      </trkpt>
      <trkpt lat="38.14927691" lon="-2.39476220">
        <ele>1296.0000</ele>
        <time>2018-10-12T19:15:11Z</time>
      </trkpt>
      <trkpt lat="38.14926249" lon="-2.39488743">
        <ele>1297.0000</ele>
        <time>2018-10-12T19:15:16Z</time>
      </trkpt>
      <trkpt lat="38.14923492" lon="-2.39499094">
        <ele>1298.0000</ele>
        <time>2018-10-12T19:15:20Z</time>
      </trkpt>
      <trkpt lat="38.14922117" lon="-2.39504744">
        <ele>1298.0000</ele>
        <time>2018-10-12T19:15:22Z</time>
      </trkpt>
      <trkpt lat="38.14914993" lon="-2.39523720">
        <ele>1300.0000</ele>
        <time>2018-10-12T19:15:28Z</time>
      </trkpt>
      <trkpt lat="38.14907524" lon="-2.39543703">
        <ele>1301.0000</ele>
        <time>2018-10-12T19:15:35Z</time>
      </trkpt>
      <trkpt lat="38.14898581" lon="-2.39559863">
        <ele>1302.0000</ele>
        <time>2018-10-12T19:15:41Z</time>
      </trkpt>
      <trkpt lat="38.14891406" lon="-2.39573232">
        <ele>1303.0000</ele>
        <time>2018-10-12T19:15:46Z</time>
      </trkpt>
      <trkpt lat="38.14884281" lon="-2.39586384">
        <ele>1303.0000</ele>
        <time>2018-10-12T19:15:51Z</time>
      </trkpt>
      <trkpt lat="38.14879847" lon="-2.39594430">
        <ele>1304.0000</ele>
        <time>2018-10-12T19:15:54Z</time>
      </trkpt>
      <trkpt lat="38.14876821" lon="-2.39599711">
        <ele>1304.0000</ele>
        <time>2018-10-12T19:15:56Z</time>
      </trkpt>
      <trkpt lat="38.14872614" lon="-2.39607464">
        <ele>1304.0000</ele>
        <time>2018-10-12T19:15:59Z</time>
      </trkpt>
      <trkpt lat="38.14864777" lon="-2.39624211">
        <ele>1305.0000</ele>
        <time>2018-10-12T19:16:05Z</time>
      </trkpt>
      <trkpt lat="38.14847032" lon="-2.39656699">
        <ele>1306.0000</ele>
        <time>2018-10-12T19:16:16Z</time>
      </trkpt>
      <trkpt lat="38.14844660" lon="-2.39659801">
        <ele>1306.0000</ele>
        <time>2018-10-12T19:16:17Z</time>
      </trkpt>
      <trkpt lat="38.14837401" lon="-2.39668627">
        <ele>1306.0000</ele>
        <time>2018-10-12T19:16:20Z</time>
      </trkpt>
      <trkpt lat="38.14822431" lon="-2.39690998">
        <ele>1306.0000</ele>
        <time>2018-10-12T19:16:27Z</time>
      </trkpt>
      <trkpt lat="38.14819648" lon="-2.39750250">
        <ele>1306.0000</ele>
        <time>2018-10-12T19:16:40Z</time>
      </trkpt>
      <trkpt lat="38.14817218" lon="-2.39789737">
        <ele>1306.0000</ele>
        <time>2018-10-12T19:16:49Z</time>
      </trkpt>
      <trkpt lat="38.14815005" lon="-2.39802360">
        <ele>1307.0000</ele>
        <time>2018-10-12T19:16:52Z</time>
      </trkpt>
      <trkpt lat="38.14812172" lon="-2.39818898">
        <ele>1307.0000</ele>
        <time>2018-10-12T19:16:56Z</time>
      </trkpt>
      <trkpt lat="38.14809381" lon="-2.39835854">
        <ele>1308.0000</ele>
        <time>2018-10-12T19:17:00Z</time>
      </trkpt>
      <trkpt lat="38.14807780" lon="-2.39866398">
        <ele>1309.0000</ele>
        <time>2018-10-12T19:17:07Z</time>
      </trkpt>
      <trkpt lat="38.14809397" lon="-2.39898693">
        <ele>1310.0000</ele>
        <time>2018-10-12T19:17:14Z</time>
      </trkpt>
      <trkpt lat="38.14813161" lon="-2.39971498">
        <ele>1310.0000</ele>
        <time>2018-10-12T19:17:28Z</time>
      </trkpt>
      <trkpt lat="38.14813706" lon="-2.40006116">
        <ele>1311.0000</ele>
        <time>2018-10-12T19:17:35Z</time>
      </trkpt>
      <trkpt lat="38.14814954" lon="-2.40041177">
        <ele>1312.0000</ele>
        <time>2018-10-12T19:17:43Z</time>
      </trkpt>
      <trkpt lat="38.14816195" lon="-2.40063356">
        <ele>1313.0000</ele>
        <time>2018-10-12T19:17:48Z</time>
      </trkpt>
      <trkpt lat="38.14818953" lon="-2.40104176">
        <ele>1314.0000</ele>
        <time>2018-10-12T19:17:57Z</time>
      </trkpt>
      <trkpt lat="38.14821434" lon="-2.40138768">
        <ele>1315.0000</ele>
        <time>2018-10-12T19:18:05Z</time>
      </trkpt>
      <trkpt lat="38.14823127" lon="-2.40163846">
        <ele>1316.0000</ele>
        <time>2018-10-12T19:18:11Z</time>
      </trkpt>
      <trkpt lat="38.14824451" lon="-2.40185379">
        <ele>1317.0000</ele>
        <time>2018-10-12T19:18:16Z</time>
      </trkpt>
      <trkpt lat="38.14825139" lon="-2.40211523">
        <ele>1318.0000</ele>
        <time>2018-10-12T19:18:22Z</time>
      </trkpt>
      <trkpt lat="38.14824426" lon="-2.40255863">
        <ele>1319.0000</ele>
        <time>2018-10-12T19:18:32Z</time>
      </trkpt>
      <trkpt lat="38.14814879" lon="-2.40302424">
        <ele>1320.0000</ele>
        <time>2018-10-12T19:18:42Z</time>
      </trkpt>
      <trkpt lat="38.14810847" lon="-2.40317520">
        <ele>1320.0000</ele>
        <time>2018-10-12T19:18:45Z</time>
      </trkpt>
      <trkpt lat="38.14802591" lon="-2.40350008">
        <ele>1320.0000</ele>
        <time>2018-10-12T19:18:51Z</time>
      </trkpt>
      <trkpt lat="38.14794771" lon="-2.40418673">
        <ele>1320.0000</ele>
        <time>2018-10-12T19:19:02Z</time>
      </trkpt>
      <trkpt lat="38.14790597" lon="-2.40490674">
        <ele>1319.0000</ele>
        <time>2018-10-12T19:19:13Z</time>
      </trkpt>
      <trkpt lat="38.14787328" lon="-2.40563596">
        <ele>1320.0000</ele>
        <time>2018-10-12T19:19:25Z</time>
      </trkpt>
      <trkpt lat="38.14785861" lon="-2.40608917">
        <ele>1321.0000</ele>
        <time>2018-10-12T19:19:32Z</time>
      </trkpt>
      <trkpt lat="38.14783204" lon="-2.40685360">
        <ele>1320.0000</ele>
        <time>2018-10-12T19:19:42Z</time>
      </trkpt>
      <trkpt lat="38.14781955" lon="-2.40709701">
        <ele>1320.0000</ele>
        <time>2018-10-12T19:19:45Z</time>
      </trkpt>
      <trkpt lat="38.14780849" lon="-2.40741075">
        <ele>1319.0000</ele>
        <time>2018-10-12T19:19:50Z</time>
      </trkpt>
      <trkpt lat="38.14780815" lon="-2.40751921">
        <ele>1319.0000</ele>
        <time>2018-10-12T19:19:52Z</time>
      </trkpt>
      <trkpt lat="38.14780103" lon="-2.40768483">
        <ele>1319.0000</ele>
        <time>2018-10-12T19:19:55Z</time>
      </trkpt>
      <trkpt lat="38.14779139" lon="-2.40784669">
        <ele>1320.0000</ele>
        <time>2018-10-12T19:19:58Z</time>
      </trkpt>
      <trkpt lat="38.14778761" lon="-2.40790209">
        <ele>1320.0000</ele>
        <time>2018-10-12T19:19:59Z</time>
      </trkpt>
      <trkpt lat="38.14778158" lon="-2.40807132">
        <ele>1321.0000</ele>
        <time>2018-10-12T19:20:02Z</time>
      </trkpt>
      <trkpt lat="38.14778636" lon="-2.40823804">
        <ele>1323.0000</ele>
        <time>2018-10-12T19:20:05Z</time>
      </trkpt>
      <trkpt lat="38.14784059" lon="-2.40851121">
        <ele>1324.0000</ele>
        <time>2018-10-12T19:20:10Z</time>
      </trkpt>
      <trkpt lat="38.14814628" lon="-2.40908713">
        <ele>1324.0000</ele>
        <time>2018-10-12T19:20:21Z</time>
      </trkpt>
      <trkpt lat="38.14855188" lon="-2.40957026">
        <ele>1324.0000</ele>
        <time>2018-10-12T19:20:33Z</time>
      </trkpt>
      <trkpt lat="38.14863494" lon="-2.40966020">
        <ele>1325.0000</ele>
        <time>2018-10-12T19:20:36Z</time>
      </trkpt>
      <trkpt lat="38.14871381" lon="-2.40974443">
        <ele>1326.0000</ele>
        <time>2018-10-12T19:20:39Z</time>
      </trkpt>
      <trkpt lat="38.14879294" lon="-2.40982507">
        <ele>1327.0000</ele>
        <time>2018-10-12T19:20:42Z</time>
      </trkpt>
      <trkpt lat="38.14891959" lon="-2.40995926">
        <ele>1328.0000</ele>
        <time>2018-10-12T19:20:47Z</time>
      </trkpt>
      <trkpt lat="38.14901883" lon="-2.41006764">
        <ele>1329.0000</ele>
        <time>2018-10-12T19:20:51Z</time>
      </trkpt>
      <trkpt lat="38.14913718" lon="-2.41021717">
        <ele>1330.0000</ele>
        <time>2018-10-12T19:20:56Z</time>
      </trkpt>
      <trkpt lat="38.14922645" lon="-2.41049353">
        <ele>1331.0000</ele>
        <time>2018-10-12T19:21:03Z</time>
      </trkpt>
      <trkpt lat="38.14926568" lon="-2.41082914">
        <ele>1333.0000</ele>
        <time>2018-10-12T19:21:11Z</time>
      </trkpt>
      <trkpt lat="38.14929502" lon="-2.41109702">
        <ele>1333.0000</ele>
        <time>2018-10-12T19:21:18Z</time>
      </trkpt>
      <trkpt lat="38.14931094" lon="-2.41124387">
        <ele>1335.0000</ele>
        <time>2018-10-12T19:21:22Z</time>
      </trkpt>
      <trkpt lat="38.14933190" lon="-2.41145912">
        <ele>1336.0000</ele>
        <time>2018-10-12T19:21:28Z</time>
      </trkpt>
      <trkpt lat="38.14935092" lon="-2.41163221">
        <ele>1337.0000</ele>
        <time>2018-10-12T19:21:33Z</time>
      </trkpt>
      <trkpt lat="38.14936308" lon="-2.41177394">
        <ele>1338.0000</ele>
        <time>2018-10-12T19:21:37Z</time>
      </trkpt>
      <trkpt lat="38.14937850" lon="-2.41194795">
        <ele>1339.0000</ele>
        <time>2018-10-12T19:21:42Z</time>
      </trkpt>
      <trkpt lat="38.14939686" lon="-2.41215088">
        <ele>1340.0000</ele>
        <time>2018-10-12T19:21:48Z</time>
      </trkpt>
      <trkpt lat="38.14940826" lon="-2.41231533">
        <ele>1341.0000</ele>
        <time>2018-10-12T19:21:53Z</time>
      </trkpt>
      <trkpt lat="38.14942913" lon="-2.41251164">
        <ele>1342.0000</ele>
        <time>2018-10-12T19:21:59Z</time>
      </trkpt>
      <trkpt lat="38.14944162" lon="-2.41269386">
        <ele>1343.0000</ele>
        <time>2018-10-12T19:22:05Z</time>
      </trkpt>
      <trkpt lat="38.14945494" lon="-2.41283702">
        <ele>1344.0000</ele>
        <time>2018-10-12T19:22:10Z</time>
      </trkpt>
      <trkpt lat="38.14946039" lon="-2.41297013">
        <ele>1345.0000</ele>
        <time>2018-10-12T19:22:15Z</time>
      </trkpt>
      <trkpt lat="38.14947405" lon="-2.41310709">
        <ele>1346.0000</ele>
        <time>2018-10-12T19:22:20Z</time>
      </trkpt>
      <trkpt lat="38.14948436" lon="-2.41321924">
        <ele>1347.0000</ele>
        <time>2018-10-12T19:22:24Z</time>
      </trkpt>
      <trkpt lat="38.14948847" lon="-2.41324723">
        <ele>1348.0000</ele>
        <time>2018-10-12T19:22:25Z</time>
      </trkpt>
      <trkpt lat="38.14949920" lon="-2.41335972">
        <ele>1348.0000</ele>
        <time>2018-10-12T19:22:29Z</time>
      </trkpt>
      <trkpt lat="38.14952032" lon="-2.41352442">
        <ele>1349.0000</ele>
        <time>2018-10-12T19:22:35Z</time>
      </trkpt>
      <trkpt lat="38.14954211" lon="-2.41366197">
        <ele>1350.0000</ele>
        <time>2018-10-12T19:22:40Z</time>
      </trkpt>
      <trkpt lat="38.14958821" lon="-2.41378887">
        <ele>1352.0000</ele>
        <time>2018-10-12T19:22:45Z</time>
      </trkpt>
      <trkpt lat="38.14967287" lon="-2.41386950">
        <ele>1353.0000</ele>
        <time>2018-10-12T19:22:50Z</time>
      </trkpt>
      <trkpt lat="38.14978066" lon="-2.41385961">
        <ele>1354.0000</ele>
        <time>2018-10-12T19:22:55Z</time>
      </trkpt>
      <trkpt lat="38.14986566" lon="-2.41381687">
        <ele>1355.0000</ele>
        <time>2018-10-12T19:22:59Z</time>
      </trkpt>
      <trkpt lat="38.14994445" lon="-2.41375191">
        <ele>1356.0000</ele>
        <time>2018-10-12T19:23:03Z</time>
      </trkpt>
      <trkpt lat="38.15002609" lon="-2.41364889">
        <ele>1357.0000</ele>
        <time>2018-10-12T19:23:08Z</time>
      </trkpt>
      <trkpt lat="38.15012114" lon="-2.41349182">
        <ele>1358.0000</ele>
        <time>2018-10-12T19:23:14Z</time>
      </trkpt>
      <trkpt lat="38.15031040" lon="-2.41332124">
        <ele>1359.0000</ele>
        <time>2018-10-12T19:23:23Z</time>
      </trkpt>
      <trkpt lat="38.15033756" lon="-2.41331580">
        <ele>1359.0000</ele>
        <time>2018-10-12T19:23:24Z</time>
      </trkpt>
      <trkpt lat="38.15057267" lon="-2.41332099">
        <ele>1360.0000</ele>
        <time>2018-10-12T19:23:33Z</time>
      </trkpt>
      <trkpt lat="38.15073821" lon="-2.41331261">
        <ele>1361.0000</ele>
        <time>2018-10-12T19:23:40Z</time>
      </trkpt>
      <trkpt lat="38.15087182" lon="-2.41337087">
        <ele>1362.0000</ele>
        <time>2018-10-12T19:23:46Z</time>
      </trkpt>
      <trkpt lat="38.15097777" lon="-2.41347187">
        <ele>1363.0000</ele>
        <time>2018-10-12T19:23:52Z</time>
      </trkpt>
      <trkpt lat="38.15104063" lon="-2.41359307">
        <ele>1364.0000</ele>
        <time>2018-10-12T19:23:57Z</time>
      </trkpt>
      <trkpt lat="38.15110635" lon="-2.41371109">
        <ele>1365.0000</ele>
        <time>2018-10-12T19:24:02Z</time>
      </trkpt>
      <trkpt lat="38.15118296" lon="-2.41382156">
        <ele>1367.0000</ele>
        <time>2018-10-12T19:24:07Z</time>
      </trkpt>
      <trkpt lat="38.15127532" lon="-2.41395165">
        <ele>1368.0000</ele>
        <time>2018-10-12T19:24:13Z</time>
      </trkpt>
      <trkpt lat="38.15135939" lon="-2.41405131">
        <ele>1369.0000</ele>
        <time>2018-10-12T19:24:18Z</time>
      </trkpt>
      <trkpt lat="38.15146492" lon="-2.41417033">
        <ele>1370.0000</ele>
        <time>2018-10-12T19:24:24Z</time>
      </trkpt>
      <trkpt lat="38.15157338" lon="-2.41428944">
        <ele>1371.0000</ele>
        <time>2018-10-12T19:24:30Z</time>
      </trkpt>
      <trkpt lat="38.15170699" lon="-2.41442011">
        <ele>1372.0000</ele>
        <time>2018-10-12T19:24:37Z</time>
      </trkpt>
      <trkpt lat="38.15180967" lon="-2.41451667">
        <ele>1373.0000</ele>
        <time>2018-10-12T19:24:42Z</time>
      </trkpt>
      <trkpt lat="38.15181445" lon="-2.41490165">
        <ele>1374.0000</ele>
        <time>2018-10-12T19:24:55Z</time>
      </trkpt>
      <trkpt lat="38.15177111" lon="-2.41502646">
        <ele>1375.0000</ele>
        <time>2018-10-12T19:25:00Z</time>
      </trkpt>
      <trkpt lat="38.15173901" lon="-2.41517331">
        <ele>1376.0000</ele>
        <time>2018-10-12T19:25:06Z</time>
      </trkpt>
      <trkpt lat="38.15176491" lon="-2.41532745">
        <ele>1377.0000</ele>
        <time>2018-10-12T19:25:11Z</time>
      </trkpt>
      <trkpt lat="38.15188595" lon="-2.41547330">
        <ele>1379.0000</ele>
        <time>2018-10-12T19:25:17Z</time>
      </trkpt>
      <trkpt lat="38.15208627" lon="-2.41567513">
        <ele>1379.0000</ele>
        <time>2018-10-12T19:25:25Z</time>
      </trkpt>
      <trkpt lat="38.15219574" lon="-2.41580170">
        <ele>1379.0000</ele>
        <time>2018-10-12T19:25:29Z</time>
      </trkpt>
      <trkpt lat="38.15244225" lon="-2.41616472">
        <ele>1379.0000</ele>
        <time>2018-10-12T19:25:37Z</time>
      </trkpt>
      <trkpt lat="38.15251861" lon="-2.41627922">
        <ele>1379.0000</ele>
        <time>2018-10-12T19:25:39Z</time>
      </trkpt>
      <trkpt lat="38.15265096" lon="-2.41646605">
        <ele>1378.0000</ele>
        <time>2018-10-12T19:25:42Z</time>
      </trkpt>
      <trkpt lat="38.15270100" lon="-2.41652992">
        <ele>1378.0000</ele>
        <time>2018-10-12T19:25:43Z</time>
      </trkpt>
      <trkpt lat="38.15293502" lon="-2.41679303">
        <ele>1376.0000</ele>
        <time>2018-10-12T19:25:47Z</time>
      </trkpt>
      <trkpt lat="38.15307391" lon="-2.41692982">
        <ele>1375.0000</ele>
        <time>2018-10-12T19:25:49Z</time>
      </trkpt>
      <trkpt lat="38.15314256" lon="-2.41701347">
        <ele>1375.0000</ele>
        <time>2018-10-12T19:25:50Z</time>
      </trkpt>
      <trkpt lat="38.15321079" lon="-2.41710928">
        <ele>1373.0000</ele>
        <time>2018-10-12T19:25:51Z</time>
      </trkpt>
      <trkpt lat="38.15327525" lon="-2.41721925">
        <ele>1373.0000</ele>
        <time>2018-10-12T19:25:52Z</time>
      </trkpt>
      <trkpt lat="38.15333643" lon="-2.41734162">
        <ele>1372.0000</ele>
        <time>2018-10-12T19:25:53Z</time>
      </trkpt>
      <trkpt lat="38.15345847" lon="-2.41760230">
        <ele>1371.0000</ele>
        <time>2018-10-12T19:25:55Z</time>
      </trkpt>
      <trkpt lat="38.15353618" lon="-2.41772568">
        <ele>1370.0000</ele>
        <time>2018-10-12T19:25:56Z</time>
      </trkpt>
      <trkpt lat="38.15361874" lon="-2.41784588">
        <ele>1369.0000</ele>
        <time>2018-10-12T19:25:57Z</time>
      </trkpt>
      <trkpt lat="38.15370775" lon="-2.41795811">
        <ele>1368.0000</ele>
        <time>2018-10-12T19:25:58Z</time>
      </trkpt>
      <trkpt lat="38.15379870" lon="-2.41806942">
        <ele>1367.0000</ele>
        <time>2018-10-12T19:25:59Z</time>
      </trkpt>
      <trkpt lat="38.15388687" lon="-2.41818241">
        <ele>1365.0000</ele>
        <time>2018-10-12T19:26:00Z</time>
      </trkpt>
      <trkpt lat="38.15397178" lon="-2.41829582">
        <ele>1364.0000</ele>
        <time>2018-10-12T19:26:01Z</time>
      </trkpt>
      <trkpt lat="38.15405267" lon="-2.41840587">
        <ele>1362.0000</ele>
        <time>2018-10-12T19:26:02Z</time>
      </trkpt>
      <trkpt lat="38.15412618" lon="-2.41850889">
        <ele>1360.0000</ele>
        <time>2018-10-12T19:26:03Z</time>
      </trkpt>
      <trkpt lat="38.15419030" lon="-2.41860394">
        <ele>1359.0000</ele>
        <time>2018-10-12T19:26:04Z</time>
      </trkpt>
      <trkpt lat="38.15424788" lon="-2.41869706">
        <ele>1357.0000</ele>
        <time>2018-10-12T19:26:05Z</time>
      </trkpt>
      <trkpt lat="38.15434654" lon="-2.41890669">
        <ele>1356.0000</ele>
        <time>2018-10-12T19:26:07Z</time>
      </trkpt>
      <trkpt lat="38.15446489" lon="-2.41943911">
        <ele>1355.0000</ele>
        <time>2018-10-12T19:26:11Z</time>
      </trkpt>
      <trkpt lat="38.15458425" lon="-2.42005258">
        <ele>1352.0000</ele>
        <time>2018-10-12T19:26:16Z</time>
      </trkpt>
      <trkpt lat="38.15462021" lon="-2.42015853">
        <ele>1351.0000</ele>
        <time>2018-10-12T19:26:17Z</time>
      </trkpt>
      <trkpt lat="38.15465977" lon="-2.42025165">
        <ele>1349.0000</ele>
        <time>2018-10-12T19:26:18Z</time>
      </trkpt>
      <trkpt lat="38.15470344" lon="-2.42033111">
        <ele>1348.0000</ele>
        <time>2018-10-12T19:26:19Z</time>
      </trkpt>
      <trkpt lat="38.15482020" lon="-2.42045609">
        <ele>1347.0000</ele>
        <time>2018-10-12T19:26:21Z</time>
      </trkpt>
      <trkpt lat="38.15497132" lon="-2.42055374">
        <ele>1345.0000</ele>
        <time>2018-10-12T19:26:23Z</time>
      </trkpt>
      <trkpt lat="38.15514651" lon="-2.42065776">
        <ele>1344.0000</ele>
        <time>2018-10-12T19:26:25Z</time>
      </trkpt>
      <trkpt lat="38.15543015" lon="-2.42082766">
        <ele>1343.0000</ele>
        <time>2018-10-12T19:26:28Z</time>
      </trkpt>
      <trkpt lat="38.15562025" lon="-2.42092556">
        <ele>1341.0000</ele>
        <time>2018-10-12T19:26:30Z</time>
      </trkpt>
      <trkpt lat="38.15582443" lon="-2.42098985">
        <ele>1339.0000</ele>
        <time>2018-10-12T19:26:32Z</time>
      </trkpt>
      <trkpt lat="38.15593156" lon="-2.42101097">
        <ele>1337.0000</ele>
        <time>2018-10-12T19:26:33Z</time>
      </trkpt>
      <trkpt lat="38.15604169" lon="-2.42102715">
        <ele>1336.0000</ele>
        <time>2018-10-12T19:26:34Z</time>
      </trkpt>
      <trkpt lat="38.15615443" lon="-2.42103947">
        <ele>1334.0000</ele>
        <time>2018-10-12T19:26:35Z</time>
      </trkpt>
      <trkpt lat="38.15626599" lon="-2.42105204">
        <ele>1333.0000</ele>
        <time>2018-10-12T19:26:36Z</time>
      </trkpt>
      <trkpt lat="38.15647613" lon="-2.42108104">
        <ele>1331.0000</ele>
        <time>2018-10-12T19:26:38Z</time>
      </trkpt>
      <trkpt lat="38.15666732" lon="-2.42110015">
        <ele>1329.0000</ele>
        <time>2018-10-12T19:26:40Z</time>
      </trkpt>
      <trkpt lat="38.15676120" lon="-2.42110376">
        <ele>1328.0000</ele>
        <time>2018-10-12T19:26:41Z</time>
      </trkpt>
      <trkpt lat="38.15685859" lon="-2.42110468">
        <ele>1327.0000</ele>
        <time>2018-10-12T19:26:42Z</time>
      </trkpt>
      <trkpt lat="38.15695809" lon="-2.42109571">
        <ele>1325.0000</ele>
        <time>2018-10-12T19:26:43Z</time>
      </trkpt>
      <trkpt lat="38.15716470" lon="-2.42105020">
        <ele>1324.0000</ele>
        <time>2018-10-12T19:26:45Z</time>
      </trkpt>
      <trkpt lat="38.15766493" lon="-2.42089572">
        <ele>1323.0000</ele>
        <time>2018-10-12T19:26:50Z</time>
      </trkpt>
      <trkpt lat="38.15783668" lon="-2.42084551">
        <ele>1321.0000</ele>
        <time>2018-10-12T19:26:52Z</time>
      </trkpt>
      <trkpt lat="38.15792838" lon="-2.42083034">
        <ele>1320.0000</ele>
        <time>2018-10-12T19:26:53Z</time>
      </trkpt>
      <trkpt lat="38.15802561" lon="-2.42082791">
        <ele>1319.0000</ele>
        <time>2018-10-12T19:26:54Z</time>
      </trkpt>
      <trkpt lat="38.15812812" lon="-2.42084065">
        <ele>1318.0000</ele>
        <time>2018-10-12T19:26:55Z</time>
      </trkpt>
      <trkpt lat="38.15833867" lon="-2.42089957">
        <ele>1316.0000</ele>
        <time>2018-10-12T19:26:57Z</time>
      </trkpt>
      <trkpt lat="38.15844512" lon="-2.42094106">
        <ele>1316.0000</ele>
        <time>2018-10-12T19:26:58Z</time>
      </trkpt>
      <trkpt lat="38.15865844" lon="-2.42104198">
        <ele>1314.0000</ele>
        <time>2018-10-12T19:27:00Z</time>
      </trkpt>
      <trkpt lat="38.15875818" lon="-2.42109915">
        <ele>1313.0000</ele>
        <time>2018-10-12T19:27:01Z</time>
      </trkpt>
      <trkpt lat="38.15885324" lon="-2.42115765">
        <ele>1312.0000</ele>
        <time>2018-10-12T19:27:02Z</time>
      </trkpt>
      <trkpt lat="38.15894376" lon="-2.42121968">
        <ele>1311.0000</ele>
        <time>2018-10-12T19:27:03Z</time>
      </trkpt>
      <trkpt lat="38.15903244" lon="-2.42128984">
        <ele>1309.0000</ele>
        <time>2018-10-12T19:27:04Z</time>
      </trkpt>
      <trkpt lat="38.15911869" lon="-2.42136837">
        <ele>1308.0000</ele>
        <time>2018-10-12T19:27:05Z</time>
      </trkpt>
      <trkpt lat="38.15920050" lon="-2.42145479">
        <ele>1307.0000</ele>
        <time>2018-10-12T19:27:06Z</time>
      </trkpt>
      <trkpt lat="38.15934877" lon="-2.42163274">
        <ele>1306.0000</ele>
        <time>2018-10-12T19:27:08Z</time>
      </trkpt>
      <trkpt lat="38.15942455" lon="-2.42171941">
        <ele>1306.0000</ele>
        <time>2018-10-12T19:27:09Z</time>
      </trkpt>
      <trkpt lat="38.15968254" lon="-2.42193860">
        <ele>1305.0000</ele>
        <time>2018-10-12T19:27:12Z</time>
      </trkpt>
      <trkpt lat="38.15977575" lon="-2.42199366">
        <ele>1305.0000</ele>
        <time>2018-10-12T19:27:13Z</time>
      </trkpt>
      <trkpt lat="38.15987231" lon="-2.42203800">
        <ele>1304.0000</ele>
        <time>2018-10-12T19:27:14Z</time>
      </trkpt>
      <trkpt lat="38.15997147" lon="-2.42207505">
        <ele>1304.0000</ele>
        <time>2018-10-12T19:27:15Z</time>
      </trkpt>
      <trkpt lat="38.16017732" lon="-2.42214362">
        <ele>1302.0000</ele>
        <time>2018-10-12T19:27:17Z</time>
      </trkpt>
      <trkpt lat="38.16037237" lon="-2.42222894">
        <ele>1300.0000</ele>
        <time>2018-10-12T19:27:19Z</time>
      </trkpt>
      <trkpt lat="38.16052492" lon="-2.42235786">
        <ele>1298.0000</ele>
        <time>2018-10-12T19:27:21Z</time>
      </trkpt>
      <trkpt lat="38.16065249" lon="-2.42251628">
        <ele>1297.0000</ele>
        <time>2018-10-12T19:27:23Z</time>
      </trkpt>
      <trkpt lat="38.16071838" lon="-2.42258861">
        <ele>1296.0000</ele>
        <time>2018-10-12T19:27:24Z</time>
      </trkpt>
      <trkpt lat="38.16079272" lon="-2.42264745">
        <ele>1296.0000</ele>
        <time>2018-10-12T19:27:25Z</time>
      </trkpt>
      <trkpt lat="38.16127695" lon="-2.42297032">
        <ele>1295.0000</ele>
        <time>2018-10-12T19:27:31Z</time>
      </trkpt>
      <trkpt lat="38.16135984" lon="-2.42301324">
        <ele>1295.0000</ele>
        <time>2018-10-12T19:27:32Z</time>
      </trkpt>
      <trkpt lat="38.16169084" lon="-2.42312220">
        <ele>1293.0000</ele>
        <time>2018-10-12T19:27:36Z</time>
      </trkpt>
      <trkpt lat="38.16193333" lon="-2.42315380">
        <ele>1293.0000</ele>
        <time>2018-10-12T19:27:39Z</time>
      </trkpt>
      <trkpt lat="38.16250515" lon="-2.42311030">
        <ele>1293.0000</ele>
        <time>2018-10-12T19:27:47Z</time>
      </trkpt>
      <trkpt lat="38.16262107" lon="-2.42311508">
        <ele>1293.0000</ele>
        <time>2018-10-12T19:27:49Z</time>
      </trkpt>
      <trkpt lat="38.16298099" lon="-2.42317124">
        <ele>1294.0000</ele>
        <time>2018-10-12T19:27:56Z</time>
      </trkpt>
      <trkpt lat="38.16320260" lon="-2.42320016">
        <ele>1295.0000</ele>
        <time>2018-10-12T19:28:00Z</time>
      </trkpt>
      <trkpt lat="38.16351718" lon="-2.42321080">
        <ele>1296.0000</ele>
        <time>2018-10-12T19:28:06Z</time>
      </trkpt>
      <trkpt lat="38.16367752" lon="-2.42318691">
        <ele>1296.0000</ele>
        <time>2018-10-12T19:28:09Z</time>
      </trkpt>
      <trkpt lat="38.16389746" lon="-2.42311709">
        <ele>1297.0000</ele>
        <time>2018-10-12T19:28:13Z</time>
      </trkpt>
      <trkpt lat="38.16438328" lon="-2.42278559">
        <ele>1297.0000</ele>
        <time>2018-10-12T19:28:24Z</time>
      </trkpt>
      <trkpt lat="38.16446810" lon="-2.42275315">
        <ele>1297.0000</ele>
        <time>2018-10-12T19:28:26Z</time>
      </trkpt>
      <trkpt lat="38.16451278" lon="-2.42274871">
        <ele>1298.0000</ele>
        <time>2018-10-12T19:28:27Z</time>
      </trkpt>
      <trkpt lat="38.16468637" lon="-2.42287502">
        <ele>1299.0000</ele>
        <time>2018-10-12T19:28:32Z</time>
      </trkpt>
      <trkpt lat="38.16471294" lon="-2.42291936">
        <ele>1299.0000</ele>
        <time>2018-10-12T19:28:33Z</time>
      </trkpt>
      <trkpt lat="38.16473532" lon="-2.42297292">
        <ele>1299.0000</ele>
        <time>2018-10-12T19:28:34Z</time>
      </trkpt>
      <trkpt lat="38.16490614" lon="-2.42340845">
        <ele>1299.0000</ele>
        <time>2018-10-12T19:28:43Z</time>
      </trkpt>
      <trkpt lat="38.16494830" lon="-2.42348707">
        <ele>1300.0000</ele>
        <time>2018-10-12T19:28:45Z</time>
      </trkpt>
      <trkpt lat="38.16509415" lon="-2.42365219">
        <ele>1300.0000</ele>
        <time>2018-10-12T19:28:50Z</time>
      </trkpt>
      <trkpt lat="38.16516975" lon="-2.42372226">
        <ele>1300.0000</ele>
        <time>2018-10-12T19:28:52Z</time>
      </trkpt>
      <trkpt lat="38.16542465" lon="-2.42386023">
        <ele>1300.0000</ele>
        <time>2018-10-12T19:28:57Z</time>
      </trkpt>
      <trkpt lat="38.16570184" lon="-2.42383517">
        <ele>1300.0000</ele>
        <time>2018-10-12T19:29:01Z</time>
      </trkpt>
      <trkpt lat="38.16578105" lon="-2.42380030">
        <ele>1300.0000</ele>
        <time>2018-10-12T19:29:02Z</time>
      </trkpt>
      <trkpt lat="38.16605907" lon="-2.42367097">
        <ele>1299.0000</ele>
        <time>2018-10-12T19:29:05Z</time>
      </trkpt>
      <trkpt lat="38.16627357" lon="-2.42357374">
        <ele>1297.0000</ele>
        <time>2018-10-12T19:29:07Z</time>
      </trkpt>
      <trkpt lat="38.16649678" lon="-2.42347693">
        <ele>1296.0000</ele>
        <time>2018-10-12T19:29:09Z</time>
      </trkpt>
      <trkpt lat="38.16661454" lon="-2.42342697">
        <ele>1295.0000</ele>
        <time>2018-10-12T19:29:10Z</time>
      </trkpt>
      <trkpt lat="38.16673222" lon="-2.42337777">
        <ele>1293.0000</ele>
        <time>2018-10-12T19:29:11Z</time>
      </trkpt>
      <trkpt lat="38.16684605" lon="-2.42332974">
        <ele>1292.0000</ele>
        <time>2018-10-12T19:29:12Z</time>
      </trkpt>
      <trkpt lat="38.16695619" lon="-2.42328171">
        <ele>1290.0000</ele>
        <time>2018-10-12T19:29:13Z</time>
      </trkpt>
      <trkpt lat="38.16706281" lon="-2.42323444">
        <ele>1288.0000</ele>
        <time>2018-10-12T19:29:14Z</time>
      </trkpt>
      <trkpt lat="38.16716632" lon="-2.42318909">
        <ele>1286.0000</ele>
        <time>2018-10-12T19:29:15Z</time>
      </trkpt>
      <trkpt lat="38.16726489" lon="-2.42314978">
        <ele>1284.0000</ele>
        <time>2018-10-12T19:29:16Z</time>
      </trkpt>
      <trkpt lat="38.16735927" lon="-2.42311877">
        <ele>1282.0000</ele>
        <time>2018-10-12T19:29:17Z</time>
      </trkpt>
      <trkpt lat="38.16745148" lon="-2.42309848">
        <ele>1280.0000</ele>
        <time>2018-10-12T19:29:18Z</time>
      </trkpt>
      <trkpt lat="38.16754141" lon="-2.42308566">
        <ele>1277.0000</ele>
        <time>2018-10-12T19:29:19Z</time>
      </trkpt>
      <trkpt lat="38.16762993" lon="-2.42308046">
        <ele>1277.0000</ele>
        <time>2018-10-12T19:29:20Z</time>
      </trkpt>
      <trkpt lat="38.16771869" lon="-2.42308767">
        <ele>1276.0000</ele>
        <time>2018-10-12T19:29:21Z</time>
      </trkpt>
      <trkpt lat="38.16790351" lon="-2.42313981">
        <ele>1274.0000</ele>
        <time>2018-10-12T19:29:23Z</time>
      </trkpt>
      <trkpt lat="38.16815287" lon="-2.42327207">
        <ele>1273.0000</ele>
        <time>2018-10-12T19:29:26Z</time>
      </trkpt>
      <trkpt lat="38.16821834" lon="-2.42332085">
        <ele>1272.0000</ele>
        <time>2018-10-12T19:29:27Z</time>
      </trkpt>
      <trkpt lat="38.16827139" lon="-2.42336184">
        <ele>1272.0000</ele>
        <time>2018-10-12T19:29:28Z</time>
      </trkpt>
      <trkpt lat="38.16831632" lon="-2.42338699">
        <ele>1271.0000</ele>
        <time>2018-10-12T19:29:29Z</time>
      </trkpt>
      <trkpt lat="38.16835580" lon="-2.42338573">
        <ele>1270.0000</ele>
        <time>2018-10-12T19:29:30Z</time>
      </trkpt>
      <trkpt lat="38.16838379" lon="-2.42329680">
        <ele>1269.0000</ele>
        <time>2018-10-12T19:29:32Z</time>
      </trkpt>
      <trkpt lat="38.16828262" lon="-2.42314693">
        <ele>1268.0000</ele>
        <time>2018-10-12T19:29:35Z</time>
      </trkpt>
      <trkpt lat="38.16817366" lon="-2.42304325">
        <ele>1267.0000</ele>
        <time>2018-10-12T19:29:37Z</time>
      </trkpt>
      <trkpt lat="38.16790443" lon="-2.42284711">
        <ele>1266.0000</ele>
        <time>2018-10-12T19:29:41Z</time>
      </trkpt>
      <trkpt lat="38.16776211" lon="-2.42275608">
        <ele>1265.0000</ele>
        <time>2018-10-12T19:29:43Z</time>
      </trkpt>
      <trkpt lat="38.16770260" lon="-2.42271719">
        <ele>1264.0000</ele>
        <time>2018-10-12T19:29:44Z</time>
      </trkpt>
      <trkpt lat="38.16765440" lon="-2.42267545">
        <ele>1264.0000</ele>
        <time>2018-10-12T19:29:45Z</time>
      </trkpt>
      <trkpt lat="38.16760797" lon="-2.42255777">
        <ele>1262.0000</ele>
        <time>2018-10-12T19:29:47Z</time>
      </trkpt>
      <trkpt lat="38.16762682" lon="-2.42244327">
        <ele>1261.0000</ele>
        <time>2018-10-12T19:29:49Z</time>
      </trkpt>
      <trkpt lat="38.16799513" lon="-2.42223481">
        <ele>1260.0000</ele>
        <time>2018-10-12T19:29:57Z</time>
      </trkpt>
      <trkpt lat="38.16818187" lon="-2.42224797">
        <ele>1260.0000</ele>
        <time>2018-10-12T19:30:00Z</time>
      </trkpt>
      <trkpt lat="38.16831288" lon="-2.42226339">
        <ele>1260.0000</ele>
        <time>2018-10-12T19:30:02Z</time>
      </trkpt>
      <trkpt lat="38.16844859" lon="-2.42229223">
        <ele>1260.0000</ele>
        <time>2018-10-12T19:30:04Z</time>
      </trkpt>
      <trkpt lat="38.16858496" lon="-2.42232374">
        <ele>1259.0000</ele>
        <time>2018-10-12T19:30:06Z</time>
      </trkpt>
      <trkpt lat="38.16865436" lon="-2.42234000">
        <ele>1259.0000</ele>
        <time>2018-10-12T19:30:07Z</time>
      </trkpt>
      <trkpt lat="38.16887171" lon="-2.42239558">
        <ele>1258.0000</ele>
        <time>2018-10-12T19:30:10Z</time>
      </trkpt>
      <trkpt lat="38.16928552" lon="-2.42254586">
        <ele>1257.0000</ele>
        <time>2018-10-12T19:30:15Z</time>
      </trkpt>
      <trkpt lat="38.16956472" lon="-2.42250999">
        <ele>1255.0000</ele>
        <time>2018-10-12T19:30:18Z</time>
      </trkpt>
      <trkpt lat="38.16965323" lon="-2.42248124">
        <ele>1255.0000</ele>
        <time>2018-10-12T19:30:19Z</time>
      </trkpt>
      <trkpt lat="38.16973839" lon="-2.42245023">
        <ele>1254.0000</ele>
        <time>2018-10-12T19:30:20Z</time>
      </trkpt>
      <trkpt lat="38.16989782" lon="-2.42238518">
        <ele>1252.0000</ele>
        <time>2018-10-12T19:30:22Z</time>
      </trkpt>
      <trkpt lat="38.17004106" lon="-2.42232383">
        <ele>1251.0000</ele>
        <time>2018-10-12T19:30:24Z</time>
      </trkpt>
      <trkpt lat="38.17021868" lon="-2.42223724">
        <ele>1251.0000</ele>
        <time>2018-10-12T19:30:27Z</time>
      </trkpt>
      <trkpt lat="38.17032429" lon="-2.42218343">
        <ele>1251.0000</ele>
        <time>2018-10-12T19:30:29Z</time>
      </trkpt>
      <trkpt lat="38.17048489" lon="-2.42209819">
        <ele>1251.0000</ele>
        <time>2018-10-12T19:30:32Z</time>
      </trkpt>
      <trkpt lat="38.17059653" lon="-2.42203800">
        <ele>1253.0000</ele>
        <time>2018-10-12T19:30:34Z</time>
      </trkpt>
      <trkpt lat="38.17107229" lon="-2.42169485">
        <ele>1253.0000</ele>
        <time>2018-10-12T19:30:43Z</time>
      </trkpt>
      <trkpt lat="38.17139374" lon="-2.42129637">
        <ele>1253.0000</ele>
        <time>2018-10-12T19:30:50Z</time>
      </trkpt>
      <trkpt lat="38.17171451" lon="-2.42116126">
        <ele>1252.0000</ele>
        <time>2018-10-12T19:30:55Z</time>
      </trkpt>
      <trkpt lat="38.17186463" lon="-2.42113326">
        <ele>1251.0000</ele>
        <time>2018-10-12T19:30:57Z</time>
      </trkpt>
      <trkpt lat="38.17194099" lon="-2.42110376">
        <ele>1251.0000</ele>
        <time>2018-10-12T19:30:58Z</time>
      </trkpt>
      <trkpt lat="38.17219211" lon="-2.42081307">
        <ele>1250.0000</ele>
        <time>2018-10-12T19:31:02Z</time>
      </trkpt>
      <trkpt lat="38.17237609" lon="-2.42055541">
        <ele>1249.0000</ele>
        <time>2018-10-12T19:31:05Z</time>
      </trkpt>
      <trkpt lat="38.17254574" lon="-2.42045039">
        <ele>1247.0000</ele>
        <time>2018-10-12T19:31:07Z</time>
      </trkpt>
      <trkpt lat="38.17273752" lon="-2.42038853">
        <ele>1245.0000</ele>
        <time>2018-10-12T19:31:09Z</time>
      </trkpt>
      <trkpt lat="38.17283551" lon="-2.42034520">
        <ele>1245.0000</ele>
        <time>2018-10-12T19:31:10Z</time>
      </trkpt>
      <trkpt lat="38.17292972" lon="-2.42028392">
        <ele>1244.0000</ele>
        <time>2018-10-12T19:31:11Z</time>
      </trkpt>
      <trkpt lat="38.17310222" lon="-2.42012190">
        <ele>1243.0000</ele>
        <time>2018-10-12T19:31:13Z</time>
      </trkpt>
      <trkpt lat="38.17318528" lon="-2.42003724">
        <ele>1242.0000</ele>
        <time>2018-10-12T19:31:14Z</time>
      </trkpt>
      <trkpt lat="38.17327137" lon="-2.41996055">
        <ele>1241.0000</ele>
        <time>2018-10-12T19:31:15Z</time>
      </trkpt>
      <trkpt lat="38.17345116" lon="-2.41983382">
        <ele>1240.0000</ele>
        <time>2018-10-12T19:31:17Z</time>
      </trkpt>
      <trkpt lat="38.17354034" lon="-2.41977464">
        <ele>1238.0000</ele>
        <time>2018-10-12T19:31:18Z</time>
      </trkpt>
      <trkpt lat="38.17370295" lon="-2.41963701">
        <ele>1237.0000</ele>
        <time>2018-10-12T19:31:20Z</time>
      </trkpt>
      <trkpt lat="38.17412339" lon="-2.41916502">
        <ele>1236.0000</ele>
        <time>2018-10-12T19:31:26Z</time>
      </trkpt>
      <trkpt lat="38.17452538" lon="-2.41861894">
        <ele>1235.0000</ele>
        <time>2018-10-12T19:31:32Z</time>
      </trkpt>
      <trkpt lat="38.17461792" lon="-2.41841434">
        <ele>1234.0000</ele>
        <time>2018-10-12T19:31:34Z</time>
      </trkpt>
      <trkpt lat="38.17465178" lon="-2.41831175">
        <ele>1234.0000</ele>
        <time>2018-10-12T19:31:35Z</time>
      </trkpt>
      <trkpt lat="38.17467760" lon="-2.41821016">
        <ele>1234.0000</ele>
        <time>2018-10-12T19:31:36Z</time>
      </trkpt>
      <trkpt lat="38.17471054" lon="-2.41801938">
        <ele>1233.0000</ele>
        <time>2018-10-12T19:31:38Z</time>
      </trkpt>
      <trkpt lat="38.17471683" lon="-2.41785636">
        <ele>1233.0000</ele>
        <time>2018-10-12T19:31:40Z</time>
      </trkpt>
      <trkpt lat="38.17471037" lon="-2.41779006">
        <ele>1233.0000</ele>
        <time>2018-10-12T19:31:41Z</time>
      </trkpt>
      <trkpt lat="38.17460484" lon="-2.41754765">
        <ele>1234.0000</ele>
        <time>2018-10-12T19:31:46Z</time>
      </trkpt>
      <trkpt lat="38.17457760" lon="-2.41750876">
        <ele>1235.0000</ele>
        <time>2018-10-12T19:31:47Z</time>
      </trkpt>
      <trkpt lat="38.17453234" lon="-2.41742251">
        <ele>1236.0000</ele>
        <time>2018-10-12T19:31:49Z</time>
      </trkpt>
      <trkpt lat="38.17449739" lon="-2.41733475">
        <ele>1238.0000</ele>
        <time>2018-10-12T19:31:51Z</time>
      </trkpt>
      <trkpt lat="38.17445229" lon="-2.41718756">
        <ele>1239.0000</ele>
        <time>2018-10-12T19:31:54Z</time>
      </trkpt>
      <trkpt lat="38.17442840" lon="-2.41708816">
        <ele>1239.0000</ele>
        <time>2018-10-12T19:31:56Z</time>
      </trkpt>
      <trkpt lat="38.17439462" lon="-2.41689143">
        <ele>1240.0000</ele>
        <time>2018-10-12T19:32:00Z</time>
      </trkpt>
      <trkpt lat="38.17438381" lon="-2.41673947">
        <ele>1240.0000</ele>
        <time>2018-10-12T19:32:03Z</time>
      </trkpt>
      <trkpt lat="38.17444936" lon="-2.41617159">
        <ele>1241.0000</ele>
        <time>2018-10-12T19:32:13Z</time>
      </trkpt>
      <trkpt lat="38.17482051" lon="-2.41597252">
        <ele>1240.0000</ele>
        <time>2018-10-12T19:32:20Z</time>
      </trkpt>
      <trkpt lat="38.17486753" lon="-2.41596473">
        <ele>1240.0000</ele>
        <time>2018-10-12T19:32:21Z</time>
      </trkpt>
      <trkpt lat="38.17505881" lon="-2.41576910">
        <ele>1240.0000</ele>
        <time>2018-10-12T19:32:27Z</time>
      </trkpt>
      <trkpt lat="38.17511639" lon="-2.41563733">
        <ele>1240.0000</ele>
        <time>2018-10-12T19:32:30Z</time>
      </trkpt>
      <trkpt lat="38.17520515" lon="-2.41537967">
        <ele>1240.0000</ele>
        <time>2018-10-12T19:32:36Z</time>
      </trkpt>
      <trkpt lat="38.17524380" lon="-2.41525520">
        <ele>1241.0000</ele>
        <time>2018-10-12T19:32:39Z</time>
      </trkpt>
      <trkpt lat="38.17527087" lon="-2.41513048">
        <ele>1241.0000</ele>
        <time>2018-10-12T19:32:42Z</time>
      </trkpt>
      <trkpt lat="38.17532820" lon="-2.41493945">
        <ele>1243.0000</ele>
        <time>2018-10-12T19:32:47Z</time>
      </trkpt>
      <trkpt lat="38.17538101" lon="-2.41473770">
        <ele>1244.0000</ele>
        <time>2018-10-12T19:32:52Z</time>
      </trkpt>
      <trkpt lat="38.17539216" lon="-2.41469671">
        <ele>1244.0000</ele>
        <time>2018-10-12T19:32:53Z</time>
      </trkpt>
      <trkpt lat="38.17545720" lon="-2.41443520">
        <ele>1245.0000</ele>
        <time>2018-10-12T19:33:00Z</time>
      </trkpt>
      <trkpt lat="38.17552333" lon="-2.41415742">
        <ele>1246.0000</ele>
        <time>2018-10-12T19:33:08Z</time>
      </trkpt>
      <trkpt lat="38.17559349" lon="-2.41384863">
        <ele>1247.0000</ele>
        <time>2018-10-12T19:33:17Z</time>
      </trkpt>
      <trkpt lat="38.17564110" lon="-2.41363707">
        <ele>1248.0000</ele>
        <time>2018-10-12T19:33:23Z</time>
      </trkpt>
      <trkpt lat="38.17572852" lon="-2.41333507">
        <ele>1249.0000</ele>
        <time>2018-10-12T19:33:32Z</time>
      </trkpt>
      <trkpt lat="38.17583849" lon="-2.41302930">
        <ele>1250.0000</ele>
        <time>2018-10-12T19:33:41Z</time>
      </trkpt>
      <trkpt lat="38.17593472" lon="-2.41272655">
        <ele>1251.0000</ele>
        <time>2018-10-12T19:33:51Z</time>
      </trkpt>
      <trkpt lat="38.17599121" lon="-2.41254231">
        <ele>1252.0000</ele>
        <time>2018-10-12T19:33:57Z</time>
      </trkpt>
      <trkpt lat="38.17602675" lon="-2.41235070">
        <ele>1253.0000</ele>
        <time>2018-10-12T19:34:03Z</time>
      </trkpt>
      <trkpt lat="38.17605240" lon="-2.41211609">
        <ele>1255.0000</ele>
        <time>2018-10-12T19:34:10Z</time>
      </trkpt>
      <trkpt lat="38.17599800" lon="-2.41190571">
        <ele>1256.0000</ele>
        <time>2018-10-12T19:34:16Z</time>
      </trkpt>
      <trkpt lat="38.17583782" lon="-2.41156800">
        <ele>1257.0000</ele>
        <time>2018-10-12T19:34:26Z</time>
      </trkpt>
      <trkpt lat="38.17573850" lon="-2.41128503">
        <ele>1258.0000</ele>
        <time>2018-10-12T19:34:34Z</time>
      </trkpt>
      <trkpt lat="38.17588191" lon="-2.41124656">
        <ele>1258.0000</ele>
        <time>2018-10-12T19:34:39Z</time>
      </trkpt>
      <trkpt lat="38.17599498" lon="-2.41135510">
        <ele>1258.0000</ele>
        <time>2018-10-12T19:34:43Z</time>
      </trkpt>
      <trkpt lat="38.17617159" lon="-2.41157479">
        <ele>1259.0000</ele>
        <time>2018-10-12T19:34:51Z</time>
      </trkpt>
      <trkpt lat="38.17625457" lon="-2.41175274">
        <ele>1260.0000</ele>
        <time>2018-10-12T19:34:56Z</time>
      </trkpt>
      <trkpt lat="38.17633604" lon="-2.41189506">
        <ele>1260.0000</ele>
        <time>2018-10-12T19:35:00Z</time>
      </trkpt>
      <trkpt lat="38.17635431" lon="-2.41193186">
        <ele>1260.0000</ele>
        <time>2018-10-12T19:35:01Z</time>
      </trkpt>
      <trkpt lat="38.17641014" lon="-2.41208106">
        <ele>1261.0000</ele>
        <time>2018-10-12T19:35:05Z</time>
      </trkpt>
      <trkpt lat="38.17643025" lon="-2.41215541">
        <ele>1261.0000</ele>
        <time>2018-10-12T19:35:07Z</time>
      </trkpt>
      <trkpt lat="38.17647384" lon="-2.41229739">
        <ele>1262.0000</ele>
        <time>2018-10-12T19:35:11Z</time>
      </trkpt>
      <trkpt lat="38.17649060" lon="-2.41237350">
        <ele>1262.0000</ele>
        <time>2018-10-12T19:35:13Z</time>
      </trkpt>
      <trkpt lat="38.17650703" lon="-2.41256578">
        <ele>1263.0000</ele>
        <time>2018-10-12T19:35:18Z</time>
      </trkpt>
      <trkpt lat="38.17651181" lon="-2.41271154">
        <ele>1264.0000</ele>
        <time>2018-10-12T19:35:22Z</time>
      </trkpt>
      <trkpt lat="38.17651106" lon="-2.41274943">
        <ele>1264.0000</ele>
        <time>2018-10-12T19:35:23Z</time>
      </trkpt>
      <trkpt lat="38.17648767" lon="-2.41290550">
        <ele>1266.0000</ele>
        <time>2018-10-12T19:35:27Z</time>
      </trkpt>
      <trkpt lat="38.17647644" lon="-2.41306694">
        <ele>1267.0000</ele>
        <time>2018-10-12T19:35:31Z</time>
      </trkpt>
      <trkpt lat="38.17659722" lon="-2.41324681">
        <ele>1268.0000</ele>
        <time>2018-10-12T19:35:37Z</time>
      </trkpt>
      <trkpt lat="38.17685773" lon="-2.41330582">
        <ele>1269.0000</ele>
        <time>2018-10-12T19:35:46Z</time>
      </trkpt>
      <trkpt lat="38.17704532" lon="-2.41324665">
        <ele>1270.0000</ele>
        <time>2018-10-12T19:35:53Z</time>
      </trkpt>
      <trkpt lat="38.17720332" lon="-2.41318747">
        <ele>1271.0000</ele>
        <time>2018-10-12T19:35:59Z</time>
      </trkpt>
      <trkpt lat="38.17735997" lon="-2.41313416">
        <ele>1272.0000</ele>
        <time>2018-10-12T19:36:05Z</time>
      </trkpt>
      <trkpt lat="38.17751864" lon="-2.41307264">
        <ele>1273.0000</ele>
        <time>2018-10-12T19:36:11Z</time>
      </trkpt>
      <trkpt lat="38.17771092" lon="-2.41299234">
        <ele>1275.0000</ele>
        <time>2018-10-12T19:36:18Z</time>
      </trkpt>
      <trkpt lat="38.17798560" lon="-2.41296250">
        <ele>1275.0000</ele>
        <time>2018-10-12T19:36:27Z</time>
      </trkpt>
      <trkpt lat="38.17812306" lon="-2.41303215">
        <ele>1275.0000</ele>
        <time>2018-10-12T19:36:31Z</time>
      </trkpt>
      <trkpt lat="38.17830579" lon="-2.41315134">
        <ele>1275.0000</ele>
        <time>2018-10-12T19:36:35Z</time>
      </trkpt>
      <trkpt lat="38.17841970" lon="-2.41323499">
        <ele>1275.0000</ele>
        <time>2018-10-12T19:36:37Z</time>
      </trkpt>
      <trkpt lat="38.17854233" lon="-2.41334195">
        <ele>1275.0000</ele>
        <time>2018-10-12T19:36:39Z</time>
      </trkpt>
      <trkpt lat="38.17866453" lon="-2.41346558">
        <ele>1274.0000</ele>
        <time>2018-10-12T19:36:41Z</time>
      </trkpt>
      <trkpt lat="38.17878079" lon="-2.41359190">
        <ele>1273.0000</ele>
        <time>2018-10-12T19:36:43Z</time>
      </trkpt>
      <trkpt lat="38.17890224" lon="-2.41370212">
        <ele>1272.0000</ele>
        <time>2018-10-12T19:36:45Z</time>
      </trkpt>
      <trkpt lat="38.17904231" lon="-2.41379524">
        <ele>1270.0000</ele>
        <time>2018-10-12T19:36:47Z</time>
      </trkpt>
      <trkpt lat="38.17919821" lon="-2.41387705">
        <ele>1269.0000</ele>
        <time>2018-10-12T19:36:49Z</time>
      </trkpt>
      <trkpt lat="38.17944522" lon="-2.41398626">
        <ele>1268.0000</ele>
        <time>2018-10-12T19:36:52Z</time>
      </trkpt>
      <trkpt lat="38.17971118" lon="-2.41408140">
        <ele>1267.0000</ele>
        <time>2018-10-12T19:36:55Z</time>
      </trkpt>
      <trkpt lat="38.17989600" lon="-2.41415197">
        <ele>1265.0000</ele>
        <time>2018-10-12T19:36:57Z</time>
      </trkpt>
      <trkpt lat="38.18006834" lon="-2.41422540">
        <ele>1264.0000</ele>
        <time>2018-10-12T19:36:59Z</time>
      </trkpt>
      <trkpt lat="38.18021854" lon="-2.41430168">
        <ele>1263.0000</ele>
        <time>2018-10-12T19:37:01Z</time>
      </trkpt>
      <trkpt lat="38.18035139" lon="-2.41436915">
        <ele>1261.0000</ele>
        <time>2018-10-12T19:37:03Z</time>
      </trkpt>
      <trkpt lat="38.18046363" lon="-2.41444065">
        <ele>1260.0000</ele>
        <time>2018-10-12T19:37:05Z</time>
      </trkpt>
      <trkpt lat="38.18046564" lon="-2.41490819">
        <ele>1259.0000</ele>
        <time>2018-10-12T19:37:12Z</time>
      </trkpt>
      <trkpt lat="38.18028526" lon="-2.41545888">
        <ele>1259.0000</ele>
        <time>2018-10-12T19:37:20Z</time>
      </trkpt>
      <trkpt lat="38.18033027" lon="-2.41589675">
        <ele>1259.0000</ele>
        <time>2018-10-12T19:37:27Z</time>
      </trkpt>
      <trkpt lat="38.18047343" lon="-2.41624209">
        <ele>1258.0000</ele>
        <time>2018-10-12T19:37:33Z</time>
      </trkpt>
      <trkpt lat="38.18072321" lon="-2.41684567">
        <ele>1258.0000</ele>
        <time>2018-10-12T19:37:43Z</time>
      </trkpt>
      <trkpt lat="38.18076236" lon="-2.41696888">
        <ele>1257.0000</ele>
        <time>2018-10-12T19:37:45Z</time>
      </trkpt>
      <trkpt lat="38.18097584" lon="-2.41762602">
        <ele>1257.0000</ele>
        <time>2018-10-12T19:37:55Z</time>
      </trkpt>
      <trkpt lat="38.18136703" lon="-2.41817093">
        <ele>1257.0000</ele>
        <time>2018-10-12T19:38:05Z</time>
      </trkpt>
      <trkpt lat="38.18159233" lon="-2.41841233">
        <ele>1256.0000</ele>
        <time>2018-10-12T19:38:10Z</time>
      </trkpt>
      <trkpt lat="38.18199961" lon="-2.41877208">
        <ele>1256.0000</ele>
        <time>2018-10-12T19:38:18Z</time>
      </trkpt>
      <trkpt lat="38.18205736" lon="-2.41882053">
        <ele>1255.0000</ele>
        <time>2018-10-12T19:38:19Z</time>
      </trkpt>
      <trkpt lat="38.18238199" lon="-2.41913870">
        <ele>1254.0000</ele>
        <time>2018-10-12T19:38:25Z</time>
      </trkpt>
      <trkpt lat="38.18257218" lon="-2.41945118">
        <ele>1253.0000</ele>
        <time>2018-10-12T19:38:30Z</time>
      </trkpt>
      <trkpt lat="38.18278508" lon="-2.41980683">
        <ele>1253.0000</ele>
        <time>2018-10-12T19:38:36Z</time>
      </trkpt>
      <trkpt lat="38.18305481" lon="-2.42027202">
        <ele>1252.0000</ele>
        <time>2018-10-12T19:38:44Z</time>
      </trkpt>
      <trkpt lat="38.18315480" lon="-2.42043815">
        <ele>1252.0000</ele>
        <time>2018-10-12T19:38:47Z</time>
      </trkpt>
      <trkpt lat="38.18336712" lon="-2.42076328">
        <ele>1252.0000</ele>
        <time>2018-10-12T19:38:53Z</time>
      </trkpt>
      <trkpt lat="38.18348128" lon="-2.42092472">
        <ele>1252.0000</ele>
        <time>2018-10-12T19:38:56Z</time>
      </trkpt>
      <trkpt lat="38.18368965" lon="-2.42116997">
        <ele>1251.0000</ele>
        <time>2018-10-12T19:39:01Z</time>
      </trkpt>
      <trkpt lat="38.18406005" lon="-2.42124457">
        <ele>1250.0000</ele>
        <time>2018-10-12T19:39:07Z</time>
      </trkpt>
      <trkpt lat="38.18430019" lon="-2.42121532">
        <ele>1250.0000</ele>
        <time>2018-10-12T19:39:10Z</time>
      </trkpt>
      <trkpt lat="38.18438895" lon="-2.42120065">
        <ele>1249.0000</ele>
        <time>2018-10-12T19:39:11Z</time>
      </trkpt>
      <trkpt lat="38.18448225" lon="-2.42118456">
        <ele>1249.0000</ele>
        <time>2018-10-12T19:39:12Z</time>
      </trkpt>
      <trkpt lat="38.18468215" lon="-2.42114910">
        <ele>1247.0000</ele>
        <time>2018-10-12T19:39:14Z</time>
      </trkpt>
      <trkpt lat="38.18489170" lon="-2.42111147">
        <ele>1246.0000</ele>
        <time>2018-10-12T19:39:16Z</time>
      </trkpt>
      <trkpt lat="38.18499773" lon="-2.42109596">
        <ele>1245.0000</ele>
        <time>2018-10-12T19:39:17Z</time>
      </trkpt>
      <trkpt lat="38.18510360" lon="-2.42108079">
        <ele>1244.0000</ele>
        <time>2018-10-12T19:39:18Z</time>
      </trkpt>
      <trkpt lat="38.18520896" lon="-2.42106528">
        <ele>1242.0000</ele>
        <time>2018-10-12T19:39:19Z</time>
      </trkpt>
      <trkpt lat="38.18531507" lon="-2.42105003">
        <ele>1241.0000</ele>
        <time>2018-10-12T19:39:20Z</time>
      </trkpt>
      <trkpt lat="38.18542135" lon="-2.42103486">
        <ele>1240.0000</ele>
        <time>2018-10-12T19:39:21Z</time>
      </trkpt>
      <trkpt lat="38.18552822" lon="-2.42102011">
        <ele>1239.0000</ele>
        <time>2018-10-12T19:39:22Z</time>
      </trkpt>
      <trkpt lat="38.18574179" lon="-2.42099127">
        <ele>1237.0000</ele>
        <time>2018-10-12T19:39:24Z</time>
      </trkpt>
      <trkpt lat="38.18595210" lon="-2.42096663">
        <ele>1236.0000</ele>
        <time>2018-10-12T19:39:26Z</time>
      </trkpt>
      <trkpt lat="38.18615653" lon="-2.42094090">
        <ele>1234.0000</ele>
        <time>2018-10-12T19:39:28Z</time>
      </trkpt>
      <trkpt lat="38.18635258" lon="-2.42091089">
        <ele>1233.0000</ele>
        <time>2018-10-12T19:39:30Z</time>
      </trkpt>
      <trkpt lat="38.18671594" lon="-2.42085146">
        <ele>1232.0000</ele>
        <time>2018-10-12T19:39:34Z</time>
      </trkpt>
      <trkpt lat="38.18697310" lon="-2.42081743">
        <ele>1232.0000</ele>
        <time>2018-10-12T19:39:37Z</time>
      </trkpt>
      <trkpt lat="38.18721768" lon="-2.42075071">
        <ele>1231.0000</ele>
        <time>2018-10-12T19:39:40Z</time>
      </trkpt>
      <trkpt lat="38.18737543" lon="-2.42066295">
        <ele>1231.0000</ele>
        <time>2018-10-12T19:39:42Z</time>
      </trkpt>
      <trkpt lat="38.18786795" lon="-2.42030329">
        <ele>1230.0000</ele>
        <time>2018-10-12T19:39:48Z</time>
      </trkpt>
      <trkpt lat="38.18802854" lon="-2.42018175">
        <ele>1229.0000</ele>
        <time>2018-10-12T19:39:50Z</time>
      </trkpt>
      <trkpt lat="38.18818353" lon="-2.42005325">
        <ele>1227.0000</ele>
        <time>2018-10-12T19:39:52Z</time>
      </trkpt>
      <trkpt lat="38.18833909" lon="-2.41991596">
        <ele>1226.0000</ele>
        <time>2018-10-12T19:39:54Z</time>
      </trkpt>
      <trkpt lat="38.18882558" lon="-2.41943400">
        <ele>1225.0000</ele>
        <time>2018-10-12T19:40:00Z</time>
      </trkpt>
      <trkpt lat="38.18890571" lon="-2.41935286">
        <ele>1224.0000</ele>
        <time>2018-10-12T19:40:01Z</time>
      </trkpt>
      <trkpt lat="38.18906052" lon="-2.41920115">
        <ele>1223.0000</ele>
        <time>2018-10-12T19:40:03Z</time>
      </trkpt>
      <trkpt lat="38.18921593" lon="-2.41907048">
        <ele>1221.0000</ele>
        <time>2018-10-12T19:40:05Z</time>
      </trkpt>
      <trkpt lat="38.18937988" lon="-2.41896696">
        <ele>1220.0000</ele>
        <time>2018-10-12T19:40:07Z</time>
      </trkpt>
      <trkpt lat="38.18991975" lon="-2.41879463">
        <ele>1219.0000</ele>
        <time>2018-10-12T19:40:14Z</time>
      </trkpt>
      <trkpt lat="38.19016727" lon="-2.41872330">
        <ele>1219.0000</ele>
        <time>2018-10-12T19:40:18Z</time>
      </trkpt>
      <trkpt lat="38.19038151" lon="-2.41863462">
        <ele>1220.0000</ele>
        <time>2018-10-12T19:40:22Z</time>
      </trkpt>
      <trkpt lat="38.19082366" lon="-2.41817805">
        <ele>1221.0000</ele>
        <time>2018-10-12T19:40:31Z</time>
      </trkpt>
      <trkpt lat="38.19124619" lon="-2.41769450">
        <ele>1219.0000</ele>
        <time>2018-10-12T19:40:38Z</time>
      </trkpt>
      <trkpt lat="38.19144409" lon="-2.41746953">
        <ele>1217.0000</ele>
        <time>2018-10-12T19:40:41Z</time>
      </trkpt>
      <trkpt lat="38.19157971" lon="-2.41731707">
        <ele>1216.0000</ele>
        <time>2018-10-12T19:40:43Z</time>
      </trkpt>
      <trkpt lat="38.19171499" lon="-2.41716250">
        <ele>1214.0000</ele>
        <time>2018-10-12T19:40:45Z</time>
      </trkpt>
      <trkpt lat="38.19185229" lon="-2.41700199">
        <ele>1213.0000</ele>
        <time>2018-10-12T19:40:47Z</time>
      </trkpt>
      <trkpt lat="38.19206041" lon="-2.41676503">
        <ele>1212.0000</ele>
        <time>2018-10-12T19:40:50Z</time>
      </trkpt>
      <trkpt lat="38.19224724" lon="-2.41654434">
        <ele>1210.0000</ele>
        <time>2018-10-12T19:40:53Z</time>
      </trkpt>
      <trkpt lat="38.19238269" lon="-2.41641274">
        <ele>1209.0000</ele>
        <time>2018-10-12T19:40:55Z</time>
      </trkpt>
      <trkpt lat="38.19245771" lon="-2.41635910">
        <ele>1208.0000</ele>
        <time>2018-10-12T19:40:56Z</time>
      </trkpt>
      <trkpt lat="38.19261202" lon="-2.41628802">
        <ele>1208.0000</ele>
        <time>2018-10-12T19:40:58Z</time>
      </trkpt>
      <trkpt lat="38.19300136" lon="-2.41637720">
        <ele>1207.0000</ele>
        <time>2018-10-12T19:41:04Z</time>
      </trkpt>
      <trkpt lat="38.19318409" lon="-2.41648374">
        <ele>1207.0000</ele>
        <time>2018-10-12T19:41:08Z</time>
      </trkpt>
      <trkpt lat="38.19326472" lon="-2.41654576">
        <ele>1208.0000</ele>
        <time>2018-10-12T19:41:10Z</time>
      </trkpt>
      <trkpt lat="38.19338508" lon="-2.41665070">
        <ele>1209.0000</ele>
        <time>2018-10-12T19:41:13Z</time>
      </trkpt>
      <trkpt lat="38.19361123" lon="-2.41695396">
        <ele>1210.0000</ele>
        <time>2018-10-12T19:41:19Z</time>
      </trkpt>
      <trkpt lat="38.19369899" lon="-2.41715337">
        <ele>1210.0000</ele>
        <time>2018-10-12T19:41:22Z</time>
      </trkpt>
      <trkpt lat="38.19376755" lon="-2.41749610">
        <ele>1210.0000</ele>
        <time>2018-10-12T19:41:27Z</time>
      </trkpt>
      <trkpt lat="38.19377836" lon="-2.41787471">
        <ele>1210.0000</ele>
        <time>2018-10-12T19:41:33Z</time>
      </trkpt>
      <trkpt lat="38.19377761" lon="-2.41816624">
        <ele>1211.0000</ele>
        <time>2018-10-12T19:41:38Z</time>
      </trkpt>
      <trkpt lat="38.19377811" lon="-2.41822256">
        <ele>1211.0000</ele>
        <time>2018-10-12T19:41:39Z</time>
      </trkpt>
      <trkpt lat="38.19378172" lon="-2.41854786">
        <ele>1212.0000</ele>
        <time>2018-10-12T19:41:45Z</time>
      </trkpt>
      <trkpt lat="38.19378104" lon="-2.41860251">
        <ele>1212.0000</ele>
        <time>2018-10-12T19:41:46Z</time>
      </trkpt>
      <trkpt lat="38.19376059" lon="-2.41898439">
        <ele>1213.0000</ele>
        <time>2018-10-12T19:41:53Z</time>
      </trkpt>
      <trkpt lat="38.19367040" lon="-2.41972611">
        <ele>1213.0000</ele>
        <time>2018-10-12T19:42:05Z</time>
      </trkpt>
      <trkpt lat="38.19347259" lon="-2.42039993">
        <ele>1213.0000</ele>
        <time>2018-10-12T19:42:15Z</time>
      </trkpt>
      <trkpt lat="38.19338995" lon="-2.42059221">
        <ele>1213.0000</ele>
        <time>2018-10-12T19:42:18Z</time>
      </trkpt>
      <trkpt lat="38.19310530" lon="-2.42122462">
        <ele>1213.0000</ele>
        <time>2018-10-12T19:42:29Z</time>
      </trkpt>
      <trkpt lat="38.19293883" lon="-2.42153828">
        <ele>1213.0000</ele>
        <time>2018-10-12T19:42:35Z</time>
      </trkpt>
      <trkpt lat="38.19281252" lon="-2.42177833">
        <ele>1214.0000</ele>
        <time>2018-10-12T19:42:41Z</time>
      </trkpt>
      <trkpt lat="38.19277605" lon="-2.42184891">
        <ele>1214.0000</ele>
        <time>2018-10-12T19:42:43Z</time>
      </trkpt>
      <trkpt lat="38.19275996" lon="-2.42188386">
        <ele>1215.0000</ele>
        <time>2018-10-12T19:42:44Z</time>
      </trkpt>
      <trkpt lat="38.19273146" lon="-2.42195460">
        <ele>1215.0000</ele>
        <time>2018-10-12T19:42:46Z</time>
      </trkpt>
      <trkpt lat="38.19271797" lon="-2.42198905">
        <ele>1216.0000</ele>
        <time>2018-10-12T19:42:47Z</time>
      </trkpt>
      <trkpt lat="38.19269433" lon="-2.42206256">
        <ele>1216.0000</ele>
        <time>2018-10-12T19:42:49Z</time>
      </trkpt>
      <trkpt lat="38.19267673" lon="-2.42214571">
        <ele>1217.0000</ele>
        <time>2018-10-12T19:42:51Z</time>
      </trkpt>
      <trkpt lat="38.19264781" lon="-2.42227295">
        <ele>1218.0000</ele>
        <time>2018-10-12T19:42:54Z</time>
      </trkpt>
      <trkpt lat="38.19262426" lon="-2.42239055">
        <ele>1220.0000</ele>
        <time>2018-10-12T19:42:57Z</time>
      </trkpt>
      <trkpt lat="38.19258771" lon="-2.42257235">
        <ele>1221.0000</ele>
        <time>2018-10-12T19:43:02Z</time>
      </trkpt>
      <trkpt lat="38.19253759" lon="-2.42278944">
        <ele>1222.0000</ele>
        <time>2018-10-12T19:43:08Z</time>
      </trkpt>
      <trkpt lat="38.19248126" lon="-2.42300092">
        <ele>1223.0000</ele>
        <time>2018-10-12T19:43:14Z</time>
      </trkpt>
      <trkpt lat="38.19240968" lon="-2.42328096">
        <ele>1224.0000</ele>
        <time>2018-10-12T19:43:22Z</time>
      </trkpt>
      <trkpt lat="38.19234606" lon="-2.42352973">
        <ele>1225.0000</ele>
        <time>2018-10-12T19:43:29Z</time>
      </trkpt>
      <trkpt lat="38.19228655" lon="-2.42376669">
        <ele>1226.0000</ele>
        <time>2018-10-12T19:43:36Z</time>
      </trkpt>
      <trkpt lat="38.19224582" lon="-2.42393575">
        <ele>1227.0000</ele>
        <time>2018-10-12T19:43:41Z</time>
      </trkpt>
      <trkpt lat="38.19220491" lon="-2.42412116">
        <ele>1228.0000</ele>
        <time>2018-10-12T19:43:46Z</time>
      </trkpt>
      <trkpt lat="38.19215714" lon="-2.42435912">
        <ele>1229.0000</ele>
        <time>2018-10-12T19:43:52Z</time>
      </trkpt>
      <trkpt lat="38.19211238" lon="-2.42467814">
        <ele>1230.0000</ele>
        <time>2018-10-12T19:44:00Z</time>
      </trkpt>
      <trkpt lat="38.19210567" lon="-2.42494845">
        <ele>1230.0000</ele>
        <time>2018-10-12T19:44:07Z</time>
      </trkpt>
      <trkpt lat="38.19211958" lon="-2.42520309">
        <ele>1232.0000</ele>
        <time>2018-10-12T19:44:14Z</time>
      </trkpt>
      <trkpt lat="38.19213316" lon="-2.42544491">
        <ele>1233.0000</ele>
        <time>2018-10-12T19:44:21Z</time>
      </trkpt>
      <trkpt lat="38.19216602" lon="-2.42565480">
        <ele>1234.0000</ele>
        <time>2018-10-12T19:44:27Z</time>
      </trkpt>
      <trkpt lat="38.19220667" lon="-2.42586493">
        <ele>1235.0000</ele>
        <time>2018-10-12T19:44:33Z</time>
      </trkpt>
      <trkpt lat="38.19228881" lon="-2.42606517">
        <ele>1236.0000</ele>
        <time>2018-10-12T19:44:39Z</time>
      </trkpt>
      <trkpt lat="38.19246651" lon="-2.42625921">
        <ele>1237.0000</ele>
        <time>2018-10-12T19:44:47Z</time>
      </trkpt>
      <trkpt lat="38.19260037" lon="-2.42635812">
        <ele>1238.0000</ele>
        <time>2018-10-12T19:44:52Z</time>
      </trkpt>
      <trkpt lat="38.19276960" lon="-2.42645124">
        <ele>1239.0000</ele>
        <time>2018-10-12T19:44:58Z</time>
      </trkpt>
      <trkpt lat="38.19298669" lon="-2.42656096">
        <ele>1240.0000</ele>
        <time>2018-10-12T19:45:06Z</time>
      </trkpt>
      <trkpt lat="38.19301293" lon="-2.42657613">
        <ele>1240.0000</ele>
        <time>2018-10-12T19:45:07Z</time>
      </trkpt>
      <trkpt lat="38.19322600" lon="-2.42669817">
        <ele>1241.0000</ele>
        <time>2018-10-12T19:45:15Z</time>
      </trkpt>
      <trkpt lat="38.19339246" lon="-2.42678929">
        <ele>1242.0000</ele>
        <time>2018-10-12T19:45:21Z</time>
      </trkpt>
      <trkpt lat="38.19358558" lon="-2.42688241">
        <ele>1244.0000</ele>
        <time>2018-10-12T19:45:28Z</time>
      </trkpt>
      <trkpt lat="38.19376076" lon="-2.42695173">
        <ele>1245.0000</ele>
        <time>2018-10-12T19:45:34Z</time>
      </trkpt>
      <trkpt lat="38.19401012" lon="-2.42700831">
        <ele>1246.0000</ele>
        <time>2018-10-12T19:45:42Z</time>
      </trkpt>
      <trkpt lat="38.19425186" lon="-2.42695986">
        <ele>1247.0000</ele>
        <time>2018-10-12T19:45:50Z</time>
      </trkpt>
      <trkpt lat="38.19443710" lon="-2.42687135">
        <ele>1248.0000</ele>
        <time>2018-10-12T19:45:57Z</time>
      </trkpt>
      <trkpt lat="38.19457624" lon="-2.42677772">
        <ele>1249.0000</ele>
        <time>2018-10-12T19:46:03Z</time>
      </trkpt>
      <trkpt lat="38.19471814" lon="-2.42668778">
        <ele>1250.0000</ele>
        <time>2018-10-12T19:46:09Z</time>
      </trkpt>
      <trkpt lat="38.19496700" lon="-2.42650304">
        <ele>1251.0000</ele>
        <time>2018-10-12T19:46:19Z</time>
      </trkpt>
      <trkpt lat="38.19513791" lon="-2.42637095">
        <ele>1252.0000</ele>
        <time>2018-10-12T19:46:26Z</time>
      </trkpt>
      <trkpt lat="38.19526305" lon="-2.42627589">
        <ele>1253.0000</ele>
        <time>2018-10-12T19:46:31Z</time>
      </trkpt>
      <trkpt lat="38.19531150" lon="-2.42623642">
        <ele>1253.0000</ele>
        <time>2018-10-12T19:46:33Z</time>
      </trkpt>
      <trkpt lat="38.19538165" lon="-2.42617414">
        <ele>1254.0000</ele>
        <time>2018-10-12T19:46:36Z</time>
      </trkpt>
      <trkpt lat="38.19543924" lon="-2.42611731">
        <ele>1254.0000</ele>
        <time>2018-10-12T19:46:39Z</time>
      </trkpt>
      <trkpt lat="38.19547612" lon="-2.42609417">
        <ele>1254.0000</ele>
        <time>2018-10-12T19:46:43Z</time>
      </trkpt>
      <trkpt lat="38.19550386" lon="-2.42606626">
        <ele>1255.0000</ele>
        <time>2018-10-12T19:47:32Z</time>
      </trkpt>
      <trkpt lat="38.19552934" lon="-2.42603835">
        <ele>1255.0000</ele>
        <time>2018-10-12T19:47:34Z</time>
      </trkpt>
      <trkpt lat="38.19555340" lon="-2.42601589">
        <ele>1255.0000</ele>
        <time>2018-10-12T19:47:36Z</time>
      </trkpt>
      <trkpt lat="38.19556589" lon="-2.42600466">
        <ele>1255.0000</ele>
        <time>2018-10-12T19:47:39Z</time>
      </trkpt>
      <trkpt lat="38.19559816" lon="-2.42597783">
        <ele>1256.0000</ele>
        <time>2018-10-12T19:48:54Z</time>
      </trkpt>
      <trkpt lat="38.19599630" lon="-2.42549328">
        <ele>1256.0000</ele>
        <time>2018-10-12T19:49:13Z</time>
      </trkpt>
      <trkpt lat="38.19606218" lon="-2.42541952">
        <ele>1256.0000</ele>
        <time>2018-10-12T19:49:16Z</time>
      </trkpt>
      <trkpt lat="38.19614994" lon="-2.42531600">
        <ele>1257.0000</ele>
        <time>2018-10-12T19:49:20Z</time>
      </trkpt>
      <trkpt lat="38.19627374" lon="-2.42519790">
        <ele>1257.0000</ele>
        <time>2018-10-12T19:49:25Z</time>
      </trkpt>
      <trkpt lat="38.19629972" lon="-2.42517426">
        <ele>1257.0000</ele>
        <time>2018-10-12T19:49:26Z</time>
      </trkpt>
      <trkpt lat="38.19676777" lon="-2.42478777">
        <ele>1258.0000</ele>
        <time>2018-10-12T19:49:43Z</time>
      </trkpt>
      <trkpt lat="38.19688771" lon="-2.42469339">
        <ele>1258.0000</ele>
        <time>2018-10-12T19:49:47Z</time>
      </trkpt>
      <trkpt lat="38.19737546" lon="-2.42430749">
        <ele>1259.0000</ele>
        <time>2018-10-12T19:50:03Z</time>
      </trkpt>
      <trkpt lat="38.19758500" lon="-2.42413667">
        <ele>1259.0000</ele>
        <time>2018-10-12T19:50:10Z</time>
      </trkpt>
      <trkpt lat="38.19783370" lon="-2.42392410">
        <ele>1261.0000</ele>
        <time>2018-10-12T19:50:19Z</time>
      </trkpt>
      <trkpt lat="38.19799748" lon="-2.42379074">
        <ele>1262.0000</ele>
        <time>2018-10-12T19:50:25Z</time>
      </trkpt>
      <trkpt lat="38.19827056" lon="-2.42358187">
        <ele>1262.0000</ele>
        <time>2018-10-12T19:50:35Z</time>
      </trkpt>
      <trkpt lat="38.19865663" lon="-2.42381530">
        <ele>1263.0000</ele>
        <time>2018-10-12T19:50:48Z</time>
      </trkpt>
      <trkpt lat="38.19874749" lon="-2.42408101">
        <ele>1264.0000</ele>
        <time>2018-10-12T19:50:55Z</time>
      </trkpt>
      <trkpt lat="38.19884573" lon="-2.42458082">
        <ele>1265.0000</ele>
        <time>2018-10-12T19:51:07Z</time>
      </trkpt>
      <trkpt lat="38.19887456" lon="-2.42496656">
        <ele>1266.0000</ele>
        <time>2018-10-12T19:51:16Z</time>
      </trkpt>
      <trkpt lat="38.19889007" lon="-2.42509757">
        <ele>1266.0000</ele>
        <time>2018-10-12T19:51:19Z</time>
      </trkpt>
      <trkpt lat="38.19892192" lon="-2.42527342">
        <ele>1266.0000</ele>
        <time>2018-10-12T19:51:23Z</time>
      </trkpt>
      <trkpt lat="38.19900280" lon="-2.42546738">
        <ele>1266.0000</ele>
        <time>2018-10-12T19:51:27Z</time>
      </trkpt>
      <trkpt lat="38.19940187" lon="-2.42593299">
        <ele>1265.0000</ele>
        <time>2018-10-12T19:51:37Z</time>
      </trkpt>
      <trkpt lat="38.19951091" lon="-2.42602368">
        <ele>1264.0000</ele>
        <time>2018-10-12T19:51:39Z</time>
      </trkpt>
      <trkpt lat="38.19976799" lon="-2.42623181">
        <ele>1263.0000</ele>
        <time>2018-10-12T19:51:43Z</time>
      </trkpt>
      <trkpt lat="38.19984133" lon="-2.42628713">
        <ele>1263.0000</ele>
        <time>2018-10-12T19:51:44Z</time>
      </trkpt>
      <trkpt lat="38.20006965" lon="-2.42644554">
        <ele>1262.0000</ele>
        <time>2018-10-12T19:51:47Z</time>
      </trkpt>
      <trkpt lat="38.20022899" lon="-2.42653305">
        <ele>1261.0000</ele>
        <time>2018-10-12T19:51:49Z</time>
      </trkpt>
      <trkpt lat="38.20040199" lon="-2.42659466">
        <ele>1258.0000</ele>
        <time>2018-10-12T19:51:51Z</time>
      </trkpt>
      <trkpt lat="38.20058288" lon="-2.42662760">
        <ele>1257.0000</ele>
        <time>2018-10-12T19:51:53Z</time>
      </trkpt>
      <trkpt lat="38.20076543" lon="-2.42664277">
        <ele>1256.0000</ele>
        <time>2018-10-12T19:51:55Z</time>
      </trkpt>
      <trkpt lat="38.20094472" lon="-2.42665316">
        <ele>1254.0000</ele>
        <time>2018-10-12T19:51:57Z</time>
      </trkpt>
      <trkpt lat="38.20112250" lon="-2.42665886">
        <ele>1253.0000</ele>
        <time>2018-10-12T19:51:59Z</time>
      </trkpt>
      <trkpt lat="38.20139198" lon="-2.42664244">
        <ele>1252.0000</ele>
        <time>2018-10-12T19:52:02Z</time>
      </trkpt>
      <trkpt lat="38.20190428" lon="-2.42657697">
        <ele>1251.0000</ele>
        <time>2018-10-12T19:52:08Z</time>
      </trkpt>
      <trkpt lat="38.20235020" lon="-2.42650053">
        <ele>1251.0000</ele>
        <time>2018-10-12T19:52:14Z</time>
      </trkpt>
      <trkpt lat="38.20256159" lon="-2.42646457">
        <ele>1251.0000</ele>
        <time>2018-10-12T19:52:17Z</time>
      </trkpt>
      <trkpt lat="38.20297163" lon="-2.42640657">
        <ele>1251.0000</ele>
        <time>2018-10-12T19:52:23Z</time>
      </trkpt>
      <trkpt lat="38.20342032" lon="-2.42636022">
        <ele>1251.0000</ele>
        <time>2018-10-12T19:52:30Z</time>
      </trkpt>
      <trkpt lat="38.20365753" lon="-2.42634957">
        <ele>1252.0000</ele>
        <time>2018-10-12T19:52:34Z</time>
      </trkpt>
      <trkpt lat="38.20403924" lon="-2.42626424">
        <ele>1252.0000</ele>
        <time>2018-10-12T19:52:40Z</time>
      </trkpt>
      <trkpt lat="38.20427644" lon="-2.42588303">
        <ele>1252.0000</ele>
        <time>2018-10-12T19:52:45Z</time>
      </trkpt>
      <trkpt lat="38.20436412" lon="-2.42568145">
        <ele>1251.0000</ele>
        <time>2018-10-12T19:52:47Z</time>
      </trkpt>
      <trkpt lat="38.20446546" lon="-2.42547676">
        <ele>1250.0000</ele>
        <time>2018-10-12T19:52:49Z</time>
      </trkpt>
      <trkpt lat="38.20458775" lon="-2.42527686">
        <ele>1248.0000</ele>
        <time>2018-10-12T19:52:51Z</time>
      </trkpt>
      <trkpt lat="38.20465799" lon="-2.42518021">
        <ele>1247.0000</ele>
        <time>2018-10-12T19:52:52Z</time>
      </trkpt>
      <trkpt lat="38.20473259" lon="-2.42508508">
        <ele>1246.0000</ele>
        <time>2018-10-12T19:52:53Z</time>
      </trkpt>
      <trkpt lat="38.20487760" lon="-2.42491266">
        <ele>1244.0000</ele>
        <time>2018-10-12T19:52:55Z</time>
      </trkpt>
      <trkpt lat="38.20499486" lon="-2.42478677">
        <ele>1242.0000</ele>
        <time>2018-10-12T19:52:57Z</time>
      </trkpt>
      <trkpt lat="38.20506460" lon="-2.42471175">
        <ele>1241.0000</ele>
        <time>2018-10-12T19:52:59Z</time>
      </trkpt>
      <trkpt lat="38.20519259" lon="-2.42456641">
        <ele>1240.0000</ele>
        <time>2018-10-12T19:53:03Z</time>
      </trkpt>
      <trkpt lat="38.20546735" lon="-2.42427430">
        <ele>1238.0000</ele>
        <time>2018-10-12T19:53:10Z</time>
      </trkpt>
      <trkpt lat="38.20561361" lon="-2.42414161">
        <ele>1238.0000</ele>
        <time>2018-10-12T19:53:13Z</time>
      </trkpt>
      <trkpt lat="38.20592441" lon="-2.42389719">
        <ele>1237.0000</ele>
        <time>2018-10-12T19:53:19Z</time>
      </trkpt>
      <trkpt lat="38.20598149" lon="-2.42387314">
        <ele>1237.0000</ele>
        <time>2018-10-12T19:53:20Z</time>
      </trkpt>
      <trkpt lat="38.20608811" lon="-2.42388906">
        <ele>1237.0000</ele>
        <time>2018-10-12T19:53:22Z</time>
      </trkpt>
      <trkpt lat="38.20613061" lon="-2.42392997">
        <ele>1236.0000</ele>
        <time>2018-10-12T19:53:23Z</time>
      </trkpt>
      <trkpt lat="38.20617754" lon="-2.42398562">
        <ele>1236.0000</ele>
        <time>2018-10-12T19:53:24Z</time>
      </trkpt>
      <trkpt lat="38.20621359" lon="-2.42405092">
        <ele>1236.0000</ele>
        <time>2018-10-12T19:53:25Z</time>
      </trkpt>
      <trkpt lat="38.20622884" lon="-2.42423406">
        <ele>1236.0000</ele>
        <time>2018-10-12T19:53:28Z</time>
      </trkpt>
      <trkpt lat="38.20616874" lon="-2.42435359">
        <ele>1236.0000</ele>
        <time>2018-10-12T19:53:31Z</time>
      </trkpt>
      <trkpt lat="38.20614469" lon="-2.42438846">
        <ele>1236.0000</ele>
        <time>2018-10-12T19:53:32Z</time>
      </trkpt>
      <trkpt lat="38.20604092" lon="-2.42457353">
        <ele>1238.0000</ele>
        <time>2018-10-12T19:53:37Z</time>
      </trkpt>
      <trkpt lat="38.20595651" lon="-2.42473589">
        <ele>1238.0000</ele>
        <time>2018-10-12T19:53:41Z</time>
      </trkpt>
      <trkpt lat="38.20586364" lon="-2.42503839">
        <ele>1239.0000</ele>
        <time>2018-10-12T19:53:48Z</time>
      </trkpt>
      <trkpt lat="38.20583640" lon="-2.42515750">
        <ele>1239.0000</ele>
        <time>2018-10-12T19:53:51Z</time>
      </trkpt>
      <trkpt lat="38.20581922" lon="-2.42527510">
        <ele>1240.0000</ele>
        <time>2018-10-12T19:53:54Z</time>
      </trkpt>
      <trkpt lat="38.20581545" lon="-2.42531189">
        <ele>1240.0000</ele>
        <time>2018-10-12T19:53:55Z</time>
      </trkpt>
      <trkpt lat="38.20582693" lon="-2.42545916">
        <ele>1241.0000</ele>
        <time>2018-10-12T19:53:59Z</time>
      </trkpt>
      <trkpt lat="38.20584336" lon="-2.42552974">
        <ele>1241.0000</ele>
        <time>2018-10-12T19:54:01Z</time>
      </trkpt>
      <trkpt lat="38.20596775" lon="-2.42571498">
        <ele>1242.0000</ele>
        <time>2018-10-12T19:54:07Z</time>
      </trkpt>
      <trkpt lat="38.20650251" lon="-2.42584154">
        <ele>1243.0000</ele>
        <time>2018-10-12T19:54:20Z</time>
      </trkpt>
      <trkpt lat="38.20701180" lon="-2.42572051">
        <ele>1243.0000</ele>
        <time>2018-10-12T19:54:32Z</time>
      </trkpt>
      <trkpt lat="38.20729418" lon="-2.42563535">
        <ele>1243.0000</ele>
        <time>2018-10-12T19:54:39Z</time>
      </trkpt>
      <trkpt lat="38.20786289" lon="-2.42576401">
        <ele>1244.0000</ele>
        <time>2018-10-12T19:54:52Z</time>
      </trkpt>
      <trkpt lat="38.20793984" lon="-2.42580508">
        <ele>1245.0000</ele>
        <time>2018-10-12T19:54:54Z</time>
      </trkpt>
      <trkpt lat="38.20804486" lon="-2.42589083">
        <ele>1245.0000</ele>
        <time>2018-10-12T19:54:57Z</time>
      </trkpt>
      <trkpt lat="38.20817101" lon="-2.42601740">
        <ele>1246.0000</ele>
        <time>2018-10-12T19:55:01Z</time>
      </trkpt>
      <trkpt lat="38.20830915" lon="-2.42608060">
        <ele>1246.0000</ele>
        <time>2018-10-12T19:55:05Z</time>
      </trkpt>
      <trkpt lat="38.20852749" lon="-2.42604967">
        <ele>1246.0000</ele>
        <time>2018-10-12T19:55:09Z</time>
      </trkpt>
      <trkpt lat="38.20885791" lon="-2.42596233">
        <ele>1246.0000</ele>
        <time>2018-10-12T19:55:13Z</time>
      </trkpt>
      <trkpt lat="38.20924004" lon="-2.42592721">
        <ele>1244.0000</ele>
        <time>2018-10-12T19:55:17Z</time>
      </trkpt>
      <trkpt lat="38.20932394" lon="-2.42592997">
        <ele>1242.0000</ele>
        <time>2018-10-12T19:55:18Z</time>
      </trkpt>
      <trkpt lat="38.20940424" lon="-2.42593090">
        <ele>1240.0000</ele>
        <time>2018-10-12T19:55:19Z</time>
      </trkpt>
      <trkpt lat="38.20948496" lon="-2.42592570">
        <ele>1239.0000</ele>
        <time>2018-10-12T19:55:20Z</time>
      </trkpt>
      <trkpt lat="38.20956601" lon="-2.42591078">
        <ele>1238.0000</ele>
        <time>2018-10-12T19:55:21Z</time>
      </trkpt>
      <trkpt lat="38.20964774" lon="-2.42588295">
        <ele>1237.0000</ele>
        <time>2018-10-12T19:55:22Z</time>
      </trkpt>
      <trkpt lat="38.20987254" lon="-2.42574691">
        <ele>1236.0000</ele>
        <time>2018-10-12T19:55:25Z</time>
      </trkpt>
      <trkpt lat="38.21012299" lon="-2.42537191">
        <ele>1235.0000</ele>
        <time>2018-10-12T19:55:31Z</time>
      </trkpt>
      <trkpt lat="38.21019474" lon="-2.42517258">
        <ele>1235.0000</ele>
        <time>2018-10-12T19:55:34Z</time>
      </trkpt>
      <trkpt lat="38.21031963" lon="-2.42483546">
        <ele>1236.0000</ele>
        <time>2018-10-12T19:55:39Z</time>
      </trkpt>
      <trkpt lat="38.21046858" lon="-2.42471359">
        <ele>1237.0000</ele>
        <time>2018-10-12T19:55:42Z</time>
      </trkpt>
      <trkpt lat="38.21062280" lon="-2.42472818">
        <ele>1237.0000</ele>
        <time>2018-10-12T19:55:45Z</time>
      </trkpt>
      <trkpt lat="38.21074535" lon="-2.42481711">
        <ele>1237.0000</ele>
        <time>2018-10-12T19:55:48Z</time>
      </trkpt>
      <trkpt lat="38.21078139" lon="-2.42485407">
        <ele>1237.0000</ele>
        <time>2018-10-12T19:55:49Z</time>
      </trkpt>
      <trkpt lat="38.21089572" lon="-2.42495826">
        <ele>1238.0000</ele>
        <time>2018-10-12T19:55:52Z</time>
      </trkpt>
      <trkpt lat="38.21105891" lon="-2.42505147">
        <ele>1239.0000</ele>
        <time>2018-10-12T19:55:56Z</time>
      </trkpt>
      <trkpt lat="38.21134708" lon="-2.42511743">
        <ele>1240.0000</ele>
        <time>2018-10-12T19:56:03Z</time>
      </trkpt>
      <trkpt lat="38.21139142" lon="-2.42511475">
        <ele>1240.0000</ele>
        <time>2018-10-12T19:56:04Z</time>
      </trkpt>
      <trkpt lat="38.21184790" lon="-2.42502741">
        <ele>1240.0000</ele>
        <time>2018-10-12T19:56:13Z</time>
      </trkpt>
      <trkpt lat="38.21231368" lon="-2.42496547">
        <ele>1239.0000</ele>
        <time>2018-10-12T19:56:20Z</time>
      </trkpt>
      <trkpt lat="38.21251401" lon="-2.42494191">
        <ele>1238.0000</ele>
        <time>2018-10-12T19:56:23Z</time>
      </trkpt>
      <trkpt lat="38.21270612" lon="-2.42492297">
        <ele>1236.0000</ele>
        <time>2018-10-12T19:56:26Z</time>
      </trkpt>
      <trkpt lat="38.21294342" lon="-2.42489632">
        <ele>1236.0000</ele>
        <time>2018-10-12T19:56:30Z</time>
      </trkpt>
      <trkpt lat="38.21309781" lon="-2.42489766">
        <ele>1236.0000</ele>
        <time>2018-10-12T19:56:33Z</time>
      </trkpt>
      <trkpt lat="38.21323310" lon="-2.42496304">
        <ele>1236.0000</ele>
        <time>2018-10-12T19:56:36Z</time>
      </trkpt>
      <trkpt lat="38.21331650" lon="-2.42510729">
        <ele>1236.0000</ele>
        <time>2018-10-12T19:56:39Z</time>
      </trkpt>
      <trkpt lat="38.21326511" lon="-2.42539395">
        <ele>1237.0000</ele>
        <time>2018-10-12T19:56:44Z</time>
      </trkpt>
      <trkpt lat="38.21317182" lon="-2.42546193">
        <ele>1237.0000</ele>
        <time>2018-10-12T19:56:47Z</time>
      </trkpt>
      <trkpt lat="38.21311558" lon="-2.42549990">
        <ele>1238.0000</ele>
        <time>2018-10-12T19:56:49Z</time>
      </trkpt>
      <trkpt lat="38.21304224" lon="-2.42556561">
        <ele>1239.0000</ele>
        <time>2018-10-12T19:56:52Z</time>
      </trkpt>
      <trkpt lat="38.21294115" lon="-2.42566946">
        <ele>1240.0000</ele>
        <time>2018-10-12T19:56:56Z</time>
      </trkpt>
      <trkpt lat="38.21275591" lon="-2.42584205">
        <ele>1241.0000</ele>
        <time>2018-10-12T19:57:02Z</time>
      </trkpt>
      <trkpt lat="38.21259272" lon="-2.42601337">
        <ele>1241.0000</ele>
        <time>2018-10-12T19:57:07Z</time>
      </trkpt>
      <trkpt lat="38.21249046" lon="-2.42611052">
        <ele>1241.0000</ele>
        <time>2018-10-12T19:57:10Z</time>
      </trkpt>
      <trkpt lat="38.21236917" lon="-2.42624429">
        <ele>1241.0000</ele>
        <time>2018-10-12T19:57:14Z</time>
      </trkpt>
      <trkpt lat="38.21227018" lon="-2.42635309">
        <ele>1241.0000</ele>
        <time>2018-10-12T19:57:17Z</time>
      </trkpt>
      <trkpt lat="38.21185310" lon="-2.42683296">
        <ele>1241.0000</ele>
        <time>2018-10-12T19:57:31Z</time>
      </trkpt>
      <trkpt lat="38.21180691" lon="-2.42688962">
        <ele>1242.0000</ele>
        <time>2018-10-12T19:57:33Z</time>
      </trkpt>
      <trkpt lat="38.21174380" lon="-2.42697578">
        <ele>1243.0000</ele>
        <time>2018-10-12T19:57:36Z</time>
      </trkpt>
      <trkpt lat="38.21164238" lon="-2.42710252">
        <ele>1244.0000</ele>
        <time>2018-10-12T19:57:41Z</time>
      </trkpt>
      <trkpt lat="38.21154565" lon="-2.42722095">
        <ele>1245.0000</ele>
        <time>2018-10-12T19:57:46Z</time>
      </trkpt>
      <trkpt lat="38.21146041" lon="-2.42733797">
        <ele>1246.0000</ele>
        <time>2018-10-12T19:57:51Z</time>
      </trkpt>
      <trkpt lat="38.21137474" lon="-2.42744458">
        <ele>1248.0000</ele>
        <time>2018-10-12T19:57:56Z</time>
      </trkpt>
      <trkpt lat="38.21132227" lon="-2.42750904">
        <ele>1248.0000</ele>
        <time>2018-10-12T19:57:59Z</time>
      </trkpt>
      <trkpt lat="38.21128749" lon="-2.42755305">
        <ele>1249.0000</ele>
        <time>2018-10-12T19:58:01Z</time>
      </trkpt>
      <trkpt lat="38.21118464" lon="-2.42767752">
        <ele>1250.0000</ele>
        <time>2018-10-12T19:58:07Z</time>
      </trkpt>
      <trkpt lat="38.21109764" lon="-2.42777835">
        <ele>1251.0000</ele>
        <time>2018-10-12T19:58:12Z</time>
      </trkpt>
      <trkpt lat="38.21099697" lon="-2.42789126">
        <ele>1252.0000</ele>
        <time>2018-10-12T19:58:18Z</time>
      </trkpt>
      <trkpt lat="38.21090578" lon="-2.42797566">
        <ele>1253.0000</ele>
        <time>2018-10-12T19:58:23Z</time>
      </trkpt>
      <trkpt lat="38.21082707" lon="-2.42806149">
        <ele>1254.0000</ele>
        <time>2018-10-12T19:58:27Z</time>
      </trkpt>
      <trkpt lat="38.21080746" lon="-2.42808463">
        <ele>1254.0000</ele>
        <time>2018-10-12T19:58:28Z</time>
      </trkpt>
      <trkpt lat="38.21074535" lon="-2.42816207">
        <ele>1255.0000</ele>
        <time>2018-10-12T19:58:31Z</time>
      </trkpt>
      <trkpt lat="38.21068282" lon="-2.42824816">
        <ele>1255.0000</ele>
        <time>2018-10-12T19:58:34Z</time>
      </trkpt>
      <trkpt lat="38.21060260" lon="-2.42838436">
        <ele>1256.0000</ele>
        <time>2018-10-12T19:58:38Z</time>
      </trkpt>
      <trkpt lat="38.21053127" lon="-2.42850364">
        <ele>1258.0000</ele>
        <time>2018-10-12T19:58:42Z</time>
      </trkpt>
      <trkpt lat="38.21046606" lon="-2.42861512">
        <ele>1259.0000</ele>
        <time>2018-10-12T19:58:46Z</time>
      </trkpt>
      <trkpt lat="38.21038467" lon="-2.42873783">
        <ele>1260.0000</ele>
        <time>2018-10-12T19:58:51Z</time>
      </trkpt>
      <trkpt lat="38.21037302" lon="-2.42875576">
        <ele>1260.0000</ele>
        <time>2018-10-12T19:58:52Z</time>
      </trkpt>
      <trkpt lat="38.21036942" lon="-2.42876188">
        <ele>1260.0000</ele>
        <time>2018-10-12T19:58:54Z</time>
      </trkpt>
      <trkpt lat="38.21035819" lon="-2.42877278">
        <ele>1260.0000</ele>
        <time>2018-10-12T19:59:45Z</time>
      </trkpt>
      <trkpt lat="38.21034687" lon="-2.42878695">
        <ele>1260.0000</ele>
        <time>2018-10-12T19:59:46Z</time>
      </trkpt>
      <trkpt lat="38.21030002" lon="-2.42887118">
        <ele>1260.0000</ele>
        <time>2018-10-12T19:59:49Z</time>
      </trkpt>
      <trkpt lat="38.21016255" lon="-2.42913982">
        <ele>1260.0000</ele>
        <time>2018-10-12T19:59:57Z</time>
      </trkpt>
      <trkpt lat="38.21011251" lon="-2.42919548">
        <ele>1260.0000</ele>
        <time>2018-10-12T19:59:59Z</time>
      </trkpt>
      <trkpt lat="38.20984429" lon="-2.42945255">
        <ele>1260.0000</ele>
        <time>2018-10-12T20:00:07Z</time>
      </trkpt>
      <trkpt lat="38.20953156" lon="-2.42975589">
        <ele>1259.0000</ele>
        <time>2018-10-12T20:00:14Z</time>
      </trkpt>
      <trkpt lat="38.20949644" lon="-2.42980124">
        <ele>1258.0000</ele>
        <time>2018-10-12T20:00:15Z</time>
      </trkpt>
      <trkpt lat="38.20946920" lon="-2.42984801">
        <ele>1257.0000</ele>
        <time>2018-10-12T20:00:16Z</time>
      </trkpt>
      <trkpt lat="38.20945302" lon="-2.42995681">
        <ele>1257.0000</ele>
        <time>2018-10-12T20:00:18Z</time>
      </trkpt>
      <trkpt lat="38.20947415" lon="-2.43001556">
        <ele>1256.0000</ele>
        <time>2018-10-12T20:00:19Z</time>
      </trkpt>
      <trkpt lat="38.20957590" lon="-2.43010768">
        <ele>1255.0000</ele>
        <time>2018-10-12T20:00:21Z</time>
      </trkpt>
      <trkpt lat="38.20964120" lon="-2.43015336">
        <ele>1255.0000</ele>
        <time>2018-10-12T20:00:22Z</time>
      </trkpt>
      <trkpt lat="38.20970876" lon="-2.43021170">
        <ele>1254.0000</ele>
        <time>2018-10-12T20:00:23Z</time>
      </trkpt>
      <trkpt lat="38.20977380" lon="-2.43028479">
        <ele>1254.0000</ele>
        <time>2018-10-12T20:00:24Z</time>
      </trkpt>
      <trkpt lat="38.20989249" lon="-2.43046525">
        <ele>1252.0000</ele>
        <time>2018-10-12T20:00:26Z</time>
      </trkpt>
      <trkpt lat="38.21000481" lon="-2.43065728">
        <ele>1250.0000</ele>
        <time>2018-10-12T20:00:28Z</time>
      </trkpt>
      <trkpt lat="38.21005954" lon="-2.43074504">
        <ele>1249.0000</ele>
        <time>2018-10-12T20:00:29Z</time>
      </trkpt>
      <trkpt lat="38.21011545" lon="-2.43082685">
        <ele>1247.0000</ele>
        <time>2018-10-12T20:00:30Z</time>
      </trkpt>
      <trkpt lat="38.21017554" lon="-2.43090430">
        <ele>1245.0000</ele>
        <time>2018-10-12T20:00:31Z</time>
      </trkpt>
      <trkpt lat="38.21024377" lon="-2.43097747">
        <ele>1244.0000</ele>
        <time>2018-10-12T20:00:32Z</time>
      </trkpt>
      <trkpt lat="38.21040395" lon="-2.43109742">
        <ele>1243.0000</ele>
        <time>2018-10-12T20:00:34Z</time>
      </trkpt>
      <trkpt lat="38.21058056" lon="-2.43118216">
        <ele>1242.0000</ele>
        <time>2018-10-12T20:00:36Z</time>
      </trkpt>
      <trkpt lat="38.21067301" lon="-2.43121543">
        <ele>1241.0000</ele>
        <time>2018-10-12T20:00:37Z</time>
      </trkpt>
      <trkpt lat="38.21086546" lon="-2.43127511">
        <ele>1240.0000</ele>
        <time>2018-10-12T20:00:39Z</time>
      </trkpt>
      <trkpt lat="38.21106713" lon="-2.43132549">
        <ele>1238.0000</ele>
        <time>2018-10-12T20:00:41Z</time>
      </trkpt>
      <trkpt lat="38.21126477" lon="-2.43136974">
        <ele>1237.0000</ele>
        <time>2018-10-12T20:00:43Z</time>
      </trkpt>
      <trkpt lat="38.21144850" lon="-2.43141249">
        <ele>1236.0000</ele>
        <time>2018-10-12T20:00:45Z</time>
      </trkpt>
      <trkpt lat="38.21161639" lon="-2.43144770">
        <ele>1234.0000</ele>
        <time>2018-10-12T20:00:47Z</time>
      </trkpt>
      <trkpt lat="38.21175654" lon="-2.43148659">
        <ele>1232.0000</ele>
        <time>2018-10-12T20:00:49Z</time>
      </trkpt>
      <trkpt lat="38.21186408" lon="-2.43157343">
        <ele>1231.0000</ele>
        <time>2018-10-12T20:00:51Z</time>
      </trkpt>
      <trkpt lat="38.21193700" lon="-2.43183863">
        <ele>1230.0000</ele>
        <time>2018-10-12T20:00:54Z</time>
      </trkpt>
      <trkpt lat="38.21194991" lon="-2.43206259">
        <ele>1229.0000</ele>
        <time>2018-10-12T20:00:56Z</time>
      </trkpt>
      <trkpt lat="38.21197279" lon="-2.43256643">
        <ele>1228.0000</ele>
        <time>2018-10-12T20:01:00Z</time>
      </trkpt>
      <trkpt lat="38.21198226" lon="-2.43283507">
        <ele>1227.0000</ele>
        <time>2018-10-12T20:01:02Z</time>
      </trkpt>
      <trkpt lat="38.21198210" lon="-2.43311494">
        <ele>1224.0000</ele>
        <time>2018-10-12T20:01:04Z</time>
      </trkpt>
      <trkpt lat="38.21197506" lon="-2.43325911">
        <ele>1223.0000</ele>
        <time>2018-10-12T20:01:05Z</time>
      </trkpt>
      <trkpt lat="38.21196357" lon="-2.43340537">
        <ele>1222.0000</ele>
        <time>2018-10-12T20:01:06Z</time>
      </trkpt>
      <trkpt lat="38.21195066" lon="-2.43354912">
        <ele>1221.0000</ele>
        <time>2018-10-12T20:01:07Z</time>
      </trkpt>
      <trkpt lat="38.21192217" lon="-2.43381584">
        <ele>1219.0000</ele>
        <time>2018-10-12T20:01:09Z</time>
      </trkpt>
      <trkpt lat="38.21190046" lon="-2.43404391">
        <ele>1217.0000</ele>
        <time>2018-10-12T20:01:11Z</time>
      </trkpt>
      <trkpt lat="38.21190146" lon="-2.43413410">
        <ele>1216.0000</ele>
        <time>2018-10-12T20:01:12Z</time>
      </trkpt>
      <trkpt lat="38.21191655" lon="-2.43421146">
        <ele>1216.0000</ele>
        <time>2018-10-12T20:01:13Z</time>
      </trkpt>
      <trkpt lat="38.21204597" lon="-2.43442051">
        <ele>1214.0000</ele>
        <time>2018-10-12T20:01:16Z</time>
      </trkpt>
      <trkpt lat="38.21226172" lon="-2.43460357">
        <ele>1214.0000</ele>
        <time>2018-10-12T20:01:19Z</time>
      </trkpt>
      <trkpt lat="38.21242910" lon="-2.43473298">
        <ele>1213.0000</ele>
        <time>2018-10-12T20:01:21Z</time>
      </trkpt>
      <trkpt lat="38.21268282" lon="-2.43495427">
        <ele>1212.0000</ele>
        <time>2018-10-12T20:01:24Z</time>
      </trkpt>
      <trkpt lat="38.21285977" lon="-2.43509416">
        <ele>1210.0000</ele>
        <time>2018-10-12T20:01:26Z</time>
      </trkpt>
      <trkpt lat="38.21294778" lon="-2.43515141">
        <ele>1209.0000</ele>
        <time>2018-10-12T20:01:27Z</time>
      </trkpt>
      <trkpt lat="38.21303034" lon="-2.43520438">
        <ele>1208.0000</ele>
        <time>2018-10-12T20:01:28Z</time>
      </trkpt>
      <trkpt lat="38.21311407" lon="-2.43524646">
        <ele>1206.0000</ele>
        <time>2018-10-12T20:01:29Z</time>
      </trkpt>
      <trkpt lat="38.21319948" lon="-2.43528334">
        <ele>1205.0000</ele>
        <time>2018-10-12T20:01:30Z</time>
      </trkpt>
      <trkpt lat="38.21328406" lon="-2.43531033">
        <ele>1204.0000</ele>
        <time>2018-10-12T20:01:31Z</time>
      </trkpt>
      <trkpt lat="38.21336461" lon="-2.43532944">
        <ele>1203.0000</ele>
        <time>2018-10-12T20:01:32Z</time>
      </trkpt>
      <trkpt lat="38.21343988" lon="-2.43534034">
        <ele>1202.0000</ele>
        <time>2018-10-12T20:01:33Z</time>
      </trkpt>
      <trkpt lat="38.21350928" lon="-2.43534285">
        <ele>1200.0000</ele>
        <time>2018-10-12T20:01:34Z</time>
      </trkpt>
      <trkpt lat="38.21363886" lon="-2.43530966">
        <ele>1199.0000</ele>
        <time>2018-10-12T20:01:36Z</time>
      </trkpt>
      <trkpt lat="38.21376233" lon="-2.43520773">
        <ele>1198.0000</ele>
        <time>2018-10-12T20:01:38Z</time>
      </trkpt>
      <trkpt lat="38.21387900" lon="-2.43505728">
        <ele>1197.0000</ele>
        <time>2018-10-12T20:01:40Z</time>
      </trkpt>
      <trkpt lat="38.21414974" lon="-2.43474086">
        <ele>1196.0000</ele>
        <time>2018-10-12T20:01:44Z</time>
      </trkpt>
      <trkpt lat="38.21430900" lon="-2.43459208">
        <ele>1194.0000</ele>
        <time>2018-10-12T20:01:46Z</time>
      </trkpt>
      <trkpt lat="38.21445962" lon="-2.43445881">
        <ele>1192.0000</ele>
        <time>2018-10-12T20:01:48Z</time>
      </trkpt>
      <trkpt lat="38.21458535" lon="-2.43435412">
        <ele>1191.0000</ele>
        <time>2018-10-12T20:01:50Z</time>
      </trkpt>
      <trkpt lat="38.21463581" lon="-2.43430400">
        <ele>1190.0000</ele>
        <time>2018-10-12T20:01:51Z</time>
      </trkpt>
      <trkpt lat="38.21467855" lon="-2.43424390">
        <ele>1188.0000</ele>
        <time>2018-10-12T20:01:52Z</time>
      </trkpt>
      <trkpt lat="38.21471510" lon="-2.43416955">
        <ele>1187.0000</ele>
        <time>2018-10-12T20:01:53Z</time>
      </trkpt>
      <trkpt lat="38.21476631" lon="-2.43398490">
        <ele>1186.0000</ele>
        <time>2018-10-12T20:01:55Z</time>
      </trkpt>
      <trkpt lat="38.21478492" lon="-2.43388599">
        <ele>1186.0000</ele>
        <time>2018-10-12T20:01:56Z</time>
      </trkpt>
      <trkpt lat="38.21486438" lon="-2.43359648">
        <ele>1185.0000</ele>
        <time>2018-10-12T20:01:59Z</time>
      </trkpt>
      <trkpt lat="38.21490269" lon="-2.43349992">
        <ele>1185.0000</ele>
        <time>2018-10-12T20:02:00Z</time>
      </trkpt>
      <trkpt lat="38.21497787" lon="-2.43332499">
        <ele>1184.0000</ele>
        <time>2018-10-12T20:02:02Z</time>
      </trkpt>
      <trkpt lat="38.21501852" lon="-2.43325073">
        <ele>1182.0000</ele>
        <time>2018-10-12T20:02:03Z</time>
      </trkpt>
      <trkpt lat="38.21506856" lon="-2.43317965">
        <ele>1181.0000</ele>
        <time>2018-10-12T20:02:04Z</time>
      </trkpt>
      <trkpt lat="38.21518776" lon="-2.43306557">
        <ele>1180.0000</ele>
        <time>2018-10-12T20:02:06Z</time>
      </trkpt>
      <trkpt lat="38.21529328" lon="-2.43301562">
        <ele>1178.0000</ele>
        <time>2018-10-12T20:02:08Z</time>
      </trkpt>
      <trkpt lat="38.21540661" lon="-2.43297882">
        <ele>1177.0000</ele>
        <time>2018-10-12T20:02:11Z</time>
      </trkpt>
      <trkpt lat="38.21545212" lon="-2.43294169">
        <ele>1174.0000</ele>
        <time>2018-10-12T20:02:13Z</time>
      </trkpt>
      <trkpt lat="38.21547375" lon="-2.43292400">
        <ele>1174.0000</ele>
        <time>2018-10-12T20:02:14Z</time>
      </trkpt>
      <trkpt lat="38.21556410" lon="-2.43287505">
        <ele>1173.0000</ele>
        <time>2018-10-12T20:02:20Z</time>
      </trkpt>
      <trkpt lat="38.21556109" lon="-2.43287371">
        <ele>1173.0000</ele>
        <time>2018-10-12T20:02:21Z</time>
      </trkpt>
      <trkpt lat="38.21562512" lon="-2.43281126">
        <ele>1172.0000</ele>
        <time>2018-10-12T20:02:33Z</time>
      </trkpt>
      <trkpt lat="38.21566477" lon="-2.43277564">
        <ele>1172.0000</ele>
        <time>2018-10-12T20:02:34Z</time>
      </trkpt>
      <trkpt lat="38.21580952" lon="-2.43260683">
        <ele>1172.0000</ele>
        <time>2018-10-12T20:02:37Z</time>
      </trkpt>
      <trkpt lat="38.21595177" lon="-2.43230508">
        <ele>1171.0000</ele>
        <time>2018-10-12T20:02:41Z</time>
      </trkpt>
      <trkpt lat="38.21600197" lon="-2.43214650">
        <ele>1169.0000</ele>
        <time>2018-10-12T20:02:43Z</time>
      </trkpt>
      <trkpt lat="38.21603533" lon="-2.43207206">
        <ele>1168.0000</ele>
        <time>2018-10-12T20:02:44Z</time>
      </trkpt>
      <trkpt lat="38.21607557" lon="-2.43200350">
        <ele>1167.0000</ele>
        <time>2018-10-12T20:02:45Z</time>
      </trkpt>
      <trkpt lat="38.21617548" lon="-2.43185866">
        <ele>1166.0000</ele>
        <time>2018-10-12T20:02:47Z</time>
      </trkpt>
      <trkpt lat="38.21623164" lon="-2.43178264">
        <ele>1165.0000</ele>
        <time>2018-10-12T20:02:48Z</time>
      </trkpt>
      <trkpt lat="38.21636533" lon="-2.43163872">
        <ele>1163.0000</ele>
        <time>2018-10-12T20:02:50Z</time>
      </trkpt>
      <trkpt lat="38.21648184" lon="-2.43150310">
        <ele>1162.0000</ele>
        <time>2018-10-12T20:02:52Z</time>
      </trkpt>
      <trkpt lat="38.21658644" lon="-2.43135776">
        <ele>1160.0000</ele>
        <time>2018-10-12T20:02:54Z</time>
      </trkpt>
      <trkpt lat="38.21663690" lon="-2.43128794">
        <ele>1159.0000</ele>
        <time>2018-10-12T20:02:55Z</time>
      </trkpt>
      <trkpt lat="38.21668803" lon="-2.43122465">
        <ele>1158.0000</ele>
        <time>2018-10-12T20:02:56Z</time>
      </trkpt>
      <trkpt lat="38.21674905" lon="-2.43117487">
        <ele>1157.0000</ele>
        <time>2018-10-12T20:02:57Z</time>
      </trkpt>
      <trkpt lat="38.21681720" lon="-2.43114000">
        <ele>1157.0000</ele>
        <time>2018-10-12T20:02:58Z</time>
      </trkpt>
      <trkpt lat="38.21696204" lon="-2.43112441">
        <ele>1156.0000</ele>
        <time>2018-10-12T20:03:01Z</time>
      </trkpt>
      <trkpt lat="38.21710386" lon="-2.43109976">
        <ele>1155.0000</ele>
        <time>2018-10-12T20:03:03Z</time>
      </trkpt>
      <trkpt lat="38.21717879" lon="-2.43107068">
        <ele>1155.0000</ele>
        <time>2018-10-12T20:03:04Z</time>
      </trkpt>
      <trkpt lat="38.21726940" lon="-2.43103832">
        <ele>1154.0000</ele>
        <time>2018-10-12T20:03:05Z</time>
      </trkpt>
      <trkpt lat="38.21746177" lon="-2.43097119">
        <ele>1153.0000</ele>
        <time>2018-10-12T20:03:07Z</time>
      </trkpt>
      <trkpt lat="38.21766176" lon="-2.43089952">
        <ele>1152.0000</ele>
        <time>2018-10-12T20:03:09Z</time>
      </trkpt>
      <trkpt lat="38.21776921" lon="-2.43085929">
        <ele>1151.0000</ele>
        <time>2018-10-12T20:03:10Z</time>
      </trkpt>
      <trkpt lat="38.21787550" lon="-2.43081830">
        <ele>1149.0000</ele>
        <time>2018-10-12T20:03:11Z</time>
      </trkpt>
      <trkpt lat="38.21797792" lon="-2.43077899">
        <ele>1148.0000</ele>
        <time>2018-10-12T20:03:12Z</time>
      </trkpt>
      <trkpt lat="38.21807851" lon="-2.43073901">
        <ele>1146.0000</ele>
        <time>2018-10-12T20:03:13Z</time>
      </trkpt>
      <trkpt lat="38.21817649" lon="-2.43070431">
        <ele>1145.0000</ele>
        <time>2018-10-12T20:03:14Z</time>
      </trkpt>
      <trkpt lat="38.21827137" lon="-2.43067824">
        <ele>1144.0000</ele>
        <time>2018-10-12T20:03:15Z</time>
      </trkpt>
      <trkpt lat="38.21836483" lon="-2.43066265">
        <ele>1142.0000</ele>
        <time>2018-10-12T20:03:16Z</time>
      </trkpt>
      <trkpt lat="38.21846089" lon="-2.43065393">
        <ele>1141.0000</ele>
        <time>2018-10-12T20:03:17Z</time>
      </trkpt>
      <trkpt lat="38.21856088" lon="-2.43065737">
        <ele>1139.0000</ele>
        <time>2018-10-12T20:03:18Z</time>
      </trkpt>
      <trkpt lat="38.21866457" lon="-2.43066684">
        <ele>1138.0000</ele>
        <time>2018-10-12T20:03:19Z</time>
      </trkpt>
      <trkpt lat="38.21876917" lon="-2.43067757">
        <ele>1137.0000</ele>
        <time>2018-10-12T20:03:20Z</time>
      </trkpt>
      <trkpt lat="38.21896020" lon="-2.43069400">
        <ele>1136.0000</ele>
        <time>2018-10-12T20:03:22Z</time>
      </trkpt>
      <trkpt lat="38.21904888" lon="-2.43069559">
        <ele>1134.0000</ele>
        <time>2018-10-12T20:03:23Z</time>
      </trkpt>
      <trkpt lat="38.21914192" lon="-2.43068939">
        <ele>1133.0000</ele>
        <time>2018-10-12T20:03:24Z</time>
      </trkpt>
      <trkpt lat="38.21923362" lon="-2.43068218">
        <ele>1132.0000</ele>
        <time>2018-10-12T20:03:25Z</time>
      </trkpt>
      <trkpt lat="38.21932204" lon="-2.43067773">
        <ele>1131.0000</ele>
        <time>2018-10-12T20:03:26Z</time>
      </trkpt>
      <trkpt lat="38.21940964" lon="-2.43067455">
        <ele>1130.0000</ele>
        <time>2018-10-12T20:03:27Z</time>
      </trkpt>
      <trkpt lat="38.21949765" lon="-2.43067111">
        <ele>1129.0000</ele>
        <time>2018-10-12T20:03:28Z</time>
      </trkpt>
      <trkpt lat="38.21966956" lon="-2.43066533">
        <ele>1127.0000</ele>
        <time>2018-10-12T20:03:30Z</time>
      </trkpt>
      <trkpt lat="38.21983954" lon="-2.43067338">
        <ele>1125.0000</ele>
        <time>2018-10-12T20:03:32Z</time>
      </trkpt>
      <trkpt lat="38.21992387" lon="-2.43068662">
        <ele>1124.0000</ele>
        <time>2018-10-12T20:03:33Z</time>
      </trkpt>
      <trkpt lat="38.22000827" lon="-2.43069928">
        <ele>1123.0000</ele>
        <time>2018-10-12T20:03:34Z</time>
      </trkpt>
      <trkpt lat="38.22009243" lon="-2.43071227">
        <ele>1122.0000</ele>
        <time>2018-10-12T20:03:35Z</time>
      </trkpt>
      <trkpt lat="38.22026392" lon="-2.43072417">
        <ele>1120.0000</ele>
        <time>2018-10-12T20:03:37Z</time>
      </trkpt>
      <trkpt lat="38.22043818" lon="-2.43070305">
        <ele>1118.0000</ele>
        <time>2018-10-12T20:03:39Z</time>
      </trkpt>
      <trkpt lat="38.22052602" lon="-2.43067950">
        <ele>1117.0000</ele>
        <time>2018-10-12T20:03:40Z</time>
      </trkpt>
      <trkpt lat="38.22070883" lon="-2.43062401">
        <ele>1115.0000</ele>
        <time>2018-10-12T20:03:42Z</time>
      </trkpt>
      <trkpt lat="38.22088929" lon="-2.43056483">
        <ele>1113.0000</ele>
        <time>2018-10-12T20:03:44Z</time>
      </trkpt>
      <trkpt lat="38.22105676" lon="-2.43052443">
        <ele>1112.0000</ele>
        <time>2018-10-12T20:03:46Z</time>
      </trkpt>
      <trkpt lat="38.22113614" lon="-2.43052183">
        <ele>1111.0000</ele>
        <time>2018-10-12T20:03:47Z</time>
      </trkpt>
      <trkpt lat="38.22121585" lon="-2.43053868">
        <ele>1110.0000</ele>
        <time>2018-10-12T20:03:48Z</time>
      </trkpt>
      <trkpt lat="38.22136497" lon="-2.43061403">
        <ele>1108.0000</ele>
        <time>2018-10-12T20:03:50Z</time>
      </trkpt>
      <trkpt lat="38.22148726" lon="-2.43071747">
        <ele>1107.0000</ele>
        <time>2018-10-12T20:03:52Z</time>
      </trkpt>
      <trkpt lat="38.22162489" lon="-2.43082509">
        <ele>1105.0000</ele>
        <time>2018-10-12T20:03:55Z</time>
      </trkpt>
      <trkpt lat="38.22174576" lon="-2.43078226">
        <ele>1104.0000</ele>
        <time>2018-10-12T20:03:58Z</time>
      </trkpt>
      <trkpt lat="38.22186738" lon="-2.43061127">
        <ele>1103.0000</ele>
        <time>2018-10-12T20:04:01Z</time>
      </trkpt>
      <trkpt lat="38.22191641" lon="-2.43055712">
        <ele>1103.0000</ele>
        <time>2018-10-12T20:04:02Z</time>
      </trkpt>
      <trkpt lat="38.22204658" lon="-2.43047037">
        <ele>1103.0000</ele>
        <time>2018-10-12T20:04:05Z</time>
      </trkpt>
      <trkpt lat="38.22209436" lon="-2.43048378">
        <ele>1102.0000</ele>
        <time>2018-10-12T20:04:06Z</time>
      </trkpt>
      <trkpt lat="38.22213300" lon="-2.43051395">
        <ele>1101.0000</ele>
        <time>2018-10-12T20:04:07Z</time>
      </trkpt>
      <trkpt lat="38.22219025" lon="-2.43063306">
        <ele>1099.0000</ele>
        <time>2018-10-12T20:04:09Z</time>
      </trkpt>
      <trkpt lat="38.22223417" lon="-2.43089198">
        <ele>1098.0000</ele>
        <time>2018-10-12T20:04:12Z</time>
      </trkpt>
      <trkpt lat="38.22224071" lon="-2.43097823">
        <ele>1098.0000</ele>
        <time>2018-10-12T20:04:13Z</time>
      </trkpt>
      <trkpt lat="38.22224481" lon="-2.43113413">
        <ele>1097.0000</ele>
        <time>2018-10-12T20:04:15Z</time>
      </trkpt>
      <trkpt lat="38.22220106" lon="-2.43129003">
        <ele>1095.0000</ele>
        <time>2018-10-12T20:04:17Z</time>
      </trkpt>
      <trkpt lat="38.22216359" lon="-2.43137075">
        <ele>1094.0000</ele>
        <time>2018-10-12T20:04:18Z</time>
      </trkpt>
      <trkpt lat="38.22212168" lon="-2.43145566">
        <ele>1093.0000</ele>
        <time>2018-10-12T20:04:19Z</time>
      </trkpt>
      <trkpt lat="38.22208070" lon="-2.43154384">
        <ele>1092.0000</ele>
        <time>2018-10-12T20:04:20Z</time>
      </trkpt>
      <trkpt lat="38.22203912" lon="-2.43162740">
        <ele>1091.0000</ele>
        <time>2018-10-12T20:04:21Z</time>
      </trkpt>
      <trkpt lat="38.22194952" lon="-2.43178331">
        <ele>1089.0000</ele>
        <time>2018-10-12T20:04:23Z</time>
      </trkpt>
      <trkpt lat="38.22190769" lon="-2.43185145">
        <ele>1088.0000</ele>
        <time>2018-10-12T20:04:24Z</time>
      </trkpt>
      <trkpt lat="38.22186729" lon="-2.43190694">
        <ele>1087.0000</ele>
        <time>2018-10-12T20:04:25Z</time>
      </trkpt>
      <trkpt lat="38.22182639" lon="-2.43194801">
        <ele>1085.0000</ele>
        <time>2018-10-12T20:04:26Z</time>
      </trkpt>
      <trkpt lat="38.22178289" lon="-2.43197970">
        <ele>1084.0000</ele>
        <time>2018-10-12T20:04:27Z</time>
      </trkpt>
      <trkpt lat="38.22173821" lon="-2.43199738">
        <ele>1083.0000</ele>
        <time>2018-10-12T20:04:28Z</time>
      </trkpt>
      <trkpt lat="38.22168951" lon="-2.43200006">
        <ele>1082.0000</ele>
        <time>2018-10-12T20:04:29Z</time>
      </trkpt>
      <trkpt lat="38.22164165" lon="-2.43199453">
        <ele>1081.0000</ele>
        <time>2018-10-12T20:04:30Z</time>
      </trkpt>
      <trkpt lat="38.22151576" lon="-2.43193536">
        <ele>1079.0000</ele>
        <time>2018-10-12T20:04:32Z</time>
      </trkpt>
      <trkpt lat="38.22139925" lon="-2.43189336">
        <ele>1078.0000</ele>
        <time>2018-10-12T20:04:34Z</time>
      </trkpt>
      <trkpt lat="38.22123304" lon="-2.43197785">
        <ele>1077.0000</ele>
        <time>2018-10-12T20:04:37Z</time>
      </trkpt>
      <trkpt lat="38.22116598" lon="-2.43202093">
        <ele>1076.0000</ele>
        <time>2018-10-12T20:04:38Z</time>
      </trkpt>
      <trkpt lat="38.22110144" lon="-2.43206913">
        <ele>1075.0000</ele>
        <time>2018-10-12T20:04:39Z</time>
      </trkpt>
      <trkpt lat="38.22096775" lon="-2.43216376">
        <ele>1074.0000</ele>
        <time>2018-10-12T20:04:41Z</time>
      </trkpt>
      <trkpt lat="38.22089541" lon="-2.43220483">
        <ele>1074.0000</ele>
        <time>2018-10-12T20:04:42Z</time>
      </trkpt>
      <trkpt lat="38.22081981" lon="-2.43223920">
        <ele>1073.0000</ele>
        <time>2018-10-12T20:04:43Z</time>
      </trkpt>
      <trkpt lat="38.22065980" lon="-2.43231045">
        <ele>1072.0000</ele>
        <time>2018-10-12T20:04:45Z</time>
      </trkpt>
      <trkpt lat="38.22050607" lon="-2.43238387">
        <ele>1071.0000</ele>
        <time>2018-10-12T20:04:47Z</time>
      </trkpt>
      <trkpt lat="38.22034698" lon="-2.43244363">
        <ele>1069.0000</ele>
        <time>2018-10-12T20:04:49Z</time>
      </trkpt>
      <trkpt lat="38.22019946" lon="-2.43251346">
        <ele>1068.0000</ele>
        <time>2018-10-12T20:04:51Z</time>
      </trkpt>
      <trkpt lat="38.22004498" lon="-2.43259610">
        <ele>1067.0000</ele>
        <time>2018-10-12T20:04:53Z</time>
      </trkpt>
      <trkpt lat="38.21997583" lon="-2.43264765">
        <ele>1067.0000</ele>
        <time>2018-10-12T20:04:54Z</time>
      </trkpt>
      <trkpt lat="38.21983636" lon="-2.43274404">
        <ele>1066.0000</ele>
        <time>2018-10-12T20:04:56Z</time>
      </trkpt>
      <trkpt lat="38.21974692" lon="-2.43283012">
        <ele>1065.0000</ele>
        <time>2018-10-12T20:04:58Z</time>
      </trkpt>
      <trkpt lat="38.21970669" lon="-2.43291612">
        <ele>1063.0000</ele>
        <time>2018-10-12T20:05:00Z</time>
      </trkpt>
      <trkpt lat="38.21977836" lon="-2.43306817">
        <ele>1062.0000</ele>
        <time>2018-10-12T20:05:03Z</time>
      </trkpt>
      <trkpt lat="38.21983326" lon="-2.43307990">
        <ele>1062.0000</ele>
        <time>2018-10-12T20:05:04Z</time>
      </trkpt>
      <trkpt lat="38.22000869" lon="-2.43298318">
        <ele>1062.0000</ele>
        <time>2018-10-12T20:05:07Z</time>
      </trkpt>
      <trkpt lat="38.22007147" lon="-2.43296197">
        <ele>1061.0000</ele>
        <time>2018-10-12T20:05:08Z</time>
      </trkpt>
      <trkpt lat="38.22014213" lon="-2.43296390">
        <ele>1061.0000</ele>
        <time>2018-10-12T20:05:09Z</time>
      </trkpt>
      <trkpt lat="38.22033097" lon="-2.43307949">
        <ele>1059.0000</ele>
        <time>2018-10-12T20:05:12Z</time>
      </trkpt>
      <trkpt lat="38.22039417" lon="-2.43313305">
        <ele>1058.0000</ele>
        <time>2018-10-12T20:05:13Z</time>
      </trkpt>
      <trkpt lat="38.22045804" lon="-2.43319029">
        <ele>1058.0000</ele>
        <time>2018-10-12T20:05:14Z</time>
      </trkpt>
      <trkpt lat="38.22065963" lon="-2.43335827">
        <ele>1056.0000</ele>
        <time>2018-10-12T20:05:17Z</time>
      </trkpt>
      <trkpt lat="38.22088418" lon="-2.43351518">
        <ele>1055.0000</ele>
        <time>2018-10-12T20:05:20Z</time>
      </trkpt>
      <trkpt lat="38.22111292" lon="-2.43357812">
        <ele>1054.0000</ele>
        <time>2018-10-12T20:05:23Z</time>
      </trkpt>
      <trkpt lat="38.22131853" lon="-2.43356111">
        <ele>1052.0000</ele>
        <time>2018-10-12T20:05:26Z</time>
      </trkpt>
      <trkpt lat="38.22143831" lon="-2.43348718">
        <ele>1051.0000</ele>
        <time>2018-10-12T20:05:28Z</time>
      </trkpt>
      <trkpt lat="38.22154384" lon="-2.43338484">
        <ele>1050.0000</ele>
        <time>2018-10-12T20:05:30Z</time>
      </trkpt>
      <trkpt lat="38.22165758" lon="-2.43329272">
        <ele>1050.0000</ele>
        <time>2018-10-12T20:05:32Z</time>
      </trkpt>
      <trkpt lat="38.22171416" lon="-2.43325584">
        <ele>1050.0000</ele>
        <time>2018-10-12T20:05:33Z</time>
      </trkpt>
      <trkpt lat="38.22191130" lon="-2.43322466">
        <ele>1049.0000</ele>
        <time>2018-10-12T20:05:36Z</time>
      </trkpt>
      <trkpt lat="38.22198690" lon="-2.43322801">
        <ele>1048.0000</ele>
        <time>2018-10-12T20:05:37Z</time>
      </trkpt>
      <trkpt lat="38.22213803" lon="-2.43324008">
        <ele>1047.0000</ele>
        <time>2018-10-12T20:05:39Z</time>
      </trkpt>
      <trkpt lat="38.22221355" lon="-2.43323732">
        <ele>1047.0000</ele>
        <time>2018-10-12T20:05:40Z</time>
      </trkpt>
      <trkpt lat="38.22247263" lon="-2.43321167">
        <ele>1046.0000</ele>
        <time>2018-10-12T20:05:43Z</time>
      </trkpt>
      <trkpt lat="38.22268704" lon="-2.43319935">
        <ele>1045.0000</ele>
        <time>2018-10-12T20:05:46Z</time>
      </trkpt>
      <trkpt lat="38.22273700" lon="-2.43319038">
        <ele>1045.0000</ele>
        <time>2018-10-12T20:05:47Z</time>
      </trkpt>
      <trkpt lat="38.22277480" lon="-2.43316808">
        <ele>1044.0000</ele>
        <time>2018-10-12T20:05:48Z</time>
      </trkpt>
      <trkpt lat="38.22281965" lon="-2.43306306">
        <ele>1043.0000</ele>
        <time>2018-10-12T20:05:50Z</time>
      </trkpt>
      <trkpt lat="38.22286608" lon="-2.43283012">
        <ele>1042.0000</ele>
        <time>2018-10-12T20:05:53Z</time>
      </trkpt>
      <trkpt lat="38.22288930" lon="-2.43275242">
        <ele>1042.0000</ele>
        <time>2018-10-12T20:05:54Z</time>
      </trkpt>
      <trkpt lat="38.22298737" lon="-2.43261312">
        <ele>1042.0000</ele>
        <time>2018-10-12T20:05:56Z</time>
      </trkpt>
      <trkpt lat="38.22320236" lon="-2.43244917">
        <ele>1041.0000</ele>
        <time>2018-10-12T20:05:59Z</time>
      </trkpt>
      <trkpt lat="38.22336095" lon="-2.43237633">
        <ele>1039.0000</ele>
        <time>2018-10-12T20:06:01Z</time>
      </trkpt>
      <trkpt lat="38.22343354" lon="-2.43234666">
        <ele>1039.0000</ele>
        <time>2018-10-12T20:06:02Z</time>
      </trkpt>
      <trkpt lat="38.22349355" lon="-2.43231003">
        <ele>1038.0000</ele>
        <time>2018-10-12T20:06:03Z</time>
      </trkpt>
      <trkpt lat="38.22355683" lon="-2.43226493">
        <ele>1037.0000</ele>
        <time>2018-10-12T20:06:04Z</time>
      </trkpt>
      <trkpt lat="38.22367284" lon="-2.43214633">
        <ele>1035.0000</ele>
        <time>2018-10-12T20:06:06Z</time>
      </trkpt>
      <trkpt lat="38.22372883" lon="-2.43207181">
        <ele>1034.0000</ele>
        <time>2018-10-12T20:06:07Z</time>
      </trkpt>
      <trkpt lat="38.22382992" lon="-2.43190820">
        <ele>1033.0000</ele>
        <time>2018-10-12T20:06:09Z</time>
      </trkpt>
      <trkpt lat="38.22388038" lon="-2.43183192">
        <ele>1033.0000</ele>
        <time>2018-10-12T20:06:10Z</time>
      </trkpt>
      <trkpt lat="38.22399822" lon="-2.43168918">
        <ele>1031.0000</ele>
        <time>2018-10-12T20:06:12Z</time>
      </trkpt>
      <trkpt lat="38.22412999" lon="-2.43153210">
        <ele>1030.0000</ele>
        <time>2018-10-12T20:06:14Z</time>
      </trkpt>
      <trkpt lat="38.22419294" lon="-2.43145465">
        <ele>1029.0000</ele>
        <time>2018-10-12T20:06:15Z</time>
      </trkpt>
      <trkpt lat="38.22429738" lon="-2.43133001">
        <ele>1027.0000</ele>
        <time>2018-10-12T20:06:17Z</time>
      </trkpt>
      <trkpt lat="38.22434029" lon="-2.43126614">
        <ele>1026.0000</ele>
        <time>2018-10-12T20:06:18Z</time>
      </trkpt>
      <trkpt lat="38.22445336" lon="-2.43112030">
        <ele>1024.0000</ele>
        <time>2018-10-12T20:06:20Z</time>
      </trkpt>
      <trkpt lat="38.22459820" lon="-2.43098409">
        <ele>1022.0000</ele>
        <time>2018-10-12T20:06:22Z</time>
      </trkpt>
      <trkpt lat="38.22484488" lon="-2.43078846">
        <ele>1021.0000</ele>
        <time>2018-10-12T20:06:26Z</time>
      </trkpt>
      <trkpt lat="38.22490490" lon="-2.43066466">
        <ele>1020.0000</ele>
        <time>2018-10-12T20:06:28Z</time>
      </trkpt>
      <trkpt lat="38.22492141" lon="-2.43054681">
        <ele>1018.0000</ele>
        <time>2018-10-12T20:06:30Z</time>
      </trkpt>
      <trkpt lat="38.22493189" lon="-2.43037808">
        <ele>1016.0000</ele>
        <time>2018-10-12T20:06:33Z</time>
      </trkpt>
      <trkpt lat="38.22494178" lon="-2.43023073">
        <ele>1015.0000</ele>
        <time>2018-10-12T20:06:35Z</time>
      </trkpt>
      <trkpt lat="38.22497262" lon="-2.43017348">
        <ele>1015.0000</ele>
        <time>2018-10-12T20:06:36Z</time>
      </trkpt>
      <trkpt lat="38.22506457" lon="-2.42990559">
        <ele>1014.0000</ele>
        <time>2018-10-12T20:06:39Z</time>
      </trkpt>
      <trkpt lat="38.22510472" lon="-2.42981113">
        <ele>1013.0000</ele>
        <time>2018-10-12T20:06:40Z</time>
      </trkpt>
      <trkpt lat="38.22515040" lon="-2.42972086">
        <ele>1012.0000</ele>
        <time>2018-10-12T20:06:41Z</time>
      </trkpt>
      <trkpt lat="38.22529482" lon="-2.42948985">
        <ele>1011.0000</ele>
        <time>2018-10-12T20:06:44Z</time>
      </trkpt>
      <trkpt lat="38.22538350" lon="-2.42938592">
        <ele>1009.0000</ele>
        <time>2018-10-12T20:06:46Z</time>
      </trkpt>
      <trkpt lat="38.22547411" lon="-2.42928441">
        <ele>1007.0000</ele>
        <time>2018-10-12T20:06:48Z</time>
      </trkpt>
      <trkpt lat="38.22552356" lon="-2.42922750">
        <ele>1006.0000</ele>
        <time>2018-10-12T20:06:49Z</time>
      </trkpt>
      <trkpt lat="38.22557729" lon="-2.42916882">
        <ele>1005.0000</ele>
        <time>2018-10-12T20:06:50Z</time>
      </trkpt>
      <trkpt lat="38.22576404" lon="-2.42896263">
        <ele>1003.0000</ele>
        <time>2018-10-12T20:06:53Z</time>
      </trkpt>
      <trkpt lat="38.22589094" lon="-2.42880798">
        <ele>1002.0000</ele>
        <time>2018-10-12T20:06:55Z</time>
      </trkpt>
      <trkpt lat="38.22602966" lon="-2.42865015">
        <ele>1001.0000</ele>
        <time>2018-10-12T20:06:57Z</time>
      </trkpt>
      <trkpt lat="38.22614550" lon="-2.42849215">
        <ele>999.00000</ele>
        <time>2018-10-12T20:06:59Z</time>
      </trkpt>
      <trkpt lat="38.22623535" lon="-2.42831773">
        <ele>997.00000</ele>
        <time>2018-10-12T20:07:01Z</time>
      </trkpt>
      <trkpt lat="38.22631238" lon="-2.42810835">
        <ele>996.00000</ele>
        <time>2018-10-12T20:07:03Z</time>
      </trkpt>
      <trkpt lat="38.22634373" lon="-2.42800600">
        <ele>995.00000</ele>
        <time>2018-10-12T20:07:04Z</time>
      </trkpt>
      <trkpt lat="38.22640635" lon="-2.42781657">
        <ele>993.00000</ele>
        <time>2018-10-12T20:07:06Z</time>
      </trkpt>
      <trkpt lat="38.22648421" lon="-2.42765782">
        <ele>992.00000</ele>
        <time>2018-10-12T20:07:08Z</time>
      </trkpt>
      <trkpt lat="38.22658429" lon="-2.42751491">
        <ele>990.00000</ele>
        <time>2018-10-12T20:07:10Z</time>
      </trkpt>
      <trkpt lat="38.22669837" lon="-2.42736973">
        <ele>988.00000</ele>
        <time>2018-10-12T20:07:12Z</time>
      </trkpt>
      <trkpt lat="38.22680683" lon="-2.42723277">
        <ele>987.00000</ele>
        <time>2018-10-12T20:07:14Z</time>
      </trkpt>
      <trkpt lat="38.22695259" lon="-2.42706983">
        <ele>986.00000</ele>
        <time>2018-10-12T20:07:17Z</time>
      </trkpt>
      <trkpt lat="38.22694463" lon="-2.42703278">
        <ele>984.00000</ele>
        <time>2018-10-12T20:07:19Z</time>
      </trkpt>
      <trkpt lat="38.22687934" lon="-2.42707327">
        <ele>982.00000</ele>
        <time>2018-10-12T20:07:21Z</time>
      </trkpt>
      <trkpt lat="38.22697657" lon="-2.42715273">
        <ele>981.00000</ele>
        <time>2018-10-12T20:07:23Z</time>
      </trkpt>
      <trkpt lat="38.22705443" lon="-2.42719690">
        <ele>981.00000</ele>
        <time>2018-10-12T20:07:24Z</time>
      </trkpt>
      <trkpt lat="38.22720321" lon="-2.42728265">
        <ele>980.00000</ele>
        <time>2018-10-12T20:07:26Z</time>
      </trkpt>
      <trkpt lat="38.22745140" lon="-2.42742011">
        <ele>979.00000</ele>
        <time>2018-10-12T20:07:29Z</time>
      </trkpt>
      <trkpt lat="38.22769020" lon="-2.42758071">
        <ele>978.00000</ele>
        <time>2018-10-12T20:07:32Z</time>
      </trkpt>
      <trkpt lat="38.22784669" lon="-2.42770585">
        <ele>976.00000</ele>
        <time>2018-10-12T20:07:34Z</time>
      </trkpt>
      <trkpt lat="38.22799597" lon="-2.42784784">
        <ele>975.00000</ele>
        <time>2018-10-12T20:07:36Z</time>
      </trkpt>
      <trkpt lat="38.22813780" lon="-2.42799117">
        <ele>973.00000</ele>
        <time>2018-10-12T20:07:38Z</time>
      </trkpt>
      <trkpt lat="38.22828230" lon="-2.42811229">
        <ele>972.00000</ele>
        <time>2018-10-12T20:07:40Z</time>
      </trkpt>
      <trkpt lat="38.22835195" lon="-2.42815906">
        <ele>972.00000</ele>
        <time>2018-10-12T20:07:41Z</time>
      </trkpt>
      <trkpt lat="38.22849746" lon="-2.42821463">
        <ele>971.00000</ele>
        <time>2018-10-12T20:07:43Z</time>
      </trkpt>
      <trkpt lat="38.22872847" lon="-2.42824103">
        <ele>970.00000</ele>
        <time>2018-10-12T20:07:46Z</time>
      </trkpt>
      <trkpt lat="38.22880692" lon="-2.42823776">
        <ele>970.00000</ele>
        <time>2018-10-12T20:07:47Z</time>
      </trkpt>
      <trkpt lat="38.22888228" lon="-2.42822494">
        <ele>970.00000</ele>
        <time>2018-10-12T20:07:48Z</time>
      </trkpt>
      <trkpt lat="38.22938418" lon="-2.42801933">
        <ele>969.00000</ele>
        <time>2018-10-12T20:07:55Z</time>
      </trkpt>
      <trkpt lat="38.22947060" lon="-2.42800869">
        <ele>969.00000</ele>
        <time>2018-10-12T20:07:56Z</time>
      </trkpt>
      <trkpt lat="38.22964930" lon="-2.42799863">
        <ele>968.00000</ele>
        <time>2018-10-12T20:07:58Z</time>
      </trkpt>
      <trkpt lat="38.22973581" lon="-2.42799611">
        <ele>968.00000</ele>
        <time>2018-10-12T20:07:59Z</time>
      </trkpt>
      <trkpt lat="38.22997620" lon="-2.42799066">
        <ele>966.00000</ele>
        <time>2018-10-12T20:08:02Z</time>
      </trkpt>
      <trkpt lat="38.23018994" lon="-2.42796854">
        <ele>965.00000</ele>
        <time>2018-10-12T20:08:05Z</time>
      </trkpt>
      <trkpt lat="38.23046235" lon="-2.42787541">
        <ele>965.00000</ele>
        <time>2018-10-12T20:08:09Z</time>
      </trkpt>
      <trkpt lat="38.23060358" lon="-2.42782135">
        <ele>964.00000</ele>
        <time>2018-10-12T20:08:11Z</time>
      </trkpt>
      <trkpt lat="38.23076385" lon="-2.42778405">
        <ele>963.00000</ele>
        <time>2018-10-12T20:08:13Z</time>
      </trkpt>
      <trkpt lat="38.23092008" lon="-2.42775128">
        <ele>961.00000</ele>
        <time>2018-10-12T20:08:15Z</time>
      </trkpt>
      <trkpt lat="38.23099946" lon="-2.42773041">
        <ele>960.00000</ele>
        <time>2018-10-12T20:08:16Z</time>
      </trkpt>
      <trkpt lat="38.23106308" lon="-2.42770895">
        <ele>959.00000</ele>
        <time>2018-10-12T20:08:17Z</time>
      </trkpt>
      <trkpt lat="38.23111647" lon="-2.42769160">
        <ele>957.00000</ele>
        <time>2018-10-12T20:08:18Z</time>
      </trkpt>
      <trkpt lat="38.23120708" lon="-2.42766981">
        <ele>956.00000</ele>
        <time>2018-10-12T20:08:20Z</time>
      </trkpt>
      <trkpt lat="38.23126777" lon="-2.42766997">
        <ele>954.00000</ele>
        <time>2018-10-12T20:08:22Z</time>
      </trkpt>
      <trkpt lat="38.23128503" lon="-2.42767291">
        <ele>953.00000</ele>
        <time>2018-10-12T20:08:24Z</time>
      </trkpt>
      <trkpt lat="38.23128436" lon="-2.42767224">
        <ele>953.00000</ele>
        <time>2018-10-12T20:08:25Z</time>
      </trkpt>
      <trkpt lat="38.23135133" lon="-2.42763033">
        <ele>953.00000</ele>
        <time>2018-10-12T20:08:49Z</time>
      </trkpt>
      <trkpt lat="38.23139165" lon="-2.42762270">
        <ele>953.00000</ele>
        <time>2018-10-12T20:08:50Z</time>
      </trkpt>
      <trkpt lat="38.23165107" lon="-2.42769453">
        <ele>952.00000</ele>
        <time>2018-10-12T20:08:57Z</time>
      </trkpt>
      <trkpt lat="38.23167060" lon="-2.42773611">
        <ele>952.00000</ele>
        <time>2018-10-12T20:08:59Z</time>
      </trkpt>
      <trkpt lat="38.23170044" lon="-2.42780836">
        <ele>952.00000</ele>
        <time>2018-10-12T20:09:02Z</time>
      </trkpt>
      <trkpt lat="38.23174629" lon="-2.42790257">
        <ele>952.00000</ele>
        <time>2018-10-12T20:09:05Z</time>
      </trkpt>
      <trkpt lat="38.23184075" lon="-2.42809561">
        <ele>953.00000</ele>
        <time>2018-10-12T20:09:10Z</time>
      </trkpt>
      <trkpt lat="38.23190278" lon="-2.42819971">
        <ele>953.00000</ele>
        <time>2018-10-12T20:09:13Z</time>
      </trkpt>
      <trkpt lat="38.23208123" lon="-2.42837908">
        <ele>954.00000</ele>
        <time>2018-10-12T20:09:20Z</time>
      </trkpt>
      <trkpt lat="38.23223286" lon="-2.42846919">
        <ele>955.00000</ele>
        <time>2018-10-12T20:09:25Z</time>
      </trkpt>
      <trkpt lat="38.23226488" lon="-2.42848427">
        <ele>956.00000</ele>
        <time>2018-10-12T20:09:26Z</time>
      </trkpt>
      <trkpt lat="38.23245070" lon="-2.42856910">
        <ele>957.00000</ele>
        <time>2018-10-12T20:09:32Z</time>
      </trkpt>
      <trkpt lat="38.23260225" lon="-2.42857824">
        <ele>957.00000</ele>
        <time>2018-10-12T20:09:37Z</time>
      </trkpt>
      <trkpt lat="38.23282118" lon="-2.42845620">
        <ele>957.00000</ele>
        <time>2018-10-12T20:09:43Z</time>
      </trkpt>
      <trkpt lat="38.23311128" lon="-2.42829233">
        <ele>955.00000</ele>
        <time>2018-10-12T20:09:49Z</time>
      </trkpt>
      <trkpt lat="38.23321564" lon="-2.42819845">
        <ele>954.00000</ele>
        <time>2018-10-12T20:09:52Z</time>
      </trkpt>
      <trkpt lat="38.23327372" lon="-2.42809871">
        <ele>954.00000</ele>
        <time>2018-10-12T20:09:56Z</time>
      </trkpt>
      <trkpt lat="38.23330985" lon="-2.42806510">
        <ele>954.00000</ele>
        <time>2018-10-12T20:09:58Z</time>
      </trkpt>
      <trkpt lat="38.23338017" lon="-2.42802972">
        <ele>954.00000</ele>
        <time>2018-10-12T20:10:01Z</time>
      </trkpt>
      <trkpt lat="38.23342116" lon="-2.42803056">
        <ele>955.00000</ele>
        <time>2018-10-12T20:10:03Z</time>
      </trkpt>
      <trkpt lat="38.23346332" lon="-2.42803911">
        <ele>955.00000</ele>
        <time>2018-10-12T20:10:05Z</time>
      </trkpt>
      <trkpt lat="38.23361847" lon="-2.42812762">
        <ele>957.00000</ele>
        <time>2018-10-12T20:10:09Z</time>
      </trkpt>
      <trkpt lat="38.23369558" lon="-2.42825143">
        <ele>957.00000</ele>
        <time>2018-10-12T20:10:12Z</time>
      </trkpt>
      <trkpt lat="38.23371604" lon="-2.42830641">
        <ele>957.00000</ele>
        <time>2018-10-12T20:10:13Z</time>
      </trkpt>
      <trkpt lat="38.23382944" lon="-2.42863724">
        <ele>957.00000</ele>
        <time>2018-10-12T20:10:19Z</time>
      </trkpt>
      <trkpt lat="38.23393288" lon="-2.42883464">
        <ele>956.00000</ele>
        <time>2018-10-12T20:10:23Z</time>
      </trkpt>
      <trkpt lat="38.23396330" lon="-2.42888158">
        <ele>956.00000</ele>
        <time>2018-10-12T20:10:24Z</time>
      </trkpt>
      <trkpt lat="38.23402700" lon="-2.42897135">
        <ele>955.00000</ele>
        <time>2018-10-12T20:10:26Z</time>
      </trkpt>
      <trkpt lat="38.23408551" lon="-2.42906439">
        <ele>955.00000</ele>
        <time>2018-10-12T20:10:28Z</time>
      </trkpt>
      <trkpt lat="38.23414720" lon="-2.42915374">
        <ele>955.00000</ele>
        <time>2018-10-12T20:10:30Z</time>
      </trkpt>
      <trkpt lat="38.23426287" lon="-2.42929849">
        <ele>955.00000</ele>
        <time>2018-10-12T20:10:33Z</time>
      </trkpt>
      <trkpt lat="38.23435197" lon="-2.42937024">
        <ele>955.00000</ele>
        <time>2018-10-12T20:10:35Z</time>
      </trkpt>
      <trkpt lat="38.23444166" lon="-2.42942229">
        <ele>955.00000</ele>
        <time>2018-10-12T20:10:37Z</time>
      </trkpt>
      <trkpt lat="38.23458666" lon="-2.42949396">
        <ele>954.00000</ele>
        <time>2018-10-12T20:10:40Z</time>
      </trkpt>
      <trkpt lat="38.23467618" lon="-2.42969412">
        <ele>954.00000</ele>
        <time>2018-10-12T20:10:44Z</time>
      </trkpt>
      <trkpt lat="38.23467065" lon="-2.42991934">
        <ele>953.00000</ele>
        <time>2018-10-12T20:10:47Z</time>
      </trkpt>
      <trkpt lat="38.23460854" lon="-2.43006535">
        <ele>953.00000</ele>
        <time>2018-10-12T20:10:49Z</time>
      </trkpt>
      <trkpt lat="38.23452522" lon="-2.43016703">
        <ele>952.00000</ele>
        <time>2018-10-12T20:10:51Z</time>
      </trkpt>
      <trkpt lat="38.23448885" lon="-2.43020399">
        <ele>952.00000</ele>
        <time>2018-10-12T20:10:52Z</time>
      </trkpt>
      <trkpt lat="38.23445607" lon="-2.43024121">
        <ele>952.00000</ele>
        <time>2018-10-12T20:10:53Z</time>
      </trkpt>
      <trkpt lat="38.23443068" lon="-2.43028680">
        <ele>951.00000</ele>
        <time>2018-10-12T20:10:54Z</time>
      </trkpt>
      <trkpt lat="38.23440184" lon="-2.43040792">
        <ele>950.00000</ele>
        <time>2018-10-12T20:10:56Z</time>
      </trkpt>
      <trkpt lat="38.23442514" lon="-2.43063792">
        <ele>950.00000</ele>
        <time>2018-10-12T20:11:00Z</time>
      </trkpt>
      <trkpt lat="38.23444845" lon="-2.43075460">
        <ele>949.00000</ele>
        <time>2018-10-12T20:11:04Z</time>
      </trkpt>
      <trkpt lat="38.23444903" lon="-2.43084856">
        <ele>948.00000</ele>
        <time>2018-10-12T20:11:07Z</time>
      </trkpt>
      <trkpt lat="38.23444736" lon="-2.43095057">
        <ele>947.00000</ele>
        <time>2018-10-12T20:11:11Z</time>
      </trkpt>
      <trkpt lat="38.23445607" lon="-2.43101502">
        <ele>945.00000</ele>
        <time>2018-10-12T20:11:14Z</time>
      </trkpt>
      <trkpt lat="38.23445842" lon="-2.43101745">
        <ele>945.00000</ele>
        <time>2018-10-12T20:11:15Z</time>
      </trkpt>
      <trkpt lat="38.23435876" lon="-2.43084948">
        <ele>942.00000</ele>
        <time>2018-10-12T20:11:44Z</time>
      </trkpt>
      <trkpt lat="38.23434761" lon="-2.43081294">
        <ele>942.00000</ele>
        <time>2018-10-12T20:11:45Z</time>
      </trkpt>
      <trkpt lat="38.23424586" lon="-2.43042125">
        <ele>942.00000</ele>
        <time>2018-10-12T20:11:53Z</time>
      </trkpt>
      <trkpt lat="38.23415642" lon="-2.43024514">
        <ele>942.00000</ele>
        <time>2018-10-12T20:11:56Z</time>
      </trkpt>
      <trkpt lat="38.23411778" lon="-2.43018371">
        <ele>941.00000</ele>
        <time>2018-10-12T20:11:57Z</time>
      </trkpt>
      <trkpt lat="38.23398468" lon="-2.42999813">
        <ele>941.00000</ele>
        <time>2018-10-12T20:12:00Z</time>
      </trkpt>
      <trkpt lat="38.23387563" lon="-2.42988690">
        <ele>940.00000</ele>
        <time>2018-10-12T20:12:02Z</time>
      </trkpt>
      <trkpt lat="38.23374445" lon="-2.42979118">
        <ele>938.00000</ele>
        <time>2018-10-12T20:12:04Z</time>
      </trkpt>
      <trkpt lat="38.23361017" lon="-2.42971784">
        <ele>937.00000</ele>
        <time>2018-10-12T20:12:06Z</time>
      </trkpt>
      <trkpt lat="38.23349073" lon="-2.42964148">
        <ele>936.00000</ele>
        <time>2018-10-12T20:12:08Z</time>
      </trkpt>
      <trkpt lat="38.23343876" lon="-2.42959488">
        <ele>935.00000</ele>
        <time>2018-10-12T20:12:09Z</time>
      </trkpt>
      <trkpt lat="38.23338906" lon="-2.42954643">
        <ele>934.00000</ele>
        <time>2018-10-12T20:12:10Z</time>
      </trkpt>
      <trkpt lat="38.23328797" lon="-2.42944526">
        <ele>933.00000</ele>
        <time>2018-10-12T20:12:12Z</time>
      </trkpt>
      <trkpt lat="38.23323123" lon="-2.42940226">
        <ele>933.00000</ele>
        <time>2018-10-12T20:12:13Z</time>
      </trkpt>
      <trkpt lat="38.23310910" lon="-2.42937753">
        <ele>932.00000</ele>
        <time>2018-10-12T20:12:15Z</time>
      </trkpt>
      <trkpt lat="38.23294742" lon="-2.42950309">
        <ele>931.00000</ele>
        <time>2018-10-12T20:12:18Z</time>
      </trkpt>
      <trkpt lat="38.23288363" lon="-2.42960141">
        <ele>930.00000</ele>
        <time>2018-10-12T20:12:20Z</time>
      </trkpt>
      <trkpt lat="38.23281574" lon="-2.42971457">
        <ele>929.00000</ele>
        <time>2018-10-12T20:12:23Z</time>
      </trkpt>
      <trkpt lat="38.23278673" lon="-2.42975095">
        <ele>928.00000</ele>
        <time>2018-10-12T20:12:24Z</time>
      </trkpt>
      <trkpt lat="38.23265070" lon="-2.42983066">
        <ele>928.00000</ele>
        <time>2018-10-12T20:12:27Z</time>
      </trkpt>
      <trkpt lat="38.23241173" lon="-2.42978129">
        <ele>927.00000</ele>
        <time>2018-10-12T20:12:31Z</time>
      </trkpt>
      <trkpt lat="38.23234685" lon="-2.42974416">
        <ele>927.00000</ele>
        <time>2018-10-12T20:12:32Z</time>
      </trkpt>
      <trkpt lat="38.23221199" lon="-2.42965439">
        <ele>926.00000</ele>
        <time>2018-10-12T20:12:34Z</time>
      </trkpt>
      <trkpt lat="38.23207092" lon="-2.42956420">
        <ele>925.00000</ele>
        <time>2018-10-12T20:12:36Z</time>
      </trkpt>
      <trkpt lat="38.23199791" lon="-2.42952539">
        <ele>924.00000</ele>
        <time>2018-10-12T20:12:37Z</time>
      </trkpt>
      <trkpt lat="38.23192717" lon="-2.42949756">
        <ele>923.00000</ele>
        <time>2018-10-12T20:12:38Z</time>
      </trkpt>
      <trkpt lat="38.23186179" lon="-2.42947795">
        <ele>922.00000</ele>
        <time>2018-10-12T20:12:39Z</time>
      </trkpt>
      <trkpt lat="38.23174201" lon="-2.42944677">
        <ele>921.00000</ele>
        <time>2018-10-12T20:12:41Z</time>
      </trkpt>
      <trkpt lat="38.23157940" lon="-2.42933856">
        <ele>920.00000</ele>
        <time>2018-10-12T20:12:44Z</time>
      </trkpt>
      <trkpt lat="38.23148762" lon="-2.42915592">
        <ele>919.00000</ele>
        <time>2018-10-12T20:12:47Z</time>
      </trkpt>
      <trkpt lat="38.23145133" lon="-2.42899850">
        <ele>919.00000</ele>
        <time>2018-10-12T20:12:49Z</time>
      </trkpt>
      <trkpt lat="38.23143566" lon="-2.42891862">
        <ele>919.00000</ele>
        <time>2018-10-12T20:12:50Z</time>
      </trkpt>
      <trkpt lat="38.23142275" lon="-2.42884118">
        <ele>919.00000</ele>
        <time>2018-10-12T20:12:51Z</time>
      </trkpt>
      <trkpt lat="38.23140012" lon="-2.42876750">
        <ele>919.00000</ele>
        <time>2018-10-12T20:12:52Z</time>
      </trkpt>
      <trkpt lat="38.23130163" lon="-2.42862417">
        <ele>918.00000</ele>
        <time>2018-10-12T20:12:55Z</time>
      </trkpt>
      <trkpt lat="38.23120733" lon="-2.42857740">
        <ele>916.00000</ele>
        <time>2018-10-12T20:12:57Z</time>
      </trkpt>
      <trkpt lat="38.23111555" lon="-2.42861763">
        <ele>915.00000</ele>
        <time>2018-10-12T20:12:59Z</time>
      </trkpt>
      <trkpt lat="38.23087382" lon="-2.42888267">
        <ele>914.00000</ele>
        <time>2018-10-12T20:13:04Z</time>
      </trkpt>
      <trkpt lat="38.23073627" lon="-2.42910705">
        <ele>914.00000</ele>
        <time>2018-10-12T20:13:07Z</time>
      </trkpt>
      <trkpt lat="38.23061339" lon="-2.42934862">
        <ele>912.00000</ele>
        <time>2018-10-12T20:13:10Z</time>
      </trkpt>
      <trkpt lat="38.23053770" lon="-2.42952204">
        <ele>912.00000</ele>
        <time>2018-10-12T20:13:12Z</time>
      </trkpt>
      <trkpt lat="38.23045807" lon="-2.42968373">
        <ele>910.00000</ele>
        <time>2018-10-12T20:13:14Z</time>
      </trkpt>
      <trkpt lat="38.23037870" lon="-2.42983778">
        <ele>909.00000</ele>
        <time>2018-10-12T20:13:16Z</time>
      </trkpt>
      <trkpt lat="38.23028650" lon="-2.42998229">
        <ele>908.00000</ele>
        <time>2018-10-12T20:13:18Z</time>
      </trkpt>
      <trkpt lat="38.23018139" lon="-2.43009955">
        <ele>907.00000</ele>
        <time>2018-10-12T20:13:20Z</time>
      </trkpt>
      <trkpt lat="38.22999430" lon="-2.43023299">
        <ele>906.00000</ele>
        <time>2018-10-12T20:13:23Z</time>
      </trkpt>
      <trkpt lat="38.22984385" lon="-2.43030541">
        <ele>904.00000</ele>
        <time>2018-10-12T20:13:25Z</time>
      </trkpt>
      <trkpt lat="38.22962600" lon="-2.43039359">
        <ele>903.00000</ele>
        <time>2018-10-12T20:13:28Z</time>
      </trkpt>
      <trkpt lat="38.22951561" lon="-2.43043541">
        <ele>902.00000</ele>
        <time>2018-10-12T20:13:30Z</time>
      </trkpt>
      <trkpt lat="38.22939340" lon="-2.43046106">
        <ele>900.00000</ele>
        <time>2018-10-12T20:13:32Z</time>
      </trkpt>
      <trkpt lat="38.22924756" lon="-2.43045302">
        <ele>899.00000</ele>
        <time>2018-10-12T20:13:34Z</time>
      </trkpt>
      <trkpt lat="38.22901194" lon="-2.43043365">
        <ele>898.00000</ele>
        <time>2018-10-12T20:13:37Z</time>
      </trkpt>
      <trkpt lat="38.22876552" lon="-2.43042158">
        <ele>897.00000</ele>
        <time>2018-10-12T20:13:40Z</time>
      </trkpt>
      <trkpt lat="38.22860358" lon="-2.43042804">
        <ele>895.00000</ele>
        <time>2018-10-12T20:13:42Z</time>
      </trkpt>
      <trkpt lat="38.22852496" lon="-2.43043483">
        <ele>894.00000</ele>
        <time>2018-10-12T20:13:43Z</time>
      </trkpt>
      <trkpt lat="38.22836637" lon="-2.43044304">
        <ele>893.00000</ele>
        <time>2018-10-12T20:13:45Z</time>
      </trkpt>
      <trkpt lat="38.22821223" lon="-2.43044732">
        <ele>892.00000</ele>
        <time>2018-10-12T20:13:47Z</time>
      </trkpt>
      <trkpt lat="38.22808465" lon="-2.43046877">
        <ele>890.00000</ele>
        <time>2018-10-12T20:13:49Z</time>
      </trkpt>
      <trkpt lat="38.22797209" lon="-2.43051244">
        <ele>890.00000</ele>
        <time>2018-10-12T20:13:51Z</time>
      </trkpt>
      <trkpt lat="38.22792439" lon="-2.43055100">
        <ele>889.00000</ele>
        <time>2018-10-12T20:13:52Z</time>
      </trkpt>
      <trkpt lat="38.22781761" lon="-2.43072425">
        <ele>888.00000</ele>
        <time>2018-10-12T20:13:55Z</time>
      </trkpt>
      <trkpt lat="38.22779799" lon="-2.43080489">
        <ele>888.00000</ele>
        <time>2018-10-12T20:13:56Z</time>
      </trkpt>
      <trkpt lat="38.22778408" lon="-2.43089114">
        <ele>888.00000</ele>
        <time>2018-10-12T20:13:57Z</time>
      </trkpt>
      <trkpt lat="38.22770420" lon="-2.43137729">
        <ele>887.00000</ele>
        <time>2018-10-12T20:14:02Z</time>
      </trkpt>
      <trkpt lat="38.22769012" lon="-2.43148307">
        <ele>887.00000</ele>
        <time>2018-10-12T20:14:03Z</time>
      </trkpt>
      <trkpt lat="38.22765776" lon="-2.43179739">
        <ele>886.00000</ele>
        <time>2018-10-12T20:14:06Z</time>
      </trkpt>
      <trkpt lat="38.22764117" lon="-2.43221665">
        <ele>884.00000</ele>
        <time>2018-10-12T20:14:10Z</time>
      </trkpt>
      <trkpt lat="38.22763781" lon="-2.43232822">
        <ele>883.00000</ele>
        <time>2018-10-12T20:14:11Z</time>
      </trkpt>
      <trkpt lat="38.22761963" lon="-2.43255252">
        <ele>882.00000</ele>
        <time>2018-10-12T20:14:13Z</time>
      </trkpt>
      <trkpt lat="38.22759364" lon="-2.43285871">
        <ele>881.00000</ele>
        <time>2018-10-12T20:14:16Z</time>
      </trkpt>
      <trkpt lat="38.22758618" lon="-2.43304663">
        <ele>879.00000</ele>
        <time>2018-10-12T20:14:18Z</time>
      </trkpt>
      <trkpt lat="38.22760504" lon="-2.43323019">
        <ele>878.00000</ele>
        <time>2018-10-12T20:14:20Z</time>
      </trkpt>
      <trkpt lat="38.22763941" lon="-2.43349933">
        <ele>877.00000</ele>
        <time>2018-10-12T20:14:23Z</time>
      </trkpt>
      <trkpt lat="38.22764284" lon="-2.43370058">
        <ele>877.00000</ele>
        <time>2018-10-12T20:14:25Z</time>
      </trkpt>
      <trkpt lat="38.22762994" lon="-2.43389965">
        <ele>876.00000</ele>
        <time>2018-10-12T20:14:27Z</time>
      </trkpt>
      <trkpt lat="38.22763471" lon="-2.43416653">
        <ele>875.00000</ele>
        <time>2018-10-12T20:14:30Z</time>
      </trkpt>
      <trkpt lat="38.22765148" lon="-2.43424700">
        <ele>875.00000</ele>
        <time>2018-10-12T20:14:31Z</time>
      </trkpt>
      <trkpt lat="38.22769808" lon="-2.43440366">
        <ele>873.00000</ele>
        <time>2018-10-12T20:14:33Z</time>
      </trkpt>
      <trkpt lat="38.22776447" lon="-2.43456090">
        <ele>871.00000</ele>
        <time>2018-10-12T20:14:35Z</time>
      </trkpt>
      <trkpt lat="38.22783806" lon="-2.43474271">
        <ele>871.00000</ele>
        <time>2018-10-12T20:14:37Z</time>
      </trkpt>
      <trkpt lat="38.22792490" lon="-2.43494647">
        <ele>870.00000</ele>
        <time>2018-10-12T20:14:39Z</time>
      </trkpt>
      <trkpt lat="38.22798248" lon="-2.43512509">
        <ele>869.00000</ele>
        <time>2018-10-12T20:14:41Z</time>
      </trkpt>
      <trkpt lat="38.22802246" lon="-2.43528837">
        <ele>867.00000</ele>
        <time>2018-10-12T20:14:43Z</time>
      </trkpt>
      <trkpt lat="38.22805423" lon="-2.43542105">
        <ele>865.00000</ele>
        <time>2018-10-12T20:14:45Z</time>
      </trkpt>
      <trkpt lat="38.22813662" lon="-2.43556782">
        <ele>864.00000</ele>
        <time>2018-10-12T20:14:47Z</time>
      </trkpt>
      <trkpt lat="38.22822857" lon="-2.43574460">
        <ele>863.00000</ele>
        <time>2018-10-12T20:14:49Z</time>
      </trkpt>
      <trkpt lat="38.22829093" lon="-2.43584191">
        <ele>862.00000</ele>
        <time>2018-10-12T20:14:50Z</time>
      </trkpt>
      <trkpt lat="38.22841188" lon="-2.43601994">
        <ele>860.00000</ele>
        <time>2018-10-12T20:14:52Z</time>
      </trkpt>
      <trkpt lat="38.22849662" lon="-2.43618750">
        <ele>858.00000</ele>
        <time>2018-10-12T20:14:54Z</time>
      </trkpt>
      <trkpt lat="38.22854650" lon="-2.43636142">
        <ele>856.00000</ele>
        <time>2018-10-12T20:14:56Z</time>
      </trkpt>
      <trkpt lat="38.22855320" lon="-2.43646519">
        <ele>855.00000</ele>
        <time>2018-10-12T20:14:57Z</time>
      </trkpt>
      <trkpt lat="38.22854390" lon="-2.43668781">
        <ele>854.00000</ele>
        <time>2018-10-12T20:14:59Z</time>
      </trkpt>
      <trkpt lat="38.22853518" lon="-2.43680692">
        <ele>853.00000</ele>
        <time>2018-10-12T20:15:00Z</time>
      </trkpt>
      <trkpt lat="38.22848740" lon="-2.43702082">
        <ele>852.00000</ele>
        <time>2018-10-12T20:15:02Z</time>
      </trkpt>
      <trkpt lat="38.22843292" lon="-2.43721294">
        <ele>851.00000</ele>
        <time>2018-10-12T20:15:04Z</time>
      </trkpt>
      <trkpt lat="38.22836117" lon="-2.43741419">
        <ele>849.00000</ele>
        <time>2018-10-12T20:15:06Z</time>
      </trkpt>
      <trkpt lat="38.22828607" lon="-2.43760513">
        <ele>847.00000</ele>
        <time>2018-10-12T20:15:08Z</time>
      </trkpt>
      <trkpt lat="38.22821768" lon="-2.43780042">
        <ele>846.00000</ele>
        <time>2018-10-12T20:15:10Z</time>
      </trkpt>
      <trkpt lat="38.22814031" lon="-2.43797779">
        <ele>844.00000</ele>
        <time>2018-10-12T20:15:12Z</time>
      </trkpt>
      <trkpt lat="38.22809396" lon="-2.43806068">
        <ele>843.00000</ele>
        <time>2018-10-12T20:15:13Z</time>
      </trkpt>
      <trkpt lat="38.22804568" lon="-2.43813788">
        <ele>842.00000</ele>
        <time>2018-10-12T20:15:14Z</time>
      </trkpt>
      <trkpt lat="38.22793596" lon="-2.43827031">
        <ele>841.00000</ele>
        <time>2018-10-12T20:15:16Z</time>
      </trkpt>
      <trkpt lat="38.22782515" lon="-2.43840174">
        <ele>840.00000</ele>
        <time>2018-10-12T20:15:18Z</time>
      </trkpt>
      <trkpt lat="38.22773706" lon="-2.43855890">
        <ele>839.00000</ele>
        <time>2018-10-12T20:15:20Z</time>
      </trkpt>
      <trkpt lat="38.22770630" lon="-2.43864390">
        <ele>839.00000</ele>
        <time>2018-10-12T20:15:21Z</time>
      </trkpt>
      <trkpt lat="38.22768802" lon="-2.43885126">
        <ele>837.00000</ele>
        <time>2018-10-12T20:15:23Z</time>
      </trkpt>
      <trkpt lat="38.22770445" lon="-2.43908185">
        <ele>836.00000</ele>
        <time>2018-10-12T20:15:25Z</time>
      </trkpt>
      <trkpt lat="38.22774217" lon="-2.43928201">
        <ele>835.00000</ele>
        <time>2018-10-12T20:15:27Z</time>
      </trkpt>
      <trkpt lat="38.22776765" lon="-2.43945074">
        <ele>833.00000</ele>
        <time>2018-10-12T20:15:29Z</time>
      </trkpt>
      <trkpt lat="38.22777260" lon="-2.43959583">
        <ele>831.00000</ele>
        <time>2018-10-12T20:15:31Z</time>
      </trkpt>
      <trkpt lat="38.22776421" lon="-2.43966473">
        <ele>830.00000</ele>
        <time>2018-10-12T20:15:32Z</time>
      </trkpt>
      <trkpt lat="38.22774745" lon="-2.43973178">
        <ele>830.00000</ele>
        <time>2018-10-12T20:15:33Z</time>
      </trkpt>
      <trkpt lat="38.22764343" lon="-2.44005306">
        <ele>829.00000</ele>
        <time>2018-10-12T20:15:37Z</time>
      </trkpt>
      <trkpt lat="38.22766724" lon="-2.44035079">
        <ele>829.00000</ele>
        <time>2018-10-12T20:15:40Z</time>
      </trkpt>
      <trkpt lat="38.22771040" lon="-2.44054935">
        <ele>827.00000</ele>
        <time>2018-10-12T20:15:42Z</time>
      </trkpt>
      <trkpt lat="38.22772951" lon="-2.44065153">
        <ele>826.00000</ele>
        <time>2018-10-12T20:15:43Z</time>
      </trkpt>
      <trkpt lat="38.22776824" lon="-2.44083845">
        <ele>825.00000</ele>
        <time>2018-10-12T20:15:45Z</time>
      </trkpt>
      <trkpt lat="38.22777997" lon="-2.44103316">
        <ele>824.00000</ele>
        <time>2018-10-12T20:15:47Z</time>
      </trkpt>
      <trkpt lat="38.22776639" lon="-2.44125553">
        <ele>822.00000</ele>
        <time>2018-10-12T20:15:49Z</time>
      </trkpt>
      <trkpt lat="38.22773966" lon="-2.44148670">
        <ele>821.00000</ele>
        <time>2018-10-12T20:15:51Z</time>
      </trkpt>
      <trkpt lat="38.22768157" lon="-2.44184344">
        <ele>820.00000</ele>
        <time>2018-10-12T20:15:54Z</time>
      </trkpt>
      <trkpt lat="38.22764419" lon="-2.44206463">
        <ele>818.00000</ele>
        <time>2018-10-12T20:15:56Z</time>
      </trkpt>
      <trkpt lat="38.22763036" lon="-2.44217578">
        <ele>817.00000</ele>
        <time>2018-10-12T20:15:57Z</time>
      </trkpt>
      <trkpt lat="38.22759046" lon="-2.44238315">
        <ele>816.00000</ele>
        <time>2018-10-12T20:15:59Z</time>
      </trkpt>
      <trkpt lat="38.22754469" lon="-2.44256537">
        <ele>814.00000</ele>
        <time>2018-10-12T20:16:01Z</time>
      </trkpt>
      <trkpt lat="38.22751183" lon="-2.44265623">
        <ele>814.00000</ele>
        <time>2018-10-12T20:16:02Z</time>
      </trkpt>
      <trkpt lat="38.22747328" lon="-2.44273938">
        <ele>813.00000</ele>
        <time>2018-10-12T20:16:03Z</time>
      </trkpt>
      <trkpt lat="38.22737898" lon="-2.44288397">
        <ele>812.00000</ele>
        <time>2018-10-12T20:16:05Z</time>
      </trkpt>
      <trkpt lat="38.22726306" lon="-2.44300098">
        <ele>811.00000</ele>
        <time>2018-10-12T20:16:07Z</time>
      </trkpt>
      <trkpt lat="38.22713205" lon="-2.44311732">
        <ele>811.00000</ele>
        <time>2018-10-12T20:16:09Z</time>
      </trkpt>
      <trkpt lat="38.22687431" lon="-2.44339233">
        <ele>810.00000</ele>
        <time>2018-10-12T20:16:13Z</time>
      </trkpt>
      <trkpt lat="38.22674280" lon="-2.44354639">
        <ele>808.00000</ele>
        <time>2018-10-12T20:16:15Z</time>
      </trkpt>
      <trkpt lat="38.22659863" lon="-2.44368092">
        <ele>807.00000</ele>
        <time>2018-10-12T20:16:17Z</time>
      </trkpt>
      <trkpt lat="38.22644909" lon="-2.44380204">
        <ele>806.00000</ele>
        <time>2018-10-12T20:16:19Z</time>
      </trkpt>
      <trkpt lat="38.22631725" lon="-2.44392567">
        <ele>805.00000</ele>
        <time>2018-10-12T20:16:21Z</time>
      </trkpt>
      <trkpt lat="38.22618909" lon="-2.44405282">
        <ele>803.00000</ele>
        <time>2018-10-12T20:16:23Z</time>
      </trkpt>
      <trkpt lat="38.22608289" lon="-2.44419062">
        <ele>802.00000</ele>
        <time>2018-10-12T20:16:25Z</time>
      </trkpt>
      <trkpt lat="38.22598189" lon="-2.44431903">
        <ele>800.00000</ele>
        <time>2018-10-12T20:16:27Z</time>
      </trkpt>
      <trkpt lat="38.22587074" lon="-2.44442489">
        <ele>799.00000</ele>
        <time>2018-10-12T20:16:29Z</time>
      </trkpt>
      <trkpt lat="38.22574359" lon="-2.44447728">
        <ele>798.00000</ele>
        <time>2018-10-12T20:16:31Z</time>
      </trkpt>
      <trkpt lat="38.22548601" lon="-2.44437343">
        <ele>797.00000</ele>
        <time>2018-10-12T20:16:35Z</time>
      </trkpt>
      <trkpt lat="38.22542139" lon="-2.44432188">
        <ele>797.00000</ele>
        <time>2018-10-12T20:16:36Z</time>
      </trkpt>
      <trkpt lat="38.22534084" lon="-2.44420554">
        <ele>796.00000</ele>
        <time>2018-10-12T20:16:38Z</time>
      </trkpt>
      <trkpt lat="38.22520866" lon="-2.44414921">
        <ele>795.00000</ele>
        <time>2018-10-12T20:16:40Z</time>
      </trkpt>
      <trkpt lat="38.22514370" lon="-2.44413605">
        <ele>795.00000</ele>
        <time>2018-10-12T20:16:41Z</time>
      </trkpt>
      <trkpt lat="38.22502090" lon="-2.44414905">
        <ele>793.00000</ele>
        <time>2018-10-12T20:16:43Z</time>
      </trkpt>
      <trkpt lat="38.22494253" lon="-2.44421157">
        <ele>792.00000</ele>
        <time>2018-10-12T20:16:45Z</time>
      </trkpt>
      <trkpt lat="38.22488604" lon="-2.44450888">
        <ele>791.00000</ele>
        <time>2018-10-12T20:16:49Z</time>
      </trkpt>
      <trkpt lat="38.22487187" lon="-2.44459832">
        <ele>791.00000</ele>
        <time>2018-10-12T20:16:50Z</time>
      </trkpt>
      <trkpt lat="38.22484899" lon="-2.44468959">
        <ele>791.00000</ele>
        <time>2018-10-12T20:16:51Z</time>
      </trkpt>
      <trkpt lat="38.22479241" lon="-2.44487760">
        <ele>790.00000</ele>
        <time>2018-10-12T20:16:53Z</time>
      </trkpt>
      <trkpt lat="38.22467096" lon="-2.44514456">
        <ele>789.00000</ele>
        <time>2018-10-12T20:16:56Z</time>
      </trkpt>
      <trkpt lat="38.22458932" lon="-2.44531908">
        <ele>788.00000</ele>
        <time>2018-10-12T20:16:58Z</time>
      </trkpt>
      <trkpt lat="38.22451807" lon="-2.44551127">
        <ele>787.00000</ele>
        <time>2018-10-12T20:17:00Z</time>
      </trkpt>
      <trkpt lat="38.22446946" lon="-2.44571571">
        <ele>785.00000</ele>
        <time>2018-10-12T20:17:02Z</time>
      </trkpt>
      <trkpt lat="38.22443584" lon="-2.44581931">
        <ele>783.00000</ele>
        <time>2018-10-12T20:17:03Z</time>
      </trkpt>
      <trkpt lat="38.22436728" lon="-2.44600262">
        <ele>782.00000</ele>
        <time>2018-10-12T20:17:05Z</time>
      </trkpt>
      <trkpt lat="38.22433032" lon="-2.44608141">
        <ele>781.00000</ele>
        <time>2018-10-12T20:17:06Z</time>
      </trkpt>
      <trkpt lat="38.22428354" lon="-2.44615173">
        <ele>781.00000</ele>
        <time>2018-10-12T20:17:07Z</time>
      </trkpt>
      <trkpt lat="38.22411616" lon="-2.44633278">
        <ele>780.00000</ele>
        <time>2018-10-12T20:17:10Z</time>
      </trkpt>
      <trkpt lat="38.22405321" lon="-2.44638701">
        <ele>779.00000</ele>
        <time>2018-10-12T20:17:11Z</time>
      </trkpt>
      <trkpt lat="38.22398850" lon="-2.44643982">
        <ele>779.00000</ele>
        <time>2018-10-12T20:17:12Z</time>
      </trkpt>
      <trkpt lat="38.22377887" lon="-2.44657041">
        <ele>778.00000</ele>
        <time>2018-10-12T20:17:15Z</time>
      </trkpt>
      <trkpt lat="38.22364518" lon="-2.44663998">
        <ele>777.00000</ele>
        <time>2018-10-12T20:17:17Z</time>
      </trkpt>
      <trkpt lat="38.22349565" lon="-2.44670595">
        <ele>775.00000</ele>
        <time>2018-10-12T20:17:19Z</time>
      </trkpt>
      <trkpt lat="38.22332683" lon="-2.44675096">
        <ele>774.00000</ele>
        <time>2018-10-12T20:17:21Z</time>
      </trkpt>
      <trkpt lat="38.22306993" lon="-2.44679697">
        <ele>773.00000</ele>
        <time>2018-10-12T20:17:24Z</time>
      </trkpt>
      <trkpt lat="38.22291822" lon="-2.44678172">
        <ele>772.00000</ele>
        <time>2018-10-12T20:17:26Z</time>
      </trkpt>
      <trkpt lat="38.22277522" lon="-2.44671718">
        <ele>772.00000</ele>
        <time>2018-10-12T20:17:28Z</time>
      </trkpt>
      <trkpt lat="38.22265452" lon="-2.44661089">
        <ele>771.00000</ele>
        <time>2018-10-12T20:17:30Z</time>
      </trkpt>
      <trkpt lat="38.22259769" lon="-2.44656278">
        <ele>771.00000</ele>
        <time>2018-10-12T20:17:31Z</time>
      </trkpt>
      <trkpt lat="38.22249862" lon="-2.44649112">
        <ele>770.00000</ele>
        <time>2018-10-12T20:17:33Z</time>
      </trkpt>
      <trkpt lat="38.22241421" lon="-2.44648014">
        <ele>769.00000</ele>
        <time>2018-10-12T20:17:35Z</time>
      </trkpt>
      <trkpt lat="38.22236560" lon="-2.44649715">
        <ele>768.00000</ele>
        <time>2018-10-12T20:17:36Z</time>
      </trkpt>
      <trkpt lat="38.22225546" lon="-2.44675355">
        <ele>768.00000</ele>
        <time>2018-10-12T20:17:40Z</time>
      </trkpt>
      <trkpt lat="38.22214507" lon="-2.44711901">
        <ele>767.00000</ele>
        <time>2018-10-12T20:17:44Z</time>
      </trkpt>
      <trkpt lat="38.22201792" lon="-2.44738572">
        <ele>766.00000</ele>
        <time>2018-10-12T20:17:47Z</time>
      </trkpt>
      <trkpt lat="38.22190158" lon="-2.44755545">
        <ele>764.00000</ele>
        <time>2018-10-12T20:17:49Z</time>
      </trkpt>
      <trkpt lat="38.22177777" lon="-2.44773449">
        <ele>762.00000</ele>
        <time>2018-10-12T20:17:51Z</time>
      </trkpt>
      <trkpt lat="38.22167803" lon="-2.44790573">
        <ele>761.00000</ele>
        <time>2018-10-12T20:17:53Z</time>
      </trkpt>
      <trkpt lat="38.22158390" lon="-2.44805937">
        <ele>760.00000</ele>
        <time>2018-10-12T20:17:55Z</time>
      </trkpt>
      <trkpt lat="38.22147997" lon="-2.44818066">
        <ele>758.00000</ele>
        <time>2018-10-12T20:17:57Z</time>
      </trkpt>
      <trkpt lat="38.22135692" lon="-2.44827889">
        <ele>757.00000</ele>
        <time>2018-10-12T20:17:59Z</time>
      </trkpt>
      <trkpt lat="38.22114930" lon="-2.44843706">
        <ele>756.00000</ele>
        <time>2018-10-12T20:18:02Z</time>
      </trkpt>
      <trkpt lat="38.22101972" lon="-2.44854032">
        <ele>755.00000</ele>
        <time>2018-10-12T20:18:04Z</time>
      </trkpt>
      <trkpt lat="38.22088787" lon="-2.44866731">
        <ele>755.00000</ele>
        <time>2018-10-12T20:18:06Z</time>
      </trkpt>
      <trkpt lat="38.22075678" lon="-2.44880184">
        <ele>754.00000</ele>
        <time>2018-10-12T20:18:08Z</time>
      </trkpt>
      <trkpt lat="38.22069240" lon="-2.44886714">
        <ele>753.00000</ele>
        <time>2018-10-12T20:18:09Z</time>
      </trkpt>
      <trkpt lat="38.22050306" lon="-2.44906327">
        <ele>751.00000</ele>
        <time>2018-10-12T20:18:12Z</time>
      </trkpt>
      <trkpt lat="38.22033466" lon="-2.44931330">
        <ele>750.00000</ele>
        <time>2018-10-12T20:18:15Z</time>
      </trkpt>
      <trkpt lat="38.22022000" lon="-2.44949083">
        <ele>749.00000</ele>
        <time>2018-10-12T20:18:17Z</time>
      </trkpt>
      <trkpt lat="38.22010726" lon="-2.44964724">
        <ele>748.00000</ele>
        <time>2018-10-12T20:18:19Z</time>
      </trkpt>
      <trkpt lat="38.21998975" lon="-2.44978378">
        <ele>747.00000</ele>
        <time>2018-10-12T20:18:21Z</time>
      </trkpt>
      <trkpt lat="38.21986913" lon="-2.44990205">
        <ele>745.00000</ele>
        <time>2018-10-12T20:18:23Z</time>
      </trkpt>
      <trkpt lat="38.21975824" lon="-2.45000448">
        <ele>744.00000</ele>
        <time>2018-10-12T20:18:25Z</time>
      </trkpt>
      <trkpt lat="38.21967526" lon="-2.45027052">
        <ele>743.00000</ele>
        <time>2018-10-12T20:18:28Z</time>
      </trkpt>
      <trkpt lat="38.21966193" lon="-2.45038300">
        <ele>742.00000</ele>
        <time>2018-10-12T20:18:29Z</time>
      </trkpt>
      <trkpt lat="38.21963000" lon="-2.45058165">
        <ele>742.00000</ele>
        <time>2018-10-12T20:18:31Z</time>
      </trkpt>
      <trkpt lat="38.21958214" lon="-2.45097259">
        <ele>741.00000</ele>
        <time>2018-10-12T20:18:35Z</time>
      </trkpt>
      <trkpt lat="38.21957962" lon="-2.45117174">
        <ele>739.00000</ele>
        <time>2018-10-12T20:18:37Z</time>
      </trkpt>
      <trkpt lat="38.21956261" lon="-2.45136545">
        <ele>738.00000</ele>
        <time>2018-10-12T20:18:39Z</time>
      </trkpt>
      <trkpt lat="38.21951433" lon="-2.45155932">
        <ele>736.00000</ele>
        <time>2018-10-12T20:18:41Z</time>
      </trkpt>
      <trkpt lat="38.21948407" lon="-2.45166401">
        <ele>735.00000</ele>
        <time>2018-10-12T20:18:42Z</time>
      </trkpt>
      <trkpt lat="38.21938315" lon="-2.45195662">
        <ele>734.00000</ele>
        <time>2018-10-12T20:18:45Z</time>
      </trkpt>
      <trkpt lat="38.21934384" lon="-2.45204589">
        <ele>734.00000</ele>
        <time>2018-10-12T20:18:46Z</time>
      </trkpt>
      <trkpt lat="38.21930478" lon="-2.45213398">
        <ele>733.00000</ele>
        <time>2018-10-12T20:18:47Z</time>
      </trkpt>
      <trkpt lat="38.21921442" lon="-2.45230497">
        <ele>731.00000</ele>
        <time>2018-10-12T20:18:49Z</time>
      </trkpt>
      <trkpt lat="38.21909716" lon="-2.45244713">
        <ele>730.00000</ele>
        <time>2018-10-12T20:18:51Z</time>
      </trkpt>
      <trkpt lat="38.21896498" lon="-2.45259038">
        <ele>729.00000</ele>
        <time>2018-10-12T20:18:53Z</time>
      </trkpt>
      <trkpt lat="38.21884595" lon="-2.45275550">
        <ele>728.00000</ele>
        <time>2018-10-12T20:18:55Z</time>
      </trkpt>
      <trkpt lat="38.21874042" lon="-2.45290570">
        <ele>727.00000</ele>
        <time>2018-10-12T20:18:57Z</time>
      </trkpt>
      <trkpt lat="38.21863180" lon="-2.45303294">
        <ele>725.00000</ele>
        <time>2018-10-12T20:18:59Z</time>
      </trkpt>
      <trkpt lat="38.21857279" lon="-2.45308348">
        <ele>724.00000</ele>
        <time>2018-10-12T20:19:00Z</time>
      </trkpt>
      <trkpt lat="38.21849777" lon="-2.45313637">
        <ele>724.00000</ele>
        <time>2018-10-12T20:19:01Z</time>
      </trkpt>
      <trkpt lat="38.21834153" lon="-2.45321198">
        <ele>723.00000</ele>
        <time>2018-10-12T20:19:03Z</time>
      </trkpt>
      <trkpt lat="38.21807515" lon="-2.45325531">
        <ele>722.00000</ele>
        <time>2018-10-12T20:19:06Z</time>
      </trkpt>
      <trkpt lat="38.21799100" lon="-2.45325707">
        <ele>722.00000</ele>
        <time>2018-10-12T20:19:07Z</time>
      </trkpt>
      <trkpt lat="38.21774667" lon="-2.45329965">
        <ele>720.00000</ele>
        <time>2018-10-12T20:19:10Z</time>
      </trkpt>
      <trkpt lat="38.21760325" lon="-2.45335129">
        <ele>719.00000</ele>
        <time>2018-10-12T20:19:12Z</time>
      </trkpt>
      <trkpt lat="38.21747166" lon="-2.45341340">
        <ele>718.00000</ele>
        <time>2018-10-12T20:19:14Z</time>
      </trkpt>
      <trkpt lat="38.21741340" lon="-2.45346101">
        <ele>717.00000</ele>
        <time>2018-10-12T20:19:15Z</time>
      </trkpt>
      <trkpt lat="38.21735959" lon="-2.45351859">
        <ele>716.00000</ele>
        <time>2018-10-12T20:19:16Z</time>
      </trkpt>
      <trkpt lat="38.21719807" lon="-2.45370718">
        <ele>715.00000</ele>
        <time>2018-10-12T20:19:19Z</time>
      </trkpt>
      <trkpt lat="38.21709011" lon="-2.45380894">
        <ele>714.00000</ele>
        <time>2018-10-12T20:19:21Z</time>
      </trkpt>
      <trkpt lat="38.21697243" lon="-2.45388957">
        <ele>713.00000</ele>
        <time>2018-10-12T20:19:23Z</time>
      </trkpt>
      <trkpt lat="38.21691518" lon="-2.45391849">
        <ele>713.00000</ele>
        <time>2018-10-12T20:19:24Z</time>
      </trkpt>
      <trkpt lat="38.21673614" lon="-2.45395487">
        <ele>712.00000</ele>
        <time>2018-10-12T20:19:27Z</time>
      </trkpt>
      <trkpt lat="38.21668728" lon="-2.45398932">
        <ele>711.00000</ele>
        <time>2018-10-12T20:19:28Z</time>
      </trkpt>
      <trkpt lat="38.21656214" lon="-2.45419166">
        <ele>710.00000</ele>
        <time>2018-10-12T20:19:31Z</time>
      </trkpt>
      <trkpt lat="38.21651696" lon="-2.45426391">
        <ele>710.00000</ele>
        <time>2018-10-12T20:19:32Z</time>
      </trkpt>
      <trkpt lat="38.21647002" lon="-2.45432971">
        <ele>709.00000</ele>
        <time>2018-10-12T20:19:33Z</time>
      </trkpt>
      <trkpt lat="38.21639508" lon="-2.45442719">
        <ele>708.00000</ele>
        <time>2018-10-12T20:19:35Z</time>
      </trkpt>
      <trkpt lat="38.21633624" lon="-2.45447798">
        <ele>707.00000</ele>
        <time>2018-10-12T20:19:37Z</time>
      </trkpt>
      <trkpt lat="38.21631303" lon="-2.45450019">
        <ele>705.00000</ele>
        <time>2018-10-12T20:19:38Z</time>
      </trkpt>
      <trkpt lat="38.21629618" lon="-2.45454294">
        <ele>704.00000</ele>
        <time>2018-10-12T20:19:39Z</time>
      </trkpt>
      <trkpt lat="38.21629827" lon="-2.45464671">
        <ele>703.00000</ele>
        <time>2018-10-12T20:19:41Z</time>
      </trkpt>
      <trkpt lat="38.21629500" lon="-2.45473028">
        <ele>702.00000</ele>
        <time>2018-10-12T20:19:43Z</time>
      </trkpt>
      <trkpt lat="38.21630196" lon="-2.45474067">
        <ele>702.00000</ele>
        <time>2018-10-12T20:19:44Z</time>
      </trkpt>
      <trkpt lat="38.21631546" lon="-2.45474050">
        <ele>702.00000</ele>
        <time>2018-10-12T20:19:45Z</time>
      </trkpt>
      <trkpt lat="38.21636835" lon="-2.45467320">
        <ele>702.00000</ele>
        <time>2018-10-12T20:19:49Z</time>
      </trkpt>
      <trkpt lat="38.21640967" lon="-2.45462047">
        <ele>701.00000</ele>
        <time>2018-10-12T20:19:52Z</time>
      </trkpt>
      <trkpt lat="38.21644730" lon="-2.45459214">
        <ele>701.00000</ele>
        <time>2018-10-12T20:19:54Z</time>
      </trkpt>
      <trkpt lat="38.21663229" lon="-2.45447647">
        <ele>703.00000</ele>
        <time>2018-10-12T20:20:01Z</time>
      </trkpt>
      <trkpt lat="38.21674696" lon="-2.45438293">
        <ele>703.00000</ele>
        <time>2018-10-12T20:20:05Z</time>
      </trkpt>
      <trkpt lat="38.21729455" lon="-2.45421554">
        <ele>703.00000</ele>
        <time>2018-10-12T20:20:16Z</time>
      </trkpt>
      <trkpt lat="38.21747266" lon="-2.45417682">
        <ele>704.00000</ele>
        <time>2018-10-12T20:20:22Z</time>
      </trkpt>
      <trkpt lat="38.21760409" lon="-2.45414530">
        <ele>705.00000</ele>
        <time>2018-10-12T20:20:27Z</time>
      </trkpt>
      <trkpt lat="38.21774197" lon="-2.45416358">
        <ele>706.00000</ele>
        <time>2018-10-12T20:20:31Z</time>
      </trkpt>
      <trkpt lat="38.21786720" lon="-2.45429257">
        <ele>707.00000</ele>
        <time>2018-10-12T20:20:35Z</time>
      </trkpt>
      <trkpt lat="38.21796535" lon="-2.45439995">
        <ele>708.00000</ele>
        <time>2018-10-12T20:20:40Z</time>
      </trkpt>
      <trkpt lat="38.21803978" lon="-2.45450824">
        <ele>708.00000</ele>
        <time>2018-10-12T20:20:44Z</time>
      </trkpt>
      <trkpt lat="38.21845175" lon="-2.45457588">
        <ele>708.00000</ele>
        <time>2018-10-12T20:20:52Z</time>
      </trkpt>
      <trkpt lat="38.21850649" lon="-2.45458879">
        <ele>708.00000</ele>
        <time>2018-10-12T20:20:54Z</time>
      </trkpt>
      <trkpt lat="38.21860631" lon="-2.45465300">
        <ele>708.00000</ele>
        <time>2018-10-12T20:20:57Z</time>
      </trkpt>
      <trkpt lat="38.21862325" lon="-2.45474494">
        <ele>708.00000</ele>
        <time>2018-10-12T20:21:00Z</time>
      </trkpt>
      <trkpt lat="38.21863037" lon="-2.45478300">
        <ele>708.00000</ele>
        <time>2018-10-12T20:21:01Z</time>
      </trkpt>
      <trkpt lat="38.21861721" lon="-2.45493136">
        <ele>708.00000</ele>
        <time>2018-10-12T20:21:07Z</time>
      </trkpt>
      <trkpt lat="38.21862333" lon="-2.45496162">
        <ele>708.00000</ele>
        <time>2018-10-12T20:21:08Z</time>
      </trkpt>
      <trkpt lat="38.21863624" lon="-2.45506463">
        <ele>709.00000</ele>
        <time>2018-10-12T20:21:11Z</time>
      </trkpt>
      <trkpt lat="38.21866390" lon="-2.45514309">
        <ele>709.00000</ele>
        <time>2018-10-12T20:21:14Z</time>
      </trkpt>
      <trkpt lat="38.21868519" lon="-2.45524493">
        <ele>710.00000</ele>
        <time>2018-10-12T20:21:17Z</time>
      </trkpt>
      <trkpt lat="38.21872483" lon="-2.45546227">
        <ele>711.00000</ele>
        <time>2018-10-12T20:21:23Z</time>
      </trkpt>
      <trkpt lat="38.21872324" lon="-2.45556595">
        <ele>712.00000</ele>
        <time>2018-10-12T20:21:26Z</time>
      </trkpt>
      <trkpt lat="38.21873095" lon="-2.45563787">
        <ele>712.00000</ele>
        <time>2018-10-12T20:21:29Z</time>
      </trkpt>
      <trkpt lat="38.21869784" lon="-2.45572680">
        <ele>713.00000</ele>
        <time>2018-10-12T20:21:34Z</time>
      </trkpt>
      <trkpt lat="38.21869290" lon="-2.45574281">
        <ele>713.00000</ele>
        <time>2018-10-12T20:21:35Z</time>
      </trkpt>
      <trkpt lat="38.21869332" lon="-2.45575161">
        <ele>714.00000</ele>
        <time>2018-10-12T20:21:37Z</time>
      </trkpt>
      <trkpt lat="38.21875291" lon="-2.45594523">
        <ele>719.00000</ele>
        <time>2018-10-12T20:22:00Z</time>
      </trkpt>
      <trkpt lat="38.21877898" lon="-2.45597440">
        <ele>719.00000</ele>
        <time>2018-10-12T20:22:01Z</time>
      </trkpt>
      <trkpt lat="38.21898048" lon="-2.45607155">
        <ele>720.00000</ele>
        <time>2018-10-12T20:22:05Z</time>
      </trkpt>
      <trkpt lat="38.21943302" lon="-2.45641898">
        <ele>722.00000</ele>
        <time>2018-10-12T20:22:12Z</time>
      </trkpt>
      <trkpt lat="38.21954827" lon="-2.45673020">
        <ele>723.00000</ele>
        <time>2018-10-12T20:22:20Z</time>
      </trkpt>
      <trkpt lat="38.21966973" lon="-2.45698710">
        <ele>724.00000</ele>
        <time>2018-10-12T20:22:27Z</time>
      </trkpt>
      <trkpt lat="38.21976905" lon="-2.45712214">
        <ele>725.00000</ele>
        <time>2018-10-12T20:22:34Z</time>
      </trkpt>
      <trkpt lat="38.21990174" lon="-2.45715315">
        <ele>726.00000</ele>
        <time>2018-10-12T20:22:39Z</time>
      </trkpt>
      <trkpt lat="38.22004398" lon="-2.45721451">
        <ele>727.00000</ele>
        <time>2018-10-12T20:22:44Z</time>
      </trkpt>
      <trkpt lat="38.22025319" lon="-2.45736588">
        <ele>729.00000</ele>
        <time>2018-10-12T20:22:52Z</time>
      </trkpt>
      <trkpt lat="38.22031698" lon="-2.45764793">
        <ele>730.00000</ele>
        <time>2018-10-12T20:23:01Z</time>
      </trkpt>
      <trkpt lat="38.22038026" lon="-2.45797080">
        <ele>731.00000</ele>
        <time>2018-10-12T20:23:09Z</time>
      </trkpt>
      <trkpt lat="38.22045151" lon="-2.45832787">
        <ele>732.00000</ele>
        <time>2018-10-12T20:23:18Z</time>
      </trkpt>
      <trkpt lat="38.22052108" lon="-2.45858788">
        <ele>733.00000</ele>
        <time>2018-10-12T20:23:26Z</time>
      </trkpt>
      <trkpt lat="38.22054815" lon="-2.45864890">
        <ele>734.00000</ele>
        <time>2018-10-12T20:23:28Z</time>
      </trkpt>
      <trkpt lat="38.22068838" lon="-2.45916632">
        <ele>735.00000</ele>
        <time>2018-10-12T20:23:41Z</time>
      </trkpt>
      <trkpt lat="38.22074722" lon="-2.45952380">
        <ele>736.00000</ele>
        <time>2018-10-12T20:23:51Z</time>
      </trkpt>
      <trkpt lat="38.22084043" lon="-2.45968591">
        <ele>736.00000</ele>
        <time>2018-10-12T20:23:56Z</time>
      </trkpt>
      <trkpt lat="38.22125575" lon="-2.46015421">
        <ele>737.00000</ele>
        <time>2018-10-12T20:24:12Z</time>
      </trkpt>
      <trkpt lat="38.22154551" lon="-2.46028915">
        <ele>737.00000</ele>
        <time>2018-10-12T20:24:20Z</time>
      </trkpt>
      <trkpt lat="38.22199562" lon="-2.46072376">
        <ele>738.00000</ele>
        <time>2018-10-12T20:24:35Z</time>
      </trkpt>
      <trkpt lat="38.22204080" lon="-2.46079090">
        <ele>738.00000</ele>
        <time>2018-10-12T20:24:37Z</time>
      </trkpt>
      <trkpt lat="38.22224976" lon="-2.46117487">
        <ele>738.00000</ele>
        <time>2018-10-12T20:24:47Z</time>
      </trkpt>
      <trkpt lat="38.22232235" lon="-2.46153990">
        <ele>738.00000</ele>
        <time>2018-10-12T20:24:54Z</time>
      </trkpt>
      <trkpt lat="38.22238597" lon="-2.46170737">
        <ele>738.00000</ele>
        <time>2018-10-12T20:24:57Z</time>
      </trkpt>
      <trkpt lat="38.22231547" lon="-2.46210518">
        <ele>738.00000</ele>
        <time>2018-10-12T20:25:04Z</time>
      </trkpt>
      <trkpt lat="38.22227239" lon="-2.46220199">
        <ele>738.00000</ele>
        <time>2018-10-12T20:25:06Z</time>
      </trkpt>
      <trkpt lat="38.22223484" lon="-2.46229955">
        <ele>738.00000</ele>
        <time>2018-10-12T20:25:08Z</time>
      </trkpt>
      <trkpt lat="38.22225219" lon="-2.46245881">
        <ele>738.00000</ele>
        <time>2018-10-12T20:25:11Z</time>
      </trkpt>
      <trkpt lat="38.22244950" lon="-2.46263726">
        <ele>738.00000</ele>
        <time>2018-10-12T20:25:18Z</time>
      </trkpt>
      <trkpt lat="38.22265947" lon="-2.46272955">
        <ele>738.00000</ele>
        <time>2018-10-12T20:25:24Z</time>
      </trkpt>
      <trkpt lat="38.22286181" lon="-2.46282116">
        <ele>739.00000</ele>
        <time>2018-10-12T20:25:29Z</time>
      </trkpt>
      <trkpt lat="38.22298913" lon="-2.46289618">
        <ele>739.00000</ele>
        <time>2018-10-12T20:25:32Z</time>
      </trkpt>
      <trkpt lat="38.22338978" lon="-2.46308385">
        <ele>740.00000</ele>
        <time>2018-10-12T20:25:41Z</time>
      </trkpt>
      <trkpt lat="38.22391038" lon="-2.46291713">
        <ele>740.00000</ele>
        <time>2018-10-12T20:25:53Z</time>
      </trkpt>
      <trkpt lat="38.22398515" lon="-2.46285578">
        <ele>740.00000</ele>
        <time>2018-10-12T20:25:55Z</time>
      </trkpt>
      <trkpt lat="38.22418338" lon="-2.46272938">
        <ele>741.00000</ele>
        <time>2018-10-12T20:26:00Z</time>
      </trkpt>
      <trkpt lat="38.22426402" lon="-2.46274866">
        <ele>741.00000</ele>
        <time>2018-10-12T20:26:02Z</time>
      </trkpt>
      <trkpt lat="38.22434482" lon="-2.46298477">
        <ele>741.00000</ele>
        <time>2018-10-12T20:26:08Z</time>
      </trkpt>
      <trkpt lat="38.22429947" lon="-2.46327714">
        <ele>741.00000</ele>
        <time>2018-10-12T20:26:13Z</time>
      </trkpt>
      <trkpt lat="38.22426745" lon="-2.46337596">
        <ele>741.00000</ele>
        <time>2018-10-12T20:26:15Z</time>
      </trkpt>
      <trkpt lat="38.22422940" lon="-2.46369766">
        <ele>741.00000</ele>
        <time>2018-10-12T20:26:22Z</time>
      </trkpt>
      <trkpt lat="38.22455386" lon="-2.46413812">
        <ele>741.00000</ele>
        <time>2018-10-12T20:26:35Z</time>
      </trkpt>
      <trkpt lat="38.22457171" lon="-2.46417216">
        <ele>742.00000</ele>
        <time>2018-10-12T20:26:36Z</time>
      </trkpt>
      <trkpt lat="38.22461429" lon="-2.46442504">
        <ele>743.00000</ele>
        <time>2018-10-12T20:26:41Z</time>
      </trkpt>
      <trkpt lat="38.22473558" lon="-2.46482284">
        <ele>743.00000</ele>
        <time>2018-10-12T20:26:50Z</time>
      </trkpt>
      <trkpt lat="38.22478998" lon="-2.46494321">
        <ele>744.00000</ele>
        <time>2018-10-12T20:26:53Z</time>
      </trkpt>
      <trkpt lat="38.22493222" lon="-2.46531813">
        <ele>745.00000</ele>
        <time>2018-10-12T20:27:03Z</time>
      </trkpt>
      <trkpt lat="38.22504018" lon="-2.46563103">
        <ele>746.00000</ele>
        <time>2018-10-12T20:27:11Z</time>
      </trkpt>
      <trkpt lat="38.22519089" lon="-2.46583177">
        <ele>746.00000</ele>
        <time>2018-10-12T20:27:16Z</time>
      </trkpt>
      <trkpt lat="38.22535584" lon="-2.46599195">
        <ele>746.00000</ele>
        <time>2018-10-12T20:27:20Z</time>
      </trkpt>
      <trkpt lat="38.22550973" lon="-2.46610351">
        <ele>745.00000</ele>
        <time>2018-10-12T20:27:23Z</time>
      </trkpt>
      <trkpt lat="38.22568743" lon="-2.46610720">
        <ele>745.00000</ele>
        <time>2018-10-12T20:27:26Z</time>
      </trkpt>
      <trkpt lat="38.22579849" lon="-2.46611583">
        <ele>744.00000</ele>
        <time>2018-10-12T20:27:28Z</time>
      </trkpt>
      <trkpt lat="38.22586588" lon="-2.46618038">
        <ele>743.00000</ele>
        <time>2018-10-12T20:27:30Z</time>
      </trkpt>
      <trkpt lat="38.22587368" lon="-2.46627610">
        <ele>743.00000</ele>
        <time>2018-10-12T20:27:32Z</time>
      </trkpt>
      <trkpt lat="38.22587870" lon="-2.46633787">
        <ele>743.00000</ele>
        <time>2018-10-12T20:27:33Z</time>
      </trkpt>
      <trkpt lat="38.22587460" lon="-2.46639898">
        <ele>743.00000</ele>
        <time>2018-10-12T20:27:34Z</time>
      </trkpt>
      <trkpt lat="38.22583344" lon="-2.46652194">
        <ele>742.00000</ele>
        <time>2018-10-12T20:27:36Z</time>
      </trkpt>
      <trkpt lat="38.22573940" lon="-2.46668379">
        <ele>742.00000</ele>
        <time>2018-10-12T20:27:39Z</time>
      </trkpt>
      <trkpt lat="38.22565667" lon="-2.46684012">
        <ele>742.00000</ele>
        <time>2018-10-12T20:27:42Z</time>
      </trkpt>
      <trkpt lat="38.22557813" lon="-2.46700289">
        <ele>742.00000</ele>
        <time>2018-10-12T20:27:45Z</time>
      </trkpt>
      <trkpt lat="38.22554930" lon="-2.46726072">
        <ele>742.00000</ele>
        <time>2018-10-12T20:27:49Z</time>
      </trkpt>
      <trkpt lat="38.22563622" lon="-2.46752014">
        <ele>742.00000</ele>
        <time>2018-10-12T20:27:54Z</time>
      </trkpt>
      <trkpt lat="38.22566078" lon="-2.46757043">
        <ele>742.00000</ele>
        <time>2018-10-12T20:27:55Z</time>
      </trkpt>
      <trkpt lat="38.22571626" lon="-2.46765257">
        <ele>743.00000</ele>
        <time>2018-10-12T20:27:57Z</time>
      </trkpt>
      <trkpt lat="38.22588516" lon="-2.46788953">
        <ele>743.00000</ele>
        <time>2018-10-12T20:28:03Z</time>
      </trkpt>
      <trkpt lat="38.22594618" lon="-2.46805692">
        <ele>744.00000</ele>
        <time>2018-10-12T20:28:07Z</time>
      </trkpt>
      <trkpt lat="38.22594936" lon="-2.46815289">
        <ele>744.00000</ele>
        <time>2018-10-12T20:28:09Z</time>
      </trkpt>
      <trkpt lat="38.22594576" lon="-2.46842262">
        <ele>746.00000</ele>
        <time>2018-10-12T20:28:14Z</time>
      </trkpt>
      <trkpt lat="38.22595096" lon="-2.46871230">
        <ele>747.00000</ele>
        <time>2018-10-12T20:28:20Z</time>
      </trkpt>
      <trkpt lat="38.22604265" lon="-2.46899116">
        <ele>748.00000</ele>
        <time>2018-10-12T20:28:27Z</time>
      </trkpt>
      <trkpt lat="38.22618255" lon="-2.46909032">
        <ele>748.00000</ele>
        <time>2018-10-12T20:28:32Z</time>
      </trkpt>
      <trkpt lat="38.22630476" lon="-2.46915578">
        <ele>749.00000</ele>
        <time>2018-10-12T20:28:36Z</time>
      </trkpt>
      <trkpt lat="38.22645915" lon="-2.46923893">
        <ele>750.00000</ele>
        <time>2018-10-12T20:28:41Z</time>
      </trkpt>
      <trkpt lat="38.22663182" lon="-2.46937581">
        <ele>751.00000</ele>
        <time>2018-10-12T20:28:47Z</time>
      </trkpt>
      <trkpt lat="38.22682167" lon="-2.46956348">
        <ele>752.00000</ele>
        <time>2018-10-12T20:28:54Z</time>
      </trkpt>
      <trkpt lat="38.22699308" lon="-2.46981334">
        <ele>754.00000</ele>
        <time>2018-10-12T20:29:01Z</time>
      </trkpt>
      <trkpt lat="38.22730262" lon="-2.47006648">
        <ele>755.00000</ele>
        <time>2018-10-12T20:29:13Z</time>
      </trkpt>
      <trkpt lat="38.22746632" lon="-2.47019313">
        <ele>756.00000</ele>
        <time>2018-10-12T20:29:19Z</time>
      </trkpt>
      <trkpt lat="38.22763413" lon="-2.47057677">
        <ele>757.00000</ele>
        <time>2018-10-12T20:29:30Z</time>
      </trkpt>
      <trkpt lat="38.22770294" lon="-2.47091992">
        <ele>759.00000</ele>
        <time>2018-10-12T20:29:39Z</time>
      </trkpt>
      <trkpt lat="38.22788936" lon="-2.47111807">
        <ele>760.00000</ele>
        <time>2018-10-12T20:29:46Z</time>
      </trkpt>
      <trkpt lat="38.22810083" lon="-2.47121077">
        <ele>761.00000</ele>
        <time>2018-10-12T20:29:53Z</time>
      </trkpt>
      <trkpt lat="38.22832362" lon="-2.47132670">
        <ele>762.00000</ele>
        <time>2018-10-12T20:30:00Z</time>
      </trkpt>
      <trkpt lat="38.22856561" lon="-2.47131647">
        <ele>763.00000</ele>
        <time>2018-10-12T20:30:08Z</time>
      </trkpt>
      <trkpt lat="38.22879401" lon="-2.47117398">
        <ele>764.00000</ele>
        <time>2018-10-12T20:30:16Z</time>
      </trkpt>
      <trkpt lat="38.22893592" lon="-2.47103492">
        <ele>765.00000</ele>
        <time>2018-10-12T20:30:22Z</time>
      </trkpt>
      <trkpt lat="38.22909534" lon="-2.47078414">
        <ele>767.00000</ele>
        <time>2018-10-12T20:30:31Z</time>
      </trkpt>
      <trkpt lat="38.22939894" lon="-2.47080459">
        <ele>768.00000</ele>
        <time>2018-10-12T20:30:38Z</time>
      </trkpt>
      <trkpt lat="38.22951218" lon="-2.47103576">
        <ele>769.00000</ele>
        <time>2018-10-12T20:30:45Z</time>
      </trkpt>
      <trkpt lat="38.22954260" lon="-2.47125453">
        <ele>770.00000</ele>
        <time>2018-10-12T20:30:51Z</time>
      </trkpt>
      <trkpt lat="38.22949700" lon="-2.47155452">
        <ele>771.00000</ele>
        <time>2018-10-12T20:30:57Z</time>
      </trkpt>
      <trkpt lat="38.22931964" lon="-2.47197018">
        <ele>772.00000</ele>
        <time>2018-10-12T20:31:08Z</time>
      </trkpt>
      <trkpt lat="38.22951653" lon="-2.47227276">
        <ele>773.00000</ele>
        <time>2018-10-12T20:31:18Z</time>
      </trkpt>
      <trkpt lat="38.22963472" lon="-2.47242196">
        <ele>774.00000</ele>
        <time>2018-10-12T20:31:23Z</time>
      </trkpt>
      <trkpt lat="38.22972265" lon="-2.47268473">
        <ele>775.00000</ele>
        <time>2018-10-12T20:31:30Z</time>
      </trkpt>
      <trkpt lat="38.22981795" lon="-2.47295924">
        <ele>776.00000</ele>
        <time>2018-10-12T20:31:37Z</time>
      </trkpt>
      <trkpt lat="38.22993203" lon="-2.47320961">
        <ele>777.00000</ele>
        <time>2018-10-12T20:31:44Z</time>
      </trkpt>
      <trkpt lat="38.22996547" lon="-2.47326887">
        <ele>777.00000</ele>
        <time>2018-10-12T20:31:46Z</time>
      </trkpt>
      <trkpt lat="38.23021064" lon="-2.47391570">
        <ele>778.00000</ele>
        <time>2018-10-12T20:32:03Z</time>
      </trkpt>
      <trkpt lat="38.23020930" lon="-2.47396993">
        <ele>778.00000</ele>
        <time>2018-10-12T20:32:04Z</time>
      </trkpt>
      <trkpt lat="38.23020410" lon="-2.47402257">
        <ele>779.00000</ele>
        <time>2018-10-12T20:32:05Z</time>
      </trkpt>
      <trkpt lat="38.23017627" lon="-2.47437871">
        <ele>779.00000</ele>
        <time>2018-10-12T20:32:12Z</time>
      </trkpt>
      <trkpt lat="38.23029228" lon="-2.47459740">
        <ele>779.00000</ele>
        <time>2018-10-12T20:32:17Z</time>
      </trkpt>
      <trkpt lat="38.23038649" lon="-2.47469044">
        <ele>779.00000</ele>
        <time>2018-10-12T20:32:20Z</time>
      </trkpt>
      <trkpt lat="38.23055229" lon="-2.47486973">
        <ele>779.00000</ele>
        <time>2018-10-12T20:32:25Z</time>
      </trkpt>
      <trkpt lat="38.23060710" lon="-2.47502194">
        <ele>779.00000</ele>
        <time>2018-10-12T20:32:28Z</time>
      </trkpt>
      <trkpt lat="38.23057785" lon="-2.47523786">
        <ele>779.00000</ele>
        <time>2018-10-12T20:32:32Z</time>
      </trkpt>
      <trkpt lat="38.23054483" lon="-2.47532813">
        <ele>779.00000</ele>
        <time>2018-10-12T20:32:34Z</time>
      </trkpt>
      <trkpt lat="38.23046822" lon="-2.47545889">
        <ele>780.00000</ele>
        <time>2018-10-12T20:32:37Z</time>
      </trkpt>
      <trkpt lat="38.23024802" lon="-2.47578302">
        <ele>780.00000</ele>
        <time>2018-10-12T20:32:44Z</time>
      </trkpt>
      <trkpt lat="38.23023822" lon="-2.47594580">
        <ele>780.00000</ele>
        <time>2018-10-12T20:32:47Z</time>
      </trkpt>
      <trkpt lat="38.23045992" lon="-2.47614126">
        <ele>780.00000</ele>
        <time>2018-10-12T20:32:54Z</time>
      </trkpt>
      <trkpt lat="38.23070341" lon="-2.47624704">
        <ele>780.00000</ele>
        <time>2018-10-12T20:33:00Z</time>
      </trkpt>
      <trkpt lat="38.23087608" lon="-2.47648886">
        <ele>780.00000</ele>
        <time>2018-10-12T20:33:06Z</time>
      </trkpt>
      <trkpt lat="38.23104405" lon="-2.47671081">
        <ele>781.00000</ele>
        <time>2018-10-12T20:33:12Z</time>
      </trkpt>
      <trkpt lat="38.23112259" lon="-2.47677896">
        <ele>781.00000</ele>
        <time>2018-10-12T20:33:14Z</time>
      </trkpt>
      <trkpt lat="38.23124145" lon="-2.47685297">
        <ele>781.00000</ele>
        <time>2018-10-12T20:33:17Z</time>
      </trkpt>
      <trkpt lat="38.23131705" lon="-2.47691567">
        <ele>781.00000</ele>
        <time>2018-10-12T20:33:19Z</time>
      </trkpt>
      <trkpt lat="38.23142266" lon="-2.47709420">
        <ele>781.00000</ele>
        <time>2018-10-12T20:33:24Z</time>
      </trkpt>
      <trkpt lat="38.23139450" lon="-2.47721482">
        <ele>781.00000</ele>
        <time>2018-10-12T20:33:26Z</time>
      </trkpt>
      <trkpt lat="38.23130029" lon="-2.47738212">
        <ele>781.00000</ele>
        <time>2018-10-12T20:33:29Z</time>
      </trkpt>
      <trkpt lat="38.23126978" lon="-2.47742705">
        <ele>781.00000</ele>
        <time>2018-10-12T20:33:30Z</time>
      </trkpt>
      <trkpt lat="38.23118244" lon="-2.47756183">
        <ele>781.00000</ele>
        <time>2018-10-12T20:33:33Z</time>
      </trkpt>
      <trkpt lat="38.23114405" lon="-2.47767322">
        <ele>781.00000</ele>
        <time>2018-10-12T20:33:35Z</time>
      </trkpt>
      <trkpt lat="38.23115168" lon="-2.47790339">
        <ele>781.00000</ele>
        <time>2018-10-12T20:33:39Z</time>
      </trkpt>
      <trkpt lat="38.23117389" lon="-2.47799475">
        <ele>781.00000</ele>
        <time>2018-10-12T20:33:41Z</time>
      </trkpt>
      <trkpt lat="38.23121253" lon="-2.47815971">
        <ele>782.00000</ele>
        <time>2018-10-12T20:33:44Z</time>
      </trkpt>
      <trkpt lat="38.23122041" lon="-2.47835626">
        <ele>782.00000</ele>
        <time>2018-10-12T20:33:47Z</time>
      </trkpt>
      <trkpt lat="38.23115654" lon="-2.47863329">
        <ele>782.00000</ele>
        <time>2018-10-12T20:33:51Z</time>
      </trkpt>
      <trkpt lat="38.23101581" lon="-2.47905992">
        <ele>782.00000</ele>
        <time>2018-10-12T20:33:58Z</time>
      </trkpt>
      <trkpt lat="38.23099728" lon="-2.47925505">
        <ele>782.00000</ele>
        <time>2018-10-12T20:34:01Z</time>
      </trkpt>
      <trkpt lat="38.23101849" lon="-2.47943728">
        <ele>781.00000</ele>
        <time>2018-10-12T20:34:04Z</time>
      </trkpt>
      <trkpt lat="38.23106367" lon="-2.47951355">
        <ele>781.00000</ele>
        <time>2018-10-12T20:34:07Z</time>
      </trkpt>
      <trkpt lat="38.23114589" lon="-2.47945379">
        <ele>781.00000</ele>
        <time>2018-10-12T20:34:11Z</time>
      </trkpt>
      <trkpt lat="38.23116995" lon="-2.47943568">
        <ele>781.00000</ele>
        <time>2018-10-12T20:34:12Z</time>
      </trkpt>
      <trkpt lat="38.23140322" lon="-2.47940710">
        <ele>781.00000</ele>
        <time>2018-10-12T20:34:16Z</time>
      </trkpt>
      <trkpt lat="38.23157882" lon="-2.47954063">
        <ele>782.00000</ele>
        <time>2018-10-12T20:34:20Z</time>
      </trkpt>
      <trkpt lat="38.23159114" lon="-2.47965613">
        <ele>782.00000</ele>
        <time>2018-10-12T20:34:22Z</time>
      </trkpt>
      <trkpt lat="38.23160095" lon="-2.47992242">
        <ele>782.00000</ele>
        <time>2018-10-12T20:34:26Z</time>
      </trkpt>
      <trkpt lat="38.23161788" lon="-2.48005712">
        <ele>782.00000</ele>
        <time>2018-10-12T20:34:28Z</time>
      </trkpt>
      <trkpt lat="38.23162877" lon="-2.48018729">
        <ele>782.00000</ele>
        <time>2018-10-12T20:34:30Z</time>
      </trkpt>
      <trkpt lat="38.23184117" lon="-2.48076765">
        <ele>782.00000</ele>
        <time>2018-10-12T20:34:42Z</time>
      </trkpt>
      <trkpt lat="38.23204183" lon="-2.48142412">
        <ele>782.00000</ele>
        <time>2018-10-12T20:34:54Z</time>
      </trkpt>
      <trkpt lat="38.23213806" lon="-2.48216450">
        <ele>782.00000</ele>
        <time>2018-10-12T20:35:04Z</time>
      </trkpt>
      <trkpt lat="38.23222506" lon="-2.48285148">
        <ele>782.00000</ele>
        <time>2018-10-12T20:35:13Z</time>
      </trkpt>
      <trkpt lat="38.23226622" lon="-2.48357098">
        <ele>783.00000</ele>
        <time>2018-10-12T20:35:23Z</time>
      </trkpt>
      <trkpt lat="38.23204569" lon="-2.48403207">
        <ele>783.00000</ele>
        <time>2018-10-12T20:35:30Z</time>
      </trkpt>
      <trkpt lat="38.23201660" lon="-2.48407876">
        <ele>783.00000</ele>
        <time>2018-10-12T20:35:31Z</time>
      </trkpt>
      <trkpt lat="38.23190890" lon="-2.48430373">
        <ele>783.00000</ele>
        <time>2018-10-12T20:35:35Z</time>
      </trkpt>
      <trkpt lat="38.23179239" lon="-2.48498878">
        <ele>783.00000</ele>
        <time>2018-10-12T20:35:45Z</time>
      </trkpt>
      <trkpt lat="38.23175107" lon="-2.48511929">
        <ele>783.00000</ele>
        <time>2018-10-12T20:35:47Z</time>
      </trkpt>
      <trkpt lat="38.23168418" lon="-2.48529447">
        <ele>783.00000</ele>
        <time>2018-10-12T20:35:50Z</time>
      </trkpt>
      <trkpt lat="38.23163523" lon="-2.48547820">
        <ele>783.00000</ele>
        <time>2018-10-12T20:35:53Z</time>
      </trkpt>
      <trkpt lat="38.23161813" lon="-2.48560468">
        <ele>783.00000</ele>
        <time>2018-10-12T20:35:55Z</time>
      </trkpt>
      <trkpt lat="38.23161268" lon="-2.48579822">
        <ele>783.00000</ele>
        <time>2018-10-12T20:35:58Z</time>
      </trkpt>
      <trkpt lat="38.23160698" lon="-2.48611656">
        <ele>783.00000</ele>
        <time>2018-10-12T20:36:03Z</time>
      </trkpt>
      <trkpt lat="38.23159332" lon="-2.48629778">
        <ele>783.00000</ele>
        <time>2018-10-12T20:36:06Z</time>
      </trkpt>
      <trkpt lat="38.23148318" lon="-2.48652921">
        <ele>783.00000</ele>
        <time>2018-10-12T20:36:10Z</time>
      </trkpt>
      <trkpt lat="38.23139215" lon="-2.48659048">
        <ele>783.00000</ele>
        <time>2018-10-12T20:36:12Z</time>
      </trkpt>
      <trkpt lat="38.23123449" lon="-2.48673565">
        <ele>783.00000</ele>
        <time>2018-10-12T20:36:16Z</time>
      </trkpt>
      <trkpt lat="38.23115008" lon="-2.48686406">
        <ele>783.00000</ele>
        <time>2018-10-12T20:36:19Z</time>
      </trkpt>
      <trkpt lat="38.23101153" lon="-2.48720102">
        <ele>784.00000</ele>
        <time>2018-10-12T20:36:26Z</time>
      </trkpt>
      <trkpt lat="38.23095646" lon="-2.48737712">
        <ele>784.00000</ele>
        <time>2018-10-12T20:36:29Z</time>
      </trkpt>
      <trkpt lat="38.23092956" lon="-2.48754962">
        <ele>784.00000</ele>
        <time>2018-10-12T20:36:32Z</time>
      </trkpt>
      <trkpt lat="38.23092738" lon="-2.48761064">
        <ele>784.00000</ele>
        <time>2018-10-12T20:36:33Z</time>
      </trkpt>
      <trkpt lat="38.23087206" lon="-2.48832494">
        <ele>784.00000</ele>
        <time>2018-10-12T20:36:45Z</time>
      </trkpt>
      <trkpt lat="38.23085496" lon="-2.48838253">
        <ele>784.00000</ele>
        <time>2018-10-12T20:36:46Z</time>
      </trkpt>
      <trkpt lat="38.23071615" lon="-2.48866760">
        <ele>784.00000</ele>
        <time>2018-10-12T20:36:51Z</time>
      </trkpt>
      <trkpt lat="38.23064398" lon="-2.48875485">
        <ele>784.00000</ele>
        <time>2018-10-12T20:36:53Z</time>
      </trkpt>
      <trkpt lat="38.23053401" lon="-2.48888863">
        <ele>784.00000</ele>
        <time>2018-10-12T20:36:56Z</time>
      </trkpt>
      <trkpt lat="38.23034567" lon="-2.48914679">
        <ele>784.00000</ele>
        <time>2018-10-12T20:37:01Z</time>
      </trkpt>
      <trkpt lat="38.23027937" lon="-2.48940110">
        <ele>784.00000</ele>
        <time>2018-10-12T20:37:05Z</time>
      </trkpt>
      <trkpt lat="38.23026596" lon="-2.48952934">
        <ele>784.00000</ele>
        <time>2018-10-12T20:37:07Z</time>
      </trkpt>
      <trkpt lat="38.23023076" lon="-2.48991457">
        <ele>784.00000</ele>
        <time>2018-10-12T20:37:13Z</time>
      </trkpt>
      <trkpt lat="38.22999036" lon="-2.49057984">
        <ele>783.00000</ele>
        <time>2018-10-12T20:37:24Z</time>
      </trkpt>
      <trkpt lat="38.22996539" lon="-2.49070918">
        <ele>783.00000</ele>
        <time>2018-10-12T20:37:26Z</time>
      </trkpt>
      <trkpt lat="38.22996052" lon="-2.49095988">
        <ele>783.00000</ele>
        <time>2018-10-12T20:37:30Z</time>
      </trkpt>
      <trkpt lat="38.22997578" lon="-2.49105719">
        <ele>783.00000</ele>
        <time>2018-10-12T20:37:32Z</time>
      </trkpt>
      <trkpt lat="38.23003781" lon="-2.49136070">
        <ele>783.00000</ele>
        <time>2018-10-12T20:37:38Z</time>
      </trkpt>
      <trkpt lat="38.23004602" lon="-2.49205523">
        <ele>785.00000</ele>
        <time>2018-10-12T20:37:48Z</time>
      </trkpt>
      <trkpt lat="38.22993563" lon="-2.49260466">
        <ele>785.00000</ele>
        <time>2018-10-12T20:37:56Z</time>
      </trkpt>
      <trkpt lat="38.22963606" lon="-2.49320556">
        <ele>785.00000</ele>
        <time>2018-10-12T20:38:06Z</time>
      </trkpt>
      <trkpt lat="38.22946188" lon="-2.49348199">
        <ele>785.00000</ele>
        <time>2018-10-12T20:38:11Z</time>
      </trkpt>
      <trkpt lat="38.22913365" lon="-2.49377536">
        <ele>785.00000</ele>
        <time>2018-10-12T20:38:18Z</time>
      </trkpt>
      <trkpt lat="38.22910557" lon="-2.49381962">
        <ele>785.00000</ele>
        <time>2018-10-12T20:38:19Z</time>
      </trkpt>
      <trkpt lat="38.22902519" lon="-2.49390662">
        <ele>785.00000</ele>
        <time>2018-10-12T20:38:21Z</time>
      </trkpt>
      <trkpt lat="38.22881514" lon="-2.49409169">
        <ele>785.00000</ele>
        <time>2018-10-12T20:38:25Z</time>
      </trkpt>
      <trkpt lat="38.22862571" lon="-2.49434106">
        <ele>784.00000</ele>
        <time>2018-10-12T20:38:31Z</time>
      </trkpt>
      <trkpt lat="38.22852378" lon="-2.49457994">
        <ele>784.00000</ele>
        <time>2018-10-12T20:38:35Z</time>
      </trkpt>
      <trkpt lat="38.22850735" lon="-2.49464691">
        <ele>783.00000</ele>
        <time>2018-10-12T20:38:36Z</time>
      </trkpt>
      <trkpt lat="38.22842370" lon="-2.49488110">
        <ele>782.00000</ele>
        <time>2018-10-12T20:38:39Z</time>
      </trkpt>
      <trkpt lat="38.22834894" lon="-2.49511420">
        <ele>781.00000</ele>
        <time>2018-10-12T20:38:42Z</time>
      </trkpt>
      <trkpt lat="38.22824701" lon="-2.49542919">
        <ele>780.00000</ele>
        <time>2018-10-12T20:38:46Z</time>
      </trkpt>
      <trkpt lat="38.22819672" lon="-2.49559314">
        <ele>779.00000</ele>
        <time>2018-10-12T20:38:48Z</time>
      </trkpt>
      <trkpt lat="38.22817593" lon="-2.49567638">
        <ele>779.00000</ele>
        <time>2018-10-12T20:38:49Z</time>
      </trkpt>
      <trkpt lat="38.22810611" lon="-2.49591811">
        <ele>778.00000</ele>
        <time>2018-10-12T20:38:52Z</time>
      </trkpt>
      <trkpt lat="38.22804342" lon="-2.49611928">
        <ele>776.00000</ele>
        <time>2018-10-12T20:38:55Z</time>
      </trkpt>
      <trkpt lat="38.22792171" lon="-2.49655061">
        <ele>776.00000</ele>
        <time>2018-10-12T20:39:02Z</time>
      </trkpt>
      <trkpt lat="38.22791509" lon="-2.49660685">
        <ele>776.00000</ele>
        <time>2018-10-12T20:39:03Z</time>
      </trkpt>
      <trkpt lat="38.22790277" lon="-2.49672227">
        <ele>776.00000</ele>
        <time>2018-10-12T20:39:05Z</time>
      </trkpt>
      <trkpt lat="38.22787729" lon="-2.49702000">
        <ele>776.00000</ele>
        <time>2018-10-12T20:39:10Z</time>
      </trkpt>
      <trkpt lat="38.22785826" lon="-2.49723952">
        <ele>776.00000</ele>
        <time>2018-10-12T20:39:15Z</time>
      </trkpt>
      <trkpt lat="38.22787209" lon="-2.49746457">
        <ele>777.00000</ele>
        <time>2018-10-12T20:39:20Z</time>
      </trkpt>
      <trkpt lat="38.22787838" lon="-2.49771209">
        <ele>778.00000</ele>
        <time>2018-10-12T20:39:24Z</time>
      </trkpt>
      <trkpt lat="38.22787712" lon="-2.49799833">
        <ele>779.00000</ele>
        <time>2018-10-12T20:39:29Z</time>
      </trkpt>
      <trkpt lat="38.22782238" lon="-2.49837543">
        <ele>780.00000</ele>
        <time>2018-10-12T20:39:36Z</time>
      </trkpt>
      <trkpt lat="38.22777142" lon="-2.49859437">
        <ele>781.00000</ele>
        <time>2018-10-12T20:39:41Z</time>
      </trkpt>
      <trkpt lat="38.22772943" lon="-2.49868104">
        <ele>781.00000</ele>
        <time>2018-10-12T20:39:43Z</time>
      </trkpt>
      <trkpt lat="38.22757042" lon="-2.49894574">
        <ele>782.00000</ele>
        <time>2018-10-12T20:39:49Z</time>
      </trkpt>
      <trkpt lat="38.22737328" lon="-2.49921555">
        <ele>784.00000</ele>
        <time>2018-10-12T20:39:56Z</time>
      </trkpt>
      <trkpt lat="38.22711361" lon="-2.49942015">
        <ele>785.00000</ele>
        <time>2018-10-12T20:40:04Z</time>
      </trkpt>
      <trkpt lat="38.22690884" lon="-2.49960212">
        <ele>786.00000</ele>
        <time>2018-10-12T20:40:11Z</time>
      </trkpt>
      <trkpt lat="38.22674514" lon="-2.49978007">
        <ele>787.00000</ele>
        <time>2018-10-12T20:40:17Z</time>
      </trkpt>
      <trkpt lat="38.22662168" lon="-2.49990756">
        <ele>788.00000</ele>
        <time>2018-10-12T20:40:22Z</time>
      </trkpt>
      <trkpt lat="38.22650534" lon="-2.50002156">
        <ele>789.00000</ele>
        <time>2018-10-12T20:40:27Z</time>
      </trkpt>
      <trkpt lat="38.22641892" lon="-2.50026421">
        <ele>791.00000</ele>
        <time>2018-10-12T20:40:35Z</time>
      </trkpt>
      <trkpt lat="38.22638170" lon="-2.50041400">
        <ele>792.00000</ele>
        <time>2018-10-12T20:40:40Z</time>
      </trkpt>
      <trkpt lat="38.22636905" lon="-2.50044794">
        <ele>792.00000</ele>
        <time>2018-10-12T20:40:41Z</time>
      </trkpt>
      <trkpt lat="38.22631850" lon="-2.50057811">
        <ele>793.00000</ele>
        <time>2018-10-12T20:40:45Z</time>
      </trkpt>
      <trkpt lat="38.22626804" lon="-2.50070602">
        <ele>794.00000</ele>
        <time>2018-10-12T20:40:49Z</time>
      </trkpt>
      <trkpt lat="38.22621130" lon="-2.50085631">
        <ele>795.00000</ele>
        <time>2018-10-12T20:40:54Z</time>
      </trkpt>
      <trkpt lat="38.22617274" lon="-2.50107977">
        <ele>796.00000</ele>
        <time>2018-10-12T20:41:01Z</time>
      </trkpt>
      <trkpt lat="38.22613913" lon="-2.50119276">
        <ele>797.00000</ele>
        <time>2018-10-12T20:41:05Z</time>
      </trkpt>
      <trkpt lat="38.22610812" lon="-2.50131522">
        <ele>799.00000</ele>
        <time>2018-10-12T20:41:09Z</time>
      </trkpt>
      <trkpt lat="38.22616956" lon="-2.50146257">
        <ele>800.00000</ele>
        <time>2018-10-12T20:41:14Z</time>
      </trkpt>
      <trkpt lat="38.22628472" lon="-2.50161034">
        <ele>801.00000</ele>
        <time>2018-10-12T20:41:19Z</time>
      </trkpt>
      <trkpt lat="38.22628833" lon="-2.50187278">
        <ele>802.00000</ele>
        <time>2018-10-12T20:41:25Z</time>
      </trkpt>
      <trkpt lat="38.22627416" lon="-2.50211636">
        <ele>803.00000</ele>
        <time>2018-10-12T20:41:31Z</time>
      </trkpt>
      <trkpt lat="38.22624818" lon="-2.50231962">
        <ele>803.00000</ele>
        <time>2018-10-12T20:41:36Z</time>
      </trkpt>
      <trkpt lat="38.22621775" lon="-2.50258382">
        <ele>803.00000</ele>
        <time>2018-10-12T20:41:42Z</time>
      </trkpt>
      <trkpt lat="38.22616964" lon="-2.50290552">
        <ele>804.00000</ele>
        <time>2018-10-12T20:41:49Z</time>
      </trkpt>
      <trkpt lat="38.22605380" lon="-2.50327566">
        <ele>805.00000</ele>
        <time>2018-10-12T20:41:58Z</time>
      </trkpt>
      <trkpt lat="38.22592439" lon="-2.50346023">
        <ele>805.00000</ele>
        <time>2018-10-12T20:42:03Z</time>
      </trkpt>
      <trkpt lat="38.22589002" lon="-2.50353667">
        <ele>806.00000</ele>
        <time>2018-10-12T20:42:05Z</time>
      </trkpt>
      <trkpt lat="38.22584409" lon="-2.50383230">
        <ele>806.00000</ele>
        <time>2018-10-12T20:42:12Z</time>
      </trkpt>
      <trkpt lat="38.22582364" lon="-2.50409256">
        <ele>807.00000</ele>
        <time>2018-10-12T20:42:18Z</time>
      </trkpt>
      <trkpt lat="38.22576060" lon="-2.50435441">
        <ele>808.00000</ele>
        <time>2018-10-12T20:42:24Z</time>
      </trkpt>
      <trkpt lat="38.22566891" lon="-2.50460034">
        <ele>809.00000</ele>
        <time>2018-10-12T20:42:30Z</time>
      </trkpt>
      <trkpt lat="38.22558718" lon="-2.50487878">
        <ele>810.00000</ele>
        <time>2018-10-12T20:42:37Z</time>
      </trkpt>
      <trkpt lat="38.22555106" lon="-2.50506897">
        <ele>811.00000</ele>
        <time>2018-10-12T20:42:42Z</time>
      </trkpt>
      <trkpt lat="38.22554293" lon="-2.50511088">
        <ele>811.00000</ele>
        <time>2018-10-12T20:42:43Z</time>
      </trkpt>
      <trkpt lat="38.22550864" lon="-2.50526494">
        <ele>812.00000</ele>
        <time>2018-10-12T20:42:47Z</time>
      </trkpt>
      <trkpt lat="38.22548903" lon="-2.50535923">
        <ele>812.00000</ele>
        <time>2018-10-12T20:42:49Z</time>
      </trkpt>
      <trkpt lat="38.22547897" lon="-2.50568160">
        <ele>813.00000</ele>
        <time>2018-10-12T20:42:55Z</time>
      </trkpt>
      <trkpt lat="38.22546900" lon="-2.50601663">
        <ele>814.00000</ele>
        <time>2018-10-12T20:43:02Z</time>
      </trkpt>
      <trkpt lat="38.22547109" lon="-2.50624847">
        <ele>815.00000</ele>
        <time>2018-10-12T20:43:07Z</time>
      </trkpt>
      <trkpt lat="38.22544327" lon="-2.50639691">
        <ele>815.00000</ele>
        <time>2018-10-12T20:43:10Z</time>
      </trkpt>
      <trkpt lat="38.22540622" lon="-2.50649867">
        <ele>815.00000</ele>
        <time>2018-10-12T20:43:12Z</time>
      </trkpt>
      <trkpt lat="38.22526833" lon="-2.50668383">
        <ele>814.00000</ele>
        <time>2018-10-12T20:43:16Z</time>
      </trkpt>
      <trkpt lat="38.22516239" lon="-2.50682540">
        <ele>814.00000</ele>
        <time>2018-10-12T20:43:19Z</time>
      </trkpt>
      <trkpt lat="38.22511729" lon="-2.50701055">
        <ele>813.00000</ele>
        <time>2018-10-12T20:43:22Z</time>
      </trkpt>
      <trkpt lat="38.22513707" lon="-2.50713704">
        <ele>813.00000</ele>
        <time>2018-10-12T20:43:24Z</time>
      </trkpt>
      <trkpt lat="38.22522575" lon="-2.50725137">
        <ele>813.00000</ele>
        <time>2018-10-12T20:43:27Z</time>
      </trkpt>
      <trkpt lat="38.22531150" lon="-2.50726553">
        <ele>813.00000</ele>
        <time>2018-10-12T20:43:29Z</time>
      </trkpt>
      <trkpt lat="38.22565591" lon="-2.50730660">
        <ele>813.00000</ele>
        <time>2018-10-12T20:43:36Z</time>
      </trkpt>
      <trkpt lat="38.22570771" lon="-2.50732580">
        <ele>813.00000</ele>
        <time>2018-10-12T20:43:37Z</time>
      </trkpt>
      <trkpt lat="38.22591156" lon="-2.50751925">
        <ele>813.00000</ele>
        <time>2018-10-12T20:43:42Z</time>
      </trkpt>
      <trkpt lat="38.22601608" lon="-2.50766300">
        <ele>813.00000</ele>
        <time>2018-10-12T20:43:45Z</time>
      </trkpt>
      <trkpt lat="38.22613452" lon="-2.50779879">
        <ele>812.00000</ele>
        <time>2018-10-12T20:43:48Z</time>
      </trkpt>
      <trkpt lat="38.22622127" lon="-2.50790876">
        <ele>812.00000</ele>
        <time>2018-10-12T20:43:50Z</time>
      </trkpt>
      <trkpt lat="38.22635195" lon="-2.50810984">
        <ele>811.00000</ele>
        <time>2018-10-12T20:43:53Z</time>
      </trkpt>
      <trkpt lat="38.22637760" lon="-2.50819316">
        <ele>811.00000</ele>
        <time>2018-10-12T20:43:54Z</time>
      </trkpt>
      <trkpt lat="38.22632060" lon="-2.50832316">
        <ele>810.00000</ele>
        <time>2018-10-12T20:43:57Z</time>
      </trkpt>
      <trkpt lat="38.22604081" lon="-2.50836968">
        <ele>809.00000</ele>
        <time>2018-10-12T20:44:02Z</time>
      </trkpt>
      <trkpt lat="38.22596956" lon="-2.50832676">
        <ele>809.00000</ele>
        <time>2018-10-12T20:44:04Z</time>
      </trkpt>
      <trkpt lat="38.22584409" lon="-2.50822065">
        <ele>809.00000</ele>
        <time>2018-10-12T20:44:09Z</time>
      </trkpt>
      <trkpt lat="38.22575591" lon="-2.50814261">
        <ele>811.00000</ele>
        <time>2018-10-12T20:44:12Z</time>
      </trkpt>
      <trkpt lat="38.22569355" lon="-2.50810598">
        <ele>811.00000</ele>
        <time>2018-10-12T20:44:14Z</time>
      </trkpt>
      <trkpt lat="38.22566245" lon="-2.50809073">
        <ele>812.00000</ele>
        <time>2018-10-12T20:44:15Z</time>
      </trkpt>
      <trkpt lat="38.22556891" lon="-2.50806215">
        <ele>812.00000</ele>
        <time>2018-10-12T20:44:18Z</time>
      </trkpt>
      <trkpt lat="38.22550588" lon="-2.50805050">
        <ele>813.00000</ele>
        <time>2018-10-12T20:44:20Z</time>
      </trkpt>
      <trkpt lat="38.22541971" lon="-2.50805452">
        <ele>813.00000</ele>
        <time>2018-10-12T20:44:23Z</time>
      </trkpt>
      <trkpt lat="38.22535827" lon="-2.50806416">
        <ele>814.00000</ele>
        <time>2018-10-12T20:44:25Z</time>
      </trkpt>
      <trkpt lat="38.22525719" lon="-2.50807874">
        <ele>815.00000</ele>
        <time>2018-10-12T20:44:28Z</time>
      </trkpt>
      <trkpt lat="38.22522450" lon="-2.50808838">
        <ele>815.00000</ele>
        <time>2018-10-12T20:44:29Z</time>
      </trkpt>
      <trkpt lat="38.22514395" lon="-2.50815100">
        <ele>816.00000</ele>
        <time>2018-10-12T20:44:32Z</time>
      </trkpt>
      <trkpt lat="38.22510723" lon="-2.50820355">
        <ele>816.00000</ele>
        <time>2018-10-12T20:44:34Z</time>
      </trkpt>
      <trkpt lat="38.22504077" lon="-2.50834655">
        <ele>817.00000</ele>
        <time>2018-10-12T20:44:38Z</time>
      </trkpt>
      <trkpt lat="38.22502912" lon="-2.50838292">
        <ele>817.00000</ele>
        <time>2018-10-12T20:44:39Z</time>
      </trkpt>
      <trkpt lat="38.22498042" lon="-2.50853723">
        <ele>818.00000</ele>
        <time>2018-10-12T20:44:44Z</time>
      </trkpt>
      <trkpt lat="38.22496064" lon="-2.50859742">
        <ele>819.00000</ele>
        <time>2018-10-12T20:44:46Z</time>
      </trkpt>
      <trkpt lat="38.22490347" lon="-2.50871418">
        <ele>821.00000</ele>
        <time>2018-10-12T20:44:50Z</time>
      </trkpt>
      <trkpt lat="38.22481999" lon="-2.50884049">
        <ele>822.00000</ele>
        <time>2018-10-12T20:44:55Z</time>
      </trkpt>
      <trkpt lat="38.22474463" lon="-2.50896144">
        <ele>823.00000</ele>
        <time>2018-10-12T20:45:00Z</time>
      </trkpt>
      <trkpt lat="38.22464338" lon="-2.50910226">
        <ele>824.00000</ele>
        <time>2018-10-12T20:45:06Z</time>
      </trkpt>
      <trkpt lat="38.22455327" lon="-2.50922648">
        <ele>825.00000</ele>
        <time>2018-10-12T20:45:11Z</time>
      </trkpt>
      <trkpt lat="38.22443651" lon="-2.50937769">
        <ele>826.00000</ele>
        <time>2018-10-12T20:45:17Z</time>
      </trkpt>
      <trkpt lat="38.22427642" lon="-2.50963065">
        <ele>827.00000</ele>
        <time>2018-10-12T20:45:26Z</time>
      </trkpt>
      <trkpt lat="38.22415564" lon="-2.50984582">
        <ele>828.00000</ele>
        <time>2018-10-12T20:45:33Z</time>
      </trkpt>
      <trkpt lat="38.22401591" lon="-2.50995579">
        <ele>829.00000</ele>
        <time>2018-10-12T20:45:38Z</time>
      </trkpt>
      <trkpt lat="38.22385624" lon="-2.51000055">
        <ele>829.00000</ele>
        <time>2018-10-12T20:45:43Z</time>
      </trkpt>
      <trkpt lat="38.22375381" lon="-2.51001999">
        <ele>829.00000</ele>
        <time>2018-10-12T20:45:46Z</time>
      </trkpt>
      <trkpt lat="38.22348576" lon="-2.51009484">
        <ele>830.00000</ele>
        <time>2018-10-12T20:45:54Z</time>
      </trkpt>
      <trkpt lat="38.22314201" lon="-2.51050975">
        <ele>831.00000</ele>
        <time>2018-10-12T20:46:07Z</time>
      </trkpt>
      <trkpt lat="38.22303313" lon="-2.51066456">
        <ele>832.00000</ele>
        <time>2018-10-12T20:46:11Z</time>
      </trkpt>
      <trkpt lat="38.22298276" lon="-2.51075307">
        <ele>832.00000</ele>
        <time>2018-10-12T20:46:13Z</time>
      </trkpt>
      <trkpt lat="38.22294244" lon="-2.51107620">
        <ele>832.00000</ele>
        <time>2018-10-12T20:46:19Z</time>
      </trkpt>
      <trkpt lat="38.22292107" lon="-2.51140250">
        <ele>832.00000</ele>
        <time>2018-10-12T20:46:25Z</time>
      </trkpt>
      <trkpt lat="38.22271923" lon="-2.51196107">
        <ele>832.00000</ele>
        <time>2018-10-12T20:46:37Z</time>
      </trkpt>
      <trkpt lat="38.22259048" lon="-2.51229744">
        <ele>833.00000</ele>
        <time>2018-10-12T20:46:45Z</time>
      </trkpt>
      <trkpt lat="38.22257724" lon="-2.51233457">
        <ele>833.00000</ele>
        <time>2018-10-12T20:46:46Z</time>
      </trkpt>
      <trkpt lat="38.22246895" lon="-2.51259919">
        <ele>835.00000</ele>
        <time>2018-10-12T20:46:53Z</time>
      </trkpt>
      <trkpt lat="38.22238882" lon="-2.51278703">
        <ele>836.00000</ele>
        <time>2018-10-12T20:46:58Z</time>
      </trkpt>
      <trkpt lat="38.22226996" lon="-2.51300051">
        <ele>837.00000</ele>
        <time>2018-10-12T20:47:04Z</time>
      </trkpt>
      <trkpt lat="38.22211506" lon="-2.51314963">
        <ele>838.00000</ele>
        <time>2018-10-12T20:47:10Z</time>
      </trkpt>
      <trkpt lat="38.22194323" lon="-2.51326781">
        <ele>839.00000</ele>
        <time>2018-10-12T20:47:16Z</time>
      </trkpt>
      <trkpt lat="38.22171583" lon="-2.51335775">
        <ele>840.00000</ele>
        <time>2018-10-12T20:47:23Z</time>
      </trkpt>
      <trkpt lat="38.22149505" lon="-2.51343042">
        <ele>841.00000</ele>
        <time>2018-10-12T20:47:30Z</time>
      </trkpt>
      <trkpt lat="38.22130864" lon="-2.51353276">
        <ele>842.00000</ele>
        <time>2018-10-12T20:47:36Z</time>
      </trkpt>
      <trkpt lat="38.22116347" lon="-2.51370728">
        <ele>843.00000</ele>
        <time>2018-10-12T20:47:42Z</time>
      </trkpt>
      <trkpt lat="38.22103380" lon="-2.51386963">
        <ele>844.00000</ele>
        <time>2018-10-12T20:47:47Z</time>
      </trkpt>
      <trkpt lat="38.22080774" lon="-2.51411975">
        <ele>844.00000</ele>
        <time>2018-10-12T20:47:54Z</time>
      </trkpt>
      <trkpt lat="38.22076767" lon="-2.51414984">
        <ele>844.00000</ele>
        <time>2018-10-12T20:47:55Z</time>
      </trkpt>
      <trkpt lat="38.22064412" lon="-2.51422150">
        <ele>844.00000</ele>
        <time>2018-10-12T20:47:58Z</time>
      </trkpt>
      <trkpt lat="38.22060154" lon="-2.51423978">
        <ele>844.00000</ele>
        <time>2018-10-12T20:47:59Z</time>
      </trkpt>
      <trkpt lat="38.22051554" lon="-2.51428202">
        <ele>844.00000</ele>
        <time>2018-10-12T20:48:01Z</time>
      </trkpt>
      <trkpt lat="38.22038277" lon="-2.51463792">
        <ele>844.00000</ele>
        <time>2018-10-12T20:48:09Z</time>
      </trkpt>
      <trkpt lat="38.22042158" lon="-2.51491863">
        <ele>844.00000</ele>
        <time>2018-10-12T20:48:16Z</time>
      </trkpt>
      <trkpt lat="38.22043240" lon="-2.51503639">
        <ele>845.00000</ele>
        <time>2018-10-12T20:48:19Z</time>
      </trkpt>
      <trkpt lat="38.22044782" lon="-2.51510638">
        <ele>845.00000</ele>
        <time>2018-10-12T20:48:21Z</time>
      </trkpt>
      <trkpt lat="38.22046441" lon="-2.51518710">
        <ele>846.00000</ele>
        <time>2018-10-12T20:48:23Z</time>
      </trkpt>
      <trkpt lat="38.22048679" lon="-2.51529749">
        <ele>846.00000</ele>
        <time>2018-10-12T20:48:26Z</time>
      </trkpt>
      <trkpt lat="38.22051580" lon="-2.51546806">
        <ele>847.00000</ele>
        <time>2018-10-12T20:48:30Z</time>
      </trkpt>
      <trkpt lat="38.22052426" lon="-2.51551550">
        <ele>847.00000</ele>
        <time>2018-10-12T20:48:31Z</time>
      </trkpt>
      <trkpt lat="38.22056307" lon="-2.51571013">
        <ele>849.00000</ele>
        <time>2018-10-12T20:48:36Z</time>
      </trkpt>
      <trkpt lat="38.22057028" lon="-2.51588162">
        <ele>850.00000</ele>
        <time>2018-10-12T20:48:40Z</time>
      </trkpt>
      <trkpt lat="38.22058595" lon="-2.51606158">
        <ele>851.00000</ele>
        <time>2018-10-12T20:48:44Z</time>
      </trkpt>
      <trkpt lat="38.22061009" lon="-2.51624163">
        <ele>852.00000</ele>
        <time>2018-10-12T20:48:49Z</time>
      </trkpt>
      <trkpt lat="38.22062049" lon="-2.51638638">
        <ele>853.00000</ele>
        <time>2018-10-12T20:48:53Z</time>
      </trkpt>
      <trkpt lat="38.22059844" lon="-2.51653960">
        <ele>854.00000</ele>
        <time>2018-10-12T20:48:56Z</time>
      </trkpt>
      <trkpt lat="38.22054119" lon="-2.51671671">
        <ele>855.00000</ele>
        <time>2018-10-12T20:49:00Z</time>
      </trkpt>
      <trkpt lat="38.22049694" lon="-2.51687907">
        <ele>856.00000</ele>
        <time>2018-10-12T20:49:05Z</time>
      </trkpt>
      <trkpt lat="38.22050607" lon="-2.51692626">
        <ele>857.00000</ele>
        <time>2018-10-12T20:49:07Z</time>
      </trkpt>
      <trkpt lat="38.22049870" lon="-2.51698016">
        <ele>857.00000</ele>
        <time>2018-10-12T20:49:09Z</time>
      </trkpt>
      <trkpt lat="38.22049870" lon="-2.51702810">
        <ele>858.00000</ele>
        <time>2018-10-12T20:49:11Z</time>
      </trkpt>
      <trkpt lat="38.22050297" lon="-2.51708116">
        <ele>858.00000</ele>
        <time>2018-10-12T20:49:13Z</time>
      </trkpt>
      <trkpt lat="38.22050431" lon="-2.51722005">
        <ele>859.00000</ele>
        <time>2018-10-12T20:49:18Z</time>
      </trkpt>
      <trkpt lat="38.22054522" lon="-2.51743186">
        <ele>860.00000</ele>
        <time>2018-10-12T20:49:24Z</time>
      </trkpt>
      <trkpt lat="38.22050540" lon="-2.51758701">
        <ele>862.00000</ele>
        <time>2018-10-12T20:49:28Z</time>
      </trkpt>
      <trkpt lat="38.22056039" lon="-2.51783612">
        <ele>863.00000</ele>
        <time>2018-10-12T20:49:35Z</time>
      </trkpt>
      <trkpt lat="38.22053734" lon="-2.51802815">
        <ele>864.00000</ele>
        <time>2018-10-12T20:49:41Z</time>
      </trkpt>
      <trkpt lat="38.22052493" lon="-2.51810316">
        <ele>864.00000</ele>
        <time>2018-10-12T20:49:43Z</time>
      </trkpt>
      <trkpt lat="38.22049484" lon="-2.51821825">
        <ele>865.00000</ele>
        <time>2018-10-12T20:49:46Z</time>
      </trkpt>
      <trkpt lat="38.22050859" lon="-2.51830190">
        <ele>865.00000</ele>
        <time>2018-10-12T20:49:48Z</time>
      </trkpt>
      <trkpt lat="38.22060406" lon="-2.51847021">
        <ele>866.00000</ele>
        <time>2018-10-12T20:49:53Z</time>
      </trkpt>
      <trkpt lat="38.22069534" lon="-2.51862309">
        <ele>867.00000</ele>
        <time>2018-10-12T20:49:58Z</time>
      </trkpt>
      <trkpt lat="38.22070757" lon="-2.51872074">
        <ele>867.00000</ele>
        <time>2018-10-12T20:50:01Z</time>
      </trkpt>
      <trkpt lat="38.22092525" lon="-2.51897815">
        <ele>868.00000</ele>
        <time>2018-10-12T20:50:10Z</time>
      </trkpt>
      <trkpt lat="38.22093950" lon="-2.51909558">
        <ele>869.00000</ele>
        <time>2018-10-12T20:50:13Z</time>
      </trkpt>
      <trkpt lat="38.22068436" lon="-2.51930463">
        <ele>869.00000</ele>
        <time>2018-10-12T20:50:20Z</time>
      </trkpt>
      <trkpt lat="38.22058671" lon="-2.51932240">
        <ele>870.00000</ele>
        <time>2018-10-12T20:50:22Z</time>
      </trkpt>
      <trkpt lat="38.22030432" lon="-2.51913640">
        <ele>870.00000</ele>
        <time>2018-10-12T20:50:32Z</time>
      </trkpt>
      <trkpt lat="38.22028286" lon="-2.51910229">
        <ele>871.00000</ele>
        <time>2018-10-12T20:50:33Z</time>
      </trkpt>
      <trkpt lat="38.22017096" lon="-2.51898209">
        <ele>872.00000</ele>
        <time>2018-10-12T20:50:38Z</time>
      </trkpt>
      <trkpt lat="38.22005814" lon="-2.51884161">
        <ele>873.00000</ele>
        <time>2018-10-12T20:50:44Z</time>
      </trkpt>
      <trkpt lat="38.21995169" lon="-2.51873281">
        <ele>874.00000</ele>
        <time>2018-10-12T20:50:49Z</time>
      </trkpt>
      <trkpt lat="38.21986896" lon="-2.51866240">
        <ele>875.00000</ele>
        <time>2018-10-12T20:50:53Z</time>
      </trkpt>
      <trkpt lat="38.21973469" lon="-2.51849393">
        <ele>876.00000</ele>
        <time>2018-10-12T20:51:00Z</time>
      </trkpt>
      <trkpt lat="38.21966277" lon="-2.51836493">
        <ele>877.00000</ele>
        <time>2018-10-12T20:51:05Z</time>
      </trkpt>
      <trkpt lat="38.21962547" lon="-2.51824616">
        <ele>879.00000</ele>
        <time>2018-10-12T20:51:09Z</time>
      </trkpt>
      <trkpt lat="38.21959161" lon="-2.51806276">
        <ele>880.00000</ele>
        <time>2018-10-12T20:51:14Z</time>
      </trkpt>
      <trkpt lat="38.21957392" lon="-2.51790996">
        <ele>881.00000</ele>
        <time>2018-10-12T20:51:18Z</time>
      </trkpt>
      <trkpt lat="38.21956763" lon="-2.51787501">
        <ele>881.00000</ele>
        <time>2018-10-12T20:51:19Z</time>
      </trkpt>
      <trkpt lat="38.21954165" lon="-2.51773319">
        <ele>882.00000</ele>
        <time>2018-10-12T20:51:24Z</time>
      </trkpt>
      <trkpt lat="38.21950821" lon="-2.51757544">
        <ele>883.00000</ele>
        <time>2018-10-12T20:51:29Z</time>
      </trkpt>
      <trkpt lat="38.21948843" lon="-2.51738182">
        <ele>884.00000</ele>
        <time>2018-10-12T20:51:34Z</time>
      </trkpt>
      <trkpt lat="38.21943554" lon="-2.51726925">
        <ele>885.00000</ele>
        <time>2018-10-12T20:51:38Z</time>
      </trkpt>
      <trkpt lat="38.21934753" lon="-2.51712659">
        <ele>887.00000</ele>
        <time>2018-10-12T20:51:43Z</time>
      </trkpt>
      <trkpt lat="38.21927527" lon="-2.51703187">
        <ele>888.00000</ele>
        <time>2018-10-12T20:51:47Z</time>
      </trkpt>
      <trkpt lat="38.21913806" lon="-2.51692324">
        <ele>889.00000</ele>
        <time>2018-10-12T20:51:53Z</time>
      </trkpt>
      <trkpt lat="38.21902365" lon="-2.51688393">
        <ele>890.00000</ele>
        <time>2018-10-12T20:51:58Z</time>
      </trkpt>
      <trkpt lat="38.21893849" lon="-2.51693741">
        <ele>891.00000</ele>
        <time>2018-10-12T20:52:02Z</time>
      </trkpt>
      <trkpt lat="38.21890018" lon="-2.51696901">
        <ele>891.00000</ele>
        <time>2018-10-12T20:52:04Z</time>
      </trkpt>
      <trkpt lat="38.21882718" lon="-2.51705752">
        <ele>893.00000</ele>
        <time>2018-10-12T20:52:08Z</time>
      </trkpt>
      <trkpt lat="38.21876213" lon="-2.51713933">
        <ele>894.00000</ele>
        <time>2018-10-12T20:52:12Z</time>
      </trkpt>
      <trkpt lat="38.21869868" lon="-2.51723052">
        <ele>895.00000</ele>
        <time>2018-10-12T20:52:16Z</time>
      </trkpt>
      <trkpt lat="38.21858888" lon="-2.51736891">
        <ele>896.00000</ele>
        <time>2018-10-12T20:52:22Z</time>
      </trkpt>
      <trkpt lat="38.21849274" lon="-2.51748416">
        <ele>897.00000</ele>
        <time>2018-10-12T20:52:27Z</time>
      </trkpt>
      <trkpt lat="38.21837581" lon="-2.51761542">
        <ele>898.00000</ele>
        <time>2018-10-12T20:52:33Z</time>
      </trkpt>
      <trkpt lat="38.21825796" lon="-2.51771215">
        <ele>899.00000</ele>
        <time>2018-10-12T20:52:38Z</time>
      </trkpt>
      <trkpt lat="38.21811949" lon="-2.51783737">
        <ele>900.00000</ele>
        <time>2018-10-12T20:52:44Z</time>
      </trkpt>
      <trkpt lat="38.21799167" lon="-2.51797517">
        <ele>901.00000</ele>
        <time>2018-10-12T20:52:50Z</time>
      </trkpt>
      <trkpt lat="38.21789561" lon="-2.51810065">
        <ele>902.00000</ele>
        <time>2018-10-12T20:52:55Z</time>
      </trkpt>
      <trkpt lat="38.21786426" lon="-2.51815404">
        <ele>902.00000</ele>
        <time>2018-10-12T20:52:57Z</time>
      </trkpt>
      <trkpt lat="38.21776016" lon="-2.51836007">
        <ele>903.00000</ele>
        <time>2018-10-12T20:53:04Z</time>
      </trkpt>
      <trkpt lat="38.21775773" lon="-2.51870951">
        <ele>905.00000</ele>
        <time>2018-10-12T20:53:14Z</time>
      </trkpt>
      <trkpt lat="38.21783275" lon="-2.51891403">
        <ele>906.00000</ele>
        <time>2018-10-12T20:53:20Z</time>
      </trkpt>
      <trkpt lat="38.21780450" lon="-2.51913724">
        <ele>907.00000</ele>
        <time>2018-10-12T20:53:26Z</time>
      </trkpt>
      <trkpt lat="38.21778925" lon="-2.51917085">
        <ele>907.00000</ele>
        <time>2018-10-12T20:53:27Z</time>
      </trkpt>
      <trkpt lat="38.21759395" lon="-2.51947863">
        <ele>908.00000</ele>
        <time>2018-10-12T20:53:37Z</time>
      </trkpt>
      <trkpt lat="38.21745380" lon="-2.51968584">
        <ele>909.00000</ele>
        <time>2018-10-12T20:53:44Z</time>
      </trkpt>
      <trkpt lat="38.21719530" lon="-2.51972934">
        <ele>910.00000</ele>
        <time>2018-10-12T20:53:53Z</time>
      </trkpt>
      <trkpt lat="38.21702884" lon="-2.51964577">
        <ele>911.00000</ele>
        <time>2018-10-12T20:53:59Z</time>
      </trkpt>
      <trkpt lat="38.21683631" lon="-2.51958098">
        <ele>912.00000</ele>
        <time>2018-10-12T20:54:06Z</time>
      </trkpt>
      <trkpt lat="38.21663975" lon="-2.51971266">
        <ele>913.00000</ele>
        <time>2018-10-12T20:54:15Z</time>
      </trkpt>
      <trkpt lat="38.21664093" lon="-2.52013460">
        <ele>914.00000</ele>
        <time>2018-10-12T20:54:26Z</time>
      </trkpt>
      <trkpt lat="38.21671770" lon="-2.52074346">
        <ele>915.00000</ele>
        <time>2018-10-12T20:54:40Z</time>
      </trkpt>
      <trkpt lat="38.21666364" lon="-2.52143858">
        <ele>916.00000</ele>
        <time>2018-10-12T20:54:53Z</time>
      </trkpt>
      <trkpt lat="38.21665870" lon="-2.52151745">
        <ele>916.00000</ele>
        <time>2018-10-12T20:54:55Z</time>
      </trkpt>
      <trkpt lat="38.21635267" lon="-2.52205557">
        <ele>917.00000</ele>
        <time>2018-10-12T20:55:08Z</time>
      </trkpt>
      <trkpt lat="38.21631336" lon="-2.52208189">
        <ele>917.00000</ele>
        <time>2018-10-12T20:55:09Z</time>
      </trkpt>
      <trkpt lat="38.21604363" lon="-2.52223704">
        <ele>917.00000</ele>
        <time>2018-10-12T20:55:16Z</time>
      </trkpt>
      <trkpt lat="38.21584850" lon="-2.52226637">
        <ele>918.00000</ele>
        <time>2018-10-12T20:55:21Z</time>
      </trkpt>
      <trkpt lat="38.21535288" lon="-2.52253325">
        <ele>918.00000</ele>
        <time>2018-10-12T20:55:34Z</time>
      </trkpt>
      <trkpt lat="38.21523461" lon="-2.52260508">
        <ele>918.00000</ele>
        <time>2018-10-12T20:55:37Z</time>
      </trkpt>
      <trkpt lat="38.21509430" lon="-2.52263434">
        <ele>918.00000</ele>
        <time>2018-10-12T20:55:40Z</time>
      </trkpt>
      <trkpt lat="38.21486966" lon="-2.52265035">
        <ele>917.00000</ele>
        <time>2018-10-12T20:55:45Z</time>
      </trkpt>
      <trkpt lat="38.21468425" lon="-2.52278295">
        <ele>917.00000</ele>
        <time>2018-10-12T20:55:49Z</time>
      </trkpt>
      <trkpt lat="38.21444143" lon="-2.52308671">
        <ele>917.00000</ele>
        <time>2018-10-12T20:55:55Z</time>
      </trkpt>
      <trkpt lat="38.21432232" lon="-2.52324270">
        <ele>917.00000</ele>
        <time>2018-10-12T20:55:58Z</time>
      </trkpt>
      <trkpt lat="38.21397221" lon="-2.52343020">
        <ele>916.00000</ele>
        <time>2018-10-12T20:56:05Z</time>
      </trkpt>
      <trkpt lat="38.21355002" lon="-2.52350874">
        <ele>916.00000</ele>
        <time>2018-10-12T20:56:13Z</time>
      </trkpt>
      <trkpt lat="38.21344432" lon="-2.52356154">
        <ele>916.00000</ele>
        <time>2018-10-12T20:56:15Z</time>
      </trkpt>
      <trkpt lat="38.21327894" lon="-2.52367612">
        <ele>916.00000</ele>
        <time>2018-10-12T20:56:18Z</time>
      </trkpt>
      <trkpt lat="38.21322874" lon="-2.52372038">
        <ele>916.00000</ele>
        <time>2018-10-12T20:56:19Z</time>
      </trkpt>
      <trkpt lat="38.21308574" lon="-2.52388416">
        <ele>916.00000</ele>
        <time>2018-10-12T20:56:22Z</time>
      </trkpt>
      <trkpt lat="38.21300896" lon="-2.52402598">
        <ele>915.00000</ele>
        <time>2018-10-12T20:56:24Z</time>
      </trkpt>
      <trkpt lat="38.21283688" lon="-2.52440351">
        <ele>914.00000</ele>
        <time>2018-10-12T20:56:29Z</time>
      </trkpt>
      <trkpt lat="38.21279212" lon="-2.52446947">
        <ele>914.00000</ele>
        <time>2018-10-12T20:56:30Z</time>
      </trkpt>
      <trkpt lat="38.21256137" lon="-2.52465178">
        <ele>913.00000</ele>
        <time>2018-10-12T20:56:34Z</time>
      </trkpt>
      <trkpt lat="38.21249775" lon="-2.52468639">
        <ele>913.00000</ele>
        <time>2018-10-12T20:56:35Z</time>
      </trkpt>
      <trkpt lat="38.21221956" lon="-2.52481053">
        <ele>912.00000</ele>
        <time>2018-10-12T20:56:39Z</time>
      </trkpt>
      <trkpt lat="38.21207715" lon="-2.52488572">
        <ele>912.00000</ele>
        <time>2018-10-12T20:56:41Z</time>
      </trkpt>
      <trkpt lat="38.21201160" lon="-2.52493416">
        <ele>912.00000</ele>
        <time>2018-10-12T20:56:42Z</time>
      </trkpt>
      <trkpt lat="38.21168529" lon="-2.52524002">
        <ele>910.00000</ele>
        <time>2018-10-12T20:56:47Z</time>
      </trkpt>
      <trkpt lat="38.21139779" lon="-2.52547161">
        <ele>910.00000</ele>
        <time>2018-10-12T20:56:51Z</time>
      </trkpt>
      <trkpt lat="38.21123602" lon="-2.52556809">
        <ele>908.00000</ele>
        <time>2018-10-12T20:56:53Z</time>
      </trkpt>
      <trkpt lat="38.21107333" lon="-2.52566264">
        <ele>907.00000</ele>
        <time>2018-10-12T20:56:55Z</time>
      </trkpt>
      <trkpt lat="38.21080167" lon="-2.52589121">
        <ele>906.00000</ele>
        <time>2018-10-12T20:56:59Z</time>
      </trkpt>
      <trkpt lat="38.21071819" lon="-2.52601359">
        <ele>906.00000</ele>
        <time>2018-10-12T20:57:01Z</time>
      </trkpt>
      <trkpt lat="38.21066111" lon="-2.52612289">
        <ele>906.00000</ele>
        <time>2018-10-12T20:57:03Z</time>
      </trkpt>
      <trkpt lat="38.21061878" lon="-2.52621299">
        <ele>906.00000</ele>
        <time>2018-10-12T20:57:05Z</time>
      </trkpt>
      <trkpt lat="38.21058911" lon="-2.52629262">
        <ele>906.00000</ele>
        <time>2018-10-12T20:57:07Z</time>
      </trkpt>
      <trkpt lat="38.21057938" lon="-2.52637778">
        <ele>907.00000</ele>
        <time>2018-10-12T20:57:09Z</time>
      </trkpt>
      <trkpt lat="38.21058056" lon="-2.52641223">
        <ele>907.00000</ele>
        <time>2018-10-12T20:57:10Z</time>
      </trkpt>
      <trkpt lat="38.21059531" lon="-2.52648113">
        <ele>908.00000</ele>
        <time>2018-10-12T20:57:12Z</time>
      </trkpt>
      <trkpt lat="38.21062901" lon="-2.52657249">
        <ele>910.00000</ele>
        <time>2018-10-12T20:57:15Z</time>
      </trkpt>
      <trkpt lat="38.21065197" lon="-2.52664868">
        <ele>911.00000</ele>
        <time>2018-10-12T20:57:17Z</time>
      </trkpt>
      <trkpt lat="38.21068081" lon="-2.52673912">
        <ele>912.00000</ele>
        <time>2018-10-12T20:57:20Z</time>
      </trkpt>
      <trkpt lat="38.21069933" lon="-2.52687935">
        <ele>913.00000</ele>
        <time>2018-10-12T20:57:23Z</time>
      </trkpt>
      <trkpt lat="38.21068936" lon="-2.52701698">
        <ele>914.00000</ele>
        <time>2018-10-12T20:57:26Z</time>
      </trkpt>
      <trkpt lat="38.21068064" lon="-2.52707406">
        <ele>914.00000</ele>
        <time>2018-10-12T20:57:27Z</time>
      </trkpt>
      <trkpt lat="38.21060109" lon="-2.52717867">
        <ele>916.00000</ele>
        <time>2018-10-12T20:57:30Z</time>
      </trkpt>
      <trkpt lat="38.21050931" lon="-2.52729317">
        <ele>917.00000</ele>
        <time>2018-10-12T20:57:33Z</time>
      </trkpt>
      <trkpt lat="38.21040638" lon="-2.52736559">
        <ele>918.00000</ele>
        <time>2018-10-12T20:57:37Z</time>
      </trkpt>
      <trkpt lat="38.21030253" lon="-2.52742527">
        <ele>919.00000</ele>
        <time>2018-10-12T20:57:41Z</time>
      </trkpt>
      <trkpt lat="38.21016968" lon="-2.52751705">
        <ele>920.00000</ele>
        <time>2018-10-12T20:57:47Z</time>
      </trkpt>
      <trkpt lat="38.21000682" lon="-2.52761461">
        <ele>921.00000</ele>
        <time>2018-10-12T20:57:54Z</time>
      </trkpt>
      <trkpt lat="38.20988059" lon="-2.52770623">
        <ele>923.00000</ele>
        <time>2018-10-12T20:57:59Z</time>
      </trkpt>
      <trkpt lat="38.20980909" lon="-2.52782039">
        <ele>924.00000</ele>
        <time>2018-10-12T20:58:04Z</time>
      </trkpt>
      <trkpt lat="38.20977615" lon="-2.52794721">
        <ele>925.00000</ele>
        <time>2018-10-12T20:58:09Z</time>
      </trkpt>
      <trkpt lat="38.20972158" lon="-2.52808752">
        <ele>926.00000</ele>
        <time>2018-10-12T20:58:15Z</time>
      </trkpt>
      <trkpt lat="38.20968369" lon="-2.52820394">
        <ele>927.00000</ele>
        <time>2018-10-12T20:58:20Z</time>
      </trkpt>
      <trkpt lat="38.20961647" lon="-2.52834308">
        <ele>928.00000</ele>
        <time>2018-10-12T20:58:25Z</time>
      </trkpt>
      <trkpt lat="38.20950642" lon="-2.52848952">
        <ele>930.00000</ele>
        <time>2018-10-12T20:58:32Z</time>
      </trkpt>
      <trkpt lat="38.20942360" lon="-2.52859412">
        <ele>931.00000</ele>
        <time>2018-10-12T20:58:37Z</time>
      </trkpt>
      <trkpt lat="38.20931866" lon="-2.52871356">
        <ele>932.00000</ele>
        <time>2018-10-12T20:58:43Z</time>
      </trkpt>
      <trkpt lat="38.20924675" lon="-2.52888028">
        <ele>933.00000</ele>
        <time>2018-10-12T20:58:49Z</time>
      </trkpt>
      <trkpt lat="38.20919847" lon="-2.52904850">
        <ele>934.00000</ele>
        <time>2018-10-12T20:58:55Z</time>
      </trkpt>
      <trkpt lat="38.20915170" lon="-2.52917926">
        <ele>935.00000</ele>
        <time>2018-10-12T20:59:00Z</time>
      </trkpt>
      <trkpt lat="38.20907802" lon="-2.52932326">
        <ele>936.00000</ele>
        <time>2018-10-12T20:59:06Z</time>
      </trkpt>
      <trkpt lat="38.20902915" lon="-2.52945478">
        <ele>937.00000</ele>
        <time>2018-10-12T20:59:11Z</time>
      </trkpt>
      <trkpt lat="38.20900686" lon="-2.52963096">
        <ele>938.00000</ele>
        <time>2018-10-12T20:59:17Z</time>
      </trkpt>
      <trkpt lat="38.20901909" lon="-2.52977823">
        <ele>939.00000</ele>
        <time>2018-10-12T20:59:22Z</time>
      </trkpt>
      <trkpt lat="38.20906519" lon="-2.53000438">
        <ele>940.00000</ele>
        <time>2018-10-12T20:59:30Z</time>
      </trkpt>
      <trkpt lat="38.20912437" lon="-2.53012608">
        <ele>941.00000</ele>
        <time>2018-10-12T20:59:36Z</time>
      </trkpt>
      <trkpt lat="38.20916553" lon="-2.53022206">
        <ele>943.00000</ele>
        <time>2018-10-12T20:59:40Z</time>
      </trkpt>
      <trkpt lat="38.20920685" lon="-2.53037352">
        <ele>944.00000</ele>
        <time>2018-10-12T20:59:45Z</time>
      </trkpt>
      <trkpt lat="38.20924608" lon="-2.53057544">
        <ele>945.00000</ele>
        <time>2018-10-12T20:59:52Z</time>
      </trkpt>
      <trkpt lat="38.20927449" lon="-2.53072614">
        <ele>946.00000</ele>
        <time>2018-10-12T20:59:57Z</time>
      </trkpt>
      <trkpt lat="38.20930223" lon="-2.53091230">
        <ele>947.00000</ele>
        <time>2018-10-12T21:00:03Z</time>
      </trkpt>
      <trkpt lat="38.20939259" lon="-2.53106033">
        <ele>948.00000</ele>
        <time>2018-10-12T21:00:10Z</time>
      </trkpt>
      <trkpt lat="38.20945621" lon="-2.53113719">
        <ele>949.00000</ele>
        <time>2018-10-12T21:00:14Z</time>
      </trkpt>
      <trkpt lat="38.20954355" lon="-2.53118338">
        <ele>950.00000</ele>
        <time>2018-10-12T21:00:18Z</time>
      </trkpt>
      <trkpt lat="38.20968898" lon="-2.53128639">
        <ele>951.00000</ele>
        <time>2018-10-12T21:00:25Z</time>
      </trkpt>
      <trkpt lat="38.20981345" lon="-2.53137021">
        <ele>952.00000</ele>
        <time>2018-10-12T21:00:31Z</time>
      </trkpt>
      <trkpt lat="38.20990003" lon="-2.53145378">
        <ele>953.00000</ele>
        <time>2018-10-12T21:00:36Z</time>
      </trkpt>
      <trkpt lat="38.20998050" lon="-2.53158420">
        <ele>954.00000</ele>
        <time>2018-10-12T21:00:41Z</time>
      </trkpt>
      <trkpt lat="38.21004127" lon="-2.53173197">
        <ele>956.00000</ele>
        <time>2018-10-12T21:00:46Z</time>
      </trkpt>
      <trkpt lat="38.21008871" lon="-2.53187899">
        <ele>957.00000</ele>
        <time>2018-10-12T21:00:51Z</time>
      </trkpt>
      <trkpt lat="38.21017513" lon="-2.53203431">
        <ele>958.00000</ele>
        <time>2018-10-12T21:00:57Z</time>
      </trkpt>
      <trkpt lat="38.21021829" lon="-2.53224411">
        <ele>959.00000</ele>
        <time>2018-10-12T21:01:04Z</time>
      </trkpt>
      <trkpt lat="38.21023229" lon="-2.53239305">
        <ele>960.00000</ele>
        <time>2018-10-12T21:01:09Z</time>
      </trkpt>
      <trkpt lat="38.21024000" lon="-2.53258743">
        <ele>961.00000</ele>
        <time>2018-10-12T21:01:16Z</time>
      </trkpt>
      <trkpt lat="38.21017546" lon="-2.53279748">
        <ele>962.00000</ele>
        <time>2018-10-12T21:01:23Z</time>
      </trkpt>
      <trkpt lat="38.21011419" lon="-2.53285976">
        <ele>963.00000</ele>
        <time>2018-10-12T21:01:26Z</time>
      </trkpt>
      <trkpt lat="38.21007069" lon="-2.53288784">
        <ele>963.00000</ele>
        <time>2018-10-12T21:01:28Z</time>
      </trkpt>
      <trkpt lat="38.20993138" lon="-2.53290946">
        <ele>964.00000</ele>
        <time>2018-10-12T21:01:32Z</time>
      </trkpt>
      <trkpt lat="38.20990481" lon="-2.53289915">
        <ele>965.00000</ele>
        <time>2018-10-12T21:01:33Z</time>
      </trkpt>
      <trkpt lat="38.20981261" lon="-2.53280343">
        <ele>966.00000</ele>
        <time>2018-10-12T21:01:38Z</time>
      </trkpt>
      <trkpt lat="38.20971177" lon="-2.53272389">
        <ele>967.00000</ele>
        <time>2018-10-12T21:01:43Z</time>
      </trkpt>
      <trkpt lat="38.20959828" lon="-2.53267250">
        <ele>968.00000</ele>
        <time>2018-10-12T21:01:48Z</time>
      </trkpt>
      <trkpt lat="38.20946560" lon="-2.53263479">
        <ele>969.00000</ele>
        <time>2018-10-12T21:01:54Z</time>
      </trkpt>
      <trkpt lat="38.20934113" lon="-2.53262733">
        <ele>970.00000</ele>
        <time>2018-10-12T21:02:00Z</time>
      </trkpt>
      <trkpt lat="38.20924733" lon="-2.53268214">
        <ele>971.00000</ele>
        <time>2018-10-12T21:02:06Z</time>
      </trkpt>
      <trkpt lat="38.20920199" lon="-2.53275146">
        <ele>972.00000</ele>
        <time>2018-10-12T21:02:10Z</time>
      </trkpt>
      <trkpt lat="38.20918757" lon="-2.53289278">
        <ele>973.00000</ele>
        <time>2018-10-12T21:02:15Z</time>
      </trkpt>
      <trkpt lat="38.20915337" lon="-2.53317098">
        <ele>974.00000</ele>
        <time>2018-10-12T21:02:24Z</time>
      </trkpt>
      <trkpt lat="38.20900049" lon="-2.53330978">
        <ele>975.00000</ele>
        <time>2018-10-12T21:02:33Z</time>
      </trkpt>
      <trkpt lat="38.20891331" lon="-2.53327768">
        <ele>976.00000</ele>
        <time>2018-10-12T21:02:37Z</time>
      </trkpt>
      <trkpt lat="38.20880670" lon="-2.53318740">
        <ele>978.00000</ele>
        <time>2018-10-12T21:02:43Z</time>
      </trkpt>
      <trkpt lat="38.20872330" lon="-2.53310300">
        <ele>979.00000</ele>
        <time>2018-10-12T21:02:48Z</time>
      </trkpt>
      <trkpt lat="38.20865155" lon="-2.53301658">
        <ele>979.00000</ele>
        <time>2018-10-12T21:02:53Z</time>
      </trkpt>
      <trkpt lat="38.20862875" lon="-2.53298766">
        <ele>980.00000</ele>
        <time>2018-10-12T21:02:57Z</time>
      </trkpt>
      <trkpt lat="38.20851484" lon="-2.53289035">
        <ele>982.00000</ele>
        <time>2018-10-12T21:06:28Z</time>
      </trkpt>
      <trkpt lat="38.20850126" lon="-2.53287702">
        <ele>982.00000</ele>
        <time>2018-10-12T21:06:29Z</time>
      </trkpt>
      <trkpt lat="38.20831996" lon="-2.53273705">
        <ele>983.00000</ele>
        <time>2018-10-12T21:06:39Z</time>
      </trkpt>
      <trkpt lat="38.20820806" lon="-2.53264275">
        <ele>984.00000</ele>
        <time>2018-10-12T21:06:45Z</time>
      </trkpt>
      <trkpt lat="38.20819054" lon="-2.53263110">
        <ele>984.00000</ele>
        <time>2018-10-12T21:06:46Z</time>
      </trkpt>
      <trkpt lat="38.20812634" lon="-2.53257930">
        <ele>985.00000</ele>
        <time>2018-10-12T21:06:50Z</time>
      </trkpt>
      <trkpt lat="38.20808057" lon="-2.53254669">
        <ele>985.00000</ele>
        <time>2018-10-12T21:06:53Z</time>
      </trkpt>
      <trkpt lat="38.20800245" lon="-2.53250772">
        <ele>987.00000</ele>
        <time>2018-10-12T21:06:58Z</time>
      </trkpt>
      <trkpt lat="38.20792978" lon="-2.53246111">
        <ele>987.00000</ele>
        <time>2018-10-12T21:07:03Z</time>
      </trkpt>
      <trkpt lat="38.20791780" lon="-2.53246245">
        <ele>988.00000</ele>
        <time>2018-10-12T21:07:04Z</time>
      </trkpt>
      <trkpt lat="38.20785367" lon="-2.53247645">
        <ele>988.00000</ele>
        <time>2018-10-12T21:07:11Z</time>
      </trkpt>
      <trkpt lat="38.20778913" lon="-2.53254502">
        <ele>988.00000</ele>
        <time>2018-10-12T21:07:23Z</time>
      </trkpt>
      <trkpt lat="38.20778385" lon="-2.53260771">
        <ele>988.00000</ele>
        <time>2018-10-12T21:07:25Z</time>
      </trkpt>
      <trkpt lat="38.20783649" lon="-2.53272724">
        <ele>988.00000</ele>
        <time>2018-10-12T21:07:28Z</time>
      </trkpt>
      <trkpt lat="38.20792433" lon="-2.53290183">
        <ele>988.00000</ele>
        <time>2018-10-12T21:07:31Z</time>
      </trkpt>
      <trkpt lat="38.20796121" lon="-2.53296285">
        <ele>987.00000</ele>
        <time>2018-10-12T21:07:32Z</time>
      </trkpt>
      <trkpt lat="38.20804260" lon="-2.53310861">
        <ele>986.00000</ele>
        <time>2018-10-12T21:07:34Z</time>
      </trkpt>
      <trkpt lat="38.20808837" lon="-2.53319864">
        <ele>986.00000</ele>
        <time>2018-10-12T21:07:35Z</time>
      </trkpt>
      <trkpt lat="38.20820211" lon="-2.53335756">
        <ele>985.00000</ele>
        <time>2018-10-12T21:07:37Z</time>
      </trkpt>
      <trkpt lat="38.20831929" lon="-2.53347373">
        <ele>983.00000</ele>
        <time>2018-10-12T21:07:39Z</time>
      </trkpt>
      <trkpt lat="38.20841283" lon="-2.53356551">
        <ele>982.00000</ele>
        <time>2018-10-12T21:07:41Z</time>
      </trkpt>
      <trkpt lat="38.20846756" lon="-2.53363491">
        <ele>980.00000</ele>
        <time>2018-10-12T21:07:43Z</time>
      </trkpt>
      <trkpt lat="38.20845843" lon="-2.53367423">
        <ele>979.00000</ele>
        <time>2018-10-12T21:07:45Z</time>
      </trkpt>
      <trkpt lat="38.20838307" lon="-2.53376190">
        <ele>978.00000</ele>
        <time>2018-10-12T21:07:48Z</time>
      </trkpt>
      <trkpt lat="38.20837696" lon="-2.53388411">
        <ele>977.00000</ele>
        <time>2018-10-12T21:07:49Z</time>
      </trkpt>
      <trkpt lat="38.20830127" lon="-2.53407522">
        <ele>976.00000</ele>
        <time>2018-10-12T21:07:51Z</time>
      </trkpt>
      <trkpt lat="38.20815316" lon="-2.53446062">
        <ele>975.00000</ele>
        <time>2018-10-12T21:07:54Z</time>
      </trkpt>
      <trkpt lat="38.20800128" lon="-2.53481936">
        <ele>973.00000</ele>
        <time>2018-10-12T21:07:57Z</time>
      </trkpt>
      <trkpt lat="38.20791536" lon="-2.53504936">
        <ele>972.00000</ele>
        <time>2018-10-12T21:07:59Z</time>
      </trkpt>
      <trkpt lat="38.20783641" lon="-2.53528531">
        <ele>970.00000</ele>
        <time>2018-10-12T21:08:01Z</time>
      </trkpt>
      <trkpt lat="38.20780917" lon="-2.53541540">
        <ele>969.00000</ele>
        <time>2018-10-12T21:08:02Z</time>
      </trkpt>
      <trkpt lat="38.20778578" lon="-2.53552763">
        <ele>968.00000</ele>
        <time>2018-10-12T21:08:03Z</time>
      </trkpt>
      <trkpt lat="38.20776424" lon="-2.53564892">
        <ele>967.00000</ele>
        <time>2018-10-12T21:08:04Z</time>
      </trkpt>
      <trkpt lat="38.20774890" lon="-2.53576476">
        <ele>965.00000</ele>
        <time>2018-10-12T21:08:05Z</time>
      </trkpt>
      <trkpt lat="38.20774538" lon="-2.53595461">
        <ele>964.00000</ele>
        <time>2018-10-12T21:08:07Z</time>
      </trkpt>
      <trkpt lat="38.20777698" lon="-2.53613146">
        <ele>963.00000</ele>
        <time>2018-10-12T21:08:09Z</time>
      </trkpt>
      <trkpt lat="38.20783339" lon="-2.53628301">
        <ele>961.00000</ele>
        <time>2018-10-12T21:08:11Z</time>
      </trkpt>
      <trkpt lat="38.20788284" lon="-2.53651921">
        <ele>960.00000</ele>
        <time>2018-10-12T21:08:14Z</time>
      </trkpt>
      <trkpt lat="38.20788695" lon="-2.53665424">
        <ele>958.00000</ele>
        <time>2018-10-12T21:08:16Z</time>
      </trkpt>
      <trkpt lat="38.20786876" lon="-2.53680990">
        <ele>957.00000</ele>
        <time>2018-10-12T21:08:17Z</time>
      </trkpt>
      <trkpt lat="38.20775904" lon="-2.53694384">
        <ele>956.00000</ele>
        <time>2018-10-12T21:08:19Z</time>
      </trkpt>
      <trkpt lat="38.20742636" lon="-2.53693697">
        <ele>955.00000</ele>
        <time>2018-10-12T21:08:24Z</time>
      </trkpt>
      <trkpt lat="38.20727557" lon="-2.53682800">
        <ele>954.00000</ele>
        <time>2018-10-12T21:08:26Z</time>
      </trkpt>
      <trkpt lat="38.20710727" lon="-2.53671074">
        <ele>953.00000</ele>
        <time>2018-10-12T21:08:28Z</time>
      </trkpt>
      <trkpt lat="38.20675263" lon="-2.53638242">
        <ele>952.00000</ele>
        <time>2018-10-12T21:08:33Z</time>
      </trkpt>
      <trkpt lat="38.20664215" lon="-2.53626197">
        <ele>951.00000</ele>
        <time>2018-10-12T21:08:35Z</time>
      </trkpt>
      <trkpt lat="38.20658482" lon="-2.53621763">
        <ele>950.00000</ele>
        <time>2018-10-12T21:08:36Z</time>
      </trkpt>
      <trkpt lat="38.20572459" lon="-2.53594723">
        <ele>945.00000</ele>
        <time>2018-10-12T21:08:50Z</time>
      </trkpt>
      <trkpt lat="38.20568930" lon="-2.53601110">
        <ele>945.00000</ele>
        <time>2018-10-12T21:08:52Z</time>
      </trkpt>
      <trkpt lat="38.20561529" lon="-2.53614211">
        <ele>945.00000</ele>
        <time>2018-10-12T21:08:54Z</time>
      </trkpt>
      <trkpt lat="38.20557891" lon="-2.53622266">
        <ele>945.00000</ele>
        <time>2018-10-12T21:08:55Z</time>
      </trkpt>
      <trkpt lat="38.20551353" lon="-2.53645551">
        <ele>945.00000</ele>
        <time>2018-10-12T21:08:58Z</time>
      </trkpt>
      <trkpt lat="38.20552065" lon="-2.53665676">
        <ele>944.00000</ele>
        <time>2018-10-12T21:09:01Z</time>
      </trkpt>
      <trkpt lat="38.20549107" lon="-2.53680093">
        <ele>943.00000</ele>
        <time>2018-10-12T21:09:03Z</time>
      </trkpt>
      <trkpt lat="38.20542183" lon="-2.53706906">
        <ele>942.00000</ele>
        <time>2018-10-12T21:09:06Z</time>
      </trkpt>
      <trkpt lat="38.20539962" lon="-2.53715540">
        <ele>942.00000</ele>
        <time>2018-10-12T21:09:07Z</time>
      </trkpt>
      <trkpt lat="38.20536986" lon="-2.53724852">
        <ele>941.00000</ele>
        <time>2018-10-12T21:09:08Z</time>
      </trkpt>
      <trkpt lat="38.20532200" lon="-2.53732354">
        <ele>940.00000</ele>
        <time>2018-10-12T21:09:09Z</time>
      </trkpt>
      <trkpt lat="38.20518672" lon="-2.53744198">
        <ele>938.00000</ele>
        <time>2018-10-12T21:09:11Z</time>
      </trkpt>
      <trkpt lat="38.20512478" lon="-2.53751280">
        <ele>938.00000</ele>
        <time>2018-10-12T21:09:12Z</time>
      </trkpt>
      <trkpt lat="38.20500290" lon="-2.53763166">
        <ele>937.00000</ele>
        <time>2018-10-12T21:09:14Z</time>
      </trkpt>
      <trkpt lat="38.20490987" lon="-2.53779854">
        <ele>937.00000</ele>
        <time>2018-10-12T21:09:16Z</time>
      </trkpt>
      <trkpt lat="38.20481909" lon="-2.53797657">
        <ele>935.00000</ele>
        <time>2018-10-12T21:09:18Z</time>
      </trkpt>
      <trkpt lat="38.20472337" lon="-2.53815444">
        <ele>934.00000</ele>
        <time>2018-10-12T21:09:20Z</time>
      </trkpt>
      <trkpt lat="38.20465715" lon="-2.53823633">
        <ele>934.00000</ele>
        <time>2018-10-12T21:09:21Z</time>
      </trkpt>
      <trkpt lat="38.20459898" lon="-2.53831462">
        <ele>933.00000</ele>
        <time>2018-10-12T21:09:22Z</time>
      </trkpt>
      <trkpt lat="38.20444442" lon="-2.53845132">
        <ele>932.00000</ele>
        <time>2018-10-12T21:09:24Z</time>
      </trkpt>
      <trkpt lat="38.20434266" lon="-2.53862500">
        <ele>930.00000</ele>
        <time>2018-10-12T21:09:26Z</time>
      </trkpt>
      <trkpt lat="38.20423764" lon="-2.53879565">
        <ele>929.00000</ele>
        <time>2018-10-12T21:09:28Z</time>
      </trkpt>
      <trkpt lat="38.20417092" lon="-2.53895164">
        <ele>928.00000</ele>
        <time>2018-10-12T21:09:30Z</time>
      </trkpt>
      <trkpt lat="38.20410814" lon="-2.53906480">
        <ele>926.00000</ele>
        <time>2018-10-12T21:09:32Z</time>
      </trkpt>
      <trkpt lat="38.20396271" lon="-2.53914451">
        <ele>925.00000</ele>
        <time>2018-10-12T21:09:35Z</time>
      </trkpt>
      <trkpt lat="38.20389884" lon="-2.53918960">
        <ele>924.00000</ele>
        <time>2018-10-12T21:09:36Z</time>
      </trkpt>
      <trkpt lat="38.20385794" lon="-2.53923729">
        <ele>924.00000</ele>
        <time>2018-10-12T21:09:37Z</time>
      </trkpt>
      <trkpt lat="38.20376976" lon="-2.53933159">
        <ele>923.00000</ele>
        <time>2018-10-12T21:09:40Z</time>
      </trkpt>
      <trkpt lat="38.20331756" lon="-2.53952245">
        <ele>922.00000</ele>
        <time>2018-10-12T21:09:45Z</time>
      </trkpt>
      <trkpt lat="38.20322301" lon="-2.53954432">
        <ele>921.00000</ele>
        <time>2018-10-12T21:09:46Z</time>
      </trkpt>
      <trkpt lat="38.20301338" lon="-2.53951189">
        <ele>920.00000</ele>
        <time>2018-10-12T21:09:48Z</time>
      </trkpt>
      <trkpt lat="38.20291556" lon="-2.53948674">
        <ele>919.00000</ele>
        <time>2018-10-12T21:09:49Z</time>
      </trkpt>
      <trkpt lat="38.20281246" lon="-2.53948565">
        <ele>918.00000</ele>
        <time>2018-10-12T21:09:50Z</time>
      </trkpt>
      <trkpt lat="38.20271959" lon="-2.53949948">
        <ele>917.00000</ele>
        <time>2018-10-12T21:09:51Z</time>
      </trkpt>
      <trkpt lat="38.20252882" lon="-2.53961381">
        <ele>916.00000</ele>
        <time>2018-10-12T21:09:54Z</time>
      </trkpt>
      <trkpt lat="38.20217577" lon="-2.53933939">
        <ele>915.00000</ele>
        <time>2018-10-12T21:10:01Z</time>
      </trkpt>
      <trkpt lat="38.20213219" lon="-2.53926085">
        <ele>915.00000</ele>
        <time>2018-10-12T21:10:02Z</time>
      </trkpt>
      <trkpt lat="38.20197595" lon="-2.53905851">
        <ele>914.00000</ele>
        <time>2018-10-12T21:10:05Z</time>
      </trkpt>
      <trkpt lat="38.20174008" lon="-2.53885366">
        <ele>913.00000</ele>
        <time>2018-10-12T21:10:09Z</time>
      </trkpt>
      <trkpt lat="38.20161812" lon="-2.53875282">
        <ele>912.00000</ele>
        <time>2018-10-12T21:10:11Z</time>
      </trkpt>
      <trkpt lat="38.20150832" lon="-2.53865945">
        <ele>911.00000</ele>
        <time>2018-10-12T21:10:13Z</time>
      </trkpt>
      <trkpt lat="38.20119710" lon="-2.53841654">
        <ele>910.00000</ele>
        <time>2018-10-12T21:10:19Z</time>
      </trkpt>
      <trkpt lat="38.20100734" lon="-2.53855425">
        <ele>912.00000</ele>
        <time>2018-10-12T21:10:25Z</time>
      </trkpt>
      <trkpt lat="38.20098278" lon="-2.53859432">
        <ele>912.00000</ele>
        <time>2018-10-12T21:10:26Z</time>
      </trkpt>
      <trkpt lat="38.20085328" lon="-2.53890705">
        <ele>912.00000</ele>
        <time>2018-10-12T21:10:33Z</time>
      </trkpt>
      <trkpt lat="38.20064406" lon="-2.53915867">
        <ele>912.00000</ele>
        <time>2018-10-12T21:10:38Z</time>
      </trkpt>
      <trkpt lat="38.20034014" lon="-2.53976125">
        <ele>911.00000</ele>
        <time>2018-10-12T21:10:51Z</time>
      </trkpt>
      <trkpt lat="38.20016512" lon="-2.54018378">
        <ele>911.00000</ele>
        <time>2018-10-12T21:10:58Z</time>
      </trkpt>
      <trkpt lat="38.19991325" lon="-2.54039660">
        <ele>911.00000</ele>
        <time>2018-10-12T21:11:04Z</time>
      </trkpt>
      <trkpt lat="38.19974804" lon="-2.54046910">
        <ele>911.00000</ele>
        <time>2018-10-12T21:11:07Z</time>
      </trkpt>
      <trkpt lat="38.19966405" lon="-2.54050430">
        <ele>911.00000</ele>
        <time>2018-10-12T21:11:08Z</time>
      </trkpt>
      <trkpt lat="38.19938058" lon="-2.54058837">
        <ele>911.00000</ele>
        <time>2018-10-12T21:11:11Z</time>
      </trkpt>
      <trkpt lat="38.19908101" lon="-2.54070404">
        <ele>911.00000</ele>
        <time>2018-10-12T21:11:15Z</time>
      </trkpt>
      <trkpt lat="38.19894312" lon="-2.54081670">
        <ele>911.00000</ele>
        <time>2018-10-12T21:11:18Z</time>
      </trkpt>
      <trkpt lat="38.19890666" lon="-2.54085316">
        <ele>910.00000</ele>
        <time>2018-10-12T21:11:19Z</time>
      </trkpt>
      <trkpt lat="38.19886500" lon="-2.54088585">
        <ele>910.00000</ele>
        <time>2018-10-12T21:11:20Z</time>
      </trkpt>
      <trkpt lat="38.19880516" lon="-2.54103094">
        <ele>910.00000</ele>
        <time>2018-10-12T21:11:23Z</time>
      </trkpt>
      <trkpt lat="38.19877691" lon="-2.54113303">
        <ele>910.00000</ele>
        <time>2018-10-12T21:11:25Z</time>
      </trkpt>
      <trkpt lat="38.19874162" lon="-2.54121836">
        <ele>910.00000</ele>
        <time>2018-10-12T21:11:29Z</time>
      </trkpt>
      <trkpt lat="38.19858421" lon="-2.54185253">
        <ele>910.00000</ele>
        <time>2018-10-12T21:11:38Z</time>
      </trkpt>
      <trkpt lat="38.19847458" lon="-2.54199511">
        <ele>910.00000</ele>
        <time>2018-10-12T21:11:40Z</time>
      </trkpt>
      <trkpt lat="38.19808649" lon="-2.54251479">
        <ele>910.00000</ele>
        <time>2018-10-12T21:11:47Z</time>
      </trkpt>
      <trkpt lat="38.19797560" lon="-2.54265720">
        <ele>910.00000</ele>
        <time>2018-10-12T21:11:49Z</time>
      </trkpt>
      <trkpt lat="38.19779288" lon="-2.54285451">
        <ele>908.00000</ele>
        <time>2018-10-12T21:11:52Z</time>
      </trkpt>
      <trkpt lat="38.19762750" lon="-2.54307696">
        <ele>907.00000</ele>
        <time>2018-10-12T21:11:55Z</time>
      </trkpt>
      <trkpt lat="38.19756640" lon="-2.54320453">
        <ele>905.00000</ele>
        <time>2018-10-12T21:11:57Z</time>
      </trkpt>
      <trkpt lat="38.19753672" lon="-2.54325927">
        <ele>904.00000</ele>
        <time>2018-10-12T21:11:58Z</time>
      </trkpt>
      <trkpt lat="38.19744301" lon="-2.54341123">
        <ele>903.00000</ele>
        <time>2018-10-12T21:12:00Z</time>
      </trkpt>
      <trkpt lat="38.19737110" lon="-2.54354425">
        <ele>902.00000</ele>
        <time>2018-10-12T21:12:02Z</time>
      </trkpt>
      <trkpt lat="38.19721436" lon="-2.54362824">
        <ele>900.00000</ele>
        <time>2018-10-12T21:12:05Z</time>
      </trkpt>
      <trkpt lat="38.19709005" lon="-2.54369253">
        <ele>900.00000</ele>
        <time>2018-10-12T21:12:07Z</time>
      </trkpt>
      <trkpt lat="38.19700967" lon="-2.54371357">
        <ele>899.00000</ele>
        <time>2018-10-12T21:12:08Z</time>
      </trkpt>
      <trkpt lat="38.19671664" lon="-2.54390065">
        <ele>898.00000</ele>
        <time>2018-10-12T21:12:13Z</time>
      </trkpt>
      <trkpt lat="38.19656752" lon="-2.54401322">
        <ele>898.00000</ele>
        <time>2018-10-12T21:12:16Z</time>
      </trkpt>
      <trkpt lat="38.19645076" lon="-2.54413677">
        <ele>898.00000</ele>
        <time>2018-10-12T21:12:18Z</time>
      </trkpt>
      <trkpt lat="38.19627793" lon="-2.54433567">
        <ele>898.00000</ele>
        <time>2018-10-12T21:12:21Z</time>
      </trkpt>
      <trkpt lat="38.19625253" lon="-2.54440625">
        <ele>898.00000</ele>
        <time>2018-10-12T21:12:22Z</time>
      </trkpt>
      <trkpt lat="38.19625848" lon="-2.54446970">
        <ele>897.00000</ele>
        <time>2018-10-12T21:12:23Z</time>
      </trkpt>
      <trkpt lat="38.19631699" lon="-2.54458453">
        <ele>896.00000</ele>
        <time>2018-10-12T21:12:25Z</time>
      </trkpt>
      <trkpt lat="38.19642319" lon="-2.54468671">
        <ele>895.00000</ele>
        <time>2018-10-12T21:12:27Z</time>
      </trkpt>
      <trkpt lat="38.19650692" lon="-2.54476038">
        <ele>894.00000</ele>
        <time>2018-10-12T21:12:29Z</time>
      </trkpt>
      <trkpt lat="38.19655629" lon="-2.54481403">
        <ele>893.00000</ele>
        <time>2018-10-12T21:12:31Z</time>
      </trkpt>
      <trkpt lat="38.19646518" lon="-2.54506984">
        <ele>892.00000</ele>
        <time>2018-10-12T21:12:35Z</time>
      </trkpt>
      <trkpt lat="38.19641405" lon="-2.54511821">
        <ele>892.00000</ele>
        <time>2018-10-12T21:12:36Z</time>
      </trkpt>
      <trkpt lat="38.19631850" lon="-2.54520311">
        <ele>892.00000</ele>
        <time>2018-10-12T21:12:38Z</time>
      </trkpt>
      <trkpt lat="38.19619738" lon="-2.54531946">
        <ele>892.00000</ele>
        <time>2018-10-12T21:12:41Z</time>
      </trkpt>
      <trkpt lat="38.19604617" lon="-2.54556421">
        <ele>892.00000</ele>
        <time>2018-10-12T21:12:45Z</time>
      </trkpt>
      <trkpt lat="38.19602211" lon="-2.54562254">
        <ele>892.00000</ele>
        <time>2018-10-12T21:12:46Z</time>
      </trkpt>
      <trkpt lat="38.19584609" lon="-2.54625219">
        <ele>893.00000</ele>
        <time>2018-10-12T21:12:55Z</time>
      </trkpt>
      <trkpt lat="38.19580318" lon="-2.54651689">
        <ele>893.00000</ele>
        <time>2018-10-12T21:12:59Z</time>
      </trkpt>
      <trkpt lat="38.19577443" lon="-2.54655503">
        <ele>893.00000</ele>
        <time>2018-10-12T21:13:00Z</time>
      </trkpt>
      <trkpt lat="38.19563923" lon="-2.54687120">
        <ele>893.00000</ele>
        <time>2018-10-12T21:13:06Z</time>
      </trkpt>
      <trkpt lat="38.19546338" lon="-2.54716825">
        <ele>894.00000</ele>
        <time>2018-10-12T21:13:12Z</time>
      </trkpt>
      <trkpt lat="38.19518853" lon="-2.54737788">
        <ele>895.00000</ele>
        <time>2018-10-12T21:13:19Z</time>
      </trkpt>
      <trkpt lat="38.19504286" lon="-2.54757343">
        <ele>895.00000</ele>
        <time>2018-10-12T21:13:23Z</time>
      </trkpt>
      <trkpt lat="38.19492870" lon="-2.54775851">
        <ele>895.00000</ele>
        <time>2018-10-12T21:13:29Z</time>
      </trkpt>
      <trkpt lat="38.19482694" lon="-2.54787376">
        <ele>895.00000</ele>
        <time>2018-10-12T21:13:31Z</time>
      </trkpt>
      <trkpt lat="38.19422126" lon="-2.54775859">
        <ele>893.00000</ele>
        <time>2018-10-12T21:13:37Z</time>
      </trkpt>
      <trkpt lat="38.19414482" lon="-2.54774442">
        <ele>892.00000</ele>
        <time>2018-10-12T21:13:38Z</time>
      </trkpt>
      <trkpt lat="38.19407936" lon="-2.54774887">
        <ele>891.00000</ele>
        <time>2018-10-12T21:13:39Z</time>
      </trkpt>
      <trkpt lat="38.19396042" lon="-2.54778575">
        <ele>889.00000</ele>
        <time>2018-10-12T21:13:41Z</time>
      </trkpt>
      <trkpt lat="38.19391256" lon="-2.54782606">
        <ele>888.00000</ele>
        <time>2018-10-12T21:13:42Z</time>
      </trkpt>
      <trkpt lat="38.19388121" lon="-2.54789362">
        <ele>887.00000</ele>
        <time>2018-10-12T21:13:43Z</time>
      </trkpt>
      <trkpt lat="38.19384626" lon="-2.54795288">
        <ele>886.00000</ele>
        <time>2018-10-12T21:13:44Z</time>
      </trkpt>
      <trkpt lat="38.19381851" lon="-2.54800854">
        <ele>885.00000</ele>
        <time>2018-10-12T21:13:45Z</time>
      </trkpt>
      <trkpt lat="38.19377828" lon="-2.54808146">
        <ele>885.00000</ele>
        <time>2018-10-12T21:13:47Z</time>
      </trkpt>
      <trkpt lat="38.19368725" lon="-2.54829327">
        <ele>884.00000</ele>
        <time>2018-10-12T21:13:54Z</time>
      </trkpt>
      <trkpt lat="38.19367258" lon="-2.54835161">
        <ele>884.00000</ele>
        <time>2018-10-12T21:13:56Z</time>
      </trkpt>
      <trkpt lat="38.19365398" lon="-2.54846401">
        <ele>885.00000</ele>
        <time>2018-10-12T21:14:00Z</time>
      </trkpt>
      <trkpt lat="38.19360821" lon="-2.54880767">
        <ele>886.00000</ele>
        <time>2018-10-12T21:14:05Z</time>
      </trkpt>
      <trkpt lat="38.19353034" lon="-2.54918276">
        <ele>887.00000</ele>
        <time>2018-10-12T21:14:09Z</time>
      </trkpt>
      <trkpt lat="38.19347653" lon="-2.54948417">
        <ele>887.00000</ele>
        <time>2018-10-12T21:14:13Z</time>
      </trkpt>
      <trkpt lat="38.19338768" lon="-2.54997284">
        <ele>888.00000</ele>
        <time>2018-10-12T21:14:19Z</time>
      </trkpt>
      <trkpt lat="38.19337813" lon="-2.55002380">
        <ele>888.00000</ele>
        <time>2018-10-12T21:14:20Z</time>
      </trkpt>
      <trkpt lat="38.19335491" lon="-2.55016889">
        <ele>889.00000</ele>
        <time>2018-10-12T21:14:23Z</time>
      </trkpt>
      <trkpt lat="38.19332809" lon="-2.55029621">
        <ele>889.00000</ele>
        <time>2018-10-12T21:14:26Z</time>
      </trkpt>
      <trkpt lat="38.19325106" lon="-2.55054398">
        <ele>890.00000</ele>
        <time>2018-10-12T21:14:29Z</time>
      </trkpt>
      <trkpt lat="38.19315291" lon="-2.55082301">
        <ele>890.00000</ele>
        <time>2018-10-12T21:14:33Z</time>
      </trkpt>
      <trkpt lat="38.19312692" lon="-2.55089686">
        <ele>891.00000</ele>
        <time>2018-10-12T21:14:34Z</time>
      </trkpt>
      <trkpt lat="38.19301863" lon="-2.55138058">
        <ele>892.00000</ele>
        <time>2018-10-12T21:14:41Z</time>
      </trkpt>
      <trkpt lat="38.19299088" lon="-2.55150346">
        <ele>892.00000</ele>
        <time>2018-10-12T21:14:43Z</time>
      </trkpt>
      <trkpt lat="38.19292265" lon="-2.55169146">
        <ele>892.00000</ele>
        <time>2018-10-12T21:14:47Z</time>
      </trkpt>
      <trkpt lat="38.19269400" lon="-2.55218147">
        <ele>891.00000</ele>
        <time>2018-10-12T21:14:54Z</time>
      </trkpt>
      <trkpt lat="38.19267279" lon="-2.55230929">
        <ele>891.00000</ele>
        <time>2018-10-12T21:14:57Z</time>
      </trkpt>
      <trkpt lat="38.19265150" lon="-2.55243745">
        <ele>891.00000</ele>
        <time>2018-10-12T21:15:00Z</time>
      </trkpt>
      <trkpt lat="38.19258361" lon="-2.55261758">
        <ele>891.00000</ele>
        <time>2018-10-12T21:15:02Z</time>
      </trkpt>
      <trkpt lat="38.19232603" lon="-2.55282285">
        <ele>891.00000</ele>
        <time>2018-10-12T21:15:07Z</time>
      </trkpt>
      <trkpt lat="38.19212168" lon="-2.55296065">
        <ele>891.00000</ele>
        <time>2018-10-12T21:15:11Z</time>
      </trkpt>
      <trkpt lat="38.19203107" lon="-2.55304187">
        <ele>891.00000</ele>
        <time>2018-10-12T21:15:13Z</time>
      </trkpt>
      <trkpt lat="38.19194767" lon="-2.55315964">
        <ele>891.00000</ele>
        <time>2018-10-12T21:15:15Z</time>
      </trkpt>
      <trkpt lat="38.19191280" lon="-2.55321772">
        <ele>891.00000</ele>
        <time>2018-10-12T21:15:16Z</time>
      </trkpt>
      <trkpt lat="38.19164760" lon="-2.55353800">
        <ele>890.00000</ele>
        <time>2018-10-12T21:15:23Z</time>
      </trkpt>
      <trkpt lat="38.19118500" lon="-2.55401015">
        <ele>889.00000</ele>
        <time>2018-10-12T21:15:33Z</time>
      </trkpt>
      <trkpt lat="38.19095961" lon="-2.55418315">
        <ele>888.00000</ele>
        <time>2018-10-12T21:15:37Z</time>
      </trkpt>
      <trkpt lat="38.19074369" lon="-2.55428038">
        <ele>887.00000</ele>
        <time>2018-10-12T21:15:40Z</time>
      </trkpt>
      <trkpt lat="38.19059902" lon="-2.55432656">
        <ele>887.00000</ele>
        <time>2018-10-12T21:15:42Z</time>
      </trkpt>
      <trkpt lat="38.19052845" lon="-2.55434844">
        <ele>887.00000</ele>
        <time>2018-10-12T21:15:43Z</time>
      </trkpt>
      <trkpt lat="38.19046366" lon="-2.55437116">
        <ele>887.00000</ele>
        <time>2018-10-12T21:15:44Z</time>
      </trkpt>
      <trkpt lat="38.19012536" lon="-2.55448339">
        <ele>886.00000</ele>
        <time>2018-10-12T21:15:49Z</time>
      </trkpt>
      <trkpt lat="38.18986569" lon="-2.55456218">
        <ele>885.00000</ele>
        <time>2018-10-12T21:15:53Z</time>
      </trkpt>
      <trkpt lat="38.18956252" lon="-2.55464005">
        <ele>885.00000</ele>
        <time>2018-10-12T21:15:58Z</time>
      </trkpt>
      <trkpt lat="38.18939672" lon="-2.55470417">
        <ele>885.00000</ele>
        <time>2018-10-12T21:16:01Z</time>
      </trkpt>
      <trkpt lat="38.18935867" lon="-2.55474474">
        <ele>885.00000</ele>
        <time>2018-10-12T21:16:02Z</time>
      </trkpt>
      <trkpt lat="38.18929648" lon="-2.55484029">
        <ele>885.00000</ele>
        <time>2018-10-12T21:16:04Z</time>
      </trkpt>
      <trkpt lat="38.18924300" lon="-2.55495940">
        <ele>885.00000</ele>
        <time>2018-10-12T21:16:06Z</time>
      </trkpt>
      <trkpt lat="38.18910034" lon="-2.55522737">
        <ele>885.00000</ele>
        <time>2018-10-12T21:16:11Z</time>
      </trkpt>
      <trkpt lat="38.18905994" lon="-2.55534337">
        <ele>885.00000</ele>
        <time>2018-10-12T21:16:13Z</time>
      </trkpt>
      <trkpt lat="38.18905374" lon="-2.55554462">
        <ele>886.00000</ele>
        <time>2018-10-12T21:16:16Z</time>
      </trkpt>
      <trkpt lat="38.18906279" lon="-2.55567354">
        <ele>886.00000</ele>
        <time>2018-10-12T21:16:18Z</time>
      </trkpt>
      <trkpt lat="38.18907109" lon="-2.55585978">
        <ele>886.00000</ele>
        <time>2018-10-12T21:16:21Z</time>
      </trkpt>
      <trkpt lat="38.18908659" lon="-2.55598358">
        <ele>886.00000</ele>
        <time>2018-10-12T21:16:23Z</time>
      </trkpt>
      <trkpt lat="38.18915851" lon="-2.55628986">
        <ele>887.00000</ele>
        <time>2018-10-12T21:16:28Z</time>
      </trkpt>
      <trkpt lat="38.18927150" lon="-2.55643931">
        <ele>888.00000</ele>
        <time>2018-10-12T21:16:32Z</time>
      </trkpt>
      <trkpt lat="38.18940661" lon="-2.55657618">
        <ele>888.00000</ele>
        <time>2018-10-12T21:16:36Z</time>
      </trkpt>
      <trkpt lat="38.18960342" lon="-2.55671197">
        <ele>889.00000</ele>
        <time>2018-10-12T21:16:41Z</time>
      </trkpt>
      <trkpt lat="38.18967324" lon="-2.55677224">
        <ele>889.00000</ele>
        <time>2018-10-12T21:16:43Z</time>
      </trkpt>
      <trkpt lat="38.18982060" lon="-2.55686586">
        <ele>891.00000</ele>
        <time>2018-10-12T21:16:48Z</time>
      </trkpt>
      <trkpt lat="38.18992529" lon="-2.55696846">
        <ele>892.00000</ele>
        <time>2018-10-12T21:16:52Z</time>
      </trkpt>
      <trkpt lat="38.18995621" lon="-2.55713878">
        <ele>892.00000</ele>
        <time>2018-10-12T21:16:54Z</time>
      </trkpt>
      <trkpt lat="38.18998413" lon="-2.55726023">
        <ele>892.00000</ele>
        <time>2018-10-12T21:16:56Z</time>
      </trkpt>
      <trkpt lat="38.19005831" lon="-2.55759174">
        <ele>893.00000</ele>
        <time>2018-10-12T21:17:01Z</time>
      </trkpt>
      <trkpt lat="38.19036928" lon="-2.55817880">
        <ele>894.00000</ele>
        <time>2018-10-12T21:17:13Z</time>
      </trkpt>
      <trkpt lat="38.19047715" lon="-2.55835298">
        <ele>895.00000</ele>
        <time>2018-10-12T21:17:17Z</time>
      </trkpt>
      <trkpt lat="38.19069307" lon="-2.55840377">
        <ele>895.00000</ele>
        <time>2018-10-12T21:17:23Z</time>
      </trkpt>
      <trkpt lat="38.19074034" lon="-2.55842825">
        <ele>896.00000</ele>
        <time>2018-10-12T21:17:24Z</time>
      </trkpt>
      <trkpt lat="38.19082215" lon="-2.55850142">
        <ele>896.00000</ele>
        <time>2018-10-12T21:17:26Z</time>
      </trkpt>
      <trkpt lat="38.19098585" lon="-2.55874031">
        <ele>897.00000</ele>
        <time>2018-10-12T21:17:32Z</time>
      </trkpt>
      <trkpt lat="38.19099624" lon="-2.55887459">
        <ele>897.00000</ele>
        <time>2018-10-12T21:17:35Z</time>
      </trkpt>
      <trkpt lat="38.19096892" lon="-2.55895094">
        <ele>897.00000</ele>
        <time>2018-10-12T21:17:36Z</time>
      </trkpt>
      <trkpt lat="38.19079558" lon="-2.55916452">
        <ele>897.00000</ele>
        <time>2018-10-12T21:17:40Z</time>
      </trkpt>
      <trkpt lat="38.19043985" lon="-2.55909796">
        <ele>897.00000</ele>
        <time>2018-10-12T21:17:46Z</time>
      </trkpt>
      <trkpt lat="38.19039283" lon="-2.55905102">
        <ele>897.00000</ele>
        <time>2018-10-12T21:17:47Z</time>
      </trkpt>
      <trkpt lat="38.19034220" lon="-2.55901305">
        <ele>897.00000</ele>
        <time>2018-10-12T21:17:48Z</time>
      </trkpt>
      <trkpt lat="38.18998496" lon="-2.55886495">
        <ele>896.00000</ele>
        <time>2018-10-12T21:17:54Z</time>
      </trkpt>
      <trkpt lat="38.18988933" lon="-2.55876235">
        <ele>896.00000</ele>
        <time>2018-10-12T21:17:56Z</time>
      </trkpt>
      <trkpt lat="38.18985261" lon="-2.55869957">
        <ele>896.00000</ele>
        <time>2018-10-12T21:17:57Z</time>
      </trkpt>
      <trkpt lat="38.18979436" lon="-2.55856873">
        <ele>896.00000</ele>
        <time>2018-10-12T21:17:59Z</time>
      </trkpt>
      <trkpt lat="38.18965648" lon="-2.55832054">
        <ele>895.00000</ele>
        <time>2018-10-12T21:18:03Z</time>
      </trkpt>
      <trkpt lat="38.18951021" lon="-2.55817352">
        <ele>895.00000</ele>
        <time>2018-10-12T21:18:06Z</time>
      </trkpt>
      <trkpt lat="38.18942145" lon="-2.55807193">
        <ele>895.00000</ele>
        <time>2018-10-12T21:18:08Z</time>
      </trkpt>
      <trkpt lat="38.18917418" lon="-2.55757958">
        <ele>894.00000</ele>
        <time>2018-10-12T21:18:16Z</time>
      </trkpt>
      <trkpt lat="38.18905851" lon="-2.55744413">
        <ele>894.00000</ele>
        <time>2018-10-12T21:18:19Z</time>
      </trkpt>
      <trkpt lat="38.18884746" lon="-2.55735352">
        <ele>894.00000</ele>
        <time>2018-10-12T21:18:23Z</time>
      </trkpt>
      <trkpt lat="38.18879675" lon="-2.55731983">
        <ele>894.00000</ele>
        <time>2018-10-12T21:18:24Z</time>
      </trkpt>
      <trkpt lat="38.18851335" lon="-2.55704876">
        <ele>894.00000</ele>
        <time>2018-10-12T21:18:30Z</time>
      </trkpt>
      <trkpt lat="38.18830045" lon="-2.55705932">
        <ele>894.00000</ele>
        <time>2018-10-12T21:18:34Z</time>
      </trkpt>
      <trkpt lat="38.18818185" lon="-2.55724347">
        <ele>894.00000</ele>
        <time>2018-10-12T21:18:37Z</time>
      </trkpt>
      <trkpt lat="38.18800264" lon="-2.55755536">
        <ele>893.00000</ele>
        <time>2018-10-12T21:18:42Z</time>
      </trkpt>
      <trkpt lat="38.18779285" lon="-2.55798208">
        <ele>893.00000</ele>
        <time>2018-10-12T21:18:49Z</time>
      </trkpt>
      <trkpt lat="38.18757567" lon="-2.55827955">
        <ele>893.00000</ele>
        <time>2018-10-12T21:18:54Z</time>
      </trkpt>
      <trkpt lat="38.18736964" lon="-2.55836832">
        <ele>893.00000</ele>
        <time>2018-10-12T21:18:58Z</time>
      </trkpt>
      <trkpt lat="38.18720569" lon="-2.55842071">
        <ele>893.00000</ele>
        <time>2018-10-12T21:19:02Z</time>
      </trkpt>
      <trkpt lat="38.18713679" lon="-2.55845214">
        <ele>893.00000</ele>
        <time>2018-10-12T21:19:04Z</time>
      </trkpt>
      <trkpt lat="38.18707619" lon="-2.55849145">
        <ele>894.00000</ele>
        <time>2018-10-12T21:19:06Z</time>
      </trkpt>
      <trkpt lat="38.18699908" lon="-2.55850377">
        <ele>895.00000</ele>
        <time>2018-10-12T21:19:08Z</time>
      </trkpt>
      <trkpt lat="38.18686589" lon="-2.55847309">
        <ele>897.00000</ele>
        <time>2018-10-12T21:19:11Z</time>
      </trkpt>
      <trkpt lat="38.18672658" lon="-2.55843437">
        <ele>898.00000</ele>
        <time>2018-10-12T21:19:14Z</time>
      </trkpt>
      <trkpt lat="38.18658904" lon="-2.55845448">
        <ele>900.00000</ele>
        <time>2018-10-12T21:19:17Z</time>
      </trkpt>
      <trkpt lat="38.18635619" lon="-2.55877031">
        <ele>900.00000</ele>
        <time>2018-10-12T21:19:24Z</time>
      </trkpt>
      <trkpt lat="38.18623322" lon="-2.55908430">
        <ele>899.00000</ele>
        <time>2018-10-12T21:19:30Z</time>
      </trkpt>
      <trkpt lat="38.18619106" lon="-2.55920534">
        <ele>898.00000</ele>
        <time>2018-10-12T21:19:32Z</time>
      </trkpt>
      <trkpt lat="38.18614555" lon="-2.55932738">
        <ele>897.00000</ele>
        <time>2018-10-12T21:19:34Z</time>
      </trkpt>
      <trkpt lat="38.18611328" lon="-2.55947322">
        <ele>896.00000</ele>
        <time>2018-10-12T21:19:36Z</time>
      </trkpt>
      <trkpt lat="38.18610305" lon="-2.55956274">
        <ele>896.00000</ele>
        <time>2018-10-12T21:19:37Z</time>
      </trkpt>
      <trkpt lat="38.18612166" lon="-2.55975091">
        <ele>895.00000</ele>
        <time>2018-10-12T21:19:39Z</time>
      </trkpt>
      <trkpt lat="38.18616726" lon="-2.55994336">
        <ele>894.00000</ele>
        <time>2018-10-12T21:19:41Z</time>
      </trkpt>
      <trkpt lat="38.18621948" lon="-2.56011620">
        <ele>894.00000</ele>
        <time>2018-10-12T21:19:43Z</time>
      </trkpt>
      <trkpt lat="38.18624613" lon="-2.56032843">
        <ele>893.00000</ele>
        <time>2018-10-12T21:19:45Z</time>
      </trkpt>
      <trkpt lat="38.18626994" lon="-2.56051685">
        <ele>892.00000</ele>
        <time>2018-10-12T21:19:47Z</time>
      </trkpt>
      <trkpt lat="38.18628368" lon="-2.56061349">
        <ele>891.00000</ele>
        <time>2018-10-12T21:19:48Z</time>
      </trkpt>
      <trkpt lat="38.18630548" lon="-2.56079446">
        <ele>891.00000</ele>
        <time>2018-10-12T21:19:50Z</time>
      </trkpt>
      <trkpt lat="38.18630648" lon="-2.56088951">
        <ele>891.00000</ele>
        <time>2018-10-12T21:19:51Z</time>
      </trkpt>
      <trkpt lat="38.18621160" lon="-2.56120492">
        <ele>891.00000</ele>
        <time>2018-10-12T21:19:55Z</time>
      </trkpt>
      <trkpt lat="38.18616785" lon="-2.56138488">
        <ele>891.00000</ele>
        <time>2018-10-12T21:19:57Z</time>
      </trkpt>
      <trkpt lat="38.18612770" lon="-2.56164539">
        <ele>891.00000</ele>
        <time>2018-10-12T21:20:00Z</time>
      </trkpt>
      <trkpt lat="38.18602871" lon="-2.56214613">
        <ele>892.00000</ele>
        <time>2018-10-12T21:20:07Z</time>
      </trkpt>
      <trkpt lat="38.18600432" lon="-2.56220270">
        <ele>893.00000</ele>
        <time>2018-10-12T21:20:08Z</time>
      </trkpt>
      <trkpt lat="38.18587314" lon="-2.56238744">
        <ele>894.00000</ele>
        <time>2018-10-12T21:20:12Z</time>
      </trkpt>
      <trkpt lat="38.18575328" lon="-2.56254913">
        <ele>895.00000</ele>
        <time>2018-10-12T21:20:16Z</time>
      </trkpt>
      <trkpt lat="38.18564197" lon="-2.56269933">
        <ele>896.00000</ele>
        <time>2018-10-12T21:20:20Z</time>
      </trkpt>
      <trkpt lat="38.18558690" lon="-2.56279438">
        <ele>896.00000</ele>
        <time>2018-10-12T21:20:22Z</time>
      </trkpt>
      <trkpt lat="38.18545849" lon="-2.56302740">
        <ele>897.00000</ele>
        <time>2018-10-12T21:20:28Z</time>
      </trkpt>
      <trkpt lat="38.18542446" lon="-2.56304081">
        <ele>897.00000</ele>
        <time>2018-10-12T21:20:29Z</time>
      </trkpt>
      <trkpt lat="38.18538833" lon="-2.56308356">
        <ele>897.00000</ele>
        <time>2018-10-12T21:20:31Z</time>
      </trkpt>
      <trkpt lat="38.18519840" lon="-2.56313494">
        <ele>898.00000</ele>
        <time>2018-10-12T21:20:34Z</time>
      </trkpt>
      <trkpt lat="38.18499564" lon="-2.56319646">
        <ele>899.00000</ele>
        <time>2018-10-12T21:20:38Z</time>
      </trkpt>
      <trkpt lat="38.18491073" lon="-2.56322538">
        <ele>900.00000</ele>
        <time>2018-10-12T21:20:40Z</time>
      </trkpt>
      <trkpt lat="38.18486563" lon="-2.56324575">
        <ele>901.00000</ele>
        <time>2018-10-12T21:20:41Z</time>
      </trkpt>
      <trkpt lat="38.18467847" lon="-2.56330979">
        <ele>902.00000</ele>
        <time>2018-10-12T21:20:45Z</time>
      </trkpt>
      <trkpt lat="38.18463932" lon="-2.56332429">
        <ele>902.00000</ele>
        <time>2018-10-12T21:20:46Z</time>
      </trkpt>
      <trkpt lat="38.18450077" lon="-2.56336997">
        <ele>903.00000</ele>
        <time>2018-10-12T21:20:51Z</time>
      </trkpt>
      <trkpt lat="38.18442491" lon="-2.56343023">
        <ele>905.00000</ele>
        <time>2018-10-12T21:20:56Z</time>
      </trkpt>
      <trkpt lat="38.18437177" lon="-2.56346133">
        <ele>906.00000</ele>
        <time>2018-10-12T21:20:59Z</time>
      </trkpt>
      <trkpt lat="38.18427915" lon="-2.56358094">
        <ele>907.00000</ele>
        <time>2018-10-12T21:21:06Z</time>
      </trkpt>
      <trkpt lat="38.18423615" lon="-2.56372955">
        <ele>907.00000</ele>
        <time>2018-10-12T21:21:12Z</time>
      </trkpt>
      <trkpt lat="38.18423288" lon="-2.56382427">
        <ele>908.00000</ele>
        <time>2018-10-12T21:21:15Z</time>
      </trkpt>
      <trkpt lat="38.18408863" lon="-2.56412426">
        <ele>909.00000</ele>
        <time>2018-10-12T21:21:24Z</time>
      </trkpt>
      <trkpt lat="38.18384958" lon="-2.56405963">
        <ele>910.00000</ele>
        <time>2018-10-12T21:21:33Z</time>
      </trkpt>
      <trkpt lat="38.18377121" lon="-2.56396416">
        <ele>912.00000</ele>
        <time>2018-10-12T21:21:38Z</time>
      </trkpt>
      <trkpt lat="38.18373207" lon="-2.56386584">
        <ele>913.00000</ele>
        <time>2018-10-12T21:21:42Z</time>
      </trkpt>
      <trkpt lat="38.18366526" lon="-2.56373533">
        <ele>914.00000</ele>
        <time>2018-10-12T21:21:47Z</time>
      </trkpt>
      <trkpt lat="38.18359812" lon="-2.56357549">
        <ele>915.00000</ele>
        <time>2018-10-12T21:21:52Z</time>
      </trkpt>
      <trkpt lat="38.18352319" lon="-2.56344088">
        <ele>916.00000</ele>
        <time>2018-10-12T21:21:58Z</time>
      </trkpt>
      <trkpt lat="38.18345244" lon="-2.56337215">
        <ele>917.00000</ele>
        <time>2018-10-12T21:22:03Z</time>
      </trkpt>
      <trkpt lat="38.18332839" lon="-2.56331792">
        <ele>918.00000</ele>
        <time>2018-10-12T21:22:11Z</time>
      </trkpt>
      <trkpt lat="38.18320937" lon="-2.56329922">
        <ele>919.00000</ele>
        <time>2018-10-12T21:22:16Z</time>
      </trkpt>
      <trkpt lat="38.18308255" lon="-2.56323250">
        <ele>920.00000</ele>
        <time>2018-10-12T21:22:22Z</time>
      </trkpt>
      <trkpt lat="38.18293335" lon="-2.56318842">
        <ele>922.00000</ele>
        <time>2018-10-12T21:22:28Z</time>
      </trkpt>
      <trkpt lat="38.18280008" lon="-2.56316662">
        <ele>923.00000</ele>
        <time>2018-10-12T21:22:34Z</time>
      </trkpt>
      <trkpt lat="38.18266781" lon="-2.56315103">
        <ele>924.00000</ele>
        <time>2018-10-12T21:22:40Z</time>
      </trkpt>
      <trkpt lat="38.18252415" lon="-2.56315078">
        <ele>925.00000</ele>
        <time>2018-10-12T21:22:47Z</time>
      </trkpt>
      <trkpt lat="38.18238224" lon="-2.56316134">
        <ele>926.00000</ele>
        <time>2018-10-12T21:22:52Z</time>
      </trkpt>
      <trkpt lat="38.18224738" lon="-2.56313343">
        <ele>927.00000</ele>
        <time>2018-10-12T21:22:58Z</time>
      </trkpt>
      <trkpt lat="38.18216172" lon="-2.56309613">
        <ele>928.00000</ele>
        <time>2018-10-12T21:23:02Z</time>
      </trkpt>
      <trkpt lat="38.18202576" lon="-2.56299052">
        <ele>929.00000</ele>
        <time>2018-10-12T21:23:08Z</time>
      </trkpt>
      <trkpt lat="38.18188008" lon="-2.56290779">
        <ele>930.00000</ele>
        <time>2018-10-12T21:23:14Z</time>
      </trkpt>
      <trkpt lat="38.18185100" lon="-2.56290125">
        <ele>930.00000</ele>
        <time>2018-10-12T21:23:15Z</time>
      </trkpt>
      <trkpt lat="38.18156610" lon="-2.56297040">
        <ele>931.00000</ele>
        <time>2018-10-12T21:23:24Z</time>
      </trkpt>
      <trkpt lat="38.18138052" lon="-2.56308984">
        <ele>932.00000</ele>
        <time>2018-10-12T21:23:31Z</time>
      </trkpt>
      <trkpt lat="38.18130198" lon="-2.56314952">
        <ele>932.00000</ele>
        <time>2018-10-12T21:23:34Z</time>
      </trkpt>
      <trkpt lat="38.18116033" lon="-2.56315145">
        <ele>932.00000</ele>
        <time>2018-10-12T21:23:38Z</time>
      </trkpt>
      <trkpt lat="38.18103728" lon="-2.56296227">
        <ele>932.00000</ele>
        <time>2018-10-12T21:23:42Z</time>
      </trkpt>
      <trkpt lat="38.18095464" lon="-2.56266647">
        <ele>932.00000</ele>
        <time>2018-10-12T21:23:47Z</time>
      </trkpt>
      <trkpt lat="38.18091575" lon="-2.56257737">
        <ele>932.00000</ele>
        <time>2018-10-12T21:23:49Z</time>
      </trkpt>
      <trkpt lat="38.18073042" lon="-2.56238417">
        <ele>932.00000</ele>
        <time>2018-10-12T21:23:55Z</time>
      </trkpt>
      <trkpt lat="38.18064652" lon="-2.56237210">
        <ele>932.00000</ele>
        <time>2018-10-12T21:23:57Z</time>
      </trkpt>
      <trkpt lat="38.18039347" lon="-2.56241016">
        <ele>931.00000</ele>
        <time>2018-10-12T21:24:02Z</time>
      </trkpt>
      <trkpt lat="38.18026514" lon="-2.56241602">
        <ele>931.00000</ele>
        <time>2018-10-12T21:24:04Z</time>
      </trkpt>
      <trkpt lat="38.18014562" lon="-2.56244645">
        <ele>930.00000</ele>
        <time>2018-10-12T21:24:06Z</time>
      </trkpt>
      <trkpt lat="38.18008250" lon="-2.56244016">
        <ele>930.00000</ele>
        <time>2018-10-12T21:24:07Z</time>
      </trkpt>
      <trkpt lat="38.18002961" lon="-2.56242684">
        <ele>930.00000</ele>
        <time>2018-10-12T21:24:08Z</time>
      </trkpt>
      <trkpt lat="38.17985921" lon="-2.56224134">
        <ele>929.00000</ele>
        <time>2018-10-12T21:24:11Z</time>
      </trkpt>
      <trkpt lat="38.17964304" lon="-2.56198544">
        <ele>928.00000</ele>
        <time>2018-10-12T21:24:15Z</time>
      </trkpt>
      <trkpt lat="38.17944631" lon="-2.56182828">
        <ele>926.00000</ele>
        <time>2018-10-12T21:24:19Z</time>
      </trkpt>
      <trkpt lat="38.17929678" lon="-2.56158806">
        <ele>925.00000</ele>
        <time>2018-10-12T21:24:27Z</time>
      </trkpt>
      <trkpt lat="38.17923140" lon="-2.56143953">
        <ele>925.00000</ele>
        <time>2018-10-12T21:24:30Z</time>
      </trkpt>
      <trkpt lat="38.17909285" lon="-2.56126519">
        <ele>925.00000</ele>
        <time>2018-10-12T21:24:33Z</time>
      </trkpt>
      <trkpt lat="38.17904323" lon="-2.56121858">
        <ele>925.00000</ele>
        <time>2018-10-12T21:24:34Z</time>
      </trkpt>
      <trkpt lat="38.17895002" lon="-2.56113066">
        <ele>924.00000</ele>
        <time>2018-10-12T21:24:36Z</time>
      </trkpt>
      <trkpt lat="38.17891415" lon="-2.56109302">
        <ele>924.00000</ele>
        <time>2018-10-12T21:24:37Z</time>
      </trkpt>
      <trkpt lat="38.17886754" lon="-2.56101742">
        <ele>922.00000</ele>
        <time>2018-10-12T21:24:39Z</time>
      </trkpt>
      <trkpt lat="38.17885757" lon="-2.56093301">
        <ele>920.00000</ele>
        <time>2018-10-12T21:24:41Z</time>
      </trkpt>
      <trkpt lat="38.17886654" lon="-2.56083386">
        <ele>919.00000</ele>
        <time>2018-10-12T21:24:43Z</time>
      </trkpt>
      <trkpt lat="38.17889009" lon="-2.56069421">
        <ele>918.00000</ele>
        <time>2018-10-12T21:24:46Z</time>
      </trkpt>
      <trkpt lat="38.17891222" lon="-2.56056555">
        <ele>918.00000</ele>
        <time>2018-10-12T21:24:49Z</time>
      </trkpt>
      <trkpt lat="38.17891113" lon="-2.56050344">
        <ele>918.00000</ele>
        <time>2018-10-12T21:24:51Z</time>
      </trkpt>
      <trkpt lat="38.17892010" lon="-2.56043865">
        <ele>918.00000</ele>
        <time>2018-10-12T21:24:53Z</time>
      </trkpt>
      <trkpt lat="38.17895002" lon="-2.56038065">
        <ele>918.00000</ele>
        <time>2018-10-12T21:24:55Z</time>
      </trkpt>
      <trkpt lat="38.17897517" lon="-2.56035374">
        <ele>918.00000</ele>
        <time>2018-10-12T21:24:56Z</time>
      </trkpt>
      <trkpt lat="38.17904834" lon="-2.56033346">
        <ele>919.00000</ele>
        <time>2018-10-12T21:24:58Z</time>
      </trkpt>
      <trkpt lat="38.17912948" lon="-2.56032583">
        <ele>920.00000</ele>
        <time>2018-10-12T21:25:00Z</time>
      </trkpt>
      <trkpt lat="38.17916778" lon="-2.56032231">
        <ele>920.00000</ele>
        <time>2018-10-12T21:25:01Z</time>
      </trkpt>
      <trkpt lat="38.17923928" lon="-2.56031183">
        <ele>921.00000</ele>
        <time>2018-10-12T21:25:03Z</time>
      </trkpt>
      <trkpt lat="38.17931195" lon="-2.56020588">
        <ele>909.00000</ele>
        <time>2018-10-13T07:13:48Z</time>
      </trkpt>
      <trkpt lat="38.17926610" lon="-2.56019926">
        <ele>909.00000</ele>
        <time>2018-10-13T07:13:49Z</time>
      </trkpt>
      <trkpt lat="38.17921162" lon="-2.56019163">
        <ele>909.00000</ele>
        <time>2018-10-13T07:13:50Z</time>
      </trkpt>
      <trkpt lat="38.17916301" lon="-2.56019113">
        <ele>909.00000</ele>
        <time>2018-10-13T07:13:51Z</time>
      </trkpt>
      <trkpt lat="38.17912219" lon="-2.56019901">
        <ele>908.00000</ele>
        <time>2018-10-13T07:13:52Z</time>
      </trkpt>
      <trkpt lat="38.17904465" lon="-2.56024109">
        <ele>908.00000</ele>
        <time>2018-10-13T07:13:54Z</time>
      </trkpt>
      <trkpt lat="38.17900174" lon="-2.56032616">
        <ele>907.00000</ele>
        <time>2018-10-13T07:13:56Z</time>
      </trkpt>
      <trkpt lat="38.17897609" lon="-2.56048710">
        <ele>905.00000</ele>
        <time>2018-10-13T07:13:59Z</time>
      </trkpt>
      <trkpt lat="38.17906008" lon="-2.56094383">
        <ele>906.00000</ele>
        <time>2018-10-13T07:14:10Z</time>
      </trkpt>
      <trkpt lat="38.17913828" lon="-2.56097258">
        <ele>906.00000</ele>
        <time>2018-10-13T07:14:13Z</time>
      </trkpt>
      <trkpt lat="38.17917969" lon="-2.56100066">
        <ele>906.00000</ele>
        <time>2018-10-13T07:14:15Z</time>
      </trkpt>
      <trkpt lat="38.17923828" lon="-2.56104676">
        <ele>906.00000</ele>
        <time>2018-10-13T07:14:18Z</time>
      </trkpt>
      <trkpt lat="38.17927532" lon="-2.56106821">
        <ele>906.00000</ele>
        <time>2018-10-13T07:14:20Z</time>
      </trkpt>
      <trkpt lat="38.17932545" lon="-2.56115178">
        <ele>908.00000</ele>
        <time>2018-10-13T07:14:24Z</time>
      </trkpt>
      <trkpt lat="38.17937825" lon="-2.56121062">
        <ele>908.00000</ele>
        <time>2018-10-13T07:14:29Z</time>
      </trkpt>
      <trkpt lat="38.17928639" lon="-2.56156694">
        <ele>909.00000</ele>
        <time>2018-10-13T07:14:32Z</time>
      </trkpt>
      <trkpt lat="38.17929075" lon="-2.56158043">
        <ele>909.00000</ele>
        <time>2018-10-13T07:14:33Z</time>
      </trkpt>
      <trkpt lat="38.17927599" lon="-2.56163366">
        <ele>911.00000</ele>
        <time>2018-10-13T07:14:37Z</time>
      </trkpt>
      <trkpt lat="38.17922813" lon="-2.56166576">
        <ele>912.00000</ele>
        <time>2018-10-13T07:14:41Z</time>
      </trkpt>
      <trkpt lat="38.17892999" lon="-2.56174564">
        <ele>912.00000</ele>
        <time>2018-10-13T07:14:51Z</time>
      </trkpt>
      <trkpt lat="38.17861290" lon="-2.56174757">
        <ele>911.00000</ele>
        <time>2018-10-13T07:14:58Z</time>
      </trkpt>
      <trkpt lat="38.17841576" lon="-2.56177145">
        <ele>910.00000</ele>
        <time>2018-10-13T07:15:02Z</time>
      </trkpt>
      <trkpt lat="38.17837100" lon="-2.56177355">
        <ele>910.00000</ele>
        <time>2018-10-13T07:15:03Z</time>
      </trkpt>
      <trkpt lat="38.17828224" lon="-2.56177749">
        <ele>910.00000</ele>
        <time>2018-10-13T07:15:05Z</time>
      </trkpt>
      <trkpt lat="38.17823790" lon="-2.56177665">
        <ele>910.00000</ele>
        <time>2018-10-13T07:15:06Z</time>
      </trkpt>
      <trkpt lat="38.17815081" lon="-2.56177732">
        <ele>909.00000</ele>
        <time>2018-10-13T07:15:08Z</time>
      </trkpt>
      <trkpt lat="38.17786322" lon="-2.56176592">
        <ele>908.00000</ele>
        <time>2018-10-13T07:15:16Z</time>
      </trkpt>
      <trkpt lat="38.17755787" lon="-2.56170482">
        <ele>909.00000</ele>
        <time>2018-10-13T07:15:24Z</time>
      </trkpt>
      <trkpt lat="38.17710684" lon="-2.56168973">
        <ele>910.00000</ele>
        <time>2018-10-13T07:15:37Z</time>
      </trkpt>
      <trkpt lat="38.17655288" lon="-2.56171974">
        <ele>910.00000</ele>
        <time>2018-10-13T07:15:52Z</time>
      </trkpt>
      <trkpt lat="38.17640947" lon="-2.56178185">
        <ele>910.00000</ele>
        <time>2018-10-13T07:15:56Z</time>
      </trkpt>
      <trkpt lat="38.17601703" lon="-2.56214143">
        <ele>911.00000</ele>
        <time>2018-10-13T07:16:09Z</time>
      </trkpt>
      <trkpt lat="38.17578988" lon="-2.56217077">
        <ele>911.00000</ele>
        <time>2018-10-13T07:16:16Z</time>
      </trkpt>
      <trkpt lat="38.17531806" lon="-2.56211964">
        <ele>912.00000</ele>
        <time>2018-10-13T07:16:28Z</time>
      </trkpt>
      <trkpt lat="38.17525997" lon="-2.56210757">
        <ele>912.00000</ele>
        <time>2018-10-13T07:16:29Z</time>
      </trkpt>
      <trkpt lat="38.17484222" lon="-2.56218770">
        <ele>912.00000</ele>
        <time>2018-10-13T07:16:40Z</time>
      </trkpt>
      <trkpt lat="38.17435347" lon="-2.56236095">
        <ele>913.00000</ele>
        <time>2018-10-13T07:16:53Z</time>
      </trkpt>
      <trkpt lat="38.17416873" lon="-2.56241686">
        <ele>913.00000</ele>
        <time>2018-10-13T07:16:58Z</time>
      </trkpt>
      <trkpt lat="38.17409900" lon="-2.56244067">
        <ele>913.00000</ele>
        <time>2018-10-13T07:17:00Z</time>
      </trkpt>
      <trkpt lat="38.17391183" lon="-2.56247101">
        <ele>912.00000</ele>
        <time>2018-10-13T07:17:05Z</time>
      </trkpt>
      <trkpt lat="38.17335401" lon="-2.56248744">
        <ele>912.00000</ele>
        <time>2018-10-13T07:17:20Z</time>
      </trkpt>
      <trkpt lat="38.17293416" lon="-2.56272934">
        <ele>912.00000</ele>
        <time>2018-10-13T07:17:32Z</time>
      </trkpt>
      <trkpt lat="38.17284473" lon="-2.56281349">
        <ele>913.00000</ele>
        <time>2018-10-13T07:17:35Z</time>
      </trkpt>
      <trkpt lat="38.17273509" lon="-2.56297862">
        <ele>913.00000</ele>
        <time>2018-10-13T07:17:40Z</time>
      </trkpt>
      <trkpt lat="38.17261808" lon="-2.56320090">
        <ele>914.00000</ele>
        <time>2018-10-13T07:17:46Z</time>
      </trkpt>
      <trkpt lat="38.17253745" lon="-2.56332613">
        <ele>914.00000</ele>
        <time>2018-10-13T07:17:50Z</time>
      </trkpt>
      <trkpt lat="38.17244156" lon="-2.56342554">
        <ele>915.00000</ele>
        <time>2018-10-13T07:17:54Z</time>
      </trkpt>
      <trkpt lat="38.17237987" lon="-2.56349762">
        <ele>915.00000</ele>
        <time>2018-10-13T07:17:57Z</time>
      </trkpt>
      <trkpt lat="38.17225682" lon="-2.56360810">
        <ele>916.00000</ele>
        <time>2018-10-13T07:18:02Z</time>
      </trkpt>
      <trkpt lat="38.17213545" lon="-2.56370742">
        <ele>917.00000</ele>
        <time>2018-10-13T07:18:10Z</time>
      </trkpt>
      <trkpt lat="38.17210259" lon="-2.56376476">
        <ele>917.00000</ele>
        <time>2018-10-13T07:18:14Z</time>
      </trkpt>
      <trkpt lat="38.17211315" lon="-2.56375545">
        <ele>917.00000</ele>
        <time>2018-10-13T07:18:16Z</time>
      </trkpt>
      <trkpt lat="38.17199137" lon="-2.56382075">
        <ele>917.00000</ele>
        <time>2018-10-13T07:28:34Z</time>
      </trkpt>
      <trkpt lat="38.17196957" lon="-2.56384380">
        <ele>917.00000</ele>
        <time>2018-10-13T07:28:35Z</time>
      </trkpt>
      <trkpt lat="38.17191735" lon="-2.56389602">
        <ele>918.00000</ele>
        <time>2018-10-13T07:28:37Z</time>
      </trkpt>
      <trkpt lat="38.17184091" lon="-2.56397187">
        <ele>918.00000</ele>
        <time>2018-10-13T07:28:40Z</time>
      </trkpt>
      <trkpt lat="38.17164980" lon="-2.56419684">
        <ele>918.00000</ele>
        <time>2018-10-13T07:28:49Z</time>
      </trkpt>
      <trkpt lat="38.17139105" lon="-2.56461912">
        <ele>919.00000</ele>
        <time>2018-10-13T07:29:02Z</time>
      </trkpt>
      <trkpt lat="38.17108000" lon="-2.56505020">
        <ele>918.00000</ele>
        <time>2018-10-13T07:29:13Z</time>
      </trkpt>
      <trkpt lat="38.17078186" lon="-2.56562219">
        <ele>917.00000</ele>
        <time>2018-10-13T07:29:25Z</time>
      </trkpt>
      <trkpt lat="38.17074246" lon="-2.56573149">
        <ele>917.00000</ele>
        <time>2018-10-13T07:29:27Z</time>
      </trkpt>
      <trkpt lat="38.17066133" lon="-2.56595796">
        <ele>916.00000</ele>
        <time>2018-10-13T07:29:31Z</time>
      </trkpt>
      <trkpt lat="38.17034952" lon="-2.56650027">
        <ele>916.00000</ele>
        <time>2018-10-13T07:29:41Z</time>
      </trkpt>
      <trkpt lat="38.17026419" lon="-2.56666330">
        <ele>915.00000</ele>
        <time>2018-10-13T07:29:44Z</time>
      </trkpt>
      <trkpt lat="38.17023368" lon="-2.56671192">
        <ele>915.00000</ele>
        <time>2018-10-13T07:29:45Z</time>
      </trkpt>
      <trkpt lat="38.17003562" lon="-2.56690453">
        <ele>915.00000</ele>
        <time>2018-10-13T07:29:50Z</time>
      </trkpt>
      <trkpt lat="38.16985356" lon="-2.56704770">
        <ele>915.00000</ele>
        <time>2018-10-13T07:29:55Z</time>
      </trkpt>
      <trkpt lat="38.16976052" lon="-2.56721341">
        <ele>916.00000</ele>
        <time>2018-10-13T07:29:59Z</time>
      </trkpt>
      <trkpt lat="38.16971182" lon="-2.56734525">
        <ele>916.00000</ele>
        <time>2018-10-13T07:30:02Z</time>
      </trkpt>
      <trkpt lat="38.16969749" lon="-2.56739336">
        <ele>916.00000</ele>
        <time>2018-10-13T07:30:03Z</time>
      </trkpt>
      <trkpt lat="38.16968550" lon="-2.56744441">
        <ele>916.00000</ele>
        <time>2018-10-13T07:30:04Z</time>
      </trkpt>
      <trkpt lat="38.16954435" lon="-2.56787004">
        <ele>917.00000</ele>
        <time>2018-10-13T07:30:13Z</time>
      </trkpt>
      <trkpt lat="38.16944955" lon="-2.56815318">
        <ele>917.00000</ele>
        <time>2018-10-13T07:30:19Z</time>
      </trkpt>
      <trkpt lat="38.16938292" lon="-2.56850874">
        <ele>918.00000</ele>
        <time>2018-10-13T07:30:26Z</time>
      </trkpt>
      <trkpt lat="38.16938200" lon="-2.56866607">
        <ele>918.00000</ele>
        <time>2018-10-13T07:30:29Z</time>
      </trkpt>
      <trkpt lat="38.16954997" lon="-2.56916932">
        <ele>919.00000</ele>
        <time>2018-10-13T07:30:39Z</time>
      </trkpt>
      <trkpt lat="38.16959783" lon="-2.56932280">
        <ele>919.00000</ele>
        <time>2018-10-13T07:30:42Z</time>
      </trkpt>
      <trkpt lat="38.16958995" lon="-2.56989846">
        <ele>920.00000</ele>
        <time>2018-10-13T07:30:52Z</time>
      </trkpt>
      <trkpt lat="38.16951652" lon="-2.57041638">
        <ele>921.00000</ele>
        <time>2018-10-13T07:31:02Z</time>
      </trkpt>
      <trkpt lat="38.16944042" lon="-2.57071712">
        <ele>921.00000</ele>
        <time>2018-10-13T07:31:07Z</time>
      </trkpt>
      <trkpt lat="38.16929616" lon="-2.57095794">
        <ele>922.00000</ele>
        <time>2018-10-13T07:31:12Z</time>
      </trkpt>
      <trkpt lat="38.16926599" lon="-2.57098912">
        <ele>922.00000</ele>
        <time>2018-10-13T07:31:13Z</time>
      </trkpt>
      <trkpt lat="38.16908737" lon="-2.57114586">
        <ele>923.00000</ele>
        <time>2018-10-13T07:31:19Z</time>
      </trkpt>
      <trkpt lat="38.16897388" lon="-2.57127025">
        <ele>924.00000</ele>
        <time>2018-10-13T07:31:23Z</time>
      </trkpt>
      <trkpt lat="38.16892728" lon="-2.57133831">
        <ele>924.00000</ele>
        <time>2018-10-13T07:31:25Z</time>
      </trkpt>
      <trkpt lat="38.16883181" lon="-2.57153872">
        <ele>925.00000</ele>
        <time>2018-10-13T07:31:30Z</time>
      </trkpt>
      <trkpt lat="38.16880507" lon="-2.57164014">
        <ele>925.00000</ele>
        <time>2018-10-13T07:31:32Z</time>
      </trkpt>
      <trkpt lat="38.16880675" lon="-2.57188037">
        <ele>925.00000</ele>
        <time>2018-10-13T07:31:36Z</time>
      </trkpt>
      <trkpt lat="38.16887665" lon="-2.57232209">
        <ele>925.00000</ele>
        <time>2018-10-13T07:31:43Z</time>
      </trkpt>
      <trkpt lat="38.16889610" lon="-2.57260389">
        <ele>924.00000</ele>
        <time>2018-10-13T07:31:47Z</time>
      </trkpt>
      <trkpt lat="38.16886944" lon="-2.57291461">
        <ele>923.00000</ele>
        <time>2018-10-13T07:31:51Z</time>
      </trkpt>
      <trkpt lat="38.16884907" lon="-2.57315433">
        <ele>923.00000</ele>
        <time>2018-10-13T07:31:54Z</time>
      </trkpt>
      <trkpt lat="38.16880105" lon="-2.57337938">
        <ele>923.00000</ele>
        <time>2018-10-13T07:31:57Z</time>
      </trkpt>
      <trkpt lat="38.16873977" lon="-2.57351484">
        <ele>922.00000</ele>
        <time>2018-10-13T07:31:59Z</time>
      </trkpt>
      <trkpt lat="38.16866476" lon="-2.57364685">
        <ele>922.00000</ele>
        <time>2018-10-13T07:32:01Z</time>
      </trkpt>
      <trkpt lat="38.16849988" lon="-2.57396151">
        <ele>921.00000</ele>
        <time>2018-10-13T07:32:06Z</time>
      </trkpt>
      <trkpt lat="38.16822429" lon="-2.57418564">
        <ele>921.00000</ele>
        <time>2018-10-13T07:32:12Z</time>
      </trkpt>
      <trkpt lat="38.16792790" lon="-2.57438329">
        <ele>921.00000</ele>
        <time>2018-10-13T07:32:18Z</time>
      </trkpt>
      <trkpt lat="38.16788205" lon="-2.57442268">
        <ele>921.00000</ele>
        <time>2018-10-13T07:32:19Z</time>
      </trkpt>
      <trkpt lat="38.16775850" lon="-2.57455377">
        <ele>921.00000</ele>
        <time>2018-10-13T07:32:22Z</time>
      </trkpt>
      <trkpt lat="38.16735668" lon="-2.57499206">
        <ele>921.00000</ele>
        <time>2018-10-13T07:32:32Z</time>
      </trkpt>
      <trkpt lat="38.16693490" lon="-2.57525609">
        <ele>922.00000</ele>
        <time>2018-10-13T07:32:41Z</time>
      </trkpt>
      <trkpt lat="38.16680724" lon="-2.57538769">
        <ele>921.00000</ele>
        <time>2018-10-13T07:32:44Z</time>
      </trkpt>
      <trkpt lat="38.16667414" lon="-2.57551048">
        <ele>921.00000</ele>
        <time>2018-10-13T07:32:47Z</time>
      </trkpt>
      <trkpt lat="38.16647029" lon="-2.57572263">
        <ele>922.00000</ele>
        <time>2018-10-13T07:32:52Z</time>
      </trkpt>
      <trkpt lat="38.16628564" lon="-2.57602681">
        <ele>922.00000</ele>
        <time>2018-10-13T07:32:58Z</time>
      </trkpt>
      <trkpt lat="38.16618363" lon="-2.57623493">
        <ele>922.00000</ele>
        <time>2018-10-13T07:33:02Z</time>
      </trkpt>
      <trkpt lat="38.16613635" lon="-2.57634113">
        <ele>922.00000</ele>
        <time>2018-10-13T07:33:04Z</time>
      </trkpt>
      <trkpt lat="38.16590309" lon="-2.57689610">
        <ele>924.00000</ele>
        <time>2018-10-13T07:33:15Z</time>
      </trkpt>
      <trkpt lat="38.16582916" lon="-2.57709089">
        <ele>924.00000</ele>
        <time>2018-10-13T07:33:19Z</time>
      </trkpt>
      <trkpt lat="38.16580326" lon="-2.57720095">
        <ele>925.00000</ele>
        <time>2018-10-13T07:33:21Z</time>
      </trkpt>
      <trkpt lat="38.16563059" lon="-2.57773295">
        <ele>926.00000</ele>
        <time>2018-10-13T07:33:31Z</time>
      </trkpt>
      <trkpt lat="38.16547703" lon="-2.57796521">
        <ele>927.00000</ele>
        <time>2018-10-13T07:33:37Z</time>
      </trkpt>
      <trkpt lat="38.16545105" lon="-2.57800142">
        <ele>927.00000</ele>
        <time>2018-10-13T07:33:38Z</time>
      </trkpt>
      <trkpt lat="38.16535575" lon="-2.57813586">
        <ele>928.00000</ele>
        <time>2018-10-13T07:33:42Z</time>
      </trkpt>
      <trkpt lat="38.16523798" lon="-2.57829269">
        <ele>929.00000</ele>
        <time>2018-10-13T07:33:47Z</time>
      </trkpt>
      <trkpt lat="38.16509004" lon="-2.57846930">
        <ele>930.00000</ele>
        <time>2018-10-13T07:33:53Z</time>
      </trkpt>
      <trkpt lat="38.16493531" lon="-2.57868320">
        <ele>931.00000</ele>
        <time>2018-10-13T07:33:59Z</time>
      </trkpt>
      <trkpt lat="38.16471395" lon="-2.57908629">
        <ele>932.00000</ele>
        <time>2018-10-13T07:34:09Z</time>
      </trkpt>
      <trkpt lat="38.16461487" lon="-2.57952441">
        <ele>933.00000</ele>
        <time>2018-10-13T07:34:17Z</time>
      </trkpt>
      <trkpt lat="38.16453197" lon="-2.57977779">
        <ele>933.00000</ele>
        <time>2018-10-13T07:34:22Z</time>
      </trkpt>
      <trkpt lat="38.16433542" lon="-2.58008700">
        <ele>932.00000</ele>
        <time>2018-10-13T07:34:29Z</time>
      </trkpt>
      <trkpt lat="38.16401917" lon="-2.58055807">
        <ele>932.00000</ele>
        <time>2018-10-13T07:34:39Z</time>
      </trkpt>
      <trkpt lat="38.16398950" lon="-2.58059721">
        <ele>932.00000</ele>
        <time>2018-10-13T07:34:40Z</time>
      </trkpt>
      <trkpt lat="38.16370208" lon="-2.58089276">
        <ele>932.00000</ele>
        <time>2018-10-13T07:34:48Z</time>
      </trkpt>
      <trkpt lat="38.16361927" lon="-2.58096056">
        <ele>932.00000</ele>
        <time>2018-10-13T07:34:50Z</time>
      </trkpt>
      <trkpt lat="38.16338533" lon="-2.58117481">
        <ele>932.00000</ele>
        <time>2018-10-13T07:34:56Z</time>
      </trkpt>
      <trkpt lat="38.16320395" lon="-2.58149667">
        <ele>933.00000</ele>
        <time>2018-10-13T07:35:03Z</time>
      </trkpt>
      <trkpt lat="38.16304544" lon="-2.58183429">
        <ele>934.00000</ele>
        <time>2018-10-13T07:35:10Z</time>
      </trkpt>
      <trkpt lat="38.16300454" lon="-2.58187545">
        <ele>934.00000</ele>
        <time>2018-10-13T07:35:11Z</time>
      </trkpt>
      <trkpt lat="38.16274864" lon="-2.58217955">
        <ele>935.00000</ele>
        <time>2018-10-13T07:35:19Z</time>
      </trkpt>
      <trkpt lat="38.16267144" lon="-2.58240535">
        <ele>935.00000</ele>
        <time>2018-10-13T07:35:24Z</time>
      </trkpt>
      <trkpt lat="38.16262551" lon="-2.58268757">
        <ele>935.00000</ele>
        <time>2018-10-13T07:35:30Z</time>
      </trkpt>
      <trkpt lat="38.16257832" lon="-2.58282277">
        <ele>936.00000</ele>
        <time>2018-10-13T07:35:33Z</time>
      </trkpt>
      <trkpt lat="38.16246701" lon="-2.58305948">
        <ele>937.00000</ele>
        <time>2018-10-13T07:35:39Z</time>
      </trkpt>
      <trkpt lat="38.16234162" lon="-2.58330691">
        <ele>938.00000</ele>
        <time>2018-10-13T07:35:46Z</time>
      </trkpt>
      <trkpt lat="38.16226433" lon="-2.58348159">
        <ele>939.00000</ele>
        <time>2018-10-13T07:35:51Z</time>
      </trkpt>
      <trkpt lat="38.16218186" lon="-2.58362132">
        <ele>940.00000</ele>
        <time>2018-10-13T07:35:56Z</time>
      </trkpt>
      <trkpt lat="38.16205202" lon="-2.58378971">
        <ele>941.00000</ele>
        <time>2018-10-13T07:36:02Z</time>
      </trkpt>
      <trkpt lat="38.16190098" lon="-2.58393564">
        <ele>942.00000</ele>
        <time>2018-10-13T07:36:08Z</time>
      </trkpt>
      <trkpt lat="38.16172437" lon="-2.58409607">
        <ele>943.00000</ele>
        <time>2018-10-13T07:36:14Z</time>
      </trkpt>
      <trkpt lat="38.16141500" lon="-2.58423797">
        <ele>944.00000</ele>
        <time>2018-10-13T07:36:25Z</time>
      </trkpt>
      <trkpt lat="38.16126186" lon="-2.58429111">
        <ele>945.00000</ele>
        <time>2018-10-13T07:36:30Z</time>
      </trkpt>
      <trkpt lat="38.16101426" lon="-2.58437016">
        <ele>947.00000</ele>
        <time>2018-10-13T07:36:37Z</time>
      </trkpt>
      <trkpt lat="38.16080211" lon="-2.58462664">
        <ele>948.00000</ele>
        <time>2018-10-13T07:36:46Z</time>
      </trkpt>
      <trkpt lat="38.16077470" lon="-2.58478908">
        <ele>948.00000</ele>
        <time>2018-10-13T07:36:50Z</time>
      </trkpt>
      <trkpt lat="38.16073782" lon="-2.58502604">
        <ele>948.00000</ele>
        <time>2018-10-13T07:36:56Z</time>
      </trkpt>
      <trkpt lat="38.16050598" lon="-2.58554848">
        <ele>948.00000</ele>
        <time>2018-10-13T07:37:08Z</time>
      </trkpt>
      <trkpt lat="38.16044010" lon="-2.58591771">
        <ele>948.00000</ele>
        <time>2018-10-13T07:37:14Z</time>
      </trkpt>
      <trkpt lat="38.16044923" lon="-2.58605031">
        <ele>947.00000</ele>
        <time>2018-10-13T07:37:16Z</time>
      </trkpt>
      <trkpt lat="38.16047589" lon="-2.58618090">
        <ele>947.00000</ele>
        <time>2018-10-13T07:37:18Z</time>
      </trkpt>
      <trkpt lat="38.16049609" lon="-2.58624309">
        <ele>947.00000</ele>
        <time>2018-10-13T07:37:19Z</time>
      </trkpt>
      <trkpt lat="38.16063866" lon="-2.58669823">
        <ele>946.00000</ele>
        <time>2018-10-13T07:37:25Z</time>
      </trkpt>
      <trkpt lat="38.16068443" lon="-2.58685950">
        <ele>946.00000</ele>
        <time>2018-10-13T07:37:27Z</time>
      </trkpt>
      <trkpt lat="38.16071528" lon="-2.58712009">
        <ele>945.00000</ele>
        <time>2018-10-13T07:37:30Z</time>
      </trkpt>
      <trkpt lat="38.16070907" lon="-2.58730617">
        <ele>944.00000</ele>
        <time>2018-10-13T07:37:32Z</time>
      </trkpt>
      <trkpt lat="38.16069683" lon="-2.58740264">
        <ele>944.00000</ele>
        <time>2018-10-13T07:37:33Z</time>
      </trkpt>
      <trkpt lat="38.16065811" lon="-2.58759669">
        <ele>943.00000</ele>
        <time>2018-10-13T07:37:35Z</time>
      </trkpt>
      <trkpt lat="38.16063221" lon="-2.58769425">
        <ele>943.00000</ele>
        <time>2018-10-13T07:37:36Z</time>
      </trkpt>
      <trkpt lat="38.16052350" lon="-2.58807320">
        <ele>941.00000</ele>
        <time>2018-10-13T07:37:40Z</time>
      </trkpt>
      <trkpt lat="38.16038100" lon="-2.58845583">
        <ele>940.00000</ele>
        <time>2018-10-13T07:37:44Z</time>
      </trkpt>
      <trkpt lat="38.16019518" lon="-2.58880804">
        <ele>939.00000</ele>
        <time>2018-10-13T07:37:48Z</time>
      </trkpt>
      <trkpt lat="38.16006149" lon="-2.58907349">
        <ele>938.00000</ele>
        <time>2018-10-13T07:37:51Z</time>
      </trkpt>
      <trkpt lat="38.15990667" lon="-2.58940919">
        <ele>936.00000</ele>
        <time>2018-10-13T07:37:55Z</time>
      </trkpt>
      <trkpt lat="38.15974591" lon="-2.58978394">
        <ele>936.00000</ele>
        <time>2018-10-13T07:38:00Z</time>
      </trkpt>
      <trkpt lat="38.15969763" lon="-2.59001797">
        <ele>936.00000</ele>
        <time>2018-10-13T07:38:03Z</time>
      </trkpt>
      <trkpt lat="38.15967600" lon="-2.59016389">
        <ele>936.00000</ele>
        <time>2018-10-13T07:38:05Z</time>
      </trkpt>
      <trkpt lat="38.15967005" lon="-2.59076982">
        <ele>937.00000</ele>
        <time>2018-10-13T07:38:14Z</time>
      </trkpt>
      <trkpt lat="38.15967500" lon="-2.59101809">
        <ele>937.00000</ele>
        <time>2018-10-13T07:38:18Z</time>
      </trkpt>
      <trkpt lat="38.15972261" lon="-2.59146510">
        <ele>938.00000</ele>
        <time>2018-10-13T07:38:25Z</time>
      </trkpt>
      <trkpt lat="38.15982361" lon="-2.59173567">
        <ele>938.00000</ele>
        <time>2018-10-13T07:38:30Z</time>
      </trkpt>
      <trkpt lat="38.15993526" lon="-2.59199031">
        <ele>938.00000</ele>
        <time>2018-10-13T07:38:35Z</time>
      </trkpt>
      <trkpt lat="38.15999854" lon="-2.59208679">
        <ele>939.00000</ele>
        <time>2018-10-13T07:38:37Z</time>
      </trkpt>
      <trkpt lat="38.16005009" lon="-2.59217790">
        <ele>939.00000</ele>
        <time>2018-10-13T07:38:39Z</time>
      </trkpt>
      <trkpt lat="38.16007448" lon="-2.59222366">
        <ele>939.00000</ele>
        <time>2018-10-13T07:38:40Z</time>
      </trkpt>
      <trkpt lat="38.16015654" lon="-2.59236708">
        <ele>939.00000</ele>
        <time>2018-10-13T07:38:43Z</time>
      </trkpt>
      <trkpt lat="38.16042476" lon="-2.59277234">
        <ele>939.00000</ele>
        <time>2018-10-13T07:38:52Z</time>
      </trkpt>
      <trkpt lat="38.16074889" lon="-2.59336830">
        <ele>940.00000</ele>
        <time>2018-10-13T07:39:04Z</time>
      </trkpt>
      <trkpt lat="38.16082935" lon="-2.59352269">
        <ele>940.00000</ele>
        <time>2018-10-13T07:39:07Z</time>
      </trkpt>
      <trkpt lat="38.16096598" lon="-2.59385269">
        <ele>941.00000</ele>
        <time>2018-10-13T07:39:14Z</time>
      </trkpt>
      <trkpt lat="38.16113102" lon="-2.59413130">
        <ele>942.00000</ele>
        <time>2018-10-13T07:39:20Z</time>
      </trkpt>
      <trkpt lat="38.16136755" lon="-2.59461100">
        <ele>943.00000</ele>
        <time>2018-10-13T07:39:30Z</time>
      </trkpt>
      <trkpt lat="38.16169269" lon="-2.59516663">
        <ele>944.00000</ele>
        <time>2018-10-13T07:39:43Z</time>
      </trkpt>
      <trkpt lat="38.16186024" lon="-2.59540962">
        <ele>944.00000</ele>
        <time>2018-10-13T07:39:49Z</time>
      </trkpt>
      <trkpt lat="38.16205831" lon="-2.59588823">
        <ele>945.00000</ele>
        <time>2018-10-13T07:39:59Z</time>
      </trkpt>
      <trkpt lat="38.16216258" lon="-2.59610071">
        <ele>946.00000</ele>
        <time>2018-10-13T07:40:04Z</time>
      </trkpt>
      <trkpt lat="38.16229543" lon="-2.59646306">
        <ele>947.00000</ele>
        <time>2018-10-13T07:40:12Z</time>
      </trkpt>
      <trkpt lat="38.16238185" lon="-2.59691619">
        <ele>948.00000</ele>
        <time>2018-10-13T07:40:21Z</time>
      </trkpt>
      <trkpt lat="38.16254496" lon="-2.59735146">
        <ele>949.00000</ele>
        <time>2018-10-13T07:40:30Z</time>
      </trkpt>
      <trkpt lat="38.16275082" lon="-2.59768556">
        <ele>950.00000</ele>
        <time>2018-10-13T07:40:38Z</time>
      </trkpt>
      <trkpt lat="38.16289264" lon="-2.59797876">
        <ele>951.00000</ele>
        <time>2018-10-13T07:40:44Z</time>
      </trkpt>
      <trkpt lat="38.16295584" lon="-2.59810399">
        <ele>951.00000</ele>
        <time>2018-10-13T07:40:47Z</time>
      </trkpt>
      <trkpt lat="38.16310252" lon="-2.59831488">
        <ele>951.00000</ele>
        <time>2018-10-13T07:40:52Z</time>
      </trkpt>
      <trkpt lat="38.16325063" lon="-2.59847665">
        <ele>951.00000</ele>
        <time>2018-10-13T07:40:56Z</time>
      </trkpt>
      <trkpt lat="38.16341785" lon="-2.59876398">
        <ele>951.00000</ele>
        <time>2018-10-13T07:41:02Z</time>
      </trkpt>
      <trkpt lat="38.16356638" lon="-2.59894017">
        <ele>951.00000</ele>
        <time>2018-10-13T07:41:06Z</time>
      </trkpt>
      <trkpt lat="38.16395044" lon="-2.59927041">
        <ele>951.00000</ele>
        <time>2018-10-13T07:41:16Z</time>
      </trkpt>
      <trkpt lat="38.16426560" lon="-2.59984491">
        <ele>951.00000</ele>
        <time>2018-10-13T07:41:27Z</time>
      </trkpt>
      <trkpt lat="38.16460431" lon="-2.60044807">
        <ele>951.00000</ele>
        <time>2018-10-13T07:41:38Z</time>
      </trkpt>
      <trkpt lat="38.16474429" lon="-2.60085627">
        <ele>951.00000</ele>
        <time>2018-10-13T07:41:44Z</time>
      </trkpt>
      <trkpt lat="38.16466106" lon="-2.60155876">
        <ele>951.00000</ele>
        <time>2018-10-13T07:41:54Z</time>
      </trkpt>
      <trkpt lat="38.16460414" lon="-2.60182371">
        <ele>951.00000</ele>
        <time>2018-10-13T07:41:58Z</time>
      </trkpt>
      <trkpt lat="38.16458872" lon="-2.60195849">
        <ele>952.00000</ele>
        <time>2018-10-13T07:42:00Z</time>
      </trkpt>
      <trkpt lat="38.16458679" lon="-2.60202546">
        <ele>952.00000</ele>
        <time>2018-10-13T07:42:01Z</time>
      </trkpt>
      <trkpt lat="38.16467070" lon="-2.60245973">
        <ele>952.00000</ele>
        <time>2018-10-13T07:42:08Z</time>
      </trkpt>
      <trkpt lat="38.16473515" lon="-2.60266710">
        <ele>952.00000</ele>
        <time>2018-10-13T07:42:12Z</time>
      </trkpt>
      <trkpt lat="38.16477807" lon="-2.60276055">
        <ele>953.00000</ele>
        <time>2018-10-13T07:42:14Z</time>
      </trkpt>
      <trkpt lat="38.16480673" lon="-2.60280020">
        <ele>953.00000</ele>
        <time>2018-10-13T07:42:15Z</time>
      </trkpt>
      <trkpt lat="38.16491846" lon="-2.60297815">
        <ele>954.00000</ele>
        <time>2018-10-13T07:42:20Z</time>
      </trkpt>
      <trkpt lat="38.16504243" lon="-2.60312215">
        <ele>955.00000</ele>
        <time>2018-10-13T07:42:25Z</time>
      </trkpt>
      <trkpt lat="38.16512105" lon="-2.60321854">
        <ele>956.00000</ele>
        <time>2018-10-13T07:42:28Z</time>
      </trkpt>
      <trkpt lat="38.16517788" lon="-2.60339825">
        <ele>957.00000</ele>
        <time>2018-10-13T07:42:34Z</time>
      </trkpt>
      <trkpt lat="38.16517948" lon="-2.60340747">
        <ele>958.00000</ele>
        <time>2018-10-13T07:42:36Z</time>
      </trkpt>
      <trkpt lat="38.16524058" lon="-2.60359623">
        <ele>960.00000</ele>
        <time>2018-10-13T07:43:00Z</time>
      </trkpt>
      <trkpt lat="38.16536656" lon="-2.60380754">
        <ele>961.00000</ele>
        <time>2018-10-13T07:43:08Z</time>
      </trkpt>
      <trkpt lat="38.16538743" lon="-2.60386428">
        <ele>961.00000</ele>
        <time>2018-10-13T07:43:10Z</time>
      </trkpt>
      <trkpt lat="38.16547435" lon="-2.60404198">
        <ele>962.00000</ele>
        <time>2018-10-13T07:43:16Z</time>
      </trkpt>
      <trkpt lat="38.16557183" lon="-2.60421054">
        <ele>963.00000</ele>
        <time>2018-10-13T07:43:22Z</time>
      </trkpt>
      <trkpt lat="38.16564090" lon="-2.60429947">
        <ele>964.00000</ele>
        <time>2018-10-13T07:43:26Z</time>
      </trkpt>
      <trkpt lat="38.16573595" lon="-2.60441405">
        <ele>966.00000</ele>
        <time>2018-10-13T07:43:31Z</time>
      </trkpt>
      <trkpt lat="38.16584777" lon="-2.60450567">
        <ele>967.00000</ele>
        <time>2018-10-13T07:43:36Z</time>
      </trkpt>
      <trkpt lat="38.16592966" lon="-2.60456057">
        <ele>968.00000</ele>
        <time>2018-10-13T07:43:40Z</time>
      </trkpt>
      <trkpt lat="38.16604281" lon="-2.60464263">
        <ele>969.00000</ele>
        <time>2018-10-13T07:43:45Z</time>
      </trkpt>
      <trkpt lat="38.16614893" lon="-2.60473432">
        <ele>989.00000</ele>
        <time>2018-10-13T07:43:50Z</time>
      </trkpt>
      <trkpt lat="38.16627751" lon="-2.60480490">
        <ele>971.00000</ele>
        <time>2018-10-13T07:43:55Z</time>
      </trkpt>
      <trkpt lat="38.16638731" lon="-2.60489014">
        <ele>972.00000</ele>
        <time>2018-10-13T07:44:00Z</time>
      </trkpt>
      <trkpt lat="38.16647280" lon="-2.60496592">
        <ele>973.00000</ele>
        <time>2018-10-13T07:44:05Z</time>
      </trkpt>
      <trkpt lat="38.16657263" lon="-2.60501688">
        <ele>974.00000</ele>
        <time>2018-10-13T07:44:10Z</time>
      </trkpt>
      <trkpt lat="38.16672728" lon="-2.60507044">
        <ele>975.00000</ele>
        <time>2018-10-13T07:44:15Z</time>
      </trkpt>
      <trkpt lat="38.16690816" lon="-2.60509894">
        <ele>976.00000</ele>
        <time>2018-10-13T07:44:20Z</time>
      </trkpt>
      <trkpt lat="38.16715920" lon="-2.60512517">
        <ele>976.00000</ele>
        <time>2018-10-13T07:44:27Z</time>
      </trkpt>
      <trkpt lat="38.16744594" lon="-2.60514395">
        <ele>977.00000</ele>
        <time>2018-10-13T07:44:35Z</time>
      </trkpt>
      <trkpt lat="38.16778080" lon="-2.60513758">
        <ele>977.00000</ele>
        <time>2018-10-13T07:44:44Z</time>
      </trkpt>
      <trkpt lat="38.16795975" lon="-2.60513766">
        <ele>977.00000</ele>
        <time>2018-10-13T07:44:49Z</time>
      </trkpt>
      <trkpt lat="38.16807224" lon="-2.60513875">
        <ele>977.00000</ele>
        <time>2018-10-13T07:44:52Z</time>
      </trkpt>
      <trkpt lat="38.16819612" lon="-2.60514252">
        <ele>977.00000</ele>
        <time>2018-10-13T07:44:55Z</time>
      </trkpt>
      <trkpt lat="38.16824625" lon="-2.60514747">
        <ele>977.00000</ele>
        <time>2018-10-13T07:44:56Z</time>
      </trkpt>
      <trkpt lat="38.16833568" lon="-2.60515702">
        <ele>977.00000</ele>
        <time>2018-10-13T07:44:58Z</time>
      </trkpt>
      <trkpt lat="38.16842252" lon="-2.60515945">
        <ele>977.00000</ele>
        <time>2018-10-13T07:45:00Z</time>
      </trkpt>
      <trkpt lat="38.16853911" lon="-2.60516717">
        <ele>976.00000</ele>
        <time>2018-10-13T07:45:03Z</time>
      </trkpt>
      <trkpt lat="38.16865847" lon="-2.60516951">
        <ele>976.00000</ele>
        <time>2018-10-13T07:45:06Z</time>
      </trkpt>
      <trkpt lat="38.16874723" lon="-2.60518720">
        <ele>976.00000</ele>
        <time>2018-10-13T07:45:08Z</time>
      </trkpt>
      <trkpt lat="38.16892577" lon="-2.60529390">
        <ele>976.00000</ele>
        <time>2018-10-13T07:45:12Z</time>
      </trkpt>
      <trkpt lat="38.16916759" lon="-2.60541955">
        <ele>975.00000</ele>
        <time>2018-10-13T07:45:16Z</time>
      </trkpt>
      <trkpt lat="38.16929642" lon="-2.60547051">
        <ele>975.00000</ele>
        <time>2018-10-13T07:45:18Z</time>
      </trkpt>
      <trkpt lat="38.16952424" lon="-2.60549657">
        <ele>975.00000</ele>
        <time>2018-10-13T07:45:22Z</time>
      </trkpt>
      <trkpt lat="38.16962767" lon="-2.60549356">
        <ele>975.00000</ele>
        <time>2018-10-13T07:45:24Z</time>
      </trkpt>
      <trkpt lat="38.16968081" lon="-2.60549012">
        <ele>975.00000</ele>
        <time>2018-10-13T07:45:25Z</time>
      </trkpt>
      <trkpt lat="38.16982565" lon="-2.60546841">
        <ele>974.00000</ele>
        <time>2018-10-13T07:45:28Z</time>
      </trkpt>
      <trkpt lat="38.16987317" lon="-2.60546053">
        <ele>973.00000</ele>
        <time>2018-10-13T07:45:29Z</time>
      </trkpt>
      <trkpt lat="38.17031515" lon="-2.60534143">
        <ele>973.00000</ele>
        <time>2018-10-13T07:45:38Z</time>
      </trkpt>
      <trkpt lat="38.17042370" lon="-2.60533682">
        <ele>973.00000</ele>
        <time>2018-10-13T07:45:40Z</time>
      </trkpt>
      <trkpt lat="38.17059888" lon="-2.60533338">
        <ele>974.00000</ele>
        <time>2018-10-13T07:45:44Z</time>
      </trkpt>
      <trkpt lat="38.17067675" lon="-2.60533279">
        <ele>974.00000</ele>
        <time>2018-10-13T07:45:46Z</time>
      </trkpt>
      <trkpt lat="38.17088965" lon="-2.60531879">
        <ele>976.00000</ele>
        <time>2018-10-13T07:45:52Z</time>
      </trkpt>
      <trkpt lat="38.17105519" lon="-2.60530932">
        <ele>977.00000</ele>
        <time>2018-10-13T07:45:58Z</time>
      </trkpt>
      <trkpt lat="38.17118712" lon="-2.60528711">
        <ele>978.00000</ele>
        <time>2018-10-13T07:46:03Z</time>
      </trkpt>
      <trkpt lat="38.17121344" lon="-2.60527948">
        <ele>978.00000</ele>
        <time>2018-10-13T07:46:04Z</time>
      </trkpt>
      <trkpt lat="38.17144596" lon="-2.60520681">
        <ele>979.00000</ele>
        <time>2018-10-13T07:46:11Z</time>
      </trkpt>
      <trkpt lat="38.17171493" lon="-2.60511361">
        <ele>980.00000</ele>
        <time>2018-10-13T07:46:18Z</time>
      </trkpt>
      <trkpt lat="38.17188860" lon="-2.60501713">
        <ele>981.00000</ele>
        <time>2018-10-13T07:46:25Z</time>
      </trkpt>
      <trkpt lat="38.17205867" lon="-2.60492024">
        <ele>982.00000</ele>
        <time>2018-10-13T07:46:31Z</time>
      </trkpt>
      <trkpt lat="38.17223327" lon="-2.60481630">
        <ele>983.00000</ele>
        <time>2018-10-13T07:46:37Z</time>
      </trkpt>
      <trkpt lat="38.17239479" lon="-2.60471832">
        <ele>984.00000</ele>
        <time>2018-10-13T07:46:43Z</time>
      </trkpt>
      <trkpt lat="38.17262814" lon="-2.60463668">
        <ele>985.00000</ele>
        <time>2018-10-13T07:46:50Z</time>
      </trkpt>
      <trkpt lat="38.17290231" lon="-2.60459552">
        <ele>986.00000</ele>
        <time>2018-10-13T07:46:57Z</time>
      </trkpt>
      <trkpt lat="38.17311538" lon="-2.60449418">
        <ele>987.00000</ele>
        <time>2018-10-13T07:47:04Z</time>
      </trkpt>
      <trkpt lat="38.17325360" lon="-2.60428279">
        <ele>988.00000</ele>
        <time>2018-10-13T07:47:11Z</time>
      </trkpt>
      <trkpt lat="38.17337321" lon="-2.60409009">
        <ele>990.00000</ele>
        <time>2018-10-13T07:47:17Z</time>
      </trkpt>
      <trkpt lat="38.17356306" lon="-2.60385531">
        <ele>991.00000</ele>
        <time>2018-10-13T07:47:25Z</time>
      </trkpt>
      <trkpt lat="38.17370790" lon="-2.60367116">
        <ele>992.00000</ele>
        <time>2018-10-13T07:47:31Z</time>
      </trkpt>
      <trkpt lat="38.17384033" lon="-2.60345214">
        <ele>993.00000</ele>
        <time>2018-10-13T07:47:38Z</time>
      </trkpt>
      <trkpt lat="38.17392591" lon="-2.60320454">
        <ele>994.00000</ele>
        <time>2018-10-13T07:47:45Z</time>
      </trkpt>
      <trkpt lat="38.17400034" lon="-2.60304990">
        <ele>995.00000</ele>
        <time>2018-10-13T07:47:50Z</time>
      </trkpt>
      <trkpt lat="38.17403395" lon="-2.60286021">
        <ele>996.00000</ele>
        <time>2018-10-13T07:47:55Z</time>
      </trkpt>
      <trkpt lat="38.17403010" lon="-2.60260540">
        <ele>997.00000</ele>
        <time>2018-10-13T07:48:02Z</time>
      </trkpt>
      <trkpt lat="38.17396514" lon="-2.60246400">
        <ele>998.00000</ele>
        <time>2018-10-13T07:48:07Z</time>
      </trkpt>
      <trkpt lat="38.17387461" lon="-2.60232436">
        <ele>999.00000</ele>
        <time>2018-10-13T07:48:13Z</time>
      </trkpt>
      <trkpt lat="38.17382340" lon="-2.60218899">
        <ele>1000.0000</ele>
        <time>2018-10-13T07:48:18Z</time>
      </trkpt>
      <trkpt lat="38.17382013" lon="-2.60196721">
        <ele>1001.0000</ele>
        <time>2018-10-13T07:48:24Z</time>
      </trkpt>
      <trkpt lat="38.17389406" lon="-2.60167401">
        <ele>1001.0000</ele>
        <time>2018-10-13T07:48:30Z</time>
      </trkpt>
      <trkpt lat="38.17416622" lon="-2.60140336">
        <ele>1001.0000</ele>
        <time>2018-10-13T07:48:38Z</time>
      </trkpt>
      <trkpt lat="38.17460719" lon="-2.60160360">
        <ele>1002.0000</ele>
        <time>2018-10-13T07:48:50Z</time>
      </trkpt>
      <trkpt lat="38.17476184" lon="-2.60173436">
        <ele>1003.0000</ele>
        <time>2018-10-13T07:48:56Z</time>
      </trkpt>
      <trkpt lat="38.17485219" lon="-2.60179772">
        <ele>1004.0000</ele>
        <time>2018-10-13T07:49:00Z</time>
      </trkpt>
      <trkpt lat="38.17494842" lon="-2.60185363">
        <ele>1005.0000</ele>
        <time>2018-10-13T07:49:04Z</time>
      </trkpt>
      <trkpt lat="38.17502260" lon="-2.60194659">
        <ele>1006.0000</ele>
        <time>2018-10-13T07:49:08Z</time>
      </trkpt>
      <trkpt lat="38.17512092" lon="-2.60205647">
        <ele>1007.0000</ele>
        <time>2018-10-13T07:49:12Z</time>
      </trkpt>
      <trkpt lat="38.17517062" lon="-2.60217424">
        <ele>1008.0000</ele>
        <time>2018-10-13T07:49:17Z</time>
      </trkpt>
      <trkpt lat="38.17520616" lon="-2.60223819">
        <ele>1010.0000</ele>
        <time>2018-10-13T07:49:20Z</time>
      </trkpt>
      <trkpt lat="38.17528361" lon="-2.60231061">
        <ele>1011.0000</ele>
        <time>2018-10-13T07:49:24Z</time>
      </trkpt>
      <trkpt lat="38.17531563" lon="-2.60233459">
        <ele>1011.0000</ele>
        <time>2018-10-13T07:49:26Z</time>
      </trkpt>
      <trkpt lat="38.17532879" lon="-2.60234925">
        <ele>1011.0000</ele>
        <time>2018-10-13T07:49:27Z</time>
      </trkpt>
      <trkpt lat="38.17542686" lon="-2.60239753">
        <ele>1013.0000</ele>
        <time>2018-10-13T07:49:32Z</time>
      </trkpt>
      <trkpt lat="38.17550179" lon="-2.60242201">
        <ele>1014.0000</ele>
        <time>2018-10-13T07:49:36Z</time>
      </trkpt>
      <trkpt lat="38.17558066" lon="-2.60244062">
        <ele>1015.0000</ele>
        <time>2018-10-13T07:49:41Z</time>
      </trkpt>
      <trkpt lat="38.17570547" lon="-2.60248856">
        <ele>1016.0000</ele>
        <time>2018-10-13T07:49:46Z</time>
      </trkpt>
      <trkpt lat="38.17579390" lon="-2.60255855">
        <ele>1017.0000</ele>
        <time>2018-10-13T07:49:51Z</time>
      </trkpt>
      <trkpt lat="38.17588468" lon="-2.60260046">
        <ele>1018.0000</ele>
        <time>2018-10-13T07:49:56Z</time>
      </trkpt>
      <trkpt lat="38.17592164" lon="-2.60260666">
        <ele>1019.0000</ele>
        <time>2018-10-13T07:49:58Z</time>
      </trkpt>
      <trkpt lat="38.17600403" lon="-2.60260029">
        <ele>1019.0000</ele>
        <time>2018-10-13T07:50:01Z</time>
      </trkpt>
      <trkpt lat="38.17603245" lon="-2.60260515">
        <ele>1019.0000</ele>
        <time>2018-10-13T07:50:02Z</time>
      </trkpt>
      <trkpt lat="38.17611954" lon="-2.60261178">
        <ele>1020.0000</ele>
        <time>2018-10-13T07:50:06Z</time>
      </trkpt>
      <trkpt lat="38.17621970" lon="-2.60264572">
        <ele>1021.0000</ele>
        <time>2018-10-13T07:50:11Z</time>
      </trkpt>
      <trkpt lat="38.17634996" lon="-2.60268948">
        <ele>1022.0000</ele>
        <time>2018-10-13T07:50:16Z</time>
      </trkpt>
      <trkpt lat="38.17647929" lon="-2.60273759">
        <ele>1023.0000</ele>
        <time>2018-10-13T07:50:21Z</time>
      </trkpt>
      <trkpt lat="38.17661784" lon="-2.60281328">
        <ele>1025.0000</ele>
        <time>2018-10-13T07:50:27Z</time>
      </trkpt>
      <trkpt lat="38.17671507" lon="-2.60287639">
        <ele>1026.0000</ele>
        <time>2018-10-13T07:50:32Z</time>
      </trkpt>
      <trkpt lat="38.17682060" lon="-2.60296583">
        <ele>1027.0000</ele>
        <time>2018-10-13T07:50:37Z</time>
      </trkpt>
      <trkpt lat="38.17688304" lon="-2.60306507">
        <ele>1028.0000</ele>
        <time>2018-10-13T07:50:41Z</time>
      </trkpt>
      <trkpt lat="38.17687533" lon="-2.60328141">
        <ele>1029.0000</ele>
        <time>2018-10-13T07:50:48Z</time>
      </trkpt>
      <trkpt lat="38.17670996" lon="-2.60347218">
        <ele>1030.0000</ele>
        <time>2018-10-13T07:50:57Z</time>
      </trkpt>
      <trkpt lat="38.17655758" lon="-2.60358550">
        <ele>1031.0000</ele>
        <time>2018-10-13T07:51:04Z</time>
      </trkpt>
      <trkpt lat="38.17643696" lon="-2.60367209">
        <ele>1033.0000</ele>
        <time>2018-10-13T07:51:11Z</time>
      </trkpt>
      <trkpt lat="38.17634400" lon="-2.60375071">
        <ele>1034.0000</ele>
        <time>2018-10-13T07:51:16Z</time>
      </trkpt>
      <trkpt lat="38.17627368" lon="-2.60381399">
        <ele>1035.0000</ele>
        <time>2018-10-13T07:51:20Z</time>
      </trkpt>
      <trkpt lat="38.17619221" lon="-2.60391407">
        <ele>1036.0000</ele>
        <time>2018-10-13T07:51:25Z</time>
      </trkpt>
      <trkpt lat="38.17612071" lon="-2.60402706">
        <ele>1037.0000</ele>
        <time>2018-10-13T07:51:30Z</time>
      </trkpt>
      <trkpt lat="38.17605458" lon="-2.60414239">
        <ele>1038.0000</ele>
        <time>2018-10-13T07:51:36Z</time>
      </trkpt>
      <trkpt lat="38.17601434" lon="-2.60425924">
        <ele>1040.0000</ele>
        <time>2018-10-13T07:51:41Z</time>
      </trkpt>
      <trkpt lat="38.17598182" lon="-2.60437533">
        <ele>1041.0000</ele>
        <time>2018-10-13T07:51:47Z</time>
      </trkpt>
      <trkpt lat="38.17595969" lon="-2.60445278">
        <ele>1042.0000</ele>
        <time>2018-10-13T07:51:51Z</time>
      </trkpt>
      <trkpt lat="38.17594000" lon="-2.60458446">
        <ele>1043.0000</ele>
        <time>2018-10-13T07:51:57Z</time>
      </trkpt>
      <trkpt lat="38.17590907" lon="-2.60473290">
        <ele>1044.0000</ele>
        <time>2018-10-13T07:52:03Z</time>
      </trkpt>
      <trkpt lat="38.17590840" lon="-2.60486357">
        <ele>1045.0000</ele>
        <time>2018-10-13T07:52:08Z</time>
      </trkpt>
      <trkpt lat="38.17590127" lon="-2.60496986">
        <ele>1046.0000</ele>
        <time>2018-10-13T07:52:12Z</time>
      </trkpt>
      <trkpt lat="38.17584947" lon="-2.60512978">
        <ele>1047.0000</ele>
        <time>2018-10-13T07:52:17Z</time>
      </trkpt>
      <trkpt lat="38.17578418" lon="-2.60526180">
        <ele>1048.0000</ele>
        <time>2018-10-13T07:52:22Z</time>
      </trkpt>
      <trkpt lat="38.17573623" lon="-2.60536129">
        <ele>1049.0000</ele>
        <time>2018-10-13T07:52:26Z</time>
      </trkpt>
      <trkpt lat="38.17571637" lon="-2.60544327">
        <ele>1050.0000</ele>
        <time>2018-10-13T07:52:29Z</time>
      </trkpt>
      <trkpt lat="38.17571117" lon="-2.60561342">
        <ele>1051.0000</ele>
        <time>2018-10-13T07:52:35Z</time>
      </trkpt>
      <trkpt lat="38.17575266" lon="-2.60576815">
        <ele>1052.0000</ele>
        <time>2018-10-13T07:52:41Z</time>
      </trkpt>
      <trkpt lat="38.17582919" lon="-2.60588248">
        <ele>1053.0000</ele>
        <time>2018-10-13T07:52:47Z</time>
      </trkpt>
      <trkpt lat="38.17589079" lon="-2.60599882">
        <ele>1055.0000</ele>
        <time>2018-10-13T07:52:52Z</time>
      </trkpt>
      <trkpt lat="38.17599758" lon="-2.60610091">
        <ele>1056.0000</ele>
        <time>2018-10-13T07:52:58Z</time>
      </trkpt>
      <trkpt lat="38.17603647" lon="-2.60612824">
        <ele>1056.0000</ele>
        <time>2018-10-13T07:53:00Z</time>
      </trkpt>
      <trkpt lat="38.17609414" lon="-2.60616797">
        <ele>1057.0000</ele>
        <time>2018-10-13T07:53:03Z</time>
      </trkpt>
      <trkpt lat="38.17617913" lon="-2.60620451">
        <ele>1058.0000</ele>
        <time>2018-10-13T07:53:07Z</time>
      </trkpt>
      <trkpt lat="38.17628064" lon="-2.60622505">
        <ele>1059.0000</ele>
        <time>2018-10-13T07:53:12Z</time>
      </trkpt>
      <trkpt lat="38.17637686" lon="-2.60623896">
        <ele>1060.0000</ele>
        <time>2018-10-13T07:53:17Z</time>
      </trkpt>
      <trkpt lat="38.17648801" lon="-2.60625774">
        <ele>1061.0000</ele>
        <time>2018-10-13T07:53:22Z</time>
      </trkpt>
      <trkpt lat="38.17662597" lon="-2.60625757">
        <ele>1062.0000</ele>
        <time>2018-10-13T07:53:27Z</time>
      </trkpt>
      <trkpt lat="38.17688665" lon="-2.60626595">
        <ele>1063.0000</ele>
        <time>2018-10-13T07:53:35Z</time>
      </trkpt>
      <trkpt lat="38.17695421" lon="-2.60629470">
        <ele>1063.0000</ele>
        <time>2018-10-13T07:53:38Z</time>
      </trkpt>
      <trkpt lat="38.17723282" lon="-2.60642403">
        <ele>1063.0000</ele>
        <time>2018-10-13T07:53:49Z</time>
      </trkpt>
      <trkpt lat="38.17736282" lon="-2.60647323">
        <ele>1064.0000</ele>
        <time>2018-10-13T07:53:53Z</time>
      </trkpt>
      <trkpt lat="38.17749643" lon="-2.60652663">
        <ele>1063.0000</ele>
        <time>2018-10-13T07:53:57Z</time>
      </trkpt>
      <trkpt lat="38.17768477" lon="-2.60672478">
        <ele>1064.0000</ele>
        <time>2018-10-13T07:54:04Z</time>
      </trkpt>
      <trkpt lat="38.17803170" lon="-2.60729215">
        <ele>1064.0000</ele>
        <time>2018-10-13T07:54:20Z</time>
      </trkpt>
      <trkpt lat="38.17824016" lon="-2.60741100">
        <ele>1064.0000</ele>
        <time>2018-10-13T07:54:26Z</time>
      </trkpt>
      <trkpt lat="38.17861609" lon="-2.60744847">
        <ele>1064.0000</ele>
        <time>2018-10-13T07:54:35Z</time>
      </trkpt>
      <trkpt lat="38.17889437" lon="-2.60744193">
        <ele>1064.0000</ele>
        <time>2018-10-13T07:54:41Z</time>
      </trkpt>
      <trkpt lat="38.17902814" lon="-2.60754142">
        <ele>1064.0000</ele>
        <time>2018-10-13T07:54:44Z</time>
      </trkpt>
      <trkpt lat="38.17907005" lon="-2.60758543">
        <ele>1064.0000</ele>
        <time>2018-10-13T07:54:45Z</time>
      </trkpt>
      <trkpt lat="38.17920701" lon="-2.60769682">
        <ele>1063.0000</ele>
        <time>2018-10-13T07:54:48Z</time>
      </trkpt>
      <trkpt lat="38.17941346" lon="-2.60777235">
        <ele>1062.0000</ele>
        <time>2018-10-13T07:54:52Z</time>
      </trkpt>
      <trkpt lat="38.17945637" lon="-2.60780068">
        <ele>1062.0000</ele>
        <time>2018-10-13T07:54:53Z</time>
      </trkpt>
      <trkpt lat="38.17964178" lon="-2.60809564">
        <ele>1061.0000</ele>
        <time>2018-10-13T07:54:59Z</time>
      </trkpt>
      <trkpt lat="38.17974580" lon="-2.60855094">
        <ele>1061.0000</ele>
        <time>2018-10-13T07:55:07Z</time>
      </trkpt>
      <trkpt lat="38.17974580" lon="-2.60868262">
        <ele>1061.0000</ele>
        <time>2018-10-13T07:55:09Z</time>
      </trkpt>
      <trkpt lat="38.17974303" lon="-2.60902779">
        <ele>1061.0000</ele>
        <time>2018-10-13T07:55:14Z</time>
      </trkpt>
      <trkpt lat="38.17997312" lon="-2.60926483">
        <ele>1061.0000</ele>
        <time>2018-10-13T07:55:20Z</time>
      </trkpt>
      <trkpt lat="38.18016624" lon="-2.60898579">
        <ele>1059.0000</ele>
        <time>2018-10-13T07:55:24Z</time>
      </trkpt>
      <trkpt lat="38.18028333" lon="-2.60879603">
        <ele>1058.0000</ele>
        <time>2018-10-13T07:55:26Z</time>
      </trkpt>
      <trkpt lat="38.18042423" lon="-2.60861548">
        <ele>1057.0000</ele>
        <time>2018-10-13T07:55:28Z</time>
      </trkpt>
      <trkpt lat="38.18049816" lon="-2.60852764">
        <ele>1056.0000</ele>
        <time>2018-10-13T07:55:29Z</time>
      </trkpt>
      <trkpt lat="38.18056823" lon="-2.60844231">
        <ele>1054.0000</ele>
        <time>2018-10-13T07:55:30Z</time>
      </trkpt>
      <trkpt lat="38.18063512" lon="-2.60836386">
        <ele>1053.0000</ele>
        <time>2018-10-13T07:55:31Z</time>
      </trkpt>
      <trkpt lat="38.18069916" lon="-2.60829362">
        <ele>1051.0000</ele>
        <time>2018-10-13T07:55:32Z</time>
      </trkpt>
      <trkpt lat="38.18076001" lon="-2.60823176">
        <ele>1050.0000</ele>
        <time>2018-10-13T07:55:33Z</time>
      </trkpt>
      <trkpt lat="38.18083394" lon="-2.60818507">
        <ele>1049.0000</ele>
        <time>2018-10-13T07:55:34Z</time>
      </trkpt>
      <trkpt lat="38.18090845" lon="-2.60816487">
        <ele>1047.0000</ele>
        <time>2018-10-13T07:55:35Z</time>
      </trkpt>
      <trkpt lat="38.18100518" lon="-2.60816697">
        <ele>1046.0000</ele>
        <time>2018-10-13T07:55:36Z</time>
      </trkpt>
      <trkpt lat="38.18111180" lon="-2.60818021">
        <ele>1045.0000</ele>
        <time>2018-10-13T07:55:37Z</time>
      </trkpt>
      <trkpt lat="38.18122093" lon="-2.60818767">
        <ele>1044.0000</ele>
        <time>2018-10-13T07:55:38Z</time>
      </trkpt>
      <trkpt lat="38.18131757" lon="-2.60818700">
        <ele>1043.0000</ele>
        <time>2018-10-13T07:55:39Z</time>
      </trkpt>
      <trkpt lat="38.18159711" lon="-2.60810879">
        <ele>1041.0000</ele>
        <time>2018-10-13T07:55:42Z</time>
      </trkpt>
      <trkpt lat="38.18177858" lon="-2.60805213">
        <ele>1040.0000</ele>
        <time>2018-10-13T07:55:44Z</time>
      </trkpt>
      <trkpt lat="38.18187128" lon="-2.60803327">
        <ele>1038.0000</ele>
        <time>2018-10-13T07:55:45Z</time>
      </trkpt>
      <trkpt lat="38.18196298" lon="-2.60802657">
        <ele>1037.0000</ele>
        <time>2018-10-13T07:55:46Z</time>
      </trkpt>
      <trkpt lat="38.18205661" lon="-2.60803428">
        <ele>1035.0000</ele>
        <time>2018-10-13T07:55:47Z</time>
      </trkpt>
      <trkpt lat="38.18214721" lon="-2.60804803">
        <ele>1034.0000</ele>
        <time>2018-10-13T07:55:48Z</time>
      </trkpt>
      <trkpt lat="38.18224671" lon="-2.60805741">
        <ele>1033.0000</ele>
        <time>2018-10-13T07:55:49Z</time>
      </trkpt>
      <trkpt lat="38.18234796" lon="-2.60805909">
        <ele>1032.0000</ele>
        <time>2018-10-13T07:55:50Z</time>
      </trkpt>
      <trkpt lat="38.18244854" lon="-2.60804819">
        <ele>1031.0000</ele>
        <time>2018-10-13T07:55:51Z</time>
      </trkpt>
      <trkpt lat="38.18254812" lon="-2.60802481">
        <ele>1030.0000</ele>
        <time>2018-10-13T07:55:52Z</time>
      </trkpt>
      <trkpt lat="38.18274334" lon="-2.60795851">
        <ele>1028.0000</ele>
        <time>2018-10-13T07:55:54Z</time>
      </trkpt>
      <trkpt lat="38.18283654" lon="-2.60792029">
        <ele>1026.0000</ele>
        <time>2018-10-13T07:55:55Z</time>
      </trkpt>
      <trkpt lat="38.18292187" lon="-2.60788290">
        <ele>1025.0000</ele>
        <time>2018-10-13T07:55:56Z</time>
      </trkpt>
      <trkpt lat="38.18299949" lon="-2.60784359">
        <ele>1024.0000</ele>
        <time>2018-10-13T07:55:57Z</time>
      </trkpt>
      <trkpt lat="38.18307090" lon="-2.60779623">
        <ele>1022.0000</ele>
        <time>2018-10-13T07:55:58Z</time>
      </trkpt>
      <trkpt lat="38.18313645" lon="-2.60773689">
        <ele>1021.0000</ele>
        <time>2018-10-13T07:55:59Z</time>
      </trkpt>
      <trkpt lat="38.18319462" lon="-2.60766129">
        <ele>1020.0000</ele>
        <time>2018-10-13T07:56:00Z</time>
      </trkpt>
      <trkpt lat="38.18326947" lon="-2.60748459">
        <ele>1019.0000</ele>
        <time>2018-10-13T07:56:02Z</time>
      </trkpt>
      <trkpt lat="38.18320610" lon="-2.60702359">
        <ele>1018.0000</ele>
        <time>2018-10-13T07:56:08Z</time>
      </trkpt>
      <trkpt lat="38.18318909" lon="-2.60696944">
        <ele>1018.0000</ele>
        <time>2018-10-13T07:56:09Z</time>
      </trkpt>
      <trkpt lat="38.18316042" lon="-2.60686081">
        <ele>1018.0000</ele>
        <time>2018-10-13T07:56:11Z</time>
      </trkpt>
      <trkpt lat="38.18313569" lon="-2.60669862">
        <ele>1019.0000</ele>
        <time>2018-10-13T07:56:14Z</time>
      </trkpt>
      <trkpt lat="38.18312429" lon="-2.60658781">
        <ele>1019.0000</ele>
        <time>2018-10-13T07:56:16Z</time>
      </trkpt>
      <trkpt lat="38.18310703" lon="-2.60612966">
        <ele>1020.0000</ele>
        <time>2018-10-13T07:56:23Z</time>
      </trkpt>
      <trkpt lat="38.18311348" lon="-2.60599614">
        <ele>1020.0000</ele>
        <time>2018-10-13T07:56:25Z</time>
      </trkpt>
      <trkpt lat="38.18319043" lon="-2.60581425">
        <ele>1020.0000</ele>
        <time>2018-10-13T07:56:28Z</time>
      </trkpt>
      <trkpt lat="38.18322965" lon="-2.60577779">
        <ele>1020.0000</ele>
        <time>2018-10-13T07:56:29Z</time>
      </trkpt>
      <trkpt lat="38.18336158" lon="-2.60579162">
        <ele>1020.0000</ele>
        <time>2018-10-13T07:56:32Z</time>
      </trkpt>
      <trkpt lat="38.18348170" lon="-2.60600158">
        <ele>1020.0000</ele>
        <time>2018-10-13T07:56:36Z</time>
      </trkpt>
      <trkpt lat="38.18351623" lon="-2.60606671">
        <ele>1020.0000</ele>
        <time>2018-10-13T07:56:37Z</time>
      </trkpt>
      <trkpt lat="38.18370432" lon="-2.60638799">
        <ele>1020.0000</ele>
        <time>2018-10-13T07:56:41Z</time>
      </trkpt>
      <trkpt lat="38.18390557" lon="-2.60676090">
        <ele>1019.0000</ele>
        <time>2018-10-13T07:56:45Z</time>
      </trkpt>
      <trkpt lat="38.18396584" lon="-2.60684137">
        <ele>1018.0000</ele>
        <time>2018-10-13T07:56:46Z</time>
      </trkpt>
      <trkpt lat="38.18402468" lon="-2.60692041">
        <ele>1018.0000</ele>
        <time>2018-10-13T07:56:47Z</time>
      </trkpt>
      <trkpt lat="38.18415870" lon="-2.60704597">
        <ele>1016.0000</ele>
        <time>2018-10-13T07:56:49Z</time>
      </trkpt>
      <trkpt lat="38.18430053" lon="-2.60708930">
        <ele>1014.0000</ele>
        <time>2018-10-13T07:56:51Z</time>
      </trkpt>
      <trkpt lat="38.18464645" lon="-2.60686190">
        <ele>1013.0000</ele>
        <time>2018-10-13T07:56:57Z</time>
      </trkpt>
      <trkpt lat="38.18472356" lon="-2.60677188">
        <ele>1013.0000</ele>
        <time>2018-10-13T07:56:59Z</time>
      </trkpt>
      <trkpt lat="38.18476170" lon="-2.60673534">
        <ele>1013.0000</ele>
        <time>2018-10-13T07:57:00Z</time>
      </trkpt>
      <trkpt lat="38.18485583" lon="-2.60670114">
        <ele>1013.0000</ele>
        <time>2018-10-13T07:57:02Z</time>
      </trkpt>
      <trkpt lat="38.18500385" lon="-2.60676107">
        <ele>1015.0000</ele>
        <time>2018-10-13T07:57:05Z</time>
      </trkpt>
      <trkpt lat="38.18514718" lon="-2.60689811">
        <ele>1016.0000</ele>
        <time>2018-10-13T07:57:09Z</time>
      </trkpt>
      <trkpt lat="38.18526319" lon="-2.60696936">
        <ele>1017.0000</ele>
        <time>2018-10-13T07:57:12Z</time>
      </trkpt>
      <trkpt lat="38.18534365" lon="-2.60698864">
        <ele>1018.0000</ele>
        <time>2018-10-13T07:57:14Z</time>
      </trkpt>
      <trkpt lat="38.18537743" lon="-2.60699911">
        <ele>1018.0000</ele>
        <time>2018-10-13T07:57:15Z</time>
      </trkpt>
      <trkpt lat="38.18550928" lon="-2.60701177">
        <ele>1020.0000</ele>
        <time>2018-10-13T07:57:19Z</time>
      </trkpt>
      <trkpt lat="38.18566703" lon="-2.60701362">
        <ele>1021.0000</ele>
        <time>2018-10-13T07:57:23Z</time>
      </trkpt>
      <trkpt lat="38.18588512" lon="-2.60696869">
        <ele>1022.0000</ele>
        <time>2018-10-13T07:57:28Z</time>
      </trkpt>
      <trkpt lat="38.18610079" lon="-2.60698797">
        <ele>1022.0000</ele>
        <time>2018-10-13T07:57:32Z</time>
      </trkpt>
      <trkpt lat="38.18643959" lon="-2.60701814">
        <ele>1022.0000</ele>
        <time>2018-10-13T07:57:38Z</time>
      </trkpt>
      <trkpt lat="38.18676573" lon="-2.60725032">
        <ele>1020.0000</ele>
        <time>2018-10-13T07:57:43Z</time>
      </trkpt>
      <trkpt lat="38.18682222" lon="-2.60731469">
        <ele>1020.0000</ele>
        <time>2018-10-13T07:57:44Z</time>
      </trkpt>
      <trkpt lat="38.18696597" lon="-2.60753841">
        <ele>1019.0000</ele>
        <time>2018-10-13T07:57:47Z</time>
      </trkpt>
      <trkpt lat="38.18704552" lon="-2.60770730">
        <ele>1018.0000</ele>
        <time>2018-10-13T07:57:49Z</time>
      </trkpt>
      <trkpt lat="38.18709279" lon="-2.60778374">
        <ele>1018.0000</ele>
        <time>2018-10-13T07:57:50Z</time>
      </trkpt>
      <trkpt lat="38.18716856" lon="-2.60783395">
        <ele>1018.0000</ele>
        <time>2018-10-13T07:57:51Z</time>
      </trkpt>
      <trkpt lat="38.18737794" lon="-2.60786765">
        <ele>1016.0000</ele>
        <time>2018-10-13T07:57:54Z</time>
      </trkpt>
      <trkpt lat="38.18752437" lon="-2.60780973">
        <ele>1015.0000</ele>
        <time>2018-10-13T07:57:56Z</time>
      </trkpt>
      <trkpt lat="38.18774960" lon="-2.60770412">
        <ele>1014.0000</ele>
        <time>2018-10-13T07:57:59Z</time>
      </trkpt>
      <trkpt lat="38.18789636" lon="-2.60766799">
        <ele>1013.0000</ele>
        <time>2018-10-13T07:58:01Z</time>
      </trkpt>
      <trkpt lat="38.18797029" lon="-2.60767109">
        <ele>1013.0000</ele>
        <time>2018-10-13T07:58:02Z</time>
      </trkpt>
      <trkpt lat="38.18819400" lon="-2.60771711">
        <ele>1012.0000</ele>
        <time>2018-10-13T07:58:05Z</time>
      </trkpt>
      <trkpt lat="38.18826919" lon="-2.60773781">
        <ele>1012.0000</ele>
        <time>2018-10-13T07:58:06Z</time>
      </trkpt>
      <trkpt lat="38.18848905" lon="-2.60773974">
        <ele>1011.0000</ele>
        <time>2018-10-13T07:58:09Z</time>
      </trkpt>
      <trkpt lat="38.18863238" lon="-2.60772482">
        <ele>1011.0000</ele>
        <time>2018-10-13T07:58:11Z</time>
      </trkpt>
      <trkpt lat="38.18870563" lon="-2.60771954">
        <ele>1011.0000</ele>
        <time>2018-10-13T07:58:12Z</time>
      </trkpt>
      <trkpt lat="38.18893857" lon="-2.60772046">
        <ele>1009.0000</ele>
        <time>2018-10-13T07:58:15Z</time>
      </trkpt>
      <trkpt lat="38.18901367" lon="-2.60770881">
        <ele>1009.0000</ele>
        <time>2018-10-13T07:58:16Z</time>
      </trkpt>
      <trkpt lat="38.18927661" lon="-2.60735199">
        <ele>1009.0000</ele>
        <time>2018-10-13T07:58:23Z</time>
      </trkpt>
      <trkpt lat="38.18929782" lon="-2.60723347">
        <ele>1009.0000</ele>
        <time>2018-10-13T07:58:25Z</time>
      </trkpt>
      <trkpt lat="38.18934065" lon="-2.60707505">
        <ele>1009.0000</ele>
        <time>2018-10-13T07:58:28Z</time>
      </trkpt>
      <trkpt lat="38.18946730" lon="-2.60693164">
        <ele>1011.0000</ele>
        <time>2018-10-13T07:58:32Z</time>
      </trkpt>
      <trkpt lat="38.18959898" lon="-2.60693659">
        <ele>1012.0000</ele>
        <time>2018-10-13T07:58:35Z</time>
      </trkpt>
      <trkpt lat="38.18965254" lon="-2.60694656">
        <ele>1012.0000</ele>
        <time>2018-10-13T07:58:36Z</time>
      </trkpt>
      <trkpt lat="38.18979201" lon="-2.60696056">
        <ele>1013.0000</ele>
        <time>2018-10-13T07:58:38Z</time>
      </trkpt>
      <trkpt lat="38.18984080" lon="-2.60696827">
        <ele>1013.0000</ele>
        <time>2018-10-13T07:58:39Z</time>
      </trkpt>
      <trkpt lat="38.18995018" lon="-2.60697950">
        <ele>1013.0000</ele>
        <time>2018-10-13T07:58:42Z</time>
      </trkpt>
      <trkpt lat="38.19004188" lon="-2.60698470">
        <ele>1014.0000</ele>
        <time>2018-10-13T07:58:45Z</time>
      </trkpt>
      <trkpt lat="38.19012084" lon="-2.60699618">
        <ele>1015.0000</ele>
        <time>2018-10-13T07:58:48Z</time>
      </trkpt>
      <trkpt lat="38.19021228" lon="-2.60699953">
        <ele>1016.0000</ele>
        <time>2018-10-13T07:58:51Z</time>
      </trkpt>
      <trkpt lat="38.19031530" lon="-2.60701596">
        <ele>1017.0000</ele>
        <time>2018-10-13T07:58:54Z</time>
      </trkpt>
      <trkpt lat="38.19044672" lon="-2.60708679">
        <ele>1018.0000</ele>
        <time>2018-10-13T07:58:59Z</time>
      </trkpt>
      <trkpt lat="38.19054949" lon="-2.60717606">
        <ele>1020.0000</ele>
        <time>2018-10-13T07:59:03Z</time>
      </trkpt>
      <trkpt lat="38.19062811" lon="-2.60727128">
        <ele>1021.0000</ele>
        <time>2018-10-13T07:59:07Z</time>
      </trkpt>
      <trkpt lat="38.19076390" lon="-2.60745802">
        <ele>1022.0000</ele>
        <time>2018-10-13T07:59:14Z</time>
      </trkpt>
      <trkpt lat="38.19086045" lon="-2.60756749">
        <ele>1023.0000</ele>
        <time>2018-10-13T07:59:19Z</time>
      </trkpt>
      <trkpt lat="38.19094235" lon="-2.60765642">
        <ele>1024.0000</ele>
        <time>2018-10-13T07:59:23Z</time>
      </trkpt>
      <trkpt lat="38.19106841" lon="-2.60777696">
        <ele>1025.0000</ele>
        <time>2018-10-13T07:59:29Z</time>
      </trkpt>
      <trkpt lat="38.19117394" lon="-2.60787268">
        <ele>1026.0000</ele>
        <time>2018-10-13T07:59:34Z</time>
      </trkpt>
      <trkpt lat="38.19126714" lon="-2.60799706">
        <ele>1027.0000</ele>
        <time>2018-10-13T07:59:39Z</time>
      </trkpt>
      <trkpt lat="38.19144484" lon="-2.60813210">
        <ele>1028.0000</ele>
        <time>2018-10-13T07:59:47Z</time>
      </trkpt>
      <trkpt lat="38.19156277" lon="-2.60810217">
        <ele>1029.0000</ele>
        <time>2018-10-13T07:59:52Z</time>
      </trkpt>
      <trkpt lat="38.19163863" lon="-2.60797359">
        <ele>1030.0000</ele>
        <time>2018-10-13T07:59:57Z</time>
      </trkpt>
      <trkpt lat="38.19166797" lon="-2.60784761">
        <ele>1031.0000</ele>
        <time>2018-10-13T08:00:01Z</time>
      </trkpt>
      <trkpt lat="38.19169898" lon="-2.60773345">
        <ele>1031.0000</ele>
        <time>2018-10-13T08:00:04Z</time>
      </trkpt>
      <trkpt lat="38.19178816" lon="-2.60753262">
        <ele>1031.0000</ele>
        <time>2018-10-13T08:00:09Z</time>
      </trkpt>
      <trkpt lat="38.19185346" lon="-2.60747864">
        <ele>1031.0000</ele>
        <time>2018-10-13T08:00:11Z</time>
      </trkpt>
      <trkpt lat="38.19192496" lon="-2.60744989">
        <ele>1031.0000</ele>
        <time>2018-10-13T08:00:13Z</time>
      </trkpt>
      <trkpt lat="38.19203895" lon="-2.60747110">
        <ele>1031.0000</ele>
        <time>2018-10-13T08:00:16Z</time>
      </trkpt>
      <trkpt lat="38.19217708" lon="-2.60774125">
        <ele>1031.0000</ele>
        <time>2018-10-13T08:00:21Z</time>
      </trkpt>
      <trkpt lat="38.19218102" lon="-2.60781995">
        <ele>1030.0000</ele>
        <time>2018-10-13T08:00:22Z</time>
      </trkpt>
      <trkpt lat="38.19218396" lon="-2.60790386">
        <ele>1030.0000</ele>
        <time>2018-10-13T08:00:23Z</time>
      </trkpt>
      <trkpt lat="38.19222176" lon="-2.60817493">
        <ele>1030.0000</ele>
        <time>2018-10-13T08:00:26Z</time>
      </trkpt>
      <trkpt lat="38.19225830" lon="-2.60849495">
        <ele>1030.0000</ele>
        <time>2018-10-13T08:00:29Z</time>
      </trkpt>
      <trkpt lat="38.19226006" lon="-2.60860852">
        <ele>1029.0000</ele>
        <time>2018-10-13T08:00:30Z</time>
      </trkpt>
      <trkpt lat="38.19226426" lon="-2.60881371">
        <ele>1027.0000</ele>
        <time>2018-10-13T08:00:32Z</time>
      </trkpt>
      <trkpt lat="38.19225881" lon="-2.60890734">
        <ele>1026.0000</ele>
        <time>2018-10-13T08:00:33Z</time>
      </trkpt>
      <trkpt lat="38.19223911" lon="-2.60900029">
        <ele>1025.0000</ele>
        <time>2018-10-13T08:00:34Z</time>
      </trkpt>
      <trkpt lat="38.19214180" lon="-2.60918009">
        <ele>1024.0000</ele>
        <time>2018-10-13T08:00:36Z</time>
      </trkpt>
      <trkpt lat="38.19200333" lon="-2.60932778">
        <ele>1022.0000</ele>
        <time>2018-10-13T08:00:38Z</time>
      </trkpt>
      <trkpt lat="38.19193594" lon="-2.60939190">
        <ele>1022.0000</ele>
        <time>2018-10-13T08:00:39Z</time>
      </trkpt>
      <trkpt lat="38.19187131" lon="-2.60945610">
        <ele>1021.0000</ele>
        <time>2018-10-13T08:00:40Z</time>
      </trkpt>
      <trkpt lat="38.19181574" lon="-2.60952374">
        <ele>1020.0000</ele>
        <time>2018-10-13T08:00:41Z</time>
      </trkpt>
      <trkpt lat="38.19176930" lon="-2.60959742">
        <ele>1020.0000</ele>
        <time>2018-10-13T08:00:42Z</time>
      </trkpt>
      <trkpt lat="38.19171197" lon="-2.60977453">
        <ele>1018.0000</ele>
        <time>2018-10-13T08:00:44Z</time>
      </trkpt>
      <trkpt lat="38.19171097" lon="-2.60995541">
        <ele>1017.0000</ele>
        <time>2018-10-13T08:00:46Z</time>
      </trkpt>
      <trkpt lat="38.19184307" lon="-2.61021969">
        <ele>1016.0000</ele>
        <time>2018-10-13T08:00:51Z</time>
      </trkpt>
      <trkpt lat="38.19188112" lon="-2.61024476">
        <ele>1016.0000</ele>
        <time>2018-10-13T08:00:52Z</time>
      </trkpt>
      <trkpt lat="38.19192051" lon="-2.61026378">
        <ele>1016.0000</ele>
        <time>2018-10-13T08:00:53Z</time>
      </trkpt>
      <trkpt lat="38.19200165" lon="-2.61029521">
        <ele>1016.0000</ele>
        <time>2018-10-13T08:00:55Z</time>
      </trkpt>
      <trkpt lat="38.19203845" lon="-2.61030997">
        <ele>1016.0000</ele>
        <time>2018-10-13T08:00:56Z</time>
      </trkpt>
      <trkpt lat="38.19217549" lon="-2.61034643">
        <ele>1017.0000</ele>
        <time>2018-10-13T08:01:00Z</time>
      </trkpt>
      <trkpt lat="38.19219871" lon="-2.61035766">
        <ele>1018.0000</ele>
        <time>2018-10-13T08:01:01Z</time>
      </trkpt>
      <trkpt lat="38.19228337" lon="-2.61037392">
        <ele>1019.0000</ele>
        <time>2018-10-13T08:01:04Z</time>
      </trkpt>
      <trkpt lat="38.19235872" lon="-2.61040250">
        <ele>1020.0000</ele>
        <time>2018-10-13T08:01:07Z</time>
      </trkpt>
      <trkpt lat="38.19250021" lon="-2.61041306">
        <ele>1022.0000</ele>
        <time>2018-10-13T08:01:12Z</time>
      </trkpt>
      <trkpt lat="38.19272249" lon="-2.61044257">
        <ele>1023.0000</ele>
        <time>2018-10-13T08:01:18Z</time>
      </trkpt>
      <trkpt lat="38.19289416" lon="-2.61044760">
        <ele>1024.0000</ele>
        <time>2018-10-13T08:01:23Z</time>
      </trkpt>
      <trkpt lat="38.19316707" lon="-2.61040820">
        <ele>1025.0000</ele>
        <time>2018-10-13T08:01:30Z</time>
      </trkpt>
      <trkpt lat="38.19331350" lon="-2.61042036">
        <ele>1026.0000</ele>
        <time>2018-10-13T08:01:34Z</time>
      </trkpt>
      <trkpt lat="38.19340453" lon="-2.61046998">
        <ele>1026.0000</ele>
        <time>2018-10-13T08:01:36Z</time>
      </trkpt>
      <trkpt lat="38.19353906" lon="-2.61054533">
        <ele>1026.0000</ele>
        <time>2018-10-13T08:01:39Z</time>
      </trkpt>
      <trkpt lat="38.19373126" lon="-2.61057534">
        <ele>1026.0000</ele>
        <time>2018-10-13T08:01:43Z</time>
      </trkpt>
      <trkpt lat="38.19391951" lon="-2.61059671">
        <ele>1025.0000</ele>
        <time>2018-10-13T08:01:46Z</time>
      </trkpt>
      <trkpt lat="38.19403812" lon="-2.61065228">
        <ele>1025.0000</ele>
        <time>2018-10-13T08:01:48Z</time>
      </trkpt>
      <trkpt lat="38.19414339" lon="-2.61073384">
        <ele>1025.0000</ele>
        <time>2018-10-13T08:01:50Z</time>
      </trkpt>
      <trkpt lat="38.19425077" lon="-2.61082663">
        <ele>1024.0000</ele>
        <time>2018-10-13T08:01:52Z</time>
      </trkpt>
      <trkpt lat="38.19434129" lon="-2.61091958">
        <ele>1024.0000</ele>
        <time>2018-10-13T08:01:54Z</time>
      </trkpt>
      <trkpt lat="38.19448672" lon="-2.61107213">
        <ele>1023.0000</ele>
        <time>2018-10-13T08:01:57Z</time>
      </trkpt>
      <trkpt lat="38.19453198" lon="-2.61112620">
        <ele>1023.0000</ele>
        <time>2018-10-13T08:01:58Z</time>
      </trkpt>
      <trkpt lat="38.19462963" lon="-2.61124723">
        <ele>1022.0000</ele>
        <time>2018-10-13T08:02:00Z</time>
      </trkpt>
      <trkpt lat="38.19468202" lon="-2.61131311">
        <ele>1022.0000</ele>
        <time>2018-10-13T08:02:01Z</time>
      </trkpt>
      <trkpt lat="38.19480464" lon="-2.61144588">
        <ele>1021.0000</ele>
        <time>2018-10-13T08:02:03Z</time>
      </trkpt>
      <trkpt lat="38.19499231" lon="-2.61164470">
        <ele>1021.0000</ele>
        <time>2018-10-13T08:02:06Z</time>
      </trkpt>
      <trkpt lat="38.19505149" lon="-2.61170815">
        <ele>1020.0000</ele>
        <time>2018-10-13T08:02:07Z</time>
      </trkpt>
      <trkpt lat="38.19527671" lon="-2.61189800">
        <ele>1019.0000</ele>
        <time>2018-10-13T08:02:11Z</time>
      </trkpt>
      <trkpt lat="38.19557234" lon="-2.61202281">
        <ele>1018.0000</ele>
        <time>2018-10-13T08:02:16Z</time>
      </trkpt>
      <trkpt lat="38.19562347" lon="-2.61206044">
        <ele>1018.0000</ele>
        <time>2018-10-13T08:02:17Z</time>
      </trkpt>
      <trkpt lat="38.19573788" lon="-2.61215507">
        <ele>1018.0000</ele>
        <time>2018-10-13T08:02:19Z</time>
      </trkpt>
      <trkpt lat="38.19597853" lon="-2.61241299">
        <ele>1018.0000</ele>
        <time>2018-10-13T08:02:24Z</time>
      </trkpt>
      <trkpt lat="38.19632085" lon="-2.61262337">
        <ele>1019.0000</ele>
        <time>2018-10-13T08:02:31Z</time>
      </trkpt>
      <trkpt lat="38.19640433" lon="-2.61266402">
        <ele>1019.0000</ele>
        <time>2018-10-13T08:02:33Z</time>
      </trkpt>
      <trkpt lat="38.19649854" lon="-2.61271649">
        <ele>1019.0000</ele>
        <time>2018-10-13T08:02:36Z</time>
      </trkpt>
      <trkpt lat="38.19656560" lon="-2.61275673">
        <ele>1020.0000</ele>
        <time>2018-10-13T08:02:40Z</time>
      </trkpt>
      <trkpt lat="38.19667875" lon="-2.61310097">
        <ele>1021.0000</ele>
        <time>2018-10-13T08:02:53Z</time>
      </trkpt>
      <trkpt lat="38.19673349" lon="-2.61334128">
        <ele>1020.0000</ele>
        <time>2018-10-13T08:03:03Z</time>
      </trkpt>
      <trkpt lat="38.19674212" lon="-2.61340993">
        <ele>1020.0000</ele>
        <time>2018-10-13T08:03:06Z</time>
      </trkpt>
      <trkpt lat="38.19673382" lon="-2.61346114">
        <ele>1020.0000</ele>
        <time>2018-10-13T08:03:08Z</time>
      </trkpt>
      <trkpt lat="38.19669443" lon="-2.61362107">
        <ele>1020.0000</ele>
        <time>2018-10-13T08:03:13Z</time>
      </trkpt>
      <trkpt lat="38.19646233" lon="-2.61425876">
        <ele>1020.0000</ele>
        <time>2018-10-13T08:03:29Z</time>
      </trkpt>
      <trkpt lat="38.19644465" lon="-2.61430344">
        <ele>1020.0000</ele>
        <time>2018-10-13T08:03:30Z</time>
      </trkpt>
      <trkpt lat="38.19640919" lon="-2.61447284">
        <ele>1020.0000</ele>
        <time>2018-10-13T08:03:34Z</time>
      </trkpt>
      <trkpt lat="38.19643744" lon="-2.61468993">
        <ele>1019.0000</ele>
        <time>2018-10-13T08:03:39Z</time>
      </trkpt>
      <trkpt lat="38.19642067" lon="-2.61486142">
        <ele>1019.0000</ele>
        <time>2018-10-13T08:03:42Z</time>
      </trkpt>
      <trkpt lat="38.19649142" lon="-2.61518463">
        <ele>1019.0000</ele>
        <time>2018-10-13T08:03:49Z</time>
      </trkpt>
      <trkpt lat="38.19678537" lon="-2.61580732">
        <ele>1019.0000</ele>
        <time>2018-10-13T08:04:03Z</time>
      </trkpt>
      <trkpt lat="38.19693138" lon="-2.61605601">
        <ele>1019.0000</ele>
        <time>2018-10-13T08:04:09Z</time>
      </trkpt>
      <trkpt lat="38.19697472" lon="-2.61620965">
        <ele>1019.0000</ele>
        <time>2018-10-13T08:04:12Z</time>
      </trkpt>
      <trkpt lat="38.19708712" lon="-2.61692379">
        <ele>1019.0000</ele>
        <time>2018-10-13T08:04:25Z</time>
      </trkpt>
      <trkpt lat="38.19711721" lon="-2.61695522">
        <ele>1019.0000</ele>
        <time>2018-10-13T08:04:26Z</time>
      </trkpt>
      <trkpt lat="38.19723313" lon="-2.61698557">
        <ele>1019.0000</ele>
        <time>2018-10-13T08:04:29Z</time>
      </trkpt>
      <trkpt lat="38.19735936" lon="-2.61696117">
        <ele>1019.0000</ele>
        <time>2018-10-13T08:04:32Z</time>
      </trkpt>
      <trkpt lat="38.19749088" lon="-2.61693435">
        <ele>1019.0000</ele>
        <time>2018-10-13T08:04:35Z</time>
      </trkpt>
      <trkpt lat="38.19777737" lon="-2.61686604">
        <ele>1019.0000</ele>
        <time>2018-10-13T08:04:42Z</time>
      </trkpt>
      <trkpt lat="38.19791684" lon="-2.61685229">
        <ele>1019.0000</ele>
        <time>2018-10-13T08:04:45Z</time>
      </trkpt>
      <trkpt lat="38.19846728" lon="-2.61701767">
        <ele>1019.0000</ele>
        <time>2018-10-13T08:04:57Z</time>
      </trkpt>
      <trkpt lat="38.19895033" lon="-2.61734733">
        <ele>1019.0000</ele>
        <time>2018-10-13T08:05:08Z</time>
      </trkpt>
      <trkpt lat="38.19906164" lon="-2.61756291">
        <ele>1019.0000</ele>
        <time>2018-10-13T08:05:12Z</time>
      </trkpt>
      <trkpt lat="38.19916441" lon="-2.61792032">
        <ele>1019.0000</ele>
        <time>2018-10-13T08:05:18Z</time>
      </trkpt>
      <trkpt lat="38.19932240" lon="-2.61824059">
        <ele>1020.0000</ele>
        <time>2018-10-13T08:05:24Z</time>
      </trkpt>
      <trkpt lat="38.19975659" lon="-2.61858500">
        <ele>1020.0000</ele>
        <time>2018-10-13T08:05:35Z</time>
      </trkpt>
      <trkpt lat="38.19985072" lon="-2.61860369">
        <ele>1020.0000</ele>
        <time>2018-10-13T08:05:37Z</time>
      </trkpt>
      <trkpt lat="38.20017141" lon="-2.61865356">
        <ele>1020.0000</ele>
        <time>2018-10-13T08:05:44Z</time>
      </trkpt>
      <trkpt lat="38.20021466" lon="-2.61865541">
        <ele>1020.0000</ele>
        <time>2018-10-13T08:05:45Z</time>
      </trkpt>
      <trkpt lat="38.20075328" lon="-2.61858944">
        <ele>1020.0000</ele>
        <time>2018-10-13T08:05:56Z</time>
      </trkpt>
      <trkpt lat="38.20099803" lon="-2.61854829">
        <ele>1021.0000</ele>
        <time>2018-10-13T08:06:01Z</time>
      </trkpt>
      <trkpt lat="38.20155275" lon="-2.61861325">
        <ele>1021.0000</ele>
        <time>2018-10-13T08:06:12Z</time>
      </trkpt>
      <trkpt lat="38.20210520" lon="-2.61880972">
        <ele>1021.0000</ele>
        <time>2018-10-13T08:06:23Z</time>
      </trkpt>
      <trkpt lat="38.20246193" lon="-2.61897744">
        <ele>1021.0000</ele>
        <time>2018-10-13T08:06:31Z</time>
      </trkpt>
      <trkpt lat="38.20258095" lon="-2.61905028">
        <ele>1021.0000</ele>
        <time>2018-10-13T08:06:34Z</time>
      </trkpt>
      <trkpt lat="38.20293241" lon="-2.61917442">
        <ele>1022.0000</ele>
        <time>2018-10-13T08:06:43Z</time>
      </trkpt>
      <trkpt lat="38.20297122" lon="-2.61915732">
        <ele>1022.0000</ele>
        <time>2018-10-13T08:06:44Z</time>
      </trkpt>
      <trkpt lat="38.20309024" lon="-2.61908406">
        <ele>1023.0000</ele>
        <time>2018-10-13T08:06:47Z</time>
      </trkpt>
      <trkpt lat="38.20325486" lon="-2.61899052">
        <ele>1024.0000</ele>
        <time>2018-10-13T08:06:51Z</time>
      </trkpt>
      <trkpt lat="38.20355778" lon="-2.61881425">
        <ele>1024.0000</ele>
        <time>2018-10-13T08:06:59Z</time>
      </trkpt>
      <trkpt lat="38.20380270" lon="-2.61865097">
        <ele>1026.0000</ele>
        <time>2018-10-13T08:07:06Z</time>
      </trkpt>
      <trkpt lat="38.20405692" lon="-2.61853597">
        <ele>1027.0000</ele>
        <time>2018-10-13T08:07:13Z</time>
      </trkpt>
      <trkpt lat="38.20435415" lon="-2.61849112">
        <ele>1028.0000</ele>
        <time>2018-10-13T08:07:21Z</time>
      </trkpt>
      <trkpt lat="38.20460443" lon="-2.61845659">
        <ele>1029.0000</ele>
        <time>2018-10-13T08:07:29Z</time>
      </trkpt>
      <trkpt lat="38.20491489" lon="-2.61864175">
        <ele>1029.0000</ele>
        <time>2018-10-13T08:07:38Z</time>
      </trkpt>
      <trkpt lat="38.20497214" lon="-2.61873948">
        <ele>1029.0000</ele>
        <time>2018-10-13T08:07:40Z</time>
      </trkpt>
      <trkpt lat="38.20505915" lon="-2.61886135">
        <ele>1029.0000</ele>
        <time>2018-10-13T08:07:43Z</time>
      </trkpt>
      <trkpt lat="38.20512109" lon="-2.61895070">
        <ele>1029.0000</ele>
        <time>2018-10-13T08:07:45Z</time>
      </trkpt>
      <trkpt lat="38.20540691" lon="-2.61895908">
        <ele>1029.0000</ele>
        <time>2018-10-13T08:07:53Z</time>
      </trkpt>
      <trkpt lat="38.20563733" lon="-2.61885213">
        <ele>1030.0000</ele>
        <time>2018-10-13T08:08:00Z</time>
      </trkpt>
      <trkpt lat="38.20583255" lon="-2.61872800">
        <ele>1031.0000</ele>
        <time>2018-10-13T08:08:06Z</time>
      </trkpt>
      <trkpt lat="38.20599297" lon="-2.61862456">
        <ele>1031.0000</ele>
        <time>2018-10-13T08:08:11Z</time>
      </trkpt>
      <trkpt lat="38.20608836" lon="-2.61857553">
        <ele>1032.0000</ele>
        <time>2018-10-13T08:08:14Z</time>
      </trkpt>
      <trkpt lat="38.20619037" lon="-2.61853278">
        <ele>1032.0000</ele>
        <time>2018-10-13T08:08:17Z</time>
      </trkpt>
      <trkpt lat="38.20636941" lon="-2.61845173">
        <ele>1033.0000</ele>
        <time>2018-10-13T08:08:21Z</time>
      </trkpt>
      <trkpt lat="38.20667183" lon="-2.61835978">
        <ele>1033.0000</ele>
        <time>2018-10-13T08:08:28Z</time>
      </trkpt>
      <trkpt lat="38.20682899" lon="-2.61826615">
        <ele>1033.0000</ele>
        <time>2018-10-13T08:08:32Z</time>
      </trkpt>
      <trkpt lat="38.20703845" lon="-2.61813523">
        <ele>1033.0000</ele>
        <time>2018-10-13T08:08:37Z</time>
      </trkpt>
      <trkpt lat="38.20733861" lon="-2.61794839">
        <ele>1033.0000</ele>
        <time>2018-10-13T08:08:45Z</time>
      </trkpt>
      <trkpt lat="38.20743357" lon="-2.61791889">
        <ele>1033.0000</ele>
        <time>2018-10-13T08:08:47Z</time>
      </trkpt>
      <trkpt lat="38.20760708" lon="-2.61782585">
        <ele>1033.0000</ele>
        <time>2018-10-13T08:08:51Z</time>
      </trkpt>
      <trkpt lat="38.20776717" lon="-2.61773357">
        <ele>1034.0000</ele>
        <time>2018-10-13T08:08:55Z</time>
      </trkpt>
      <trkpt lat="38.20787312" lon="-2.61765520">
        <ele>1034.0000</ele>
        <time>2018-10-13T08:08:58Z</time>
      </trkpt>
      <trkpt lat="38.20798661" lon="-2.61759024">
        <ele>1034.0000</ele>
        <time>2018-10-13T08:09:01Z</time>
      </trkpt>
      <trkpt lat="38.20809298" lon="-2.61751740">
        <ele>1035.0000</ele>
        <time>2018-10-13T08:09:04Z</time>
      </trkpt>
      <trkpt lat="38.20826229" lon="-2.61740424">
        <ele>1036.0000</ele>
        <time>2018-10-13T08:09:09Z</time>
      </trkpt>
      <trkpt lat="38.20840956" lon="-2.61726971">
        <ele>1037.0000</ele>
        <time>2018-10-13T08:09:14Z</time>
      </trkpt>
      <trkpt lat="38.20855272" lon="-2.61714340">
        <ele>1038.0000</ele>
        <time>2018-10-13T08:09:19Z</time>
      </trkpt>
      <trkpt lat="38.20870569" lon="-2.61698045">
        <ele>1040.0000</ele>
        <time>2018-10-13T08:09:25Z</time>
      </trkpt>
      <trkpt lat="38.20879572" lon="-2.61689320">
        <ele>1041.0000</ele>
        <time>2018-10-13T08:09:29Z</time>
      </trkpt>
      <trkpt lat="38.20895967" lon="-2.61676470">
        <ele>1042.0000</ele>
        <time>2018-10-13T08:09:35Z</time>
      </trkpt>
      <trkpt lat="38.20909084" lon="-2.61668038">
        <ele>1043.0000</ele>
        <time>2018-10-13T08:09:41Z</time>
      </trkpt>
      <trkpt lat="38.20920458" lon="-2.61662565">
        <ele>1044.0000</ele>
        <time>2018-10-13T08:09:47Z</time>
      </trkpt>
      <trkpt lat="38.20924658" lon="-2.61661475">
        <ele>1044.0000</ele>
        <time>2018-10-13T08:09:49Z</time>
      </trkpt>
      <trkpt lat="38.20935395" lon="-2.61658173">
        <ele>1045.0000</ele>
        <time>2018-10-13T08:09:53Z</time>
      </trkpt>
      <trkpt lat="38.20938530" lon="-2.61657955">
        <ele>1045.0000</ele>
        <time>2018-10-13T08:09:54Z</time>
      </trkpt>
      <trkpt lat="38.20980029" lon="-2.61653563">
        <ele>1046.0000</ele>
        <time>2018-10-13T08:10:04Z</time>
      </trkpt>
      <trkpt lat="38.20997731" lon="-2.61652515">
        <ele>1047.0000</ele>
        <time>2018-10-13T08:10:09Z</time>
      </trkpt>
      <trkpt lat="38.21012316" lon="-2.61649422">
        <ele>1047.0000</ele>
        <time>2018-10-13T08:10:13Z</time>
      </trkpt>
      <trkpt lat="38.21040445" lon="-2.61635064">
        <ele>1048.0000</ele>
        <time>2018-10-13T08:10:21Z</time>
      </trkpt>
      <trkpt lat="38.21061911" lon="-2.61630211">
        <ele>1049.0000</ele>
        <time>2018-10-13T08:10:27Z</time>
      </trkpt>
      <trkpt lat="38.21065482" lon="-2.61631895">
        <ele>1049.0000</ele>
        <time>2018-10-13T08:10:28Z</time>
      </trkpt>
      <trkpt lat="38.21075306" lon="-2.61638291">
        <ele>1050.0000</ele>
        <time>2018-10-13T08:10:32Z</time>
      </trkpt>
      <trkpt lat="38.21079363" lon="-2.61640403">
        <ele>1051.0000</ele>
        <time>2018-10-13T08:10:34Z</time>
      </trkpt>
      <trkpt lat="38.21089874" lon="-2.61653043">
        <ele>1052.0000</ele>
        <time>2018-10-13T08:10:40Z</time>
      </trkpt>
      <trkpt lat="38.21096085" lon="-2.61661517">
        <ele>1053.0000</ele>
        <time>2018-10-13T08:10:44Z</time>
      </trkpt>
      <trkpt lat="38.21104743" lon="-2.61674609">
        <ele>1054.0000</ele>
        <time>2018-10-13T08:10:49Z</time>
      </trkpt>
      <trkpt lat="38.21114567" lon="-2.61681466">
        <ele>1055.0000</ele>
        <time>2018-10-13T08:10:53Z</time>
      </trkpt>
      <trkpt lat="38.21124684" lon="-2.61690577">
        <ele>1056.0000</ele>
        <time>2018-10-13T08:10:58Z</time>
      </trkpt>
      <trkpt lat="38.21136795" lon="-2.61698146">
        <ele>1058.0000</ele>
        <time>2018-10-13T08:11:03Z</time>
      </trkpt>
      <trkpt lat="38.21151154" lon="-2.61699998">
        <ele>1059.0000</ele>
        <time>2018-10-13T08:11:08Z</time>
      </trkpt>
      <trkpt lat="38.21162704" lon="-2.61703368">
        <ele>1060.0000</ele>
        <time>2018-10-13T08:11:13Z</time>
      </trkpt>
      <trkpt lat="38.21178479" lon="-2.61708665">
        <ele>1061.0000</ele>
        <time>2018-10-13T08:11:18Z</time>
      </trkpt>
      <trkpt lat="38.21191353" lon="-2.61712697">
        <ele>1062.0000</ele>
        <time>2018-10-13T08:11:23Z</time>
      </trkpt>
      <trkpt lat="38.21206139" lon="-2.61710048">
        <ele>1063.0000</ele>
        <time>2018-10-13T08:11:28Z</time>
      </trkpt>
      <trkpt lat="38.21217480" lon="-2.61705338">
        <ele>1064.0000</ele>
        <time>2018-10-13T08:11:33Z</time>
      </trkpt>
      <trkpt lat="38.21225149" lon="-2.61702613">
        <ele>1065.0000</ele>
        <time>2018-10-13T08:11:36Z</time>
      </trkpt>
      <trkpt lat="38.21230782" lon="-2.61701482">
        <ele>1065.0000</ele>
        <time>2018-10-13T08:11:38Z</time>
      </trkpt>
      <trkpt lat="38.21240463" lon="-2.61701524">
        <ele>1066.0000</ele>
        <time>2018-10-13T08:11:42Z</time>
      </trkpt>
      <trkpt lat="38.21253438" lon="-2.61707399">
        <ele>1068.0000</ele>
        <time>2018-10-13T08:11:48Z</time>
      </trkpt>
      <trkpt lat="38.21266874" lon="-2.61709093">
        <ele>1068.0000</ele>
        <time>2018-10-13T08:11:53Z</time>
      </trkpt>
      <trkpt lat="38.21285138" lon="-2.61706989">
        <ele>1069.0000</ele>
        <time>2018-10-13T08:12:01Z</time>
      </trkpt>
      <trkpt lat="38.21288097" lon="-2.61706880">
        <ele>1070.0000</ele>
        <time>2018-10-13T08:12:02Z</time>
      </trkpt>
      <trkpt lat="38.21325120" lon="-2.61723610">
        <ele>1070.0000</ele>
        <time>2018-10-13T08:12:12Z</time>
      </trkpt>
      <trkpt lat="38.21332655" lon="-2.61729570">
        <ele>1070.0000</ele>
        <time>2018-10-13T08:12:14Z</time>
      </trkpt>
      <trkpt lat="38.21345580" lon="-2.61736107">
        <ele>1070.0000</ele>
        <time>2018-10-13T08:12:17Z</time>
      </trkpt>
      <trkpt lat="38.21361866" lon="-2.61744204">
        <ele>1070.0000</ele>
        <time>2018-10-13T08:12:21Z</time>
      </trkpt>
      <trkpt lat="38.21375931" lon="-2.61753659">
        <ele>1071.0000</ele>
        <time>2018-10-13T08:12:25Z</time>
      </trkpt>
      <trkpt lat="38.21420221" lon="-2.61763332">
        <ele>1071.0000</ele>
        <time>2018-10-13T08:12:36Z</time>
      </trkpt>
      <trkpt lat="38.21461929" lon="-2.61774321">
        <ele>1071.0000</ele>
        <time>2018-10-13T08:12:44Z</time>
      </trkpt>
      <trkpt lat="38.21473513" lon="-2.61776726">
        <ele>1071.0000</ele>
        <time>2018-10-13T08:12:46Z</time>
      </trkpt>
      <trkpt lat="38.21529789" lon="-2.61782116">
        <ele>1069.0000</ele>
        <time>2018-10-13T08:12:55Z</time>
      </trkpt>
      <trkpt lat="38.21545799" lon="-2.61783457">
        <ele>1068.0000</ele>
        <time>2018-10-13T08:12:58Z</time>
      </trkpt>
      <trkpt lat="38.21570601" lon="-2.61780456">
        <ele>1068.0000</ele>
        <time>2018-10-13T08:13:02Z</time>
      </trkpt>
      <trkpt lat="38.21593475" lon="-2.61778864">
        <ele>1067.0000</ele>
        <time>2018-10-13T08:13:06Z</time>
      </trkpt>
      <trkpt lat="38.21608420" lon="-2.61781412">
        <ele>1066.0000</ele>
        <time>2018-10-13T08:13:08Z</time>
      </trkpt>
      <trkpt lat="38.21627698" lon="-2.61788670">
        <ele>1066.0000</ele>
        <time>2018-10-13T08:13:11Z</time>
      </trkpt>
      <trkpt lat="38.21645761" lon="-2.61797731">
        <ele>1066.0000</ele>
        <time>2018-10-13T08:13:14Z</time>
      </trkpt>
      <trkpt lat="38.21655862" lon="-2.61806281">
        <ele>1066.0000</ele>
        <time>2018-10-13T08:13:16Z</time>
      </trkpt>
      <trkpt lat="38.21668351" lon="-2.61811913">
        <ele>1065.0000</ele>
        <time>2018-10-13T08:13:18Z</time>
      </trkpt>
      <trkpt lat="38.21678367" lon="-2.61820823">
        <ele>1065.0000</ele>
        <time>2018-10-13T08:13:20Z</time>
      </trkpt>
      <trkpt lat="38.21687000" lon="-2.61831267">
        <ele>1065.0000</ele>
        <time>2018-10-13T08:13:22Z</time>
      </trkpt>
      <trkpt lat="38.21697528" lon="-2.61840244">
        <ele>1065.0000</ele>
        <time>2018-10-13T08:13:24Z</time>
      </trkpt>
      <trkpt lat="38.21706404" lon="-2.61851065">
        <ele>1065.0000</ele>
        <time>2018-10-13T08:13:26Z</time>
      </trkpt>
      <trkpt lat="38.21707611" lon="-2.61859766">
        <ele>1065.0000</ele>
        <time>2018-10-13T08:13:27Z</time>
      </trkpt>
      <trkpt lat="38.21723210" lon="-2.61890712">
        <ele>1065.0000</ele>
        <time>2018-10-13T08:13:32Z</time>
      </trkpt>
      <trkpt lat="38.21727644" lon="-2.61913041">
        <ele>1065.0000</ele>
        <time>2018-10-13T08:13:35Z</time>
      </trkpt>
      <trkpt lat="38.21732958" lon="-2.61925639">
        <ele>1065.0000</ele>
        <time>2018-10-13T08:13:37Z</time>
      </trkpt>
      <trkpt lat="38.21754173" lon="-2.61951263">
        <ele>1065.0000</ele>
        <time>2018-10-13T08:13:42Z</time>
      </trkpt>
      <trkpt lat="38.21762605" lon="-2.61976995">
        <ele>1065.0000</ele>
        <time>2018-10-13T08:13:46Z</time>
      </trkpt>
      <trkpt lat="38.21765421" lon="-2.62004446">
        <ele>1065.0000</ele>
        <time>2018-10-13T08:13:50Z</time>
      </trkpt>
      <trkpt lat="38.21769126" lon="-2.62054016">
        <ele>1065.0000</ele>
        <time>2018-10-13T08:13:57Z</time>
      </trkpt>
      <trkpt lat="38.21774030" lon="-2.62065215">
        <ele>1065.0000</ele>
        <time>2018-10-13T08:13:59Z</time>
      </trkpt>
      <trkpt lat="38.21790441" lon="-2.62094451">
        <ele>1065.0000</ele>
        <time>2018-10-13T08:14:04Z</time>
      </trkpt>
      <trkpt lat="38.21801078" lon="-2.62109915">
        <ele>1065.0000</ele>
        <time>2018-10-13T08:14:07Z</time>
      </trkpt>
      <trkpt lat="38.21803324" lon="-2.62131448">
        <ele>1065.0000</ele>
        <time>2018-10-13T08:14:10Z</time>
      </trkpt>
      <trkpt lat="38.21807892" lon="-2.62143845">
        <ele>1065.0000</ele>
        <time>2018-10-13T08:14:12Z</time>
      </trkpt>
      <trkpt lat="38.21814699" lon="-2.62177691">
        <ele>1065.0000</ele>
        <time>2018-10-13T08:14:17Z</time>
      </trkpt>
      <trkpt lat="38.21815688" lon="-2.62183751">
        <ele>1065.0000</ele>
        <time>2018-10-13T08:14:18Z</time>
      </trkpt>
      <trkpt lat="38.21833516" lon="-2.62193910">
        <ele>1065.0000</ele>
        <time>2018-10-13T08:14:23Z</time>
      </trkpt>
      <trkpt lat="38.21837933" lon="-2.62192795">
        <ele>1065.0000</ele>
        <time>2018-10-13T08:14:24Z</time>
      </trkpt>
      <trkpt lat="38.21849819" lon="-2.62187523">
        <ele>1065.0000</ele>
        <time>2018-10-13T08:14:27Z</time>
      </trkpt>
      <trkpt lat="38.21867597" lon="-2.62191412">
        <ele>1065.0000</ele>
        <time>2018-10-13T08:14:31Z</time>
      </trkpt>
      <trkpt lat="38.21877236" lon="-2.62199660">
        <ele>1066.0000</ele>
        <time>2018-10-13T08:14:34Z</time>
      </trkpt>
      <trkpt lat="38.21881729" lon="-2.62206458">
        <ele>1067.0000</ele>
        <time>2018-10-13T08:14:36Z</time>
      </trkpt>
      <trkpt lat="38.21890748" lon="-2.62215066">
        <ele>1068.0000</ele>
        <time>2018-10-13T08:14:39Z</time>
      </trkpt>
      <trkpt lat="38.21900060" lon="-2.62227136">
        <ele>1069.0000</ele>
        <time>2018-10-13T08:14:42Z</time>
      </trkpt>
      <trkpt lat="38.21905449" lon="-2.62235585">
        <ele>1069.0000</ele>
        <time>2018-10-13T08:14:44Z</time>
      </trkpt>
      <trkpt lat="38.21918307" lon="-2.62247144">
        <ele>1070.0000</ele>
        <time>2018-10-13T08:14:48Z</time>
      </trkpt>
      <trkpt lat="38.21923814" lon="-2.62263153">
        <ele>1071.0000</ele>
        <time>2018-10-13T08:14:52Z</time>
      </trkpt>
      <trkpt lat="38.21923647" lon="-2.62278232">
        <ele>1072.0000</ele>
        <time>2018-10-13T08:14:55Z</time>
      </trkpt>
      <trkpt lat="38.21926471" lon="-2.62296605">
        <ele>1073.0000</ele>
        <time>2018-10-13T08:14:59Z</time>
      </trkpt>
      <trkpt lat="38.21929908" lon="-2.62318365">
        <ele>1074.0000</ele>
        <time>2018-10-13T08:15:04Z</time>
      </trkpt>
      <trkpt lat="38.21935339" lon="-2.62341113">
        <ele>1075.0000</ele>
        <time>2018-10-13T08:15:10Z</time>
      </trkpt>
      <trkpt lat="38.21939614" lon="-2.62358950">
        <ele>1077.0000</ele>
        <time>2018-10-13T08:15:15Z</time>
      </trkpt>
      <trkpt lat="38.21942891" lon="-2.62372914">
        <ele>1078.0000</ele>
        <time>2018-10-13T08:15:19Z</time>
      </trkpt>
      <trkpt lat="38.21947577" lon="-2.62394154">
        <ele>1079.0000</ele>
        <time>2018-10-13T08:15:25Z</time>
      </trkpt>
      <trkpt lat="38.21949463" lon="-2.62408906">
        <ele>1080.0000</ele>
        <time>2018-10-13T08:15:29Z</time>
      </trkpt>
      <trkpt lat="38.21954961" lon="-2.62429961">
        <ele>1081.0000</ele>
        <time>2018-10-13T08:15:35Z</time>
      </trkpt>
      <trkpt lat="38.21964844" lon="-2.62440363">
        <ele>1082.0000</ele>
        <time>2018-10-13T08:15:40Z</time>
      </trkpt>
      <trkpt lat="38.21973879" lon="-2.62446700">
        <ele>1083.0000</ele>
        <time>2018-10-13T08:15:45Z</time>
      </trkpt>
      <trkpt lat="38.21982068" lon="-2.62442786">
        <ele>1084.0000</ele>
        <time>2018-10-13T08:15:49Z</time>
      </trkpt>
      <trkpt lat="38.21988824" lon="-2.62432141">
        <ele>1085.0000</ele>
        <time>2018-10-13T08:15:53Z</time>
      </trkpt>
      <trkpt lat="38.21988363" lon="-2.62416525">
        <ele>1086.0000</ele>
        <time>2018-10-13T08:15:58Z</time>
      </trkpt>
      <trkpt lat="38.21980367" lon="-2.62398772">
        <ele>1088.0000</ele>
        <time>2018-10-13T08:16:04Z</time>
      </trkpt>
      <trkpt lat="38.21969412" lon="-2.62385705">
        <ele>1089.0000</ele>
        <time>2018-10-13T08:16:10Z</time>
      </trkpt>
      <trkpt lat="38.21959781" lon="-2.62375035">
        <ele>1090.0000</ele>
        <time>2018-10-13T08:16:15Z</time>
      </trkpt>
      <trkpt lat="38.21952313" lon="-2.62362395">
        <ele>1091.0000</ele>
        <time>2018-10-13T08:16:20Z</time>
      </trkpt>
      <trkpt lat="38.21948088" lon="-2.62347358">
        <ele>1092.0000</ele>
        <time>2018-10-13T08:16:25Z</time>
      </trkpt>
      <trkpt lat="38.21946236" lon="-2.62332212">
        <ele>1093.0000</ele>
        <time>2018-10-13T08:16:30Z</time>
      </trkpt>
      <trkpt lat="38.21946060" lon="-2.62315859">
        <ele>1094.0000</ele>
        <time>2018-10-13T08:16:36Z</time>
      </trkpt>
      <trkpt lat="38.21946898" lon="-2.62302431">
        <ele>1095.0000</ele>
        <time>2018-10-13T08:16:41Z</time>
      </trkpt>
      <trkpt lat="38.21948759" lon="-2.62285407">
        <ele>1096.0000</ele>
        <time>2018-10-13T08:16:46Z</time>
      </trkpt>
      <trkpt lat="38.21947359" lon="-2.62267344">
        <ele>1097.0000</ele>
        <time>2018-10-13T08:16:52Z</time>
      </trkpt>
      <trkpt lat="38.21946730" lon="-2.62248770">
        <ele>1099.0000</ele>
        <time>2018-10-13T08:16:58Z</time>
      </trkpt>
      <trkpt lat="38.21948071" lon="-2.62234579">
        <ele>1100.0000</ele>
        <time>2018-10-13T08:17:02Z</time>
      </trkpt>
      <trkpt lat="38.21954626" lon="-2.62213063">
        <ele>1101.0000</ele>
        <time>2018-10-13T08:17:08Z</time>
      </trkpt>
      <trkpt lat="38.21958264" lon="-2.62193818">
        <ele>1102.0000</ele>
        <time>2018-10-13T08:17:14Z</time>
      </trkpt>
      <trkpt lat="38.21949865" lon="-2.62178546">
        <ele>1103.0000</ele>
        <time>2018-10-13T08:17:20Z</time>
      </trkpt>
      <trkpt lat="38.21939907" lon="-2.62167499">
        <ele>1104.0000</ele>
        <time>2018-10-13T08:17:25Z</time>
      </trkpt>
      <trkpt lat="38.21932028" lon="-2.62161179">
        <ele>1105.0000</ele>
        <time>2018-10-13T08:17:29Z</time>
      </trkpt>
      <trkpt lat="38.21918140" lon="-2.62152453">
        <ele>1106.0000</ele>
        <time>2018-10-13T08:17:35Z</time>
      </trkpt>
      <trkpt lat="38.21909205" lon="-2.62134600">
        <ele>1107.0000</ele>
        <time>2018-10-13T08:17:41Z</time>
      </trkpt>
      <trkpt lat="38.21902818" lon="-2.62116570">
        <ele>1109.0000</ele>
        <time>2018-10-13T08:17:47Z</time>
      </trkpt>
      <trkpt lat="38.21900119" lon="-2.62098994">
        <ele>1110.0000</ele>
        <time>2018-10-13T08:17:52Z</time>
      </trkpt>
      <trkpt lat="38.21894176" lon="-2.62080176">
        <ele>1111.0000</ele>
        <time>2018-10-13T08:17:58Z</time>
      </trkpt>
      <trkpt lat="38.21887797" lon="-2.62061610">
        <ele>1112.0000</ele>
        <time>2018-10-13T08:18:04Z</time>
      </trkpt>
      <trkpt lat="38.21883003" lon="-2.62046246">
        <ele>1113.0000</ele>
        <time>2018-10-13T08:18:09Z</time>
      </trkpt>
      <trkpt lat="38.21880228" lon="-2.62030145">
        <ele>1114.0000</ele>
        <time>2018-10-13T08:18:14Z</time>
      </trkpt>
      <trkpt lat="38.21877404" lon="-2.62016801">
        <ele>1115.0000</ele>
        <time>2018-10-13T08:18:19Z</time>
      </trkpt>
      <trkpt lat="38.21874763" lon="-2.62001336">
        <ele>1117.0000</ele>
        <time>2018-10-13T08:18:24Z</time>
      </trkpt>
      <trkpt lat="38.21873640" lon="-2.61985695">
        <ele>1118.0000</ele>
        <time>2018-10-13T08:18:29Z</time>
      </trkpt>
      <trkpt lat="38.21873179" lon="-2.61965721">
        <ele>1119.0000</ele>
        <time>2018-10-13T08:18:35Z</time>
      </trkpt>
      <trkpt lat="38.21874101" lon="-2.61948396">
        <ele>1120.0000</ele>
        <time>2018-10-13T08:18:40Z</time>
      </trkpt>
      <trkpt lat="38.21876700" lon="-2.61930056">
        <ele>1121.0000</ele>
        <time>2018-10-13T08:18:46Z</time>
      </trkpt>
      <trkpt lat="38.21880698" lon="-2.61911918">
        <ele>1122.0000</ele>
        <time>2018-10-13T08:18:52Z</time>
      </trkpt>
      <trkpt lat="38.21885366" lon="-2.61901197">
        <ele>1123.0000</ele>
        <time>2018-10-13T08:18:56Z</time>
      </trkpt>
      <trkpt lat="38.21891728" lon="-2.61894341">
        <ele>1124.0000</ele>
        <time>2018-10-13T08:19:00Z</time>
      </trkpt>
      <trkpt lat="38.21901342" lon="-2.61887351">
        <ele>1125.0000</ele>
        <time>2018-10-13T08:19:05Z</time>
      </trkpt>
      <trkpt lat="38.21912046" lon="-2.61883336">
        <ele>1126.0000</ele>
        <time>2018-10-13T08:19:11Z</time>
      </trkpt>
      <trkpt lat="38.21922356" lon="-2.61880503">
        <ele>1127.0000</ele>
        <time>2018-10-13T08:19:16Z</time>
      </trkpt>
      <trkpt lat="38.21938784" lon="-2.61880612">
        <ele>1129.0000</ele>
        <time>2018-10-13T08:19:22Z</time>
      </trkpt>
      <trkpt lat="38.21952925" lon="-2.61887929">
        <ele>1130.0000</ele>
        <time>2018-10-13T08:19:27Z</time>
      </trkpt>
      <trkpt lat="38.21963218" lon="-2.61890770">
        <ele>1131.0000</ele>
        <time>2018-10-13T08:19:32Z</time>
      </trkpt>
      <trkpt lat="38.21976226" lon="-2.61896051">
        <ele>1132.0000</ele>
        <time>2018-10-13T08:19:37Z</time>
      </trkpt>
      <trkpt lat="38.21989042" lon="-2.61898557">
        <ele>1133.0000</ele>
        <time>2018-10-13T08:19:42Z</time>
      </trkpt>
      <trkpt lat="38.21998547" lon="-2.61902430">
        <ele>1134.0000</ele>
        <time>2018-10-13T08:19:46Z</time>
      </trkpt>
      <trkpt lat="38.22009352" lon="-2.61905615">
        <ele>1135.0000</ele>
        <time>2018-10-13T08:19:51Z</time>
      </trkpt>
      <trkpt lat="38.22023081" lon="-2.61910929">
        <ele>1136.0000</ele>
        <time>2018-10-13T08:19:56Z</time>
      </trkpt>
      <trkpt lat="38.22034573" lon="-2.61919789">
        <ele>1138.0000</ele>
        <time>2018-10-13T08:20:01Z</time>
      </trkpt>
      <trkpt lat="38.22045025" lon="-2.61933510">
        <ele>1139.0000</ele>
        <time>2018-10-13T08:20:07Z</time>
      </trkpt>
      <trkpt lat="38.22053767" lon="-2.61942076">
        <ele>1140.0000</ele>
        <time>2018-10-13T08:20:12Z</time>
      </trkpt>
      <trkpt lat="38.22069844" lon="-2.61945798">
        <ele>1141.0000</ele>
        <time>2018-10-13T08:20:18Z</time>
      </trkpt>
      <trkpt lat="38.22089357" lon="-2.61936016">
        <ele>1142.0000</ele>
        <time>2018-10-13T08:20:26Z</time>
      </trkpt>
      <trkpt lat="38.22102910" lon="-2.61923736">
        <ele>1143.0000</ele>
        <time>2018-10-13T08:20:32Z</time>
      </trkpt>
      <trkpt lat="38.22119020" lon="-2.61909060">
        <ele>1145.0000</ele>
        <time>2018-10-13T08:20:38Z</time>
      </trkpt>
      <trkpt lat="38.22132649" lon="-2.61897970">
        <ele>1146.0000</ele>
        <time>2018-10-13T08:20:45Z</time>
      </trkpt>
      <trkpt lat="38.22170033" lon="-2.61866698">
        <ele>1147.0000</ele>
        <time>2018-10-13T08:21:01Z</time>
      </trkpt>
      <trkpt lat="38.22187291" lon="-2.61864996">
        <ele>1147.0000</ele>
        <time>2018-10-13T08:21:07Z</time>
      </trkpt>
      <trkpt lat="38.22199604" lon="-2.61866027">
        <ele>1147.0000</ele>
        <time>2018-10-13T08:21:10Z</time>
      </trkpt>
      <trkpt lat="38.22215320" lon="-2.61866739">
        <ele>1147.0000</ele>
        <time>2018-10-13T08:21:13Z</time>
      </trkpt>
      <trkpt lat="38.22228387" lon="-2.61865893">
        <ele>1147.0000</ele>
        <time>2018-10-13T08:21:15Z</time>
      </trkpt>
      <trkpt lat="38.22246551" lon="-2.61856120">
        <ele>1146.0000</ele>
        <time>2018-10-13T08:21:18Z</time>
      </trkpt>
      <trkpt lat="38.22266810" lon="-2.61843815">
        <ele>1145.0000</ele>
        <time>2018-10-13T08:21:22Z</time>
      </trkpt>
      <trkpt lat="38.22286164" lon="-2.61838476">
        <ele>1144.0000</ele>
        <time>2018-10-13T08:21:26Z</time>
      </trkpt>
      <trkpt lat="38.22294278" lon="-2.61839565">
        <ele>1143.0000</ele>
        <time>2018-10-13T08:21:27Z</time>
      </trkpt>
      <trkpt lat="38.22314671" lon="-2.61844913">
        <ele>1143.0000</ele>
        <time>2018-10-13T08:21:30Z</time>
      </trkpt>
      <trkpt lat="38.22368005" lon="-2.61862398">
        <ele>1143.0000</ele>
        <time>2018-10-13T08:21:38Z</time>
      </trkpt>
      <trkpt lat="38.22382698" lon="-2.61869204">
        <ele>1143.0000</ele>
        <time>2018-10-13T08:21:41Z</time>
      </trkpt>
      <trkpt lat="38.22403502" lon="-2.61876136">
        <ele>1143.0000</ele>
        <time>2018-10-13T08:21:45Z</time>
      </trkpt>
      <trkpt lat="38.22428455" lon="-2.61887267">
        <ele>1144.0000</ele>
        <time>2018-10-13T08:21:51Z</time>
      </trkpt>
      <trkpt lat="38.22432680" lon="-2.61888197">
        <ele>1145.0000</ele>
        <time>2018-10-13T08:21:52Z</time>
      </trkpt>
      <trkpt lat="38.22444112" lon="-2.61890335">
        <ele>1145.0000</ele>
        <time>2018-10-13T08:21:55Z</time>
      </trkpt>
      <trkpt lat="38.22452939" lon="-2.61887510">
        <ele>1146.0000</ele>
        <time>2018-10-13T08:21:58Z</time>
      </trkpt>
      <trkpt lat="38.22467800" lon="-2.61884157">
        <ele>1147.0000</ele>
        <time>2018-10-13T08:22:02Z</time>
      </trkpt>
      <trkpt lat="38.22480834" lon="-2.61876689">
        <ele>1148.0000</ele>
        <time>2018-10-13T08:22:06Z</time>
      </trkpt>
      <trkpt lat="38.22500011" lon="-2.61853203">
        <ele>1149.0000</ele>
        <time>2018-10-13T08:22:13Z</time>
      </trkpt>
      <trkpt lat="38.22513573" lon="-2.61837051">
        <ele>1150.0000</ele>
        <time>2018-10-13T08:22:19Z</time>
      </trkpt>
      <trkpt lat="38.22524889" lon="-2.61817982">
        <ele>1151.0000</ele>
        <time>2018-10-13T08:22:25Z</time>
      </trkpt>
      <trkpt lat="38.22535408" lon="-2.61807605">
        <ele>1152.0000</ele>
        <time>2018-10-13T08:22:30Z</time>
      </trkpt>
      <trkpt lat="38.22547076" lon="-2.61800715">
        <ele>1153.0000</ele>
        <time>2018-10-13T08:22:36Z</time>
      </trkpt>
      <trkpt lat="38.22565290" lon="-2.61801813">
        <ele>1154.0000</ele>
        <time>2018-10-13T08:22:42Z</time>
      </trkpt>
      <trkpt lat="38.22575222" lon="-2.61802433">
        <ele>1155.0000</ele>
        <time>2018-10-13T08:22:46Z</time>
      </trkpt>
      <trkpt lat="38.22579296" lon="-2.61800724">
        <ele>1156.0000</ele>
        <time>2018-10-13T08:22:48Z</time>
      </trkpt>
      <trkpt lat="38.22597200" lon="-2.61784194">
        <ele>1157.0000</ele>
        <time>2018-10-13T08:22:55Z</time>
      </trkpt>
      <trkpt lat="38.22603436" lon="-2.61770037">
        <ele>1158.0000</ele>
        <time>2018-10-13T08:23:00Z</time>
      </trkpt>
      <trkpt lat="38.22610803" lon="-2.61753852">
        <ele>1159.0000</ele>
        <time>2018-10-13T08:23:05Z</time>
      </trkpt>
      <trkpt lat="38.22627056" lon="-2.61733232">
        <ele>1160.0000</ele>
        <time>2018-10-13T08:23:14Z</time>
      </trkpt>
      <trkpt lat="38.22653283" lon="-2.61729494">
        <ele>1161.0000</ele>
        <time>2018-10-13T08:23:23Z</time>
      </trkpt>
      <trkpt lat="38.22656527" lon="-2.61730584">
        <ele>1161.0000</ele>
        <time>2018-10-13T08:23:24Z</time>
      </trkpt>
      <trkpt lat="38.22682376" lon="-2.61740852">
        <ele>1162.0000</ele>
        <time>2018-10-13T08:23:31Z</time>
      </trkpt>
      <trkpt lat="38.22709886" lon="-2.61734230">
        <ele>1162.0000</ele>
        <time>2018-10-13T08:23:40Z</time>
      </trkpt>
      <trkpt lat="38.22731746" lon="-2.61721188">
        <ele>1162.0000</ele>
        <time>2018-10-13T08:23:45Z</time>
      </trkpt>
      <trkpt lat="38.22738762" lon="-2.61717273">
        <ele>1162.0000</ele>
        <time>2018-10-13T08:23:47Z</time>
      </trkpt>
      <trkpt lat="38.22760496" lon="-2.61710358">
        <ele>1162.0000</ele>
        <time>2018-10-13T08:23:53Z</time>
      </trkpt>
      <trkpt lat="38.22786362" lon="-2.61713703">
        <ele>1162.0000</ele>
        <time>2018-10-13T08:23:58Z</time>
      </trkpt>
      <trkpt lat="38.22796186" lon="-2.61713711">
        <ele>1162.0000</ele>
        <time>2018-10-13T08:24:00Z</time>
      </trkpt>
      <trkpt lat="38.22811257" lon="-2.61710861">
        <ele>1162.0000</ele>
        <time>2018-10-13T08:24:04Z</time>
      </trkpt>
      <trkpt lat="38.22829965" lon="-2.61695262">
        <ele>1162.0000</ele>
        <time>2018-10-13T08:24:09Z</time>
      </trkpt>
      <trkpt lat="38.22839613" lon="-2.61684232">
        <ele>1163.0000</ele>
        <time>2018-10-13T08:24:12Z</time>
      </trkpt>
      <trkpt lat="38.22852621" lon="-2.61665264">
        <ele>1164.0000</ele>
        <time>2018-10-13T08:24:17Z</time>
      </trkpt>
      <trkpt lat="38.22864373" lon="-2.61642213">
        <ele>1165.0000</ele>
        <time>2018-10-13T08:24:23Z</time>
      </trkpt>
      <trkpt lat="38.22893315" lon="-2.61615517">
        <ele>1166.0000</ele>
        <time>2018-10-13T08:24:34Z</time>
      </trkpt>
      <trkpt lat="38.22917397" lon="-2.61611100">
        <ele>1167.0000</ele>
        <time>2018-10-13T08:24:42Z</time>
      </trkpt>
      <trkpt lat="38.22940933" lon="-2.61601544">
        <ele>1168.0000</ele>
        <time>2018-10-13T08:24:50Z</time>
      </trkpt>
      <trkpt lat="38.22993890" lon="-2.61586440">
        <ele>1169.0000</ele>
        <time>2018-10-13T08:25:04Z</time>
      </trkpt>
      <trkpt lat="38.23004183" lon="-2.61581554">
        <ele>1169.0000</ele>
        <time>2018-10-13T08:25:06Z</time>
      </trkpt>
      <trkpt lat="38.23034953" lon="-2.61579282">
        <ele>1169.0000</ele>
        <time>2018-10-13T08:25:12Z</time>
      </trkpt>
      <trkpt lat="38.23088153" lon="-2.61576818">
        <ele>1168.0000</ele>
        <time>2018-10-13T08:25:22Z</time>
      </trkpt>
      <trkpt lat="38.23103995" lon="-2.61584420">
        <ele>1168.0000</ele>
        <time>2018-10-13T08:25:25Z</time>
      </trkpt>
      <trkpt lat="38.23115721" lon="-2.61590455">
        <ele>1168.0000</ele>
        <time>2018-10-13T08:25:27Z</time>
      </trkpt>
      <trkpt lat="38.23133013" lon="-2.61585786">
        <ele>1168.0000</ele>
        <time>2018-10-13T08:25:30Z</time>
      </trkpt>
      <trkpt lat="38.23145493" lon="-2.61571646">
        <ele>1168.0000</ele>
        <time>2018-10-13T08:25:33Z</time>
      </trkpt>
      <trkpt lat="38.23153372" lon="-2.61560708">
        <ele>1168.0000</ele>
        <time>2018-10-13T08:25:35Z</time>
      </trkpt>
      <trkpt lat="38.23167420" lon="-2.61527298">
        <ele>1168.0000</ele>
        <time>2018-10-13T08:25:40Z</time>
      </trkpt>
      <trkpt lat="38.23173330" lon="-2.61516041">
        <ele>1168.0000</ele>
        <time>2018-10-13T08:25:42Z</time>
      </trkpt>
      <trkpt lat="38.23180035" lon="-2.61506661">
        <ele>1167.0000</ele>
        <time>2018-10-13T08:25:44Z</time>
      </trkpt>
      <trkpt lat="38.23185073" lon="-2.61500459">
        <ele>1167.0000</ele>
        <time>2018-10-13T08:25:46Z</time>
      </trkpt>
      <trkpt lat="38.23187101" lon="-2.61499159">
        <ele>1167.0000</ele>
        <time>2018-10-13T08:25:48Z</time>
      </trkpt>
      <trkpt lat="38.23187663" lon="-2.61499436">
        <ele>1167.0000</ele>
        <time>2018-10-13T08:25:49Z</time>
      </trkpt>
      <trkpt lat="38.23190982" lon="-2.61497709">
        <ele>1168.0000</ele>
        <time>2018-10-13T08:26:44Z</time>
      </trkpt>
      <trkpt lat="38.23197537" lon="-2.61493938">
        <ele>1168.0000</ele>
        <time>2018-10-13T08:26:47Z</time>
      </trkpt>
      <trkpt lat="38.23205038" lon="-2.61490258">
        <ele>1168.0000</ele>
        <time>2018-10-13T08:26:49Z</time>
      </trkpt>
      <trkpt lat="38.23210042" lon="-2.61486855">
        <ele>1168.0000</ele>
        <time>2018-10-13T08:26:50Z</time>
      </trkpt>
      <trkpt lat="38.23223856" lon="-2.61478113">
        <ele>1168.0000</ele>
        <time>2018-10-13T08:26:53Z</time>
      </trkpt>
      <trkpt lat="38.23235356" lon="-2.61476503">
        <ele>1167.0000</ele>
        <time>2018-10-13T08:26:55Z</time>
      </trkpt>
      <trkpt lat="38.23240402" lon="-2.61477165">
        <ele>1166.0000</ele>
        <time>2018-10-13T08:26:56Z</time>
      </trkpt>
      <trkpt lat="38.23253586" lon="-2.61483158">
        <ele>1165.0000</ele>
        <time>2018-10-13T08:26:58Z</time>
      </trkpt>
      <trkpt lat="38.23261239" lon="-2.61487567">
        <ele>1165.0000</ele>
        <time>2018-10-13T08:26:59Z</time>
      </trkpt>
      <trkpt lat="38.23276603" lon="-2.61496318">
        <ele>1164.0000</ele>
        <time>2018-10-13T08:27:01Z</time>
      </trkpt>
      <trkpt lat="38.23292051" lon="-2.61505052">
        <ele>1162.0000</ele>
        <time>2018-10-13T08:27:03Z</time>
      </trkpt>
      <trkpt lat="38.23310022" lon="-2.61523350">
        <ele>1161.0000</ele>
        <time>2018-10-13T08:27:06Z</time>
      </trkpt>
      <trkpt lat="38.23317146" lon="-2.61526619">
        <ele>1161.0000</ele>
        <time>2018-10-13T08:27:07Z</time>
      </trkpt>
      <trkpt lat="38.23332427" lon="-2.61527004">
        <ele>1160.0000</ele>
        <time>2018-10-13T08:27:09Z</time>
      </trkpt>
      <trkpt lat="38.23350364" lon="-2.61510089">
        <ele>1158.0000</ele>
        <time>2018-10-13T08:27:12Z</time>
      </trkpt>
      <trkpt lat="38.23352702" lon="-2.61492446">
        <ele>1157.0000</ele>
        <time>2018-10-13T08:27:14Z</time>
      </trkpt>
      <trkpt lat="38.23353532" lon="-2.61483661">
        <ele>1156.0000</ele>
        <time>2018-10-13T08:27:15Z</time>
      </trkpt>
      <trkpt lat="38.23356600" lon="-2.61449949">
        <ele>1156.0000</ele>
        <time>2018-10-13T08:27:19Z</time>
      </trkpt>
      <trkpt lat="38.23359140" lon="-2.61422004">
        <ele>1156.0000</ele>
        <time>2018-10-13T08:27:22Z</time>
      </trkpt>
      <trkpt lat="38.23362015" lon="-2.61385928">
        <ele>1155.0000</ele>
        <time>2018-10-13T08:27:26Z</time>
      </trkpt>
      <trkpt lat="38.23364831" lon="-2.61367245">
        <ele>1154.0000</ele>
        <time>2018-10-13T08:27:28Z</time>
      </trkpt>
      <trkpt lat="38.23367614" lon="-2.61358628">
        <ele>1153.0000</ele>
        <time>2018-10-13T08:27:29Z</time>
      </trkpt>
      <trkpt lat="38.23390228" lon="-2.61322729">
        <ele>1153.0000</ele>
        <time>2018-10-13T08:27:34Z</time>
      </trkpt>
      <trkpt lat="38.23395400" lon="-2.61320457">
        <ele>1152.0000</ele>
        <time>2018-10-13T08:27:35Z</time>
      </trkpt>
      <trkpt lat="38.23424007" lon="-2.61324263">
        <ele>1151.0000</ele>
        <time>2018-10-13T08:27:39Z</time>
      </trkpt>
      <trkpt lat="38.23452665" lon="-2.61335796">
        <ele>1150.0000</ele>
        <time>2018-10-13T08:27:43Z</time>
      </trkpt>
      <trkpt lat="38.23482957" lon="-2.61344396">
        <ele>1149.0000</ele>
        <time>2018-10-13T08:27:47Z</time>
      </trkpt>
      <trkpt lat="38.23514230" lon="-2.61340272">
        <ele>1148.0000</ele>
        <time>2018-10-13T08:27:51Z</time>
      </trkpt>
      <trkpt lat="38.23522101" lon="-2.61337925">
        <ele>1148.0000</ele>
        <time>2018-10-13T08:27:52Z</time>
      </trkpt>
      <trkpt lat="38.23540172" lon="-2.61332075">
        <ele>1147.0000</ele>
        <time>2018-10-13T08:27:54Z</time>
      </trkpt>
      <trkpt lat="38.23564949" lon="-2.61328026">
        <ele>1145.0000</ele>
        <time>2018-10-13T08:27:57Z</time>
      </trkpt>
      <trkpt lat="38.23583942" lon="-2.61333617">
        <ele>1144.0000</ele>
        <time>2018-10-13T08:27:59Z</time>
      </trkpt>
      <trkpt lat="38.23602064" lon="-2.61343717">
        <ele>1142.0000</ele>
        <time>2018-10-13T08:28:01Z</time>
      </trkpt>
      <trkpt lat="38.23618375" lon="-2.61357774">
        <ele>1141.0000</ele>
        <time>2018-10-13T08:28:03Z</time>
      </trkpt>
      <trkpt lat="38.23625743" lon="-2.61365678">
        <ele>1141.0000</ele>
        <time>2018-10-13T08:28:04Z</time>
      </trkpt>
      <trkpt lat="38.23640126" lon="-2.61380882">
        <ele>1140.0000</ele>
        <time>2018-10-13T08:28:06Z</time>
      </trkpt>
      <trkpt lat="38.23646086" lon="-2.61390237">
        <ele>1139.0000</ele>
        <time>2018-10-13T08:28:07Z</time>
      </trkpt>
      <trkpt lat="38.23652490" lon="-2.61399767">
        <ele>1138.0000</ele>
        <time>2018-10-13T08:28:08Z</time>
      </trkpt>
      <trkpt lat="38.23663176" lon="-2.61419565">
        <ele>1137.0000</ele>
        <time>2018-10-13T08:28:10Z</time>
      </trkpt>
      <trkpt lat="38.23671022" lon="-2.61440478">
        <ele>1135.0000</ele>
        <time>2018-10-13T08:28:12Z</time>
      </trkpt>
      <trkpt lat="38.23684282" lon="-2.61467761">
        <ele>1133.0000</ele>
        <time>2018-10-13T08:28:15Z</time>
      </trkpt>
      <trkpt lat="38.23692061" lon="-2.61474282">
        <ele>1133.0000</ele>
        <time>2018-10-13T08:28:16Z</time>
      </trkpt>
      <trkpt lat="38.23697241" lon="-2.61479445">
        <ele>1132.0000</ele>
        <time>2018-10-13T08:28:17Z</time>
      </trkpt>
      <trkpt lat="38.23714164" lon="-2.61485187">
        <ele>1131.0000</ele>
        <time>2018-10-13T08:28:21Z</time>
      </trkpt>
      <trkpt lat="38.23724624" lon="-2.61439355">
        <ele>1130.0000</ele>
        <time>2018-10-13T08:28:26Z</time>
      </trkpt>
      <trkpt lat="38.23725630" lon="-2.61428140">
        <ele>1130.0000</ele>
        <time>2018-10-13T08:28:27Z</time>
      </trkpt>
      <trkpt lat="38.23728773" lon="-2.61403975">
        <ele>1129.0000</ele>
        <time>2018-10-13T08:28:29Z</time>
      </trkpt>
      <trkpt lat="38.23733425" lon="-2.61380111">
        <ele>1127.0000</ele>
        <time>2018-10-13T08:28:31Z</time>
      </trkpt>
      <trkpt lat="38.23740500" lon="-2.61359701">
        <ele>1126.0000</ele>
        <time>2018-10-13T08:28:33Z</time>
      </trkpt>
      <trkpt lat="38.23744808" lon="-2.61350749">
        <ele>1125.0000</ele>
        <time>2018-10-13T08:28:34Z</time>
      </trkpt>
      <trkpt lat="38.23750181" lon="-2.61342502">
        <ele>1124.0000</ele>
        <time>2018-10-13T08:28:35Z</time>
      </trkpt>
      <trkpt lat="38.23756978" lon="-2.61335151">
        <ele>1122.0000</ele>
        <time>2018-10-13T08:28:36Z</time>
      </trkpt>
      <trkpt lat="38.23764313" lon="-2.61328537">
        <ele>1121.0000</ele>
        <time>2018-10-13T08:28:37Z</time>
      </trkpt>
      <trkpt lat="38.23771999" lon="-2.61322125">
        <ele>1121.0000</ele>
        <time>2018-10-13T08:28:38Z</time>
      </trkpt>
      <trkpt lat="38.23779760" lon="-2.61315789">
        <ele>1120.0000</ele>
        <time>2018-10-13T08:28:39Z</time>
      </trkpt>
      <trkpt lat="38.23807965" lon="-2.61293333">
        <ele>1119.0000</ele>
        <time>2018-10-13T08:28:43Z</time>
      </trkpt>
      <trkpt lat="38.23821234" lon="-2.61289888">
        <ele>1118.0000</ele>
        <time>2018-10-13T08:28:45Z</time>
      </trkpt>
      <trkpt lat="38.23828828" lon="-2.61290811">
        <ele>1117.0000</ele>
        <time>2018-10-13T08:28:46Z</time>
      </trkpt>
      <trkpt lat="38.23868558" lon="-2.61323072">
        <ele>1115.0000</ele>
        <time>2018-10-13T08:28:52Z</time>
      </trkpt>
      <trkpt lat="38.23874417" lon="-2.61340859">
        <ele>1115.0000</ele>
        <time>2018-10-13T08:28:54Z</time>
      </trkpt>
      <trkpt lat="38.23873361" lon="-2.61352719">
        <ele>1115.0000</ele>
        <time>2018-10-13T08:28:55Z</time>
      </trkpt>
      <trkpt lat="38.23883922" lon="-2.61402734">
        <ele>1114.0000</ele>
        <time>2018-10-13T08:29:00Z</time>
      </trkpt>
      <trkpt lat="38.23887736" lon="-2.61422046">
        <ele>1114.0000</ele>
        <time>2018-10-13T08:29:02Z</time>
      </trkpt>
      <trkpt lat="38.23889371" lon="-2.61443051">
        <ele>1113.0000</ele>
        <time>2018-10-13T08:29:04Z</time>
      </trkpt>
      <trkpt lat="38.23896612" lon="-2.61460921">
        <ele>1112.0000</ele>
        <time>2018-10-13T08:29:06Z</time>
      </trkpt>
      <trkpt lat="38.23911725" lon="-2.61482211">
        <ele>1110.0000</ele>
        <time>2018-10-13T08:29:09Z</time>
      </trkpt>
      <trkpt lat="38.23916067" lon="-2.61489738">
        <ele>1110.0000</ele>
        <time>2018-10-13T08:29:10Z</time>
      </trkpt>
      <trkpt lat="38.23924767" lon="-2.61504482">
        <ele>1109.0000</ele>
        <time>2018-10-13T08:29:12Z</time>
      </trkpt>
      <trkpt lat="38.23930526" lon="-2.61522989">
        <ele>1108.0000</ele>
        <time>2018-10-13T08:29:14Z</time>
      </trkpt>
      <trkpt lat="38.23934574" lon="-2.61533291">
        <ele>1108.0000</ele>
        <time>2018-10-13T08:29:15Z</time>
      </trkpt>
      <trkpt lat="38.23936820" lon="-2.61543533">
        <ele>1108.0000</ele>
        <time>2018-10-13T08:29:16Z</time>
      </trkpt>
      <trkpt lat="38.23947172" lon="-2.61574043">
        <ele>1107.0000</ele>
        <time>2018-10-13T08:29:19Z</time>
      </trkpt>
      <trkpt lat="38.23958965" lon="-2.61599969">
        <ele>1106.0000</ele>
        <time>2018-10-13T08:29:22Z</time>
      </trkpt>
      <trkpt lat="38.23979543" lon="-2.61656303">
        <ele>1105.0000</ele>
        <time>2018-10-13T08:29:28Z</time>
      </trkpt>
      <trkpt lat="38.23985427" lon="-2.61671827">
        <ele>1105.0000</ele>
        <time>2018-10-13T08:29:30Z</time>
      </trkpt>
      <trkpt lat="38.23986022" lon="-2.61680376">
        <ele>1105.0000</ele>
        <time>2018-10-13T08:29:31Z</time>
      </trkpt>
      <trkpt lat="38.23990289" lon="-2.61712990">
        <ele>1104.0000</ele>
        <time>2018-10-13T08:29:35Z</time>
      </trkpt>
      <trkpt lat="38.23995737" lon="-2.61736703">
        <ele>1104.0000</ele>
        <time>2018-10-13T08:29:38Z</time>
      </trkpt>
      <trkpt lat="38.23999274" lon="-2.61737759">
        <ele>1103.0000</ele>
        <time>2018-10-13T08:29:39Z</time>
      </trkpt>
      <trkpt lat="38.23999651" lon="-2.61745009">
        <ele>1103.0000</ele>
        <time>2018-10-13T08:29:41Z</time>
      </trkpt>
      <trkpt lat="38.23999609" lon="-2.61744967">
        <ele>1103.0000</ele>
        <time>2018-10-13T08:29:42Z</time>
      </trkpt>
      <trkpt lat="38.24001722" lon="-2.61740969">
        <ele>1103.0000</ele>
        <time>2018-10-13T08:29:44Z</time>
      </trkpt>
      <trkpt lat="38.24002861" lon="-2.61738354">
        <ele>1103.0000</ele>
        <time>2018-10-13T08:29:45Z</time>
      </trkpt>
      <trkpt lat="38.24006290" lon="-2.61733476">
        <ele>1103.0000</ele>
        <time>2018-10-13T08:29:47Z</time>
      </trkpt>
      <trkpt lat="38.24013641" lon="-2.61725320">
        <ele>1104.0000</ele>
        <time>2018-10-13T08:29:50Z</time>
      </trkpt>
      <trkpt lat="38.24017832" lon="-2.61720324">
        <ele>1105.0000</ele>
        <time>2018-10-13T08:29:52Z</time>
      </trkpt>
      <trkpt lat="38.24023841" lon="-2.61710911">
        <ele>1107.0000</ele>
        <time>2018-10-13T08:29:55Z</time>
      </trkpt>
      <trkpt lat="38.24034361" lon="-2.61694910">
        <ele>1108.0000</ele>
        <time>2018-10-13T08:30:00Z</time>
      </trkpt>
      <trkpt lat="38.24043874" lon="-2.61678859">
        <ele>1109.0000</ele>
        <time>2018-10-13T08:30:05Z</time>
      </trkpt>
      <trkpt lat="38.24052709" lon="-2.61667560">
        <ele>1110.0000</ele>
        <time>2018-10-13T08:30:09Z</time>
      </trkpt>
      <trkpt lat="38.24057579" lon="-2.61662590">
        <ele>1110.0000</ele>
        <time>2018-10-13T08:30:11Z</time>
      </trkpt>
      <trkpt lat="38.24065499" lon="-2.61656044">
        <ele>1111.0000</ele>
        <time>2018-10-13T08:30:15Z</time>
      </trkpt>
      <trkpt lat="38.24082272" lon="-2.61654141">
        <ele>1112.0000</ele>
        <time>2018-10-13T08:30:21Z</time>
      </trkpt>
      <trkpt lat="38.24101215" lon="-2.61657728">
        <ele>1114.0000</ele>
        <time>2018-10-13T08:30:27Z</time>
      </trkpt>
      <trkpt lat="38.24121139" lon="-2.61655817">
        <ele>1115.0000</ele>
        <time>2018-10-13T08:30:33Z</time>
      </trkpt>
      <trkpt lat="38.24143895" lon="-2.61651651">
        <ele>1116.0000</ele>
        <time>2018-10-13T08:30:39Z</time>
      </trkpt>
      <trkpt lat="38.24163853" lon="-2.61645407">
        <ele>1117.0000</ele>
        <time>2018-10-13T08:30:45Z</time>
      </trkpt>
      <trkpt lat="38.24185763" lon="-2.61637444">
        <ele>1118.0000</ele>
        <time>2018-10-13T08:30:52Z</time>
      </trkpt>
      <trkpt lat="38.24194438" lon="-2.61633622">
        <ele>1118.0000</ele>
        <time>2018-10-13T08:30:55Z</time>
      </trkpt>
      <trkpt lat="38.24203725" lon="-2.61626606">
        <ele>1119.0000</ele>
        <time>2018-10-13T08:30:58Z</time>
      </trkpt>
      <trkpt lat="38.24223565" lon="-2.61609507">
        <ele>1120.0000</ele>
        <time>2018-10-13T08:31:04Z</time>
      </trkpt>
      <trkpt lat="38.24239625" lon="-2.61594277">
        <ele>1121.0000</ele>
        <time>2018-10-13T08:31:10Z</time>
      </trkpt>
      <trkpt lat="38.24253933" lon="-2.61579542">
        <ele>1122.0000</ele>
        <time>2018-10-13T08:31:16Z</time>
      </trkpt>
      <trkpt lat="38.24272340" lon="-2.61567464">
        <ele>1123.0000</ele>
        <time>2018-10-13T08:31:22Z</time>
      </trkpt>
      <trkpt lat="38.24291643" lon="-2.61555712">
        <ele>1124.0000</ele>
        <time>2018-10-13T08:31:29Z</time>
      </trkpt>
      <trkpt lat="38.24308365" lon="-2.61550138">
        <ele>1125.0000</ele>
        <time>2018-10-13T08:31:35Z</time>
      </trkpt>
      <trkpt lat="38.24321935" lon="-2.61545553">
        <ele>1126.0000</ele>
        <time>2018-10-13T08:31:40Z</time>
      </trkpt>
      <trkpt lat="38.24347953" lon="-2.61546039">
        <ele>1127.0000</ele>
        <time>2018-10-13T08:31:47Z</time>
      </trkpt>
      <trkpt lat="38.24356854" lon="-2.61549434">
        <ele>1127.0000</ele>
        <time>2018-10-13T08:31:49Z</time>
      </trkpt>
      <trkpt lat="38.24373928" lon="-2.61561445">
        <ele>1127.0000</ele>
        <time>2018-10-13T08:31:53Z</time>
      </trkpt>
      <trkpt lat="38.24393961" lon="-2.61574555">
        <ele>1127.0000</ele>
        <time>2018-10-13T08:31:57Z</time>
      </trkpt>
      <trkpt lat="38.24404757" lon="-2.61580573">
        <ele>1127.0000</ele>
        <time>2018-10-13T08:31:59Z</time>
      </trkpt>
      <trkpt lat="38.24427623" lon="-2.61594051">
        <ele>1126.0000</ele>
        <time>2018-10-13T08:32:03Z</time>
      </trkpt>
      <trkpt lat="38.24441906" lon="-2.61595266">
        <ele>1125.0000</ele>
        <time>2018-10-13T08:32:05Z</time>
      </trkpt>
      <trkpt lat="38.24461251" lon="-2.61588946">
        <ele>1124.0000</ele>
        <time>2018-10-13T08:32:08Z</time>
      </trkpt>
      <trkpt lat="38.24467118" lon="-2.61587329">
        <ele>1123.0000</ele>
        <time>2018-10-13T08:32:09Z</time>
      </trkpt>
      <trkpt lat="38.24471779" lon="-2.61587295">
        <ele>1123.0000</ele>
        <time>2018-10-13T08:32:10Z</time>
      </trkpt>
      <trkpt lat="38.24483128" lon="-2.61598426">
        <ele>1121.0000</ele>
        <time>2018-10-13T08:32:12Z</time>
      </trkpt>
      <trkpt lat="38.24487511" lon="-2.61604956">
        <ele>1120.0000</ele>
        <time>2018-10-13T08:32:13Z</time>
      </trkpt>
      <trkpt lat="38.24491744" lon="-2.61611016">
        <ele>1120.0000</ele>
        <time>2018-10-13T08:32:14Z</time>
      </trkpt>
      <trkpt lat="38.24497411" lon="-2.61623379">
        <ele>1119.0000</ele>
        <time>2018-10-13T08:32:16Z</time>
      </trkpt>
      <trkpt lat="38.24503898" lon="-2.61646916">
        <ele>1119.0000</ele>
        <time>2018-10-13T08:32:19Z</time>
      </trkpt>
      <trkpt lat="38.24507033" lon="-2.61654241">
        <ele>1118.0000</ele>
        <time>2018-10-13T08:32:20Z</time>
      </trkpt>
      <trkpt lat="38.24514845" lon="-2.61686394">
        <ele>1117.0000</ele>
        <time>2018-10-13T08:32:24Z</time>
      </trkpt>
      <trkpt lat="38.24526496" lon="-2.61723535">
        <ele>1117.0000</ele>
        <time>2018-10-13T08:32:29Z</time>
      </trkpt>
      <trkpt lat="38.24544735" lon="-2.61743810">
        <ele>1117.0000</ele>
        <time>2018-10-13T08:32:33Z</time>
      </trkpt>
      <trkpt lat="38.24560551" lon="-2.61750315">
        <ele>1117.0000</ele>
        <time>2018-10-13T08:32:36Z</time>
      </trkpt>
      <trkpt lat="38.24605478" lon="-2.61759376">
        <ele>1117.0000</ele>
        <time>2018-10-13T08:32:44Z</time>
      </trkpt>
      <trkpt lat="38.24650162" lon="-2.61765729">
        <ele>1117.0000</ele>
        <time>2018-10-13T08:32:52Z</time>
      </trkpt>
      <trkpt lat="38.24666658" lon="-2.61768319">
        <ele>1118.0000</ele>
        <time>2018-10-13T08:32:55Z</time>
      </trkpt>
      <trkpt lat="38.24707184" lon="-2.61778126">
        <ele>1119.0000</ele>
        <time>2018-10-13T08:33:05Z</time>
      </trkpt>
      <trkpt lat="38.24717704" lon="-2.61782619">
        <ele>1120.0000</ele>
        <time>2018-10-13T08:33:09Z</time>
      </trkpt>
      <trkpt lat="38.24733705" lon="-2.61793389">
        <ele>1121.0000</ele>
        <time>2018-10-13T08:33:13Z</time>
      </trkpt>
      <trkpt lat="38.24742170" lon="-2.61801788">
        <ele>1121.0000</ele>
        <time>2018-10-13T08:33:15Z</time>
      </trkpt>
      <trkpt lat="38.24761030" lon="-2.61822332">
        <ele>1121.0000</ele>
        <time>2018-10-13T08:33:20Z</time>
      </trkpt>
      <trkpt lat="38.24766285" lon="-2.61831678">
        <ele>1121.0000</ele>
        <time>2018-10-13T08:33:22Z</time>
      </trkpt>
      <trkpt lat="38.24771700" lon="-2.61842315">
        <ele>1121.0000</ele>
        <time>2018-10-13T08:33:24Z</time>
      </trkpt>
      <trkpt lat="38.24784960" lon="-2.61869832">
        <ele>1120.0000</ele>
        <time>2018-10-13T08:33:29Z</time>
      </trkpt>
      <trkpt lat="38.24792311" lon="-2.61878617">
        <ele>1120.0000</ele>
        <time>2018-10-13T08:33:31Z</time>
      </trkpt>
      <trkpt lat="38.24810240" lon="-2.61906637">
        <ele>1120.0000</ele>
        <time>2018-10-13T08:33:39Z</time>
      </trkpt>
      <trkpt lat="38.24822662" lon="-2.61917098">
        <ele>1122.0000</ele>
        <time>2018-10-13T08:33:44Z</time>
      </trkpt>
      <trkpt lat="38.24825352" lon="-2.61919537">
        <ele>1122.0000</ele>
        <time>2018-10-13T08:33:45Z</time>
      </trkpt>
      <trkpt lat="38.24833064" lon="-2.61924197">
        <ele>1123.0000</ele>
        <time>2018-10-13T08:33:48Z</time>
      </trkpt>
      <trkpt lat="38.24844027" lon="-2.61933040">
        <ele>1124.0000</ele>
        <time>2018-10-13T08:33:52Z</time>
      </trkpt>
      <trkpt lat="38.24846718" lon="-2.61934608">
        <ele>1124.0000</ele>
        <time>2018-10-13T08:33:53Z</time>
      </trkpt>
      <trkpt lat="38.24859299" lon="-2.61941523">
        <ele>1125.0000</ele>
        <time>2018-10-13T08:33:58Z</time>
      </trkpt>
      <trkpt lat="38.24876843" lon="-2.61946217">
        <ele>1126.0000</ele>
        <time>2018-10-13T08:34:04Z</time>
      </trkpt>
      <trkpt lat="38.24897320" lon="-2.61947667">
        <ele>1127.0000</ele>
        <time>2018-10-13T08:34:10Z</time>
      </trkpt>
      <trkpt lat="38.24923153" lon="-2.61948698">
        <ele>1128.0000</ele>
        <time>2018-10-13T08:34:18Z</time>
      </trkpt>
      <trkpt lat="38.24957854" lon="-2.61947248">
        <ele>1129.0000</ele>
        <time>2018-10-13T08:34:28Z</time>
      </trkpt>
      <trkpt lat="38.24980225" lon="-2.61946535">
        <ele>1130.0000</ele>
        <time>2018-10-13T08:34:34Z</time>
      </trkpt>
      <trkpt lat="38.25001800" lon="-2.61948061">
        <ele>1130.0000</ele>
        <time>2018-10-13T08:34:39Z</time>
      </trkpt>
      <trkpt lat="38.25022595" lon="-2.61950592">
        <ele>1130.0000</ele>
        <time>2018-10-13T08:34:43Z</time>
      </trkpt>
      <trkpt lat="38.25044045" lon="-2.61950751">
        <ele>1130.0000</ele>
        <time>2018-10-13T08:34:47Z</time>
      </trkpt>
      <trkpt lat="38.25059945" lon="-2.61947600">
        <ele>1130.0000</ele>
        <time>2018-10-13T08:34:50Z</time>
      </trkpt>
      <trkpt lat="38.25068017" lon="-2.61942696">
        <ele>1130.0000</ele>
        <time>2018-10-13T08:34:52Z</time>
      </trkpt>
      <trkpt lat="38.25072661" lon="-2.61938354">
        <ele>1130.0000</ele>
        <time>2018-10-13T08:34:53Z</time>
      </trkpt>
      <trkpt lat="38.25084772" lon="-2.61926569">
        <ele>1130.0000</ele>
        <time>2018-10-13T08:34:56Z</time>
      </trkpt>
      <trkpt lat="38.25089248" lon="-2.61923929">
        <ele>1129.0000</ele>
        <time>2018-10-13T08:34:57Z</time>
      </trkpt>
      <trkpt lat="38.25107705" lon="-2.61924122">
        <ele>1129.0000</ele>
        <time>2018-10-13T08:35:00Z</time>
      </trkpt>
      <trkpt lat="38.25126053" lon="-2.61933786">
        <ele>1128.0000</ele>
        <time>2018-10-13T08:35:03Z</time>
      </trkpt>
      <trkpt lat="38.25132004" lon="-2.61937508">
        <ele>1128.0000</ele>
        <time>2018-10-13T08:35:04Z</time>
      </trkpt>
      <trkpt lat="38.25142255" lon="-2.61946493">
        <ele>1127.0000</ele>
        <time>2018-10-13T08:35:06Z</time>
      </trkpt>
      <trkpt lat="38.25156429" lon="-2.61956627">
        <ele>1127.0000</ele>
        <time>2018-10-13T08:35:09Z</time>
      </trkpt>
      <trkpt lat="38.25181424" lon="-2.61959091">
        <ele>1127.0000</ele>
        <time>2018-10-13T08:35:15Z</time>
      </trkpt>
      <trkpt lat="38.25185255" lon="-2.61957708">
        <ele>1127.0000</ele>
        <time>2018-10-13T08:35:16Z</time>
      </trkpt>
      <trkpt lat="38.25201264" lon="-2.61941087">
        <ele>1128.0000</ele>
        <time>2018-10-13T08:35:22Z</time>
      </trkpt>
      <trkpt lat="38.25203435" lon="-2.61938237">
        <ele>1128.0000</ele>
        <time>2018-10-13T08:35:23Z</time>
      </trkpt>
      <trkpt lat="38.25209562" lon="-2.61928615">
        <ele>1129.0000</ele>
        <time>2018-10-13T08:35:26Z</time>
      </trkpt>
      <trkpt lat="38.25216737" lon="-2.61918984">
        <ele>1130.0000</ele>
        <time>2018-10-13T08:35:29Z</time>
      </trkpt>
      <trkpt lat="38.25220844" lon="-2.61913863">
        <ele>1130.0000</ele>
        <time>2018-10-13T08:35:31Z</time>
      </trkpt>
      <trkpt lat="38.25235487" lon="-2.61900049">
        <ele>1131.0000</ele>
        <time>2018-10-13T08:35:37Z</time>
      </trkpt>
      <trkpt lat="38.25247758" lon="-2.61891676">
        <ele>1132.0000</ele>
        <time>2018-10-13T08:35:41Z</time>
      </trkpt>
      <trkpt lat="38.25278386" lon="-2.61884668">
        <ele>1133.0000</ele>
        <time>2018-10-13T08:35:50Z</time>
      </trkpt>
      <trkpt lat="38.25285435" lon="-2.61884819">
        <ele>1133.0000</ele>
        <time>2018-10-13T08:35:52Z</time>
      </trkpt>
      <trkpt lat="38.25329918" lon="-2.61890787">
        <ele>1134.0000</ele>
        <time>2018-10-13T08:36:05Z</time>
      </trkpt>
      <trkpt lat="38.25356388" lon="-2.61877904">
        <ele>1135.0000</ele>
        <time>2018-10-13T08:36:12Z</time>
      </trkpt>
      <trkpt lat="38.25411105" lon="-2.61850965">
        <ele>1135.0000</ele>
        <time>2018-10-13T08:36:24Z</time>
      </trkpt>
      <trkpt lat="38.25428036" lon="-2.61841795">
        <ele>1135.0000</ele>
        <time>2018-10-13T08:36:28Z</time>
      </trkpt>
      <trkpt lat="38.25439771" lon="-2.61832483">
        <ele>1135.0000</ele>
        <time>2018-10-13T08:36:31Z</time>
      </trkpt>
      <trkpt lat="38.25467842" lon="-2.61806566">
        <ele>1136.0000</ele>
        <time>2018-10-13T08:36:39Z</time>
      </trkpt>
      <trkpt lat="38.25478554" lon="-2.61800891">
        <ele>1136.0000</ele>
        <time>2018-10-13T08:36:42Z</time>
      </trkpt>
      <trkpt lat="38.25491965" lon="-2.61799450">
        <ele>1137.0000</ele>
        <time>2018-10-13T08:36:45Z</time>
      </trkpt>
      <trkpt lat="38.25501730" lon="-2.61799508">
        <ele>1137.0000</ele>
        <time>2018-10-13T08:36:47Z</time>
      </trkpt>
      <trkpt lat="38.25549515" lon="-2.61809139">
        <ele>1138.0000</ele>
        <time>2018-10-13T08:36:58Z</time>
      </trkpt>
      <trkpt lat="38.25576530" lon="-2.61818083">
        <ele>1139.0000</ele>
        <time>2018-10-13T08:37:05Z</time>
      </trkpt>
      <trkpt lat="38.25595918" lon="-2.61816113">
        <ele>1140.0000</ele>
        <time>2018-10-13T08:37:10Z</time>
      </trkpt>
      <trkpt lat="38.25612170" lon="-2.61809533">
        <ele>1140.0000</ele>
        <time>2018-10-13T08:37:14Z</time>
      </trkpt>
      <trkpt lat="38.25643627" lon="-2.61803993">
        <ele>1141.0000</ele>
        <time>2018-10-13T08:37:21Z</time>
      </trkpt>
      <trkpt lat="38.25676736" lon="-2.61802920">
        <ele>1141.0000</ele>
        <time>2018-10-13T08:37:28Z</time>
      </trkpt>
      <trkpt lat="38.25694455" lon="-2.61795803">
        <ele>1142.0000</ele>
        <time>2018-10-13T08:37:32Z</time>
      </trkpt>
      <trkpt lat="38.25698462" lon="-2.61793121">
        <ele>1142.0000</ele>
        <time>2018-10-13T08:37:33Z</time>
      </trkpt>
      <trkpt lat="38.25733004" lon="-2.61763055">
        <ele>1143.0000</ele>
        <time>2018-10-13T08:37:43Z</time>
      </trkpt>
      <trkpt lat="38.25762609" lon="-2.61735043">
        <ele>1144.0000</ele>
        <time>2018-10-13T08:37:51Z</time>
      </trkpt>
      <trkpt lat="38.25814417" lon="-2.61700627">
        <ele>1144.0000</ele>
        <time>2018-10-13T08:38:03Z</time>
      </trkpt>
      <trkpt lat="38.25844139" lon="-2.61691935">
        <ele>1144.0000</ele>
        <time>2018-10-13T08:38:09Z</time>
      </trkpt>
      <trkpt lat="38.25872529" lon="-2.61689311">
        <ele>1144.0000</ele>
        <time>2018-10-13T08:38:14Z</time>
      </trkpt>
      <trkpt lat="38.25888781" lon="-2.61681659">
        <ele>1144.0000</ele>
        <time>2018-10-13T08:38:17Z</time>
      </trkpt>
      <trkpt lat="38.25894657" lon="-2.61678381">
        <ele>1144.0000</ele>
        <time>2018-10-13T08:38:18Z</time>
      </trkpt>
      <trkpt lat="38.25918613" lon="-2.61667451">
        <ele>1144.0000</ele>
        <time>2018-10-13T08:38:22Z</time>
      </trkpt>
      <trkpt lat="38.25973791" lon="-2.61653102">
        <ele>1143.0000</ele>
        <time>2018-10-13T08:38:31Z</time>
      </trkpt>
      <trkpt lat="38.25993563" lon="-2.61648718">
        <ele>1143.0000</ele>
        <time>2018-10-13T08:38:34Z</time>
      </trkpt>
      <trkpt lat="38.26047384" lon="-2.61637402">
        <ele>1142.0000</ele>
        <time>2018-10-13T08:38:43Z</time>
      </trkpt>
      <trkpt lat="38.26078841" lon="-2.61630177">
        <ele>1143.0000</ele>
        <time>2018-10-13T08:38:49Z</time>
      </trkpt>
      <trkpt lat="38.26105998" lon="-2.61624494">
        <ele>1143.0000</ele>
        <time>2018-10-13T08:38:55Z</time>
      </trkpt>
      <trkpt lat="38.26120893" lon="-2.61621384">
        <ele>1144.0000</ele>
        <time>2018-10-13T08:38:58Z</time>
      </trkpt>
      <trkpt lat="38.26136316" lon="-2.61617688">
        <ele>1145.0000</ele>
        <time>2018-10-13T08:39:01Z</time>
      </trkpt>
      <trkpt lat="38.26146944" lon="-2.61614268">
        <ele>1145.0000</ele>
        <time>2018-10-13T08:39:03Z</time>
      </trkpt>
      <trkpt lat="38.26199750" lon="-2.61585292">
        <ele>1146.0000</ele>
        <time>2018-10-13T08:39:14Z</time>
      </trkpt>
      <trkpt lat="38.26249899" lon="-2.61553374">
        <ele>1145.0000</ele>
        <time>2018-10-13T08:39:25Z</time>
      </trkpt>
      <trkpt lat="38.26274936" lon="-2.61537943">
        <ele>1146.0000</ele>
        <time>2018-10-13T08:39:32Z</time>
      </trkpt>
      <trkpt lat="38.26290836" lon="-2.61534120">
        <ele>1146.0000</ele>
        <time>2018-10-13T08:39:35Z</time>
      </trkpt>
      <trkpt lat="38.26330499" lon="-2.61533173">
        <ele>1147.0000</ele>
        <time>2018-10-13T08:39:42Z</time>
      </trkpt>
      <trkpt lat="38.26352426" lon="-2.61531363">
        <ele>1147.0000</ele>
        <time>2018-10-13T08:39:46Z</time>
      </trkpt>
      <trkpt lat="38.26405291" lon="-2.61509553">
        <ele>1147.0000</ele>
        <time>2018-10-13T08:39:56Z</time>
      </trkpt>
      <trkpt lat="38.26421015" lon="-2.61498271">
        <ele>1147.0000</ele>
        <time>2018-10-13T08:39:59Z</time>
      </trkpt>
      <trkpt lat="38.26465314" lon="-2.61452715">
        <ele>1147.0000</ele>
        <time>2018-10-13T08:40:08Z</time>
      </trkpt>
      <trkpt lat="38.26484131" lon="-2.61435491">
        <ele>1147.0000</ele>
        <time>2018-10-13T08:40:12Z</time>
      </trkpt>
      <trkpt lat="38.26506125" lon="-2.61424259">
        <ele>1147.0000</ele>
        <time>2018-10-13T08:40:17Z</time>
      </trkpt>
      <trkpt lat="38.26533945" lon="-2.61417838">
        <ele>1148.0000</ele>
        <time>2018-10-13T08:40:24Z</time>
      </trkpt>
      <trkpt lat="38.26547892" lon="-2.61415173">
        <ele>1149.0000</ele>
        <time>2018-10-13T08:40:28Z</time>
      </trkpt>
      <trkpt lat="38.26566282" lon="-2.61410412">
        <ele>1150.0000</ele>
        <time>2018-10-13T08:40:33Z</time>
      </trkpt>
      <trkpt lat="38.26590699" lon="-2.61400907">
        <ele>1151.0000</ele>
        <time>2018-10-13T08:40:39Z</time>
      </trkpt>
      <trkpt lat="38.26607328" lon="-2.61386314">
        <ele>1152.0000</ele>
        <time>2018-10-13T08:40:45Z</time>
      </trkpt>
      <trkpt lat="38.26622885" lon="-2.61374680">
        <ele>1153.0000</ele>
        <time>2018-10-13T08:40:51Z</time>
      </trkpt>
      <trkpt lat="38.26642004" lon="-2.61364337">
        <ele>1155.0000</ele>
        <time>2018-10-13T08:40:57Z</time>
      </trkpt>
      <trkpt lat="38.26662205" lon="-2.61358779">
        <ele>1156.0000</ele>
        <time>2018-10-13T08:41:03Z</time>
      </trkpt>
      <trkpt lat="38.26679723" lon="-2.61354119">
        <ele>1157.0000</ele>
        <time>2018-10-13T08:41:08Z</time>
      </trkpt>
      <trkpt lat="38.26697249" lon="-2.61347279">
        <ele>1158.0000</ele>
        <time>2018-10-13T08:41:14Z</time>
      </trkpt>
      <trkpt lat="38.26716821" lon="-2.61338897">
        <ele>1159.0000</ele>
        <time>2018-10-13T08:41:20Z</time>
      </trkpt>
      <trkpt lat="38.26735479" lon="-2.61326149">
        <ele>1160.0000</ele>
        <time>2018-10-13T08:41:26Z</time>
      </trkpt>
      <trkpt lat="38.26754816" lon="-2.61310776">
        <ele>1161.0000</ele>
        <time>2018-10-13T08:41:33Z</time>
      </trkpt>
      <trkpt lat="38.26771027" lon="-2.61298270">
        <ele>1162.0000</ele>
        <time>2018-10-13T08:41:39Z</time>
      </trkpt>
      <trkpt lat="38.26788034" lon="-2.61280484">
        <ele>1163.0000</ele>
        <time>2018-10-13T08:41:46Z</time>
      </trkpt>
      <trkpt lat="38.26806843" lon="-2.61257425">
        <ele>1164.0000</ele>
        <time>2018-10-13T08:41:54Z</time>
      </trkpt>
      <trkpt lat="38.26820950" lon="-2.61238063">
        <ele>1165.0000</ele>
        <time>2018-10-13T08:42:01Z</time>
      </trkpt>
      <trkpt lat="38.26838610" lon="-2.61218768">
        <ele>1166.0000</ele>
        <time>2018-10-13T08:42:08Z</time>
      </trkpt>
      <trkpt lat="38.26856916" lon="-2.61199465">
        <ele>1167.0000</ele>
        <time>2018-10-13T08:42:15Z</time>
      </trkpt>
      <trkpt lat="38.26885448" lon="-2.61168242">
        <ele>1168.0000</ele>
        <time>2018-10-13T08:42:26Z</time>
      </trkpt>
      <trkpt lat="38.26899739" lon="-2.61152853">
        <ele>1168.0000</ele>
        <time>2018-10-13T08:42:31Z</time>
      </trkpt>
      <trkpt lat="38.26905548" lon="-2.61147111">
        <ele>1168.0000</ele>
        <time>2018-10-13T08:42:33Z</time>
      </trkpt>
      <trkpt lat="38.26912337" lon="-2.61139618">
        <ele>1168.0000</ele>
        <time>2018-10-13T08:42:35Z</time>
      </trkpt>
      <trkpt lat="38.26926385" lon="-2.61128570">
        <ele>1167.0000</ele>
        <time>2018-10-13T08:42:38Z</time>
      </trkpt>
      <trkpt lat="38.26941020" lon="-2.61116391">
        <ele>1167.0000</ele>
        <time>2018-10-13T08:42:41Z</time>
      </trkpt>
      <trkpt lat="38.26956049" lon="-2.61103710">
        <ele>1166.0000</ele>
        <time>2018-10-13T08:42:44Z</time>
      </trkpt>
      <trkpt lat="38.26966049" lon="-2.61095630">
        <ele>1165.0000</ele>
        <time>2018-10-13T08:42:46Z</time>
      </trkpt>
      <trkpt lat="38.26977876" lon="-2.61089368">
        <ele>1165.0000</ele>
        <time>2018-10-13T08:42:48Z</time>
      </trkpt>
      <trkpt lat="38.26992116" lon="-2.61080685">
        <ele>1165.0000</ele>
        <time>2018-10-13T08:42:51Z</time>
      </trkpt>
      <trkpt lat="38.27002996" lon="-2.61073434">
        <ele>1164.0000</ele>
        <time>2018-10-13T08:42:53Z</time>
      </trkpt>
      <trkpt lat="38.27050982" lon="-2.61038649">
        <ele>1164.0000</ele>
        <time>2018-10-13T08:43:01Z</time>
      </trkpt>
      <trkpt lat="38.27074745" lon="-2.61014241">
        <ele>1164.0000</ele>
        <time>2018-10-13T08:43:06Z</time>
      </trkpt>
      <trkpt lat="38.27104124" lon="-2.60967856">
        <ele>1164.0000</ele>
        <time>2018-10-13T08:43:15Z</time>
      </trkpt>
      <trkpt lat="38.27106429" lon="-2.60961410">
        <ele>1164.0000</ele>
        <time>2018-10-13T08:43:16Z</time>
      </trkpt>
      <trkpt lat="38.27112749" lon="-2.60942609">
        <ele>1165.0000</ele>
        <time>2018-10-13T08:43:19Z</time>
      </trkpt>
      <trkpt lat="38.27117669" lon="-2.60930087">
        <ele>1165.0000</ele>
        <time>2018-10-13T08:43:21Z</time>
      </trkpt>
      <trkpt lat="38.27120209" lon="-2.60924077">
        <ele>1165.0000</ele>
        <time>2018-10-13T08:43:22Z</time>
      </trkpt>
      <trkpt lat="38.27125548" lon="-2.60913440">
        <ele>1165.0000</ele>
        <time>2018-10-13T08:43:24Z</time>
      </trkpt>
      <trkpt lat="38.27133997" lon="-2.60897347">
        <ele>1166.0000</ele>
        <time>2018-10-13T08:43:27Z</time>
      </trkpt>
      <trkpt lat="38.27140292" lon="-2.60876124">
        <ele>1166.0000</ele>
        <time>2018-10-13T08:43:31Z</time>
      </trkpt>
      <trkpt lat="38.27141197" lon="-2.60863677">
        <ele>1166.0000</ele>
        <time>2018-10-13T08:43:33Z</time>
      </trkpt>
      <trkpt lat="38.27125221" lon="-2.60833988">
        <ele>1167.0000</ele>
        <time>2018-10-13T08:43:40Z</time>
      </trkpt>
      <trkpt lat="38.27122279" lon="-2.60831356">
        <ele>1167.0000</ele>
        <time>2018-10-13T08:43:41Z</time>
      </trkpt>
      <trkpt lat="38.27094350" lon="-2.60809195">
        <ele>1168.0000</ele>
        <time>2018-10-13T08:43:48Z</time>
      </trkpt>
      <trkpt lat="38.27085650" lon="-2.60801131">
        <ele>1168.0000</ele>
        <time>2018-10-13T08:43:50Z</time>
      </trkpt>
      <trkpt lat="38.27081962" lon="-2.60745484">
        <ele>1168.0000</ele>
        <time>2018-10-13T08:43:59Z</time>
      </trkpt>
      <trkpt lat="38.27082448" lon="-2.60730866">
        <ele>1168.0000</ele>
        <time>2018-10-13T08:44:01Z</time>
      </trkpt>
      <trkpt lat="38.27079867" lon="-2.60712375">
        <ele>1168.0000</ele>
        <time>2018-10-13T08:44:04Z</time>
      </trkpt>
      <trkpt lat="38.27073086" lon="-2.60694346">
        <ele>1168.0000</ele>
        <time>2018-10-13T08:44:07Z</time>
      </trkpt>
      <trkpt lat="38.27069104" lon="-2.60683500">
        <ele>1168.0000</ele>
        <time>2018-10-13T08:44:09Z</time>
      </trkpt>
      <trkpt lat="38.27065927" lon="-2.60672352">
        <ele>1168.0000</ele>
        <time>2018-10-13T08:44:11Z</time>
      </trkpt>
      <trkpt lat="38.27064578" lon="-2.60634650">
        <ele>1168.0000</ele>
        <time>2018-10-13T08:44:18Z</time>
      </trkpt>
      <trkpt lat="38.27068685" lon="-2.60625178">
        <ele>1169.0000</ele>
        <time>2018-10-13T08:44:20Z</time>
      </trkpt>
      <trkpt lat="38.27082716" lon="-2.60604031">
        <ele>1169.0000</ele>
        <time>2018-10-13T08:44:25Z</time>
      </trkpt>
      <trkpt lat="38.27086891" lon="-2.60596211">
        <ele>1169.0000</ele>
        <time>2018-10-13T08:44:27Z</time>
      </trkpt>
      <trkpt lat="38.27100025" lon="-2.60568609">
        <ele>1169.0000</ele>
        <time>2018-10-13T08:44:33Z</time>
      </trkpt>
      <trkpt lat="38.27103596" lon="-2.60557981">
        <ele>1168.0000</ele>
        <time>2018-10-13T08:44:35Z</time>
      </trkpt>
      <trkpt lat="38.27109295" lon="-2.60542080">
        <ele>1168.0000</ele>
        <time>2018-10-13T08:44:38Z</time>
      </trkpt>
      <trkpt lat="38.27117350" lon="-2.60510296">
        <ele>1168.0000</ele>
        <time>2018-10-13T08:44:44Z</time>
      </trkpt>
      <trkpt lat="38.27125447" lon="-2.60481856">
        <ele>1169.0000</ele>
        <time>2018-10-13T08:44:49Z</time>
      </trkpt>
      <trkpt lat="38.27136034" lon="-2.60464405">
        <ele>1169.0000</ele>
        <time>2018-10-13T08:44:53Z</time>
      </trkpt>
      <trkpt lat="38.27152471" lon="-2.60450055">
        <ele>1170.0000</ele>
        <time>2018-10-13T08:44:58Z</time>
      </trkpt>
      <trkpt lat="38.27161850" lon="-2.60450583">
        <ele>1170.0000</ele>
        <time>2018-10-13T08:45:00Z</time>
      </trkpt>
      <trkpt lat="38.27191463" lon="-2.60462930">
        <ele>1170.0000</ele>
        <time>2018-10-13T08:45:06Z</time>
      </trkpt>
      <trkpt lat="38.27213114" lon="-2.60479828">
        <ele>1171.0000</ele>
        <time>2018-10-13T08:45:12Z</time>
      </trkpt>
      <trkpt lat="38.27217062" lon="-2.60481823">
        <ele>1171.0000</ele>
        <time>2018-10-13T08:45:13Z</time>
      </trkpt>
      <trkpt lat="38.27237673" lon="-2.60491755">
        <ele>1172.0000</ele>
        <time>2018-10-13T08:45:18Z</time>
      </trkpt>
      <trkpt lat="38.27258166" lon="-2.60496960">
        <ele>1174.0000</ele>
        <time>2018-10-13T08:45:23Z</time>
      </trkpt>
      <trkpt lat="38.27309279" lon="-2.60463709">
        <ele>1175.0000</ele>
        <time>2018-10-13T08:45:37Z</time>
      </trkpt>
      <trkpt lat="38.27330251" lon="-2.60447038">
        <ele>1175.0000</ele>
        <time>2018-10-13T08:45:42Z</time>
      </trkpt>
      <trkpt lat="38.27386317" lon="-2.60429210">
        <ele>1175.0000</ele>
        <time>2018-10-13T08:45:52Z</time>
      </trkpt>
      <trkpt lat="38.27406174" lon="-2.60424340">
        <ele>1174.0000</ele>
        <time>2018-10-13T08:45:55Z</time>
      </trkpt>
      <trkpt lat="38.27417540" lon="-2.60419772">
        <ele>1174.0000</ele>
        <time>2018-10-13T08:45:57Z</time>
      </trkpt>
      <trkpt lat="38.27471125" lon="-2.60400217">
        <ele>1173.0000</ele>
        <time>2018-10-13T08:46:06Z</time>
      </trkpt>
      <trkpt lat="38.27524702" lon="-2.60383880">
        <ele>1174.0000</ele>
        <time>2018-10-13T08:46:16Z</time>
      </trkpt>
      <trkpt lat="38.27548784" lon="-2.60372607">
        <ele>1175.0000</ele>
        <time>2018-10-13T08:46:21Z</time>
      </trkpt>
      <trkpt lat="38.27553444" lon="-2.60370637">
        <ele>1175.0000</ele>
        <time>2018-10-13T08:46:22Z</time>
      </trkpt>
      <trkpt lat="38.27581741" lon="-2.60360914">
        <ele>1176.0000</ele>
        <time>2018-10-13T08:46:27Z</time>
      </trkpt>
      <trkpt lat="38.27592026" lon="-2.60355851">
        <ele>1176.0000</ele>
        <time>2018-10-13T08:46:29Z</time>
      </trkpt>
      <trkpt lat="38.27635645" lon="-2.60330043">
        <ele>1177.0000</ele>
        <time>2018-10-13T08:46:38Z</time>
      </trkpt>
      <trkpt lat="38.27642401" lon="-2.60319641">
        <ele>1178.0000</ele>
        <time>2018-10-13T08:46:40Z</time>
      </trkpt>
      <trkpt lat="38.27650884" lon="-2.60300883">
        <ele>1179.0000</ele>
        <time>2018-10-13T08:46:44Z</time>
      </trkpt>
      <trkpt lat="38.27652141" lon="-2.60296599">
        <ele>1179.0000</ele>
        <time>2018-10-13T08:46:45Z</time>
      </trkpt>
      <trkpt lat="38.27657480" lon="-2.60278671">
        <ele>1180.0000</ele>
        <time>2018-10-13T08:46:49Z</time>
      </trkpt>
      <trkpt lat="38.27661772" lon="-2.60261488">
        <ele>1181.0000</ele>
        <time>2018-10-13T08:46:53Z</time>
      </trkpt>
      <trkpt lat="38.27668637" lon="-2.60241388">
        <ele>1182.0000</ele>
        <time>2018-10-13T08:46:58Z</time>
      </trkpt>
      <trkpt lat="38.27679852" lon="-2.60219712">
        <ele>1183.0000</ele>
        <time>2018-10-13T08:47:04Z</time>
      </trkpt>
      <trkpt lat="38.27690295" lon="-2.60201222">
        <ele>1184.0000</ele>
        <time>2018-10-13T08:47:09Z</time>
      </trkpt>
      <trkpt lat="38.27702709" lon="-2.60187953">
        <ele>1185.0000</ele>
        <time>2018-10-13T08:47:14Z</time>
      </trkpt>
      <trkpt lat="38.27721065" lon="-2.60166076">
        <ele>1186.0000</ele>
        <time>2018-10-13T08:47:22Z</time>
      </trkpt>
      <trkpt lat="38.27734451" lon="-2.60140964">
        <ele>1188.0000</ele>
        <time>2018-10-13T08:47:29Z</time>
      </trkpt>
      <trkpt lat="38.27743135" lon="-2.60109046">
        <ele>1189.0000</ele>
        <time>2018-10-13T08:47:37Z</time>
      </trkpt>
      <trkpt lat="38.27747938" lon="-2.60088988">
        <ele>1190.0000</ele>
        <time>2018-10-13T08:47:42Z</time>
      </trkpt>
      <trkpt lat="38.27760376" lon="-2.60069282">
        <ele>1191.0000</ele>
        <time>2018-10-13T08:47:48Z</time>
      </trkpt>
      <trkpt lat="38.27775908" lon="-2.60045318">
        <ele>1192.0000</ele>
        <time>2018-10-13T08:47:55Z</time>
      </trkpt>
      <trkpt lat="38.27779722" lon="-2.60038018">
        <ele>1192.0000</ele>
        <time>2018-10-13T08:47:57Z</time>
      </trkpt>
      <trkpt lat="38.27787693" lon="-2.60013484">
        <ele>1193.0000</ele>
        <time>2018-10-13T08:48:03Z</time>
      </trkpt>
      <trkpt lat="38.27804826" lon="-2.59952673">
        <ele>1194.0000</ele>
        <time>2018-10-13T08:48:16Z</time>
      </trkpt>
      <trkpt lat="38.27818513" lon="-2.59936932">
        <ele>1194.0000</ele>
        <time>2018-10-13T08:48:20Z</time>
      </trkpt>
      <trkpt lat="38.27825026" lon="-2.59929480">
        <ele>1194.0000</ele>
        <time>2018-10-13T08:48:22Z</time>
      </trkpt>
      <trkpt lat="38.27859576" lon="-2.59902432">
        <ele>1194.0000</ele>
        <time>2018-10-13T08:48:32Z</time>
      </trkpt>
      <trkpt lat="38.27873784" lon="-2.59894888">
        <ele>1194.0000</ele>
        <time>2018-10-13T08:48:35Z</time>
      </trkpt>
      <trkpt lat="38.27880984" lon="-2.59883665">
        <ele>1194.0000</ele>
        <time>2018-10-13T08:48:37Z</time>
      </trkpt>
      <trkpt lat="38.27886675" lon="-2.59871562">
        <ele>1194.0000</ele>
        <time>2018-10-13T08:48:39Z</time>
      </trkpt>
      <trkpt lat="38.27889625" lon="-2.59865812">
        <ele>1194.0000</ele>
        <time>2018-10-13T08:48:40Z</time>
      </trkpt>
      <trkpt lat="38.27907554" lon="-2.59845192">
        <ele>1194.0000</ele>
        <time>2018-10-13T08:48:45Z</time>
      </trkpt>
      <trkpt lat="38.27934418" lon="-2.59821932">
        <ele>1195.0000</ele>
        <time>2018-10-13T08:48:52Z</time>
      </trkpt>
      <trkpt lat="38.27945390" lon="-2.59805194">
        <ele>1195.0000</ele>
        <time>2018-10-13T08:48:56Z</time>
      </trkpt>
      <trkpt lat="38.27951610" lon="-2.59789888">
        <ele>1197.0000</ele>
        <time>2018-10-13T08:49:00Z</time>
      </trkpt>
      <trkpt lat="38.27960729" lon="-2.59763779">
        <ele>1198.0000</ele>
        <time>2018-10-13T08:49:06Z</time>
      </trkpt>
      <trkpt lat="38.27967862" lon="-2.59743335">
        <ele>1199.0000</ele>
        <time>2018-10-13T08:49:11Z</time>
      </trkpt>
      <trkpt lat="38.27987208" lon="-2.59715750">
        <ele>1200.0000</ele>
        <time>2018-10-13T08:49:20Z</time>
      </trkpt>
      <trkpt lat="38.28023702" lon="-2.59697151">
        <ele>1201.0000</ele>
        <time>2018-10-13T08:49:29Z</time>
      </trkpt>
      <trkpt lat="38.28047557" lon="-2.59699800">
        <ele>1202.0000</ele>
        <time>2018-10-13T08:49:35Z</time>
      </trkpt>
      <trkpt lat="38.28070549" lon="-2.59719422">
        <ele>1203.0000</ele>
        <time>2018-10-13T08:49:43Z</time>
      </trkpt>
      <trkpt lat="38.28083029" lon="-2.59740075">
        <ele>1204.0000</ele>
        <time>2018-10-13T08:49:49Z</time>
      </trkpt>
      <trkpt lat="38.28096407" lon="-2.59752882">
        <ele>1205.0000</ele>
        <time>2018-10-13T08:49:54Z</time>
      </trkpt>
      <trkpt lat="38.28113623" lon="-2.59770090">
        <ele>1206.0000</ele>
        <time>2018-10-13T08:50:00Z</time>
      </trkpt>
      <trkpt lat="38.28132843" lon="-2.59785245">
        <ele>1207.0000</ele>
        <time>2018-10-13T08:50:06Z</time>
      </trkpt>
      <trkpt lat="38.28163420" lon="-2.59786829">
        <ele>1208.0000</ele>
        <time>2018-10-13T08:50:16Z</time>
      </trkpt>
      <trkpt lat="38.28177234" lon="-2.59778279">
        <ele>1209.0000</ele>
        <time>2018-10-13T08:50:21Z</time>
      </trkpt>
      <trkpt lat="38.28188558" lon="-2.59757090">
        <ele>1210.0000</ele>
        <time>2018-10-13T08:50:26Z</time>
      </trkpt>
      <trkpt lat="38.28197241" lon="-2.59734191">
        <ele>1211.0000</ele>
        <time>2018-10-13T08:50:32Z</time>
      </trkpt>
      <trkpt lat="38.28204433" lon="-2.59713504">
        <ele>1212.0000</ele>
        <time>2018-10-13T08:50:37Z</time>
      </trkpt>
      <trkpt lat="38.28217132" lon="-2.59692256">
        <ele>1213.0000</ele>
        <time>2018-10-13T08:50:43Z</time>
      </trkpt>
      <trkpt lat="38.28231255" lon="-2.59675174">
        <ele>1214.0000</ele>
        <time>2018-10-13T08:50:49Z</time>
      </trkpt>
      <trkpt lat="38.28244264" lon="-2.59654127">
        <ele>1215.0000</ele>
        <time>2018-10-13T08:50:56Z</time>
      </trkpt>
      <trkpt lat="38.28260667" lon="-2.59636583">
        <ele>1216.0000</ele>
        <time>2018-10-13T08:51:03Z</time>
      </trkpt>
      <trkpt lat="38.28276098" lon="-2.59623399">
        <ele>1218.0000</ele>
        <time>2018-10-13T08:51:09Z</time>
      </trkpt>
      <trkpt lat="38.28288093" lon="-2.59617732">
        <ele>1219.0000</ele>
        <time>2018-10-13T08:51:13Z</time>
      </trkpt>
      <trkpt lat="38.28313842" lon="-2.59607900">
        <ele>1219.0000</ele>
        <time>2018-10-13T08:51:21Z</time>
      </trkpt>
      <trkpt lat="38.28325560" lon="-2.59603776">
        <ele>1220.0000</ele>
        <time>2018-10-13T08:51:25Z</time>
      </trkpt>
      <trkpt lat="38.28329013" lon="-2.59603550">
        <ele>1221.0000</ele>
        <time>2018-10-13T08:51:26Z</time>
      </trkpt>
      <trkpt lat="38.28339943" lon="-2.59603399">
        <ele>1222.0000</ele>
        <time>2018-10-13T08:51:30Z</time>
      </trkpt>
      <trkpt lat="38.28356020" lon="-2.59606475">
        <ele>1223.0000</ele>
        <time>2018-10-13T08:51:35Z</time>
      </trkpt>
      <trkpt lat="38.28376530" lon="-2.59618361">
        <ele>1224.0000</ele>
        <time>2018-10-13T08:51:41Z</time>
      </trkpt>
      <trkpt lat="38.28400662" lon="-2.59632828">
        <ele>1225.0000</ele>
        <time>2018-10-13T08:51:48Z</time>
      </trkpt>
      <trkpt lat="38.28423108" lon="-2.59625217">
        <ele>1226.0000</ele>
        <time>2018-10-13T08:51:56Z</time>
      </trkpt>
      <trkpt lat="38.28432613" lon="-2.59604514">
        <ele>1227.0000</ele>
        <time>2018-10-13T08:52:02Z</time>
      </trkpt>
      <trkpt lat="38.28436310" lon="-2.59586342">
        <ele>1228.0000</ele>
        <time>2018-10-13T08:52:07Z</time>
      </trkpt>
      <trkpt lat="38.28445949" lon="-2.59546562">
        <ele>1229.0000</ele>
        <time>2018-10-13T08:52:15Z</time>
      </trkpt>
      <trkpt lat="38.28458178" lon="-2.59511735">
        <ele>1230.0000</ele>
        <time>2018-10-13T08:52:24Z</time>
      </trkpt>
      <trkpt lat="38.28474825" lon="-2.59478568">
        <ele>1231.0000</ele>
        <time>2018-10-13T08:52:32Z</time>
      </trkpt>
      <trkpt lat="38.28493977" lon="-2.59438946">
        <ele>1232.0000</ele>
        <time>2018-10-13T08:52:41Z</time>
      </trkpt>
      <trkpt lat="38.28503374" lon="-2.59413692">
        <ele>1232.0000</ele>
        <time>2018-10-13T08:52:46Z</time>
      </trkpt>
      <trkpt lat="38.28519693" lon="-2.59376334">
        <ele>1233.0000</ele>
        <time>2018-10-13T08:52:53Z</time>
      </trkpt>
      <trkpt lat="38.28550077" lon="-2.59324726">
        <ele>1233.0000</ele>
        <time>2018-10-13T08:53:05Z</time>
      </trkpt>
      <trkpt lat="38.28560940" lon="-2.59307493">
        <ele>1234.0000</ele>
        <time>2018-10-13T08:53:10Z</time>
      </trkpt>
      <trkpt lat="38.28565592" lon="-2.59301726">
        <ele>1234.0000</ele>
        <time>2018-10-13T08:53:12Z</time>
      </trkpt>
      <trkpt lat="38.28571259" lon="-2.59292984">
        <ele>1235.0000</ele>
        <time>2018-10-13T08:53:15Z</time>
      </trkpt>
      <trkpt lat="38.28575408" lon="-2.59286974">
        <ele>1235.0000</ele>
        <time>2018-10-13T08:53:17Z</time>
      </trkpt>
      <trkpt lat="38.28586011" lon="-2.59271794">
        <ele>1236.0000</ele>
        <time>2018-10-13T08:53:22Z</time>
      </trkpt>
      <trkpt lat="38.28599397" lon="-2.59251913">
        <ele>1237.0000</ele>
        <time>2018-10-13T08:53:28Z</time>
      </trkpt>
      <trkpt lat="38.28614149" lon="-2.59235409">
        <ele>1239.0000</ele>
        <time>2018-10-13T08:53:34Z</time>
      </trkpt>
      <trkpt lat="38.28629647" lon="-2.59222391">
        <ele>1240.0000</ele>
        <time>2018-10-13T08:53:39Z</time>
      </trkpt>
      <trkpt lat="38.28645405" lon="-2.59209332">
        <ele>1241.0000</ele>
        <time>2018-10-13T08:53:44Z</time>
      </trkpt>
      <trkpt lat="38.28666863" lon="-2.59188394">
        <ele>1242.0000</ele>
        <time>2018-10-13T08:53:54Z</time>
      </trkpt>
      <trkpt lat="38.28681732" lon="-2.59172435">
        <ele>1243.0000</ele>
        <time>2018-10-13T08:54:00Z</time>
      </trkpt>
      <trkpt lat="38.28703307" lon="-2.59154515">
        <ele>1244.0000</ele>
        <time>2018-10-13T08:54:08Z</time>
      </trkpt>
      <trkpt lat="38.28734697" lon="-2.59140240">
        <ele>1245.0000</ele>
        <time>2018-10-13T08:54:17Z</time>
      </trkpt>
      <trkpt lat="38.28763732" lon="-2.59135790">
        <ele>1246.0000</ele>
        <time>2018-10-13T08:54:25Z</time>
      </trkpt>
      <trkpt lat="38.28801384" lon="-2.59131339">
        <ele>1247.0000</ele>
        <time>2018-10-13T08:54:34Z</time>
      </trkpt>
      <trkpt lat="38.28809397" lon="-2.59128707">
        <ele>1247.0000</ele>
        <time>2018-10-13T08:54:36Z</time>
      </trkpt>
      <trkpt lat="38.28847434" lon="-2.59110778">
        <ele>1248.0000</ele>
        <time>2018-10-13T08:54:46Z</time>
      </trkpt>
      <trkpt lat="38.28868196" lon="-2.59099060">
        <ele>1250.0000</ele>
        <time>2018-10-13T08:54:52Z</time>
      </trkpt>
      <trkpt lat="38.28887499" lon="-2.59085850">
        <ele>1250.0000</ele>
        <time>2018-10-13T08:54:58Z</time>
      </trkpt>
      <trkpt lat="38.28901103" lon="-2.59076957">
        <ele>1250.0000</ele>
        <time>2018-10-13T08:55:02Z</time>
      </trkpt>
      <trkpt lat="38.28930180" lon="-2.59059020">
        <ele>1251.0000</ele>
        <time>2018-10-13T08:55:11Z</time>
      </trkpt>
      <trkpt lat="38.28953700" lon="-2.59047989">
        <ele>1252.0000</ele>
        <time>2018-10-13T08:55:19Z</time>
      </trkpt>
      <trkpt lat="38.28973883" lon="-2.59052566">
        <ele>1253.0000</ele>
        <time>2018-10-13T08:55:25Z</time>
      </trkpt>
      <trkpt lat="38.28989909" lon="-2.59066354">
        <ele>1254.0000</ele>
        <time>2018-10-13T08:55:31Z</time>
      </trkpt>
      <trkpt lat="38.29007671" lon="-2.59080151">
        <ele>1256.0000</ele>
        <time>2018-10-13T08:55:37Z</time>
      </trkpt>
      <trkpt lat="38.29026471" lon="-2.59097526">
        <ele>1256.0000</ele>
        <time>2018-10-13T08:55:44Z</time>
      </trkpt>
      <trkpt lat="38.29038424" lon="-2.59110351">
        <ele>1258.0000</ele>
        <time>2018-10-13T08:55:49Z</time>
      </trkpt>
      <trkpt lat="38.29044601" lon="-2.59131800">
        <ele>1259.0000</ele>
        <time>2018-10-13T08:55:55Z</time>
      </trkpt>
      <trkpt lat="38.29043554" lon="-2.59156778">
        <ele>1260.0000</ele>
        <time>2018-10-13T08:56:01Z</time>
      </trkpt>
      <trkpt lat="38.29036647" lon="-2.59186291">
        <ele>1261.0000</ele>
        <time>2018-10-13T08:56:08Z</time>
      </trkpt>
      <trkpt lat="38.29035222" lon="-2.59201923">
        <ele>1262.0000</ele>
        <time>2018-10-13T08:56:12Z</time>
      </trkpt>
      <trkpt lat="38.29034149" lon="-2.59229256">
        <ele>1263.0000</ele>
        <time>2018-10-13T08:56:18Z</time>
      </trkpt>
      <trkpt lat="38.29031023" lon="-2.59257906">
        <ele>1264.0000</ele>
        <time>2018-10-13T08:56:24Z</time>
      </trkpt>
      <trkpt lat="38.29041777" lon="-2.59275700">
        <ele>1265.0000</ele>
        <time>2018-10-13T08:56:30Z</time>
      </trkpt>
      <trkpt lat="38.29058239" lon="-2.59265474">
        <ele>1266.0000</ele>
        <time>2018-10-13T08:56:37Z</time>
      </trkpt>
      <trkpt lat="38.29071088" lon="-2.59252910">
        <ele>1267.0000</ele>
        <time>2018-10-13T08:56:42Z</time>
      </trkpt>
      <trkpt lat="38.29096821" lon="-2.59238577">
        <ele>1268.0000</ele>
        <time>2018-10-13T08:56:51Z</time>
      </trkpt>
      <trkpt lat="38.29116401" lon="-2.59236657">
        <ele>1270.0000</ele>
        <time>2018-10-13T08:56:57Z</time>
      </trkpt>
      <trkpt lat="38.29138571" lon="-2.59235777">
        <ele>1271.0000</ele>
        <time>2018-10-13T08:57:04Z</time>
      </trkpt>
      <trkpt lat="38.29151169" lon="-2.59237563">
        <ele>1272.0000</ele>
        <time>2018-10-13T08:57:09Z</time>
      </trkpt>
      <trkpt lat="38.29168427" lon="-2.59241636">
        <ele>1273.0000</ele>
        <time>2018-10-13T08:57:14Z</time>
      </trkpt>
      <trkpt lat="38.29183682" lon="-2.59248794">
        <ele>1274.0000</ele>
        <time>2018-10-13T08:57:19Z</time>
      </trkpt>
      <trkpt lat="38.29199750" lon="-2.59260948">
        <ele>1275.0000</ele>
        <time>2018-10-13T08:57:25Z</time>
      </trkpt>
      <trkpt lat="38.29216891" lon="-2.59269531">
        <ele>1276.0000</ele>
        <time>2018-10-13T08:57:31Z</time>
      </trkpt>
      <trkpt lat="38.29219540" lon="-2.59269950">
        <ele>1276.0000</ele>
        <time>2018-10-13T08:57:32Z</time>
      </trkpt>
      <trkpt lat="38.29246748" lon="-2.59264318">
        <ele>1276.0000</ele>
        <time>2018-10-13T08:57:39Z</time>
      </trkpt>
      <trkpt lat="38.29254208" lon="-2.59261376">
        <ele>1277.0000</ele>
        <time>2018-10-13T08:57:41Z</time>
      </trkpt>
      <trkpt lat="38.29278498" lon="-2.59247914">
        <ele>1277.0000</ele>
        <time>2018-10-13T08:57:48Z</time>
      </trkpt>
      <trkpt lat="38.29303200" lon="-2.59259741">
        <ele>1278.0000</ele>
        <time>2018-10-13T08:57:55Z</time>
      </trkpt>
      <trkpt lat="38.29316494" lon="-2.59301399">
        <ele>1279.0000</ele>
        <time>2018-10-13T08:58:05Z</time>
      </trkpt>
      <trkpt lat="38.29330340" lon="-2.59329596">
        <ele>1279.0000</ele>
        <time>2018-10-13T08:58:13Z</time>
      </trkpt>
      <trkpt lat="38.29346895" lon="-2.59339562">
        <ele>1281.0000</ele>
        <time>2018-10-13T08:58:19Z</time>
      </trkpt>
      <trkpt lat="38.29362208" lon="-2.59343946">
        <ele>1282.0000</ele>
        <time>2018-10-13T08:58:25Z</time>
      </trkpt>
      <trkpt lat="38.29378168" lon="-2.59347835">
        <ele>1283.0000</ele>
        <time>2018-10-13T08:58:30Z</time>
      </trkpt>
      <trkpt lat="38.29397530" lon="-2.59351640">
        <ele>1284.0000</ele>
        <time>2018-10-13T08:58:36Z</time>
      </trkpt>
      <trkpt lat="38.29413766" lon="-2.59353141">
        <ele>1285.0000</ele>
        <time>2018-10-13T08:58:41Z</time>
      </trkpt>
      <trkpt lat="38.29429884" lon="-2.59352546">
        <ele>1286.0000</ele>
        <time>2018-10-13T08:58:46Z</time>
      </trkpt>
      <trkpt lat="38.29449179" lon="-2.59348992">
        <ele>1287.0000</ele>
        <time>2018-10-13T08:58:52Z</time>
      </trkpt>
      <trkpt lat="38.29467913" lon="-2.59345027">
        <ele>1287.0000</ele>
        <time>2018-10-13T08:58:57Z</time>
      </trkpt>
      <trkpt lat="38.29479094" lon="-2.59342647">
        <ele>1288.0000</ele>
        <time>2018-10-13T08:59:00Z</time>
      </trkpt>
      <trkpt lat="38.29509537" lon="-2.59338489">
        <ele>1289.0000</ele>
        <time>2018-10-13T08:59:08Z</time>
      </trkpt>
      <trkpt lat="38.29524239" lon="-2.59336880">
        <ele>1289.0000</ele>
        <time>2018-10-13T08:59:12Z</time>
      </trkpt>
      <trkpt lat="38.29554707" lon="-2.59334499">
        <ele>1289.0000</ele>
        <time>2018-10-13T08:59:20Z</time>
      </trkpt>
      <trkpt lat="38.29576198" lon="-2.59334265">
        <ele>1290.0000</ele>
        <time>2018-10-13T08:59:26Z</time>
      </trkpt>
      <trkpt lat="38.29579652" lon="-2.59334910">
        <ele>1290.0000</ele>
        <time>2018-10-13T08:59:27Z</time>
      </trkpt>
      <trkpt lat="38.29630211" lon="-2.59358203">
        <ele>1290.0000</ele>
        <time>2018-10-13T08:59:39Z</time>
      </trkpt>
      <trkpt lat="38.29670168" lon="-2.59384145">
        <ele>1290.0000</ele>
        <time>2018-10-13T08:59:49Z</time>
      </trkpt>
      <trkpt lat="38.29688080" lon="-2.59390298">
        <ele>1291.0000</ele>
        <time>2018-10-13T08:59:53Z</time>
      </trkpt>
      <trkpt lat="38.29701424" lon="-2.59393491">
        <ele>1291.0000</ele>
        <time>2018-10-13T08:59:56Z</time>
      </trkpt>
      <trkpt lat="38.29705682" lon="-2.59394413">
        <ele>1291.0000</ele>
        <time>2018-10-13T08:59:57Z</time>
      </trkpt>
      <trkpt lat="38.29729939" lon="-2.59400708">
        <ele>1292.0000</ele>
        <time>2018-10-13T09:00:03Z</time>
      </trkpt>
      <trkpt lat="38.29769309" lon="-2.59410498">
        <ele>1293.0000</ele>
        <time>2018-10-13T09:00:13Z</time>
      </trkpt>
      <trkpt lat="38.29798629" lon="-2.59418553">
        <ele>1294.0000</ele>
        <time>2018-10-13T09:00:20Z</time>
      </trkpt>
      <trkpt lat="38.29822392" lon="-2.59422199">
        <ele>1295.0000</ele>
        <time>2018-10-13T09:00:26Z</time>
      </trkpt>
      <trkpt lat="38.29829273" lon="-2.59421428">
        <ele>1295.0000</ele>
        <time>2018-10-13T09:00:29Z</time>
      </trkpt>
      <trkpt lat="38.29833364" lon="-2.59420414">
        <ele>1295.0000</ele>
        <time>2018-10-13T09:00:31Z</time>
      </trkpt>
      <trkpt lat="38.29841645" lon="-2.59415921">
        <ele>1296.0000</ele>
        <time>2018-10-13T09:01:35Z</time>
      </trkpt>
      <trkpt lat="38.29842944" lon="-2.59415217">
        <ele>1296.0000</ele>
        <time>2018-10-13T09:01:36Z</time>
      </trkpt>
      <trkpt lat="38.29850756" lon="-2.59404941">
        <ele>1296.0000</ele>
        <time>2018-10-13T09:01:42Z</time>
      </trkpt>
      <trkpt lat="38.29882817" lon="-2.59372545">
        <ele>1297.0000</ele>
        <time>2018-10-13T09:01:57Z</time>
      </trkpt>
      <trkpt lat="38.29906865" lon="-2.59349796">
        <ele>1298.0000</ele>
        <time>2018-10-13T09:02:07Z</time>
      </trkpt>
      <trkpt lat="38.29917090" lon="-2.59340090">
        <ele>1299.0000</ele>
        <time>2018-10-13T09:02:11Z</time>
      </trkpt>
      <trkpt lat="38.29929864" lon="-2.59325740">
        <ele>1299.0000</ele>
        <time>2018-10-13T09:02:17Z</time>
      </trkpt>
      <trkpt lat="38.29952881" lon="-2.59299254">
        <ele>1300.0000</ele>
        <time>2018-10-13T09:02:28Z</time>
      </trkpt>
      <trkpt lat="38.29957575" lon="-2.59293445">
        <ele>1300.0000</ele>
        <time>2018-10-13T09:02:30Z</time>
      </trkpt>
      <trkpt lat="38.29986333" lon="-2.59255827">
        <ele>1301.0000</ele>
        <time>2018-10-13T09:02:42Z</time>
      </trkpt>
      <trkpt lat="38.30013994" lon="-2.59226817">
        <ele>1303.0000</ele>
        <time>2018-10-13T09:02:52Z</time>
      </trkpt>
      <trkpt lat="38.30040958" lon="-2.59191730">
        <ele>1304.0000</ele>
        <time>2018-10-13T09:03:02Z</time>
      </trkpt>
      <trkpt lat="38.30046138" lon="-2.59180155">
        <ele>1304.0000</ele>
        <time>2018-10-13T09:03:05Z</time>
      </trkpt>
      <trkpt lat="38.30055350" lon="-2.59158907">
        <ele>1304.0000</ele>
        <time>2018-10-13T09:03:10Z</time>
      </trkpt>
      <trkpt lat="38.30059859" lon="-2.59139369">
        <ele>1304.0000</ele>
        <time>2018-10-13T09:03:14Z</time>
      </trkpt>
      <trkpt lat="38.30060220" lon="-2.59131071">
        <ele>1304.0000</ele>
        <time>2018-10-13T09:03:16Z</time>
      </trkpt>
      <trkpt lat="38.30062366" lon="-2.59113360">
        <ele>1304.0000</ele>
        <time>2018-10-13T09:03:20Z</time>
      </trkpt>
      <trkpt lat="38.30063522" lon="-2.59101508">
        <ele>1303.0000</ele>
        <time>2018-10-13T09:03:22Z</time>
      </trkpt>
      <trkpt lat="38.30070747" lon="-2.59081056">
        <ele>1303.0000</ele>
        <time>2018-10-13T09:03:26Z</time>
      </trkpt>
      <trkpt lat="38.30085106" lon="-2.59066765">
        <ele>1303.0000</ele>
        <time>2018-10-13T09:03:30Z</time>
      </trkpt>
      <trkpt lat="38.30096413" lon="-2.59058643">
        <ele>1303.0000</ele>
        <time>2018-10-13T09:03:33Z</time>
      </trkpt>
      <trkpt lat="38.30120050" lon="-2.59031795">
        <ele>1302.0000</ele>
        <time>2018-10-13T09:03:39Z</time>
      </trkpt>
      <trkpt lat="38.30141499" lon="-2.59022357">
        <ele>1302.0000</ele>
        <time>2018-10-13T09:03:43Z</time>
      </trkpt>
      <trkpt lat="38.30146453" lon="-2.59021377">
        <ele>1302.0000</ele>
        <time>2018-10-13T09:03:44Z</time>
      </trkpt>
      <trkpt lat="38.30156067" lon="-2.59018921">
        <ele>1301.0000</ele>
        <time>2018-10-13T09:03:46Z</time>
      </trkpt>
      <trkpt lat="38.30172001" lon="-2.59010262">
        <ele>1301.0000</ele>
        <time>2018-10-13T09:03:49Z</time>
      </trkpt>
      <trkpt lat="38.30176929" lon="-2.59006088">
        <ele>1301.0000</ele>
        <time>2018-10-13T09:03:50Z</time>
      </trkpt>
      <trkpt lat="38.30195512" lon="-2.58980356">
        <ele>1301.0000</ele>
        <time>2018-10-13T09:03:55Z</time>
      </trkpt>
      <trkpt lat="38.30199619" lon="-2.58976550">
        <ele>1301.0000</ele>
        <time>2018-10-13T09:03:56Z</time>
      </trkpt>
      <trkpt lat="38.30204355" lon="-2.58972762">
        <ele>1301.0000</ele>
        <time>2018-10-13T09:03:57Z</time>
      </trkpt>
      <trkpt lat="38.30229367" lon="-2.58955545">
        <ele>1300.0000</ele>
        <time>2018-10-13T09:04:02Z</time>
      </trkpt>
      <trkpt lat="38.30239802" lon="-2.58946510">
        <ele>1300.0000</ele>
        <time>2018-10-13T09:04:04Z</time>
      </trkpt>
      <trkpt lat="38.30280211" lon="-2.58916653">
        <ele>1299.0000</ele>
        <time>2018-10-13T09:04:14Z</time>
      </trkpt>
      <trkpt lat="38.30299247" lon="-2.58905815">
        <ele>1298.0000</ele>
        <time>2018-10-13T09:04:19Z</time>
      </trkpt>
      <trkpt lat="38.30306765" lon="-2.58898984">
        <ele>1298.0000</ele>
        <time>2018-10-13T09:04:21Z</time>
      </trkpt>
      <trkpt lat="38.30313630" lon="-2.58891348">
        <ele>1298.0000</ele>
        <time>2018-10-13T09:04:23Z</time>
      </trkpt>
      <trkpt lat="38.30337988" lon="-2.58864752">
        <ele>1298.0000</ele>
        <time>2018-10-13T09:04:29Z</time>
      </trkpt>
      <trkpt lat="38.30344710" lon="-2.58855365">
        <ele>1298.0000</ele>
        <time>2018-10-13T09:04:31Z</time>
      </trkpt>
      <trkpt lat="38.30356948" lon="-2.58838492">
        <ele>1298.0000</ele>
        <time>2018-10-13T09:04:35Z</time>
      </trkpt>
      <trkpt lat="38.30368322" lon="-2.58820538">
        <ele>1299.0000</ele>
        <time>2018-10-13T09:04:40Z</time>
      </trkpt>
      <trkpt lat="38.30373435" lon="-2.58807823">
        <ele>1300.0000</ele>
        <time>2018-10-13T09:04:43Z</time>
      </trkpt>
      <trkpt lat="38.30378942" lon="-2.58787505">
        <ele>1301.0000</ele>
        <time>2018-10-13T09:04:47Z</time>
      </trkpt>
      <trkpt lat="38.30379445" lon="-2.58781436">
        <ele>1301.0000</ele>
        <time>2018-10-13T09:04:48Z</time>
      </trkpt>
      <trkpt lat="38.30392118" lon="-2.58750415">
        <ele>1302.0000</ele>
        <time>2018-10-13T09:04:55Z</time>
      </trkpt>
      <trkpt lat="38.30395705" lon="-2.58717424">
        <ele>1303.0000</ele>
        <time>2018-10-13T09:05:01Z</time>
      </trkpt>
      <trkpt lat="38.30395622" lon="-2.58710861">
        <ele>1303.0000</ele>
        <time>2018-10-13T09:05:02Z</time>
      </trkpt>
      <trkpt lat="38.30397902" lon="-2.58693795">
        <ele>1303.0000</ele>
        <time>2018-10-13T09:05:05Z</time>
      </trkpt>
      <trkpt lat="38.30424481" lon="-2.58659161">
        <ele>1304.0000</ele>
        <time>2018-10-13T09:05:13Z</time>
      </trkpt>
      <trkpt lat="38.30445276" lon="-2.58634577">
        <ele>1304.0000</ele>
        <time>2018-10-13T09:05:21Z</time>
      </trkpt>
      <trkpt lat="38.30459441" lon="-2.58622633">
        <ele>1305.0000</ele>
        <time>2018-10-13T09:05:25Z</time>
      </trkpt>
      <trkpt lat="38.30478292" lon="-2.58611820">
        <ele>1306.0000</ele>
        <time>2018-10-13T09:05:29Z</time>
      </trkpt>
      <trkpt lat="38.30505902" lon="-2.58601653">
        <ele>1306.0000</ele>
        <time>2018-10-13T09:05:34Z</time>
      </trkpt>
      <trkpt lat="38.30529942" lon="-2.58587714">
        <ele>1306.0000</ele>
        <time>2018-10-13T09:05:39Z</time>
      </trkpt>
      <trkpt lat="38.30543755" lon="-2.58572559">
        <ele>1306.0000</ele>
        <time>2018-10-13T09:05:43Z</time>
      </trkpt>
      <trkpt lat="38.30556848" lon="-2.58557765">
        <ele>1306.0000</ele>
        <time>2018-10-13T09:05:46Z</time>
      </trkpt>
      <trkpt lat="38.30566730" lon="-2.58540649">
        <ele>1306.0000</ele>
        <time>2018-10-13T09:05:49Z</time>
      </trkpt>
      <trkpt lat="38.30573243" lon="-2.58528747">
        <ele>1306.0000</ele>
        <time>2018-10-13T09:05:51Z</time>
      </trkpt>
      <trkpt lat="38.30580719" lon="-2.58499084">
        <ele>1305.0000</ele>
        <time>2018-10-13T09:05:55Z</time>
      </trkpt>
      <trkpt lat="38.30584441" lon="-2.58479822">
        <ele>1305.0000</ele>
        <time>2018-10-13T09:05:58Z</time>
      </trkpt>
      <trkpt lat="38.30586897" lon="-2.58473603">
        <ele>1305.0000</ele>
        <time>2018-10-13T09:05:59Z</time>
      </trkpt>
      <trkpt lat="38.30595329" lon="-2.58451575">
        <ele>1305.0000</ele>
        <time>2018-10-13T09:06:03Z</time>
      </trkpt>
      <trkpt lat="38.30604499" lon="-2.58436705">
        <ele>1305.0000</ele>
        <time>2018-10-13T09:06:06Z</time>
      </trkpt>
      <trkpt lat="38.30643030" lon="-2.58385752">
        <ele>1306.0000</ele>
        <time>2018-10-13T09:06:17Z</time>
      </trkpt>
      <trkpt lat="38.30662669" lon="-2.58358259">
        <ele>1306.0000</ele>
        <time>2018-10-13T09:06:21Z</time>
      </trkpt>
      <trkpt lat="38.30680606" lon="-2.58324715">
        <ele>1305.0000</ele>
        <time>2018-10-13T09:06:26Z</time>
      </trkpt>
      <trkpt lat="38.30690857" lon="-2.58315738">
        <ele>1305.0000</ele>
        <time>2018-10-13T09:06:28Z</time>
      </trkpt>
      <trkpt lat="38.30701687" lon="-2.58311471">
        <ele>1305.0000</ele>
        <time>2018-10-13T09:06:30Z</time>
      </trkpt>
      <trkpt lat="38.30718878" lon="-2.58310072">
        <ele>1304.0000</ele>
        <time>2018-10-13T09:06:33Z</time>
      </trkpt>
      <trkpt lat="38.30725684" lon="-2.58308672">
        <ele>1304.0000</ele>
        <time>2018-10-13T09:06:34Z</time>
      </trkpt>
      <trkpt lat="38.30738936" lon="-2.58305093">
        <ele>1304.0000</ele>
        <time>2018-10-13T09:06:36Z</time>
      </trkpt>
      <trkpt lat="38.30758047" lon="-2.58295948">
        <ele>1304.0000</ele>
        <time>2018-10-13T09:06:39Z</time>
      </trkpt>
      <trkpt lat="38.30779094" lon="-2.58281053">
        <ele>1304.0000</ele>
        <time>2018-10-13T09:06:43Z</time>
      </trkpt>
      <trkpt lat="38.30794634" lon="-2.58270601">
        <ele>1304.0000</ele>
        <time>2018-10-13T09:06:46Z</time>
      </trkpt>
      <trkpt lat="38.30816024" lon="-2.58266259">
        <ele>1304.0000</ele>
        <time>2018-10-13T09:06:50Z</time>
      </trkpt>
      <trkpt lat="38.30821624" lon="-2.58266394">
        <ele>1304.0000</ele>
        <time>2018-10-13T09:06:51Z</time>
      </trkpt>
      <trkpt lat="38.30845680" lon="-2.58265203">
        <ele>1304.0000</ele>
        <time>2018-10-13T09:06:55Z</time>
      </trkpt>
      <trkpt lat="38.30873608" lon="-2.58249755">
        <ele>1304.0000</ele>
        <time>2018-10-13T09:06:59Z</time>
      </trkpt>
      <trkpt lat="38.30901319" lon="-2.58233746">
        <ele>1303.0000</ele>
        <time>2018-10-13T09:07:03Z</time>
      </trkpt>
      <trkpt lat="38.30917286" lon="-2.58228935">
        <ele>1302.0000</ele>
        <time>2018-10-13T09:07:05Z</time>
      </trkpt>
      <trkpt lat="38.30934343" lon="-2.58225733">
        <ele>1301.0000</ele>
        <time>2018-10-13T09:07:07Z</time>
      </trkpt>
      <trkpt lat="38.30951065" lon="-2.58223545">
        <ele>1300.0000</ele>
        <time>2018-10-13T09:07:09Z</time>
      </trkpt>
      <trkpt lat="38.30959045" lon="-2.58222187">
        <ele>1300.0000</ele>
        <time>2018-10-13T09:07:10Z</time>
      </trkpt>
      <trkpt lat="38.30974945" lon="-2.58221374">
        <ele>1299.0000</ele>
        <time>2018-10-13T09:07:12Z</time>
      </trkpt>
      <trkpt lat="38.30990326" lon="-2.58223093">
        <ele>1299.0000</ele>
        <time>2018-10-13T09:07:14Z</time>
      </trkpt>
      <trkpt lat="38.31004902" lon="-2.58226437">
        <ele>1297.0000</ele>
        <time>2018-10-13T09:07:16Z</time>
      </trkpt>
      <trkpt lat="38.31011365" lon="-2.58228206">
        <ele>1296.0000</ele>
        <time>2018-10-13T09:07:17Z</time>
      </trkpt>
      <trkpt lat="38.31026662" lon="-2.58230050">
        <ele>1295.0000</ele>
        <time>2018-10-13T09:07:20Z</time>
      </trkpt>
      <trkpt lat="38.31038463" lon="-2.58226395">
        <ele>1294.0000</ele>
        <time>2018-10-13T09:07:23Z</time>
      </trkpt>
      <trkpt lat="38.31050005" lon="-2.58222246">
        <ele>1294.0000</ele>
        <time>2018-10-13T09:07:28Z</time>
      </trkpt>
      <trkpt lat="38.31055738" lon="-2.58219514">
        <ele>1293.0000</ele>
        <time>2018-10-13T09:07:30Z</time>
      </trkpt>
      <trkpt lat="38.31084715" lon="-2.58205734">
        <ele>1293.0000</ele>
        <time>2018-10-13T09:07:39Z</time>
      </trkpt>
      <trkpt lat="38.31104781" lon="-2.58192524">
        <ele>1292.0000</ele>
        <time>2018-10-13T09:07:43Z</time>
      </trkpt>
      <trkpt lat="38.31121721" lon="-2.58184326">
        <ele>1291.0000</ele>
        <time>2018-10-13T09:07:46Z</time>
      </trkpt>
      <trkpt lat="38.31133539" lon="-2.58181309">
        <ele>1290.0000</ele>
        <time>2018-10-13T09:07:48Z</time>
      </trkpt>
      <trkpt lat="38.31156313" lon="-2.58178744">
        <ele>1289.0000</ele>
        <time>2018-10-13T09:07:52Z</time>
      </trkpt>
      <trkpt lat="38.31167126" lon="-2.58177579">
        <ele>1289.0000</ele>
        <time>2018-10-13T09:07:54Z</time>
      </trkpt>
      <trkpt lat="38.31182464" lon="-2.58176414">
        <ele>1289.0000</ele>
        <time>2018-10-13T09:07:57Z</time>
      </trkpt>
      <trkpt lat="38.31191995" lon="-2.58176389">
        <ele>1289.0000</ele>
        <time>2018-10-13T09:07:59Z</time>
      </trkpt>
      <trkpt lat="38.31196948" lon="-2.58177252">
        <ele>1289.0000</ele>
        <time>2018-10-13T09:08:00Z</time>
      </trkpt>
      <trkpt lat="38.31215137" lon="-2.58176095">
        <ele>1288.0000</ele>
        <time>2018-10-13T09:08:04Z</time>
      </trkpt>
      <trkpt lat="38.31219420" lon="-2.58175902">
        <ele>1288.0000</ele>
        <time>2018-10-13T09:08:05Z</time>
      </trkpt>
      <trkpt lat="38.31234575" lon="-2.58175970">
        <ele>1288.0000</ele>
        <time>2018-10-13T09:08:08Z</time>
      </trkpt>
      <trkpt lat="38.31239847" lon="-2.58175450">
        <ele>1288.0000</ele>
        <time>2018-10-13T09:08:09Z</time>
      </trkpt>
      <trkpt lat="38.31251632" lon="-2.58173044">
        <ele>1288.0000</ele>
        <time>2018-10-13T09:08:11Z</time>
      </trkpt>
      <trkpt lat="38.31273249" lon="-2.58157378">
        <ele>1288.0000</ele>
        <time>2018-10-13T09:08:15Z</time>
      </trkpt>
      <trkpt lat="38.31277054" lon="-2.58150790">
        <ele>1288.0000</ele>
        <time>2018-10-13T09:08:16Z</time>
      </trkpt>
      <trkpt lat="38.31277566" lon="-2.58102846">
        <ele>1287.0000</ele>
        <time>2018-10-13T09:08:22Z</time>
      </trkpt>
      <trkpt lat="38.31275822" lon="-2.58094808">
        <ele>1287.0000</ele>
        <time>2018-10-13T09:08:23Z</time>
      </trkpt>
      <trkpt lat="38.31274833" lon="-2.58086971">
        <ele>1286.0000</ele>
        <time>2018-10-13T09:08:24Z</time>
      </trkpt>
      <trkpt lat="38.31274867" lon="-2.58065303">
        <ele>1286.0000</ele>
        <time>2018-10-13T09:08:27Z</time>
      </trkpt>
      <trkpt lat="38.31274347" lon="-2.58049646">
        <ele>1286.0000</ele>
        <time>2018-10-13T09:08:29Z</time>
      </trkpt>
      <trkpt lat="38.31275973" lon="-2.58005951">
        <ele>1286.0000</ele>
        <time>2018-10-13T09:08:34Z</time>
      </trkpt>
      <trkpt lat="38.31276199" lon="-2.57960764">
        <ele>1285.0000</ele>
        <time>2018-10-13T09:08:39Z</time>
      </trkpt>
      <trkpt lat="38.31274992" lon="-2.57952139">
        <ele>1285.0000</ele>
        <time>2018-10-13T09:08:40Z</time>
      </trkpt>
      <trkpt lat="38.31264029" lon="-2.57894539">
        <ele>1285.0000</ele>
        <time>2018-10-13T09:08:47Z</time>
      </trkpt>
      <trkpt lat="38.31264289" lon="-2.57873509">
        <ele>1285.0000</ele>
        <time>2018-10-13T09:08:50Z</time>
      </trkpt>
      <trkpt lat="38.31268421" lon="-2.57859461">
        <ele>1285.0000</ele>
        <time>2018-10-13T09:08:52Z</time>
      </trkpt>
      <trkpt lat="38.31274456" lon="-2.57839537">
        <ele>1285.0000</ele>
        <time>2018-10-13T09:08:55Z</time>
      </trkpt>
      <trkpt lat="38.31280575" lon="-2.57823259">
        <ele>1286.0000</ele>
        <time>2018-10-13T09:08:58Z</time>
      </trkpt>
      <trkpt lat="38.31301068" lon="-2.57787954">
        <ele>1287.0000</ele>
        <time>2018-10-13T09:09:05Z</time>
      </trkpt>
      <trkpt lat="38.31303030" lon="-2.57782691">
        <ele>1287.0000</ele>
        <time>2018-10-13T09:09:06Z</time>
      </trkpt>
      <trkpt lat="38.31314831" lon="-2.57756019">
        <ele>1287.0000</ele>
        <time>2018-10-13T09:09:11Z</time>
      </trkpt>
      <trkpt lat="38.31323985" lon="-2.57741577">
        <ele>1288.0000</ele>
        <time>2018-10-13T09:09:14Z</time>
      </trkpt>
      <trkpt lat="38.31328393" lon="-2.57737328">
        <ele>1288.0000</ele>
        <time>2018-10-13T09:09:15Z</time>
      </trkpt>
      <trkpt lat="38.31349859" lon="-2.57721310">
        <ele>1288.0000</ele>
        <time>2018-10-13T09:09:20Z</time>
      </trkpt>
      <trkpt lat="38.31364452" lon="-2.57713557">
        <ele>1289.0000</ele>
        <time>2018-10-13T09:09:23Z</time>
      </trkpt>
      <trkpt lat="38.31416680" lon="-2.57684765">
        <ele>1289.0000</ele>
        <time>2018-10-13T09:09:33Z</time>
      </trkpt>
      <trkpt lat="38.31429219" lon="-2.57677892">
        <ele>1289.0000</ele>
        <time>2018-10-13T09:09:36Z</time>
      </trkpt>
      <trkpt lat="38.31457014" lon="-2.57662477">
        <ele>1289.0000</ele>
        <time>2018-10-13T09:09:42Z</time>
      </trkpt>
      <trkpt lat="38.31468287" lon="-2.57654733">
        <ele>1289.0000</ele>
        <time>2018-10-13T09:09:44Z</time>
      </trkpt>
      <trkpt lat="38.31481422" lon="-2.57648765">
        <ele>1289.0000</ele>
        <time>2018-10-13T09:09:46Z</time>
      </trkpt>
      <trkpt lat="38.31500541" lon="-2.57636544">
        <ele>1289.0000</ele>
        <time>2018-10-13T09:09:49Z</time>
      </trkpt>
      <trkpt lat="38.31515503" lon="-2.57628497">
        <ele>1288.0000</ele>
        <time>2018-10-13T09:09:51Z</time>
      </trkpt>
      <trkpt lat="38.31540531" lon="-2.57617366">
        <ele>1287.0000</ele>
        <time>2018-10-13T09:09:54Z</time>
      </trkpt>
      <trkpt lat="38.31548754" lon="-2.57613854">
        <ele>1287.0000</ele>
        <time>2018-10-13T09:09:55Z</time>
      </trkpt>
      <trkpt lat="38.31577260" lon="-2.57603502">
        <ele>1285.0000</ele>
        <time>2018-10-13T09:09:58Z</time>
      </trkpt>
      <trkpt lat="38.31608391" lon="-2.57595472">
        <ele>1284.0000</ele>
        <time>2018-10-13T09:10:01Z</time>
      </trkpt>
      <trkpt lat="38.31640351" lon="-2.57590921">
        <ele>1282.0000</ele>
        <time>2018-10-13T09:10:04Z</time>
      </trkpt>
      <trkpt lat="38.31659780" lon="-2.57588926">
        <ele>1281.0000</ele>
        <time>2018-10-13T09:10:06Z</time>
      </trkpt>
      <trkpt lat="38.31678405" lon="-2.57586051">
        <ele>1279.0000</ele>
        <time>2018-10-13T09:10:08Z</time>
      </trkpt>
      <trkpt lat="38.31687717" lon="-2.57583654">
        <ele>1279.0000</ele>
        <time>2018-10-13T09:10:09Z</time>
      </trkpt>
      <trkpt lat="38.31706032" lon="-2.57575498">
        <ele>1278.0000</ele>
        <time>2018-10-13T09:10:11Z</time>
      </trkpt>
      <trkpt lat="38.31723684" lon="-2.57569145">
        <ele>1278.0000</ele>
        <time>2018-10-13T09:10:13Z</time>
      </trkpt>
      <trkpt lat="38.31750263" lon="-2.57559983">
        <ele>1277.0000</ele>
        <time>2018-10-13T09:10:16Z</time>
      </trkpt>
      <trkpt lat="38.31768343" lon="-2.57554376">
        <ele>1276.0000</ele>
        <time>2018-10-13T09:10:18Z</time>
      </trkpt>
      <trkpt lat="38.31795919" lon="-2.57545541">
        <ele>1275.0000</ele>
        <time>2018-10-13T09:10:21Z</time>
      </trkpt>
      <trkpt lat="38.31815181" lon="-2.57533555">
        <ele>1273.0000</ele>
        <time>2018-10-13T09:10:23Z</time>
      </trkpt>
      <trkpt lat="38.31831400" lon="-2.57518627">
        <ele>1273.0000</ele>
        <time>2018-10-13T09:10:25Z</time>
      </trkpt>
      <trkpt lat="38.31839958" lon="-2.57509826">
        <ele>1272.0000</ele>
        <time>2018-10-13T09:10:26Z</time>
      </trkpt>
      <trkpt lat="38.31864994" lon="-2.57488771">
        <ele>1271.0000</ele>
        <time>2018-10-13T09:10:29Z</time>
      </trkpt>
      <trkpt lat="38.31880920" lon="-2.57475393">
        <ele>1270.0000</ele>
        <time>2018-10-13T09:10:31Z</time>
      </trkpt>
      <trkpt lat="38.31889813" lon="-2.57470272">
        <ele>1269.0000</ele>
        <time>2018-10-13T09:10:32Z</time>
      </trkpt>
      <trkpt lat="38.31930382" lon="-2.57456073">
        <ele>1268.0000</ele>
        <time>2018-10-13T09:10:36Z</time>
      </trkpt>
      <trkpt lat="38.31966793" lon="-2.57440717">
        <ele>1267.0000</ele>
        <time>2018-10-13T09:10:40Z</time>
      </trkpt>
      <trkpt lat="38.31975124" lon="-2.57437935">
        <ele>1267.0000</ele>
        <time>2018-10-13T09:10:41Z</time>
      </trkpt>
      <trkpt lat="38.31990614" lon="-2.57439812">
        <ele>1266.0000</ele>
        <time>2018-10-13T09:10:43Z</time>
      </trkpt>
      <trkpt lat="38.32014243" lon="-2.57463634">
        <ele>1265.0000</ele>
        <time>2018-10-13T09:10:47Z</time>
      </trkpt>
      <trkpt lat="38.32021937" lon="-2.57496407">
        <ele>1264.0000</ele>
        <time>2018-10-13T09:10:52Z</time>
      </trkpt>
      <trkpt lat="38.32008300" lon="-2.57515006">
        <ele>1262.0000</ele>
        <time>2018-10-13T09:10:56Z</time>
      </trkpt>
      <trkpt lat="38.32002600" lon="-2.57519038">
        <ele>1262.0000</ele>
        <time>2018-10-13T09:10:57Z</time>
      </trkpt>
      <trkpt lat="38.31996431" lon="-2.57522609">
        <ele>1261.0000</ele>
        <time>2018-10-13T09:10:58Z</time>
      </trkpt>
      <trkpt lat="38.31976030" lon="-2.57536615">
        <ele>1260.0000</ele>
        <time>2018-10-13T09:11:01Z</time>
      </trkpt>
      <trkpt lat="38.31961344" lon="-2.57547503">
        <ele>1259.0000</ele>
        <time>2018-10-13T09:11:03Z</time>
      </trkpt>
      <trkpt lat="38.31952619" lon="-2.57559657">
        <ele>1258.0000</ele>
        <time>2018-10-13T09:11:05Z</time>
      </trkpt>
      <trkpt lat="38.31945201" lon="-2.57576328">
        <ele>1257.0000</ele>
        <time>2018-10-13T09:11:07Z</time>
      </trkpt>
      <trkpt lat="38.31942611" lon="-2.57585473">
        <ele>1256.0000</ele>
        <time>2018-10-13T09:11:08Z</time>
      </trkpt>
      <trkpt lat="38.31938604" lon="-2.57596562">
        <ele>1256.0000</ele>
        <time>2018-10-13T09:11:09Z</time>
      </trkpt>
      <trkpt lat="38.31925135" lon="-2.57633987">
        <ele>1255.0000</ele>
        <time>2018-10-13T09:11:12Z</time>
      </trkpt>
      <trkpt lat="38.31916711" lon="-2.57656493">
        <ele>1254.0000</ele>
        <time>2018-10-13T09:11:14Z</time>
      </trkpt>
      <trkpt lat="38.31907742" lon="-2.57681421">
        <ele>1252.0000</ele>
        <time>2018-10-13T09:11:16Z</time>
      </trkpt>
      <trkpt lat="38.31902487" lon="-2.57701663">
        <ele>1251.0000</ele>
        <time>2018-10-13T09:11:18Z</time>
      </trkpt>
      <trkpt lat="38.31899226" lon="-2.57719173">
        <ele>1249.0000</ele>
        <time>2018-10-13T09:11:20Z</time>
      </trkpt>
      <trkpt lat="38.31902545" lon="-2.57734855">
        <ele>1248.0000</ele>
        <time>2018-10-13T09:11:22Z</time>
      </trkpt>
      <trkpt lat="38.31913609" lon="-2.57749079">
        <ele>1246.0000</ele>
        <time>2018-10-13T09:11:24Z</time>
      </trkpt>
      <trkpt lat="38.31952988" lon="-2.57755533">
        <ele>1245.0000</ele>
        <time>2018-10-13T09:11:31Z</time>
      </trkpt>
      <trkpt lat="38.31962526" lon="-2.57745064">
        <ele>1244.0000</ele>
        <time>2018-10-13T09:11:33Z</time>
      </trkpt>
      <trkpt lat="38.31972367" lon="-2.57732223">
        <ele>1242.0000</ele>
        <time>2018-10-13T09:11:35Z</time>
      </trkpt>
      <trkpt lat="38.31986423" lon="-2.57718401">
        <ele>1241.0000</ele>
        <time>2018-10-13T09:11:37Z</time>
      </trkpt>
      <trkpt lat="38.31999029" lon="-2.57705988">
        <ele>1240.0000</ele>
        <time>2018-10-13T09:11:39Z</time>
      </trkpt>
      <trkpt lat="38.32011267" lon="-2.57698612">
        <ele>1239.0000</ele>
        <time>2018-10-13T09:11:41Z</time>
      </trkpt>
      <trkpt lat="38.32020663" lon="-2.57696315">
        <ele>1238.0000</ele>
        <time>2018-10-13T09:11:42Z</time>
      </trkpt>
      <trkpt lat="38.32040218" lon="-2.57694656">
        <ele>1237.0000</ele>
        <time>2018-10-13T09:11:44Z</time>
      </trkpt>
      <trkpt lat="38.32050679" lon="-2.57694094">
        <ele>1237.0000</ele>
        <time>2018-10-13T09:11:45Z</time>
      </trkpt>
      <trkpt lat="38.32095723" lon="-2.57685528">
        <ele>1236.0000</ele>
        <time>2018-10-13T09:11:49Z</time>
      </trkpt>
      <trkpt lat="38.32118790" lon="-2.57682845">
        <ele>1235.0000</ele>
        <time>2018-10-13T09:11:51Z</time>
      </trkpt>
      <trkpt lat="38.32142259" lon="-2.57679954">
        <ele>1233.0000</ele>
        <time>2018-10-13T09:11:53Z</time>
      </trkpt>
      <trkpt lat="38.32164723" lon="-2.57677070">
        <ele>1231.0000</ele>
        <time>2018-10-13T09:11:55Z</time>
      </trkpt>
      <trkpt lat="38.32188058" lon="-2.57671907">
        <ele>1230.0000</ele>
        <time>2018-10-13T09:11:57Z</time>
      </trkpt>
      <trkpt lat="38.32208166" lon="-2.57667196">
        <ele>1228.0000</ele>
        <time>2018-10-13T09:11:59Z</time>
      </trkpt>
      <trkpt lat="38.32217252" lon="-2.57663860">
        <ele>1227.0000</ele>
        <time>2018-10-13T09:12:00Z</time>
      </trkpt>
      <trkpt lat="38.32226087" lon="-2.57659016">
        <ele>1225.0000</ele>
        <time>2018-10-13T09:12:01Z</time>
      </trkpt>
      <trkpt lat="38.32233563" lon="-2.57652293">
        <ele>1224.0000</ele>
        <time>2018-10-13T09:12:02Z</time>
      </trkpt>
      <trkpt lat="38.32240646" lon="-2.57644641">
        <ele>1223.0000</ele>
        <time>2018-10-13T09:12:03Z</time>
      </trkpt>
      <trkpt lat="38.32262347" lon="-2.57622554">
        <ele>1222.0000</ele>
        <time>2018-10-13T09:12:06Z</time>
      </trkpt>
      <trkpt lat="38.32284986" lon="-2.57605229">
        <ele>1221.0000</ele>
        <time>2018-10-13T09:12:09Z</time>
      </trkpt>
      <trkpt lat="38.32301801" lon="-2.57596520">
        <ele>1221.0000</ele>
        <time>2018-10-13T09:12:11Z</time>
      </trkpt>
      <trkpt lat="38.32357373" lon="-2.57571794">
        <ele>1220.0000</ele>
        <time>2018-10-13T09:12:18Z</time>
      </trkpt>
      <trkpt lat="38.32373105" lon="-2.57566689">
        <ele>1220.0000</ele>
        <time>2018-10-13T09:12:20Z</time>
      </trkpt>
      <trkpt lat="38.32386357" lon="-2.57562465">
        <ele>1220.0000</ele>
        <time>2018-10-13T09:12:22Z</time>
      </trkpt>
      <trkpt lat="38.32400321" lon="-2.57559548">
        <ele>1220.0000</ele>
        <time>2018-10-13T09:12:24Z</time>
      </trkpt>
      <trkpt lat="38.32413355" lon="-2.57555508">
        <ele>1221.0000</ele>
        <time>2018-10-13T09:12:26Z</time>
      </trkpt>
      <trkpt lat="38.32431385" lon="-2.57549783">
        <ele>1221.0000</ele>
        <time>2018-10-13T09:12:29Z</time>
      </trkpt>
      <trkpt lat="38.32448090" lon="-2.57545240">
        <ele>1222.0000</ele>
        <time>2018-10-13T09:12:32Z</time>
      </trkpt>
      <trkpt lat="38.32454670" lon="-2.57543706">
        <ele>1222.0000</ele>
        <time>2018-10-13T09:12:33Z</time>
      </trkpt>
      <trkpt lat="38.32474820" lon="-2.57540764">
        <ele>1223.0000</ele>
        <time>2018-10-13T09:12:36Z</time>
      </trkpt>
      <trkpt lat="38.32481735" lon="-2.57540554">
        <ele>1223.0000</ele>
        <time>2018-10-13T09:12:37Z</time>
      </trkpt>
      <trkpt lat="38.32519621" lon="-2.57540655">
        <ele>1224.0000</ele>
        <time>2018-10-13T09:12:43Z</time>
      </trkpt>
      <trkpt lat="38.32532018" lon="-2.57536657">
        <ele>1224.0000</ele>
        <time>2018-10-13T09:12:45Z</time>
      </trkpt>
      <trkpt lat="38.32560827" lon="-2.57491906">
        <ele>1224.0000</ele>
        <time>2018-10-13T09:12:52Z</time>
      </trkpt>
      <trkpt lat="38.32574925" lon="-2.57455268">
        <ele>1224.0000</ele>
        <time>2018-10-13T09:12:58Z</time>
      </trkpt>
      <trkpt lat="38.32618310" lon="-2.57437767">
        <ele>1224.0000</ele>
        <time>2018-10-13T09:13:05Z</time>
      </trkpt>
      <trkpt lat="38.32645023" lon="-2.57436124">
        <ele>1224.0000</ele>
        <time>2018-10-13T09:13:09Z</time>
      </trkpt>
      <trkpt lat="38.32665558" lon="-2.57438236">
        <ele>1223.0000</ele>
        <time>2018-10-13T09:13:12Z</time>
      </trkpt>
      <trkpt lat="38.32685004" lon="-2.57443265">
        <ele>1223.0000</ele>
        <time>2018-10-13T09:13:15Z</time>
      </trkpt>
      <trkpt lat="38.32697737" lon="-2.57445319">
        <ele>1223.0000</ele>
        <time>2018-10-13T09:13:17Z</time>
      </trkpt>
      <trkpt lat="38.32725590" lon="-2.57422302">
        <ele>1222.0000</ele>
        <time>2018-10-13T09:13:23Z</time>
      </trkpt>
      <trkpt lat="38.32749319" lon="-2.57386378">
        <ele>1222.0000</ele>
        <time>2018-10-13T09:13:30Z</time>
      </trkpt>
      <trkpt lat="38.32760710" lon="-2.57372413">
        <ele>1223.0000</ele>
        <time>2018-10-13T09:13:33Z</time>
      </trkpt>
      <trkpt lat="38.32791077" lon="-2.57366898">
        <ele>1224.0000</ele>
        <time>2018-10-13T09:13:39Z</time>
      </trkpt>
      <trkpt lat="38.32801630" lon="-2.57370100">
        <ele>1224.0000</ele>
        <time>2018-10-13T09:13:41Z</time>
      </trkpt>
      <trkpt lat="38.32820330" lon="-2.57376311">
        <ele>1225.0000</ele>
        <time>2018-10-13T09:13:45Z</time>
      </trkpt>
      <trkpt lat="38.32824354" lon="-2.57378205">
        <ele>1225.0000</ele>
        <time>2018-10-13T09:13:46Z</time>
      </trkpt>
      <trkpt lat="38.32835812" lon="-2.57387316">
        <ele>1225.0000</ele>
        <time>2018-10-13T09:13:49Z</time>
      </trkpt>
      <trkpt lat="38.32841796" lon="-2.57395044">
        <ele>1226.0000</ele>
        <time>2018-10-13T09:13:51Z</time>
      </trkpt>
      <trkpt lat="38.32866515" lon="-2.57420877">
        <ele>1227.0000</ele>
        <time>2018-10-13T09:13:58Z</time>
      </trkpt>
      <trkpt lat="38.32886145" lon="-2.57444892">
        <ele>1228.0000</ele>
        <time>2018-10-13T09:14:04Z</time>
      </trkpt>
      <trkpt lat="38.32905817" lon="-2.57465737">
        <ele>1229.0000</ele>
        <time>2018-10-13T09:14:10Z</time>
      </trkpt>
      <trkpt lat="38.32909396" lon="-2.57466861">
        <ele>1229.0000</ele>
        <time>2018-10-13T09:14:11Z</time>
      </trkpt>
      <trkpt lat="38.32918927" lon="-2.57456744">
        <ele>1230.0000</ele>
        <time>2018-10-13T09:14:16Z</time>
      </trkpt>
      <trkpt lat="38.32918943" lon="-2.57452603">
        <ele>1230.0000</ele>
        <time>2018-10-13T09:14:17Z</time>
      </trkpt>
      <trkpt lat="38.32916747" lon="-2.57428991">
        <ele>1231.0000</ele>
        <time>2018-10-13T09:14:22Z</time>
      </trkpt>
      <trkpt lat="38.32915079" lon="-2.57416393">
        <ele>1233.0000</ele>
        <time>2018-10-13T09:14:25Z</time>
      </trkpt>
      <trkpt lat="38.32919404" lon="-2.57394005">
        <ele>1234.0000</ele>
        <time>2018-10-13T09:14:30Z</time>
      </trkpt>
      <trkpt lat="38.32933360" lon="-2.57368298">
        <ele>1235.0000</ele>
        <time>2018-10-13T09:14:36Z</time>
      </trkpt>
      <trkpt lat="38.32940141" lon="-2.57335281">
        <ele>1236.0000</ele>
        <time>2018-10-13T09:14:43Z</time>
      </trkpt>
      <trkpt lat="38.32937727" lon="-2.57331233">
        <ele>1236.0000</ele>
        <time>2018-10-13T09:14:44Z</time>
      </trkpt>
      <trkpt lat="38.32924576" lon="-2.57324041">
        <ele>1237.0000</ele>
        <time>2018-10-13T09:14:49Z</time>
      </trkpt>
      <trkpt lat="38.32906262" lon="-2.57324293">
        <ele>1238.0000</ele>
        <time>2018-10-13T09:14:55Z</time>
      </trkpt>
      <trkpt lat="38.32896840" lon="-2.57312030">
        <ele>1239.0000</ele>
        <time>2018-10-13T09:14:59Z</time>
      </trkpt>
      <trkpt lat="38.32895432" lon="-2.57308619">
        <ele>1240.0000</ele>
        <time>2018-10-13T09:15:00Z</time>
      </trkpt>
      <trkpt lat="38.32891476" lon="-2.57297395">
        <ele>1241.0000</ele>
        <time>2018-10-13T09:15:03Z</time>
      </trkpt>
      <trkpt lat="38.32885181" lon="-2.57279458">
        <ele>1242.0000</ele>
        <time>2018-10-13T09:15:08Z</time>
      </trkpt>
      <trkpt lat="38.32882993" lon="-2.57252208">
        <ele>1243.0000</ele>
        <time>2018-10-13T09:15:15Z</time>
      </trkpt>
      <trkpt lat="38.32895088" lon="-2.57239024">
        <ele>1244.0000</ele>
        <time>2018-10-13T09:15:20Z</time>
      </trkpt>
      <trkpt lat="38.32915943" lon="-2.57233039">
        <ele>1245.0000</ele>
        <time>2018-10-13T09:15:27Z</time>
      </trkpt>
      <trkpt lat="38.32938482" lon="-2.57231187">
        <ele>1246.0000</ele>
        <time>2018-10-13T09:15:34Z</time>
      </trkpt>
      <trkpt lat="38.32953753" lon="-2.57225621">
        <ele>1247.0000</ele>
        <time>2018-10-13T09:15:40Z</time>
      </trkpt>
      <trkpt lat="38.32957819" lon="-2.57220131">
        <ele>1248.0000</ele>
        <time>2018-10-13T09:15:42Z</time>
      </trkpt>
      <trkpt lat="38.32956905" lon="-2.57204758">
        <ele>1248.0000</ele>
        <time>2018-10-13T09:15:46Z</time>
      </trkpt>
      <trkpt lat="38.32955799" lon="-2.57200836">
        <ele>1248.0000</ele>
        <time>2018-10-13T09:15:47Z</time>
      </trkpt>
      <trkpt lat="38.32942857" lon="-2.57184717">
        <ele>1249.0000</ele>
        <time>2018-10-13T09:15:53Z</time>
      </trkpt>
      <trkpt lat="38.32933838" lon="-2.57173242">
        <ele>1250.0000</ele>
        <time>2018-10-13T09:15:57Z</time>
      </trkpt>
      <trkpt lat="38.32923101" lon="-2.57152992">
        <ele>1251.0000</ele>
        <time>2018-10-13T09:16:03Z</time>
      </trkpt>
      <trkpt lat="38.32908567" lon="-2.57127922">
        <ele>1253.0000</ele>
        <time>2018-10-13T09:16:11Z</time>
      </trkpt>
      <trkpt lat="38.32898240" lon="-2.57111149">
        <ele>1254.0000</ele>
        <time>2018-10-13T09:16:17Z</time>
      </trkpt>
      <trkpt lat="38.32892381" lon="-2.57092961">
        <ele>1255.0000</ele>
        <time>2018-10-13T09:16:22Z</time>
      </trkpt>
      <trkpt lat="38.32889649" lon="-2.57075711">
        <ele>1256.0000</ele>
        <time>2018-10-13T09:16:27Z</time>
      </trkpt>
      <trkpt lat="38.32887293" lon="-2.57053993">
        <ele>1257.0000</ele>
        <time>2018-10-13T09:16:33Z</time>
      </trkpt>
      <trkpt lat="38.32888676" lon="-2.57039962">
        <ele>1258.0000</ele>
        <time>2018-10-13T09:16:37Z</time>
      </trkpt>
      <trkpt lat="38.32892431" lon="-2.57018345">
        <ele>1259.0000</ele>
        <time>2018-10-13T09:16:43Z</time>
      </trkpt>
      <trkpt lat="38.32898810" lon="-2.57008102">
        <ele>1260.0000</ele>
        <time>2018-10-13T09:16:47Z</time>
      </trkpt>
      <trkpt lat="38.32901475" lon="-2.57006845">
        <ele>1260.0000</ele>
        <time>2018-10-13T09:16:48Z</time>
      </trkpt>
      <trkpt lat="38.32914073" lon="-2.57010474">
        <ele>1261.0000</ele>
        <time>2018-10-13T09:16:53Z</time>
      </trkpt>
      <trkpt lat="38.32917971" lon="-2.57023651">
        <ele>1262.0000</ele>
        <time>2018-10-13T09:16:57Z</time>
      </trkpt>
      <trkpt lat="38.32917116" lon="-2.57033223">
        <ele>1263.0000</ele>
        <time>2018-10-13T09:17:00Z</time>
      </trkpt>
      <trkpt lat="38.32915951" lon="-2.57043248">
        <ele>1263.0000</ele>
        <time>2018-10-13T09:17:03Z</time>
      </trkpt>
      <trkpt lat="38.32914308" lon="-2.57060565">
        <ele>1264.0000</ele>
        <time>2018-10-13T09:17:08Z</time>
      </trkpt>
      <trkpt lat="38.32925984" lon="-2.57087806">
        <ele>1265.0000</ele>
        <time>2018-10-13T09:17:16Z</time>
      </trkpt>
      <trkpt lat="38.32938188" lon="-2.57103991">
        <ele>1266.0000</ele>
        <time>2018-10-13T09:17:22Z</time>
      </trkpt>
      <trkpt lat="38.32959428" lon="-2.57118123">
        <ele>1268.0000</ele>
        <time>2018-10-13T09:17:30Z</time>
      </trkpt>
      <trkpt lat="38.32979394" lon="-2.57126463">
        <ele>1269.0000</ele>
        <time>2018-10-13T09:17:37Z</time>
      </trkpt>
      <trkpt lat="38.33008445" lon="-2.57139556">
        <ele>1270.0000</ele>
        <time>2018-10-13T09:17:47Z</time>
      </trkpt>
      <trkpt lat="38.33020725" lon="-2.57146177">
        <ele>1271.0000</ele>
        <time>2018-10-13T09:17:51Z</time>
      </trkpt>
      <trkpt lat="38.33035066" lon="-2.57153830">
        <ele>1272.0000</ele>
        <time>2018-10-13T09:17:56Z</time>
      </trkpt>
      <trkpt lat="38.33058058" lon="-2.57165833">
        <ele>1273.0000</ele>
        <time>2018-10-13T09:18:04Z</time>
      </trkpt>
      <trkpt lat="38.33077160" lon="-2.57174315">
        <ele>1274.0000</ele>
        <time>2018-10-13T09:18:10Z</time>
      </trkpt>
      <trkpt lat="38.33106270" lon="-2.57185773">
        <ele>1275.0000</ele>
        <time>2018-10-13T09:18:20Z</time>
      </trkpt>
      <trkpt lat="38.33129036" lon="-2.57186612">
        <ele>1276.0000</ele>
        <time>2018-10-13T09:18:27Z</time>
      </trkpt>
      <trkpt lat="38.33149219" lon="-2.57184240">
        <ele>1276.0000</ele>
        <time>2018-10-13T09:18:31Z</time>
      </trkpt>
      <trkpt lat="38.33174709" lon="-2.57177433">
        <ele>1276.0000</ele>
        <time>2018-10-13T09:18:35Z</time>
      </trkpt>
      <trkpt lat="38.33212704" lon="-2.57163318">
        <ele>1275.0000</ele>
        <time>2018-10-13T09:18:40Z</time>
      </trkpt>
      <trkpt lat="38.33220767" lon="-2.57159412">
        <ele>1275.0000</ele>
        <time>2018-10-13T09:18:41Z</time>
      </trkpt>
      <trkpt lat="38.33244790" lon="-2.57147116">
        <ele>1273.0000</ele>
        <time>2018-10-13T09:18:44Z</time>
      </trkpt>
      <trkpt lat="38.33260724" lon="-2.57136714">
        <ele>1272.0000</ele>
        <time>2018-10-13T09:18:46Z</time>
      </trkpt>
      <trkpt lat="38.33268536" lon="-2.57130193">
        <ele>1272.0000</ele>
        <time>2018-10-13T09:18:47Z</time>
      </trkpt>
      <trkpt lat="38.33282634" lon="-2.57114469">
        <ele>1271.0000</ele>
        <time>2018-10-13T09:18:49Z</time>
      </trkpt>
      <trkpt lat="38.33295844" lon="-2.57097613">
        <ele>1270.0000</ele>
        <time>2018-10-13T09:18:51Z</time>
      </trkpt>
      <trkpt lat="38.33302273" lon="-2.57090337">
        <ele>1269.0000</ele>
        <time>2018-10-13T09:18:52Z</time>
      </trkpt>
      <trkpt lat="38.33324443" lon="-2.57071159">
        <ele>1269.0000</ele>
        <time>2018-10-13T09:18:55Z</time>
      </trkpt>
      <trkpt lat="38.33342196" lon="-2.57062015">
        <ele>1267.0000</ele>
        <time>2018-10-13T09:18:57Z</time>
      </trkpt>
      <trkpt lat="38.33351299" lon="-2.57058452">
        <ele>1267.0000</ele>
        <time>2018-10-13T09:18:58Z</time>
      </trkpt>
      <trkpt lat="38.33371331" lon="-2.57052803">
        <ele>1266.0000</ele>
        <time>2018-10-13T09:19:00Z</time>
      </trkpt>
      <trkpt lat="38.33381289" lon="-2.57048428">
        <ele>1265.0000</ele>
        <time>2018-10-13T09:19:01Z</time>
      </trkpt>
      <trkpt lat="38.33398698" lon="-2.57035017">
        <ele>1264.0000</ele>
        <time>2018-10-13T09:19:03Z</time>
      </trkpt>
      <trkpt lat="38.33414666" lon="-2.57017440">
        <ele>1263.0000</ele>
        <time>2018-10-13T09:19:05Z</time>
      </trkpt>
      <trkpt lat="38.33439485" lon="-2.56992822">
        <ele>1262.0000</ele>
        <time>2018-10-13T09:19:08Z</time>
      </trkpt>
      <trkpt lat="38.33472040" lon="-2.56976922">
        <ele>1261.0000</ele>
        <time>2018-10-13T09:19:11Z</time>
      </trkpt>
      <trkpt lat="38.33503598" lon="-2.56963494">
        <ele>1259.0000</ele>
        <time>2018-10-13T09:19:14Z</time>
      </trkpt>
      <trkpt lat="38.33523304" lon="-2.56953469">
        <ele>1257.0000</ele>
        <time>2018-10-13T09:19:16Z</time>
      </trkpt>
      <trkpt lat="38.33532080" lon="-2.56948566">
        <ele>1256.0000</ele>
        <time>2018-10-13T09:19:17Z</time>
      </trkpt>
      <trkpt lat="38.33540864" lon="-2.56945028">
        <ele>1255.0000</ele>
        <time>2018-10-13T09:19:18Z</time>
      </trkpt>
      <trkpt lat="38.33549740" lon="-2.56943235">
        <ele>1254.0000</ele>
        <time>2018-10-13T09:19:19Z</time>
      </trkpt>
      <trkpt lat="38.33576546" lon="-2.56946202">
        <ele>1253.0000</ele>
        <time>2018-10-13T09:19:22Z</time>
      </trkpt>
      <trkpt lat="38.33584257" lon="-2.56946017">
        <ele>1252.0000</ele>
        <time>2018-10-13T09:19:23Z</time>
      </trkpt>
      <trkpt lat="38.33592656" lon="-2.56943520">
        <ele>1252.0000</ele>
        <time>2018-10-13T09:19:24Z</time>
      </trkpt>
      <trkpt lat="38.33618137" lon="-2.56926563">
        <ele>1251.0000</ele>
        <time>2018-10-13T09:19:27Z</time>
      </trkpt>
      <trkpt lat="38.33642830" lon="-2.56917117">
        <ele>1249.0000</ele>
        <time>2018-10-13T09:19:30Z</time>
      </trkpt>
      <trkpt lat="38.33658521" lon="-2.56920687">
        <ele>1248.0000</ele>
        <time>2018-10-13T09:19:32Z</time>
      </trkpt>
      <trkpt lat="38.33672770" lon="-2.56930075">
        <ele>1246.0000</ele>
        <time>2018-10-13T09:19:34Z</time>
      </trkpt>
      <trkpt lat="38.33684261" lon="-2.56944484">
        <ele>1245.0000</ele>
        <time>2018-10-13T09:19:36Z</time>
      </trkpt>
      <trkpt lat="38.33690481" lon="-2.56952262">
        <ele>1244.0000</ele>
        <time>2018-10-13T09:19:37Z</time>
      </trkpt>
      <trkpt lat="38.33709013" lon="-2.56980107">
        <ele>1244.0000</ele>
        <time>2018-10-13T09:19:40Z</time>
      </trkpt>
      <trkpt lat="38.33714746" lon="-2.56991221">
        <ele>1244.0000</ele>
        <time>2018-10-13T09:19:41Z</time>
      </trkpt>
      <trkpt lat="38.33728878" lon="-2.57027389">
        <ele>1242.0000</ele>
        <time>2018-10-13T09:19:44Z</time>
      </trkpt>
      <trkpt lat="38.33737034" lon="-2.57048444">
        <ele>1241.0000</ele>
        <time>2018-10-13T09:19:46Z</time>
      </trkpt>
      <trkpt lat="38.33742122" lon="-2.57056659">
        <ele>1240.0000</ele>
        <time>2018-10-13T09:19:47Z</time>
      </trkpt>
      <trkpt lat="38.33748576" lon="-2.57063507">
        <ele>1239.0000</ele>
        <time>2018-10-13T09:19:48Z</time>
      </trkpt>
      <trkpt lat="38.33766597" lon="-2.57070028">
        <ele>1238.0000</ele>
        <time>2018-10-13T09:19:50Z</time>
      </trkpt>
      <trkpt lat="38.33785875" lon="-2.57068988">
        <ele>1237.0000</ele>
        <time>2018-10-13T09:19:52Z</time>
      </trkpt>
      <trkpt lat="38.33796495" lon="-2.57067605">
        <ele>1236.0000</ele>
        <time>2018-10-13T09:19:53Z</time>
      </trkpt>
      <trkpt lat="38.33829889" lon="-2.57063322">
        <ele>1235.0000</ele>
        <time>2018-10-13T09:19:56Z</time>
      </trkpt>
      <trkpt lat="38.33841095" lon="-2.57059986">
        <ele>1235.0000</ele>
        <time>2018-10-13T09:19:57Z</time>
      </trkpt>
      <trkpt lat="38.33851874" lon="-2.57055770">
        <ele>1234.0000</ele>
        <time>2018-10-13T09:19:58Z</time>
      </trkpt>
      <trkpt lat="38.33862151" lon="-2.57050045">
        <ele>1233.0000</ele>
        <time>2018-10-13T09:19:59Z</time>
      </trkpt>
      <trkpt lat="38.33871253" lon="-2.57042250">
        <ele>1232.0000</ele>
        <time>2018-10-13T09:20:00Z</time>
      </trkpt>
      <trkpt lat="38.33887330" lon="-2.57023382">
        <ele>1230.0000</ele>
        <time>2018-10-13T09:20:02Z</time>
      </trkpt>
      <trkpt lat="38.33894957" lon="-2.57012293">
        <ele>1229.0000</ele>
        <time>2018-10-13T09:20:03Z</time>
      </trkpt>
      <trkpt lat="38.33902015" lon="-2.57000743">
        <ele>1228.0000</ele>
        <time>2018-10-13T09:20:04Z</time>
      </trkpt>
      <trkpt lat="38.33908880" lon="-2.56989662">
        <ele>1227.0000</ele>
        <time>2018-10-13T09:20:05Z</time>
      </trkpt>
      <trkpt lat="38.33915736" lon="-2.56979411">
        <ele>1226.0000</ele>
        <time>2018-10-13T09:20:06Z</time>
      </trkpt>
      <trkpt lat="38.33922777" lon="-2.56970241">
        <ele>1225.0000</ele>
        <time>2018-10-13T09:20:07Z</time>
      </trkpt>
      <trkpt lat="38.33930488" lon="-2.56961985">
        <ele>1224.0000</ele>
        <time>2018-10-13T09:20:08Z</time>
      </trkpt>
      <trkpt lat="38.33947244" lon="-2.56948951">
        <ele>1222.0000</ele>
        <time>2018-10-13T09:20:10Z</time>
      </trkpt>
      <trkpt lat="38.33954561" lon="-2.56942681">
        <ele>1221.0000</ele>
        <time>2018-10-13T09:20:11Z</time>
      </trkpt>
      <trkpt lat="38.33960680" lon="-2.56935121">
        <ele>1220.0000</ele>
        <time>2018-10-13T09:20:12Z</time>
      </trkpt>
      <trkpt lat="38.33964946" lon="-2.56926563">
        <ele>1218.0000</ele>
        <time>2018-10-13T09:20:13Z</time>
      </trkpt>
      <trkpt lat="38.33971015" lon="-2.56894863">
        <ele>1217.0000</ele>
        <time>2018-10-13T09:20:16Z</time>
      </trkpt>
      <trkpt lat="38.33975533" lon="-2.56872299">
        <ele>1216.0000</ele>
        <time>2018-10-13T09:20:18Z</time>
      </trkpt>
      <trkpt lat="38.33990067" lon="-2.56840255">
        <ele>1216.0000</ele>
        <time>2018-10-13T09:20:21Z</time>
      </trkpt>
      <trkpt lat="38.33999874" lon="-2.56819183">
        <ele>1215.0000</ele>
        <time>2018-10-13T09:20:23Z</time>
      </trkpt>
      <trkpt lat="38.34005733" lon="-2.56798052">
        <ele>1214.0000</ele>
        <time>2018-10-13T09:20:25Z</time>
      </trkpt>
      <trkpt lat="38.34007292" lon="-2.56775848">
        <ele>1213.0000</ele>
        <time>2018-10-13T09:20:27Z</time>
      </trkpt>
      <trkpt lat="38.34004886" lon="-2.56753292">
        <ele>1212.0000</ele>
        <time>2018-10-13T09:20:29Z</time>
      </trkpt>
      <trkpt lat="38.34004802" lon="-2.56741013">
        <ele>1211.0000</ele>
        <time>2018-10-13T09:20:30Z</time>
      </trkpt>
      <trkpt lat="38.34008029" lon="-2.56702833">
        <ele>1211.0000</ele>
        <time>2018-10-13T09:20:33Z</time>
      </trkpt>
      <trkpt lat="38.34010007" lon="-2.56680068">
        <ele>1209.0000</ele>
        <time>2018-10-13T09:20:35Z</time>
      </trkpt>
      <trkpt lat="38.34005833" lon="-2.56659029">
        <ele>1208.0000</ele>
        <time>2018-10-13T09:20:37Z</time>
      </trkpt>
      <trkpt lat="38.33996026" lon="-2.56639525">
        <ele>1206.0000</ele>
        <time>2018-10-13T09:20:39Z</time>
      </trkpt>
      <trkpt lat="38.33990545" lon="-2.56630841">
        <ele>1205.0000</ele>
        <time>2018-10-13T09:20:40Z</time>
      </trkpt>
      <trkpt lat="38.33985155" lon="-2.56622979">
        <ele>1204.0000</ele>
        <time>2018-10-13T09:20:41Z</time>
      </trkpt>
      <trkpt lat="38.33980905" lon="-2.56614957">
        <ele>1204.0000</ele>
        <time>2018-10-13T09:20:42Z</time>
      </trkpt>
      <trkpt lat="38.33980302" lon="-2.56584380">
        <ele>1203.0000</ele>
        <time>2018-10-13T09:20:45Z</time>
      </trkpt>
      <trkpt lat="38.33985557" lon="-2.56564876">
        <ele>1201.0000</ele>
        <time>2018-10-13T09:20:47Z</time>
      </trkpt>
      <trkpt lat="38.33988055" lon="-2.56555697">
        <ele>1200.0000</ele>
        <time>2018-10-13T09:20:48Z</time>
      </trkpt>
      <trkpt lat="38.33989279" lon="-2.56546159">
        <ele>1200.0000</ele>
        <time>2018-10-13T09:20:49Z</time>
      </trkpt>
      <trkpt lat="38.33974803" lon="-2.56513796">
        <ele>1199.0000</ele>
        <time>2018-10-13T09:20:53Z</time>
      </trkpt>
      <trkpt lat="38.33952826" lon="-2.56498097">
        <ele>1198.0000</ele>
        <time>2018-10-13T09:20:56Z</time>
      </trkpt>
      <trkpt lat="38.33946280" lon="-2.56493763">
        <ele>1197.0000</ele>
        <time>2018-10-13T09:20:57Z</time>
      </trkpt>
      <trkpt lat="38.33940111" lon="-2.56488600">
        <ele>1196.0000</ele>
        <time>2018-10-13T09:20:58Z</time>
      </trkpt>
      <trkpt lat="38.33935056" lon="-2.56481509">
        <ele>1195.0000</ele>
        <time>2018-10-13T09:20:59Z</time>
      </trkpt>
      <trkpt lat="38.33929784" lon="-2.56465801">
        <ele>1194.0000</ele>
        <time>2018-10-13T09:21:01Z</time>
      </trkpt>
      <trkpt lat="38.33930857" lon="-2.56451359">
        <ele>1192.0000</ele>
        <time>2018-10-13T09:21:03Z</time>
      </trkpt>
      <trkpt lat="38.33940924" lon="-2.56444361">
        <ele>1191.0000</ele>
        <time>2018-10-13T09:21:06Z</time>
      </trkpt>
      <trkpt lat="38.33957981" lon="-2.56459733">
        <ele>1191.0000</ele>
        <time>2018-10-13T09:21:09Z</time>
      </trkpt>
      <trkpt lat="38.33970998" lon="-2.56474083">
        <ele>1190.0000</ele>
        <time>2018-10-13T09:21:11Z</time>
      </trkpt>
      <trkpt lat="38.33996957" lon="-2.56478743">
        <ele>1190.0000</ele>
        <time>2018-10-13T09:21:14Z</time>
      </trkpt>
      <trkpt lat="38.34013989" lon="-2.56474125">
        <ele>1188.0000</ele>
        <time>2018-10-13T09:21:16Z</time>
      </trkpt>
      <trkpt lat="38.34031901" lon="-2.56476002">
        <ele>1186.0000</ele>
        <time>2018-10-13T09:21:18Z</time>
      </trkpt>
      <trkpt lat="38.34050073" lon="-2.56486312">
        <ele>1185.0000</ele>
        <time>2018-10-13T09:21:20Z</time>
      </trkpt>
      <trkpt lat="38.34068773" lon="-2.56500737">
        <ele>1184.0000</ele>
        <time>2018-10-13T09:21:22Z</time>
      </trkpt>
      <trkpt lat="38.34077817" lon="-2.56508038">
        <ele>1183.0000</ele>
        <time>2018-10-13T09:21:23Z</time>
      </trkpt>
      <trkpt lat="38.34087154" lon="-2.56514173">
        <ele>1183.0000</ele>
        <time>2018-10-13T09:21:24Z</time>
      </trkpt>
      <trkpt lat="38.34105846" lon="-2.56520963">
        <ele>1181.0000</ele>
        <time>2018-10-13T09:21:26Z</time>
      </trkpt>
      <trkpt lat="38.34125418" lon="-2.56519353">
        <ele>1180.0000</ele>
        <time>2018-10-13T09:21:28Z</time>
      </trkpt>
      <trkpt lat="38.34136297" lon="-2.56515489">
        <ele>1179.0000</ele>
        <time>2018-10-13T09:21:29Z</time>
      </trkpt>
      <trkpt lat="38.34146968" lon="-2.56510427">
        <ele>1177.0000</ele>
        <time>2018-10-13T09:21:30Z</time>
      </trkpt>
      <trkpt lat="38.34157520" lon="-2.56504727">
        <ele>1176.0000</ele>
        <time>2018-10-13T09:21:31Z</time>
      </trkpt>
      <trkpt lat="38.34166414" lon="-2.56498776">
        <ele>1176.0000</ele>
        <time>2018-10-13T09:21:32Z</time>
      </trkpt>
      <trkpt lat="38.34181224" lon="-2.56487058">
        <ele>1174.0000</ele>
        <time>2018-10-13T09:21:34Z</time>
      </trkpt>
      <trkpt lat="38.34186178" lon="-2.56480076">
        <ele>1173.0000</ele>
        <time>2018-10-13T09:21:35Z</time>
      </trkpt>
      <trkpt lat="38.34189757" lon="-2.56472297">
        <ele>1172.0000</ele>
        <time>2018-10-13T09:21:36Z</time>
      </trkpt>
      <trkpt lat="38.34194032" lon="-2.56455467">
        <ele>1170.0000</ele>
        <time>2018-10-13T09:21:38Z</time>
      </trkpt>
      <trkpt lat="38.34195164" lon="-2.56445609">
        <ele>1170.0000</ele>
        <time>2018-10-13T09:21:39Z</time>
      </trkpt>
      <trkpt lat="38.34199463" lon="-2.56413892">
        <ele>1169.0000</ele>
        <time>2018-10-13T09:21:42Z</time>
      </trkpt>
      <trkpt lat="38.34199732" lon="-2.56404991">
        <ele>1169.0000</ele>
        <time>2018-10-13T09:21:43Z</time>
      </trkpt>
      <trkpt lat="38.34184820" lon="-2.56376476">
        <ele>1168.0000</ele>
        <time>2018-10-13T09:21:47Z</time>
      </trkpt>
      <trkpt lat="38.34169574" lon="-2.56371580">
        <ele>1167.0000</ele>
        <time>2018-10-13T09:21:49Z</time>
      </trkpt>
      <trkpt lat="38.34143305" lon="-2.56373844">
        <ele>1165.0000</ele>
        <time>2018-10-13T09:21:52Z</time>
      </trkpt>
      <trkpt lat="38.34123951" lon="-2.56377381">
        <ele>1163.0000</ele>
        <time>2018-10-13T09:21:54Z</time>
      </trkpt>
      <trkpt lat="38.34114035" lon="-2.56379007">
        <ele>1162.0000</ele>
        <time>2018-10-13T09:21:55Z</time>
      </trkpt>
      <trkpt lat="38.34104480" lon="-2.56381027">
        <ele>1161.0000</ele>
        <time>2018-10-13T09:21:56Z</time>
      </trkpt>
      <trkpt lat="38.34095838" lon="-2.56383131">
        <ele>1160.0000</ele>
        <time>2018-10-13T09:21:57Z</time>
      </trkpt>
      <trkpt lat="38.34087833" lon="-2.56385997">
        <ele>1158.0000</ele>
        <time>2018-10-13T09:21:58Z</time>
      </trkpt>
      <trkpt lat="38.34080264" lon="-2.56388713">
        <ele>1157.0000</ele>
        <time>2018-10-13T09:21:59Z</time>
      </trkpt>
      <trkpt lat="38.34065529" lon="-2.56389023">
        <ele>1155.0000</ele>
        <time>2018-10-13T09:22:01Z</time>
      </trkpt>
      <trkpt lat="38.34052923" lon="-2.56379418">
        <ele>1153.0000</ele>
        <time>2018-10-13T09:22:03Z</time>
      </trkpt>
      <trkpt lat="38.34044130" lon="-2.56317291">
        <ele>1152.0000</ele>
        <time>2018-10-13T09:22:09Z</time>
      </trkpt>
      <trkpt lat="38.34054750" lon="-2.56293587">
        <ele>1151.0000</ele>
        <time>2018-10-13T09:22:12Z</time>
      </trkpt>
      <trkpt lat="38.34064926" lon="-2.56286110">
        <ele>1150.0000</ele>
        <time>2018-10-13T09:22:14Z</time>
      </trkpt>
      <trkpt lat="38.34078580" lon="-2.56288776">
        <ele>1149.0000</ele>
        <time>2018-10-13T09:22:16Z</time>
      </trkpt>
      <trkpt lat="38.34086098" lon="-2.56291751">
        <ele>1148.0000</ele>
        <time>2018-10-13T09:22:17Z</time>
      </trkpt>
      <trkpt lat="38.34094178" lon="-2.56296076">
        <ele>1148.0000</ele>
        <time>2018-10-13T09:22:18Z</time>
      </trkpt>
      <trkpt lat="38.34102896" lon="-2.56300686">
        <ele>1148.0000</ele>
        <time>2018-10-13T09:22:19Z</time>
      </trkpt>
      <trkpt lat="38.34112308" lon="-2.56303871">
        <ele>1147.0000</ele>
        <time>2018-10-13T09:22:20Z</time>
      </trkpt>
      <trkpt lat="38.34132995" lon="-2.56311424">
        <ele>1146.0000</ele>
        <time>2018-10-13T09:22:22Z</time>
      </trkpt>
      <trkpt lat="38.34155634" lon="-2.56315816">
        <ele>1145.0000</ele>
        <time>2018-10-13T09:22:24Z</time>
      </trkpt>
      <trkpt lat="38.34178039" lon="-2.56317098">
        <ele>1143.0000</ele>
        <time>2018-10-13T09:22:26Z</time>
      </trkpt>
      <trkpt lat="38.34199857" lon="-2.56320384">
        <ele>1141.0000</ele>
        <time>2018-10-13T09:22:28Z</time>
      </trkpt>
      <trkpt lat="38.34210092" lon="-2.56323150">
        <ele>1140.0000</ele>
        <time>2018-10-13T09:22:29Z</time>
      </trkpt>
      <trkpt lat="38.34220586" lon="-2.56326469">
        <ele>1139.0000</ele>
        <time>2018-10-13T09:22:30Z</time>
      </trkpt>
      <trkpt lat="38.34230158" lon="-2.56330333">
        <ele>1138.0000</ele>
        <time>2018-10-13T09:22:31Z</time>
      </trkpt>
      <trkpt lat="38.34239747" lon="-2.56335270">
        <ele>1137.0000</ele>
        <time>2018-10-13T09:22:32Z</time>
      </trkpt>
      <trkpt lat="38.34248456" lon="-2.56341783">
        <ele>1136.0000</ele>
        <time>2018-10-13T09:22:33Z</time>
      </trkpt>
      <trkpt lat="38.34256201" lon="-2.56349159">
        <ele>1136.0000</ele>
        <time>2018-10-13T09:22:34Z</time>
      </trkpt>
      <trkpt lat="38.34284188" lon="-2.56381345">
        <ele>1135.0000</ele>
        <time>2018-10-13T09:22:38Z</time>
      </trkpt>
      <trkpt lat="38.34294003" lon="-2.56394840">
        <ele>1134.0000</ele>
        <time>2018-10-13T09:22:40Z</time>
      </trkpt>
      <trkpt lat="38.34300465" lon="-2.56420388">
        <ele>1133.0000</ele>
        <time>2018-10-13T09:22:43Z</time>
      </trkpt>
      <trkpt lat="38.34293148" lon="-2.56449884">
        <ele>1133.0000</ele>
        <time>2018-10-13T09:22:46Z</time>
      </trkpt>
      <trkpt lat="38.34289150" lon="-2.56472390">
        <ele>1132.0000</ele>
        <time>2018-10-13T09:22:48Z</time>
      </trkpt>
      <trkpt lat="38.34300147" lon="-2.56518976">
        <ele>1131.0000</ele>
        <time>2018-10-13T09:22:52Z</time>
      </trkpt>
      <trkpt lat="38.34311077" lon="-2.56541155">
        <ele>1129.0000</ele>
        <time>2018-10-13T09:22:54Z</time>
      </trkpt>
      <trkpt lat="38.34316785" lon="-2.56552227">
        <ele>1128.0000</ele>
        <time>2018-10-13T09:22:55Z</time>
      </trkpt>
      <trkpt lat="38.34326039" lon="-2.56573174">
        <ele>1126.0000</ele>
        <time>2018-10-13T09:22:57Z</time>
      </trkpt>
      <trkpt lat="38.34330925" lon="-2.56594212">
        <ele>1124.0000</ele>
        <time>2018-10-13T09:22:59Z</time>
      </trkpt>
      <trkpt lat="38.34300340" lon="-2.56643137">
        <ele>1123.0000</ele>
        <time>2018-10-13T09:23:06Z</time>
      </trkpt>
      <trkpt lat="38.34268170" lon="-2.56694518">
        <ele>1124.0000</ele>
        <time>2018-10-13T09:23:14Z</time>
      </trkpt>
      <trkpt lat="38.34264683" lon="-2.56709598">
        <ele>1124.0000</ele>
        <time>2018-10-13T09:23:16Z</time>
      </trkpt>
      <trkpt lat="38.34246318" lon="-2.56775664">
        <ele>1124.0000</ele>
        <time>2018-10-13T09:23:23Z</time>
      </trkpt>
      <trkpt lat="38.34241608" lon="-2.56785781">
        <ele>1124.0000</ele>
        <time>2018-10-13T09:23:24Z</time>
      </trkpt>
      <trkpt lat="38.34236696" lon="-2.56795755">
        <ele>1123.0000</ele>
        <time>2018-10-13T09:23:25Z</time>
      </trkpt>
      <trkpt lat="38.34232270" lon="-2.56805696">
        <ele>1123.0000</ele>
        <time>2018-10-13T09:23:26Z</time>
      </trkpt>
      <trkpt lat="38.34229244" lon="-2.56815436">
        <ele>1122.0000</ele>
        <time>2018-10-13T09:23:27Z</time>
      </trkpt>
      <trkpt lat="38.34229286" lon="-2.56836231">
        <ele>1120.0000</ele>
        <time>2018-10-13T09:23:29Z</time>
      </trkpt>
      <trkpt lat="38.34236956" lon="-2.56853029">
        <ele>1119.0000</ele>
        <time>2018-10-13T09:23:31Z</time>
      </trkpt>
      <trkpt lat="38.34248925" lon="-2.56864646">
        <ele>1117.0000</ele>
        <time>2018-10-13T09:23:33Z</time>
      </trkpt>
      <trkpt lat="38.34262470" lon="-2.56871972">
        <ele>1117.0000</ele>
        <time>2018-10-13T09:23:35Z</time>
      </trkpt>
      <trkpt lat="38.34268664" lon="-2.56875836">
        <ele>1116.0000</ele>
        <time>2018-10-13T09:23:36Z</time>
      </trkpt>
      <trkpt lat="38.34274171" lon="-2.56881376">
        <ele>1116.0000</ele>
        <time>2018-10-13T09:23:37Z</time>
      </trkpt>
      <trkpt lat="38.34279946" lon="-2.56906849">
        <ele>1115.0000</ele>
        <time>2018-10-13T09:23:40Z</time>
      </trkpt>
      <trkpt lat="38.34278924" lon="-2.56916077">
        <ele>1114.0000</ele>
        <time>2018-10-13T09:23:41Z</time>
      </trkpt>
      <trkpt lat="38.34278061" lon="-2.56926521">
        <ele>1113.0000</ele>
        <time>2018-10-13T09:23:42Z</time>
      </trkpt>
      <trkpt lat="38.34278253" lon="-2.56937359">
        <ele>1113.0000</ele>
        <time>2018-10-13T09:23:43Z</time>
      </trkpt>
      <trkpt lat="38.34283039" lon="-2.56961138">
        <ele>1112.0000</ele>
        <time>2018-10-13T09:23:45Z</time>
      </trkpt>
      <trkpt lat="38.34291405" lon="-2.56984373">
        <ele>1110.0000</ele>
        <time>2018-10-13T09:23:47Z</time>
      </trkpt>
      <trkpt lat="38.34296710" lon="-2.56995580">
        <ele>1109.0000</ele>
        <time>2018-10-13T09:23:48Z</time>
      </trkpt>
      <trkpt lat="38.34306987" lon="-2.57018814">
        <ele>1108.0000</ele>
        <time>2018-10-13T09:23:50Z</time>
      </trkpt>
      <trkpt lat="38.34317112" lon="-2.57041311">
        <ele>1106.0000</ele>
        <time>2018-10-13T09:23:52Z</time>
      </trkpt>
      <trkpt lat="38.34327455" lon="-2.57063180">
        <ele>1105.0000</ele>
        <time>2018-10-13T09:23:54Z</time>
      </trkpt>
      <trkpt lat="38.34335477" lon="-2.57083238">
        <ele>1103.0000</ele>
        <time>2018-10-13T09:23:56Z</time>
      </trkpt>
      <trkpt lat="38.34336725" lon="-2.57113563">
        <ele>1102.0000</ele>
        <time>2018-10-13T09:23:59Z</time>
      </trkpt>
      <trkpt lat="38.34325988" lon="-2.57141467">
        <ele>1102.0000</ele>
        <time>2018-10-13T09:24:02Z</time>
      </trkpt>
      <trkpt lat="38.34303122" lon="-2.57205848">
        <ele>1101.0000</ele>
        <time>2018-10-13T09:24:08Z</time>
      </trkpt>
      <trkpt lat="38.34302745" lon="-2.57216116">
        <ele>1100.0000</ele>
        <time>2018-10-13T09:24:09Z</time>
      </trkpt>
      <trkpt lat="38.34304690" lon="-2.57226602">
        <ele>1099.0000</ele>
        <time>2018-10-13T09:24:10Z</time>
      </trkpt>
      <trkpt lat="38.34308386" lon="-2.57237062">
        <ele>1098.0000</ele>
        <time>2018-10-13T09:24:11Z</time>
      </trkpt>
      <trkpt lat="38.34319266" lon="-2.57258637">
        <ele>1096.0000</ele>
        <time>2018-10-13T09:24:13Z</time>
      </trkpt>
      <trkpt lat="38.34325385" lon="-2.57269542">
        <ele>1095.0000</ele>
        <time>2018-10-13T09:24:14Z</time>
      </trkpt>
      <trkpt lat="38.34331571" lon="-2.57280983">
        <ele>1095.0000</ele>
        <time>2018-10-13T09:24:15Z</time>
      </trkpt>
      <trkpt lat="38.34343758" lon="-2.57304143">
        <ele>1094.0000</ele>
        <time>2018-10-13T09:24:17Z</time>
      </trkpt>
      <trkpt lat="38.34355727" lon="-2.57325257">
        <ele>1092.0000</ele>
        <time>2018-10-13T09:24:19Z</time>
      </trkpt>
      <trkpt lat="38.34366397" lon="-2.57343705">
        <ele>1090.0000</ele>
        <time>2018-10-13T09:24:21Z</time>
      </trkpt>
      <trkpt lat="38.34371167" lon="-2.57351928">
        <ele>1089.0000</ele>
        <time>2018-10-13T09:24:22Z</time>
      </trkpt>
      <trkpt lat="38.34375307" lon="-2.57359916">
        <ele>1088.0000</ele>
        <time>2018-10-13T09:24:23Z</time>
      </trkpt>
      <trkpt lat="38.34380747" lon="-2.57376705">
        <ele>1086.0000</ele>
        <time>2018-10-13T09:24:25Z</time>
      </trkpt>
      <trkpt lat="38.34379725" lon="-2.57395531">
        <ele>1085.0000</ele>
        <time>2018-10-13T09:24:27Z</time>
      </trkpt>
      <trkpt lat="38.34366959" lon="-2.57422118">
        <ele>1084.0000</ele>
        <time>2018-10-13T09:24:30Z</time>
      </trkpt>
      <trkpt lat="38.34358133" lon="-2.57439242">
        <ele>1083.0000</ele>
        <time>2018-10-13T09:24:32Z</time>
      </trkpt>
      <trkpt lat="38.34356079" lon="-2.57447515">
        <ele>1082.0000</ele>
        <time>2018-10-13T09:24:33Z</time>
      </trkpt>
      <trkpt lat="38.34355962" lon="-2.57455830">
        <ele>1081.0000</ele>
        <time>2018-10-13T09:24:34Z</time>
      </trkpt>
      <trkpt lat="38.34363045" lon="-2.57467757">
        <ele>1079.0000</ele>
        <time>2018-10-13T09:24:36Z</time>
      </trkpt>
      <trkpt lat="38.34374536" lon="-2.57475527">
        <ele>1077.0000</ele>
        <time>2018-10-13T09:24:38Z</time>
      </trkpt>
      <trkpt lat="38.34394502" lon="-2.57481546">
        <ele>1076.0000</ele>
        <time>2018-10-13T09:24:41Z</time>
      </trkpt>
      <trkpt lat="38.34401216" lon="-2.57482694">
        <ele>1076.0000</ele>
        <time>2018-10-13T09:24:42Z</time>
      </trkpt>
      <trkpt lat="38.34415708" lon="-2.57482610">
        <ele>1076.0000</ele>
        <time>2018-10-13T09:24:44Z</time>
      </trkpt>
      <trkpt lat="38.34438817" lon="-2.57471445">
        <ele>1075.0000</ele>
        <time>2018-10-13T09:24:47Z</time>
      </trkpt>
      <trkpt lat="38.34445958" lon="-2.57468537">
        <ele>1074.0000</ele>
        <time>2018-10-13T09:24:48Z</time>
      </trkpt>
      <trkpt lat="38.34461499" lon="-2.57469979">
        <ele>1073.0000</ele>
        <time>2018-10-13T09:24:50Z</time>
      </trkpt>
      <trkpt lat="38.34470082" lon="-2.57473650">
        <ele>1072.0000</ele>
        <time>2018-10-13T09:24:51Z</time>
      </trkpt>
      <trkpt lat="38.34478816" lon="-2.57477573">
        <ele>1071.0000</ele>
        <time>2018-10-13T09:24:52Z</time>
      </trkpt>
      <trkpt lat="38.34487231" lon="-2.57482107">
        <ele>1070.0000</ele>
        <time>2018-10-13T09:24:53Z</time>
      </trkpt>
      <trkpt lat="38.34504514" lon="-2.57488385">
        <ele>1069.0000</ele>
        <time>2018-10-13T09:24:55Z</time>
      </trkpt>
      <trkpt lat="38.34521865" lon="-2.57485368">
        <ele>1067.0000</ele>
        <time>2018-10-13T09:24:57Z</time>
      </trkpt>
      <trkpt lat="38.34535620" lon="-2.57474622">
        <ele>1065.0000</ele>
        <time>2018-10-13T09:24:59Z</time>
      </trkpt>
      <trkpt lat="38.34542493" lon="-2.57470540">
        <ele>1064.0000</ele>
        <time>2018-10-13T09:25:00Z</time>
      </trkpt>
      <trkpt lat="38.34556516" lon="-2.57472585">
        <ele>1063.0000</ele>
        <time>2018-10-13T09:25:02Z</time>
      </trkpt>
      <trkpt lat="38.34577823" lon="-2.57492601">
        <ele>1061.0000</ele>
        <time>2018-10-13T09:25:05Z</time>
      </trkpt>
      <trkpt lat="38.34600621" lon="-2.57512349">
        <ele>1060.0000</ele>
        <time>2018-10-13T09:25:08Z</time>
      </trkpt>
      <trkpt lat="38.34626915" lon="-2.57515937">
        <ele>1059.0000</ele>
        <time>2018-10-13T09:25:11Z</time>
      </trkpt>
      <trkpt lat="38.34642833" lon="-2.57522785">
        <ele>1057.0000</ele>
        <time>2018-10-13T09:25:13Z</time>
      </trkpt>
      <trkpt lat="38.34649329" lon="-2.57529968">
        <ele>1056.0000</ele>
        <time>2018-10-13T09:25:14Z</time>
      </trkpt>
      <trkpt lat="38.34655213" lon="-2.57539146">
        <ele>1054.0000</ele>
        <time>2018-10-13T09:25:15Z</time>
      </trkpt>
      <trkpt lat="38.34660988" lon="-2.57549028">
        <ele>1054.0000</ele>
        <time>2018-10-13T09:25:16Z</time>
      </trkpt>
      <trkpt lat="38.34667031" lon="-2.57558349">
        <ele>1053.0000</ele>
        <time>2018-10-13T09:25:17Z</time>
      </trkpt>
      <trkpt lat="38.34673737" lon="-2.57566882">
        <ele>1053.0000</ele>
        <time>2018-10-13T09:25:18Z</time>
      </trkpt>
      <trkpt lat="38.34686963" lon="-2.57582229">
        <ele>1052.0000</ele>
        <time>2018-10-13T09:25:20Z</time>
      </trkpt>
      <trkpt lat="38.34706543" lon="-2.57605304">
        <ele>1051.0000</ele>
        <time>2018-10-13T09:25:23Z</time>
      </trkpt>
      <trkpt lat="38.34713090" lon="-2.57611155">
        <ele>1050.0000</ele>
        <time>2018-10-13T09:25:24Z</time>
      </trkpt>
      <trkpt lat="38.34720239" lon="-2.57614810">
        <ele>1048.0000</ele>
        <time>2018-10-13T09:25:25Z</time>
      </trkpt>
      <trkpt lat="38.34726953" lon="-2.57616167">
        <ele>1047.0000</ele>
        <time>2018-10-13T09:25:26Z</time>
      </trkpt>
      <trkpt lat="38.34741806" lon="-2.57615514">
        <ele>1045.0000</ele>
        <time>2018-10-13T09:25:28Z</time>
      </trkpt>
      <trkpt lat="38.34749392" lon="-2.57616008">
        <ele>1044.0000</ele>
        <time>2018-10-13T09:25:29Z</time>
      </trkpt>
      <trkpt lat="38.34766591" lon="-2.57621523">
        <ele>1044.0000</ele>
        <time>2018-10-13T09:25:31Z</time>
      </trkpt>
      <trkpt lat="38.34783213" lon="-2.57633325">
        <ele>1043.0000</ele>
        <time>2018-10-13T09:25:33Z</time>
      </trkpt>
      <trkpt lat="38.34799817" lon="-2.57650156">
        <ele>1041.0000</ele>
        <time>2018-10-13T09:25:35Z</time>
      </trkpt>
      <trkpt lat="38.34814771" lon="-2.57667825">
        <ele>1040.0000</ele>
        <time>2018-10-13T09:25:37Z</time>
      </trkpt>
      <trkpt lat="38.34827813" lon="-2.57683809">
        <ele>1039.0000</ele>
        <time>2018-10-13T09:25:39Z</time>
      </trkpt>
      <trkpt lat="38.34836765" lon="-2.57704077">
        <ele>1037.0000</ele>
        <time>2018-10-13T09:25:41Z</time>
      </trkpt>
      <trkpt lat="38.34842154" lon="-2.57726540">
        <ele>1036.0000</ele>
        <time>2018-10-13T09:25:43Z</time>
      </trkpt>
      <trkpt lat="38.34843705" lon="-2.57769313">
        <ele>1034.0000</ele>
        <time>2018-10-13T09:25:47Z</time>
      </trkpt>
      <trkpt lat="38.34843805" lon="-2.57791584">
        <ele>1032.0000</ele>
        <time>2018-10-13T09:25:49Z</time>
      </trkpt>
      <trkpt lat="38.34845256" lon="-2.57804073">
        <ele>1031.0000</ele>
        <time>2018-10-13T09:25:50Z</time>
      </trkpt>
      <trkpt lat="38.34852187" lon="-2.57824466">
        <ele>1029.0000</ele>
        <time>2018-10-13T09:25:52Z</time>
      </trkpt>
      <trkpt lat="38.34855046" lon="-2.57833577">
        <ele>1028.0000</ele>
        <time>2018-10-13T09:25:53Z</time>
      </trkpt>
      <trkpt lat="38.34855188" lon="-2.57843585">
        <ele>1028.0000</ele>
        <time>2018-10-13T09:25:54Z</time>
      </trkpt>
      <trkpt lat="38.34852028" lon="-2.57864967">
        <ele>1026.0000</ele>
        <time>2018-10-13T09:25:56Z</time>
      </trkpt>
      <trkpt lat="38.34849229" lon="-2.57886459">
        <ele>1025.0000</ele>
        <time>2018-10-13T09:25:58Z</time>
      </trkpt>
      <trkpt lat="38.34848348" lon="-2.57908453">
        <ele>1024.0000</ele>
        <time>2018-10-13T09:26:00Z</time>
      </trkpt>
      <trkpt lat="38.34849405" lon="-2.57919358">
        <ele>1024.0000</ele>
        <time>2018-10-13T09:26:01Z</time>
      </trkpt>
      <trkpt lat="38.34855498" lon="-2.57940220">
        <ele>1022.0000</ele>
        <time>2018-10-13T09:26:03Z</time>
      </trkpt>
      <trkpt lat="38.34867266" lon="-2.57956976">
        <ele>1020.0000</ele>
        <time>2018-10-13T09:26:05Z</time>
      </trkpt>
      <trkpt lat="38.34873536" lon="-2.57964779">
        <ele>1019.0000</ele>
        <time>2018-10-13T09:26:06Z</time>
      </trkpt>
      <trkpt lat="38.34886184" lon="-2.57980084">
        <ele>1017.0000</ele>
        <time>2018-10-13T09:26:08Z</time>
      </trkpt>
      <trkpt lat="38.34891825" lon="-2.57988458">
        <ele>1017.0000</ele>
        <time>2018-10-13T09:26:09Z</time>
      </trkpt>
      <trkpt lat="38.34896670" lon="-2.57998080">
        <ele>1016.0000</ele>
        <time>2018-10-13T09:26:10Z</time>
      </trkpt>
      <trkpt lat="38.34902185" lon="-2.58034894">
        <ele>1015.0000</ele>
        <time>2018-10-13T09:26:13Z</time>
      </trkpt>
      <trkpt lat="38.34901515" lon="-2.58057843">
        <ele>1014.0000</ele>
        <time>2018-10-13T09:26:15Z</time>
      </trkpt>
      <trkpt lat="38.34906334" lon="-2.58077633">
        <ele>1012.0000</ele>
        <time>2018-10-13T09:26:17Z</time>
      </trkpt>
      <trkpt lat="38.34914549" lon="-2.58098781">
        <ele>1010.0000</ele>
        <time>2018-10-13T09:26:19Z</time>
      </trkpt>
      <trkpt lat="38.34923291" lon="-2.58119291">
        <ele>1008.0000</ele>
        <time>2018-10-13T09:26:21Z</time>
      </trkpt>
      <trkpt lat="38.34930734" lon="-2.58142517">
        <ele>1007.0000</ele>
        <time>2018-10-13T09:26:23Z</time>
      </trkpt>
      <trkpt lat="38.34938605" lon="-2.58166104">
        <ele>1006.0000</ele>
        <time>2018-10-13T09:26:25Z</time>
      </trkpt>
      <trkpt lat="38.34947473" lon="-2.58186430">
        <ele>1005.0000</ele>
        <time>2018-10-13T09:26:27Z</time>
      </trkpt>
      <trkpt lat="38.34951790" lon="-2.58194150">
        <ele>1004.0000</ele>
        <time>2018-10-13T09:26:28Z</time>
      </trkpt>
      <trkpt lat="38.34955888" lon="-2.58201124">
        <ele>1002.0000</ele>
        <time>2018-10-13T09:26:29Z</time>
      </trkpt>
      <trkpt lat="38.34961990" lon="-2.58215482">
        <ele>1001.0000</ele>
        <time>2018-10-13T09:26:31Z</time>
      </trkpt>
      <trkpt lat="38.34961026" lon="-2.58232447">
        <ele>1000.0000</ele>
        <time>2018-10-13T09:26:33Z</time>
      </trkpt>
      <trkpt lat="38.34947180" lon="-2.58255430">
        <ele>998.00000</ele>
        <time>2018-10-13T09:26:36Z</time>
      </trkpt>
      <trkpt lat="38.34954120" lon="-2.58297457">
        <ele>997.00000</ele>
        <time>2018-10-13T09:26:41Z</time>
      </trkpt>
      <trkpt lat="38.34958855" lon="-2.58305621">
        <ele>997.00000</ele>
        <time>2018-10-13T09:26:42Z</time>
      </trkpt>
      <trkpt lat="38.34964111" lon="-2.58313215">
        <ele>996.00000</ele>
        <time>2018-10-13T09:26:43Z</time>
      </trkpt>
      <trkpt lat="38.34974287" lon="-2.58328956">
        <ele>995.00000</ele>
        <time>2018-10-13T09:26:45Z</time>
      </trkpt>
      <trkpt lat="38.34984974" lon="-2.58344404">
        <ele>994.00000</ele>
        <time>2018-10-13T09:26:47Z</time>
      </trkpt>
      <trkpt lat="38.34996423" lon="-2.58358687">
        <ele>992.00000</ele>
        <time>2018-10-13T09:26:49Z</time>
      </trkpt>
      <trkpt lat="38.35007697" lon="-2.58366960">
        <ele>991.00000</ele>
        <time>2018-10-13T09:26:51Z</time>
      </trkpt>
      <trkpt lat="38.35018987" lon="-2.58369290">
        <ele>990.00000</ele>
        <time>2018-10-13T09:26:53Z</time>
      </trkpt>
      <trkpt lat="38.35078541" lon="-2.58373942">
        <ele>989.00000</ele>
        <time>2018-10-13T09:27:00Z</time>
      </trkpt>
      <trkpt lat="38.35088658" lon="-2.58375920">
        <ele>989.00000</ele>
        <time>2018-10-13T09:27:01Z</time>
      </trkpt>
      <trkpt lat="38.35110166" lon="-2.58381972">
        <ele>988.00000</ele>
        <time>2018-10-13T09:27:03Z</time>
      </trkpt>
      <trkpt lat="38.35132059" lon="-2.58389264">
        <ele>986.00000</ele>
        <time>2018-10-13T09:27:05Z</time>
      </trkpt>
      <trkpt lat="38.35143207" lon="-2.58392935">
        <ele>985.00000</ele>
        <time>2018-10-13T09:27:06Z</time>
      </trkpt>
      <trkpt lat="38.35153995" lon="-2.58396338">
        <ele>984.00000</ele>
        <time>2018-10-13T09:27:07Z</time>
      </trkpt>
      <trkpt lat="38.35164128" lon="-2.58399632">
        <ele>983.00000</ele>
        <time>2018-10-13T09:27:08Z</time>
      </trkpt>
      <trkpt lat="38.35174136" lon="-2.58402650">
        <ele>982.00000</ele>
        <time>2018-10-13T09:27:09Z</time>
      </trkpt>
      <trkpt lat="38.35183591" lon="-2.58405550">
        <ele>979.00000</ele>
        <time>2018-10-13T09:27:10Z</time>
      </trkpt>
      <trkpt lat="38.35192484" lon="-2.58408584">
        <ele>978.00000</ele>
        <time>2018-10-13T09:27:11Z</time>
      </trkpt>
      <trkpt lat="38.35200615" lon="-2.58411744">
        <ele>977.00000</ele>
        <time>2018-10-13T09:27:12Z</time>
      </trkpt>
      <trkpt lat="38.35208930" lon="-2.58415482">
        <ele>976.00000</ele>
        <time>2018-10-13T09:27:13Z</time>
      </trkpt>
      <trkpt lat="38.35216943" lon="-2.58420679">
        <ele>974.00000</ele>
        <time>2018-10-13T09:27:14Z</time>
      </trkpt>
      <trkpt lat="38.35238442" lon="-2.58443637">
        <ele>973.00000</ele>
        <time>2018-10-13T09:27:17Z</time>
      </trkpt>
      <trkpt lat="38.35248534" lon="-2.58456814">
        <ele>971.00000</ele>
        <time>2018-10-13T09:27:19Z</time>
      </trkpt>
      <trkpt lat="38.35252800" lon="-2.58462237">
        <ele>971.00000</ele>
        <time>2018-10-13T09:27:20Z</time>
      </trkpt>
      <trkpt lat="38.35262322" lon="-2.58466294">
        <ele>970.00000</ele>
        <time>2018-10-13T09:27:22Z</time>
      </trkpt>
      <trkpt lat="38.35268123" lon="-2.58465019">
        <ele>969.00000</ele>
        <time>2018-10-13T09:27:23Z</time>
      </trkpt>
      <trkpt lat="38.35272724" lon="-2.58460896">
        <ele>968.00000</ele>
        <time>2018-10-13T09:27:24Z</time>
      </trkpt>
      <trkpt lat="38.35274853" lon="-2.58444626">
        <ele>966.00000</ele>
        <time>2018-10-13T09:27:26Z</time>
      </trkpt>
      <trkpt lat="38.35266656" lon="-2.58420151">
        <ele>966.00000</ele>
        <time>2018-10-13T09:27:29Z</time>
      </trkpt>
      <trkpt lat="38.35263001" lon="-2.58412473">
        <ele>965.00000</ele>
        <time>2018-10-13T09:27:30Z</time>
      </trkpt>
      <trkpt lat="38.35255499" lon="-2.58396866">
        <ele>964.00000</ele>
        <time>2018-10-13T09:27:32Z</time>
      </trkpt>
      <trkpt lat="38.35247947" lon="-2.58380957">
        <ele>962.00000</ele>
        <time>2018-10-13T09:27:34Z</time>
      </trkpt>
      <trkpt lat="38.35243999" lon="-2.58372928">
        <ele>961.00000</ele>
        <time>2018-10-13T09:27:35Z</time>
      </trkpt>
      <trkpt lat="38.35236632" lon="-2.58356977">
        <ele>959.00000</ele>
        <time>2018-10-13T09:27:37Z</time>
      </trkpt>
      <trkpt lat="38.35229717" lon="-2.58341445">
        <ele>958.00000</ele>
        <time>2018-10-13T09:27:39Z</time>
      </trkpt>
      <trkpt lat="38.35223221" lon="-2.58325025">
        <ele>958.00000</ele>
        <time>2018-10-13T09:27:41Z</time>
      </trkpt>
      <trkpt lat="38.35219063" lon="-2.58298815">
        <ele>957.00000</ele>
        <time>2018-10-13T09:27:44Z</time>
      </trkpt>
      <trkpt lat="38.35262901" lon="-2.58305235">
        <ele>956.00000</ele>
        <time>2018-10-13T09:27:51Z</time>
      </trkpt>
      <trkpt lat="38.35270989" lon="-2.58313240">
        <ele>956.00000</ele>
        <time>2018-10-13T09:27:52Z</time>
      </trkpt>
      <trkpt lat="38.35289916" lon="-2.58326291">
        <ele>956.00000</ele>
        <time>2018-10-13T09:27:54Z</time>
      </trkpt>
      <trkpt lat="38.35308456" lon="-2.58336181">
        <ele>955.00000</ele>
        <time>2018-10-13T09:27:56Z</time>
      </trkpt>
      <trkpt lat="38.35317249" lon="-2.58339207">
        <ele>954.00000</ele>
        <time>2018-10-13T09:27:57Z</time>
      </trkpt>
      <trkpt lat="38.35326033" lon="-2.58340590">
        <ele>952.00000</ele>
        <time>2018-10-13T09:27:58Z</time>
      </trkpt>
      <trkpt lat="38.35334080" lon="-2.58340062">
        <ele>951.00000</ele>
        <time>2018-10-13T09:27:59Z</time>
      </trkpt>
      <trkpt lat="38.35341582" lon="-2.58338159">
        <ele>949.00000</ele>
        <time>2018-10-13T09:28:00Z</time>
      </trkpt>
      <trkpt lat="38.35348706" lon="-2.58335854">
        <ele>947.00000</ele>
        <time>2018-10-13T09:28:01Z</time>
      </trkpt>
      <trkpt lat="38.35355026" lon="-2.58334505">
        <ele>946.00000</ele>
        <time>2018-10-13T09:28:02Z</time>
      </trkpt>
      <trkpt lat="38.35360449" lon="-2.58335125">
        <ele>944.00000</ele>
        <time>2018-10-13T09:28:03Z</time>
      </trkpt>
      <trkpt lat="38.35365562" lon="-2.58338470">
        <ele>943.00000</ele>
        <time>2018-10-13T09:28:04Z</time>
      </trkpt>
      <trkpt lat="38.35369301" lon="-2.58351847">
        <ele>942.00000</ele>
        <time>2018-10-13T09:28:06Z</time>
      </trkpt>
      <trkpt lat="38.35350265" lon="-2.58384025">
        <ele>941.00000</ele>
        <time>2018-10-13T09:28:11Z</time>
      </trkpt>
      <trkpt lat="38.35354213" lon="-2.58396464">
        <ele>940.00000</ele>
        <time>2018-10-13T09:28:13Z</time>
      </trkpt>
      <trkpt lat="38.35357734" lon="-2.58403119">
        <ele>939.00000</ele>
        <time>2018-10-13T09:28:14Z</time>
      </trkpt>
      <trkpt lat="38.35361673" lon="-2.58410302">
        <ele>938.00000</ele>
        <time>2018-10-13T09:28:15Z</time>
      </trkpt>
      <trkpt lat="38.35365302" lon="-2.58418601">
        <ele>937.00000</ele>
        <time>2018-10-13T09:28:16Z</time>
      </trkpt>
      <trkpt lat="38.35367959" lon="-2.58427544">
        <ele>936.00000</ele>
        <time>2018-10-13T09:28:17Z</time>
      </trkpt>
      <trkpt lat="38.35372377" lon="-2.58443235">
        <ele>935.00000</ele>
        <time>2018-10-13T09:28:19Z</time>
      </trkpt>
      <trkpt lat="38.35379392" lon="-2.58451684">
        <ele>933.00000</ele>
        <time>2018-10-13T09:28:21Z</time>
      </trkpt>
      <trkpt lat="38.35388973" lon="-2.58455238">
        <ele>931.00000</ele>
        <time>2018-10-13T09:28:23Z</time>
      </trkpt>
      <trkpt lat="38.35396332" lon="-2.58453813">
        <ele>930.00000</ele>
        <time>2018-10-13T09:28:24Z</time>
      </trkpt>
      <trkpt lat="38.35411386" lon="-2.58445221">
        <ele>929.00000</ele>
        <time>2018-10-13T09:28:26Z</time>
      </trkpt>
      <trkpt lat="38.35429617" lon="-2.58418601">
        <ele>928.00000</ele>
        <time>2018-10-13T09:28:29Z</time>
      </trkpt>
      <trkpt lat="38.35435266" lon="-2.58410093">
        <ele>928.00000</ele>
        <time>2018-10-13T09:28:30Z</time>
      </trkpt>
      <trkpt lat="38.35446984" lon="-2.58393941">
        <ele>926.00000</ele>
        <time>2018-10-13T09:28:32Z</time>
      </trkpt>
      <trkpt lat="38.35452072" lon="-2.58385886">
        <ele>925.00000</ele>
        <time>2018-10-13T09:28:33Z</time>
      </trkpt>
      <trkpt lat="38.35456472" lon="-2.58378367">
        <ele>924.00000</ele>
        <time>2018-10-13T09:28:34Z</time>
      </trkpt>
      <trkpt lat="38.35461870" lon="-2.58371310">
        <ele>923.00000</ele>
        <time>2018-10-13T09:28:35Z</time>
      </trkpt>
      <trkpt lat="38.35475524" lon="-2.58361503">
        <ele>921.00000</ele>
        <time>2018-10-13T09:28:37Z</time>
      </trkpt>
      <trkpt lat="38.35493721" lon="-2.58357287">
        <ele>920.00000</ele>
        <time>2018-10-13T09:28:39Z</time>
      </trkpt>
      <trkpt lat="38.35514626" lon="-2.58355929">
        <ele>918.00000</ele>
        <time>2018-10-13T09:28:41Z</time>
      </trkpt>
      <trkpt lat="38.35525128" lon="-2.58356055">
        <ele>917.00000</ele>
        <time>2018-10-13T09:28:42Z</time>
      </trkpt>
      <trkpt lat="38.35535313" lon="-2.58356449">
        <ele>917.00000</ele>
        <time>2018-10-13T09:28:43Z</time>
      </trkpt>
      <trkpt lat="38.35554004" lon="-2.58355652">
        <ele>915.00000</ele>
        <time>2018-10-13T09:28:45Z</time>
      </trkpt>
      <trkpt lat="38.35562973" lon="-2.58353683">
        <ele>914.00000</ele>
        <time>2018-10-13T09:28:46Z</time>
      </trkpt>
      <trkpt lat="38.35572109" lon="-2.58349944">
        <ele>912.00000</ele>
        <time>2018-10-13T09:28:47Z</time>
      </trkpt>
      <trkpt lat="38.35581346" lon="-2.58344354">
        <ele>911.00000</ele>
        <time>2018-10-13T09:28:48Z</time>
      </trkpt>
      <trkpt lat="38.35590398" lon="-2.58337019">
        <ele>910.00000</ele>
        <time>2018-10-13T09:28:49Z</time>
      </trkpt>
      <trkpt lat="38.35599308" lon="-2.58329878">
        <ele>909.00000</ele>
        <time>2018-10-13T09:28:50Z</time>
      </trkpt>
      <trkpt lat="38.35608436" lon="-2.58323256">
        <ele>908.00000</ele>
        <time>2018-10-13T09:28:51Z</time>
      </trkpt>
      <trkpt lat="38.35627455" lon="-2.58312829">
        <ele>906.00000</ele>
        <time>2018-10-13T09:28:53Z</time>
      </trkpt>
      <trkpt lat="38.35644420" lon="-2.58305562">
        <ele>904.00000</ele>
        <time>2018-10-13T09:28:55Z</time>
      </trkpt>
      <trkpt lat="38.35653724" lon="-2.58303333">
        <ele>903.00000</ele>
        <time>2018-10-13T09:28:56Z</time>
      </trkpt>
      <trkpt lat="38.35663254" lon="-2.58301740">
        <ele>902.00000</ele>
        <time>2018-10-13T09:28:57Z</time>
      </trkpt>
      <trkpt lat="38.35672491" lon="-2.58301958">
        <ele>901.00000</ele>
        <time>2018-10-13T09:28:58Z</time>
      </trkpt>
      <trkpt lat="38.35690730" lon="-2.58307280">
        <ele>899.00000</ele>
        <time>2018-10-13T09:29:00Z</time>
      </trkpt>
      <trkpt lat="38.35708164" lon="-2.58315570">
        <ele>898.00000</ele>
        <time>2018-10-13T09:29:02Z</time>
      </trkpt>
      <trkpt lat="38.35726336" lon="-2.58318353">
        <ele>896.00000</ele>
        <time>2018-10-13T09:29:04Z</time>
      </trkpt>
      <trkpt lat="38.35735112" lon="-2.58318806">
        <ele>896.00000</ele>
        <time>2018-10-13T09:29:05Z</time>
      </trkpt>
      <trkpt lat="38.35744072" lon="-2.58319007">
        <ele>895.00000</ele>
        <time>2018-10-13T09:29:06Z</time>
      </trkpt>
      <trkpt lat="38.35752454" lon="-2.58318554">
        <ele>893.00000</ele>
        <time>2018-10-13T09:29:07Z</time>
      </trkpt>
      <trkpt lat="38.35760752" lon="-2.58316408">
        <ele>892.00000</ele>
        <time>2018-10-13T09:29:08Z</time>
      </trkpt>
      <trkpt lat="38.35768329" lon="-2.58312905">
        <ele>891.00000</ele>
        <time>2018-10-13T09:29:09Z</time>
      </trkpt>
      <trkpt lat="38.35775169" lon="-2.58308270">
        <ele>889.00000</ele>
        <time>2018-10-13T09:29:10Z</time>
      </trkpt>
      <trkpt lat="38.35781791" lon="-2.58302696">
        <ele>888.00000</ele>
        <time>2018-10-13T09:29:11Z</time>
      </trkpt>
      <trkpt lat="38.35788739" lon="-2.58297884">
        <ele>887.00000</ele>
        <time>2018-10-13T09:29:12Z</time>
      </trkpt>
      <trkpt lat="38.35804615" lon="-2.58293098">
        <ele>886.00000</ele>
        <time>2018-10-13T09:29:14Z</time>
      </trkpt>
      <trkpt lat="38.35830448" lon="-2.58301815">
        <ele>884.00000</ele>
        <time>2018-10-13T09:29:17Z</time>
      </trkpt>
      <trkpt lat="38.35838821" lon="-2.58307138">
        <ele>884.00000</ele>
        <time>2018-10-13T09:29:18Z</time>
      </trkpt>
      <trkpt lat="38.35848075" lon="-2.58312829">
        <ele>883.00000</ele>
        <time>2018-10-13T09:29:19Z</time>
      </trkpt>
      <trkpt lat="38.35856566" lon="-2.58317540">
        <ele>882.00000</ele>
        <time>2018-10-13T09:29:20Z</time>
      </trkpt>
      <trkpt lat="38.35865509" lon="-2.58320918">
        <ele>881.00000</ele>
        <time>2018-10-13T09:29:21Z</time>
      </trkpt>
      <trkpt lat="38.35881552" lon="-2.58321655">
        <ele>879.00000</ele>
        <time>2018-10-13T09:29:23Z</time>
      </trkpt>
      <trkpt lat="38.35889825" lon="-2.58319258">
        <ele>878.00000</ele>
        <time>2018-10-13T09:29:24Z</time>
      </trkpt>
      <trkpt lat="38.35898634" lon="-2.58315084">
        <ele>877.00000</ele>
        <time>2018-10-13T09:29:25Z</time>
      </trkpt>
      <trkpt lat="38.35905960" lon="-2.58308605">
        <ele>876.00000</ele>
        <time>2018-10-13T09:29:26Z</time>
      </trkpt>
      <trkpt lat="38.35921802" lon="-2.58294741">
        <ele>874.00000</ele>
        <time>2018-10-13T09:29:28Z</time>
      </trkpt>
      <trkpt lat="38.35935624" lon="-2.58283576">
        <ele>871.00000</ele>
        <time>2018-10-13T09:29:30Z</time>
      </trkpt>
      <trkpt lat="38.35943478" lon="-2.58279880">
        <ele>870.00000</ele>
        <time>2018-10-13T09:29:31Z</time>
      </trkpt>
      <trkpt lat="38.35952857" lon="-2.58276997">
        <ele>869.00000</ele>
        <time>2018-10-13T09:29:32Z</time>
      </trkpt>
      <trkpt lat="38.35963075" lon="-2.58274641">
        <ele>868.00000</ele>
        <time>2018-10-13T09:29:33Z</time>
      </trkpt>
      <trkpt lat="38.35972873" lon="-2.58271506">
        <ele>866.00000</ele>
        <time>2018-10-13T09:29:34Z</time>
      </trkpt>
      <trkpt lat="38.35989494" lon="-2.58265136">
        <ele>865.00000</ele>
        <time>2018-10-13T09:29:36Z</time>
      </trkpt>
      <trkpt lat="38.36007155" lon="-2.58263401">
        <ele>862.00000</ele>
        <time>2018-10-13T09:29:38Z</time>
      </trkpt>
      <trkpt lat="38.36015487" lon="-2.58264726">
        <ele>861.00000</ele>
        <time>2018-10-13T09:29:39Z</time>
      </trkpt>
      <trkpt lat="38.36023827" lon="-2.58266938">
        <ele>859.00000</ele>
        <time>2018-10-13T09:29:40Z</time>
      </trkpt>
      <trkpt lat="38.36031387" lon="-2.58270534">
        <ele>857.00000</ele>
        <time>2018-10-13T09:29:41Z</time>
      </trkpt>
      <trkpt lat="38.36041420" lon="-2.58279545">
        <ele>856.00000</ele>
        <time>2018-10-13T09:29:43Z</time>
      </trkpt>
      <trkpt lat="38.36045703" lon="-2.58282671">
        <ele>855.00000</ele>
        <time>2018-10-13T09:29:44Z</time>
      </trkpt>
      <trkpt lat="38.36049341" lon="-2.58284415">
        <ele>854.00000</ele>
        <time>2018-10-13T09:29:45Z</time>
      </trkpt>
      <trkpt lat="38.36059450" lon="-2.58281288">
        <ele>852.00000</ele>
        <time>2018-10-13T09:29:47Z</time>
      </trkpt>
      <trkpt lat="38.36061310" lon="-2.58270098">
        <ele>851.00000</ele>
        <time>2018-10-13T09:29:49Z</time>
      </trkpt>
      <trkpt lat="38.36038512" lon="-2.58259168">
        <ele>850.00000</ele>
        <time>2018-10-13T09:29:53Z</time>
      </trkpt>
      <trkpt lat="38.36031379" lon="-2.58256603">
        <ele>850.00000</ele>
        <time>2018-10-13T09:29:54Z</time>
      </trkpt>
      <trkpt lat="38.35998840" lon="-2.58241910">
        <ele>848.00000</ele>
        <time>2018-10-13T09:29:58Z</time>
      </trkpt>
      <trkpt lat="38.35981934" lon="-2.58240125">
        <ele>847.00000</ele>
        <time>2018-10-13T09:30:00Z</time>
      </trkpt>
      <trkpt lat="38.35968062" lon="-2.58238608">
        <ele>845.00000</ele>
        <time>2018-10-13T09:30:02Z</time>
      </trkpt>
      <trkpt lat="38.35961909" lon="-2.58234509">
        <ele>844.00000</ele>
        <time>2018-10-13T09:30:03Z</time>
      </trkpt>
      <trkpt lat="38.35957107" lon="-2.58228817">
        <ele>841.00000</ele>
        <time>2018-10-13T09:30:04Z</time>
      </trkpt>
      <trkpt lat="38.35954466" lon="-2.58221274">
        <ele>840.00000</ele>
        <time>2018-10-13T09:30:05Z</time>
      </trkpt>
      <trkpt lat="38.35953896" lon="-2.58213604">
        <ele>839.00000</ele>
        <time>2018-10-13T09:30:06Z</time>
      </trkpt>
      <trkpt lat="38.35957190" lon="-2.58203244">
        <ele>837.00000</ele>
        <time>2018-10-13T09:30:08Z</time>
      </trkpt>
      <trkpt lat="38.35977324" lon="-2.58201853">
        <ele>837.00000</ele>
        <time>2018-10-13T09:30:11Z</time>
      </trkpt>
      <trkpt lat="38.35996627" lon="-2.58203194">
        <ele>836.00000</ele>
        <time>2018-10-13T09:30:13Z</time>
      </trkpt>
      <trkpt lat="38.36015126" lon="-2.58203756">
        <ele>835.00000</ele>
        <time>2018-10-13T09:30:15Z</time>
      </trkpt>
      <trkpt lat="38.36029736" lon="-2.58203814">
        <ele>833.00000</ele>
        <time>2018-10-13T09:30:17Z</time>
      </trkpt>
      <trkpt lat="38.36035620" lon="-2.58203697">
        <ele>832.00000</ele>
        <time>2018-10-13T09:30:18Z</time>
      </trkpt>
      <trkpt lat="38.36041211" lon="-2.58203797">
        <ele>831.00000</ele>
        <time>2018-10-13T09:30:19Z</time>
      </trkpt>
      <trkpt lat="38.36045284" lon="-2.58203730">
        <ele>829.00000</ele>
        <time>2018-10-13T09:30:20Z</time>
      </trkpt>
      <trkpt lat="38.36049601" lon="-2.58202356">
        <ele>828.00000</ele>
        <time>2018-10-13T09:30:21Z</time>
      </trkpt>
      <trkpt lat="38.36054186" lon="-2.58193060">
        <ele>827.00000</ele>
        <time>2018-10-13T09:30:23Z</time>
      </trkpt>
      <trkpt lat="38.36029627" lon="-2.58182264">
        <ele>826.00000</ele>
        <time>2018-10-13T09:30:29Z</time>
      </trkpt>
      <trkpt lat="38.36006275" lon="-2.58175391">
        <ele>825.00000</ele>
        <time>2018-10-13T09:30:33Z</time>
      </trkpt>
      <trkpt lat="38.35997985" lon="-2.58164838">
        <ele>823.00000</ele>
        <time>2018-10-13T09:30:35Z</time>
      </trkpt>
      <trkpt lat="38.35994482" lon="-2.58150505">
        <ele>821.00000</ele>
        <time>2018-10-13T09:30:37Z</time>
      </trkpt>
      <trkpt lat="38.35995689" lon="-2.58138838">
        <ele>820.00000</ele>
        <time>2018-10-13T09:30:39Z</time>
      </trkpt>
      <trkpt lat="38.35997675" lon="-2.58132845">
        <ele>819.00000</ele>
        <time>2018-10-13T09:30:40Z</time>
      </trkpt>
      <trkpt lat="38.36013802" lon="-2.58117606">
        <ele>819.00000</ele>
        <time>2018-10-13T09:30:43Z</time>
      </trkpt>
      <trkpt lat="38.36026442" lon="-2.58106542">
        <ele>819.00000</ele>
        <time>2018-10-13T09:30:45Z</time>
      </trkpt>
      <trkpt lat="38.36034069" lon="-2.58100172">
        <ele>818.00000</ele>
        <time>2018-10-13T09:30:46Z</time>
      </trkpt>
      <trkpt lat="38.36042594" lon="-2.58094715">
        <ele>818.00000</ele>
        <time>2018-10-13T09:30:47Z</time>
      </trkpt>
      <trkpt lat="38.36064437" lon="-2.58093106">
        <ele>817.00000</ele>
        <time>2018-10-13T09:30:50Z</time>
      </trkpt>
      <trkpt lat="38.36074638" lon="-2.58094523">
        <ele>817.00000</ele>
        <time>2018-10-13T09:30:51Z</time>
      </trkpt>
      <trkpt lat="38.36083095" lon="-2.58096450">
        <ele>816.00000</ele>
        <time>2018-10-13T09:30:52Z</time>
      </trkpt>
      <trkpt lat="38.36091510" lon="-2.58097364">
        <ele>814.00000</ele>
        <time>2018-10-13T09:30:53Z</time>
      </trkpt>
      <trkpt lat="38.36106028" lon="-2.58100231">
        <ele>813.00000</ele>
        <time>2018-10-13T09:30:55Z</time>
      </trkpt>
      <trkpt lat="38.36119162" lon="-2.58103055">
        <ele>812.00000</ele>
        <time>2018-10-13T09:30:57Z</time>
      </trkpt>
      <trkpt lat="38.36132196" lon="-2.58105528">
        <ele>811.00000</ele>
        <time>2018-10-13T09:30:59Z</time>
      </trkpt>
      <trkpt lat="38.36150066" lon="-2.58106190">
        <ele>809.00000</ele>
        <time>2018-10-13T09:31:01Z</time>
      </trkpt>
      <trkpt lat="38.36167979" lon="-2.58103340">
        <ele>807.00000</ele>
        <time>2018-10-13T09:31:03Z</time>
      </trkpt>
      <trkpt lat="38.36178816" lon="-2.58102536">
        <ele>806.00000</ele>
        <time>2018-10-13T09:31:04Z</time>
      </trkpt>
      <trkpt lat="38.36192278" lon="-2.58101429">
        <ele>804.00000</ele>
        <time>2018-10-13T09:31:05Z</time>
      </trkpt>
      <trkpt lat="38.36216468" lon="-2.58098957">
        <ele>803.00000</ele>
        <time>2018-10-13T09:31:07Z</time>
      </trkpt>
      <trkpt lat="38.36236190" lon="-2.58096559">
        <ele>801.00000</ele>
        <time>2018-10-13T09:31:09Z</time>
      </trkpt>
      <trkpt lat="38.36244614" lon="-2.58094447">
        <ele>800.00000</ele>
        <time>2018-10-13T09:31:10Z</time>
      </trkpt>
      <trkpt lat="38.36253516" lon="-2.58092720">
        <ele>798.00000</ele>
        <time>2018-10-13T09:31:11Z</time>
      </trkpt>
      <trkpt lat="38.36261705" lon="-2.58092167">
        <ele>796.00000</ele>
        <time>2018-10-13T09:31:12Z</time>
      </trkpt>
      <trkpt lat="38.36270783" lon="-2.58093140">
        <ele>794.00000</ele>
        <time>2018-10-13T09:31:13Z</time>
      </trkpt>
      <trkpt lat="38.36280640" lon="-2.58093684">
        <ele>792.00000</ele>
        <time>2018-10-13T09:31:14Z</time>
      </trkpt>
      <trkpt lat="38.36290866" lon="-2.58093005">
        <ele>791.00000</ele>
        <time>2018-10-13T09:31:15Z</time>
      </trkpt>
      <trkpt lat="38.36300807" lon="-2.58089485">
        <ele>791.00000</ele>
        <time>2018-10-13T09:31:16Z</time>
      </trkpt>
      <trkpt lat="38.36327444" lon="-2.58076560">
        <ele>789.00000</ele>
        <time>2018-10-13T09:31:19Z</time>
      </trkpt>
      <trkpt lat="38.36360804" lon="-2.58063761">
        <ele>788.00000</ele>
        <time>2018-10-13T09:31:22Z</time>
      </trkpt>
      <trkpt lat="38.36379890" lon="-2.58053510">
        <ele>786.00000</ele>
        <time>2018-10-13T09:31:24Z</time>
      </trkpt>
      <trkpt lat="38.36388196" lon="-2.58046771">
        <ele>785.00000</ele>
        <time>2018-10-13T09:31:25Z</time>
      </trkpt>
      <trkpt lat="38.36396779" lon="-2.58039177">
        <ele>784.00000</ele>
        <time>2018-10-13T09:31:26Z</time>
      </trkpt>
      <trkpt lat="38.36406041" lon="-2.58032170">
        <ele>782.00000</ele>
        <time>2018-10-13T09:31:27Z</time>
      </trkpt>
      <trkpt lat="38.36415312" lon="-2.58026487">
        <ele>781.00000</ele>
        <time>2018-10-13T09:31:28Z</time>
      </trkpt>
      <trkpt lat="38.36424741" lon="-2.58022069">
        <ele>779.00000</ele>
        <time>2018-10-13T09:31:29Z</time>
      </trkpt>
      <trkpt lat="38.36445503" lon="-2.58016839">
        <ele>777.00000</ele>
        <time>2018-10-13T09:31:31Z</time>
      </trkpt>
      <trkpt lat="38.36457481" lon="-2.58014693">
        <ele>777.00000</ele>
        <time>2018-10-13T09:31:32Z</time>
      </trkpt>
      <trkpt lat="38.36468143" lon="-2.58013310">
        <ele>776.00000</ele>
        <time>2018-10-13T09:31:33Z</time>
      </trkpt>
      <trkpt lat="38.36490673" lon="-2.58011718">
        <ele>774.00000</ele>
        <time>2018-10-13T09:31:35Z</time>
      </trkpt>
      <trkpt lat="38.36500790" lon="-2.58011424">
        <ele>772.00000</ele>
        <time>2018-10-13T09:31:36Z</time>
      </trkpt>
      <trkpt lat="38.36511201" lon="-2.58010511">
        <ele>771.00000</ele>
        <time>2018-10-13T09:31:37Z</time>
      </trkpt>
      <trkpt lat="38.36522156" lon="-2.58008650">
        <ele>770.00000</ele>
        <time>2018-10-13T09:31:38Z</time>
      </trkpt>
      <trkpt lat="38.36531820" lon="-2.58005993">
        <ele>769.00000</ele>
        <time>2018-10-13T09:31:39Z</time>
      </trkpt>
      <trkpt lat="38.36553940" lon="-2.57999455">
        <ele>767.00000</ele>
        <time>2018-10-13T09:31:41Z</time>
      </trkpt>
      <trkpt lat="38.36598666" lon="-2.57987134">
        <ele>766.00000</ele>
        <time>2018-10-13T09:31:45Z</time>
      </trkpt>
      <trkpt lat="38.36629369" lon="-2.57977687">
        <ele>764.00000</ele>
        <time>2018-10-13T09:31:48Z</time>
      </trkpt>
      <trkpt lat="38.36638019" lon="-2.57973044">
        <ele>764.00000</ele>
        <time>2018-10-13T09:31:49Z</time>
      </trkpt>
      <trkpt lat="38.36652738" lon="-2.57959482">
        <ele>763.00000</ele>
        <time>2018-10-13T09:31:51Z</time>
      </trkpt>
      <trkpt lat="38.36675469" lon="-2.57937546">
        <ele>763.00000</ele>
        <time>2018-10-13T09:31:54Z</time>
      </trkpt>
      <trkpt lat="38.36707589" lon="-2.57930346">
        <ele>762.00000</ele>
        <time>2018-10-13T09:31:58Z</time>
      </trkpt>
      <trkpt lat="38.36716951" lon="-2.57931486">
        <ele>762.00000</ele>
        <time>2018-10-13T09:31:59Z</time>
      </trkpt>
      <trkpt lat="38.36742524" lon="-2.57935820">
        <ele>761.00000</ele>
        <time>2018-10-13T09:32:02Z</time>
      </trkpt>
      <trkpt lat="38.36772456" lon="-2.57918628">
        <ele>759.00000</ele>
        <time>2018-10-13T09:32:07Z</time>
      </trkpt>
      <trkpt lat="38.36777703" lon="-2.57913373">
        <ele>758.00000</ele>
        <time>2018-10-13T09:32:08Z</time>
      </trkpt>
      <trkpt lat="38.36782808" lon="-2.57908629">
        <ele>758.00000</ele>
        <time>2018-10-13T09:32:09Z</time>
      </trkpt>
      <trkpt lat="38.36789321" lon="-2.57905418">
        <ele>758.00000</ele>
        <time>2018-10-13T09:32:10Z</time>
      </trkpt>
      <trkpt lat="38.36804685" lon="-2.57901571">
        <ele>757.00000</ele>
        <time>2018-10-13T09:32:12Z</time>
      </trkpt>
      <trkpt lat="38.36821231" lon="-2.57895771">
        <ele>756.00000</ele>
        <time>2018-10-13T09:32:14Z</time>
      </trkpt>
      <trkpt lat="38.36830065" lon="-2.57891546">
        <ele>755.00000</ele>
        <time>2018-10-13T09:32:15Z</time>
      </trkpt>
      <trkpt lat="38.36857876" lon="-2.57880851">
        <ele>754.00000</ele>
        <time>2018-10-13T09:32:18Z</time>
      </trkpt>
      <trkpt lat="38.36867331" lon="-2.57878856">
        <ele>753.00000</ele>
        <time>2018-10-13T09:32:19Z</time>
      </trkpt>
      <trkpt lat="38.36884958" lon="-2.57877549">
        <ele>751.00000</ele>
        <time>2018-10-13T09:32:21Z</time>
      </trkpt>
      <trkpt lat="38.36893684" lon="-2.57877389">
        <ele>749.00000</ele>
        <time>2018-10-13T09:32:22Z</time>
      </trkpt>
      <trkpt lat="38.36901621" lon="-2.57876518">
        <ele>747.00000</ele>
        <time>2018-10-13T09:32:23Z</time>
      </trkpt>
      <trkpt lat="38.36917723" lon="-2.57872092">
        <ele>746.00000</ele>
        <time>2018-10-13T09:32:25Z</time>
      </trkpt>
      <trkpt lat="38.36935048" lon="-2.57865521">
        <ele>745.00000</ele>
        <time>2018-10-13T09:32:27Z</time>
      </trkpt>
      <trkpt lat="38.36952642" lon="-2.57857348">
        <ele>743.00000</ele>
        <time>2018-10-13T09:32:29Z</time>
      </trkpt>
      <trkpt lat="38.36982247" lon="-2.57845086">
        <ele>742.00000</ele>
        <time>2018-10-13T09:32:32Z</time>
      </trkpt>
      <trkpt lat="38.37000167" lon="-2.57838087">
        <ele>740.00000</ele>
        <time>2018-10-13T09:32:34Z</time>
      </trkpt>
      <trkpt lat="38.37016311" lon="-2.57834315">
        <ele>739.00000</ele>
        <time>2018-10-13T09:32:36Z</time>
      </trkpt>
      <trkpt lat="38.37046008" lon="-2.57841456">
        <ele>739.00000</ele>
        <time>2018-10-13T09:32:40Z</time>
      </trkpt>
      <trkpt lat="38.37059210" lon="-2.57844935">
        <ele>739.00000</ele>
        <time>2018-10-13T09:32:42Z</time>
      </trkpt>
      <trkpt lat="38.37072914" lon="-2.57845823">
        <ele>739.00000</ele>
        <time>2018-10-13T09:32:44Z</time>
      </trkpt>
      <trkpt lat="38.37085680" lon="-2.57840467">
        <ele>739.00000</ele>
        <time>2018-10-13T09:32:46Z</time>
      </trkpt>
      <trkpt lat="38.37091874" lon="-2.57836662">
        <ele>740.00000</ele>
        <time>2018-10-13T09:32:47Z</time>
      </trkpt>
      <trkpt lat="38.37111144" lon="-2.57826662">
        <ele>740.00000</ele>
        <time>2018-10-13T09:32:50Z</time>
      </trkpt>
      <trkpt lat="38.37152425" lon="-2.57838849">
        <ele>740.00000</ele>
        <time>2018-10-13T09:32:56Z</time>
      </trkpt>
      <trkpt lat="38.37176674" lon="-2.57857684">
        <ele>739.00000</ele>
        <time>2018-10-13T09:33:00Z</time>
      </trkpt>
      <trkpt lat="38.37189632" lon="-2.57862168">
        <ele>739.00000</ele>
        <time>2018-10-13T09:33:02Z</time>
      </trkpt>
      <trkpt lat="38.37209799" lon="-2.57867038">
        <ele>738.00000</ele>
        <time>2018-10-13T09:33:05Z</time>
      </trkpt>
      <trkpt lat="38.37216370" lon="-2.57869561">
        <ele>738.00000</ele>
        <time>2018-10-13T09:33:06Z</time>
      </trkpt>
      <trkpt lat="38.37242849" lon="-2.57885553">
        <ele>738.00000</ele>
        <time>2018-10-13T09:33:10Z</time>
      </trkpt>
      <trkpt lat="38.37269914" lon="-2.57906952">
        <ele>738.00000</ele>
        <time>2018-10-13T09:33:14Z</time>
      </trkpt>
      <trkpt lat="38.37290491" lon="-2.57919064">
        <ele>737.00000</ele>
        <time>2018-10-13T09:33:17Z</time>
      </trkpt>
      <trkpt lat="38.37304950" lon="-2.57925108">
        <ele>737.00000</ele>
        <time>2018-10-13T09:33:19Z</time>
      </trkpt>
      <trkpt lat="38.37312888" lon="-2.57928377">
        <ele>736.00000</ele>
        <time>2018-10-13T09:33:20Z</time>
      </trkpt>
      <trkpt lat="38.37334413" lon="-2.57944436">
        <ele>735.00000</ele>
        <time>2018-10-13T09:33:23Z</time>
      </trkpt>
      <trkpt lat="38.37341361" lon="-2.57950773">
        <ele>735.00000</ele>
        <time>2018-10-13T09:33:24Z</time>
      </trkpt>
      <trkpt lat="38.37361486" lon="-2.57969146">
        <ele>734.00000</ele>
        <time>2018-10-13T09:33:27Z</time>
      </trkpt>
      <trkpt lat="38.37368301" lon="-2.57974033">
        <ele>734.00000</ele>
        <time>2018-10-13T09:33:28Z</time>
      </trkpt>
      <trkpt lat="38.37397436" lon="-2.57982775">
        <ele>733.00000</ele>
        <time>2018-10-13T09:33:32Z</time>
      </trkpt>
      <trkpt lat="38.37412599" lon="-2.57984376">
        <ele>733.00000</ele>
        <time>2018-10-13T09:33:34Z</time>
      </trkpt>
      <trkpt lat="38.37428256" lon="-2.57983479">
        <ele>733.00000</ele>
        <time>2018-10-13T09:33:36Z</time>
      </trkpt>
      <trkpt lat="38.37435473" lon="-2.57982431">
        <ele>733.00000</ele>
        <time>2018-10-13T09:33:37Z</time>
      </trkpt>
      <trkpt lat="38.37473276" lon="-2.57976313">
        <ele>733.00000</ele>
        <time>2018-10-13T09:33:43Z</time>
      </trkpt>
      <trkpt lat="38.37479738" lon="-2.57976958">
        <ele>732.00000</ele>
        <time>2018-10-13T09:33:44Z</time>
      </trkpt>
      <trkpt lat="38.37499033" lon="-2.57986522">
        <ele>732.00000</ele>
        <time>2018-10-13T09:33:47Z</time>
      </trkpt>
      <trkpt lat="38.37522461" lon="-2.58002607">
        <ele>732.00000</ele>
        <time>2018-10-13T09:33:51Z</time>
      </trkpt>
      <trkpt lat="38.37531572" lon="-2.58009497">
        <ele>732.00000</ele>
        <time>2018-10-13T09:33:53Z</time>
      </trkpt>
      <trkpt lat="38.37539811" lon="-2.58015724">
        <ele>732.00000</ele>
        <time>2018-10-13T09:33:55Z</time>
      </trkpt>
      <trkpt lat="38.37545611" lon="-2.58020988">
        <ele>732.00000</ele>
        <time>2018-10-13T09:33:57Z</time>
      </trkpt>
      <trkpt lat="38.37559148" lon="-2.58033972">
        <ele>732.00000</ele>
        <time>2018-10-13T09:34:03Z</time>
      </trkpt>
      <trkpt lat="38.37552233" lon="-2.58037760">
        <ele>732.00000</ele>
        <time>2018-10-13T09:34:12Z</time>
      </trkpt>
      <trkpt lat="38.37563876" lon="-2.58032564">
        <ele>732.00000</ele>
        <time>2018-10-13T10:01:54Z</time>
      </trkpt>
      <trkpt lat="38.37581134" lon="-2.58043678">
        <ele>731.00000</ele>
        <time>2018-10-13T10:01:59Z</time>
      </trkpt>
      <trkpt lat="38.37605810" lon="-2.58063375">
        <ele>731.00000</ele>
        <time>2018-10-13T10:02:06Z</time>
      </trkpt>
      <trkpt lat="38.37658708" lon="-2.58094078">
        <ele>730.00000</ele>
        <time>2018-10-13T10:02:18Z</time>
      </trkpt>
      <trkpt lat="38.37672648" lon="-2.58099820">
        <ele>729.00000</ele>
        <time>2018-10-13T10:02:21Z</time>
      </trkpt>
      <trkpt lat="38.37716703" lon="-2.58119408">
        <ele>729.00000</ele>
        <time>2018-10-13T10:02:30Z</time>
      </trkpt>
      <trkpt lat="38.37731086" lon="-2.58130330">
        <ele>729.00000</ele>
        <time>2018-10-13T10:02:33Z</time>
      </trkpt>
      <trkpt lat="38.37739242" lon="-2.58138972">
        <ele>728.00000</ele>
        <time>2018-10-13T10:02:35Z</time>
      </trkpt>
      <trkpt lat="38.37747297" lon="-2.58157135">
        <ele>728.00000</ele>
        <time>2018-10-13T10:02:38Z</time>
      </trkpt>
      <trkpt lat="38.37750147" lon="-2.58164470">
        <ele>728.00000</ele>
        <time>2018-10-13T10:02:39Z</time>
      </trkpt>
      <trkpt lat="38.37752477" lon="-2.58171561">
        <ele>727.00000</ele>
        <time>2018-10-13T10:02:40Z</time>
      </trkpt>
      <trkpt lat="38.37755754" lon="-2.58179054">
        <ele>727.00000</ele>
        <time>2018-10-13T10:02:41Z</time>
      </trkpt>
      <trkpt lat="38.37771487" lon="-2.58215775">
        <ele>726.00000</ele>
        <time>2018-10-13T10:02:46Z</time>
      </trkpt>
      <trkpt lat="38.37781545" lon="-2.58235716">
        <ele>726.00000</ele>
        <time>2018-10-13T10:02:49Z</time>
      </trkpt>
      <trkpt lat="38.37798560" lon="-2.58256637">
        <ele>725.00000</ele>
        <time>2018-10-13T10:02:53Z</time>
      </trkpt>
      <trkpt lat="38.37823832" lon="-2.58285194">
        <ele>725.00000</ele>
        <time>2018-10-13T10:02:58Z</time>
      </trkpt>
      <trkpt lat="38.37833312" lon="-2.58298287">
        <ele>725.00000</ele>
        <time>2018-10-13T10:03:00Z</time>
      </trkpt>
      <trkpt lat="38.37851123" lon="-2.58338914">
        <ele>724.00000</ele>
        <time>2018-10-13T10:03:05Z</time>
      </trkpt>
      <trkpt lat="38.37854040" lon="-2.58347229">
        <ele>724.00000</ele>
        <time>2018-10-13T10:03:06Z</time>
      </trkpt>
      <trkpt lat="38.37869019" lon="-2.58387772">
        <ele>723.00000</ele>
        <time>2018-10-13T10:03:11Z</time>
      </trkpt>
      <trkpt lat="38.37888490" lon="-2.58421786">
        <ele>722.00000</ele>
        <time>2018-10-13T10:03:16Z</time>
      </trkpt>
      <trkpt lat="38.37904114" lon="-2.58449144">
        <ele>722.00000</ele>
        <time>2018-10-13T10:03:20Z</time>
      </trkpt>
      <trkpt lat="38.37923225" lon="-2.58489914">
        <ele>721.00000</ele>
        <time>2018-10-13T10:03:25Z</time>
      </trkpt>
      <trkpt lat="38.37933459" lon="-2.58506460">
        <ele>721.00000</ele>
        <time>2018-10-13T10:03:27Z</time>
      </trkpt>
      <trkpt lat="38.37946476" lon="-2.58519879">
        <ele>721.00000</ele>
        <time>2018-10-13T10:03:29Z</time>
      </trkpt>
      <trkpt lat="38.37960801" lon="-2.58530591">
        <ele>720.00000</ele>
        <time>2018-10-13T10:03:31Z</time>
      </trkpt>
      <trkpt lat="38.37967925" lon="-2.58535486">
        <ele>719.00000</ele>
        <time>2018-10-13T10:03:32Z</time>
      </trkpt>
      <trkpt lat="38.37979802" lon="-2.58546567">
        <ele>719.00000</ele>
        <time>2018-10-13T10:03:34Z</time>
      </trkpt>
      <trkpt lat="38.37984253" lon="-2.58553256">
        <ele>718.00000</ele>
        <time>2018-10-13T10:03:35Z</time>
      </trkpt>
      <trkpt lat="38.37993482" lon="-2.58576147">
        <ele>717.00000</ele>
        <time>2018-10-13T10:03:38Z</time>
      </trkpt>
      <trkpt lat="38.37995435" lon="-2.58584897">
        <ele>717.00000</ele>
        <time>2018-10-13T10:03:39Z</time>
      </trkpt>
      <trkpt lat="38.37999223" lon="-2.58614603">
        <ele>717.00000</ele>
        <time>2018-10-13T10:03:42Z</time>
      </trkpt>
      <trkpt lat="38.38026800" lon="-2.58666076">
        <ele>716.00000</ele>
        <time>2018-10-13T10:03:48Z</time>
      </trkpt>
      <trkpt lat="38.38049565" lon="-2.58679336">
        <ele>715.00000</ele>
        <time>2018-10-13T10:03:51Z</time>
      </trkpt>
      <trkpt lat="38.38056983" lon="-2.58683812">
        <ele>714.00000</ele>
        <time>2018-10-13T10:03:52Z</time>
      </trkpt>
      <trkpt lat="38.38063898" lon="-2.58689009">
        <ele>714.00000</ele>
        <time>2018-10-13T10:03:53Z</time>
      </trkpt>
      <trkpt lat="38.38075792" lon="-2.58701238">
        <ele>713.00000</ele>
        <time>2018-10-13T10:03:55Z</time>
      </trkpt>
      <trkpt lat="38.38079748" lon="-2.58708480">
        <ele>713.00000</ele>
        <time>2018-10-13T10:03:56Z</time>
      </trkpt>
      <trkpt lat="38.38099622" lon="-2.58754564">
        <ele>712.00000</ele>
        <time>2018-10-13T10:04:02Z</time>
      </trkpt>
      <trkpt lat="38.38106076" lon="-2.58769869">
        <ele>712.00000</ele>
        <time>2018-10-13T10:04:04Z</time>
      </trkpt>
      <trkpt lat="38.38121306" lon="-2.58797362">
        <ele>712.00000</ele>
        <time>2018-10-13T10:04:08Z</time>
      </trkpt>
      <trkpt lat="38.38162151" lon="-2.58842591">
        <ele>712.00000</ele>
        <time>2018-10-13T10:04:16Z</time>
      </trkpt>
      <trkpt lat="38.38167750" lon="-2.58847536">
        <ele>712.00000</ele>
        <time>2018-10-13T10:04:17Z</time>
      </trkpt>
      <trkpt lat="38.38198553" lon="-2.58864132">
        <ele>712.00000</ele>
        <time>2018-10-13T10:04:22Z</time>
      </trkpt>
      <trkpt lat="38.38215602" lon="-2.58873143">
        <ele>712.00000</ele>
        <time>2018-10-13T10:04:25Z</time>
      </trkpt>
      <trkpt lat="38.38235794" lon="-2.58903921">
        <ele>711.00000</ele>
        <time>2018-10-13T10:04:30Z</time>
      </trkpt>
      <trkpt lat="38.38242307" lon="-2.58917567">
        <ele>711.00000</ele>
        <time>2018-10-13T10:04:32Z</time>
      </trkpt>
      <trkpt lat="38.38257419" lon="-2.58942469">
        <ele>711.00000</ele>
        <time>2018-10-13T10:04:36Z</time>
      </trkpt>
      <trkpt lat="38.38293059" lon="-2.58974430">
        <ele>711.00000</ele>
        <time>2018-10-13T10:04:44Z</time>
      </trkpt>
      <trkpt lat="38.38311734" lon="-2.58980297">
        <ele>712.00000</ele>
        <time>2018-10-13T10:04:49Z</time>
      </trkpt>
      <trkpt lat="38.38321130" lon="-2.58979509">
        <ele>713.00000</ele>
        <time>2018-10-13T10:04:52Z</time>
      </trkpt>
      <trkpt lat="38.38330166" lon="-2.58977422">
        <ele>715.00000</ele>
        <time>2018-10-13T10:04:55Z</time>
      </trkpt>
      <trkpt lat="38.38339881" lon="-2.58975435">
        <ele>716.00000</ele>
        <time>2018-10-13T10:04:58Z</time>
      </trkpt>
      <trkpt lat="38.38349604" lon="-2.58975771">
        <ele>717.00000</ele>
        <time>2018-10-13T10:05:01Z</time>
      </trkpt>
      <trkpt lat="38.38361841" lon="-2.58977363">
        <ele>718.00000</ele>
        <time>2018-10-13T10:05:05Z</time>
      </trkpt>
      <trkpt lat="38.38370818" lon="-2.58977833">
        <ele>719.00000</ele>
        <time>2018-10-13T10:05:08Z</time>
      </trkpt>
      <trkpt lat="38.38385118" lon="-2.58977933">
        <ele>720.00000</ele>
        <time>2018-10-13T10:05:13Z</time>
      </trkpt>
      <trkpt lat="38.38396064" lon="-2.58974388">
        <ele>722.00000</ele>
        <time>2018-10-13T10:05:17Z</time>
      </trkpt>
      <trkpt lat="38.38405846" lon="-2.58967607">
        <ele>723.00000</ele>
        <time>2018-10-13T10:05:21Z</time>
      </trkpt>
      <trkpt lat="38.38417011" lon="-2.58957465">
        <ele>724.00000</ele>
        <time>2018-10-13T10:05:26Z</time>
      </trkpt>
      <trkpt lat="38.38427681" lon="-2.58947239">
        <ele>725.00000</ele>
        <time>2018-10-13T10:05:31Z</time>
      </trkpt>
      <trkpt lat="38.38436063" lon="-2.58938932">
        <ele>726.00000</ele>
        <time>2018-10-13T10:05:35Z</time>
      </trkpt>
      <trkpt lat="38.38446825" lon="-2.58928581">
        <ele>727.00000</ele>
        <time>2018-10-13T10:05:40Z</time>
      </trkpt>
      <trkpt lat="38.38457504" lon="-2.58917684">
        <ele>728.00000</ele>
        <time>2018-10-13T10:05:45Z</time>
      </trkpt>
      <trkpt lat="38.38468099" lon="-2.58905882">
        <ele>729.00000</ele>
        <time>2018-10-13T10:05:50Z</time>
      </trkpt>
      <trkpt lat="38.38477059" lon="-2.58892907">
        <ele>730.00000</ele>
        <time>2018-10-13T10:05:55Z</time>
      </trkpt>
      <trkpt lat="38.38483178" lon="-2.58874442">
        <ele>732.00000</ele>
        <time>2018-10-13T10:06:01Z</time>
      </trkpt>
      <trkpt lat="38.38482700" lon="-2.58855189">
        <ele>733.00000</ele>
        <time>2018-10-13T10:06:07Z</time>
      </trkpt>
      <trkpt lat="38.38478861" lon="-2.58838224">
        <ele>734.00000</ele>
        <time>2018-10-13T10:06:12Z</time>
      </trkpt>
      <trkpt lat="38.38474276" lon="-2.58821443">
        <ele>735.00000</ele>
        <time>2018-10-13T10:06:17Z</time>
      </trkpt>
      <trkpt lat="38.38471476" lon="-2.58808040">
        <ele>736.00000</ele>
        <time>2018-10-13T10:06:21Z</time>
      </trkpt>
      <trkpt lat="38.38470135" lon="-2.58793967">
        <ele>737.00000</ele>
        <time>2018-10-13T10:06:25Z</time>
      </trkpt>
      <trkpt lat="38.38469180" lon="-2.58775745">
        <ele>738.00000</ele>
        <time>2018-10-13T10:06:30Z</time>
      </trkpt>
      <trkpt lat="38.38470261" lon="-2.58757405">
        <ele>740.00000</ele>
        <time>2018-10-13T10:06:35Z</time>
      </trkpt>
      <trkpt lat="38.38474259" lon="-2.58735763">
        <ele>741.00000</ele>
        <time>2018-10-13T10:06:41Z</time>
      </trkpt>
      <trkpt lat="38.38478643" lon="-2.58714356">
        <ele>742.00000</ele>
        <time>2018-10-13T10:06:47Z</time>
      </trkpt>
      <trkpt lat="38.38483789" lon="-2.58697441">
        <ele>743.00000</ele>
        <time>2018-10-13T10:06:52Z</time>
      </trkpt>
      <trkpt lat="38.38493797" lon="-2.58677635">
        <ele>744.00000</ele>
        <time>2018-10-13T10:06:58Z</time>
      </trkpt>
      <trkpt lat="38.38502657" lon="-2.58658432">
        <ele>745.00000</ele>
        <time>2018-10-13T10:07:04Z</time>
      </trkpt>
      <trkpt lat="38.38505473" lon="-2.58642062">
        <ele>746.00000</ele>
        <time>2018-10-13T10:07:09Z</time>
      </trkpt>
      <trkpt lat="38.38506471" lon="-2.58620219">
        <ele>747.00000</ele>
        <time>2018-10-13T10:07:15Z</time>
      </trkpt>
      <trkpt lat="38.38506798" lon="-2.58597998">
        <ele>748.00000</ele>
        <time>2018-10-13T10:07:21Z</time>
      </trkpt>
      <trkpt lat="38.38508206" lon="-2.58580137">
        <ele>749.00000</ele>
        <time>2018-10-13T10:07:26Z</time>
      </trkpt>
      <trkpt lat="38.38512036" lon="-2.58562786">
        <ele>750.00000</ele>
        <time>2018-10-13T10:07:31Z</time>
      </trkpt>
      <trkpt lat="38.38518281" lon="-2.58545611">
        <ele>752.00000</ele>
        <time>2018-10-13T10:07:36Z</time>
      </trkpt>
      <trkpt lat="38.38527769" lon="-2.58527842">
        <ele>753.00000</ele>
        <time>2018-10-13T10:07:42Z</time>
      </trkpt>
      <trkpt lat="38.38536185" lon="-2.58512746">
        <ele>754.00000</ele>
        <time>2018-10-13T10:07:47Z</time>
      </trkpt>
      <trkpt lat="38.38548682" lon="-2.58492034">
        <ele>755.00000</ele>
        <time>2018-10-13T10:07:54Z</time>
      </trkpt>
      <trkpt lat="38.38560014" lon="-2.58474575">
        <ele>756.00000</ele>
        <time>2018-10-13T10:08:00Z</time>
      </trkpt>
      <trkpt lat="38.38571531" lon="-2.58456361">
        <ele>757.00000</ele>
        <time>2018-10-13T10:08:06Z</time>
      </trkpt>
      <trkpt lat="38.38585705" lon="-2.58436538">
        <ele>758.00000</ele>
        <time>2018-10-13T10:08:13Z</time>
      </trkpt>
      <trkpt lat="38.38588035" lon="-2.58434174">
        <ele>758.00000</ele>
        <time>2018-10-13T10:08:14Z</time>
      </trkpt>
      <trkpt lat="38.38602351" lon="-2.58428785">
        <ele>759.00000</ele>
        <time>2018-10-13T10:08:19Z</time>
      </trkpt>
      <trkpt lat="38.38618529" lon="-2.58438088">
        <ele>761.00000</ele>
        <time>2018-10-13T10:08:25Z</time>
      </trkpt>
      <trkpt lat="38.38630833" lon="-2.58449438">
        <ele>762.00000</ele>
        <time>2018-10-13T10:08:30Z</time>
      </trkpt>
      <trkpt lat="38.38641906" lon="-2.58458373">
        <ele>763.00000</ele>
        <time>2018-10-13T10:08:34Z</time>
      </trkpt>
      <trkpt lat="38.38659742" lon="-2.58470577">
        <ele>764.00000</ele>
        <time>2018-10-13T10:08:40Z</time>
      </trkpt>
      <trkpt lat="38.38675031" lon="-2.58471708">
        <ele>765.00000</ele>
        <time>2018-10-13T10:08:45Z</time>
      </trkpt>
      <trkpt lat="38.38686657" lon="-2.58473276">
        <ele>766.00000</ele>
        <time>2018-10-13T10:08:49Z</time>
      </trkpt>
      <trkpt lat="38.38704284" lon="-2.58475078">
        <ele>767.00000</ele>
        <time>2018-10-13T10:08:55Z</time>
      </trkpt>
      <trkpt lat="38.38722925" lon="-2.58473787">
        <ele>768.00000</ele>
        <time>2018-10-13T10:09:01Z</time>
      </trkpt>
      <trkpt lat="38.38750527" lon="-2.58471180">
        <ele>770.00000</ele>
        <time>2018-10-13T10:09:09Z</time>
      </trkpt>
      <trkpt lat="38.38776041" lon="-2.58465204">
        <ele>771.00000</ele>
        <time>2018-10-13T10:09:16Z</time>
      </trkpt>
      <trkpt lat="38.38804313" lon="-2.58467140">
        <ele>772.00000</ele>
        <time>2018-10-13T10:09:24Z</time>
      </trkpt>
      <trkpt lat="38.38831999" lon="-2.58474810">
        <ele>773.00000</ele>
        <time>2018-10-13T10:09:32Z</time>
      </trkpt>
      <trkpt lat="38.38855083" lon="-2.58482605">
        <ele>774.00000</ele>
        <time>2018-10-13T10:09:39Z</time>
      </trkpt>
      <trkpt lat="38.38870908" lon="-2.58481741">
        <ele>775.00000</ele>
        <time>2018-10-13T10:09:44Z</time>
      </trkpt>
      <trkpt lat="38.38880782" lon="-2.58472211">
        <ele>776.00000</ele>
        <time>2018-10-13T10:09:48Z</time>
      </trkpt>
      <trkpt lat="38.38896531" lon="-2.58462178">
        <ele>777.00000</ele>
        <time>2018-10-13T10:09:54Z</time>
      </trkpt>
      <trkpt lat="38.38909808" lon="-2.58462605">
        <ele>778.00000</ele>
        <time>2018-10-13T10:09:58Z</time>
      </trkpt>
      <trkpt lat="38.38926974" lon="-2.58466084">
        <ele>779.00000</ele>
        <time>2018-10-13T10:10:03Z</time>
      </trkpt>
      <trkpt lat="38.38947552" lon="-2.58459177">
        <ele>780.00000</ele>
        <time>2018-10-13T10:10:09Z</time>
      </trkpt>
      <trkpt lat="38.38958524" lon="-2.58447099">
        <ele>781.00000</ele>
        <time>2018-10-13T10:10:13Z</time>
      </trkpt>
      <trkpt lat="38.38971566" lon="-2.58432330">
        <ele>783.00000</ele>
        <time>2018-10-13T10:10:18Z</time>
      </trkpt>
      <trkpt lat="38.38982194" lon="-2.58422926">
        <ele>784.00000</ele>
        <time>2018-10-13T10:10:22Z</time>
      </trkpt>
      <trkpt lat="38.38990434" lon="-2.58409112">
        <ele>785.00000</ele>
        <time>2018-10-13T10:10:26Z</time>
      </trkpt>
      <trkpt lat="38.38996502" lon="-2.58393136">
        <ele>785.00000</ele>
        <time>2018-10-13T10:10:29Z</time>
      </trkpt>
      <trkpt lat="38.39004716" lon="-2.58374520">
        <ele>785.00000</ele>
        <time>2018-10-13T10:10:32Z</time>
      </trkpt>
      <trkpt lat="38.39011833" lon="-2.58355770">
        <ele>785.00000</ele>
        <time>2018-10-13T10:10:35Z</time>
      </trkpt>
      <trkpt lat="38.39025654" lon="-2.58345142">
        <ele>784.00000</ele>
        <time>2018-10-13T10:10:40Z</time>
      </trkpt>
      <trkpt lat="38.39046894" lon="-2.58337774">
        <ele>784.00000</ele>
        <time>2018-10-13T10:10:44Z</time>
      </trkpt>
      <trkpt lat="38.39101184" lon="-2.58326576">
        <ele>785.00000</ele>
        <time>2018-10-13T10:10:55Z</time>
      </trkpt>
      <trkpt lat="38.39113111" lon="-2.58322125">
        <ele>785.00000</ele>
        <time>2018-10-13T10:10:58Z</time>
      </trkpt>
      <trkpt lat="38.39123245" lon="-2.58310616">
        <ele>786.00000</ele>
        <time>2018-10-13T10:11:01Z</time>
      </trkpt>
      <trkpt lat="38.39130244" lon="-2.58302520">
        <ele>786.00000</ele>
        <time>2018-10-13T10:11:03Z</time>
      </trkpt>
      <trkpt lat="38.39133739" lon="-2.58298714">
        <ele>786.00000</ele>
        <time>2018-10-13T10:11:04Z</time>
      </trkpt>
      <trkpt lat="38.39143018" lon="-2.58286359">
        <ele>787.00000</ele>
        <time>2018-10-13T10:11:07Z</time>
      </trkpt>
      <trkpt lat="38.39162657" lon="-2.58265421">
        <ele>787.00000</ele>
        <time>2018-10-13T10:11:13Z</time>
      </trkpt>
      <trkpt lat="38.39184869" lon="-2.58242656">
        <ele>789.00000</ele>
        <time>2018-10-13T10:11:19Z</time>
      </trkpt>
      <trkpt lat="38.39199520" lon="-2.58227141">
        <ele>789.00000</ele>
        <time>2018-10-13T10:11:23Z</time>
      </trkpt>
      <trkpt lat="38.39218153" lon="-2.58209732">
        <ele>789.00000</ele>
        <time>2018-10-13T10:11:28Z</time>
      </trkpt>
      <trkpt lat="38.39240273" lon="-2.58189096">
        <ele>790.00000</ele>
        <time>2018-10-13T10:11:34Z</time>
      </trkpt>
      <trkpt lat="38.39291411" lon="-2.58161175">
        <ele>791.00000</ele>
        <time>2018-10-13T10:11:46Z</time>
      </trkpt>
      <trkpt lat="38.39304579" lon="-2.58155568">
        <ele>791.00000</ele>
        <time>2018-10-13T10:11:49Z</time>
      </trkpt>
      <trkpt lat="38.39337981" lon="-2.58140648">
        <ele>791.00000</ele>
        <time>2018-10-13T10:11:57Z</time>
      </trkpt>
      <trkpt lat="38.39366094" lon="-2.58124245">
        <ele>792.00000</ele>
        <time>2018-10-13T10:12:04Z</time>
      </trkpt>
      <trkpt lat="38.39413158" lon="-2.58081304">
        <ele>793.00000</ele>
        <time>2018-10-13T10:12:17Z</time>
      </trkpt>
      <trkpt lat="38.39419931" lon="-2.58073727">
        <ele>793.00000</ele>
        <time>2018-10-13T10:12:19Z</time>
      </trkpt>
      <trkpt lat="38.39446325" lon="-2.58041809">
        <ele>793.00000</ele>
        <time>2018-10-13T10:12:27Z</time>
      </trkpt>
      <trkpt lat="38.39463139" lon="-2.58022044">
        <ele>794.00000</ele>
        <time>2018-10-13T10:12:32Z</time>
      </trkpt>
      <trkpt lat="38.39505451" lon="-2.57978500">
        <ele>795.00000</ele>
        <time>2018-10-13T10:12:44Z</time>
      </trkpt>
      <trkpt lat="38.39530010" lon="-2.57961426">
        <ele>795.00000</ele>
        <time>2018-10-13T10:12:50Z</time>
      </trkpt>
      <trkpt lat="38.39582271" lon="-2.57933733">
        <ele>796.00000</ele>
        <time>2018-10-13T10:13:01Z</time>
      </trkpt>
      <trkpt lat="38.39608800" lon="-2.57914898">
        <ele>796.00000</ele>
        <time>2018-10-13T10:13:07Z</time>
      </trkpt>
      <trkpt lat="38.39612941" lon="-2.57910791">
        <ele>796.00000</ele>
        <time>2018-10-13T10:13:08Z</time>
      </trkpt>
      <trkpt lat="38.39632110" lon="-2.57888076">
        <ele>797.00000</ele>
        <time>2018-10-13T10:13:13Z</time>
      </trkpt>
      <trkpt lat="38.39657013" lon="-2.57823619">
        <ele>796.00000</ele>
        <time>2018-10-13T10:13:24Z</time>
      </trkpt>
      <trkpt lat="38.39674129" lon="-2.57754561">
        <ele>796.00000</ele>
        <time>2018-10-13T10:13:35Z</time>
      </trkpt>
      <trkpt lat="38.39690607" lon="-2.57686592">
        <ele>797.00000</ele>
        <time>2018-10-13T10:13:46Z</time>
      </trkpt>
      <trkpt lat="38.39698394" lon="-2.57655914">
        <ele>797.00000</ele>
        <time>2018-10-13T10:13:51Z</time>
      </trkpt>
      <trkpt lat="38.39720296" lon="-2.57588767">
        <ele>797.00000</ele>
        <time>2018-10-13T10:14:02Z</time>
      </trkpt>
      <trkpt lat="38.39750647" lon="-2.57539951">
        <ele>797.00000</ele>
        <time>2018-10-13T10:14:11Z</time>
      </trkpt>
      <trkpt lat="38.39762801" lon="-2.57524872">
        <ele>797.00000</ele>
        <time>2018-10-13T10:14:14Z</time>
      </trkpt>
      <trkpt lat="38.39775281" lon="-2.57509441">
        <ele>797.00000</ele>
        <time>2018-10-13T10:14:17Z</time>
      </trkpt>
      <trkpt lat="38.39791249" lon="-2.57486860">
        <ele>796.00000</ele>
        <time>2018-10-13T10:14:21Z</time>
      </trkpt>
      <trkpt lat="38.39798575" lon="-2.57474144">
        <ele>796.00000</ele>
        <time>2018-10-13T10:14:23Z</time>
      </trkpt>
      <trkpt lat="38.39814140" lon="-2.57438220">
        <ele>795.00000</ele>
        <time>2018-10-13T10:14:28Z</time>
      </trkpt>
      <trkpt lat="38.39821960" lon="-2.57404658">
        <ele>794.00000</ele>
        <time>2018-10-13T10:14:32Z</time>
      </trkpt>
      <trkpt lat="38.39823151" lon="-2.57395648">
        <ele>794.00000</ele>
        <time>2018-10-13T10:14:33Z</time>
      </trkpt>
      <trkpt lat="38.39825095" lon="-2.57348332">
        <ele>793.00000</ele>
        <time>2018-10-13T10:14:38Z</time>
      </trkpt>
      <trkpt lat="38.39818968" lon="-2.57308149">
        <ele>792.00000</ele>
        <time>2018-10-13T10:14:42Z</time>
      </trkpt>
      <trkpt lat="38.39809228" lon="-2.57278134">
        <ele>791.00000</ele>
        <time>2018-10-13T10:14:45Z</time>
      </trkpt>
      <trkpt lat="38.39796580" lon="-2.57248805">
        <ele>790.00000</ele>
        <time>2018-10-13T10:14:48Z</time>
      </trkpt>
      <trkpt lat="38.39788206" lon="-2.57228781">
        <ele>789.00000</ele>
        <time>2018-10-13T10:14:50Z</time>
      </trkpt>
      <trkpt lat="38.39772809" lon="-2.57186939">
        <ele>787.00000</ele>
        <time>2018-10-13T10:14:54Z</time>
      </trkpt>
      <trkpt lat="38.39764812" lon="-2.57165665">
        <ele>786.00000</ele>
        <time>2018-10-13T10:14:56Z</time>
      </trkpt>
      <trkpt lat="38.39756313" lon="-2.57144291">
        <ele>785.00000</ele>
        <time>2018-10-13T10:14:58Z</time>
      </trkpt>
      <trkpt lat="38.39740790" lon="-2.57113840">
        <ele>784.00000</ele>
        <time>2018-10-13T10:15:01Z</time>
      </trkpt>
      <trkpt lat="38.39734780" lon="-2.57104326">
        <ele>784.00000</ele>
        <time>2018-10-13T10:15:02Z</time>
      </trkpt>
      <trkpt lat="38.39714295" lon="-2.57078167">
        <ele>783.00000</ele>
        <time>2018-10-13T10:15:05Z</time>
      </trkpt>
      <trkpt lat="38.39699476" lon="-2.57062400">
        <ele>782.00000</ele>
        <time>2018-10-13T10:15:07Z</time>
      </trkpt>
      <trkpt lat="38.39676853" lon="-2.57039719">
        <ele>781.00000</ele>
        <time>2018-10-13T10:15:10Z</time>
      </trkpt>
      <trkpt lat="38.39656778" lon="-2.57013768">
        <ele>779.00000</ele>
        <time>2018-10-13T10:15:13Z</time>
      </trkpt>
      <trkpt lat="38.39651045" lon="-2.57003945">
        <ele>779.00000</ele>
        <time>2018-10-13T10:15:14Z</time>
      </trkpt>
      <trkpt lat="38.39642344" lon="-2.56982261">
        <ele>778.00000</ele>
        <time>2018-10-13T10:15:16Z</time>
      </trkpt>
      <trkpt lat="38.39637760" lon="-2.56946051">
        <ele>777.00000</ele>
        <time>2018-10-13T10:15:19Z</time>
      </trkpt>
      <trkpt lat="38.39648514" lon="-2.56898534">
        <ele>775.00000</ele>
        <time>2018-10-13T10:15:23Z</time>
      </trkpt>
      <trkpt lat="38.39667188" lon="-2.56868368">
        <ele>774.00000</ele>
        <time>2018-10-13T10:15:26Z</time>
      </trkpt>
      <trkpt lat="38.39674254" lon="-2.56859340">
        <ele>774.00000</ele>
        <time>2018-10-13T10:15:27Z</time>
      </trkpt>
      <trkpt lat="38.39696106" lon="-2.56832652">
        <ele>773.00000</ele>
        <time>2018-10-13T10:15:30Z</time>
      </trkpt>
      <trkpt lat="38.39709903" lon="-2.56813206">
        <ele>772.00000</ele>
        <time>2018-10-13T10:15:32Z</time>
      </trkpt>
      <trkpt lat="38.39715946" lon="-2.56802477">
        <ele>771.00000</ele>
        <time>2018-10-13T10:15:33Z</time>
      </trkpt>
      <trkpt lat="38.39728670" lon="-2.56766360">
        <ele>771.00000</ele>
        <time>2018-10-13T10:15:36Z</time>
      </trkpt>
      <trkpt lat="38.39731201" lon="-2.56753519">
        <ele>770.00000</ele>
        <time>2018-10-13T10:15:37Z</time>
      </trkpt>
      <trkpt lat="38.39734973" lon="-2.56727451">
        <ele>770.00000</ele>
        <time>2018-10-13T10:15:39Z</time>
      </trkpt>
      <trkpt lat="38.39739340" lon="-2.56687771">
        <ele>768.00000</ele>
        <time>2018-10-13T10:15:42Z</time>
      </trkpt>
      <trkpt lat="38.39744143" lon="-2.56648074">
        <ele>767.00000</ele>
        <time>2018-10-13T10:15:45Z</time>
      </trkpt>
      <trkpt lat="38.39748208" lon="-2.56607858">
        <ele>766.00000</ele>
        <time>2018-10-13T10:15:48Z</time>
      </trkpt>
      <trkpt lat="38.39751745" lon="-2.56567533">
        <ele>765.00000</ele>
        <time>2018-10-13T10:15:51Z</time>
      </trkpt>
      <trkpt lat="38.39753036" lon="-2.56526520">
        <ele>764.00000</ele>
        <time>2018-10-13T10:15:54Z</time>
      </trkpt>
      <trkpt lat="38.39751242" lon="-2.56498533">
        <ele>763.00000</ele>
        <time>2018-10-13T10:15:56Z</time>
      </trkpt>
      <trkpt lat="38.39746573" lon="-2.56457135">
        <ele>761.00000</ele>
        <time>2018-10-13T10:15:59Z</time>
      </trkpt>
      <trkpt lat="38.39742626" lon="-2.56416097">
        <ele>760.00000</ele>
        <time>2018-10-13T10:16:02Z</time>
      </trkpt>
      <trkpt lat="38.39741310" lon="-2.56374321">
        <ele>758.00000</ele>
        <time>2018-10-13T10:16:05Z</time>
      </trkpt>
      <trkpt lat="38.39743631" lon="-2.56334273">
        <ele>757.00000</ele>
        <time>2018-10-13T10:16:08Z</time>
      </trkpt>
      <trkpt lat="38.39747428" lon="-2.56309077">
        <ele>755.00000</ele>
        <time>2018-10-13T10:16:10Z</time>
      </trkpt>
      <trkpt lat="38.39761879" lon="-2.56254955">
        <ele>755.00000</ele>
        <time>2018-10-13T10:16:15Z</time>
      </trkpt>
      <trkpt lat="38.39769347" lon="-2.56236674">
        <ele>755.00000</ele>
        <time>2018-10-13T10:16:17Z</time>
      </trkpt>
      <trkpt lat="38.39777478" lon="-2.56219516">
        <ele>755.00000</ele>
        <time>2018-10-13T10:16:19Z</time>
      </trkpt>
      <trkpt lat="38.39786589" lon="-2.56203959">
        <ele>756.00000</ele>
        <time>2018-10-13T10:16:21Z</time>
      </trkpt>
      <trkpt lat="38.39801014" lon="-2.56182812">
        <ele>757.00000</ele>
        <time>2018-10-13T10:16:24Z</time>
      </trkpt>
      <trkpt lat="38.39827149" lon="-2.56152813">
        <ele>758.00000</ele>
        <time>2018-10-13T10:16:29Z</time>
      </trkpt>
      <trkpt lat="38.39848011" lon="-2.56129595">
        <ele>758.00000</ele>
        <time>2018-10-13T10:16:33Z</time>
      </trkpt>
      <trkpt lat="38.39855069" lon="-2.56114399">
        <ele>759.00000</ele>
        <time>2018-10-13T10:16:35Z</time>
      </trkpt>
      <trkpt lat="38.39855639" lon="-2.56063981">
        <ele>759.00000</ele>
        <time>2018-10-13T10:16:41Z</time>
      </trkpt>
      <trkpt lat="38.39853568" lon="-2.56055683">
        <ele>759.00000</ele>
        <time>2018-10-13T10:16:42Z</time>
      </trkpt>
      <trkpt lat="38.39833879" lon="-2.55986164">
        <ele>759.00000</ele>
        <time>2018-10-13T10:16:50Z</time>
      </trkpt>
      <trkpt lat="38.39825313" lon="-2.55939753">
        <ele>759.00000</ele>
        <time>2018-10-13T10:16:55Z</time>
      </trkpt>
      <trkpt lat="38.39822698" lon="-2.55921011">
        <ele>758.00000</ele>
        <time>2018-10-13T10:16:57Z</time>
      </trkpt>
      <trkpt lat="38.39820259" lon="-2.55862791">
        <ele>758.00000</ele>
        <time>2018-10-13T10:17:03Z</time>
      </trkpt>
      <trkpt lat="38.39832287" lon="-2.55790958">
        <ele>757.00000</ele>
        <time>2018-10-13T10:17:10Z</time>
      </trkpt>
      <trkpt lat="38.39835237" lon="-2.55780329">
        <ele>756.00000</ele>
        <time>2018-10-13T10:17:11Z</time>
      </trkpt>
      <trkpt lat="38.39849445" lon="-2.55736576">
        <ele>755.00000</ele>
        <time>2018-10-13T10:17:15Z</time>
      </trkpt>
      <trkpt lat="38.39861112" lon="-2.55703568">
        <ele>754.00000</ele>
        <time>2018-10-13T10:17:18Z</time>
      </trkpt>
      <trkpt lat="38.39868413" lon="-2.55682337">
        <ele>753.00000</ele>
        <time>2018-10-13T10:17:20Z</time>
      </trkpt>
      <trkpt lat="38.39878982" lon="-2.55651248">
        <ele>752.00000</ele>
        <time>2018-10-13T10:17:23Z</time>
      </trkpt>
      <trkpt lat="38.39894900" lon="-2.55603547">
        <ele>752.00000</ele>
        <time>2018-10-13T10:17:28Z</time>
      </trkpt>
      <trkpt lat="38.39900658" lon="-2.55585718">
        <ele>752.00000</ele>
        <time>2018-10-13T10:17:30Z</time>
      </trkpt>
      <trkpt lat="38.39911362" lon="-2.55553297">
        <ele>752.00000</ele>
        <time>2018-10-13T10:17:34Z</time>
      </trkpt>
      <trkpt lat="38.39927321" lon="-2.55504632">
        <ele>754.00000</ele>
        <time>2018-10-13T10:17:41Z</time>
      </trkpt>
      <trkpt lat="38.39935795" lon="-2.55479176">
        <ele>755.00000</ele>
        <time>2018-10-13T10:17:45Z</time>
      </trkpt>
      <trkpt lat="38.39941889" lon="-2.55460719">
        <ele>756.00000</ele>
        <time>2018-10-13T10:17:48Z</time>
      </trkpt>
      <trkpt lat="38.39953632" lon="-2.55426077">
        <ele>757.00000</ele>
        <time>2018-10-13T10:17:54Z</time>
      </trkpt>
      <trkpt lat="38.39964168" lon="-2.55399137">
        <ele>758.00000</ele>
        <time>2018-10-13T10:17:59Z</time>
      </trkpt>
      <trkpt lat="38.39966263" lon="-2.55393873">
        <ele>758.00000</ele>
        <time>2018-10-13T10:18:00Z</time>
      </trkpt>
      <trkpt lat="38.39982935" lon="-2.55357915">
        <ele>760.00000</ele>
        <time>2018-10-13T10:18:07Z</time>
      </trkpt>
      <trkpt lat="38.40002146" lon="-2.55324128">
        <ele>761.00000</ele>
        <time>2018-10-13T10:18:14Z</time>
      </trkpt>
      <trkpt lat="38.40027024" lon="-2.55290659">
        <ele>761.00000</ele>
        <time>2018-10-13T10:18:22Z</time>
      </trkpt>
      <trkpt lat="38.40047618" lon="-2.55268287">
        <ele>762.00000</ele>
        <time>2018-10-13T10:18:28Z</time>
      </trkpt>
      <trkpt lat="38.40072219" lon="-2.55244709">
        <ele>764.00000</ele>
        <time>2018-10-13T10:18:35Z</time>
      </trkpt>
      <trkpt lat="38.40101824" lon="-2.55218775">
        <ele>765.00000</ele>
        <time>2018-10-13T10:18:43Z</time>
      </trkpt>
      <trkpt lat="38.40133138" lon="-2.55192331">
        <ele>766.00000</ele>
        <time>2018-10-13T10:18:51Z</time>
      </trkpt>
      <trkpt lat="38.40159005" lon="-2.55170680">
        <ele>767.00000</ele>
        <time>2018-10-13T10:18:58Z</time>
      </trkpt>
      <trkpt lat="38.40184662" lon="-2.55148979">
        <ele>768.00000</ele>
        <time>2018-10-13T10:19:05Z</time>
      </trkpt>
      <trkpt lat="38.40214158" lon="-2.55123758">
        <ele>769.00000</ele>
        <time>2018-10-13T10:19:13Z</time>
      </trkpt>
      <trkpt lat="38.40240209" lon="-2.55102007">
        <ele>770.00000</ele>
        <time>2018-10-13T10:19:20Z</time>
      </trkpt>
      <trkpt lat="38.40265824" lon="-2.55080290">
        <ele>771.00000</ele>
        <time>2018-10-13T10:19:27Z</time>
      </trkpt>
      <trkpt lat="38.40294415" lon="-2.55055781">
        <ele>772.00000</ele>
        <time>2018-10-13T10:19:35Z</time>
      </trkpt>
      <trkpt lat="38.40343172" lon="-2.55018356">
        <ele>773.00000</ele>
        <time>2018-10-13T10:19:47Z</time>
      </trkpt>
      <trkpt lat="38.40360221" lon="-2.55010988">
        <ele>773.00000</ele>
        <time>2018-10-13T10:19:50Z</time>
      </trkpt>
      <trkpt lat="38.40380991" lon="-2.55006101">
        <ele>773.00000</ele>
        <time>2018-10-13T10:19:53Z</time>
      </trkpt>
      <trkpt lat="38.40396724" lon="-2.55003469">
        <ele>773.00000</ele>
        <time>2018-10-13T10:19:55Z</time>
      </trkpt>
      <trkpt lat="38.40431970" lon="-2.55001081">
        <ele>771.00000</ele>
        <time>2018-10-13T10:19:59Z</time>
      </trkpt>
      <trkpt lat="38.40450544" lon="-2.55006504">
        <ele>770.00000</ele>
        <time>2018-10-13T10:20:01Z</time>
      </trkpt>
      <trkpt lat="38.40469085" lon="-2.55017258">
        <ele>768.00000</ele>
        <time>2018-10-13T10:20:03Z</time>
      </trkpt>
      <trkpt lat="38.40488439" lon="-2.55029127">
        <ele>767.00000</ele>
        <time>2018-10-13T10:20:05Z</time>
      </trkpt>
      <trkpt lat="38.40509318" lon="-2.55038917">
        <ele>765.00000</ele>
        <time>2018-10-13T10:20:07Z</time>
      </trkpt>
      <trkpt lat="38.40531505" lon="-2.55045379">
        <ele>764.00000</ele>
        <time>2018-10-13T10:20:09Z</time>
      </trkpt>
      <trkpt lat="38.40554539" lon="-2.55049075">
        <ele>762.00000</ele>
        <time>2018-10-13T10:20:11Z</time>
      </trkpt>
      <trkpt lat="38.40566282" lon="-2.55050987">
        <ele>761.00000</ele>
        <time>2018-10-13T10:20:12Z</time>
      </trkpt>
      <trkpt lat="38.40578142" lon="-2.55053090">
        <ele>760.00000</ele>
        <time>2018-10-13T10:20:13Z</time>
      </trkpt>
      <trkpt lat="38.40590086" lon="-2.55055328">
        <ele>759.00000</ele>
        <time>2018-10-13T10:20:14Z</time>
      </trkpt>
      <trkpt lat="38.40602139" lon="-2.55057466">
        <ele>757.00000</ele>
        <time>2018-10-13T10:20:15Z</time>
      </trkpt>
      <trkpt lat="38.40626480" lon="-2.55061715">
        <ele>756.00000</ele>
        <time>2018-10-13T10:20:17Z</time>
      </trkpt>
      <trkpt lat="38.40651425" lon="-2.55064666">
        <ele>754.00000</ele>
        <time>2018-10-13T10:20:19Z</time>
      </trkpt>
      <trkpt lat="38.40664174" lon="-2.55064632">
        <ele>753.00000</ele>
        <time>2018-10-13T10:20:20Z</time>
      </trkpt>
      <trkpt lat="38.40676973" lon="-2.55063207">
        <ele>752.00000</ele>
        <time>2018-10-13T10:20:21Z</time>
      </trkpt>
      <trkpt lat="38.40702395" lon="-2.55057608">
        <ele>751.00000</ele>
        <time>2018-10-13T10:20:23Z</time>
      </trkpt>
      <trkpt lat="38.40727927" lon="-2.55052470">
        <ele>749.00000</ele>
        <time>2018-10-13T10:20:25Z</time>
      </trkpt>
      <trkpt lat="38.40740852" lon="-2.55051783">
        <ele>748.00000</ele>
        <time>2018-10-13T10:20:26Z</time>
      </trkpt>
      <trkpt lat="38.40753802" lon="-2.55052789">
        <ele>747.00000</ele>
        <time>2018-10-13T10:20:27Z</time>
      </trkpt>
      <trkpt lat="38.40779467" lon="-2.55058782">
        <ele>746.00000</ele>
        <time>2018-10-13T10:20:29Z</time>
      </trkpt>
      <trkpt lat="38.40792258" lon="-2.55063048">
        <ele>745.00000</ele>
        <time>2018-10-13T10:20:30Z</time>
      </trkpt>
      <trkpt lat="38.40804873" lon="-2.55067482">
        <ele>744.00000</ele>
        <time>2018-10-13T10:20:31Z</time>
      </trkpt>
      <trkpt lat="38.40829339" lon="-2.55073123">
        <ele>742.00000</ele>
        <time>2018-10-13T10:20:33Z</time>
      </trkpt>
      <trkpt lat="38.40854007" lon="-2.55071070">
        <ele>741.00000</ele>
        <time>2018-10-13T10:20:35Z</time>
      </trkpt>
      <trkpt lat="38.40877862" lon="-2.55060098">
        <ele>739.00000</ele>
        <time>2018-10-13T10:20:37Z</time>
      </trkpt>
      <trkpt lat="38.40898624" lon="-2.55040492">
        <ele>737.00000</ele>
        <time>2018-10-13T10:20:39Z</time>
      </trkpt>
      <trkpt lat="38.40914307" lon="-2.55013511">
        <ele>735.00000</ele>
        <time>2018-10-13T10:20:41Z</time>
      </trkpt>
      <trkpt lat="38.40923191" lon="-2.54981274">
        <ele>733.00000</ele>
        <time>2018-10-13T10:20:43Z</time>
      </trkpt>
      <trkpt lat="38.40924424" lon="-2.54946464">
        <ele>731.00000</ele>
        <time>2018-10-13T10:20:45Z</time>
      </trkpt>
      <trkpt lat="38.40922638" lon="-2.54928980">
        <ele>730.00000</ele>
        <time>2018-10-13T10:20:46Z</time>
      </trkpt>
      <trkpt lat="38.40919948" lon="-2.54911554">
        <ele>728.00000</ele>
        <time>2018-10-13T10:20:47Z</time>
      </trkpt>
      <trkpt lat="38.40917257" lon="-2.54893985">
        <ele>727.00000</ele>
        <time>2018-10-13T10:20:48Z</time>
      </trkpt>
      <trkpt lat="38.40915472" lon="-2.54876123">
        <ele>726.00000</ele>
        <time>2018-10-13T10:20:49Z</time>
      </trkpt>
      <trkpt lat="38.40914944" lon="-2.54858228">
        <ele>725.00000</ele>
        <time>2018-10-13T10:20:50Z</time>
      </trkpt>
      <trkpt lat="38.40916226" lon="-2.54840324">
        <ele>723.00000</ele>
        <time>2018-10-13T10:20:51Z</time>
      </trkpt>
      <trkpt lat="38.40919286" lon="-2.54822680">
        <ele>722.00000</ele>
        <time>2018-10-13T10:20:52Z</time>
      </trkpt>
      <trkpt lat="38.40930534" lon="-2.54789605">
        <ele>720.00000</ele>
        <time>2018-10-13T10:20:54Z</time>
      </trkpt>
      <trkpt lat="38.40938396" lon="-2.54774929">
        <ele>719.00000</ele>
        <time>2018-10-13T10:20:55Z</time>
      </trkpt>
      <trkpt lat="38.40947524" lon="-2.54761752">
        <ele>718.00000</ele>
        <time>2018-10-13T10:20:56Z</time>
      </trkpt>
      <trkpt lat="38.40957817" lon="-2.54750168">
        <ele>716.00000</ele>
        <time>2018-10-13T10:20:57Z</time>
      </trkpt>
      <trkpt lat="38.40969007" lon="-2.54740362">
        <ele>715.00000</ele>
        <time>2018-10-13T10:20:58Z</time>
      </trkpt>
      <trkpt lat="38.40981035" lon="-2.54732499">
        <ele>714.00000</ele>
        <time>2018-10-13T10:20:59Z</time>
      </trkpt>
      <trkpt lat="38.40993574" lon="-2.54726666">
        <ele>713.00000</ele>
        <time>2018-10-13T10:21:00Z</time>
      </trkpt>
      <trkpt lat="38.41006399" lon="-2.54722743">
        <ele>712.00000</ele>
        <time>2018-10-13T10:21:01Z</time>
      </trkpt>
      <trkpt lat="38.41032491" lon="-2.54718703">
        <ele>711.00000</ele>
        <time>2018-10-13T10:21:03Z</time>
      </trkpt>
      <trkpt lat="38.41071040" lon="-2.54715652">
        <ele>710.00000</ele>
        <time>2018-10-13T10:21:06Z</time>
      </trkpt>
      <trkpt lat="38.41108633" lon="-2.54712726">
        <ele>708.00000</ele>
        <time>2018-10-13T10:21:09Z</time>
      </trkpt>
      <trkpt lat="38.41145195" lon="-2.54710061">
        <ele>707.00000</ele>
        <time>2018-10-13T10:21:12Z</time>
      </trkpt>
      <trkpt lat="38.41180910" lon="-2.54707060">
        <ele>706.00000</ele>
        <time>2018-10-13T10:21:15Z</time>
      </trkpt>
      <trkpt lat="38.41215695" lon="-2.54703925">
        <ele>705.00000</ele>
        <time>2018-10-13T10:21:18Z</time>
      </trkpt>
      <trkpt lat="38.41227211" lon="-2.54703062">
        <ele>705.00000</ele>
        <time>2018-10-13T10:21:19Z</time>
      </trkpt>
      <trkpt lat="38.41283563" lon="-2.54698486">
        <ele>704.00000</ele>
        <time>2018-10-13T10:21:24Z</time>
      </trkpt>
      <trkpt lat="38.41338884" lon="-2.54693867">
        <ele>702.00000</ele>
        <time>2018-10-13T10:21:29Z</time>
      </trkpt>
      <trkpt lat="38.41349797" lon="-2.54692987">
        <ele>702.00000</ele>
        <time>2018-10-13T10:21:30Z</time>
      </trkpt>
      <trkpt lat="38.41403709" lon="-2.54688511">
        <ele>701.00000</ele>
        <time>2018-10-13T10:21:35Z</time>
      </trkpt>
      <trkpt lat="38.41445786" lon="-2.54685116">
        <ele>700.00000</ele>
        <time>2018-10-13T10:21:39Z</time>
      </trkpt>
      <trkpt lat="38.41486740" lon="-2.54681697">
        <ele>699.00000</ele>
        <time>2018-10-13T10:21:43Z</time>
      </trkpt>
      <trkpt lat="38.41526638" lon="-2.54674270">
        <ele>698.00000</ele>
        <time>2018-10-13T10:21:47Z</time>
      </trkpt>
      <trkpt lat="38.41555690" lon="-2.54664279">
        <ele>697.00000</ele>
        <time>2018-10-13T10:21:50Z</time>
      </trkpt>
      <trkpt lat="38.41574356" lon="-2.54655612">
        <ele>697.00000</ele>
        <time>2018-10-13T10:21:52Z</time>
      </trkpt>
      <trkpt lat="38.41601413" lon="-2.54641531">
        <ele>696.00000</ele>
        <time>2018-10-13T10:21:55Z</time>
      </trkpt>
      <trkpt lat="38.41610306" lon="-2.54637080">
        <ele>696.00000</ele>
        <time>2018-10-13T10:21:56Z</time>
      </trkpt>
      <trkpt lat="38.41652492" lon="-2.54614843">
        <ele>694.00000</ele>
        <time>2018-10-13T10:22:01Z</time>
      </trkpt>
      <trkpt lat="38.41691770" lon="-2.54597978">
        <ele>694.00000</ele>
        <time>2018-10-13T10:22:06Z</time>
      </trkpt>
      <trkpt lat="38.41734501" lon="-2.54584534">
        <ele>694.00000</ele>
        <time>2018-10-13T10:22:12Z</time>
      </trkpt>
      <trkpt lat="38.41754534" lon="-2.54578574">
        <ele>694.00000</ele>
        <time>2018-10-13T10:22:15Z</time>
      </trkpt>
      <trkpt lat="38.41774038" lon="-2.54572547">
        <ele>694.00000</ele>
        <time>2018-10-13T10:22:18Z</time>
      </trkpt>
      <trkpt lat="38.41793174" lon="-2.54566730">
        <ele>694.00000</ele>
        <time>2018-10-13T10:22:21Z</time>
      </trkpt>
      <trkpt lat="38.41840448" lon="-2.54545306">
        <ele>696.00000</ele>
        <time>2018-10-13T10:22:29Z</time>
      </trkpt>
      <trkpt lat="38.41881377" lon="-2.54500748">
        <ele>697.00000</ele>
        <time>2018-10-13T10:22:38Z</time>
      </trkpt>
      <trkpt lat="38.41903002" lon="-2.54473675">
        <ele>697.00000</ele>
        <time>2018-10-13T10:22:43Z</time>
      </trkpt>
      <trkpt lat="38.41945549" lon="-2.54420005">
        <ele>698.00000</ele>
        <time>2018-10-13T10:22:53Z</time>
      </trkpt>
      <trkpt lat="38.41949790" lon="-2.54414565">
        <ele>698.00000</ele>
        <time>2018-10-13T10:22:54Z</time>
      </trkpt>
      <trkpt lat="38.41991649" lon="-2.54361248">
        <ele>698.00000</ele>
        <time>2018-10-13T10:23:04Z</time>
      </trkpt>
      <trkpt lat="38.42030852" lon="-2.54311409">
        <ele>698.00000</ele>
        <time>2018-10-13T10:23:13Z</time>
      </trkpt>
      <trkpt lat="38.42070917" lon="-2.54261981">
        <ele>698.00000</ele>
        <time>2018-10-13T10:23:22Z</time>
      </trkpt>
      <trkpt lat="38.42106691" lon="-2.54218043">
        <ele>699.00000</ele>
        <time>2018-10-13T10:23:30Z</time>
      </trkpt>
      <trkpt lat="38.42143764" lon="-2.54173309">
        <ele>699.00000</ele>
        <time>2018-10-13T10:23:38Z</time>
      </trkpt>
      <trkpt lat="38.42193528" lon="-2.54138373">
        <ele>699.00000</ele>
        <time>2018-10-13T10:23:47Z</time>
      </trkpt>
      <trkpt lat="38.42199722" lon="-2.54136831">
        <ele>699.00000</ele>
        <time>2018-10-13T10:23:48Z</time>
      </trkpt>
      <trkpt lat="38.42244246" lon="-2.54133696">
        <ele>699.00000</ele>
        <time>2018-10-13T10:23:55Z</time>
      </trkpt>
      <trkpt lat="38.42298905" lon="-2.54116882">
        <ele>699.00000</ele>
        <time>2018-10-13T10:24:04Z</time>
      </trkpt>
      <trkpt lat="38.42334964" lon="-2.54078987">
        <ele>699.00000</ele>
        <time>2018-10-13T10:24:12Z</time>
      </trkpt>
      <trkpt lat="38.42350814" lon="-2.54043909">
        <ele>700.00000</ele>
        <time>2018-10-13T10:24:18Z</time>
      </trkpt>
      <trkpt lat="38.42354477" lon="-2.54032359">
        <ele>700.00000</ele>
        <time>2018-10-13T10:24:20Z</time>
      </trkpt>
      <trkpt lat="38.42360847" lon="-2.54010030">
        <ele>701.00000</ele>
        <time>2018-10-13T10:24:24Z</time>
      </trkpt>
      <trkpt lat="38.42368014" lon="-2.53984113">
        <ele>702.00000</ele>
        <time>2018-10-13T10:24:29Z</time>
      </trkpt>
      <trkpt lat="38.42369397" lon="-2.53979310">
        <ele>702.00000</ele>
        <time>2018-10-13T10:24:30Z</time>
      </trkpt>
      <trkpt lat="38.42375599" lon="-2.53956092">
        <ele>703.00000</ele>
        <time>2018-10-13T10:24:35Z</time>
      </trkpt>
      <trkpt lat="38.42381810" lon="-2.53933712">
        <ele>705.00000</ele>
        <time>2018-10-13T10:24:40Z</time>
      </trkpt>
      <trkpt lat="38.42387854" lon="-2.53915859">
        <ele>706.00000</ele>
        <time>2018-10-13T10:24:44Z</time>
      </trkpt>
      <trkpt lat="38.42394450" lon="-2.53892767">
        <ele>707.00000</ele>
        <time>2018-10-13T10:24:49Z</time>
      </trkpt>
      <trkpt lat="38.42395758" lon="-2.53888282">
        <ele>707.00000</ele>
        <time>2018-10-13T10:24:50Z</time>
      </trkpt>
      <trkpt lat="38.42405389" lon="-2.53857688">
        <ele>708.00000</ele>
        <time>2018-10-13T10:24:57Z</time>
      </trkpt>
      <trkpt lat="38.42414684" lon="-2.53827095">
        <ele>709.00000</ele>
        <time>2018-10-13T10:25:04Z</time>
      </trkpt>
      <trkpt lat="38.42419705" lon="-2.53809652">
        <ele>710.00000</ele>
        <time>2018-10-13T10:25:08Z</time>
      </trkpt>
      <trkpt lat="38.42428908" lon="-2.53780030">
        <ele>712.00000</ele>
        <time>2018-10-13T10:25:15Z</time>
      </trkpt>
      <trkpt lat="38.42438648" lon="-2.53749554">
        <ele>713.00000</ele>
        <time>2018-10-13T10:25:22Z</time>
      </trkpt>
      <trkpt lat="38.42448396" lon="-2.53716738">
        <ele>714.00000</ele>
        <time>2018-10-13T10:25:29Z</time>
      </trkpt>
      <trkpt lat="38.42468555" lon="-2.53663513">
        <ele>714.00000</ele>
        <time>2018-10-13T10:25:40Z</time>
      </trkpt>
      <trkpt lat="38.42479879" lon="-2.53644025">
        <ele>715.00000</ele>
        <time>2018-10-13T10:25:44Z</time>
      </trkpt>
      <trkpt lat="38.42492627" lon="-2.53626147">
        <ele>715.00000</ele>
        <time>2018-10-13T10:25:48Z</time>
      </trkpt>
      <trkpt lat="38.42507497" lon="-2.53610707">
        <ele>715.00000</ele>
        <time>2018-10-13T10:25:52Z</time>
      </trkpt>
      <trkpt lat="38.42518662" lon="-2.53600280">
        <ele>715.00000</ele>
        <time>2018-10-13T10:25:55Z</time>
      </trkpt>
      <trkpt lat="38.42554452" lon="-2.53569259">
        <ele>715.00000</ele>
        <time>2018-10-13T10:26:04Z</time>
      </trkpt>
      <trkpt lat="38.42586354" lon="-2.53532152">
        <ele>715.00000</ele>
        <time>2018-10-13T10:26:13Z</time>
      </trkpt>
      <trkpt lat="38.42604853" lon="-2.53499178">
        <ele>715.00000</ele>
        <time>2018-10-13T10:26:20Z</time>
      </trkpt>
      <trkpt lat="38.42618591" lon="-2.53464929">
        <ele>716.00000</ele>
        <time>2018-10-13T10:26:27Z</time>
      </trkpt>
      <trkpt lat="38.42629487" lon="-2.53436456">
        <ele>717.00000</ele>
        <time>2018-10-13T10:26:33Z</time>
      </trkpt>
      <trkpt lat="38.42644792" lon="-2.53392769">
        <ele>718.00000</ele>
        <time>2018-10-13T10:26:42Z</time>
      </trkpt>
      <trkpt lat="38.42652931" lon="-2.53368563">
        <ele>718.00000</ele>
        <time>2018-10-13T10:26:47Z</time>
      </trkpt>
      <trkpt lat="38.42660341" lon="-2.53349502">
        <ele>719.00000</ele>
        <time>2018-10-13T10:26:51Z</time>
      </trkpt>
      <trkpt lat="38.42672025" lon="-2.53316251">
        <ele>720.00000</ele>
        <time>2018-10-13T10:26:58Z</time>
      </trkpt>
      <trkpt lat="38.42682193" lon="-2.53287979">
        <ele>721.00000</ele>
        <time>2018-10-13T10:27:04Z</time>
      </trkpt>
      <trkpt lat="38.42704966" lon="-2.53242658">
        <ele>722.00000</ele>
        <time>2018-10-13T10:27:14Z</time>
      </trkpt>
      <trkpt lat="38.42707950" lon="-2.53238542">
        <ele>722.00000</ele>
        <time>2018-10-13T10:27:15Z</time>
      </trkpt>
      <trkpt lat="38.42757076" lon="-2.53200254">
        <ele>723.00000</ele>
        <time>2018-10-13T10:27:27Z</time>
      </trkpt>
      <trkpt lat="38.42778727" lon="-2.53191838">
        <ele>723.00000</ele>
        <time>2018-10-13T10:27:31Z</time>
      </trkpt>
      <trkpt lat="38.42802724" lon="-2.53183524">
        <ele>723.00000</ele>
        <time>2018-10-13T10:27:35Z</time>
      </trkpt>
      <trkpt lat="38.42821877" lon="-2.53177003">
        <ele>723.00000</ele>
        <time>2018-10-13T10:27:38Z</time>
      </trkpt>
      <trkpt lat="38.42835246" lon="-2.53171948">
        <ele>722.00000</ele>
        <time>2018-10-13T10:27:40Z</time>
      </trkpt>
      <trkpt lat="38.42849344" lon="-2.53167003">
        <ele>722.00000</ele>
        <time>2018-10-13T10:27:42Z</time>
      </trkpt>
      <trkpt lat="38.42856595" lon="-2.53164463">
        <ele>721.00000</ele>
        <time>2018-10-13T10:27:43Z</time>
      </trkpt>
      <trkpt lat="38.42864013" lon="-2.53161840">
        <ele>721.00000</ele>
        <time>2018-10-13T10:27:44Z</time>
      </trkpt>
      <trkpt lat="38.42879184" lon="-2.53156400">
        <ele>720.00000</ele>
        <time>2018-10-13T10:27:46Z</time>
      </trkpt>
      <trkpt lat="38.42887038" lon="-2.53153651">
        <ele>720.00000</ele>
        <time>2018-10-13T10:27:47Z</time>
      </trkpt>
      <trkpt lat="38.42895009" lon="-2.53150926">
        <ele>720.00000</ele>
        <time>2018-10-13T10:27:48Z</time>
      </trkpt>
      <trkpt lat="38.42919451" lon="-2.53141991">
        <ele>719.00000</ele>
        <time>2018-10-13T10:27:51Z</time>
      </trkpt>
      <trkpt lat="38.42927749" lon="-2.53138613">
        <ele>719.00000</ele>
        <time>2018-10-13T10:27:52Z</time>
      </trkpt>
      <trkpt lat="38.42959474" lon="-2.53118547">
        <ele>717.00000</ele>
        <time>2018-10-13T10:27:56Z</time>
      </trkpt>
      <trkpt lat="38.42979901" lon="-2.53096704">
        <ele>716.00000</ele>
        <time>2018-10-13T10:27:59Z</time>
      </trkpt>
      <trkpt lat="38.42998308" lon="-2.53072329">
        <ele>715.00000</ele>
        <time>2018-10-13T10:28:02Z</time>
      </trkpt>
      <trkpt lat="38.43010595" lon="-2.53056345">
        <ele>715.00000</ele>
        <time>2018-10-13T10:28:04Z</time>
      </trkpt>
      <trkpt lat="38.43022716" lon="-2.53040579">
        <ele>714.00000</ele>
        <time>2018-10-13T10:28:06Z</time>
      </trkpt>
      <trkpt lat="38.43057274" lon="-2.52994495">
        <ele>713.00000</ele>
        <time>2018-10-13T10:28:12Z</time>
      </trkpt>
      <trkpt lat="38.43073527" lon="-2.52972937">
        <ele>713.00000</ele>
        <time>2018-10-13T10:28:15Z</time>
      </trkpt>
      <trkpt lat="38.43083853" lon="-2.52958956">
        <ele>713.00000</ele>
        <time>2018-10-13T10:28:17Z</time>
      </trkpt>
      <trkpt lat="38.43094113" lon="-2.52945511">
        <ele>713.00000</ele>
        <time>2018-10-13T10:28:19Z</time>
      </trkpt>
      <trkpt lat="38.43118596" lon="-2.52913031">
        <ele>713.00000</ele>
        <time>2018-10-13T10:28:24Z</time>
      </trkpt>
      <trkpt lat="38.43133097" lon="-2.52893744">
        <ele>713.00000</ele>
        <time>2018-10-13T10:28:27Z</time>
      </trkpt>
      <trkpt lat="38.43171503" lon="-2.52842590">
        <ele>713.00000</ele>
        <time>2018-10-13T10:28:35Z</time>
      </trkpt>
      <trkpt lat="38.43209263" lon="-2.52793078">
        <ele>713.00000</ele>
        <time>2018-10-13T10:28:43Z</time>
      </trkpt>
      <trkpt lat="38.43218458" lon="-2.52780865">
        <ele>713.00000</ele>
        <time>2018-10-13T10:28:45Z</time>
      </trkpt>
      <trkpt lat="38.43227477" lon="-2.52768770">
        <ele>713.00000</ele>
        <time>2018-10-13T10:28:47Z</time>
      </trkpt>
      <trkpt lat="38.43245783" lon="-2.52745242">
        <ele>713.00000</ele>
        <time>2018-10-13T10:28:51Z</time>
      </trkpt>
      <trkpt lat="38.43281549" lon="-2.52697323">
        <ele>714.00000</ele>
        <time>2018-10-13T10:28:59Z</time>
      </trkpt>
      <trkpt lat="38.43308522" lon="-2.52662220">
        <ele>714.00000</ele>
        <time>2018-10-13T10:29:05Z</time>
      </trkpt>
      <trkpt lat="38.43347338" lon="-2.52610109">
        <ele>714.00000</ele>
        <time>2018-10-13T10:29:14Z</time>
      </trkpt>
      <trkpt lat="38.43380279" lon="-2.52565844">
        <ele>715.00000</ele>
        <time>2018-10-13T10:29:22Z</time>
      </trkpt>
      <trkpt lat="38.43399977" lon="-2.52539550">
        <ele>715.00000</ele>
        <time>2018-10-13T10:29:27Z</time>
      </trkpt>
      <trkpt lat="38.43434183" lon="-2.52495177">
        <ele>716.00000</ele>
        <time>2018-10-13T10:29:36Z</time>
      </trkpt>
      <trkpt lat="38.43460000" lon="-2.52461649">
        <ele>717.00000</ele>
        <time>2018-10-13T10:29:43Z</time>
      </trkpt>
      <trkpt lat="38.43477996" lon="-2.52438020">
        <ele>718.00000</ele>
        <time>2018-10-13T10:29:48Z</time>
      </trkpt>
      <trkpt lat="38.43485179" lon="-2.52429161">
        <ele>718.00000</ele>
        <time>2018-10-13T10:29:50Z</time>
      </trkpt>
      <trkpt lat="38.43505564" lon="-2.52402774">
        <ele>719.00000</ele>
        <time>2018-10-13T10:29:56Z</time>
      </trkpt>
      <trkpt lat="38.43525521" lon="-2.52376782">
        <ele>720.00000</ele>
        <time>2018-10-13T10:30:02Z</time>
      </trkpt>
      <trkpt lat="38.43546803" lon="-2.52348468">
        <ele>721.00000</ele>
        <time>2018-10-13T10:30:09Z</time>
      </trkpt>
      <trkpt lat="38.43561907" lon="-2.52328326">
        <ele>722.00000</ele>
        <time>2018-10-13T10:30:14Z</time>
      </trkpt>
      <trkpt lat="38.43581998" lon="-2.52301219">
        <ele>723.00000</ele>
        <time>2018-10-13T10:30:21Z</time>
      </trkpt>
      <trkpt lat="38.43601905" lon="-2.52274917">
        <ele>725.00000</ele>
        <time>2018-10-13T10:30:28Z</time>
      </trkpt>
      <trkpt lat="38.43623405" lon="-2.52246050">
        <ele>726.00000</ele>
        <time>2018-10-13T10:30:36Z</time>
      </trkpt>
      <trkpt lat="38.43639498" lon="-2.52224911">
        <ele>727.00000</ele>
        <time>2018-10-13T10:30:42Z</time>
      </trkpt>
      <trkpt lat="38.43660109" lon="-2.52197242">
        <ele>728.00000</ele>
        <time>2018-10-13T10:30:50Z</time>
      </trkpt>
      <trkpt lat="38.43683402" lon="-2.52166279">
        <ele>729.00000</ele>
        <time>2018-10-13T10:30:59Z</time>
      </trkpt>
      <trkpt lat="38.43698557" lon="-2.52145961">
        <ele>730.00000</ele>
        <time>2018-10-13T10:31:05Z</time>
      </trkpt>
      <trkpt lat="38.43711909" lon="-2.52128887">
        <ele>731.00000</ele>
        <time>2018-10-13T10:31:10Z</time>
      </trkpt>
      <trkpt lat="38.43725865" lon="-2.52112660">
        <ele>732.00000</ele>
        <time>2018-10-13T10:31:15Z</time>
      </trkpt>
      <trkpt lat="38.43728807" lon="-2.52109676">
        <ele>732.00000</ele>
        <time>2018-10-13T10:31:16Z</time>
      </trkpt>
      <trkpt lat="38.43740425" lon="-2.52097514">
        <ele>733.00000</ele>
        <time>2018-10-13T10:31:20Z</time>
      </trkpt>
      <trkpt lat="38.43761505" lon="-2.52078697">
        <ele>734.00000</ele>
        <time>2018-10-13T10:31:27Z</time>
      </trkpt>
      <trkpt lat="38.43777263" lon="-2.52066325">
        <ele>735.00000</ele>
        <time>2018-10-13T10:31:32Z</time>
      </trkpt>
      <trkpt lat="38.43803012" lon="-2.52045873">
        <ele>737.00000</ele>
        <time>2018-10-13T10:31:40Z</time>
      </trkpt>
      <trkpt lat="38.43835484" lon="-2.52020945">
        <ele>738.00000</ele>
        <time>2018-10-13T10:31:50Z</time>
      </trkpt>
      <trkpt lat="38.43863287" lon="-2.51994056">
        <ele>739.00000</ele>
        <time>2018-10-13T10:31:59Z</time>
      </trkpt>
      <trkpt lat="38.43879807" lon="-2.51972984">
        <ele>739.00000</ele>
        <time>2018-10-13T10:32:05Z</time>
      </trkpt>
      <trkpt lat="38.43892799" lon="-2.51955223">
        <ele>740.00000</ele>
        <time>2018-10-13T10:32:10Z</time>
      </trkpt>
      <trkpt lat="38.43906369" lon="-2.51939138">
        <ele>741.00000</ele>
        <time>2018-10-13T10:32:15Z</time>
      </trkpt>
      <trkpt lat="38.43924785" lon="-2.51922776">
        <ele>742.00000</ele>
        <time>2018-10-13T10:32:21Z</time>
      </trkpt>
      <trkpt lat="38.43966074" lon="-2.51894395">
        <ele>743.00000</ele>
        <time>2018-10-13T10:32:33Z</time>
      </trkpt>
      <trkpt lat="38.43979619" lon="-2.51882602">
        <ele>744.00000</ele>
        <time>2018-10-13T10:32:37Z</time>
      </trkpt>
      <trkpt lat="38.43991857" lon="-2.51869384">
        <ele>744.00000</ele>
        <time>2018-10-13T10:32:41Z</time>
      </trkpt>
      <trkpt lat="38.44005142" lon="-2.51851631">
        <ele>745.00000</ele>
        <time>2018-10-13T10:32:46Z</time>
      </trkpt>
      <trkpt lat="38.44017044" lon="-2.51833702">
        <ele>747.00000</ele>
        <time>2018-10-13T10:32:51Z</time>
      </trkpt>
      <trkpt lat="38.44028980" lon="-2.51816653">
        <ele>748.00000</ele>
        <time>2018-10-13T10:32:56Z</time>
      </trkpt>
      <trkpt lat="38.44039600" lon="-2.51802949">
        <ele>749.00000</ele>
        <time>2018-10-13T10:33:00Z</time>
      </trkpt>
      <trkpt lat="38.44054771" lon="-2.51789798">
        <ele>750.00000</ele>
        <time>2018-10-13T10:33:05Z</time>
      </trkpt>
      <trkpt lat="38.44074846" lon="-2.51778289">
        <ele>751.00000</ele>
        <time>2018-10-13T10:33:11Z</time>
      </trkpt>
      <trkpt lat="38.44093043" lon="-2.51773470">
        <ele>752.00000</ele>
        <time>2018-10-13T10:33:16Z</time>
      </trkpt>
      <trkpt lat="38.44116076" lon="-2.51771600">
        <ele>753.00000</ele>
        <time>2018-10-13T10:33:22Z</time>
      </trkpt>
      <trkpt lat="38.44150777" lon="-2.51770469">
        <ele>754.00000</ele>
        <time>2018-10-13T10:33:31Z</time>
      </trkpt>
      <trkpt lat="38.44166695" lon="-2.51770385">
        <ele>755.00000</ele>
        <time>2018-10-13T10:33:35Z</time>
      </trkpt>
      <trkpt lat="38.44178966" lon="-2.51770058">
        <ele>755.00000</ele>
        <time>2018-10-13T10:33:38Z</time>
      </trkpt>
      <trkpt lat="38.44216240" lon="-2.51768792">
        <ele>755.00000</ele>
        <time>2018-10-13T10:33:46Z</time>
      </trkpt>
      <trkpt lat="38.44225980" lon="-2.51768449">
        <ele>755.00000</ele>
        <time>2018-10-13T10:33:48Z</time>
      </trkpt>
      <trkpt lat="38.44258845" lon="-2.51761953">
        <ele>755.00000</ele>
        <time>2018-10-13T10:33:55Z</time>
      </trkpt>
      <trkpt lat="38.44284410" lon="-2.51749749">
        <ele>756.00000</ele>
        <time>2018-10-13T10:34:01Z</time>
      </trkpt>
      <trkpt lat="38.44313395" lon="-2.51725584">
        <ele>757.00000</ele>
        <time>2018-10-13T10:34:09Z</time>
      </trkpt>
      <trkpt lat="38.44330460" lon="-2.51703640">
        <ele>758.00000</ele>
        <time>2018-10-13T10:34:15Z</time>
      </trkpt>
      <trkpt lat="38.44343955" lon="-2.51678871">
        <ele>759.00000</ele>
        <time>2018-10-13T10:34:21Z</time>
      </trkpt>
      <trkpt lat="38.44359437" lon="-2.51651546">
        <ele>760.00000</ele>
        <time>2018-10-13T10:34:28Z</time>
      </trkpt>
      <trkpt lat="38.44394146" lon="-2.51628337">
        <ele>761.00000</ele>
        <time>2018-10-13T10:34:38Z</time>
      </trkpt>
      <trkpt lat="38.44427053" lon="-2.51612043">
        <ele>762.00000</ele>
        <time>2018-10-13T10:34:47Z</time>
      </trkpt>
      <trkpt lat="38.44463774" lon="-2.51592747">
        <ele>763.00000</ele>
        <time>2018-10-13T10:34:57Z</time>
      </trkpt>
      <trkpt lat="38.44484696" lon="-2.51580988">
        <ele>765.00000</ele>
        <time>2018-10-13T10:35:03Z</time>
      </trkpt>
      <trkpt lat="38.44510721" lon="-2.51561064">
        <ele>766.00000</ele>
        <time>2018-10-13T10:35:11Z</time>
      </trkpt>
      <trkpt lat="38.44537753" lon="-2.51535013">
        <ele>767.00000</ele>
        <time>2018-10-13T10:35:20Z</time>
      </trkpt>
      <trkpt lat="38.44552438" lon="-2.51528156">
        <ele>767.00000</ele>
        <time>2018-10-13T10:35:25Z</time>
      </trkpt>
      <trkpt lat="38.44560200" lon="-2.51533764">
        <ele>767.00000</ele>
        <time>2018-10-13T10:35:28Z</time>
      </trkpt>
      <trkpt lat="38.44582898" lon="-2.51560100">
        <ele>767.00000</ele>
        <time>2018-10-13T10:35:33Z</time>
      </trkpt>
      <trkpt lat="38.44617146" lon="-2.51560712">
        <ele>767.00000</ele>
        <time>2018-10-13T10:35:37Z</time>
      </trkpt>
      <trkpt lat="38.44639283" lon="-2.51539070">
        <ele>766.00000</ele>
        <time>2018-10-13T10:35:40Z</time>
      </trkpt>
      <trkpt lat="38.44646601" lon="-2.51530403">
        <ele>763.00000</ele>
        <time>2018-10-13T10:35:41Z</time>
      </trkpt>
      <trkpt lat="38.44654102" lon="-2.51521342">
        <ele>762.00000</ele>
        <time>2018-10-13T10:35:42Z</time>
      </trkpt>
      <trkpt lat="38.44661738" lon="-2.51512038">
        <ele>761.00000</ele>
        <time>2018-10-13T10:35:43Z</time>
      </trkpt>
      <trkpt lat="38.44677697" lon="-2.51492843">
        <ele>759.00000</ele>
        <time>2018-10-13T10:35:45Z</time>
      </trkpt>
      <trkpt lat="38.44694553" lon="-2.51472794">
        <ele>757.00000</ele>
        <time>2018-10-13T10:35:47Z</time>
      </trkpt>
      <trkpt lat="38.44711963" lon="-2.51452283">
        <ele>755.00000</ele>
        <time>2018-10-13T10:35:49Z</time>
      </trkpt>
      <trkpt lat="38.44720688" lon="-2.51442250">
        <ele>754.00000</ele>
        <time>2018-10-13T10:35:50Z</time>
      </trkpt>
      <trkpt lat="38.44729288" lon="-2.51432569">
        <ele>753.00000</ele>
        <time>2018-10-13T10:35:51Z</time>
      </trkpt>
      <trkpt lat="38.44747452" lon="-2.51415537">
        <ele>751.00000</ele>
        <time>2018-10-13T10:35:53Z</time>
      </trkpt>
      <trkpt lat="38.44757451" lon="-2.51408932">
        <ele>750.00000</ele>
        <time>2018-10-13T10:35:54Z</time>
      </trkpt>
      <trkpt lat="38.44768331" lon="-2.51403911">
        <ele>749.00000</ele>
        <time>2018-10-13T10:35:55Z</time>
      </trkpt>
      <trkpt lat="38.44779764" lon="-2.51400559">
        <ele>748.00000</ele>
        <time>2018-10-13T10:35:56Z</time>
      </trkpt>
      <trkpt lat="38.44803510" lon="-2.51398120">
        <ele>746.00000</ele>
        <time>2018-10-13T10:35:58Z</time>
      </trkpt>
      <trkpt lat="38.44815647" lon="-2.51398405">
        <ele>746.00000</ele>
        <time>2018-10-13T10:35:59Z</time>
      </trkpt>
      <trkpt lat="38.44827985" lon="-2.51399109">
        <ele>745.00000</ele>
        <time>2018-10-13T10:36:00Z</time>
      </trkpt>
      <trkpt lat="38.44852225" lon="-2.51401137">
        <ele>744.00000</ele>
        <time>2018-10-13T10:36:02Z</time>
      </trkpt>
      <trkpt lat="38.44875108" lon="-2.51404607">
        <ele>742.00000</ele>
        <time>2018-10-13T10:36:04Z</time>
      </trkpt>
      <trkpt lat="38.44895375" lon="-2.51411749">
        <ele>741.00000</ele>
        <time>2018-10-13T10:36:06Z</time>
      </trkpt>
      <trkpt lat="38.44932004" lon="-2.51444178">
        <ele>740.00000</ele>
        <time>2018-10-13T10:36:11Z</time>
      </trkpt>
      <trkpt lat="38.44936933" lon="-2.51452124">
        <ele>740.00000</ele>
        <time>2018-10-13T10:36:12Z</time>
      </trkpt>
      <trkpt lat="38.44941375" lon="-2.51460397">
        <ele>740.00000</ele>
        <time>2018-10-13T10:36:13Z</time>
      </trkpt>
      <trkpt lat="38.44945399" lon="-2.51468854">
        <ele>740.00000</ele>
        <time>2018-10-13T10:36:14Z</time>
      </trkpt>
      <trkpt lat="38.44948994" lon="-2.51477387">
        <ele>740.00000</ele>
        <time>2018-10-13T10:36:15Z</time>
      </trkpt>
      <trkpt lat="38.44955314" lon="-2.51494587">
        <ele>742.00000</ele>
        <time>2018-10-13T10:36:17Z</time>
      </trkpt>
      <trkpt lat="38.44963923" lon="-2.51519372">
        <ele>743.00000</ele>
        <time>2018-10-13T10:36:20Z</time>
      </trkpt>
      <trkpt lat="38.44974509" lon="-2.51551232">
        <ele>744.00000</ele>
        <time>2018-10-13T10:36:24Z</time>
      </trkpt>
      <trkpt lat="38.44983411" lon="-2.51573779">
        <ele>745.00000</ele>
        <time>2018-10-13T10:36:27Z</time>
      </trkpt>
      <trkpt lat="38.44987325" lon="-2.51580610">
        <ele>745.00000</ele>
        <time>2018-10-13T10:36:28Z</time>
      </trkpt>
      <trkpt lat="38.44991759" lon="-2.51586754">
        <ele>745.00000</ele>
        <time>2018-10-13T10:36:29Z</time>
      </trkpt>
      <trkpt lat="38.45024859" lon="-2.51606552">
        <ele>746.00000</ele>
        <time>2018-10-13T10:36:35Z</time>
      </trkpt>
      <trkpt lat="38.45036745" lon="-2.51606871">
        <ele>746.00000</ele>
        <time>2018-10-13T10:36:37Z</time>
      </trkpt>
      <trkpt lat="38.45054414" lon="-2.51606703">
        <ele>746.00000</ele>
        <time>2018-10-13T10:36:40Z</time>
      </trkpt>
      <trkpt lat="38.45094353" lon="-2.51606024">
        <ele>747.00000</ele>
        <time>2018-10-13T10:36:47Z</time>
      </trkpt>
      <trkpt lat="38.45139188" lon="-2.51605563">
        <ele>748.00000</ele>
        <time>2018-10-13T10:36:55Z</time>
      </trkpt>
      <trkpt lat="38.45182439" lon="-2.51605890">
        <ele>749.00000</ele>
        <time>2018-10-13T10:37:03Z</time>
      </trkpt>
      <trkpt lat="38.45209605" lon="-2.51605940">
        <ele>750.00000</ele>
        <time>2018-10-13T10:37:08Z</time>
      </trkpt>
      <trkpt lat="38.45225044" lon="-2.51605723">
        <ele>750.00000</ele>
        <time>2018-10-13T10:37:11Z</time>
      </trkpt>
      <trkpt lat="38.45248907" lon="-2.51603770">
        <ele>750.00000</ele>
        <time>2018-10-13T10:37:16Z</time>
      </trkpt>
      <trkpt lat="38.45259510" lon="-2.51603267">
        <ele>750.00000</ele>
        <time>2018-10-13T10:37:18Z</time>
      </trkpt>
      <trkpt lat="38.45264280" lon="-2.51603124">
        <ele>750.00000</ele>
        <time>2018-10-13T10:37:19Z</time>
      </trkpt>
      <trkpt lat="38.45273550" lon="-2.51602965">
        <ele>750.00000</ele>
        <time>2018-10-13T10:37:21Z</time>
      </trkpt>
      <trkpt lat="38.45315636" lon="-2.51605924">
        <ele>749.00000</ele>
        <time>2018-10-13T10:37:29Z</time>
      </trkpt>
      <trkpt lat="38.45325317" lon="-2.51611330">
        <ele>749.00000</ele>
        <time>2018-10-13T10:37:31Z</time>
      </trkpt>
      <trkpt lat="38.45334352" lon="-2.51620056">
        <ele>749.00000</ele>
        <time>2018-10-13T10:37:33Z</time>
      </trkpt>
      <trkpt lat="38.45341829" lon="-2.51630164">
        <ele>749.00000</ele>
        <time>2018-10-13T10:37:35Z</time>
      </trkpt>
      <trkpt lat="38.45350806" lon="-2.51641773">
        <ele>749.00000</ele>
        <time>2018-10-13T10:37:37Z</time>
      </trkpt>
      <trkpt lat="38.45360705" lon="-2.51654732">
        <ele>749.00000</ele>
        <time>2018-10-13T10:37:39Z</time>
      </trkpt>
      <trkpt lat="38.45383789" lon="-2.51690438">
        <ele>749.00000</ele>
        <time>2018-10-13T10:37:44Z</time>
      </trkpt>
      <trkpt lat="38.45395431" lon="-2.51710337">
        <ele>749.00000</ele>
        <time>2018-10-13T10:37:47Z</time>
      </trkpt>
      <trkpt lat="38.45420460" lon="-2.51757871">
        <ele>749.00000</ele>
        <time>2018-10-13T10:37:55Z</time>
      </trkpt>
      <trkpt lat="38.45424215" lon="-2.51764275">
        <ele>749.00000</ele>
        <time>2018-10-13T10:37:56Z</time>
      </trkpt>
      <trkpt lat="38.45432119" lon="-2.51778356">
        <ele>749.00000</ele>
        <time>2018-10-13T10:37:58Z</time>
      </trkpt>
      <trkpt lat="38.45439051" lon="-2.51792538">
        <ele>749.00000</ele>
        <time>2018-10-13T10:38:00Z</time>
      </trkpt>
      <trkpt lat="38.45459251" lon="-2.51828757">
        <ele>749.00000</ele>
        <time>2018-10-13T10:38:06Z</time>
      </trkpt>
      <trkpt lat="38.45481572" lon="-2.51854028">
        <ele>750.00000</ele>
        <time>2018-10-13T10:38:11Z</time>
      </trkpt>
      <trkpt lat="38.45506626" lon="-2.51872804">
        <ele>750.00000</ele>
        <time>2018-10-13T10:38:16Z</time>
      </trkpt>
      <trkpt lat="38.45557386" lon="-2.51908326">
        <ele>751.00000</ele>
        <time>2018-10-13T10:38:27Z</time>
      </trkpt>
      <trkpt lat="38.45594979" lon="-2.51935131">
        <ele>752.00000</ele>
        <time>2018-10-13T10:38:36Z</time>
      </trkpt>
      <trkpt lat="38.45619999" lon="-2.51952582">
        <ele>752.00000</ele>
        <time>2018-10-13T10:38:42Z</time>
      </trkpt>
      <trkpt lat="38.45629027" lon="-2.51956882">
        <ele>753.00000</ele>
        <time>2018-10-13T10:38:44Z</time>
      </trkpt>
      <trkpt lat="38.45633712" lon="-2.51958324">
        <ele>753.00000</ele>
        <time>2018-10-13T10:38:45Z</time>
      </trkpt>
      <trkpt lat="38.45661381" lon="-2.51948509">
        <ele>753.00000</ele>
        <time>2018-10-13T10:38:51Z</time>
      </trkpt>
      <trkpt lat="38.45682059" lon="-2.51933564">
        <ele>754.00000</ele>
        <time>2018-10-13T10:38:56Z</time>
      </trkpt>
      <trkpt lat="38.45711102" lon="-2.51917102">
        <ele>755.00000</ele>
        <time>2018-10-13T10:39:03Z</time>
      </trkpt>
      <trkpt lat="38.45735619" lon="-2.51914126">
        <ele>756.00000</ele>
        <time>2018-10-13T10:39:09Z</time>
      </trkpt>
      <trkpt lat="38.45755769" lon="-2.51921762">
        <ele>757.00000</ele>
        <time>2018-10-13T10:39:15Z</time>
      </trkpt>
      <trkpt lat="38.45759172" lon="-2.51923112">
        <ele>757.00000</ele>
        <time>2018-10-13T10:39:16Z</time>
      </trkpt>
      <trkpt lat="38.45777101" lon="-2.51930270">
        <ele>758.00000</ele>
        <time>2018-10-13T10:39:23Z</time>
      </trkpt>
      <trkpt lat="38.45778719" lon="-2.51930999">
        <ele>758.00000</ele>
        <time>2018-10-13T10:39:24Z</time>
      </trkpt>
      <trkpt lat="38.45781250" lon="-2.51931837">
        <ele>759.00000</ele>
        <time>2018-10-13T10:39:27Z</time>
      </trkpt>
      <trkpt lat="38.45788769" lon="-2.51939448">
        <ele>760.00000</ele>
        <time>2018-10-13T10:40:51Z</time>
      </trkpt>
      <trkpt lat="38.45791133" lon="-2.51942533">
        <ele>760.00000</ele>
        <time>2018-10-13T10:40:52Z</time>
      </trkpt>
      <trkpt lat="38.45796832" lon="-2.51948635">
        <ele>760.00000</ele>
        <time>2018-10-13T10:40:54Z</time>
      </trkpt>
      <trkpt lat="38.45806597" lon="-2.51957980">
        <ele>760.00000</ele>
        <time>2018-10-13T10:40:57Z</time>
      </trkpt>
      <trkpt lat="38.45839010" lon="-2.51979991">
        <ele>760.00000</ele>
        <time>2018-10-13T10:41:06Z</time>
      </trkpt>
      <trkpt lat="38.45858733" lon="-2.51988306">
        <ele>760.00000</ele>
        <time>2018-10-13T10:41:11Z</time>
      </trkpt>
      <trkpt lat="38.45866913" lon="-2.51991583">
        <ele>761.00000</ele>
        <time>2018-10-13T10:41:13Z</time>
      </trkpt>
      <trkpt lat="38.45891699" lon="-2.51999672">
        <ele>762.00000</ele>
        <time>2018-10-13T10:41:19Z</time>
      </trkpt>
      <trkpt lat="38.45904355" lon="-2.52003553">
        <ele>762.00000</ele>
        <time>2018-10-13T10:41:22Z</time>
      </trkpt>
      <trkpt lat="38.45936349" lon="-2.52019286">
        <ele>763.00000</ele>
        <time>2018-10-13T10:41:30Z</time>
      </trkpt>
      <trkpt lat="38.45986867" lon="-2.52048731">
        <ele>764.00000</ele>
        <time>2018-10-13T10:41:42Z</time>
      </trkpt>
      <trkpt lat="38.45991033" lon="-2.52051154">
        <ele>764.00000</ele>
        <time>2018-10-13T10:41:43Z</time>
      </trkpt>
      <trkpt lat="38.46022750" lon="-2.52073860">
        <ele>765.00000</ele>
        <time>2018-10-13T10:41:51Z</time>
      </trkpt>
      <trkpt lat="38.46053050" lon="-2.52106893">
        <ele>766.00000</ele>
        <time>2018-10-13T10:41:59Z</time>
      </trkpt>
      <trkpt lat="38.46076880" lon="-2.52136465">
        <ele>767.00000</ele>
        <time>2018-10-13T10:42:06Z</time>
      </trkpt>
      <trkpt lat="38.46104591" lon="-2.52169875">
        <ele>768.00000</ele>
        <time>2018-10-13T10:42:14Z</time>
      </trkpt>
      <trkpt lat="38.46135009" lon="-2.52206806">
        <ele>770.00000</ele>
        <time>2018-10-13T10:42:23Z</time>
      </trkpt>
      <trkpt lat="38.46159308" lon="-2.52239269">
        <ele>771.00000</ele>
        <time>2018-10-13T10:42:31Z</time>
      </trkpt>
      <trkpt lat="38.46176893" lon="-2.52276920">
        <ele>772.00000</ele>
        <time>2018-10-13T10:42:39Z</time>
      </trkpt>
      <trkpt lat="38.46189675" lon="-2.52311512">
        <ele>773.00000</ele>
        <time>2018-10-13T10:42:46Z</time>
      </trkpt>
      <trkpt lat="38.46206867" lon="-2.52360261">
        <ele>774.00000</ele>
        <time>2018-10-13T10:42:56Z</time>
      </trkpt>
      <trkpt lat="38.46219205" lon="-2.52394309">
        <ele>775.00000</ele>
        <time>2018-10-13T10:43:03Z</time>
      </trkpt>
      <trkpt lat="38.46234477" lon="-2.52438842">
        <ele>776.00000</ele>
        <time>2018-10-13T10:43:12Z</time>
      </trkpt>
      <trkpt lat="38.46248256" lon="-2.52478069">
        <ele>777.00000</ele>
        <time>2018-10-13T10:43:20Z</time>
      </trkpt>
      <trkpt lat="38.46261936" lon="-2.52517179">
        <ele>778.00000</ele>
        <time>2018-10-13T10:43:28Z</time>
      </trkpt>
      <trkpt lat="38.46272044" lon="-2.52546910">
        <ele>779.00000</ele>
        <time>2018-10-13T10:43:34Z</time>
      </trkpt>
      <trkpt lat="38.46281063" lon="-2.52577261">
        <ele>780.00000</ele>
        <time>2018-10-13T10:43:40Z</time>
      </trkpt>
      <trkpt lat="38.46285464" lon="-2.52615180">
        <ele>781.00000</ele>
        <time>2018-10-13T10:43:47Z</time>
      </trkpt>
      <trkpt lat="38.46286218" lon="-2.52686209">
        <ele>782.00000</ele>
        <time>2018-10-13T10:44:00Z</time>
      </trkpt>
      <trkpt lat="38.46286126" lon="-2.52697055">
        <ele>782.00000</ele>
        <time>2018-10-13T10:44:02Z</time>
      </trkpt>
      <trkpt lat="38.46286579" lon="-2.52723617">
        <ele>784.00000</ele>
        <time>2018-10-13T10:44:07Z</time>
      </trkpt>
      <trkpt lat="38.46286654" lon="-2.52763490">
        <ele>785.00000</ele>
        <time>2018-10-13T10:44:15Z</time>
      </trkpt>
      <trkpt lat="38.46288867" lon="-2.52788585">
        <ele>786.00000</ele>
        <time>2018-10-13T10:44:20Z</time>
      </trkpt>
      <trkpt lat="38.46294424" lon="-2.52804905">
        <ele>787.00000</ele>
        <time>2018-10-13T10:44:24Z</time>
      </trkpt>
      <trkpt lat="38.46301498" lon="-2.52823915">
        <ele>788.00000</ele>
        <time>2018-10-13T10:44:29Z</time>
      </trkpt>
      <trkpt lat="38.46308279" lon="-2.52836773">
        <ele>789.00000</ele>
        <time>2018-10-13T10:44:33Z</time>
      </trkpt>
      <trkpt lat="38.46322990" lon="-2.52857442">
        <ele>790.00000</ele>
        <time>2018-10-13T10:44:40Z</time>
      </trkpt>
      <trkpt lat="38.46336761" lon="-2.52875556">
        <ele>792.00000</ele>
        <time>2018-10-13T10:44:46Z</time>
      </trkpt>
      <trkpt lat="38.46349937" lon="-2.52889822">
        <ele>793.00000</ele>
        <time>2018-10-13T10:44:51Z</time>
      </trkpt>
      <trkpt lat="38.46361136" lon="-2.52899855">
        <ele>794.00000</ele>
        <time>2018-10-13T10:44:55Z</time>
      </trkpt>
      <trkpt lat="38.46372921" lon="-2.52905035">
        <ele>795.00000</ele>
        <time>2018-10-13T10:44:59Z</time>
      </trkpt>
      <trkpt lat="38.46376743" lon="-2.52905957">
        <ele>795.00000</ele>
        <time>2018-10-13T10:45:00Z</time>
      </trkpt>
      <trkpt lat="38.46389735" lon="-2.52906032">
        <ele>796.00000</ele>
        <time>2018-10-13T10:45:04Z</time>
      </trkpt>
      <trkpt lat="38.46404093" lon="-2.52902478">
        <ele>797.00000</ele>
        <time>2018-10-13T10:45:08Z</time>
      </trkpt>
      <trkpt lat="38.46421469" lon="-2.52897156">
        <ele>798.00000</ele>
        <time>2018-10-13T10:45:13Z</time>
      </trkpt>
      <trkpt lat="38.46442138" lon="-2.52890325">
        <ele>799.00000</ele>
        <time>2018-10-13T10:45:19Z</time>
      </trkpt>
      <trkpt lat="38.46459422" lon="-2.52886628">
        <ele>801.00000</ele>
        <time>2018-10-13T10:45:24Z</time>
      </trkpt>
      <trkpt lat="38.46476680" lon="-2.52885840">
        <ele>802.00000</ele>
        <time>2018-10-13T10:45:29Z</time>
      </trkpt>
      <trkpt lat="38.46497015" lon="-2.52892177">
        <ele>802.00000</ele>
        <time>2018-10-13T10:45:35Z</time>
      </trkpt>
      <trkpt lat="38.46500208" lon="-2.52894080">
        <ele>803.00000</ele>
        <time>2018-10-13T10:45:36Z</time>
      </trkpt>
      <trkpt lat="38.46523636" lon="-2.52910156">
        <ele>804.00000</ele>
        <time>2018-10-13T10:45:44Z</time>
      </trkpt>
      <trkpt lat="38.46536326" lon="-2.52935419">
        <ele>805.00000</ele>
        <time>2018-10-13T10:45:51Z</time>
      </trkpt>
      <trkpt lat="38.46541732" lon="-2.52960381">
        <ele>806.00000</ele>
        <time>2018-10-13T10:45:57Z</time>
      </trkpt>
      <trkpt lat="38.46544934" lon="-2.52990790">
        <ele>807.00000</ele>
        <time>2018-10-13T10:46:04Z</time>
      </trkpt>
      <trkpt lat="38.46546937" lon="-2.53025935">
        <ele>808.00000</ele>
        <time>2018-10-13T10:46:12Z</time>
      </trkpt>
      <trkpt lat="38.46549334" lon="-2.53048047">
        <ele>809.00000</ele>
        <time>2018-10-13T10:46:17Z</time>
      </trkpt>
      <trkpt lat="38.46557180" lon="-2.53077568">
        <ele>810.00000</ele>
        <time>2018-10-13T10:46:24Z</time>
      </trkpt>
      <trkpt lat="38.46570096" lon="-2.53103636">
        <ele>811.00000</ele>
        <time>2018-10-13T10:46:31Z</time>
      </trkpt>
      <trkpt lat="38.46580825" lon="-2.53120726">
        <ele>813.00000</ele>
        <time>2018-10-13T10:46:37Z</time>
      </trkpt>
      <trkpt lat="38.46590917" lon="-2.53127424">
        <ele>814.00000</ele>
        <time>2018-10-13T10:46:41Z</time>
      </trkpt>
      <trkpt lat="38.46606088" lon="-2.53133852">
        <ele>815.00000</ele>
        <time>2018-10-13T10:46:46Z</time>
      </trkpt>
      <trkpt lat="38.46628946" lon="-2.53142109">
        <ele>816.00000</ele>
        <time>2018-10-13T10:46:53Z</time>
      </trkpt>
      <trkpt lat="38.46648811" lon="-2.53146962">
        <ele>817.00000</ele>
        <time>2018-10-13T10:46:59Z</time>
      </trkpt>
      <trkpt lat="38.46670621" lon="-2.53153173">
        <ele>818.00000</ele>
        <time>2018-10-13T10:47:05Z</time>
      </trkpt>
      <trkpt lat="38.46696856" lon="-2.53161052">
        <ele>819.00000</ele>
        <time>2018-10-13T10:47:13Z</time>
      </trkpt>
      <trkpt lat="38.46723787" lon="-2.53168067">
        <ele>820.00000</ele>
        <time>2018-10-13T10:47:21Z</time>
      </trkpt>
      <trkpt lat="38.46740467" lon="-2.53173616">
        <ele>821.00000</ele>
        <time>2018-10-13T10:47:26Z</time>
      </trkpt>
      <trkpt lat="38.46761858" lon="-2.53182266">
        <ele>823.00000</ele>
        <time>2018-10-13T10:47:33Z</time>
      </trkpt>
      <trkpt lat="38.46776409" lon="-2.53188595">
        <ele>824.00000</ele>
        <time>2018-10-13T10:47:38Z</time>
      </trkpt>
      <trkpt lat="38.46787565" lon="-2.53194345">
        <ele>825.00000</ele>
        <time>2018-10-13T10:47:43Z</time>
      </trkpt>
      <trkpt lat="38.46802929" lon="-2.53202542">
        <ele>826.00000</ele>
        <time>2018-10-13T10:47:48Z</time>
      </trkpt>
      <trkpt lat="38.46821067" lon="-2.53213648">
        <ele>827.00000</ele>
        <time>2018-10-13T10:47:54Z</time>
      </trkpt>
      <trkpt lat="38.46843992" lon="-2.53225550">
        <ele>828.00000</ele>
        <time>2018-10-13T10:48:01Z</time>
      </trkpt>
      <trkpt lat="38.46863932" lon="-2.53233605">
        <ele>829.00000</ele>
        <time>2018-10-13T10:48:07Z</time>
      </trkpt>
      <trkpt lat="38.46881828" lon="-2.53247193">
        <ele>830.00000</ele>
        <time>2018-10-13T10:48:13Z</time>
      </trkpt>
      <trkpt lat="38.46897896" lon="-2.53256010">
        <ele>831.00000</ele>
        <time>2018-10-13T10:48:18Z</time>
      </trkpt>
      <trkpt lat="38.46912690" lon="-2.53263764">
        <ele>833.00000</ele>
        <time>2018-10-13T10:48:23Z</time>
      </trkpt>
      <trkpt lat="38.46927291" lon="-2.53271492">
        <ele>834.00000</ele>
        <time>2018-10-13T10:48:28Z</time>
      </trkpt>
      <trkpt lat="38.46939546" lon="-2.53281617">
        <ele>835.00000</ele>
        <time>2018-10-13T10:48:33Z</time>
      </trkpt>
      <trkpt lat="38.46957181" lon="-2.53289798">
        <ele>836.00000</ele>
        <time>2018-10-13T10:48:39Z</time>
      </trkpt>
      <trkpt lat="38.46972822" lon="-2.53298984">
        <ele>837.00000</ele>
        <time>2018-10-13T10:48:44Z</time>
      </trkpt>
      <trkpt lat="38.46987037" lon="-2.53308950">
        <ele>838.00000</ele>
        <time>2018-10-13T10:48:49Z</time>
      </trkpt>
      <trkpt lat="38.46999158" lon="-2.53315706">
        <ele>839.00000</ele>
        <time>2018-10-13T10:48:53Z</time>
      </trkpt>
      <trkpt lat="38.47013818" lon="-2.53322873">
        <ele>840.00000</ele>
        <time>2018-10-13T10:48:58Z</time>
      </trkpt>
      <trkpt lat="38.47025636" lon="-2.53331867">
        <ele>841.00000</ele>
        <time>2018-10-13T10:49:02Z</time>
      </trkpt>
      <trkpt lat="38.47036667" lon="-2.53343123">
        <ele>843.00000</ele>
        <time>2018-10-13T10:49:06Z</time>
      </trkpt>
      <trkpt lat="38.47046071" lon="-2.53353953">
        <ele>844.00000</ele>
        <time>2018-10-13T10:49:10Z</time>
      </trkpt>
      <trkpt lat="38.47055526" lon="-2.53366341">
        <ele>845.00000</ele>
        <time>2018-10-13T10:49:14Z</time>
      </trkpt>
      <trkpt lat="38.47070680" lon="-2.53382418">
        <ele>846.00000</ele>
        <time>2018-10-13T10:49:19Z</time>
      </trkpt>
      <trkpt lat="38.47077847" lon="-2.53402182">
        <ele>847.00000</ele>
        <time>2018-10-13T10:49:24Z</time>
      </trkpt>
      <trkpt lat="38.47082356" lon="-2.53417127">
        <ele>848.00000</ele>
        <time>2018-10-13T10:49:28Z</time>
      </trkpt>
      <trkpt lat="38.47087662" lon="-2.53431167">
        <ele>849.00000</ele>
        <time>2018-10-13T10:49:32Z</time>
      </trkpt>
      <trkpt lat="38.47097871" lon="-2.53453672">
        <ele>850.00000</ele>
        <time>2018-10-13T10:49:38Z</time>
      </trkpt>
      <trkpt lat="38.47108567" lon="-2.53475314">
        <ele>852.00000</ele>
        <time>2018-10-13T10:49:44Z</time>
      </trkpt>
      <trkpt lat="38.47120435" lon="-2.53501642">
        <ele>852.00000</ele>
        <time>2018-10-13T10:49:51Z</time>
      </trkpt>
      <trkpt lat="38.47129496" lon="-2.53528045">
        <ele>853.00000</ele>
        <time>2018-10-13T10:49:58Z</time>
      </trkpt>
      <trkpt lat="38.47138180" lon="-2.53555152">
        <ele>854.00000</ele>
        <time>2018-10-13T10:50:05Z</time>
      </trkpt>
      <trkpt lat="38.47143896" lon="-2.53574732">
        <ele>855.00000</ele>
        <time>2018-10-13T10:50:10Z</time>
      </trkpt>
      <trkpt lat="38.47152966" lon="-2.53601051">
        <ele>857.00000</ele>
        <time>2018-10-13T10:50:17Z</time>
      </trkpt>
      <trkpt lat="38.47160099" lon="-2.53620129">
        <ele>858.00000</ele>
        <time>2018-10-13T10:50:22Z</time>
      </trkpt>
      <trkpt lat="38.47171657" lon="-2.53650412">
        <ele>859.00000</ele>
        <time>2018-10-13T10:50:30Z</time>
      </trkpt>
      <trkpt lat="38.47184725" lon="-2.53686077">
        <ele>860.00000</ele>
        <time>2018-10-13T10:50:39Z</time>
      </trkpt>
      <trkpt lat="38.47193676" lon="-2.53717510">
        <ele>861.00000</ele>
        <time>2018-10-13T10:50:46Z</time>
      </trkpt>
      <trkpt lat="38.47196375" lon="-2.53726906">
        <ele>861.00000</ele>
        <time>2018-10-13T10:50:48Z</time>
      </trkpt>
      <trkpt lat="38.47197323" lon="-2.53731918">
        <ele>861.00000</ele>
        <time>2018-10-13T10:50:49Z</time>
      </trkpt>
      <trkpt lat="38.47197775" lon="-2.53799828">
        <ele>861.00000</ele>
        <time>2018-10-13T10:51:01Z</time>
      </trkpt>
      <trkpt lat="38.47190014" lon="-2.53868577">
        <ele>861.00000</ele>
        <time>2018-10-13T10:51:13Z</time>
      </trkpt>
      <trkpt lat="38.47182529" lon="-2.53940259">
        <ele>862.00000</ele>
        <time>2018-10-13T10:51:25Z</time>
      </trkpt>
      <trkpt lat="38.47174038" lon="-2.54011538">
        <ele>862.00000</ele>
        <time>2018-10-13T10:51:37Z</time>
      </trkpt>
      <trkpt lat="38.47164893" lon="-2.54080940">
        <ele>862.00000</ele>
        <time>2018-10-13T10:51:49Z</time>
      </trkpt>
      <trkpt lat="38.47164072" lon="-2.54086665">
        <ele>863.00000</ele>
        <time>2018-10-13T10:51:50Z</time>
      </trkpt>
      <trkpt lat="38.47154935" lon="-2.54155640">
        <ele>864.00000</ele>
        <time>2018-10-13T10:52:02Z</time>
      </trkpt>
      <trkpt lat="38.47152722" lon="-2.54171532">
        <ele>863.00000</ele>
        <time>2018-10-13T10:52:05Z</time>
      </trkpt>
      <trkpt lat="38.47149152" lon="-2.54204029">
        <ele>864.00000</ele>
        <time>2018-10-13T10:52:12Z</time>
      </trkpt>
      <trkpt lat="38.47148481" lon="-2.54212168">
        <ele>865.00000</ele>
        <time>2018-10-13T10:52:14Z</time>
      </trkpt>
      <trkpt lat="38.47147400" lon="-2.54218756">
        <ele>865.00000</ele>
        <time>2018-10-13T10:52:16Z</time>
      </trkpt>
      <trkpt lat="38.47146151" lon="-2.54225235">
        <ele>865.00000</ele>
        <time>2018-10-13T10:52:18Z</time>
      </trkpt>
      <trkpt lat="38.47146604" lon="-2.54232267">
        <ele>866.00000</ele>
        <time>2018-10-13T10:52:20Z</time>
      </trkpt>
      <trkpt lat="38.47143067" lon="-2.54246584">
        <ele>867.00000</ele>
        <time>2018-10-13T10:52:24Z</time>
      </trkpt>
      <trkpt lat="38.47140242" lon="-2.54252426">
        <ele>868.00000</ele>
        <time>2018-10-13T10:52:26Z</time>
      </trkpt>
      <trkpt lat="38.47134877" lon="-2.54266759">
        <ele>869.00000</ele>
        <time>2018-10-13T10:52:30Z</time>
      </trkpt>
      <trkpt lat="38.47129538" lon="-2.54289918">
        <ele>870.00000</ele>
        <time>2018-10-13T10:52:35Z</time>
      </trkpt>
      <trkpt lat="38.47125389" lon="-2.54306690">
        <ele>871.00000</ele>
        <time>2018-10-13T10:52:39Z</time>
      </trkpt>
      <trkpt lat="38.47119673" lon="-2.54321962">
        <ele>872.00000</ele>
        <time>2018-10-13T10:52:43Z</time>
      </trkpt>
      <trkpt lat="38.47111995" lon="-2.54340469">
        <ele>874.00000</ele>
        <time>2018-10-13T10:52:48Z</time>
      </trkpt>
      <trkpt lat="38.47103001" lon="-2.54359479">
        <ele>875.00000</ele>
        <time>2018-10-13T10:52:53Z</time>
      </trkpt>
      <trkpt lat="38.47094007" lon="-2.54377509">
        <ele>876.00000</ele>
        <time>2018-10-13T10:52:58Z</time>
      </trkpt>
      <trkpt lat="38.47086061" lon="-2.54395404">
        <ele>877.00000</ele>
        <time>2018-10-13T10:53:03Z</time>
      </trkpt>
      <trkpt lat="38.47077084" lon="-2.54416015">
        <ele>878.00000</ele>
        <time>2018-10-13T10:53:09Z</time>
      </trkpt>
      <trkpt lat="38.47069775" lon="-2.54433207">
        <ele>879.00000</ele>
        <time>2018-10-13T10:53:14Z</time>
      </trkpt>
      <trkpt lat="38.47065601" lon="-2.54448948">
        <ele>880.00000</ele>
        <time>2018-10-13T10:53:19Z</time>
      </trkpt>
      <trkpt lat="38.47057688" lon="-2.54466374">
        <ele>881.00000</ele>
        <time>2018-10-13T10:53:24Z</time>
      </trkpt>
      <trkpt lat="38.47052819" lon="-2.54487873">
        <ele>882.00000</ele>
        <time>2018-10-13T10:53:30Z</time>
      </trkpt>
      <trkpt lat="38.47050782" lon="-2.54505978">
        <ele>884.00000</ele>
        <time>2018-10-13T10:53:35Z</time>
      </trkpt>
      <trkpt lat="38.47048460" lon="-2.54530529">
        <ele>885.00000</ele>
        <time>2018-10-13T10:53:41Z</time>
      </trkpt>
      <trkpt lat="38.47044588" lon="-2.54555432">
        <ele>886.00000</ele>
        <time>2018-10-13T10:53:47Z</time>
      </trkpt>
      <trkpt lat="38.47044521" lon="-2.54578608">
        <ele>887.00000</ele>
        <time>2018-10-13T10:53:53Z</time>
      </trkpt>
      <trkpt lat="38.47044940" lon="-2.54602102">
        <ele>888.00000</ele>
        <time>2018-10-13T10:53:59Z</time>
      </trkpt>
      <trkpt lat="38.47040028" lon="-2.54626904">
        <ele>889.00000</ele>
        <time>2018-10-13T10:54:05Z</time>
      </trkpt>
      <trkpt lat="38.47037639" lon="-2.54647515">
        <ele>890.00000</ele>
        <time>2018-10-13T10:54:10Z</time>
      </trkpt>
      <trkpt lat="38.47038695" lon="-2.54667112">
        <ele>892.00000</ele>
        <time>2018-10-13T10:54:15Z</time>
      </trkpt>
      <trkpt lat="38.47041604" lon="-2.54686759">
        <ele>893.00000</ele>
        <time>2018-10-13T10:54:20Z</time>
      </trkpt>
      <trkpt lat="38.47046993" lon="-2.54709357">
        <ele>894.00000</ele>
        <time>2018-10-13T10:54:26Z</time>
      </trkpt>
      <trkpt lat="38.47050899" lon="-2.54736321">
        <ele>895.00000</ele>
        <time>2018-10-13T10:54:33Z</time>
      </trkpt>
      <trkpt lat="38.47049399" lon="-2.54755977">
        <ele>896.00000</ele>
        <time>2018-10-13T10:54:38Z</time>
      </trkpt>
      <trkpt lat="38.47047060" lon="-2.54775507">
        <ele>897.00000</ele>
        <time>2018-10-13T10:54:43Z</time>
      </trkpt>
      <trkpt lat="38.47046331" lon="-2.54779472">
        <ele>897.00000</ele>
        <time>2018-10-13T10:54:44Z</time>
      </trkpt>
      <trkpt lat="38.47043624" lon="-2.54794995">
        <ele>898.00000</ele>
        <time>2018-10-13T10:54:48Z</time>
      </trkpt>
      <trkpt lat="38.47038586" lon="-2.54819411">
        <ele>899.00000</ele>
        <time>2018-10-13T10:54:54Z</time>
      </trkpt>
      <trkpt lat="38.47034152" lon="-2.54845052">
        <ele>901.00000</ele>
        <time>2018-10-13T10:55:00Z</time>
      </trkpt>
      <trkpt lat="38.47021562" lon="-2.54875411">
        <ele>902.00000</ele>
        <time>2018-10-13T10:55:08Z</time>
      </trkpt>
      <trkpt lat="38.47011772" lon="-2.54894010">
        <ele>903.00000</ele>
        <time>2018-10-13T10:55:13Z</time>
      </trkpt>
      <trkpt lat="38.47001060" lon="-2.54912107">
        <ele>904.00000</ele>
        <time>2018-10-13T10:55:18Z</time>
      </trkpt>
      <trkpt lat="38.46989577" lon="-2.54936180">
        <ele>904.00000</ele>
        <time>2018-10-13T10:55:24Z</time>
      </trkpt>
      <trkpt lat="38.46987750" lon="-2.54941360">
        <ele>904.00000</ele>
        <time>2018-10-13T10:55:25Z</time>
      </trkpt>
      <trkpt lat="38.46990952" lon="-2.54972993">
        <ele>904.00000</ele>
        <time>2018-10-13T10:55:30Z</time>
      </trkpt>
      <trkpt lat="38.47001102" lon="-2.54988650">
        <ele>904.00000</ele>
        <time>2018-10-13T10:55:33Z</time>
      </trkpt>
      <trkpt lat="38.47005260" lon="-2.54992833">
        <ele>904.00000</ele>
        <time>2018-10-13T10:55:34Z</time>
      </trkpt>
      <trkpt lat="38.47025686" lon="-2.55004727">
        <ele>903.00000</ele>
        <time>2018-10-13T10:55:38Z</time>
      </trkpt>
      <trkpt lat="38.47053581" lon="-2.55021532">
        <ele>903.00000</ele>
        <time>2018-10-13T10:55:43Z</time>
      </trkpt>
      <trkpt lat="38.47073690" lon="-2.55051598">
        <ele>903.00000</ele>
        <time>2018-10-13T10:55:48Z</time>
      </trkpt>
      <trkpt lat="38.47080026" lon="-2.55064104">
        <ele>902.00000</ele>
        <time>2018-10-13T10:55:50Z</time>
      </trkpt>
      <trkpt lat="38.47099917" lon="-2.55136239">
        <ele>902.00000</ele>
        <time>2018-10-13T10:56:00Z</time>
      </trkpt>
      <trkpt lat="38.47115884" lon="-2.55179632">
        <ele>901.00000</ele>
        <time>2018-10-13T10:56:06Z</time>
      </trkpt>
      <trkpt lat="38.47123595" lon="-2.55191568">
        <ele>901.00000</ele>
        <time>2018-10-13T10:56:08Z</time>
      </trkpt>
      <trkpt lat="38.47165153" lon="-2.55243946">
        <ele>901.00000</ele>
        <time>2018-10-13T10:56:18Z</time>
      </trkpt>
      <trkpt lat="38.47176628" lon="-2.55256494">
        <ele>901.00000</ele>
        <time>2018-10-13T10:56:21Z</time>
      </trkpt>
      <trkpt lat="38.47189326" lon="-2.55269587">
        <ele>901.00000</ele>
        <time>2018-10-13T10:56:25Z</time>
      </trkpt>
      <trkpt lat="38.47196518" lon="-2.55277700">
        <ele>902.00000</ele>
        <time>2018-10-13T10:56:28Z</time>
      </trkpt>
      <trkpt lat="38.47199108" lon="-2.55279913">
        <ele>903.00000</ele>
        <time>2018-10-13T10:56:29Z</time>
      </trkpt>
      <trkpt lat="38.47203860" lon="-2.55284749">
        <ele>903.00000</ele>
        <time>2018-10-13T10:56:31Z</time>
      </trkpt>
      <trkpt lat="38.47205973" lon="-2.55287608">
        <ele>904.00000</ele>
        <time>2018-10-13T10:56:32Z</time>
      </trkpt>
      <trkpt lat="38.47212351" lon="-2.55296283">
        <ele>905.00000</ele>
        <time>2018-10-13T10:56:35Z</time>
      </trkpt>
      <trkpt lat="38.47219577" lon="-2.55302729">
        <ele>906.00000</ele>
        <time>2018-10-13T10:56:38Z</time>
      </trkpt>
      <trkpt lat="38.47224497" lon="-2.55307087">
        <ele>906.00000</ele>
        <time>2018-10-13T10:56:40Z</time>
      </trkpt>
      <trkpt lat="38.47236030" lon="-2.55310264">
        <ele>907.00000</ele>
        <time>2018-10-13T10:56:44Z</time>
      </trkpt>
      <trkpt lat="38.47243499" lon="-2.55305822">
        <ele>908.00000</ele>
        <time>2018-10-13T10:56:47Z</time>
      </trkpt>
      <trkpt lat="38.47249584" lon="-2.55289762">
        <ele>909.00000</ele>
        <time>2018-10-13T10:56:52Z</time>
      </trkpt>
      <trkpt lat="38.47250673" lon="-2.55274842">
        <ele>911.00000</ele>
        <time>2018-10-13T10:56:56Z</time>
      </trkpt>
      <trkpt lat="38.47249131" lon="-2.55260626">
        <ele>912.00000</ele>
        <time>2018-10-13T10:57:00Z</time>
      </trkpt>
      <trkpt lat="38.47247011" lon="-2.55247458">
        <ele>913.00000</ele>
        <time>2018-10-13T10:57:04Z</time>
      </trkpt>
      <trkpt lat="38.47244731" lon="-2.55233209">
        <ele>914.00000</ele>
        <time>2018-10-13T10:57:08Z</time>
      </trkpt>
      <trkpt lat="38.47245720" lon="-2.55215825">
        <ele>915.00000</ele>
        <time>2018-10-13T10:57:13Z</time>
      </trkpt>
      <trkpt lat="38.47250422" lon="-2.55191593">
        <ele>917.00000</ele>
        <time>2018-10-13T10:57:20Z</time>
      </trkpt>
      <trkpt lat="38.47252819" lon="-2.55176790">
        <ele>918.00000</ele>
        <time>2018-10-13T10:57:25Z</time>
      </trkpt>
      <trkpt lat="38.47255669" lon="-2.55160119">
        <ele>919.00000</ele>
        <time>2018-10-13T10:57:30Z</time>
      </trkpt>
      <trkpt lat="38.47259198" lon="-2.55139843">
        <ele>920.00000</ele>
        <time>2018-10-13T10:57:36Z</time>
      </trkpt>
      <trkpt lat="38.47261595" lon="-2.55129743">
        <ele>921.00000</ele>
        <time>2018-10-13T10:57:39Z</time>
      </trkpt>
      <trkpt lat="38.47263514" lon="-2.55110749">
        <ele>922.00000</ele>
        <time>2018-10-13T10:57:45Z</time>
      </trkpt>
      <trkpt lat="38.47263950" lon="-2.55099166">
        <ele>923.00000</ele>
        <time>2018-10-13T10:57:49Z</time>
      </trkpt>
      <trkpt lat="38.47267395" lon="-2.55081949">
        <ele>925.00000</ele>
        <time>2018-10-13T10:57:54Z</time>
      </trkpt>
      <trkpt lat="38.47269197" lon="-2.55065638">
        <ele>926.00000</ele>
        <time>2018-10-13T10:57:59Z</time>
      </trkpt>
      <trkpt lat="38.47272542" lon="-2.55046276">
        <ele>927.00000</ele>
        <time>2018-10-13T10:58:05Z</time>
      </trkpt>
      <trkpt lat="38.47275283" lon="-2.55032739">
        <ele>928.00000</ele>
        <time>2018-10-13T10:58:09Z</time>
      </trkpt>
      <trkpt lat="38.47279935" lon="-2.55015598">
        <ele>929.00000</ele>
        <time>2018-10-13T10:58:14Z</time>
      </trkpt>
      <trkpt lat="38.47291384" lon="-2.54994300">
        <ele>930.00000</ele>
        <time>2018-10-13T10:58:21Z</time>
      </trkpt>
      <trkpt lat="38.47297905" lon="-2.54983915">
        <ele>931.00000</ele>
        <time>2018-10-13T10:58:25Z</time>
      </trkpt>
      <trkpt lat="38.47301526" lon="-2.54979103">
        <ele>931.00000</ele>
        <time>2018-10-13T10:58:27Z</time>
      </trkpt>
      <trkpt lat="38.47309565" lon="-2.54970864">
        <ele>933.00000</ele>
        <time>2018-10-13T10:58:31Z</time>
      </trkpt>
      <trkpt lat="38.47321626" lon="-2.54963186">
        <ele>934.00000</ele>
        <time>2018-10-13T10:58:36Z</time>
      </trkpt>
      <trkpt lat="38.47333696" lon="-2.54952390">
        <ele>935.00000</ele>
        <time>2018-10-13T10:58:41Z</time>
      </trkpt>
      <trkpt lat="38.47344207" lon="-2.54946707">
        <ele>936.00000</ele>
        <time>2018-10-13T10:58:45Z</time>
      </trkpt>
      <trkpt lat="38.47355430" lon="-2.54943111">
        <ele>938.00000</ele>
        <time>2018-10-13T10:58:49Z</time>
      </trkpt>
      <trkpt lat="38.47366159" lon="-2.54943883">
        <ele>939.00000</ele>
        <time>2018-10-13T10:58:53Z</time>
      </trkpt>
      <trkpt lat="38.47382278" lon="-2.54947160">
        <ele>940.00000</ele>
        <time>2018-10-13T10:58:59Z</time>
      </trkpt>
      <trkpt lat="38.47395203" lon="-2.54952206">
        <ele>941.00000</ele>
        <time>2018-10-13T10:59:04Z</time>
      </trkpt>
      <trkpt lat="38.47410952" lon="-2.54960026">
        <ele>942.00000</ele>
        <time>2018-10-13T10:59:10Z</time>
      </trkpt>
      <trkpt lat="38.47420876" lon="-2.54964930">
        <ele>943.00000</ele>
        <time>2018-10-13T10:59:15Z</time>
      </trkpt>
      <trkpt lat="38.47429409" lon="-2.54970428">
        <ele>944.00000</ele>
        <time>2018-10-13T10:59:19Z</time>
      </trkpt>
      <trkpt lat="38.47441110" lon="-2.54976874">
        <ele>945.00000</ele>
        <time>2018-10-13T10:59:24Z</time>
      </trkpt>
      <trkpt lat="38.47453038" lon="-2.54984535">
        <ele>946.00000</ele>
        <time>2018-10-13T10:59:29Z</time>
      </trkpt>
      <trkpt lat="38.47465451" lon="-2.54990084">
        <ele>947.00000</ele>
        <time>2018-10-13T10:59:34Z</time>
      </trkpt>
      <trkpt lat="38.47477161" lon="-2.54995306">
        <ele>949.00000</ele>
        <time>2018-10-13T10:59:39Z</time>
      </trkpt>
      <trkpt lat="38.47490455" lon="-2.54998558">
        <ele>950.00000</ele>
        <time>2018-10-13T10:59:45Z</time>
      </trkpt>
      <trkpt lat="38.47506523" lon="-2.55003402">
        <ele>951.00000</ele>
        <time>2018-10-13T10:59:51Z</time>
      </trkpt>
      <trkpt lat="38.47517059" lon="-2.55005473">
        <ele>952.00000</ele>
        <time>2018-10-13T10:59:56Z</time>
      </trkpt>
      <trkpt lat="38.47530721" lon="-2.55002874">
        <ele>953.00000</ele>
        <time>2018-10-13T11:00:00Z</time>
      </trkpt>
      <trkpt lat="38.47546722" lon="-2.54992917">
        <ele>954.00000</ele>
        <time>2018-10-13T11:00:05Z</time>
      </trkpt>
      <trkpt lat="38.47561944" lon="-2.54980009">
        <ele>955.00000</ele>
        <time>2018-10-13T11:00:11Z</time>
      </trkpt>
      <trkpt lat="38.47574584" lon="-2.54970814">
        <ele>956.00000</ele>
        <time>2018-10-13T11:00:16Z</time>
      </trkpt>
      <trkpt lat="38.47594809" lon="-2.54963614">
        <ele>957.00000</ele>
        <time>2018-10-13T11:00:24Z</time>
      </trkpt>
      <trkpt lat="38.47603761" lon="-2.54964653">
        <ele>958.00000</ele>
        <time>2018-10-13T11:00:28Z</time>
      </trkpt>
      <trkpt lat="38.47613777" lon="-2.54964116">
        <ele>960.00000</ele>
        <time>2018-10-13T11:00:32Z</time>
      </trkpt>
      <trkpt lat="38.47621229" lon="-2.54966229">
        <ele>960.00000</ele>
        <time>2018-10-13T11:00:35Z</time>
      </trkpt>
      <trkpt lat="38.47630893" lon="-2.54968877">
        <ele>961.00000</ele>
        <time>2018-10-13T11:00:39Z</time>
      </trkpt>
      <trkpt lat="38.47643852" lon="-2.54971132">
        <ele>962.00000</ele>
        <time>2018-10-13T11:00:45Z</time>
      </trkpt>
      <trkpt lat="38.47660976" lon="-2.54973890">
        <ele>963.00000</ele>
        <time>2018-10-13T11:00:51Z</time>
      </trkpt>
      <trkpt lat="38.47673599" lon="-2.54974577">
        <ele>964.00000</ele>
        <time>2018-10-13T11:00:56Z</time>
      </trkpt>
      <trkpt lat="38.47694428" lon="-2.54973328">
        <ele>965.00000</ele>
        <time>2018-10-13T11:01:03Z</time>
      </trkpt>
      <trkpt lat="38.47705040" lon="-2.54972842">
        <ele>966.00000</ele>
        <time>2018-10-13T11:01:07Z</time>
      </trkpt>
      <trkpt lat="38.47717554" lon="-2.54969204">
        <ele>967.00000</ele>
        <time>2018-10-13T11:01:12Z</time>
      </trkpt>
      <trkpt lat="38.47734846" lon="-2.54965181">
        <ele>969.00000</ele>
        <time>2018-10-13T11:01:19Z</time>
      </trkpt>
      <trkpt lat="38.47753688" lon="-2.54959733">
        <ele>970.00000</ele>
        <time>2018-10-13T11:01:26Z</time>
      </trkpt>
      <trkpt lat="38.47769052" lon="-2.54962901">
        <ele>971.00000</ele>
        <time>2018-10-13T11:01:31Z</time>
      </trkpt>
      <trkpt lat="38.47786948" lon="-2.54974854">
        <ele>972.00000</ele>
        <time>2018-10-13T11:01:36Z</time>
      </trkpt>
      <trkpt lat="38.47798112" lon="-2.54982976">
        <ele>973.00000</ele>
        <time>2018-10-13T11:01:40Z</time>
      </trkpt>
      <trkpt lat="38.47810752" lon="-2.54985960">
        <ele>974.00000</ele>
        <time>2018-10-13T11:01:45Z</time>
      </trkpt>
      <trkpt lat="38.47823325" lon="-2.54970395">
        <ele>975.00000</ele>
        <time>2018-10-13T11:01:51Z</time>
      </trkpt>
      <trkpt lat="38.47838396" lon="-2.54945366">
        <ele>977.00000</ele>
        <time>2018-10-13T11:01:58Z</time>
      </trkpt>
      <trkpt lat="38.47852712" lon="-2.54936808">
        <ele>978.00000</ele>
        <time>2018-10-13T11:02:03Z</time>
      </trkpt>
      <trkpt lat="38.47862829" lon="-2.54935232">
        <ele>979.00000</ele>
        <time>2018-10-13T11:02:07Z</time>
      </trkpt>
      <trkpt lat="38.47873088" lon="-2.54931117">
        <ele>980.00000</ele>
        <time>2018-10-13T11:02:11Z</time>
      </trkpt>
      <trkpt lat="38.47882057" lon="-2.54926842">
        <ele>981.00000</ele>
        <time>2018-10-13T11:02:15Z</time>
      </trkpt>
      <trkpt lat="38.47892182" lon="-2.54918150">
        <ele>983.00000</ele>
        <time>2018-10-13T11:02:20Z</time>
      </trkpt>
      <trkpt lat="38.47902878" lon="-2.54910967">
        <ele>984.00000</ele>
        <time>2018-10-13T11:02:25Z</time>
      </trkpt>
      <trkpt lat="38.47920228" lon="-2.54899349">
        <ele>985.00000</ele>
        <time>2018-10-13T11:02:32Z</time>
      </trkpt>
      <trkpt lat="38.47940177" lon="-2.54893993">
        <ele>986.00000</ele>
        <time>2018-10-13T11:02:40Z</time>
      </trkpt>
      <trkpt lat="38.47951845" lon="-2.54891395">
        <ele>987.00000</ele>
        <time>2018-10-13T11:02:45Z</time>
      </trkpt>
      <trkpt lat="38.47965222" lon="-2.54891403">
        <ele>988.00000</ele>
        <time>2018-10-13T11:02:50Z</time>
      </trkpt>
      <trkpt lat="38.47978072" lon="-2.54896257">
        <ele>989.00000</ele>
        <time>2018-10-13T11:02:55Z</time>
      </trkpt>
      <trkpt lat="38.47986596" lon="-2.54904714">
        <ele>990.00000</ele>
        <time>2018-10-13T11:02:59Z</time>
      </trkpt>
      <trkpt lat="38.47994928" lon="-2.54913113">
        <ele>992.00000</ele>
        <time>2018-10-13T11:03:03Z</time>
      </trkpt>
      <trkpt lat="38.48008808" lon="-2.54916382">
        <ele>993.00000</ele>
        <time>2018-10-13T11:03:08Z</time>
      </trkpt>
      <trkpt lat="38.48020099" lon="-2.54895796">
        <ele>994.00000</ele>
        <time>2018-10-13T11:03:16Z</time>
      </trkpt>
      <trkpt lat="38.48022739" lon="-2.54885586">
        <ele>994.00000</ele>
        <time>2018-10-13T11:03:19Z</time>
      </trkpt>
      <trkpt lat="38.48024751" lon="-2.54876006">
        <ele>995.00000</ele>
        <time>2018-10-13T11:03:22Z</time>
      </trkpt>
      <trkpt lat="38.48025832" lon="-2.54866434">
        <ele>996.00000</ele>
        <time>2018-10-13T11:03:25Z</time>
      </trkpt>
      <trkpt lat="38.48029755" lon="-2.54853274">
        <ele>997.00000</ele>
        <time>2018-10-13T11:03:29Z</time>
      </trkpt>
      <trkpt lat="38.48033158" lon="-2.54842830">
        <ele>998.00000</ele>
        <time>2018-10-13T11:03:33Z</time>
      </trkpt>
      <trkpt lat="38.48041305" lon="-2.54833258">
        <ele>999.00000</ele>
        <time>2018-10-13T11:03:38Z</time>
      </trkpt>
      <trkpt lat="38.48049486" lon="-2.54829998">
        <ele>1000.0000</ele>
        <time>2018-10-13T11:03:42Z</time>
      </trkpt>
      <trkpt lat="38.48057909" lon="-2.54828874">
        <ele>1001.0000</ele>
        <time>2018-10-13T11:03:46Z</time>
      </trkpt>
      <trkpt lat="38.48069317" lon="-2.54826678">
        <ele>1002.0000</ele>
        <time>2018-10-13T11:03:51Z</time>
      </trkpt>
      <trkpt lat="38.48079124" lon="-2.54826963">
        <ele>1003.0000</ele>
        <time>2018-10-13T11:03:56Z</time>
      </trkpt>
      <trkpt lat="38.48092719" lon="-2.54827835">
        <ele>1005.0000</ele>
        <time>2018-10-13T11:04:01Z</time>
      </trkpt>
      <trkpt lat="38.48110154" lon="-2.54829009">
        <ele>1006.0000</ele>
        <time>2018-10-13T11:04:07Z</time>
      </trkpt>
      <trkpt lat="38.48126163" lon="-2.54834415">
        <ele>1007.0000</ele>
        <time>2018-10-13T11:04:13Z</time>
      </trkpt>
      <trkpt lat="38.48139993" lon="-2.54837675">
        <ele>1008.0000</ele>
        <time>2018-10-13T11:04:19Z</time>
      </trkpt>
      <trkpt lat="38.48156749" lon="-2.54840165">
        <ele>1009.0000</ele>
        <time>2018-10-13T11:04:25Z</time>
      </trkpt>
      <trkpt lat="38.48173018" lon="-2.54837240">
        <ele>1010.0000</ele>
        <time>2018-10-13T11:04:31Z</time>
      </trkpt>
      <trkpt lat="38.48189061" lon="-2.54829059">
        <ele>1011.0000</ele>
        <time>2018-10-13T11:04:37Z</time>
      </trkpt>
      <trkpt lat="38.48202673" lon="-2.54821021">
        <ele>1013.0000</ele>
        <time>2018-10-13T11:04:42Z</time>
      </trkpt>
      <trkpt lat="38.48212874" lon="-2.54816939">
        <ele>1013.0000</ele>
        <time>2018-10-13T11:04:46Z</time>
      </trkpt>
      <trkpt lat="38.48222622" lon="-2.54812035">
        <ele>1015.0000</ele>
        <time>2018-10-13T11:04:50Z</time>
      </trkpt>
      <trkpt lat="38.48234223" lon="-2.54806025">
        <ele>1016.0000</ele>
        <time>2018-10-13T11:04:56Z</time>
      </trkpt>
      <trkpt lat="38.48240836" lon="-2.54802857">
        <ele>1016.0000</ele>
        <time>2018-10-13T11:05:00Z</time>
      </trkpt>
      <trkpt lat="38.48242613" lon="-2.54801901">
        <ele>1017.0000</ele>
        <time>2018-10-13T11:05:01Z</time>
      </trkpt>
      <trkpt lat="38.48252856" lon="-2.54800518">
        <ele>1018.0000</ele>
        <time>2018-10-13T11:05:07Z</time>
      </trkpt>
      <trkpt lat="38.48255538" lon="-2.54799244">
        <ele>1018.0000</ele>
        <time>2018-10-13T11:05:08Z</time>
      </trkpt>
      <trkpt lat="38.48267625" lon="-2.54794475">
        <ele>1019.0000</ele>
        <time>2018-10-13T11:05:12Z</time>
      </trkpt>
      <trkpt lat="38.48283349" lon="-2.54795330">
        <ele>1020.0000</ele>
        <time>2018-10-13T11:05:17Z</time>
      </trkpt>
      <trkpt lat="38.48290700" lon="-2.54807182">
        <ele>1021.0000</ele>
        <time>2018-10-13T11:05:21Z</time>
      </trkpt>
      <trkpt lat="38.48290993" lon="-2.54810677">
        <ele>1021.0000</ele>
        <time>2018-10-13T11:05:22Z</time>
      </trkpt>
      <trkpt lat="38.48283684" lon="-2.54823904">
        <ele>1022.0000</ele>
        <time>2018-10-13T11:05:27Z</time>
      </trkpt>
      <trkpt lat="38.48281228" lon="-2.54825958">
        <ele>1023.0000</ele>
        <time>2018-10-13T11:05:28Z</time>
      </trkpt>
      <trkpt lat="38.48273727" lon="-2.54831045">
        <ele>1024.0000</ele>
        <time>2018-10-13T11:05:31Z</time>
      </trkpt>
      <trkpt lat="38.48263216" lon="-2.54836301">
        <ele>1025.0000</ele>
        <time>2018-10-13T11:05:35Z</time>
      </trkpt>
      <trkpt lat="38.48249469" lon="-2.54844758">
        <ele>1026.0000</ele>
        <time>2018-10-13T11:05:41Z</time>
      </trkpt>
      <trkpt lat="38.48238858" lon="-2.54852109">
        <ele>1027.0000</ele>
        <time>2018-10-13T11:05:46Z</time>
      </trkpt>
      <trkpt lat="38.48230401" lon="-2.54860164">
        <ele>1028.0000</ele>
        <time>2018-10-13T11:05:50Z</time>
      </trkpt>
      <trkpt lat="38.48214056" lon="-2.54878495">
        <ele>1029.0000</ele>
        <time>2018-10-13T11:05:58Z</time>
      </trkpt>
      <trkpt lat="38.48204769" lon="-2.54889342">
        <ele>1030.0000</ele>
        <time>2018-10-13T11:06:03Z</time>
      </trkpt>
      <trkpt lat="38.48194358" lon="-2.54903021">
        <ele>1031.0000</ele>
        <time>2018-10-13T11:06:09Z</time>
      </trkpt>
      <trkpt lat="38.48181861" lon="-2.54914965">
        <ele>1032.0000</ele>
        <time>2018-10-13T11:06:15Z</time>
      </trkpt>
      <trkpt lat="38.48171618" lon="-2.54924193">
        <ele>1033.0000</ele>
        <time>2018-10-13T11:06:20Z</time>
      </trkpt>
      <trkpt lat="38.48162935" lon="-2.54931243">
        <ele>1034.0000</ele>
        <time>2018-10-13T11:06:24Z</time>
      </trkpt>
      <trkpt lat="38.48154787" lon="-2.54931259">
        <ele>1034.0000</ele>
        <time>2018-10-13T11:06:27Z</time>
      </trkpt>
      <trkpt lat="38.48136783" lon="-2.54935962">
        <ele>1035.0000</ele>
        <time>2018-10-13T11:06:34Z</time>
      </trkpt>
      <trkpt lat="38.48126121" lon="-2.54946322">
        <ele>1037.0000</ele>
        <time>2018-10-13T11:06:39Z</time>
      </trkpt>
      <trkpt lat="38.48124001" lon="-2.54964116">
        <ele>1038.0000</ele>
        <time>2018-10-13T11:06:44Z</time>
      </trkpt>
      <trkpt lat="38.48128284" lon="-2.54987737">
        <ele>1039.0000</ele>
        <time>2018-10-13T11:06:51Z</time>
      </trkpt>
      <trkpt lat="38.48133925" lon="-2.55002908">
        <ele>1040.0000</ele>
        <time>2018-10-13T11:06:56Z</time>
      </trkpt>
      <trkpt lat="38.48135333" lon="-2.55009412">
        <ele>1040.0000</ele>
        <time>2018-10-13T11:06:58Z</time>
      </trkpt>
      <trkpt lat="38.48138216" lon="-2.55022513">
        <ele>1041.0000</ele>
        <time>2018-10-13T11:07:02Z</time>
      </trkpt>
      <trkpt lat="38.48142944" lon="-2.55042303">
        <ele>1042.0000</ele>
        <time>2018-10-13T11:07:08Z</time>
      </trkpt>
      <trkpt lat="38.48145651" lon="-2.55062621">
        <ele>1043.0000</ele>
        <time>2018-10-13T11:07:14Z</time>
      </trkpt>
      <trkpt lat="38.48146942" lon="-2.55078563">
        <ele>1044.0000</ele>
        <time>2018-10-13T11:07:19Z</time>
      </trkpt>
      <trkpt lat="38.48140387" lon="-2.55098202">
        <ele>1045.0000</ele>
        <time>2018-10-13T11:07:25Z</time>
      </trkpt>
      <trkpt lat="38.48125191" lon="-2.55113448">
        <ele>1046.0000</ele>
        <time>2018-10-13T11:07:33Z</time>
      </trkpt>
      <trkpt lat="38.48110045" lon="-2.55116852">
        <ele>1048.0000</ele>
        <time>2018-10-13T11:07:38Z</time>
      </trkpt>
      <trkpt lat="38.48088126" lon="-2.55116206">
        <ele>1049.0000</ele>
        <time>2018-10-13T11:07:45Z</time>
      </trkpt>
      <trkpt lat="38.48071044" lon="-2.55114672">
        <ele>1050.0000</ele>
        <time>2018-10-13T11:07:51Z</time>
      </trkpt>
      <trkpt lat="38.48056526" lon="-2.55112610">
        <ele>1051.0000</ele>
        <time>2018-10-13T11:07:56Z</time>
      </trkpt>
      <trkpt lat="38.48039427" lon="-2.55111076">
        <ele>1052.0000</ele>
        <time>2018-10-13T11:08:02Z</time>
      </trkpt>
      <trkpt lat="38.48024072" lon="-2.55107665">
        <ele>1053.0000</ele>
        <time>2018-10-13T11:08:07Z</time>
      </trkpt>
      <trkpt lat="38.47999119" lon="-2.55101018">
        <ele>1054.0000</ele>
        <time>2018-10-13T11:08:14Z</time>
      </trkpt>
      <trkpt lat="38.47992170" lon="-2.55099057">
        <ele>1054.0000</ele>
        <time>2018-10-13T11:08:16Z</time>
      </trkpt>
      <trkpt lat="38.47968525" lon="-2.55101932">
        <ele>1055.0000</ele>
        <time>2018-10-13T11:08:23Z</time>
      </trkpt>
      <trkpt lat="38.47955147" lon="-2.55114865">
        <ele>1056.0000</ele>
        <time>2018-10-13T11:08:28Z</time>
      </trkpt>
      <trkpt lat="38.47943413" lon="-2.55139860">
        <ele>1058.0000</ele>
        <time>2018-10-13T11:08:35Z</time>
      </trkpt>
      <trkpt lat="38.47939222" lon="-2.55163262">
        <ele>1059.0000</ele>
        <time>2018-10-13T11:08:41Z</time>
      </trkpt>
      <trkpt lat="38.47940730" lon="-2.55183655">
        <ele>1060.0000</ele>
        <time>2018-10-13T11:08:46Z</time>
      </trkpt>
      <trkpt lat="38.47973043" lon="-2.55209891">
        <ele>1060.0000</ele>
        <time>2018-10-13T11:08:57Z</time>
      </trkpt>
      <trkpt lat="38.47980385" lon="-2.55210125">
        <ele>1061.0000</ele>
        <time>2018-10-13T11:08:59Z</time>
      </trkpt>
      <trkpt lat="38.48016268" lon="-2.55197410">
        <ele>1062.0000</ele>
        <time>2018-10-13T11:09:10Z</time>
      </trkpt>
      <trkpt lat="38.48042344" lon="-2.55184125">
        <ele>1063.0000</ele>
        <time>2018-10-13T11:09:18Z</time>
      </trkpt>
      <trkpt lat="38.48055889" lon="-2.55176246">
        <ele>1064.0000</ele>
        <time>2018-10-13T11:09:22Z</time>
      </trkpt>
      <trkpt lat="38.48068990" lon="-2.55169884">
        <ele>1065.0000</ele>
        <time>2018-10-13T11:09:26Z</time>
      </trkpt>
      <trkpt lat="38.48084136" lon="-2.55163614">
        <ele>1066.0000</ele>
        <time>2018-10-13T11:09:31Z</time>
      </trkpt>
      <trkpt lat="38.48096298" lon="-2.55164092">
        <ele>1067.0000</ele>
        <time>2018-10-13T11:09:35Z</time>
      </trkpt>
      <trkpt lat="38.48106365" lon="-2.55168853">
        <ele>1068.0000</ele>
        <time>2018-10-13T11:09:39Z</time>
      </trkpt>
      <trkpt lat="38.48115451" lon="-2.55176095">
        <ele>1069.0000</ele>
        <time>2018-10-13T11:09:43Z</time>
      </trkpt>
      <trkpt lat="38.48123959" lon="-2.55184678">
        <ele>1070.0000</ele>
        <time>2018-10-13T11:09:47Z</time>
      </trkpt>
      <trkpt lat="38.48130396" lon="-2.55195482">
        <ele>1071.0000</ele>
        <time>2018-10-13T11:09:51Z</time>
      </trkpt>
      <trkpt lat="38.48138158" lon="-2.55209161">
        <ele>1072.0000</ele>
        <time>2018-10-13T11:09:56Z</time>
      </trkpt>
      <trkpt lat="38.48148459" lon="-2.55223922">
        <ele>1073.0000</ele>
        <time>2018-10-13T11:10:02Z</time>
      </trkpt>
      <trkpt lat="38.48154251" lon="-2.55238959">
        <ele>1074.0000</ele>
        <time>2018-10-13T11:10:07Z</time>
      </trkpt>
      <trkpt lat="38.48159213" lon="-2.55254541">
        <ele>1076.0000</ele>
        <time>2018-10-13T11:10:12Z</time>
      </trkpt>
      <trkpt lat="38.48159833" lon="-2.55276904">
        <ele>1077.0000</ele>
        <time>2018-10-13T11:10:19Z</time>
      </trkpt>
      <trkpt lat="38.48158400" lon="-2.55296350">
        <ele>1078.0000</ele>
        <time>2018-10-13T11:10:25Z</time>
      </trkpt>
      <trkpt lat="38.48154326" lon="-2.55310784">
        <ele>1079.0000</ele>
        <time>2018-10-13T11:10:30Z</time>
      </trkpt>
      <trkpt lat="38.48150940" lon="-2.55322694">
        <ele>1080.0000</ele>
        <time>2018-10-13T11:10:34Z</time>
      </trkpt>
      <trkpt lat="38.48153488" lon="-2.55341612">
        <ele>1081.0000</ele>
        <time>2018-10-13T11:10:40Z</time>
      </trkpt>
      <trkpt lat="38.48160596" lon="-2.55354805">
        <ele>1082.0000</ele>
        <time>2018-10-13T11:10:45Z</time>
      </trkpt>
      <trkpt lat="38.48167302" lon="-2.55365601">
        <ele>1083.0000</ele>
        <time>2018-10-13T11:10:49Z</time>
      </trkpt>
      <trkpt lat="38.48175046" lon="-2.55374629">
        <ele>1084.0000</ele>
        <time>2018-10-13T11:10:53Z</time>
      </trkpt>
      <trkpt lat="38.48184711" lon="-2.55379063">
        <ele>1086.0000</ele>
        <time>2018-10-13T11:10:57Z</time>
      </trkpt>
      <trkpt lat="38.48194115" lon="-2.55378727">
        <ele>1087.0000</ele>
        <time>2018-10-13T11:11:01Z</time>
      </trkpt>
      <trkpt lat="38.48208901" lon="-2.55374327">
        <ele>1088.0000</ele>
        <time>2018-10-13T11:11:07Z</time>
      </trkpt>
      <trkpt lat="38.48223066" lon="-2.55370647">
        <ele>1089.0000</ele>
        <time>2018-10-13T11:11:13Z</time>
      </trkpt>
      <trkpt lat="38.48235354" lon="-2.55364981">
        <ele>1090.0000</ele>
        <time>2018-10-13T11:11:18Z</time>
      </trkpt>
      <trkpt lat="38.48247516" lon="-2.55360270">
        <ele>1091.0000</ele>
        <time>2018-10-13T11:11:23Z</time>
      </trkpt>
      <trkpt lat="38.48257600" lon="-2.55354294">
        <ele>1092.0000</ele>
        <time>2018-10-13T11:11:28Z</time>
      </trkpt>
      <trkpt lat="38.48269628" lon="-2.55338486">
        <ele>1093.0000</ele>
        <time>2018-10-13T11:11:35Z</time>
      </trkpt>
      <trkpt lat="38.48273626" lon="-2.55323625">
        <ele>1094.0000</ele>
        <time>2018-10-13T11:11:40Z</time>
      </trkpt>
      <trkpt lat="38.48277959" lon="-2.55308621">
        <ele>1095.0000</ele>
        <time>2018-10-13T11:11:45Z</time>
      </trkpt>
      <trkpt lat="38.48281723" lon="-2.55297171">
        <ele>1096.0000</ele>
        <time>2018-10-13T11:11:49Z</time>
      </trkpt>
      <trkpt lat="38.48286568" lon="-2.55287088">
        <ele>1097.0000</ele>
        <time>2018-10-13T11:11:53Z</time>
      </trkpt>
      <trkpt lat="38.48295084" lon="-2.55276468">
        <ele>1098.0000</ele>
        <time>2018-10-13T11:11:58Z</time>
      </trkpt>
      <trkpt lat="38.48303021" lon="-2.55265546">
        <ele>1099.0000</ele>
        <time>2018-10-13T11:12:03Z</time>
      </trkpt>
      <trkpt lat="38.48310682" lon="-2.55253560">
        <ele>1101.0000</ele>
        <time>2018-10-13T11:12:08Z</time>
      </trkpt>
      <trkpt lat="38.48317245" lon="-2.55243561">
        <ele>1102.0000</ele>
        <time>2018-10-13T11:12:12Z</time>
      </trkpt>
      <trkpt lat="38.48324504" lon="-2.55231658">
        <ele>1103.0000</ele>
        <time>2018-10-13T11:12:17Z</time>
      </trkpt>
      <trkpt lat="38.48331361" lon="-2.55219714">
        <ele>1104.0000</ele>
        <time>2018-10-13T11:12:22Z</time>
      </trkpt>
      <trkpt lat="38.48337094" lon="-2.55206831">
        <ele>1105.0000</ele>
        <time>2018-10-13T11:12:27Z</time>
      </trkpt>
      <trkpt lat="38.48342869" lon="-2.55193990">
        <ele>1106.0000</ele>
        <time>2018-10-13T11:12:32Z</time>
      </trkpt>
      <trkpt lat="38.48351695" lon="-2.55183588">
        <ele>1107.0000</ele>
        <time>2018-10-13T11:12:37Z</time>
      </trkpt>
      <trkpt lat="38.48361653" lon="-2.55179967">
        <ele>1108.0000</ele>
        <time>2018-10-13T11:12:41Z</time>
      </trkpt>
      <trkpt lat="38.48375927" lon="-2.55181610">
        <ele>1109.0000</ele>
        <time>2018-10-13T11:12:46Z</time>
      </trkpt>
      <trkpt lat="38.48387855" lon="-2.55191392">
        <ele>1110.0000</ele>
        <time>2018-10-13T11:12:51Z</time>
      </trkpt>
      <trkpt lat="38.48395960" lon="-2.55203110">
        <ele>1112.0000</ele>
        <time>2018-10-13T11:12:56Z</time>
      </trkpt>
      <trkpt lat="38.48403579" lon="-2.55219019">
        <ele>1113.0000</ele>
        <time>2018-10-13T11:13:02Z</time>
      </trkpt>
      <trkpt lat="38.48413201" lon="-2.55236411">
        <ele>1114.0000</ele>
        <time>2018-10-13T11:13:09Z</time>
      </trkpt>
      <trkpt lat="38.48422204" lon="-2.55241524">
        <ele>1115.0000</ele>
        <time>2018-10-13T11:13:13Z</time>
      </trkpt>
      <trkpt lat="38.48431122" lon="-2.55237031">
        <ele>1116.0000</ele>
        <time>2018-10-13T11:13:17Z</time>
      </trkpt>
      <trkpt lat="38.48439278" lon="-2.55224257">
        <ele>1117.0000</ele>
        <time>2018-10-13T11:13:22Z</time>
      </trkpt>
      <trkpt lat="38.48446503" lon="-2.55209404">
        <ele>1118.0000</ele>
        <time>2018-10-13T11:13:27Z</time>
      </trkpt>
      <trkpt lat="38.48454474" lon="-2.55192280">
        <ele>1119.0000</ele>
        <time>2018-10-13T11:13:33Z</time>
      </trkpt>
      <trkpt lat="38.48460660" lon="-2.55180118">
        <ele>1120.0000</ele>
        <time>2018-10-13T11:13:38Z</time>
      </trkpt>
      <trkpt lat="38.48469712" lon="-2.55172591">
        <ele>1121.0000</ele>
        <time>2018-10-13T11:13:43Z</time>
      </trkpt>
      <trkpt lat="38.48474750" lon="-2.55173496">
        <ele>1121.0000</ele>
        <time>2018-10-13T11:13:45Z</time>
      </trkpt>
      <trkpt lat="38.48487256" lon="-2.55177788">
        <ele>1122.0000</ele>
        <time>2018-10-13T11:13:50Z</time>
      </trkpt>
      <trkpt lat="38.48503097" lon="-2.55191450">
        <ele>1123.0000</ele>
        <time>2018-10-13T11:13:56Z</time>
      </trkpt>
      <trkpt lat="38.48522183" lon="-2.55210360">
        <ele>1125.0000</ele>
        <time>2018-10-13T11:14:05Z</time>
      </trkpt>
      <trkpt lat="38.48541545" lon="-2.55215423">
        <ele>1126.0000</ele>
        <time>2018-10-13T11:14:13Z</time>
      </trkpt>
      <trkpt lat="38.48551578" lon="-2.55217711">
        <ele>1127.0000</ele>
        <time>2018-10-13T11:14:17Z</time>
      </trkpt>
      <trkpt lat="38.48557504" lon="-2.55219806">
        <ele>1127.0000</ele>
        <time>2018-10-13T11:14:19Z</time>
      </trkpt>
      <trkpt lat="38.48563749" lon="-2.55222941">
        <ele>1128.0000</ele>
        <time>2018-10-13T11:14:21Z</time>
      </trkpt>
      <trkpt lat="38.48581108" lon="-2.55244282">
        <ele>1129.0000</ele>
        <time>2018-10-13T11:14:27Z</time>
      </trkpt>
      <trkpt lat="38.48609187" lon="-2.55293550">
        <ele>1130.0000</ele>
        <time>2018-10-13T11:14:41Z</time>
      </trkpt>
      <trkpt lat="38.48641776" lon="-2.55297197">
        <ele>1131.0000</ele>
        <time>2018-10-13T11:14:50Z</time>
      </trkpt>
      <trkpt lat="38.48644534" lon="-2.55297574">
        <ele>1131.0000</ele>
        <time>2018-10-13T11:14:51Z</time>
      </trkpt>
      <trkpt lat="38.48676159" lon="-2.55308898">
        <ele>1132.0000</ele>
        <time>2018-10-13T11:15:00Z</time>
      </trkpt>
      <trkpt lat="38.48683342" lon="-2.55325955">
        <ele>1132.0000</ele>
        <time>2018-10-13T11:15:04Z</time>
      </trkpt>
      <trkpt lat="38.48689259" lon="-2.55356691">
        <ele>1133.0000</ele>
        <time>2018-10-13T11:15:10Z</time>
      </trkpt>
      <trkpt lat="38.48694959" lon="-2.55370915">
        <ele>1134.0000</ele>
        <time>2018-10-13T11:15:13Z</time>
      </trkpt>
      <trkpt lat="38.48703073" lon="-2.55383354">
        <ele>1134.0000</ele>
        <time>2018-10-13T11:15:16Z</time>
      </trkpt>
      <trkpt lat="38.48708940" lon="-2.55390705">
        <ele>1135.0000</ele>
        <time>2018-10-13T11:15:18Z</time>
      </trkpt>
      <trkpt lat="38.48728395" lon="-2.55405507">
        <ele>1135.0000</ele>
        <time>2018-10-13T11:15:24Z</time>
      </trkpt>
      <trkpt lat="38.48735653" lon="-2.55409112">
        <ele>1136.0000</ele>
        <time>2018-10-13T11:15:26Z</time>
      </trkpt>
      <trkpt lat="38.48753197" lon="-2.55418374">
        <ele>1137.0000</ele>
        <time>2018-10-13T11:15:31Z</time>
      </trkpt>
      <trkpt lat="38.48765761" lon="-2.55427493">
        <ele>1137.0000</ele>
        <time>2018-10-13T11:15:35Z</time>
      </trkpt>
      <trkpt lat="38.48768770" lon="-2.55430075">
        <ele>1138.0000</ele>
        <time>2018-10-13T11:15:36Z</time>
      </trkpt>
      <trkpt lat="38.48773623" lon="-2.55440452">
        <ele>1138.0000</ele>
        <time>2018-10-13T11:15:39Z</time>
      </trkpt>
      <trkpt lat="38.48778560" lon="-2.55446436">
        <ele>1139.0000</ele>
        <time>2018-10-13T11:15:41Z</time>
      </trkpt>
      <trkpt lat="38.48789004" lon="-2.55459386">
        <ele>1140.0000</ele>
        <time>2018-10-13T11:15:45Z</time>
      </trkpt>
      <trkpt lat="38.48799523" lon="-2.55471264">
        <ele>1141.0000</ele>
        <time>2018-10-13T11:15:49Z</time>
      </trkpt>
      <trkpt lat="38.48813630" lon="-2.55474432">
        <ele>1142.0000</ele>
        <time>2018-10-13T11:15:53Z</time>
      </trkpt>
      <trkpt lat="38.48824904" lon="-2.55472973">
        <ele>1143.0000</ele>
        <time>2018-10-13T11:15:57Z</time>
      </trkpt>
      <trkpt lat="38.48831333" lon="-2.55472688">
        <ele>1144.0000</ele>
        <time>2018-10-13T11:16:00Z</time>
      </trkpt>
      <trkpt lat="38.48840863" lon="-2.55471121">
        <ele>1146.0000</ele>
        <time>2018-10-13T11:16:04Z</time>
      </trkpt>
      <trkpt lat="38.48853595" lon="-2.55471557">
        <ele>1147.0000</ele>
        <time>2018-10-13T11:16:09Z</time>
      </trkpt>
      <trkpt lat="38.48870661" lon="-2.55473166">
        <ele>1148.0000</ele>
        <time>2018-10-13T11:16:16Z</time>
      </trkpt>
      <trkpt lat="38.48885002" lon="-2.55482789">
        <ele>1149.0000</ele>
        <time>2018-10-13T11:16:22Z</time>
      </trkpt>
      <trkpt lat="38.48899511" lon="-2.55493157">
        <ele>1150.0000</ele>
        <time>2018-10-13T11:16:28Z</time>
      </trkpt>
      <trkpt lat="38.48919586" lon="-2.55506048">
        <ele>1151.0000</ele>
        <time>2018-10-13T11:16:35Z</time>
      </trkpt>
      <trkpt lat="38.48928756" lon="-2.55521656">
        <ele>1152.0000</ele>
        <time>2018-10-13T11:16:41Z</time>
      </trkpt>
      <trkpt lat="38.48939945" lon="-2.55543599">
        <ele>1154.0000</ele>
        <time>2018-10-13T11:16:48Z</time>
      </trkpt>
      <trkpt lat="38.48956994" lon="-2.55547019">
        <ele>1155.0000</ele>
        <time>2018-10-13T11:16:54Z</time>
      </trkpt>
      <trkpt lat="38.48974747" lon="-2.55541177">
        <ele>1156.0000</ele>
        <time>2018-10-13T11:17:00Z</time>
      </trkpt>
      <trkpt lat="38.48991544" lon="-2.55530859">
        <ele>1157.0000</ele>
        <time>2018-10-13T11:17:06Z</time>
      </trkpt>
      <trkpt lat="38.49016238" lon="-2.55515436">
        <ele>1157.0000</ele>
        <time>2018-10-13T11:17:14Z</time>
      </trkpt>
      <trkpt lat="38.49019817" lon="-2.55514028">
        <ele>1158.0000</ele>
        <time>2018-10-13T11:17:15Z</time>
      </trkpt>
      <trkpt lat="38.49035935" lon="-2.55517674">
        <ele>1158.0000</ele>
        <time>2018-10-13T11:17:19Z</time>
      </trkpt>
      <trkpt lat="38.49051710" lon="-2.55552585">
        <ele>1158.0000</ele>
        <time>2018-10-13T11:17:26Z</time>
      </trkpt>
      <trkpt lat="38.49051559" lon="-2.55558251">
        <ele>1158.0000</ele>
        <time>2018-10-13T11:17:27Z</time>
      </trkpt>
      <trkpt lat="38.49039740" lon="-2.55589264">
        <ele>1158.0000</ele>
        <time>2018-10-13T11:17:34Z</time>
      </trkpt>
      <trkpt lat="38.49027897" lon="-2.55617972">
        <ele>1159.0000</ele>
        <time>2018-10-13T11:17:41Z</time>
      </trkpt>
      <trkpt lat="38.49032616" lon="-2.55645196">
        <ele>1160.0000</ele>
        <time>2018-10-13T11:17:47Z</time>
      </trkpt>
      <trkpt lat="38.49039397" lon="-2.55659655">
        <ele>1160.0000</ele>
        <time>2018-10-13T11:17:50Z</time>
      </trkpt>
      <trkpt lat="38.49045549" lon="-2.55668289">
        <ele>1160.0000</ele>
        <time>2018-10-13T11:17:52Z</time>
      </trkpt>
      <trkpt lat="38.49049086" lon="-2.55671901">
        <ele>1161.0000</ele>
        <time>2018-10-13T11:17:53Z</time>
      </trkpt>
      <trkpt lat="38.49064350" lon="-2.55681691">
        <ele>1161.0000</ele>
        <time>2018-10-13T11:17:57Z</time>
      </trkpt>
      <trkpt lat="38.49085908" lon="-2.55692596">
        <ele>1162.0000</ele>
        <time>2018-10-13T11:18:03Z</time>
      </trkpt>
      <trkpt lat="38.49089973" lon="-2.55693795">
        <ele>1162.0000</ele>
        <time>2018-10-13T11:18:04Z</time>
      </trkpt>
      <trkpt lat="38.49107357" lon="-2.55703861">
        <ele>1163.0000</ele>
        <time>2018-10-13T11:18:09Z</time>
      </trkpt>
      <trkpt lat="38.49110869" lon="-2.55705990">
        <ele>1163.0000</ele>
        <time>2018-10-13T11:18:10Z</time>
      </trkpt>
      <trkpt lat="38.49122017" lon="-2.55712956">
        <ele>1163.0000</ele>
        <time>2018-10-13T11:18:13Z</time>
      </trkpt>
      <trkpt lat="38.49133953" lon="-2.55717289">
        <ele>1164.0000</ele>
        <time>2018-10-13T11:18:17Z</time>
      </trkpt>
      <trkpt lat="38.49136627" lon="-2.55718052">
        <ele>1164.0000</ele>
        <time>2018-10-13T11:18:18Z</time>
      </trkpt>
      <trkpt lat="38.49147842" lon="-2.55718228">
        <ele>1165.0000</ele>
        <time>2018-10-13T11:18:22Z</time>
      </trkpt>
      <trkpt lat="38.49161094" lon="-2.55713677">
        <ele>1166.0000</ele>
        <time>2018-10-13T11:18:26Z</time>
      </trkpt>
      <trkpt lat="38.49173205" lon="-2.55707843">
        <ele>1167.0000</ele>
        <time>2018-10-13T11:18:30Z</time>
      </trkpt>
      <trkpt lat="38.49191553" lon="-2.55712226">
        <ele>1168.0000</ele>
        <time>2018-10-13T11:18:35Z</time>
      </trkpt>
      <trkpt lat="38.49217521" lon="-2.55722092">
        <ele>1169.0000</ele>
        <time>2018-10-13T11:18:42Z</time>
      </trkpt>
      <trkpt lat="38.49233153" lon="-2.55721857">
        <ele>1170.0000</ele>
        <time>2018-10-13T11:18:47Z</time>
      </trkpt>
      <trkpt lat="38.49255247" lon="-2.55712922">
        <ele>1171.0000</ele>
        <time>2018-10-13T11:18:54Z</time>
      </trkpt>
      <trkpt lat="38.49269237" lon="-2.55700970">
        <ele>1172.0000</ele>
        <time>2018-10-13T11:18:59Z</time>
      </trkpt>
      <trkpt lat="38.49279203" lon="-2.55684658">
        <ele>1173.0000</ele>
        <time>2018-10-13T11:19:04Z</time>
      </trkpt>
      <trkpt lat="38.49281424" lon="-2.55681197">
        <ele>1173.0000</ele>
        <time>2018-10-13T11:19:05Z</time>
      </trkpt>
      <trkpt lat="38.49288054" lon="-2.55671055">
        <ele>1174.0000</ele>
        <time>2018-10-13T11:19:08Z</time>
      </trkpt>
      <trkpt lat="38.49295145" lon="-2.55663192">
        <ele>1175.0000</ele>
        <time>2018-10-13T11:19:11Z</time>
      </trkpt>
      <trkpt lat="38.49309219" lon="-2.55648985">
        <ele>1176.0000</ele>
        <time>2018-10-13T11:19:17Z</time>
      </trkpt>
      <trkpt lat="38.49323468" lon="-2.55641894">
        <ele>1177.0000</ele>
        <time>2018-10-13T11:19:23Z</time>
      </trkpt>
      <trkpt lat="38.49338899" lon="-2.55634308">
        <ele>1178.0000</ele>
        <time>2018-10-13T11:19:29Z</time>
      </trkpt>
      <trkpt lat="38.49347088" lon="-2.55628491">
        <ele>1179.0000</ele>
        <time>2018-10-13T11:19:33Z</time>
      </trkpt>
      <trkpt lat="38.49356895" lon="-2.55621124">
        <ele>1181.0000</ele>
        <time>2018-10-13T11:19:37Z</time>
      </trkpt>
      <trkpt lat="38.49367397" lon="-2.55612666">
        <ele>1182.0000</ele>
        <time>2018-10-13T11:19:41Z</time>
      </trkpt>
      <trkpt lat="38.49375922" lon="-2.55603337">
        <ele>1183.0000</ele>
        <time>2018-10-13T11:19:45Z</time>
      </trkpt>
      <trkpt lat="38.49384211" lon="-2.55592332">
        <ele>1184.0000</ele>
        <time>2018-10-13T11:19:49Z</time>
      </trkpt>
      <trkpt lat="38.49393029" lon="-2.55580907">
        <ele>1185.0000</ele>
        <time>2018-10-13T11:19:53Z</time>
      </trkpt>
      <trkpt lat="38.49399617" lon="-2.55571419">
        <ele>1186.0000</ele>
        <time>2018-10-13T11:19:58Z</time>
      </trkpt>
      <trkpt lat="38.49399031" lon="-2.55573590">
        <ele>1186.0000</ele>
        <time>2018-10-13T11:20:00Z</time>
      </trkpt>
      <trkpt lat="38.49397279" lon="-2.55574746">
        <ele>1187.0000</ele>
        <time>2018-10-13T11:20:02Z</time>
      </trkpt>
      <trkpt lat="38.49397136" lon="-2.55574000">
        <ele>1187.0000</ele>
        <time>2018-10-13T11:20:04Z</time>
      </trkpt>
      <trkpt lat="38.49404848" lon="-2.55561260">
        <ele>1188.0000</ele>
        <time>2018-10-13T11:21:17Z</time>
      </trkpt>
      <trkpt lat="38.49406499" lon="-2.55558142">
        <ele>1188.0000</ele>
        <time>2018-10-13T11:21:18Z</time>
      </trkpt>
      <trkpt lat="38.49415920" lon="-2.55543096">
        <ele>1188.0000</ele>
        <time>2018-10-13T11:21:23Z</time>
      </trkpt>
      <trkpt lat="38.49422466" lon="-2.55534891">
        <ele>1189.0000</ele>
        <time>2018-10-13T11:21:26Z</time>
      </trkpt>
      <trkpt lat="38.49432961" lon="-2.55525394">
        <ele>1189.0000</ele>
        <time>2018-10-13T11:21:30Z</time>
      </trkpt>
      <trkpt lat="38.49446682" lon="-2.55514338">
        <ele>1190.0000</ele>
        <time>2018-10-13T11:21:34Z</time>
      </trkpt>
      <trkpt lat="38.49459280" lon="-2.55504012">
        <ele>1190.0000</ele>
        <time>2018-10-13T11:21:37Z</time>
      </trkpt>
      <trkpt lat="38.49505171" lon="-2.55465094">
        <ele>1188.0000</ele>
        <time>2018-10-13T11:21:46Z</time>
      </trkpt>
      <trkpt lat="38.49510191" lon="-2.55460543">
        <ele>1188.0000</ele>
        <time>2018-10-13T11:21:47Z</time>
      </trkpt>
      <trkpt lat="38.49525203" lon="-2.55448138">
        <ele>1187.0000</ele>
        <time>2018-10-13T11:21:50Z</time>
      </trkpt>
      <trkpt lat="38.49551799" lon="-2.55426848">
        <ele>1186.0000</ele>
        <time>2018-10-13T11:21:56Z</time>
      </trkpt>
      <trkpt lat="38.49566484" lon="-2.55419639">
        <ele>1186.0000</ele>
        <time>2018-10-13T11:21:59Z</time>
      </trkpt>
      <trkpt lat="38.49576090" lon="-2.55416739">
        <ele>1186.0000</ele>
        <time>2018-10-13T11:22:01Z</time>
      </trkpt>
      <trkpt lat="38.49591370" lon="-2.55420142">
        <ele>1186.0000</ele>
        <time>2018-10-13T11:22:04Z</time>
      </trkpt>
      <trkpt lat="38.49600532" lon="-2.55426647">
        <ele>1186.0000</ele>
        <time>2018-10-13T11:22:06Z</time>
      </trkpt>
      <trkpt lat="38.49604630" lon="-2.55430486">
        <ele>1185.0000</ele>
        <time>2018-10-13T11:22:07Z</time>
      </trkpt>
      <trkpt lat="38.49617463" lon="-2.55450728">
        <ele>1185.0000</ele>
        <time>2018-10-13T11:22:11Z</time>
      </trkpt>
      <trkpt lat="38.49620078" lon="-2.55456587">
        <ele>1185.0000</ele>
        <time>2018-10-13T11:22:12Z</time>
      </trkpt>
      <trkpt lat="38.49622098" lon="-2.55462613">
        <ele>1185.0000</ele>
        <time>2018-10-13T11:22:13Z</time>
      </trkpt>
      <trkpt lat="38.49623875" lon="-2.55481406">
        <ele>1185.0000</ele>
        <time>2018-10-13T11:22:16Z</time>
      </trkpt>
      <trkpt lat="38.49623171" lon="-2.55495093">
        <ele>1185.0000</ele>
        <time>2018-10-13T11:22:18Z</time>
      </trkpt>
      <trkpt lat="38.49620413" lon="-2.55525453">
        <ele>1184.0000</ele>
        <time>2018-10-13T11:22:22Z</time>
      </trkpt>
      <trkpt lat="38.49620732" lon="-2.55549592">
        <ele>1184.0000</ele>
        <time>2018-10-13T11:22:25Z</time>
      </trkpt>
      <trkpt lat="38.49622417" lon="-2.55565920">
        <ele>1184.0000</ele>
        <time>2018-10-13T11:22:27Z</time>
      </trkpt>
      <trkpt lat="38.49624336" lon="-2.55573674">
        <ele>1183.0000</ele>
        <time>2018-10-13T11:22:28Z</time>
      </trkpt>
      <trkpt lat="38.49633255" lon="-2.55594511">
        <ele>1183.0000</ele>
        <time>2018-10-13T11:22:31Z</time>
      </trkpt>
      <trkpt lat="38.49647277" lon="-2.55622104">
        <ele>1182.0000</ele>
        <time>2018-10-13T11:22:35Z</time>
      </trkpt>
      <trkpt lat="38.49662776" lon="-2.55652799">
        <ele>1181.0000</ele>
        <time>2018-10-13T11:22:39Z</time>
      </trkpt>
      <trkpt lat="38.49666707" lon="-2.55661449">
        <ele>1181.0000</ele>
        <time>2018-10-13T11:22:40Z</time>
      </trkpt>
      <trkpt lat="38.49682725" lon="-2.55697969">
        <ele>1180.0000</ele>
        <time>2018-10-13T11:22:44Z</time>
      </trkpt>
      <trkpt lat="38.49697804" lon="-2.55739250">
        <ele>1179.0000</ele>
        <time>2018-10-13T11:22:48Z</time>
      </trkpt>
      <trkpt lat="38.49702514" lon="-2.55762644">
        <ele>1178.0000</ele>
        <time>2018-10-13T11:22:50Z</time>
      </trkpt>
      <trkpt lat="38.49703227" lon="-2.55774990">
        <ele>1177.0000</ele>
        <time>2018-10-13T11:22:51Z</time>
      </trkpt>
      <trkpt lat="38.49700670" lon="-2.55800848">
        <ele>1176.0000</ele>
        <time>2018-10-13T11:22:53Z</time>
      </trkpt>
      <trkpt lat="38.49698256" lon="-2.55813765">
        <ele>1176.0000</ele>
        <time>2018-10-13T11:22:54Z</time>
      </trkpt>
      <trkpt lat="38.49696773" lon="-2.55827042">
        <ele>1176.0000</ele>
        <time>2018-10-13T11:22:55Z</time>
      </trkpt>
      <trkpt lat="38.49696605" lon="-2.55853738">
        <ele>1175.0000</ele>
        <time>2018-10-13T11:22:57Z</time>
      </trkpt>
      <trkpt lat="38.49701140" lon="-2.55879881">
        <ele>1173.0000</ele>
        <time>2018-10-13T11:22:59Z</time>
      </trkpt>
      <trkpt lat="38.49704149" lon="-2.55892940">
        <ele>1172.0000</ele>
        <time>2018-10-13T11:23:00Z</time>
      </trkpt>
      <trkpt lat="38.49707351" lon="-2.55906058">
        <ele>1171.0000</ele>
        <time>2018-10-13T11:23:01Z</time>
      </trkpt>
      <trkpt lat="38.49714333" lon="-2.55932964">
        <ele>1169.0000</ele>
        <time>2018-10-13T11:23:03Z</time>
      </trkpt>
      <trkpt lat="38.49722379" lon="-2.55959870">
        <ele>1168.0000</ele>
        <time>2018-10-13T11:23:05Z</time>
      </trkpt>
      <trkpt lat="38.49736226" lon="-2.55999449">
        <ele>1167.0000</ele>
        <time>2018-10-13T11:23:08Z</time>
      </trkpt>
      <trkpt lat="38.49743125" lon="-2.56025844">
        <ele>1166.0000</ele>
        <time>2018-10-13T11:23:10Z</time>
      </trkpt>
      <trkpt lat="38.49743317" lon="-2.56053336">
        <ele>1165.0000</ele>
        <time>2018-10-13T11:23:12Z</time>
      </trkpt>
      <trkpt lat="38.49742672" lon="-2.56079832">
        <ele>1163.0000</ele>
        <time>2018-10-13T11:23:14Z</time>
      </trkpt>
      <trkpt lat="38.49753015" lon="-2.56115748">
        <ele>1162.0000</ele>
        <time>2018-10-13T11:23:17Z</time>
      </trkpt>
      <trkpt lat="38.49774406" lon="-2.56145412">
        <ele>1161.0000</ele>
        <time>2018-10-13T11:23:20Z</time>
      </trkpt>
      <trkpt lat="38.49782268" lon="-2.56154892">
        <ele>1161.0000</ele>
        <time>2018-10-13T11:23:21Z</time>
      </trkpt>
      <trkpt lat="38.49806047" lon="-2.56183817">
        <ele>1160.0000</ele>
        <time>2018-10-13T11:23:24Z</time>
      </trkpt>
      <trkpt lat="38.49822099" lon="-2.56201168">
        <ele>1158.0000</ele>
        <time>2018-10-13T11:23:26Z</time>
      </trkpt>
      <trkpt lat="38.49840438" lon="-2.56210430">
        <ele>1157.0000</ele>
        <time>2018-10-13T11:23:28Z</time>
      </trkpt>
      <trkpt lat="38.49860094" lon="-2.56211436">
        <ele>1156.0000</ele>
        <time>2018-10-13T11:23:30Z</time>
      </trkpt>
      <trkpt lat="38.49870387" lon="-2.56210631">
        <ele>1155.0000</ele>
        <time>2018-10-13T11:23:31Z</time>
      </trkpt>
      <trkpt lat="38.49891275" lon="-2.56210547">
        <ele>1155.0000</ele>
        <time>2018-10-13T11:23:33Z</time>
      </trkpt>
      <trkpt lat="38.49923746" lon="-2.56211536">
        <ele>1154.0000</ele>
        <time>2018-10-13T11:23:36Z</time>
      </trkpt>
      <trkpt lat="38.49946076" lon="-2.56211377">
        <ele>1153.0000</ele>
        <time>2018-10-13T11:23:38Z</time>
      </trkpt>
      <trkpt lat="38.49969117" lon="-2.56209852">
        <ele>1151.0000</ele>
        <time>2018-10-13T11:23:40Z</time>
      </trkpt>
      <trkpt lat="38.49992327" lon="-2.56207488">
        <ele>1150.0000</ele>
        <time>2018-10-13T11:23:42Z</time>
      </trkpt>
      <trkpt lat="38.50004187" lon="-2.56207019">
        <ele>1149.0000</ele>
        <time>2018-10-13T11:23:43Z</time>
      </trkpt>
      <trkpt lat="38.50015721" lon="-2.56207748">
        <ele>1148.0000</ele>
        <time>2018-10-13T11:23:44Z</time>
      </trkpt>
      <trkpt lat="38.50027414" lon="-2.56210078">
        <ele>1147.0000</ele>
        <time>2018-10-13T11:23:45Z</time>
      </trkpt>
      <trkpt lat="38.50051872" lon="-2.56217655">
        <ele>1145.0000</ele>
        <time>2018-10-13T11:23:47Z</time>
      </trkpt>
      <trkpt lat="38.50074964" lon="-2.56227714">
        <ele>1143.0000</ele>
        <time>2018-10-13T11:23:49Z</time>
      </trkpt>
      <trkpt lat="38.50085182" lon="-2.56233606">
        <ele>1142.0000</ele>
        <time>2018-10-13T11:23:50Z</time>
      </trkpt>
      <trkpt lat="38.50094896" lon="-2.56241166">
        <ele>1142.0000</ele>
        <time>2018-10-13T11:23:51Z</time>
      </trkpt>
      <trkpt lat="38.50110059" lon="-2.56261233">
        <ele>1140.0000</ele>
        <time>2018-10-13T11:23:53Z</time>
      </trkpt>
      <trkpt lat="38.50126521" lon="-2.56278868">
        <ele>1139.0000</ele>
        <time>2018-10-13T11:23:55Z</time>
      </trkpt>
      <trkpt lat="38.50145188" lon="-2.56290058">
        <ele>1138.0000</ele>
        <time>2018-10-13T11:23:57Z</time>
      </trkpt>
      <trkpt lat="38.50154240" lon="-2.56292900">
        <ele>1138.0000</ele>
        <time>2018-10-13T11:23:58Z</time>
      </trkpt>
      <trkpt lat="38.50187424" lon="-2.56283378">
        <ele>1137.0000</ele>
        <time>2018-10-13T11:24:02Z</time>
      </trkpt>
      <trkpt lat="38.50194825" lon="-2.56276647">
        <ele>1137.0000</ele>
        <time>2018-10-13T11:24:03Z</time>
      </trkpt>
      <trkpt lat="38.50208848" lon="-2.56260763">
        <ele>1137.0000</ele>
        <time>2018-10-13T11:24:05Z</time>
      </trkpt>
      <trkpt lat="38.50237707" lon="-2.56227085">
        <ele>1135.0000</ele>
        <time>2018-10-13T11:24:09Z</time>
      </trkpt>
      <trkpt lat="38.50245276" lon="-2.56219206">
        <ele>1134.0000</ele>
        <time>2018-10-13T11:24:10Z</time>
      </trkpt>
      <trkpt lat="38.50260715" lon="-2.56204009">
        <ele>1132.0000</ele>
        <time>2018-10-13T11:24:12Z</time>
      </trkpt>
      <trkpt lat="38.50269299" lon="-2.56197421">
        <ele>1131.0000</ele>
        <time>2018-10-13T11:24:13Z</time>
      </trkpt>
      <trkpt lat="38.50278644" lon="-2.56192543">
        <ele>1131.0000</ele>
        <time>2018-10-13T11:24:14Z</time>
      </trkpt>
      <trkpt lat="38.50308811" lon="-2.56182451">
        <ele>1130.0000</ele>
        <time>2018-10-13T11:24:17Z</time>
      </trkpt>
      <trkpt lat="38.50326840" lon="-2.56178277">
        <ele>1129.0000</ele>
        <time>2018-10-13T11:24:19Z</time>
      </trkpt>
      <trkpt lat="38.50335214" lon="-2.56179224">
        <ele>1129.0000</ele>
        <time>2018-10-13T11:24:20Z</time>
      </trkpt>
      <trkpt lat="38.50355691" lon="-2.56198855">
        <ele>1127.0000</ele>
        <time>2018-10-13T11:24:23Z</time>
      </trkpt>
      <trkpt lat="38.50365322" lon="-2.56218602">
        <ele>1126.0000</ele>
        <time>2018-10-13T11:24:25Z</time>
      </trkpt>
      <trkpt lat="38.50371859" lon="-2.56278600">
        <ele>1125.0000</ele>
        <time>2018-10-13T11:24:30Z</time>
      </trkpt>
      <trkpt lat="38.50372555" lon="-2.56304173">
        <ele>1125.0000</ele>
        <time>2018-10-13T11:24:32Z</time>
      </trkpt>
      <trkpt lat="38.50371340" lon="-2.56344817">
        <ele>1124.0000</ele>
        <time>2018-10-13T11:24:35Z</time>
      </trkpt>
      <trkpt lat="38.50368716" lon="-2.56388286">
        <ele>1122.0000</ele>
        <time>2018-10-13T11:24:38Z</time>
      </trkpt>
      <trkpt lat="38.50368113" lon="-2.56416860">
        <ele>1121.0000</ele>
        <time>2018-10-13T11:24:40Z</time>
      </trkpt>
      <trkpt lat="38.50368708" lon="-2.56429240">
        <ele>1121.0000</ele>
        <time>2018-10-13T11:24:41Z</time>
      </trkpt>
      <trkpt lat="38.50370510" lon="-2.56440379">
        <ele>1120.0000</ele>
        <time>2018-10-13T11:24:42Z</time>
      </trkpt>
      <trkpt lat="38.50379797" lon="-2.56457277">
        <ele>1118.0000</ele>
        <time>2018-10-13T11:24:44Z</time>
      </trkpt>
      <trkpt lat="38.50386905" lon="-2.56462616">
        <ele>1116.0000</ele>
        <time>2018-10-13T11:24:45Z</time>
      </trkpt>
      <trkpt lat="38.50401096" lon="-2.56465257">
        <ele>1115.0000</ele>
        <time>2018-10-13T11:24:47Z</time>
      </trkpt>
      <trkpt lat="38.50417264" lon="-2.56448836">
        <ele>1114.0000</ele>
        <time>2018-10-13T11:24:50Z</time>
      </trkpt>
      <trkpt lat="38.50435805" lon="-2.56419131">
        <ele>1114.0000</ele>
        <time>2018-10-13T11:24:54Z</time>
      </trkpt>
      <trkpt lat="38.50439879" lon="-2.56410355">
        <ele>1114.0000</ele>
        <time>2018-10-13T11:24:55Z</time>
      </trkpt>
      <trkpt lat="38.50443240" lon="-2.56401118">
        <ele>1114.0000</ele>
        <time>2018-10-13T11:24:56Z</time>
      </trkpt>
      <trkpt lat="38.50455234" lon="-2.56372511">
        <ele>1113.0000</ele>
        <time>2018-10-13T11:24:59Z</time>
      </trkpt>
      <trkpt lat="38.50462183" lon="-2.56353107">
        <ele>1112.0000</ele>
        <time>2018-10-13T11:25:01Z</time>
      </trkpt>
      <trkpt lat="38.50465259" lon="-2.56343476">
        <ele>1111.0000</ele>
        <time>2018-10-13T11:25:02Z</time>
      </trkpt>
      <trkpt lat="38.50469333" lon="-2.56334767">
        <ele>1111.0000</ele>
        <time>2018-10-13T11:25:03Z</time>
      </trkpt>
      <trkpt lat="38.50488586" lon="-2.56316377">
        <ele>1110.0000</ele>
        <time>2018-10-13T11:25:06Z</time>
      </trkpt>
      <trkpt lat="38.50496289" lon="-2.56311231">
        <ele>1110.0000</ele>
        <time>2018-10-13T11:25:07Z</time>
      </trkpt>
      <trkpt lat="38.50525315" lon="-2.56286546">
        <ele>1109.0000</ele>
        <time>2018-10-13T11:25:11Z</time>
      </trkpt>
      <trkpt lat="38.50548977" lon="-2.56270000">
        <ele>1109.0000</ele>
        <time>2018-10-13T11:25:14Z</time>
      </trkpt>
      <trkpt lat="38.50573436" lon="-2.56262356">
        <ele>1108.0000</ele>
        <time>2018-10-13T11:25:17Z</time>
      </trkpt>
      <trkpt lat="38.50586830" lon="-2.56268223">
        <ele>1106.0000</ele>
        <time>2018-10-13T11:25:19Z</time>
      </trkpt>
      <trkpt lat="38.50597743" lon="-2.56283788">
        <ele>1104.0000</ele>
        <time>2018-10-13T11:25:21Z</time>
      </trkpt>
      <trkpt lat="38.50599076" lon="-2.56314768">
        <ele>1103.0000</ele>
        <time>2018-10-13T11:25:24Z</time>
      </trkpt>
      <trkpt lat="38.50587476" lon="-2.56337692">
        <ele>1102.0000</ele>
        <time>2018-10-13T11:25:26Z</time>
      </trkpt>
      <trkpt lat="38.50578155" lon="-2.56361757">
        <ele>1101.0000</ele>
        <time>2018-10-13T11:25:28Z</time>
      </trkpt>
      <trkpt lat="38.50569681" lon="-2.56386995">
        <ele>1101.0000</ele>
        <time>2018-10-13T11:25:30Z</time>
      </trkpt>
      <trkpt lat="38.50566144" lon="-2.56400682">
        <ele>1100.0000</ele>
        <time>2018-10-13T11:25:31Z</time>
      </trkpt>
      <trkpt lat="38.50563562" lon="-2.56414814">
        <ele>1100.0000</ele>
        <time>2018-10-13T11:25:32Z</time>
      </trkpt>
      <trkpt lat="38.50562615" lon="-2.56443497">
        <ele>1099.0000</ele>
        <time>2018-10-13T11:25:34Z</time>
      </trkpt>
      <trkpt lat="38.50565942" lon="-2.56469339">
        <ele>1097.0000</ele>
        <time>2018-10-13T11:25:36Z</time>
      </trkpt>
      <trkpt lat="38.50573101" lon="-2.56489874">
        <ele>1096.0000</ele>
        <time>2018-10-13T11:25:38Z</time>
      </trkpt>
      <trkpt lat="38.50585003" lon="-2.56505096">
        <ele>1094.0000</ele>
        <time>2018-10-13T11:25:40Z</time>
      </trkpt>
      <trkpt lat="38.50601121" lon="-2.56511977">
        <ele>1092.0000</ele>
        <time>2018-10-13T11:25:42Z</time>
      </trkpt>
      <trkpt lat="38.50610216" lon="-2.56513142">
        <ele>1092.0000</ele>
        <time>2018-10-13T11:25:43Z</time>
      </trkpt>
      <trkpt lat="38.50619427" lon="-2.56514618">
        <ele>1091.0000</ele>
        <time>2018-10-13T11:25:44Z</time>
      </trkpt>
      <trkpt lat="38.50628681" lon="-2.56516789">
        <ele>1091.0000</ele>
        <time>2018-10-13T11:25:45Z</time>
      </trkpt>
      <trkpt lat="38.50655017" lon="-2.56533242">
        <ele>1090.0000</ele>
        <time>2018-10-13T11:25:48Z</time>
      </trkpt>
      <trkpt lat="38.50673792" lon="-2.56565563">
        <ele>1089.0000</ele>
        <time>2018-10-13T11:25:51Z</time>
      </trkpt>
      <trkpt lat="38.50682141" lon="-2.56591002">
        <ele>1087.0000</ele>
        <time>2018-10-13T11:25:53Z</time>
      </trkpt>
      <trkpt lat="38.50684479" lon="-2.56604656">
        <ele>1086.0000</ele>
        <time>2018-10-13T11:25:54Z</time>
      </trkpt>
      <trkpt lat="38.50684546" lon="-2.56632794">
        <ele>1084.0000</ele>
        <time>2018-10-13T11:25:56Z</time>
      </trkpt>
      <trkpt lat="38.50680062" lon="-2.56661050">
        <ele>1083.0000</ele>
        <time>2018-10-13T11:25:58Z</time>
      </trkpt>
      <trkpt lat="38.50676936" lon="-2.56674938">
        <ele>1082.0000</ele>
        <time>2018-10-13T11:25:59Z</time>
      </trkpt>
      <trkpt lat="38.50674496" lon="-2.56688735">
        <ele>1081.0000</ele>
        <time>2018-10-13T11:26:00Z</time>
      </trkpt>
      <trkpt lat="38.50673407" lon="-2.56716848">
        <ele>1079.0000</ele>
        <time>2018-10-13T11:26:02Z</time>
      </trkpt>
      <trkpt lat="38.50677723" lon="-2.56744257">
        <ele>1078.0000</ele>
        <time>2018-10-13T11:26:04Z</time>
      </trkpt>
      <trkpt lat="38.50685745" lon="-2.56770442">
        <ele>1077.0000</ele>
        <time>2018-10-13T11:26:06Z</time>
      </trkpt>
      <trkpt lat="38.50693884" lon="-2.56797004">
        <ele>1076.0000</ele>
        <time>2018-10-13T11:26:08Z</time>
      </trkpt>
      <trkpt lat="38.50700204" lon="-2.56825033">
        <ele>1075.0000</ele>
        <time>2018-10-13T11:26:10Z</time>
      </trkpt>
      <trkpt lat="38.50702031" lon="-2.56839802">
        <ele>1075.0000</ele>
        <time>2018-10-13T11:26:11Z</time>
      </trkpt>
      <trkpt lat="38.50702995" lon="-2.56870203">
        <ele>1074.0000</ele>
        <time>2018-10-13T11:26:13Z</time>
      </trkpt>
      <trkpt lat="38.50701394" lon="-2.56901401">
        <ele>1074.0000</ele>
        <time>2018-10-13T11:26:15Z</time>
      </trkpt>
      <trkpt lat="38.50700631" lon="-2.56931953">
        <ele>1072.0000</ele>
        <time>2018-10-13T11:26:17Z</time>
      </trkpt>
      <trkpt lat="38.50701092" lon="-2.56958481">
        <ele>1070.0000</ele>
        <time>2018-10-13T11:26:19Z</time>
      </trkpt>
      <trkpt lat="38.50703406" lon="-2.56970384">
        <ele>1070.0000</ele>
        <time>2018-10-13T11:26:20Z</time>
      </trkpt>
      <trkpt lat="38.50707320" lon="-2.56982018">
        <ele>1069.0000</ele>
        <time>2018-10-13T11:26:21Z</time>
      </trkpt>
      <trkpt lat="38.50722935" lon="-2.57000165">
        <ele>1068.0000</ele>
        <time>2018-10-13T11:26:23Z</time>
      </trkpt>
      <trkpt lat="38.50741568" lon="-2.57015411">
        <ele>1067.0000</ele>
        <time>2018-10-13T11:26:25Z</time>
      </trkpt>
      <trkpt lat="38.50750814" lon="-2.57023617">
        <ele>1066.0000</ele>
        <time>2018-10-13T11:26:26Z</time>
      </trkpt>
      <trkpt lat="38.50773755" lon="-2.57056491">
        <ele>1065.0000</ele>
        <time>2018-10-13T11:26:29Z</time>
      </trkpt>
      <trkpt lat="38.50780360" lon="-2.57068955">
        <ele>1064.0000</ele>
        <time>2018-10-13T11:26:30Z</time>
      </trkpt>
      <trkpt lat="38.50787392" lon="-2.57080270">
        <ele>1063.0000</ele>
        <time>2018-10-13T11:26:31Z</time>
      </trkpt>
      <trkpt lat="38.50795087" lon="-2.57089599">
        <ele>1062.0000</ele>
        <time>2018-10-13T11:26:32Z</time>
      </trkpt>
      <trkpt lat="38.50803460" lon="-2.57096850">
        <ele>1061.0000</ele>
        <time>2018-10-13T11:26:33Z</time>
      </trkpt>
      <trkpt lat="38.50812345" lon="-2.57101946">
        <ele>1060.0000</ele>
        <time>2018-10-13T11:26:34Z</time>
      </trkpt>
      <trkpt lat="38.50829059" lon="-2.57113035">
        <ele>1058.0000</ele>
        <time>2018-10-13T11:26:36Z</time>
      </trkpt>
      <trkpt lat="38.50841606" lon="-2.57131216">
        <ele>1057.0000</ele>
        <time>2018-10-13T11:26:38Z</time>
      </trkpt>
      <trkpt lat="38.50848974" lon="-2.57153880">
        <ele>1056.0000</ele>
        <time>2018-10-13T11:26:40Z</time>
      </trkpt>
      <trkpt lat="38.50855864" lon="-2.57177609">
        <ele>1056.0000</ele>
        <time>2018-10-13T11:26:42Z</time>
      </trkpt>
      <trkpt lat="38.50860047" lon="-2.57189604">
        <ele>1055.0000</ele>
        <time>2018-10-13T11:26:43Z</time>
      </trkpt>
      <trkpt lat="38.50880306" lon="-2.57221816">
        <ele>1054.0000</ele>
        <time>2018-10-13T11:26:46Z</time>
      </trkpt>
      <trkpt lat="38.50908268" lon="-2.57246433">
        <ele>1053.0000</ele>
        <time>2018-10-13T11:26:49Z</time>
      </trkpt>
      <trkpt lat="38.50930287" lon="-2.57256802">
        <ele>1051.0000</ele>
        <time>2018-10-13T11:26:51Z</time>
      </trkpt>
      <trkpt lat="38.50941653" lon="-2.57260096">
        <ele>1051.0000</ele>
        <time>2018-10-13T11:26:52Z</time>
      </trkpt>
      <trkpt lat="38.50952181" lon="-2.57264438">
        <ele>1050.0000</ele>
        <time>2018-10-13T11:26:53Z</time>
      </trkpt>
      <trkpt lat="38.50971342" lon="-2.57277756">
        <ele>1048.0000</ele>
        <time>2018-10-13T11:26:55Z</time>
      </trkpt>
      <trkpt lat="38.50987502" lon="-2.57294571">
        <ele>1046.0000</ele>
        <time>2018-10-13T11:26:57Z</time>
      </trkpt>
      <trkpt lat="38.50994786" lon="-2.57301662">
        <ele>1045.0000</ele>
        <time>2018-10-13T11:26:58Z</time>
      </trkpt>
      <trkpt lat="38.51002103" lon="-2.57306766">
        <ele>1045.0000</ele>
        <time>2018-10-13T11:26:59Z</time>
      </trkpt>
      <trkpt lat="38.51031532" lon="-2.57307286">
        <ele>1044.0000</ele>
        <time>2018-10-13T11:27:03Z</time>
      </trkpt>
      <trkpt lat="38.51064641" lon="-2.57280740">
        <ele>1043.0000</ele>
        <time>2018-10-13T11:27:08Z</time>
      </trkpt>
      <trkpt lat="38.51087280" lon="-2.57251370">
        <ele>1042.0000</ele>
        <time>2018-10-13T11:27:12Z</time>
      </trkpt>
      <trkpt lat="38.51093491" lon="-2.57244698">
        <ele>1042.0000</ele>
        <time>2018-10-13T11:27:13Z</time>
      </trkpt>
      <trkpt lat="38.51132609" lon="-2.57219293">
        <ele>1041.0000</ele>
        <time>2018-10-13T11:27:18Z</time>
      </trkpt>
      <trkpt lat="38.51146590" lon="-2.57203225">
        <ele>1041.0000</ele>
        <time>2018-10-13T11:27:20Z</time>
      </trkpt>
      <trkpt lat="38.51163547" lon="-2.57181507">
        <ele>1041.0000</ele>
        <time>2018-10-13T11:27:23Z</time>
      </trkpt>
      <trkpt lat="38.51169976" lon="-2.57178355">
        <ele>1040.0000</ele>
        <time>2018-10-13T11:27:24Z</time>
      </trkpt>
      <trkpt lat="38.51183990" lon="-2.57180878">
        <ele>1039.0000</ele>
        <time>2018-10-13T11:27:26Z</time>
      </trkpt>
      <trkpt lat="38.51192448" lon="-2.57195496">
        <ele>1037.0000</ele>
        <time>2018-10-13T11:27:28Z</time>
      </trkpt>
      <trkpt lat="38.51194350" lon="-2.57215261">
        <ele>1037.0000</ele>
        <time>2018-10-13T11:27:30Z</time>
      </trkpt>
      <trkpt lat="38.51194317" lon="-2.57237180">
        <ele>1036.0000</ele>
        <time>2018-10-13T11:27:32Z</time>
      </trkpt>
      <trkpt lat="38.51187838" lon="-2.57300170">
        <ele>1035.0000</ele>
        <time>2018-10-13T11:27:37Z</time>
      </trkpt>
      <trkpt lat="38.51184619" lon="-2.57328459">
        <ele>1034.0000</ele>
        <time>2018-10-13T11:27:39Z</time>
      </trkpt>
      <trkpt lat="38.51183731" lon="-2.57357871">
        <ele>1033.0000</ele>
        <time>2018-10-13T11:27:41Z</time>
      </trkpt>
      <trkpt lat="38.51187268" lon="-2.57387786">
        <ele>1031.0000</ele>
        <time>2018-10-13T11:27:43Z</time>
      </trkpt>
      <trkpt lat="38.51189715" lon="-2.57402999">
        <ele>1029.0000</ele>
        <time>2018-10-13T11:27:44Z</time>
      </trkpt>
      <trkpt lat="38.51192238" lon="-2.57417801">
        <ele>1028.0000</ele>
        <time>2018-10-13T11:27:45Z</time>
      </trkpt>
      <trkpt lat="38.51194946" lon="-2.57431296">
        <ele>1027.0000</ele>
        <time>2018-10-13T11:27:46Z</time>
      </trkpt>
      <trkpt lat="38.51198198" lon="-2.57443366">
        <ele>1026.0000</ele>
        <time>2018-10-13T11:27:47Z</time>
      </trkpt>
      <trkpt lat="38.51202355" lon="-2.57453894">
        <ele>1025.0000</ele>
        <time>2018-10-13T11:27:48Z</time>
      </trkpt>
      <trkpt lat="38.51207971" lon="-2.57462535">
        <ele>1023.0000</ele>
        <time>2018-10-13T11:27:49Z</time>
      </trkpt>
      <trkpt lat="38.51214626" lon="-2.57469652">
        <ele>1022.0000</ele>
        <time>2018-10-13T11:27:50Z</time>
      </trkpt>
      <trkpt lat="38.51222623" lon="-2.57473717">
        <ele>1020.0000</ele>
        <time>2018-10-13T11:27:51Z</time>
      </trkpt>
      <trkpt lat="38.51239638" lon="-2.57474203">
        <ele>1019.0000</ele>
        <time>2018-10-13T11:27:53Z</time>
      </trkpt>
      <trkpt lat="38.51248229" lon="-2.57472770">
        <ele>1018.0000</ele>
        <time>2018-10-13T11:27:54Z</time>
      </trkpt>
      <trkpt lat="38.51256997" lon="-2.57472384">
        <ele>1018.0000</ele>
        <time>2018-10-13T11:27:55Z</time>
      </trkpt>
      <trkpt lat="38.51274557" lon="-2.57475762">
        <ele>1018.0000</ele>
        <time>2018-10-13T11:27:57Z</time>
      </trkpt>
      <trkpt lat="38.51292653" lon="-2.57503548">
        <ele>1017.0000</ele>
        <time>2018-10-13T11:28:01Z</time>
      </trkpt>
      <trkpt lat="38.51288001" lon="-2.57521175">
        <ele>1016.0000</ele>
        <time>2018-10-13T11:28:03Z</time>
      </trkpt>
      <trkpt lat="38.51285923" lon="-2.57530261">
        <ele>1016.0000</ele>
        <time>2018-10-13T11:28:04Z</time>
      </trkpt>
      <trkpt lat="38.51285043" lon="-2.57539498">
        <ele>1016.0000</ele>
        <time>2018-10-13T11:28:05Z</time>
      </trkpt>
      <trkpt lat="38.51301396" lon="-2.57595095">
        <ele>1014.0000</ele>
        <time>2018-10-13T11:28:11Z</time>
      </trkpt>
      <trkpt lat="38.51305478" lon="-2.57603419">
        <ele>1013.0000</ele>
        <time>2018-10-13T11:28:12Z</time>
      </trkpt>
      <trkpt lat="38.51314312" lon="-2.57620291">
        <ele>1012.0000</ele>
        <time>2018-10-13T11:28:14Z</time>
      </trkpt>
      <trkpt lat="38.51319040" lon="-2.57628028">
        <ele>1012.0000</ele>
        <time>2018-10-13T11:28:15Z</time>
      </trkpt>
      <trkpt lat="38.51333750" lon="-2.57652344">
        <ele>1011.0000</ele>
        <time>2018-10-13T11:28:18Z</time>
      </trkpt>
      <trkpt lat="38.51349717" lon="-2.57679618">
        <ele>1011.0000</ele>
        <time>2018-10-13T11:28:21Z</time>
      </trkpt>
      <trkpt lat="38.51362307" lon="-2.57697715">
        <ele>1010.0000</ele>
        <time>2018-10-13T11:28:23Z</time>
      </trkpt>
      <trkpt lat="38.51380261" lon="-2.57709994">
        <ele>1010.0000</ele>
        <time>2018-10-13T11:28:25Z</time>
      </trkpt>
      <trkpt lat="38.51399053" lon="-2.57716893">
        <ele>1009.0000</ele>
        <time>2018-10-13T11:28:27Z</time>
      </trkpt>
      <trkpt lat="38.51417460" lon="-2.57729315">
        <ele>1007.0000</ele>
        <time>2018-10-13T11:28:29Z</time>
      </trkpt>
      <trkpt lat="38.51430670" lon="-2.57748434">
        <ele>1006.0000</ele>
        <time>2018-10-13T11:28:31Z</time>
      </trkpt>
      <trkpt lat="38.51440535" lon="-2.57771459">
        <ele>1005.0000</ele>
        <time>2018-10-13T11:28:33Z</time>
      </trkpt>
      <trkpt lat="38.51450401" lon="-2.57794895">
        <ele>1003.0000</ele>
        <time>2018-10-13T11:28:35Z</time>
      </trkpt>
      <trkpt lat="38.51464181" lon="-2.57817358">
        <ele>1002.0000</ele>
        <time>2018-10-13T11:28:37Z</time>
      </trkpt>
      <trkpt lat="38.51479587" lon="-2.57838221">
        <ele>1001.0000</ele>
        <time>2018-10-13T11:28:39Z</time>
      </trkpt>
      <trkpt lat="38.51496208" lon="-2.57857684">
        <ele>999.00000</ele>
        <time>2018-10-13T11:28:41Z</time>
      </trkpt>
      <trkpt lat="38.51504590" lon="-2.57867390">
        <ele>998.00000</ele>
        <time>2018-10-13T11:28:42Z</time>
      </trkpt>
      <trkpt lat="38.51520792" lon="-2.57885855">
        <ele>997.00000</ele>
        <time>2018-10-13T11:28:44Z</time>
      </trkpt>
      <trkpt lat="38.51536232" lon="-2.57903130">
        <ele>996.00000</ele>
        <time>2018-10-13T11:28:46Z</time>
      </trkpt>
      <trkpt lat="38.51551344" lon="-2.57917916">
        <ele>995.00000</ele>
        <time>2018-10-13T11:28:48Z</time>
      </trkpt>
      <trkpt lat="38.51593161" lon="-2.57926407">
        <ele>995.00000</ele>
        <time>2018-10-13T11:28:53Z</time>
      </trkpt>
      <trkpt lat="38.51611107" lon="-2.57924714">
        <ele>995.00000</ele>
        <time>2018-10-13T11:28:55Z</time>
      </trkpt>
      <trkpt lat="38.51648784" lon="-2.57918352">
        <ele>994.00000</ele>
        <time>2018-10-13T11:28:59Z</time>
      </trkpt>
      <trkpt lat="38.51697466" lon="-2.57906768">
        <ele>993.00000</ele>
        <time>2018-10-13T11:29:04Z</time>
      </trkpt>
      <trkpt lat="38.51718001" lon="-2.57907816">
        <ele>992.00000</ele>
        <time>2018-10-13T11:29:06Z</time>
      </trkpt>
      <trkpt lat="38.51738747" lon="-2.57911697">
        <ele>991.00000</ele>
        <time>2018-10-13T11:29:08Z</time>
      </trkpt>
      <trkpt lat="38.51748361" lon="-2.57915225">
        <ele>991.00000</ele>
        <time>2018-10-13T11:29:09Z</time>
      </trkpt>
      <trkpt lat="38.51764613" lon="-2.57929047">
        <ele>990.00000</ele>
        <time>2018-10-13T11:29:11Z</time>
      </trkpt>
      <trkpt lat="38.51781318" lon="-2.57962248">
        <ele>989.00000</ele>
        <time>2018-10-13T11:29:14Z</time>
      </trkpt>
      <trkpt lat="38.51790413" lon="-2.57987259">
        <ele>987.00000</ele>
        <time>2018-10-13T11:29:16Z</time>
      </trkpt>
      <trkpt lat="38.51792366" lon="-2.58045497">
        <ele>986.00000</ele>
        <time>2018-10-13T11:29:20Z</time>
      </trkpt>
      <trkpt lat="38.51790949" lon="-2.58060827">
        <ele>984.00000</ele>
        <time>2018-10-13T11:29:21Z</time>
      </trkpt>
      <trkpt lat="38.51789357" lon="-2.58076552">
        <ele>983.00000</ele>
        <time>2018-10-13T11:29:22Z</time>
      </trkpt>
      <trkpt lat="38.51787722" lon="-2.58092436">
        <ele>982.00000</ele>
        <time>2018-10-13T11:29:23Z</time>
      </trkpt>
      <trkpt lat="38.51786121" lon="-2.58108445">
        <ele>981.00000</ele>
        <time>2018-10-13T11:29:24Z</time>
      </trkpt>
      <trkpt lat="38.51784537" lon="-2.58124714">
        <ele>979.00000</ele>
        <time>2018-10-13T11:29:25Z</time>
      </trkpt>
      <trkpt lat="38.51781377" lon="-2.58157529">
        <ele>978.00000</ele>
        <time>2018-10-13T11:29:27Z</time>
      </trkpt>
      <trkpt lat="38.51778477" lon="-2.58188710">
        <ele>976.00000</ele>
        <time>2018-10-13T11:29:29Z</time>
      </trkpt>
      <trkpt lat="38.51777639" lon="-2.58202901">
        <ele>975.00000</ele>
        <time>2018-10-13T11:29:30Z</time>
      </trkpt>
      <trkpt lat="38.51777773" lon="-2.58216287">
        <ele>974.00000</ele>
        <time>2018-10-13T11:29:31Z</time>
      </trkpt>
      <trkpt lat="38.51779240" lon="-2.58229555">
        <ele>973.00000</ele>
        <time>2018-10-13T11:29:32Z</time>
      </trkpt>
      <trkpt lat="38.51782634" lon="-2.58242773">
        <ele>972.00000</ele>
        <time>2018-10-13T11:29:33Z</time>
      </trkpt>
      <trkpt lat="38.51787001" lon="-2.58255816">
        <ele>970.00000</ele>
        <time>2018-10-13T11:29:34Z</time>
      </trkpt>
      <trkpt lat="38.51790899" lon="-2.58269570">
        <ele>969.00000</ele>
        <time>2018-10-13T11:29:35Z</time>
      </trkpt>
      <trkpt lat="38.51798820" lon="-2.58313357">
        <ele>968.00000</ele>
        <time>2018-10-13T11:29:38Z</time>
      </trkpt>
      <trkpt lat="38.51796934" lon="-2.58375811">
        <ele>966.00000</ele>
        <time>2018-10-13T11:29:42Z</time>
      </trkpt>
      <trkpt lat="38.51794503" lon="-2.58390521">
        <ele>965.00000</ele>
        <time>2018-10-13T11:29:43Z</time>
      </trkpt>
      <trkpt lat="38.51791955" lon="-2.58404896">
        <ele>965.00000</ele>
        <time>2018-10-13T11:29:44Z</time>
      </trkpt>
      <trkpt lat="38.51785275" lon="-2.58433059">
        <ele>963.00000</ele>
        <time>2018-10-13T11:29:46Z</time>
      </trkpt>
      <trkpt lat="38.51781134" lon="-2.58447216">
        <ele>961.00000</ele>
        <time>2018-10-13T11:29:47Z</time>
      </trkpt>
      <trkpt lat="38.51771973" lon="-2.58474458">
        <ele>959.00000</ele>
        <time>2018-10-13T11:29:49Z</time>
      </trkpt>
      <trkpt lat="38.51767522" lon="-2.58486787">
        <ele>957.00000</ele>
        <time>2018-10-13T11:29:50Z</time>
      </trkpt>
      <trkpt lat="38.51763934" lon="-2.58498019">
        <ele>956.00000</ele>
        <time>2018-10-13T11:29:51Z</time>
      </trkpt>
      <trkpt lat="38.51761596" lon="-2.58509092">
        <ele>955.00000</ele>
        <time>2018-10-13T11:29:52Z</time>
      </trkpt>
      <trkpt lat="38.51761344" lon="-2.58532712">
        <ele>954.00000</ele>
        <time>2018-10-13T11:29:54Z</time>
      </trkpt>
      <trkpt lat="38.51765301" lon="-2.58557095">
        <ele>952.00000</ele>
        <time>2018-10-13T11:29:56Z</time>
      </trkpt>
      <trkpt lat="38.51773138" lon="-2.58594612">
        <ele>951.00000</ele>
        <time>2018-10-13T11:29:59Z</time>
      </trkpt>
      <trkpt lat="38.51780656" lon="-2.58634150">
        <ele>949.00000</ele>
        <time>2018-10-13T11:30:02Z</time>
      </trkpt>
      <trkpt lat="38.51783875" lon="-2.58647317">
        <ele>949.00000</ele>
        <time>2018-10-13T11:30:03Z</time>
      </trkpt>
      <trkpt lat="38.51795350" lon="-2.58670653">
        <ele>948.00000</ele>
        <time>2018-10-13T11:30:05Z</time>
      </trkpt>
      <trkpt lat="38.51812281" lon="-2.58689076">
        <ele>947.00000</ele>
        <time>2018-10-13T11:30:07Z</time>
      </trkpt>
      <trkpt lat="38.51830612" lon="-2.58706661">
        <ele>946.00000</ele>
        <time>2018-10-13T11:30:09Z</time>
      </trkpt>
      <trkpt lat="38.51849405" lon="-2.58724406">
        <ele>945.00000</ele>
        <time>2018-10-13T11:30:11Z</time>
      </trkpt>
      <trkpt lat="38.51867401" lon="-2.58743399">
        <ele>944.00000</ele>
        <time>2018-10-13T11:30:13Z</time>
      </trkpt>
      <trkpt lat="38.51875246" lon="-2.58754312">
        <ele>943.00000</ele>
        <time>2018-10-13T11:30:14Z</time>
      </trkpt>
      <trkpt lat="38.51882086" lon="-2.58766232">
        <ele>942.00000</ele>
        <time>2018-10-13T11:30:15Z</time>
      </trkpt>
      <trkpt lat="38.51891457" lon="-2.58793196">
        <ele>940.00000</ele>
        <time>2018-10-13T11:30:17Z</time>
      </trkpt>
      <trkpt lat="38.51895815" lon="-2.58821183">
        <ele>938.00000</ele>
        <time>2018-10-13T11:30:19Z</time>
      </trkpt>
      <trkpt lat="38.51898162" lon="-2.58833337">
        <ele>938.00000</ele>
        <time>2018-10-13T11:30:20Z</time>
      </trkpt>
      <trkpt lat="38.51901833" lon="-2.58843949">
        <ele>937.00000</ele>
        <time>2018-10-13T11:30:21Z</time>
      </trkpt>
      <trkpt lat="38.51930407" lon="-2.58871634">
        <ele>936.00000</ele>
        <time>2018-10-13T11:30:25Z</time>
      </trkpt>
      <trkpt lat="38.51955486" lon="-2.58890720">
        <ele>935.00000</ele>
        <time>2018-10-13T11:30:28Z</time>
      </trkpt>
      <trkpt lat="38.51969442" lon="-2.58909034">
        <ele>935.00000</ele>
        <time>2018-10-13T11:30:30Z</time>
      </trkpt>
      <trkpt lat="38.51982937" lon="-2.58927332">
        <ele>934.00000</ele>
        <time>2018-10-13T11:30:32Z</time>
      </trkpt>
      <trkpt lat="38.52008963" lon="-2.58941179">
        <ele>933.00000</ele>
        <time>2018-10-13T11:30:35Z</time>
      </trkpt>
      <trkpt lat="38.52017613" lon="-2.58942889">
        <ele>933.00000</ele>
        <time>2018-10-13T11:30:36Z</time>
      </trkpt>
      <trkpt lat="38.52025559" lon="-2.58945755">
        <ele>933.00000</ele>
        <time>2018-10-13T11:30:37Z</time>
      </trkpt>
      <trkpt lat="38.52032759" lon="-2.58950675">
        <ele>932.00000</ele>
        <time>2018-10-13T11:30:38Z</time>
      </trkpt>
      <trkpt lat="38.52042892" lon="-2.58967665">
        <ele>932.00000</ele>
        <time>2018-10-13T11:30:40Z</time>
      </trkpt>
      <trkpt lat="38.52047486" lon="-2.58988788">
        <ele>932.00000</ele>
        <time>2018-10-13T11:30:42Z</time>
      </trkpt>
      <trkpt lat="38.52055273" lon="-2.59020094">
        <ele>931.00000</ele>
        <time>2018-10-13T11:30:45Z</time>
      </trkpt>
      <trkpt lat="38.52058617" lon="-2.59030823">
        <ele>931.00000</ele>
        <time>2018-10-13T11:30:46Z</time>
      </trkpt>
      <trkpt lat="38.52062791" lon="-2.59041091">
        <ele>931.00000</ele>
        <time>2018-10-13T11:30:47Z</time>
      </trkpt>
      <trkpt lat="38.52074861" lon="-2.59060059">
        <ele>929.00000</ele>
        <time>2018-10-13T11:30:49Z</time>
      </trkpt>
      <trkpt lat="38.52092312" lon="-2.59072674">
        <ele>928.00000</ele>
        <time>2018-10-13T11:30:51Z</time>
      </trkpt>
      <trkpt lat="38.52116947" lon="-2.59083411">
        <ele>927.00000</ele>
        <time>2018-10-13T11:30:54Z</time>
      </trkpt>
      <trkpt lat="38.52127918" lon="-2.59099655">
        <ele>925.00000</ele>
        <time>2018-10-13T11:30:56Z</time>
      </trkpt>
      <trkpt lat="38.52134264" lon="-2.59120820">
        <ele>924.00000</ele>
        <time>2018-10-13T11:30:58Z</time>
      </trkpt>
      <trkpt lat="38.52140307" lon="-2.59154649">
        <ele>923.00000</ele>
        <time>2018-10-13T11:31:01Z</time>
      </trkpt>
      <trkpt lat="38.52134691" lon="-2.59186064">
        <ele>921.00000</ele>
        <time>2018-10-13T11:31:04Z</time>
      </trkpt>
      <trkpt lat="38.52116569" lon="-2.59209307">
        <ele>920.00000</ele>
        <time>2018-10-13T11:31:07Z</time>
      </trkpt>
      <trkpt lat="38.52109537" lon="-2.59216407">
        <ele>920.00000</ele>
        <time>2018-10-13T11:31:08Z</time>
      </trkpt>
      <trkpt lat="38.52064660" lon="-2.59257160">
        <ele>919.00000</ele>
        <time>2018-10-13T11:31:14Z</time>
      </trkpt>
      <trkpt lat="38.52056781" lon="-2.59264125">
        <ele>919.00000</ele>
        <time>2018-10-13T11:31:15Z</time>
      </trkpt>
      <trkpt lat="38.52033681" lon="-2.59286588">
        <ele>918.00000</ele>
        <time>2018-10-13T11:31:18Z</time>
      </trkpt>
      <trkpt lat="38.52019675" lon="-2.59303847">
        <ele>916.00000</ele>
        <time>2018-10-13T11:31:20Z</time>
      </trkpt>
      <trkpt lat="38.52006968" lon="-2.59323175">
        <ele>915.00000</ele>
        <time>2018-10-13T11:31:22Z</time>
      </trkpt>
      <trkpt lat="38.51986558" lon="-2.59352009">
        <ele>914.00000</ele>
        <time>2018-10-13T11:31:25Z</time>
      </trkpt>
      <trkpt lat="38.51971437" lon="-2.59370726">
        <ele>912.00000</ele>
        <time>2018-10-13T11:31:27Z</time>
      </trkpt>
      <trkpt lat="38.51947322" lon="-2.59399476">
        <ele>911.00000</ele>
        <time>2018-10-13T11:31:30Z</time>
      </trkpt>
      <trkpt lat="38.51931178" lon="-2.59419836">
        <ele>909.00000</ele>
        <time>2018-10-13T11:31:32Z</time>
      </trkpt>
      <trkpt lat="38.51916904" lon="-2.59443674">
        <ele>908.00000</ele>
        <time>2018-10-13T11:31:34Z</time>
      </trkpt>
      <trkpt lat="38.51902781" lon="-2.59468912">
        <ele>906.00000</ele>
        <time>2018-10-13T11:31:36Z</time>
      </trkpt>
      <trkpt lat="38.51879982" lon="-2.59506613">
        <ele>904.00000</ele>
        <time>2018-10-13T11:31:39Z</time>
      </trkpt>
      <trkpt lat="38.51871659" lon="-2.59518683">
        <ele>903.00000</ele>
        <time>2018-10-13T11:31:40Z</time>
      </trkpt>
      <trkpt lat="38.51863092" lon="-2.59530611">
        <ele>901.00000</ele>
        <time>2018-10-13T11:31:41Z</time>
      </trkpt>
      <trkpt lat="38.51854358" lon="-2.59542538">
        <ele>900.00000</ele>
        <time>2018-10-13T11:31:42Z</time>
      </trkpt>
      <trkpt lat="38.51845524" lon="-2.59554449">
        <ele>898.00000</ele>
        <time>2018-10-13T11:31:43Z</time>
      </trkpt>
      <trkpt lat="38.51836538" lon="-2.59566435">
        <ele>897.00000</ele>
        <time>2018-10-13T11:31:44Z</time>
      </trkpt>
      <trkpt lat="38.51827545" lon="-2.59578555">
        <ele>896.00000</ele>
        <time>2018-10-13T11:31:45Z</time>
      </trkpt>
      <trkpt lat="38.51809817" lon="-2.59604229">
        <ele>894.00000</ele>
        <time>2018-10-13T11:31:47Z</time>
      </trkpt>
      <trkpt lat="38.51794403" lon="-2.59633063">
        <ele>892.00000</ele>
        <time>2018-10-13T11:31:49Z</time>
      </trkpt>
      <trkpt lat="38.51780137" lon="-2.59663472">
        <ele>890.00000</ele>
        <time>2018-10-13T11:31:51Z</time>
      </trkpt>
      <trkpt lat="38.51765795" lon="-2.59694385">
        <ele>889.00000</ele>
        <time>2018-10-13T11:31:53Z</time>
      </trkpt>
      <trkpt lat="38.51750624" lon="-2.59725071">
        <ele>886.00000</ele>
        <time>2018-10-13T11:31:55Z</time>
      </trkpt>
      <trkpt lat="38.51742636" lon="-2.59739991">
        <ele>885.00000</ele>
        <time>2018-10-13T11:31:56Z</time>
      </trkpt>
      <trkpt lat="38.51734422" lon="-2.59754114">
        <ele>884.00000</ele>
        <time>2018-10-13T11:31:57Z</time>
      </trkpt>
      <trkpt lat="38.51716468" lon="-2.59779025">
        <ele>882.00000</ele>
        <time>2018-10-13T11:31:59Z</time>
      </trkpt>
      <trkpt lat="38.51706862" lon="-2.59789888">
        <ele>881.00000</ele>
        <time>2018-10-13T11:32:00Z</time>
      </trkpt>
      <trkpt lat="38.51696929" lon="-2.59799829">
        <ele>880.00000</ele>
        <time>2018-10-13T11:32:01Z</time>
      </trkpt>
      <trkpt lat="38.51677324" lon="-2.59818194">
        <ele>877.00000</ele>
        <time>2018-10-13T11:32:03Z</time>
      </trkpt>
      <trkpt lat="38.51668490" lon="-2.59827305">
        <ele>876.00000</ele>
        <time>2018-10-13T11:32:04Z</time>
      </trkpt>
      <trkpt lat="38.51660778" lon="-2.59836525">
        <ele>875.00000</ele>
        <time>2018-10-13T11:32:05Z</time>
      </trkpt>
      <trkpt lat="38.51654534" lon="-2.59846491">
        <ele>874.00000</ele>
        <time>2018-10-13T11:32:06Z</time>
      </trkpt>
      <trkpt lat="38.51644911" lon="-2.59881595">
        <ele>873.00000</ele>
        <time>2018-10-13T11:32:09Z</time>
      </trkpt>
      <trkpt lat="38.51647837" lon="-2.59920621">
        <ele>872.00000</ele>
        <time>2018-10-13T11:32:12Z</time>
      </trkpt>
      <trkpt lat="38.51652237" lon="-2.59948239">
        <ele>871.00000</ele>
        <time>2018-10-13T11:32:14Z</time>
      </trkpt>
      <trkpt lat="38.51658901" lon="-2.59976880">
        <ele>871.00000</ele>
        <time>2018-10-13T11:32:16Z</time>
      </trkpt>
      <trkpt lat="38.51666201" lon="-2.60006728">
        <ele>869.00000</ele>
        <time>2018-10-13T11:32:18Z</time>
      </trkpt>
      <trkpt lat="38.51669328" lon="-2.60022067">
        <ele>868.00000</ele>
        <time>2018-10-13T11:32:19Z</time>
      </trkpt>
      <trkpt lat="38.51672270" lon="-2.60037582">
        <ele>867.00000</ele>
        <time>2018-10-13T11:32:20Z</time>
      </trkpt>
      <trkpt lat="38.51675212" lon="-2.60053172">
        <ele>866.00000</ele>
        <time>2018-10-13T11:32:21Z</time>
      </trkpt>
      <trkpt lat="38.51678246" lon="-2.60068369">
        <ele>865.00000</ele>
        <time>2018-10-13T11:32:22Z</time>
      </trkpt>
      <trkpt lat="38.51681071" lon="-2.60083464">
        <ele>864.00000</ele>
        <time>2018-10-13T11:32:23Z</time>
      </trkpt>
      <trkpt lat="38.51683753" lon="-2.60098108">
        <ele>862.00000</ele>
        <time>2018-10-13T11:32:24Z</time>
      </trkpt>
      <trkpt lat="38.51686754" lon="-2.60112248">
        <ele>861.00000</ele>
        <time>2018-10-13T11:32:25Z</time>
      </trkpt>
      <trkpt lat="38.51690299" lon="-2.60125776">
        <ele>860.00000</ele>
        <time>2018-10-13T11:32:26Z</time>
      </trkpt>
      <trkpt lat="38.51698212" lon="-2.60151023">
        <ele>859.00000</ele>
        <time>2018-10-13T11:32:28Z</time>
      </trkpt>
      <trkpt lat="38.51712830" lon="-2.60222939">
        <ele>858.00000</ele>
        <time>2018-10-13T11:32:34Z</time>
      </trkpt>
      <trkpt lat="38.51719954" lon="-2.60265796">
        <ele>858.00000</ele>
        <time>2018-10-13T11:32:38Z</time>
      </trkpt>
      <trkpt lat="38.51723140" lon="-2.60285736">
        <ele>859.00000</ele>
        <time>2018-10-13T11:32:40Z</time>
      </trkpt>
      <trkpt lat="38.51725780" lon="-2.60305417">
        <ele>859.00000</ele>
        <time>2018-10-13T11:32:42Z</time>
      </trkpt>
      <trkpt lat="38.51725880" lon="-2.60374384">
        <ele>860.00000</ele>
        <time>2018-10-13T11:32:49Z</time>
      </trkpt>
      <trkpt lat="38.51722486" lon="-2.60406092">
        <ele>860.00000</ele>
        <time>2018-10-13T11:32:52Z</time>
      </trkpt>
      <trkpt lat="38.51705563" lon="-2.60446116">
        <ele>859.00000</ele>
        <time>2018-10-13T11:32:56Z</time>
      </trkpt>
      <trkpt lat="38.51683644" lon="-2.60487640">
        <ele>858.00000</ele>
        <time>2018-10-13T11:33:00Z</time>
      </trkpt>
      <trkpt lat="38.51671314" lon="-2.60507605">
        <ele>856.00000</ele>
        <time>2018-10-13T11:33:02Z</time>
      </trkpt>
      <trkpt lat="38.51657300" lon="-2.60524922">
        <ele>855.00000</ele>
        <time>2018-10-13T11:33:04Z</time>
      </trkpt>
      <trkpt lat="38.51642045" lon="-2.60539800">
        <ele>853.00000</ele>
        <time>2018-10-13T11:33:06Z</time>
      </trkpt>
      <trkpt lat="38.51626245" lon="-2.60553278">
        <ele>852.00000</ele>
        <time>2018-10-13T11:33:08Z</time>
      </trkpt>
      <trkpt lat="38.51603639" lon="-2.60574510">
        <ele>851.00000</ele>
        <time>2018-10-13T11:33:11Z</time>
      </trkpt>
      <trkpt lat="38.51597017" lon="-2.60582791">
        <ele>851.00000</ele>
        <time>2018-10-13T11:33:12Z</time>
      </trkpt>
      <trkpt lat="38.51578728" lon="-2.60608884">
        <ele>849.00000</ele>
        <time>2018-10-13T11:33:15Z</time>
      </trkpt>
      <trkpt lat="38.51563833" lon="-2.60637081">
        <ele>848.00000</ele>
        <time>2018-10-13T11:33:18Z</time>
      </trkpt>
      <trkpt lat="38.51560011" lon="-2.60646980">
        <ele>848.00000</ele>
        <time>2018-10-13T11:33:19Z</time>
      </trkpt>
      <trkpt lat="38.51550891" lon="-2.60686995">
        <ele>848.00000</ele>
        <time>2018-10-13T11:33:23Z</time>
      </trkpt>
      <trkpt lat="38.51549777" lon="-2.60696408">
        <ele>848.00000</ele>
        <time>2018-10-13T11:33:24Z</time>
      </trkpt>
      <trkpt lat="38.51547304" lon="-2.60731302">
        <ele>848.00000</ele>
        <time>2018-10-13T11:33:28Z</time>
      </trkpt>
      <trkpt lat="38.51550933" lon="-2.60766816">
        <ele>849.00000</ele>
        <time>2018-10-13T11:33:33Z</time>
      </trkpt>
      <trkpt lat="38.51554311" lon="-2.60783613">
        <ele>850.00000</ele>
        <time>2018-10-13T11:33:36Z</time>
      </trkpt>
      <trkpt lat="38.51555543" lon="-2.60788584">
        <ele>851.00000</ele>
        <time>2018-10-13T11:33:37Z</time>
      </trkpt>
      <trkpt lat="38.51559877" lon="-2.60804392">
        <ele>851.00000</ele>
        <time>2018-10-13T11:33:40Z</time>
      </trkpt>
      <trkpt lat="38.51562517" lon="-2.60813998">
        <ele>852.00000</ele>
        <time>2018-10-13T11:33:42Z</time>
      </trkpt>
      <trkpt lat="38.51569726" lon="-2.60839696">
        <ele>852.00000</ele>
        <time>2018-10-13T11:33:49Z</time>
      </trkpt>
      <trkpt lat="38.51571653" lon="-2.60843988">
        <ele>853.00000</ele>
        <time>2018-10-13T11:33:51Z</time>
      </trkpt>
      <trkpt lat="38.51574554" lon="-2.60848472">
        <ele>853.00000</ele>
        <time>2018-10-13T11:33:53Z</time>
      </trkpt>
      <trkpt lat="38.51577764" lon="-2.60854826">
        <ele>853.00000</ele>
        <time>2018-10-13T11:33:55Z</time>
      </trkpt>
      <trkpt lat="38.51591544" lon="-2.60889686">
        <ele>854.00000</ele>
        <time>2018-10-13T11:34:04Z</time>
      </trkpt>
      <trkpt lat="38.51593103" lon="-2.60893072">
        <ele>854.00000</ele>
        <time>2018-10-13T11:34:05Z</time>
      </trkpt>
      <trkpt lat="38.51602206" lon="-2.60904908">
        <ele>854.00000</ele>
        <time>2018-10-13T11:34:09Z</time>
      </trkpt>
      <trkpt lat="38.51614200" lon="-2.60920791">
        <ele>855.00000</ele>
        <time>2018-10-13T11:34:15Z</time>
      </trkpt>
      <trkpt lat="38.51632179" lon="-2.60938704">
        <ele>855.00000</ele>
        <time>2018-10-13T11:34:22Z</time>
      </trkpt>
      <trkpt lat="38.51659228" lon="-2.60959222">
        <ele>856.00000</ele>
        <time>2018-10-13T11:34:31Z</time>
      </trkpt>
      <trkpt lat="38.51664500" lon="-2.60963757">
        <ele>856.00000</ele>
        <time>2018-10-13T11:34:33Z</time>
      </trkpt>
      <trkpt lat="38.51675472" lon="-2.60971703">
        <ele>857.00000</ele>
        <time>2018-10-13T11:34:37Z</time>
      </trkpt>
      <trkpt lat="38.51697877" lon="-2.60992071">
        <ele>858.00000</ele>
        <time>2018-10-13T11:34:46Z</time>
      </trkpt>
      <trkpt lat="38.51702529" lon="-2.60996975">
        <ele>858.00000</ele>
        <time>2018-10-13T11:34:48Z</time>
      </trkpt>
      <trkpt lat="38.51720675" lon="-2.61014375">
        <ele>859.00000</ele>
        <time>2018-10-13T11:34:56Z</time>
      </trkpt>
      <trkpt lat="38.51728965" lon="-2.61022539">
        <ele>859.00000</ele>
        <time>2018-10-13T11:35:00Z</time>
      </trkpt>
      <trkpt lat="38.51740993" lon="-2.61035288">
        <ele>861.00000</ele>
        <time>2018-10-13T11:35:11Z</time>
      </trkpt>
      <trkpt lat="38.51741169" lon="-2.61035481">
        <ele>861.00000</ele>
        <time>2018-10-13T11:35:12Z</time>
      </trkpt>
      <trkpt lat="38.51737380" lon="-2.61048783">
        <ele>861.00000</ele>
        <time>2018-10-13T11:41:26Z</time>
      </trkpt>
      <trkpt lat="38.51735654" lon="-2.61051088">
        <ele>861.00000</ele>
        <time>2018-10-13T11:41:27Z</time>
      </trkpt>
      <trkpt lat="38.51726626" lon="-2.61059663">
        <ele>861.00000</ele>
        <time>2018-10-13T11:41:32Z</time>
      </trkpt>
      <trkpt lat="38.51703593" lon="-2.61081380">
        <ele>861.00000</ele>
        <time>2018-10-13T11:41:46Z</time>
      </trkpt>
      <trkpt lat="38.51705948" lon="-2.61076452">
        <ele>861.00000</ele>
        <time>2018-10-13T11:43:17Z</time>
      </trkpt>
      <trkpt lat="38.51707734" lon="-2.61074113">
        <ele>861.00000</ele>
        <time>2018-10-13T11:43:18Z</time>
      </trkpt>
      <trkpt lat="38.51711925" lon="-2.61070383">
        <ele>861.00000</ele>
        <time>2018-10-13T11:43:20Z</time>
      </trkpt>
      <trkpt lat="38.51738059" lon="-2.61056511">
        <ele>861.00000</ele>
        <time>2018-10-13T11:43:31Z</time>
      </trkpt>
      <trkpt lat="38.51743575" lon="-2.61063954">
        <ele>861.00000</ele>
        <time>2018-10-13T11:43:34Z</time>
      </trkpt>
      <trkpt lat="38.51748855" lon="-2.61072563">
        <ele>861.00000</ele>
        <time>2018-10-13T11:43:36Z</time>
      </trkpt>
      <trkpt lat="38.51752476" lon="-2.61083199">
        <ele>861.00000</ele>
        <time>2018-10-13T11:43:38Z</time>
      </trkpt>
      <trkpt lat="38.51759727" lon="-2.61114405">
        <ele>860.00000</ele>
        <time>2018-10-13T11:43:42Z</time>
      </trkpt>
      <trkpt lat="38.51768335" lon="-2.61140515">
        <ele>859.00000</ele>
        <time>2018-10-13T11:43:45Z</time>
      </trkpt>
      <trkpt lat="38.51770967" lon="-2.61148754">
        <ele>858.00000</ele>
        <time>2018-10-13T11:43:46Z</time>
      </trkpt>
      <trkpt lat="38.51773263" lon="-2.61155946">
        <ele>858.00000</ele>
        <time>2018-10-13T11:43:47Z</time>
      </trkpt>
      <trkpt lat="38.51775904" lon="-2.61168586">
        <ele>857.00000</ele>
        <time>2018-10-13T11:43:49Z</time>
      </trkpt>
      <trkpt lat="38.51777069" lon="-2.61176398">
        <ele>855.00000</ele>
        <time>2018-10-13T11:43:51Z</time>
      </trkpt>
      <trkpt lat="38.51776113" lon="-2.61180060">
        <ele>855.00000</ele>
        <time>2018-10-13T11:43:52Z</time>
      </trkpt>
      <trkpt lat="38.51764697" lon="-2.61188836">
        <ele>854.00000</ele>
        <time>2018-10-13T11:43:56Z</time>
      </trkpt>
      <trkpt lat="38.51759852" lon="-2.61190370">
        <ele>854.00000</ele>
        <time>2018-10-13T11:43:57Z</time>
      </trkpt>
      <trkpt lat="38.51741496" lon="-2.61195919">
        <ele>854.00000</ele>
        <time>2018-10-13T11:44:00Z</time>
      </trkpt>
      <trkpt lat="38.51722645" lon="-2.61214896">
        <ele>853.00000</ele>
        <time>2018-10-13T11:44:04Z</time>
      </trkpt>
      <trkpt lat="38.51709553" lon="-2.61230662">
        <ele>852.00000</ele>
        <time>2018-10-13T11:44:07Z</time>
      </trkpt>
      <trkpt lat="38.51704968" lon="-2.61235674">
        <ele>852.00000</ele>
        <time>2018-10-13T11:44:08Z</time>
      </trkpt>
      <trkpt lat="38.51690023" lon="-2.61250653">
        <ele>851.00000</ele>
        <time>2018-10-13T11:44:11Z</time>
      </trkpt>
      <trkpt lat="38.51679529" lon="-2.61259395">
        <ele>851.00000</ele>
        <time>2018-10-13T11:44:13Z</time>
      </trkpt>
      <trkpt lat="38.51669839" lon="-2.61266285">
        <ele>851.00000</ele>
        <time>2018-10-13T11:44:15Z</time>
      </trkpt>
      <trkpt lat="38.51645766" lon="-2.61279822">
        <ele>850.00000</ele>
        <time>2018-10-13T11:44:19Z</time>
      </trkpt>
      <trkpt lat="38.51624024" lon="-2.61295027">
        <ele>850.00000</ele>
        <time>2018-10-13T11:44:22Z</time>
      </trkpt>
      <trkpt lat="38.51607805" lon="-2.61305445">
        <ele>848.00000</ele>
        <time>2018-10-13T11:44:24Z</time>
      </trkpt>
      <trkpt lat="38.51599414" lon="-2.61310835">
        <ele>847.00000</ele>
        <time>2018-10-13T11:44:25Z</time>
      </trkpt>
      <trkpt lat="38.51583933" lon="-2.61321220">
        <ele>846.00000</ele>
        <time>2018-10-13T11:44:27Z</time>
      </trkpt>
      <trkpt lat="38.51570011" lon="-2.61331387">
        <ele>844.00000</ele>
        <time>2018-10-13T11:44:29Z</time>
      </trkpt>
      <trkpt lat="38.51556583" lon="-2.61342125">
        <ele>843.00000</ele>
        <time>2018-10-13T11:44:31Z</time>
      </trkpt>
      <trkpt lat="38.51544178" lon="-2.61355577">
        <ele>841.00000</ele>
        <time>2018-10-13T11:44:33Z</time>
      </trkpt>
      <trkpt lat="38.51532191" lon="-2.61371436">
        <ele>840.00000</ele>
        <time>2018-10-13T11:44:35Z</time>
      </trkpt>
      <trkpt lat="38.51514916" lon="-2.61396632">
        <ele>839.00000</ele>
        <time>2018-10-13T11:44:38Z</time>
      </trkpt>
      <trkpt lat="38.51501908" lon="-2.61420755">
        <ele>837.00000</ele>
        <time>2018-10-13T11:44:41Z</time>
      </trkpt>
      <trkpt lat="38.51495680" lon="-2.61435281">
        <ele>836.00000</ele>
        <time>2018-10-13T11:44:43Z</time>
      </trkpt>
      <trkpt lat="38.51489209" lon="-2.61451123">
        <ele>835.00000</ele>
        <time>2018-10-13T11:44:45Z</time>
      </trkpt>
      <trkpt lat="38.51482152" lon="-2.61465707">
        <ele>833.00000</ele>
        <time>2018-10-13T11:44:47Z</time>
      </trkpt>
      <trkpt lat="38.51474323" lon="-2.61480317">
        <ele>832.00000</ele>
        <time>2018-10-13T11:44:49Z</time>
      </trkpt>
      <trkpt lat="38.51469520" lon="-2.61487073">
        <ele>832.00000</ele>
        <time>2018-10-13T11:44:50Z</time>
      </trkpt>
      <trkpt lat="38.51452010" lon="-2.61499545">
        <ele>831.00000</ele>
        <time>2018-10-13T11:44:53Z</time>
      </trkpt>
      <trkpt lat="38.51438691" lon="-2.61499947">
        <ele>830.00000</ele>
        <time>2018-10-13T11:44:55Z</time>
      </trkpt>
      <trkpt lat="38.51431307" lon="-2.61498665">
        <ele>830.00000</ele>
        <time>2018-10-13T11:44:56Z</time>
      </trkpt>
      <trkpt lat="38.51409682" lon="-2.61494658">
        <ele>829.00000</ele>
        <time>2018-10-13T11:44:59Z</time>
      </trkpt>
      <trkpt lat="38.51393513" lon="-2.61493552">
        <ele>828.00000</ele>
        <time>2018-10-13T11:45:02Z</time>
      </trkpt>
      <trkpt lat="38.51384452" lon="-2.61492177">
        <ele>826.00000</ele>
        <time>2018-10-13T11:45:04Z</time>
      </trkpt>
      <trkpt lat="38.51377520" lon="-2.61491859">
        <ele>825.00000</ele>
        <time>2018-10-13T11:45:06Z</time>
      </trkpt>
      <trkpt lat="38.51372592" lon="-2.61490778">
        <ele>825.00000</ele>
        <time>2018-10-13T11:45:08Z</time>
      </trkpt>
      <trkpt lat="38.51368887" lon="-2.61486168">
        <ele>825.00000</ele>
        <time>2018-10-13T11:45:10Z</time>
      </trkpt>
      <trkpt lat="38.51369180" lon="-2.61479764">
        <ele>825.00000</ele>
        <time>2018-10-13T11:45:14Z</time>
      </trkpt>
      <trkpt lat="38.51368493" lon="-2.61485832">
        <ele>825.00000</ele>
        <time>2018-10-13T11:47:57Z</time>
      </trkpt>
      <trkpt lat="38.51367311" lon="-2.61487634">
        <ele>825.00000</ele>
        <time>2018-10-13T11:47:58Z</time>
      </trkpt>
      <trkpt lat="38.51358938" lon="-2.61502881">
        <ele>825.00000</ele>
        <time>2018-10-13T11:48:03Z</time>
      </trkpt>
      <trkpt lat="38.51347278" lon="-2.61512763">
        <ele>825.00000</ele>
        <time>2018-10-13T11:48:06Z</time>
      </trkpt>
      <trkpt lat="38.51342660" lon="-2.61515479">
        <ele>825.00000</ele>
        <time>2018-10-13T11:48:07Z</time>
      </trkpt>
      <trkpt lat="38.51322392" lon="-2.61527851">
        <ele>824.00000</ele>
        <time>2018-10-13T11:48:11Z</time>
      </trkpt>
      <trkpt lat="38.51316911" lon="-2.61531095">
        <ele>824.00000</ele>
        <time>2018-10-13T11:48:12Z</time>
      </trkpt>
      <trkpt lat="38.51305654" lon="-2.61537800">
        <ele>823.00000</ele>
        <time>2018-10-13T11:48:14Z</time>
      </trkpt>
      <trkpt lat="38.51288940" lon="-2.61548185">
        <ele>822.00000</ele>
        <time>2018-10-13T11:48:17Z</time>
      </trkpt>
      <trkpt lat="38.51273082" lon="-2.61557908">
        <ele>821.00000</ele>
        <time>2018-10-13T11:48:20Z</time>
      </trkpt>
      <trkpt lat="38.51247626" lon="-2.61574110">
        <ele>821.00000</ele>
        <time>2018-10-13T11:48:25Z</time>
      </trkpt>
      <trkpt lat="38.51233217" lon="-2.61582987">
        <ele>821.00000</ele>
        <time>2018-10-13T11:48:28Z</time>
      </trkpt>
      <trkpt lat="38.51193085" lon="-2.61612642">
        <ele>821.00000</ele>
        <time>2018-10-13T11:48:38Z</time>
      </trkpt>
      <trkpt lat="38.51183856" lon="-2.61622449">
        <ele>822.00000</ele>
        <time>2018-10-13T11:48:41Z</time>
      </trkpt>
      <trkpt lat="38.51173035" lon="-2.61637704">
        <ele>822.00000</ele>
        <time>2018-10-13T11:48:45Z</time>
      </trkpt>
      <trkpt lat="38.51164008" lon="-2.61654568">
        <ele>823.00000</ele>
        <time>2018-10-13T11:48:49Z</time>
      </trkpt>
      <trkpt lat="38.51159038" lon="-2.61663126">
        <ele>823.00000</ele>
        <time>2018-10-13T11:48:51Z</time>
      </trkpt>
      <trkpt lat="38.51142081" lon="-2.61690150">
        <ele>825.00000</ele>
        <time>2018-10-13T11:48:57Z</time>
      </trkpt>
      <trkpt lat="38.51106232" lon="-2.61745185">
        <ele>825.00000</ele>
        <time>2018-10-13T11:49:09Z</time>
      </trkpt>
      <trkpt lat="38.51075470" lon="-2.61803490">
        <ele>825.00000</ele>
        <time>2018-10-13T11:49:20Z</time>
      </trkpt>
      <trkpt lat="38.51060131" lon="-2.61822248">
        <ele>825.00000</ele>
        <time>2018-10-13T11:49:24Z</time>
      </trkpt>
      <trkpt lat="38.51040316" lon="-2.61846019">
        <ele>825.00000</ele>
        <time>2018-10-13T11:49:29Z</time>
      </trkpt>
      <trkpt lat="38.51027953" lon="-2.61883956">
        <ele>825.00000</ele>
        <time>2018-10-13T11:49:35Z</time>
      </trkpt>
      <trkpt lat="38.51024919" lon="-2.61897937">
        <ele>825.00000</ele>
        <time>2018-10-13T11:49:37Z</time>
      </trkpt>
      <trkpt lat="38.51016419" lon="-2.61933837">
        <ele>824.00000</ele>
        <time>2018-10-13T11:49:42Z</time>
      </trkpt>
      <trkpt lat="38.51012832" lon="-2.61949259">
        <ele>824.00000</ele>
        <time>2018-10-13T11:49:44Z</time>
      </trkpt>
      <trkpt lat="38.51006655" lon="-2.61973441">
        <ele>824.00000</ele>
        <time>2018-10-13T11:49:47Z</time>
      </trkpt>
      <trkpt lat="38.51000226" lon="-2.61999333">
        <ele>824.00000</ele>
        <time>2018-10-13T11:49:50Z</time>
      </trkpt>
      <trkpt lat="38.50989488" lon="-2.62043271">
        <ele>823.00000</ele>
        <time>2018-10-13T11:49:55Z</time>
      </trkpt>
      <trkpt lat="38.50985465" lon="-2.62060110">
        <ele>821.00000</ele>
        <time>2018-10-13T11:49:57Z</time>
      </trkpt>
      <trkpt lat="38.50979631" lon="-2.62083948">
        <ele>820.00000</ele>
        <time>2018-10-13T11:50:00Z</time>
      </trkpt>
      <trkpt lat="38.50962507" lon="-2.62153367">
        <ele>819.00000</ele>
        <time>2018-10-13T11:50:09Z</time>
      </trkpt>
      <trkpt lat="38.50959557" lon="-2.62169351">
        <ele>819.00000</ele>
        <time>2018-10-13T11:50:11Z</time>
      </trkpt>
      <trkpt lat="38.50958802" lon="-2.62177574">
        <ele>819.00000</ele>
        <time>2018-10-13T11:50:12Z</time>
      </trkpt>
      <trkpt lat="38.50963236" lon="-2.62208797">
        <ele>819.00000</ele>
        <time>2018-10-13T11:50:16Z</time>
      </trkpt>
      <trkpt lat="38.50964552" lon="-2.62216139">
        <ele>819.00000</ele>
        <time>2018-10-13T11:50:17Z</time>
      </trkpt>
      <trkpt lat="38.50952432" lon="-2.62257512">
        <ele>819.00000</ele>
        <time>2018-10-13T11:50:23Z</time>
      </trkpt>
      <trkpt lat="38.50937747" lon="-2.62271309">
        <ele>819.00000</ele>
        <time>2018-10-13T11:50:26Z</time>
      </trkpt>
      <trkpt lat="38.50894588" lon="-2.62302489">
        <ele>819.00000</ele>
        <time>2018-10-13T11:50:34Z</time>
      </trkpt>
      <trkpt lat="38.50840483" lon="-2.62325481">
        <ele>819.00000</ele>
        <time>2018-10-13T11:50:43Z</time>
      </trkpt>
      <trkpt lat="38.50812203" lon="-2.62341356">
        <ele>819.00000</ele>
        <time>2018-10-13T11:50:48Z</time>
      </trkpt>
      <trkpt lat="38.50803150" lon="-2.62351616">
        <ele>819.00000</ele>
        <time>2018-10-13T11:50:50Z</time>
      </trkpt>
      <trkpt lat="38.50799404" lon="-2.62357659">
        <ele>819.00000</ele>
        <time>2018-10-13T11:50:51Z</time>
      </trkpt>
      <trkpt lat="38.50796034" lon="-2.62363971">
        <ele>819.00000</ele>
        <time>2018-10-13T11:50:52Z</time>
      </trkpt>
      <trkpt lat="38.50789806" lon="-2.62376761">
        <ele>818.00000</ele>
        <time>2018-10-13T11:50:54Z</time>
      </trkpt>
      <trkpt lat="38.50773906" lon="-2.62409543">
        <ele>818.00000</ele>
        <time>2018-10-13T11:50:59Z</time>
      </trkpt>
      <trkpt lat="38.50749079" lon="-2.62464017">
        <ele>818.00000</ele>
        <time>2018-10-13T11:51:07Z</time>
      </trkpt>
      <trkpt lat="38.50746598" lon="-2.62487889">
        <ele>818.00000</ele>
        <time>2018-10-13T11:51:10Z</time>
      </trkpt>
      <trkpt lat="38.50749531" lon="-2.62503127">
        <ele>818.00000</ele>
        <time>2018-10-13T11:51:12Z</time>
      </trkpt>
      <trkpt lat="38.50758282" lon="-2.62531081">
        <ele>817.00000</ele>
        <time>2018-10-13T11:51:16Z</time>
      </trkpt>
      <trkpt lat="38.50771375" lon="-2.62570358">
        <ele>817.00000</ele>
        <time>2018-10-13T11:51:22Z</time>
      </trkpt>
      <trkpt lat="38.50785607" lon="-2.62613944">
        <ele>817.00000</ele>
        <time>2018-10-13T11:51:29Z</time>
      </trkpt>
      <trkpt lat="38.50789203" lon="-2.62626475">
        <ele>818.00000</ele>
        <time>2018-10-13T11:51:31Z</time>
      </trkpt>
      <trkpt lat="38.50790510" lon="-2.62632879">
        <ele>818.00000</ele>
        <time>2018-10-13T11:51:32Z</time>
      </trkpt>
      <trkpt lat="38.50789329" lon="-2.62658947">
        <ele>819.00000</ele>
        <time>2018-10-13T11:51:36Z</time>
      </trkpt>
      <trkpt lat="38.50759682" lon="-2.62692835">
        <ele>820.00000</ele>
        <time>2018-10-13T11:51:44Z</time>
      </trkpt>
      <trkpt lat="38.50749825" lon="-2.62698082">
        <ele>820.00000</ele>
        <time>2018-10-13T11:51:46Z</time>
      </trkpt>
      <trkpt lat="38.50726917" lon="-2.62732523">
        <ele>820.00000</ele>
        <time>2018-10-13T11:51:53Z</time>
      </trkpt>
      <trkpt lat="38.50722600" lon="-2.62748725">
        <ele>820.00000</ele>
        <time>2018-10-13T11:51:56Z</time>
      </trkpt>
      <trkpt lat="38.50723514" lon="-2.62785103">
        <ele>821.00000</ele>
        <time>2018-10-13T11:52:03Z</time>
      </trkpt>
      <trkpt lat="38.50734100" lon="-2.62818161">
        <ele>822.00000</ele>
        <time>2018-10-13T11:52:10Z</time>
      </trkpt>
      <trkpt lat="38.50748869" lon="-2.62849878">
        <ele>823.00000</ele>
        <time>2018-10-13T11:52:17Z</time>
      </trkpt>
      <trkpt lat="38.50762330" lon="-2.62876960">
        <ele>824.00000</ele>
        <time>2018-10-13T11:52:23Z</time>
      </trkpt>
      <trkpt lat="38.50772883" lon="-2.62904411">
        <ele>824.00000</ele>
        <time>2018-10-13T11:52:29Z</time>
      </trkpt>
      <trkpt lat="38.50775172" lon="-2.62919565">
        <ele>824.00000</ele>
        <time>2018-10-13T11:52:32Z</time>
      </trkpt>
      <trkpt lat="38.50774752" lon="-2.62930093">
        <ele>825.00000</ele>
        <time>2018-10-13T11:52:34Z</time>
      </trkpt>
      <trkpt lat="38.50770033" lon="-2.62966169">
        <ele>825.00000</ele>
        <time>2018-10-13T11:52:41Z</time>
      </trkpt>
      <trkpt lat="38.50753236" lon="-2.62997441">
        <ele>826.00000</ele>
        <time>2018-10-13T11:52:48Z</time>
      </trkpt>
      <trkpt lat="38.50749657" lon="-2.63000987">
        <ele>827.00000</ele>
        <time>2018-10-13T11:52:49Z</time>
      </trkpt>
      <trkpt lat="38.50701067" lon="-2.63042033">
        <ele>827.00000</ele>
        <time>2018-10-13T11:53:01Z</time>
      </trkpt>
      <trkpt lat="38.50680607" lon="-2.63059526">
        <ele>828.00000</ele>
        <time>2018-10-13T11:53:06Z</time>
      </trkpt>
      <trkpt lat="38.50642670" lon="-2.63091243">
        <ele>828.00000</ele>
        <time>2018-10-13T11:53:15Z</time>
      </trkpt>
      <trkpt lat="38.50593896" lon="-2.63132792">
        <ele>828.00000</ele>
        <time>2018-10-13T11:53:27Z</time>
      </trkpt>
      <trkpt lat="38.50573872" lon="-2.63149129">
        <ele>829.00000</ele>
        <time>2018-10-13T11:53:32Z</time>
      </trkpt>
      <trkpt lat="38.50521535" lon="-2.63173772">
        <ele>829.00000</ele>
        <time>2018-10-13T11:53:43Z</time>
      </trkpt>
      <trkpt lat="38.50467966" lon="-2.63189530">
        <ele>829.00000</ele>
        <time>2018-10-13T11:53:52Z</time>
      </trkpt>
      <trkpt lat="38.50455234" lon="-2.63192983">
        <ele>829.00000</ele>
        <time>2018-10-13T11:53:54Z</time>
      </trkpt>
      <trkpt lat="38.50442410" lon="-2.63196654">
        <ele>829.00000</ele>
        <time>2018-10-13T11:53:56Z</time>
      </trkpt>
      <trkpt lat="38.50416124" lon="-2.63204592">
        <ele>828.00000</ele>
        <time>2018-10-13T11:54:00Z</time>
      </trkpt>
      <trkpt lat="38.50402303" lon="-2.63208892">
        <ele>827.00000</ele>
        <time>2018-10-13T11:54:02Z</time>
      </trkpt>
      <trkpt lat="38.50367325" lon="-2.63220903">
        <ele>827.00000</ele>
        <time>2018-10-13T11:54:07Z</time>
      </trkpt>
      <trkpt lat="38.50353503" lon="-2.63224239">
        <ele>827.00000</ele>
        <time>2018-10-13T11:54:09Z</time>
      </trkpt>
      <trkpt lat="38.50333286" lon="-2.63229972">
        <ele>826.00000</ele>
        <time>2018-10-13T11:54:12Z</time>
      </trkpt>
      <trkpt lat="38.50280413" lon="-2.63246803">
        <ele>826.00000</ele>
        <time>2018-10-13T11:54:20Z</time>
      </trkpt>
      <trkpt lat="38.50236215" lon="-2.63261589">
        <ele>826.00000</ele>
        <time>2018-10-13T11:54:27Z</time>
      </trkpt>
      <trkpt lat="38.50186544" lon="-2.63274447">
        <ele>825.00000</ele>
        <time>2018-10-13T11:54:34Z</time>
      </trkpt>
      <trkpt lat="38.50178916" lon="-2.63274103">
        <ele>825.00000</ele>
        <time>2018-10-13T11:54:35Z</time>
      </trkpt>
      <trkpt lat="38.50156503" lon="-2.63266836">
        <ele>824.00000</ele>
        <time>2018-10-13T11:54:38Z</time>
      </trkpt>
      <trkpt lat="38.50141801" lon="-2.63259720">
        <ele>824.00000</ele>
        <time>2018-10-13T11:54:40Z</time>
      </trkpt>
      <trkpt lat="38.50118642" lon="-2.63248044">
        <ele>823.00000</ele>
        <time>2018-10-13T11:54:43Z</time>
      </trkpt>
      <trkpt lat="38.50084939" lon="-2.63231934">
        <ele>822.00000</ele>
        <time>2018-10-13T11:54:47Z</time>
      </trkpt>
      <trkpt lat="38.50075710" lon="-2.63229746">
        <ele>822.00000</ele>
        <time>2018-10-13T11:54:48Z</time>
      </trkpt>
      <trkpt lat="38.50036625" lon="-2.63231892">
        <ele>820.00000</ele>
        <time>2018-10-13T11:54:52Z</time>
      </trkpt>
      <trkpt lat="38.50016551" lon="-2.63234876">
        <ele>819.00000</ele>
        <time>2018-10-13T11:54:54Z</time>
      </trkpt>
      <trkpt lat="38.49986460" lon="-2.63239645">
        <ele>818.00000</ele>
        <time>2018-10-13T11:54:57Z</time>
      </trkpt>
      <trkpt lat="38.49950929" lon="-2.63251220">
        <ele>817.00000</ele>
        <time>2018-10-13T11:55:01Z</time>
      </trkpt>
      <trkpt lat="38.49900277" lon="-2.63277824">
        <ele>816.00000</ele>
        <time>2018-10-13T11:55:10Z</time>
      </trkpt>
      <trkpt lat="38.49892063" lon="-2.63283055">
        <ele>817.00000</ele>
        <time>2018-10-13T11:55:12Z</time>
      </trkpt>
      <trkpt lat="38.49887972" lon="-2.63285486">
        <ele>817.00000</ele>
        <time>2018-10-13T11:55:13Z</time>
      </trkpt>
      <trkpt lat="38.49884008" lon="-2.63287807">
        <ele>818.00000</ele>
        <time>2018-10-13T11:55:14Z</time>
      </trkpt>
      <trkpt lat="38.49880278" lon="-2.63290439">
        <ele>819.00000</ele>
        <time>2018-10-13T11:55:15Z</time>
      </trkpt>
      <trkpt lat="38.49876841" lon="-2.63293641">
        <ele>819.00000</ele>
        <time>2018-10-13T11:55:16Z</time>
      </trkpt>
      <trkpt lat="38.49869725" lon="-2.63299617">
        <ele>820.00000</ele>
        <time>2018-10-13T11:55:18Z</time>
      </trkpt>
      <trkpt lat="38.49862407" lon="-2.63304504">
        <ele>820.00000</ele>
        <time>2018-10-13T11:55:20Z</time>
      </trkpt>
      <trkpt lat="38.49849315" lon="-2.63315845">
        <ele>822.00000</ele>
        <time>2018-10-13T11:55:24Z</time>
      </trkpt>
      <trkpt lat="38.49846490" lon="-2.63318678">
        <ele>822.00000</ele>
        <time>2018-10-13T11:55:25Z</time>
      </trkpt>
      <trkpt lat="38.49838519" lon="-2.63326532">
        <ele>823.00000</ele>
        <time>2018-10-13T11:55:28Z</time>
      </trkpt>
      <trkpt lat="38.49835971" lon="-2.63328971">
        <ele>823.00000</ele>
        <time>2018-10-13T11:55:29Z</time>
      </trkpt>
      <trkpt lat="38.49828880" lon="-2.63335836">
        <ele>824.00000</ele>
        <time>2018-10-13T11:55:32Z</time>
      </trkpt>
      <trkpt lat="38.49823918" lon="-2.63339951">
        <ele>824.00000</ele>
        <time>2018-10-13T11:55:34Z</time>
      </trkpt>
      <trkpt lat="38.49816852" lon="-2.63346380">
        <ele>825.00000</ele>
        <time>2018-10-13T11:55:37Z</time>
      </trkpt>
      <trkpt lat="38.49814664" lon="-2.63348593">
        <ele>825.00000</ele>
        <time>2018-10-13T11:55:38Z</time>
      </trkpt>
      <trkpt lat="38.49807162" lon="-2.63358651">
        <ele>826.00000</ele>
        <time>2018-10-13T11:55:42Z</time>
      </trkpt>
      <trkpt lat="38.49805209" lon="-2.63361367">
        <ele>826.00000</ele>
        <time>2018-10-13T11:55:43Z</time>
      </trkpt>
      <trkpt lat="38.49794061" lon="-2.63378533">
        <ele>827.00000</ele>
        <time>2018-10-13T11:55:49Z</time>
      </trkpt>
      <trkpt lat="38.49786518" lon="-2.63389639">
        <ele>828.00000</ele>
        <time>2018-10-13T11:55:53Z</time>
      </trkpt>
      <trkpt lat="38.49778999" lon="-2.63400728">
        <ele>830.00000</ele>
        <time>2018-10-13T11:55:57Z</time>
      </trkpt>
      <trkpt lat="38.49760190" lon="-2.63415640">
        <ele>831.00000</ele>
        <time>2018-10-13T11:56:04Z</time>
      </trkpt>
      <trkpt lat="38.49744005" lon="-2.63425623">
        <ele>832.00000</ele>
        <time>2018-10-13T11:56:09Z</time>
      </trkpt>
      <trkpt lat="38.49728456" lon="-2.63434910">
        <ele>833.00000</ele>
        <time>2018-10-13T11:56:14Z</time>
      </trkpt>
      <trkpt lat="38.49715221" lon="-2.63443350">
        <ele>834.00000</ele>
        <time>2018-10-13T11:56:19Z</time>
      </trkpt>
      <trkpt lat="38.49708390" lon="-2.63447491">
        <ele>835.00000</ele>
        <time>2018-10-13T11:56:22Z</time>
      </trkpt>
      <trkpt lat="38.49698072" lon="-2.63454574">
        <ele>837.00000</ele>
        <time>2018-10-13T11:56:26Z</time>
      </trkpt>
      <trkpt lat="38.49675994" lon="-2.63477071">
        <ele>837.00000</ele>
        <time>2018-10-13T11:56:34Z</time>
      </trkpt>
      <trkpt lat="38.49669112" lon="-2.63482427">
        <ele>837.00000</ele>
        <time>2018-10-13T11:56:36Z</time>
      </trkpt>
      <trkpt lat="38.49646305" lon="-2.63476694">
        <ele>837.00000</ele>
        <time>2018-10-13T11:56:41Z</time>
      </trkpt>
      <trkpt lat="38.49637445" lon="-2.63466987">
        <ele>837.00000</ele>
        <time>2018-10-13T11:56:43Z</time>
      </trkpt>
      <trkpt lat="38.49627622" lon="-2.63456929">
        <ele>836.00000</ele>
        <time>2018-10-13T11:56:45Z</time>
      </trkpt>
      <trkpt lat="38.49615820" lon="-2.63448882">
        <ele>835.00000</ele>
        <time>2018-10-13T11:56:47Z</time>
      </trkpt>
      <trkpt lat="38.49594488" lon="-2.63441858">
        <ele>834.00000</ele>
        <time>2018-10-13T11:56:50Z</time>
      </trkpt>
      <trkpt lat="38.49586810" lon="-2.63440391">
        <ele>834.00000</ele>
        <time>2018-10-13T11:56:51Z</time>
      </trkpt>
      <trkpt lat="38.49579057" lon="-2.63439469">
        <ele>834.00000</ele>
        <time>2018-10-13T11:56:52Z</time>
      </trkpt>
      <trkpt lat="38.49563484" lon="-2.63438480">
        <ele>833.00000</ele>
        <time>2018-10-13T11:56:54Z</time>
      </trkpt>
      <trkpt lat="38.49547700" lon="-2.63437994">
        <ele>832.00000</ele>
        <time>2018-10-13T11:56:56Z</time>
      </trkpt>
      <trkpt lat="38.49523267" lon="-2.63439838">
        <ele>831.00000</ele>
        <time>2018-10-13T11:56:59Z</time>
      </trkpt>
      <trkpt lat="38.49506059" lon="-2.63440886">
        <ele>830.00000</ele>
        <time>2018-10-13T11:57:01Z</time>
      </trkpt>
      <trkpt lat="38.49497267" lon="-2.63440408">
        <ele>829.00000</ele>
        <time>2018-10-13T11:57:02Z</time>
      </trkpt>
      <trkpt lat="38.49451887" lon="-2.63435605">
        <ele>828.00000</ele>
        <time>2018-10-13T11:57:07Z</time>
      </trkpt>
      <trkpt lat="38.49433505" lon="-2.63433753">
        <ele>827.00000</ele>
        <time>2018-10-13T11:57:09Z</time>
      </trkpt>
      <trkpt lat="38.49415065" lon="-2.63433510">
        <ele>826.00000</ele>
        <time>2018-10-13T11:57:11Z</time>
      </trkpt>
      <trkpt lat="38.49405904" lon="-2.63434784">
        <ele>826.00000</ele>
        <time>2018-10-13T11:57:12Z</time>
      </trkpt>
      <trkpt lat="38.49360139" lon="-2.63446083">
        <ele>825.00000</ele>
        <time>2018-10-13T11:57:17Z</time>
      </trkpt>
      <trkpt lat="38.49350675" lon="-2.63448656">
        <ele>824.00000</ele>
        <time>2018-10-13T11:57:18Z</time>
      </trkpt>
      <trkpt lat="38.49331188" lon="-2.63453585">
        <ele>823.00000</ele>
        <time>2018-10-13T11:57:20Z</time>
      </trkpt>
      <trkpt lat="38.49301499" lon="-2.63461698">
        <ele>822.00000</ele>
        <time>2018-10-13T11:57:23Z</time>
      </trkpt>
      <trkpt lat="38.49272363" lon="-2.63473802">
        <ele>821.00000</ele>
        <time>2018-10-13T11:57:26Z</time>
      </trkpt>
      <trkpt lat="38.49253102" lon="-2.63483407">
        <ele>820.00000</ele>
        <time>2018-10-13T11:57:28Z</time>
      </trkpt>
      <trkpt lat="38.49233446" lon="-2.63492921">
        <ele>819.00000</ele>
        <time>2018-10-13T11:57:30Z</time>
      </trkpt>
      <trkpt lat="38.49192241" lon="-2.63512719">
        <ele>818.00000</ele>
        <time>2018-10-13T11:57:34Z</time>
      </trkpt>
      <trkpt lat="38.49181964" lon="-2.63517639">
        <ele>817.00000</ele>
        <time>2018-10-13T11:57:35Z</time>
      </trkpt>
      <trkpt lat="38.49150574" lon="-2.63529047">
        <ele>815.00000</ele>
        <time>2018-10-13T11:57:38Z</time>
      </trkpt>
      <trkpt lat="38.49139921" lon="-2.63530849">
        <ele>815.00000</ele>
        <time>2018-10-13T11:57:39Z</time>
      </trkpt>
      <trkpt lat="38.49129024" lon="-2.63530790">
        <ele>814.00000</ele>
        <time>2018-10-13T11:57:40Z</time>
      </trkpt>
      <trkpt lat="38.49107952" lon="-2.63524294">
        <ele>812.00000</ele>
        <time>2018-10-13T11:57:42Z</time>
      </trkpt>
      <trkpt lat="38.49089973" lon="-2.63512426">
        <ele>810.00000</ele>
        <time>2018-10-13T11:57:44Z</time>
      </trkpt>
      <trkpt lat="38.49069496" lon="-2.63491462">
        <ele>810.00000</ele>
        <time>2018-10-13T11:57:47Z</time>
      </trkpt>
      <trkpt lat="38.49054384" lon="-2.63473341">
        <ele>810.00000</ele>
        <time>2018-10-13T11:57:50Z</time>
      </trkpt>
      <trkpt lat="38.49045784" lon="-2.63464020">
        <ele>810.00000</ele>
        <time>2018-10-13T11:57:52Z</time>
      </trkpt>
      <trkpt lat="38.49037477" lon="-2.63456745">
        <ele>811.00000</ele>
        <time>2018-10-13T11:57:54Z</time>
      </trkpt>
      <trkpt lat="38.49030001" lon="-2.63450768">
        <ele>812.00000</ele>
        <time>2018-10-13T11:57:56Z</time>
      </trkpt>
      <trkpt lat="38.49023027" lon="-2.63445647">
        <ele>814.00000</ele>
        <time>2018-10-13T11:57:58Z</time>
      </trkpt>
      <trkpt lat="38.49016489" lon="-2.63440928">
        <ele>815.00000</ele>
        <time>2018-10-13T11:58:00Z</time>
      </trkpt>
      <trkpt lat="38.49010320" lon="-2.63436117">
        <ele>816.00000</ele>
        <time>2018-10-13T11:58:02Z</time>
      </trkpt>
      <trkpt lat="38.49001988" lon="-2.63429570">
        <ele>817.00000</ele>
        <time>2018-10-13T11:58:05Z</time>
      </trkpt>
      <trkpt lat="38.48994327" lon="-2.63423628">
        <ele>818.00000</ele>
        <time>2018-10-13T11:58:08Z</time>
      </trkpt>
      <trkpt lat="38.48984638" lon="-2.63415900">
        <ele>820.00000</ele>
        <time>2018-10-13T11:58:12Z</time>
      </trkpt>
      <trkpt lat="38.48972752" lon="-2.63406638">
        <ele>821.00000</ele>
        <time>2018-10-13T11:58:17Z</time>
      </trkpt>
      <trkpt lat="38.48961428" lon="-2.63403385">
        <ele>822.00000</ele>
        <time>2018-10-13T11:58:21Z</time>
      </trkpt>
      <trkpt lat="38.48958495" lon="-2.63403251">
        <ele>822.00000</ele>
        <time>2018-10-13T11:58:22Z</time>
      </trkpt>
      <trkpt lat="38.48946014" lon="-2.63404844">
        <ele>822.00000</ele>
        <time>2018-10-13T11:58:26Z</time>
      </trkpt>
      <trkpt lat="38.48939384" lon="-2.63405590">
        <ele>823.00000</ele>
        <time>2018-10-13T11:58:28Z</time>
      </trkpt>
      <trkpt lat="38.48924833" lon="-2.63406235">
        <ele>824.00000</ele>
        <time>2018-10-13T11:58:33Z</time>
      </trkpt>
      <trkpt lat="38.48905881" lon="-2.63401055">
        <ele>825.00000</ele>
        <time>2018-10-13T11:58:40Z</time>
      </trkpt>
      <trkpt lat="38.48888263" lon="-2.63394769">
        <ele>827.00000</ele>
        <time>2018-10-13T11:58:46Z</time>
      </trkpt>
      <trkpt lat="38.48851441" lon="-2.63379774">
        <ele>827.00000</ele>
        <time>2018-10-13T11:58:57Z</time>
      </trkpt>
      <trkpt lat="38.48825298" lon="-2.63381282">
        <ele>828.00000</ele>
        <time>2018-10-13T11:59:04Z</time>
      </trkpt>
      <trkpt lat="38.48816245" lon="-2.63389362">
        <ele>828.00000</ele>
        <time>2018-10-13T11:59:07Z</time>
      </trkpt>
      <trkpt lat="38.48809883" lon="-2.63401902">
        <ele>828.00000</ele>
        <time>2018-10-13T11:59:10Z</time>
      </trkpt>
      <trkpt lat="38.48810956" lon="-2.63442034">
        <ele>828.00000</ele>
        <time>2018-10-13T11:59:18Z</time>
      </trkpt>
      <trkpt lat="38.48820797" lon="-2.63480030">
        <ele>829.00000</ele>
        <time>2018-10-13T11:59:26Z</time>
      </trkpt>
      <trkpt lat="38.48849496" lon="-2.63538535">
        <ele>829.00000</ele>
        <time>2018-10-13T11:59:39Z</time>
      </trkpt>
      <trkpt lat="38.48854718" lon="-2.63547487">
        <ele>830.00000</ele>
        <time>2018-10-13T11:59:41Z</time>
      </trkpt>
      <trkpt lat="38.48881331" lon="-2.63596949">
        <ele>830.00000</ele>
        <time>2018-10-13T11:59:52Z</time>
      </trkpt>
      <trkpt lat="38.48888749" lon="-2.63623276">
        <ele>831.00000</ele>
        <time>2018-10-13T11:59:57Z</time>
      </trkpt>
      <trkpt lat="38.48891381" lon="-2.63659679">
        <ele>831.00000</ele>
        <time>2018-10-13T12:00:04Z</time>
      </trkpt>
      <trkpt lat="38.48887282" lon="-2.63685361">
        <ele>832.00000</ele>
        <time>2018-10-13T12:00:09Z</time>
      </trkpt>
      <trkpt lat="38.48869705" lon="-2.63736742">
        <ele>833.00000</ele>
        <time>2018-10-13T12:00:18Z</time>
      </trkpt>
      <trkpt lat="38.48855732" lon="-2.63769968">
        <ele>833.00000</ele>
        <time>2018-10-13T12:00:24Z</time>
      </trkpt>
      <trkpt lat="38.48840972" lon="-2.63806873">
        <ele>833.00000</ele>
        <time>2018-10-13T12:00:31Z</time>
      </trkpt>
      <trkpt lat="38.48837058" lon="-2.63822455">
        <ele>833.00000</ele>
        <time>2018-10-13T12:00:34Z</time>
      </trkpt>
      <trkpt lat="38.48833286" lon="-2.63839018">
        <ele>833.00000</ele>
        <time>2018-10-13T12:00:37Z</time>
      </trkpt>
      <trkpt lat="38.48832003" lon="-2.63850711">
        <ele>833.00000</ele>
        <time>2018-10-13T12:00:39Z</time>
      </trkpt>
      <trkpt lat="38.48849086" lon="-2.63924631">
        <ele>831.00000</ele>
        <time>2018-10-13T12:00:50Z</time>
      </trkpt>
      <trkpt lat="38.48854626" lon="-2.63943683">
        <ele>831.00000</ele>
        <time>2018-10-13T12:00:52Z</time>
      </trkpt>
      <trkpt lat="38.48860703" lon="-2.63964068">
        <ele>830.00000</ele>
        <time>2018-10-13T12:00:54Z</time>
      </trkpt>
      <trkpt lat="38.48863704" lon="-2.63975098">
        <ele>829.00000</ele>
        <time>2018-10-13T12:00:55Z</time>
      </trkpt>
      <trkpt lat="38.48870267" lon="-2.63997956">
        <ele>828.00000</ele>
        <time>2018-10-13T12:00:57Z</time>
      </trkpt>
      <trkpt lat="38.48874156" lon="-2.64009824">
        <ele>827.00000</ele>
        <time>2018-10-13T12:00:58Z</time>
      </trkpt>
      <trkpt lat="38.48878724" lon="-2.64021324">
        <ele>826.00000</ele>
        <time>2018-10-13T12:00:59Z</time>
      </trkpt>
      <trkpt lat="38.48889646" lon="-2.64043243">
        <ele>824.00000</ele>
        <time>2018-10-13T12:01:01Z</time>
      </trkpt>
      <trkpt lat="38.48895731" lon="-2.64053662">
        <ele>822.00000</ele>
        <time>2018-10-13T12:01:02Z</time>
      </trkpt>
      <trkpt lat="38.48907013" lon="-2.64075237">
        <ele>821.00000</ele>
        <time>2018-10-13T12:01:04Z</time>
      </trkpt>
      <trkpt lat="38.48916258" lon="-2.64098497">
        <ele>819.00000</ele>
        <time>2018-10-13T12:01:06Z</time>
      </trkpt>
      <trkpt lat="38.48920449" lon="-2.64110726">
        <ele>818.00000</ele>
        <time>2018-10-13T12:01:07Z</time>
      </trkpt>
      <trkpt lat="38.48932846" lon="-2.64148201">
        <ele>817.00000</ele>
        <time>2018-10-13T12:01:10Z</time>
      </trkpt>
      <trkpt lat="38.48953650" lon="-2.64210110">
        <ele>816.00000</ele>
        <time>2018-10-13T12:01:15Z</time>
      </trkpt>
      <trkpt lat="38.48962258" lon="-2.64235029">
        <ele>814.00000</ele>
        <time>2018-10-13T12:01:17Z</time>
      </trkpt>
      <trkpt lat="38.48971428" lon="-2.64260066">
        <ele>813.00000</ele>
        <time>2018-10-13T12:01:19Z</time>
      </trkpt>
      <trkpt lat="38.48980983" lon="-2.64285807">
        <ele>812.00000</ele>
        <time>2018-10-13T12:01:21Z</time>
      </trkpt>
      <trkpt lat="38.48991762" lon="-2.64327172">
        <ele>810.00000</ele>
        <time>2018-10-13T12:01:24Z</time>
      </trkpt>
      <trkpt lat="38.49001360" lon="-2.64385661">
        <ele>809.00000</ele>
        <time>2018-10-13T12:01:28Z</time>
      </trkpt>
      <trkpt lat="38.49007336" lon="-2.64415006">
        <ele>807.00000</ele>
        <time>2018-10-13T12:01:30Z</time>
      </trkpt>
      <trkpt lat="38.49011854" lon="-2.64429154">
        <ele>806.00000</ele>
        <time>2018-10-13T12:01:31Z</time>
      </trkpt>
      <trkpt lat="38.49017118" lon="-2.64442917">
        <ele>805.00000</ele>
        <time>2018-10-13T12:01:32Z</time>
      </trkpt>
      <trkpt lat="38.49022775" lon="-2.64456412">
        <ele>803.00000</ele>
        <time>2018-10-13T12:01:33Z</time>
      </trkpt>
      <trkpt lat="38.49034820" lon="-2.64482933">
        <ele>802.00000</ele>
        <time>2018-10-13T12:01:35Z</time>
      </trkpt>
      <trkpt lat="38.49040822" lon="-2.64496184">
        <ele>800.00000</ele>
        <time>2018-10-13T12:01:36Z</time>
      </trkpt>
      <trkpt lat="38.49052816" lon="-2.64522663">
        <ele>799.00000</ele>
        <time>2018-10-13T12:01:38Z</time>
      </trkpt>
      <trkpt lat="38.49064224" lon="-2.64549376">
        <ele>798.00000</ele>
        <time>2018-10-13T12:01:40Z</time>
      </trkpt>
      <trkpt lat="38.49073335" lon="-2.64577665">
        <ele>797.00000</ele>
        <time>2018-10-13T12:01:42Z</time>
      </trkpt>
      <trkpt lat="38.49078917" lon="-2.64607722">
        <ele>795.00000</ele>
        <time>2018-10-13T12:01:44Z</time>
      </trkpt>
      <trkpt lat="38.49082320" lon="-2.64638467">
        <ele>794.00000</ele>
        <time>2018-10-13T12:01:46Z</time>
      </trkpt>
      <trkpt lat="38.49083712" lon="-2.64669707">
        <ele>792.00000</ele>
        <time>2018-10-13T12:01:48Z</time>
      </trkpt>
      <trkpt lat="38.49081382" lon="-2.64715757">
        <ele>791.00000</ele>
        <time>2018-10-13T12:01:51Z</time>
      </trkpt>
      <trkpt lat="38.49080074" lon="-2.64759133">
        <ele>790.00000</ele>
        <time>2018-10-13T12:01:54Z</time>
      </trkpt>
      <trkpt lat="38.49081273" lon="-2.64772812">
        <ele>789.00000</ele>
        <time>2018-10-13T12:01:55Z</time>
      </trkpt>
      <trkpt lat="38.49083737" lon="-2.64785838">
        <ele>788.00000</ele>
        <time>2018-10-13T12:01:56Z</time>
      </trkpt>
      <trkpt lat="38.49098196" lon="-2.64833363">
        <ele>788.00000</ele>
        <time>2018-10-13T12:02:00Z</time>
      </trkpt>
      <trkpt lat="38.49101783" lon="-2.64844830">
        <ele>788.00000</ele>
        <time>2018-10-13T12:02:01Z</time>
      </trkpt>
      <trkpt lat="38.49108816" lon="-2.64867377">
        <ele>788.00000</ele>
        <time>2018-10-13T12:02:03Z</time>
      </trkpt>
      <trkpt lat="38.49115915" lon="-2.64889539">
        <ele>788.00000</ele>
        <time>2018-10-13T12:02:05Z</time>
      </trkpt>
      <trkpt lat="38.49122948" lon="-2.64911307">
        <ele>788.00000</ele>
        <time>2018-10-13T12:02:07Z</time>
      </trkpt>
      <trkpt lat="38.49132092" lon="-2.64943158">
        <ele>788.00000</ele>
        <time>2018-10-13T12:02:10Z</time>
      </trkpt>
      <trkpt lat="38.49146978" lon="-2.65015225">
        <ele>789.00000</ele>
        <time>2018-10-13T12:02:17Z</time>
      </trkpt>
      <trkpt lat="38.49160314" lon="-2.65090461">
        <ele>789.00000</ele>
        <time>2018-10-13T12:02:24Z</time>
      </trkpt>
      <trkpt lat="38.49167548" lon="-2.65123201">
        <ele>788.00000</ele>
        <time>2018-10-13T12:02:27Z</time>
      </trkpt>
      <trkpt lat="38.49189584" lon="-2.65173492">
        <ele>787.00000</ele>
        <time>2018-10-13T12:02:32Z</time>
      </trkpt>
      <trkpt lat="38.49208896" lon="-2.65213089">
        <ele>787.00000</ele>
        <time>2018-10-13T12:02:36Z</time>
      </trkpt>
      <trkpt lat="38.49219264" lon="-2.65232627">
        <ele>786.00000</ele>
        <time>2018-10-13T12:02:38Z</time>
      </trkpt>
      <trkpt lat="38.49237662" lon="-2.65259172">
        <ele>786.00000</ele>
        <time>2018-10-13T12:02:41Z</time>
      </trkpt>
      <trkpt lat="38.49244385" lon="-2.65267303">
        <ele>785.00000</ele>
        <time>2018-10-13T12:02:42Z</time>
      </trkpt>
      <trkpt lat="38.49257888" lon="-2.65283438">
        <ele>784.00000</ele>
        <time>2018-10-13T12:02:44Z</time>
      </trkpt>
      <trkpt lat="38.49264032" lon="-2.65292339">
        <ele>784.00000</ele>
        <time>2018-10-13T12:02:45Z</time>
      </trkpt>
      <trkpt lat="38.49274367" lon="-2.65312573">
        <ele>783.00000</ele>
        <time>2018-10-13T12:02:47Z</time>
      </trkpt>
      <trkpt lat="38.49285908" lon="-2.65346696">
        <ele>782.00000</ele>
        <time>2018-10-13T12:02:50Z</time>
      </trkpt>
      <trkpt lat="38.49286696" lon="-2.65383308">
        <ele>780.00000</ele>
        <time>2018-10-13T12:02:53Z</time>
      </trkpt>
      <trkpt lat="38.49279739" lon="-2.65405378">
        <ele>779.00000</ele>
        <time>2018-10-13T12:02:55Z</time>
      </trkpt>
      <trkpt lat="38.49260997" lon="-2.65428881">
        <ele>777.00000</ele>
        <time>2018-10-13T12:02:58Z</time>
      </trkpt>
      <trkpt lat="38.49254124" lon="-2.65434790">
        <ele>777.00000</ele>
        <time>2018-10-13T12:02:59Z</time>
      </trkpt>
      <trkpt lat="38.49240797" lon="-2.65444991">
        <ele>777.00000</ele>
        <time>2018-10-13T12:03:01Z</time>
      </trkpt>
      <trkpt lat="38.49233932" lon="-2.65448737">
        <ele>777.00000</ele>
        <time>2018-10-13T12:03:02Z</time>
      </trkpt>
      <trkpt lat="38.49219993" lon="-2.65452568">
        <ele>777.00000</ele>
        <time>2018-10-13T12:03:04Z</time>
      </trkpt>
      <trkpt lat="38.49206934" lon="-2.65451277">
        <ele>777.00000</ele>
        <time>2018-10-13T12:03:06Z</time>
      </trkpt>
      <trkpt lat="38.49195493" lon="-2.65446499">
        <ele>778.00000</ele>
        <time>2018-10-13T12:03:08Z</time>
      </trkpt>
      <trkpt lat="38.49185720" lon="-2.65439232">
        <ele>779.00000</ele>
        <time>2018-10-13T12:03:10Z</time>
      </trkpt>
      <trkpt lat="38.49181260" lon="-2.65435251">
        <ele>779.00000</ele>
        <time>2018-10-13T12:03:11Z</time>
      </trkpt>
      <trkpt lat="38.49176977" lon="-2.65431177">
        <ele>780.00000</ele>
        <time>2018-10-13T12:03:12Z</time>
      </trkpt>
      <trkpt lat="38.49168822" lon="-2.65423055">
        <ele>781.00000</ele>
        <time>2018-10-13T12:03:14Z</time>
      </trkpt>
      <trkpt lat="38.49160934" lon="-2.65416031">
        <ele>783.00000</ele>
        <time>2018-10-13T12:03:16Z</time>
      </trkpt>
      <trkpt lat="38.49144782" lon="-2.65408211">
        <ele>784.00000</ele>
        <time>2018-10-13T12:03:20Z</time>
      </trkpt>
      <trkpt lat="38.49125110" lon="-2.65406250">
        <ele>785.00000</ele>
        <time>2018-10-13T12:03:25Z</time>
      </trkpt>
      <trkpt lat="38.49121430" lon="-2.65406124">
        <ele>785.00000</ele>
        <time>2018-10-13T12:03:26Z</time>
      </trkpt>
      <trkpt lat="38.49105077" lon="-2.65407155">
        <ele>786.00000</ele>
        <time>2018-10-13T12:03:31Z</time>
      </trkpt>
      <trkpt lat="38.49095405" lon="-2.65410047">
        <ele>787.00000</ele>
        <time>2018-10-13T12:03:34Z</time>
      </trkpt>
      <trkpt lat="38.49092270" lon="-2.65411161">
        <ele>787.00000</ele>
        <time>2018-10-13T12:03:35Z</time>
      </trkpt>
      <trkpt lat="38.49079982" lon="-2.65415495">
        <ele>788.00000</ele>
        <time>2018-10-13T12:03:39Z</time>
      </trkpt>
      <trkpt lat="38.49070963" lon="-2.65419652">
        <ele>789.00000</ele>
        <time>2018-10-13T12:03:42Z</time>
      </trkpt>
      <trkpt lat="38.49062623" lon="-2.65424815">
        <ele>789.00000</ele>
        <time>2018-10-13T12:03:45Z</time>
      </trkpt>
      <trkpt lat="38.49051718" lon="-2.65432015">
        <ele>790.00000</ele>
        <time>2018-10-13T12:03:49Z</time>
      </trkpt>
      <trkpt lat="38.49049019" lon="-2.65433826">
        <ele>790.00000</ele>
        <time>2018-10-13T12:03:50Z</time>
      </trkpt>
      <trkpt lat="38.49035843" lon="-2.65442610">
        <ele>792.00000</ele>
        <time>2018-10-13T12:03:55Z</time>
      </trkpt>
      <trkpt lat="38.49020093" lon="-2.65453859">
        <ele>793.00000</ele>
        <time>2018-10-13T12:04:01Z</time>
      </trkpt>
      <trkpt lat="38.49009850" lon="-2.65462098">
        <ele>794.00000</ele>
        <time>2018-10-13T12:04:05Z</time>
      </trkpt>
      <trkpt lat="38.48998619" lon="-2.65474403">
        <ele>795.00000</ele>
        <time>2018-10-13T12:04:10Z</time>
      </trkpt>
      <trkpt lat="38.48987806" lon="-2.65488585">
        <ele>796.00000</ele>
        <time>2018-10-13T12:04:15Z</time>
      </trkpt>
      <trkpt lat="38.48980438" lon="-2.65501518">
        <ele>797.00000</ele>
        <time>2018-10-13T12:04:19Z</time>
      </trkpt>
      <trkpt lat="38.48968075" lon="-2.65528910">
        <ele>798.00000</ele>
        <time>2018-10-13T12:04:27Z</time>
      </trkpt>
      <trkpt lat="38.48962141" lon="-2.65542992">
        <ele>800.00000</ele>
        <time>2018-10-13T12:04:31Z</time>
      </trkpt>
      <trkpt lat="38.48949233" lon="-2.65570267">
        <ele>801.00000</ele>
        <time>2018-10-13T12:04:39Z</time>
      </trkpt>
      <trkpt lat="38.48925855" lon="-2.65610089">
        <ele>802.00000</ele>
        <time>2018-10-13T12:04:51Z</time>
      </trkpt>
      <trkpt lat="38.48909385" lon="-2.65636232">
        <ele>803.00000</ele>
        <time>2018-10-13T12:04:59Z</time>
      </trkpt>
      <trkpt lat="38.48897474" lon="-2.65656441">
        <ele>804.00000</ele>
        <time>2018-10-13T12:05:05Z</time>
      </trkpt>
      <trkpt lat="38.48891054" lon="-2.65666172">
        <ele>804.00000</ele>
        <time>2018-10-13T12:05:08Z</time>
      </trkpt>
      <trkpt lat="38.48874667" lon="-2.65693154">
        <ele>805.00000</ele>
        <time>2018-10-13T12:05:16Z</time>
      </trkpt>
      <trkpt lat="38.48866780" lon="-2.65706531">
        <ele>805.00000</ele>
        <time>2018-10-13T12:05:20Z</time>
      </trkpt>
      <trkpt lat="38.48849798" lon="-2.65735868">
        <ele>806.00000</ele>
        <time>2018-10-13T12:05:29Z</time>
      </trkpt>
      <trkpt lat="38.48843746" lon="-2.65745549">
        <ele>806.00000</ele>
        <time>2018-10-13T12:05:32Z</time>
      </trkpt>
      <trkpt lat="38.48833277" lon="-2.65762464">
        <ele>807.00000</ele>
        <time>2018-10-13T12:05:37Z</time>
      </trkpt>
      <trkpt lat="38.48814720" lon="-2.65794005">
        <ele>808.00000</ele>
        <time>2018-10-13T12:05:46Z</time>
      </trkpt>
      <trkpt lat="38.48793514" lon="-2.65828236">
        <ele>810.00000</ele>
        <time>2018-10-13T12:05:56Z</time>
      </trkpt>
      <trkpt lat="38.48772902" lon="-2.65862317">
        <ele>811.00000</ele>
        <time>2018-10-13T12:06:06Z</time>
      </trkpt>
      <trkpt lat="38.48747656" lon="-2.65904428">
        <ele>812.00000</ele>
        <time>2018-10-13T12:06:18Z</time>
      </trkpt>
      <trkpt lat="38.48716350" lon="-2.65956228">
        <ele>813.00000</ele>
        <time>2018-10-13T12:06:33Z</time>
      </trkpt>
      <trkpt lat="38.48693241" lon="-2.65995271">
        <ele>814.00000</ele>
        <time>2018-10-13T12:06:44Z</time>
      </trkpt>
      <trkpt lat="38.48679360" lon="-2.66017240">
        <ele>815.00000</ele>
        <time>2018-10-13T12:06:50Z</time>
      </trkpt>
      <trkpt lat="38.48656604" lon="-2.66050759">
        <ele>816.00000</ele>
        <time>2018-10-13T12:06:58Z</time>
      </trkpt>
      <trkpt lat="38.48650258" lon="-2.66060306">
        <ele>816.00000</ele>
        <time>2018-10-13T12:07:00Z</time>
      </trkpt>
      <trkpt lat="38.48618248" lon="-2.66126087">
        <ele>815.00000</ele>
        <time>2018-10-13T12:07:10Z</time>
      </trkpt>
      <trkpt lat="38.48610989" lon="-2.66141166">
        <ele>814.00000</ele>
        <time>2018-10-13T12:07:12Z</time>
      </trkpt>
      <trkpt lat="38.48603638" lon="-2.66155391">
        <ele>813.00000</ele>
        <time>2018-10-13T12:07:14Z</time>
      </trkpt>
      <trkpt lat="38.48600051" lon="-2.66162138">
        <ele>812.00000</ele>
        <time>2018-10-13T12:07:15Z</time>
      </trkpt>
      <trkpt lat="38.48593102" lon="-2.66174904">
        <ele>811.00000</ele>
        <time>2018-10-13T12:07:17Z</time>
      </trkpt>
      <trkpt lat="38.48586212" lon="-2.66187451">
        <ele>811.00000</ele>
        <time>2018-10-13T12:07:19Z</time>
      </trkpt>
      <trkpt lat="38.48578920" lon="-2.66200393">
        <ele>811.00000</ele>
        <time>2018-10-13T12:07:21Z</time>
      </trkpt>
      <trkpt lat="38.48570941" lon="-2.66213284">
        <ele>811.00000</ele>
        <time>2018-10-13T12:07:23Z</time>
      </trkpt>
      <trkpt lat="38.48562651" lon="-2.66226402">
        <ele>811.00000</ele>
        <time>2018-10-13T12:07:25Z</time>
      </trkpt>
      <trkpt lat="38.48550405" lon="-2.66245814">
        <ele>811.00000</ele>
        <time>2018-10-13T12:07:28Z</time>
      </trkpt>
      <trkpt lat="38.48512787" lon="-2.66298444">
        <ele>811.00000</ele>
        <time>2018-10-13T12:07:37Z</time>
      </trkpt>
      <trkpt lat="38.48474440" lon="-2.66334763">
        <ele>813.00000</ele>
        <time>2018-10-13T12:07:45Z</time>
      </trkpt>
      <trkpt lat="38.48425900" lon="-2.66360957">
        <ele>813.00000</ele>
        <time>2018-10-13T12:07:54Z</time>
      </trkpt>
      <trkpt lat="38.48394057" lon="-2.66376270">
        <ele>813.00000</ele>
        <time>2018-10-13T12:08:00Z</time>
      </trkpt>
      <trkpt lat="38.48378836" lon="-2.66413930">
        <ele>814.00000</ele>
        <time>2018-10-13T12:08:06Z</time>
      </trkpt>
      <trkpt lat="38.48370739" lon="-2.66482017">
        <ele>814.00000</ele>
        <time>2018-10-13T12:08:15Z</time>
      </trkpt>
      <trkpt lat="38.48359800" lon="-2.66511655">
        <ele>814.00000</ele>
        <time>2018-10-13T12:08:19Z</time>
      </trkpt>
      <trkpt lat="38.48338100" lon="-2.66549583">
        <ele>814.00000</ele>
        <time>2018-10-13T12:08:24Z</time>
      </trkpt>
      <trkpt lat="38.48322928" lon="-2.66573958">
        <ele>814.00000</ele>
        <time>2018-10-13T12:08:27Z</time>
      </trkpt>
      <trkpt lat="38.48312401" lon="-2.66590772">
        <ele>813.00000</ele>
        <time>2018-10-13T12:08:29Z</time>
      </trkpt>
      <trkpt lat="38.48307045" lon="-2.66599263">
        <ele>813.00000</ele>
        <time>2018-10-13T12:08:30Z</time>
      </trkpt>
      <trkpt lat="38.48296534" lon="-2.66616362">
        <ele>811.00000</ele>
        <time>2018-10-13T12:08:32Z</time>
      </trkpt>
      <trkpt lat="38.48280860" lon="-2.66641767">
        <ele>810.00000</ele>
        <time>2018-10-13T12:08:35Z</time>
      </trkpt>
      <trkpt lat="38.48270634" lon="-2.66658372">
        <ele>809.00000</ele>
        <time>2018-10-13T12:08:37Z</time>
      </trkpt>
      <trkpt lat="38.48265638" lon="-2.66666561">
        <ele>809.00000</ele>
        <time>2018-10-13T12:08:38Z</time>
      </trkpt>
      <trkpt lat="38.48246125" lon="-2.66698596">
        <ele>808.00000</ele>
        <time>2018-10-13T12:08:42Z</time>
      </trkpt>
      <trkpt lat="38.48236075" lon="-2.66714388">
        <ele>807.00000</ele>
        <time>2018-10-13T12:08:44Z</time>
      </trkpt>
      <trkpt lat="38.48216042" lon="-2.66746348">
        <ele>807.00000</ele>
        <time>2018-10-13T12:08:48Z</time>
      </trkpt>
      <trkpt lat="38.48206252" lon="-2.66762156">
        <ele>807.00000</ele>
        <time>2018-10-13T12:08:50Z</time>
      </trkpt>
      <trkpt lat="38.48196814" lon="-2.66778032">
        <ele>806.00000</ele>
        <time>2018-10-13T12:08:52Z</time>
      </trkpt>
      <trkpt lat="38.48158995" lon="-2.66838968">
        <ele>806.00000</ele>
        <time>2018-10-13T12:09:00Z</time>
      </trkpt>
      <trkpt lat="38.48121285" lon="-2.66898631">
        <ele>806.00000</ele>
        <time>2018-10-13T12:09:08Z</time>
      </trkpt>
      <trkpt lat="38.48116675" lon="-2.66906074">
        <ele>806.00000</ele>
        <time>2018-10-13T12:09:09Z</time>
      </trkpt>
      <trkpt lat="38.48095376" lon="-2.66943817">
        <ele>805.00000</ele>
        <time>2018-10-13T12:09:14Z</time>
      </trkpt>
      <trkpt lat="38.48091278" lon="-2.66961897">
        <ele>805.00000</ele>
        <time>2018-10-13T12:09:16Z</time>
      </trkpt>
      <trkpt lat="38.48074656" lon="-2.66986951">
        <ele>804.00000</ele>
        <time>2018-10-13T12:09:20Z</time>
      </trkpt>
      <trkpt lat="38.48057205" lon="-2.66997269">
        <ele>804.00000</ele>
        <time>2018-10-13T12:09:23Z</time>
      </trkpt>
      <trkpt lat="38.48049008" lon="-2.67010747">
        <ele>804.00000</ele>
        <time>2018-10-13T12:09:25Z</time>
      </trkpt>
      <trkpt lat="38.48044892" lon="-2.67017746">
        <ele>804.00000</ele>
        <time>2018-10-13T12:09:26Z</time>
      </trkpt>
      <trkpt lat="38.48032252" lon="-2.67038575">
        <ele>804.00000</ele>
        <time>2018-10-13T12:09:29Z</time>
      </trkpt>
      <trkpt lat="38.48002539" lon="-2.67087969">
        <ele>804.00000</ele>
        <time>2018-10-13T12:09:36Z</time>
      </trkpt>
      <trkpt lat="38.47989756" lon="-2.67108446">
        <ele>804.00000</ele>
        <time>2018-10-13T12:09:39Z</time>
      </trkpt>
      <trkpt lat="38.47977058" lon="-2.67129099">
        <ele>804.00000</ele>
        <time>2018-10-13T12:09:42Z</time>
      </trkpt>
      <trkpt lat="38.47968634" lon="-2.67142812">
        <ele>803.00000</ele>
        <time>2018-10-13T12:09:44Z</time>
      </trkpt>
      <trkpt lat="38.47947184" lon="-2.67176055">
        <ele>803.00000</ele>
        <time>2018-10-13T12:09:49Z</time>
      </trkpt>
      <trkpt lat="38.47921821" lon="-2.67204134">
        <ele>803.00000</ele>
        <time>2018-10-13T12:09:54Z</time>
      </trkpt>
      <trkpt lat="38.47874421" lon="-2.67252481">
        <ele>804.00000</ele>
        <time>2018-10-13T12:10:03Z</time>
      </trkpt>
      <trkpt lat="38.47828203" lon="-2.67299872">
        <ele>804.00000</ele>
        <time>2018-10-13T12:10:12Z</time>
      </trkpt>
      <trkpt lat="38.47785296" lon="-2.67344045">
        <ele>804.00000</ele>
        <time>2018-10-13T12:10:21Z</time>
      </trkpt>
      <trkpt lat="38.47762221" lon="-2.67369057">
        <ele>804.00000</ele>
        <time>2018-10-13T12:10:26Z</time>
      </trkpt>
      <trkpt lat="38.47741442" lon="-2.67385058">
        <ele>804.00000</ele>
        <time>2018-10-13T12:10:30Z</time>
      </trkpt>
      <trkpt lat="38.47730521" lon="-2.67387572">
        <ele>805.00000</ele>
        <time>2018-10-13T12:10:32Z</time>
      </trkpt>
      <trkpt lat="38.47705123" lon="-2.67379014">
        <ele>806.00000</ele>
        <time>2018-10-13T12:10:37Z</time>
      </trkpt>
      <trkpt lat="38.47687102" lon="-2.67356241">
        <ele>807.00000</ele>
        <time>2018-10-13T12:10:42Z</time>
      </trkpt>
      <trkpt lat="38.47673364" lon="-2.67331271">
        <ele>808.00000</ele>
        <time>2018-10-13T12:10:47Z</time>
      </trkpt>
      <trkpt lat="38.47666122" lon="-2.67315999">
        <ele>809.00000</ele>
        <time>2018-10-13T12:10:50Z</time>
      </trkpt>
      <trkpt lat="38.47663423" lon="-2.67311372">
        <ele>809.00000</ele>
        <time>2018-10-13T12:10:51Z</time>
      </trkpt>
      <trkpt lat="38.47652175" lon="-2.67293896">
        <ele>810.00000</ele>
        <time>2018-10-13T12:10:55Z</time>
      </trkpt>
      <trkpt lat="38.47637523" lon="-2.67273545">
        <ele>811.00000</ele>
        <time>2018-10-13T12:11:00Z</time>
      </trkpt>
      <trkpt lat="38.47621187" lon="-2.67251165">
        <ele>812.00000</ele>
        <time>2018-10-13T12:11:06Z</time>
      </trkpt>
      <trkpt lat="38.47606125" lon="-2.67228878">
        <ele>813.00000</ele>
        <time>2018-10-13T12:11:12Z</time>
      </trkpt>
      <trkpt lat="38.47593158" lon="-2.67211787">
        <ele>814.00000</ele>
        <time>2018-10-13T12:11:17Z</time>
      </trkpt>
      <trkpt lat="38.47572237" lon="-2.67191293">
        <ele>816.00000</ele>
        <time>2018-10-13T12:11:24Z</time>
      </trkpt>
      <trkpt lat="38.47541500" lon="-2.67183649">
        <ele>817.00000</ele>
        <time>2018-10-13T12:11:32Z</time>
      </trkpt>
      <trkpt lat="38.47515139" lon="-2.67182241">
        <ele>818.00000</ele>
        <time>2018-10-13T12:11:38Z</time>
      </trkpt>
      <trkpt lat="38.47482567" lon="-2.67184562">
        <ele>819.00000</ele>
        <time>2018-10-13T12:11:46Z</time>
      </trkpt>
      <trkpt lat="38.47457061" lon="-2.67199298">
        <ele>820.00000</ele>
        <time>2018-10-13T12:11:53Z</time>
      </trkpt>
      <trkpt lat="38.47430331" lon="-2.67212902">
        <ele>821.00000</ele>
        <time>2018-10-13T12:12:01Z</time>
      </trkpt>
      <trkpt lat="38.47412620" lon="-2.67215911">
        <ele>822.00000</ele>
        <time>2018-10-13T12:12:06Z</time>
      </trkpt>
      <trkpt lat="38.47396183" lon="-2.67209591">
        <ele>823.00000</ele>
        <time>2018-10-13T12:12:11Z</time>
      </trkpt>
      <trkpt lat="38.47377844" lon="-2.67183682">
        <ele>825.00000</ele>
        <time>2018-10-13T12:12:19Z</time>
      </trkpt>
      <trkpt lat="38.47370820" lon="-2.67168746">
        <ele>826.00000</ele>
        <time>2018-10-13T12:12:23Z</time>
      </trkpt>
      <trkpt lat="38.47355238" lon="-2.67151538">
        <ele>827.00000</ele>
        <time>2018-10-13T12:12:29Z</time>
      </trkpt>
      <trkpt lat="38.47335339" lon="-2.67145168">
        <ele>828.00000</ele>
        <time>2018-10-13T12:12:35Z</time>
      </trkpt>
      <trkpt lat="38.47319204" lon="-2.67141790">
        <ele>829.00000</ele>
        <time>2018-10-13T12:12:40Z</time>
      </trkpt>
      <trkpt lat="38.47300336" lon="-2.67138730">
        <ele>830.00000</ele>
        <time>2018-10-13T12:12:46Z</time>
      </trkpt>
      <trkpt lat="38.47284880" lon="-2.67135235">
        <ele>831.00000</ele>
        <time>2018-10-13T12:12:51Z</time>
      </trkpt>
      <trkpt lat="38.47268963" lon="-2.67134891">
        <ele>831.00000</ele>
        <time>2018-10-13T12:12:56Z</time>
      </trkpt>
      <trkpt lat="38.47259474" lon="-2.67137741">
        <ele>832.00000</ele>
        <time>2018-10-13T12:12:59Z</time>
      </trkpt>
      <trkpt lat="38.47241219" lon="-2.67153524">
        <ele>833.00000</ele>
        <time>2018-10-13T12:13:06Z</time>
      </trkpt>
      <trkpt lat="38.47229048" lon="-2.67166240">
        <ele>834.00000</ele>
        <time>2018-10-13T12:13:11Z</time>
      </trkpt>
      <trkpt lat="38.47216928" lon="-2.67178947">
        <ele>835.00000</ele>
        <time>2018-10-13T12:13:16Z</time>
      </trkpt>
      <trkpt lat="38.47199326" lon="-2.67202039">
        <ele>836.00000</ele>
        <time>2018-10-13T12:13:24Z</time>
      </trkpt>
      <trkpt lat="38.47192537" lon="-2.67225357">
        <ele>838.00000</ele>
        <time>2018-10-13T12:13:30Z</time>
      </trkpt>
      <trkpt lat="38.47193584" lon="-2.67246924">
        <ele>839.00000</ele>
        <time>2018-10-13T12:13:35Z</time>
      </trkpt>
      <trkpt lat="38.47209468" lon="-2.67269220">
        <ele>840.00000</ele>
        <time>2018-10-13T12:13:42Z</time>
      </trkpt>
      <trkpt lat="38.47235117" lon="-2.67274416">
        <ele>841.00000</ele>
        <time>2018-10-13T12:13:50Z</time>
      </trkpt>
      <trkpt lat="38.47264227" lon="-2.67280535">
        <ele>842.00000</ele>
        <time>2018-10-13T12:13:59Z</time>
      </trkpt>
      <trkpt lat="38.47277437" lon="-2.67292949">
        <ele>843.00000</ele>
        <time>2018-10-13T12:14:04Z</time>
      </trkpt>
      <trkpt lat="38.47279658" lon="-2.67317885">
        <ele>844.00000</ele>
        <time>2018-10-13T12:14:10Z</time>
      </trkpt>
      <trkpt lat="38.47265241" lon="-2.67340986">
        <ele>845.00000</ele>
        <time>2018-10-13T12:14:17Z</time>
      </trkpt>
      <trkpt lat="38.47243096" lon="-2.67357322">
        <ele>846.00000</ele>
        <time>2018-10-13T12:14:25Z</time>
      </trkpt>
      <trkpt lat="38.47227070" lon="-2.67366299">
        <ele>847.00000</ele>
        <time>2018-10-13T12:14:30Z</time>
      </trkpt>
      <trkpt lat="38.47208362" lon="-2.67374974">
        <ele>848.00000</ele>
        <time>2018-10-13T12:14:36Z</time>
      </trkpt>
      <trkpt lat="38.47193484" lon="-2.67381772">
        <ele>849.00000</ele>
        <time>2018-10-13T12:14:41Z</time>
      </trkpt>
      <trkpt lat="38.47178187" lon="-2.67385946">
        <ele>851.00000</ele>
        <time>2018-10-13T12:14:46Z</time>
      </trkpt>
      <trkpt lat="38.47160023" lon="-2.67391093">
        <ele>852.00000</ele>
        <time>2018-10-13T12:14:52Z</time>
      </trkpt>
      <trkpt lat="38.47141927" lon="-2.67395644">
        <ele>853.00000</ele>
        <time>2018-10-13T12:14:58Z</time>
      </trkpt>
      <trkpt lat="38.47123939" lon="-2.67401251">
        <ele>854.00000</ele>
        <time>2018-10-13T12:15:04Z</time>
      </trkpt>
      <trkpt lat="38.47108684" lon="-2.67407546">
        <ele>855.00000</ele>
        <time>2018-10-13T12:15:09Z</time>
      </trkpt>
      <trkpt lat="38.47085089" lon="-2.67425416">
        <ele>856.00000</ele>
        <time>2018-10-13T12:15:17Z</time>
      </trkpt>
      <trkpt lat="38.47065266" lon="-2.67438484">
        <ele>857.00000</ele>
        <time>2018-10-13T12:15:23Z</time>
      </trkpt>
      <trkpt lat="38.47047203" lon="-2.67443329">
        <ele>858.00000</ele>
        <time>2018-10-13T12:15:28Z</time>
      </trkpt>
      <trkpt lat="38.47018486" lon="-2.67447411">
        <ele>859.00000</ele>
        <time>2018-10-13T12:15:36Z</time>
      </trkpt>
      <trkpt lat="38.46992871" lon="-2.67458584">
        <ele>860.00000</ele>
        <time>2018-10-13T12:15:43Z</time>
      </trkpt>
      <trkpt lat="38.46984422" lon="-2.67459405">
        <ele>861.00000</ele>
        <time>2018-10-13T12:15:45Z</time>
      </trkpt>
      <trkpt lat="38.46938749" lon="-2.67436724">
        <ele>862.00000</ele>
        <time>2018-10-13T12:15:58Z</time>
      </trkpt>
      <trkpt lat="38.46926143" lon="-2.67430848">
        <ele>862.00000</ele>
        <time>2018-10-13T12:16:02Z</time>
      </trkpt>
      <trkpt lat="38.46916336" lon="-2.67426246">
        <ele>862.00000</ele>
        <time>2018-10-13T12:16:05Z</time>
      </trkpt>
      <trkpt lat="38.46903059" lon="-2.67423748">
        <ele>862.00000</ele>
        <time>2018-10-13T12:16:09Z</time>
      </trkpt>
      <trkpt lat="38.46879749" lon="-2.67420111">
        <ele>863.00000</ele>
        <time>2018-10-13T12:16:15Z</time>
      </trkpt>
      <trkpt lat="38.46851192" lon="-2.67414394">
        <ele>863.00000</ele>
        <time>2018-10-13T12:16:22Z</time>
      </trkpt>
      <trkpt lat="38.46835258" lon="-2.67414419">
        <ele>864.00000</ele>
        <time>2018-10-13T12:16:26Z</time>
      </trkpt>
      <trkpt lat="38.46812887" lon="-2.67428518">
        <ele>864.00000</ele>
        <time>2018-10-13T12:16:32Z</time>
      </trkpt>
      <trkpt lat="38.46809484" lon="-2.67431929">
        <ele>864.00000</ele>
        <time>2018-10-13T12:16:33Z</time>
      </trkpt>
      <trkpt lat="38.46799367" lon="-2.67448710">
        <ele>864.00000</ele>
        <time>2018-10-13T12:16:37Z</time>
      </trkpt>
      <trkpt lat="38.46798134" lon="-2.67453429">
        <ele>864.00000</ele>
        <time>2018-10-13T12:16:38Z</time>
      </trkpt>
      <trkpt lat="38.46797271" lon="-2.67458626">
        <ele>864.00000</ele>
        <time>2018-10-13T12:16:39Z</time>
      </trkpt>
      <trkpt lat="38.46795955" lon="-2.67469229">
        <ele>864.00000</ele>
        <time>2018-10-13T12:16:41Z</time>
      </trkpt>
      <trkpt lat="38.46796751" lon="-2.67489898">
        <ele>865.00000</ele>
        <time>2018-10-13T12:16:45Z</time>
      </trkpt>
      <trkpt lat="38.46797254" lon="-2.67495204">
        <ele>865.00000</ele>
        <time>2018-10-13T12:16:46Z</time>
      </trkpt>
      <trkpt lat="38.46797724" lon="-2.67506017">
        <ele>865.00000</ele>
        <time>2018-10-13T12:16:48Z</time>
      </trkpt>
      <trkpt lat="38.46790004" lon="-2.67534582">
        <ele>866.00000</ele>
        <time>2018-10-13T12:16:54Z</time>
      </trkpt>
      <trkpt lat="38.46757080" lon="-2.67589962">
        <ele>866.00000</ele>
        <time>2018-10-13T12:17:07Z</time>
      </trkpt>
      <trkpt lat="38.46751816" lon="-2.67598184">
        <ele>866.00000</ele>
        <time>2018-10-13T12:17:09Z</time>
      </trkpt>
      <trkpt lat="38.46712362" lon="-2.67651820">
        <ele>867.00000</ele>
        <time>2018-10-13T12:17:23Z</time>
      </trkpt>
      <trkpt lat="38.46704701" lon="-2.67658350">
        <ele>867.00000</ele>
        <time>2018-10-13T12:17:25Z</time>
      </trkpt>
      <trkpt lat="38.46686856" lon="-2.67668182">
        <ele>868.00000</ele>
        <time>2018-10-13T12:17:29Z</time>
      </trkpt>
      <trkpt lat="38.46672808" lon="-2.67674091">
        <ele>868.00000</ele>
        <time>2018-10-13T12:17:32Z</time>
      </trkpt>
      <trkpt lat="38.46658391" lon="-2.67683864">
        <ele>868.00000</ele>
        <time>2018-10-13T12:17:35Z</time>
      </trkpt>
      <trkpt lat="38.46647210" lon="-2.67702279">
        <ele>867.00000</ele>
        <time>2018-10-13T12:17:38Z</time>
      </trkpt>
      <trkpt lat="38.46649046" lon="-2.67733552">
        <ele>867.00000</ele>
        <time>2018-10-13T12:17:43Z</time>
      </trkpt>
      <trkpt lat="38.46651485" lon="-2.67738766">
        <ele>867.00000</ele>
        <time>2018-10-13T12:17:44Z</time>
      </trkpt>
      <trkpt lat="38.46654083" lon="-2.67743702">
        <ele>867.00000</ele>
        <time>2018-10-13T12:17:45Z</time>
      </trkpt>
      <trkpt lat="38.46659305" lon="-2.67753358">
        <ele>867.00000</ele>
        <time>2018-10-13T12:17:47Z</time>
      </trkpt>
      <trkpt lat="38.46666270" lon="-2.67768069">
        <ele>867.00000</ele>
        <time>2018-10-13T12:17:50Z</time>
      </trkpt>
      <trkpt lat="38.46672280" lon="-2.67782938">
        <ele>868.00000</ele>
        <time>2018-10-13T12:17:53Z</time>
      </trkpt>
      <trkpt lat="38.46675524" lon="-2.67793357">
        <ele>869.00000</ele>
        <time>2018-10-13T12:17:55Z</time>
      </trkpt>
      <trkpt lat="38.46678466" lon="-2.67803516">
        <ele>869.00000</ele>
        <time>2018-10-13T12:17:57Z</time>
      </trkpt>
      <trkpt lat="38.46682883" lon="-2.67818687">
        <ele>870.00000</ele>
        <time>2018-10-13T12:18:00Z</time>
      </trkpt>
      <trkpt lat="38.46687527" lon="-2.67839424">
        <ele>871.00000</ele>
        <time>2018-10-13T12:18:04Z</time>
      </trkpt>
      <trkpt lat="38.46691735" lon="-2.67859934">
        <ele>872.00000</ele>
        <time>2018-10-13T12:18:08Z</time>
      </trkpt>
      <trkpt lat="38.46699010" lon="-2.67885985">
        <ele>873.00000</ele>
        <time>2018-10-13T12:18:14Z</time>
      </trkpt>
      <trkpt lat="38.46702455" lon="-2.67902556">
        <ele>874.00000</ele>
        <time>2018-10-13T12:18:18Z</time>
      </trkpt>
      <trkpt lat="38.46705305" lon="-2.67918784">
        <ele>875.00000</ele>
        <time>2018-10-13T12:18:22Z</time>
      </trkpt>
      <trkpt lat="38.46710233" lon="-2.67938699">
        <ele>876.00000</ele>
        <time>2018-10-13T12:18:27Z</time>
      </trkpt>
      <trkpt lat="38.46714047" lon="-2.67966862">
        <ele>878.00000</ele>
        <time>2018-10-13T12:18:34Z</time>
      </trkpt>
      <trkpt lat="38.46717861" lon="-2.67995889">
        <ele>879.00000</ele>
        <time>2018-10-13T12:18:41Z</time>
      </trkpt>
      <trkpt lat="38.46720493" lon="-2.68020448">
        <ele>880.00000</ele>
        <time>2018-10-13T12:18:47Z</time>
      </trkpt>
      <trkpt lat="38.46720258" lon="-2.68044521">
        <ele>881.00000</ele>
        <time>2018-10-13T12:18:53Z</time>
      </trkpt>
      <trkpt lat="38.46711088" lon="-2.68066716">
        <ele>882.00000</ele>
        <time>2018-10-13T12:18:59Z</time>
      </trkpt>
      <trkpt lat="38.46680117" lon="-2.68088819">
        <ele>883.00000</ele>
        <time>2018-10-13T12:19:08Z</time>
      </trkpt>
      <trkpt lat="38.46667461" lon="-2.68104217">
        <ele>883.00000</ele>
        <time>2018-10-13T12:19:12Z</time>
      </trkpt>
      <trkpt lat="38.46656505" lon="-2.68120905">
        <ele>883.00000</ele>
        <time>2018-10-13T12:19:16Z</time>
      </trkpt>
      <trkpt lat="38.46650362" lon="-2.68128884">
        <ele>883.00000</ele>
        <time>2018-10-13T12:19:18Z</time>
      </trkpt>
      <trkpt lat="38.46636959" lon="-2.68143687">
        <ele>883.00000</ele>
        <time>2018-10-13T12:19:22Z</time>
      </trkpt>
      <trkpt lat="38.46592099" lon="-2.68171926">
        <ele>885.00000</ele>
        <time>2018-10-13T12:19:35Z</time>
      </trkpt>
      <trkpt lat="38.46578470" lon="-2.68173493">
        <ele>885.00000</ele>
        <time>2018-10-13T12:19:39Z</time>
      </trkpt>
      <trkpt lat="38.46575117" lon="-2.68173627">
        <ele>886.00000</ele>
        <time>2018-10-13T12:19:40Z</time>
      </trkpt>
      <trkpt lat="38.46558521" lon="-2.68171004">
        <ele>887.00000</ele>
        <time>2018-10-13T12:19:45Z</time>
      </trkpt>
      <trkpt lat="38.46546032" lon="-2.68164901">
        <ele>888.00000</ele>
        <time>2018-10-13T12:19:49Z</time>
      </trkpt>
      <trkpt lat="38.46532395" lon="-2.68153687">
        <ele>889.00000</ele>
        <time>2018-10-13T12:19:54Z</time>
      </trkpt>
      <trkpt lat="38.46522588" lon="-2.68143285">
        <ele>890.00000</ele>
        <time>2018-10-13T12:19:58Z</time>
      </trkpt>
      <trkpt lat="38.46511079" lon="-2.68129505">
        <ele>891.00000</ele>
        <time>2018-10-13T12:20:03Z</time>
      </trkpt>
      <trkpt lat="38.46495481" lon="-2.68110084">
        <ele>893.00000</ele>
        <time>2018-10-13T12:20:10Z</time>
      </trkpt>
      <trkpt lat="38.46480511" lon="-2.68094175">
        <ele>894.00000</ele>
        <time>2018-10-13T12:20:16Z</time>
      </trkpt>
      <trkpt lat="38.46466840" lon="-2.68080814">
        <ele>895.00000</ele>
        <time>2018-10-13T12:20:21Z</time>
      </trkpt>
      <trkpt lat="38.46454694" lon="-2.68069474">
        <ele>896.00000</ele>
        <time>2018-10-13T12:20:26Z</time>
      </trkpt>
      <trkpt lat="38.46443278" lon="-2.68057479">
        <ele>897.00000</ele>
        <time>2018-10-13T12:20:31Z</time>
      </trkpt>
      <trkpt lat="38.46430077" lon="-2.68042886">
        <ele>898.00000</ele>
        <time>2018-10-13T12:20:37Z</time>
      </trkpt>
      <trkpt lat="38.46418686" lon="-2.68031721">
        <ele>900.00000</ele>
        <time>2018-10-13T12:20:42Z</time>
      </trkpt>
      <trkpt lat="38.46406389" lon="-2.68022350">
        <ele>901.00000</ele>
        <time>2018-10-13T12:20:47Z</time>
      </trkpt>
      <trkpt lat="38.46391218" lon="-2.68012510">
        <ele>902.00000</ele>
        <time>2018-10-13T12:20:53Z</time>
      </trkpt>
      <trkpt lat="38.46378352" lon="-2.68004363">
        <ele>903.00000</ele>
        <time>2018-10-13T12:20:58Z</time>
      </trkpt>
      <trkpt lat="38.46364161" lon="-2.67991463">
        <ele>904.00000</ele>
        <time>2018-10-13T12:21:04Z</time>
      </trkpt>
      <trkpt lat="38.46348345" lon="-2.67980257">
        <ele>905.00000</ele>
        <time>2018-10-13T12:21:10Z</time>
      </trkpt>
      <trkpt lat="38.46334397" lon="-2.67971565">
        <ele>906.00000</ele>
        <time>2018-10-13T12:21:15Z</time>
      </trkpt>
      <trkpt lat="38.46319578" lon="-2.67965815">
        <ele>907.00000</ele>
        <time>2018-10-13T12:21:20Z</time>
      </trkpt>
      <trkpt lat="38.46304566" lon="-2.67961339">
        <ele>908.00000</ele>
        <time>2018-10-13T12:21:25Z</time>
      </trkpt>
      <trkpt lat="38.46289613" lon="-2.67956812">
        <ele>909.00000</ele>
        <time>2018-10-13T12:21:30Z</time>
      </trkpt>
      <trkpt lat="38.46277417" lon="-2.67954030">
        <ele>911.00000</ele>
        <time>2018-10-13T12:21:34Z</time>
      </trkpt>
      <trkpt lat="38.46258633" lon="-2.67953250">
        <ele>912.00000</ele>
        <time>2018-10-13T12:21:40Z</time>
      </trkpt>
      <trkpt lat="38.46239791" lon="-2.67961674">
        <ele>913.00000</ele>
        <time>2018-10-13T12:21:46Z</time>
      </trkpt>
      <trkpt lat="38.46220898" lon="-2.67981908">
        <ele>914.00000</ele>
        <time>2018-10-13T12:21:54Z</time>
      </trkpt>
      <trkpt lat="38.46211854" lon="-2.67991279">
        <ele>915.00000</ele>
        <time>2018-10-13T12:21:58Z</time>
      </trkpt>
      <trkpt lat="38.46199591" lon="-2.68000851">
        <ele>916.00000</ele>
        <time>2018-10-13T12:22:03Z</time>
      </trkpt>
      <trkpt lat="38.46187295" lon="-2.68010054">
        <ele>917.00000</ele>
        <time>2018-10-13T12:22:08Z</time>
      </trkpt>
      <trkpt lat="38.46168025" lon="-2.68017967">
        <ele>918.00000</ele>
        <time>2018-10-13T12:22:15Z</time>
      </trkpt>
      <trkpt lat="38.46148763" lon="-2.68020297">
        <ele>919.00000</ele>
        <time>2018-10-13T12:22:22Z</time>
      </trkpt>
      <trkpt lat="38.46134455" lon="-2.68016760">
        <ele>920.00000</ele>
        <time>2018-10-13T12:22:27Z</time>
      </trkpt>
      <trkpt lat="38.46118429" lon="-2.68008512">
        <ele>921.00000</ele>
        <time>2018-10-13T12:22:33Z</time>
      </trkpt>
      <trkpt lat="38.46095580" lon="-2.68003592">
        <ele>922.00000</ele>
        <time>2018-10-13T12:22:41Z</time>
      </trkpt>
      <trkpt lat="38.46075028" lon="-2.68011873">
        <ele>924.00000</ele>
        <time>2018-10-13T12:22:49Z</time>
      </trkpt>
      <trkpt lat="38.46062279" lon="-2.68017246">
        <ele>925.00000</ele>
        <time>2018-10-13T12:22:54Z</time>
      </trkpt>
      <trkpt lat="38.46051634" lon="-2.68025703">
        <ele>926.00000</ele>
        <time>2018-10-13T12:22:58Z</time>
      </trkpt>
      <trkpt lat="38.46038868" lon="-2.68036943">
        <ele>927.00000</ele>
        <time>2018-10-13T12:23:03Z</time>
      </trkpt>
      <trkpt lat="38.46028449" lon="-2.68052567">
        <ele>928.00000</ele>
        <time>2018-10-13T12:23:09Z</time>
      </trkpt>
      <trkpt lat="38.46026337" lon="-2.68062533">
        <ele>929.00000</ele>
        <time>2018-10-13T12:23:12Z</time>
      </trkpt>
      <trkpt lat="38.46022180" lon="-2.68071058">
        <ele>929.00000</ele>
        <time>2018-10-13T12:23:15Z</time>
      </trkpt>
      <trkpt lat="38.46019556" lon="-2.68084720">
        <ele>931.00000</ele>
        <time>2018-10-13T12:23:19Z</time>
      </trkpt>
      <trkpt lat="38.46015818" lon="-2.68089724">
        <ele>931.00000</ele>
        <time>2018-10-13T12:23:21Z</time>
      </trkpt>
      <trkpt lat="38.46012214" lon="-2.68099187">
        <ele>932.00000</ele>
        <time>2018-10-13T12:23:24Z</time>
      </trkpt>
      <trkpt lat="38.46005508" lon="-2.68118633">
        <ele>933.00000</ele>
        <time>2018-10-13T12:23:30Z</time>
      </trkpt>
      <trkpt lat="38.45994897" lon="-2.68134098">
        <ele>934.00000</ele>
        <time>2018-10-13T12:23:36Z</time>
      </trkpt>
      <trkpt lat="38.45985107" lon="-2.68139907">
        <ele>935.00000</ele>
        <time>2018-10-13T12:23:40Z</time>
      </trkpt>
      <trkpt lat="38.45971511" lon="-2.68144860">
        <ele>936.00000</ele>
        <time>2018-10-13T12:23:45Z</time>
      </trkpt>
      <trkpt lat="38.45968645" lon="-2.68145305">
        <ele>936.00000</ele>
        <time>2018-10-13T12:23:46Z</time>
      </trkpt>
      <trkpt lat="38.45960363" lon="-2.68145841">
        <ele>937.00000</ele>
        <time>2018-10-13T12:23:49Z</time>
      </trkpt>
      <trkpt lat="38.45943884" lon="-2.68149814">
        <ele>938.00000</ele>
        <time>2018-10-13T12:23:55Z</time>
      </trkpt>
      <trkpt lat="38.45929099" lon="-2.68159386">
        <ele>939.00000</ele>
        <time>2018-10-13T12:24:01Z</time>
      </trkpt>
      <trkpt lat="38.45920641" lon="-2.68167450">
        <ele>940.00000</ele>
        <time>2018-10-13T12:24:05Z</time>
      </trkpt>
      <trkpt lat="38.45907767" lon="-2.68179344">
        <ele>942.00000</ele>
        <time>2018-10-13T12:24:11Z</time>
      </trkpt>
      <trkpt lat="38.45889955" lon="-2.68192017">
        <ele>943.00000</ele>
        <time>2018-10-13T12:24:19Z</time>
      </trkpt>
      <trkpt lat="38.45877542" lon="-2.68196024">
        <ele>944.00000</ele>
        <time>2018-10-13T12:24:24Z</time>
      </trkpt>
      <trkpt lat="38.45861817" lon="-2.68196401">
        <ele>945.00000</ele>
        <time>2018-10-13T12:24:30Z</time>
      </trkpt>
      <trkpt lat="38.45842363" lon="-2.68187088">
        <ele>946.00000</ele>
        <time>2018-10-13T12:24:38Z</time>
      </trkpt>
      <trkpt lat="38.45833159" lon="-2.68180425">
        <ele>947.00000</ele>
        <time>2018-10-13T12:24:42Z</time>
      </trkpt>
      <trkpt lat="38.45817871" lon="-2.68172211">
        <ele>948.00000</ele>
        <time>2018-10-13T12:24:48Z</time>
      </trkpt>
      <trkpt lat="38.45793915" lon="-2.68173124">
        <ele>949.00000</ele>
        <time>2018-10-13T12:24:57Z</time>
      </trkpt>
      <trkpt lat="38.45780597" lon="-2.68176452">
        <ele>950.00000</ele>
        <time>2018-10-13T12:25:02Z</time>
      </trkpt>
      <trkpt lat="38.45762039" lon="-2.68178807">
        <ele>951.00000</ele>
        <time>2018-10-13T12:25:09Z</time>
      </trkpt>
      <trkpt lat="38.45748762" lon="-2.68177458">
        <ele>952.00000</ele>
        <time>2018-10-13T12:25:14Z</time>
      </trkpt>
      <trkpt lat="38.45725628" lon="-2.68181372">
        <ele>953.00000</ele>
        <time>2018-10-13T12:25:21Z</time>
      </trkpt>
      <trkpt lat="38.45706299" lon="-2.68189871">
        <ele>954.00000</ele>
        <time>2018-10-13T12:25:27Z</time>
      </trkpt>
      <trkpt lat="38.45691120" lon="-2.68196233">
        <ele>956.00000</ele>
        <time>2018-10-13T12:25:32Z</time>
      </trkpt>
      <trkpt lat="38.45675286" lon="-2.68200717">
        <ele>957.00000</ele>
        <time>2018-10-13T12:25:37Z</time>
      </trkpt>
      <trkpt lat="38.45653636" lon="-2.68210147">
        <ele>958.00000</ele>
        <time>2018-10-13T12:25:43Z</time>
      </trkpt>
      <trkpt lat="38.45632798" lon="-2.68219166">
        <ele>959.00000</ele>
        <time>2018-10-13T12:25:49Z</time>
      </trkpt>
      <trkpt lat="38.45617602" lon="-2.68227833">
        <ele>960.00000</ele>
        <time>2018-10-13T12:25:54Z</time>
      </trkpt>
      <trkpt lat="38.45602867" lon="-2.68241495">
        <ele>961.00000</ele>
        <time>2018-10-13T12:25:59Z</time>
      </trkpt>
      <trkpt lat="38.45587545" lon="-2.68263741">
        <ele>962.00000</ele>
        <time>2018-10-13T12:26:06Z</time>
      </trkpt>
      <trkpt lat="38.45581049" lon="-2.68277806">
        <ele>963.00000</ele>
        <time>2018-10-13T12:26:10Z</time>
      </trkpt>
      <trkpt lat="38.45567646" lon="-2.68299096">
        <ele>964.00000</ele>
        <time>2018-10-13T12:26:17Z</time>
      </trkpt>
      <trkpt lat="38.45551159" lon="-2.68308978">
        <ele>966.00000</ele>
        <time>2018-10-13T12:26:23Z</time>
      </trkpt>
      <trkpt lat="38.45526969" lon="-2.68311920">
        <ele>967.00000</ele>
        <time>2018-10-13T12:26:31Z</time>
      </trkpt>
      <trkpt lat="38.45510968" lon="-2.68309732">
        <ele>968.00000</ele>
        <time>2018-10-13T12:26:36Z</time>
      </trkpt>
      <trkpt lat="38.45489770" lon="-2.68326295">
        <ele>969.00000</ele>
        <time>2018-10-13T12:26:44Z</time>
      </trkpt>
      <trkpt lat="38.45483265" lon="-2.68339999">
        <ele>970.00000</ele>
        <time>2018-10-13T12:26:48Z</time>
      </trkpt>
      <trkpt lat="38.45477524" lon="-2.68360292">
        <ele>971.00000</ele>
        <time>2018-10-13T12:26:53Z</time>
      </trkpt>
      <trkpt lat="38.45473802" lon="-2.68385949">
        <ele>971.00000</ele>
        <time>2018-10-13T12:26:59Z</time>
      </trkpt>
      <trkpt lat="38.45467683" lon="-2.68414565">
        <ele>972.00000</ele>
        <time>2018-10-13T12:27:06Z</time>
      </trkpt>
      <trkpt lat="38.45463559" lon="-2.68420726">
        <ele>972.00000</ele>
        <time>2018-10-13T12:27:08Z</time>
      </trkpt>
      <trkpt lat="38.45452328" lon="-2.68435746">
        <ele>973.00000</ele>
        <time>2018-10-13T12:27:13Z</time>
      </trkpt>
      <trkpt lat="38.45437031" lon="-2.68456860">
        <ele>974.00000</ele>
        <time>2018-10-13T12:27:20Z</time>
      </trkpt>
      <trkpt lat="38.45428775" lon="-2.68474713">
        <ele>975.00000</ele>
        <time>2018-10-13T12:27:25Z</time>
      </trkpt>
      <trkpt lat="38.45417761" lon="-2.68494235">
        <ele>977.00000</ele>
        <time>2018-10-13T12:27:31Z</time>
      </trkpt>
      <trkpt lat="38.45410401" lon="-2.68501544">
        <ele>978.00000</ele>
        <time>2018-10-13T12:27:34Z</time>
      </trkpt>
      <trkpt lat="38.45392414" lon="-2.68507487">
        <ele>979.00000</ele>
        <time>2018-10-13T12:27:40Z</time>
      </trkpt>
      <trkpt lat="38.45374175" lon="-2.68495794">
        <ele>980.00000</ele>
        <time>2018-10-13T12:27:47Z</time>
      </trkpt>
      <trkpt lat="38.45363211" lon="-2.68469232">
        <ele>981.00000</ele>
        <time>2018-10-13T12:27:55Z</time>
      </trkpt>
      <trkpt lat="38.45360194" lon="-2.68454362">
        <ele>983.00000</ele>
        <time>2018-10-13T12:27:59Z</time>
      </trkpt>
      <trkpt lat="38.45357537" lon="-2.68439535">
        <ele>984.00000</ele>
        <time>2018-10-13T12:28:03Z</time>
      </trkpt>
      <trkpt lat="38.45351913" lon="-2.68426274">
        <ele>985.00000</ele>
        <time>2018-10-13T12:28:07Z</time>
      </trkpt>
      <trkpt lat="38.45334151" lon="-2.68416509">
        <ele>986.00000</ele>
        <time>2018-10-13T12:28:14Z</time>
      </trkpt>
      <trkpt lat="38.45318460" lon="-2.68428462">
        <ele>987.00000</ele>
        <time>2018-10-13T12:28:21Z</time>
      </trkpt>
      <trkpt lat="38.45308888" lon="-2.68439937">
        <ele>988.00000</ele>
        <time>2018-10-13T12:28:26Z</time>
      </trkpt>
      <trkpt lat="38.45298386" lon="-2.68449836">
        <ele>989.00000</ele>
        <time>2018-10-13T12:28:31Z</time>
      </trkpt>
      <trkpt lat="38.45285737" lon="-2.68454203">
        <ele>990.00000</ele>
        <time>2018-10-13T12:28:36Z</time>
      </trkpt>
      <trkpt lat="38.45271815" lon="-2.68455519">
        <ele>991.00000</ele>
        <time>2018-10-13T12:28:41Z</time>
      </trkpt>
      <trkpt lat="38.45257926" lon="-2.68454337">
        <ele>992.00000</ele>
        <time>2018-10-13T12:28:46Z</time>
      </trkpt>
      <trkpt lat="38.45244607" lon="-2.68451982">
        <ele>994.00000</ele>
        <time>2018-10-13T12:28:51Z</time>
      </trkpt>
      <trkpt lat="38.45225933" lon="-2.68450188">
        <ele>995.00000</ele>
        <time>2018-10-13T12:28:58Z</time>
      </trkpt>
      <trkpt lat="38.45209211" lon="-2.68452099">
        <ele>996.00000</ele>
        <time>2018-10-13T12:29:04Z</time>
      </trkpt>
      <trkpt lat="38.45194148" lon="-2.68455418">
        <ele>997.00000</ele>
        <time>2018-10-13T12:29:09Z</time>
      </trkpt>
      <trkpt lat="38.45183243" lon="-2.68460699">
        <ele>998.00000</ele>
        <time>2018-10-13T12:29:13Z</time>
      </trkpt>
      <trkpt lat="38.45172481" lon="-2.68464202">
        <ele>999.00000</ele>
        <time>2018-10-13T12:29:17Z</time>
      </trkpt>
      <trkpt lat="38.45156908" lon="-2.68471646">
        <ele>1000.0000</ele>
        <time>2018-10-13T12:29:23Z</time>
      </trkpt>
      <trkpt lat="38.45145273" lon="-2.68481645">
        <ele>1001.0000</ele>
        <time>2018-10-13T12:29:28Z</time>
      </trkpt>
      <trkpt lat="38.45134670" lon="-2.68499515">
        <ele>1003.0000</ele>
        <time>2018-10-13T12:29:35Z</time>
      </trkpt>
      <trkpt lat="38.45128979" lon="-2.68510873">
        <ele>1004.0000</ele>
        <time>2018-10-13T12:29:39Z</time>
      </trkpt>
      <trkpt lat="38.45124646" lon="-2.68528894">
        <ele>1005.0000</ele>
        <time>2018-10-13T12:29:44Z</time>
      </trkpt>
      <trkpt lat="38.45122852" lon="-2.68546605">
        <ele>1006.0000</ele>
        <time>2018-10-13T12:29:49Z</time>
      </trkpt>
      <trkpt lat="38.45123221" lon="-2.68559731">
        <ele>1007.0000</ele>
        <time>2018-10-13T12:29:53Z</time>
      </trkpt>
      <trkpt lat="38.45123539" lon="-2.68576637">
        <ele>1008.0000</ele>
        <time>2018-10-13T12:29:58Z</time>
      </trkpt>
      <trkpt lat="38.45122181" lon="-2.68597902">
        <ele>1009.0000</ele>
        <time>2018-10-13T12:30:04Z</time>
      </trkpt>
      <trkpt lat="38.45118778" lon="-2.68617860">
        <ele>1010.0000</ele>
        <time>2018-10-13T12:30:10Z</time>
      </trkpt>
      <trkpt lat="38.45114151" lon="-2.68632067">
        <ele>1011.0000</ele>
        <time>2018-10-13T12:30:15Z</time>
      </trkpt>
      <trkpt lat="38.45104311" lon="-2.68656793">
        <ele>1012.0000</ele>
        <time>2018-10-13T12:30:23Z</time>
      </trkpt>
      <trkpt lat="38.45099768" lon="-2.68673071">
        <ele>1013.0000</ele>
        <time>2018-10-13T12:30:28Z</time>
      </trkpt>
      <trkpt lat="38.45096047" lon="-2.68686348">
        <ele>1015.0000</ele>
        <time>2018-10-13T12:30:32Z</time>
      </trkpt>
      <trkpt lat="38.45086709" lon="-2.68702642">
        <ele>1016.0000</ele>
        <time>2018-10-13T12:30:38Z</time>
      </trkpt>
      <trkpt lat="38.45072837" lon="-2.68711728">
        <ele>1017.0000</ele>
        <time>2018-10-13T12:30:44Z</time>
      </trkpt>
      <trkpt lat="38.45054078" lon="-2.68714897">
        <ele>1018.0000</ele>
        <time>2018-10-13T12:30:51Z</time>
      </trkpt>
      <trkpt lat="38.45043509" lon="-2.68717428">
        <ele>1019.0000</ele>
        <time>2018-10-13T12:30:55Z</time>
      </trkpt>
      <trkpt lat="38.45028673" lon="-2.68725031">
        <ele>1020.0000</ele>
        <time>2018-10-13T12:31:01Z</time>
      </trkpt>
      <trkpt lat="38.45019302" lon="-2.68730781">
        <ele>1021.0000</ele>
        <time>2018-10-13T12:31:05Z</time>
      </trkpt>
      <trkpt lat="38.45005606" lon="-2.68739925">
        <ele>1022.0000</ele>
        <time>2018-10-13T12:31:11Z</time>
      </trkpt>
      <trkpt lat="38.44994475" lon="-2.68749606">
        <ele>1023.0000</ele>
        <time>2018-10-13T12:31:16Z</time>
      </trkpt>
      <trkpt lat="38.44985640" lon="-2.68770494">
        <ele>1024.0000</ele>
        <time>2018-10-13T12:31:23Z</time>
      </trkpt>
      <trkpt lat="38.44979731" lon="-2.68788297">
        <ele>1025.0000</ele>
        <time>2018-10-13T12:31:29Z</time>
      </trkpt>
      <trkpt lat="38.44974199" lon="-2.68803720">
        <ele>1027.0000</ele>
        <time>2018-10-13T12:31:34Z</time>
      </trkpt>
      <trkpt lat="38.44964819" lon="-2.68820039">
        <ele>1028.0000</ele>
        <time>2018-10-13T12:31:40Z</time>
      </trkpt>
      <trkpt lat="38.44955256" lon="-2.68834305">
        <ele>1029.0000</ele>
        <time>2018-10-13T12:31:46Z</time>
      </trkpt>
      <trkpt lat="38.44944393" lon="-2.68846903">
        <ele>1030.0000</ele>
        <time>2018-10-13T12:31:51Z</time>
      </trkpt>
      <trkpt lat="38.44930764" lon="-2.68861438">
        <ele>1031.0000</ele>
        <time>2018-10-13T12:31:57Z</time>
      </trkpt>
      <trkpt lat="38.44915266" lon="-2.68866735">
        <ele>1032.0000</ele>
        <time>2018-10-13T12:32:02Z</time>
      </trkpt>
      <trkpt lat="38.44903280" lon="-2.68866685">
        <ele>1033.0000</ele>
        <time>2018-10-13T12:32:06Z</time>
      </trkpt>
      <trkpt lat="38.44891687" lon="-2.68865084">
        <ele>1034.0000</ele>
        <time>2018-10-13T12:32:10Z</time>
      </trkpt>
      <trkpt lat="38.44872912" lon="-2.68859828">
        <ele>1035.0000</ele>
        <time>2018-10-13T12:32:17Z</time>
      </trkpt>
      <trkpt lat="38.44859342" lon="-2.68859351">
        <ele>1037.0000</ele>
        <time>2018-10-13T12:32:22Z</time>
      </trkpt>
      <trkpt lat="38.44843575" lon="-2.68863424">
        <ele>1038.0000</ele>
        <time>2018-10-13T12:32:28Z</time>
      </trkpt>
      <trkpt lat="38.44826434" lon="-2.68871194">
        <ele>1039.0000</ele>
        <time>2018-10-13T12:32:35Z</time>
      </trkpt>
      <trkpt lat="38.44813954" lon="-2.68874614">
        <ele>1040.0000</ele>
        <time>2018-10-13T12:32:40Z</time>
      </trkpt>
      <trkpt lat="38.44799067" lon="-2.68877321">
        <ele>1041.0000</ele>
        <time>2018-10-13T12:32:46Z</time>
      </trkpt>
      <trkpt lat="38.44784005" lon="-2.68878134">
        <ele>1042.0000</ele>
        <time>2018-10-13T12:32:52Z</time>
      </trkpt>
      <trkpt lat="38.44771432" lon="-2.68880490">
        <ele>1043.0000</ele>
        <time>2018-10-13T12:32:57Z</time>
      </trkpt>
      <trkpt lat="38.44756965" lon="-2.68887220">
        <ele>1044.0000</ele>
        <time>2018-10-13T12:33:03Z</time>
      </trkpt>
      <trkpt lat="38.44741836" lon="-2.68899642">
        <ele>1045.0000</ele>
        <time>2018-10-13T12:33:10Z</time>
      </trkpt>
      <trkpt lat="38.44732951" lon="-2.68907471">
        <ele>1047.0000</ele>
        <time>2018-10-13T12:33:14Z</time>
      </trkpt>
      <trkpt lat="38.44724443" lon="-2.68914026">
        <ele>1048.0000</ele>
        <time>2018-10-13T12:33:18Z</time>
      </trkpt>
      <trkpt lat="38.44713932" lon="-2.68923447">
        <ele>1049.0000</ele>
        <time>2018-10-13T12:33:23Z</time>
      </trkpt>
      <trkpt lat="38.44705852" lon="-2.68931997">
        <ele>1050.0000</ele>
        <time>2018-10-13T12:33:27Z</time>
      </trkpt>
      <trkpt lat="38.44696532" lon="-2.68952767">
        <ele>1051.0000</ele>
        <time>2018-10-13T12:33:34Z</time>
      </trkpt>
      <trkpt lat="38.44686532" lon="-2.68971660">
        <ele>1052.0000</ele>
        <time>2018-10-13T12:33:41Z</time>
      </trkpt>
      <trkpt lat="38.44672576" lon="-2.68980251">
        <ele>1053.0000</ele>
        <time>2018-10-13T12:33:47Z</time>
      </trkpt>
      <trkpt lat="38.44660883" lon="-2.68980109">
        <ele>1054.0000</ele>
        <time>2018-10-13T12:33:51Z</time>
      </trkpt>
      <trkpt lat="38.44658050" lon="-2.68980025">
        <ele>1054.0000</ele>
        <time>2018-10-13T12:33:52Z</time>
      </trkpt>
      <trkpt lat="38.44642703" lon="-2.68980058">
        <ele>1055.0000</ele>
        <time>2018-10-13T12:33:58Z</time>
      </trkpt>
      <trkpt lat="38.44625939" lon="-2.68976722">
        <ele>1056.0000</ele>
        <time>2018-10-13T12:34:04Z</time>
      </trkpt>
      <trkpt lat="38.44610273" lon="-2.68976446">
        <ele>1057.0000</ele>
        <time>2018-10-13T12:34:10Z</time>
      </trkpt>
      <trkpt lat="38.44594306" lon="-2.68976035">
        <ele>1058.0000</ele>
        <time>2018-10-13T12:34:16Z</time>
      </trkpt>
      <trkpt lat="38.44580459" lon="-2.68975901">
        <ele>1059.0000</ele>
        <time>2018-10-13T12:34:21Z</time>
      </trkpt>
      <trkpt lat="38.44567568" lon="-2.68981617">
        <ele>1060.0000</ele>
        <time>2018-10-13T12:34:26Z</time>
      </trkpt>
      <trkpt lat="38.44558658" lon="-2.68988616">
        <ele>1061.0000</ele>
        <time>2018-10-13T12:34:30Z</time>
      </trkpt>
      <trkpt lat="38.44543319" lon="-2.69001105">
        <ele>1062.0000</ele>
        <time>2018-10-13T12:34:36Z</time>
      </trkpt>
      <trkpt lat="38.44528391" lon="-2.69012429">
        <ele>1063.0000</ele>
        <time>2018-10-13T12:34:42Z</time>
      </trkpt>
      <trkpt lat="38.44516522" lon="-2.69021205">
        <ele>1064.0000</ele>
        <time>2018-10-13T12:34:47Z</time>
      </trkpt>
      <trkpt lat="38.44505256" lon="-2.69029201">
        <ele>1066.0000</ele>
        <time>2018-10-13T12:34:52Z</time>
      </trkpt>
      <trkpt lat="38.44481661" lon="-2.69036083">
        <ele>1067.0000</ele>
        <time>2018-10-13T12:35:01Z</time>
      </trkpt>
      <trkpt lat="38.44473732" lon="-2.69037776">
        <ele>1068.0000</ele>
        <time>2018-10-13T12:35:04Z</time>
      </trkpt>
      <trkpt lat="38.44460162" lon="-2.69040768">
        <ele>1069.0000</ele>
        <time>2018-10-13T12:35:09Z</time>
      </trkpt>
      <trkpt lat="38.44444345" lon="-2.69045119">
        <ele>1070.0000</ele>
        <time>2018-10-13T12:35:15Z</time>
      </trkpt>
      <trkpt lat="38.44429685" lon="-2.69051380">
        <ele>1071.0000</ele>
        <time>2018-10-13T12:35:21Z</time>
      </trkpt>
      <trkpt lat="38.44413349" lon="-2.69049955">
        <ele>1072.0000</ele>
        <time>2018-10-13T12:35:27Z</time>
      </trkpt>
      <trkpt lat="38.44399108" lon="-2.69043635">
        <ele>1073.0000</ele>
        <time>2018-10-13T12:35:32Z</time>
      </trkpt>
      <trkpt lat="38.44384322" lon="-2.69032412">
        <ele>1074.0000</ele>
        <time>2018-10-13T12:35:37Z</time>
      </trkpt>
      <trkpt lat="38.44373837" lon="-2.69016243">
        <ele>1075.0000</ele>
        <time>2018-10-13T12:35:44Z</time>
      </trkpt>
      <trkpt lat="38.44366502" lon="-2.69008129">
        <ele>1076.0000</ele>
        <time>2018-10-13T12:35:48Z</time>
      </trkpt>
      <trkpt lat="38.44358255" lon="-2.68993377">
        <ele>1077.0000</ele>
        <time>2018-10-13T12:35:54Z</time>
      </trkpt>
      <trkpt lat="38.44353578" lon="-2.68985859">
        <ele>1077.0000</ele>
        <time>2018-10-13T12:35:58Z</time>
      </trkpt>
      <trkpt lat="38.44347115" lon="-2.68977594">
        <ele>1077.0000</ele>
        <time>2018-10-13T12:36:03Z</time>
      </trkpt>
      <trkpt lat="38.44340242" lon="-2.68965742">
        <ele>1077.0000</ele>
        <time>2018-10-13T12:36:07Z</time>
      </trkpt>
      <trkpt lat="38.44335305" lon="-2.68956413">
        <ele>1077.0000</ele>
        <time>2018-10-13T12:36:10Z</time>
      </trkpt>
      <trkpt lat="38.44326521" lon="-2.68942616">
        <ele>1077.0000</ele>
        <time>2018-10-13T12:36:15Z</time>
      </trkpt>
      <trkpt lat="38.44318089" lon="-2.68934570">
        <ele>1077.0000</ele>
        <time>2018-10-13T12:36:19Z</time>
      </trkpt>
      <trkpt lat="38.44311710" lon="-2.68932742">
        <ele>1077.0000</ele>
        <time>2018-10-13T12:36:23Z</time>
      </trkpt>
      <trkpt lat="38.44307041" lon="-2.68928744">
        <ele>1077.0000</ele>
        <time>2018-10-13T12:38:45Z</time>
      </trkpt>
      <trkpt lat="38.44287159" lon="-2.68900405">
        <ele>1077.0000</ele>
        <time>2018-10-13T12:38:53Z</time>
      </trkpt>
      <trkpt lat="38.44283731" lon="-2.68873524">
        <ele>1076.0000</ele>
        <time>2018-10-13T12:38:57Z</time>
      </trkpt>
      <trkpt lat="38.44286363" lon="-2.68858663">
        <ele>1075.0000</ele>
        <time>2018-10-13T12:38:59Z</time>
      </trkpt>
      <trkpt lat="38.44288073" lon="-2.68851019">
        <ele>1074.0000</ele>
        <time>2018-10-13T12:39:00Z</time>
      </trkpt>
      <trkpt lat="38.44289464" lon="-2.68843073">
        <ele>1074.0000</ele>
        <time>2018-10-13T12:39:01Z</time>
      </trkpt>
      <trkpt lat="38.44284745" lon="-2.68809814">
        <ele>1073.0000</ele>
        <time>2018-10-13T12:39:05Z</time>
      </trkpt>
      <trkpt lat="38.44257932" lon="-2.68792874">
        <ele>1072.0000</ele>
        <time>2018-10-13T12:39:09Z</time>
      </trkpt>
      <trkpt lat="38.44241268" lon="-2.68787870">
        <ele>1071.0000</ele>
        <time>2018-10-13T12:39:11Z</time>
      </trkpt>
      <trkpt lat="38.44205126" lon="-2.68773813">
        <ele>1069.0000</ele>
        <time>2018-10-13T12:39:15Z</time>
      </trkpt>
      <trkpt lat="38.44176309" lon="-2.68759522">
        <ele>1068.0000</ele>
        <time>2018-10-13T12:39:18Z</time>
      </trkpt>
      <trkpt lat="38.44155647" lon="-2.68749933">
        <ele>1067.0000</ele>
        <time>2018-10-13T12:39:20Z</time>
      </trkpt>
      <trkpt lat="38.44145002" lon="-2.68745264">
        <ele>1066.0000</ele>
        <time>2018-10-13T12:39:21Z</time>
      </trkpt>
      <trkpt lat="38.44123243" lon="-2.68734670">
        <ele>1064.0000</ele>
        <time>2018-10-13T12:39:23Z</time>
      </trkpt>
      <trkpt lat="38.44101073" lon="-2.68723497">
        <ele>1062.0000</ele>
        <time>2018-10-13T12:39:25Z</time>
      </trkpt>
      <trkpt lat="38.44090076" lon="-2.68718451">
        <ele>1061.0000</ele>
        <time>2018-10-13T12:39:26Z</time>
      </trkpt>
      <trkpt lat="38.44057722" lon="-2.68702148">
        <ele>1060.0000</ele>
        <time>2018-10-13T12:39:29Z</time>
      </trkpt>
      <trkpt lat="38.44047353" lon="-2.68693976">
        <ele>1057.0000</ele>
        <time>2018-10-13T12:39:30Z</time>
      </trkpt>
      <trkpt lat="38.44028100" lon="-2.68673733">
        <ele>1055.0000</ele>
        <time>2018-10-13T12:39:32Z</time>
      </trkpt>
      <trkpt lat="38.44001236" lon="-2.68643106">
        <ele>1053.0000</ele>
        <time>2018-10-13T12:39:35Z</time>
      </trkpt>
      <trkpt lat="38.43991655" lon="-2.68635151">
        <ele>1053.0000</ele>
        <time>2018-10-13T12:39:36Z</time>
      </trkpt>
      <trkpt lat="38.43981128" lon="-2.68628572">
        <ele>1052.0000</ele>
        <time>2018-10-13T12:39:37Z</time>
      </trkpt>
      <trkpt lat="38.43969795" lon="-2.68623123">
        <ele>1050.0000</ele>
        <time>2018-10-13T12:39:38Z</time>
      </trkpt>
      <trkpt lat="38.43945362" lon="-2.68613836">
        <ele>1048.0000</ele>
        <time>2018-10-13T12:39:40Z</time>
      </trkpt>
      <trkpt lat="38.43932856" lon="-2.68610182">
        <ele>1047.0000</ele>
        <time>2018-10-13T12:39:41Z</time>
      </trkpt>
      <trkpt lat="38.43920468" lon="-2.68607634">
        <ele>1045.0000</ele>
        <time>2018-10-13T12:39:42Z</time>
      </trkpt>
      <trkpt lat="38.43908255" lon="-2.68607030">
        <ele>1043.0000</ele>
        <time>2018-10-13T12:39:43Z</time>
      </trkpt>
      <trkpt lat="38.43896211" lon="-2.68608874">
        <ele>1042.0000</ele>
        <time>2018-10-13T12:39:44Z</time>
      </trkpt>
      <trkpt lat="38.43872481" lon="-2.68615119">
        <ele>1041.0000</ele>
        <time>2018-10-13T12:39:46Z</time>
      </trkpt>
      <trkpt lat="38.43860621" lon="-2.68618455">
        <ele>1040.0000</ele>
        <time>2018-10-13T12:39:47Z</time>
      </trkpt>
      <trkpt lat="38.43848492" lon="-2.68620852">
        <ele>1039.0000</ele>
        <time>2018-10-13T12:39:48Z</time>
      </trkpt>
      <trkpt lat="38.43836263" lon="-2.68622067">
        <ele>1038.0000</ele>
        <time>2018-10-13T12:39:49Z</time>
      </trkpt>
      <trkpt lat="38.43813112" lon="-2.68622377">
        <ele>1036.0000</ele>
        <time>2018-10-13T12:39:51Z</time>
      </trkpt>
      <trkpt lat="38.43802786" lon="-2.68621824">
        <ele>1035.0000</ele>
        <time>2018-10-13T12:39:52Z</time>
      </trkpt>
      <trkpt lat="38.43793214" lon="-2.68619871">
        <ele>1034.0000</ele>
        <time>2018-10-13T12:39:53Z</time>
      </trkpt>
      <trkpt lat="38.43784555" lon="-2.68615580">
        <ele>1034.0000</ele>
        <time>2018-10-13T12:39:54Z</time>
      </trkpt>
      <trkpt lat="38.43763802" lon="-2.68574081">
        <ele>1033.0000</ele>
        <time>2018-10-13T12:39:58Z</time>
      </trkpt>
      <trkpt lat="38.43759208" lon="-2.68562665">
        <ele>1033.0000</ele>
        <time>2018-10-13T12:39:59Z</time>
      </trkpt>
      <trkpt lat="38.43753484" lon="-2.68551751">
        <ele>1033.0000</ele>
        <time>2018-10-13T12:40:00Z</time>
      </trkpt>
      <trkpt lat="38.43718665" lon="-2.68521023">
        <ele>1032.0000</ele>
        <time>2018-10-13T12:40:04Z</time>
      </trkpt>
      <trkpt lat="38.43708347" lon="-2.68515634">
        <ele>1029.0000</ele>
        <time>2018-10-13T12:40:05Z</time>
      </trkpt>
      <trkpt lat="38.43687015" lon="-2.68505433">
        <ele>1028.0000</ele>
        <time>2018-10-13T12:40:07Z</time>
      </trkpt>
      <trkpt lat="38.43663982" lon="-2.68498082">
        <ele>1027.0000</ele>
        <time>2018-10-13T12:40:09Z</time>
      </trkpt>
      <trkpt lat="38.43651803" lon="-2.68497085">
        <ele>1026.0000</ele>
        <time>2018-10-13T12:40:10Z</time>
      </trkpt>
      <trkpt lat="38.43627084" lon="-2.68499633">
        <ele>1024.0000</ele>
        <time>2018-10-13T12:40:12Z</time>
      </trkpt>
      <trkpt lat="38.43615132" lon="-2.68501569">
        <ele>1023.0000</ele>
        <time>2018-10-13T12:40:13Z</time>
      </trkpt>
      <trkpt lat="38.43591813" lon="-2.68504670">
        <ele>1022.0000</ele>
        <time>2018-10-13T12:40:15Z</time>
      </trkpt>
      <trkpt lat="38.43580045" lon="-2.68504444">
        <ele>1022.0000</ele>
        <time>2018-10-13T12:40:16Z</time>
      </trkpt>
      <trkpt lat="38.43568344" lon="-2.68502784">
        <ele>1021.0000</ele>
        <time>2018-10-13T12:40:17Z</time>
      </trkpt>
      <trkpt lat="38.43556970" lon="-2.68499842">
        <ele>1019.0000</ele>
        <time>2018-10-13T12:40:18Z</time>
      </trkpt>
      <trkpt lat="38.43545939" lon="-2.68495953">
        <ele>1018.0000</ele>
        <time>2018-10-13T12:40:19Z</time>
      </trkpt>
      <trkpt lat="38.43535252" lon="-2.68491477">
        <ele>1017.0000</ele>
        <time>2018-10-13T12:40:20Z</time>
      </trkpt>
      <trkpt lat="38.43524876" lon="-2.68486658">
        <ele>1016.0000</ele>
        <time>2018-10-13T12:40:21Z</time>
      </trkpt>
      <trkpt lat="38.43504935" lon="-2.68476977">
        <ele>1014.0000</ele>
        <time>2018-10-13T12:40:23Z</time>
      </trkpt>
      <trkpt lat="38.43485489" lon="-2.68469198">
        <ele>1013.0000</ele>
        <time>2018-10-13T12:40:25Z</time>
      </trkpt>
      <trkpt lat="38.43459011" lon="-2.68471201">
        <ele>1011.0000</ele>
        <time>2018-10-13T12:40:28Z</time>
      </trkpt>
      <trkpt lat="38.43444208" lon="-2.68484990">
        <ele>1010.0000</ele>
        <time>2018-10-13T12:40:30Z</time>
      </trkpt>
      <trkpt lat="38.43431912" lon="-2.68504109">
        <ele>1009.0000</ele>
        <time>2018-10-13T12:40:32Z</time>
      </trkpt>
      <trkpt lat="38.43425600" lon="-2.68514075">
        <ele>1009.0000</ele>
        <time>2018-10-13T12:40:33Z</time>
      </trkpt>
      <trkpt lat="38.43387815" lon="-2.68562489">
        <ele>1008.0000</ele>
        <time>2018-10-13T12:40:38Z</time>
      </trkpt>
      <trkpt lat="38.43377731" lon="-2.68569965">
        <ele>1007.0000</ele>
        <time>2018-10-13T12:40:39Z</time>
      </trkpt>
      <trkpt lat="38.43356533" lon="-2.68580283">
        <ele>1006.0000</ele>
        <time>2018-10-13T12:40:41Z</time>
      </trkpt>
      <trkpt lat="38.43347364" lon="-2.68586151">
        <ele>1005.0000</ele>
        <time>2018-10-13T12:40:42Z</time>
      </trkpt>
      <trkpt lat="38.43339552" lon="-2.68594390">
        <ele>1004.0000</ele>
        <time>2018-10-13T12:40:43Z</time>
      </trkpt>
      <trkpt lat="38.43326937" lon="-2.68614976">
        <ele>1003.0000</ele>
        <time>2018-10-13T12:40:45Z</time>
      </trkpt>
      <trkpt lat="38.43320617" lon="-2.68625638">
        <ele>1001.0000</ele>
        <time>2018-10-13T12:40:46Z</time>
      </trkpt>
      <trkpt lat="38.43313082" lon="-2.68635193">
        <ele>1000.0000</ele>
        <time>2018-10-13T12:40:47Z</time>
      </trkpt>
      <trkpt lat="38.43304163" lon="-2.68643332">
        <ele>999.00000</ele>
        <time>2018-10-13T12:40:48Z</time>
      </trkpt>
      <trkpt lat="38.43276562" lon="-2.68665050">
        <ele>998.00000</ele>
        <time>2018-10-13T12:40:51Z</time>
      </trkpt>
      <trkpt lat="38.43263888" lon="-2.68684336">
        <ele>997.00000</ele>
        <time>2018-10-13T12:40:53Z</time>
      </trkpt>
      <trkpt lat="38.43258088" lon="-2.68695350">
        <ele>996.00000</ele>
        <time>2018-10-13T12:40:54Z</time>
      </trkpt>
      <trkpt lat="38.43251667" lon="-2.68706230">
        <ele>995.00000</ele>
        <time>2018-10-13T12:40:55Z</time>
      </trkpt>
      <trkpt lat="38.43244057" lon="-2.68716104">
        <ele>994.00000</ele>
        <time>2018-10-13T12:40:56Z</time>
      </trkpt>
      <trkpt lat="38.43226614" lon="-2.68732457">
        <ele>993.00000</ele>
        <time>2018-10-13T12:40:58Z</time>
      </trkpt>
      <trkpt lat="38.43186398" lon="-2.68744451">
        <ele>991.00000</ele>
        <time>2018-10-13T12:41:02Z</time>
      </trkpt>
      <trkpt lat="38.43164646" lon="-2.68745466">
        <ele>989.00000</ele>
        <time>2018-10-13T12:41:04Z</time>
      </trkpt>
      <trkpt lat="38.43153398" lon="-2.68746673">
        <ele>988.00000</ele>
        <time>2018-10-13T12:41:05Z</time>
      </trkpt>
      <trkpt lat="38.43142082" lon="-2.68749221">
        <ele>987.00000</ele>
        <time>2018-10-13T12:41:06Z</time>
      </trkpt>
      <trkpt lat="38.43119099" lon="-2.68756664">
        <ele>986.00000</ele>
        <time>2018-10-13T12:41:08Z</time>
      </trkpt>
      <trkpt lat="38.43094951" lon="-2.68762473">
        <ele>984.00000</ele>
        <time>2018-10-13T12:41:10Z</time>
      </trkpt>
      <trkpt lat="38.43070409" lon="-2.68767384">
        <ele>983.00000</ele>
        <time>2018-10-13T12:41:12Z</time>
      </trkpt>
      <trkpt lat="38.43047685" lon="-2.68770360">
        <ele>981.00000</ele>
        <time>2018-10-13T12:41:14Z</time>
      </trkpt>
      <trkpt lat="38.43025440" lon="-2.68767326">
        <ele>979.00000</ele>
        <time>2018-10-13T12:41:16Z</time>
      </trkpt>
      <trkpt lat="38.43004594" lon="-2.68760377">
        <ele>977.00000</ele>
        <time>2018-10-13T12:41:18Z</time>
      </trkpt>
      <trkpt lat="38.42994050" lon="-2.68758273">
        <ele>975.00000</ele>
        <time>2018-10-13T12:41:19Z</time>
      </trkpt>
      <trkpt lat="38.42972835" lon="-2.68760352">
        <ele>974.00000</ele>
        <time>2018-10-13T12:41:21Z</time>
      </trkpt>
      <trkpt lat="38.42953590" lon="-2.68771550">
        <ele>973.00000</ele>
        <time>2018-10-13T12:41:23Z</time>
      </trkpt>
      <trkpt lat="38.42936005" lon="-2.68788498">
        <ele>971.00000</ele>
        <time>2018-10-13T12:41:25Z</time>
      </trkpt>
      <trkpt lat="38.42916442" lon="-2.68803946">
        <ele>971.00000</ele>
        <time>2018-10-13T12:41:27Z</time>
      </trkpt>
      <trkpt lat="38.42906140" lon="-2.68810727">
        <ele>970.00000</ele>
        <time>2018-10-13T12:41:28Z</time>
      </trkpt>
      <trkpt lat="38.42895386" lon="-2.68816318">
        <ele>970.00000</ele>
        <time>2018-10-13T12:41:29Z</time>
      </trkpt>
      <trkpt lat="38.42873333" lon="-2.68821758">
        <ele>969.00000</ele>
        <time>2018-10-13T12:41:31Z</time>
      </trkpt>
      <trkpt lat="38.42852018" lon="-2.68822881">
        <ele>967.00000</ele>
        <time>2018-10-13T12:41:33Z</time>
      </trkpt>
      <trkpt lat="38.42841533" lon="-2.68825010">
        <ele>966.00000</ele>
        <time>2018-10-13T12:41:34Z</time>
      </trkpt>
      <trkpt lat="38.42831181" lon="-2.68829033">
        <ele>965.00000</ele>
        <time>2018-10-13T12:41:35Z</time>
      </trkpt>
      <trkpt lat="38.42821508" lon="-2.68834104">
        <ele>964.00000</ele>
        <time>2018-10-13T12:41:36Z</time>
      </trkpt>
      <trkpt lat="38.42812707" lon="-2.68838932">
        <ele>963.00000</ele>
        <time>2018-10-13T12:41:37Z</time>
      </trkpt>
      <trkpt lat="38.42804552" lon="-2.68842511">
        <ele>962.00000</ele>
        <time>2018-10-13T12:41:38Z</time>
      </trkpt>
      <trkpt lat="38.42796731" lon="-2.68843861">
        <ele>962.00000</ele>
        <time>2018-10-13T12:41:39Z</time>
      </trkpt>
      <trkpt lat="38.42781560" lon="-2.68837390">
        <ele>960.00000</ele>
        <time>2018-10-13T12:41:41Z</time>
      </trkpt>
      <trkpt lat="38.42769239" lon="-2.68821012">
        <ele>959.00000</ele>
        <time>2018-10-13T12:41:43Z</time>
      </trkpt>
      <trkpt lat="38.42758979" lon="-2.68800367">
        <ele>959.00000</ele>
        <time>2018-10-13T12:41:45Z</time>
      </trkpt>
      <trkpt lat="38.42738033" lon="-2.68754568">
        <ele>957.00000</ele>
        <time>2018-10-13T12:41:49Z</time>
      </trkpt>
      <trkpt lat="38.42732392" lon="-2.68742457">
        <ele>955.00000</ele>
        <time>2018-10-13T12:41:50Z</time>
      </trkpt>
      <trkpt lat="38.42726734" lon="-2.68730060">
        <ele>954.00000</ele>
        <time>2018-10-13T12:41:51Z</time>
      </trkpt>
      <trkpt lat="38.42720825" lon="-2.68717663">
        <ele>953.00000</ele>
        <time>2018-10-13T12:41:52Z</time>
      </trkpt>
      <trkpt lat="38.42708394" lon="-2.68692475">
        <ele>951.00000</ele>
        <time>2018-10-13T12:41:54Z</time>
      </trkpt>
      <trkpt lat="38.42702426" lon="-2.68679567">
        <ele>950.00000</ele>
        <time>2018-10-13T12:41:55Z</time>
      </trkpt>
      <trkpt lat="38.42696283" lon="-2.68666592">
        <ele>949.00000</ele>
        <time>2018-10-13T12:41:56Z</time>
      </trkpt>
      <trkpt lat="38.42689409" lon="-2.68654396">
        <ele>948.00000</ele>
        <time>2018-10-13T12:41:57Z</time>
      </trkpt>
      <trkpt lat="38.42673609" lon="-2.68633726">
        <ele>947.00000</ele>
        <time>2018-10-13T12:41:59Z</time>
      </trkpt>
      <trkpt lat="38.42656116" lon="-2.68619352">
        <ele>945.00000</ele>
        <time>2018-10-13T12:42:01Z</time>
      </trkpt>
      <trkpt lat="38.42637802" lon="-2.68610659">
        <ele>944.00000</ele>
        <time>2018-10-13T12:42:03Z</time>
      </trkpt>
      <trkpt lat="38.42617945" lon="-2.68609813">
        <ele>942.00000</ele>
        <time>2018-10-13T12:42:05Z</time>
      </trkpt>
      <trkpt lat="38.42579858" lon="-2.68625060">
        <ele>941.00000</ele>
        <time>2018-10-13T12:42:09Z</time>
      </trkpt>
      <trkpt lat="38.42560739" lon="-2.68654271">
        <ele>939.00000</ele>
        <time>2018-10-13T12:42:12Z</time>
      </trkpt>
      <trkpt lat="38.42549432" lon="-2.68671319">
        <ele>938.00000</ele>
        <time>2018-10-13T12:42:14Z</time>
      </trkpt>
      <trkpt lat="38.42534948" lon="-2.68678930">
        <ele>936.00000</ele>
        <time>2018-10-13T12:42:16Z</time>
      </trkpt>
      <trkpt lat="38.42519366" lon="-2.68673524">
        <ele>935.00000</ele>
        <time>2018-10-13T12:42:18Z</time>
      </trkpt>
      <trkpt lat="38.42506600" lon="-2.68646081">
        <ele>934.00000</ele>
        <time>2018-10-13T12:42:21Z</time>
      </trkpt>
      <trkpt lat="38.42518276" lon="-2.68614540">
        <ele>932.00000</ele>
        <time>2018-10-13T12:42:24Z</time>
      </trkpt>
      <trkpt lat="38.42535451" lon="-2.68584525">
        <ele>930.00000</ele>
        <time>2018-10-13T12:42:27Z</time>
      </trkpt>
      <trkpt lat="38.42537814" lon="-2.68560804">
        <ele>929.00000</ele>
        <time>2018-10-13T12:42:29Z</time>
      </trkpt>
      <trkpt lat="38.42531226" lon="-2.68537217">
        <ele>927.00000</ele>
        <time>2018-10-13T12:42:31Z</time>
      </trkpt>
      <trkpt lat="38.42526583" lon="-2.68525617">
        <ele>927.00000</ele>
        <time>2018-10-13T12:42:32Z</time>
      </trkpt>
      <trkpt lat="38.42521796" lon="-2.68513823">
        <ele>926.00000</ele>
        <time>2018-10-13T12:42:33Z</time>
      </trkpt>
      <trkpt lat="38.42512048" lon="-2.68489541">
        <ele>924.00000</ele>
        <time>2018-10-13T12:42:35Z</time>
      </trkpt>
      <trkpt lat="38.42502208" lon="-2.68465284">
        <ele>923.00000</ele>
        <time>2018-10-13T12:42:37Z</time>
      </trkpt>
      <trkpt lat="38.42492644" lon="-2.68441689">
        <ele>921.00000</ele>
        <time>2018-10-13T12:42:39Z</time>
      </trkpt>
      <trkpt lat="38.42487808" lon="-2.68430281">
        <ele>920.00000</ele>
        <time>2018-10-13T12:42:40Z</time>
      </trkpt>
      <trkpt lat="38.42482754" lon="-2.68420021">
        <ele>919.00000</ele>
        <time>2018-10-13T12:42:41Z</time>
      </trkpt>
      <trkpt lat="38.42470139" lon="-2.68405227">
        <ele>918.00000</ele>
        <time>2018-10-13T12:42:43Z</time>
      </trkpt>
      <trkpt lat="38.42454439" lon="-2.68401011">
        <ele>916.00000</ele>
        <time>2018-10-13T12:42:45Z</time>
      </trkpt>
      <trkpt lat="38.42436234" lon="-2.68463331">
        <ele>915.00000</ele>
        <time>2018-10-13T12:42:52Z</time>
      </trkpt>
      <trkpt lat="38.42439277" lon="-2.68475476">
        <ele>915.00000</ele>
        <time>2018-10-13T12:42:53Z</time>
      </trkpt>
      <trkpt lat="38.42445119" lon="-2.68500320">
        <ele>914.00000</ele>
        <time>2018-10-13T12:42:55Z</time>
      </trkpt>
      <trkpt lat="38.42449570" lon="-2.68525944">
        <ele>912.00000</ele>
        <time>2018-10-13T12:42:57Z</time>
      </trkpt>
      <trkpt lat="38.42450232" lon="-2.68552640">
        <ele>910.00000</ele>
        <time>2018-10-13T12:42:59Z</time>
      </trkpt>
      <trkpt lat="38.42449528" lon="-2.68565942">
        <ele>908.00000</ele>
        <time>2018-10-13T12:43:00Z</time>
      </trkpt>
      <trkpt lat="38.42448145" lon="-2.68578372">
        <ele>907.00000</ele>
        <time>2018-10-13T12:43:01Z</time>
      </trkpt>
      <trkpt lat="38.42441841" lon="-2.68599176">
        <ele>906.00000</ele>
        <time>2018-10-13T12:43:03Z</time>
      </trkpt>
      <trkpt lat="38.42436117" lon="-2.68607483">
        <ele>906.00000</ele>
        <time>2018-10-13T12:43:04Z</time>
      </trkpt>
      <trkpt lat="38.42429453" lon="-2.68613593">
        <ele>905.00000</ele>
        <time>2018-10-13T12:43:05Z</time>
      </trkpt>
      <trkpt lat="38.42413527" lon="-2.68617164">
        <ele>903.00000</ele>
        <time>2018-10-13T12:43:07Z</time>
      </trkpt>
      <trkpt lat="38.42394475" lon="-2.68596997">
        <ele>902.00000</ele>
        <time>2018-10-13T12:43:10Z</time>
      </trkpt>
      <trkpt lat="38.42384828" lon="-2.68561173">
        <ele>901.00000</ele>
        <time>2018-10-13T12:43:13Z</time>
      </trkpt>
      <trkpt lat="38.42370629" lon="-2.68540327">
        <ele>900.00000</ele>
        <time>2018-10-13T12:43:15Z</time>
      </trkpt>
      <trkpt lat="38.42351518" lon="-2.68523546">
        <ele>898.00000</ele>
        <time>2018-10-13T12:43:17Z</time>
      </trkpt>
      <trkpt lat="38.42331033" lon="-2.68507260">
        <ele>896.00000</ele>
        <time>2018-10-13T12:43:19Z</time>
      </trkpt>
      <trkpt lat="38.42310103" lon="-2.68492634">
        <ele>895.00000</ele>
        <time>2018-10-13T12:43:21Z</time>
      </trkpt>
      <trkpt lat="38.42299953" lon="-2.68487446">
        <ele>894.00000</ele>
        <time>2018-10-13T12:43:22Z</time>
      </trkpt>
      <trkpt lat="38.42289500" lon="-2.68484571">
        <ele>892.00000</ele>
        <time>2018-10-13T12:43:23Z</time>
      </trkpt>
      <trkpt lat="38.42278713" lon="-2.68484596">
        <ele>891.00000</ele>
        <time>2018-10-13T12:43:24Z</time>
      </trkpt>
      <trkpt lat="38.42267950" lon="-2.68487295">
        <ele>889.00000</ele>
        <time>2018-10-13T12:43:25Z</time>
      </trkpt>
      <trkpt lat="38.42257414" lon="-2.68491930">
        <ele>888.00000</ele>
        <time>2018-10-13T12:43:26Z</time>
      </trkpt>
      <trkpt lat="38.42246904" lon="-2.68497487">
        <ele>887.00000</ele>
        <time>2018-10-13T12:43:27Z</time>
      </trkpt>
      <trkpt lat="38.42236292" lon="-2.68503430">
        <ele>885.00000</ele>
        <time>2018-10-13T12:43:28Z</time>
      </trkpt>
      <trkpt lat="38.42214499" lon="-2.68516355">
        <ele>884.00000</ele>
        <time>2018-10-13T12:43:30Z</time>
      </trkpt>
      <trkpt lat="38.42192958" lon="-2.68529129">
        <ele>883.00000</ele>
        <time>2018-10-13T12:43:32Z</time>
      </trkpt>
      <trkpt lat="38.42172539" lon="-2.68539841">
        <ele>881.00000</ele>
        <time>2018-10-13T12:43:34Z</time>
      </trkpt>
      <trkpt lat="38.42162129" lon="-2.68543504">
        <ele>880.00000</ele>
        <time>2018-10-13T12:43:35Z</time>
      </trkpt>
      <trkpt lat="38.42151853" lon="-2.68546077">
        <ele>879.00000</ele>
        <time>2018-10-13T12:43:36Z</time>
      </trkpt>
      <trkpt lat="38.42141903" lon="-2.68547510">
        <ele>877.00000</ele>
        <time>2018-10-13T12:43:37Z</time>
      </trkpt>
      <trkpt lat="38.42132071" lon="-2.68547493">
        <ele>876.00000</ele>
        <time>2018-10-13T12:43:38Z</time>
      </trkpt>
      <trkpt lat="38.42112810" lon="-2.68542028">
        <ele>875.00000</ele>
        <time>2018-10-13T12:43:40Z</time>
      </trkpt>
      <trkpt lat="38.42087320" lon="-2.68518559">
        <ele>874.00000</ele>
        <time>2018-10-13T12:43:43Z</time>
      </trkpt>
      <trkpt lat="38.42079006" lon="-2.68509029">
        <ele>873.00000</ele>
        <time>2018-10-13T12:43:44Z</time>
      </trkpt>
      <trkpt lat="38.42069970" lon="-2.68499859">
        <ele>873.00000</ele>
        <time>2018-10-13T12:43:45Z</time>
      </trkpt>
      <trkpt lat="38.42059920" lon="-2.68491603">
        <ele>872.00000</ele>
        <time>2018-10-13T12:43:46Z</time>
      </trkpt>
      <trkpt lat="38.42037666" lon="-2.68477932">
        <ele>870.00000</ele>
        <time>2018-10-13T12:43:48Z</time>
      </trkpt>
      <trkpt lat="38.42014691" lon="-2.68463339">
        <ele>868.00000</ele>
        <time>2018-10-13T12:43:50Z</time>
      </trkpt>
      <trkpt lat="38.41991767" lon="-2.68447070">
        <ele>867.00000</ele>
        <time>2018-10-13T12:43:52Z</time>
      </trkpt>
      <trkpt lat="38.41979990" lon="-2.68438545">
        <ele>866.00000</ele>
        <time>2018-10-13T12:43:53Z</time>
      </trkpt>
      <trkpt lat="38.41967669" lon="-2.68430633">
        <ele>865.00000</ele>
        <time>2018-10-13T12:43:54Z</time>
      </trkpt>
      <trkpt lat="38.41942355" lon="-2.68417180">
        <ele>862.00000</ele>
        <time>2018-10-13T12:43:56Z</time>
      </trkpt>
      <trkpt lat="38.41930026" lon="-2.68411916">
        <ele>861.00000</ele>
        <time>2018-10-13T12:43:57Z</time>
      </trkpt>
      <trkpt lat="38.41918006" lon="-2.68407683">
        <ele>859.00000</ele>
        <time>2018-10-13T12:43:58Z</time>
      </trkpt>
      <trkpt lat="38.41906514" lon="-2.68403979">
        <ele>857.00000</ele>
        <time>2018-10-13T12:43:59Z</time>
      </trkpt>
      <trkpt lat="38.41895199" lon="-2.68400995">
        <ele>855.00000</ele>
        <time>2018-10-13T12:44:00Z</time>
      </trkpt>
      <trkpt lat="38.41883707" lon="-2.68399327">
        <ele>854.00000</ele>
        <time>2018-10-13T12:44:01Z</time>
      </trkpt>
      <trkpt lat="38.41872316" lon="-2.68399796">
        <ele>853.00000</ele>
        <time>2018-10-13T12:44:02Z</time>
      </trkpt>
      <trkpt lat="38.41852099" lon="-2.68402411">
        <ele>851.00000</ele>
        <time>2018-10-13T12:44:04Z</time>
      </trkpt>
      <trkpt lat="38.41834061" lon="-2.68401137">
        <ele>850.00000</ele>
        <time>2018-10-13T12:44:06Z</time>
      </trkpt>
      <trkpt lat="38.41795848" lon="-2.68365522">
        <ele>849.00000</ele>
        <time>2018-10-13T12:44:11Z</time>
      </trkpt>
      <trkpt lat="38.41789478" lon="-2.68354743">
        <ele>849.00000</ele>
        <time>2018-10-13T12:44:12Z</time>
      </trkpt>
      <trkpt lat="38.41774474" lon="-2.68333797">
        <ele>849.00000</ele>
        <time>2018-10-13T12:44:14Z</time>
      </trkpt>
      <trkpt lat="38.41765204" lon="-2.68324878">
        <ele>848.00000</ele>
        <time>2018-10-13T12:44:15Z</time>
      </trkpt>
      <trkpt lat="38.41755313" lon="-2.68317620">
        <ele>846.00000</ele>
        <time>2018-10-13T12:44:16Z</time>
      </trkpt>
      <trkpt lat="38.41737301" lon="-2.68306354">
        <ele>845.00000</ele>
        <time>2018-10-13T12:44:18Z</time>
      </trkpt>
      <trkpt lat="38.41721308" lon="-2.68296707">
        <ele>844.00000</ele>
        <time>2018-10-13T12:44:20Z</time>
      </trkpt>
      <trkpt lat="38.41703035" lon="-2.68290974">
        <ele>841.00000</ele>
        <time>2018-10-13T12:44:22Z</time>
      </trkpt>
      <trkpt lat="38.41683288" lon="-2.68292985">
        <ele>840.00000</ele>
        <time>2018-10-13T12:44:24Z</time>
      </trkpt>
      <trkpt lat="38.41655041" lon="-2.68300713">
        <ele>839.00000</ele>
        <time>2018-10-13T12:44:27Z</time>
      </trkpt>
      <trkpt lat="38.41627238" lon="-2.68290136">
        <ele>837.00000</ele>
        <time>2018-10-13T12:44:30Z</time>
      </trkpt>
      <trkpt lat="38.41618579" lon="-2.68283061">
        <ele>836.00000</ele>
        <time>2018-10-13T12:44:31Z</time>
      </trkpt>
      <trkpt lat="38.41610206" lon="-2.68274956">
        <ele>835.00000</ele>
        <time>2018-10-13T12:44:32Z</time>
      </trkpt>
      <trkpt lat="38.41602184" lon="-2.68266163">
        <ele>834.00000</ele>
        <time>2018-10-13T12:44:33Z</time>
      </trkpt>
      <trkpt lat="38.41594523" lon="-2.68257253">
        <ele>834.00000</ele>
        <time>2018-10-13T12:44:34Z</time>
      </trkpt>
      <trkpt lat="38.41579168" lon="-2.68239509">
        <ele>832.00000</ele>
        <time>2018-10-13T12:44:36Z</time>
      </trkpt>
      <trkpt lat="38.41571414" lon="-2.68230934">
        <ele>831.00000</ele>
        <time>2018-10-13T12:44:37Z</time>
      </trkpt>
      <trkpt lat="38.41563695" lon="-2.68222913">
        <ele>830.00000</ele>
        <time>2018-10-13T12:44:38Z</time>
      </trkpt>
      <trkpt lat="38.41556159" lon="-2.68215109">
        <ele>829.00000</ele>
        <time>2018-10-13T12:44:39Z</time>
      </trkpt>
      <trkpt lat="38.41549118" lon="-2.68206903">
        <ele>827.00000</ele>
        <time>2018-10-13T12:44:40Z</time>
      </trkpt>
      <trkpt lat="38.41537887" lon="-2.68191028">
        <ele>826.00000</ele>
        <time>2018-10-13T12:44:42Z</time>
      </trkpt>
      <trkpt lat="38.41533478" lon="-2.68183509">
        <ele>825.00000</ele>
        <time>2018-10-13T12:44:43Z</time>
      </trkpt>
      <trkpt lat="38.41525817" lon="-2.68166896">
        <ele>824.00000</ele>
        <time>2018-10-13T12:44:45Z</time>
      </trkpt>
      <trkpt lat="38.41510076" lon="-2.68128080">
        <ele>823.00000</ele>
        <time>2018-10-13T12:44:49Z</time>
      </trkpt>
      <trkpt lat="38.41494971" lon="-2.68096631">
        <ele>822.00000</ele>
        <time>2018-10-13T12:44:52Z</time>
      </trkpt>
      <trkpt lat="38.41483253" lon="-2.68074880">
        <ele>821.00000</ele>
        <time>2018-10-13T12:44:54Z</time>
      </trkpt>
      <trkpt lat="38.41477495" lon="-2.68063564">
        <ele>820.00000</ele>
        <time>2018-10-13T12:44:55Z</time>
      </trkpt>
      <trkpt lat="38.41472089" lon="-2.68052215">
        <ele>819.00000</ele>
        <time>2018-10-13T12:44:56Z</time>
      </trkpt>
      <trkpt lat="38.41462844" lon="-2.68029785">
        <ele>817.00000</ele>
        <time>2018-10-13T12:44:58Z</time>
      </trkpt>
      <trkpt lat="38.41457664" lon="-2.68006802">
        <ele>816.00000</ele>
        <time>2018-10-13T12:45:00Z</time>
      </trkpt>
      <trkpt lat="38.41455518" lon="-2.67984657">
        <ele>815.00000</ele>
        <time>2018-10-13T12:45:02Z</time>
      </trkpt>
      <trkpt lat="38.41453598" lon="-2.67961825">
        <ele>813.00000</ele>
        <time>2018-10-13T12:45:04Z</time>
      </trkpt>
      <trkpt lat="38.41451570" lon="-2.67937551">
        <ele>812.00000</ele>
        <time>2018-10-13T12:45:06Z</time>
      </trkpt>
      <trkpt lat="38.41451042" lon="-2.67913729">
        <ele>811.00000</ele>
        <time>2018-10-13T12:45:08Z</time>
      </trkpt>
      <trkpt lat="38.41460153" lon="-2.67868023">
        <ele>810.00000</ele>
        <time>2018-10-13T12:45:12Z</time>
      </trkpt>
      <trkpt lat="38.41464294" lon="-2.67849440">
        <ele>808.00000</ele>
        <time>2018-10-13T12:45:14Z</time>
      </trkpt>
      <trkpt lat="38.41465149" lon="-2.67840488">
        <ele>806.00000</ele>
        <time>2018-10-13T12:45:15Z</time>
      </trkpt>
      <trkpt lat="38.41463087" lon="-2.67821763">
        <ele>805.00000</ele>
        <time>2018-10-13T12:45:17Z</time>
      </trkpt>
      <trkpt lat="38.41451000" lon="-2.67796886">
        <ele>804.00000</ele>
        <time>2018-10-13T12:45:20Z</time>
      </trkpt>
      <trkpt lat="38.41435560" lon="-2.67765009">
        <ele>803.00000</ele>
        <time>2018-10-13T12:45:24Z</time>
      </trkpt>
      <trkpt lat="38.41432082" lon="-2.67756083">
        <ele>802.00000</ele>
        <time>2018-10-13T12:45:25Z</time>
      </trkpt>
      <trkpt lat="38.41429417" lon="-2.67746401">
        <ele>801.00000</ele>
        <time>2018-10-13T12:45:26Z</time>
      </trkpt>
      <trkpt lat="38.41427816" lon="-2.67735840">
        <ele>800.00000</ele>
        <time>2018-10-13T12:45:27Z</time>
      </trkpt>
      <trkpt lat="38.41428545" lon="-2.67713561">
        <ele>799.00000</ele>
        <time>2018-10-13T12:45:29Z</time>
      </trkpt>
      <trkpt lat="38.41433876" lon="-2.67690762">
        <ele>798.00000</ele>
        <time>2018-10-13T12:45:31Z</time>
      </trkpt>
      <trkpt lat="38.41436969" lon="-2.67678894">
        <ele>797.00000</ele>
        <time>2018-10-13T12:45:32Z</time>
      </trkpt>
      <trkpt lat="38.41441738" lon="-2.67653295">
        <ele>796.00000</ele>
        <time>2018-10-13T12:45:34Z</time>
      </trkpt>
      <trkpt lat="38.41442836" lon="-2.67614236">
        <ele>795.00000</ele>
        <time>2018-10-13T12:45:37Z</time>
      </trkpt>
      <trkpt lat="38.41441797" lon="-2.67601621">
        <ele>794.00000</ele>
        <time>2018-10-13T12:45:38Z</time>
      </trkpt>
      <trkpt lat="38.41440112" lon="-2.67590423">
        <ele>793.00000</ele>
        <time>2018-10-13T12:45:39Z</time>
      </trkpt>
      <trkpt lat="38.41434781" lon="-2.67571203">
        <ele>791.00000</ele>
        <time>2018-10-13T12:45:41Z</time>
      </trkpt>
      <trkpt lat="38.41430213" lon="-2.67562787">
        <ele>790.00000</ele>
        <time>2018-10-13T12:45:42Z</time>
      </trkpt>
      <trkpt lat="38.41424161" lon="-2.67555118">
        <ele>789.00000</ele>
        <time>2018-10-13T12:45:43Z</time>
      </trkpt>
      <trkpt lat="38.41417573" lon="-2.67547809">
        <ele>788.00000</ele>
        <time>2018-10-13T12:45:44Z</time>
      </trkpt>
      <trkpt lat="38.41411286" lon="-2.67539804">
        <ele>788.00000</ele>
        <time>2018-10-13T12:45:45Z</time>
      </trkpt>
      <trkpt lat="38.41405997" lon="-2.67530618">
        <ele>788.00000</ele>
        <time>2018-10-13T12:45:46Z</time>
      </trkpt>
      <trkpt lat="38.41400465" lon="-2.67482489">
        <ele>787.00000</ele>
        <time>2018-10-13T12:45:50Z</time>
      </trkpt>
      <trkpt lat="38.41401136" lon="-2.67469388">
        <ele>786.00000</ele>
        <time>2018-10-13T12:45:51Z</time>
      </trkpt>
      <trkpt lat="38.41401915" lon="-2.67455943">
        <ele>785.00000</ele>
        <time>2018-10-13T12:45:52Z</time>
      </trkpt>
      <trkpt lat="38.41402636" lon="-2.67442247">
        <ele>784.00000</ele>
        <time>2018-10-13T12:45:53Z</time>
      </trkpt>
      <trkpt lat="38.41403709" lon="-2.67415962">
        <ele>783.00000</ele>
        <time>2018-10-13T12:45:55Z</time>
      </trkpt>
      <trkpt lat="38.41402812" lon="-2.67390414">
        <ele>781.00000</ele>
        <time>2018-10-13T12:45:57Z</time>
      </trkpt>
      <trkpt lat="38.41402092" lon="-2.67377128">
        <ele>779.00000</ele>
        <time>2018-10-13T12:45:58Z</time>
      </trkpt>
      <trkpt lat="38.41401446" lon="-2.67363885">
        <ele>778.00000</ele>
        <time>2018-10-13T12:45:59Z</time>
      </trkpt>
      <trkpt lat="38.41402410" lon="-2.67339041">
        <ele>776.00000</ele>
        <time>2018-10-13T12:46:01Z</time>
      </trkpt>
      <trkpt lat="38.41410893" lon="-2.67304885">
        <ele>775.00000</ele>
        <time>2018-10-13T12:46:04Z</time>
      </trkpt>
      <trkpt lat="38.41423960" lon="-2.67287014">
        <ele>774.00000</ele>
        <time>2018-10-13T12:46:06Z</time>
      </trkpt>
      <trkpt lat="38.41440221" lon="-2.67271324">
        <ele>772.00000</ele>
        <time>2018-10-13T12:46:08Z</time>
      </trkpt>
      <trkpt lat="38.41457219" lon="-2.67257569">
        <ele>771.00000</ele>
        <time>2018-10-13T12:46:10Z</time>
      </trkpt>
      <trkpt lat="38.41470438" lon="-2.67244552">
        <ele>770.00000</ele>
        <time>2018-10-13T12:46:12Z</time>
      </trkpt>
      <trkpt lat="38.41476732" lon="-2.67229909">
        <ele>768.00000</ele>
        <time>2018-10-13T12:46:14Z</time>
      </trkpt>
      <trkpt lat="38.41471921" lon="-2.67216330">
        <ele>767.00000</ele>
        <time>2018-10-13T12:46:16Z</time>
      </trkpt>
      <trkpt lat="38.41430892" lon="-2.67222776">
        <ele>766.00000</ele>
        <time>2018-10-13T12:46:21Z</time>
      </trkpt>
      <trkpt lat="38.41401052" lon="-2.67235592">
        <ele>764.00000</ele>
        <time>2018-10-13T12:46:24Z</time>
      </trkpt>
      <trkpt lat="38.41390399" lon="-2.67239975">
        <ele>762.00000</ele>
        <time>2018-10-13T12:46:25Z</time>
      </trkpt>
      <trkpt lat="38.41379620" lon="-2.67244761">
        <ele>761.00000</ele>
        <time>2018-10-13T12:46:26Z</time>
      </trkpt>
      <trkpt lat="38.41368539" lon="-2.67249807">
        <ele>759.00000</ele>
        <time>2018-10-13T12:46:27Z</time>
      </trkpt>
      <trkpt lat="38.41357558" lon="-2.67255758">
        <ele>758.00000</ele>
        <time>2018-10-13T12:46:28Z</time>
      </trkpt>
      <trkpt lat="38.41347022" lon="-2.67263428">
        <ele>757.00000</ele>
        <time>2018-10-13T12:46:29Z</time>
      </trkpt>
      <trkpt lat="38.41337065" lon="-2.67272732">
        <ele>756.00000</ele>
        <time>2018-10-13T12:46:30Z</time>
      </trkpt>
      <trkpt lat="38.41327752" lon="-2.67283452">
        <ele>754.00000</ele>
        <time>2018-10-13T12:46:31Z</time>
      </trkpt>
      <trkpt lat="38.41318801" lon="-2.67295078">
        <ele>753.00000</ele>
        <time>2018-10-13T12:46:32Z</time>
      </trkpt>
      <trkpt lat="38.41301517" lon="-2.67320140">
        <ele>751.00000</ele>
        <time>2018-10-13T12:46:34Z</time>
      </trkpt>
      <trkpt lat="38.41284636" lon="-2.67345663">
        <ele>749.00000</ele>
        <time>2018-10-13T12:46:36Z</time>
      </trkpt>
      <trkpt lat="38.41276866" lon="-2.67358336">
        <ele>748.00000</ele>
        <time>2018-10-13T12:46:37Z</time>
      </trkpt>
      <trkpt lat="38.41270186" lon="-2.67371957">
        <ele>747.00000</ele>
        <time>2018-10-13T12:46:38Z</time>
      </trkpt>
      <trkpt lat="38.41264880" lon="-2.67386751">
        <ele>747.00000</ele>
        <time>2018-10-13T12:46:39Z</time>
      </trkpt>
      <trkpt lat="38.41256272" lon="-2.67418007">
        <ele>744.00000</ele>
        <time>2018-10-13T12:46:41Z</time>
      </trkpt>
      <trkpt lat="38.41251351" lon="-2.67433488">
        <ele>743.00000</ele>
        <time>2018-10-13T12:46:42Z</time>
      </trkpt>
      <trkpt lat="38.41245451" lon="-2.67448517">
        <ele>741.00000</ele>
        <time>2018-10-13T12:46:43Z</time>
      </trkpt>
      <trkpt lat="38.41232107" lon="-2.67477217">
        <ele>740.00000</ele>
        <time>2018-10-13T12:46:45Z</time>
      </trkpt>
      <trkpt lat="38.41217170" lon="-2.67503209">
        <ele>739.00000</ele>
        <time>2018-10-13T12:46:47Z</time>
      </trkpt>
      <trkpt lat="38.41208377" lon="-2.67514809">
        <ele>738.00000</ele>
        <time>2018-10-13T12:46:48Z</time>
      </trkpt>
      <trkpt lat="38.41198420" lon="-2.67525027">
        <ele>737.00000</ele>
        <time>2018-10-13T12:46:49Z</time>
      </trkpt>
      <trkpt lat="38.41187590" lon="-2.67533870">
        <ele>736.00000</ele>
        <time>2018-10-13T12:46:50Z</time>
      </trkpt>
      <trkpt lat="38.41176291" lon="-2.67541849">
        <ele>735.00000</ele>
        <time>2018-10-13T12:46:51Z</time>
      </trkpt>
      <trkpt lat="38.41164934" lon="-2.67549544">
        <ele>734.00000</ele>
        <time>2018-10-13T12:46:52Z</time>
      </trkpt>
      <trkpt lat="38.41154054" lon="-2.67557197">
        <ele>733.00000</ele>
        <time>2018-10-13T12:46:53Z</time>
      </trkpt>
      <trkpt lat="38.41134449" lon="-2.67574614">
        <ele>732.00000</ele>
        <time>2018-10-13T12:46:55Z</time>
      </trkpt>
      <trkpt lat="38.41119546" lon="-2.67597078">
        <ele>730.00000</ele>
        <time>2018-10-13T12:46:57Z</time>
      </trkpt>
      <trkpt lat="38.41111206" lon="-2.67623204">
        <ele>728.00000</ele>
        <time>2018-10-13T12:46:59Z</time>
      </trkpt>
      <trkpt lat="38.41109655" lon="-2.67637613">
        <ele>727.00000</ele>
        <time>2018-10-13T12:47:00Z</time>
      </trkpt>
      <trkpt lat="38.41109664" lon="-2.67652549">
        <ele>726.00000</ele>
        <time>2018-10-13T12:47:01Z</time>
      </trkpt>
      <trkpt lat="38.41110351" lon="-2.67667687">
        <ele>725.00000</ele>
        <time>2018-10-13T12:47:02Z</time>
      </trkpt>
      <trkpt lat="38.41110787" lon="-2.67682959">
        <ele>725.00000</ele>
        <time>2018-10-13T12:47:03Z</time>
      </trkpt>
      <trkpt lat="38.41110242" lon="-2.67698231">
        <ele>724.00000</ele>
        <time>2018-10-13T12:47:04Z</time>
      </trkpt>
      <trkpt lat="38.41097803" lon="-2.67741297">
        <ele>723.00000</ele>
        <time>2018-10-13T12:47:07Z</time>
      </trkpt>
      <trkpt lat="38.41091643" lon="-2.67753987">
        <ele>722.00000</ele>
        <time>2018-10-13T12:47:08Z</time>
      </trkpt>
      <trkpt lat="38.41085834" lon="-2.67766124">
        <ele>721.00000</ele>
        <time>2018-10-13T12:47:09Z</time>
      </trkpt>
      <trkpt lat="38.41080830" lon="-2.67778337">
        <ele>720.00000</ele>
        <time>2018-10-13T12:47:10Z</time>
      </trkpt>
      <trkpt lat="38.41077360" lon="-2.67791270">
        <ele>719.00000</ele>
        <time>2018-10-13T12:47:11Z</time>
      </trkpt>
      <trkpt lat="38.41077075" lon="-2.67817673">
        <ele>717.00000</ele>
        <time>2018-10-13T12:47:13Z</time>
      </trkpt>
      <trkpt lat="38.41083797" lon="-2.67840589">
        <ele>716.00000</ele>
        <time>2018-10-13T12:47:15Z</time>
      </trkpt>
      <trkpt lat="38.41086731" lon="-2.67851209">
        <ele>716.00000</ele>
        <time>2018-10-13T12:47:16Z</time>
      </trkpt>
      <trkpt lat="38.41074552" lon="-2.67883219">
        <ele>715.00000</ele>
        <time>2018-10-13T12:47:20Z</time>
      </trkpt>
      <trkpt lat="38.41046875" lon="-2.67864243">
        <ele>714.00000</ele>
        <time>2018-10-13T12:47:24Z</time>
      </trkpt>
      <trkpt lat="38.41041133" lon="-2.67855056">
        <ele>713.00000</ele>
        <time>2018-10-13T12:47:25Z</time>
      </trkpt>
      <trkpt lat="38.41029373" lon="-2.67835241">
        <ele>712.00000</ele>
        <time>2018-10-13T12:47:27Z</time>
      </trkpt>
      <trkpt lat="38.41010514" lon="-2.67803641">
        <ele>711.00000</ele>
        <time>2018-10-13T12:47:30Z</time>
      </trkpt>
      <trkpt lat="38.40996625" lon="-2.67781798">
        <ele>709.00000</ele>
        <time>2018-10-13T12:47:32Z</time>
      </trkpt>
      <trkpt lat="38.40981638" lon="-2.67759477">
        <ele>707.00000</ele>
        <time>2018-10-13T12:47:34Z</time>
      </trkpt>
      <trkpt lat="38.40973617" lon="-2.67748271">
        <ele>706.00000</ele>
        <time>2018-10-13T12:47:35Z</time>
      </trkpt>
      <trkpt lat="38.40956753" lon="-2.67726008">
        <ele>704.00000</ele>
        <time>2018-10-13T12:47:37Z</time>
      </trkpt>
      <trkpt lat="38.40948119" lon="-2.67714735">
        <ele>702.00000</ele>
        <time>2018-10-13T12:47:38Z</time>
      </trkpt>
      <trkpt lat="38.40939436" lon="-2.67703679">
        <ele>701.00000</ele>
        <time>2018-10-13T12:47:39Z</time>
      </trkpt>
      <trkpt lat="38.40931280" lon="-2.67693067">
        <ele>700.00000</ele>
        <time>2018-10-13T12:47:40Z</time>
      </trkpt>
      <trkpt lat="38.40924239" lon="-2.67682280">
        <ele>699.00000</ele>
        <time>2018-10-13T12:47:41Z</time>
      </trkpt>
      <trkpt lat="38.40918405" lon="-2.67670537">
        <ele>699.00000</ele>
        <time>2018-10-13T12:47:42Z</time>
      </trkpt>
      <trkpt lat="38.40911298" lon="-2.67643514">
        <ele>697.00000</ele>
        <time>2018-10-13T12:47:44Z</time>
      </trkpt>
      <trkpt lat="38.40909445" lon="-2.67628963">
        <ele>696.00000</ele>
        <time>2018-10-13T12:47:45Z</time>
      </trkpt>
      <trkpt lat="38.40907718" lon="-2.67614169">
        <ele>695.00000</ele>
        <time>2018-10-13T12:47:46Z</time>
      </trkpt>
      <trkpt lat="38.40905112" lon="-2.67584019">
        <ele>694.00000</ele>
        <time>2018-10-13T12:47:48Z</time>
      </trkpt>
      <trkpt lat="38.40903209" lon="-2.67569652">
        <ele>693.00000</ele>
        <time>2018-10-13T12:47:49Z</time>
      </trkpt>
      <trkpt lat="38.40899948" lon="-2.67556359">
        <ele>693.00000</ele>
        <time>2018-10-13T12:47:50Z</time>
      </trkpt>
      <trkpt lat="38.40887862" lon="-2.67533065">
        <ele>691.00000</ele>
        <time>2018-10-13T12:47:52Z</time>
      </trkpt>
      <trkpt lat="38.40870117" lon="-2.67514558">
        <ele>689.00000</ele>
        <time>2018-10-13T12:47:54Z</time>
      </trkpt>
      <trkpt lat="38.40860537" lon="-2.67505900">
        <ele>688.00000</ele>
        <time>2018-10-13T12:47:55Z</time>
      </trkpt>
      <trkpt lat="38.40850688" lon="-2.67497501">
        <ele>687.00000</ele>
        <time>2018-10-13T12:47:56Z</time>
      </trkpt>
      <trkpt lat="38.40820413" lon="-2.67471978">
        <ele>686.00000</ele>
        <time>2018-10-13T12:47:59Z</time>
      </trkpt>
      <trkpt lat="38.40809927" lon="-2.67463646">
        <ele>685.00000</ele>
        <time>2018-10-13T12:48:00Z</time>
      </trkpt>
      <trkpt lat="38.40799206" lon="-2.67455583">
        <ele>684.00000</ele>
        <time>2018-10-13T12:48:01Z</time>
      </trkpt>
      <trkpt lat="38.40776751" lon="-2.67440957">
        <ele>682.00000</ele>
        <time>2018-10-13T12:48:03Z</time>
      </trkpt>
      <trkpt lat="38.40752838" lon="-2.67429884">
        <ele>680.00000</ele>
        <time>2018-10-13T12:48:05Z</time>
      </trkpt>
      <trkpt lat="38.40728111" lon="-2.67421393">
        <ele>678.00000</ele>
        <time>2018-10-13T12:48:07Z</time>
      </trkpt>
      <trkpt lat="38.40715480" lon="-2.67418040">
        <ele>677.00000</ele>
        <time>2018-10-13T12:48:08Z</time>
      </trkpt>
      <trkpt lat="38.40702714" lon="-2.67415375">
        <ele>676.00000</ele>
        <time>2018-10-13T12:48:09Z</time>
      </trkpt>
      <trkpt lat="38.40676805" lon="-2.67410740">
        <ele>674.00000</ele>
        <time>2018-10-13T12:48:11Z</time>
      </trkpt>
      <trkpt lat="38.40650520" lon="-2.67406239">
        <ele>672.00000</ele>
        <time>2018-10-13T12:48:13Z</time>
      </trkpt>
      <trkpt lat="38.40623731" lon="-2.67401796">
        <ele>671.00000</ele>
        <time>2018-10-13T12:48:15Z</time>
      </trkpt>
      <trkpt lat="38.40596398" lon="-2.67397555">
        <ele>670.00000</ele>
        <time>2018-10-13T12:48:17Z</time>
      </trkpt>
      <trkpt lat="38.40582601" lon="-2.67395552">
        <ele>670.00000</ele>
        <time>2018-10-13T12:48:18Z</time>
      </trkpt>
      <trkpt lat="38.40528731" lon="-2.67387178">
        <ele>668.00000</ele>
        <time>2018-10-13T12:48:22Z</time>
      </trkpt>
      <trkpt lat="38.40489948" lon="-2.67381018">
        <ele>666.00000</ele>
        <time>2018-10-13T12:48:25Z</time>
      </trkpt>
      <trkpt lat="38.40477065" lon="-2.67379014">
        <ele>665.00000</ele>
        <time>2018-10-13T12:48:26Z</time>
      </trkpt>
      <trkpt lat="38.40464115" lon="-2.67376969">
        <ele>664.00000</ele>
        <time>2018-10-13T12:48:27Z</time>
      </trkpt>
      <trkpt lat="38.40437921" lon="-2.67372468">
        <ele>662.00000</ele>
        <time>2018-10-13T12:48:29Z</time>
      </trkpt>
      <trkpt lat="38.40397613" lon="-2.67366148">
        <ele>662.00000</ele>
        <time>2018-10-13T12:48:32Z</time>
      </trkpt>
      <trkpt lat="38.40371159" lon="-2.67361731">
        <ele>661.00000</ele>
        <time>2018-10-13T12:48:34Z</time>
      </trkpt>
      <trkpt lat="38.40335369" lon="-2.67350683">
        <ele>660.00000</ele>
        <time>2018-10-13T12:48:37Z</time>
      </trkpt>
      <trkpt lat="38.40315512" lon="-2.67339427">
        <ele>658.00000</ele>
        <time>2018-10-13T12:48:39Z</time>
      </trkpt>
      <trkpt lat="38.40263812" lon="-2.67301767">
        <ele>658.00000</ele>
        <time>2018-10-13T12:48:45Z</time>
      </trkpt>
      <trkpt lat="38.40239748" lon="-2.67283779">
        <ele>658.00000</ele>
        <time>2018-10-13T12:48:48Z</time>
      </trkpt>
      <trkpt lat="38.40231827" lon="-2.67277954">
        <ele>658.00000</ele>
        <time>2018-10-13T12:48:49Z</time>
      </trkpt>
      <trkpt lat="38.40223965" lon="-2.67272103">
        <ele>658.00000</ele>
        <time>2018-10-13T12:48:50Z</time>
      </trkpt>
      <trkpt lat="38.40200001" lon="-2.67254250">
        <ele>658.00000</ele>
        <time>2018-10-13T12:48:53Z</time>
      </trkpt>
      <trkpt lat="38.40151838" lon="-2.67218727">
        <ele>658.00000</ele>
        <time>2018-10-13T12:48:59Z</time>
      </trkpt>
      <trkpt lat="38.40120004" lon="-2.67195031">
        <ele>657.00000</ele>
        <time>2018-10-13T12:49:03Z</time>
      </trkpt>
      <trkpt lat="38.40072051" lon="-2.67160884">
        <ele>656.00000</ele>
        <time>2018-10-13T12:49:09Z</time>
      </trkpt>
      <trkpt lat="38.40038004" lon="-2.67141572">
        <ele>655.00000</ele>
        <time>2018-10-13T12:49:13Z</time>
      </trkpt>
      <trkpt lat="38.40011282" lon="-2.67130122">
        <ele>655.00000</ele>
        <time>2018-10-13T12:49:16Z</time>
      </trkpt>
      <trkpt lat="38.39956222" lon="-2.67109746">
        <ele>655.00000</ele>
        <time>2018-10-13T12:49:22Z</time>
      </trkpt>
      <trkpt lat="38.39947018" lon="-2.67106368">
        <ele>654.00000</ele>
        <time>2018-10-13T12:49:23Z</time>
      </trkpt>
      <trkpt lat="38.39911169" lon="-2.67091867">
        <ele>653.00000</ele>
        <time>2018-10-13T12:49:27Z</time>
      </trkpt>
      <trkpt lat="38.39902318" lon="-2.67088011">
        <ele>653.00000</ele>
        <time>2018-10-13T12:49:28Z</time>
      </trkpt>
      <trkpt lat="38.39884833" lon="-2.67080359">
        <ele>652.00000</ele>
        <time>2018-10-13T12:49:30Z</time>
      </trkpt>
      <trkpt lat="38.39859193" lon="-2.67068523">
        <ele>651.00000</ele>
        <time>2018-10-13T12:49:33Z</time>
      </trkpt>
      <trkpt lat="38.39834089" lon="-2.67056051">
        <ele>650.00000</ele>
        <time>2018-10-13T12:49:36Z</time>
      </trkpt>
      <trkpt lat="38.39799648" lon="-2.67038793">
        <ele>650.00000</ele>
        <time>2018-10-13T12:49:40Z</time>
      </trkpt>
      <trkpt lat="38.39790713" lon="-2.67034401">
        <ele>649.00000</ele>
        <time>2018-10-13T12:49:41Z</time>
      </trkpt>
      <trkpt lat="38.39763388" lon="-2.67021032">
        <ele>648.00000</ele>
        <time>2018-10-13T12:49:44Z</time>
      </trkpt>
      <trkpt lat="38.39727044" lon="-2.67002767">
        <ele>647.00000</ele>
        <time>2018-10-13T12:49:48Z</time>
      </trkpt>
      <trkpt lat="38.39700607" lon="-2.66989415">
        <ele>645.00000</ele>
        <time>2018-10-13T12:49:51Z</time>
      </trkpt>
      <trkpt lat="38.39651095" lon="-2.66961310">
        <ele>645.00000</ele>
        <time>2018-10-13T12:49:57Z</time>
      </trkpt>
      <trkpt lat="38.39605045" lon="-2.66919552">
        <ele>645.00000</ele>
        <time>2018-10-13T12:50:04Z</time>
      </trkpt>
      <trkpt lat="38.39583026" lon="-2.66892914">
        <ele>646.00000</ele>
        <time>2018-10-13T12:50:08Z</time>
      </trkpt>
      <trkpt lat="38.39564292" lon="-2.66866629">
        <ele>646.00000</ele>
        <time>2018-10-13T12:50:12Z</time>
      </trkpt>
      <trkpt lat="38.39522500" lon="-2.66818257">
        <ele>647.00000</ele>
        <time>2018-10-13T12:50:20Z</time>
      </trkpt>
      <trkpt lat="38.39475855" lon="-2.66781644">
        <ele>646.00000</ele>
        <time>2018-10-13T12:50:27Z</time>
      </trkpt>
      <trkpt lat="38.39455235" lon="-2.66765727">
        <ele>646.00000</ele>
        <time>2018-10-13T12:50:30Z</time>
      </trkpt>
      <trkpt lat="38.39434783" lon="-2.66749810">
        <ele>645.00000</ele>
        <time>2018-10-13T12:50:33Z</time>
      </trkpt>
      <trkpt lat="38.39413912" lon="-2.66734438">
        <ele>644.00000</ele>
        <time>2018-10-13T12:50:36Z</time>
      </trkpt>
      <trkpt lat="38.39406595" lon="-2.66729425">
        <ele>644.00000</ele>
        <time>2018-10-13T12:50:37Z</time>
      </trkpt>
      <trkpt lat="38.39366571" lon="-2.66704372">
        <ele>643.00000</ele>
        <time>2018-10-13T12:50:42Z</time>
      </trkpt>
      <trkpt lat="38.39349439" lon="-2.66694288">
        <ele>642.00000</ele>
        <time>2018-10-13T12:50:44Z</time>
      </trkpt>
      <trkpt lat="38.39323120" lon="-2.66679226">
        <ele>642.00000</ele>
        <time>2018-10-13T12:50:47Z</time>
      </trkpt>
      <trkpt lat="38.39296122" lon="-2.66663242">
        <ele>640.00000</ele>
        <time>2018-10-13T12:50:50Z</time>
      </trkpt>
      <trkpt lat="38.39277648" lon="-2.66652387">
        <ele>639.00000</ele>
        <time>2018-10-13T12:50:52Z</time>
      </trkpt>
      <trkpt lat="38.39249284" lon="-2.66636126">
        <ele>638.00000</ele>
        <time>2018-10-13T12:50:55Z</time>
      </trkpt>
      <trkpt lat="38.39208732" lon="-2.66615389">
        <ele>637.00000</ele>
        <time>2018-10-13T12:50:59Z</time>
      </trkpt>
      <trkpt lat="38.39197785" lon="-2.66610813">
        <ele>636.00000</ele>
        <time>2018-10-13T12:51:00Z</time>
      </trkpt>
      <trkpt lat="38.39164626" lon="-2.66598248">
        <ele>635.00000</ele>
        <time>2018-10-13T12:51:03Z</time>
      </trkpt>
      <trkpt lat="38.39130395" lon="-2.66589179">
        <ele>633.00000</ele>
        <time>2018-10-13T12:51:06Z</time>
      </trkpt>
      <trkpt lat="38.39106506" lon="-2.66587109">
        <ele>632.00000</ele>
        <time>2018-10-13T12:51:08Z</time>
      </trkpt>
      <trkpt lat="38.39082442" lon="-2.66587821">
        <ele>630.00000</ele>
        <time>2018-10-13T12:51:10Z</time>
      </trkpt>
      <trkpt lat="38.39057866" lon="-2.66591191">
        <ele>629.00000</ele>
        <time>2018-10-13T12:51:12Z</time>
      </trkpt>
      <trkpt lat="38.39033458" lon="-2.66595717">
        <ele>627.00000</ele>
        <time>2018-10-13T12:51:14Z</time>
      </trkpt>
      <trkpt lat="38.39009393" lon="-2.66600243">
        <ele>624.00000</ele>
        <time>2018-10-13T12:51:16Z</time>
      </trkpt>
      <trkpt lat="38.38997600" lon="-2.66602582">
        <ele>623.00000</ele>
        <time>2018-10-13T12:51:17Z</time>
      </trkpt>
      <trkpt lat="38.38974307" lon="-2.66607158">
        <ele>622.00000</ele>
        <time>2018-10-13T12:51:19Z</time>
      </trkpt>
      <trkpt lat="38.38939748" lon="-2.66613143">
        <ele>621.00000</ele>
        <time>2018-10-13T12:51:22Z</time>
      </trkpt>
      <trkpt lat="38.38928491" lon="-2.66615138">
        <ele>621.00000</ele>
        <time>2018-10-13T12:51:23Z</time>
      </trkpt>
      <trkpt lat="38.38917402" lon="-2.66617108">
        <ele>620.00000</ele>
        <time>2018-10-13T12:51:24Z</time>
      </trkpt>
      <trkpt lat="38.38884830" lon="-2.66623419">
        <ele>619.00000</ele>
        <time>2018-10-13T12:51:27Z</time>
      </trkpt>
      <trkpt lat="38.38833122" lon="-2.66632396">
        <ele>618.00000</ele>
        <time>2018-10-13T12:51:32Z</time>
      </trkpt>
      <trkpt lat="38.38813508" lon="-2.66635824">
        <ele>616.00000</ele>
        <time>2018-10-13T12:51:34Z</time>
      </trkpt>
      <trkpt lat="38.38784817" lon="-2.66641147">
        <ele>616.00000</ele>
        <time>2018-10-13T12:51:37Z</time>
      </trkpt>
      <trkpt lat="38.38757165" lon="-2.66646075">
        <ele>615.00000</ele>
        <time>2018-10-13T12:51:40Z</time>
      </trkpt>
      <trkpt lat="38.38703898" lon="-2.66654700">
        <ele>614.00000</ele>
        <time>2018-10-13T12:51:46Z</time>
      </trkpt>
      <trkpt lat="38.38678149" lon="-2.66653569">
        <ele>614.00000</ele>
        <time>2018-10-13T12:51:49Z</time>
      </trkpt>
      <trkpt lat="38.38661218" lon="-2.66649629">
        <ele>614.00000</ele>
        <time>2018-10-13T12:51:51Z</time>
      </trkpt>
      <trkpt lat="38.38644471" lon="-2.66644198">
        <ele>613.00000</ele>
        <time>2018-10-13T12:51:53Z</time>
      </trkpt>
      <trkpt lat="38.38627916" lon="-2.66638020">
        <ele>613.00000</ele>
        <time>2018-10-13T12:51:55Z</time>
      </trkpt>
      <trkpt lat="38.38587926" lon="-2.66622380">
        <ele>613.00000</ele>
        <time>2018-10-13T12:52:00Z</time>
      </trkpt>
      <trkpt lat="38.38572009" lon="-2.66617963">
        <ele>612.00000</ele>
        <time>2018-10-13T12:52:02Z</time>
      </trkpt>
      <trkpt lat="38.38514266" lon="-2.66606379">
        <ele>612.00000</ele>
        <time>2018-10-13T12:52:09Z</time>
      </trkpt>
      <trkpt lat="38.38505440" lon="-2.66605163">
        <ele>612.00000</ele>
        <time>2018-10-13T12:52:10Z</time>
      </trkpt>
      <trkpt lat="38.38459591" lon="-2.66602498">
        <ele>611.00000</ele>
        <time>2018-10-13T12:52:15Z</time>
      </trkpt>
      <trkpt lat="38.38420724" lon="-2.66608851">
        <ele>610.00000</ele>
        <time>2018-10-13T12:52:19Z</time>
      </trkpt>
      <trkpt lat="38.38391966" lon="-2.66603370">
        <ele>608.00000</ele>
        <time>2018-10-13T12:52:22Z</time>
      </trkpt>
      <trkpt lat="38.38369016" lon="-2.66583555">
        <ele>607.00000</ele>
        <time>2018-10-13T12:52:25Z</time>
      </trkpt>
      <trkpt lat="38.38362495" lon="-2.66575508">
        <ele>607.00000</ele>
        <time>2018-10-13T12:52:26Z</time>
      </trkpt>
      <trkpt lat="38.38356259" lon="-2.66567244">
        <ele>606.00000</ele>
        <time>2018-10-13T12:52:27Z</time>
      </trkpt>
      <trkpt lat="38.38339093" lon="-2.66542660">
        <ele>605.00000</ele>
        <time>2018-10-13T12:52:30Z</time>
      </trkpt>
      <trkpt lat="38.38301508" lon="-2.66489619">
        <ele>604.00000</ele>
        <time>2018-10-13T12:52:38Z</time>
      </trkpt>
      <trkpt lat="38.38298013" lon="-2.66485847">
        <ele>604.00000</ele>
        <time>2018-10-13T12:52:40Z</time>
      </trkpt>
      <trkpt lat="38.38297720" lon="-2.66485294">
        <ele>604.00000</ele>
        <time>2018-10-13T12:52:42Z</time>
      </trkpt>
      <trkpt lat="38.38297007" lon="-2.66482352">
        <ele>607.00000</ele>
        <time>2018-10-13T12:52:55Z</time>
      </trkpt>
      <trkpt lat="38.38295976" lon="-2.66478722">
        <ele>607.00000</ele>
        <time>2018-10-13T12:52:57Z</time>
      </trkpt>
      <trkpt lat="38.38294694" lon="-2.66469620">
        <ele>607.00000</ele>
        <time>2018-10-13T12:53:02Z</time>
      </trkpt>
      <trkpt lat="38.38290327" lon="-2.66463325">
        <ele>607.00000</ele>
        <time>2018-10-13T12:53:05Z</time>
      </trkpt>
      <trkpt lat="38.38280897" lon="-2.66452311">
        <ele>607.00000</ele>
        <time>2018-10-13T12:53:09Z</time>
      </trkpt>
      <trkpt lat="38.38254922" lon="-2.66418054">
        <ele>606.00000</ele>
        <time>2018-10-13T12:53:17Z</time>
      </trkpt>
      <trkpt lat="38.38213381" lon="-2.66365567">
        <ele>606.00000</ele>
        <time>2018-10-13T12:53:29Z</time>
      </trkpt>
      <trkpt lat="38.38199995" lon="-2.66347579">
        <ele>606.00000</ele>
        <time>2018-10-13T12:53:33Z</time>
      </trkpt>
      <trkpt lat="38.38196877" lon="-2.66315259">
        <ele>606.00000</ele>
        <time>2018-10-13T12:53:40Z</time>
      </trkpt>
      <trkpt lat="38.38200741" lon="-2.66300062">
        <ele>607.00000</ele>
        <time>2018-10-13T12:53:44Z</time>
      </trkpt>
      <trkpt lat="38.38204161" lon="-2.66285888">
        <ele>609.00000</ele>
        <time>2018-10-13T12:53:48Z</time>
      </trkpt>
      <trkpt lat="38.38207128" lon="-2.66275444">
        <ele>610.00000</ele>
        <time>2018-10-13T12:53:51Z</time>
      </trkpt>
      <trkpt lat="38.38212710" lon="-2.66254565">
        <ele>611.00000</ele>
        <time>2018-10-13T12:53:57Z</time>
      </trkpt>
      <trkpt lat="38.38213121" lon="-2.66235438">
        <ele>612.00000</ele>
        <time>2018-10-13T12:54:02Z</time>
      </trkpt>
      <trkpt lat="38.38212023" lon="-2.66216210">
        <ele>613.00000</ele>
        <time>2018-10-13T12:54:07Z</time>
      </trkpt>
      <trkpt lat="38.38211880" lon="-2.66192573">
        <ele>614.00000</ele>
        <time>2018-10-13T12:54:13Z</time>
      </trkpt>
      <trkpt lat="38.38230505" lon="-2.66125123">
        <ele>615.00000</ele>
        <time>2018-10-13T12:54:29Z</time>
      </trkpt>
      <trkpt lat="38.38231796" lon="-2.66120840">
        <ele>616.00000</ele>
        <time>2018-10-13T12:54:30Z</time>
      </trkpt>
      <trkpt lat="38.38237462" lon="-2.66098737">
        <ele>616.00000</ele>
        <time>2018-10-13T12:54:35Z</time>
      </trkpt>
      <trkpt lat="38.38238568" lon="-2.66061237">
        <ele>616.00000</ele>
        <time>2018-10-13T12:54:43Z</time>
      </trkpt>
      <trkpt lat="38.38235040" lon="-2.66038832">
        <ele>617.00000</ele>
        <time>2018-10-13T12:54:48Z</time>
      </trkpt>
      <trkpt lat="38.38231226" lon="-2.65985766">
        <ele>618.00000</ele>
        <time>2018-10-13T12:55:00Z</time>
      </trkpt>
      <trkpt lat="38.38226985" lon="-2.65965951">
        <ele>619.00000</ele>
        <time>2018-10-13T12:55:05Z</time>
      </trkpt>
      <trkpt lat="38.38218360" lon="-2.65958885">
        <ele>620.00000</ele>
        <time>2018-10-13T12:55:08Z</time>
      </trkpt>
      <trkpt lat="38.38215040" lon="-2.65957661">
        <ele>620.00000</ele>
        <time>2018-10-13T12:55:09Z</time>
      </trkpt>
      <trkpt lat="38.38208033" lon="-2.65957988">
        <ele>620.00000</ele>
        <time>2018-10-13T12:55:11Z</time>
      </trkpt>
      <trkpt lat="38.38192996" lon="-2.65968876">
        <ele>622.00000</ele>
        <time>2018-10-13T12:55:16Z</time>
      </trkpt>
      <trkpt lat="38.38181605" lon="-2.65984492">
        <ele>623.00000</ele>
        <time>2018-10-13T12:55:21Z</time>
      </trkpt>
      <trkpt lat="38.38172838" lon="-2.66000753">
        <ele>624.00000</ele>
        <time>2018-10-13T12:55:26Z</time>
      </trkpt>
      <trkpt lat="38.38165612" lon="-2.66016972">
        <ele>625.00000</ele>
        <time>2018-10-13T12:55:31Z</time>
      </trkpt>
      <trkpt lat="38.38157189" lon="-2.66031523">
        <ele>626.00000</ele>
        <time>2018-10-13T12:55:36Z</time>
      </trkpt>
      <trkpt lat="38.38144356" lon="-2.66043802">
        <ele>627.00000</ele>
        <time>2018-10-13T12:55:42Z</time>
      </trkpt>
      <trkpt lat="38.38125748" lon="-2.66048002">
        <ele>629.00000</ele>
        <time>2018-10-13T12:55:49Z</time>
      </trkpt>
      <trkpt lat="38.38114684" lon="-2.66044531">
        <ele>630.00000</ele>
        <time>2018-10-13T12:55:53Z</time>
      </trkpt>
      <trkpt lat="38.38092438" lon="-2.66031682">
        <ele>631.00000</ele>
        <time>2018-10-13T12:56:02Z</time>
      </trkpt>
      <trkpt lat="38.38074174" lon="-2.66017458">
        <ele>632.00000</ele>
        <time>2018-10-13T12:56:10Z</time>
      </trkpt>
      <trkpt lat="38.38057746" lon="-2.66006100">
        <ele>633.00000</ele>
        <time>2018-10-13T12:56:17Z</time>
      </trkpt>
      <trkpt lat="38.38040948" lon="-2.65994491">
        <ele>635.00000</ele>
        <time>2018-10-13T12:56:24Z</time>
      </trkpt>
      <trkpt lat="38.38019658" lon="-2.65979086">
        <ele>636.00000</ele>
        <time>2018-10-13T12:56:33Z</time>
      </trkpt>
      <trkpt lat="38.37999617" lon="-2.65964275">
        <ele>637.00000</ele>
        <time>2018-10-13T12:56:41Z</time>
      </trkpt>
      <trkpt lat="38.37987371" lon="-2.65955985">
        <ele>638.00000</ele>
        <time>2018-10-13T12:56:45Z</time>
      </trkpt>
      <trkpt lat="38.37984153" lon="-2.65953554">
        <ele>638.00000</ele>
        <time>2018-10-13T12:56:46Z</time>
      </trkpt>
      <trkpt lat="38.37967573" lon="-2.65940386">
        <ele>639.00000</ele>
        <time>2018-10-13T12:56:52Z</time>
      </trkpt>
      <trkpt lat="38.37953827" lon="-2.65924662">
        <ele>640.00000</ele>
        <time>2018-10-13T12:56:58Z</time>
      </trkpt>
      <trkpt lat="38.37951941" lon="-2.65904378">
        <ele>641.00000</ele>
        <time>2018-10-13T12:57:03Z</time>
      </trkpt>
      <trkpt lat="38.37964128" lon="-2.65888075">
        <ele>642.00000</ele>
        <time>2018-10-13T12:57:08Z</time>
      </trkpt>
      <trkpt lat="38.37966626" lon="-2.65886231">
        <ele>643.00000</ele>
        <time>2018-10-13T12:57:09Z</time>
      </trkpt>
      <trkpt lat="38.37973298" lon="-2.65880975">
        <ele>644.00000</ele>
        <time>2018-10-13T12:57:12Z</time>
      </trkpt>
      <trkpt lat="38.37979886" lon="-2.65876466">
        <ele>645.00000</ele>
        <time>2018-10-13T12:57:15Z</time>
      </trkpt>
      <trkpt lat="38.37984496" lon="-2.65873884">
        <ele>646.00000</ele>
        <time>2018-10-13T12:57:17Z</time>
      </trkpt>
      <trkpt lat="38.37992962" lon="-2.65866550">
        <ele>647.00000</ele>
        <time>2018-10-13T12:57:21Z</time>
      </trkpt>
      <trkpt lat="38.38004479" lon="-2.65858604">
        <ele>649.00000</ele>
        <time>2018-10-13T12:57:26Z</time>
      </trkpt>
      <trkpt lat="38.38020916" lon="-2.65843215">
        <ele>650.00000</ele>
        <time>2018-10-13T12:57:34Z</time>
      </trkpt>
      <trkpt lat="38.38029222" lon="-2.65831061">
        <ele>651.00000</ele>
        <time>2018-10-13T12:57:39Z</time>
      </trkpt>
      <trkpt lat="38.38040269" lon="-2.65817181">
        <ele>652.00000</ele>
        <time>2018-10-13T12:57:45Z</time>
      </trkpt>
      <trkpt lat="38.38052683" lon="-2.65805614">
        <ele>653.00000</ele>
        <time>2018-10-13T12:57:51Z</time>
      </trkpt>
      <trkpt lat="38.38066765" lon="-2.65791423">
        <ele>654.00000</ele>
        <time>2018-10-13T12:57:58Z</time>
      </trkpt>
      <trkpt lat="38.38074627" lon="-2.65774835">
        <ele>656.00000</ele>
        <time>2018-10-13T12:58:04Z</time>
      </trkpt>
      <trkpt lat="38.38085171" lon="-2.65751844">
        <ele>657.00000</ele>
        <time>2018-10-13T12:58:12Z</time>
      </trkpt>
      <trkpt lat="38.38094308" lon="-2.65735642">
        <ele>658.00000</ele>
        <time>2018-10-13T12:58:18Z</time>
      </trkpt>
      <trkpt lat="38.38101214" lon="-2.65714243">
        <ele>659.00000</ele>
        <time>2018-10-13T12:58:25Z</time>
      </trkpt>
      <trkpt lat="38.38104601" lon="-2.65694964">
        <ele>660.00000</ele>
        <time>2018-10-13T12:58:31Z</time>
      </trkpt>
      <trkpt lat="38.38105933" lon="-2.65678360">
        <ele>661.00000</ele>
        <time>2018-10-13T12:58:36Z</time>
      </trkpt>
      <trkpt lat="38.38107744" lon="-2.65652359">
        <ele>662.00000</ele>
        <time>2018-10-13T12:58:44Z</time>
      </trkpt>
      <trkpt lat="38.38107861" lon="-2.65629007">
        <ele>663.00000</ele>
        <time>2018-10-13T12:58:51Z</time>
      </trkpt>
      <trkpt lat="38.38108339" lon="-2.65606879">
        <ele>665.00000</ele>
        <time>2018-10-13T12:58:58Z</time>
      </trkpt>
      <trkpt lat="38.38107341" lon="-2.65583041">
        <ele>666.00000</ele>
        <time>2018-10-13T12:59:05Z</time>
      </trkpt>
      <trkpt lat="38.38101080" lon="-2.65556612">
        <ele>667.00000</ele>
        <time>2018-10-13T12:59:13Z</time>
      </trkpt>
      <trkpt lat="38.38094593" lon="-2.65541517">
        <ele>668.00000</ele>
        <time>2018-10-13T12:59:18Z</time>
      </trkpt>
      <trkpt lat="38.38090578" lon="-2.65522448">
        <ele>669.00000</ele>
        <time>2018-10-13T12:59:24Z</time>
      </trkpt>
      <trkpt lat="38.38085833" lon="-2.65501962">
        <ele>670.00000</ele>
        <time>2018-10-13T12:59:30Z</time>
      </trkpt>
      <trkpt lat="38.38085138" lon="-2.65498425">
        <ele>670.00000</ele>
        <time>2018-10-13T12:59:31Z</time>
      </trkpt>
      <trkpt lat="38.38080829" lon="-2.65485341">
        <ele>671.00000</ele>
        <time>2018-10-13T12:59:35Z</time>
      </trkpt>
      <trkpt lat="38.38075591" lon="-2.65471645">
        <ele>672.00000</ele>
        <time>2018-10-13T12:59:40Z</time>
      </trkpt>
      <trkpt lat="38.38074141" lon="-2.65469290">
        <ele>673.00000</ele>
        <time>2018-10-13T12:59:41Z</time>
      </trkpt>
      <trkpt lat="38.38060235" lon="-2.65458418">
        <ele>674.00000</ele>
        <time>2018-10-13T12:59:46Z</time>
      </trkpt>
      <trkpt lat="38.38036623" lon="-2.65446860">
        <ele>675.00000</ele>
        <time>2018-10-13T12:59:53Z</time>
      </trkpt>
      <trkpt lat="38.38014931" lon="-2.65421262">
        <ele>676.00000</ele>
        <time>2018-10-13T13:00:01Z</time>
      </trkpt>
      <trkpt lat="38.38011377" lon="-2.65386125">
        <ele>676.00000</ele>
        <time>2018-10-13T13:00:10Z</time>
      </trkpt>
      <trkpt lat="38.38015803" lon="-2.65368891">
        <ele>677.00000</ele>
        <time>2018-10-13T13:00:15Z</time>
      </trkpt>
      <trkpt lat="38.38022751" lon="-2.65344592">
        <ele>679.00000</ele>
        <time>2018-10-13T13:00:22Z</time>
      </trkpt>
      <trkpt lat="38.38024729" lon="-2.65327678">
        <ele>680.00000</ele>
        <time>2018-10-13T13:00:27Z</time>
      </trkpt>
      <trkpt lat="38.38027219" lon="-2.65314317">
        <ele>681.00000</ele>
        <time>2018-10-13T13:00:31Z</time>
      </trkpt>
      <trkpt lat="38.38027797" lon="-2.65300688">
        <ele>682.00000</ele>
        <time>2018-10-13T13:00:35Z</time>
      </trkpt>
      <trkpt lat="38.38024352" lon="-2.65283773">
        <ele>683.00000</ele>
        <time>2018-10-13T13:00:40Z</time>
      </trkpt>
      <trkpt lat="38.38018954" lon="-2.65272189">
        <ele>684.00000</ele>
        <time>2018-10-13T13:00:44Z</time>
      </trkpt>
      <trkpt lat="38.38009885" lon="-2.65261486">
        <ele>685.00000</ele>
        <time>2018-10-13T13:00:49Z</time>
      </trkpt>
      <trkpt lat="38.38003682" lon="-2.65248812">
        <ele>686.00000</ele>
        <time>2018-10-13T13:00:54Z</time>
      </trkpt>
      <trkpt lat="38.38001486" lon="-2.65231512">
        <ele>687.00000</ele>
        <time>2018-10-13T13:01:00Z</time>
      </trkpt>
      <trkpt lat="38.37998947" lon="-2.65214103">
        <ele>689.00000</ele>
        <time>2018-10-13T13:01:06Z</time>
      </trkpt>
      <trkpt lat="38.37998134" lon="-2.65200113">
        <ele>690.00000</ele>
        <time>2018-10-13T13:01:11Z</time>
      </trkpt>
      <trkpt lat="38.37997371" lon="-2.65183584">
        <ele>691.00000</ele>
        <time>2018-10-13T13:01:17Z</time>
      </trkpt>
      <trkpt lat="38.37996206" lon="-2.65169419">
        <ele>692.00000</ele>
        <time>2018-10-13T13:01:22Z</time>
      </trkpt>
      <trkpt lat="38.37994177" lon="-2.65146528">
        <ele>693.00000</ele>
        <time>2018-10-13T13:01:30Z</time>
      </trkpt>
      <trkpt lat="38.37991495" lon="-2.65121290">
        <ele>694.00000</ele>
        <time>2018-10-13T13:01:39Z</time>
      </trkpt>
      <trkpt lat="38.37987723" lon="-2.65104308">
        <ele>695.00000</ele>
        <time>2018-10-13T13:01:45Z</time>
      </trkpt>
      <trkpt lat="38.37977514" lon="-2.65088609">
        <ele>697.00000</ele>
        <time>2018-10-13T13:01:52Z</time>
      </trkpt>
      <trkpt lat="38.37969233" lon="-2.65079682">
        <ele>698.00000</ele>
        <time>2018-10-13T13:01:57Z</time>
      </trkpt>
      <trkpt lat="38.37958102" lon="-2.65068953">
        <ele>699.00000</ele>
        <time>2018-10-13T13:02:03Z</time>
      </trkpt>
      <trkpt lat="38.37940994" lon="-2.65058107">
        <ele>700.00000</ele>
        <time>2018-10-13T13:02:12Z</time>
      </trkpt>
      <trkpt lat="38.37938563" lon="-2.65061527">
        <ele>700.00000</ele>
        <time>2018-10-13T13:02:14Z</time>
      </trkpt>
      <trkpt lat="38.37940768" lon="-2.65070621">
        <ele>701.00000</ele>
        <time>2018-10-13T13:02:18Z</time>
      </trkpt>
      <trkpt lat="38.37944355" lon="-2.65072826">
        <ele>701.00000</ele>
        <time>2018-10-13T13:02:20Z</time>
      </trkpt>
      <trkpt lat="38.37948094" lon="-2.65073781">
        <ele>701.00000</ele>
        <time>2018-10-13T13:02:22Z</time>
      </trkpt>
      <trkpt lat="38.37953123" lon="-2.65076983">
        <ele>702.00000</ele>
        <time>2018-10-13T13:02:27Z</time>
      </trkpt>
      <trkpt lat="38.37956031" lon="-2.65080722">
        <ele>703.00000</ele>
        <time>2018-10-13T13:03:01Z</time>
      </trkpt>
      <trkpt lat="38.37957657" lon="-2.65082381">
        <ele>703.00000</ele>
        <time>2018-10-13T13:03:02Z</time>
      </trkpt>
      <trkpt lat="38.37967372" lon="-2.65096161">
        <ele>703.00000</ele>
        <time>2018-10-13T13:03:07Z</time>
      </trkpt>
      <trkpt lat="38.37965947" lon="-2.65164658">
        <ele>703.00000</ele>
        <time>2018-10-13T13:03:22Z</time>
      </trkpt>
      <trkpt lat="38.37959443" lon="-2.65191128">
        <ele>704.00000</ele>
        <time>2018-10-13T13:03:28Z</time>
      </trkpt>
      <trkpt lat="38.37955470" lon="-2.65213617">
        <ele>705.00000</ele>
        <time>2018-10-13T13:03:33Z</time>
      </trkpt>
      <trkpt lat="38.37955520" lon="-2.65237203">
        <ele>705.00000</ele>
        <time>2018-10-13T13:03:38Z</time>
      </trkpt>
      <trkpt lat="38.37957330" lon="-2.65277160">
        <ele>706.00000</ele>
        <time>2018-10-13T13:03:47Z</time>
      </trkpt>
      <trkpt lat="38.37954564" lon="-2.65310964">
        <ele>707.00000</ele>
        <time>2018-10-13T13:03:55Z</time>
      </trkpt>
      <trkpt lat="38.37944397" lon="-2.65359722">
        <ele>708.00000</ele>
        <time>2018-10-13T13:04:06Z</time>
      </trkpt>
      <trkpt lat="38.37928857" lon="-2.65415134">
        <ele>709.00000</ele>
        <time>2018-10-13T13:04:19Z</time>
      </trkpt>
      <trkpt lat="38.37915203" lon="-2.65441428">
        <ele>710.00000</ele>
        <time>2018-10-13T13:04:26Z</time>
      </trkpt>
      <trkpt lat="38.37895112" lon="-2.65470564">
        <ele>711.00000</ele>
        <time>2018-10-13T13:04:35Z</time>
      </trkpt>
      <trkpt lat="38.37875037" lon="-2.65491259">
        <ele>713.00000</ele>
        <time>2018-10-13T13:04:42Z</time>
      </trkpt>
      <trkpt lat="38.37824746" lon="-2.65523563">
        <ele>714.00000</ele>
        <time>2018-10-13T13:04:56Z</time>
      </trkpt>
      <trkpt lat="38.37821007" lon="-2.65526002">
        <ele>714.00000</ele>
        <time>2018-10-13T13:04:57Z</time>
      </trkpt>
      <trkpt lat="38.37770875" lon="-2.65555179">
        <ele>714.00000</ele>
        <time>2018-10-13T13:05:10Z</time>
      </trkpt>
      <trkpt lat="38.37740239" lon="-2.65566151">
        <ele>715.00000</ele>
        <time>2018-10-13T13:05:18Z</time>
      </trkpt>
      <trkpt lat="38.37713073" lon="-2.65565003">
        <ele>716.00000</ele>
        <time>2018-10-13T13:05:25Z</time>
      </trkpt>
      <trkpt lat="38.37689696" lon="-2.65562287">
        <ele>717.00000</ele>
        <time>2018-10-13T13:05:31Z</time>
      </trkpt>
      <trkpt lat="38.37681289" lon="-2.65560619">
        <ele>717.00000</ele>
        <time>2018-10-13T13:05:33Z</time>
      </trkpt>
      <trkpt lat="38.37676981" lon="-2.65560418">
        <ele>717.00000</ele>
        <time>2018-10-13T13:05:34Z</time>
      </trkpt>
      <trkpt lat="38.37647569" lon="-2.65574877">
        <ele>717.00000</ele>
        <time>2018-10-13T13:05:41Z</time>
      </trkpt>
      <trkpt lat="38.37614494" lon="-2.65602646">
        <ele>717.00000</ele>
        <time>2018-10-13T13:05:50Z</time>
      </trkpt>
      <trkpt lat="38.37599708" lon="-2.65615470">
        <ele>718.00000</ele>
        <time>2018-10-13T13:05:54Z</time>
      </trkpt>
      <trkpt lat="38.37586859" lon="-2.65624699">
        <ele>718.00000</ele>
        <time>2018-10-13T13:05:57Z</time>
      </trkpt>
      <trkpt lat="38.37563063" lon="-2.65639367">
        <ele>718.00000</ele>
        <time>2018-10-13T13:06:02Z</time>
      </trkpt>
      <trkpt lat="38.37522855" lon="-2.65663113">
        <ele>716.00000</ele>
        <time>2018-10-13T13:06:09Z</time>
      </trkpt>
      <trkpt lat="38.37495169" lon="-2.65679349">
        <ele>715.00000</ele>
        <time>2018-10-13T13:06:13Z</time>
      </trkpt>
      <trkpt lat="38.37463167" lon="-2.65697898">
        <ele>714.00000</ele>
        <time>2018-10-13T13:06:18Z</time>
      </trkpt>
      <trkpt lat="38.37447602" lon="-2.65707487">
        <ele>714.00000</ele>
        <time>2018-10-13T13:06:21Z</time>
      </trkpt>
      <trkpt lat="38.37435012" lon="-2.65714972">
        <ele>714.00000</ele>
        <time>2018-10-13T13:06:24Z</time>
      </trkpt>
      <trkpt lat="38.37422506" lon="-2.65722918">
        <ele>715.00000</ele>
        <time>2018-10-13T13:06:27Z</time>
      </trkpt>
      <trkpt lat="38.37419103" lon="-2.65724829">
        <ele>716.00000</ele>
        <time>2018-10-13T13:06:28Z</time>
      </trkpt>
      <trkpt lat="38.37412348" lon="-2.65727964">
        <ele>717.00000</ele>
        <time>2018-10-13T13:06:30Z</time>
      </trkpt>
      <trkpt lat="38.37399976" lon="-2.65733085">
        <ele>718.00000</ele>
        <time>2018-10-13T13:06:33Z</time>
      </trkpt>
      <trkpt lat="38.37384620" lon="-2.65733110">
        <ele>719.00000</ele>
        <time>2018-10-13T13:06:36Z</time>
      </trkpt>
      <trkpt lat="38.37379289" lon="-2.65731669">
        <ele>719.00000</ele>
        <time>2018-10-13T13:06:37Z</time>
      </trkpt>
      <trkpt lat="38.37356708" lon="-2.65715994">
        <ele>720.00000</ele>
        <time>2018-10-13T13:06:42Z</time>
      </trkpt>
      <trkpt lat="38.37326366" lon="-2.65679089">
        <ele>720.00000</ele>
        <time>2018-10-13T13:06:50Z</time>
      </trkpt>
      <trkpt lat="38.37315905" lon="-2.65663775">
        <ele>720.00000</ele>
        <time>2018-10-13T13:06:53Z</time>
      </trkpt>
      <trkpt lat="38.37300650" lon="-2.65639627">
        <ele>719.00000</ele>
        <time>2018-10-13T13:06:57Z</time>
      </trkpt>
      <trkpt lat="38.37296920" lon="-2.65600902">
        <ele>718.00000</ele>
        <time>2018-10-13T13:07:02Z</time>
      </trkpt>
      <trkpt lat="38.37296300" lon="-2.65576947">
        <ele>717.00000</ele>
        <time>2018-10-13T13:07:05Z</time>
      </trkpt>
      <trkpt lat="38.37294791" lon="-2.65569336">
        <ele>717.00000</ele>
        <time>2018-10-13T13:07:06Z</time>
      </trkpt>
      <trkpt lat="38.37260970" lon="-2.65567517">
        <ele>716.00000</ele>
        <time>2018-10-13T13:07:14Z</time>
      </trkpt>
      <trkpt lat="38.37252991" lon="-2.65579185">
        <ele>716.00000</ele>
        <time>2018-10-13T13:07:17Z</time>
      </trkpt>
      <trkpt lat="38.37239689" lon="-2.65597525">
        <ele>717.00000</ele>
        <time>2018-10-13T13:07:22Z</time>
      </trkpt>
      <trkpt lat="38.37227183" lon="-2.65607700">
        <ele>718.00000</ele>
        <time>2018-10-13T13:07:26Z</time>
      </trkpt>
      <trkpt lat="38.37211098" lon="-2.65621824">
        <ele>719.00000</ele>
        <time>2018-10-13T13:07:31Z</time>
      </trkpt>
      <trkpt lat="38.37203118" lon="-2.65638336">
        <ele>720.00000</ele>
        <time>2018-10-13T13:07:35Z</time>
      </trkpt>
      <trkpt lat="38.37195281" lon="-2.65664513">
        <ele>721.00000</ele>
        <time>2018-10-13T13:07:41Z</time>
      </trkpt>
      <trkpt lat="38.37191292" lon="-2.65672735">
        <ele>721.00000</ele>
        <time>2018-10-13T13:07:43Z</time>
      </trkpt>
      <trkpt lat="38.37181057" lon="-2.65687488">
        <ele>722.00000</ele>
        <time>2018-10-13T13:07:47Z</time>
      </trkpt>
      <trkpt lat="38.37168392" lon="-2.65698635">
        <ele>723.00000</ele>
        <time>2018-10-13T13:07:51Z</time>
      </trkpt>
      <trkpt lat="38.37154721" lon="-2.65709850">
        <ele>723.00000</ele>
        <time>2018-10-13T13:07:55Z</time>
      </trkpt>
      <trkpt lat="38.37147898" lon="-2.65715491">
        <ele>724.00000</ele>
        <time>2018-10-13T13:07:57Z</time>
      </trkpt>
      <trkpt lat="38.37121370" lon="-2.65737595">
        <ele>725.00000</ele>
        <time>2018-10-13T13:08:05Z</time>
      </trkpt>
      <trkpt lat="38.37101287" lon="-2.65752028">
        <ele>726.00000</ele>
        <time>2018-10-13T13:08:11Z</time>
      </trkpt>
      <trkpt lat="38.37068824" lon="-2.65756890">
        <ele>727.00000</ele>
        <time>2018-10-13T13:08:20Z</time>
      </trkpt>
      <trkpt lat="38.37046905" lon="-2.65758750">
        <ele>729.00000</ele>
        <time>2018-10-13T13:08:26Z</time>
      </trkpt>
      <trkpt lat="38.37032086" lon="-2.65759706">
        <ele>730.00000</ele>
        <time>2018-10-13T13:08:30Z</time>
      </trkpt>
      <trkpt lat="38.36992456" lon="-2.65775095">
        <ele>731.00000</ele>
        <time>2018-10-13T13:08:42Z</time>
      </trkpt>
      <trkpt lat="38.36969657" lon="-2.65779839">
        <ele>732.00000</ele>
        <time>2018-10-13T13:08:49Z</time>
      </trkpt>
      <trkpt lat="38.36948099" lon="-2.65775799">
        <ele>733.00000</ele>
        <time>2018-10-13T13:08:55Z</time>
      </trkpt>
      <trkpt lat="38.36897741" lon="-2.65750402">
        <ele>734.00000</ele>
        <time>2018-10-13T13:09:09Z</time>
      </trkpt>
      <trkpt lat="38.36894480" lon="-2.65748164">
        <ele>734.00000</ele>
        <time>2018-10-13T13:09:10Z</time>
      </trkpt>
      <trkpt lat="38.36873743" lon="-2.65728743">
        <ele>735.00000</ele>
        <time>2018-10-13T13:09:17Z</time>
      </trkpt>
      <trkpt lat="38.36855856" lon="-2.65702558">
        <ele>737.00000</ele>
        <time>2018-10-13T13:09:24Z</time>
      </trkpt>
      <trkpt lat="38.36819236" lon="-2.65662476">
        <ele>738.00000</ele>
        <time>2018-10-13T13:09:37Z</time>
      </trkpt>
      <trkpt lat="38.36787301" lon="-2.65650775">
        <ele>739.00000</ele>
        <time>2018-10-13T13:09:46Z</time>
      </trkpt>
      <trkpt lat="38.36763756" lon="-2.65642636">
        <ele>740.00000</ele>
        <time>2018-10-13T13:09:53Z</time>
      </trkpt>
      <trkpt lat="38.36742759" lon="-2.65637297">
        <ele>741.00000</ele>
        <time>2018-10-13T13:09:59Z</time>
      </trkpt>
      <trkpt lat="38.36715183" lon="-2.65638235">
        <ele>742.00000</ele>
        <time>2018-10-13T13:10:07Z</time>
      </trkpt>
      <trkpt lat="38.36680314" lon="-2.65645243">
        <ele>743.00000</ele>
        <time>2018-10-13T13:10:17Z</time>
      </trkpt>
      <trkpt lat="38.36661262" lon="-2.65657857">
        <ele>744.00000</ele>
        <time>2018-10-13T13:10:23Z</time>
      </trkpt>
      <trkpt lat="38.36644657" lon="-2.65675979">
        <ele>745.00000</ele>
        <time>2018-10-13T13:10:30Z</time>
      </trkpt>
      <trkpt lat="38.36633761" lon="-2.65689675">
        <ele>747.00000</ele>
        <time>2018-10-13T13:10:35Z</time>
      </trkpt>
      <trkpt lat="38.36613611" lon="-2.65712181">
        <ele>748.00000</ele>
        <time>2018-10-13T13:10:44Z</time>
      </trkpt>
      <trkpt lat="38.36592748" lon="-2.65736505">
        <ele>749.00000</ele>
        <time>2018-10-13T13:10:53Z</time>
      </trkpt>
      <trkpt lat="38.36570268" lon="-2.65763226">
        <ele>750.00000</ele>
        <time>2018-10-13T13:11:03Z</time>
      </trkpt>
      <trkpt lat="38.36558173" lon="-2.65780661">
        <ele>751.00000</ele>
        <time>2018-10-13T13:11:09Z</time>
      </trkpt>
      <trkpt lat="38.36548341" lon="-2.65798682">
        <ele>752.00000</ele>
        <time>2018-10-13T13:11:15Z</time>
      </trkpt>
      <trkpt lat="38.36538995" lon="-2.65816661">
        <ele>753.00000</ele>
        <time>2018-10-13T13:11:21Z</time>
      </trkpt>
      <trkpt lat="38.36526732" lon="-2.65837381">
        <ele>754.00000</ele>
        <time>2018-10-13T13:11:29Z</time>
      </trkpt>
      <trkpt lat="38.36517328" lon="-2.65851706">
        <ele>755.00000</ele>
        <time>2018-10-13T13:11:35Z</time>
      </trkpt>
      <trkpt lat="38.36502567" lon="-2.65869333">
        <ele>756.00000</ele>
        <time>2018-10-13T13:11:42Z</time>
      </trkpt>
      <trkpt lat="38.36484597" lon="-2.65889860">
        <ele>758.00000</ele>
        <time>2018-10-13T13:11:50Z</time>
      </trkpt>
      <trkpt lat="38.36467397" lon="-2.65911150">
        <ele>759.00000</ele>
        <time>2018-10-13T13:11:58Z</time>
      </trkpt>
      <trkpt lat="38.36450113" lon="-2.65933061">
        <ele>760.00000</ele>
        <time>2018-10-13T13:12:06Z</time>
      </trkpt>
      <trkpt lat="38.36437356" lon="-2.65966999">
        <ele>761.00000</ele>
        <time>2018-10-13T13:12:16Z</time>
      </trkpt>
      <trkpt lat="38.36427139" lon="-2.65987853">
        <ele>762.00000</ele>
        <time>2018-10-13T13:12:23Z</time>
      </trkpt>
      <trkpt lat="38.36415907" lon="-2.65998666">
        <ele>763.00000</ele>
        <time>2018-10-13T13:12:28Z</time>
      </trkpt>
      <trkpt lat="38.36396335" lon="-2.65997861">
        <ele>764.00000</ele>
        <time>2018-10-13T13:12:35Z</time>
      </trkpt>
      <trkpt lat="38.36380217" lon="-2.65989814">
        <ele>765.00000</ele>
        <time>2018-10-13T13:12:41Z</time>
      </trkpt>
      <trkpt lat="38.36365775" lon="-2.65985799">
        <ele>766.00000</ele>
        <time>2018-10-13T13:12:46Z</time>
      </trkpt>
      <trkpt lat="38.36332482" lon="-2.65988339">
        <ele>768.00000</ele>
        <time>2018-10-13T13:12:57Z</time>
      </trkpt>
      <trkpt lat="38.36317369" lon="-2.65985364">
        <ele>769.00000</ele>
        <time>2018-10-13T13:13:02Z</time>
      </trkpt>
      <trkpt lat="38.36314528" lon="-2.65984232">
        <ele>769.00000</ele>
        <time>2018-10-13T13:13:03Z</time>
      </trkpt>
      <trkpt lat="38.36288720" lon="-2.65967653">
        <ele>770.00000</ele>
        <time>2018-10-13T13:13:13Z</time>
      </trkpt>
      <trkpt lat="38.36263624" lon="-2.65958039">
        <ele>771.00000</ele>
        <time>2018-10-13T13:13:22Z</time>
      </trkpt>
      <trkpt lat="38.36241044" lon="-2.65956010">
        <ele>772.00000</ele>
        <time>2018-10-13T13:13:30Z</time>
      </trkpt>
      <trkpt lat="38.36217080" lon="-2.65969715">
        <ele>773.00000</ele>
        <time>2018-10-13T13:13:39Z</time>
      </trkpt>
      <trkpt lat="38.36198430" lon="-2.66031783">
        <ele>774.00000</ele>
        <time>2018-10-13T13:13:55Z</time>
      </trkpt>
      <trkpt lat="38.36199050" lon="-2.66046426">
        <ele>774.00000</ele>
        <time>2018-10-13T13:13:58Z</time>
      </trkpt>
      <trkpt lat="38.36199285" lon="-2.66064832">
        <ele>775.00000</ele>
        <time>2018-10-13T13:14:02Z</time>
      </trkpt>
      <trkpt lat="38.36199411" lon="-2.66085770">
        <ele>775.00000</ele>
        <time>2018-10-13T13:14:07Z</time>
      </trkpt>
      <trkpt lat="38.36199704" lon="-2.66109391">
        <ele>777.00000</ele>
        <time>2018-10-13T13:14:13Z</time>
      </trkpt>
      <trkpt lat="38.36197575" lon="-2.66147092">
        <ele>778.00000</ele>
        <time>2018-10-13T13:14:22Z</time>
      </trkpt>
      <trkpt lat="38.36192303" lon="-2.66169003">
        <ele>778.00000</ele>
        <time>2018-10-13T13:14:27Z</time>
      </trkpt>
      <trkpt lat="38.36186637" lon="-2.66182338">
        <ele>779.00000</ele>
        <time>2018-10-13T13:14:30Z</time>
      </trkpt>
      <trkpt lat="38.36176260" lon="-2.66205154">
        <ele>780.00000</ele>
        <time>2018-10-13T13:14:36Z</time>
      </trkpt>
      <trkpt lat="38.36171633" lon="-2.66211667">
        <ele>780.00000</ele>
        <time>2018-10-13T13:14:38Z</time>
      </trkpt>
      <trkpt lat="38.36151399" lon="-2.66226603">
        <ele>781.00000</ele>
        <time>2018-10-13T13:14:45Z</time>
      </trkpt>
      <trkpt lat="38.36132339" lon="-2.66224717">
        <ele>782.00000</ele>
        <time>2018-10-13T13:14:51Z</time>
      </trkpt>
      <trkpt lat="38.36115944" lon="-2.66212010">
        <ele>783.00000</ele>
        <time>2018-10-13T13:14:57Z</time>
      </trkpt>
      <trkpt lat="38.36090572" lon="-2.66187803">
        <ele>785.00000</ele>
        <time>2018-10-13T13:15:07Z</time>
      </trkpt>
      <trkpt lat="38.36063414" lon="-2.66162674">
        <ele>785.00000</ele>
        <time>2018-10-13T13:15:17Z</time>
      </trkpt>
      <trkpt lat="38.36051554" lon="-2.66152465">
        <ele>786.00000</ele>
        <time>2018-10-13T13:15:21Z</time>
      </trkpt>
      <trkpt lat="38.36014690" lon="-2.66123506">
        <ele>786.00000</ele>
        <time>2018-10-13T13:15:32Z</time>
      </trkpt>
      <trkpt lat="38.35990031" lon="-2.66123891">
        <ele>786.00000</ele>
        <time>2018-10-13T13:15:38Z</time>
      </trkpt>
      <trkpt lat="38.35960040" lon="-2.66129398">
        <ele>787.00000</ele>
        <time>2018-10-13T13:15:46Z</time>
      </trkpt>
      <trkpt lat="38.35932581" lon="-2.66116289">
        <ele>788.00000</ele>
        <time>2018-10-13T13:15:54Z</time>
      </trkpt>
      <trkpt lat="38.35908391" lon="-2.66065905">
        <ele>789.00000</ele>
        <time>2018-10-13T13:16:06Z</time>
      </trkpt>
      <trkpt lat="38.35864931" lon="-2.66035219">
        <ele>790.00000</ele>
        <time>2018-10-13T13:16:21Z</time>
      </trkpt>
      <trkpt lat="38.35845259" lon="-2.66027508">
        <ele>791.00000</ele>
        <time>2018-10-13T13:16:27Z</time>
      </trkpt>
      <trkpt lat="38.35823935" lon="-2.66005614">
        <ele>792.00000</ele>
        <time>2018-10-13T13:16:35Z</time>
      </trkpt>
      <trkpt lat="38.35801078" lon="-2.65979756">
        <ele>793.00000</ele>
        <time>2018-10-13T13:16:44Z</time>
      </trkpt>
      <trkpt lat="38.35774742" lon="-2.65965649">
        <ele>794.00000</ele>
        <time>2018-10-13T13:16:53Z</time>
      </trkpt>
      <trkpt lat="38.35749822" lon="-2.65953060">
        <ele>795.00000</ele>
        <time>2018-10-13T13:17:02Z</time>
      </trkpt>
      <trkpt lat="38.35740217" lon="-2.65941635">
        <ele>797.00000</ele>
        <time>2018-10-13T13:17:06Z</time>
      </trkpt>
      <trkpt lat="38.35719614" lon="-2.65920739">
        <ele>798.00000</ele>
        <time>2018-10-13T13:17:14Z</time>
      </trkpt>
      <trkpt lat="38.35692431" lon="-2.65896029">
        <ele>799.00000</ele>
        <time>2018-10-13T13:17:24Z</time>
      </trkpt>
      <trkpt lat="38.35672860" lon="-2.65872736">
        <ele>800.00000</ele>
        <time>2018-10-13T13:17:32Z</time>
      </trkpt>
      <trkpt lat="38.35650580" lon="-2.65841304">
        <ele>801.00000</ele>
        <time>2018-10-13T13:17:42Z</time>
      </trkpt>
      <trkpt lat="38.35637941" lon="-2.65806812">
        <ele>802.00000</ele>
        <time>2018-10-13T13:17:51Z</time>
      </trkpt>
      <trkpt lat="38.35631294" lon="-2.65785128">
        <ele>802.00000</ele>
        <time>2018-10-13T13:17:56Z</time>
      </trkpt>
      <trkpt lat="38.35605025" lon="-2.65734351">
        <ele>803.00000</ele>
        <time>2018-10-13T13:18:08Z</time>
      </trkpt>
      <trkpt lat="38.35603550" lon="-2.65728978">
        <ele>803.00000</ele>
        <time>2018-10-13T13:18:09Z</time>
      </trkpt>
      <trkpt lat="38.35590952" lon="-2.65661495">
        <ele>803.00000</ele>
        <time>2018-10-13T13:18:20Z</time>
      </trkpt>
      <trkpt lat="38.35586702" lon="-2.65638160">
        <ele>803.00000</ele>
        <time>2018-10-13T13:18:24Z</time>
      </trkpt>
      <trkpt lat="38.35579611" lon="-2.65594608">
        <ele>803.00000</ele>
        <time>2018-10-13T13:18:31Z</time>
      </trkpt>
      <trkpt lat="38.35570567" lon="-2.65543227">
        <ele>803.00000</ele>
        <time>2018-10-13T13:18:39Z</time>
      </trkpt>
      <trkpt lat="38.35557474" lon="-2.65474545">
        <ele>803.00000</ele>
        <time>2018-10-13T13:18:50Z</time>
      </trkpt>
      <trkpt lat="38.35550635" lon="-2.65441881">
        <ele>803.00000</ele>
        <time>2018-10-13T13:18:56Z</time>
      </trkpt>
      <trkpt lat="38.35546888" lon="-2.65423977">
        <ele>803.00000</ele>
        <time>2018-10-13T13:18:59Z</time>
      </trkpt>
      <trkpt lat="38.35540467" lon="-2.65393450">
        <ele>804.00000</ele>
        <time>2018-10-13T13:19:04Z</time>
      </trkpt>
      <trkpt lat="38.35531893" lon="-2.65323436">
        <ele>804.00000</ele>
        <time>2018-10-13T13:19:16Z</time>
      </trkpt>
      <trkpt lat="38.35525271" lon="-2.65253934">
        <ele>804.00000</ele>
        <time>2018-10-13T13:19:27Z</time>
      </trkpt>
      <trkpt lat="38.35521709" lon="-2.65212753">
        <ele>804.00000</ele>
        <time>2018-10-13T13:19:33Z</time>
      </trkpt>
      <trkpt lat="38.35504056" lon="-2.65180927">
        <ele>804.00000</ele>
        <time>2018-10-13T13:19:39Z</time>
      </trkpt>
      <trkpt lat="38.35487578" lon="-2.65164004">
        <ele>804.00000</ele>
        <time>2018-10-13T13:19:44Z</time>
      </trkpt>
      <trkpt lat="38.35473923" lon="-2.65149805">
        <ele>805.00000</ele>
        <time>2018-10-13T13:19:49Z</time>
      </trkpt>
      <trkpt lat="38.35466975" lon="-2.65145002">
        <ele>806.00000</ele>
        <time>2018-10-13T13:19:52Z</time>
      </trkpt>
      <trkpt lat="38.35464561" lon="-2.65142781">
        <ele>807.00000</ele>
        <time>2018-10-13T13:19:55Z</time>
      </trkpt>
      <trkpt lat="38.35463186" lon="-2.65128607">
        <ele>807.00000</ele>
        <time>2018-10-13T13:21:19Z</time>
      </trkpt>
      <trkpt lat="38.35463563" lon="-2.65127191">
        <ele>807.00000</ele>
        <time>2018-10-13T13:21:20Z</time>
      </trkpt>
      <trkpt lat="38.35463806" lon="-2.65125439">
        <ele>808.00000</ele>
        <time>2018-10-13T13:21:23Z</time>
      </trkpt>
      <trkpt lat="38.35456657" lon="-2.65138347">
        <ele>809.00000</ele>
        <time>2018-10-13T13:24:11Z</time>
      </trkpt>
      <trkpt lat="38.35453589" lon="-2.65141650">
        <ele>809.00000</ele>
        <time>2018-10-13T13:24:12Z</time>
      </trkpt>
      <trkpt lat="38.35443539" lon="-2.65156410">
        <ele>809.00000</ele>
        <time>2018-10-13T13:24:15Z</time>
      </trkpt>
      <trkpt lat="38.35437026" lon="-2.65174599">
        <ele>809.00000</ele>
        <time>2018-10-13T13:24:19Z</time>
      </trkpt>
      <trkpt lat="38.35430455" lon="-2.65193450">
        <ele>809.00000</ele>
        <time>2018-10-13T13:24:24Z</time>
      </trkpt>
      <trkpt lat="38.35420229" lon="-2.65214245">
        <ele>809.00000</ele>
        <time>2018-10-13T13:24:29Z</time>
      </trkpt>
      <trkpt lat="38.35407505" lon="-2.65223390">
        <ele>810.00000</ele>
        <time>2018-10-13T13:24:33Z</time>
      </trkpt>
      <trkpt lat="38.35394622" lon="-2.65218193">
        <ele>810.00000</ele>
        <time>2018-10-13T13:24:37Z</time>
      </trkpt>
      <trkpt lat="38.35391974" lon="-2.65215410">
        <ele>810.00000</ele>
        <time>2018-10-13T13:24:38Z</time>
      </trkpt>
      <trkpt lat="38.35382720" lon="-2.65202561">
        <ele>811.00000</ele>
        <time>2018-10-13T13:24:43Z</time>
      </trkpt>
      <trkpt lat="38.35373852" lon="-2.65188823">
        <ele>813.00000</ele>
        <time>2018-10-13T13:24:48Z</time>
      </trkpt>
      <trkpt lat="38.35365336" lon="-2.65175999">
        <ele>814.00000</ele>
        <time>2018-10-13T13:24:53Z</time>
      </trkpt>
      <trkpt lat="38.35348455" lon="-2.65162009">
        <ele>815.00000</ele>
        <time>2018-10-13T13:25:01Z</time>
      </trkpt>
      <trkpt lat="38.35327626" lon="-2.65158615">
        <ele>816.00000</ele>
        <time>2018-10-13T13:25:09Z</time>
      </trkpt>
      <trkpt lat="38.35311583" lon="-2.65170902">
        <ele>817.00000</ele>
        <time>2018-10-13T13:25:16Z</time>
      </trkpt>
      <trkpt lat="38.35299144" lon="-2.65186593">
        <ele>818.00000</ele>
        <time>2018-10-13T13:25:22Z</time>
      </trkpt>
      <trkpt lat="38.35288826" lon="-2.65201061">
        <ele>818.00000</ele>
        <time>2018-10-13T13:25:28Z</time>
      </trkpt>
      <trkpt lat="38.35285129" lon="-2.65211110">
        <ele>819.00000</ele>
        <time>2018-10-13T13:25:32Z</time>
      </trkpt>
      <trkpt lat="38.35284258" lon="-2.65218931">
        <ele>819.00000</ele>
        <time>2018-10-13T13:25:35Z</time>
      </trkpt>
      <trkpt lat="38.35282347" lon="-2.65225192">
        <ele>819.00000</ele>
        <time>2018-10-13T13:25:37Z</time>
      </trkpt>
      <trkpt lat="38.35280369" lon="-2.65236005">
        <ele>819.00000</ele>
        <time>2018-10-13T13:25:40Z</time>
      </trkpt>
      <trkpt lat="38.35280008" lon="-2.65247764">
        <ele>819.00000</ele>
        <time>2018-10-13T13:25:43Z</time>
      </trkpt>
      <trkpt lat="38.35279664" lon="-2.65251570">
        <ele>819.00000</ele>
        <time>2018-10-13T13:25:44Z</time>
      </trkpt>
      <trkpt lat="38.35276303" lon="-2.65276288">
        <ele>819.00000</ele>
        <time>2018-10-13T13:25:50Z</time>
      </trkpt>
      <trkpt lat="38.35274191" lon="-2.65328214">
        <ele>818.00000</ele>
        <time>2018-10-13T13:26:00Z</time>
      </trkpt>
      <trkpt lat="38.35273831" lon="-2.65345548">
        <ele>818.00000</ele>
        <time>2018-10-13T13:26:03Z</time>
      </trkpt>
      <trkpt lat="38.35271936" lon="-2.65395973">
        <ele>817.00000</ele>
        <time>2018-10-13T13:26:11Z</time>
      </trkpt>
      <trkpt lat="38.35271744" lon="-2.65408898">
        <ele>817.00000</ele>
        <time>2018-10-13T13:26:13Z</time>
      </trkpt>
      <trkpt lat="38.35270763" lon="-2.65427967">
        <ele>817.00000</ele>
        <time>2018-10-13T13:26:16Z</time>
      </trkpt>
      <trkpt lat="38.35270646" lon="-2.65441068">
        <ele>816.00000</ele>
        <time>2018-10-13T13:26:18Z</time>
      </trkpt>
      <trkpt lat="38.35266144" lon="-2.65487194">
        <ele>816.00000</ele>
        <time>2018-10-13T13:26:25Z</time>
      </trkpt>
      <trkpt lat="38.35257427" lon="-2.65542271">
        <ele>815.00000</ele>
        <time>2018-10-13T13:26:33Z</time>
      </trkpt>
      <trkpt lat="38.35249666" lon="-2.65600014">
        <ele>814.00000</ele>
        <time>2018-10-13T13:26:40Z</time>
      </trkpt>
      <trkpt lat="38.35246447" lon="-2.65619242">
        <ele>814.00000</ele>
        <time>2018-10-13T13:26:42Z</time>
      </trkpt>
      <trkpt lat="38.35240077" lon="-2.65649132">
        <ele>813.00000</ele>
        <time>2018-10-13T13:26:45Z</time>
      </trkpt>
      <trkpt lat="38.35236875" lon="-2.65658914">
        <ele>812.00000</ele>
        <time>2018-10-13T13:26:46Z</time>
      </trkpt>
      <trkpt lat="38.35228133" lon="-2.65677664">
        <ele>811.00000</ele>
        <time>2018-10-13T13:26:48Z</time>
      </trkpt>
      <trkpt lat="38.35212852" lon="-2.65706012">
        <ele>810.00000</ele>
        <time>2018-10-13T13:26:51Z</time>
      </trkpt>
      <trkpt lat="38.35200347" lon="-2.65739061">
        <ele>809.00000</ele>
        <time>2018-10-13T13:26:54Z</time>
      </trkpt>
      <trkpt lat="38.35193708" lon="-2.65761265">
        <ele>807.00000</ele>
        <time>2018-10-13T13:26:56Z</time>
      </trkpt>
      <trkpt lat="38.35187589" lon="-2.65782932">
        <ele>806.00000</ele>
        <time>2018-10-13T13:26:58Z</time>
      </trkpt>
      <trkpt lat="38.35181915" lon="-2.65804273">
        <ele>805.00000</ele>
        <time>2018-10-13T13:27:00Z</time>
      </trkpt>
      <trkpt lat="38.35169568" lon="-2.65854774">
        <ele>803.00000</ele>
        <time>2018-10-13T13:27:05Z</time>
      </trkpt>
      <trkpt lat="38.35158797" lon="-2.65881386">
        <ele>803.00000</ele>
        <time>2018-10-13T13:27:08Z</time>
      </trkpt>
      <trkpt lat="38.35154196" lon="-2.65889357">
        <ele>803.00000</ele>
        <time>2018-10-13T13:27:09Z</time>
      </trkpt>
      <trkpt lat="38.35131221" lon="-2.65913841">
        <ele>803.00000</ele>
        <time>2018-10-13T13:27:13Z</time>
      </trkpt>
      <trkpt lat="38.35124876" lon="-2.65918384">
        <ele>803.00000</ele>
        <time>2018-10-13T13:27:14Z</time>
      </trkpt>
      <trkpt lat="38.35112303" lon="-2.65925425">
        <ele>804.00000</ele>
        <time>2018-10-13T13:27:16Z</time>
      </trkpt>
      <trkpt lat="38.35100535" lon="-2.65931409">
        <ele>804.00000</ele>
        <time>2018-10-13T13:27:18Z</time>
      </trkpt>
      <trkpt lat="38.35089747" lon="-2.65937319">
        <ele>804.00000</ele>
        <time>2018-10-13T13:27:20Z</time>
      </trkpt>
      <trkpt lat="38.35078750" lon="-2.65943027">
        <ele>805.00000</ele>
        <time>2018-10-13T13:27:22Z</time>
      </trkpt>
      <trkpt lat="38.35067334" lon="-2.65949179">
        <ele>805.00000</ele>
        <time>2018-10-13T13:27:24Z</time>
      </trkpt>
      <trkpt lat="38.35055876" lon="-2.65955113">
        <ele>806.00000</ele>
        <time>2018-10-13T13:27:26Z</time>
      </trkpt>
      <trkpt lat="38.35044678" lon="-2.65960930">
        <ele>806.00000</ele>
        <time>2018-10-13T13:27:28Z</time>
      </trkpt>
      <trkpt lat="38.35033413" lon="-2.65966312">
        <ele>807.00000</ele>
        <time>2018-10-13T13:27:30Z</time>
      </trkpt>
      <trkpt lat="38.35022248" lon="-2.65971726">
        <ele>807.00000</ele>
        <time>2018-10-13T13:27:32Z</time>
      </trkpt>
      <trkpt lat="38.35005057" lon="-2.65979547">
        <ele>808.00000</ele>
        <time>2018-10-13T13:27:35Z</time>
      </trkpt>
      <trkpt lat="38.34983406" lon="-2.65988406">
        <ele>809.00000</ele>
        <time>2018-10-13T13:27:39Z</time>
      </trkpt>
      <trkpt lat="38.34969383" lon="-2.65994642">
        <ele>810.00000</ele>
        <time>2018-10-13T13:27:42Z</time>
      </trkpt>
      <trkpt lat="38.34956659" lon="-2.65998917">
        <ele>810.00000</ele>
        <time>2018-10-13T13:27:45Z</time>
      </trkpt>
      <trkpt lat="38.34940365" lon="-2.66003469">
        <ele>811.00000</ele>
        <time>2018-10-13T13:27:49Z</time>
      </trkpt>
      <trkpt lat="38.34928236" lon="-2.66006461">
        <ele>813.00000</ele>
        <time>2018-10-13T13:27:52Z</time>
      </trkpt>
      <trkpt lat="38.34912671" lon="-2.66009428">
        <ele>814.00000</ele>
        <time>2018-10-13T13:27:56Z</time>
      </trkpt>
      <trkpt lat="38.34891733" lon="-2.66008347">
        <ele>815.00000</ele>
        <time>2018-10-13T13:28:02Z</time>
      </trkpt>
      <trkpt lat="38.34878322" lon="-2.66004944">
        <ele>816.00000</ele>
        <time>2018-10-13T13:28:06Z</time>
      </trkpt>
      <trkpt lat="38.34859102" lon="-2.65993871">
        <ele>817.00000</ele>
        <time>2018-10-13T13:28:12Z</time>
      </trkpt>
      <trkpt lat="38.34835927" lon="-2.65971357">
        <ele>818.00000</ele>
        <time>2018-10-13T13:28:20Z</time>
      </trkpt>
      <trkpt lat="38.34809113" lon="-2.65943035">
        <ele>819.00000</ele>
        <time>2018-10-13T13:28:29Z</time>
      </trkpt>
      <trkpt lat="38.34793405" lon="-2.65948173">
        <ele>819.00000</ele>
        <time>2018-10-13T13:28:33Z</time>
      </trkpt>
      <trkpt lat="38.34789097" lon="-2.65955549">
        <ele>819.00000</ele>
        <time>2018-10-13T13:28:35Z</time>
      </trkpt>
      <trkpt lat="38.34786264" lon="-2.65963562">
        <ele>819.00000</ele>
        <time>2018-10-13T13:28:37Z</time>
      </trkpt>
      <trkpt lat="38.34783146" lon="-2.65971232">
        <ele>819.00000</ele>
        <time>2018-10-13T13:28:39Z</time>
      </trkpt>
      <trkpt lat="38.34778971" lon="-2.65978650">
        <ele>819.00000</ele>
        <time>2018-10-13T13:28:41Z</time>
      </trkpt>
      <trkpt lat="38.34770992" lon="-2.65989881">
        <ele>819.00000</ele>
        <time>2018-10-13T13:28:44Z</time>
      </trkpt>
      <trkpt lat="38.34726786" lon="-2.66032277">
        <ele>820.00000</ele>
        <time>2018-10-13T13:28:56Z</time>
      </trkpt>
      <trkpt lat="38.34714867" lon="-2.66042998">
        <ele>820.00000</ele>
        <time>2018-10-13T13:28:59Z</time>
      </trkpt>
      <trkpt lat="38.34703459" lon="-2.66053542">
        <ele>820.00000</ele>
        <time>2018-10-13T13:29:02Z</time>
      </trkpt>
      <trkpt lat="38.34684373" lon="-2.66069124">
        <ele>820.00000</ele>
        <time>2018-10-13T13:29:07Z</time>
      </trkpt>
      <trkpt lat="38.34638608" lon="-2.66091705">
        <ele>820.00000</ele>
        <time>2018-10-13T13:29:17Z</time>
      </trkpt>
      <trkpt lat="38.34593379" lon="-2.66111754">
        <ele>820.00000</ele>
        <time>2018-10-13T13:29:26Z</time>
      </trkpt>
      <trkpt lat="38.34566239" lon="-2.66116297">
        <ele>820.00000</ele>
        <time>2018-10-13T13:29:31Z</time>
      </trkpt>
      <trkpt lat="38.34538922" lon="-2.66106633">
        <ele>820.00000</ele>
        <time>2018-10-13T13:29:36Z</time>
      </trkpt>
      <trkpt lat="38.34528512" lon="-2.66100590">
        <ele>820.00000</ele>
        <time>2018-10-13T13:29:38Z</time>
      </trkpt>
      <trkpt lat="38.34501019" lon="-2.66091168">
        <ele>819.00000</ele>
        <time>2018-10-13T13:29:43Z</time>
      </trkpt>
      <trkpt lat="38.34445732" lon="-2.66082040">
        <ele>819.00000</ele>
        <time>2018-10-13T13:29:53Z</time>
      </trkpt>
      <trkpt lat="38.34428750" lon="-2.66078327">
        <ele>819.00000</ele>
        <time>2018-10-13T13:29:56Z</time>
      </trkpt>
      <trkpt lat="38.34392398" lon="-2.66075838">
        <ele>819.00000</ele>
        <time>2018-10-13T13:30:03Z</time>
      </trkpt>
      <trkpt lat="38.34346717" lon="-2.66080607">
        <ele>820.00000</ele>
        <time>2018-10-13T13:30:13Z</time>
      </trkpt>
      <trkpt lat="38.34329098" lon="-2.66087740">
        <ele>821.00000</ele>
        <time>2018-10-13T13:30:17Z</time>
      </trkpt>
      <trkpt lat="38.34319333" lon="-2.66092887">
        <ele>821.00000</ele>
        <time>2018-10-13T13:30:19Z</time>
      </trkpt>
      <trkpt lat="38.34291212" lon="-2.66112199">
        <ele>821.00000</ele>
        <time>2018-10-13T13:30:24Z</time>
      </trkpt>
      <trkpt lat="38.34279335" lon="-2.66125299">
        <ele>820.00000</ele>
        <time>2018-10-13T13:30:26Z</time>
      </trkpt>
      <trkpt lat="38.34267399" lon="-2.66142013">
        <ele>819.00000</ele>
        <time>2018-10-13T13:30:28Z</time>
      </trkpt>
      <trkpt lat="38.34256368" lon="-2.66161945">
        <ele>818.00000</ele>
        <time>2018-10-13T13:30:30Z</time>
      </trkpt>
      <trkpt lat="38.34246746" lon="-2.66185180">
        <ele>817.00000</ele>
        <time>2018-10-13T13:30:32Z</time>
      </trkpt>
      <trkpt lat="38.34237467" lon="-2.66209697">
        <ele>815.00000</ele>
        <time>2018-10-13T13:30:34Z</time>
      </trkpt>
      <trkpt lat="38.34232312" lon="-2.66220778">
        <ele>814.00000</ele>
        <time>2018-10-13T13:30:35Z</time>
      </trkpt>
      <trkpt lat="38.34224869" lon="-2.66230216">
        <ele>813.00000</ele>
        <time>2018-10-13T13:30:36Z</time>
      </trkpt>
      <trkpt lat="38.34205515" lon="-2.66241322">
        <ele>811.00000</ele>
        <time>2018-10-13T13:30:38Z</time>
      </trkpt>
      <trkpt lat="38.34194786" lon="-2.66240710">
        <ele>810.00000</ele>
        <time>2018-10-13T13:30:39Z</time>
      </trkpt>
      <trkpt lat="38.34183697" lon="-2.66238011">
        <ele>808.00000</ele>
        <time>2018-10-13T13:30:40Z</time>
      </trkpt>
      <trkpt lat="38.34161569" lon="-2.66228355">
        <ele>807.00000</ele>
        <time>2018-10-13T13:30:42Z</time>
      </trkpt>
      <trkpt lat="38.34127496" lon="-2.66211583">
        <ele>806.00000</ele>
        <time>2018-10-13T13:30:45Z</time>
      </trkpt>
      <trkpt lat="38.34116030" lon="-2.66205799">
        <ele>805.00000</ele>
        <time>2018-10-13T13:30:46Z</time>
      </trkpt>
      <trkpt lat="38.34104547" lon="-2.66199898">
        <ele>803.00000</ele>
        <time>2018-10-13T13:30:47Z</time>
      </trkpt>
      <trkpt lat="38.34092829" lon="-2.66194023">
        <ele>802.00000</ele>
        <time>2018-10-13T13:30:48Z</time>
      </trkpt>
      <trkpt lat="38.34080994" lon="-2.66188097">
        <ele>801.00000</ele>
        <time>2018-10-13T13:30:49Z</time>
      </trkpt>
      <trkpt lat="38.34069041" lon="-2.66182137">
        <ele>799.00000</ele>
        <time>2018-10-13T13:30:50Z</time>
      </trkpt>
      <trkpt lat="38.34044951" lon="-2.66170327">
        <ele>798.00000</ele>
        <time>2018-10-13T13:30:52Z</time>
      </trkpt>
      <trkpt lat="38.34021214" lon="-2.66158944">
        <ele>797.00000</ele>
        <time>2018-10-13T13:30:54Z</time>
      </trkpt>
      <trkpt lat="38.33998139" lon="-2.66149967">
        <ele>796.00000</ele>
        <time>2018-10-13T13:30:56Z</time>
      </trkpt>
      <trkpt lat="38.33986697" lon="-2.66148475">
        <ele>795.00000</ele>
        <time>2018-10-13T13:30:57Z</time>
      </trkpt>
      <trkpt lat="38.33975541" lon="-2.66149699">
        <ele>794.00000</ele>
        <time>2018-10-13T13:30:58Z</time>
      </trkpt>
      <trkpt lat="38.33955123" lon="-2.66159028">
        <ele>792.00000</ele>
        <time>2018-10-13T13:31:00Z</time>
      </trkpt>
      <trkpt lat="38.33945416" lon="-2.66164971">
        <ele>792.00000</ele>
        <time>2018-10-13T13:31:01Z</time>
      </trkpt>
      <trkpt lat="38.33925115" lon="-2.66174484">
        <ele>792.00000</ele>
        <time>2018-10-13T13:31:03Z</time>
      </trkpt>
      <trkpt lat="38.33883793" lon="-2.66165575">
        <ele>791.00000</ele>
        <time>2018-10-13T13:31:07Z</time>
      </trkpt>
      <trkpt lat="38.33836309" lon="-2.66116943">
        <ele>791.00000</ele>
        <time>2018-10-13T13:31:13Z</time>
      </trkpt>
      <trkpt lat="38.33817282" lon="-2.66116482">
        <ele>791.00000</ele>
        <time>2018-10-13T13:31:15Z</time>
      </trkpt>
      <trkpt lat="38.33780796" lon="-2.66152348">
        <ele>790.00000</ele>
        <time>2018-10-13T13:31:21Z</time>
      </trkpt>
      <trkpt lat="38.33777661" lon="-2.66159808">
        <ele>790.00000</ele>
        <time>2018-10-13T13:31:22Z</time>
      </trkpt>
      <trkpt lat="38.33772053" lon="-2.66174216">
        <ele>790.00000</ele>
        <time>2018-10-13T13:31:24Z</time>
      </trkpt>
      <trkpt lat="38.33763982" lon="-2.66194459">
        <ele>792.00000</ele>
        <time>2018-10-13T13:31:27Z</time>
      </trkpt>
      <trkpt lat="38.33758307" lon="-2.66207526">
        <ele>792.00000</ele>
        <time>2018-10-13T13:31:29Z</time>
      </trkpt>
      <trkpt lat="38.33750378" lon="-2.66227643">
        <ele>794.00000</ele>
        <time>2018-10-13T13:31:32Z</time>
      </trkpt>
      <trkpt lat="38.33743345" lon="-2.66245169">
        <ele>794.00000</ele>
        <time>2018-10-13T13:31:35Z</time>
      </trkpt>
      <trkpt lat="38.33730320" lon="-2.66268814">
        <ele>795.00000</ele>
        <time>2018-10-13T13:31:39Z</time>
      </trkpt>
      <trkpt lat="38.33691956" lon="-2.66319030">
        <ele>796.00000</ele>
        <time>2018-10-13T13:31:48Z</time>
      </trkpt>
      <trkpt lat="38.33649862" lon="-2.66373018">
        <ele>795.00000</ele>
        <time>2018-10-13T13:31:57Z</time>
      </trkpt>
      <trkpt lat="38.33609654" lon="-2.66426813">
        <ele>795.00000</ele>
        <time>2018-10-13T13:32:06Z</time>
      </trkpt>
      <trkpt lat="38.33595665" lon="-2.66445094">
        <ele>795.00000</ele>
        <time>2018-10-13T13:32:09Z</time>
      </trkpt>
      <trkpt lat="38.33567745" lon="-2.66478186">
        <ele>795.00000</ele>
        <time>2018-10-13T13:32:14Z</time>
      </trkpt>
      <trkpt lat="38.33546471" lon="-2.66494874">
        <ele>794.00000</ele>
        <time>2018-10-13T13:32:17Z</time>
      </trkpt>
      <trkpt lat="38.33538584" lon="-2.66499417">
        <ele>794.00000</ele>
        <time>2018-10-13T13:32:18Z</time>
      </trkpt>
      <trkpt lat="38.33521569" lon="-2.66507833">
        <ele>793.00000</ele>
        <time>2018-10-13T13:32:20Z</time>
      </trkpt>
      <trkpt lat="38.33504067" lon="-2.66515997">
        <ele>792.00000</ele>
        <time>2018-10-13T13:32:22Z</time>
      </trkpt>
      <trkpt lat="38.33477748" lon="-2.66529768">
        <ele>791.00000</ele>
        <time>2018-10-13T13:32:25Z</time>
      </trkpt>
      <trkpt lat="38.33461009" lon="-2.66539533">
        <ele>790.00000</ele>
        <time>2018-10-13T13:32:27Z</time>
      </trkpt>
      <trkpt lat="38.33444807" lon="-2.66548845">
        <ele>788.00000</ele>
        <time>2018-10-13T13:32:29Z</time>
      </trkpt>
      <trkpt lat="38.33428815" lon="-2.66557646">
        <ele>787.00000</ele>
        <time>2018-10-13T13:32:31Z</time>
      </trkpt>
      <trkpt lat="38.33420936" lon="-2.66561904">
        <ele>787.00000</ele>
        <time>2018-10-13T13:32:32Z</time>
      </trkpt>
      <trkpt lat="38.33404976" lon="-2.66568308">
        <ele>787.00000</ele>
        <time>2018-10-13T13:32:34Z</time>
      </trkpt>
      <trkpt lat="38.33372941" lon="-2.66566028">
        <ele>786.00000</ele>
        <time>2018-10-13T13:32:38Z</time>
      </trkpt>
      <trkpt lat="38.33348876" lon="-2.66560438">
        <ele>786.00000</ele>
        <time>2018-10-13T13:32:41Z</time>
      </trkpt>
      <trkpt lat="38.33332800" lon="-2.66559264">
        <ele>785.00000</ele>
        <time>2018-10-13T13:32:43Z</time>
      </trkpt>
      <trkpt lat="38.33309314" lon="-2.66566640">
        <ele>785.00000</ele>
        <time>2018-10-13T13:32:46Z</time>
      </trkpt>
      <trkpt lat="38.33269567" lon="-2.66581594">
        <ele>785.00000</ele>
        <time>2018-10-13T13:32:51Z</time>
      </trkpt>
      <trkpt lat="38.33244438" lon="-2.66585231">
        <ele>784.00000</ele>
        <time>2018-10-13T13:32:54Z</time>
      </trkpt>
      <trkpt lat="38.33219326" lon="-2.66583236">
        <ele>783.00000</ele>
        <time>2018-10-13T13:32:57Z</time>
      </trkpt>
      <trkpt lat="38.33211237" lon="-2.66580688">
        <ele>783.00000</ele>
        <time>2018-10-13T13:32:58Z</time>
      </trkpt>
      <trkpt lat="38.33203467" lon="-2.66576833">
        <ele>783.00000</ele>
        <time>2018-10-13T13:32:59Z</time>
      </trkpt>
      <trkpt lat="38.33178112" lon="-2.66549558">
        <ele>782.00000</ele>
        <time>2018-10-13T13:33:03Z</time>
      </trkpt>
      <trkpt lat="38.33155481" lon="-2.66518821">
        <ele>782.00000</ele>
        <time>2018-10-13T13:33:07Z</time>
      </trkpt>
      <trkpt lat="38.33149068" lon="-2.66512669">
        <ele>781.00000</ele>
        <time>2018-10-13T13:33:08Z</time>
      </trkpt>
      <trkpt lat="38.33127561" lon="-2.66507615">
        <ele>781.00000</ele>
        <time>2018-10-13T13:33:11Z</time>
      </trkpt>
      <trkpt lat="38.33109724" lon="-2.66518444">
        <ele>781.00000</ele>
        <time>2018-10-13T13:33:14Z</time>
      </trkpt>
      <trkpt lat="38.33098928" lon="-2.66527446">
        <ele>781.00000</ele>
        <time>2018-10-13T13:33:16Z</time>
      </trkpt>
      <trkpt lat="38.33088576" lon="-2.66536507">
        <ele>781.00000</ele>
        <time>2018-10-13T13:33:18Z</time>
      </trkpt>
      <trkpt lat="38.33073849" lon="-2.66549583">
        <ele>782.00000</ele>
        <time>2018-10-13T13:33:21Z</time>
      </trkpt>
      <trkpt lat="38.33064638" lon="-2.66558283">
        <ele>783.00000</ele>
        <time>2018-10-13T13:33:23Z</time>
      </trkpt>
      <trkpt lat="38.33042945" lon="-2.66576925">
        <ele>784.00000</ele>
        <time>2018-10-13T13:33:28Z</time>
      </trkpt>
      <trkpt lat="38.33027212" lon="-2.66591040">
        <ele>784.00000</ele>
        <time>2018-10-13T13:33:32Z</time>
      </trkpt>
      <trkpt lat="38.33015243" lon="-2.66601350">
        <ele>785.00000</ele>
        <time>2018-10-13T13:33:35Z</time>
      </trkpt>
      <trkpt lat="38.33003433" lon="-2.66611794">
        <ele>786.00000</ele>
        <time>2018-10-13T13:33:38Z</time>
      </trkpt>
      <trkpt lat="38.32995378" lon="-2.66618030">
        <ele>786.00000</ele>
        <time>2018-10-13T13:33:40Z</time>
      </trkpt>
      <trkpt lat="38.32978740" lon="-2.66627736">
        <ele>787.00000</ele>
        <time>2018-10-13T13:33:44Z</time>
      </trkpt>
      <trkpt lat="38.32974381" lon="-2.66629312">
        <ele>787.00000</ele>
        <time>2018-10-13T13:33:45Z</time>
      </trkpt>
      <trkpt lat="38.32969889" lon="-2.66630636">
        <ele>787.00000</ele>
        <time>2018-10-13T13:33:46Z</time>
      </trkpt>
      <trkpt lat="38.32937786" lon="-2.66634701">
        <ele>788.00000</ele>
        <time>2018-10-13T13:33:53Z</time>
      </trkpt>
      <trkpt lat="38.32901249" lon="-2.66633410">
        <ele>790.00000</ele>
        <time>2018-10-13T13:34:01Z</time>
      </trkpt>
      <trkpt lat="38.32844462" lon="-2.66630410">
        <ele>791.00000</ele>
        <time>2018-10-13T13:34:14Z</time>
      </trkpt>
      <trkpt lat="38.32830606" lon="-2.66629848">
        <ele>791.00000</ele>
        <time>2018-10-13T13:34:17Z</time>
      </trkpt>
      <trkpt lat="38.32773802" lon="-2.66627443">
        <ele>792.00000</ele>
        <time>2018-10-13T13:34:29Z</time>
      </trkpt>
      <trkpt lat="38.32755161" lon="-2.66626277">
        <ele>792.00000</ele>
        <time>2018-10-13T13:34:33Z</time>
      </trkpt>
      <trkpt lat="38.32712044" lon="-2.66622095">
        <ele>793.00000</ele>
        <time>2018-10-13T13:34:43Z</time>
      </trkpt>
      <trkpt lat="38.32690939" lon="-2.66618080">
        <ele>793.00000</ele>
        <time>2018-10-13T13:34:48Z</time>
      </trkpt>
      <trkpt lat="38.32678668" lon="-2.66614157">
        <ele>794.00000</ele>
        <time>2018-10-13T13:34:51Z</time>
      </trkpt>
      <trkpt lat="38.32659079" lon="-2.66606161">
        <ele>795.00000</ele>
        <time>2018-10-13T13:34:56Z</time>
      </trkpt>
      <trkpt lat="38.32643891" lon="-2.66597175">
        <ele>795.00000</ele>
        <time>2018-10-13T13:35:00Z</time>
      </trkpt>
      <trkpt lat="38.32616742" lon="-2.66582105">
        <ele>796.00000</ele>
        <time>2018-10-13T13:35:07Z</time>
      </trkpt>
      <trkpt lat="38.32608679" lon="-2.66579817">
        <ele>797.00000</ele>
        <time>2018-10-13T13:35:09Z</time>
      </trkpt>
      <trkpt lat="38.32568219" lon="-2.66584896">
        <ele>797.00000</ele>
        <time>2018-10-13T13:35:19Z</time>
      </trkpt>
      <trkpt lat="38.32559837" lon="-2.66586681">
        <ele>798.00000</ele>
        <time>2018-10-13T13:35:21Z</time>
      </trkpt>
      <trkpt lat="38.32534474" lon="-2.66589732">
        <ele>798.00000</ele>
        <time>2018-10-13T13:35:27Z</time>
      </trkpt>
      <trkpt lat="38.32488147" lon="-2.66583982">
        <ele>800.00000</ele>
        <time>2018-10-13T13:35:38Z</time>
      </trkpt>
      <trkpt lat="38.32431502" lon="-2.66576413">
        <ele>800.00000</ele>
        <time>2018-10-13T13:35:51Z</time>
      </trkpt>
      <trkpt lat="38.32423925" lon="-2.66576028">
        <ele>801.00000</ele>
        <time>2018-10-13T13:35:53Z</time>
      </trkpt>
      <trkpt lat="38.32417756" lon="-2.66575902">
        <ele>801.00000</ele>
        <time>2018-10-13T13:35:55Z</time>
      </trkpt>
      <trkpt lat="38.32411427" lon="-2.66576120">
        <ele>801.00000</ele>
        <time>2018-10-13T13:35:59Z</time>
      </trkpt>
      <trkpt lat="38.32410346" lon="-2.66575693">
        <ele>802.00000</ele>
        <time>2018-10-13T13:36:01Z</time>
      </trkpt>
      <trkpt lat="38.32417513" lon="-2.66570596">
        <ele>803.00000</ele>
        <time>2018-10-13T13:36:10Z</time>
      </trkpt>
      <trkpt lat="38.32423849" lon="-2.66565752">
        <ele>803.00000</ele>
        <time>2018-10-13T13:36:16Z</time>
      </trkpt>
      <trkpt lat="38.32420907" lon="-2.66566816">
        <ele>803.00000</ele>
        <time>2018-10-13T13:37:55Z</time>
      </trkpt>
      <trkpt lat="38.32419943" lon="-2.66568040">
        <ele>803.00000</ele>
        <time>2018-10-13T13:37:56Z</time>
      </trkpt>
      <trkpt lat="38.32419600" lon="-2.66568618">
        <ele>803.00000</ele>
        <time>2018-10-13T13:37:58Z</time>
      </trkpt>
      <trkpt lat="38.32417865" lon="-2.66572499">
        <ele>803.00000</ele>
        <time>2018-10-13T13:38:03Z</time>
      </trkpt>
      <trkpt lat="38.32407002" lon="-2.66575039">
        <ele>803.00000</ele>
        <time>2018-10-13T13:38:10Z</time>
      </trkpt>
      <trkpt lat="38.32399567" lon="-2.66576112">
        <ele>803.00000</ele>
        <time>2018-10-13T13:38:15Z</time>
      </trkpt>
      <trkpt lat="38.32398788" lon="-2.66576028">
        <ele>803.00000</ele>
        <time>2018-10-13T13:38:18Z</time>
      </trkpt>
      <trkpt lat="38.32395720" lon="-2.66568392">
        <ele>803.00000</ele>
        <time>2018-10-13T13:40:19Z</time>
      </trkpt>
      <trkpt lat="38.32393943" lon="-2.66567973">
        <ele>803.00000</ele>
        <time>2018-10-13T13:40:20Z</time>
      </trkpt>
      <trkpt lat="38.32385335" lon="-2.66565509">
        <ele>803.00000</ele>
        <time>2018-10-13T13:40:23Z</time>
      </trkpt>
      <trkpt lat="38.32353542" lon="-2.66550505">
        <ele>803.00000</ele>
        <time>2018-10-13T13:40:32Z</time>
      </trkpt>
      <trkpt lat="38.32345345" lon="-2.66547094">
        <ele>802.00000</ele>
        <time>2018-10-13T13:40:34Z</time>
      </trkpt>
      <trkpt lat="38.32323317" lon="-2.66537538">
        <ele>802.00000</ele>
        <time>2018-10-13T13:40:39Z</time>
      </trkpt>
      <trkpt lat="38.32309126" lon="-2.66528653">
        <ele>802.00000</ele>
        <time>2018-10-13T13:40:42Z</time>
      </trkpt>
      <trkpt lat="38.32299227" lon="-2.66522401">
        <ele>801.00000</ele>
        <time>2018-10-13T13:40:44Z</time>
      </trkpt>
      <trkpt lat="38.32285238" lon="-2.66510381">
        <ele>801.00000</ele>
        <time>2018-10-13T13:40:47Z</time>
      </trkpt>
      <trkpt lat="38.32275498" lon="-2.66499593">
        <ele>801.00000</ele>
        <time>2018-10-13T13:40:52Z</time>
      </trkpt>
      <trkpt lat="38.32274115" lon="-2.66496366">
        <ele>801.00000</ele>
        <time>2018-10-13T13:41:27Z</time>
      </trkpt>
      <trkpt lat="38.32270201" lon="-2.66485956">
        <ele>801.00000</ele>
        <time>2018-10-13T13:41:31Z</time>
      </trkpt>
      <trkpt lat="38.32265415" lon="-2.66475562">
        <ele>801.00000</ele>
        <time>2018-10-13T13:41:34Z</time>
      </trkpt>
      <trkpt lat="38.32256723" lon="-2.66451959">
        <ele>801.00000</ele>
        <time>2018-10-13T13:41:39Z</time>
      </trkpt>
      <trkpt lat="38.32254376" lon="-2.66447215">
        <ele>800.00000</ele>
        <time>2018-10-13T13:41:40Z</time>
      </trkpt>
      <trkpt lat="38.32248710" lon="-2.66438405">
        <ele>800.00000</ele>
        <time>2018-10-13T13:41:42Z</time>
      </trkpt>
      <trkpt lat="38.32238115" lon="-2.66426545">
        <ele>800.00000</ele>
        <time>2018-10-13T13:41:45Z</time>
      </trkpt>
      <trkpt lat="38.32225969" lon="-2.66417065">
        <ele>800.00000</ele>
        <time>2018-10-13T13:41:48Z</time>
      </trkpt>
      <trkpt lat="38.32212952" lon="-2.66409153">
        <ele>799.00000</ele>
        <time>2018-10-13T13:41:51Z</time>
      </trkpt>
      <trkpt lat="38.32197228" lon="-2.66402313">
        <ele>799.00000</ele>
        <time>2018-10-13T13:41:54Z</time>
      </trkpt>
      <trkpt lat="38.32171345" lon="-2.66405456">
        <ele>799.00000</ele>
        <time>2018-10-13T13:41:58Z</time>
      </trkpt>
      <trkpt lat="38.32164212" lon="-2.66407912">
        <ele>798.00000</ele>
        <time>2018-10-13T13:41:59Z</time>
      </trkpt>
      <trkpt lat="38.32130449" lon="-2.66416110">
        <ele>796.00000</ele>
        <time>2018-10-13T13:42:03Z</time>
      </trkpt>
      <trkpt lat="38.32112009" lon="-2.66418180">
        <ele>796.00000</ele>
        <time>2018-10-13T13:42:05Z</time>
      </trkpt>
      <trkpt lat="38.32102588" lon="-2.66416789">
        <ele>795.00000</ele>
        <time>2018-10-13T13:42:06Z</time>
      </trkpt>
      <trkpt lat="38.32084349" lon="-2.66407216">
        <ele>794.00000</ele>
        <time>2018-10-13T13:42:08Z</time>
      </trkpt>
      <trkpt lat="38.32066998" lon="-2.66392959">
        <ele>792.00000</ele>
        <time>2018-10-13T13:42:10Z</time>
      </trkpt>
      <trkpt lat="38.32057862" lon="-2.66386178">
        <ele>791.00000</ele>
        <time>2018-10-13T13:42:11Z</time>
      </trkpt>
      <trkpt lat="38.32037921" lon="-2.66376757">
        <ele>789.00000</ele>
        <time>2018-10-13T13:42:13Z</time>
      </trkpt>
      <trkpt lat="38.32017553" lon="-2.66367612">
        <ele>788.00000</ele>
        <time>2018-10-13T13:42:15Z</time>
      </trkpt>
      <trkpt lat="38.31997990" lon="-2.66354192">
        <ele>786.00000</ele>
        <time>2018-10-13T13:42:17Z</time>
      </trkpt>
      <trkpt lat="38.31988410" lon="-2.66346364">
        <ele>786.00000</ele>
        <time>2018-10-13T13:42:18Z</time>
      </trkpt>
      <trkpt lat="38.31978905" lon="-2.66338435">
        <ele>785.00000</ele>
        <time>2018-10-13T13:42:19Z</time>
      </trkpt>
      <trkpt lat="38.31960573" lon="-2.66324060">
        <ele>784.00000</ele>
        <time>2018-10-13T13:42:21Z</time>
      </trkpt>
      <trkpt lat="38.31951378" lon="-2.66318410">
        <ele>783.00000</ele>
        <time>2018-10-13T13:42:22Z</time>
      </trkpt>
      <trkpt lat="38.31932502" lon="-2.66311730">
        <ele>782.00000</ele>
        <time>2018-10-13T13:42:24Z</time>
      </trkpt>
      <trkpt lat="38.31914540" lon="-2.66306332">
        <ele>781.00000</ele>
        <time>2018-10-13T13:42:26Z</time>
      </trkpt>
      <trkpt lat="38.31899352" lon="-2.66300087">
        <ele>780.00000</ele>
        <time>2018-10-13T13:42:28Z</time>
      </trkpt>
      <trkpt lat="38.31892370" lon="-2.66295838">
        <ele>780.00000</ele>
        <time>2018-10-13T13:42:29Z</time>
      </trkpt>
      <trkpt lat="38.31874952" lon="-2.66253794">
        <ele>779.00000</ele>
        <time>2018-10-13T13:42:34Z</time>
      </trkpt>
      <trkpt lat="38.31873167" lon="-2.66244356">
        <ele>779.00000</ele>
        <time>2018-10-13T13:42:35Z</time>
      </trkpt>
      <trkpt lat="38.31868540" lon="-2.66226653">
        <ele>778.00000</ele>
        <time>2018-10-13T13:42:37Z</time>
      </trkpt>
      <trkpt lat="38.31860854" lon="-2.66210585">
        <ele>778.00000</ele>
        <time>2018-10-13T13:42:39Z</time>
      </trkpt>
      <trkpt lat="38.31849488" lon="-2.66196629">
        <ele>777.00000</ele>
        <time>2018-10-13T13:42:41Z</time>
      </trkpt>
      <trkpt lat="38.31818441" lon="-2.66161442">
        <ele>777.00000</ele>
        <time>2018-10-13T13:42:46Z</time>
      </trkpt>
      <trkpt lat="38.31792759" lon="-2.66137487">
        <ele>775.00000</ele>
        <time>2018-10-13T13:42:50Z</time>
      </trkpt>
      <trkpt lat="38.31786330" lon="-2.66132617">
        <ele>774.00000</ele>
        <time>2018-10-13T13:42:51Z</time>
      </trkpt>
      <trkpt lat="38.31773347" lon="-2.66124956">
        <ele>773.00000</ele>
        <time>2018-10-13T13:42:53Z</time>
      </trkpt>
      <trkpt lat="38.31752962" lon="-2.66116993">
        <ele>772.00000</ele>
        <time>2018-10-13T13:42:56Z</time>
      </trkpt>
      <trkpt lat="38.31738847" lon="-2.66114680">
        <ele>771.00000</ele>
        <time>2018-10-13T13:42:58Z</time>
      </trkpt>
      <trkpt lat="38.31728093" lon="-2.66118837">
        <ele>771.00000</ele>
        <time>2018-10-13T13:43:00Z</time>
      </trkpt>
      <trkpt lat="38.31722301" lon="-2.66136473">
        <ele>769.00000</ele>
        <time>2018-10-13T13:43:04Z</time>
      </trkpt>
      <trkpt lat="38.31722720" lon="-2.66139146">
        <ele>769.00000</ele>
        <time>2018-10-13T13:43:05Z</time>
      </trkpt>
      <trkpt lat="38.31723751" lon="-2.66145927">
        <ele>768.00000</ele>
        <time>2018-10-13T13:43:07Z</time>
      </trkpt>
      <trkpt lat="38.31732032" lon="-2.66173118">
        <ele>767.00000</ele>
        <time>2018-10-13T13:43:13Z</time>
      </trkpt>
      <trkpt lat="38.31734228" lon="-2.66179170">
        <ele>767.00000</ele>
        <time>2018-10-13T13:43:14Z</time>
      </trkpt>
      <trkpt lat="38.31743163" lon="-2.66207585">
        <ele>766.00000</ele>
        <time>2018-10-13T13:43:18Z</time>
      </trkpt>
      <trkpt lat="38.31745234" lon="-2.66214047">
        <ele>766.00000</ele>
        <time>2018-10-13T13:43:19Z</time>
      </trkpt>
      <trkpt lat="38.31750414" lon="-2.66231825">
        <ele>765.00000</ele>
        <time>2018-10-13T13:43:22Z</time>
      </trkpt>
      <trkpt lat="38.31752736" lon="-2.66242420">
        <ele>763.00000</ele>
        <time>2018-10-13T13:43:24Z</time>
      </trkpt>
      <trkpt lat="38.31755611" lon="-2.66250718">
        <ele>762.00000</ele>
        <time>2018-10-13T13:43:26Z</time>
      </trkpt>
      <trkpt lat="38.31757421" lon="-2.66257239">
        <ele>761.00000</ele>
        <time>2018-10-13T13:43:28Z</time>
      </trkpt>
      <trkpt lat="38.31757832" lon="-2.66259041">
        <ele>761.00000</ele>
        <time>2018-10-13T13:43:31Z</time>
      </trkpt>
      <trkpt lat="38.31751554" lon="-2.66225933">
        <ele>768.00000</ele>
        <time>2018-10-13T14:19:49Z</time>
      </trkpt>
      <trkpt lat="38.31752576" lon="-2.66227198">
        <ele>768.00000</ele>
        <time>2018-10-13T14:19:50Z</time>
      </trkpt>
      <trkpt lat="38.31758251" lon="-2.66241196">
        <ele>768.00000</ele>
        <time>2018-10-13T14:19:55Z</time>
      </trkpt>
      <trkpt lat="38.31749509" lon="-2.66261765">
        <ele>767.00000</ele>
        <time>2018-10-13T14:20:00Z</time>
      </trkpt>
      <trkpt lat="38.31741655" lon="-2.66272553">
        <ele>767.00000</ele>
        <time>2018-10-13T14:20:02Z</time>
      </trkpt>
      <trkpt lat="38.31719099" lon="-2.66301227">
        <ele>766.00000</ele>
        <time>2018-10-13T14:20:07Z</time>
      </trkpt>
      <trkpt lat="38.31708630" lon="-2.66311311">
        <ele>766.00000</ele>
        <time>2018-10-13T14:20:09Z</time>
      </trkpt>
      <trkpt lat="38.31689871" lon="-2.66327228">
        <ele>765.00000</ele>
        <time>2018-10-13T14:20:12Z</time>
      </trkpt>
      <trkpt lat="38.31678480" lon="-2.66335769">
        <ele>763.00000</ele>
        <time>2018-10-13T14:20:14Z</time>
      </trkpt>
      <trkpt lat="38.31673711" lon="-2.66339139">
        <ele>762.00000</ele>
        <time>2018-10-13T14:20:15Z</time>
      </trkpt>
      <trkpt lat="38.31669026" lon="-2.66342408">
        <ele>761.00000</ele>
        <time>2018-10-13T14:20:16Z</time>
      </trkpt>
      <trkpt lat="38.31663636" lon="-2.66347319">
        <ele>760.00000</ele>
        <time>2018-10-13T14:20:17Z</time>
      </trkpt>
      <trkpt lat="38.31658096" lon="-2.66351971">
        <ele>758.00000</ele>
        <time>2018-10-13T14:20:18Z</time>
      </trkpt>
      <trkpt lat="38.31652580" lon="-2.66356791">
        <ele>757.00000</ele>
        <time>2018-10-13T14:20:19Z</time>
      </trkpt>
      <trkpt lat="38.31641214" lon="-2.66366095">
        <ele>755.00000</ele>
        <time>2018-10-13T14:20:21Z</time>
      </trkpt>
      <trkpt lat="38.31629329" lon="-2.66376052">
        <ele>754.00000</ele>
        <time>2018-10-13T14:20:23Z</time>
      </trkpt>
      <trkpt lat="38.31619279" lon="-2.66386505">
        <ele>752.00000</ele>
        <time>2018-10-13T14:20:25Z</time>
      </trkpt>
      <trkpt lat="38.31614904" lon="-2.66391878">
        <ele>751.00000</ele>
        <time>2018-10-13T14:20:26Z</time>
      </trkpt>
      <trkpt lat="38.31607041" lon="-2.66402254">
        <ele>749.00000</ele>
        <time>2018-10-13T14:20:28Z</time>
      </trkpt>
      <trkpt lat="38.31603177" lon="-2.66406177">
        <ele>749.00000</ele>
        <time>2018-10-13T14:20:29Z</time>
      </trkpt>
      <trkpt lat="38.31598819" lon="-2.66408566">
        <ele>748.00000</ele>
        <time>2018-10-13T14:20:30Z</time>
      </trkpt>
      <trkpt lat="38.31593940" lon="-2.66408071">
        <ele>747.00000</ele>
        <time>2018-10-13T14:20:31Z</time>
      </trkpt>
      <trkpt lat="38.31585123" lon="-2.66399262">
        <ele>745.00000</ele>
        <time>2018-10-13T14:20:33Z</time>
      </trkpt>
      <trkpt lat="38.31581418" lon="-2.66392791">
        <ele>744.00000</ele>
        <time>2018-10-13T14:20:34Z</time>
      </trkpt>
      <trkpt lat="38.31578157" lon="-2.66385566">
        <ele>743.00000</ele>
        <time>2018-10-13T14:20:35Z</time>
      </trkpt>
      <trkpt lat="38.31572474" lon="-2.66360471">
        <ele>741.00000</ele>
        <time>2018-10-13T14:20:38Z</time>
      </trkpt>
      <trkpt lat="38.31579172" lon="-2.66324831">
        <ele>741.00000</ele>
        <time>2018-10-13T14:20:43Z</time>
      </trkpt>
      <trkpt lat="38.31581384" lon="-2.66320439">
        <ele>740.00000</ele>
        <time>2018-10-13T14:20:44Z</time>
      </trkpt>
      <trkpt lat="38.31585299" lon="-2.66312710">
        <ele>740.00000</ele>
        <time>2018-10-13T14:20:46Z</time>
      </trkpt>
      <trkpt lat="38.31588400" lon="-2.66305376">
        <ele>740.00000</ele>
        <time>2018-10-13T14:20:48Z</time>
      </trkpt>
      <trkpt lat="38.31593220" lon="-2.66296282">
        <ele>741.00000</ele>
        <time>2018-10-13T14:20:51Z</time>
      </trkpt>
      <trkpt lat="38.31596690" lon="-2.66291705">
        <ele>742.00000</ele>
        <time>2018-10-13T14:20:53Z</time>
      </trkpt>
      <trkpt lat="38.31599590" lon="-2.66287431">
        <ele>743.00000</ele>
        <time>2018-10-13T14:20:55Z</time>
      </trkpt>
      <trkpt lat="38.31602809" lon="-2.66283122">
        <ele>744.00000</ele>
        <time>2018-10-13T14:20:58Z</time>
      </trkpt>
      <trkpt lat="38.31605122" lon="-2.66273785">
        <ele>745.00000</ele>
        <time>2018-10-13T14:21:02Z</time>
      </trkpt>
      <trkpt lat="38.31608240" lon="-2.66267850">
        <ele>746.00000</ele>
        <time>2018-10-13T14:21:05Z</time>
      </trkpt>
      <trkpt lat="38.31611953" lon="-2.66262075">
        <ele>747.00000</ele>
        <time>2018-10-13T14:21:09Z</time>
      </trkpt>
      <trkpt lat="38.31616991" lon="-2.66257348">
        <ele>749.00000</ele>
        <time>2018-10-13T14:21:13Z</time>
      </trkpt>
      <trkpt lat="38.31618784" lon="-2.66254213">
        <ele>749.00000</ele>
        <time>2018-10-13T14:21:15Z</time>
      </trkpt>
      <trkpt lat="38.31619807" lon="-2.66252436">
        <ele>750.00000</ele>
        <time>2018-10-13T14:21:16Z</time>
      </trkpt>
      <trkpt lat="38.31622162" lon="-2.66246619">
        <ele>751.00000</ele>
        <time>2018-10-13T14:21:20Z</time>
      </trkpt>
      <trkpt lat="38.31624073" lon="-2.66234222">
        <ele>752.00000</ele>
        <time>2018-10-13T14:21:25Z</time>
      </trkpt>
      <trkpt lat="38.31622741" lon="-2.66221683">
        <ele>753.00000</ele>
        <time>2018-10-13T14:21:33Z</time>
      </trkpt>
      <trkpt lat="38.31623403" lon="-2.66227466">
        <ele>754.00000</ele>
        <time>2018-10-13T14:21:46Z</time>
      </trkpt>
      <trkpt lat="38.31631894" lon="-2.66254859">
        <ele>754.00000</ele>
        <time>2018-10-13T14:21:52Z</time>
      </trkpt>
      <trkpt lat="38.31649278" lon="-2.66284220">
        <ele>753.00000</ele>
        <time>2018-10-13T14:22:00Z</time>
      </trkpt>
      <trkpt lat="38.31652178" lon="-2.66289501">
        <ele>753.00000</ele>
        <time>2018-10-13T14:22:02Z</time>
      </trkpt>
      <trkpt lat="38.31654994" lon="-2.66293918">
        <ele>753.00000</ele>
        <time>2018-10-13T14:22:04Z</time>
      </trkpt>
      <trkpt lat="38.31658062" lon="-2.66297447">
        <ele>753.00000</ele>
        <time>2018-10-13T14:22:06Z</time>
      </trkpt>
      <trkpt lat="38.31666829" lon="-2.66306298">
        <ele>754.00000</ele>
        <time>2018-10-13T14:22:12Z</time>
      </trkpt>
      <trkpt lat="38.31674189" lon="-2.66317086">
        <ele>754.00000</ele>
        <time>2018-10-13T14:22:18Z</time>
      </trkpt>
      <trkpt lat="38.31685932" lon="-2.66326557">
        <ele>754.00000</ele>
        <time>2018-10-13T14:22:24Z</time>
      </trkpt>
      <trkpt lat="38.31688522" lon="-2.66328603">
        <ele>754.00000</ele>
        <time>2018-10-13T14:22:26Z</time>
      </trkpt>
      <trkpt lat="38.31690575" lon="-2.66328762">
        <ele>754.00000</ele>
        <time>2018-10-13T14:22:28Z</time>
      </trkpt>
      <trkpt lat="38.31692327" lon="-2.66327932">
        <ele>754.00000</ele>
        <time>2018-10-13T14:22:29Z</time>
      </trkpt>
      <trkpt lat="38.31701279" lon="-2.66323146">
        <ele>754.00000</ele>
        <time>2018-10-13T14:22:32Z</time>
      </trkpt>
      <trkpt lat="38.31704582" lon="-2.66319089">
        <ele>755.00000</ele>
        <time>2018-10-13T14:22:35Z</time>
      </trkpt>
      <trkpt lat="38.31707825" lon="-2.66311964">
        <ele>757.00000</ele>
        <time>2018-10-13T14:22:38Z</time>
      </trkpt>
      <trkpt lat="38.31712192" lon="-2.66308251">
        <ele>758.00000</ele>
        <time>2018-10-13T14:22:40Z</time>
      </trkpt>
      <trkpt lat="38.31721991" lon="-2.66305971">
        <ele>759.00000</ele>
        <time>2018-10-13T14:22:44Z</time>
      </trkpt>
      <trkpt lat="38.31726358" lon="-2.66301261">
        <ele>760.00000</ele>
        <time>2018-10-13T14:22:47Z</time>
      </trkpt>
      <trkpt lat="38.31728537" lon="-2.66293985">
        <ele>761.00000</ele>
        <time>2018-10-13T14:22:50Z</time>
      </trkpt>
      <trkpt lat="38.31732074" lon="-2.66289216">
        <ele>762.00000</ele>
        <time>2018-10-13T14:22:53Z</time>
      </trkpt>
      <trkpt lat="38.31740037" lon="-2.66282812">
        <ele>764.00000</ele>
        <time>2018-10-13T14:22:57Z</time>
      </trkpt>
      <trkpt lat="38.31747120" lon="-2.66276886">
        <ele>765.00000</ele>
        <time>2018-10-13T14:23:02Z</time>
      </trkpt>
      <trkpt lat="38.31748754" lon="-2.66276392">
        <ele>765.00000</ele>
        <time>2018-10-13T14:23:03Z</time>
      </trkpt>
      <trkpt lat="38.31759911" lon="-2.66278705">
        <ele>766.00000</ele>
        <time>2018-10-13T14:23:10Z</time>
      </trkpt>
      <trkpt lat="38.31771109" lon="-2.66313289">
        <ele>766.00000</ele>
        <time>2018-10-13T14:23:17Z</time>
      </trkpt>
      <trkpt lat="38.31786867" lon="-2.66358593">
        <ele>764.00000</ele>
        <time>2018-10-13T14:23:23Z</time>
      </trkpt>
      <trkpt lat="38.31788954" lon="-2.66366967">
        <ele>764.00000</ele>
        <time>2018-10-13T14:23:24Z</time>
      </trkpt>
      <trkpt lat="38.31789926" lon="-2.66375944">
        <ele>763.00000</ele>
        <time>2018-10-13T14:23:25Z</time>
      </trkpt>
      <trkpt lat="38.31789331" lon="-2.66385742">
        <ele>763.00000</ele>
        <time>2018-10-13T14:23:26Z</time>
      </trkpt>
      <trkpt lat="38.31785257" lon="-2.66407057">
        <ele>762.00000</ele>
        <time>2018-10-13T14:23:28Z</time>
      </trkpt>
      <trkpt lat="38.31780195" lon="-2.66432547">
        <ele>760.00000</ele>
        <time>2018-10-13T14:23:30Z</time>
      </trkpt>
      <trkpt lat="38.31773179" lon="-2.66468681">
        <ele>760.00000</ele>
        <time>2018-10-13T14:23:33Z</time>
      </trkpt>
      <trkpt lat="38.31771335" lon="-2.66478798">
        <ele>758.00000</ele>
        <time>2018-10-13T14:23:34Z</time>
      </trkpt>
      <trkpt lat="38.31769558" lon="-2.66488462">
        <ele>756.00000</ele>
        <time>2018-10-13T14:23:35Z</time>
      </trkpt>
      <trkpt lat="38.31767588" lon="-2.66498026">
        <ele>755.00000</ele>
        <time>2018-10-13T14:23:36Z</time>
      </trkpt>
      <trkpt lat="38.31765132" lon="-2.66507288">
        <ele>753.00000</ele>
        <time>2018-10-13T14:23:37Z</time>
      </trkpt>
      <trkpt lat="38.31761729" lon="-2.66515326">
        <ele>751.00000</ele>
        <time>2018-10-13T14:23:38Z</time>
      </trkpt>
      <trkpt lat="38.31757991" lon="-2.66521613">
        <ele>750.00000</ele>
        <time>2018-10-13T14:23:39Z</time>
      </trkpt>
      <trkpt lat="38.31749903" lon="-2.66527346">
        <ele>749.00000</ele>
        <time>2018-10-13T14:23:41Z</time>
      </trkpt>
      <trkpt lat="38.31738620" lon="-2.66516407">
        <ele>748.00000</ele>
        <time>2018-10-13T14:23:44Z</time>
      </trkpt>
      <trkpt lat="38.31735502" lon="-2.66511362">
        <ele>748.00000</ele>
        <time>2018-10-13T14:23:45Z</time>
      </trkpt>
      <trkpt lat="38.31731999" lon="-2.66506500">
        <ele>747.00000</ele>
        <time>2018-10-13T14:23:46Z</time>
      </trkpt>
      <trkpt lat="38.31724195" lon="-2.66496920">
        <ele>747.00000</ele>
        <time>2018-10-13T14:23:48Z</time>
      </trkpt>
      <trkpt lat="38.31704154" lon="-2.66465010">
        <ele>746.00000</ele>
        <time>2018-10-13T14:23:54Z</time>
      </trkpt>
      <trkpt lat="38.31694255" lon="-2.66436134">
        <ele>746.00000</ele>
        <time>2018-10-13T14:23:58Z</time>
      </trkpt>
      <trkpt lat="38.31683996" lon="-2.66422212">
        <ele>746.00000</ele>
        <time>2018-10-13T14:24:00Z</time>
      </trkpt>
      <trkpt lat="38.31652337" lon="-2.66423754">
        <ele>745.00000</ele>
        <time>2018-10-13T14:24:04Z</time>
      </trkpt>
      <trkpt lat="38.31644131" lon="-2.66426956">
        <ele>745.00000</ele>
        <time>2018-10-13T14:24:05Z</time>
      </trkpt>
      <trkpt lat="38.31626395" lon="-2.66431046">
        <ele>743.00000</ele>
        <time>2018-10-13T14:24:07Z</time>
      </trkpt>
      <trkpt lat="38.31607595" lon="-2.66428540">
        <ele>741.00000</ele>
        <time>2018-10-13T14:24:09Z</time>
      </trkpt>
      <trkpt lat="38.31589984" lon="-2.66421432">
        <ele>739.00000</ele>
        <time>2018-10-13T14:24:11Z</time>
      </trkpt>
      <trkpt lat="38.31575651" lon="-2.66406035">
        <ele>738.00000</ele>
        <time>2018-10-13T14:24:13Z</time>
      </trkpt>
      <trkpt lat="38.31564654" lon="-2.66385013">
        <ele>737.00000</ele>
        <time>2018-10-13T14:24:15Z</time>
      </trkpt>
      <trkpt lat="38.31558787" lon="-2.66359825">
        <ele>735.00000</ele>
        <time>2018-10-13T14:24:17Z</time>
      </trkpt>
      <trkpt lat="38.31559248" lon="-2.66318125">
        <ele>735.00000</ele>
        <time>2018-10-13T14:24:20Z</time>
      </trkpt>
      <trkpt lat="38.31559893" lon="-2.66304035">
        <ele>734.00000</ele>
        <time>2018-10-13T14:24:21Z</time>
      </trkpt>
      <trkpt lat="38.31560455" lon="-2.66275386">
        <ele>733.00000</ele>
        <time>2018-10-13T14:24:23Z</time>
      </trkpt>
      <trkpt lat="38.31559927" lon="-2.66246443">
        <ele>732.00000</ele>
        <time>2018-10-13T14:24:25Z</time>
      </trkpt>
      <trkpt lat="38.31558250" lon="-2.66231984">
        <ele>731.00000</ele>
        <time>2018-10-13T14:24:26Z</time>
      </trkpt>
      <trkpt lat="38.31555241" lon="-2.66217878">
        <ele>730.00000</ele>
        <time>2018-10-13T14:24:27Z</time>
      </trkpt>
      <trkpt lat="38.31550992" lon="-2.66204467">
        <ele>729.00000</ele>
        <time>2018-10-13T14:24:28Z</time>
      </trkpt>
      <trkpt lat="38.31541294" lon="-2.66178558">
        <ele>727.00000</ele>
        <time>2018-10-13T14:24:30Z</time>
      </trkpt>
      <trkpt lat="38.31531479" lon="-2.66153412">
        <ele>726.00000</ele>
        <time>2018-10-13T14:24:32Z</time>
      </trkpt>
      <trkpt lat="38.31520834" lon="-2.66130790">
        <ele>725.00000</ele>
        <time>2018-10-13T14:24:34Z</time>
      </trkpt>
      <trkpt lat="38.31506601" lon="-2.66113054">
        <ele>725.00000</ele>
        <time>2018-10-13T14:24:36Z</time>
      </trkpt>
      <trkpt lat="38.31451892" lon="-2.66099835">
        <ele>724.00000</ele>
        <time>2018-10-13T14:24:43Z</time>
      </trkpt>
      <trkpt lat="38.31446654" lon="-2.66110958">
        <ele>724.00000</ele>
        <time>2018-10-13T14:24:45Z</time>
      </trkpt>
      <trkpt lat="38.31445405" lon="-2.66123263">
        <ele>724.00000</ele>
        <time>2018-10-13T14:24:47Z</time>
      </trkpt>
      <trkpt lat="38.31445371" lon="-2.66135592">
        <ele>725.00000</ele>
        <time>2018-10-13T14:24:49Z</time>
      </trkpt>
      <trkpt lat="38.31445028" lon="-2.66148542">
        <ele>726.00000</ele>
        <time>2018-10-13T14:24:51Z</time>
      </trkpt>
      <trkpt lat="38.31443862" lon="-2.66162155">
        <ele>727.00000</ele>
        <time>2018-10-13T14:24:53Z</time>
      </trkpt>
      <trkpt lat="38.31436755" lon="-2.66232638">
        <ele>728.00000</ele>
        <time>2018-10-13T14:25:03Z</time>
      </trkpt>
      <trkpt lat="38.31432530" lon="-2.66263986">
        <ele>728.00000</ele>
        <time>2018-10-13T14:25:08Z</time>
      </trkpt>
      <trkpt lat="38.31428389" lon="-2.66297439">
        <ele>728.00000</ele>
        <time>2018-10-13T14:25:14Z</time>
      </trkpt>
      <trkpt lat="38.31427509" lon="-2.66312392">
        <ele>729.00000</ele>
        <time>2018-10-13T14:25:17Z</time>
      </trkpt>
      <trkpt lat="38.31426847" lon="-2.66331679">
        <ele>730.00000</ele>
        <time>2018-10-13T14:25:21Z</time>
      </trkpt>
      <trkpt lat="38.31424718" lon="-2.66350714">
        <ele>731.00000</ele>
        <time>2018-10-13T14:25:25Z</time>
      </trkpt>
      <trkpt lat="38.31420863" lon="-2.66364485">
        <ele>732.00000</ele>
        <time>2018-10-13T14:25:28Z</time>
      </trkpt>
      <trkpt lat="38.31414098" lon="-2.66380713">
        <ele>733.00000</ele>
        <time>2018-10-13T14:25:32Z</time>
      </trkpt>
      <trkpt lat="38.31406898" lon="-2.66396597">
        <ele>734.00000</ele>
        <time>2018-10-13T14:25:36Z</time>
      </trkpt>
      <trkpt lat="38.31405406" lon="-2.66430761">
        <ele>735.00000</ele>
        <time>2018-10-13T14:25:44Z</time>
      </trkpt>
      <trkpt lat="38.31413780" lon="-2.66447575">
        <ele>736.00000</ele>
        <time>2018-10-13T14:25:49Z</time>
      </trkpt>
      <trkpt lat="38.31419429" lon="-2.66465873">
        <ele>737.00000</ele>
        <time>2018-10-13T14:25:54Z</time>
      </trkpt>
      <trkpt lat="38.31417242" lon="-2.66492016">
        <ele>738.00000</ele>
        <time>2018-10-13T14:26:01Z</time>
      </trkpt>
      <trkpt lat="38.31404945" lon="-2.66505008">
        <ele>740.00000</ele>
        <time>2018-10-13T14:26:07Z</time>
      </trkpt>
      <trkpt lat="38.31389120" lon="-2.66504421">
        <ele>741.00000</ele>
        <time>2018-10-13T14:26:13Z</time>
      </trkpt>
      <trkpt lat="38.31378660" lon="-2.66500473">
        <ele>742.00000</ele>
        <time>2018-10-13T14:26:17Z</time>
      </trkpt>
      <trkpt lat="38.31367244" lon="-2.66490717">
        <ele>743.00000</ele>
        <time>2018-10-13T14:26:22Z</time>
      </trkpt>
      <trkpt lat="38.31356590" lon="-2.66474766">
        <ele>744.00000</ele>
        <time>2018-10-13T14:26:28Z</time>
      </trkpt>
      <trkpt lat="38.31342911" lon="-2.66456075">
        <ele>745.00000</ele>
        <time>2018-10-13T14:26:35Z</time>
      </trkpt>
      <trkpt lat="38.31324680" lon="-2.66446519">
        <ele>747.00000</ele>
        <time>2018-10-13T14:26:42Z</time>
      </trkpt>
      <trkpt lat="38.31304446" lon="-2.66457298">
        <ele>748.00000</ele>
        <time>2018-10-13T14:26:50Z</time>
      </trkpt>
      <trkpt lat="38.31292745" lon="-2.66473341">
        <ele>749.00000</ele>
        <time>2018-10-13T14:26:56Z</time>
      </trkpt>
      <trkpt lat="38.31283047" lon="-2.66486559">
        <ele>750.00000</ele>
        <time>2018-10-13T14:27:01Z</time>
      </trkpt>
      <trkpt lat="38.31264582" lon="-2.66511077">
        <ele>751.00000</ele>
        <time>2018-10-13T14:27:11Z</time>
      </trkpt>
      <trkpt lat="38.31257256" lon="-2.66519366">
        <ele>752.00000</ele>
        <time>2018-10-13T14:27:15Z</time>
      </trkpt>
      <trkpt lat="38.31245270" lon="-2.66532241">
        <ele>753.00000</ele>
        <time>2018-10-13T14:27:21Z</time>
      </trkpt>
      <trkpt lat="38.31231633" lon="-2.66544026">
        <ele>754.00000</ele>
        <time>2018-10-13T14:27:27Z</time>
      </trkpt>
      <trkpt lat="38.31222572" lon="-2.66551963">
        <ele>755.00000</ele>
        <time>2018-10-13T14:27:31Z</time>
      </trkpt>
      <trkpt lat="38.31216126" lon="-2.66558300">
        <ele>755.00000</ele>
        <time>2018-10-13T14:27:34Z</time>
      </trkpt>
      <trkpt lat="38.31202581" lon="-2.66570957">
        <ele>757.00000</ele>
        <time>2018-10-13T14:27:40Z</time>
      </trkpt>
      <trkpt lat="38.31186220" lon="-2.66585516">
        <ele>758.00000</ele>
        <time>2018-10-13T14:27:47Z</time>
      </trkpt>
      <trkpt lat="38.31164628" lon="-2.66594870">
        <ele>759.00000</ele>
        <time>2018-10-13T14:27:55Z</time>
      </trkpt>
      <trkpt lat="38.31147344" lon="-2.66596438">
        <ele>760.00000</ele>
        <time>2018-10-13T14:28:01Z</time>
      </trkpt>
      <trkpt lat="38.31124822" lon="-2.66590378">
        <ele>761.00000</ele>
        <time>2018-10-13T14:28:09Z</time>
      </trkpt>
      <trkpt lat="38.31112249" lon="-2.66581652">
        <ele>762.00000</ele>
        <time>2018-10-13T14:28:14Z</time>
      </trkpt>
      <trkpt lat="38.31096583" lon="-2.66565752">
        <ele>763.00000</ele>
        <time>2018-10-13T14:28:21Z</time>
      </trkpt>
      <trkpt lat="38.31080163" lon="-2.66545836">
        <ele>764.00000</ele>
        <time>2018-10-13T14:28:29Z</time>
      </trkpt>
      <trkpt lat="38.31068722" lon="-2.66530145">
        <ele>765.00000</ele>
        <time>2018-10-13T14:28:35Z</time>
      </trkpt>
      <trkpt lat="38.31051061" lon="-2.66512166">
        <ele>766.00000</ele>
        <time>2018-10-13T14:28:43Z</time>
      </trkpt>
      <trkpt lat="38.31039411" lon="-2.66502326">
        <ele>767.00000</ele>
        <time>2018-10-13T14:28:48Z</time>
      </trkpt>
      <trkpt lat="38.31036904" lon="-2.66500683">
        <ele>767.00000</ele>
        <time>2018-10-13T14:28:49Z</time>
      </trkpt>
      <trkpt lat="38.31021373" lon="-2.66491664">
        <ele>769.00000</ele>
        <time>2018-10-13T14:28:55Z</time>
      </trkpt>
      <trkpt lat="38.30996755" lon="-2.66482528">
        <ele>770.00000</ele>
        <time>2018-10-13T14:29:04Z</time>
      </trkpt>
      <trkpt lat="38.30963881" lon="-2.66478496">
        <ele>771.00000</ele>
        <time>2018-10-13T14:29:15Z</time>
      </trkpt>
      <trkpt lat="38.30944527" lon="-2.66484858">
        <ele>772.00000</ele>
        <time>2018-10-13T14:29:21Z</time>
      </trkpt>
      <trkpt lat="38.30924503" lon="-2.66500809">
        <ele>772.00000</ele>
        <time>2018-10-13T14:29:27Z</time>
      </trkpt>
      <trkpt lat="38.30912282" lon="-2.66515896">
        <ele>772.00000</ele>
        <time>2018-10-13T14:29:31Z</time>
      </trkpt>
      <trkpt lat="38.30913053" lon="-2.66558049">
        <ele>772.00000</ele>
        <time>2018-10-13T14:29:41Z</time>
      </trkpt>
      <trkpt lat="38.30919214" lon="-2.66568895">
        <ele>773.00000</ele>
        <time>2018-10-13T14:29:44Z</time>
      </trkpt>
      <trkpt lat="38.30930714" lon="-2.66593370">
        <ele>774.00000</ele>
        <time>2018-10-13T14:29:51Z</time>
      </trkpt>
      <trkpt lat="38.30929214" lon="-2.66617259">
        <ele>775.00000</ele>
        <time>2018-10-13T14:29:57Z</time>
      </trkpt>
      <trkpt lat="38.30916121" lon="-2.66635028">
        <ele>776.00000</ele>
        <time>2018-10-13T14:30:03Z</time>
      </trkpt>
      <trkpt lat="38.30897027" lon="-2.66639898">
        <ele>778.00000</ele>
        <time>2018-10-13T14:30:09Z</time>
      </trkpt>
      <trkpt lat="38.30877782" lon="-2.66642111">
        <ele>779.00000</ele>
        <time>2018-10-13T14:30:15Z</time>
      </trkpt>
      <trkpt lat="38.30852293" lon="-2.66644290">
        <ele>780.00000</ele>
        <time>2018-10-13T14:30:23Z</time>
      </trkpt>
      <trkpt lat="38.30824390" lon="-2.66647140">
        <ele>781.00000</ele>
        <time>2018-10-13T14:30:32Z</time>
      </trkpt>
      <trkpt lat="38.30800107" lon="-2.66648867">
        <ele>782.00000</ele>
        <time>2018-10-13T14:30:40Z</time>
      </trkpt>
      <trkpt lat="38.30778834" lon="-2.66643997">
        <ele>783.00000</ele>
        <time>2018-10-13T14:30:47Z</time>
      </trkpt>
      <trkpt lat="38.30755373" lon="-2.66632036">
        <ele>784.00000</ele>
        <time>2018-10-13T14:30:55Z</time>
      </trkpt>
      <trkpt lat="38.30719565" lon="-2.66620444">
        <ele>785.00000</ele>
        <time>2018-10-13T14:31:07Z</time>
      </trkpt>
      <trkpt lat="38.30699700" lon="-2.66620284">
        <ele>786.00000</ele>
        <time>2018-10-13T14:31:13Z</time>
      </trkpt>
      <trkpt lat="38.30696381" lon="-2.66620234">
        <ele>786.00000</ele>
        <time>2018-10-13T14:31:14Z</time>
      </trkpt>
      <trkpt lat="38.30679894" lon="-2.66616521">
        <ele>787.00000</ele>
        <time>2018-10-13T14:31:19Z</time>
      </trkpt>
      <trkpt lat="38.30676910" lon="-2.66614643">
        <ele>787.00000</ele>
        <time>2018-10-13T14:31:20Z</time>
      </trkpt>
      <trkpt lat="38.30664010" lon="-2.66600403">
        <ele>788.00000</ele>
        <time>2018-10-13T14:31:25Z</time>
      </trkpt>
      <trkpt lat="38.30655536" lon="-2.66581183">
        <ele>790.00000</ele>
        <time>2018-10-13T14:31:30Z</time>
      </trkpt>
      <trkpt lat="38.30647297" lon="-2.66554947">
        <ele>791.00000</ele>
        <time>2018-10-13T14:31:37Z</time>
      </trkpt>
      <trkpt lat="38.30639175" lon="-2.66533724">
        <ele>792.00000</ele>
        <time>2018-10-13T14:31:43Z</time>
      </trkpt>
      <trkpt lat="38.30629502" lon="-2.66508964">
        <ele>793.00000</ele>
        <time>2018-10-13T14:31:50Z</time>
      </trkpt>
      <trkpt lat="38.30617491" lon="-2.66485160">
        <ele>794.00000</ele>
        <time>2018-10-13T14:31:57Z</time>
      </trkpt>
      <trkpt lat="38.30608086" lon="-2.66464917">
        <ele>795.00000</ele>
        <time>2018-10-13T14:32:03Z</time>
      </trkpt>
      <trkpt lat="38.30606670" lon="-2.66461271">
        <ele>795.00000</ele>
        <time>2018-10-13T14:32:04Z</time>
      </trkpt>
      <trkpt lat="38.30595656" lon="-2.66432412">
        <ele>796.00000</ele>
        <time>2018-10-13T14:32:12Z</time>
      </trkpt>
      <trkpt lat="38.30588020" lon="-2.66409873">
        <ele>797.00000</ele>
        <time>2018-10-13T14:32:18Z</time>
      </trkpt>
      <trkpt lat="38.30582949" lon="-2.66368534">
        <ele>799.00000</ele>
        <time>2018-10-13T14:32:28Z</time>
      </trkpt>
      <trkpt lat="38.30560628" lon="-2.66311621">
        <ele>799.00000</ele>
        <time>2018-10-13T14:32:43Z</time>
      </trkpt>
      <trkpt lat="38.30550469" lon="-2.66307078">
        <ele>800.00000</ele>
        <time>2018-10-13T14:32:46Z</time>
      </trkpt>
      <trkpt lat="38.30532758" lon="-2.66301487">
        <ele>801.00000</ele>
        <time>2018-10-13T14:32:51Z</time>
      </trkpt>
      <trkpt lat="38.30511501" lon="-2.66297615">
        <ele>802.00000</ele>
        <time>2018-10-13T14:32:57Z</time>
      </trkpt>
      <trkpt lat="38.30485685" lon="-2.66294924">
        <ele>803.00000</ele>
        <time>2018-10-13T14:33:04Z</time>
      </trkpt>
      <trkpt lat="38.30446517" lon="-2.66283893">
        <ele>804.00000</ele>
        <time>2018-10-13T14:33:15Z</time>
      </trkpt>
      <trkpt lat="38.30412821" lon="-2.66259821">
        <ele>805.00000</ele>
        <time>2018-10-13T14:33:25Z</time>
      </trkpt>
      <trkpt lat="38.30405462" lon="-2.66252989">
        <ele>805.00000</ele>
        <time>2018-10-13T14:33:27Z</time>
      </trkpt>
      <trkpt lat="38.30387030" lon="-2.66235698">
        <ele>805.00000</ele>
        <time>2018-10-13T14:33:31Z</time>
      </trkpt>
      <trkpt lat="38.30373862" lon="-2.66230769">
        <ele>805.00000</ele>
        <time>2018-10-13T14:33:33Z</time>
      </trkpt>
      <trkpt lat="38.30359487" lon="-2.66236955">
        <ele>805.00000</ele>
        <time>2018-10-13T14:33:35Z</time>
      </trkpt>
      <trkpt lat="38.30349320" lon="-2.66252839">
        <ele>804.00000</ele>
        <time>2018-10-13T14:33:37Z</time>
      </trkpt>
      <trkpt lat="38.30346747" lon="-2.66262260">
        <ele>804.00000</ele>
        <time>2018-10-13T14:33:38Z</time>
      </trkpt>
      <trkpt lat="38.30347191" lon="-2.66280474">
        <ele>803.00000</ele>
        <time>2018-10-13T14:33:40Z</time>
      </trkpt>
      <trkpt lat="38.30350561" lon="-2.66295108">
        <ele>802.00000</ele>
        <time>2018-10-13T14:33:42Z</time>
      </trkpt>
      <trkpt lat="38.30354819" lon="-2.66308654">
        <ele>802.00000</ele>
        <time>2018-10-13T14:33:44Z</time>
      </trkpt>
      <trkpt lat="38.30358775" lon="-2.66323490">
        <ele>802.00000</ele>
        <time>2018-10-13T14:33:46Z</time>
      </trkpt>
      <trkpt lat="38.30360099" lon="-2.66332056">
        <ele>802.00000</ele>
        <time>2018-10-13T14:33:47Z</time>
      </trkpt>
      <trkpt lat="38.30360275" lon="-2.66351535">
        <ele>802.00000</ele>
        <time>2018-10-13T14:33:49Z</time>
      </trkpt>
      <trkpt lat="38.30357233" lon="-2.66369372">
        <ele>802.00000</ele>
        <time>2018-10-13T14:33:51Z</time>
      </trkpt>
      <trkpt lat="38.30347593" lon="-2.66391383">
        <ele>802.00000</ele>
        <time>2018-10-13T14:33:54Z</time>
      </trkpt>
      <trkpt lat="38.30327368" lon="-2.66410770">
        <ele>803.00000</ele>
        <time>2018-10-13T14:33:58Z</time>
      </trkpt>
      <trkpt lat="38.30310738" lon="-2.66415833">
        <ele>804.00000</ele>
        <time>2018-10-13T14:34:01Z</time>
      </trkpt>
      <trkpt lat="38.30300210" lon="-2.66416965">
        <ele>804.00000</ele>
        <time>2018-10-13T14:34:03Z</time>
      </trkpt>
      <trkpt lat="38.30290420" lon="-2.66417275">
        <ele>805.00000</ele>
        <time>2018-10-13T14:34:05Z</time>
      </trkpt>
      <trkpt lat="38.30273246" lon="-2.66420502">
        <ele>806.00000</ele>
        <time>2018-10-13T14:34:09Z</time>
      </trkpt>
      <trkpt lat="38.30261469" lon="-2.66423494">
        <ele>807.00000</ele>
        <time>2018-10-13T14:34:12Z</time>
      </trkpt>
      <trkpt lat="38.30246591" lon="-2.66426260">
        <ele>808.00000</ele>
        <time>2018-10-13T14:34:16Z</time>
      </trkpt>
      <trkpt lat="38.30225771" lon="-2.66434734">
        <ele>810.00000</ele>
        <time>2018-10-13T14:34:22Z</time>
      </trkpt>
      <trkpt lat="38.30209024" lon="-2.66444080">
        <ele>811.00000</ele>
        <time>2018-10-13T14:34:27Z</time>
      </trkpt>
      <trkpt lat="38.30191338" lon="-2.66461087">
        <ele>811.00000</ele>
        <time>2018-10-13T14:34:33Z</time>
      </trkpt>
      <trkpt lat="38.30180265" lon="-2.66473551">
        <ele>812.00000</ele>
        <time>2018-10-13T14:34:37Z</time>
      </trkpt>
      <trkpt lat="38.30159034" lon="-2.66498797">
        <ele>813.00000</ele>
        <time>2018-10-13T14:34:45Z</time>
      </trkpt>
      <trkpt lat="38.30134710" lon="-2.66533934">
        <ele>814.00000</ele>
        <time>2018-10-13T14:34:56Z</time>
      </trkpt>
      <trkpt lat="38.30119119" lon="-2.66561192">
        <ele>815.00000</ele>
        <time>2018-10-13T14:35:04Z</time>
      </trkpt>
      <trkpt lat="38.30108935" lon="-2.66586245">
        <ele>816.00000</ele>
        <time>2018-10-13T14:35:11Z</time>
      </trkpt>
      <trkpt lat="38.30095910" lon="-2.66601978">
        <ele>817.00000</ele>
        <time>2018-10-13T14:35:17Z</time>
      </trkpt>
      <trkpt lat="38.30081828" lon="-2.66600403">
        <ele>818.00000</ele>
        <time>2018-10-13T14:35:22Z</time>
      </trkpt>
      <trkpt lat="38.30069834" lon="-2.66590084">
        <ele>819.00000</ele>
        <time>2018-10-13T14:35:27Z</time>
      </trkpt>
      <trkpt lat="38.30063422" lon="-2.66573715">
        <ele>820.00000</ele>
        <time>2018-10-13T14:35:32Z</time>
      </trkpt>
      <trkpt lat="38.30064746" lon="-2.66560002">
        <ele>821.00000</ele>
        <time>2018-10-13T14:35:36Z</time>
      </trkpt>
      <trkpt lat="38.30070831" lon="-2.66548250">
        <ele>822.00000</ele>
        <time>2018-10-13T14:35:40Z</time>
      </trkpt>
      <trkpt lat="38.30082667" lon="-2.66534781">
        <ele>824.00000</ele>
        <time>2018-10-13T14:35:46Z</time>
      </trkpt>
      <trkpt lat="38.30098324" lon="-2.66522644">
        <ele>825.00000</ele>
        <time>2018-10-13T14:35:52Z</time>
      </trkpt>
      <trkpt lat="38.30112841" lon="-2.66501546">
        <ele>826.00000</ele>
        <time>2018-10-13T14:36:00Z</time>
      </trkpt>
      <trkpt lat="38.30121475" lon="-2.66484749">
        <ele>827.00000</ele>
        <time>2018-10-13T14:36:06Z</time>
      </trkpt>
      <trkpt lat="38.30128289" lon="-2.66471003">
        <ele>828.00000</ele>
        <time>2018-10-13T14:36:11Z</time>
      </trkpt>
      <trkpt lat="38.30136939" lon="-2.66449277">
        <ele>829.00000</ele>
        <time>2018-10-13T14:36:19Z</time>
      </trkpt>
      <trkpt lat="38.30140996" lon="-2.66430149">
        <ele>830.00000</ele>
        <time>2018-10-13T14:36:26Z</time>
      </trkpt>
      <trkpt lat="38.30147542" lon="-2.66411265">
        <ele>831.00000</ele>
        <time>2018-10-13T14:36:33Z</time>
      </trkpt>
      <trkpt lat="38.30156084" lon="-2.66396462">
        <ele>833.00000</ele>
        <time>2018-10-13T14:36:39Z</time>
      </trkpt>
      <trkpt lat="38.30169017" lon="-2.66382381">
        <ele>834.00000</ele>
        <time>2018-10-13T14:36:46Z</time>
      </trkpt>
      <trkpt lat="38.30183895" lon="-2.66372079">
        <ele>835.00000</ele>
        <time>2018-10-13T14:36:53Z</time>
      </trkpt>
      <trkpt lat="38.30202654" lon="-2.66355165">
        <ele>836.00000</ele>
        <time>2018-10-13T14:37:02Z</time>
      </trkpt>
      <trkpt lat="38.30208948" lon="-2.66330597">
        <ele>837.00000</ele>
        <time>2018-10-13T14:37:10Z</time>
      </trkpt>
      <trkpt lat="38.30205679" lon="-2.66315015">
        <ele>838.00000</ele>
        <time>2018-10-13T14:37:15Z</time>
      </trkpt>
      <trkpt lat="38.30200181" lon="-2.66300632">
        <ele>839.00000</ele>
        <time>2018-10-13T14:37:20Z</time>
      </trkpt>
      <trkpt lat="38.30194037" lon="-2.66287037">
        <ele>840.00000</ele>
        <time>2018-10-13T14:37:25Z</time>
      </trkpt>
      <trkpt lat="38.30186585" lon="-2.66270650">
        <ele>841.00000</ele>
        <time>2018-10-13T14:37:31Z</time>
      </trkpt>
      <trkpt lat="38.30176762" lon="-2.66252981">
        <ele>842.00000</ele>
        <time>2018-10-13T14:37:38Z</time>
      </trkpt>
      <trkpt lat="38.30163267" lon="-2.66240039">
        <ele>843.00000</ele>
        <time>2018-10-13T14:37:45Z</time>
      </trkpt>
      <trkpt lat="38.30147232" lon="-2.66227223">
        <ele>845.00000</ele>
        <time>2018-10-13T14:37:52Z</time>
      </trkpt>
      <trkpt lat="38.30136545" lon="-2.66209177">
        <ele>846.00000</ele>
        <time>2018-10-13T14:37:59Z</time>
      </trkpt>
      <trkpt lat="38.30133771" lon="-2.66187736">
        <ele>847.00000</ele>
        <time>2018-10-13T14:38:06Z</time>
      </trkpt>
      <trkpt lat="38.30128868" lon="-2.66166488">
        <ele>848.00000</ele>
        <time>2018-10-13T14:38:13Z</time>
      </trkpt>
      <trkpt lat="38.30115155" lon="-2.66152574">
        <ele>849.00000</ele>
        <time>2018-10-13T14:38:20Z</time>
      </trkpt>
      <trkpt lat="38.30099849" lon="-2.66151627">
        <ele>850.00000</ele>
        <time>2018-10-13T14:38:26Z</time>
      </trkpt>
      <trkpt lat="38.30082055" lon="-2.66148920">
        <ele>851.00000</ele>
        <time>2018-10-13T14:38:33Z</time>
      </trkpt>
      <trkpt lat="38.30070982" lon="-2.66144402">
        <ele>852.00000</ele>
        <time>2018-10-13T14:38:38Z</time>
      </trkpt>
      <trkpt lat="38.30069390" lon="-2.66142331">
        <ele>853.00000</ele>
        <time>2018-10-13T14:38:39Z</time>
      </trkpt>
      <trkpt lat="38.30063514" lon="-2.66138283">
        <ele>853.00000</ele>
        <time>2018-10-13T14:38:42Z</time>
      </trkpt>
      <trkpt lat="38.30057328" lon="-2.66134344">
        <ele>854.00000</ele>
        <time>2018-10-13T14:38:45Z</time>
      </trkpt>
      <trkpt lat="38.30046700" lon="-2.66129985">
        <ele>855.00000</ele>
        <time>2018-10-13T14:38:50Z</time>
      </trkpt>
      <trkpt lat="38.30034043" lon="-2.66125258">
        <ele>856.00000</ele>
        <time>2018-10-13T14:38:56Z</time>
      </trkpt>
      <trkpt lat="38.30023054" lon="-2.66120069">
        <ele>857.00000</ele>
        <time>2018-10-13T14:39:01Z</time>
      </trkpt>
      <trkpt lat="38.30009995" lon="-2.66108175">
        <ele>858.00000</ele>
        <time>2018-10-13T14:39:08Z</time>
      </trkpt>
      <trkpt lat="38.29992972" lon="-2.66095929">
        <ele>859.00000</ele>
        <time>2018-10-13T14:39:16Z</time>
      </trkpt>
      <trkpt lat="38.29975529" lon="-2.66093046">
        <ele>860.00000</ele>
        <time>2018-10-13T14:39:23Z</time>
      </trkpt>
      <trkpt lat="38.29959813" lon="-2.66093834">
        <ele>861.00000</ele>
        <time>2018-10-13T14:39:29Z</time>
      </trkpt>
      <trkpt lat="38.29936905" lon="-2.66090942">
        <ele>863.00000</ele>
        <time>2018-10-13T14:39:38Z</time>
      </trkpt>
      <trkpt lat="38.29923477" lon="-2.66086927">
        <ele>863.00000</ele>
        <time>2018-10-13T14:39:43Z</time>
      </trkpt>
      <trkpt lat="38.29914199" lon="-2.66084538">
        <ele>864.00000</ele>
        <time>2018-10-13T14:39:46Z</time>
      </trkpt>
      <trkpt lat="38.29861066" lon="-2.66055403">
        <ele>863.00000</ele>
        <time>2018-10-13T14:40:01Z</time>
      </trkpt>
      <trkpt lat="38.29848728" lon="-2.66048789">
        <ele>863.00000</ele>
        <time>2018-10-13T14:40:04Z</time>
      </trkpt>
      <trkpt lat="38.29834906" lon="-2.66043676">
        <ele>863.00000</ele>
        <time>2018-10-13T14:40:08Z</time>
      </trkpt>
      <trkpt lat="38.29831846" lon="-2.66041263">
        <ele>863.00000</ele>
        <time>2018-10-13T14:40:09Z</time>
      </trkpt>
      <trkpt lat="38.29820338" lon="-2.66032889">
        <ele>863.00000</ele>
        <time>2018-10-13T14:40:12Z</time>
      </trkpt>
      <trkpt lat="38.29798227" lon="-2.66019319">
        <ele>863.00000</ele>
        <time>2018-10-13T14:40:17Z</time>
      </trkpt>
      <trkpt lat="38.29794329" lon="-2.66016595">
        <ele>863.00000</ele>
        <time>2018-10-13T14:40:18Z</time>
      </trkpt>
      <trkpt lat="38.29787297" lon="-2.66010325">
        <ele>863.00000</ele>
        <time>2018-10-13T14:40:20Z</time>
      </trkpt>
      <trkpt lat="38.29781128" lon="-2.66004223">
        <ele>863.00000</ele>
        <time>2018-10-13T14:40:22Z</time>
      </trkpt>
      <trkpt lat="38.29732756" lon="-2.65981399">
        <ele>864.00000</ele>
        <time>2018-10-13T14:40:37Z</time>
      </trkpt>
      <trkpt lat="38.29706260" lon="-2.65980276">
        <ele>864.00000</ele>
        <time>2018-10-13T14:40:45Z</time>
      </trkpt>
      <trkpt lat="38.29701860" lon="-2.65981575">
        <ele>864.00000</ele>
        <time>2018-10-13T14:40:47Z</time>
      </trkpt>
      <trkpt lat="38.29698708" lon="-2.65982246">
        <ele>864.00000</ele>
        <time>2018-10-13T14:40:50Z</time>
      </trkpt>
      <trkpt lat="38.29702237" lon="-2.65983603">
        <ele>866.00000</ele>
        <time>2018-10-13T14:43:11Z</time>
      </trkpt>
      <trkpt lat="38.29704576" lon="-2.65983042">
        <ele>866.00000</ele>
        <time>2018-10-13T14:43:12Z</time>
      </trkpt>
      <trkpt lat="38.29729906" lon="-2.65977015">
        <ele>866.00000</ele>
        <time>2018-10-13T14:43:19Z</time>
      </trkpt>
      <trkpt lat="38.29734197" lon="-2.65976998">
        <ele>866.00000</ele>
        <time>2018-10-13T14:43:20Z</time>
      </trkpt>
      <trkpt lat="38.29752084" lon="-2.65981022">
        <ele>865.00000</ele>
        <time>2018-10-13T14:43:24Z</time>
      </trkpt>
      <trkpt lat="38.29761095" lon="-2.65984651">
        <ele>865.00000</ele>
        <time>2018-10-13T14:43:26Z</time>
      </trkpt>
      <trkpt lat="38.29769980" lon="-2.65990016">
        <ele>865.00000</ele>
        <time>2018-10-13T14:43:28Z</time>
      </trkpt>
      <trkpt lat="38.29791630" lon="-2.66010342">
        <ele>864.00000</ele>
        <time>2018-10-13T14:43:33Z</time>
      </trkpt>
      <trkpt lat="38.29793960" lon="-2.66016787">
        <ele>864.00000</ele>
        <time>2018-10-13T14:43:34Z</time>
      </trkpt>
      <trkpt lat="38.29776786" lon="-2.66050701">
        <ele>863.00000</ele>
        <time>2018-10-13T14:43:40Z</time>
      </trkpt>
      <trkpt lat="38.29767834" lon="-2.66056451">
        <ele>863.00000</ele>
        <time>2018-10-13T14:43:42Z</time>
      </trkpt>
      <trkpt lat="38.29727894" lon="-2.66050600">
        <ele>862.00000</ele>
        <time>2018-10-13T14:43:50Z</time>
      </trkpt>
      <trkpt lat="38.29722169" lon="-2.66047599">
        <ele>862.00000</ele>
        <time>2018-10-13T14:43:51Z</time>
      </trkpt>
      <trkpt lat="38.29675993" lon="-2.66080305">
        <ele>861.00000</ele>
        <time>2018-10-13T14:43:58Z</time>
      </trkpt>
      <trkpt lat="38.29671015" lon="-2.66090003">
        <ele>860.00000</ele>
        <time>2018-10-13T14:43:59Z</time>
      </trkpt>
      <trkpt lat="38.29661442" lon="-2.66109600">
        <ele>859.00000</ele>
        <time>2018-10-13T14:44:01Z</time>
      </trkpt>
      <trkpt lat="38.29656564" lon="-2.66119323">
        <ele>858.00000</ele>
        <time>2018-10-13T14:44:02Z</time>
      </trkpt>
      <trkpt lat="38.29650663" lon="-2.66128191">
        <ele>857.00000</ele>
        <time>2018-10-13T14:44:03Z</time>
      </trkpt>
      <trkpt lat="38.29643279" lon="-2.66135416">
        <ele>856.00000</ele>
        <time>2018-10-13T14:44:04Z</time>
      </trkpt>
      <trkpt lat="38.29625484" lon="-2.66143388">
        <ele>855.00000</ele>
        <time>2018-10-13T14:44:06Z</time>
      </trkpt>
      <trkpt lat="38.29605384" lon="-2.66142407">
        <ele>854.00000</ele>
        <time>2018-10-13T14:44:08Z</time>
      </trkpt>
      <trkpt lat="38.29595116" lon="-2.66139825">
        <ele>854.00000</ele>
        <time>2018-10-13T14:44:09Z</time>
      </trkpt>
      <trkpt lat="38.29584614" lon="-2.66137571">
        <ele>853.00000</ele>
        <time>2018-10-13T14:44:10Z</time>
      </trkpt>
      <trkpt lat="38.29573902" lon="-2.66136716">
        <ele>853.00000</ele>
        <time>2018-10-13T14:44:11Z</time>
      </trkpt>
      <trkpt lat="38.29563005" lon="-2.66137051">
        <ele>852.00000</ele>
        <time>2018-10-13T14:44:12Z</time>
      </trkpt>
      <trkpt lat="38.29541028" lon="-2.66137462">
        <ele>851.00000</ele>
        <time>2018-10-13T14:44:14Z</time>
      </trkpt>
      <trkpt lat="38.29507492" lon="-2.66141393">
        <ele>849.00000</ele>
        <time>2018-10-13T14:44:17Z</time>
      </trkpt>
      <trkpt lat="38.29496453" lon="-2.66145517">
        <ele>848.00000</ele>
        <time>2018-10-13T14:44:18Z</time>
      </trkpt>
      <trkpt lat="38.29486059" lon="-2.66150546">
        <ele>847.00000</ele>
        <time>2018-10-13T14:44:19Z</time>
      </trkpt>
      <trkpt lat="38.29476739" lon="-2.66156187">
        <ele>846.00000</ele>
        <time>2018-10-13T14:44:20Z</time>
      </trkpt>
      <trkpt lat="38.29468835" lon="-2.66163420">
        <ele>845.00000</ele>
        <time>2018-10-13T14:44:21Z</time>
      </trkpt>
      <trkpt lat="38.29462758" lon="-2.66172842">
        <ele>844.00000</ele>
        <time>2018-10-13T14:44:22Z</time>
      </trkpt>
      <trkpt lat="38.29456957" lon="-2.66195691">
        <ele>842.00000</ele>
        <time>2018-10-13T14:44:24Z</time>
      </trkpt>
      <trkpt lat="38.29458768" lon="-2.66221297">
        <ele>841.00000</ele>
        <time>2018-10-13T14:44:26Z</time>
      </trkpt>
      <trkpt lat="38.29459413" lon="-2.66263215">
        <ele>840.00000</ele>
        <time>2018-10-13T14:44:29Z</time>
      </trkpt>
      <trkpt lat="38.29450269" lon="-2.66290406">
        <ele>839.00000</ele>
        <time>2018-10-13T14:44:31Z</time>
      </trkpt>
      <trkpt lat="38.29434544" lon="-2.66314705">
        <ele>837.00000</ele>
        <time>2018-10-13T14:44:33Z</time>
      </trkpt>
      <trkpt lat="38.29425894" lon="-2.66326683">
        <ele>836.00000</ele>
        <time>2018-10-13T14:44:34Z</time>
      </trkpt>
      <trkpt lat="38.29417672" lon="-2.66339298">
        <ele>835.00000</ele>
        <time>2018-10-13T14:44:35Z</time>
      </trkpt>
      <trkpt lat="38.29410186" lon="-2.66352751">
        <ele>834.00000</ele>
        <time>2018-10-13T14:44:36Z</time>
      </trkpt>
      <trkpt lat="38.29403213" lon="-2.66366740">
        <ele>833.00000</ele>
        <time>2018-10-13T14:44:37Z</time>
      </trkpt>
      <trkpt lat="38.29396482" lon="-2.66380989">
        <ele>831.00000</ele>
        <time>2018-10-13T14:44:38Z</time>
      </trkpt>
      <trkpt lat="38.29389902" lon="-2.66395180">
        <ele>830.00000</ele>
        <time>2018-10-13T14:44:39Z</time>
      </trkpt>
      <trkpt lat="38.29383867" lon="-2.66408734">
        <ele>829.00000</ele>
        <time>2018-10-13T14:44:40Z</time>
      </trkpt>
      <trkpt lat="38.29374966" lon="-2.66433376">
        <ele>827.00000</ele>
        <time>2018-10-13T14:44:42Z</time>
      </trkpt>
      <trkpt lat="38.29369031" lon="-2.66455287">
        <ele>825.00000</ele>
        <time>2018-10-13T14:44:44Z</time>
      </trkpt>
      <trkpt lat="38.29358328" lon="-2.66471975">
        <ele>824.00000</ele>
        <time>2018-10-13T14:44:46Z</time>
      </trkpt>
      <trkpt lat="38.29341807" lon="-2.66482410">
        <ele>823.00000</ele>
        <time>2018-10-13T14:44:48Z</time>
      </trkpt>
      <trkpt lat="38.29333031" lon="-2.66487549">
        <ele>823.00000</ele>
        <time>2018-10-13T14:44:49Z</time>
      </trkpt>
      <trkpt lat="38.29324473" lon="-2.66493542">
        <ele>822.00000</ele>
        <time>2018-10-13T14:44:50Z</time>
      </trkpt>
      <trkpt lat="38.29302068" lon="-2.66517028">
        <ele>821.00000</ele>
        <time>2018-10-13T14:44:53Z</time>
      </trkpt>
      <trkpt lat="38.29295723" lon="-2.66525921">
        <ele>821.00000</ele>
        <time>2018-10-13T14:44:54Z</time>
      </trkpt>
      <trkpt lat="38.29283611" lon="-2.66543657">
        <ele>820.00000</ele>
        <time>2018-10-13T14:44:56Z</time>
      </trkpt>
      <trkpt lat="38.29271323" lon="-2.66560731">
        <ele>818.00000</ele>
        <time>2018-10-13T14:44:58Z</time>
      </trkpt>
      <trkpt lat="38.29253512" lon="-2.66586178">
        <ele>817.00000</ele>
        <time>2018-10-13T14:45:01Z</time>
      </trkpt>
      <trkpt lat="38.29241727" lon="-2.66602297">
        <ele>817.00000</ele>
        <time>2018-10-13T14:45:03Z</time>
      </trkpt>
      <trkpt lat="38.29235357" lon="-2.66609438">
        <ele>817.00000</ele>
        <time>2018-10-13T14:45:04Z</time>
      </trkpt>
      <trkpt lat="38.29200756" lon="-2.66643175">
        <ele>817.00000</ele>
        <time>2018-10-13T14:45:09Z</time>
      </trkpt>
      <trkpt lat="38.29167748" lon="-2.66701187">
        <ele>816.00000</ele>
        <time>2018-10-13T14:45:15Z</time>
      </trkpt>
      <trkpt lat="38.29161336" lon="-2.66711396">
        <ele>816.00000</ele>
        <time>2018-10-13T14:45:16Z</time>
      </trkpt>
      <trkpt lat="38.29135168" lon="-2.66737036">
        <ele>815.00000</ele>
        <time>2018-10-13T14:45:19Z</time>
      </trkpt>
      <trkpt lat="38.29124908" lon="-2.66744001">
        <ele>814.00000</ele>
        <time>2018-10-13T14:45:20Z</time>
      </trkpt>
      <trkpt lat="38.29114490" lon="-2.66750883">
        <ele>813.00000</ele>
        <time>2018-10-13T14:45:21Z</time>
      </trkpt>
      <trkpt lat="38.29093887" lon="-2.66764143">
        <ele>812.00000</ele>
        <time>2018-10-13T14:45:23Z</time>
      </trkpt>
      <trkpt lat="38.29074516" lon="-2.66777093">
        <ele>811.00000</ele>
        <time>2018-10-13T14:45:25Z</time>
      </trkpt>
      <trkpt lat="38.29055808" lon="-2.66789305">
        <ele>807.00000</ele>
        <time>2018-10-13T14:45:27Z</time>
      </trkpt>
      <trkpt lat="38.29037770" lon="-2.66801149">
        <ele>806.00000</ele>
        <time>2018-10-13T14:45:29Z</time>
      </trkpt>
      <trkpt lat="38.28982173" lon="-2.66839060">
        <ele>806.00000</ele>
        <time>2018-10-13T14:45:35Z</time>
      </trkpt>
      <trkpt lat="38.28961201" lon="-2.66851499">
        <ele>805.00000</ele>
        <time>2018-10-13T14:45:37Z</time>
      </trkpt>
      <trkpt lat="38.28950104" lon="-2.66856621">
        <ele>805.00000</ele>
        <time>2018-10-13T14:45:38Z</time>
      </trkpt>
      <trkpt lat="38.28916341" lon="-2.66867157">
        <ele>804.00000</ele>
        <time>2018-10-13T14:45:41Z</time>
      </trkpt>
      <trkpt lat="38.28905479" lon="-2.66872127">
        <ele>803.00000</ele>
        <time>2018-10-13T14:45:42Z</time>
      </trkpt>
      <trkpt lat="38.28895605" lon="-2.66878824">
        <ele>802.00000</ele>
        <time>2018-10-13T14:45:43Z</time>
      </trkpt>
      <trkpt lat="38.28878606" lon="-2.66898647">
        <ele>800.00000</ele>
        <time>2018-10-13T14:45:45Z</time>
      </trkpt>
      <trkpt lat="38.28864860" lon="-2.66923558">
        <ele>799.00000</ele>
        <time>2018-10-13T14:45:47Z</time>
      </trkpt>
      <trkpt lat="38.28845380" lon="-2.66963398">
        <ele>797.00000</ele>
        <time>2018-10-13T14:45:50Z</time>
      </trkpt>
      <trkpt lat="38.28839379" lon="-2.66975635">
        <ele>795.00000</ele>
        <time>2018-10-13T14:45:51Z</time>
      </trkpt>
      <trkpt lat="38.28833176" lon="-2.66987076">
        <ele>794.00000</ele>
        <time>2018-10-13T14:45:52Z</time>
      </trkpt>
      <trkpt lat="38.28826555" lon="-2.66996841">
        <ele>792.00000</ele>
        <time>2018-10-13T14:45:53Z</time>
      </trkpt>
      <trkpt lat="38.28819480" lon="-2.67004695">
        <ele>791.00000</ele>
        <time>2018-10-13T14:45:54Z</time>
      </trkpt>
      <trkpt lat="38.28811995" lon="-2.67010152">
        <ele>790.00000</ele>
        <time>2018-10-13T14:45:55Z</time>
      </trkpt>
      <trkpt lat="38.28803714" lon="-2.67013605">
        <ele>789.00000</ele>
        <time>2018-10-13T14:45:56Z</time>
      </trkpt>
      <trkpt lat="38.28786556" lon="-2.67012415">
        <ele>787.00000</ele>
        <time>2018-10-13T14:45:58Z</time>
      </trkpt>
      <trkpt lat="38.28770622" lon="-2.66980882">
        <ele>786.00000</ele>
        <time>2018-10-13T14:46:02Z</time>
      </trkpt>
      <trkpt lat="38.28774394" lon="-2.66965745">
        <ele>786.00000</ele>
        <time>2018-10-13T14:46:04Z</time>
      </trkpt>
      <trkpt lat="38.28799699" lon="-2.66944278">
        <ele>786.00000</ele>
        <time>2018-10-13T14:46:08Z</time>
      </trkpt>
      <trkpt lat="38.28815440" lon="-2.66931144">
        <ele>786.00000</ele>
        <time>2018-10-13T14:46:10Z</time>
      </trkpt>
      <trkpt lat="38.28835649" lon="-2.66878212">
        <ele>785.00000</ele>
        <time>2018-10-13T14:46:15Z</time>
      </trkpt>
      <trkpt lat="38.28829279" lon="-2.66857769">
        <ele>783.00000</ele>
        <time>2018-10-13T14:46:17Z</time>
      </trkpt>
      <trkpt lat="38.28816429" lon="-2.66840628">
        <ele>782.00000</ele>
        <time>2018-10-13T14:46:19Z</time>
      </trkpt>
      <trkpt lat="38.28801350" lon="-2.66823722">
        <ele>780.00000</ele>
        <time>2018-10-13T14:46:21Z</time>
      </trkpt>
      <trkpt lat="38.28778903" lon="-2.66797092">
        <ele>779.00000</ele>
        <time>2018-10-13T14:46:24Z</time>
      </trkpt>
      <trkpt lat="38.28769801" lon="-2.66774361">
        <ele>777.00000</ele>
        <time>2018-10-13T14:46:26Z</time>
      </trkpt>
      <trkpt lat="38.28766289" lon="-2.66747949">
        <ele>776.00000</ele>
        <time>2018-10-13T14:46:28Z</time>
      </trkpt>
      <trkpt lat="38.28763045" lon="-2.66722477">
        <ele>775.00000</ele>
        <time>2018-10-13T14:46:30Z</time>
      </trkpt>
      <trkpt lat="38.28754311" lon="-2.66701891">
        <ele>773.00000</ele>
        <time>2018-10-13T14:46:32Z</time>
      </trkpt>
      <trkpt lat="38.28730984" lon="-2.66680475">
        <ele>772.00000</ele>
        <time>2018-10-13T14:46:35Z</time>
      </trkpt>
      <trkpt lat="38.28722544" lon="-2.66673501">
        <ele>770.00000</ele>
        <time>2018-10-13T14:46:36Z</time>
      </trkpt>
      <trkpt lat="38.28705335" lon="-2.66658447">
        <ele>769.00000</ele>
        <time>2018-10-13T14:46:38Z</time>
      </trkpt>
      <trkpt lat="38.28687935" lon="-2.66641792">
        <ele>768.00000</ele>
        <time>2018-10-13T14:46:40Z</time>
      </trkpt>
      <trkpt lat="38.28670743" lon="-2.66623201">
        <ele>766.00000</ele>
        <time>2018-10-13T14:46:42Z</time>
      </trkpt>
      <trkpt lat="38.28656360" lon="-2.66604568">
        <ele>765.00000</ele>
        <time>2018-10-13T14:46:44Z</time>
      </trkpt>
      <trkpt lat="38.28651281" lon="-2.66595021">
        <ele>764.00000</ele>
        <time>2018-10-13T14:46:45Z</time>
      </trkpt>
      <trkpt lat="38.28647517" lon="-2.66584770">
        <ele>763.00000</ele>
        <time>2018-10-13T14:46:46Z</time>
      </trkpt>
      <trkpt lat="38.28645111" lon="-2.66562072">
        <ele>761.00000</ele>
        <time>2018-10-13T14:46:48Z</time>
      </trkpt>
      <trkpt lat="38.28637903" lon="-2.66528670">
        <ele>760.00000</ele>
        <time>2018-10-13T14:46:51Z</time>
      </trkpt>
      <trkpt lat="38.28632027" lon="-2.66520548">
        <ele>760.00000</ele>
        <time>2018-10-13T14:46:52Z</time>
      </trkpt>
      <trkpt lat="38.28608256" lon="-2.66516097">
        <ele>760.00000</ele>
        <time>2018-10-13T14:46:55Z</time>
      </trkpt>
      <trkpt lat="38.28591970" lon="-2.66539659">
        <ele>759.00000</ele>
        <time>2018-10-13T14:46:58Z</time>
      </trkpt>
      <trkpt lat="38.28591476" lon="-2.66577495">
        <ele>758.00000</ele>
        <time>2018-10-13T14:47:01Z</time>
      </trkpt>
      <trkpt lat="38.28593219" lon="-2.66590579">
        <ele>757.00000</ele>
        <time>2018-10-13T14:47:02Z</time>
      </trkpt>
      <trkpt lat="38.28598885" lon="-2.66616479">
        <ele>755.00000</ele>
        <time>2018-10-13T14:47:04Z</time>
      </trkpt>
      <trkpt lat="38.28607376" lon="-2.66640451">
        <ele>754.00000</ele>
        <time>2018-10-13T14:47:06Z</time>
      </trkpt>
      <trkpt lat="38.28617711" lon="-2.66660635">
        <ele>752.00000</ele>
        <time>2018-10-13T14:47:08Z</time>
      </trkpt>
      <trkpt lat="38.28622547" lon="-2.66668355">
        <ele>750.00000</ele>
        <time>2018-10-13T14:47:09Z</time>
      </trkpt>
      <trkpt lat="38.28627082" lon="-2.66675094">
        <ele>749.00000</ele>
        <time>2018-10-13T14:47:10Z</time>
      </trkpt>
      <trkpt lat="38.28631466" lon="-2.66681958">
        <ele>747.00000</ele>
        <time>2018-10-13T14:47:11Z</time>
      </trkpt>
      <trkpt lat="38.28635615" lon="-2.66689469">
        <ele>746.00000</ele>
        <time>2018-10-13T14:47:12Z</time>
      </trkpt>
      <trkpt lat="38.28639211" lon="-2.66698295">
        <ele>745.00000</ele>
        <time>2018-10-13T14:47:13Z</time>
      </trkpt>
      <trkpt lat="38.28647199" lon="-2.66729568">
        <ele>744.00000</ele>
        <time>2018-10-13T14:47:16Z</time>
      </trkpt>
      <trkpt lat="38.28650518" lon="-2.66740590">
        <ele>744.00000</ele>
        <time>2018-10-13T14:47:17Z</time>
      </trkpt>
      <trkpt lat="38.28675689" lon="-2.66779775">
        <ele>743.00000</ele>
        <time>2018-10-13T14:47:21Z</time>
      </trkpt>
      <trkpt lat="38.28685713" lon="-2.66803865">
        <ele>741.00000</ele>
        <time>2018-10-13T14:47:23Z</time>
      </trkpt>
      <trkpt lat="38.28690499" lon="-2.66830964">
        <ele>740.00000</ele>
        <time>2018-10-13T14:47:25Z</time>
      </trkpt>
      <trkpt lat="38.28691581" lon="-2.66844618">
        <ele>739.00000</ele>
        <time>2018-10-13T14:47:26Z</time>
      </trkpt>
      <trkpt lat="38.28689879" lon="-2.66871792">
        <ele>737.00000</ele>
        <time>2018-10-13T14:47:28Z</time>
      </trkpt>
      <trkpt lat="38.28684506" lon="-2.66897616">
        <ele>735.00000</ele>
        <time>2018-10-13T14:47:30Z</time>
      </trkpt>
      <trkpt lat="38.28681288" lon="-2.66910139">
        <ele>734.00000</ele>
        <time>2018-10-13T14:47:31Z</time>
      </trkpt>
      <trkpt lat="38.28674850" lon="-2.66934472">
        <ele>733.00000</ele>
        <time>2018-10-13T14:47:33Z</time>
      </trkpt>
      <trkpt lat="38.28665035" lon="-2.66969005">
        <ele>732.00000</ele>
        <time>2018-10-13T14:47:36Z</time>
      </trkpt>
      <trkpt lat="38.28650484" lon="-2.67008442">
        <ele>731.00000</ele>
        <time>2018-10-13T14:47:40Z</time>
      </trkpt>
      <trkpt lat="38.28642530" lon="-2.67026212">
        <ele>731.00000</ele>
        <time>2018-10-13T14:47:42Z</time>
      </trkpt>
      <trkpt lat="38.28630703" lon="-2.67051449">
        <ele>731.00000</ele>
        <time>2018-10-13T14:47:45Z</time>
      </trkpt>
      <trkpt lat="38.28617468" lon="-2.67084441">
        <ele>732.00000</ele>
        <time>2018-10-13T14:47:49Z</time>
      </trkpt>
      <trkpt lat="38.28615398" lon="-2.67092890">
        <ele>733.00000</ele>
        <time>2018-10-13T14:47:50Z</time>
      </trkpt>
      <trkpt lat="38.28610234" lon="-2.67117717">
        <ele>733.00000</ele>
        <time>2018-10-13T14:47:53Z</time>
      </trkpt>
      <trkpt lat="38.28603571" lon="-2.67165770">
        <ele>734.00000</ele>
        <time>2018-10-13T14:47:59Z</time>
      </trkpt>
      <trkpt lat="38.28607988" lon="-2.67198401">
        <ele>735.00000</ele>
        <time>2018-10-13T14:48:03Z</time>
      </trkpt>
      <trkpt lat="38.28624651" lon="-2.67268423">
        <ele>735.00000</ele>
        <time>2018-10-13T14:48:11Z</time>
      </trkpt>
      <trkpt lat="38.28630041" lon="-2.67287677">
        <ele>735.00000</ele>
        <time>2018-10-13T14:48:13Z</time>
      </trkpt>
      <trkpt lat="38.28644223" lon="-2.67314943">
        <ele>733.00000</ele>
        <time>2018-10-13T14:48:16Z</time>
      </trkpt>
      <trkpt lat="38.28660895" lon="-2.67342503">
        <ele>732.00000</ele>
        <time>2018-10-13T14:48:19Z</time>
      </trkpt>
      <trkpt lat="38.28666326" lon="-2.67351949">
        <ele>731.00000</ele>
        <time>2018-10-13T14:48:20Z</time>
      </trkpt>
      <trkpt lat="38.28676854" lon="-2.67371219">
        <ele>729.00000</ele>
        <time>2018-10-13T14:48:22Z</time>
      </trkpt>
      <trkpt lat="38.28686979" lon="-2.67391101">
        <ele>728.00000</ele>
        <time>2018-10-13T14:48:24Z</time>
      </trkpt>
      <trkpt lat="38.28692394" lon="-2.67400891">
        <ele>727.00000</ele>
        <time>2018-10-13T14:48:25Z</time>
      </trkpt>
      <trkpt lat="38.28704439" lon="-2.67419340">
        <ele>726.00000</ele>
        <time>2018-10-13T14:48:27Z</time>
      </trkpt>
      <trkpt lat="38.28739869" lon="-2.67466211">
        <ele>726.00000</ele>
        <time>2018-10-13T14:48:32Z</time>
      </trkpt>
      <trkpt lat="38.28745845" lon="-2.67477845">
        <ele>725.00000</ele>
        <time>2018-10-13T14:48:33Z</time>
      </trkpt>
      <trkpt lat="38.28761721" lon="-2.67515790">
        <ele>723.00000</ele>
        <time>2018-10-13T14:48:36Z</time>
      </trkpt>
      <trkpt lat="38.28771703" lon="-2.67540911">
        <ele>722.00000</ele>
        <time>2018-10-13T14:48:38Z</time>
      </trkpt>
      <trkpt lat="38.28779892" lon="-2.67565570">
        <ele>720.00000</ele>
        <time>2018-10-13T14:48:40Z</time>
      </trkpt>
      <trkpt lat="38.28783371" lon="-2.67577665">
        <ele>718.00000</ele>
        <time>2018-10-13T14:48:41Z</time>
      </trkpt>
      <trkpt lat="38.28789222" lon="-2.67601730">
        <ele>717.00000</ele>
        <time>2018-10-13T14:48:43Z</time>
      </trkpt>
      <trkpt lat="38.28791124" lon="-2.67613858">
        <ele>716.00000</ele>
        <time>2018-10-13T14:48:44Z</time>
      </trkpt>
      <trkpt lat="38.28793639" lon="-2.67637613">
        <ele>716.00000</ele>
        <time>2018-10-13T14:48:46Z</time>
      </trkpt>
      <trkpt lat="38.28832061" lon="-2.67678433">
        <ele>716.00000</ele>
        <time>2018-10-13T14:48:52Z</time>
      </trkpt>
      <trkpt lat="38.28841357" lon="-2.67679598">
        <ele>716.00000</ele>
        <time>2018-10-13T14:48:53Z</time>
      </trkpt>
      <trkpt lat="38.28869964" lon="-2.67684727">
        <ele>716.00000</ele>
        <time>2018-10-13T14:48:56Z</time>
      </trkpt>
      <trkpt lat="38.28912612" lon="-2.67717048">
        <ele>715.00000</ele>
        <time>2018-10-13T14:49:01Z</time>
      </trkpt>
      <trkpt lat="38.28924656" lon="-2.67737156">
        <ele>713.00000</ele>
        <time>2018-10-13T14:49:03Z</time>
      </trkpt>
      <trkpt lat="38.28929929" lon="-2.67748061">
        <ele>713.00000</ele>
        <time>2018-10-13T14:49:04Z</time>
      </trkpt>
      <trkpt lat="38.28935402" lon="-2.67758815">
        <ele>712.00000</ele>
        <time>2018-10-13T14:49:05Z</time>
      </trkpt>
      <trkpt lat="38.28941764" lon="-2.67768714">
        <ele>711.00000</ele>
        <time>2018-10-13T14:49:06Z</time>
      </trkpt>
      <trkpt lat="38.28948997" lon="-2.67777339">
        <ele>711.00000</ele>
        <time>2018-10-13T14:49:07Z</time>
      </trkpt>
      <trkpt lat="38.28963230" lon="-2.67793022">
        <ele>710.00000</ele>
        <time>2018-10-13T14:49:09Z</time>
      </trkpt>
      <trkpt lat="38.28972877" lon="-2.67812593">
        <ele>709.00000</ele>
        <time>2018-10-13T14:49:11Z</time>
      </trkpt>
      <trkpt lat="38.28973523" lon="-2.67861443">
        <ele>708.00000</ele>
        <time>2018-10-13T14:49:15Z</time>
      </trkpt>
      <trkpt lat="38.28968075" lon="-2.67916462">
        <ele>707.00000</ele>
        <time>2018-10-13T14:49:19Z</time>
      </trkpt>
      <trkpt lat="38.28965040" lon="-2.67945279">
        <ele>706.00000</ele>
        <time>2018-10-13T14:49:21Z</time>
      </trkpt>
      <trkpt lat="38.28961696" lon="-2.67975077">
        <ele>704.00000</ele>
        <time>2018-10-13T14:49:23Z</time>
      </trkpt>
      <trkpt lat="38.28958167" lon="-2.68005402">
        <ele>702.00000</ele>
        <time>2018-10-13T14:49:25Z</time>
      </trkpt>
      <trkpt lat="38.28956021" lon="-2.68019442">
        <ele>700.00000</ele>
        <time>2018-10-13T14:49:26Z</time>
      </trkpt>
      <trkpt lat="38.28952937" lon="-2.68032141">
        <ele>699.00000</ele>
        <time>2018-10-13T14:49:27Z</time>
      </trkpt>
      <trkpt lat="38.28948570" lon="-2.68043188">
        <ele>698.00000</ele>
        <time>2018-10-13T14:49:28Z</time>
      </trkpt>
      <trkpt lat="38.28933080" lon="-2.68065727">
        <ele>698.00000</ele>
        <time>2018-10-13T14:49:31Z</time>
      </trkpt>
      <trkpt lat="38.28924212" lon="-2.68075039">
        <ele>698.00000</ele>
        <time>2018-10-13T14:49:33Z</time>
      </trkpt>
      <trkpt lat="38.28917498" lon="-2.68083413">
        <ele>698.00000</ele>
        <time>2018-10-13T14:49:35Z</time>
      </trkpt>
      <trkpt lat="38.28914380" lon="-2.68086715">
        <ele>698.00000</ele>
        <time>2018-10-13T14:49:36Z</time>
      </trkpt>
      <trkpt lat="38.28909552" lon="-2.68092029">
        <ele>699.00000</ele>
        <time>2018-10-13T14:49:38Z</time>
      </trkpt>
      <trkpt lat="38.28908186" lon="-2.68094058">
        <ele>700.00000</ele>
        <time>2018-10-13T14:49:39Z</time>
      </trkpt>
      <trkpt lat="38.28907088" lon="-2.68096413">
        <ele>701.00000</ele>
        <time>2018-10-13T14:49:40Z</time>
      </trkpt>
      <trkpt lat="38.28906032" lon="-2.68099120">
        <ele>702.00000</ele>
        <time>2018-10-13T14:49:41Z</time>
      </trkpt>
      <trkpt lat="38.28903266" lon="-2.68107368">
        <ele>704.00000</ele>
        <time>2018-10-13T14:49:43Z</time>
      </trkpt>
      <trkpt lat="38.28901950" lon="-2.68116043">
        <ele>705.00000</ele>
        <time>2018-10-13T14:49:45Z</time>
      </trkpt>
      <trkpt lat="38.28902654" lon="-2.68124174">
        <ele>706.00000</ele>
        <time>2018-10-13T14:49:47Z</time>
      </trkpt>
      <trkpt lat="38.28903425" lon="-2.68128063">
        <ele>706.00000</ele>
        <time>2018-10-13T14:49:48Z</time>
      </trkpt>
      <trkpt lat="38.28905696" lon="-2.68139211">
        <ele>707.00000</ele>
        <time>2018-10-13T14:49:51Z</time>
      </trkpt>
      <trkpt lat="38.28906644" lon="-2.68143419">
        <ele>708.00000</ele>
        <time>2018-10-13T14:49:52Z</time>
      </trkpt>
      <trkpt lat="38.28910692" lon="-2.68162990">
        <ele>709.00000</ele>
        <time>2018-10-13T14:49:57Z</time>
      </trkpt>
      <trkpt lat="38.28917037" lon="-2.68187533">
        <ele>710.00000</ele>
        <time>2018-10-13T14:50:04Z</time>
      </trkpt>
      <trkpt lat="38.28917691" lon="-2.68218998">
        <ele>711.00000</ele>
        <time>2018-10-13T14:50:11Z</time>
      </trkpt>
      <trkpt lat="38.28891883" lon="-2.68280899">
        <ele>712.00000</ele>
        <time>2018-10-13T14:50:26Z</time>
      </trkpt>
      <trkpt lat="38.28887650" lon="-2.68288074">
        <ele>712.00000</ele>
        <time>2018-10-13T14:50:28Z</time>
      </trkpt>
      <trkpt lat="38.28875136" lon="-2.68309330">
        <ele>713.00000</ele>
        <time>2018-10-13T14:50:34Z</time>
      </trkpt>
      <trkpt lat="38.28865019" lon="-2.68325398">
        <ele>714.00000</ele>
        <time>2018-10-13T14:50:39Z</time>
      </trkpt>
      <trkpt lat="38.28861398" lon="-2.68332405">
        <ele>715.00000</ele>
        <time>2018-10-13T14:50:41Z</time>
      </trkpt>
      <trkpt lat="38.28856092" lon="-2.68343327">
        <ele>715.00000</ele>
        <time>2018-10-13T14:50:44Z</time>
      </trkpt>
      <trkpt lat="38.28851734" lon="-2.68354760">
        <ele>716.00000</ele>
        <time>2018-10-13T14:50:47Z</time>
      </trkpt>
      <trkpt lat="38.28847518" lon="-2.68376402">
        <ele>717.00000</ele>
        <time>2018-10-13T14:50:53Z</time>
      </trkpt>
      <trkpt lat="38.28844123" lon="-2.68392470">
        <ele>718.00000</ele>
        <time>2018-10-13T14:50:58Z</time>
      </trkpt>
      <trkpt lat="38.28840326" lon="-2.68408027">
        <ele>719.00000</ele>
        <time>2018-10-13T14:51:03Z</time>
      </trkpt>
      <trkpt lat="38.28835288" lon="-2.68426048">
        <ele>720.00000</ele>
        <time>2018-10-13T14:51:09Z</time>
      </trkpt>
      <trkpt lat="38.28830318" lon="-2.68437003">
        <ele>720.00000</ele>
        <time>2018-10-13T14:51:13Z</time>
      </trkpt>
      <trkpt lat="38.28825373" lon="-2.68451278">
        <ele>721.00000</ele>
        <time>2018-10-13T14:51:18Z</time>
      </trkpt>
      <trkpt lat="38.28815029" lon="-2.68469223">
        <ele>722.00000</ele>
        <time>2018-10-13T14:51:25Z</time>
      </trkpt>
      <trkpt lat="38.28800822" lon="-2.68487915">
        <ele>723.00000</ele>
        <time>2018-10-13T14:51:32Z</time>
      </trkpt>
      <trkpt lat="38.28758192" lon="-2.68535239">
        <ele>724.00000</ele>
        <time>2018-10-13T14:51:47Z</time>
      </trkpt>
      <trkpt lat="38.28741093" lon="-2.68555942">
        <ele>724.00000</ele>
        <time>2018-10-13T14:51:52Z</time>
      </trkpt>
      <trkpt lat="38.28729903" lon="-2.68570544">
        <ele>724.00000</ele>
        <time>2018-10-13T14:51:55Z</time>
      </trkpt>
      <trkpt lat="38.28721881" lon="-2.68581381">
        <ele>724.00000</ele>
        <time>2018-10-13T14:51:57Z</time>
      </trkpt>
      <trkpt lat="38.28704070" lon="-2.68606158">
        <ele>723.00000</ele>
        <time>2018-10-13T14:52:01Z</time>
      </trkpt>
      <trkpt lat="38.28690977" lon="-2.68628060">
        <ele>722.00000</ele>
        <time>2018-10-13T14:52:04Z</time>
      </trkpt>
      <trkpt lat="38.28673568" lon="-2.68661412">
        <ele>721.00000</ele>
        <time>2018-10-13T14:52:08Z</time>
      </trkpt>
      <trkpt lat="38.28657047" lon="-2.68687102">
        <ele>720.00000</ele>
        <time>2018-10-13T14:52:11Z</time>
      </trkpt>
      <trkpt lat="38.28638372" lon="-2.68706297">
        <ele>719.00000</ele>
        <time>2018-10-13T14:52:14Z</time>
      </trkpt>
      <trkpt lat="38.28622816" lon="-2.68720722">
        <ele>718.00000</ele>
        <time>2018-10-13T14:52:17Z</time>
      </trkpt>
      <trkpt lat="38.28613998" lon="-2.68729699">
        <ele>718.00000</ele>
        <time>2018-10-13T14:52:19Z</time>
      </trkpt>
      <trkpt lat="38.28602171" lon="-2.68740696">
        <ele>718.00000</ele>
        <time>2018-10-13T14:52:22Z</time>
      </trkpt>
      <trkpt lat="38.28586916" lon="-2.68750528">
        <ele>718.00000</ele>
        <time>2018-10-13T14:52:26Z</time>
      </trkpt>
      <trkpt lat="38.28583287" lon="-2.68752884">
        <ele>719.00000</ele>
        <time>2018-10-13T14:52:27Z</time>
      </trkpt>
      <trkpt lat="38.28572290" lon="-2.68760670">
        <ele>720.00000</ele>
        <time>2018-10-13T14:52:30Z</time>
      </trkpt>
      <trkpt lat="38.28564721" lon="-2.68764719">
        <ele>720.00000</ele>
        <time>2018-10-13T14:52:32Z</time>
      </trkpt>
      <trkpt lat="38.28553011" lon="-2.68769580">
        <ele>721.00000</ele>
        <time>2018-10-13T14:52:35Z</time>
      </trkpt>
      <trkpt lat="38.28517874" lon="-2.68782128">
        <ele>722.00000</ele>
        <time>2018-10-13T14:52:44Z</time>
      </trkpt>
      <trkpt lat="38.28496626" lon="-2.68788649">
        <ele>723.00000</ele>
        <time>2018-10-13T14:52:50Z</time>
      </trkpt>
      <trkpt lat="38.28493131" lon="-2.68789613">
        <ele>723.00000</ele>
        <time>2018-10-13T14:52:51Z</time>
      </trkpt>
      <trkpt lat="38.28469175" lon="-2.68796428">
        <ele>725.00000</ele>
        <time>2018-10-13T14:52:58Z</time>
      </trkpt>
      <trkpt lat="38.28445656" lon="-2.68803561">
        <ele>726.00000</ele>
        <time>2018-10-13T14:53:05Z</time>
      </trkpt>
      <trkpt lat="38.28418901" lon="-2.68810962">
        <ele>727.00000</ele>
        <time>2018-10-13T14:53:13Z</time>
      </trkpt>
      <trkpt lat="38.28387997" lon="-2.68819134">
        <ele>728.00000</ele>
        <time>2018-10-13T14:53:22Z</time>
      </trkpt>
      <trkpt lat="38.28363672" lon="-2.68824884">
        <ele>729.00000</ele>
        <time>2018-10-13T14:53:29Z</time>
      </trkpt>
      <trkpt lat="38.28331796" lon="-2.68832922">
        <ele>730.00000</ele>
        <time>2018-10-13T14:53:39Z</time>
      </trkpt>
      <trkpt lat="38.28308369" lon="-2.68838446">
        <ele>731.00000</ele>
        <time>2018-10-13T14:53:47Z</time>
      </trkpt>
      <trkpt lat="38.28285880" lon="-2.68844733">
        <ele>732.00000</ele>
        <time>2018-10-13T14:53:54Z</time>
      </trkpt>
      <trkpt lat="38.28267809" lon="-2.68849954">
        <ele>733.00000</ele>
        <time>2018-10-13T14:54:00Z</time>
      </trkpt>
      <trkpt lat="38.28254020" lon="-2.68855051">
        <ele>734.00000</ele>
        <time>2018-10-13T14:54:05Z</time>
      </trkpt>
      <trkpt lat="38.28237282" lon="-2.68863776">
        <ele>736.00000</ele>
        <time>2018-10-13T14:54:12Z</time>
      </trkpt>
      <trkpt lat="38.28228447" lon="-2.68870591">
        <ele>737.00000</ele>
        <time>2018-10-13T14:54:16Z</time>
      </trkpt>
      <trkpt lat="38.28220291" lon="-2.68878838">
        <ele>738.00000</ele>
        <time>2018-10-13T14:54:20Z</time>
      </trkpt>
      <trkpt lat="38.28206478" lon="-2.68896533">
        <ele>739.00000</ele>
        <time>2018-10-13T14:54:27Z</time>
      </trkpt>
      <trkpt lat="38.28195682" lon="-2.68909156">
        <ele>740.00000</ele>
        <time>2018-10-13T14:54:33Z</time>
      </trkpt>
      <trkpt lat="38.28189656" lon="-2.68916842">
        <ele>741.00000</ele>
        <time>2018-10-13T14:54:37Z</time>
      </trkpt>
      <trkpt lat="38.28182539" lon="-2.68927177">
        <ele>743.00000</ele>
        <time>2018-10-13T14:54:42Z</time>
      </trkpt>
      <trkpt lat="38.28176203" lon="-2.68934251">
        <ele>744.00000</ele>
        <time>2018-10-13T14:54:46Z</time>
      </trkpt>
      <trkpt lat="38.28167972" lon="-2.68943069">
        <ele>745.00000</ele>
        <time>2018-10-13T14:54:51Z</time>
      </trkpt>
      <trkpt lat="38.28161115" lon="-2.68949959">
        <ele>746.00000</ele>
        <time>2018-10-13T14:54:55Z</time>
      </trkpt>
      <trkpt lat="38.28147620" lon="-2.68959565">
        <ele>747.00000</ele>
        <time>2018-10-13T14:55:02Z</time>
      </trkpt>
      <trkpt lat="38.28136598" lon="-2.68964418">
        <ele>748.00000</ele>
        <time>2018-10-13T14:55:07Z</time>
      </trkpt>
      <trkpt lat="38.28121452" lon="-2.68970956">
        <ele>749.00000</ele>
        <time>2018-10-13T14:55:14Z</time>
      </trkpt>
      <trkpt lat="38.28108309" lon="-2.68976622">
        <ele>751.00000</ele>
        <time>2018-10-13T14:55:20Z</time>
      </trkpt>
      <trkpt lat="38.28097631" lon="-2.68982640">
        <ele>751.00000</ele>
        <time>2018-10-13T14:55:25Z</time>
      </trkpt>
      <trkpt lat="38.28089123" lon="-2.68987451">
        <ele>752.00000</ele>
        <time>2018-10-13T14:55:29Z</time>
      </trkpt>
      <trkpt lat="38.28069300" lon="-2.69001424">
        <ele>753.00000</ele>
        <time>2018-10-13T14:55:38Z</time>
      </trkpt>
      <trkpt lat="38.28043919" lon="-2.69024617">
        <ele>754.00000</ele>
        <time>2018-10-13T14:55:48Z</time>
      </trkpt>
      <trkpt lat="38.28036124" lon="-2.69032395">
        <ele>754.00000</ele>
        <time>2018-10-13T14:55:51Z</time>
      </trkpt>
      <trkpt lat="38.28000694" lon="-2.69054967">
        <ele>755.00000</ele>
        <time>2018-10-13T14:56:03Z</time>
      </trkpt>
      <trkpt lat="38.27977560" lon="-2.69060709">
        <ele>756.00000</ele>
        <time>2018-10-13T14:56:09Z</time>
      </trkpt>
      <trkpt lat="38.27950084" lon="-2.69064908">
        <ele>756.00000</ele>
        <time>2018-10-13T14:56:15Z</time>
      </trkpt>
      <trkpt lat="38.27915534" lon="-2.69080172">
        <ele>755.00000</ele>
        <time>2018-10-13T14:56:21Z</time>
      </trkpt>
      <trkpt lat="38.27895903" lon="-2.69096307">
        <ele>754.00000</ele>
        <time>2018-10-13T14:56:24Z</time>
      </trkpt>
      <trkpt lat="38.27888997" lon="-2.69102895">
        <ele>754.00000</ele>
        <time>2018-10-13T14:56:25Z</time>
      </trkpt>
      <trkpt lat="38.27874898" lon="-2.69118024">
        <ele>753.00000</ele>
        <time>2018-10-13T14:56:27Z</time>
      </trkpt>
      <trkpt lat="38.27860465" lon="-2.69134696">
        <ele>752.00000</ele>
        <time>2018-10-13T14:56:29Z</time>
      </trkpt>
      <trkpt lat="38.27846366" lon="-2.69152063">
        <ele>751.00000</ele>
        <time>2018-10-13T14:56:31Z</time>
      </trkpt>
      <trkpt lat="38.27832578" lon="-2.69169498">
        <ele>749.00000</ele>
        <time>2018-10-13T14:56:33Z</time>
      </trkpt>
      <trkpt lat="38.27819033" lon="-2.69186764">
        <ele>748.00000</ele>
        <time>2018-10-13T14:56:35Z</time>
      </trkpt>
      <trkpt lat="38.27812369" lon="-2.69195498">
        <ele>747.00000</ele>
        <time>2018-10-13T14:56:36Z</time>
      </trkpt>
      <trkpt lat="38.27800677" lon="-2.69213595">
        <ele>745.00000</ele>
        <time>2018-10-13T14:56:38Z</time>
      </trkpt>
      <trkpt lat="38.27770602" lon="-2.69277490">
        <ele>745.00000</ele>
        <time>2018-10-13T14:56:46Z</time>
      </trkpt>
      <trkpt lat="38.27765498" lon="-2.69294782">
        <ele>745.00000</ele>
        <time>2018-10-13T14:56:49Z</time>
      </trkpt>
      <trkpt lat="38.27762983" lon="-2.69304296">
        <ele>746.00000</ele>
        <time>2018-10-13T14:56:51Z</time>
      </trkpt>
      <trkpt lat="38.27760435" lon="-2.69312359">
        <ele>747.00000</ele>
        <time>2018-10-13T14:56:53Z</time>
      </trkpt>
      <trkpt lat="38.27758382" lon="-2.69319458">
        <ele>748.00000</ele>
        <time>2018-10-13T14:56:55Z</time>
      </trkpt>
      <trkpt lat="38.27754652" lon="-2.69328796">
        <ele>750.00000</ele>
        <time>2018-10-13T14:56:58Z</time>
      </trkpt>
      <trkpt lat="38.27751399" lon="-2.69338343">
        <ele>751.00000</ele>
        <time>2018-10-13T14:57:01Z</time>
      </trkpt>
      <trkpt lat="38.27746110" lon="-2.69351067">
        <ele>752.00000</ele>
        <time>2018-10-13T14:57:05Z</time>
      </trkpt>
      <trkpt lat="38.27738567" lon="-2.69369817">
        <ele>753.00000</ele>
        <time>2018-10-13T14:57:11Z</time>
      </trkpt>
      <trkpt lat="38.27723370" lon="-2.69397092">
        <ele>754.00000</ele>
        <time>2018-10-13T14:57:20Z</time>
      </trkpt>
      <trkpt lat="38.27713999" lon="-2.69409681">
        <ele>755.00000</ele>
        <time>2018-10-13T14:57:25Z</time>
      </trkpt>
      <trkpt lat="38.27707629" lon="-2.69418390">
        <ele>755.00000</ele>
        <time>2018-10-13T14:57:29Z</time>
      </trkpt>
      <trkpt lat="38.27701644" lon="-2.69424618">
        <ele>756.00000</ele>
        <time>2018-10-13T14:57:33Z</time>
      </trkpt>
      <trkpt lat="38.27696808" lon="-2.69428515">
        <ele>757.00000</ele>
        <time>2018-10-13T14:57:35Z</time>
      </trkpt>
      <trkpt lat="38.27686968" lon="-2.69435606">
        <ele>758.00000</ele>
        <time>2018-10-13T14:57:39Z</time>
      </trkpt>
      <trkpt lat="38.27675174" lon="-2.69442597">
        <ele>759.00000</ele>
        <time>2018-10-13T14:57:44Z</time>
      </trkpt>
      <trkpt lat="38.27664228" lon="-2.69448364">
        <ele>760.00000</ele>
        <time>2018-10-13T14:57:49Z</time>
      </trkpt>
      <trkpt lat="38.27654362" lon="-2.69454055">
        <ele>761.00000</ele>
        <time>2018-10-13T14:57:54Z</time>
      </trkpt>
      <trkpt lat="38.27645729" lon="-2.69460316">
        <ele>762.00000</ele>
        <time>2018-10-13T14:57:59Z</time>
      </trkpt>
      <trkpt lat="38.27634388" lon="-2.69467357">
        <ele>763.00000</ele>
        <time>2018-10-13T14:58:05Z</time>
      </trkpt>
      <trkpt lat="38.27624321" lon="-2.69475203">
        <ele>764.00000</ele>
        <time>2018-10-13T14:58:11Z</time>
      </trkpt>
      <trkpt lat="38.27615990" lon="-2.69483375">
        <ele>766.00000</ele>
        <time>2018-10-13T14:58:16Z</time>
      </trkpt>
      <trkpt lat="38.27605973" lon="-2.69497247">
        <ele>767.00000</ele>
        <time>2018-10-13T14:58:23Z</time>
      </trkpt>
      <trkpt lat="38.27600198" lon="-2.69506266">
        <ele>768.00000</ele>
        <time>2018-10-13T14:58:28Z</time>
      </trkpt>
      <trkpt lat="38.27591800" lon="-2.69518864">
        <ele>769.00000</ele>
        <time>2018-10-13T14:58:34Z</time>
      </trkpt>
      <trkpt lat="38.27582026" lon="-2.69536382">
        <ele>770.00000</ele>
        <time>2018-10-13T14:58:42Z</time>
      </trkpt>
      <trkpt lat="38.27574474" lon="-2.69548871">
        <ele>771.00000</ele>
        <time>2018-10-13T14:58:48Z</time>
      </trkpt>
      <trkpt lat="38.27567274" lon="-2.69562307">
        <ele>772.00000</ele>
        <time>2018-10-13T14:58:54Z</time>
      </trkpt>
      <trkpt lat="38.27558498" lon="-2.69578300">
        <ele>773.00000</ele>
        <time>2018-10-13T14:59:01Z</time>
      </trkpt>
      <trkpt lat="38.27549186" lon="-2.69594963">
        <ele>774.00000</ele>
        <time>2018-10-13T14:59:09Z</time>
      </trkpt>
      <trkpt lat="38.27544626" lon="-2.69603228">
        <ele>775.00000</ele>
        <time>2018-10-13T14:59:13Z</time>
      </trkpt>
      <trkpt lat="38.27538340" lon="-2.69616228">
        <ele>777.00000</ele>
        <time>2018-10-13T14:59:19Z</time>
      </trkpt>
      <trkpt lat="38.27537083" lon="-2.69626705">
        <ele>778.00000</ele>
        <time>2018-10-13T14:59:23Z</time>
      </trkpt>
      <trkpt lat="38.27533981" lon="-2.69639463">
        <ele>779.00000</ele>
        <time>2018-10-13T14:59:28Z</time>
      </trkpt>
      <trkpt lat="38.27532389" lon="-2.69655514">
        <ele>780.00000</ele>
        <time>2018-10-13T14:59:34Z</time>
      </trkpt>
      <trkpt lat="38.27532104" lon="-2.69669487">
        <ele>781.00000</ele>
        <time>2018-10-13T14:59:39Z</time>
      </trkpt>
      <trkpt lat="38.27532573" lon="-2.69689100">
        <ele>782.00000</ele>
        <time>2018-10-13T14:59:46Z</time>
      </trkpt>
      <trkpt lat="38.27532020" lon="-2.69698002">
        <ele>783.00000</ele>
        <time>2018-10-13T14:59:49Z</time>
      </trkpt>
      <trkpt lat="38.27529388" lon="-2.69716802">
        <ele>783.00000</ele>
        <time>2018-10-13T14:59:55Z</time>
      </trkpt>
      <trkpt lat="38.27528541" lon="-2.69720222">
        <ele>783.00000</ele>
        <time>2018-10-13T14:59:56Z</time>
      </trkpt>
      <trkpt lat="38.27502356" lon="-2.69772190">
        <ele>784.00000</ele>
        <time>2018-10-13T15:00:09Z</time>
      </trkpt>
      <trkpt lat="38.27487101" lon="-2.69789574">
        <ele>784.00000</ele>
        <time>2018-10-13T15:00:13Z</time>
      </trkpt>
      <trkpt lat="38.27460095" lon="-2.69820227">
        <ele>783.00000</ele>
        <time>2018-10-13T15:00:20Z</time>
      </trkpt>
      <trkpt lat="38.27452132" lon="-2.69828986">
        <ele>783.00000</ele>
        <time>2018-10-13T15:00:22Z</time>
      </trkpt>
      <trkpt lat="38.27440012" lon="-2.69842321">
        <ele>783.00000</ele>
        <time>2018-10-13T15:00:25Z</time>
      </trkpt>
      <trkpt lat="38.27435720" lon="-2.69846605">
        <ele>782.00000</ele>
        <time>2018-10-13T15:00:26Z</time>
      </trkpt>
      <trkpt lat="38.27431177" lon="-2.69850418">
        <ele>782.00000</ele>
        <time>2018-10-13T15:00:27Z</time>
      </trkpt>
      <trkpt lat="38.27384440" lon="-2.69879998">
        <ele>781.00000</ele>
        <time>2018-10-13T15:00:36Z</time>
      </trkpt>
      <trkpt lat="38.27360006" lon="-2.69891272">
        <ele>781.00000</ele>
        <time>2018-10-13T15:00:40Z</time>
      </trkpt>
      <trkpt lat="38.27302892" lon="-2.69912738">
        <ele>780.00000</ele>
        <time>2018-10-13T15:00:49Z</time>
      </trkpt>
      <trkpt lat="38.27251134" lon="-2.69926384">
        <ele>780.00000</ele>
        <time>2018-10-13T15:00:57Z</time>
      </trkpt>
      <trkpt lat="38.27201840" lon="-2.69933156">
        <ele>779.00000</ele>
        <time>2018-10-13T15:01:04Z</time>
      </trkpt>
      <trkpt lat="38.27144642" lon="-2.69939476">
        <ele>779.00000</ele>
        <time>2018-10-13T15:01:12Z</time>
      </trkpt>
      <trkpt lat="38.27088391" lon="-2.69946324">
        <ele>779.00000</ele>
        <time>2018-10-13T15:01:20Z</time>
      </trkpt>
      <trkpt lat="38.27032869" lon="-2.69951915">
        <ele>778.00000</ele>
        <time>2018-10-13T15:01:28Z</time>
      </trkpt>
      <trkpt lat="38.26978881" lon="-2.69956885">
        <ele>778.00000</ele>
        <time>2018-10-13T15:01:36Z</time>
      </trkpt>
      <trkpt lat="38.26920292" lon="-2.69964144">
        <ele>779.00000</ele>
        <time>2018-10-13T15:01:45Z</time>
      </trkpt>
      <trkpt lat="38.26870227" lon="-2.69968662">
        <ele>779.00000</ele>
        <time>2018-10-13T15:01:53Z</time>
      </trkpt>
      <trkpt lat="38.26812040" lon="-2.69973674">
        <ele>780.00000</ele>
        <time>2018-10-13T15:02:03Z</time>
      </trkpt>
      <trkpt lat="38.26801219" lon="-2.69975066">
        <ele>780.00000</ele>
        <time>2018-10-13T15:02:05Z</time>
      </trkpt>
      <trkpt lat="38.26760080" lon="-2.69978712">
        <ele>782.00000</ele>
        <time>2018-10-13T15:02:13Z</time>
      </trkpt>
      <trkpt lat="38.26722387" lon="-2.69983112">
        <ele>783.00000</ele>
        <time>2018-10-13T15:02:21Z</time>
      </trkpt>
      <trkpt lat="38.26694810" lon="-2.69985786">
        <ele>784.00000</ele>
        <time>2018-10-13T15:02:27Z</time>
      </trkpt>
      <trkpt lat="38.26663043" lon="-2.69989231">
        <ele>785.00000</ele>
        <time>2018-10-13T15:02:34Z</time>
      </trkpt>
      <trkpt lat="38.26614084" lon="-2.69991201">
        <ele>786.00000</ele>
        <time>2018-10-13T15:02:45Z</time>
      </trkpt>
      <trkpt lat="38.26583465" lon="-2.69986272">
        <ele>787.00000</ele>
        <time>2018-10-13T15:02:52Z</time>
      </trkpt>
      <trkpt lat="38.26542704" lon="-2.69974697">
        <ele>788.00000</ele>
        <time>2018-10-13T15:03:02Z</time>
      </trkpt>
      <trkpt lat="38.26538152" lon="-2.69973280">
        <ele>788.00000</ele>
        <time>2018-10-13T15:03:03Z</time>
      </trkpt>
      <trkpt lat="38.26502026" lon="-2.69964898">
        <ele>790.00000</ele>
        <time>2018-10-13T15:03:12Z</time>
      </trkpt>
      <trkpt lat="38.26486704" lon="-2.69963884">
        <ele>791.00000</ele>
        <time>2018-10-13T15:03:16Z</time>
      </trkpt>
      <trkpt lat="38.26461374" lon="-2.69964714">
        <ele>792.00000</ele>
        <time>2018-10-13T15:03:23Z</time>
      </trkpt>
      <trkpt lat="38.26441895" lon="-2.69964890">
        <ele>793.00000</ele>
        <time>2018-10-13T15:03:29Z</time>
      </trkpt>
      <trkpt lat="38.26422667" lon="-2.69965309">
        <ele>794.00000</ele>
        <time>2018-10-13T15:03:35Z</time>
      </trkpt>
      <trkpt lat="38.26403807" lon="-2.69965167">
        <ele>795.00000</ele>
        <time>2018-10-13T15:03:41Z</time>
      </trkpt>
      <trkpt lat="38.26387672" lon="-2.69963130">
        <ele>796.00000</ele>
        <time>2018-10-13T15:03:46Z</time>
      </trkpt>
      <trkpt lat="38.26375326" lon="-2.69959492">
        <ele>797.00000</ele>
        <time>2018-10-13T15:03:50Z</time>
      </trkpt>
      <trkpt lat="38.26358243" lon="-2.69953591">
        <ele>799.00000</ele>
        <time>2018-10-13T15:03:56Z</time>
      </trkpt>
      <trkpt lat="38.26341865" lon="-2.69946207">
        <ele>800.00000</ele>
        <time>2018-10-13T15:04:02Z</time>
      </trkpt>
      <trkpt lat="38.26325487" lon="-2.69937255">
        <ele>801.00000</ele>
        <time>2018-10-13T15:04:08Z</time>
      </trkpt>
      <trkpt lat="38.26305789" lon="-2.69927423">
        <ele>802.00000</ele>
        <time>2018-10-13T15:04:15Z</time>
      </trkpt>
      <trkpt lat="38.26283091" lon="-2.69917096">
        <ele>803.00000</ele>
        <time>2018-10-13T15:04:23Z</time>
      </trkpt>
      <trkpt lat="38.26259706" lon="-2.69909393">
        <ele>804.00000</ele>
        <time>2018-10-13T15:04:31Z</time>
      </trkpt>
      <trkpt lat="38.26242364" lon="-2.69904490">
        <ele>805.00000</ele>
        <time>2018-10-13T15:04:37Z</time>
      </trkpt>
      <trkpt lat="38.26221811" lon="-2.69897810">
        <ele>806.00000</ele>
        <time>2018-10-13T15:04:44Z</time>
      </trkpt>
      <trkpt lat="38.26199507" lon="-2.69885882">
        <ele>807.00000</ele>
        <time>2018-10-13T15:04:51Z</time>
      </trkpt>
      <trkpt lat="38.26192785" lon="-2.69881842">
        <ele>808.00000</ele>
        <time>2018-10-13T15:04:53Z</time>
      </trkpt>
      <trkpt lat="38.26169609" lon="-2.69866227">
        <ele>808.00000</ele>
        <time>2018-10-13T15:05:00Z</time>
      </trkpt>
      <trkpt lat="38.26134581" lon="-2.69843487">
        <ele>809.00000</ele>
        <time>2018-10-13T15:05:10Z</time>
      </trkpt>
      <trkpt lat="38.26127691" lon="-2.69838089">
        <ele>809.00000</ele>
        <time>2018-10-13T15:05:12Z</time>
      </trkpt>
      <trkpt lat="38.26117297" lon="-2.69828743">
        <ele>809.00000</ele>
        <time>2018-10-13T15:05:15Z</time>
      </trkpt>
      <trkpt lat="38.26074449" lon="-2.69801862">
        <ele>809.00000</ele>
        <time>2018-10-13T15:05:25Z</time>
      </trkpt>
      <trkpt lat="38.26061038" lon="-2.69793706">
        <ele>808.00000</ele>
        <time>2018-10-13T15:05:28Z</time>
      </trkpt>
      <trkpt lat="38.26021207" lon="-2.69805022">
        <ele>808.00000</ele>
        <time>2018-10-13T15:05:35Z</time>
      </trkpt>
      <trkpt lat="38.26015348" lon="-2.69825407">
        <ele>807.00000</ele>
        <time>2018-10-13T15:05:38Z</time>
      </trkpt>
      <trkpt lat="38.26013856" lon="-2.69832322">
        <ele>807.00000</ele>
        <time>2018-10-13T15:05:39Z</time>
      </trkpt>
      <trkpt lat="38.26011744" lon="-2.69846596">
        <ele>805.00000</ele>
        <time>2018-10-13T15:05:41Z</time>
      </trkpt>
      <trkpt lat="38.26012004" lon="-2.69852824">
        <ele>805.00000</ele>
        <time>2018-10-13T15:05:42Z</time>
      </trkpt>
      <trkpt lat="38.26013253" lon="-2.69874357">
        <ele>805.00000</ele>
        <time>2018-10-13T15:05:48Z</time>
      </trkpt>
      <trkpt lat="38.26009950" lon="-2.69869680">
        <ele>806.00000</ele>
        <time>2018-10-13T15:13:47Z</time>
      </trkpt>
      <trkpt lat="38.26009380" lon="-2.69868498">
        <ele>806.00000</ele>
        <time>2018-10-13T15:13:48Z</time>
      </trkpt>
      <trkpt lat="38.26007888" lon="-2.69866914">
        <ele>806.00000</ele>
        <time>2018-10-13T15:13:50Z</time>
      </trkpt>
      <trkpt lat="38.26003823" lon="-2.69867735">
        <ele>806.00000</ele>
        <time>2018-10-13T15:13:53Z</time>
      </trkpt>
      <trkpt lat="38.25999783" lon="-2.69869688">
        <ele>806.00000</ele>
        <time>2018-10-13T15:13:55Z</time>
      </trkpt>
      <trkpt lat="38.25991686" lon="-2.69873217">
        <ele>807.00000</ele>
        <time>2018-10-13T15:13:58Z</time>
      </trkpt>
      <trkpt lat="38.25941847" lon="-2.69902889">
        <ele>807.00000</ele>
        <time>2018-10-13T15:14:14Z</time>
      </trkpt>
      <trkpt lat="38.25911622" lon="-2.69920751">
        <ele>808.00000</ele>
        <time>2018-10-13T15:14:23Z</time>
      </trkpt>
      <trkpt lat="38.25905478" lon="-2.69924481">
        <ele>808.00000</ele>
        <time>2018-10-13T15:14:25Z</time>
      </trkpt>
      <trkpt lat="38.25882721" lon="-2.69938990">
        <ele>808.00000</ele>
        <time>2018-10-13T15:14:34Z</time>
      </trkpt>
      <trkpt lat="38.25882411" lon="-2.69939141">
        <ele>808.00000</ele>
        <time>2018-10-13T15:14:35Z</time>
      </trkpt>
      <trkpt lat="38.25879050" lon="-2.69939342">
        <ele>809.00000</ele>
        <time>2018-10-13T15:17:02Z</time>
      </trkpt>
      <trkpt lat="38.25875923" lon="-2.69940842">
        <ele>809.00000</ele>
        <time>2018-10-13T15:17:04Z</time>
      </trkpt>
      <trkpt lat="38.25866670" lon="-2.69947615">
        <ele>809.00000</ele>
        <time>2018-10-13T15:17:07Z</time>
      </trkpt>
      <trkpt lat="38.25855136" lon="-2.69959819">
        <ele>809.00000</ele>
        <time>2018-10-13T15:17:11Z</time>
      </trkpt>
      <trkpt lat="38.25804962" lon="-2.69981134">
        <ele>808.00000</ele>
        <time>2018-10-13T15:17:25Z</time>
      </trkpt>
      <trkpt lat="38.25748477" lon="-2.69999407">
        <ele>809.00000</ele>
        <time>2018-10-13T15:17:39Z</time>
      </trkpt>
      <trkpt lat="38.25740229" lon="-2.70002374">
        <ele>809.00000</ele>
        <time>2018-10-13T15:17:41Z</time>
      </trkpt>
      <trkpt lat="38.25693500" lon="-2.70017847">
        <ele>810.00000</ele>
        <time>2018-10-13T15:17:53Z</time>
      </trkpt>
      <trkpt lat="38.25676694" lon="-2.70011267">
        <ele>810.00000</ele>
        <time>2018-10-13T15:17:58Z</time>
      </trkpt>
      <trkpt lat="38.25660450" lon="-2.70001050">
        <ele>811.00000</ele>
        <time>2018-10-13T15:18:03Z</time>
      </trkpt>
      <trkpt lat="38.25631733" lon="-2.69986113">
        <ele>813.00000</ele>
        <time>2018-10-13T15:18:12Z</time>
      </trkpt>
      <trkpt lat="38.25617828" lon="-2.69973557">
        <ele>814.00000</ele>
        <time>2018-10-13T15:18:17Z</time>
      </trkpt>
      <trkpt lat="38.25605942" lon="-2.69958755">
        <ele>815.00000</ele>
        <time>2018-10-13T15:18:22Z</time>
      </trkpt>
      <trkpt lat="38.25593596" lon="-2.69940247">
        <ele>816.00000</ele>
        <time>2018-10-13T15:18:28Z</time>
      </trkpt>
      <trkpt lat="38.25582641" lon="-2.69925872">
        <ele>817.00000</ele>
        <time>2018-10-13T15:18:33Z</time>
      </trkpt>
      <trkpt lat="38.25570303" lon="-2.69907809">
        <ele>818.00000</ele>
        <time>2018-10-13T15:18:39Z</time>
      </trkpt>
      <trkpt lat="38.25560571" lon="-2.69888724">
        <ele>819.00000</ele>
        <time>2018-10-13T15:18:45Z</time>
      </trkpt>
      <trkpt lat="38.25552843" lon="-2.69872060">
        <ele>820.00000</ele>
        <time>2018-10-13T15:18:50Z</time>
      </trkpt>
      <trkpt lat="38.25537110" lon="-2.69855774">
        <ele>822.00000</ele>
        <time>2018-10-13T15:18:57Z</time>
      </trkpt>
      <trkpt lat="38.25519265" lon="-2.69845490">
        <ele>823.00000</ele>
        <time>2018-10-13T15:19:04Z</time>
      </trkpt>
      <trkpt lat="38.25506734" lon="-2.69838256">
        <ele>824.00000</ele>
        <time>2018-10-13T15:19:09Z</time>
      </trkpt>
      <trkpt lat="38.25493047" lon="-2.69828357">
        <ele>825.00000</ele>
        <time>2018-10-13T15:19:15Z</time>
      </trkpt>
      <trkpt lat="38.25481127" lon="-2.69818986">
        <ele>826.00000</ele>
        <time>2018-10-13T15:19:20Z</time>
      </trkpt>
      <trkpt lat="38.25462595" lon="-2.69803958">
        <ele>827.00000</ele>
        <time>2018-10-13T15:19:28Z</time>
      </trkpt>
      <trkpt lat="38.25449226" lon="-2.69792340">
        <ele>828.00000</ele>
        <time>2018-10-13T15:19:34Z</time>
      </trkpt>
      <trkpt lat="38.25432881" lon="-2.69778938">
        <ele>829.00000</ele>
        <time>2018-10-13T15:19:41Z</time>
      </trkpt>
      <trkpt lat="38.25416193" lon="-2.69766113">
        <ele>831.00000</ele>
        <time>2018-10-13T15:19:48Z</time>
      </trkpt>
      <trkpt lat="38.25403285" lon="-2.69753892">
        <ele>832.00000</ele>
        <time>2018-10-13T15:19:54Z</time>
      </trkpt>
      <trkpt lat="38.25392740" lon="-2.69743407">
        <ele>833.00000</ele>
        <time>2018-10-13T15:19:59Z</time>
      </trkpt>
      <trkpt lat="38.25381408" lon="-2.69729174">
        <ele>834.00000</ele>
        <time>2018-10-13T15:20:05Z</time>
      </trkpt>
      <trkpt lat="38.25372599" lon="-2.69716568">
        <ele>835.00000</ele>
        <time>2018-10-13T15:20:10Z</time>
      </trkpt>
      <trkpt lat="38.25362507" lon="-2.69704280">
        <ele>836.00000</ele>
        <time>2018-10-13T15:20:15Z</time>
      </trkpt>
      <trkpt lat="38.25348744" lon="-2.69687231">
        <ele>837.00000</ele>
        <time>2018-10-13T15:20:22Z</time>
      </trkpt>
      <trkpt lat="38.25335928" lon="-2.69668749">
        <ele>838.00000</ele>
        <time>2018-10-13T15:20:29Z</time>
      </trkpt>
      <trkpt lat="38.25327831" lon="-2.69654542">
        <ele>839.00000</ele>
        <time>2018-10-13T15:20:34Z</time>
      </trkpt>
      <trkpt lat="38.25319717" lon="-2.69636889">
        <ele>840.00000</ele>
        <time>2018-10-13T15:20:40Z</time>
      </trkpt>
      <trkpt lat="38.25314822" lon="-2.69620830">
        <ele>842.00000</ele>
        <time>2018-10-13T15:20:45Z</time>
      </trkpt>
      <trkpt lat="38.25308812" lon="-2.69601409">
        <ele>843.00000</ele>
        <time>2018-10-13T15:20:51Z</time>
      </trkpt>
      <trkpt lat="38.25304789" lon="-2.69588610">
        <ele>843.00000</ele>
        <time>2018-10-13T15:20:55Z</time>
      </trkpt>
      <trkpt lat="38.25300120" lon="-2.69572843">
        <ele>844.00000</ele>
        <time>2018-10-13T15:21:00Z</time>
      </trkpt>
      <trkpt lat="38.25294638" lon="-2.69553666">
        <ele>845.00000</ele>
        <time>2018-10-13T15:21:06Z</time>
      </trkpt>
      <trkpt lat="38.25289425" lon="-2.69536273">
        <ele>846.00000</ele>
        <time>2018-10-13T15:21:12Z</time>
      </trkpt>
      <trkpt lat="38.25287514" lon="-2.69525100">
        <ele>847.00000</ele>
        <time>2018-10-13T15:21:16Z</time>
      </trkpt>
      <trkpt lat="38.25284320" lon="-2.69505017">
        <ele>848.00000</ele>
        <time>2018-10-13T15:21:23Z</time>
      </trkpt>
      <trkpt lat="38.25281412" lon="-2.69488555">
        <ele>849.00000</ele>
        <time>2018-10-13T15:21:29Z</time>
      </trkpt>
      <trkpt lat="38.25278621" lon="-2.69468463">
        <ele>851.00000</ele>
        <time>2018-10-13T15:21:36Z</time>
      </trkpt>
      <trkpt lat="38.25276919" lon="-2.69451121">
        <ele>852.00000</ele>
        <time>2018-10-13T15:21:42Z</time>
      </trkpt>
      <trkpt lat="38.25273491" lon="-2.69430376">
        <ele>853.00000</ele>
        <time>2018-10-13T15:21:49Z</time>
      </trkpt>
      <trkpt lat="38.25272007" lon="-2.69417451">
        <ele>854.00000</ele>
        <time>2018-10-13T15:21:54Z</time>
      </trkpt>
      <trkpt lat="38.25270029" lon="-2.69402129">
        <ele>855.00000</ele>
        <time>2018-10-13T15:22:00Z</time>
      </trkpt>
      <trkpt lat="38.25267749" lon="-2.69386262">
        <ele>856.00000</ele>
        <time>2018-10-13T15:22:06Z</time>
      </trkpt>
      <trkpt lat="38.25265076" lon="-2.69367160">
        <ele>857.00000</ele>
        <time>2018-10-13T15:22:13Z</time>
      </trkpt>
      <trkpt lat="38.25262242" lon="-2.69348544">
        <ele>858.00000</ele>
        <time>2018-10-13T15:22:20Z</time>
      </trkpt>
      <trkpt lat="38.25261287" lon="-2.69335820">
        <ele>860.00000</ele>
        <time>2018-10-13T15:22:25Z</time>
      </trkpt>
      <trkpt lat="38.25259024" lon="-2.69322618">
        <ele>861.00000</ele>
        <time>2018-10-13T15:22:30Z</time>
      </trkpt>
      <trkpt lat="38.25256886" lon="-2.69307095">
        <ele>862.00000</ele>
        <time>2018-10-13T15:22:36Z</time>
      </trkpt>
      <trkpt lat="38.25255160" lon="-2.69294220">
        <ele>863.00000</ele>
        <time>2018-10-13T15:22:41Z</time>
      </trkpt>
      <trkpt lat="38.25252922" lon="-2.69279125">
        <ele>864.00000</ele>
        <time>2018-10-13T15:22:47Z</time>
      </trkpt>
      <trkpt lat="38.25250240" lon="-2.69262839">
        <ele>865.00000</ele>
        <time>2018-10-13T15:22:53Z</time>
      </trkpt>
      <trkpt lat="38.25248563" lon="-2.69249453">
        <ele>866.00000</ele>
        <time>2018-10-13T15:22:58Z</time>
      </trkpt>
      <trkpt lat="38.25246543" lon="-2.69233862">
        <ele>867.00000</ele>
        <time>2018-10-13T15:23:04Z</time>
      </trkpt>
      <trkpt lat="38.25244414" lon="-2.69218264">
        <ele>868.00000</ele>
        <time>2018-10-13T15:23:10Z</time>
      </trkpt>
      <trkpt lat="38.25242746" lon="-2.69202824">
        <ele>869.00000</ele>
        <time>2018-10-13T15:23:16Z</time>
      </trkpt>
      <trkpt lat="38.25240391" lon="-2.69187494">
        <ele>870.00000</ele>
        <time>2018-10-13T15:23:21Z</time>
      </trkpt>
      <trkpt lat="38.25237943" lon="-2.69170520">
        <ele>871.00000</ele>
        <time>2018-10-13T15:23:27Z</time>
      </trkpt>
      <trkpt lat="38.25235429" lon="-2.69154863">
        <ele>872.00000</ele>
        <time>2018-10-13T15:23:33Z</time>
      </trkpt>
      <trkpt lat="38.25233811" lon="-2.69144335">
        <ele>873.00000</ele>
        <time>2018-10-13T15:23:37Z</time>
      </trkpt>
      <trkpt lat="38.25232009" lon="-2.69129432">
        <ele>874.00000</ele>
        <time>2018-10-13T15:23:43Z</time>
      </trkpt>
      <trkpt lat="38.25229872" lon="-2.69117102">
        <ele>875.00000</ele>
        <time>2018-10-13T15:23:48Z</time>
      </trkpt>
      <trkpt lat="38.25228564" lon="-2.69102308">
        <ele>877.00000</ele>
        <time>2018-10-13T15:23:54Z</time>
      </trkpt>
      <trkpt lat="38.25225764" lon="-2.69085913">
        <ele>878.00000</ele>
        <time>2018-10-13T15:24:01Z</time>
      </trkpt>
      <trkpt lat="38.25223702" lon="-2.69071748">
        <ele>879.00000</ele>
        <time>2018-10-13T15:24:07Z</time>
      </trkpt>
      <trkpt lat="38.25222864" lon="-2.69062436">
        <ele>880.00000</ele>
        <time>2018-10-13T15:24:11Z</time>
      </trkpt>
      <trkpt lat="38.25221247" lon="-2.69048832">
        <ele>881.00000</ele>
        <time>2018-10-13T15:24:17Z</time>
      </trkpt>
      <trkpt lat="38.25219453" lon="-2.69034189">
        <ele>882.00000</ele>
        <time>2018-10-13T15:24:23Z</time>
      </trkpt>
      <trkpt lat="38.25217684" lon="-2.69019814">
        <ele>883.00000</ele>
        <time>2018-10-13T15:24:29Z</time>
      </trkpt>
      <trkpt lat="38.25215958" lon="-2.69008272">
        <ele>884.00000</ele>
        <time>2018-10-13T15:24:34Z</time>
      </trkpt>
      <trkpt lat="38.25213636" lon="-2.68991659">
        <ele>885.00000</ele>
        <time>2018-10-13T15:24:41Z</time>
      </trkpt>
      <trkpt lat="38.25212580" lon="-2.68982305">
        <ele>886.00000</ele>
        <time>2018-10-13T15:24:45Z</time>
      </trkpt>
      <trkpt lat="38.25211280" lon="-2.68972624">
        <ele>887.00000</ele>
        <time>2018-10-13T15:24:49Z</time>
      </trkpt>
      <trkpt lat="38.25211171" lon="-2.68969866">
        <ele>887.00000</ele>
        <time>2018-10-13T15:24:50Z</time>
      </trkpt>
      <trkpt lat="38.25209529" lon="-2.68950579">
        <ele>888.00000</ele>
        <time>2018-10-13T15:24:58Z</time>
      </trkpt>
      <trkpt lat="38.25206855" lon="-2.68937529">
        <ele>889.00000</ele>
        <time>2018-10-13T15:25:02Z</time>
      </trkpt>
      <trkpt lat="38.25206478" lon="-2.68934058">
        <ele>890.00000</ele>
        <time>2018-10-13T15:25:03Z</time>
      </trkpt>
      <trkpt lat="38.25204701" lon="-2.68923497">
        <ele>890.00000</ele>
        <time>2018-10-13T15:25:06Z</time>
      </trkpt>
      <trkpt lat="38.25204223" lon="-2.68920446">
        <ele>891.00000</ele>
        <time>2018-10-13T15:25:07Z</time>
      </trkpt>
      <trkpt lat="38.25202924" lon="-2.68909080">
        <ele>892.00000</ele>
        <time>2018-10-13T15:25:11Z</time>
      </trkpt>
      <trkpt lat="38.25201490" lon="-2.68898268">
        <ele>893.00000</ele>
        <time>2018-10-13T15:25:15Z</time>
      </trkpt>
      <trkpt lat="38.25199672" lon="-2.68885158">
        <ele>894.00000</ele>
        <time>2018-10-13T15:25:20Z</time>
      </trkpt>
      <trkpt lat="38.25196411" lon="-2.68869166">
        <ele>895.00000</ele>
        <time>2018-10-13T15:25:26Z</time>
      </trkpt>
      <trkpt lat="38.25188498" lon="-2.68852695">
        <ele>896.00000</ele>
        <time>2018-10-13T15:25:33Z</time>
      </trkpt>
      <trkpt lat="38.25182413" lon="-2.68844154">
        <ele>897.00000</ele>
        <time>2018-10-13T15:25:37Z</time>
      </trkpt>
      <trkpt lat="38.25172556" lon="-2.68832118">
        <ele>898.00000</ele>
        <time>2018-10-13T15:25:43Z</time>
      </trkpt>
      <trkpt lat="38.25163579" lon="-2.68819109">
        <ele>900.00000</ele>
        <time>2018-10-13T15:25:49Z</time>
      </trkpt>
      <trkpt lat="38.25155926" lon="-2.68808129">
        <ele>901.00000</ele>
        <time>2018-10-13T15:25:54Z</time>
      </trkpt>
      <trkpt lat="38.25148106" lon="-2.68793729">
        <ele>902.00000</ele>
        <time>2018-10-13T15:26:00Z</time>
      </trkpt>
      <trkpt lat="38.25145508" lon="-2.68776395">
        <ele>903.00000</ele>
        <time>2018-10-13T15:26:06Z</time>
      </trkpt>
      <trkpt lat="38.25148156" lon="-2.68754677">
        <ele>904.00000</ele>
        <time>2018-10-13T15:26:14Z</time>
      </trkpt>
      <trkpt lat="38.25148450" lon="-2.68737981">
        <ele>905.00000</ele>
        <time>2018-10-13T15:26:20Z</time>
      </trkpt>
      <trkpt lat="38.25148374" lon="-2.68724452">
        <ele>906.00000</ele>
        <time>2018-10-13T15:26:25Z</time>
      </trkpt>
      <trkpt lat="38.25147528" lon="-2.68715525">
        <ele>907.00000</ele>
        <time>2018-10-13T15:26:28Z</time>
      </trkpt>
      <trkpt lat="38.25147142" lon="-2.68701955">
        <ele>908.00000</ele>
        <time>2018-10-13T15:26:33Z</time>
      </trkpt>
      <trkpt lat="38.25146371" lon="-2.68693305">
        <ele>909.00000</ele>
        <time>2018-10-13T15:26:37Z</time>
      </trkpt>
      <trkpt lat="38.25143882" lon="-2.68681403">
        <ele>910.00000</ele>
        <time>2018-10-13T15:26:41Z</time>
      </trkpt>
      <trkpt lat="38.25141769" lon="-2.68669450">
        <ele>911.00000</ele>
        <time>2018-10-13T15:26:46Z</time>
      </trkpt>
      <trkpt lat="38.25142079" lon="-2.68659442">
        <ele>913.00000</ele>
        <time>2018-10-13T15:26:50Z</time>
      </trkpt>
      <trkpt lat="38.25142054" lon="-2.68651043">
        <ele>914.00000</ele>
        <time>2018-10-13T15:26:53Z</time>
      </trkpt>
      <trkpt lat="38.25141007" lon="-2.68636166">
        <ele>915.00000</ele>
        <time>2018-10-13T15:26:57Z</time>
      </trkpt>
      <trkpt lat="38.25139422" lon="-2.68623291">
        <ele>916.00000</ele>
        <time>2018-10-13T15:27:01Z</time>
      </trkpt>
      <trkpt lat="38.25138375" lon="-2.68612059">
        <ele>917.00000</ele>
        <time>2018-10-13T15:27:05Z</time>
      </trkpt>
      <trkpt lat="38.25143915" lon="-2.68599662">
        <ele>918.00000</ele>
        <time>2018-10-13T15:27:10Z</time>
      </trkpt>
      <trkpt lat="38.25149003" lon="-2.68589621">
        <ele>919.00000</ele>
        <time>2018-10-13T15:27:14Z</time>
      </trkpt>
      <trkpt lat="38.25153437" lon="-2.68570225">
        <ele>920.00000</ele>
        <time>2018-10-13T15:27:22Z</time>
      </trkpt>
      <trkpt lat="38.25152959" lon="-2.68558692">
        <ele>921.00000</ele>
        <time>2018-10-13T15:27:26Z</time>
      </trkpt>
      <trkpt lat="38.25154795" lon="-2.68544912">
        <ele>922.00000</ele>
        <time>2018-10-13T15:27:31Z</time>
      </trkpt>
      <trkpt lat="38.25156111" lon="-2.68539531">
        <ele>923.00000</ele>
        <time>2018-10-13T15:27:34Z</time>
      </trkpt>
      <trkpt lat="38.25157167" lon="-2.68537418">
        <ele>923.00000</ele>
        <time>2018-10-13T15:27:35Z</time>
      </trkpt>
      <trkpt lat="38.25158399" lon="-2.68532423">
        <ele>924.00000</ele>
        <time>2018-10-13T15:27:37Z</time>
      </trkpt>
      <trkpt lat="38.25157946" lon="-2.68527033">
        <ele>924.00000</ele>
        <time>2018-10-13T15:27:39Z</time>
      </trkpt>
      <trkpt lat="38.25158022" lon="-2.68522591">
        <ele>924.00000</ele>
        <time>2018-10-13T15:27:41Z</time>
      </trkpt>
      <trkpt lat="38.25160218" lon="-2.68515533">
        <ele>925.00000</ele>
        <time>2018-10-13T15:27:44Z</time>
      </trkpt>
      <trkpt lat="38.25162137" lon="-2.68503522">
        <ele>926.00000</ele>
        <time>2018-10-13T15:27:49Z</time>
      </trkpt>
      <trkpt lat="38.25164702" lon="-2.68485090">
        <ele>927.00000</ele>
        <time>2018-10-13T15:27:55Z</time>
      </trkpt>
      <trkpt lat="38.25167946" lon="-2.68466910">
        <ele>928.00000</ele>
        <time>2018-10-13T15:28:02Z</time>
      </trkpt>
      <trkpt lat="38.25170083" lon="-2.68454873">
        <ele>929.00000</ele>
        <time>2018-10-13T15:28:07Z</time>
      </trkpt>
      <trkpt lat="38.25170662" lon="-2.68440633">
        <ele>930.00000</ele>
        <time>2018-10-13T15:28:12Z</time>
      </trkpt>
      <trkpt lat="38.25169337" lon="-2.68423223">
        <ele>931.00000</ele>
        <time>2018-10-13T15:28:18Z</time>
      </trkpt>
      <trkpt lat="38.25165188" lon="-2.68406828">
        <ele>933.00000</ele>
        <time>2018-10-13T15:28:24Z</time>
      </trkpt>
      <trkpt lat="38.25159053" lon="-2.68394323">
        <ele>934.00000</ele>
        <time>2018-10-13T15:28:29Z</time>
      </trkpt>
      <trkpt lat="38.25150755" lon="-2.68383694">
        <ele>935.00000</ele>
        <time>2018-10-13T15:28:34Z</time>
      </trkpt>
      <trkpt lat="38.25144720" lon="-2.68376695">
        <ele>936.00000</ele>
        <time>2018-10-13T15:28:38Z</time>
      </trkpt>
      <trkpt lat="38.25140663" lon="-2.68373033">
        <ele>936.00000</ele>
        <time>2018-10-13T15:28:41Z</time>
      </trkpt>
      <trkpt lat="38.25131217" lon="-2.68366511">
        <ele>937.00000</ele>
        <time>2018-10-13T15:28:46Z</time>
      </trkpt>
      <trkpt lat="38.25113975" lon="-2.68358456">
        <ele>938.00000</ele>
        <time>2018-10-13T15:28:53Z</time>
      </trkpt>
      <trkpt lat="38.25100505" lon="-2.68355389">
        <ele>939.00000</ele>
        <time>2018-10-13T15:28:59Z</time>
      </trkpt>
      <trkpt lat="38.25085652" lon="-2.68374030">
        <ele>940.00000</ele>
        <time>2018-10-13T15:29:07Z</time>
      </trkpt>
      <trkpt lat="38.25079131" lon="-2.68394054">
        <ele>941.00000</ele>
        <time>2018-10-13T15:29:14Z</time>
      </trkpt>
      <trkpt lat="38.25070280" lon="-2.68409200">
        <ele>942.00000</ele>
        <time>2018-10-13T15:29:20Z</time>
      </trkpt>
      <trkpt lat="38.25065243" lon="-2.68415772">
        <ele>943.00000</ele>
        <time>2018-10-13T15:29:23Z</time>
      </trkpt>
      <trkpt lat="38.25061471" lon="-2.68418320">
        <ele>943.00000</ele>
        <time>2018-10-13T15:29:25Z</time>
      </trkpt>
      <trkpt lat="38.25053407" lon="-2.68425537">
        <ele>944.00000</ele>
        <time>2018-10-13T15:29:29Z</time>
      </trkpt>
      <trkpt lat="38.25046299" lon="-2.68429401">
        <ele>944.00000</ele>
        <time>2018-10-13T15:29:32Z</time>
      </trkpt>
      <trkpt lat="38.25031036" lon="-2.68439023">
        <ele>945.00000</ele>
        <time>2018-10-13T15:29:40Z</time>
      </trkpt>
      <trkpt lat="38.25018430" lon="-2.68442041">
        <ele>946.00000</ele>
        <time>2018-10-13T15:29:45Z</time>
      </trkpt>
      <trkpt lat="38.24999981" lon="-2.68447062">
        <ele>947.00000</ele>
        <time>2018-10-13T15:29:52Z</time>
      </trkpt>
      <trkpt lat="38.24996234" lon="-2.68450624">
        <ele>947.00000</ele>
        <time>2018-10-13T15:29:54Z</time>
      </trkpt>
      <trkpt lat="38.24991423" lon="-2.68458939">
        <ele>948.00000</ele>
        <time>2018-10-13T15:29:57Z</time>
      </trkpt>
      <trkpt lat="38.24980082" lon="-2.68478033">
        <ele>949.00000</ele>
        <time>2018-10-13T15:30:04Z</time>
      </trkpt>
      <trkpt lat="38.24970074" lon="-2.68488485">
        <ele>950.00000</ele>
        <time>2018-10-13T15:30:09Z</time>
      </trkpt>
      <trkpt lat="38.24954568" lon="-2.68505768">
        <ele>951.00000</ele>
        <time>2018-10-13T15:30:17Z</time>
      </trkpt>
      <trkpt lat="38.24943001" lon="-2.68520814">
        <ele>952.00000</ele>
        <time>2018-10-13T15:30:23Z</time>
      </trkpt>
      <trkpt lat="38.24934259" lon="-2.68531023">
        <ele>953.00000</ele>
        <time>2018-10-13T15:30:28Z</time>
      </trkpt>
      <trkpt lat="38.24932415" lon="-2.68533605">
        <ele>953.00000</ele>
        <time>2018-10-13T15:30:29Z</time>
      </trkpt>
      <trkpt lat="38.24923546" lon="-2.68544057">
        <ele>954.00000</ele>
        <time>2018-10-13T15:30:34Z</time>
      </trkpt>
      <trkpt lat="38.24911770" lon="-2.68558859">
        <ele>955.00000</ele>
        <time>2018-10-13T15:30:41Z</time>
      </trkpt>
      <trkpt lat="38.24900798" lon="-2.68573259">
        <ele>956.00000</ele>
        <time>2018-10-13T15:30:47Z</time>
      </trkpt>
      <trkpt lat="38.24887823" lon="-2.68588883">
        <ele>958.00000</ele>
        <time>2018-10-13T15:30:54Z</time>
      </trkpt>
      <trkpt lat="38.24877723" lon="-2.68602512">
        <ele>959.00000</ele>
        <time>2018-10-13T15:31:00Z</time>
      </trkpt>
      <trkpt lat="38.24865560" lon="-2.68612462">
        <ele>959.00000</ele>
        <time>2018-10-13T15:31:06Z</time>
      </trkpt>
      <trkpt lat="38.24850129" lon="-2.68620433">
        <ele>961.00000</ele>
        <time>2018-10-13T15:31:13Z</time>
      </trkpt>
      <trkpt lat="38.24832142" lon="-2.68621623">
        <ele>962.00000</ele>
        <time>2018-10-13T15:31:19Z</time>
      </trkpt>
      <trkpt lat="38.24819837" lon="-2.68617558">
        <ele>963.00000</ele>
        <time>2018-10-13T15:31:25Z</time>
      </trkpt>
      <trkpt lat="38.24815596" lon="-2.68607357">
        <ele>963.00000</ele>
        <time>2018-10-13T15:31:29Z</time>
      </trkpt>
      <trkpt lat="38.24814548" lon="-2.68598715">
        <ele>964.00000</ele>
        <time>2018-10-13T15:31:32Z</time>
      </trkpt>
      <trkpt lat="38.24815185" lon="-2.68595798">
        <ele>965.00000</ele>
        <time>2018-10-13T15:31:33Z</time>
      </trkpt>
      <trkpt lat="38.24820248" lon="-2.68583133">
        <ele>966.00000</ele>
        <time>2018-10-13T15:31:38Z</time>
      </trkpt>
      <trkpt lat="38.24826325" lon="-2.68575497">
        <ele>967.00000</ele>
        <time>2018-10-13T15:31:42Z</time>
      </trkpt>
      <trkpt lat="38.24836014" lon="-2.68564282">
        <ele>968.00000</ele>
        <time>2018-10-13T15:31:48Z</time>
      </trkpt>
      <trkpt lat="38.24837096" lon="-2.68562757">
        <ele>968.00000</ele>
        <time>2018-10-13T15:31:49Z</time>
      </trkpt>
      <trkpt lat="38.24846039" lon="-2.68552246">
        <ele>969.00000</ele>
        <time>2018-10-13T15:31:55Z</time>
      </trkpt>
      <trkpt lat="38.24859676" lon="-2.68537779">
        <ele>970.00000</ele>
        <time>2018-10-13T15:32:02Z</time>
      </trkpt>
      <trkpt lat="38.24868880" lon="-2.68525390">
        <ele>971.00000</ele>
        <time>2018-10-13T15:32:08Z</time>
      </trkpt>
      <trkpt lat="38.24870103" lon="-2.68523052">
        <ele>971.00000</ele>
        <time>2018-10-13T15:32:09Z</time>
      </trkpt>
      <trkpt lat="38.24871109" lon="-2.68520344">
        <ele>972.00000</ele>
        <time>2018-10-13T15:32:10Z</time>
      </trkpt>
      <trkpt lat="38.24874546" lon="-2.68513480">
        <ele>972.00000</ele>
        <time>2018-10-13T15:32:13Z</time>
      </trkpt>
      <trkpt lat="38.24876021" lon="-2.68509498">
        <ele>973.00000</ele>
        <time>2018-10-13T15:32:15Z</time>
      </trkpt>
      <trkpt lat="38.24881436" lon="-2.68491368">
        <ele>973.00000</ele>
        <time>2018-10-13T15:32:22Z</time>
      </trkpt>
      <trkpt lat="38.24887697" lon="-2.68476859">
        <ele>975.00000</ele>
        <time>2018-10-13T15:32:28Z</time>
      </trkpt>
      <trkpt lat="38.24893724" lon="-2.68461453">
        <ele>976.00000</ele>
        <time>2018-10-13T15:32:34Z</time>
      </trkpt>
      <trkpt lat="38.24901971" lon="-2.68447933">
        <ele>976.00000</ele>
        <time>2018-10-13T15:32:41Z</time>
      </trkpt>
      <trkpt lat="38.24907772" lon="-2.68438202">
        <ele>978.00000</ele>
        <time>2018-10-13T15:32:45Z</time>
      </trkpt>
      <trkpt lat="38.24915952" lon="-2.68428445">
        <ele>979.00000</ele>
        <time>2018-10-13T15:32:50Z</time>
      </trkpt>
      <trkpt lat="38.24916816" lon="-2.68425746">
        <ele>979.00000</ele>
        <time>2018-10-13T15:32:51Z</time>
      </trkpt>
      <trkpt lat="38.24921409" lon="-2.68418219">
        <ele>979.00000</ele>
        <time>2018-10-13T15:32:54Z</time>
      </trkpt>
      <trkpt lat="38.24923186" lon="-2.68416040">
        <ele>980.00000</ele>
        <time>2018-10-13T15:32:55Z</time>
      </trkpt>
      <trkpt lat="38.24932356" lon="-2.68404775">
        <ele>981.00000</ele>
        <time>2018-10-13T15:33:00Z</time>
      </trkpt>
      <trkpt lat="38.24940545" lon="-2.68393476">
        <ele>981.00000</ele>
        <time>2018-10-13T15:33:05Z</time>
      </trkpt>
      <trkpt lat="38.24941928" lon="-2.68391674">
        <ele>982.00000</ele>
        <time>2018-10-13T15:33:06Z</time>
      </trkpt>
      <trkpt lat="38.24948835" lon="-2.68384206">
        <ele>983.00000</ele>
        <time>2018-10-13T15:33:10Z</time>
      </trkpt>
      <trkpt lat="38.24955398" lon="-2.68375631">
        <ele>984.00000</ele>
        <time>2018-10-13T15:33:14Z</time>
      </trkpt>
      <trkpt lat="38.24960276" lon="-2.68369286">
        <ele>985.00000</ele>
        <time>2018-10-13T15:33:17Z</time>
      </trkpt>
      <trkpt lat="38.24971424" lon="-2.68362890">
        <ele>986.00000</ele>
        <time>2018-10-13T15:33:23Z</time>
      </trkpt>
      <trkpt lat="38.24980652" lon="-2.68356344">
        <ele>987.00000</ele>
        <time>2018-10-13T15:33:28Z</time>
      </trkpt>
      <trkpt lat="38.24989386" lon="-2.68344325">
        <ele>988.00000</ele>
        <time>2018-10-13T15:33:34Z</time>
      </trkpt>
      <trkpt lat="38.24994659" lon="-2.68330251">
        <ele>989.00000</ele>
        <time>2018-10-13T15:33:40Z</time>
      </trkpt>
      <trkpt lat="38.25001414" lon="-2.68317008">
        <ele>990.00000</ele>
        <time>2018-10-13T15:33:46Z</time>
      </trkpt>
      <trkpt lat="38.25004046" lon="-2.68313228">
        <ele>990.00000</ele>
        <time>2018-10-13T15:33:48Z</time>
      </trkpt>
      <trkpt lat="38.25007625" lon="-2.68301527">
        <ele>991.00000</ele>
        <time>2018-10-13T15:33:53Z</time>
      </trkpt>
      <trkpt lat="38.25010023" lon="-2.68289968">
        <ele>992.00000</ele>
        <time>2018-10-13T15:33:58Z</time>
      </trkpt>
      <trkpt lat="38.25011556" lon="-2.68281167">
        <ele>993.00000</ele>
        <time>2018-10-13T15:34:02Z</time>
      </trkpt>
      <trkpt lat="38.25009897" lon="-2.68271989">
        <ele>994.00000</ele>
        <time>2018-10-13T15:34:06Z</time>
      </trkpt>
      <trkpt lat="38.25007441" lon="-2.68257563">
        <ele>995.00000</ele>
        <time>2018-10-13T15:34:11Z</time>
      </trkpt>
      <trkpt lat="38.25008204" lon="-2.68248033">
        <ele>996.00000</ele>
        <time>2018-10-13T15:34:15Z</time>
      </trkpt>
      <trkpt lat="38.25005186" lon="-2.68234580">
        <ele>997.00000</ele>
        <time>2018-10-13T15:34:20Z</time>
      </trkpt>
      <trkpt lat="38.25004457" lon="-2.68232326">
        <ele>998.00000</ele>
        <time>2018-10-13T15:34:21Z</time>
      </trkpt>
      <trkpt lat="38.25002538" lon="-2.68224480">
        <ele>998.00000</ele>
        <time>2018-10-13T15:34:24Z</time>
      </trkpt>
      <trkpt lat="38.25000442" lon="-2.68211698">
        <ele>999.00000</ele>
        <time>2018-10-13T15:34:28Z</time>
      </trkpt>
      <trkpt lat="38.25003786" lon="-2.68205403">
        <ele>1000.0000</ele>
        <time>2018-10-13T15:34:31Z</time>
      </trkpt>
      <trkpt lat="38.25008950" lon="-2.68202025">
        <ele>1000.0000</ele>
        <time>2018-10-13T15:34:34Z</time>
      </trkpt>
      <trkpt lat="38.25023668" lon="-2.68199427">
        <ele>1001.0000</ele>
        <time>2018-10-13T15:34:40Z</time>
      </trkpt>
      <trkpt lat="38.25038345" lon="-2.68204917">
        <ele>1002.0000</ele>
        <time>2018-10-13T15:34:47Z</time>
      </trkpt>
      <trkpt lat="38.25059845" lon="-2.68201941">
        <ele>1003.0000</ele>
        <time>2018-10-13T15:34:57Z</time>
      </trkpt>
      <trkpt lat="38.25069274" lon="-2.68191246">
        <ele>1005.0000</ele>
        <time>2018-10-13T15:35:03Z</time>
      </trkpt>
      <trkpt lat="38.25073641" lon="-2.68185085">
        <ele>1005.0000</ele>
        <time>2018-10-13T15:35:06Z</time>
      </trkpt>
      <trkpt lat="38.25073717" lon="-2.68181816">
        <ele>1006.0000</ele>
        <time>2018-10-13T15:35:07Z</time>
      </trkpt>
      <trkpt lat="38.25075561" lon="-2.68174289">
        <ele>1007.0000</ele>
        <time>2018-10-13T15:35:10Z</time>
      </trkpt>
      <trkpt lat="38.25080464" lon="-2.68167047">
        <ele>1008.0000</ele>
        <time>2018-10-13T15:35:14Z</time>
      </trkpt>
      <trkpt lat="38.25083289" lon="-2.68159017">
        <ele>1009.0000</ele>
        <time>2018-10-13T15:35:18Z</time>
      </trkpt>
      <trkpt lat="38.25083222" lon="-2.68156318">
        <ele>1009.0000</ele>
        <time>2018-10-13T15:35:19Z</time>
      </trkpt>
      <trkpt lat="38.25087605" lon="-2.68149638">
        <ele>1010.0000</ele>
        <time>2018-10-13T15:35:22Z</time>
      </trkpt>
      <trkpt lat="38.25091478" lon="-2.68138960">
        <ele>1011.0000</ele>
        <time>2018-10-13T15:35:26Z</time>
      </trkpt>
      <trkpt lat="38.25089449" lon="-2.68129128">
        <ele>1012.0000</ele>
        <time>2018-10-13T15:35:30Z</time>
      </trkpt>
      <trkpt lat="38.25087228" lon="-2.68127795">
        <ele>1012.0000</ele>
        <time>2018-10-13T15:35:31Z</time>
      </trkpt>
      <trkpt lat="38.25080313" lon="-2.68126680">
        <ele>1013.0000</ele>
        <time>2018-10-13T15:35:34Z</time>
      </trkpt>
      <trkpt lat="38.25070892" lon="-2.68133168">
        <ele>1014.0000</ele>
        <time>2018-10-13T15:35:39Z</time>
      </trkpt>
      <trkpt lat="38.25065427" lon="-2.68141072">
        <ele>1015.0000</ele>
        <time>2018-10-13T15:35:43Z</time>
      </trkpt>
      <trkpt lat="38.25061622" lon="-2.68149957">
        <ele>1016.0000</ele>
        <time>2018-10-13T15:35:48Z</time>
      </trkpt>
      <trkpt lat="38.25058730" lon="-2.68157048">
        <ele>1017.0000</ele>
        <time>2018-10-13T15:35:52Z</time>
      </trkpt>
      <trkpt lat="38.25049443" lon="-2.68168212">
        <ele>1018.0000</ele>
        <time>2018-10-13T15:35:58Z</time>
      </trkpt>
      <trkpt lat="38.25045662" lon="-2.68169042">
        <ele>1018.0000</ele>
        <time>2018-10-13T15:36:00Z</time>
      </trkpt>
      <trkpt lat="38.25036769" lon="-2.68167684">
        <ele>1019.0000</ele>
        <time>2018-10-13T15:36:05Z</time>
      </trkpt>
      <trkpt lat="38.25027256" lon="-2.68165337">
        <ele>1020.0000</ele>
        <time>2018-10-13T15:36:10Z</time>
      </trkpt>
      <trkpt lat="38.25017541" lon="-2.68163384">
        <ele>1021.0000</ele>
        <time>2018-10-13T15:36:15Z</time>
      </trkpt>
      <trkpt lat="38.25015471" lon="-2.68162789">
        <ele>1021.0000</ele>
        <time>2018-10-13T15:36:16Z</time>
      </trkpt>
      <trkpt lat="38.25008983" lon="-2.68161314">
        <ele>1022.0000</ele>
        <time>2018-10-13T15:36:20Z</time>
      </trkpt>
      <trkpt lat="38.24999998" lon="-2.68160979">
        <ele>1023.0000</ele>
        <time>2018-10-13T15:36:25Z</time>
      </trkpt>
      <trkpt lat="38.24997844" lon="-2.68161063">
        <ele>1023.0000</ele>
        <time>2018-10-13T15:36:26Z</time>
      </trkpt>
      <trkpt lat="38.24991566" lon="-2.68161088">
        <ele>1024.0000</ele>
        <time>2018-10-13T15:36:30Z</time>
      </trkpt>
      <trkpt lat="38.24988825" lon="-2.68161188">
        <ele>1025.0000</ele>
        <time>2018-10-13T15:36:32Z</time>
      </trkpt>
      <trkpt lat="38.24981943" lon="-2.68164801">
        <ele>1025.0000</ele>
        <time>2018-10-13T15:36:36Z</time>
      </trkpt>
      <trkpt lat="38.24977124" lon="-2.68167341">
        <ele>1026.0000</ele>
        <time>2018-10-13T15:36:39Z</time>
      </trkpt>
      <trkpt lat="38.24972480" lon="-2.68169369">
        <ele>1026.0000</ele>
        <time>2018-10-13T15:36:41Z</time>
      </trkpt>
      <trkpt lat="38.24963520" lon="-2.68171473">
        <ele>1027.0000</ele>
        <time>2018-10-13T15:36:46Z</time>
      </trkpt>
      <trkpt lat="38.24957032" lon="-2.68171540">
        <ele>1028.0000</ele>
        <time>2018-10-13T15:36:50Z</time>
      </trkpt>
      <trkpt lat="38.24946521" lon="-2.68173920">
        <ele>1029.0000</ele>
        <time>2018-10-13T15:36:55Z</time>
      </trkpt>
      <trkpt lat="38.24945197" lon="-2.68177935">
        <ele>1029.0000</ele>
        <time>2018-10-13T15:36:57Z</time>
      </trkpt>
      <trkpt lat="38.24946966" lon="-2.68199225">
        <ele>1030.0000</ele>
        <time>2018-10-13T15:37:05Z</time>
      </trkpt>
      <trkpt lat="38.24944702" lon="-2.68217951">
        <ele>1031.0000</ele>
        <time>2018-10-13T15:37:11Z</time>
      </trkpt>
      <trkpt lat="38.24939724" lon="-2.68229367">
        <ele>1033.0000</ele>
        <time>2018-10-13T15:37:15Z</time>
      </trkpt>
      <trkpt lat="38.24933571" lon="-2.68240900">
        <ele>1034.0000</ele>
        <time>2018-10-13T15:37:20Z</time>
      </trkpt>
      <trkpt lat="38.24928358" lon="-2.68249056">
        <ele>1035.0000</ele>
        <time>2018-10-13T15:37:24Z</time>
      </trkpt>
      <trkpt lat="38.24921149" lon="-2.68253465">
        <ele>1036.0000</ele>
        <time>2018-10-13T15:37:28Z</time>
      </trkpt>
      <trkpt lat="38.24911074" lon="-2.68260581">
        <ele>1037.0000</ele>
        <time>2018-10-13T15:37:34Z</time>
      </trkpt>
      <trkpt lat="38.24904134" lon="-2.68266063">
        <ele>1039.0000</ele>
        <time>2018-10-13T15:37:38Z</time>
      </trkpt>
      <trkpt lat="38.24897395" lon="-2.68270346">
        <ele>1039.0000</ele>
        <time>2018-10-13T15:37:42Z</time>
      </trkpt>
      <trkpt lat="38.24895685" lon="-2.68271343">
        <ele>1040.0000</ele>
        <time>2018-10-13T15:37:43Z</time>
      </trkpt>
      <trkpt lat="38.24892265" lon="-2.68275534">
        <ele>1041.0000</ele>
        <time>2018-10-13T15:37:46Z</time>
      </trkpt>
      <trkpt lat="38.24886197" lon="-2.68282081">
        <ele>1042.0000</ele>
        <time>2018-10-13T15:37:50Z</time>
      </trkpt>
      <trkpt lat="38.24879156" lon="-2.68286439">
        <ele>1043.0000</ele>
        <time>2018-10-13T15:37:54Z</time>
      </trkpt>
      <trkpt lat="38.24871134" lon="-2.68292281">
        <ele>1044.0000</ele>
        <time>2018-10-13T15:37:59Z</time>
      </trkpt>
      <trkpt lat="38.24865703" lon="-2.68295760">
        <ele>1045.0000</ele>
        <time>2018-10-13T15:38:03Z</time>
      </trkpt>
      <trkpt lat="38.24858394" lon="-2.68299356">
        <ele>1047.0000</ele>
        <time>2018-10-13T15:38:07Z</time>
      </trkpt>
      <trkpt lat="38.24850817" lon="-2.68302842">
        <ele>1048.0000</ele>
        <time>2018-10-13T15:38:12Z</time>
      </trkpt>
      <trkpt lat="38.24842569" lon="-2.68306497">
        <ele>1049.0000</ele>
        <time>2018-10-13T15:38:17Z</time>
      </trkpt>
      <trkpt lat="38.24833181" lon="-2.68311887">
        <ele>1050.0000</ele>
        <time>2018-10-13T15:38:23Z</time>
      </trkpt>
      <trkpt lat="38.24827171" lon="-2.68317813">
        <ele>1051.0000</ele>
        <time>2018-10-13T15:38:28Z</time>
      </trkpt>
      <trkpt lat="38.24823550" lon="-2.68320051">
        <ele>1052.0000</ele>
        <time>2018-10-13T15:38:31Z</time>
      </trkpt>
      <trkpt lat="38.24822117" lon="-2.68320797">
        <ele>1052.0000</ele>
        <time>2018-10-13T15:38:32Z</time>
      </trkpt>
      <trkpt lat="38.24817356" lon="-2.68322196">
        <ele>1053.0000</ele>
        <time>2018-10-13T15:38:35Z</time>
      </trkpt>
      <trkpt lat="38.24815655" lon="-2.68322389">
        <ele>1053.0000</ele>
        <time>2018-10-13T15:38:36Z</time>
      </trkpt>
      <trkpt lat="38.24812578" lon="-2.68323169">
        <ele>1054.0000</ele>
        <time>2018-10-13T15:38:38Z</time>
      </trkpt>
      <trkpt lat="38.24808396" lon="-2.68326010">
        <ele>1054.0000</ele>
        <time>2018-10-13T15:38:41Z</time>
      </trkpt>
      <trkpt lat="38.24805504" lon="-2.68326890">
        <ele>1055.0000</ele>
        <time>2018-10-13T15:38:43Z</time>
      </trkpt>
      <trkpt lat="38.24803208" lon="-2.68324744">
        <ele>1055.0000</ele>
        <time>2018-10-13T15:38:46Z</time>
      </trkpt>
      <trkpt lat="38.24802285" lon="-2.68322054">
        <ele>1056.0000</ele>
        <time>2018-10-13T15:38:47Z</time>
      </trkpt>
      <trkpt lat="38.24802646" lon="-2.68314829">
        <ele>1056.0000</ele>
        <time>2018-10-13T15:38:50Z</time>
      </trkpt>
      <trkpt lat="38.24804280" lon="-2.68307863">
        <ele>1057.0000</ele>
        <time>2018-10-13T15:38:53Z</time>
      </trkpt>
      <trkpt lat="38.24806619" lon="-2.68302256">
        <ele>1057.0000</ele>
        <time>2018-10-13T15:38:56Z</time>
      </trkpt>
      <trkpt lat="38.24807608" lon="-2.68301057">
        <ele>1058.0000</ele>
        <time>2018-10-13T15:38:57Z</time>
      </trkpt>
      <trkpt lat="38.24814934" lon="-2.68291016">
        <ele>1058.0000</ele>
        <time>2018-10-13T15:39:03Z</time>
      </trkpt>
      <trkpt lat="38.24821606" lon="-2.68282684">
        <ele>1059.0000</ele>
        <time>2018-10-13T15:39:08Z</time>
      </trkpt>
      <trkpt lat="38.24827817" lon="-2.68270346">
        <ele>1060.0000</ele>
        <time>2018-10-13T15:39:14Z</time>
      </trkpt>
      <trkpt lat="38.24833877" lon="-2.68259374">
        <ele>1061.0000</ele>
        <time>2018-10-13T15:39:20Z</time>
      </trkpt>
      <trkpt lat="38.24838504" lon="-2.68247329">
        <ele>1062.0000</ele>
        <time>2018-10-13T15:39:27Z</time>
      </trkpt>
      <trkpt lat="38.24839384" lon="-2.68244236">
        <ele>1063.0000</ele>
        <time>2018-10-13T15:39:29Z</time>
      </trkpt>
      <trkpt lat="38.24838663" lon="-2.68237573">
        <ele>1064.0000</ele>
        <time>2018-10-13T15:39:32Z</time>
      </trkpt>
      <trkpt lat="38.24838437" lon="-2.68227506">
        <ele>1064.0000</ele>
        <time>2018-10-13T15:39:36Z</time>
      </trkpt>
      <trkpt lat="38.24838638" lon="-2.68225058">
        <ele>1065.0000</ele>
        <time>2018-10-13T15:39:37Z</time>
      </trkpt>
      <trkpt lat="38.24842737" lon="-2.68213508">
        <ele>1066.0000</ele>
        <time>2018-10-13T15:39:43Z</time>
      </trkpt>
      <trkpt lat="38.24847104" lon="-2.68204003">
        <ele>1067.0000</ele>
        <time>2018-10-13T15:39:48Z</time>
      </trkpt>
      <trkpt lat="38.24852761" lon="-2.68198488">
        <ele>1068.0000</ele>
        <time>2018-10-13T15:39:52Z</time>
      </trkpt>
      <trkpt lat="38.24857908" lon="-2.68188547">
        <ele>1069.0000</ele>
        <time>2018-10-13T15:39:57Z</time>
      </trkpt>
      <trkpt lat="38.24861747" lon="-2.68177273">
        <ele>1070.0000</ele>
        <time>2018-10-13T15:40:03Z</time>
      </trkpt>
      <trkpt lat="38.24861956" lon="-2.68166192">
        <ele>1071.0000</ele>
        <time>2018-10-13T15:40:08Z</time>
      </trkpt>
      <trkpt lat="38.24857765" lon="-2.68153234">
        <ele>1072.0000</ele>
        <time>2018-10-13T15:40:14Z</time>
      </trkpt>
      <trkpt lat="38.24854237" lon="-2.68143771">
        <ele>1073.0000</ele>
        <time>2018-10-13T15:40:19Z</time>
      </trkpt>
      <trkpt lat="38.24849610" lon="-2.68132749">
        <ele>1074.0000</ele>
        <time>2018-10-13T15:40:24Z</time>
      </trkpt>
      <trkpt lat="38.24847045" lon="-2.68116253">
        <ele>1075.0000</ele>
        <time>2018-10-13T15:40:32Z</time>
      </trkpt>
      <trkpt lat="38.24847204" lon="-2.68106999">
        <ele>1076.0000</ele>
        <time>2018-10-13T15:40:37Z</time>
      </trkpt>
      <trkpt lat="38.24846341" lon="-2.68087268">
        <ele>1077.0000</ele>
        <time>2018-10-13T15:40:45Z</time>
      </trkpt>
      <trkpt lat="38.24846810" lon="-2.68069976">
        <ele>1078.0000</ele>
        <time>2018-10-13T15:40:52Z</time>
      </trkpt>
      <trkpt lat="38.24848101" lon="-2.68067814">
        <ele>1078.0000</ele>
        <time>2018-10-13T15:40:53Z</time>
      </trkpt>
      <trkpt lat="38.24854714" lon="-2.68057236">
        <ele>1079.0000</ele>
        <time>2018-10-13T15:40:58Z</time>
      </trkpt>
      <trkpt lat="38.24860531" lon="-2.68052333">
        <ele>1079.0000</ele>
        <time>2018-10-13T15:41:01Z</time>
      </trkpt>
      <trkpt lat="38.24876734" lon="-2.68045409">
        <ele>1080.0000</ele>
        <time>2018-10-13T15:41:09Z</time>
      </trkpt>
      <trkpt lat="38.24891544" lon="-2.68046448">
        <ele>1081.0000</ele>
        <time>2018-10-13T15:41:16Z</time>
      </trkpt>
      <trkpt lat="38.24906079" lon="-2.68044839">
        <ele>1082.0000</ele>
        <time>2018-10-13T15:41:22Z</time>
      </trkpt>
      <trkpt lat="38.24920076" lon="-2.68041553">
        <ele>1083.0000</ele>
        <time>2018-10-13T15:41:28Z</time>
      </trkpt>
      <trkpt lat="38.24946337" lon="-2.68037622">
        <ele>1084.0000</ele>
        <time>2018-10-13T15:41:39Z</time>
      </trkpt>
      <trkpt lat="38.24959580" lon="-2.68019685">
        <ele>1085.0000</ele>
        <time>2018-10-13T15:41:48Z</time>
      </trkpt>
      <trkpt lat="38.24965615" lon="-2.68009836">
        <ele>1086.0000</ele>
        <time>2018-10-13T15:41:52Z</time>
      </trkpt>
      <trkpt lat="38.24968423" lon="-2.68001957">
        <ele>1086.0000</ele>
        <time>2018-10-13T15:41:55Z</time>
      </trkpt>
      <trkpt lat="38.24977006" lon="-2.67984154">
        <ele>1087.0000</ele>
        <time>2018-10-13T15:42:02Z</time>
      </trkpt>
      <trkpt lat="38.24981658" lon="-2.67973274">
        <ele>1088.0000</ele>
        <time>2018-10-13T15:42:06Z</time>
      </trkpt>
      <trkpt lat="38.24985958" lon="-2.67965856">
        <ele>1088.0000</ele>
        <time>2018-10-13T15:42:09Z</time>
      </trkpt>
      <trkpt lat="38.24986687" lon="-2.67960643">
        <ele>1089.0000</ele>
        <time>2018-10-13T15:42:11Z</time>
      </trkpt>
      <trkpt lat="38.24986679" lon="-2.67951398">
        <ele>1089.0000</ele>
        <time>2018-10-13T15:42:15Z</time>
      </trkpt>
      <trkpt lat="38.24984760" lon="-2.67943686">
        <ele>1089.0000</ele>
        <time>2018-10-13T15:42:19Z</time>
      </trkpt>
      <trkpt lat="38.24976679" lon="-2.67935397">
        <ele>1090.0000</ele>
        <time>2018-10-13T15:42:22Z</time>
      </trkpt>
      <trkpt lat="38.24966705" lon="-2.67932421">
        <ele>1091.0000</ele>
        <time>2018-10-13T15:42:25Z</time>
      </trkpt>
      <trkpt lat="38.24958248" lon="-2.67930435">
        <ele>1091.0000</ele>
        <time>2018-10-13T15:42:28Z</time>
      </trkpt>
      <trkpt lat="38.24955800" lon="-2.67930242">
        <ele>1091.0000</ele>
        <time>2018-10-13T15:42:29Z</time>
      </trkpt>
      <trkpt lat="38.24950603" lon="-2.67932262">
        <ele>1093.0000</ele>
        <time>2018-10-13T15:42:32Z</time>
      </trkpt>
      <trkpt lat="38.24942448" lon="-2.67936067">
        <ele>1094.0000</ele>
        <time>2018-10-13T15:42:36Z</time>
      </trkpt>
      <trkpt lat="38.24938525" lon="-2.67943150">
        <ele>1095.0000</ele>
        <time>2018-10-13T15:42:39Z</time>
      </trkpt>
      <trkpt lat="38.24929665" lon="-2.67959101">
        <ele>1096.0000</ele>
        <time>2018-10-13T15:42:44Z</time>
      </trkpt>
      <trkpt lat="38.24926589" lon="-2.67970860">
        <ele>1097.0000</ele>
        <time>2018-10-13T15:42:49Z</time>
      </trkpt>
      <trkpt lat="38.24921979" lon="-2.67977918">
        <ele>1098.0000</ele>
        <time>2018-10-13T15:42:53Z</time>
      </trkpt>
      <trkpt lat="38.24916020" lon="-2.67986694">
        <ele>1099.0000</ele>
        <time>2018-10-13T15:42:58Z</time>
      </trkpt>
      <trkpt lat="38.24913773" lon="-2.67989225">
        <ele>1099.0000</ele>
        <time>2018-10-13T15:43:00Z</time>
      </trkpt>
      <trkpt lat="38.24907906" lon="-2.67994950">
        <ele>1100.0000</ele>
        <time>2018-10-13T15:43:04Z</time>
      </trkpt>
      <trkpt lat="38.24895073" lon="-2.68002100">
        <ele>1101.0000</ele>
        <time>2018-10-13T15:43:12Z</time>
      </trkpt>
      <trkpt lat="38.24883330" lon="-2.67998185">
        <ele>1102.0000</ele>
        <time>2018-10-13T15:43:17Z</time>
      </trkpt>
      <trkpt lat="38.24872224" lon="-2.67992746">
        <ele>1103.0000</ele>
        <time>2018-10-13T15:43:23Z</time>
      </trkpt>
      <trkpt lat="38.24865359" lon="-2.67988094">
        <ele>1104.0000</ele>
        <time>2018-10-13T15:43:29Z</time>
      </trkpt>
      <trkpt lat="38.24853985" lon="-2.67982453">
        <ele>1105.0000</ele>
        <time>2018-10-13T15:43:36Z</time>
      </trkpt>
      <trkpt lat="38.24842988" lon="-2.67976602">
        <ele>1106.0000</ele>
        <time>2018-10-13T15:43:43Z</time>
      </trkpt>
      <trkpt lat="38.24829854" lon="-2.67968581">
        <ele>1108.0000</ele>
        <time>2018-10-13T15:43:49Z</time>
      </trkpt>
      <trkpt lat="38.24815060" lon="-2.67959486">
        <ele>1109.0000</ele>
        <time>2018-10-13T15:43:56Z</time>
      </trkpt>
      <trkpt lat="38.24813484" lon="-2.67959201">
        <ele>1109.0000</ele>
        <time>2018-10-13T15:43:57Z</time>
      </trkpt>
      <trkpt lat="38.24802721" lon="-2.67956796">
        <ele>1110.0000</ele>
        <time>2018-10-13T15:44:03Z</time>
      </trkpt>
      <trkpt lat="38.24786318" lon="-2.67954239">
        <ele>1111.0000</ele>
        <time>2018-10-13T15:44:11Z</time>
      </trkpt>
      <trkpt lat="38.24773854" lon="-2.67954105">
        <ele>1112.0000</ele>
        <time>2018-10-13T15:44:17Z</time>
      </trkpt>
      <trkpt lat="38.24771289" lon="-2.67954021">
        <ele>1112.0000</ele>
        <time>2018-10-13T15:44:18Z</time>
      </trkpt>
      <trkpt lat="38.24762681" lon="-2.67954122">
        <ele>1113.0000</ele>
        <time>2018-10-13T15:44:23Z</time>
      </trkpt>
      <trkpt lat="38.24747501" lon="-2.67955253">
        <ele>1114.0000</ele>
        <time>2018-10-13T15:44:31Z</time>
      </trkpt>
      <trkpt lat="38.24736647" lon="-2.67949554">
        <ele>1115.0000</ele>
        <time>2018-10-13T15:44:37Z</time>
      </trkpt>
      <trkpt lat="38.24731928" lon="-2.67933980">
        <ele>1116.0000</ele>
        <time>2018-10-13T15:44:43Z</time>
      </trkpt>
      <trkpt lat="38.24732950" lon="-2.67931541">
        <ele>1117.0000</ele>
        <time>2018-10-13T15:44:44Z</time>
      </trkpt>
      <trkpt lat="38.24738223" lon="-2.67920066">
        <ele>1117.0000</ele>
        <time>2018-10-13T15:44:49Z</time>
      </trkpt>
      <trkpt lat="38.24745230" lon="-2.67915054">
        <ele>1118.0000</ele>
        <time>2018-10-13T15:44:53Z</time>
      </trkpt>
      <trkpt lat="38.24748390" lon="-2.67912036">
        <ele>1119.0000</ele>
        <time>2018-10-13T15:44:55Z</time>
      </trkpt>
      <trkpt lat="38.24760426" lon="-2.67899530">
        <ele>1120.0000</ele>
        <time>2018-10-13T15:45:02Z</time>
      </trkpt>
      <trkpt lat="38.24770702" lon="-2.67891995">
        <ele>1121.0000</ele>
        <time>2018-10-13T15:45:08Z</time>
      </trkpt>
      <trkpt lat="38.24779277" lon="-2.67882591">
        <ele>1122.0000</ele>
        <time>2018-10-13T15:45:14Z</time>
      </trkpt>
      <trkpt lat="38.24783451" lon="-2.67879079">
        <ele>1122.0000</ele>
        <time>2018-10-13T15:45:16Z</time>
      </trkpt>
      <trkpt lat="38.24793174" lon="-2.67870420">
        <ele>1123.0000</ele>
        <time>2018-10-13T15:45:20Z</time>
      </trkpt>
      <trkpt lat="38.24796200" lon="-2.67868425">
        <ele>1123.0000</ele>
        <time>2018-10-13T15:45:21Z</time>
      </trkpt>
      <trkpt lat="38.24808362" lon="-2.67858979">
        <ele>1124.0000</ele>
        <time>2018-10-13T15:45:26Z</time>
      </trkpt>
      <trkpt lat="38.24816644" lon="-2.67847546">
        <ele>1125.0000</ele>
        <time>2018-10-13T15:45:31Z</time>
      </trkpt>
      <trkpt lat="38.24822234" lon="-2.67837119">
        <ele>1126.0000</ele>
        <time>2018-10-13T15:45:35Z</time>
      </trkpt>
      <trkpt lat="38.24825093" lon="-2.67819802">
        <ele>1127.0000</ele>
        <time>2018-10-13T15:45:41Z</time>
      </trkpt>
      <trkpt lat="38.24827808" lon="-2.67805955">
        <ele>1128.0000</ele>
        <time>2018-10-13T15:45:46Z</time>
      </trkpt>
      <trkpt lat="38.24829552" lon="-2.67793038">
        <ele>1129.0000</ele>
        <time>2018-10-13T15:45:51Z</time>
      </trkpt>
      <trkpt lat="38.24830499" lon="-2.67786660">
        <ele>1130.0000</ele>
        <time>2018-10-13T15:45:54Z</time>
      </trkpt>
      <trkpt lat="38.24833407" lon="-2.67779644">
        <ele>1130.0000</ele>
        <time>2018-10-13T15:45:57Z</time>
      </trkpt>
      <trkpt lat="38.24837087" lon="-2.67775378">
        <ele>1130.0000</ele>
        <time>2018-10-13T15:45:59Z</time>
      </trkpt>
      <trkpt lat="38.24844983" lon="-2.67764565">
        <ele>1131.0000</ele>
        <time>2018-10-13T15:46:03Z</time>
      </trkpt>
      <trkpt lat="38.24851647" lon="-2.67754867">
        <ele>1132.0000</ele>
        <time>2018-10-13T15:46:08Z</time>
      </trkpt>
      <trkpt lat="38.24859140" lon="-2.67746527">
        <ele>1134.0000</ele>
        <time>2018-10-13T15:46:13Z</time>
      </trkpt>
      <trkpt lat="38.24869751" lon="-2.67735756">
        <ele>1134.0000</ele>
        <time>2018-10-13T15:46:20Z</time>
      </trkpt>
      <trkpt lat="38.24877907" lon="-2.67727006">
        <ele>1135.0000</ele>
        <time>2018-10-13T15:46:25Z</time>
      </trkpt>
      <trkpt lat="38.24888720" lon="-2.67715984">
        <ele>1137.0000</ele>
        <time>2018-10-13T15:46:32Z</time>
      </trkpt>
      <trkpt lat="38.24896523" lon="-2.67705288">
        <ele>1138.0000</ele>
        <time>2018-10-13T15:46:38Z</time>
      </trkpt>
      <trkpt lat="38.24903011" lon="-2.67696990">
        <ele>1139.0000</ele>
        <time>2018-10-13T15:46:43Z</time>
      </trkpt>
      <trkpt lat="38.24908308" lon="-2.67686521">
        <ele>1140.0000</ele>
        <time>2018-10-13T15:46:48Z</time>
      </trkpt>
      <trkpt lat="38.24914972" lon="-2.67673697">
        <ele>1141.0000</ele>
        <time>2018-10-13T15:46:54Z</time>
      </trkpt>
      <trkpt lat="38.24918970" lon="-2.67667327">
        <ele>1141.0000</ele>
        <time>2018-10-13T15:46:57Z</time>
      </trkpt>
      <trkpt lat="38.24923035" lon="-2.67661099">
        <ele>1142.0000</ele>
        <time>2018-10-13T15:47:00Z</time>
      </trkpt>
      <trkpt lat="38.24927486" lon="-2.67655525">
        <ele>1142.0000</ele>
        <time>2018-10-13T15:47:03Z</time>
      </trkpt>
      <trkpt lat="38.24931032" lon="-2.67652298">
        <ele>1143.0000</ele>
        <time>2018-10-13T15:47:06Z</time>
      </trkpt>
      <trkpt lat="38.24941442" lon="-2.67646380">
        <ele>1144.0000</ele>
        <time>2018-10-13T15:47:12Z</time>
      </trkpt>
      <trkpt lat="38.24950955" lon="-2.67639474">
        <ele>1145.0000</ele>
        <time>2018-10-13T15:47:17Z</time>
      </trkpt>
      <trkpt lat="38.24964500" lon="-2.67634126">
        <ele>1146.0000</ele>
        <time>2018-10-13T15:47:24Z</time>
      </trkpt>
      <trkpt lat="38.24976629" lon="-2.67630329">
        <ele>1147.0000</ele>
        <time>2018-10-13T15:47:31Z</time>
      </trkpt>
      <trkpt lat="38.24987794" lon="-2.67625199">
        <ele>1148.0000</ele>
        <time>2018-10-13T15:47:37Z</time>
      </trkpt>
      <trkpt lat="38.24999042" lon="-2.67619726">
        <ele>1149.0000</ele>
        <time>2018-10-13T15:47:43Z</time>
      </trkpt>
      <trkpt lat="38.25011095" lon="-2.67612635">
        <ele>1150.0000</ele>
        <time>2018-10-13T15:47:50Z</time>
      </trkpt>
      <trkpt lat="38.25021221" lon="-2.67603163">
        <ele>1151.0000</ele>
        <time>2018-10-13T15:47:56Z</time>
      </trkpt>
      <trkpt lat="38.25029955" lon="-2.67592216">
        <ele>1152.0000</ele>
        <time>2018-10-13T15:48:02Z</time>
      </trkpt>
      <trkpt lat="38.25038622" lon="-2.67578319">
        <ele>1153.0000</ele>
        <time>2018-10-13T15:48:09Z</time>
      </trkpt>
      <trkpt lat="38.25042871" lon="-2.67559971">
        <ele>1154.0000</ele>
        <time>2018-10-13T15:48:15Z</time>
      </trkpt>
      <trkpt lat="38.25042997" lon="-2.67557188">
        <ele>1154.0000</ele>
        <time>2018-10-13T15:48:16Z</time>
      </trkpt>
      <trkpt lat="38.25045268" lon="-2.67539838">
        <ele>1155.0000</ele>
        <time>2018-10-13T15:48:21Z</time>
      </trkpt>
      <trkpt lat="38.25043936" lon="-2.67525178">
        <ele>1156.0000</ele>
        <time>2018-10-13T15:48:26Z</time>
      </trkpt>
      <trkpt lat="38.25041748" lon="-2.67513812">
        <ele>1157.0000</ele>
        <time>2018-10-13T15:48:30Z</time>
      </trkpt>
      <trkpt lat="38.25038177" lon="-2.67506771">
        <ele>1158.0000</ele>
        <time>2018-10-13T15:48:33Z</time>
      </trkpt>
      <trkpt lat="38.25035336" lon="-2.67503527">
        <ele>1158.0000</ele>
        <time>2018-10-13T15:48:35Z</time>
      </trkpt>
      <trkpt lat="38.25032101" lon="-2.67499831">
        <ele>1159.0000</ele>
        <time>2018-10-13T15:48:38Z</time>
      </trkpt>
      <trkpt lat="38.25028622" lon="-2.67497526">
        <ele>1159.0000</ele>
        <time>2018-10-13T15:48:41Z</time>
      </trkpt>
      <trkpt lat="38.25020131" lon="-2.67490477">
        <ele>1160.0000</ele>
        <time>2018-10-13T15:48:47Z</time>
      </trkpt>
      <trkpt lat="38.25017172" lon="-2.67487065">
        <ele>1161.0000</ele>
        <time>2018-10-13T15:48:50Z</time>
      </trkpt>
      <trkpt lat="38.25011892" lon="-2.67456974">
        <ele>1163.0000</ele>
        <time>2018-10-13T15:52:17Z</time>
      </trkpt>
      <trkpt lat="38.25011422" lon="-2.67454569">
        <ele>1163.0000</ele>
        <time>2018-10-13T15:52:18Z</time>
      </trkpt>
      <trkpt lat="38.25010299" lon="-2.67439163">
        <ele>1164.0000</ele>
        <time>2018-10-13T15:52:23Z</time>
      </trkpt>
      <trkpt lat="38.25009092" lon="-2.67424721">
        <ele>1165.0000</ele>
        <time>2018-10-13T15:52:28Z</time>
      </trkpt>
      <trkpt lat="38.25005773" lon="-2.67411997">
        <ele>1166.0000</ele>
        <time>2018-10-13T15:52:33Z</time>
      </trkpt>
      <trkpt lat="38.25000325" lon="-2.67400396">
        <ele>1167.0000</ele>
        <time>2018-10-13T15:52:39Z</time>
      </trkpt>
      <trkpt lat="38.24995547" lon="-2.67392744">
        <ele>1168.0000</ele>
        <time>2018-10-13T15:52:44Z</time>
      </trkpt>
      <trkpt lat="38.24989411" lon="-2.67381504">
        <ele>1169.0000</ele>
        <time>2018-10-13T15:52:50Z</time>
      </trkpt>
      <trkpt lat="38.24986536" lon="-2.67372577">
        <ele>1170.0000</ele>
        <time>2018-10-13T15:52:56Z</time>
      </trkpt>
      <trkpt lat="38.24984340" lon="-2.67366425">
        <ele>1171.0000</ele>
        <time>2018-10-13T15:52:59Z</time>
      </trkpt>
      <trkpt lat="38.24981130" lon="-2.67360331">
        <ele>1171.0000</ele>
        <time>2018-10-13T15:53:02Z</time>
      </trkpt>
      <trkpt lat="38.24980426" lon="-2.67356232">
        <ele>1172.0000</ele>
        <time>2018-10-13T15:53:04Z</time>
      </trkpt>
      <trkpt lat="38.24978657" lon="-2.67349124">
        <ele>1173.0000</ele>
        <time>2018-10-13T15:53:07Z</time>
      </trkpt>
      <trkpt lat="38.24975498" lon="-2.67334624">
        <ele>1174.0000</ele>
        <time>2018-10-13T15:53:13Z</time>
      </trkpt>
      <trkpt lat="38.24973310" lon="-2.67321623">
        <ele>1175.0000</ele>
        <time>2018-10-13T15:53:19Z</time>
      </trkpt>
      <trkpt lat="38.24970175" lon="-2.67313946">
        <ele>1175.0000</ele>
        <time>2018-10-13T15:53:22Z</time>
      </trkpt>
      <trkpt lat="38.24968775" lon="-2.67307491">
        <ele>1176.0000</ele>
        <time>2018-10-13T15:53:25Z</time>
      </trkpt>
      <trkpt lat="38.24965473" lon="-2.67293594">
        <ele>1177.0000</ele>
        <time>2018-10-13T15:53:31Z</time>
      </trkpt>
      <trkpt lat="38.24962397" lon="-2.67279462">
        <ele>1178.0000</ele>
        <time>2018-10-13T15:53:37Z</time>
      </trkpt>
      <trkpt lat="38.24961994" lon="-2.67277442">
        <ele>1178.0000</ele>
        <time>2018-10-13T15:53:38Z</time>
      </trkpt>
      <trkpt lat="38.24959103" lon="-2.67266353">
        <ele>1179.0000</ele>
        <time>2018-10-13T15:53:42Z</time>
      </trkpt>
      <trkpt lat="38.24957761" lon="-2.67253043">
        <ele>1180.0000</ele>
        <time>2018-10-13T15:53:48Z</time>
      </trkpt>
      <trkpt lat="38.24957057" lon="-2.67240889">
        <ele>1181.0000</ele>
        <time>2018-10-13T15:53:54Z</time>
      </trkpt>
      <trkpt lat="38.24956948" lon="-2.67228500">
        <ele>1182.0000</ele>
        <time>2018-10-13T15:54:00Z</time>
      </trkpt>
      <trkpt lat="38.24955725" lon="-2.67219347">
        <ele>1183.0000</ele>
        <time>2018-10-13T15:54:04Z</time>
      </trkpt>
      <trkpt lat="38.24954828" lon="-2.67214469">
        <ele>1183.0000</ele>
        <time>2018-10-13T15:54:06Z</time>
      </trkpt>
      <trkpt lat="38.24950855" lon="-2.67201603">
        <ele>1185.0000</ele>
        <time>2018-10-13T15:54:12Z</time>
      </trkpt>
      <trkpt lat="38.24948726" lon="-2.67194579">
        <ele>1185.0000</ele>
        <time>2018-10-13T15:54:15Z</time>
      </trkpt>
      <trkpt lat="38.24947418" lon="-2.67190078">
        <ele>1186.0000</ele>
        <time>2018-10-13T15:54:17Z</time>
      </trkpt>
      <trkpt lat="38.24945298" lon="-2.67178402">
        <ele>1187.0000</ele>
        <time>2018-10-13T15:54:23Z</time>
      </trkpt>
      <trkpt lat="38.24944987" lon="-2.67169651">
        <ele>1188.0000</ele>
        <time>2018-10-13T15:54:27Z</time>
      </trkpt>
      <trkpt lat="38.24944761" lon="-2.67165779">
        <ele>1188.0000</ele>
        <time>2018-10-13T15:54:29Z</time>
      </trkpt>
      <trkpt lat="38.24944677" lon="-2.67164069">
        <ele>1188.0000</ele>
        <time>2018-10-13T15:54:30Z</time>
      </trkpt>
      <trkpt lat="38.24942959" lon="-2.67153256">
        <ele>1189.0000</ele>
        <time>2018-10-13T15:54:35Z</time>
      </trkpt>
      <trkpt lat="38.24943889" lon="-2.67142510">
        <ele>1190.0000</ele>
        <time>2018-10-13T15:54:40Z</time>
      </trkpt>
      <trkpt lat="38.24943143" lon="-2.67135545">
        <ele>1190.0000</ele>
        <time>2018-10-13T15:54:43Z</time>
      </trkpt>
      <trkpt lat="38.24942473" lon="-2.67130114">
        <ele>1191.0000</ele>
        <time>2018-10-13T15:54:45Z</time>
      </trkpt>
      <trkpt lat="38.24943252" lon="-2.67123249">
        <ele>1192.0000</ele>
        <time>2018-10-13T15:54:48Z</time>
      </trkpt>
      <trkpt lat="38.24944141" lon="-2.67121195">
        <ele>1192.0000</ele>
        <time>2018-10-13T15:54:49Z</time>
      </trkpt>
      <trkpt lat="38.24947167" lon="-2.67110282">
        <ele>1193.0000</ele>
        <time>2018-10-13T15:54:54Z</time>
      </trkpt>
      <trkpt lat="38.24947862" lon="-2.67107675">
        <ele>1193.0000</ele>
        <time>2018-10-13T15:54:55Z</time>
      </trkpt>
      <trkpt lat="38.24948734" lon="-2.67094449">
        <ele>1194.0000</ele>
        <time>2018-10-13T15:55:00Z</time>
      </trkpt>
      <trkpt lat="38.24950310" lon="-2.67082245">
        <ele>1195.0000</ele>
        <time>2018-10-13T15:55:05Z</time>
      </trkpt>
      <trkpt lat="38.24951685" lon="-2.67074843">
        <ele>1195.0000</ele>
        <time>2018-10-13T15:55:08Z</time>
      </trkpt>
      <trkpt lat="38.24952598" lon="-2.67070460">
        <ele>1196.0000</ele>
        <time>2018-10-13T15:55:10Z</time>
      </trkpt>
      <trkpt lat="38.24953487" lon="-2.67061172">
        <ele>1197.0000</ele>
        <time>2018-10-13T15:55:14Z</time>
      </trkpt>
      <trkpt lat="38.24954350" lon="-2.67056512">
        <ele>1197.0000</ele>
        <time>2018-10-13T15:55:16Z</time>
      </trkpt>
      <trkpt lat="38.24958122" lon="-2.67044937">
        <ele>1198.0000</ele>
        <time>2018-10-13T15:55:21Z</time>
      </trkpt>
      <trkpt lat="38.24963243" lon="-2.67035004">
        <ele>1199.0000</ele>
        <time>2018-10-13T15:55:26Z</time>
      </trkpt>
      <trkpt lat="38.24970091" lon="-2.67026036">
        <ele>1200.0000</ele>
        <time>2018-10-13T15:55:31Z</time>
      </trkpt>
      <trkpt lat="38.24973327" lon="-2.67023211">
        <ele>1201.0000</ele>
        <time>2018-10-13T15:55:33Z</time>
      </trkpt>
      <trkpt lat="38.24980057" lon="-2.67019875">
        <ele>1201.0000</ele>
        <time>2018-10-13T15:55:37Z</time>
      </trkpt>
      <trkpt lat="38.24990702" lon="-2.67022582">
        <ele>1202.0000</ele>
        <time>2018-10-13T15:55:43Z</time>
      </trkpt>
      <trkpt lat="38.25001012" lon="-2.67029883">
        <ele>1203.0000</ele>
        <time>2018-10-13T15:55:50Z</time>
      </trkpt>
      <trkpt lat="38.25013400" lon="-2.67035490">
        <ele>1204.0000</ele>
        <time>2018-10-13T15:55:56Z</time>
      </trkpt>
      <trkpt lat="38.25028630" lon="-2.67038550">
        <ele>1205.0000</ele>
        <time>2018-10-13T15:56:03Z</time>
      </trkpt>
      <trkpt lat="38.25043441" lon="-2.67035272">
        <ele>1206.0000</ele>
        <time>2018-10-13T15:56:10Z</time>
      </trkpt>
      <trkpt lat="38.25052217" lon="-2.67030461">
        <ele>1207.0000</ele>
        <time>2018-10-13T15:56:15Z</time>
      </trkpt>
      <trkpt lat="38.25062585" lon="-2.67022012">
        <ele>1209.0000</ele>
        <time>2018-10-13T15:56:21Z</time>
      </trkpt>
      <trkpt lat="38.25067531" lon="-2.67010638">
        <ele>1209.0000</ele>
        <time>2018-10-13T15:56:27Z</time>
      </trkpt>
      <trkpt lat="38.25068084" lon="-2.66999063">
        <ele>1211.0000</ele>
        <time>2018-10-13T15:56:32Z</time>
      </trkpt>
      <trkpt lat="38.25067405" lon="-2.66996883">
        <ele>1211.0000</ele>
        <time>2018-10-13T15:56:33Z</time>
      </trkpt>
      <trkpt lat="38.25064807" lon="-2.66989910">
        <ele>1212.0000</ele>
        <time>2018-10-13T15:56:36Z</time>
      </trkpt>
      <trkpt lat="38.25059752" lon="-2.66980346">
        <ele>1213.0000</ele>
        <time>2018-10-13T15:56:41Z</time>
      </trkpt>
      <trkpt lat="38.25050650" lon="-2.66968946">
        <ele>1214.0000</ele>
        <time>2018-10-13T15:56:48Z</time>
      </trkpt>
      <trkpt lat="38.25042854" lon="-2.66962316">
        <ele>1215.0000</ele>
        <time>2018-10-13T15:56:54Z</time>
      </trkpt>
      <trkpt lat="38.25026275" lon="-2.66949207">
        <ele>1216.0000</ele>
        <time>2018-10-13T15:57:03Z</time>
      </trkpt>
      <trkpt lat="38.25017340" lon="-2.66942309">
        <ele>1217.0000</ele>
        <time>2018-10-13T15:57:08Z</time>
      </trkpt>
      <trkpt lat="38.25010467" lon="-2.66938302">
        <ele>1218.0000</ele>
        <time>2018-10-13T15:57:12Z</time>
      </trkpt>
      <trkpt lat="38.25002999" lon="-2.66932066">
        <ele>1219.0000</ele>
        <time>2018-10-13T15:57:17Z</time>
      </trkpt>
      <trkpt lat="38.25000844" lon="-2.66930800">
        <ele>1220.0000</ele>
        <time>2018-10-13T15:57:18Z</time>
      </trkpt>
      <trkpt lat="38.24995698" lon="-2.66927272">
        <ele>1220.0000</ele>
        <time>2018-10-13T15:57:22Z</time>
      </trkpt>
      <trkpt lat="38.24992278" lon="-2.66924296">
        <ele>1221.0000</ele>
        <time>2018-10-13T15:57:24Z</time>
      </trkpt>
      <trkpt lat="38.24978942" lon="-2.66912888">
        <ele>1222.0000</ele>
        <time>2018-10-13T15:57:31Z</time>
      </trkpt>
      <trkpt lat="38.24972413" lon="-2.66906795">
        <ele>1223.0000</ele>
        <time>2018-10-13T15:57:35Z</time>
      </trkpt>
      <trkpt lat="38.24970753" lon="-2.66902570">
        <ele>1223.0000</ele>
        <time>2018-10-13T15:57:37Z</time>
      </trkpt>
      <trkpt lat="38.24966143" lon="-2.66893291">
        <ele>1224.0000</ele>
        <time>2018-10-13T15:57:41Z</time>
      </trkpt>
      <trkpt lat="38.24963637" lon="-2.66885052">
        <ele>1226.0000</ele>
        <time>2018-10-13T15:57:45Z</time>
      </trkpt>
      <trkpt lat="38.24962900" lon="-2.66882286">
        <ele>1226.0000</ele>
        <time>2018-10-13T15:57:47Z</time>
      </trkpt>
      <trkpt lat="38.24962154" lon="-2.66876469">
        <ele>1227.0000</ele>
        <time>2018-10-13T15:58:08Z</time>
      </trkpt>
      <trkpt lat="38.24981935" lon="-2.66870040">
        <ele>1228.0000</ele>
        <time>2018-10-13T15:58:17Z</time>
      </trkpt>
      <trkpt lat="38.24985975" lon="-2.66873837">
        <ele>1228.0000</ele>
        <time>2018-10-13T15:58:19Z</time>
      </trkpt>
      <trkpt lat="38.24991733" lon="-2.66880903">
        <ele>1229.0000</ele>
        <time>2018-10-13T15:58:22Z</time>
      </trkpt>
      <trkpt lat="38.24996301" lon="-2.66884675">
        <ele>1229.0000</ele>
        <time>2018-10-13T15:58:24Z</time>
      </trkpt>
      <trkpt lat="38.25022243" lon="-2.66888983">
        <ele>1231.0000</ele>
        <time>2018-10-13T15:58:35Z</time>
      </trkpt>
      <trkpt lat="38.25034288" lon="-2.66887608">
        <ele>1232.0000</ele>
        <time>2018-10-13T15:58:40Z</time>
      </trkpt>
      <trkpt lat="38.25043081" lon="-2.66886200">
        <ele>1233.0000</ele>
        <time>2018-10-13T15:58:46Z</time>
      </trkpt>
      <trkpt lat="38.25052083" lon="-2.66886904">
        <ele>1235.0000</ele>
        <time>2018-10-13T15:59:11Z</time>
      </trkpt>
      <trkpt lat="38.25053223" lon="-2.66886552">
        <ele>1235.0000</ele>
        <time>2018-10-13T15:59:12Z</time>
      </trkpt>
      <trkpt lat="38.25073616" lon="-2.66884909">
        <ele>1235.0000</ele>
        <time>2018-10-13T15:59:22Z</time>
      </trkpt>
      <trkpt lat="38.25076005" lon="-2.66885790">
        <ele>1236.0000</ele>
        <time>2018-10-13T15:59:23Z</time>
      </trkpt>
      <trkpt lat="38.25086181" lon="-2.66891523">
        <ele>1237.0000</ele>
        <time>2018-10-13T15:59:27Z</time>
      </trkpt>
      <trkpt lat="38.25096054" lon="-2.66898354">
        <ele>1238.0000</ele>
        <time>2018-10-13T15:59:31Z</time>
      </trkpt>
      <trkpt lat="38.25106850" lon="-2.66905361">
        <ele>1239.0000</ele>
        <time>2018-10-13T15:59:36Z</time>
      </trkpt>
      <trkpt lat="38.25115601" lon="-2.66909452">
        <ele>1240.0000</ele>
        <time>2018-10-13T15:59:40Z</time>
      </trkpt>
      <trkpt lat="38.25126389" lon="-2.66915009">
        <ele>1241.0000</ele>
        <time>2018-10-13T15:59:45Z</time>
      </trkpt>
      <trkpt lat="38.25137075" lon="-2.66921882">
        <ele>1242.0000</ele>
        <time>2018-10-13T15:59:50Z</time>
      </trkpt>
      <trkpt lat="38.25149313" lon="-2.66929401">
        <ele>1243.0000</ele>
        <time>2018-10-13T15:59:56Z</time>
      </trkpt>
      <trkpt lat="38.25156169" lon="-2.66935704">
        <ele>1245.0000</ele>
        <time>2018-10-13T16:00:00Z</time>
      </trkpt>
      <trkpt lat="38.25165683" lon="-2.66944647">
        <ele>1246.0000</ele>
        <time>2018-10-13T16:00:06Z</time>
      </trkpt>
      <trkpt lat="38.25177015" lon="-2.66955074">
        <ele>1247.0000</ele>
        <time>2018-10-13T16:00:12Z</time>
      </trkpt>
      <trkpt lat="38.25191130" lon="-2.66965962">
        <ele>1248.0000</ele>
        <time>2018-10-13T16:00:20Z</time>
      </trkpt>
      <trkpt lat="38.25200309" lon="-2.66977521">
        <ele>1249.0000</ele>
        <time>2018-10-13T16:00:26Z</time>
      </trkpt>
      <trkpt lat="38.25208389" lon="-2.66993170">
        <ele>1250.0000</ele>
        <time>2018-10-13T16:00:33Z</time>
      </trkpt>
      <trkpt lat="38.25214348" lon="-2.67010185">
        <ele>1251.0000</ele>
        <time>2018-10-13T16:00:39Z</time>
      </trkpt>
      <trkpt lat="38.25222965" lon="-2.67025717">
        <ele>1252.0000</ele>
        <time>2018-10-13T16:00:46Z</time>
      </trkpt>
      <trkpt lat="38.25234951" lon="-2.67041299">
        <ele>1253.0000</ele>
        <time>2018-10-13T16:00:53Z</time>
      </trkpt>
      <trkpt lat="38.25252410" lon="-2.67053411">
        <ele>1254.0000</ele>
        <time>2018-10-13T16:01:01Z</time>
      </trkpt>
      <trkpt lat="38.25257440" lon="-2.67052824">
        <ele>1254.0000</ele>
        <time>2018-10-13T16:01:03Z</time>
      </trkpt>
      <trkpt lat="38.25272988" lon="-2.67042204">
        <ele>1255.0000</ele>
        <time>2018-10-13T16:01:10Z</time>
      </trkpt>
      <trkpt lat="38.25275000" lon="-2.67028382">
        <ele>1256.0000</ele>
        <time>2018-10-13T16:01:15Z</time>
      </trkpt>
      <trkpt lat="38.25267330" lon="-2.67014351">
        <ele>1258.0000</ele>
        <time>2018-10-13T16:01:21Z</time>
      </trkpt>
      <trkpt lat="38.25259770" lon="-2.67004167">
        <ele>1259.0000</ele>
        <time>2018-10-13T16:01:26Z</time>
      </trkpt>
      <trkpt lat="38.25248421" lon="-2.66986515">
        <ele>1260.0000</ele>
        <time>2018-10-13T16:01:34Z</time>
      </trkpt>
      <trkpt lat="38.25240944" lon="-2.66974110">
        <ele>1261.0000</ele>
        <time>2018-10-13T16:01:40Z</time>
      </trkpt>
      <trkpt lat="38.25235831" lon="-2.66963347">
        <ele>1262.0000</ele>
        <time>2018-10-13T16:01:45Z</time>
      </trkpt>
      <trkpt lat="38.25224339" lon="-2.66948578">
        <ele>1263.0000</ele>
        <time>2018-10-13T16:01:52Z</time>
      </trkpt>
      <trkpt lat="38.25211674" lon="-2.66927557">
        <ele>1264.0000</ele>
        <time>2018-10-13T16:02:02Z</time>
      </trkpt>
      <trkpt lat="38.25200015" lon="-2.66904909">
        <ele>1265.0000</ele>
        <time>2018-10-13T16:02:11Z</time>
      </trkpt>
      <trkpt lat="38.25187752" lon="-2.66889268">
        <ele>1266.0000</ele>
        <time>2018-10-13T16:02:18Z</time>
      </trkpt>
      <trkpt lat="38.25186084" lon="-2.66886846">
        <ele>1266.0000</ele>
        <time>2018-10-13T16:02:19Z</time>
      </trkpt>
      <trkpt lat="38.25171508" lon="-2.66862220">
        <ele>1267.0000</ele>
        <time>2018-10-13T16:02:29Z</time>
      </trkpt>
      <trkpt lat="38.25164384" lon="-2.66850083">
        <ele>1268.0000</ele>
        <time>2018-10-13T16:02:34Z</time>
      </trkpt>
      <trkpt lat="38.25160176" lon="-2.66841986">
        <ele>1268.0000</ele>
        <time>2018-10-13T16:02:37Z</time>
      </trkpt>
      <trkpt lat="38.25147025" lon="-2.66818315">
        <ele>1269.0000</ele>
        <time>2018-10-13T16:02:47Z</time>
      </trkpt>
      <trkpt lat="38.25132801" lon="-2.66799548">
        <ele>1271.0000</ele>
        <time>2018-10-13T16:02:54Z</time>
      </trkpt>
      <trkpt lat="38.25124176" lon="-2.66789230">
        <ele>1272.0000</ele>
        <time>2018-10-13T16:02:59Z</time>
      </trkpt>
      <trkpt lat="38.25108711" lon="-2.66771444">
        <ele>1273.0000</ele>
        <time>2018-10-13T16:03:07Z</time>
      </trkpt>
      <trkpt lat="38.25095107" lon="-2.66752316">
        <ele>1274.0000</ele>
        <time>2018-10-13T16:03:15Z</time>
      </trkpt>
      <trkpt lat="38.25084898" lon="-2.66741495">
        <ele>1275.0000</ele>
        <time>2018-10-13T16:03:21Z</time>
      </trkpt>
      <trkpt lat="38.25070817" lon="-2.66727715">
        <ele>1276.0000</ele>
        <time>2018-10-13T16:03:27Z</time>
      </trkpt>
      <trkpt lat="38.25055880" lon="-2.66714145">
        <ele>1277.0000</ele>
        <time>2018-10-13T16:03:35Z</time>
      </trkpt>
      <trkpt lat="38.25046241" lon="-2.66704061">
        <ele>1278.0000</ele>
        <time>2018-10-13T16:03:41Z</time>
      </trkpt>
      <trkpt lat="38.25028915" lon="-2.66689997">
        <ele>1280.0000</ele>
        <time>2018-10-13T16:03:51Z</time>
      </trkpt>
      <trkpt lat="38.25007248" lon="-2.66664843">
        <ele>1281.0000</ele>
        <time>2018-10-13T16:04:01Z</time>
      </trkpt>
      <trkpt lat="38.25007684" lon="-2.66662378">
        <ele>1281.0000</ele>
        <time>2018-10-13T16:04:02Z</time>
      </trkpt>
      <trkpt lat="38.25009738" lon="-2.66655824">
        <ele>1282.0000</ele>
        <time>2018-10-13T16:04:06Z</time>
      </trkpt>
      <trkpt lat="38.25010299" lon="-2.66653996">
        <ele>1282.0000</ele>
        <time>2018-10-13T16:04:07Z</time>
      </trkpt>
      <trkpt lat="38.25007307" lon="-2.66646570">
        <ele>1282.0000</ele>
        <time>2018-10-13T16:04:09Z</time>
      </trkpt>
      <trkpt lat="38.25001523" lon="-2.66627929">
        <ele>1283.0000</ele>
        <time>2018-10-13T16:04:13Z</time>
      </trkpt>
      <trkpt lat="38.24998296" lon="-2.66603210">
        <ele>1284.0000</ele>
        <time>2018-10-13T16:04:22Z</time>
      </trkpt>
      <trkpt lat="38.24962137" lon="-2.66590453">
        <ele>1285.0000</ele>
        <time>2018-10-13T16:04:34Z</time>
      </trkpt>
      <trkpt lat="38.24940428" lon="-2.66596186">
        <ele>1287.0000</ele>
        <time>2018-10-13T16:04:41Z</time>
      </trkpt>
      <trkpt lat="38.24938265" lon="-2.66600235">
        <ele>1287.0000</ele>
        <time>2018-10-13T16:04:42Z</time>
      </trkpt>
      <trkpt lat="38.24918501" lon="-2.66618398">
        <ele>1288.0000</ele>
        <time>2018-10-13T16:04:49Z</time>
      </trkpt>
      <trkpt lat="38.24916237" lon="-2.66619086">
        <ele>1288.0000</ele>
        <time>2018-10-13T16:04:50Z</time>
      </trkpt>
      <trkpt lat="38.24907856" lon="-2.66622120">
        <ele>1289.0000</ele>
        <time>2018-10-13T16:04:54Z</time>
      </trkpt>
      <trkpt lat="38.24894411" lon="-2.66624576">
        <ele>1290.0000</ele>
        <time>2018-10-13T16:04:59Z</time>
      </trkpt>
      <trkpt lat="38.24867740" lon="-2.66629588">
        <ele>1291.0000</ele>
        <time>2018-10-13T16:05:07Z</time>
      </trkpt>
      <trkpt lat="38.24865058" lon="-2.66631013">
        <ele>1291.0000</ele>
        <time>2018-10-13T16:05:08Z</time>
      </trkpt>
      <trkpt lat="38.24849727" lon="-2.66643385">
        <ele>1292.0000</ele>
        <time>2018-10-13T16:05:15Z</time>
      </trkpt>
      <trkpt lat="38.24845117" lon="-2.66646721">
        <ele>1293.0000</ele>
        <time>2018-10-13T16:05:17Z</time>
      </trkpt>
      <trkpt lat="38.24831857" lon="-2.66651113">
        <ele>1294.0000</ele>
        <time>2018-10-13T16:05:22Z</time>
      </trkpt>
      <trkpt lat="38.24815261" lon="-2.66658841">
        <ele>1295.0000</ele>
        <time>2018-10-13T16:05:29Z</time>
      </trkpt>
      <trkpt lat="38.24796242" lon="-2.66664935">
        <ele>1296.0000</ele>
        <time>2018-10-13T16:05:37Z</time>
      </trkpt>
      <trkpt lat="38.24780551" lon="-2.66670073">
        <ele>1297.0000</ele>
        <time>2018-10-13T16:05:44Z</time>
      </trkpt>
      <trkpt lat="38.24760443" lon="-2.66679687">
        <ele>1298.0000</ele>
        <time>2018-10-13T16:05:52Z</time>
      </trkpt>
      <trkpt lat="38.24747527" lon="-2.66685537">
        <ele>1299.0000</ele>
        <time>2018-10-13T16:05:58Z</time>
      </trkpt>
      <trkpt lat="38.24733546" lon="-2.66692503">
        <ele>1300.0000</ele>
        <time>2018-10-13T16:06:05Z</time>
      </trkpt>
      <trkpt lat="38.24715742" lon="-2.66694112">
        <ele>1301.0000</ele>
        <time>2018-10-13T16:06:11Z</time>
      </trkpt>
      <trkpt lat="38.24701895" lon="-2.66706392">
        <ele>1302.0000</ele>
        <time>2018-10-13T16:06:17Z</time>
      </trkpt>
      <trkpt lat="38.24699875" lon="-2.66725838">
        <ele>1303.0000</ele>
        <time>2018-10-13T16:06:23Z</time>
      </trkpt>
      <trkpt lat="38.24700873" lon="-2.66728101">
        <ele>1304.0000</ele>
        <time>2018-10-13T16:06:24Z</time>
      </trkpt>
      <trkpt lat="38.24701862" lon="-2.66736173">
        <ele>1304.0000</ele>
        <time>2018-10-13T16:06:27Z</time>
      </trkpt>
      <trkpt lat="38.24702616" lon="-2.66748050">
        <ele>1305.0000</ele>
        <time>2018-10-13T16:06:30Z</time>
      </trkpt>
      <trkpt lat="38.24703387" lon="-2.66772005">
        <ele>1306.0000</ele>
        <time>2018-10-13T16:06:36Z</time>
      </trkpt>
      <trkpt lat="38.24707888" lon="-2.66807125">
        <ele>1307.0000</ele>
        <time>2018-10-13T16:06:45Z</time>
      </trkpt>
      <trkpt lat="38.24706095" lon="-2.66826731">
        <ele>1307.0000</ele>
        <time>2018-10-13T16:06:51Z</time>
      </trkpt>
      <trkpt lat="38.24704502" lon="-2.66835624">
        <ele>1308.0000</ele>
        <time>2018-10-13T16:06:54Z</time>
      </trkpt>
      <trkpt lat="38.24703237" lon="-2.66853586">
        <ele>1309.0000</ele>
        <time>2018-10-13T16:07:01Z</time>
      </trkpt>
      <trkpt lat="38.24698635" lon="-2.66874197">
        <ele>1310.0000</ele>
        <time>2018-10-13T16:07:08Z</time>
      </trkpt>
      <trkpt lat="38.24694134" lon="-2.66889394">
        <ele>1311.0000</ele>
        <time>2018-10-13T16:07:13Z</time>
      </trkpt>
      <trkpt lat="38.24687898" lon="-2.66908940">
        <ele>1312.0000</ele>
        <time>2018-10-13T16:07:20Z</time>
      </trkpt>
      <trkpt lat="38.24685274" lon="-2.66927364">
        <ele>1313.0000</ele>
        <time>2018-10-13T16:07:26Z</time>
      </trkpt>
      <trkpt lat="38.24684226" lon="-2.66951722">
        <ele>1314.0000</ele>
        <time>2018-10-13T16:07:34Z</time>
      </trkpt>
      <trkpt lat="38.24679063" lon="-2.66971419">
        <ele>1315.0000</ele>
        <time>2018-10-13T16:07:41Z</time>
      </trkpt>
      <trkpt lat="38.24672173" lon="-2.66982877">
        <ele>1316.0000</ele>
        <time>2018-10-13T16:07:45Z</time>
      </trkpt>
      <trkpt lat="38.24670530" lon="-2.66985677">
        <ele>1316.0000</ele>
        <time>2018-10-13T16:07:46Z</time>
      </trkpt>
      <trkpt lat="38.24654848" lon="-2.66997512">
        <ele>1317.0000</ele>
        <time>2018-10-13T16:07:53Z</time>
      </trkpt>
      <trkpt lat="38.24635947" lon="-2.67006372">
        <ele>1318.0000</ele>
        <time>2018-10-13T16:08:01Z</time>
      </trkpt>
      <trkpt lat="38.24621689" lon="-2.67011686">
        <ele>1320.0000</ele>
        <time>2018-10-13T16:08:07Z</time>
      </trkpt>
      <trkpt lat="38.24607004" lon="-2.67019573">
        <ele>1320.0000</ele>
        <time>2018-10-13T16:08:14Z</time>
      </trkpt>
      <trkpt lat="38.24593828" lon="-2.67023052">
        <ele>1321.0000</ele>
        <time>2018-10-13T16:08:20Z</time>
      </trkpt>
      <trkpt lat="38.24576988" lon="-2.67028265">
        <ele>1323.0000</ele>
        <time>2018-10-13T16:08:27Z</time>
      </trkpt>
      <trkpt lat="38.24558389" lon="-2.67031459">
        <ele>1324.0000</ele>
        <time>2018-10-13T16:08:36Z</time>
      </trkpt>
      <trkpt lat="38.24537007" lon="-2.67025239">
        <ele>1324.0000</ele>
        <time>2018-10-13T16:08:44Z</time>
      </trkpt>
      <trkpt lat="38.24523026" lon="-2.67022607">
        <ele>1326.0000</ele>
        <time>2018-10-13T16:08:50Z</time>
      </trkpt>
      <trkpt lat="38.24504267" lon="-2.67024594">
        <ele>1327.0000</ele>
        <time>2018-10-13T16:08:56Z</time>
      </trkpt>
      <trkpt lat="38.24487042" lon="-2.67031542">
        <ele>1328.0000</ele>
        <time>2018-10-13T16:09:03Z</time>
      </trkpt>
      <trkpt lat="38.24476045" lon="-2.67038835">
        <ele>1329.0000</ele>
        <time>2018-10-13T16:09:08Z</time>
      </trkpt>
      <trkpt lat="38.24467680" lon="-2.67046378">
        <ele>1330.0000</ele>
        <time>2018-10-13T16:09:12Z</time>
      </trkpt>
      <trkpt lat="38.24445594" lon="-2.67062874">
        <ele>1331.0000</ele>
        <time>2018-10-13T16:09:22Z</time>
      </trkpt>
      <trkpt lat="38.24427195" lon="-2.67077132">
        <ele>1332.0000</ele>
        <time>2018-10-13T16:09:30Z</time>
      </trkpt>
      <trkpt lat="38.24408847" lon="-2.67086377">
        <ele>1333.0000</ele>
        <time>2018-10-13T16:09:37Z</time>
      </trkpt>
      <trkpt lat="38.24395604" lon="-2.67090962">
        <ele>1334.0000</ele>
        <time>2018-10-13T16:09:43Z</time>
      </trkpt>
      <trkpt lat="38.24385378" lon="-2.67096033">
        <ele>1335.0000</ele>
        <time>2018-10-13T16:09:48Z</time>
      </trkpt>
      <trkpt lat="38.24370760" lon="-2.67099847">
        <ele>1336.0000</ele>
        <time>2018-10-13T16:09:55Z</time>
      </trkpt>
      <trkpt lat="38.24366125" lon="-2.67100593">
        <ele>1337.0000</ele>
        <time>2018-10-13T16:09:57Z</time>
      </trkpt>
      <trkpt lat="38.24357047" lon="-2.67099427">
        <ele>1338.0000</ele>
        <time>2018-10-13T16:10:00Z</time>
      </trkpt>
      <trkpt lat="38.24335162" lon="-2.67100559">
        <ele>1339.0000</ele>
        <time>2018-10-13T16:10:09Z</time>
      </trkpt>
      <trkpt lat="38.24322623" lon="-2.67103836">
        <ele>1340.0000</ele>
        <time>2018-10-13T16:10:15Z</time>
      </trkpt>
      <trkpt lat="38.24311181" lon="-2.67107122">
        <ele>1341.0000</ele>
        <time>2018-10-13T16:10:20Z</time>
      </trkpt>
      <trkpt lat="38.24308591" lon="-2.67107482">
        <ele>1341.0000</ele>
        <time>2018-10-13T16:10:21Z</time>
      </trkpt>
      <trkpt lat="38.24300360" lon="-2.67108564">
        <ele>1341.0000</ele>
        <time>2018-10-13T16:10:24Z</time>
      </trkpt>
      <trkpt lat="38.24289749" lon="-2.67110466">
        <ele>1342.0000</ele>
        <time>2018-10-13T16:10:28Z</time>
      </trkpt>
      <trkpt lat="38.24270420" lon="-2.67117423">
        <ele>1343.0000</ele>
        <time>2018-10-13T16:10:36Z</time>
      </trkpt>
      <trkpt lat="38.24253950" lon="-2.67123157">
        <ele>1344.0000</ele>
        <time>2018-10-13T16:10:43Z</time>
      </trkpt>
      <trkpt lat="38.24240094" lon="-2.67129929">
        <ele>1345.0000</ele>
        <time>2018-10-13T16:10:49Z</time>
      </trkpt>
      <trkpt lat="38.24228385" lon="-2.67137967">
        <ele>1346.0000</ele>
        <time>2018-10-13T16:10:55Z</time>
      </trkpt>
      <trkpt lat="38.24209459" lon="-2.67143609">
        <ele>1347.0000</ele>
        <time>2018-10-13T16:11:02Z</time>
      </trkpt>
      <trkpt lat="38.24193072" lon="-2.67153063">
        <ele>1348.0000</ele>
        <time>2018-10-13T16:11:09Z</time>
      </trkpt>
      <trkpt lat="38.24168865" lon="-2.67165393">
        <ele>1349.0000</ele>
        <time>2018-10-13T16:11:19Z</time>
      </trkpt>
      <trkpt lat="38.24153057" lon="-2.67182886">
        <ele>1350.0000</ele>
        <time>2018-10-13T16:11:28Z</time>
      </trkpt>
      <trkpt lat="38.24141565" lon="-2.67193648">
        <ele>1351.0000</ele>
        <time>2018-10-13T16:11:34Z</time>
      </trkpt>
      <trkpt lat="38.24127643" lon="-2.67206925">
        <ele>1352.0000</ele>
        <time>2018-10-13T16:11:41Z</time>
      </trkpt>
      <trkpt lat="38.24110904" lon="-2.67219062">
        <ele>1353.0000</ele>
        <time>2018-10-13T16:11:48Z</time>
      </trkpt>
      <trkpt lat="38.24097736" lon="-2.67230596">
        <ele>1354.0000</ele>
        <time>2018-10-13T16:11:53Z</time>
      </trkpt>
      <trkpt lat="38.24092447" lon="-2.67234024">
        <ele>1354.0000</ele>
        <time>2018-10-13T16:11:55Z</time>
      </trkpt>
      <trkpt lat="38.24080788" lon="-2.67243186">
        <ele>1355.0000</ele>
        <time>2018-10-13T16:12:00Z</time>
      </trkpt>
      <trkpt lat="38.24072473" lon="-2.67250989">
        <ele>1356.0000</ele>
        <time>2018-10-13T16:12:04Z</time>
      </trkpt>
      <trkpt lat="38.24060487" lon="-2.67257326">
        <ele>1357.0000</ele>
        <time>2018-10-13T16:12:09Z</time>
      </trkpt>
      <trkpt lat="38.24047646" lon="-2.67262003">
        <ele>1359.0000</ele>
        <time>2018-10-13T16:12:14Z</time>
      </trkpt>
      <trkpt lat="38.24027043" lon="-2.67266973">
        <ele>1360.0000</ele>
        <time>2018-10-13T16:12:20Z</time>
      </trkpt>
      <trkpt lat="38.24005368" lon="-2.67273922">
        <ele>1361.0000</ele>
        <time>2018-10-13T16:12:28Z</time>
      </trkpt>
      <trkpt lat="38.23989056" lon="-2.67287073">
        <ele>1362.0000</ele>
        <time>2018-10-13T16:12:35Z</time>
      </trkpt>
      <trkpt lat="38.23975570" lon="-2.67299612">
        <ele>1363.0000</ele>
        <time>2018-10-13T16:12:41Z</time>
      </trkpt>
      <trkpt lat="38.23957566" lon="-2.67319821">
        <ele>1364.0000</ele>
        <time>2018-10-13T16:12:50Z</time>
      </trkpt>
      <trkpt lat="38.23948455" lon="-2.67332788">
        <ele>1365.0000</ele>
        <time>2018-10-13T16:12:56Z</time>
      </trkpt>
      <trkpt lat="38.23934851" lon="-2.67347674">
        <ele>1366.0000</ele>
        <time>2018-10-13T16:13:03Z</time>
      </trkpt>
      <trkpt lat="38.23924080" lon="-2.67360691">
        <ele>1367.0000</ele>
        <time>2018-10-13T16:13:09Z</time>
      </trkpt>
      <trkpt lat="38.23916335" lon="-2.67374480">
        <ele>1369.0000</ele>
        <time>2018-10-13T16:13:14Z</time>
      </trkpt>
      <trkpt lat="38.23909713" lon="-2.67384328">
        <ele>1370.0000</ele>
        <time>2018-10-13T16:13:18Z</time>
      </trkpt>
      <trkpt lat="38.23898850" lon="-2.67397069">
        <ele>1371.0000</ele>
        <time>2018-10-13T16:13:24Z</time>
      </trkpt>
      <trkpt lat="38.23884199" lon="-2.67408192">
        <ele>1372.0000</ele>
        <time>2018-10-13T16:13:31Z</time>
      </trkpt>
      <trkpt lat="38.23870126" lon="-2.67415031">
        <ele>1373.0000</ele>
        <time>2018-10-13T16:13:37Z</time>
      </trkpt>
      <trkpt lat="38.23851920" lon="-2.67411100">
        <ele>1374.0000</ele>
        <time>2018-10-13T16:13:44Z</time>
      </trkpt>
      <trkpt lat="38.23840856" lon="-2.67400162">
        <ele>1375.0000</ele>
        <time>2018-10-13T16:13:49Z</time>
      </trkpt>
      <trkpt lat="38.23833882" lon="-2.67378478">
        <ele>1376.0000</ele>
        <time>2018-10-13T16:13:57Z</time>
      </trkpt>
      <trkpt lat="38.23833128" lon="-2.67367313">
        <ele>1377.0000</ele>
        <time>2018-10-13T16:14:01Z</time>
      </trkpt>
      <trkpt lat="38.23829499" lon="-2.67353382">
        <ele>1378.0000</ele>
        <time>2018-10-13T16:14:06Z</time>
      </trkpt>
      <trkpt lat="38.23822475" lon="-2.67343098">
        <ele>1379.0000</ele>
        <time>2018-10-13T16:14:12Z</time>
      </trkpt>
      <trkpt lat="38.23821217" lon="-2.67341061">
        <ele>1380.0000</ele>
        <time>2018-10-13T16:14:13Z</time>
      </trkpt>
      <trkpt lat="38.23813606" lon="-2.67332017">
        <ele>1381.0000</ele>
        <time>2018-10-13T16:14:18Z</time>
      </trkpt>
      <trkpt lat="38.23807991" lon="-2.67326208">
        <ele>1381.0000</ele>
        <time>2018-10-13T16:14:22Z</time>
      </trkpt>
      <trkpt lat="38.23803959" lon="-2.67322587">
        <ele>1382.0000</ele>
        <time>2018-10-13T16:14:24Z</time>
      </trkpt>
      <trkpt lat="38.23792082" lon="-2.67317198">
        <ele>1383.0000</ele>
        <time>2018-10-13T16:14:30Z</time>
      </trkpt>
      <trkpt lat="38.23780640" lon="-2.67314147">
        <ele>1384.0000</ele>
        <time>2018-10-13T16:14:36Z</time>
      </trkpt>
      <trkpt lat="38.23767858" lon="-2.67309872">
        <ele>1385.0000</ele>
        <time>2018-10-13T16:14:42Z</time>
      </trkpt>
      <trkpt lat="38.23753357" lon="-2.67305589">
        <ele>1386.0000</ele>
        <time>2018-10-13T16:14:49Z</time>
      </trkpt>
      <trkpt lat="38.23740449" lon="-2.67297986">
        <ele>1387.0000</ele>
        <time>2018-10-13T16:14:55Z</time>
      </trkpt>
      <trkpt lat="38.23720701" lon="-2.67287861">
        <ele>1388.0000</ele>
        <time>2018-10-13T16:15:02Z</time>
      </trkpt>
      <trkpt lat="38.23706000" lon="-2.67275825">
        <ele>1389.0000</ele>
        <time>2018-10-13T16:15:09Z</time>
      </trkpt>
      <trkpt lat="38.23700300" lon="-2.67252003">
        <ele>1390.0000</ele>
        <time>2018-10-13T16:15:16Z</time>
      </trkpt>
      <trkpt lat="38.23698070" lon="-2.67236061">
        <ele>1391.0000</ele>
        <time>2018-10-13T16:15:20Z</time>
      </trkpt>
      <trkpt lat="38.23690988" lon="-2.67209566">
        <ele>1390.0000</ele>
        <time>2018-10-13T16:15:27Z</time>
      </trkpt>
      <trkpt lat="38.23687224" lon="-2.67201544">
        <ele>1390.0000</ele>
        <time>2018-10-13T16:15:30Z</time>
      </trkpt>
      <trkpt lat="38.23666948" lon="-2.67173197">
        <ele>1390.0000</ele>
        <time>2018-10-13T16:15:40Z</time>
      </trkpt>
      <trkpt lat="38.23653034" lon="-2.67163482">
        <ele>1390.0000</ele>
        <time>2018-10-13T16:15:45Z</time>
      </trkpt>
      <trkpt lat="38.23613480" lon="-2.67142334">
        <ele>1390.0000</ele>
        <time>2018-10-13T16:15:58Z</time>
      </trkpt>
      <trkpt lat="38.23600220" lon="-2.67138755">
        <ele>1390.0000</ele>
        <time>2018-10-13T16:16:03Z</time>
      </trkpt>
      <trkpt lat="38.23589432" lon="-2.67136844">
        <ele>1391.0000</ele>
        <time>2018-10-13T16:16:07Z</time>
      </trkpt>
      <trkpt lat="38.23579911" lon="-2.67137984">
        <ele>1391.0000</ele>
        <time>2018-10-13T16:16:10Z</time>
      </trkpt>
      <trkpt lat="38.23570188" lon="-2.67139820">
        <ele>1392.0000</ele>
        <time>2018-10-13T16:16:13Z</time>
      </trkpt>
      <trkpt lat="38.23557456" lon="-2.67139669">
        <ele>1392.0000</ele>
        <time>2018-10-13T16:16:18Z</time>
      </trkpt>
      <trkpt lat="38.23545411" lon="-2.67140013">
        <ele>1394.0000</ele>
        <time>2018-10-13T16:16:22Z</time>
      </trkpt>
      <trkpt lat="38.23535772" lon="-2.67139099">
        <ele>1395.0000</ele>
        <time>2018-10-13T16:16:26Z</time>
      </trkpt>
      <trkpt lat="38.23527591" lon="-2.67135327">
        <ele>1396.0000</ele>
        <time>2018-10-13T16:16:30Z</time>
      </trkpt>
      <trkpt lat="38.23520508" lon="-2.67126937">
        <ele>1397.0000</ele>
        <time>2018-10-13T16:16:34Z</time>
      </trkpt>
      <trkpt lat="38.23517616" lon="-2.67121028">
        <ele>1398.0000</ele>
        <time>2018-10-13T16:16:37Z</time>
      </trkpt>
      <trkpt lat="38.23513870" lon="-2.67113266">
        <ele>1399.0000</ele>
        <time>2018-10-13T16:16:41Z</time>
      </trkpt>
      <trkpt lat="38.23510492" lon="-2.67108706">
        <ele>1400.0000</ele>
        <time>2018-10-13T16:16:44Z</time>
      </trkpt>
      <trkpt lat="38.23507256" lon="-2.67096494">
        <ele>1402.0000</ele>
        <time>2018-10-13T16:16:50Z</time>
      </trkpt>
      <trkpt lat="38.23503862" lon="-2.67084491">
        <ele>1403.0000</ele>
        <time>2018-10-13T16:16:56Z</time>
      </trkpt>
      <trkpt lat="38.23497961" lon="-2.67067786">
        <ele>1404.0000</ele>
        <time>2018-10-13T16:17:02Z</time>
      </trkpt>
      <trkpt lat="38.23492722" lon="-2.67053151">
        <ele>1405.0000</ele>
        <time>2018-10-13T16:17:08Z</time>
      </trkpt>
      <trkpt lat="38.23487827" lon="-2.67040830">
        <ele>1406.0000</ele>
        <time>2018-10-13T16:17:13Z</time>
      </trkpt>
      <trkpt lat="38.23482153" lon="-2.67026849">
        <ele>1407.0000</ele>
        <time>2018-10-13T16:17:19Z</time>
      </trkpt>
      <trkpt lat="38.23476654" lon="-2.67017821">
        <ele>1408.0000</ele>
        <time>2018-10-13T16:17:24Z</time>
      </trkpt>
      <trkpt lat="38.23471164" lon="-2.67005483">
        <ele>1409.0000</ele>
        <time>2018-10-13T16:17:30Z</time>
      </trkpt>
      <trkpt lat="38.23466830" lon="-2.66989993">
        <ele>1410.0000</ele>
        <time>2018-10-13T16:17:36Z</time>
      </trkpt>
      <trkpt lat="38.23466219" lon="-2.66987680">
        <ele>1411.0000</ele>
        <time>2018-10-13T16:17:37Z</time>
      </trkpt>
      <trkpt lat="38.23461977" lon="-2.66973431">
        <ele>1412.0000</ele>
        <time>2018-10-13T16:17:43Z</time>
      </trkpt>
      <trkpt lat="38.23459035" lon="-2.66956684">
        <ele>1413.0000</ele>
        <time>2018-10-13T16:17:50Z</time>
      </trkpt>
      <trkpt lat="38.23455825" lon="-2.66945972">
        <ele>1414.0000</ele>
        <time>2018-10-13T16:17:55Z</time>
      </trkpt>
      <trkpt lat="38.23454727" lon="-2.66928479">
        <ele>1415.0000</ele>
        <time>2018-10-13T16:18:03Z</time>
      </trkpt>
      <trkpt lat="38.23454878" lon="-2.66911338">
        <ele>1416.0000</ele>
        <time>2018-10-13T16:18:10Z</time>
      </trkpt>
      <trkpt lat="38.23455900" lon="-2.66897306">
        <ele>1417.0000</ele>
        <time>2018-10-13T16:18:16Z</time>
      </trkpt>
      <trkpt lat="38.23458708" lon="-2.66884264">
        <ele>1418.0000</ele>
        <time>2018-10-13T16:18:22Z</time>
      </trkpt>
      <trkpt lat="38.23461323" lon="-2.66873393">
        <ele>1419.0000</ele>
        <time>2018-10-13T16:18:27Z</time>
      </trkpt>
      <trkpt lat="38.23464777" lon="-2.66861130">
        <ele>1420.0000</ele>
        <time>2018-10-13T16:18:32Z</time>
      </trkpt>
      <trkpt lat="38.23468909" lon="-2.66847074">
        <ele>1421.0000</ele>
        <time>2018-10-13T16:18:38Z</time>
      </trkpt>
      <trkpt lat="38.23474290" lon="-2.66834945">
        <ele>1422.0000</ele>
        <time>2018-10-13T16:18:44Z</time>
      </trkpt>
      <trkpt lat="38.23478096" lon="-2.66823864">
        <ele>1423.0000</ele>
        <time>2018-10-13T16:18:49Z</time>
      </trkpt>
      <trkpt lat="38.23481507" lon="-2.66813621">
        <ele>1424.0000</ele>
        <time>2018-10-13T16:18:54Z</time>
      </trkpt>
      <trkpt lat="38.23487391" lon="-2.66802063">
        <ele>1426.0000</ele>
        <time>2018-10-13T16:19:00Z</time>
      </trkpt>
      <trkpt lat="38.23487827" lon="-2.66800395">
        <ele>1426.0000</ele>
        <time>2018-10-13T16:19:01Z</time>
      </trkpt>
      <trkpt lat="38.23489269" lon="-2.66794393">
        <ele>1426.0000</ele>
        <time>2018-10-13T16:19:04Z</time>
      </trkpt>
      <trkpt lat="38.23491238" lon="-2.66789641">
        <ele>1427.0000</ele>
        <time>2018-10-13T16:19:06Z</time>
      </trkpt>
      <trkpt lat="38.23492747" lon="-2.66784712">
        <ele>1427.0000</ele>
        <time>2018-10-13T16:19:08Z</time>
      </trkpt>
      <trkpt lat="38.23495631" lon="-2.66777588">
        <ele>1428.0000</ele>
        <time>2018-10-13T16:19:11Z</time>
      </trkpt>
      <trkpt lat="38.23498204" lon="-2.66771175">
        <ele>1428.0000</ele>
        <time>2018-10-13T16:19:14Z</time>
      </trkpt>
      <trkpt lat="38.23503174" lon="-2.66766088">
        <ele>1429.0000</ele>
        <time>2018-10-13T16:19:17Z</time>
      </trkpt>
      <trkpt lat="38.23509033" lon="-2.66754588">
        <ele>1430.0000</ele>
        <time>2018-10-13T16:19:22Z</time>
      </trkpt>
      <trkpt lat="38.23510400" lon="-2.66752517">
        <ele>1430.0000</ele>
        <time>2018-10-13T16:19:23Z</time>
      </trkpt>
      <trkpt lat="38.23515412" lon="-2.66744630">
        <ele>1431.0000</ele>
        <time>2018-10-13T16:19:27Z</time>
      </trkpt>
      <trkpt lat="38.23520039" lon="-2.66735720">
        <ele>1432.0000</ele>
        <time>2018-10-13T16:19:32Z</time>
      </trkpt>
      <trkpt lat="38.23523995" lon="-2.66728637">
        <ele>1433.0000</ele>
        <time>2018-10-13T16:19:36Z</time>
      </trkpt>
      <trkpt lat="38.23530516" lon="-2.66721001">
        <ele>1434.0000</ele>
        <time>2018-10-13T16:19:41Z</time>
      </trkpt>
      <trkpt lat="38.23538579" lon="-2.66715436">
        <ele>1435.0000</ele>
        <time>2018-10-13T16:19:46Z</time>
      </trkpt>
      <trkpt lat="38.23550943" lon="-2.66705947">
        <ele>1436.0000</ele>
        <time>2018-10-13T16:19:54Z</time>
      </trkpt>
      <trkpt lat="38.23559400" lon="-2.66700617">
        <ele>1437.0000</ele>
        <time>2018-10-13T16:20:00Z</time>
      </trkpt>
      <trkpt lat="38.23569048" lon="-2.66693442">
        <ele>1438.0000</ele>
        <time>2018-10-13T16:20:07Z</time>
      </trkpt>
      <trkpt lat="38.23576575" lon="-2.66688060">
        <ele>1439.0000</ele>
        <time>2018-10-13T16:20:12Z</time>
      </trkpt>
      <trkpt lat="38.23578016" lon="-2.66686946">
        <ele>1439.0000</ele>
        <time>2018-10-13T16:20:13Z</time>
      </trkpt>
      <trkpt lat="38.23583926" lon="-2.66681665">
        <ele>1440.0000</ele>
        <time>2018-10-13T16:20:17Z</time>
      </trkpt>
      <trkpt lat="38.23586884" lon="-2.66679184">
        <ele>1440.0000</ele>
        <time>2018-10-13T16:20:19Z</time>
      </trkpt>
      <trkpt lat="38.23594378" lon="-2.66670065">
        <ele>1441.0000</ele>
        <time>2018-10-13T16:20:25Z</time>
      </trkpt>
      <trkpt lat="38.23598694" lon="-2.66660886">
        <ele>1442.0000</ele>
        <time>2018-10-13T16:20:32Z</time>
      </trkpt>
      <trkpt lat="38.23602776" lon="-2.66654524">
        <ele>1443.0000</ele>
        <time>2018-10-13T16:20:37Z</time>
      </trkpt>
      <trkpt lat="38.23609549" lon="-2.66644843">
        <ele>1444.0000</ele>
        <time>2018-10-13T16:20:42Z</time>
      </trkpt>
      <trkpt lat="38.23614352" lon="-2.66637367">
        <ele>1445.0000</ele>
        <time>2018-10-13T16:20:46Z</time>
      </trkpt>
      <trkpt lat="38.23616892" lon="-2.66633871">
        <ele>1446.0000</ele>
        <time>2018-10-13T16:20:48Z</time>
      </trkpt>
      <trkpt lat="38.23619959" lon="-2.66629069">
        <ele>1446.0000</ele>
        <time>2018-10-13T16:20:51Z</time>
      </trkpt>
      <trkpt lat="38.23624921" lon="-2.66617678">
        <ele>1447.0000</ele>
        <time>2018-10-13T16:20:57Z</time>
      </trkpt>
      <trkpt lat="38.23627369" lon="-2.66609740">
        <ele>1448.0000</ele>
        <time>2018-10-13T16:21:01Z</time>
      </trkpt>
      <trkpt lat="38.23628626" lon="-2.66604074">
        <ele>1448.0000</ele>
        <time>2018-10-13T16:21:04Z</time>
      </trkpt>
      <trkpt lat="38.23629423" lon="-2.66599916">
        <ele>1449.0000</ele>
        <time>2018-10-13T16:21:06Z</time>
      </trkpt>
      <trkpt lat="38.23629104" lon="-2.66588643">
        <ele>1449.0000</ele>
        <time>2018-10-13T16:21:10Z</time>
      </trkpt>
      <trkpt lat="38.23630839" lon="-2.66576070">
        <ele>1450.0000</ele>
        <time>2018-10-13T16:21:14Z</time>
      </trkpt>
      <trkpt lat="38.23633077" lon="-2.66560521">
        <ele>1451.0000</ele>
        <time>2018-10-13T16:21:18Z</time>
      </trkpt>
      <trkpt lat="38.23636690" lon="-2.66547353">
        <ele>1452.0000</ele>
        <time>2018-10-13T16:21:22Z</time>
      </trkpt>
      <trkpt lat="38.23642523" lon="-2.66541193">
        <ele>1453.0000</ele>
        <time>2018-10-13T16:21:25Z</time>
      </trkpt>
      <trkpt lat="38.23656060" lon="-2.66539198">
        <ele>1454.0000</ele>
        <time>2018-10-13T16:21:31Z</time>
      </trkpt>
      <trkpt lat="38.23667803" lon="-2.66542282">
        <ele>1456.0000</ele>
        <time>2018-10-13T16:21:36Z</time>
      </trkpt>
      <trkpt lat="38.23682522" lon="-2.66541101">
        <ele>1457.0000</ele>
        <time>2018-10-13T16:21:43Z</time>
      </trkpt>
      <trkpt lat="38.23690677" lon="-2.66537169">
        <ele>1458.0000</ele>
        <time>2018-10-13T16:21:48Z</time>
      </trkpt>
      <trkpt lat="38.23695363" lon="-2.66530673">
        <ele>1459.0000</ele>
        <time>2018-10-13T16:21:52Z</time>
      </trkpt>
      <trkpt lat="38.23699194" lon="-2.66524689">
        <ele>1460.0000</ele>
        <time>2018-10-13T16:21:55Z</time>
      </trkpt>
      <trkpt lat="38.23707307" lon="-2.66516575">
        <ele>1461.0000</ele>
        <time>2018-10-13T16:21:59Z</time>
      </trkpt>
      <trkpt lat="38.23709277" lon="-2.66515133">
        <ele>1461.0000</ele>
        <time>2018-10-13T16:22:00Z</time>
      </trkpt>
      <trkpt lat="38.23716527" lon="-2.66506877">
        <ele>1462.0000</ele>
        <time>2018-10-13T16:22:05Z</time>
      </trkpt>
      <trkpt lat="38.23721657" lon="-2.66497448">
        <ele>1463.0000</ele>
        <time>2018-10-13T16:22:09Z</time>
      </trkpt>
      <trkpt lat="38.23728228" lon="-2.66484305">
        <ele>1464.0000</ele>
        <time>2018-10-13T16:22:15Z</time>
      </trkpt>
      <trkpt lat="38.23733350" lon="-2.66470525">
        <ele>1465.0000</ele>
        <time>2018-10-13T16:22:21Z</time>
      </trkpt>
      <trkpt lat="38.23737692" lon="-2.66454172">
        <ele>1466.0000</ele>
        <time>2018-10-13T16:22:28Z</time>
      </trkpt>
      <trkpt lat="38.23740114" lon="-2.66442856">
        <ele>1467.0000</ele>
        <time>2018-10-13T16:22:33Z</time>
      </trkpt>
      <trkpt lat="38.23744690" lon="-2.66429261">
        <ele>1468.0000</ele>
        <time>2018-10-13T16:22:39Z</time>
      </trkpt>
      <trkpt lat="38.23749711" lon="-2.66418457">
        <ele>1469.0000</ele>
        <time>2018-10-13T16:22:44Z</time>
      </trkpt>
      <trkpt lat="38.23757884" lon="-2.66403998">
        <ele>1470.0000</ele>
        <time>2018-10-13T16:22:51Z</time>
      </trkpt>
      <trkpt lat="38.23769032" lon="-2.66391081">
        <ele>1471.0000</ele>
        <time>2018-10-13T16:22:59Z</time>
      </trkpt>
      <trkpt lat="38.23776181" lon="-2.66385432">
        <ele>1472.0000</ele>
        <time>2018-10-13T16:23:04Z</time>
      </trkpt>
      <trkpt lat="38.23782183" lon="-2.66383772">
        <ele>1473.0000</ele>
        <time>2018-10-13T16:23:08Z</time>
      </trkpt>
      <trkpt lat="38.23784773" lon="-2.66383009">
        <ele>1473.0000</ele>
        <time>2018-10-13T16:23:10Z</time>
      </trkpt>
      <trkpt lat="38.23786734" lon="-2.66381191">
        <ele>1473.0000</ele>
        <time>2018-10-13T16:23:13Z</time>
      </trkpt>
      <trkpt lat="38.23786919" lon="-2.66381308">
        <ele>1473.0000</ele>
        <time>2018-10-13T16:23:14Z</time>
      </trkpt>
      <trkpt lat="38.23784027" lon="-2.66391693">
        <ele>1474.0000</ele>
        <time>2018-10-13T16:25:58Z</time>
      </trkpt>
      <trkpt lat="38.23786089" lon="-2.66390570">
        <ele>1474.0000</ele>
        <time>2018-10-13T16:25:59Z</time>
      </trkpt>
      <trkpt lat="38.23791084" lon="-2.66389120">
        <ele>1474.0000</ele>
        <time>2018-10-13T16:26:01Z</time>
      </trkpt>
      <trkpt lat="38.23806809" lon="-2.66384225">
        <ele>1473.0000</ele>
        <time>2018-10-13T16:26:06Z</time>
      </trkpt>
      <trkpt lat="38.23833782" lon="-2.66379363">
        <ele>1472.0000</ele>
        <time>2018-10-13T16:26:11Z</time>
      </trkpt>
      <trkpt lat="38.23839331" lon="-2.66375441">
        <ele>1472.0000</ele>
        <time>2018-10-13T16:26:12Z</time>
      </trkpt>
      <trkpt lat="38.23857033" lon="-2.66351552">
        <ele>1471.0000</ele>
        <time>2018-10-13T16:26:16Z</time>
      </trkpt>
      <trkpt lat="38.23882774" lon="-2.66333833">
        <ele>1470.0000</ele>
        <time>2018-10-13T16:26:20Z</time>
      </trkpt>
      <trkpt lat="38.23892044" lon="-2.66330036">
        <ele>1469.0000</ele>
        <time>2018-10-13T16:26:21Z</time>
      </trkpt>
      <trkpt lat="38.23900409" lon="-2.66325082">
        <ele>1469.0000</ele>
        <time>2018-10-13T16:26:22Z</time>
      </trkpt>
      <trkpt lat="38.23925974" lon="-2.66304127">
        <ele>1468.0000</ele>
        <time>2018-10-13T16:26:25Z</time>
      </trkpt>
      <trkpt lat="38.23941037" lon="-2.66285209">
        <ele>1467.0000</ele>
        <time>2018-10-13T16:26:27Z</time>
      </trkpt>
      <trkpt lat="38.23953710" lon="-2.66262209">
        <ele>1465.0000</ele>
        <time>2018-10-13T16:26:29Z</time>
      </trkpt>
      <trkpt lat="38.23965989" lon="-2.66240140">
        <ele>1462.0000</ele>
        <time>2018-10-13T16:26:31Z</time>
      </trkpt>
      <trkpt lat="38.23970398" lon="-2.66230828">
        <ele>1461.0000</ele>
        <time>2018-10-13T16:26:32Z</time>
      </trkpt>
      <trkpt lat="38.23975754" lon="-2.66221700">
        <ele>1460.0000</ele>
        <time>2018-10-13T16:26:33Z</time>
      </trkpt>
      <trkpt lat="38.23981462" lon="-2.66213058">
        <ele>1459.0000</ele>
        <time>2018-10-13T16:26:34Z</time>
      </trkpt>
      <trkpt lat="38.23987137" lon="-2.66205104">
        <ele>1457.0000</ele>
        <time>2018-10-13T16:26:35Z</time>
      </trkpt>
      <trkpt lat="38.23993717" lon="-2.66197183">
        <ele>1456.0000</ele>
        <time>2018-10-13T16:26:36Z</time>
      </trkpt>
      <trkpt lat="38.24000615" lon="-2.66189974">
        <ele>1455.0000</ele>
        <time>2018-10-13T16:26:37Z</time>
      </trkpt>
      <trkpt lat="38.24015401" lon="-2.66176530">
        <ele>1453.0000</ele>
        <time>2018-10-13T16:26:39Z</time>
      </trkpt>
      <trkpt lat="38.24046263" lon="-2.66146204">
        <ele>1452.0000</ele>
        <time>2018-10-13T16:26:43Z</time>
      </trkpt>
      <trkpt lat="38.24087535" lon="-2.66102383">
        <ele>1451.0000</ele>
        <time>2018-10-13T16:26:48Z</time>
      </trkpt>
      <trkpt lat="38.24104433" lon="-2.66084932">
        <ele>1450.0000</ele>
        <time>2018-10-13T16:26:50Z</time>
      </trkpt>
      <trkpt lat="38.24120443" lon="-2.66066743">
        <ele>1448.0000</ele>
        <time>2018-10-13T16:26:52Z</time>
      </trkpt>
      <trkpt lat="38.24135782" lon="-2.66048119">
        <ele>1446.0000</ele>
        <time>2018-10-13T16:26:54Z</time>
      </trkpt>
      <trkpt lat="38.24159653" lon="-2.66022479">
        <ele>1445.0000</ele>
        <time>2018-10-13T16:26:57Z</time>
      </trkpt>
      <trkpt lat="38.24184774" lon="-2.65995740">
        <ele>1443.0000</ele>
        <time>2018-10-13T16:27:00Z</time>
      </trkpt>
      <trkpt lat="38.24208059" lon="-2.65970729">
        <ele>1442.0000</ele>
        <time>2018-10-13T16:27:03Z</time>
      </trkpt>
      <trkpt lat="38.24220481" lon="-2.65956002">
        <ele>1441.0000</ele>
        <time>2018-10-13T16:27:05Z</time>
      </trkpt>
      <trkpt lat="38.24228435" lon="-2.65940722">
        <ele>1440.0000</ele>
        <time>2018-10-13T16:27:07Z</time>
      </trkpt>
      <trkpt lat="38.24232693" lon="-2.65927000">
        <ele>1439.0000</ele>
        <time>2018-10-13T16:27:09Z</time>
      </trkpt>
      <trkpt lat="38.24253581" lon="-2.65908921">
        <ele>1438.0000</ele>
        <time>2018-10-13T16:27:13Z</time>
      </trkpt>
      <trkpt lat="38.24263354" lon="-2.65891796">
        <ele>1438.0000</ele>
        <time>2018-10-13T16:27:15Z</time>
      </trkpt>
      <trkpt lat="38.24269641" lon="-2.65865410">
        <ele>1437.0000</ele>
        <time>2018-10-13T16:27:18Z</time>
      </trkpt>
      <trkpt lat="38.24272155" lon="-2.65856542">
        <ele>1436.0000</ele>
        <time>2018-10-13T16:27:19Z</time>
      </trkpt>
      <trkpt lat="38.24278148" lon="-2.65841161">
        <ele>1435.0000</ele>
        <time>2018-10-13T16:27:21Z</time>
      </trkpt>
      <trkpt lat="38.24275818" lon="-2.65826242">
        <ele>1433.0000</ele>
        <time>2018-10-13T16:27:23Z</time>
      </trkpt>
      <trkpt lat="38.24266506" lon="-2.65820458">
        <ele>1432.0000</ele>
        <time>2018-10-13T16:27:25Z</time>
      </trkpt>
      <trkpt lat="38.24247948" lon="-2.65823869">
        <ele>1431.0000</ele>
        <time>2018-10-13T16:27:29Z</time>
      </trkpt>
      <trkpt lat="38.24244235" lon="-2.65824683">
        <ele>1431.0000</ele>
        <time>2018-10-13T16:27:30Z</time>
      </trkpt>
      <trkpt lat="38.24237639" lon="-2.65825479">
        <ele>1431.0000</ele>
        <time>2018-10-13T16:27:32Z</time>
      </trkpt>
      <trkpt lat="38.24225988" lon="-2.65824800">
        <ele>1432.0000</ele>
        <time>2018-10-13T16:27:36Z</time>
      </trkpt>
      <trkpt lat="38.24212895" lon="-2.65817809">
        <ele>1433.0000</ele>
        <time>2018-10-13T16:27:41Z</time>
      </trkpt>
      <trkpt lat="38.24202192" lon="-2.65766881">
        <ele>1434.0000</ele>
        <time>2018-10-13T16:27:55Z</time>
      </trkpt>
      <trkpt lat="38.24202627" lon="-2.65762900">
        <ele>1434.0000</ele>
        <time>2018-10-13T16:27:56Z</time>
      </trkpt>
      <trkpt lat="38.24204597" lon="-2.65743244">
        <ele>1435.0000</ele>
        <time>2018-10-13T16:28:01Z</time>
      </trkpt>
      <trkpt lat="38.24218033" lon="-2.65697487">
        <ele>1436.0000</ele>
        <time>2018-10-13T16:28:11Z</time>
      </trkpt>
      <trkpt lat="38.24224119" lon="-2.65678301">
        <ele>1436.0000</ele>
        <time>2018-10-13T16:28:14Z</time>
      </trkpt>
      <trkpt lat="38.24228854" lon="-2.65664119">
        <ele>1436.0000</ele>
        <time>2018-10-13T16:28:16Z</time>
      </trkpt>
      <trkpt lat="38.24247186" lon="-2.65629761">
        <ele>1434.0000</ele>
        <time>2018-10-13T16:28:21Z</time>
      </trkpt>
      <trkpt lat="38.24255987" lon="-2.65615797">
        <ele>1433.0000</ele>
        <time>2018-10-13T16:28:23Z</time>
      </trkpt>
      <trkpt lat="38.24264343" lon="-2.65599637">
        <ele>1432.0000</ele>
        <time>2018-10-13T16:28:25Z</time>
      </trkpt>
      <trkpt lat="38.24268484" lon="-2.65591925">
        <ele>1432.0000</ele>
        <time>2018-10-13T16:28:26Z</time>
      </trkpt>
      <trkpt lat="38.24280613" lon="-2.65570057">
        <ele>1431.0000</ele>
        <time>2018-10-13T16:28:29Z</time>
      </trkpt>
      <trkpt lat="38.24285751" lon="-2.65564802">
        <ele>1431.0000</ele>
        <time>2018-10-13T16:28:30Z</time>
      </trkpt>
      <trkpt lat="38.24308323" lon="-2.65549253">
        <ele>1430.0000</ele>
        <time>2018-10-13T16:28:33Z</time>
      </trkpt>
      <trkpt lat="38.24316923" lon="-2.65544249">
        <ele>1429.0000</ele>
        <time>2018-10-13T16:28:34Z</time>
      </trkpt>
      <trkpt lat="38.24334131" lon="-2.65534291">
        <ele>1428.0000</ele>
        <time>2018-10-13T16:28:36Z</time>
      </trkpt>
      <trkpt lat="38.24368363" lon="-2.65516279">
        <ele>1427.0000</ele>
        <time>2018-10-13T16:28:40Z</time>
      </trkpt>
      <trkpt lat="38.24377038" lon="-2.65509917">
        <ele>1426.0000</ele>
        <time>2018-10-13T16:28:41Z</time>
      </trkpt>
      <trkpt lat="38.24385621" lon="-2.65503228">
        <ele>1426.0000</ele>
        <time>2018-10-13T16:28:42Z</time>
      </trkpt>
      <trkpt lat="38.24403391" lon="-2.65490429">
        <ele>1424.0000</ele>
        <time>2018-10-13T16:28:44Z</time>
      </trkpt>
      <trkpt lat="38.24410549" lon="-2.65483070">
        <ele>1423.0000</ele>
        <time>2018-10-13T16:28:45Z</time>
      </trkpt>
      <trkpt lat="38.24428184" lon="-2.65461444">
        <ele>1423.0000</ele>
        <time>2018-10-13T16:28:48Z</time>
      </trkpt>
      <trkpt lat="38.24437321" lon="-2.65443499">
        <ele>1421.0000</ele>
        <time>2018-10-13T16:28:50Z</time>
      </trkpt>
      <trkpt lat="38.24450899" lon="-2.65412393">
        <ele>1420.0000</ele>
        <time>2018-10-13T16:28:53Z</time>
      </trkpt>
      <trkpt lat="38.24466171" lon="-2.65382403">
        <ele>1419.0000</ele>
        <time>2018-10-13T16:28:56Z</time>
      </trkpt>
      <trkpt lat="38.24474008" lon="-2.65368053">
        <ele>1417.0000</ele>
        <time>2018-10-13T16:28:58Z</time>
      </trkpt>
      <trkpt lat="38.24476841" lon="-2.65361599">
        <ele>1416.0000</ele>
        <time>2018-10-13T16:28:59Z</time>
      </trkpt>
      <trkpt lat="38.24479440" lon="-2.65354860">
        <ele>1415.0000</ele>
        <time>2018-10-13T16:29:00Z</time>
      </trkpt>
      <trkpt lat="38.24482072" lon="-2.65347744">
        <ele>1414.0000</ele>
        <time>2018-10-13T16:29:01Z</time>
      </trkpt>
      <trkpt lat="38.24491837" lon="-2.65323386">
        <ele>1413.0000</ele>
        <time>2018-10-13T16:29:04Z</time>
      </trkpt>
      <trkpt lat="38.24512925" lon="-2.65282390">
        <ele>1411.0000</ele>
        <time>2018-10-13T16:29:09Z</time>
      </trkpt>
      <trkpt lat="38.24520327" lon="-2.65270706">
        <ele>1410.0000</ele>
        <time>2018-10-13T16:29:11Z</time>
      </trkpt>
      <trkpt lat="38.24529354" lon="-2.65261326">
        <ele>1409.0000</ele>
        <time>2018-10-13T16:29:13Z</time>
      </trkpt>
      <trkpt lat="38.24545900" lon="-2.65245644">
        <ele>1408.0000</ele>
        <time>2018-10-13T16:29:16Z</time>
      </trkpt>
      <trkpt lat="38.24564550" lon="-2.65228277">
        <ele>1407.0000</ele>
        <time>2018-10-13T16:29:19Z</time>
      </trkpt>
      <trkpt lat="38.24575547" lon="-2.65205847">
        <ele>1407.0000</ele>
        <time>2018-10-13T16:29:23Z</time>
      </trkpt>
      <trkpt lat="38.24582378" lon="-2.65178530">
        <ele>1405.0000</ele>
        <time>2018-10-13T16:29:28Z</time>
      </trkpt>
      <trkpt lat="38.24584222" lon="-2.65163979">
        <ele>1405.0000</ele>
        <time>2018-10-13T16:29:30Z</time>
      </trkpt>
      <trkpt lat="38.24590341" lon="-2.65131155">
        <ele>1404.0000</ele>
        <time>2018-10-13T16:29:34Z</time>
      </trkpt>
      <trkpt lat="38.24592269" lon="-2.65124710">
        <ele>1404.0000</ele>
        <time>2018-10-13T16:29:35Z</time>
      </trkpt>
      <trkpt lat="38.24593861" lon="-2.65119345">
        <ele>1403.0000</ele>
        <time>2018-10-13T16:29:36Z</time>
      </trkpt>
      <trkpt lat="38.24596099" lon="-2.65110343">
        <ele>1402.0000</ele>
        <time>2018-10-13T16:29:38Z</time>
      </trkpt>
      <trkpt lat="38.24597591" lon="-2.65102984">
        <ele>1400.0000</ele>
        <time>2018-10-13T16:29:40Z</time>
      </trkpt>
      <trkpt lat="38.24597792" lon="-2.65094636">
        <ele>1399.0000</ele>
        <time>2018-10-13T16:29:44Z</time>
      </trkpt>
      <trkpt lat="38.24596527" lon="-2.65094652">
        <ele>1399.0000</ele>
        <time>2018-10-13T16:29:45Z</time>
      </trkpt>
      <trkpt lat="38.24593165" lon="-2.65097209">
        <ele>1399.0000</ele>
        <time>2018-10-13T16:29:47Z</time>
      </trkpt>
      <trkpt lat="38.24581548" lon="-2.65105188">
        <ele>1399.0000</ele>
        <time>2018-10-13T16:29:52Z</time>
      </trkpt>
      <trkpt lat="38.24544165" lon="-2.65125950">
        <ele>1399.0000</ele>
        <time>2018-10-13T16:30:02Z</time>
      </trkpt>
      <trkpt lat="38.24523788" lon="-2.65141013">
        <ele>1399.0000</ele>
        <time>2018-10-13T16:30:07Z</time>
      </trkpt>
      <trkpt lat="38.24512816" lon="-2.65151448">
        <ele>1399.0000</ele>
        <time>2018-10-13T16:30:10Z</time>
      </trkpt>
      <trkpt lat="38.24495290" lon="-2.65177080">
        <ele>1399.0000</ele>
        <time>2018-10-13T16:30:17Z</time>
      </trkpt>
      <trkpt lat="38.24487486" lon="-2.65192084">
        <ele>1399.0000</ele>
        <time>2018-10-13T16:30:21Z</time>
      </trkpt>
      <trkpt lat="38.24484050" lon="-2.65200155">
        <ele>1401.0000</ele>
        <time>2018-10-13T16:30:23Z</time>
      </trkpt>
      <trkpt lat="38.24477269" lon="-2.65211882">
        <ele>1401.0000</ele>
        <time>2018-10-13T16:30:26Z</time>
      </trkpt>
      <trkpt lat="38.24468057" lon="-2.65221362">
        <ele>1402.0000</ele>
        <time>2018-10-13T16:30:29Z</time>
      </trkpt>
      <trkpt lat="38.24451344" lon="-2.65235963">
        <ele>1403.0000</ele>
        <time>2018-10-13T16:30:34Z</time>
      </trkpt>
      <trkpt lat="38.24435217" lon="-2.65243020">
        <ele>1404.0000</ele>
        <time>2018-10-13T16:30:38Z</time>
      </trkpt>
      <trkpt lat="38.24409702" lon="-2.65252375">
        <ele>1405.0000</ele>
        <time>2018-10-13T16:30:45Z</time>
      </trkpt>
      <trkpt lat="38.24387306" lon="-2.65258619">
        <ele>1406.0000</ele>
        <time>2018-10-13T16:30:52Z</time>
      </trkpt>
      <trkpt lat="38.24370726" lon="-2.65265392">
        <ele>1407.0000</ele>
        <time>2018-10-13T16:30:57Z</time>
      </trkpt>
      <trkpt lat="38.24339093" lon="-2.65273991">
        <ele>1408.0000</ele>
        <time>2018-10-13T16:31:06Z</time>
      </trkpt>
      <trkpt lat="38.24314367" lon="-2.65276070">
        <ele>1410.0000</ele>
        <time>2018-10-13T16:31:13Z</time>
      </trkpt>
      <trkpt lat="38.24286681" lon="-2.65259373">
        <ele>1410.0000</ele>
        <time>2018-10-13T16:31:22Z</time>
      </trkpt>
      <trkpt lat="38.24282524" lon="-2.65253682">
        <ele>1411.0000</ele>
        <time>2018-10-13T16:31:24Z</time>
      </trkpt>
      <trkpt lat="38.24260689" lon="-2.65238075">
        <ele>1412.0000</ele>
        <time>2018-10-13T16:31:32Z</time>
      </trkpt>
      <trkpt lat="38.24235032" lon="-2.65239927">
        <ele>1413.0000</ele>
        <time>2018-10-13T16:31:40Z</time>
      </trkpt>
      <trkpt lat="38.24210540" lon="-2.65244957">
        <ele>1414.0000</ele>
        <time>2018-10-13T16:31:48Z</time>
      </trkpt>
      <trkpt lat="38.24185612" lon="-2.65249106">
        <ele>1415.0000</ele>
        <time>2018-10-13T16:31:56Z</time>
      </trkpt>
      <trkpt lat="38.24156753" lon="-2.65253850">
        <ele>1416.0000</ele>
        <time>2018-10-13T16:32:05Z</time>
      </trkpt>
      <trkpt lat="38.24124868" lon="-2.65276959">
        <ele>1417.0000</ele>
        <time>2018-10-13T16:32:15Z</time>
      </trkpt>
      <trkpt lat="38.24084334" lon="-2.65332983">
        <ele>1417.0000</ele>
        <time>2018-10-13T16:32:26Z</time>
      </trkpt>
      <trkpt lat="38.24046053" lon="-2.65348549">
        <ele>1415.0000</ele>
        <time>2018-10-13T16:32:33Z</time>
      </trkpt>
      <trkpt lat="38.23990155" lon="-2.65338918">
        <ele>1415.0000</ele>
        <time>2018-10-13T16:32:44Z</time>
      </trkpt>
      <trkpt lat="38.23973181" lon="-2.65336470">
        <ele>1416.0000</ele>
        <time>2018-10-13T16:32:48Z</time>
      </trkpt>
      <trkpt lat="38.23965252" lon="-2.65335741">
        <ele>1417.0000</ele>
        <time>2018-10-13T16:32:50Z</time>
      </trkpt>
      <trkpt lat="38.23952495" lon="-2.65334735">
        <ele>1418.0000</ele>
        <time>2018-10-13T16:32:53Z</time>
      </trkpt>
      <trkpt lat="38.23931389" lon="-2.65333821">
        <ele>1419.0000</ele>
        <time>2018-10-13T16:32:58Z</time>
      </trkpt>
      <trkpt lat="38.23907836" lon="-2.65336646">
        <ele>1419.0000</ele>
        <time>2018-10-13T16:33:03Z</time>
      </trkpt>
      <trkpt lat="38.23886881" lon="-2.65345355">
        <ele>1419.0000</ele>
        <time>2018-10-13T16:33:07Z</time>
      </trkpt>
      <trkpt lat="38.23877099" lon="-2.65354860">
        <ele>1419.0000</ele>
        <time>2018-10-13T16:33:09Z</time>
      </trkpt>
      <trkpt lat="38.23861015" lon="-2.65405579">
        <ele>1418.0000</ele>
        <time>2018-10-13T16:33:15Z</time>
      </trkpt>
      <trkpt lat="38.23860009" lon="-2.65416434">
        <ele>1417.0000</ele>
        <time>2018-10-13T16:33:16Z</time>
      </trkpt>
      <trkpt lat="38.23856522" lon="-2.65437740">
        <ele>1416.0000</ele>
        <time>2018-10-13T16:33:18Z</time>
      </trkpt>
      <trkpt lat="38.23853764" lon="-2.65447882">
        <ele>1415.0000</ele>
        <time>2018-10-13T16:33:19Z</time>
      </trkpt>
      <trkpt lat="38.23849632" lon="-2.65457890">
        <ele>1414.0000</ele>
        <time>2018-10-13T16:33:20Z</time>
      </trkpt>
      <trkpt lat="38.23832214" lon="-2.65484947">
        <ele>1412.0000</ele>
        <time>2018-10-13T16:33:23Z</time>
      </trkpt>
      <trkpt lat="38.23825282" lon="-2.65492700">
        <ele>1412.0000</ele>
        <time>2018-10-13T16:33:24Z</time>
      </trkpt>
      <trkpt lat="38.23818376" lon="-2.65499733">
        <ele>1411.0000</ele>
        <time>2018-10-13T16:33:25Z</time>
      </trkpt>
      <trkpt lat="38.23804554" lon="-2.65515206">
        <ele>1410.0000</ele>
        <time>2018-10-13T16:33:27Z</time>
      </trkpt>
      <trkpt lat="38.23791327" lon="-2.65529975">
        <ele>1408.0000</ele>
        <time>2018-10-13T16:33:29Z</time>
      </trkpt>
      <trkpt lat="38.23779794" lon="-2.65543445">
        <ele>1407.0000</ele>
        <time>2018-10-13T16:33:31Z</time>
      </trkpt>
      <trkpt lat="38.23768529" lon="-2.65554659">
        <ele>1405.0000</ele>
        <time>2018-10-13T16:33:33Z</time>
      </trkpt>
      <trkpt lat="38.23758848" lon="-2.65564366">
        <ele>1404.0000</ele>
        <time>2018-10-13T16:33:35Z</time>
      </trkpt>
      <trkpt lat="38.23752318" lon="-2.65570954">
        <ele>1403.0000</ele>
        <time>2018-10-13T16:33:37Z</time>
      </trkpt>
      <trkpt lat="38.23749619" lon="-2.65574751">
        <ele>1402.0000</ele>
        <time>2018-10-13T16:33:39Z</time>
      </trkpt>
      <trkpt lat="38.23749686" lon="-2.65575396">
        <ele>1401.0000</ele>
        <time>2018-10-13T16:33:41Z</time>
      </trkpt>
      <trkpt lat="38.23747700" lon="-2.65576704">
        <ele>1402.0000</ele>
        <time>2018-10-13T16:39:24Z</time>
      </trkpt>
      <trkpt lat="38.23745789" lon="-2.65577366">
        <ele>1402.0000</ele>
        <time>2018-10-13T16:39:25Z</time>
      </trkpt>
      <trkpt lat="38.23737423" lon="-2.65577391">
        <ele>1402.0000</ele>
        <time>2018-10-13T16:39:28Z</time>
      </trkpt>
      <trkpt lat="38.23729695" lon="-2.65574399">
        <ele>1402.0000</ele>
        <time>2018-10-13T16:39:30Z</time>
      </trkpt>
      <trkpt lat="38.23725177" lon="-2.65571767">
        <ele>1402.0000</ele>
        <time>2018-10-13T16:39:31Z</time>
      </trkpt>
      <trkpt lat="38.23698741" lon="-2.65549454">
        <ele>1400.0000</ele>
        <time>2018-10-13T16:39:36Z</time>
      </trkpt>
      <trkpt lat="38.23680267" lon="-2.65531701">
        <ele>1399.0000</ele>
        <time>2018-10-13T16:39:39Z</time>
      </trkpt>
      <trkpt lat="38.23660343" lon="-2.65512784">
        <ele>1397.0000</ele>
        <time>2018-10-13T16:39:42Z</time>
      </trkpt>
      <trkpt lat="38.23650470" lon="-2.65502524">
        <ele>1396.0000</ele>
        <time>2018-10-13T16:39:44Z</time>
      </trkpt>
      <trkpt lat="38.23641149" lon="-2.65491778">
        <ele>1395.0000</ele>
        <time>2018-10-13T16:39:46Z</time>
      </trkpt>
      <trkpt lat="38.23624729" lon="-2.65474847">
        <ele>1393.0000</ele>
        <time>2018-10-13T16:39:49Z</time>
      </trkpt>
      <trkpt lat="38.23602500" lon="-2.65455049">
        <ele>1393.0000</ele>
        <time>2018-10-13T16:39:53Z</time>
      </trkpt>
      <trkpt lat="38.23589064" lon="-2.65448092">
        <ele>1392.0000</ele>
        <time>2018-10-13T16:39:55Z</time>
      </trkpt>
      <trkpt lat="38.23574949" lon="-2.65442996">
        <ele>1391.0000</ele>
        <time>2018-10-13T16:39:57Z</time>
      </trkpt>
      <trkpt lat="38.23554027" lon="-2.65438587">
        <ele>1389.0000</ele>
        <time>2018-10-13T16:40:00Z</time>
      </trkpt>
      <trkpt lat="38.23523140" lon="-2.65434429">
        <ele>1389.0000</ele>
        <time>2018-10-13T16:40:05Z</time>
      </trkpt>
      <trkpt lat="38.23491490" lon="-2.65431823">
        <ele>1389.0000</ele>
        <time>2018-10-13T16:40:11Z</time>
      </trkpt>
      <trkpt lat="38.23467073" lon="-2.65434471">
        <ele>1390.0000</ele>
        <time>2018-10-13T16:40:16Z</time>
      </trkpt>
      <trkpt lat="38.23439388" lon="-2.65440205">
        <ele>1392.0000</ele>
        <time>2018-10-13T16:40:21Z</time>
      </trkpt>
      <trkpt lat="38.23385761" lon="-2.65451436">
        <ele>1392.0000</ele>
        <time>2018-10-13T16:40:30Z</time>
      </trkpt>
      <trkpt lat="38.23353189" lon="-2.65457329">
        <ele>1392.0000</ele>
        <time>2018-10-13T16:40:36Z</time>
      </trkpt>
      <trkpt lat="38.23320633" lon="-2.65466239">
        <ele>1393.0000</ele>
        <time>2018-10-13T16:40:44Z</time>
      </trkpt>
      <trkpt lat="38.23316836" lon="-2.65467396">
        <ele>1393.0000</ele>
        <time>2018-10-13T16:40:45Z</time>
      </trkpt>
      <trkpt lat="38.23304465" lon="-2.65470891">
        <ele>1394.0000</ele>
        <time>2018-10-13T16:40:48Z</time>
      </trkpt>
      <trkpt lat="38.23290911" lon="-2.65475794">
        <ele>1395.0000</ele>
        <time>2018-10-13T16:40:51Z</time>
      </trkpt>
      <trkpt lat="38.23286016" lon="-2.65477403">
        <ele>1395.0000</ele>
        <time>2018-10-13T16:40:52Z</time>
      </trkpt>
      <trkpt lat="38.23275681" lon="-2.65479474">
        <ele>1396.0000</ele>
        <time>2018-10-13T16:40:54Z</time>
      </trkpt>
      <trkpt lat="38.23266352" lon="-2.65481988">
        <ele>1397.0000</ele>
        <time>2018-10-13T16:40:56Z</time>
      </trkpt>
      <trkpt lat="38.23243704" lon="-2.65489448">
        <ele>1398.0000</ele>
        <time>2018-10-13T16:41:02Z</time>
      </trkpt>
      <trkpt lat="38.23236898" lon="-2.65491058">
        <ele>1399.0000</ele>
        <time>2018-10-13T16:41:04Z</time>
      </trkpt>
      <trkpt lat="38.23230536" lon="-2.65492642">
        <ele>1400.0000</ele>
        <time>2018-10-13T16:41:06Z</time>
      </trkpt>
      <trkpt lat="38.23220981" lon="-2.65494310">
        <ele>1401.0000</ele>
        <time>2018-10-13T16:41:09Z</time>
      </trkpt>
      <trkpt lat="38.23208701" lon="-2.65497352">
        <ele>1402.0000</ele>
        <time>2018-10-13T16:41:13Z</time>
      </trkpt>
      <trkpt lat="38.23187830" lon="-2.65499934">
        <ele>1404.0000</ele>
        <time>2018-10-13T16:41:20Z</time>
      </trkpt>
      <trkpt lat="38.23166440" lon="-2.65484821">
        <ele>1405.0000</ele>
        <time>2018-10-13T16:41:29Z</time>
      </trkpt>
      <trkpt lat="38.23156516" lon="-2.65465526">
        <ele>1406.0000</ele>
        <time>2018-10-13T16:41:35Z</time>
      </trkpt>
      <trkpt lat="38.23152266" lon="-2.65450347">
        <ele>1407.0000</ele>
        <time>2018-10-13T16:41:40Z</time>
      </trkpt>
      <trkpt lat="38.23146306" lon="-2.65433114">
        <ele>1408.0000</ele>
        <time>2018-10-13T16:41:46Z</time>
      </trkpt>
      <trkpt lat="38.23142359" lon="-2.65421597">
        <ele>1409.0000</ele>
        <time>2018-10-13T16:41:50Z</time>
      </trkpt>
      <trkpt lat="38.23139425" lon="-2.65416685">
        <ele>1410.0000</ele>
        <time>2018-10-13T16:41:52Z</time>
      </trkpt>
      <trkpt lat="38.23130347" lon="-2.65402972">
        <ele>1411.0000</ele>
        <time>2018-10-13T16:41:59Z</time>
      </trkpt>
      <trkpt lat="38.23120440" lon="-2.65393794">
        <ele>1412.0000</ele>
        <time>2018-10-13T16:42:04Z</time>
      </trkpt>
      <trkpt lat="38.23112963" lon="-2.65388933">
        <ele>1413.0000</ele>
        <time>2018-10-13T16:42:08Z</time>
      </trkpt>
      <trkpt lat="38.23100172" lon="-2.65378380">
        <ele>1415.0000</ele>
        <time>2018-10-13T16:42:14Z</time>
      </trkpt>
      <trkpt lat="38.23088346" lon="-2.65370693">
        <ele>1416.0000</ele>
        <time>2018-10-13T16:42:20Z</time>
      </trkpt>
      <trkpt lat="38.23078338" lon="-2.65363041">
        <ele>1417.0000</ele>
        <time>2018-10-13T16:42:26Z</time>
      </trkpt>
      <trkpt lat="38.23066335" lon="-2.65352991">
        <ele>1418.0000</ele>
        <time>2018-10-13T16:42:32Z</time>
      </trkpt>
      <trkpt lat="38.23054474" lon="-2.65341030">
        <ele>1419.0000</ele>
        <time>2018-10-13T16:42:39Z</time>
      </trkpt>
      <trkpt lat="38.23043075" lon="-2.65321777">
        <ele>1420.0000</ele>
        <time>2018-10-13T16:42:48Z</time>
      </trkpt>
      <trkpt lat="38.23034743" lon="-2.65305709">
        <ele>1421.0000</ele>
        <time>2018-10-13T16:42:54Z</time>
      </trkpt>
      <trkpt lat="38.23026789" lon="-2.65279339">
        <ele>1422.0000</ele>
        <time>2018-10-13T16:43:02Z</time>
      </trkpt>
      <trkpt lat="38.23019790" lon="-2.65252718">
        <ele>1423.0000</ele>
        <time>2018-10-13T16:43:10Z</time>
      </trkpt>
      <trkpt lat="38.23018072" lon="-2.65245929">
        <ele>1423.0000</ele>
        <time>2018-10-13T16:43:12Z</time>
      </trkpt>
      <trkpt lat="38.23017250" lon="-2.65239818">
        <ele>1424.0000</ele>
        <time>2018-10-13T16:43:14Z</time>
      </trkpt>
      <trkpt lat="38.23015021" lon="-2.65225544">
        <ele>1425.0000</ele>
        <time>2018-10-13T16:43:19Z</time>
      </trkpt>
      <trkpt lat="38.23010402" lon="-2.65213843">
        <ele>1426.0000</ele>
        <time>2018-10-13T16:43:24Z</time>
      </trkpt>
      <trkpt lat="38.23002548" lon="-2.65203709">
        <ele>1427.0000</ele>
        <time>2018-10-13T16:43:29Z</time>
      </trkpt>
      <trkpt lat="38.22995021" lon="-2.65198219">
        <ele>1428.0000</ele>
        <time>2018-10-13T16:43:33Z</time>
      </trkpt>
      <trkpt lat="38.22990470" lon="-2.65195646">
        <ele>1428.0000</ele>
        <time>2018-10-13T16:43:35Z</time>
      </trkpt>
      <trkpt lat="38.22975316" lon="-2.65189091">
        <ele>1429.0000</ele>
        <time>2018-10-13T16:43:42Z</time>
      </trkpt>
      <trkpt lat="38.22960387" lon="-2.65183475">
        <ele>1430.0000</ele>
        <time>2018-10-13T16:43:48Z</time>
      </trkpt>
      <trkpt lat="38.22944009" lon="-2.65175152">
        <ele>1432.0000</ele>
        <time>2018-10-13T16:43:55Z</time>
      </trkpt>
      <trkpt lat="38.22929374" lon="-2.65171204">
        <ele>1433.0000</ele>
        <time>2018-10-13T16:44:01Z</time>
      </trkpt>
      <trkpt lat="38.22903650" lon="-2.65161691">
        <ele>1434.0000</ele>
        <time>2018-10-13T16:44:08Z</time>
      </trkpt>
      <trkpt lat="38.22879225" lon="-2.65150845">
        <ele>1435.0000</ele>
        <time>2018-10-13T16:44:14Z</time>
      </trkpt>
      <trkpt lat="38.22874741" lon="-2.65149386">
        <ele>1435.0000</ele>
        <time>2018-10-13T16:44:15Z</time>
      </trkpt>
      <trkpt lat="38.22844306" lon="-2.65136688">
        <ele>1435.0000</ele>
        <time>2018-10-13T16:44:21Z</time>
      </trkpt>
      <trkpt lat="38.22821072" lon="-2.65128322">
        <ele>1434.0000</ele>
        <time>2018-10-13T16:44:25Z</time>
      </trkpt>
      <trkpt lat="38.22814559" lon="-2.65126336">
        <ele>1434.0000</ele>
        <time>2018-10-13T16:44:26Z</time>
      </trkpt>
      <trkpt lat="38.22794007" lon="-2.65123830">
        <ele>1433.0000</ele>
        <time>2018-10-13T16:44:29Z</time>
      </trkpt>
      <trkpt lat="38.22781710" lon="-2.65126403">
        <ele>1432.0000</ele>
        <time>2018-10-13T16:44:31Z</time>
      </trkpt>
      <trkpt lat="38.22754075" lon="-2.65134072">
        <ele>1432.0000</ele>
        <time>2018-10-13T16:44:36Z</time>
      </trkpt>
      <trkpt lat="38.22722048" lon="-2.65152119">
        <ele>1432.0000</ele>
        <time>2018-10-13T16:44:43Z</time>
      </trkpt>
      <trkpt lat="38.22692267" lon="-2.65171045">
        <ele>1433.0000</ele>
        <time>2018-10-13T16:44:51Z</time>
      </trkpt>
      <trkpt lat="38.22689099" lon="-2.65173073">
        <ele>1434.0000</ele>
        <time>2018-10-13T16:44:52Z</time>
      </trkpt>
      <trkpt lat="38.22677632" lon="-2.65179762">
        <ele>1435.0000</ele>
        <time>2018-10-13T16:44:56Z</time>
      </trkpt>
      <trkpt lat="38.22670298" lon="-2.65183878">
        <ele>1436.0000</ele>
        <time>2018-10-13T16:44:59Z</time>
      </trkpt>
      <trkpt lat="38.22660944" lon="-2.65189938">
        <ele>1437.0000</ele>
        <time>2018-10-13T16:45:03Z</time>
      </trkpt>
      <trkpt lat="38.22652352" lon="-2.65196350">
        <ele>1438.0000</ele>
        <time>2018-10-13T16:45:07Z</time>
      </trkpt>
      <trkpt lat="38.22641515" lon="-2.65203592">
        <ele>1439.0000</ele>
        <time>2018-10-13T16:45:12Z</time>
      </trkpt>
      <trkpt lat="38.22620736" lon="-2.65219291">
        <ele>1440.0000</ele>
        <time>2018-10-13T16:45:21Z</time>
      </trkpt>
      <trkpt lat="38.22605657" lon="-2.65233834">
        <ele>1441.0000</ele>
        <time>2018-10-13T16:45:28Z</time>
      </trkpt>
      <trkpt lat="38.22594920" lon="-2.65243884">
        <ele>1442.0000</ele>
        <time>2018-10-13T16:45:33Z</time>
      </trkpt>
      <trkpt lat="38.22587963" lon="-2.65249902">
        <ele>1443.0000</ele>
        <time>2018-10-13T16:45:36Z</time>
      </trkpt>
      <trkpt lat="38.22578441" lon="-2.65256230">
        <ele>1444.0000</ele>
        <time>2018-10-13T16:45:40Z</time>
      </trkpt>
      <trkpt lat="38.22562607" lon="-2.65261511">
        <ele>1445.0000</ele>
        <time>2018-10-13T16:45:46Z</time>
      </trkpt>
      <trkpt lat="38.22548509" lon="-2.65256926">
        <ele>1446.0000</ele>
        <time>2018-10-13T16:45:51Z</time>
      </trkpt>
      <trkpt lat="38.22535190" lon="-2.65252031">
        <ele>1447.0000</ele>
        <time>2018-10-13T16:45:56Z</time>
      </trkpt>
      <trkpt lat="38.22521109" lon="-2.65247019">
        <ele>1448.0000</ele>
        <time>2018-10-13T16:46:01Z</time>
      </trkpt>
      <trkpt lat="38.22494127" lon="-2.65240355">
        <ele>1449.0000</ele>
        <time>2018-10-13T16:46:10Z</time>
      </trkpt>
      <trkpt lat="38.22461304" lon="-2.65226676">
        <ele>1450.0000</ele>
        <time>2018-10-13T16:46:22Z</time>
      </trkpt>
      <trkpt lat="38.22456325" lon="-2.65224538">
        <ele>1450.0000</ele>
        <time>2018-10-13T16:46:24Z</time>
      </trkpt>
      <trkpt lat="38.22440944" lon="-2.65218076">
        <ele>1451.0000</ele>
        <time>2018-10-13T16:46:30Z</time>
      </trkpt>
      <trkpt lat="38.22426083" lon="-2.65211689">
        <ele>1452.0000</ele>
        <time>2018-10-13T16:46:36Z</time>
      </trkpt>
      <trkpt lat="38.22411901" lon="-2.65208537">
        <ele>1453.0000</ele>
        <time>2018-10-13T16:46:41Z</time>
      </trkpt>
      <trkpt lat="38.22392933" lon="-2.65210012">
        <ele>1454.0000</ele>
        <time>2018-10-13T16:46:48Z</time>
      </trkpt>
      <trkpt lat="38.22375171" lon="-2.65212762">
        <ele>1456.0000</ele>
        <time>2018-10-13T16:46:55Z</time>
      </trkpt>
      <trkpt lat="38.22364694" lon="-2.65214648">
        <ele>1457.0000</ele>
        <time>2018-10-13T16:46:59Z</time>
      </trkpt>
      <trkpt lat="38.22351836" lon="-2.65217590">
        <ele>1458.0000</ele>
        <time>2018-10-13T16:47:04Z</time>
      </trkpt>
      <trkpt lat="38.22339288" lon="-2.65220406">
        <ele>1459.0000</ele>
        <time>2018-10-13T16:47:09Z</time>
      </trkpt>
      <trkpt lat="38.22321644" lon="-2.65224630">
        <ele>1460.0000</ele>
        <time>2018-10-13T16:47:16Z</time>
      </trkpt>
      <trkpt lat="38.22295116" lon="-2.65230414">
        <ele>1461.0000</ele>
        <time>2018-10-13T16:47:27Z</time>
      </trkpt>
      <trkpt lat="38.22278360" lon="-2.65233884">
        <ele>1462.0000</ele>
        <time>2018-10-13T16:47:34Z</time>
      </trkpt>
      <trkpt lat="38.22264228" lon="-2.65237354">
        <ele>1463.0000</ele>
        <time>2018-10-13T16:47:40Z</time>
      </trkpt>
      <trkpt lat="38.22250423" lon="-2.65240489">
        <ele>1465.0000</ele>
        <time>2018-10-13T16:47:46Z</time>
      </trkpt>
      <trkpt lat="38.22238747" lon="-2.65242425">
        <ele>1466.0000</ele>
        <time>2018-10-13T16:47:51Z</time>
      </trkpt>
      <trkpt lat="38.22223140" lon="-2.65246868">
        <ele>1466.0000</ele>
        <time>2018-10-13T16:47:58Z</time>
      </trkpt>
      <trkpt lat="38.22212127" lon="-2.65250313">
        <ele>1468.0000</ele>
        <time>2018-10-13T16:48:03Z</time>
      </trkpt>
      <trkpt lat="38.22199428" lon="-2.65255074">
        <ele>1469.0000</ele>
        <time>2018-10-13T16:48:09Z</time>
      </trkpt>
      <trkpt lat="38.22191306" lon="-2.65257529">
        <ele>1470.0000</ele>
        <time>2018-10-13T16:48:13Z</time>
      </trkpt>
      <trkpt lat="38.22178440" lon="-2.65263112">
        <ele>1471.0000</ele>
        <time>2018-10-13T16:48:19Z</time>
      </trkpt>
      <trkpt lat="38.22163025" lon="-2.65263833">
        <ele>1472.0000</ele>
        <time>2018-10-13T16:48:25Z</time>
      </trkpt>
      <trkpt lat="38.22141861" lon="-2.65258694">
        <ele>1473.0000</ele>
        <time>2018-10-13T16:48:33Z</time>
      </trkpt>
      <trkpt lat="38.22127930" lon="-2.65251654">
        <ele>1474.0000</ele>
        <time>2018-10-13T16:48:38Z</time>
      </trkpt>
      <trkpt lat="38.22121786" lon="-2.65249701">
        <ele>1474.0000</ele>
        <time>2018-10-13T16:48:40Z</time>
      </trkpt>
      <trkpt lat="38.22071461" lon="-2.65263657">
        <ele>1475.0000</ele>
        <time>2018-10-13T16:48:56Z</time>
      </trkpt>
      <trkpt lat="38.22059224" lon="-2.65265685">
        <ele>1476.0000</ele>
        <time>2018-10-13T16:49:00Z</time>
      </trkpt>
      <trkpt lat="38.22040524" lon="-2.65265308">
        <ele>1477.0000</ele>
        <time>2018-10-13T16:49:05Z</time>
      </trkpt>
      <trkpt lat="38.22025185" lon="-2.65264629">
        <ele>1477.0000</ele>
        <time>2018-10-13T16:49:09Z</time>
      </trkpt>
      <trkpt lat="38.22002881" lon="-2.65262735">
        <ele>1477.0000</ele>
        <time>2018-10-13T16:49:15Z</time>
      </trkpt>
      <trkpt lat="38.21998656" lon="-2.65261452">
        <ele>1478.0000</ele>
        <time>2018-10-13T16:49:16Z</time>
      </trkpt>
      <trkpt lat="38.21979017" lon="-2.65252207">
        <ele>1479.0000</ele>
        <time>2018-10-13T16:49:21Z</time>
      </trkpt>
      <trkpt lat="38.21958431" lon="-2.65236625">
        <ele>1480.0000</ele>
        <time>2018-10-13T16:49:27Z</time>
      </trkpt>
      <trkpt lat="38.21954526" lon="-2.65234999">
        <ele>1480.0000</ele>
        <time>2018-10-13T16:49:28Z</time>
      </trkpt>
      <trkpt lat="38.21939581" lon="-2.65238670">
        <ele>1480.0000</ele>
        <time>2018-10-13T16:49:32Z</time>
      </trkpt>
      <trkpt lat="38.21920654" lon="-2.65254571">
        <ele>1481.0000</ele>
        <time>2018-10-13T16:49:38Z</time>
      </trkpt>
      <trkpt lat="38.21915709" lon="-2.65263170">
        <ele>1481.0000</ele>
        <time>2018-10-13T16:49:40Z</time>
      </trkpt>
      <trkpt lat="38.21905374" lon="-2.65279800">
        <ele>1482.0000</ele>
        <time>2018-10-13T16:49:44Z</time>
      </trkpt>
      <trkpt lat="38.21903195" lon="-2.65283471">
        <ele>1482.0000</ele>
        <time>2018-10-13T16:49:45Z</time>
      </trkpt>
      <trkpt lat="38.21889834" lon="-2.65305214">
        <ele>1483.0000</ele>
        <time>2018-10-13T16:49:51Z</time>
      </trkpt>
      <trkpt lat="38.21879918" lon="-2.65317494">
        <ele>1485.0000</ele>
        <time>2018-10-13T16:49:55Z</time>
      </trkpt>
      <trkpt lat="38.21869986" lon="-2.65329086">
        <ele>1486.0000</ele>
        <time>2018-10-13T16:49:59Z</time>
      </trkpt>
      <trkpt lat="38.21857346" lon="-2.65341893">
        <ele>1487.0000</ele>
        <time>2018-10-13T16:50:04Z</time>
      </trkpt>
      <trkpt lat="38.21847070" lon="-2.65350786">
        <ele>1488.0000</ele>
        <time>2018-10-13T16:50:08Z</time>
      </trkpt>
      <trkpt lat="38.21825352" lon="-2.65367257">
        <ele>1489.0000</ele>
        <time>2018-10-13T16:50:16Z</time>
      </trkpt>
      <trkpt lat="38.21810231" lon="-2.65374314">
        <ele>1490.0000</ele>
        <time>2018-10-13T16:50:21Z</time>
      </trkpt>
      <trkpt lat="38.21796091" lon="-2.65373208">
        <ele>1491.0000</ele>
        <time>2018-10-13T16:50:25Z</time>
      </trkpt>
      <trkpt lat="38.21781062" lon="-2.65354047">
        <ele>1491.0000</ele>
        <time>2018-10-13T16:50:29Z</time>
      </trkpt>
      <trkpt lat="38.21777340" lon="-2.65346319">
        <ele>1491.0000</ele>
        <time>2018-10-13T16:50:30Z</time>
      </trkpt>
      <trkpt lat="38.21769109" lon="-2.65330201">
        <ele>1491.0000</ele>
        <time>2018-10-13T16:50:32Z</time>
      </trkpt>
      <trkpt lat="38.21748356" lon="-2.65312573">
        <ele>1490.0000</ele>
        <time>2018-10-13T16:50:35Z</time>
      </trkpt>
      <trkpt lat="38.21739605" lon="-2.65308827">
        <ele>1489.0000</ele>
        <time>2018-10-13T16:50:36Z</time>
      </trkpt>
      <trkpt lat="38.21720360" lon="-2.65305466">
        <ele>1488.0000</ele>
        <time>2018-10-13T16:50:38Z</time>
      </trkpt>
      <trkpt lat="38.21710428" lon="-2.65306237">
        <ele>1487.0000</ele>
        <time>2018-10-13T16:50:39Z</time>
      </trkpt>
      <trkpt lat="38.21700973" lon="-2.65308139">
        <ele>1486.0000</ele>
        <time>2018-10-13T16:50:40Z</time>
      </trkpt>
      <trkpt lat="38.21691242" lon="-2.65311517">
        <ele>1485.0000</ele>
        <time>2018-10-13T16:50:41Z</time>
      </trkpt>
      <trkpt lat="38.21682197" lon="-2.65316982">
        <ele>1484.0000</ele>
        <time>2018-10-13T16:50:42Z</time>
      </trkpt>
      <trkpt lat="38.21674386" lon="-2.65324400">
        <ele>1481.0000</ele>
        <time>2018-10-13T16:50:43Z</time>
      </trkpt>
      <trkpt lat="38.21667362" lon="-2.65333511">
        <ele>1479.0000</ele>
        <time>2018-10-13T16:50:44Z</time>
      </trkpt>
      <trkpt lat="38.21661419" lon="-2.65343687">
        <ele>1477.0000</ele>
        <time>2018-10-13T16:50:45Z</time>
      </trkpt>
      <trkpt lat="38.21656373" lon="-2.65354542">
        <ele>1475.0000</ele>
        <time>2018-10-13T16:50:46Z</time>
      </trkpt>
      <trkpt lat="38.21652023" lon="-2.65365857">
        <ele>1474.0000</ele>
        <time>2018-10-13T16:50:47Z</time>
      </trkpt>
      <trkpt lat="38.21645108" lon="-2.65389377">
        <ele>1473.0000</ele>
        <time>2018-10-13T16:50:49Z</time>
      </trkpt>
      <trkpt lat="38.21642006" lon="-2.65401137">
        <ele>1473.0000</ele>
        <time>2018-10-13T16:50:50Z</time>
      </trkpt>
      <trkpt lat="38.21636089" lon="-2.65424254">
        <ele>1473.0000</ele>
        <time>2018-10-13T16:50:52Z</time>
      </trkpt>
      <trkpt lat="38.21622258" lon="-2.65477839">
        <ele>1472.0000</ele>
        <time>2018-10-13T16:50:57Z</time>
      </trkpt>
      <trkpt lat="38.21616861" lon="-2.65497134">
        <ele>1472.0000</ele>
        <time>2018-10-13T16:50:59Z</time>
      </trkpt>
      <trkpt lat="38.21596727" lon="-2.65542782">
        <ele>1471.0000</ele>
        <time>2018-10-13T16:51:04Z</time>
      </trkpt>
      <trkpt lat="38.21579385" lon="-2.65571465">
        <ele>1471.0000</ele>
        <time>2018-10-13T16:51:07Z</time>
      </trkpt>
      <trkpt lat="38.21540099" lon="-2.65619334">
        <ele>1470.0000</ele>
        <time>2018-10-13T16:51:12Z</time>
      </trkpt>
      <trkpt lat="38.21521089" lon="-2.65638177">
        <ele>1469.0000</ele>
        <time>2018-10-13T16:51:14Z</time>
      </trkpt>
      <trkpt lat="38.21501215" lon="-2.65657849">
        <ele>1467.0000</ele>
        <time>2018-10-13T16:51:16Z</time>
      </trkpt>
      <trkpt lat="38.21480638" lon="-2.65678117">
        <ele>1464.0000</ele>
        <time>2018-10-13T16:51:18Z</time>
      </trkpt>
      <trkpt lat="38.21470001" lon="-2.65688384">
        <ele>1463.0000</ele>
        <time>2018-10-13T16:51:19Z</time>
      </trkpt>
      <trkpt lat="38.21459406" lon="-2.65698920">
        <ele>1462.0000</ele>
        <time>2018-10-13T16:51:20Z</time>
      </trkpt>
      <trkpt lat="38.21448627" lon="-2.65709297">
        <ele>1461.0000</ele>
        <time>2018-10-13T16:51:21Z</time>
      </trkpt>
      <trkpt lat="38.21426751" lon="-2.65729296">
        <ele>1459.0000</ele>
        <time>2018-10-13T16:51:23Z</time>
      </trkpt>
      <trkpt lat="38.21416265" lon="-2.65739187">
        <ele>1458.0000</ele>
        <time>2018-10-13T16:51:24Z</time>
      </trkpt>
      <trkpt lat="38.21405737" lon="-2.65748692">
        <ele>1456.0000</ele>
        <time>2018-10-13T16:51:25Z</time>
      </trkpt>
      <trkpt lat="38.21395075" lon="-2.65757426">
        <ele>1455.0000</ele>
        <time>2018-10-13T16:51:26Z</time>
      </trkpt>
      <trkpt lat="38.21383944" lon="-2.65765347">
        <ele>1454.0000</ele>
        <time>2018-10-13T16:51:27Z</time>
      </trkpt>
      <trkpt lat="38.21372679" lon="-2.65772388">
        <ele>1452.0000</ele>
        <time>2018-10-13T16:51:28Z</time>
      </trkpt>
      <trkpt lat="38.21360919" lon="-2.65778314">
        <ele>1451.0000</ele>
        <time>2018-10-13T16:51:29Z</time>
      </trkpt>
      <trkpt lat="38.21336779" lon="-2.65789789">
        <ele>1450.0000</ele>
        <time>2018-10-13T16:51:31Z</time>
      </trkpt>
      <trkpt lat="38.21281258" lon="-2.65823978">
        <ele>1449.0000</ele>
        <time>2018-10-13T16:51:36Z</time>
      </trkpt>
      <trkpt lat="38.21256833" lon="-2.65850205">
        <ele>1448.0000</ele>
        <time>2018-10-13T16:51:39Z</time>
      </trkpt>
      <trkpt lat="38.21252818" lon="-2.65898024">
        <ele>1448.0000</ele>
        <time>2018-10-13T16:51:44Z</time>
      </trkpt>
      <trkpt lat="38.21254938" lon="-2.65907521">
        <ele>1448.0000</ele>
        <time>2018-10-13T16:51:45Z</time>
      </trkpt>
      <trkpt lat="38.21256866" lon="-2.65916951">
        <ele>1448.0000</ele>
        <time>2018-10-13T16:51:46Z</time>
      </trkpt>
      <trkpt lat="38.21260236" lon="-2.65936707">
        <ele>1448.0000</ele>
        <time>2018-10-13T16:51:48Z</time>
      </trkpt>
      <trkpt lat="38.21263941" lon="-2.65955549">
        <ele>1449.0000</ele>
        <time>2018-10-13T16:51:50Z</time>
      </trkpt>
      <trkpt lat="38.21266992" lon="-2.65975263">
        <ele>1450.0000</ele>
        <time>2018-10-13T16:51:52Z</time>
      </trkpt>
      <trkpt lat="38.21267084" lon="-2.65996134">
        <ele>1451.0000</ele>
        <time>2018-10-13T16:51:54Z</time>
      </trkpt>
      <trkpt lat="38.21253715" lon="-2.66037574">
        <ele>1451.0000</ele>
        <time>2018-10-13T16:51:58Z</time>
      </trkpt>
      <trkpt lat="38.21223079" lon="-2.66066249">
        <ele>1450.0000</ele>
        <time>2018-10-13T16:52:02Z</time>
      </trkpt>
      <trkpt lat="38.21197874" lon="-2.66082879">
        <ele>1449.0000</ele>
        <time>2018-10-13T16:52:05Z</time>
      </trkpt>
      <trkpt lat="38.21163986" lon="-2.66104848">
        <ele>1448.0000</ele>
        <time>2018-10-13T16:52:09Z</time>
      </trkpt>
      <trkpt lat="38.21138941" lon="-2.66120966">
        <ele>1447.0000</ele>
        <time>2018-10-13T16:52:12Z</time>
      </trkpt>
      <trkpt lat="38.21103243" lon="-2.66149020">
        <ele>1446.0000</ele>
        <time>2018-10-13T16:52:17Z</time>
      </trkpt>
      <trkpt lat="38.21083478" lon="-2.66165466">
        <ele>1446.0000</ele>
        <time>2018-10-13T16:52:20Z</time>
      </trkpt>
      <trkpt lat="38.21054946" lon="-2.66171827">
        <ele>1446.0000</ele>
        <time>2018-10-13T16:52:24Z</time>
      </trkpt>
      <trkpt lat="38.21048115" lon="-2.66171425">
        <ele>1446.0000</ele>
        <time>2018-10-13T16:52:25Z</time>
      </trkpt>
      <trkpt lat="38.21041166" lon="-2.66170520">
        <ele>1446.0000</ele>
        <time>2018-10-13T16:52:26Z</time>
      </trkpt>
      <trkpt lat="38.21026339" lon="-2.66168550">
        <ele>1447.0000</ele>
        <time>2018-10-13T16:52:28Z</time>
      </trkpt>
      <trkpt lat="38.21011260" lon="-2.66165549">
        <ele>1447.0000</ele>
        <time>2018-10-13T16:52:30Z</time>
      </trkpt>
      <trkpt lat="38.21003532" lon="-2.66163999">
        <ele>1448.0000</ele>
        <time>2018-10-13T16:52:31Z</time>
      </trkpt>
      <trkpt lat="38.20979618" lon="-2.66159498">
        <ele>1449.0000</ele>
        <time>2018-10-13T16:52:34Z</time>
      </trkpt>
      <trkpt lat="38.20955495" lon="-2.66155382">
        <ele>1450.0000</ele>
        <time>2018-10-13T16:52:37Z</time>
      </trkpt>
      <trkpt lat="38.20940424" lon="-2.66155139">
        <ele>1450.0000</ele>
        <time>2018-10-13T16:52:39Z</time>
      </trkpt>
      <trkpt lat="38.20903024" lon="-2.66160998">
        <ele>1451.0000</ele>
        <time>2018-10-13T16:52:44Z</time>
      </trkpt>
      <trkpt lat="38.20887979" lon="-2.66164795">
        <ele>1451.0000</ele>
        <time>2018-10-13T16:52:46Z</time>
      </trkpt>
      <trkpt lat="38.20829456" lon="-2.66177494">
        <ele>1452.0000</ele>
        <time>2018-10-13T16:52:54Z</time>
      </trkpt>
      <trkpt lat="38.20810027" lon="-2.66180385">
        <ele>1452.0000</ele>
        <time>2018-10-13T16:52:57Z</time>
      </trkpt>
      <trkpt lat="38.20764547" lon="-2.66187803">
        <ele>1454.0000</ele>
        <time>2018-10-13T16:53:05Z</time>
      </trkpt>
      <trkpt lat="38.20747900" lon="-2.66194785">
        <ele>1455.0000</ele>
        <time>2018-10-13T16:53:08Z</time>
      </trkpt>
      <trkpt lat="38.20714934" lon="-2.66214441">
        <ele>1456.0000</ele>
        <time>2018-10-13T16:53:14Z</time>
      </trkpt>
      <trkpt lat="38.20689068" lon="-2.66233795">
        <ele>1456.0000</ele>
        <time>2018-10-13T16:53:19Z</time>
      </trkpt>
      <trkpt lat="38.20650092" lon="-2.66260935">
        <ele>1457.0000</ele>
        <time>2018-10-13T16:53:26Z</time>
      </trkpt>
      <trkpt lat="38.20632901" lon="-2.66272779">
        <ele>1457.0000</ele>
        <time>2018-10-13T16:53:29Z</time>
      </trkpt>
      <trkpt lat="38.20615131" lon="-2.66285176">
        <ele>1457.0000</ele>
        <time>2018-10-13T16:53:32Z</time>
      </trkpt>
      <trkpt lat="38.20596573" lon="-2.66298721">
        <ele>1457.0000</ele>
        <time>2018-10-13T16:53:35Z</time>
      </trkpt>
      <trkpt lat="38.20589968" lon="-2.66303130">
        <ele>1456.0000</ele>
        <time>2018-10-13T16:53:36Z</time>
      </trkpt>
      <trkpt lat="38.20576331" lon="-2.66311721">
        <ele>1455.0000</ele>
        <time>2018-10-13T16:53:38Z</time>
      </trkpt>
      <trkpt lat="38.20561881" lon="-2.66318066">
        <ele>1454.0000</ele>
        <time>2018-10-13T16:53:40Z</time>
      </trkpt>
      <trkpt lat="38.20547028" lon="-2.66318988">
        <ele>1453.0000</ele>
        <time>2018-10-13T16:53:42Z</time>
      </trkpt>
      <trkpt lat="38.20532418" lon="-2.66311638">
        <ele>1452.0000</ele>
        <time>2018-10-13T16:53:44Z</time>
      </trkpt>
      <trkpt lat="38.20520047" lon="-2.66298394">
        <ele>1451.0000</ele>
        <time>2018-10-13T16:53:46Z</time>
      </trkpt>
      <trkpt lat="38.20514028" lon="-2.66292301">
        <ele>1451.0000</ele>
        <time>2018-10-13T16:53:47Z</time>
      </trkpt>
      <trkpt lat="38.20491263" lon="-2.66282963">
        <ele>1450.0000</ele>
        <time>2018-10-13T16:53:50Z</time>
      </trkpt>
      <trkpt lat="38.20475790" lon="-2.66284950">
        <ele>1450.0000</ele>
        <time>2018-10-13T16:53:52Z</time>
      </trkpt>
      <trkpt lat="38.20430863" lon="-2.66290917">
        <ele>1449.0000</ele>
        <time>2018-10-13T16:53:58Z</time>
      </trkpt>
      <trkpt lat="38.20408861" lon="-2.66295854">
        <ele>1449.0000</ele>
        <time>2018-10-13T16:54:01Z</time>
      </trkpt>
      <trkpt lat="38.20370287" lon="-2.66317094">
        <ele>1449.0000</ele>
        <time>2018-10-13T16:54:06Z</time>
      </trkpt>
      <trkpt lat="38.20353607" lon="-2.66328183">
        <ele>1449.0000</ele>
        <time>2018-10-13T16:54:08Z</time>
      </trkpt>
      <trkpt lat="38.20345452" lon="-2.66335057">
        <ele>1449.0000</ele>
        <time>2018-10-13T16:54:09Z</time>
      </trkpt>
      <trkpt lat="38.20331890" lon="-2.66353279">
        <ele>1448.0000</ele>
        <time>2018-10-13T16:54:11Z</time>
      </trkpt>
      <trkpt lat="38.20316769" lon="-2.66390503">
        <ele>1447.0000</ele>
        <time>2018-10-13T16:54:14Z</time>
      </trkpt>
      <trkpt lat="38.20312469" lon="-2.66404149">
        <ele>1446.0000</ele>
        <time>2018-10-13T16:54:15Z</time>
      </trkpt>
      <trkpt lat="38.20303877" lon="-2.66431641">
        <ele>1445.0000</ele>
        <time>2018-10-13T16:54:17Z</time>
      </trkpt>
      <trkpt lat="38.20299762" lon="-2.66444876">
        <ele>1443.0000</ele>
        <time>2018-10-13T16:54:18Z</time>
      </trkpt>
      <trkpt lat="38.20290802" lon="-2.66470223">
        <ele>1442.0000</ele>
        <time>2018-10-13T16:54:20Z</time>
      </trkpt>
      <trkpt lat="38.20285311" lon="-2.66482092">
        <ele>1440.0000</ele>
        <time>2018-10-13T16:54:21Z</time>
      </trkpt>
      <trkpt lat="38.20278505" lon="-2.66493097">
        <ele>1439.0000</ele>
        <time>2018-10-13T16:54:22Z</time>
      </trkpt>
      <trkpt lat="38.20270107" lon="-2.66502678">
        <ele>1437.0000</ele>
        <time>2018-10-13T16:54:23Z</time>
      </trkpt>
      <trkpt lat="38.20260283" lon="-2.66510574">
        <ele>1436.0000</ele>
        <time>2018-10-13T16:54:24Z</time>
      </trkpt>
      <trkpt lat="38.20249060" lon="-2.66516827">
        <ele>1434.0000</ele>
        <time>2018-10-13T16:54:25Z</time>
      </trkpt>
      <trkpt lat="38.20227761" lon="-2.66525192">
        <ele>1433.0000</ele>
        <time>2018-10-13T16:54:27Z</time>
      </trkpt>
      <trkpt lat="38.20208298" lon="-2.66533632">
        <ele>1432.0000</ele>
        <time>2018-10-13T16:54:29Z</time>
      </trkpt>
      <trkpt lat="38.20199531" lon="-2.66539240">
        <ele>1431.0000</ele>
        <time>2018-10-13T16:54:30Z</time>
      </trkpt>
      <trkpt lat="38.20183790" lon="-2.66552550">
        <ele>1431.0000</ele>
        <time>2018-10-13T16:54:32Z</time>
      </trkpt>
      <trkpt lat="38.20175928" lon="-2.66558820">
        <ele>1431.0000</ele>
        <time>2018-10-13T16:54:33Z</time>
      </trkpt>
      <trkpt lat="38.20167931" lon="-2.66563941">
        <ele>1431.0000</ele>
        <time>2018-10-13T16:54:34Z</time>
      </trkpt>
      <trkpt lat="38.20159742" lon="-2.66567797">
        <ele>1431.0000</ele>
        <time>2018-10-13T16:54:35Z</time>
      </trkpt>
      <trkpt lat="38.20135024" lon="-2.66572826">
        <ele>1431.0000</ele>
        <time>2018-10-13T16:54:38Z</time>
      </trkpt>
      <trkpt lat="38.20119207" lon="-2.66571644">
        <ele>1431.0000</ele>
        <time>2018-10-13T16:54:40Z</time>
      </trkpt>
      <trkpt lat="38.20103592" lon="-2.66570462">
        <ele>1432.0000</ele>
        <time>2018-10-13T16:54:42Z</time>
      </trkpt>
      <trkpt lat="38.20080324" lon="-2.66571552">
        <ele>1433.0000</ele>
        <time>2018-10-13T16:54:45Z</time>
      </trkpt>
      <trkpt lat="38.20050274" lon="-2.66580915">
        <ele>1434.0000</ele>
        <time>2018-10-13T16:54:49Z</time>
      </trkpt>
      <trkpt lat="38.19994208" lon="-2.66598500">
        <ele>1435.0000</ele>
        <time>2018-10-13T16:54:56Z</time>
      </trkpt>
      <trkpt lat="38.19956439" lon="-2.66586857">
        <ele>1435.0000</ele>
        <time>2018-10-13T16:55:01Z</time>
      </trkpt>
      <trkpt lat="38.19942894" lon="-2.66579448">
        <ele>1435.0000</ele>
        <time>2018-10-13T16:55:03Z</time>
      </trkpt>
      <trkpt lat="38.19907438" lon="-2.66567043">
        <ele>1434.0000</ele>
        <time>2018-10-13T16:55:08Z</time>
      </trkpt>
      <trkpt lat="38.19874548" lon="-2.66522065">
        <ele>1435.0000</ele>
        <time>2018-10-13T16:55:15Z</time>
      </trkpt>
      <trkpt lat="38.19846058" lon="-2.66506743">
        <ele>1436.0000</ele>
        <time>2018-10-13T16:55:21Z</time>
      </trkpt>
      <trkpt lat="38.19841314" lon="-2.66506391">
        <ele>1437.0000</ele>
        <time>2018-10-13T16:55:22Z</time>
      </trkpt>
      <trkpt lat="38.19836427" lon="-2.66506425">
        <ele>1437.0000</ele>
        <time>2018-10-13T16:55:23Z</time>
      </trkpt>
      <trkpt lat="38.19831599" lon="-2.66505829">
        <ele>1438.0000</ele>
        <time>2018-10-13T16:55:24Z</time>
      </trkpt>
      <trkpt lat="38.19817618" lon="-2.66507321">
        <ele>1439.0000</ele>
        <time>2018-10-13T16:55:27Z</time>
      </trkpt>
      <trkpt lat="38.19800267" lon="-2.66508419">
        <ele>1440.0000</ele>
        <time>2018-10-13T16:55:30Z</time>
      </trkpt>
      <trkpt lat="38.19784954" lon="-2.66509744">
        <ele>1441.0000</ele>
        <time>2018-10-13T16:55:33Z</time>
      </trkpt>
      <trkpt lat="38.19765726" lon="-2.66510280">
        <ele>1442.0000</ele>
        <time>2018-10-13T16:55:37Z</time>
      </trkpt>
      <trkpt lat="38.19761074" lon="-2.66509970">
        <ele>1443.0000</ele>
        <time>2018-10-13T16:55:38Z</time>
      </trkpt>
      <trkpt lat="38.19742608" lon="-2.66510129">
        <ele>1443.0000</ele>
        <time>2018-10-13T16:55:42Z</time>
      </trkpt>
      <trkpt lat="38.19729214" lon="-2.66512401">
        <ele>1444.0000</ele>
        <time>2018-10-13T16:55:45Z</time>
      </trkpt>
      <trkpt lat="38.19693105" lon="-2.66549759">
        <ele>1444.0000</ele>
        <time>2018-10-13T16:55:55Z</time>
      </trkpt>
      <trkpt lat="38.19664631" lon="-2.66588433">
        <ele>1444.0000</ele>
        <time>2018-10-13T16:56:03Z</time>
      </trkpt>
      <trkpt lat="38.19641841" lon="-2.66610964">
        <ele>1444.0000</ele>
        <time>2018-10-13T16:56:08Z</time>
      </trkpt>
      <trkpt lat="38.19626200" lon="-2.66623143">
        <ele>1444.0000</ele>
        <time>2018-10-13T16:56:11Z</time>
      </trkpt>
      <trkpt lat="38.19611021" lon="-2.66633645">
        <ele>1444.0000</ele>
        <time>2018-10-13T16:56:14Z</time>
      </trkpt>
      <trkpt lat="38.19567695" lon="-2.66656192">
        <ele>1444.0000</ele>
        <time>2018-10-13T16:56:22Z</time>
      </trkpt>
      <trkpt lat="38.19515375" lon="-2.66663300">
        <ele>1444.0000</ele>
        <time>2018-10-13T16:56:32Z</time>
      </trkpt>
      <trkpt lat="38.19500363" lon="-2.66659822">
        <ele>1445.0000</ele>
        <time>2018-10-13T16:56:35Z</time>
      </trkpt>
      <trkpt lat="38.19475268" lon="-2.66652940">
        <ele>1445.0000</ele>
        <time>2018-10-13T16:56:40Z</time>
      </trkpt>
      <trkpt lat="38.19470096" lon="-2.66652999">
        <ele>1446.0000</ele>
        <time>2018-10-13T16:56:41Z</time>
      </trkpt>
      <trkpt lat="38.19442243" lon="-2.66671448">
        <ele>1446.0000</ele>
        <time>2018-10-13T16:56:47Z</time>
      </trkpt>
      <trkpt lat="38.19434825" lon="-2.66680517">
        <ele>1446.0000</ele>
        <time>2018-10-13T16:56:49Z</time>
      </trkpt>
      <trkpt lat="38.19393846" lon="-2.66732200">
        <ele>1447.0000</ele>
        <time>2018-10-13T16:57:00Z</time>
      </trkpt>
      <trkpt lat="38.19390350" lon="-2.66737489">
        <ele>1448.0000</ele>
        <time>2018-10-13T16:57:01Z</time>
      </trkpt>
      <trkpt lat="38.19350603" lon="-2.66784980">
        <ele>1448.0000</ele>
        <time>2018-10-13T16:57:11Z</time>
      </trkpt>
      <trkpt lat="38.19342372" lon="-2.66792189">
        <ele>1448.0000</ele>
        <time>2018-10-13T16:57:13Z</time>
      </trkpt>
      <trkpt lat="38.19322524" lon="-2.66801535">
        <ele>1448.0000</ele>
        <time>2018-10-13T16:57:17Z</time>
      </trkpt>
      <trkpt lat="38.19303656" lon="-2.66806312">
        <ele>1448.0000</ele>
        <time>2018-10-13T16:57:20Z</time>
      </trkpt>
      <trkpt lat="38.19280816" lon="-2.66809917">
        <ele>1448.0000</ele>
        <time>2018-10-13T16:57:24Z</time>
      </trkpt>
      <trkpt lat="38.19258294" lon="-2.66817628">
        <ele>1448.0000</ele>
        <time>2018-10-13T16:57:28Z</time>
      </trkpt>
      <trkpt lat="38.19209318" lon="-2.66851985">
        <ele>1449.0000</ele>
        <time>2018-10-13T16:57:38Z</time>
      </trkpt>
      <trkpt lat="38.19204817" lon="-2.66855983">
        <ele>1449.0000</ele>
        <time>2018-10-13T16:57:39Z</time>
      </trkpt>
      <trkpt lat="38.19168222" lon="-2.66910793">
        <ele>1449.0000</ele>
        <time>2018-10-13T16:57:49Z</time>
      </trkpt>
      <trkpt lat="38.19156822" lon="-2.66928688">
        <ele>1449.0000</ele>
        <time>2018-10-13T16:57:52Z</time>
      </trkpt>
      <trkpt lat="38.19136161" lon="-2.66944530">
        <ele>1449.0000</ele>
        <time>2018-10-13T16:57:56Z</time>
      </trkpt>
      <trkpt lat="38.19100990" lon="-2.66962719">
        <ele>1449.0000</ele>
        <time>2018-10-13T16:58:02Z</time>
      </trkpt>
      <trkpt lat="38.19095375" lon="-2.66967153">
        <ele>1449.0000</ele>
        <time>2018-10-13T16:58:03Z</time>
      </trkpt>
      <trkpt lat="38.19054647" lon="-2.67018048">
        <ele>1448.0000</ele>
        <time>2018-10-13T16:58:12Z</time>
      </trkpt>
      <trkpt lat="38.19028344" lon="-2.67052447">
        <ele>1448.0000</ele>
        <time>2018-10-13T16:58:18Z</time>
      </trkpt>
      <trkpt lat="38.18985261" lon="-2.67095949">
        <ele>1448.0000</ele>
        <time>2018-10-13T16:58:27Z</time>
      </trkpt>
      <trkpt lat="38.18979285" lon="-2.67098858">
        <ele>1448.0000</ele>
        <time>2018-10-13T16:58:28Z</time>
      </trkpt>
      <trkpt lat="38.18954550" lon="-2.67102571">
        <ele>1447.0000</ele>
        <time>2018-10-13T16:58:32Z</time>
      </trkpt>
      <trkpt lat="38.18899950" lon="-2.67098992">
        <ele>1447.0000</ele>
        <time>2018-10-13T16:58:41Z</time>
      </trkpt>
      <trkpt lat="38.18843238" lon="-2.67095161">
        <ele>1448.0000</ele>
        <time>2018-10-13T16:58:51Z</time>
      </trkpt>
      <trkpt lat="38.18811035" lon="-2.67092144">
        <ele>1449.0000</ele>
        <time>2018-10-13T16:58:57Z</time>
      </trkpt>
      <trkpt lat="38.18756469" lon="-2.67079755">
        <ele>1449.0000</ele>
        <time>2018-10-13T16:59:07Z</time>
      </trkpt>
      <trkpt lat="38.18735439" lon="-2.67069135">
        <ele>1449.0000</ele>
        <time>2018-10-13T16:59:11Z</time>
      </trkpt>
      <trkpt lat="38.18688852" lon="-2.67036530">
        <ele>1449.0000</ele>
        <time>2018-10-13T16:59:20Z</time>
      </trkpt>
      <trkpt lat="38.18658459" lon="-2.67012826">
        <ele>1448.0000</ele>
        <time>2018-10-13T16:59:26Z</time>
      </trkpt>
      <trkpt lat="38.18609291" lon="-2.66977169">
        <ele>1448.0000</ele>
        <time>2018-10-13T16:59:38Z</time>
      </trkpt>
      <trkpt lat="38.18591572" lon="-2.66964060">
        <ele>1449.0000</ele>
        <time>2018-10-13T16:59:44Z</time>
      </trkpt>
      <trkpt lat="38.18579795" lon="-2.66955946">
        <ele>1450.0000</ele>
        <time>2018-10-13T16:59:48Z</time>
      </trkpt>
      <trkpt lat="38.18570785" lon="-2.66949073">
        <ele>1451.0000</ele>
        <time>2018-10-13T16:59:51Z</time>
      </trkpt>
      <trkpt lat="38.18564968" lon="-2.66944899">
        <ele>1452.0000</ele>
        <time>2018-10-13T16:59:53Z</time>
      </trkpt>
      <trkpt lat="38.18556686" lon="-2.66939350">
        <ele>1452.0000</ele>
        <time>2018-10-13T16:59:56Z</time>
      </trkpt>
      <trkpt lat="38.18554021" lon="-2.66937439">
        <ele>1452.0000</ele>
        <time>2018-10-13T16:59:57Z</time>
      </trkpt>
      <trkpt lat="38.18542932" lon="-2.66930599">
        <ele>1453.0000</ele>
        <time>2018-10-13T17:00:01Z</time>
      </trkpt>
      <trkpt lat="38.18540099" lon="-2.66928780">
        <ele>1453.0000</ele>
        <time>2018-10-13T17:00:02Z</time>
      </trkpt>
      <trkpt lat="38.18531490" lon="-2.66922854">
        <ele>1455.0000</ele>
        <time>2018-10-13T17:00:05Z</time>
      </trkpt>
      <trkpt lat="38.18520200" lon="-2.66915428">
        <ele>1456.0000</ele>
        <time>2018-10-13T17:00:09Z</time>
      </trkpt>
      <trkpt lat="38.18508205" lon="-2.66908253">
        <ele>1457.0000</ele>
        <time>2018-10-13T17:00:14Z</time>
      </trkpt>
      <trkpt lat="38.18504073" lon="-2.66905311">
        <ele>1457.0000</ele>
        <time>2018-10-13T17:00:16Z</time>
      </trkpt>
      <trkpt lat="38.18496965" lon="-2.66903065">
        <ele>1458.0000</ele>
        <time>2018-10-13T17:00:19Z</time>
      </trkpt>
      <trkpt lat="38.18486220" lon="-2.66895689">
        <ele>1459.0000</ele>
        <time>2018-10-13T17:00:24Z</time>
      </trkpt>
      <trkpt lat="38.18473689" lon="-2.66884264">
        <ele>1460.0000</ele>
        <time>2018-10-13T17:00:30Z</time>
      </trkpt>
      <trkpt lat="38.18460898" lon="-2.66877030">
        <ele>1461.0000</ele>
        <time>2018-10-13T17:00:35Z</time>
      </trkpt>
      <trkpt lat="38.18438024" lon="-2.66875295">
        <ele>1462.0000</ele>
        <time>2018-10-13T17:00:44Z</time>
      </trkpt>
      <trkpt lat="38.18424428" lon="-2.66876569">
        <ele>1464.0000</ele>
        <time>2018-10-13T17:00:49Z</time>
      </trkpt>
      <trkpt lat="38.18407095" lon="-2.66882093">
        <ele>1464.0000</ele>
        <time>2018-10-13T17:00:56Z</time>
      </trkpt>
      <trkpt lat="38.18401973" lon="-2.66884440">
        <ele>1465.0000</ele>
        <time>2018-10-13T17:00:58Z</time>
      </trkpt>
      <trkpt lat="38.18384069" lon="-2.66890441">
        <ele>1465.0000</ele>
        <time>2018-10-13T17:01:05Z</time>
      </trkpt>
      <trkpt lat="38.18371748" lon="-2.66895119">
        <ele>1466.0000</ele>
        <time>2018-10-13T17:01:10Z</time>
      </trkpt>
      <trkpt lat="38.18352679" lon="-2.66901338">
        <ele>1467.0000</ele>
        <time>2018-10-13T17:01:18Z</time>
      </trkpt>
      <trkpt lat="38.18343149" lon="-2.66903685">
        <ele>1468.0000</ele>
        <time>2018-10-13T17:01:22Z</time>
      </trkpt>
      <trkpt lat="38.18321314" lon="-2.66908697">
        <ele>1469.0000</ele>
        <time>2018-10-13T17:01:31Z</time>
      </trkpt>
      <trkpt lat="38.18302178" lon="-2.66912318">
        <ele>1470.0000</ele>
        <time>2018-10-13T17:01:39Z</time>
      </trkpt>
      <trkpt lat="38.18287719" lon="-2.66916660">
        <ele>1471.0000</ele>
        <time>2018-10-13T17:01:45Z</time>
      </trkpt>
      <trkpt lat="38.18263948" lon="-2.66925143">
        <ele>1472.0000</ele>
        <time>2018-10-13T17:01:55Z</time>
      </trkpt>
      <trkpt lat="38.18239322" lon="-2.66934287">
        <ele>1473.0000</ele>
        <time>2018-10-13T17:02:05Z</time>
      </trkpt>
      <trkpt lat="38.18214068" lon="-2.66933365">
        <ele>1475.0000</ele>
        <time>2018-10-13T17:02:15Z</time>
      </trkpt>
      <trkpt lat="38.18193373" lon="-2.66922561">
        <ele>1476.0000</ele>
        <time>2018-10-13T17:02:22Z</time>
      </trkpt>
      <trkpt lat="38.18181864" lon="-2.66903785">
        <ele>1476.0000</ele>
        <time>2018-10-13T17:02:27Z</time>
      </trkpt>
      <trkpt lat="38.18179291" lon="-2.66888354">
        <ele>1477.0000</ele>
        <time>2018-10-13T17:02:30Z</time>
      </trkpt>
      <trkpt lat="38.18179199" lon="-2.66883543">
        <ele>1477.0000</ele>
        <time>2018-10-13T17:02:31Z</time>
      </trkpt>
      <trkpt lat="38.18175871" lon="-2.66854332">
        <ele>1478.0000</ele>
        <time>2018-10-13T17:02:37Z</time>
      </trkpt>
      <trkpt lat="38.18149108" lon="-2.66828365">
        <ele>1478.0000</ele>
        <time>2018-10-13T17:02:45Z</time>
      </trkpt>
      <trkpt lat="38.18133375" lon="-2.66821953">
        <ele>1478.0000</ele>
        <time>2018-10-13T17:02:49Z</time>
      </trkpt>
      <trkpt lat="38.18110585" lon="-2.66806765">
        <ele>1478.0000</ele>
        <time>2018-10-13T17:02:55Z</time>
      </trkpt>
      <trkpt lat="38.18100652" lon="-2.66796958">
        <ele>1478.0000</ele>
        <time>2018-10-13T17:02:58Z</time>
      </trkpt>
      <trkpt lat="38.18094290" lon="-2.66789934">
        <ele>1478.0000</ele>
        <time>2018-10-13T17:03:00Z</time>
      </trkpt>
      <trkpt lat="38.18078348" lon="-2.66778526">
        <ele>1478.0000</ele>
        <time>2018-10-13T17:03:04Z</time>
      </trkpt>
      <trkpt lat="38.18060712" lon="-2.66774503">
        <ele>1478.0000</ele>
        <time>2018-10-13T17:03:08Z</time>
      </trkpt>
      <trkpt lat="38.18052238" lon="-2.66776297">
        <ele>1478.0000</ele>
        <time>2018-10-13T17:03:10Z</time>
      </trkpt>
      <trkpt lat="38.18043521" lon="-2.66778409">
        <ele>1478.0000</ele>
        <time>2018-10-13T17:03:12Z</time>
      </trkpt>
      <trkpt lat="38.17993020" lon="-2.66790722">
        <ele>1478.0000</ele>
        <time>2018-10-13T17:03:22Z</time>
      </trkpt>
      <trkpt lat="38.17968025" lon="-2.66791091">
        <ele>1477.0000</ele>
        <time>2018-10-13T17:03:26Z</time>
      </trkpt>
      <trkpt lat="38.17932494" lon="-2.66790177">
        <ele>1476.0000</ele>
        <time>2018-10-13T17:03:31Z</time>
      </trkpt>
      <trkpt lat="38.17908514" lon="-2.66790328">
        <ele>1475.0000</ele>
        <time>2018-10-13T17:03:34Z</time>
      </trkpt>
      <trkpt lat="38.17900006" lon="-2.66790973">
        <ele>1474.0000</ele>
        <time>2018-10-13T17:03:35Z</time>
      </trkpt>
      <trkpt lat="38.17873192" lon="-2.66799020">
        <ele>1473.0000</ele>
        <time>2018-10-13T17:03:38Z</time>
      </trkpt>
      <trkpt lat="38.17863796" lon="-2.66803362">
        <ele>1473.0000</ele>
        <time>2018-10-13T17:03:39Z</time>
      </trkpt>
      <trkpt lat="38.17843940" lon="-2.66812892">
        <ele>1472.0000</ele>
        <time>2018-10-13T17:03:41Z</time>
      </trkpt>
      <trkpt lat="38.17811862" lon="-2.66829958">
        <ele>1471.0000</ele>
        <time>2018-10-13T17:03:44Z</time>
      </trkpt>
      <trkpt lat="38.17789985" lon="-2.66845129">
        <ele>1470.0000</ele>
        <time>2018-10-13T17:03:46Z</time>
      </trkpt>
      <trkpt lat="38.17768167" lon="-2.66863435">
        <ele>1468.0000</ele>
        <time>2018-10-13T17:03:48Z</time>
      </trkpt>
      <trkpt lat="38.17757438" lon="-2.66872999">
        <ele>1466.0000</ele>
        <time>2018-10-13T17:03:49Z</time>
      </trkpt>
      <trkpt lat="38.17747070" lon="-2.66882428">
        <ele>1465.0000</ele>
        <time>2018-10-13T17:03:50Z</time>
      </trkpt>
      <trkpt lat="38.17736936" lon="-2.66891816">
        <ele>1464.0000</ele>
        <time>2018-10-13T17:03:51Z</time>
      </trkpt>
      <trkpt lat="38.17726836" lon="-2.66901221">
        <ele>1462.0000</ele>
        <time>2018-10-13T17:03:52Z</time>
      </trkpt>
      <trkpt lat="38.17716719" lon="-2.66910416">
        <ele>1460.0000</ele>
        <time>2018-10-13T17:03:53Z</time>
      </trkpt>
      <trkpt lat="38.17706627" lon="-2.66919560">
        <ele>1459.0000</ele>
        <time>2018-10-13T17:03:54Z</time>
      </trkpt>
      <trkpt lat="38.17696628" lon="-2.66928705">
        <ele>1458.0000</ele>
        <time>2018-10-13T17:03:55Z</time>
      </trkpt>
      <trkpt lat="38.17686687" lon="-2.66937900">
        <ele>1456.0000</ele>
        <time>2018-10-13T17:03:56Z</time>
      </trkpt>
      <trkpt lat="38.17676771" lon="-2.66947153">
        <ele>1455.0000</ele>
        <time>2018-10-13T17:03:57Z</time>
      </trkpt>
      <trkpt lat="38.17657082" lon="-2.66965594">
        <ele>1453.0000</ele>
        <time>2018-10-13T17:03:59Z</time>
      </trkpt>
      <trkpt lat="38.17629581" lon="-2.66991301">
        <ele>1452.0000</ele>
        <time>2018-10-13T17:04:02Z</time>
      </trkpt>
      <trkpt lat="38.17596707" lon="-2.67022532">
        <ele>1450.0000</ele>
        <time>2018-10-13T17:04:06Z</time>
      </trkpt>
      <trkpt lat="38.17579851" lon="-2.67037971">
        <ele>1449.0000</ele>
        <time>2018-10-13T17:04:08Z</time>
      </trkpt>
      <trkpt lat="38.17562098" lon="-2.67051676">
        <ele>1448.0000</ele>
        <time>2018-10-13T17:04:10Z</time>
      </trkpt>
      <trkpt lat="38.17552492" lon="-2.67056898">
        <ele>1448.0000</ele>
        <time>2018-10-13T17:04:11Z</time>
      </trkpt>
      <trkpt lat="38.17522854" lon="-2.67065028">
        <ele>1447.0000</ele>
        <time>2018-10-13T17:04:14Z</time>
      </trkpt>
      <trkpt lat="38.17513181" lon="-2.67065263">
        <ele>1446.0000</ele>
        <time>2018-10-13T17:04:15Z</time>
      </trkpt>
      <trkpt lat="38.17495672" lon="-2.67057593">
        <ele>1445.0000</ele>
        <time>2018-10-13T17:04:17Z</time>
      </trkpt>
      <trkpt lat="38.17480836" lon="-2.67044140">
        <ele>1443.0000</ele>
        <time>2018-10-13T17:04:19Z</time>
      </trkpt>
      <trkpt lat="38.17473694" lon="-2.67036940">
        <ele>1443.0000</ele>
        <time>2018-10-13T17:04:20Z</time>
      </trkpt>
      <trkpt lat="38.17466209" lon="-2.67030579">
        <ele>1443.0000</ele>
        <time>2018-10-13T17:04:21Z</time>
      </trkpt>
      <trkpt lat="38.17426563" lon="-2.67024921">
        <ele>1443.0000</ele>
        <time>2018-10-13T17:04:26Z</time>
      </trkpt>
      <trkpt lat="38.17419597" lon="-2.67026899">
        <ele>1443.0000</ele>
        <time>2018-10-13T17:04:27Z</time>
      </trkpt>
      <trkpt lat="38.17407234" lon="-2.67030193">
        <ele>1443.0000</ele>
        <time>2018-10-13T17:04:29Z</time>
      </trkpt>
      <trkpt lat="38.17389674" lon="-2.67036739">
        <ele>1443.0000</ele>
        <time>2018-10-13T17:04:32Z</time>
      </trkpt>
      <trkpt lat="38.17361997" lon="-2.67046613">
        <ele>1445.0000</ele>
        <time>2018-10-13T17:04:38Z</time>
      </trkpt>
      <trkpt lat="38.17357957" lon="-2.67049522">
        <ele>1445.0000</ele>
        <time>2018-10-13T17:04:39Z</time>
      </trkpt>
      <trkpt lat="38.17349717" lon="-2.67054936">
        <ele>1446.0000</ele>
        <time>2018-10-13T17:04:41Z</time>
      </trkpt>
      <trkpt lat="38.17346096" lon="-2.67058281">
        <ele>1446.0000</ele>
        <time>2018-10-13T17:04:42Z</time>
      </trkpt>
      <trkpt lat="38.17330238" lon="-2.67075849">
        <ele>1446.0000</ele>
        <time>2018-10-13T17:04:46Z</time>
      </trkpt>
      <trkpt lat="38.17320557" lon="-2.67086368">
        <ele>1446.0000</ele>
        <time>2018-10-13T17:04:48Z</time>
      </trkpt>
      <trkpt lat="38.17310373" lon="-2.67097366">
        <ele>1446.0000</ele>
        <time>2018-10-13T17:04:50Z</time>
      </trkpt>
      <trkpt lat="38.17261783" lon="-2.67143231">
        <ele>1445.0000</ele>
        <time>2018-10-13T17:04:58Z</time>
      </trkpt>
      <trkpt lat="38.17238247" lon="-2.67152485">
        <ele>1443.0000</ele>
        <time>2018-10-13T17:05:01Z</time>
      </trkpt>
      <trkpt lat="38.17213771" lon="-2.67160850">
        <ele>1442.0000</ele>
        <time>2018-10-13T17:05:04Z</time>
      </trkpt>
      <trkpt lat="38.17198064" lon="-2.67166499">
        <ele>1441.0000</ele>
        <time>2018-10-13T17:05:06Z</time>
      </trkpt>
      <trkpt lat="38.17183228" lon="-2.67172258">
        <ele>1440.0000</ele>
        <time>2018-10-13T17:05:08Z</time>
      </trkpt>
      <trkpt lat="38.17176480" lon="-2.67174571">
        <ele>1439.0000</ele>
        <time>2018-10-13T17:05:09Z</time>
      </trkpt>
      <trkpt lat="38.17136733" lon="-2.67162409">
        <ele>1439.0000</ele>
        <time>2018-10-13T17:05:15Z</time>
      </trkpt>
      <trkpt lat="38.17094472" lon="-2.67139895">
        <ele>1440.0000</ele>
        <time>2018-10-13T17:05:22Z</time>
      </trkpt>
      <trkpt lat="38.17083584" lon="-2.67139200">
        <ele>1440.0000</ele>
        <time>2018-10-13T17:05:24Z</time>
      </trkpt>
      <trkpt lat="38.17073542" lon="-2.67140616">
        <ele>1440.0000</ele>
        <time>2018-10-13T17:05:26Z</time>
      </trkpt>
      <trkpt lat="38.17050928" lon="-2.67143852">
        <ele>1441.0000</ele>
        <time>2018-10-13T17:05:31Z</time>
      </trkpt>
      <trkpt lat="38.17039428" lon="-2.67142963">
        <ele>1442.0000</ele>
        <time>2018-10-13T17:05:34Z</time>
      </trkpt>
      <trkpt lat="38.17022731" lon="-2.67135143">
        <ele>1443.0000</ele>
        <time>2018-10-13T17:05:39Z</time>
      </trkpt>
      <trkpt lat="38.17016503" lon="-2.67121287">
        <ele>1444.0000</ele>
        <time>2018-10-13T17:05:43Z</time>
      </trkpt>
      <trkpt lat="38.17006160" lon="-2.67103887">
        <ele>1446.0000</ele>
        <time>2018-10-13T17:05:48Z</time>
      </trkpt>
      <trkpt lat="38.16989195" lon="-2.67091976">
        <ele>1447.0000</ele>
        <time>2018-10-13T17:05:54Z</time>
      </trkpt>
      <trkpt lat="38.16970738" lon="-2.67082203">
        <ele>1448.0000</ele>
        <time>2018-10-13T17:06:01Z</time>
      </trkpt>
      <trkpt lat="38.16951652" lon="-2.67072538">
        <ele>1449.0000</ele>
        <time>2018-10-13T17:06:08Z</time>
      </trkpt>
      <trkpt lat="38.16914596" lon="-2.67074164">
        <ele>1450.0000</ele>
        <time>2018-10-13T17:06:21Z</time>
      </trkpt>
      <trkpt lat="38.16897237" lon="-2.67072765">
        <ele>1451.0000</ele>
        <time>2018-10-13T17:06:28Z</time>
      </trkpt>
      <trkpt lat="38.16881043" lon="-2.67069152">
        <ele>1452.0000</ele>
        <time>2018-10-13T17:06:35Z</time>
      </trkpt>
      <trkpt lat="38.16863156" lon="-2.67063939">
        <ele>1453.0000</ele>
        <time>2018-10-13T17:06:43Z</time>
      </trkpt>
      <trkpt lat="38.16844758" lon="-2.67063729">
        <ele>1454.0000</ele>
        <time>2018-10-13T17:06:51Z</time>
      </trkpt>
      <trkpt lat="38.16832680" lon="-2.67065950">
        <ele>1455.0000</ele>
        <time>2018-10-13T17:06:55Z</time>
      </trkpt>
      <trkpt lat="38.16829721" lon="-2.67066554">
        <ele>1455.0000</ele>
        <time>2018-10-13T17:06:56Z</time>
      </trkpt>
      <trkpt lat="38.16813829" lon="-2.67066814">
        <ele>1456.0000</ele>
        <time>2018-10-13T17:07:01Z</time>
      </trkpt>
      <trkpt lat="38.16806302" lon="-2.67067241">
        <ele>1457.0000</ele>
        <time>2018-10-13T17:07:03Z</time>
      </trkpt>
      <trkpt lat="38.16783914" lon="-2.67067912">
        <ele>1458.0000</ele>
        <time>2018-10-13T17:07:09Z</time>
      </trkpt>
      <trkpt lat="38.16759933" lon="-2.67073268">
        <ele>1458.0000</ele>
        <time>2018-10-13T17:07:15Z</time>
      </trkpt>
      <trkpt lat="38.16739708" lon="-2.67075573">
        <ele>1459.0000</ele>
        <time>2018-10-13T17:07:20Z</time>
      </trkpt>
      <trkpt lat="38.16726992" lon="-2.67074131">
        <ele>1459.0000</ele>
        <time>2018-10-13T17:07:23Z</time>
      </trkpt>
      <trkpt lat="38.16706247" lon="-2.67074332">
        <ele>1459.0000</ele>
        <time>2018-10-13T17:07:28Z</time>
      </trkpt>
      <trkpt lat="38.16675444" lon="-2.67075497">
        <ele>1459.0000</ele>
        <time>2018-10-13T17:07:37Z</time>
      </trkpt>
      <trkpt lat="38.16663416" lon="-2.67076067">
        <ele>1460.0000</ele>
        <time>2018-10-13T17:07:40Z</time>
      </trkpt>
      <trkpt lat="38.16646124" lon="-2.67076168">
        <ele>1460.0000</ele>
        <time>2018-10-13T17:07:44Z</time>
      </trkpt>
      <trkpt lat="38.16636024" lon="-2.67075212">
        <ele>1460.0000</ele>
        <time>2018-10-13T17:07:46Z</time>
      </trkpt>
      <trkpt lat="38.16625060" lon="-2.67072916">
        <ele>1460.0000</ele>
        <time>2018-10-13T17:07:48Z</time>
      </trkpt>
      <trkpt lat="38.16607005" lon="-2.67078808">
        <ele>1461.0000</ele>
        <time>2018-10-13T17:07:52Z</time>
      </trkpt>
      <trkpt lat="38.16599856" lon="-2.67085840">
        <ele>1461.0000</ele>
        <time>2018-10-13T17:07:54Z</time>
      </trkpt>
      <trkpt lat="38.16592144" lon="-2.67099503">
        <ele>1461.0000</ele>
        <time>2018-10-13T17:07:57Z</time>
      </trkpt>
      <trkpt lat="38.16587970" lon="-2.67108648">
        <ele>1462.0000</ele>
        <time>2018-10-13T17:07:59Z</time>
      </trkpt>
      <trkpt lat="38.16578180" lon="-2.67130834">
        <ele>1463.0000</ele>
        <time>2018-10-13T17:08:04Z</time>
      </trkpt>
      <trkpt lat="38.16570938" lon="-2.67145444">
        <ele>1464.0000</ele>
        <time>2018-10-13T17:08:08Z</time>
      </trkpt>
      <trkpt lat="38.16546094" lon="-2.67166189">
        <ele>1465.0000</ele>
        <time>2018-10-13T17:08:16Z</time>
      </trkpt>
      <trkpt lat="38.16524452" lon="-2.67167044">
        <ele>1466.0000</ele>
        <time>2018-10-13T17:08:22Z</time>
      </trkpt>
      <trkpt lat="38.16496725" lon="-2.67183272">
        <ele>1466.0000</ele>
        <time>2018-10-13T17:08:31Z</time>
      </trkpt>
      <trkpt lat="38.16487597" lon="-2.67211426">
        <ele>1467.0000</ele>
        <time>2018-10-13T17:08:39Z</time>
      </trkpt>
      <trkpt lat="38.16487387" lon="-2.67250570">
        <ele>1468.0000</ele>
        <time>2018-10-13T17:08:48Z</time>
      </trkpt>
      <trkpt lat="38.16509817" lon="-2.67271181">
        <ele>1469.0000</ele>
        <time>2018-10-13T17:08:57Z</time>
      </trkpt>
      <trkpt lat="38.16529984" lon="-2.67278532">
        <ele>1469.0000</ele>
        <time>2018-10-13T17:09:05Z</time>
      </trkpt>
      <trkpt lat="38.16557267" lon="-2.67312931">
        <ele>1470.0000</ele>
        <time>2018-10-13T17:09:17Z</time>
      </trkpt>
      <trkpt lat="38.16543445" lon="-2.67347373">
        <ele>1471.0000</ele>
        <time>2018-10-13T17:09:25Z</time>
      </trkpt>
      <trkpt lat="38.16514461" lon="-2.67368193">
        <ele>1471.0000</ele>
        <time>2018-10-13T17:09:31Z</time>
      </trkpt>
      <trkpt lat="38.16496339" lon="-2.67384320">
        <ele>1471.0000</ele>
        <time>2018-10-13T17:09:34Z</time>
      </trkpt>
      <trkpt lat="38.16484177" lon="-2.67396977">
        <ele>1470.0000</ele>
        <time>2018-10-13T17:09:36Z</time>
      </trkpt>
      <trkpt lat="38.16475812" lon="-2.67415937">
        <ele>1470.0000</ele>
        <time>2018-10-13T17:09:38Z</time>
      </trkpt>
      <trkpt lat="38.16473188" lon="-2.67436145">
        <ele>1468.0000</ele>
        <time>2018-10-13T17:09:40Z</time>
      </trkpt>
      <trkpt lat="38.16471319" lon="-2.67454284">
        <ele>1466.0000</ele>
        <time>2018-10-13T17:09:42Z</time>
      </trkpt>
      <trkpt lat="38.16468017" lon="-2.67462682">
        <ele>1465.0000</ele>
        <time>2018-10-13T17:09:43Z</time>
      </trkpt>
      <trkpt lat="38.16456676" lon="-2.67476772">
        <ele>1463.0000</ele>
        <time>2018-10-13T17:09:45Z</time>
      </trkpt>
      <trkpt lat="38.16432704" lon="-2.67493620">
        <ele>1462.0000</ele>
        <time>2018-10-13T17:09:48Z</time>
      </trkpt>
      <trkpt lat="38.16405815" lon="-2.67510828">
        <ele>1461.0000</ele>
        <time>2018-10-13T17:09:51Z</time>
      </trkpt>
      <trkpt lat="38.16397332" lon="-2.67518389">
        <ele>1461.0000</ele>
        <time>2018-10-13T17:09:52Z</time>
      </trkpt>
      <trkpt lat="38.16388959" lon="-2.67527441">
        <ele>1460.0000</ele>
        <time>2018-10-13T17:09:53Z</time>
      </trkpt>
      <trkpt lat="38.16380920" lon="-2.67535815">
        <ele>1460.0000</ele>
        <time>2018-10-13T17:09:54Z</time>
      </trkpt>
      <trkpt lat="38.16364601" lon="-2.67552235">
        <ele>1458.0000</ele>
        <time>2018-10-13T17:09:56Z</time>
      </trkpt>
      <trkpt lat="38.16356479" lon="-2.67560248">
        <ele>1457.0000</ele>
        <time>2018-10-13T17:09:57Z</time>
      </trkpt>
      <trkpt lat="38.16349237" lon="-2.67568303">
        <ele>1455.0000</ele>
        <time>2018-10-13T17:09:58Z</time>
      </trkpt>
      <trkpt lat="38.16340897" lon="-2.67574589">
        <ele>1454.0000</ele>
        <time>2018-10-13T17:09:59Z</time>
      </trkpt>
      <trkpt lat="38.16320646" lon="-2.67578814">
        <ele>1453.0000</ele>
        <time>2018-10-13T17:10:01Z</time>
      </trkpt>
      <trkpt lat="38.16301560" lon="-2.67578319">
        <ele>1452.0000</ele>
        <time>2018-10-13T17:10:03Z</time>
      </trkpt>
      <trkpt lat="38.16283112" lon="-2.67580691">
        <ele>1452.0000</ele>
        <time>2018-10-13T17:10:05Z</time>
      </trkpt>
      <trkpt lat="38.16251780" lon="-2.67601260">
        <ele>1452.0000</ele>
        <time>2018-10-13T17:10:09Z</time>
      </trkpt>
      <trkpt lat="38.16220600" lon="-2.67624135">
        <ele>1452.0000</ele>
        <time>2018-10-13T17:10:14Z</time>
      </trkpt>
      <trkpt lat="38.16204515" lon="-2.67635148">
        <ele>1452.0000</ele>
        <time>2018-10-13T17:10:17Z</time>
      </trkpt>
      <trkpt lat="38.16193870" lon="-2.67640798">
        <ele>1453.0000</ele>
        <time>2018-10-13T17:10:19Z</time>
      </trkpt>
      <trkpt lat="38.16189059" lon="-2.67643229">
        <ele>1454.0000</ele>
        <time>2018-10-13T17:10:20Z</time>
      </trkpt>
      <trkpt lat="38.16184373" lon="-2.67645458">
        <ele>1455.0000</ele>
        <time>2018-10-13T17:10:21Z</time>
      </trkpt>
      <trkpt lat="38.16170576" lon="-2.67650362">
        <ele>1456.0000</ele>
        <time>2018-10-13T17:10:24Z</time>
      </trkpt>
      <trkpt lat="38.16165396" lon="-2.67650479">
        <ele>1456.0000</ele>
        <time>2018-10-13T17:10:25Z</time>
      </trkpt>
      <trkpt lat="38.16145665" lon="-2.67649758">
        <ele>1458.0000</ele>
        <time>2018-10-13T17:10:29Z</time>
      </trkpt>
      <trkpt lat="38.16103588" lon="-2.67643664">
        <ele>1459.0000</ele>
        <time>2018-10-13T17:10:39Z</time>
      </trkpt>
      <trkpt lat="38.16099255" lon="-2.67643128">
        <ele>1459.0000</ele>
        <time>2018-10-13T17:10:40Z</time>
      </trkpt>
      <trkpt lat="38.16090479" lon="-2.67642592">
        <ele>1459.0000</ele>
        <time>2018-10-13T17:10:42Z</time>
      </trkpt>
      <trkpt lat="38.16076867" lon="-2.67641100">
        <ele>1460.0000</ele>
        <time>2018-10-13T17:10:45Z</time>
      </trkpt>
      <trkpt lat="38.16060271" lon="-2.67643933">
        <ele>1460.0000</ele>
        <time>2018-10-13T17:10:49Z</time>
      </trkpt>
      <trkpt lat="38.16048301" lon="-2.67651418">
        <ele>1461.0000</ele>
        <time>2018-10-13T17:10:52Z</time>
      </trkpt>
      <trkpt lat="38.16032350" lon="-2.67663856">
        <ele>1461.0000</ele>
        <time>2018-10-13T17:10:56Z</time>
      </trkpt>
      <trkpt lat="38.16015218" lon="-2.67680629">
        <ele>1462.0000</ele>
        <time>2018-10-13T17:11:01Z</time>
      </trkpt>
      <trkpt lat="38.16005579" lon="-2.67691282">
        <ele>1462.0000</ele>
        <time>2018-10-13T17:11:04Z</time>
      </trkpt>
      <trkpt lat="38.15995889" lon="-2.67700779">
        <ele>1462.0000</ele>
        <time>2018-10-13T17:11:07Z</time>
      </trkpt>
      <trkpt lat="38.15970802" lon="-2.67716495">
        <ele>1463.0000</ele>
        <time>2018-10-13T17:11:14Z</time>
      </trkpt>
      <trkpt lat="38.15930284" lon="-2.67732052">
        <ele>1464.0000</ele>
        <time>2018-10-13T17:11:25Z</time>
      </trkpt>
      <trkpt lat="38.15902758" lon="-2.67744331">
        <ele>1466.0000</ele>
        <time>2018-10-13T17:11:34Z</time>
      </trkpt>
      <trkpt lat="38.15848753" lon="-2.67753786">
        <ele>1467.0000</ele>
        <time>2018-10-13T17:11:50Z</time>
      </trkpt>
      <trkpt lat="38.15845937" lon="-2.67753300">
        <ele>1467.0000</ele>
        <time>2018-10-13T17:11:51Z</time>
      </trkpt>
      <trkpt lat="38.15829031" lon="-2.67752160">
        <ele>1468.0000</ele>
        <time>2018-10-13T17:11:57Z</time>
      </trkpt>
      <trkpt lat="38.15812912" lon="-2.67754725">
        <ele>1469.0000</ele>
        <time>2018-10-13T17:12:04Z</time>
      </trkpt>
      <trkpt lat="38.15801337" lon="-2.67757155">
        <ele>1470.0000</ele>
        <time>2018-10-13T17:12:10Z</time>
      </trkpt>
      <trkpt lat="38.15789619" lon="-2.67765923">
        <ele>1471.0000</ele>
        <time>2018-10-13T17:12:17Z</time>
      </trkpt>
      <trkpt lat="38.15772964" lon="-2.67774824">
        <ele>1472.0000</ele>
        <time>2018-10-13T17:12:25Z</time>
      </trkpt>
      <trkpt lat="38.15757290" lon="-2.67774003">
        <ele>1473.0000</ele>
        <time>2018-10-13T17:12:32Z</time>
      </trkpt>
      <trkpt lat="38.15737358" lon="-2.67773861">
        <ele>1474.0000</ele>
        <time>2018-10-13T17:12:41Z</time>
      </trkpt>
      <trkpt lat="38.15710879" lon="-2.67783366">
        <ele>1475.0000</ele>
        <time>2018-10-13T17:12:49Z</time>
      </trkpt>
      <trkpt lat="38.15678911" lon="-2.67814840">
        <ele>1474.0000</ele>
        <time>2018-10-13T17:12:55Z</time>
      </trkpt>
      <trkpt lat="38.15659917" lon="-2.67837848">
        <ele>1473.0000</ele>
        <time>2018-10-13T17:12:58Z</time>
      </trkpt>
      <trkpt lat="38.15646808" lon="-2.67853723">
        <ele>1472.0000</ele>
        <time>2018-10-13T17:13:00Z</time>
      </trkpt>
      <trkpt lat="38.15633456" lon="-2.67869079">
        <ele>1470.0000</ele>
        <time>2018-10-13T17:13:02Z</time>
      </trkpt>
      <trkpt lat="38.15620665" lon="-2.67884351">
        <ele>1469.0000</ele>
        <time>2018-10-13T17:13:04Z</time>
      </trkpt>
      <trkpt lat="38.15608302" lon="-2.67899371">
        <ele>1468.0000</ele>
        <time>2018-10-13T17:13:06Z</time>
      </trkpt>
      <trkpt lat="38.15578219" lon="-2.67934843">
        <ele>1467.0000</ele>
        <time>2018-10-13T17:13:11Z</time>
      </trkpt>
      <trkpt lat="38.15535136" lon="-2.67986367">
        <ele>1466.0000</ele>
        <time>2018-10-13T17:13:19Z</time>
      </trkpt>
      <trkpt lat="38.15495129" lon="-2.68034169">
        <ele>1467.0000</ele>
        <time>2018-10-13T17:13:30Z</time>
      </trkpt>
      <trkpt lat="38.15488776" lon="-2.68041411">
        <ele>1467.0000</ele>
        <time>2018-10-13T17:13:32Z</time>
      </trkpt>
      <trkpt lat="38.15485674" lon="-2.68045174">
        <ele>1468.0000</ele>
        <time>2018-10-13T17:13:33Z</time>
      </trkpt>
      <trkpt lat="38.15475960" lon="-2.68054654">
        <ele>1469.0000</ele>
        <time>2018-10-13T17:13:36Z</time>
      </trkpt>
      <trkpt lat="38.15472532" lon="-2.68057823">
        <ele>1469.0000</ele>
        <time>2018-10-13T17:13:37Z</time>
      </trkpt>
      <trkpt lat="38.15427345" lon="-2.68108206">
        <ele>1469.0000</ele>
        <time>2018-10-13T17:13:48Z</time>
      </trkpt>
      <trkpt lat="38.15404705" lon="-2.68123386">
        <ele>1468.0000</ele>
        <time>2018-10-13T17:13:52Z</time>
      </trkpt>
      <trkpt lat="38.15387589" lon="-2.68130846">
        <ele>1467.0000</ele>
        <time>2018-10-13T17:13:55Z</time>
      </trkpt>
      <trkpt lat="38.15373131" lon="-2.68135825">
        <ele>1467.0000</ele>
        <time>2018-10-13T17:13:58Z</time>
      </trkpt>
      <trkpt lat="38.15356023" lon="-2.68142011">
        <ele>1467.0000</ele>
        <time>2018-10-13T17:14:03Z</time>
      </trkpt>
      <trkpt lat="38.15344791" lon="-2.68146269">
        <ele>1468.0000</ele>
        <time>2018-10-13T17:14:08Z</time>
      </trkpt>
      <trkpt lat="38.15344682" lon="-2.68146294">
        <ele>1468.0000</ele>
        <time>2018-10-13T17:14:09Z</time>
      </trkpt>
      <trkpt lat="38.15340240" lon="-2.68147626">
        <ele>1470.0000</ele>
        <time>2018-10-13T17:16:54Z</time>
      </trkpt>
      <trkpt lat="38.15333358" lon="-2.68150216">
        <ele>1470.0000</ele>
        <time>2018-10-13T17:16:57Z</time>
      </trkpt>
      <trkpt lat="38.15323543" lon="-2.68153536">
        <ele>1470.0000</ele>
        <time>2018-10-13T17:17:00Z</time>
      </trkpt>
      <trkpt lat="38.15305639" lon="-2.68159721">
        <ele>1470.0000</ele>
        <time>2018-10-13T17:17:05Z</time>
      </trkpt>
      <trkpt lat="38.15290896" lon="-2.68164575">
        <ele>1470.0000</ele>
        <time>2018-10-13T17:17:09Z</time>
      </trkpt>
      <trkpt lat="38.15235391" lon="-2.68179377">
        <ele>1470.0000</ele>
        <time>2018-10-13T17:17:21Z</time>
      </trkpt>
      <trkpt lat="38.15196666" lon="-2.68182269">
        <ele>1469.0000</ele>
        <time>2018-10-13T17:17:27Z</time>
      </trkpt>
      <trkpt lat="38.15170934" lon="-2.68181590">
        <ele>1468.0000</ele>
        <time>2018-10-13T17:17:31Z</time>
      </trkpt>
      <trkpt lat="38.15111808" lon="-2.68178480">
        <ele>1467.0000</ele>
        <time>2018-10-13T17:17:41Z</time>
      </trkpt>
      <trkpt lat="38.15054702" lon="-2.68177927">
        <ele>1467.0000</ele>
        <time>2018-10-13T17:17:51Z</time>
      </trkpt>
      <trkpt lat="38.15001561" lon="-2.68160635">
        <ele>1468.0000</ele>
        <time>2018-10-13T17:18:00Z</time>
      </trkpt>
      <trkpt lat="38.14946274" lon="-2.68154256">
        <ele>1468.0000</ele>
        <time>2018-10-13T17:18:10Z</time>
      </trkpt>
      <trkpt lat="38.14911506" lon="-2.68163535">
        <ele>1467.0000</ele>
        <time>2018-10-13T17:18:15Z</time>
      </trkpt>
      <trkpt lat="38.14895538" lon="-2.68171297">
        <ele>1467.0000</ele>
        <time>2018-10-13T17:18:17Z</time>
      </trkpt>
      <trkpt lat="38.14869722" lon="-2.68186317">
        <ele>1466.0000</ele>
        <time>2018-10-13T17:18:20Z</time>
      </trkpt>
      <trkpt lat="38.14851164" lon="-2.68197490">
        <ele>1465.0000</ele>
        <time>2018-10-13T17:18:22Z</time>
      </trkpt>
      <trkpt lat="38.14841584" lon="-2.68203291">
        <ele>1464.0000</ele>
        <time>2018-10-13T17:18:23Z</time>
      </trkpt>
      <trkpt lat="38.14831811" lon="-2.68209200">
        <ele>1462.0000</ele>
        <time>2018-10-13T17:18:24Z</time>
      </trkpt>
      <trkpt lat="38.14821761" lon="-2.68215092">
        <ele>1460.0000</ele>
        <time>2018-10-13T17:18:25Z</time>
      </trkpt>
      <trkpt lat="38.14800814" lon="-2.68226525">
        <ele>1459.0000</ele>
        <time>2018-10-13T17:18:27Z</time>
      </trkpt>
      <trkpt lat="38.14778929" lon="-2.68237028">
        <ele>1458.0000</ele>
        <time>2018-10-13T17:18:29Z</time>
      </trkpt>
      <trkpt lat="38.14756013" lon="-2.68246105">
        <ele>1456.0000</ele>
        <time>2018-10-13T17:18:31Z</time>
      </trkpt>
      <trkpt lat="38.14732125" lon="-2.68253414">
        <ele>1455.0000</ele>
        <time>2018-10-13T17:18:33Z</time>
      </trkpt>
      <trkpt lat="38.14719971" lon="-2.68256390">
        <ele>1454.0000</ele>
        <time>2018-10-13T17:18:34Z</time>
      </trkpt>
      <trkpt lat="38.14707876" lon="-2.68258896">
        <ele>1453.0000</ele>
        <time>2018-10-13T17:18:35Z</time>
      </trkpt>
      <trkpt lat="38.14684440" lon="-2.68262634">
        <ele>1451.0000</ele>
        <time>2018-10-13T17:18:37Z</time>
      </trkpt>
      <trkpt lat="38.14662538" lon="-2.68265199">
        <ele>1449.0000</ele>
        <time>2018-10-13T17:18:39Z</time>
      </trkpt>
      <trkpt lat="38.14641952" lon="-2.68267672">
        <ele>1448.0000</ele>
        <time>2018-10-13T17:18:41Z</time>
      </trkpt>
      <trkpt lat="38.14621165" lon="-2.68273623">
        <ele>1447.0000</ele>
        <time>2018-10-13T17:18:43Z</time>
      </trkpt>
      <trkpt lat="38.14581342" lon="-2.68294276">
        <ele>1446.0000</ele>
        <time>2018-10-13T17:18:47Z</time>
      </trkpt>
      <trkpt lat="38.14559717" lon="-2.68299850">
        <ele>1446.0000</ele>
        <time>2018-10-13T17:18:49Z</time>
      </trkpt>
      <trkpt lat="38.14537698" lon="-2.68298727">
        <ele>1444.0000</ele>
        <time>2018-10-13T17:18:51Z</time>
      </trkpt>
      <trkpt lat="38.14526801" lon="-2.68296472">
        <ele>1443.0000</ele>
        <time>2018-10-13T17:18:52Z</time>
      </trkpt>
      <trkpt lat="38.14516047" lon="-2.68294033">
        <ele>1443.0000</ele>
        <time>2018-10-13T17:18:53Z</time>
      </trkpt>
      <trkpt lat="38.14494883" lon="-2.68289197">
        <ele>1441.0000</ele>
        <time>2018-10-13T17:18:55Z</time>
      </trkpt>
      <trkpt lat="38.14474171" lon="-2.68284662">
        <ele>1440.0000</ele>
        <time>2018-10-13T17:18:57Z</time>
      </trkpt>
      <trkpt lat="38.14443460" lon="-2.68280563">
        <ele>1438.0000</ele>
        <time>2018-10-13T17:19:00Z</time>
      </trkpt>
      <trkpt lat="38.14413671" lon="-2.68280060">
        <ele>1437.0000</ele>
        <time>2018-10-13T17:19:03Z</time>
      </trkpt>
      <trkpt lat="38.14404032" lon="-2.68281175">
        <ele>1437.0000</ele>
        <time>2018-10-13T17:19:04Z</time>
      </trkpt>
      <trkpt lat="38.14350765" lon="-2.68309498">
        <ele>1437.0000</ele>
        <time>2018-10-13T17:19:10Z</time>
      </trkpt>
      <trkpt lat="38.14342944" lon="-2.68316698">
        <ele>1436.0000</ele>
        <time>2018-10-13T17:19:11Z</time>
      </trkpt>
      <trkpt lat="38.14334998" lon="-2.68323504">
        <ele>1436.0000</ele>
        <time>2018-10-13T17:19:12Z</time>
      </trkpt>
      <trkpt lat="38.14282670" lon="-2.68347141">
        <ele>1436.0000</ele>
        <time>2018-10-13T17:19:18Z</time>
      </trkpt>
      <trkpt lat="38.14255337" lon="-2.68346571">
        <ele>1435.0000</ele>
        <time>2018-10-13T17:19:21Z</time>
      </trkpt>
      <trkpt lat="38.14246335" lon="-2.68344643">
        <ele>1435.0000</ele>
        <time>2018-10-13T17:19:22Z</time>
      </trkpt>
      <trkpt lat="38.14218691" lon="-2.68338700">
        <ele>1435.0000</ele>
        <time>2018-10-13T17:19:25Z</time>
      </trkpt>
      <trkpt lat="38.14191064" lon="-2.68334979">
        <ele>1434.0000</ele>
        <time>2018-10-13T17:19:28Z</time>
      </trkpt>
      <trkpt lat="38.14182657" lon="-2.68336001">
        <ele>1434.0000</ele>
        <time>2018-10-13T17:19:29Z</time>
      </trkpt>
      <trkpt lat="38.14153354" lon="-2.68355598">
        <ele>1433.0000</ele>
        <time>2018-10-13T17:19:33Z</time>
      </trkpt>
      <trkpt lat="38.14147160" lon="-2.68362932">
        <ele>1433.0000</ele>
        <time>2018-10-13T17:19:34Z</time>
      </trkpt>
      <trkpt lat="38.14110405" lon="-2.68414246">
        <ele>1432.0000</ele>
        <time>2018-10-13T17:19:40Z</time>
      </trkpt>
      <trkpt lat="38.14085310" lon="-2.68450540">
        <ele>1430.0000</ele>
        <time>2018-10-13T17:19:44Z</time>
      </trkpt>
      <trkpt lat="38.14072905" lon="-2.68469131">
        <ele>1429.0000</ele>
        <time>2018-10-13T17:19:46Z</time>
      </trkpt>
      <trkpt lat="38.14060047" lon="-2.68487655">
        <ele>1428.0000</ele>
        <time>2018-10-13T17:19:48Z</time>
      </trkpt>
      <trkpt lat="38.14040173" lon="-2.68516799">
        <ele>1427.0000</ele>
        <time>2018-10-13T17:19:51Z</time>
      </trkpt>
      <trkpt lat="38.14018079" lon="-2.68552690">
        <ele>1425.0000</ele>
        <time>2018-10-13T17:19:55Z</time>
      </trkpt>
      <trkpt lat="38.14012630" lon="-2.68582697">
        <ele>1424.0000</ele>
        <time>2018-10-13T17:19:58Z</time>
      </trkpt>
      <trkpt lat="38.14013678" lon="-2.68603434">
        <ele>1423.0000</ele>
        <time>2018-10-13T17:20:00Z</time>
      </trkpt>
      <trkpt lat="38.14015162" lon="-2.68668159">
        <ele>1422.0000</ele>
        <time>2018-10-13T17:20:11Z</time>
      </trkpt>
      <trkpt lat="38.14004223" lon="-2.68672652">
        <ele>1423.0000</ele>
        <time>2018-10-13T17:20:14Z</time>
      </trkpt>
      <trkpt lat="38.13957695" lon="-2.68645017">
        <ele>1422.0000</ele>
        <time>2018-10-13T17:20:23Z</time>
      </trkpt>
      <trkpt lat="38.13953245" lon="-2.68622260">
        <ele>1421.0000</ele>
        <time>2018-10-13T17:20:26Z</time>
      </trkpt>
      <trkpt lat="38.13937428" lon="-2.68574886">
        <ele>1421.0000</ele>
        <time>2018-10-13T17:20:33Z</time>
      </trkpt>
      <trkpt lat="38.13918577" lon="-2.68558641">
        <ele>1421.0000</ele>
        <time>2018-10-13T17:20:37Z</time>
      </trkpt>
      <trkpt lat="38.13902308" lon="-2.68547669">
        <ele>1421.0000</ele>
        <time>2018-10-13T17:20:40Z</time>
      </trkpt>
      <trkpt lat="38.13890221" lon="-2.68539464">
        <ele>1421.0000</ele>
        <time>2018-10-13T17:20:42Z</time>
      </trkpt>
      <trkpt lat="38.13860574" lon="-2.68522809">
        <ele>1420.0000</ele>
        <time>2018-10-13T17:20:46Z</time>
      </trkpt>
      <trkpt lat="38.13831129" lon="-2.68518568">
        <ele>1419.0000</ele>
        <time>2018-10-13T17:20:49Z</time>
      </trkpt>
      <trkpt lat="38.13798054" lon="-2.68524393">
        <ele>1418.0000</ele>
        <time>2018-10-13T17:20:52Z</time>
      </trkpt>
      <trkpt lat="38.13775012" lon="-2.68529866">
        <ele>1417.0000</ele>
        <time>2018-10-13T17:20:54Z</time>
      </trkpt>
      <trkpt lat="38.13763269" lon="-2.68532657">
        <ele>1415.0000</ele>
        <time>2018-10-13T17:20:55Z</time>
      </trkpt>
      <trkpt lat="38.13739431" lon="-2.68537938">
        <ele>1413.0000</ele>
        <time>2018-10-13T17:20:57Z</time>
      </trkpt>
      <trkpt lat="38.13727453" lon="-2.68540553">
        <ele>1412.0000</ele>
        <time>2018-10-13T17:20:58Z</time>
      </trkpt>
      <trkpt lat="38.13715442" lon="-2.68543210">
        <ele>1411.0000</ele>
        <time>2018-10-13T17:20:59Z</time>
      </trkpt>
      <trkpt lat="38.13703489" lon="-2.68545985">
        <ele>1410.0000</ele>
        <time>2018-10-13T17:21:00Z</time>
      </trkpt>
      <trkpt lat="38.13679684" lon="-2.68551735">
        <ele>1408.0000</ele>
        <time>2018-10-13T17:21:02Z</time>
      </trkpt>
      <trkpt lat="38.13656039" lon="-2.68557392">
        <ele>1406.0000</ele>
        <time>2018-10-13T17:21:04Z</time>
      </trkpt>
      <trkpt lat="38.13644330" lon="-2.68560385">
        <ele>1405.0000</ele>
        <time>2018-10-13T17:21:05Z</time>
      </trkpt>
      <trkpt lat="38.13621179" lon="-2.68566847">
        <ele>1404.0000</ele>
        <time>2018-10-13T17:21:07Z</time>
      </trkpt>
      <trkpt lat="38.13565908" lon="-2.68584935">
        <ele>1403.0000</ele>
        <time>2018-10-13T17:21:12Z</time>
      </trkpt>
      <trkpt lat="38.13505743" lon="-2.68606787">
        <ele>1402.0000</ele>
        <time>2018-10-13T17:21:18Z</time>
      </trkpt>
      <trkpt lat="38.13448092" lon="-2.68628505">
        <ele>1402.0000</ele>
        <time>2018-10-13T17:21:25Z</time>
      </trkpt>
      <trkpt lat="38.13433919" lon="-2.68634213">
        <ele>1402.0000</ele>
        <time>2018-10-13T17:21:27Z</time>
      </trkpt>
      <trkpt lat="38.13420407" lon="-2.68639870">
        <ele>1402.0000</ele>
        <time>2018-10-13T17:21:29Z</time>
      </trkpt>
      <trkpt lat="38.13395094" lon="-2.68648596">
        <ele>1404.0000</ele>
        <time>2018-10-13T17:21:33Z</time>
      </trkpt>
      <trkpt lat="38.13378120" lon="-2.68655369">
        <ele>1405.0000</ele>
        <time>2018-10-13T17:21:36Z</time>
      </trkpt>
      <trkpt lat="38.13352874" lon="-2.68665703">
        <ele>1406.0000</ele>
        <time>2018-10-13T17:21:41Z</time>
      </trkpt>
      <trkpt lat="38.13331391" lon="-2.68675351">
        <ele>1407.0000</ele>
        <time>2018-10-13T17:21:46Z</time>
      </trkpt>
      <trkpt lat="38.13319774" lon="-2.68680715">
        <ele>1408.0000</ele>
        <time>2018-10-13T17:21:49Z</time>
      </trkpt>
      <trkpt lat="38.13312582" lon="-2.68684211">
        <ele>1409.0000</ele>
        <time>2018-10-13T17:21:51Z</time>
      </trkpt>
      <trkpt lat="38.13295609" lon="-2.68693272">
        <ele>1410.0000</ele>
        <time>2018-10-13T17:21:56Z</time>
      </trkpt>
      <trkpt lat="38.13288995" lon="-2.68697069">
        <ele>1410.0000</ele>
        <time>2018-10-13T17:21:58Z</time>
      </trkpt>
      <trkpt lat="38.13265518" lon="-2.68709465">
        <ele>1411.0000</ele>
        <time>2018-10-13T17:22:05Z</time>
      </trkpt>
      <trkpt lat="38.13235267" lon="-2.68727587">
        <ele>1412.0000</ele>
        <time>2018-10-13T17:22:14Z</time>
      </trkpt>
      <trkpt lat="38.13198622" lon="-2.68749866">
        <ele>1413.0000</ele>
        <time>2018-10-13T17:22:24Z</time>
      </trkpt>
      <trkpt lat="38.13177558" lon="-2.68762263">
        <ele>1413.0000</ele>
        <time>2018-10-13T17:22:29Z</time>
      </trkpt>
      <trkpt lat="38.13164214" lon="-2.68769212">
        <ele>1413.0000</ele>
        <time>2018-10-13T17:22:32Z</time>
      </trkpt>
      <trkpt lat="38.13154952" lon="-2.68773805">
        <ele>1413.0000</ele>
        <time>2018-10-13T17:22:34Z</time>
      </trkpt>
      <trkpt lat="38.13124937" lon="-2.68789940">
        <ele>1412.0000</ele>
        <time>2018-10-13T17:22:40Z</time>
      </trkpt>
      <trkpt lat="38.13113638" lon="-2.68795665">
        <ele>1411.0000</ele>
        <time>2018-10-13T17:22:42Z</time>
      </trkpt>
      <trkpt lat="38.13095105" lon="-2.68804474">
        <ele>1410.0000</ele>
        <time>2018-10-13T17:22:45Z</time>
      </trkpt>
      <trkpt lat="38.13088467" lon="-2.68807693">
        <ele>1410.0000</ele>
        <time>2018-10-13T17:22:46Z</time>
      </trkpt>
      <trkpt lat="38.13067152" lon="-2.68817584">
        <ele>1409.0000</ele>
        <time>2018-10-13T17:22:49Z</time>
      </trkpt>
      <trkpt lat="38.13036147" lon="-2.68832411">
        <ele>1408.0000</ele>
        <time>2018-10-13T17:22:53Z</time>
      </trkpt>
      <trkpt lat="38.13019819" lon="-2.68840231">
        <ele>1407.0000</ele>
        <time>2018-10-13T17:22:55Z</time>
      </trkpt>
      <trkpt lat="38.12994799" lon="-2.68853198">
        <ele>1405.0000</ele>
        <time>2018-10-13T17:22:58Z</time>
      </trkpt>
      <trkpt lat="38.12978019" lon="-2.68863223">
        <ele>1403.0000</ele>
        <time>2018-10-13T17:23:00Z</time>
      </trkpt>
      <trkpt lat="38.12953166" lon="-2.68880029">
        <ele>1402.0000</ele>
        <time>2018-10-13T17:23:03Z</time>
      </trkpt>
      <trkpt lat="38.12936796" lon="-2.68891881">
        <ele>1401.0000</ele>
        <time>2018-10-13T17:23:05Z</time>
      </trkpt>
      <trkpt lat="38.12912397" lon="-2.68910086">
        <ele>1399.0000</ele>
        <time>2018-10-13T17:23:08Z</time>
      </trkpt>
      <trkpt lat="38.12879950" lon="-2.68934369">
        <ele>1398.0000</ele>
        <time>2018-10-13T17:23:12Z</time>
      </trkpt>
      <trkpt lat="38.12847428" lon="-2.68958542">
        <ele>1397.0000</ele>
        <time>2018-10-13T17:23:16Z</time>
      </trkpt>
      <trkpt lat="38.12814831" lon="-2.68983160">
        <ele>1396.0000</ele>
        <time>2018-10-13T17:23:20Z</time>
      </trkpt>
      <trkpt lat="38.12765504" lon="-2.69017048">
        <ele>1395.0000</ele>
        <time>2018-10-13T17:23:26Z</time>
      </trkpt>
      <trkpt lat="38.12730358" lon="-2.69033174">
        <ele>1393.0000</ele>
        <time>2018-10-13T17:23:30Z</time>
      </trkpt>
      <trkpt lat="38.12691609" lon="-2.69043836">
        <ele>1392.0000</ele>
        <time>2018-10-13T17:23:34Z</time>
      </trkpt>
      <trkpt lat="38.12648635" lon="-2.69045840">
        <ele>1391.0000</ele>
        <time>2018-10-13T17:23:38Z</time>
      </trkpt>
      <trkpt lat="38.12626129" lon="-2.69042554">
        <ele>1390.0000</ele>
        <time>2018-10-13T17:23:40Z</time>
      </trkpt>
      <trkpt lat="38.12591973" lon="-2.69032361">
        <ele>1389.0000</ele>
        <time>2018-10-13T17:23:43Z</time>
      </trkpt>
      <trkpt lat="38.12569711" lon="-2.69021708">
        <ele>1387.0000</ele>
        <time>2018-10-13T17:23:45Z</time>
      </trkpt>
      <trkpt lat="38.12548412" lon="-2.69008490">
        <ele>1385.0000</ele>
        <time>2018-10-13T17:23:47Z</time>
      </trkpt>
      <trkpt lat="38.12528598" lon="-2.68992765">
        <ele>1384.0000</ele>
        <time>2018-10-13T17:23:49Z</time>
      </trkpt>
      <trkpt lat="38.12519403" lon="-2.68984065">
        <ele>1383.0000</ele>
        <time>2018-10-13T17:23:50Z</time>
      </trkpt>
      <trkpt lat="38.12502698" lon="-2.68965650">
        <ele>1381.0000</ele>
        <time>2018-10-13T17:23:52Z</time>
      </trkpt>
      <trkpt lat="38.12461643" lon="-2.68909508">
        <ele>1380.0000</ele>
        <time>2018-10-13T17:23:58Z</time>
      </trkpt>
      <trkpt lat="38.12438735" lon="-2.68874170">
        <ele>1380.0000</ele>
        <time>2018-10-13T17:24:02Z</time>
      </trkpt>
      <trkpt lat="38.12401805" lon="-2.68816502">
        <ele>1381.0000</ele>
        <time>2018-10-13T17:24:09Z</time>
      </trkpt>
      <trkpt lat="38.12377220" lon="-2.68779429">
        <ele>1382.0000</ele>
        <time>2018-10-13T17:24:14Z</time>
      </trkpt>
      <trkpt lat="38.12363382" lon="-2.68758080">
        <ele>1382.0000</ele>
        <time>2018-10-13T17:24:17Z</time>
      </trkpt>
      <trkpt lat="38.12328178" lon="-2.68702810">
        <ele>1382.0000</ele>
        <time>2018-10-13T17:24:25Z</time>
      </trkpt>
      <trkpt lat="38.12298154" lon="-2.68657975">
        <ele>1383.0000</ele>
        <time>2018-10-13T17:24:32Z</time>
      </trkpt>
      <trkpt lat="38.12279789" lon="-2.68628697">
        <ele>1383.0000</ele>
        <time>2018-10-13T17:24:37Z</time>
      </trkpt>
      <trkpt lat="38.12262992" lon="-2.68602303">
        <ele>1384.0000</ele>
        <time>2018-10-13T17:24:42Z</time>
      </trkpt>
      <trkpt lat="38.12257007" lon="-2.68591792">
        <ele>1385.0000</ele>
        <time>2018-10-13T17:24:44Z</time>
      </trkpt>
      <trkpt lat="38.12237972" lon="-2.68551986">
        <ele>1385.0000</ele>
        <time>2018-10-13T17:24:51Z</time>
      </trkpt>
      <trkpt lat="38.12217688" lon="-2.68480690">
        <ele>1385.0000</ele>
        <time>2018-10-13T17:25:01Z</time>
      </trkpt>
      <trkpt lat="38.12201519" lon="-2.68411145">
        <ele>1383.0000</ele>
        <time>2018-10-13T17:25:09Z</time>
      </trkpt>
      <trkpt lat="38.12198242" lon="-2.68401791">
        <ele>1383.0000</ele>
        <time>2018-10-13T17:25:10Z</time>
      </trkpt>
      <trkpt lat="38.12185216" lon="-2.68373359">
        <ele>1382.0000</ele>
        <time>2018-10-13T17:25:13Z</time>
      </trkpt>
      <trkpt lat="38.12150473" lon="-2.68329715">
        <ele>1381.0000</ele>
        <time>2018-10-13T17:25:18Z</time>
      </trkpt>
      <trkpt lat="38.12141622" lon="-2.68321827">
        <ele>1380.0000</ele>
        <time>2018-10-13T17:25:19Z</time>
      </trkpt>
      <trkpt lat="38.12132108" lon="-2.68314301">
        <ele>1380.0000</ele>
        <time>2018-10-13T17:25:20Z</time>
      </trkpt>
      <trkpt lat="38.12111346" lon="-2.68300713">
        <ele>1378.0000</ele>
        <time>2018-10-13T17:25:22Z</time>
      </trkpt>
      <trkpt lat="38.12089160" lon="-2.68287353">
        <ele>1377.0000</ele>
        <time>2018-10-13T17:25:24Z</time>
      </trkpt>
      <trkpt lat="38.12065866" lon="-2.68273154">
        <ele>1375.0000</ele>
        <time>2018-10-13T17:25:26Z</time>
      </trkpt>
      <trkpt lat="38.12041819" lon="-2.68258871">
        <ele>1373.0000</ele>
        <time>2018-10-13T17:25:28Z</time>
      </trkpt>
      <trkpt lat="38.12029640" lon="-2.68252015">
        <ele>1372.0000</ele>
        <time>2018-10-13T17:25:29Z</time>
      </trkpt>
      <trkpt lat="38.12017176" lon="-2.68245887">
        <ele>1370.0000</ele>
        <time>2018-10-13T17:25:30Z</time>
      </trkpt>
      <trkpt lat="38.11991485" lon="-2.68236408">
        <ele>1368.0000</ele>
        <time>2018-10-13T17:25:32Z</time>
      </trkpt>
      <trkpt lat="38.11978518" lon="-2.68233113">
        <ele>1367.0000</ele>
        <time>2018-10-13T17:25:33Z</time>
      </trkpt>
      <trkpt lat="38.11965275" lon="-2.68230691">
        <ele>1365.0000</ele>
        <time>2018-10-13T17:25:34Z</time>
      </trkpt>
      <trkpt lat="38.11951789" lon="-2.68228964">
        <ele>1363.0000</ele>
        <time>2018-10-13T17:25:35Z</time>
      </trkpt>
      <trkpt lat="38.11938352" lon="-2.68228118">
        <ele>1362.0000</ele>
        <time>2018-10-13T17:25:36Z</time>
      </trkpt>
      <trkpt lat="38.11925210" lon="-2.68228218">
        <ele>1361.0000</ele>
        <time>2018-10-13T17:25:37Z</time>
      </trkpt>
      <trkpt lat="38.11912394" lon="-2.68229467">
        <ele>1359.0000</ele>
        <time>2018-10-13T17:25:38Z</time>
      </trkpt>
      <trkpt lat="38.11900089" lon="-2.68231848">
        <ele>1358.0000</ele>
        <time>2018-10-13T17:25:39Z</time>
      </trkpt>
      <trkpt lat="38.11888078" lon="-2.68235284">
        <ele>1356.0000</ele>
        <time>2018-10-13T17:25:40Z</time>
      </trkpt>
      <trkpt lat="38.11876410" lon="-2.68239953">
        <ele>1355.0000</ele>
        <time>2018-10-13T17:25:41Z</time>
      </trkpt>
      <trkpt lat="38.11864877" lon="-2.68245250">
        <ele>1355.0000</ele>
        <time>2018-10-13T17:25:42Z</time>
      </trkpt>
      <trkpt lat="38.11853226" lon="-2.68250816">
        <ele>1353.0000</ele>
        <time>2018-10-13T17:25:43Z</time>
      </trkpt>
      <trkpt lat="38.11841676" lon="-2.68256398">
        <ele>1352.0000</ele>
        <time>2018-10-13T17:25:44Z</time>
      </trkpt>
      <trkpt lat="38.11830419" lon="-2.68261780">
        <ele>1351.0000</ele>
        <time>2018-10-13T17:25:45Z</time>
      </trkpt>
      <trkpt lat="38.11819455" lon="-2.68266951">
        <ele>1349.0000</ele>
        <time>2018-10-13T17:25:46Z</time>
      </trkpt>
      <trkpt lat="38.11808651" lon="-2.68271972">
        <ele>1348.0000</ele>
        <time>2018-10-13T17:25:47Z</time>
      </trkpt>
      <trkpt lat="38.11797930" lon="-2.68277043">
        <ele>1347.0000</ele>
        <time>2018-10-13T17:25:48Z</time>
      </trkpt>
      <trkpt lat="38.11777219" lon="-2.68287084">
        <ele>1345.0000</ele>
        <time>2018-10-13T17:25:50Z</time>
      </trkpt>
      <trkpt lat="38.11767789" lon="-2.68291795">
        <ele>1343.0000</ele>
        <time>2018-10-13T17:25:51Z</time>
      </trkpt>
      <trkpt lat="38.11758795" lon="-2.68295986">
        <ele>1341.0000</ele>
        <time>2018-10-13T17:25:52Z</time>
      </trkpt>
      <trkpt lat="38.11750413" lon="-2.68299104">
        <ele>1338.0000</ele>
        <time>2018-10-13T17:25:53Z</time>
      </trkpt>
      <trkpt lat="38.11742744" lon="-2.68300118">
        <ele>1337.0000</ele>
        <time>2018-10-13T17:25:54Z</time>
      </trkpt>
      <trkpt lat="38.11722376" lon="-2.68288635">
        <ele>1336.0000</ele>
        <time>2018-10-13T17:25:57Z</time>
      </trkpt>
      <trkpt lat="38.11711027" lon="-2.68218101">
        <ele>1336.0000</ele>
        <time>2018-10-13T17:26:04Z</time>
      </trkpt>
      <trkpt lat="38.11740179" lon="-2.68172604">
        <ele>1335.0000</ele>
        <time>2018-10-13T17:26:09Z</time>
      </trkpt>
      <trkpt lat="38.11752090" lon="-2.68158037">
        <ele>1335.0000</ele>
        <time>2018-10-13T17:26:11Z</time>
      </trkpt>
      <trkpt lat="38.11764059" lon="-2.68144064">
        <ele>1334.0000</ele>
        <time>2018-10-13T17:26:13Z</time>
      </trkpt>
      <trkpt lat="38.11774855" lon="-2.68129102">
        <ele>1334.0000</ele>
        <time>2018-10-13T17:26:15Z</time>
      </trkpt>
      <trkpt lat="38.11798710" lon="-2.68062391">
        <ele>1333.0000</ele>
        <time>2018-10-13T17:26:23Z</time>
      </trkpt>
      <trkpt lat="38.11802465" lon="-2.68042090">
        <ele>1333.0000</ele>
        <time>2018-10-13T17:26:25Z</time>
      </trkpt>
      <trkpt lat="38.11809900" lon="-2.68010406">
        <ele>1333.0000</ele>
        <time>2018-10-13T17:26:28Z</time>
      </trkpt>
      <trkpt lat="38.11819883" lon="-2.67979041">
        <ele>1332.0000</ele>
        <time>2018-10-13T17:26:31Z</time>
      </trkpt>
      <trkpt lat="38.11830787" lon="-2.67947534">
        <ele>1331.0000</ele>
        <time>2018-10-13T17:26:34Z</time>
      </trkpt>
      <trkpt lat="38.11842287" lon="-2.67918189">
        <ele>1330.0000</ele>
        <time>2018-10-13T17:26:37Z</time>
      </trkpt>
      <trkpt lat="38.11864617" lon="-2.67866154">
        <ele>1329.0000</ele>
        <time>2018-10-13T17:26:43Z</time>
      </trkpt>
      <trkpt lat="38.11884918" lon="-2.67816374">
        <ele>1329.0000</ele>
        <time>2018-10-13T17:26:49Z</time>
      </trkpt>
      <trkpt lat="38.11900952" lon="-2.67777113">
        <ele>1329.0000</ele>
        <time>2018-10-13T17:26:54Z</time>
      </trkpt>
      <trkpt lat="38.11909871" lon="-2.67752084">
        <ele>1329.0000</ele>
        <time>2018-10-13T17:26:57Z</time>
      </trkpt>
      <trkpt lat="38.11926593" lon="-2.67686798">
        <ele>1329.0000</ele>
        <time>2018-10-13T17:27:05Z</time>
      </trkpt>
      <trkpt lat="38.11940984" lon="-2.67614739">
        <ele>1329.0000</ele>
        <time>2018-10-13T17:27:14Z</time>
      </trkpt>
      <trkpt lat="38.11950598" lon="-2.67549360">
        <ele>1329.0000</ele>
        <time>2018-10-13T17:27:22Z</time>
      </trkpt>
      <trkpt lat="38.11953348" lon="-2.67513678">
        <ele>1328.0000</ele>
        <time>2018-10-13T17:27:26Z</time>
      </trkpt>
      <trkpt lat="38.11952744" lon="-2.67474166">
        <ele>1328.0000</ele>
        <time>2018-10-13T17:27:30Z</time>
      </trkpt>
      <trkpt lat="38.11950498" lon="-2.67452641">
        <ele>1327.0000</ele>
        <time>2018-10-13T17:27:32Z</time>
      </trkpt>
      <trkpt lat="38.11944815" lon="-2.67421544">
        <ele>1326.0000</ele>
        <time>2018-10-13T17:27:35Z</time>
      </trkpt>
      <trkpt lat="38.11941269" lon="-2.67401637">
        <ele>1324.0000</ele>
        <time>2018-10-13T17:27:37Z</time>
      </trkpt>
      <trkpt lat="38.11938453" lon="-2.67382300">
        <ele>1323.0000</ele>
        <time>2018-10-13T17:27:39Z</time>
      </trkpt>
      <trkpt lat="38.11936391" lon="-2.67363734">
        <ele>1322.0000</ele>
        <time>2018-10-13T17:27:41Z</time>
      </trkpt>
      <trkpt lat="38.11934983" lon="-2.67347264">
        <ele>1321.0000</ele>
        <time>2018-10-13T17:27:43Z</time>
      </trkpt>
      <trkpt lat="38.11932795" lon="-2.67325362">
        <ele>1319.0000</ele>
        <time>2018-10-13T17:27:46Z</time>
      </trkpt>
      <trkpt lat="38.11930490" lon="-2.67307223">
        <ele>1318.0000</ele>
        <time>2018-10-13T17:27:49Z</time>
      </trkpt>
      <trkpt lat="38.11928948" lon="-2.67290124">
        <ele>1318.0000</ele>
        <time>2018-10-13T17:27:52Z</time>
      </trkpt>
      <trkpt lat="38.11927942" lon="-2.67284701">
        <ele>1317.0000</ele>
        <time>2018-10-13T17:27:53Z</time>
      </trkpt>
      <trkpt lat="38.11919619" lon="-2.67258742">
        <ele>1316.0000</ele>
        <time>2018-10-13T17:27:57Z</time>
      </trkpt>
      <trkpt lat="38.11915897" lon="-2.67246010">
        <ele>1315.0000</ele>
        <time>2018-10-13T17:27:59Z</time>
      </trkpt>
      <trkpt lat="38.11913902" lon="-2.67240445">
        <ele>1315.0000</ele>
        <time>2018-10-13T17:28:00Z</time>
      </trkpt>
      <trkpt lat="38.11911237" lon="-2.67228425">
        <ele>1314.0000</ele>
        <time>2018-10-13T17:28:02Z</time>
      </trkpt>
      <trkpt lat="38.11909737" lon="-2.67216489">
        <ele>1312.0000</ele>
        <time>2018-10-13T17:28:04Z</time>
      </trkpt>
      <trkpt lat="38.11908286" lon="-2.67204537">
        <ele>1311.0000</ele>
        <time>2018-10-13T17:28:07Z</time>
      </trkpt>
      <trkpt lat="38.11907432" lon="-2.67193372">
        <ele>1310.0000</ele>
        <time>2018-10-13T17:28:10Z</time>
      </trkpt>
      <trkpt lat="38.11905043" lon="-2.67189231">
        <ele>1309.0000</ele>
        <time>2018-10-13T17:28:12Z</time>
      </trkpt>
      <trkpt lat="38.11904205" lon="-2.67184915">
        <ele>1309.0000</ele>
        <time>2018-10-13T17:28:14Z</time>
      </trkpt>
      <trkpt lat="38.11904892" lon="-2.67181922">
        <ele>1309.0000</ele>
        <time>2018-10-13T17:28:15Z</time>
      </trkpt>
      <trkpt lat="38.11906753" lon="-2.67175938">
        <ele>1309.0000</ele>
        <time>2018-10-13T17:28:19Z</time>
      </trkpt>
      <trkpt lat="38.11907960" lon="-2.67180137">
        <ele>1309.0000</ele>
        <time>2018-10-13T17:28:22Z</time>
      </trkpt>
      <trkpt lat="38.11905613" lon="-2.67182148">
        <ele>1309.0000</ele>
        <time>2018-10-13T17:28:24Z</time>
      </trkpt>
      <trkpt lat="38.11902998" lon="-2.67183615">
        <ele>1309.0000</ele>
        <time>2018-10-13T17:28:25Z</time>
      </trkpt>
      <trkpt lat="38.11898446" lon="-2.67185518">
        <ele>1309.0000</ele>
        <time>2018-10-13T17:28:27Z</time>
      </trkpt>
      <trkpt lat="38.11893660" lon="-2.67184839">
        <ele>1309.0000</ele>
        <time>2018-10-13T17:28:30Z</time>
      </trkpt>
      <trkpt lat="38.11892612" lon="-2.67177991">
        <ele>1309.0000</ele>
        <time>2018-10-13T17:28:34Z</time>
      </trkpt>
      <trkpt lat="38.11892596" lon="-2.67174647">
        <ele>1310.0000</ele>
        <time>2018-10-13T17:28:38Z</time>
      </trkpt>
      <trkpt lat="38.11892478" lon="-2.67174093">
        <ele>1311.0000</ele>
        <time>2018-10-13T17:28:40Z</time>
      </trkpt>
      <trkpt lat="38.11906426" lon="-2.67165460">
        <ele>1310.0000</ele>
        <time>2018-10-13T17:43:32Z</time>
      </trkpt>
      <trkpt lat="38.11906007" lon="-2.67162753">
        <ele>1310.0000</ele>
        <time>2018-10-13T17:43:33Z</time>
      </trkpt>
      <trkpt lat="38.11899963" lon="-2.67141086">
        <ele>1309.0000</ele>
        <time>2018-10-13T17:43:38Z</time>
      </trkpt>
      <trkpt lat="38.11895973" lon="-2.67119284">
        <ele>1309.0000</ele>
        <time>2018-10-13T17:43:43Z</time>
      </trkpt>
      <trkpt lat="38.11895420" lon="-2.67103333">
        <ele>1309.0000</ele>
        <time>2018-10-13T17:43:46Z</time>
      </trkpt>
      <trkpt lat="38.11896803" lon="-2.67084290">
        <ele>1309.0000</ele>
        <time>2018-10-13T17:43:49Z</time>
      </trkpt>
      <trkpt lat="38.11900139" lon="-2.67073620">
        <ele>1309.0000</ele>
        <time>2018-10-13T17:43:51Z</time>
      </trkpt>
      <trkpt lat="38.11901891" lon="-2.67067392">
        <ele>1308.0000</ele>
        <time>2018-10-13T17:43:52Z</time>
      </trkpt>
      <trkpt lat="38.11917054" lon="-2.67042866">
        <ele>1308.0000</ele>
        <time>2018-10-13T17:43:58Z</time>
      </trkpt>
      <trkpt lat="38.11919451" lon="-2.67038030">
        <ele>1308.0000</ele>
        <time>2018-10-13T17:43:59Z</time>
      </trkpt>
      <trkpt lat="38.11924229" lon="-2.67028835">
        <ele>1308.0000</ele>
        <time>2018-10-13T17:44:01Z</time>
      </trkpt>
      <trkpt lat="38.11933449" lon="-2.67016279">
        <ele>1309.0000</ele>
        <time>2018-10-13T17:44:04Z</time>
      </trkpt>
      <trkpt lat="38.11946106" lon="-2.66977161">
        <ele>1309.0000</ele>
        <time>2018-10-13T17:44:14Z</time>
      </trkpt>
      <trkpt lat="38.11928328" lon="-2.66948059">
        <ele>1309.0000</ele>
        <time>2018-10-13T17:44:22Z</time>
      </trkpt>
      <trkpt lat="38.11912653" lon="-2.66921161">
        <ele>1309.0000</ele>
        <time>2018-10-13T17:44:30Z</time>
      </trkpt>
      <trkpt lat="38.11906191" lon="-2.66908563">
        <ele>1310.0000</ele>
        <time>2018-10-13T17:44:34Z</time>
      </trkpt>
      <trkpt lat="38.11902897" lon="-2.66898195">
        <ele>1311.0000</ele>
        <time>2018-10-13T17:44:37Z</time>
      </trkpt>
      <trkpt lat="38.11900265" lon="-2.66886519">
        <ele>1312.0000</ele>
        <time>2018-10-13T17:44:40Z</time>
      </trkpt>
      <trkpt lat="38.11899209" lon="-2.66879386">
        <ele>1312.0000</ele>
        <time>2018-10-13T17:44:42Z</time>
      </trkpt>
      <trkpt lat="38.11899108" lon="-2.66864273">
        <ele>1313.0000</ele>
        <time>2018-10-13T17:44:46Z</time>
      </trkpt>
      <trkpt lat="38.11898731" lon="-2.66860258">
        <ele>1313.0000</ele>
        <time>2018-10-13T17:44:47Z</time>
      </trkpt>
      <trkpt lat="38.11898823" lon="-2.66842220">
        <ele>1314.0000</ele>
        <time>2018-10-13T17:44:52Z</time>
      </trkpt>
      <trkpt lat="38.11899846" lon="-2.66829212">
        <ele>1315.0000</ele>
        <time>2018-10-13T17:44:56Z</time>
      </trkpt>
      <trkpt lat="38.11901070" lon="-2.66815155">
        <ele>1316.0000</ele>
        <time>2018-10-13T17:45:00Z</time>
      </trkpt>
      <trkpt lat="38.11903442" lon="-2.66802557">
        <ele>1317.0000</ele>
        <time>2018-10-13T17:45:04Z</time>
      </trkpt>
      <trkpt lat="38.11907289" lon="-2.66788719">
        <ele>1318.0000</ele>
        <time>2018-10-13T17:45:09Z</time>
      </trkpt>
      <trkpt lat="38.11910457" lon="-2.66774964">
        <ele>1320.0000</ele>
        <time>2018-10-13T17:45:14Z</time>
      </trkpt>
      <trkpt lat="38.11915487" lon="-2.66762349">
        <ele>1321.0000</ele>
        <time>2018-10-13T17:45:19Z</time>
      </trkpt>
      <trkpt lat="38.11916668" lon="-2.66759550">
        <ele>1321.0000</ele>
        <time>2018-10-13T17:45:20Z</time>
      </trkpt>
      <trkpt lat="38.11921027" lon="-2.66749793">
        <ele>1322.0000</ele>
        <time>2018-10-13T17:45:24Z</time>
      </trkpt>
      <trkpt lat="38.11924229" lon="-2.66733809">
        <ele>1323.0000</ele>
        <time>2018-10-13T17:45:30Z</time>
      </trkpt>
      <trkpt lat="38.11924707" lon="-2.66715427">
        <ele>1325.0000</ele>
        <time>2018-10-13T17:45:37Z</time>
      </trkpt>
      <trkpt lat="38.11921077" lon="-2.66698085">
        <ele>1326.0000</ele>
        <time>2018-10-13T17:45:43Z</time>
      </trkpt>
      <trkpt lat="38.11918269" lon="-2.66657894">
        <ele>1326.0000</ele>
        <time>2018-10-13T17:45:55Z</time>
      </trkpt>
      <trkpt lat="38.11918227" lon="-2.66652261">
        <ele>1326.0000</ele>
        <time>2018-10-13T17:45:56Z</time>
      </trkpt>
      <trkpt lat="38.11902277" lon="-2.66608064">
        <ele>1326.0000</ele>
        <time>2018-10-13T17:46:02Z</time>
      </trkpt>
      <trkpt lat="38.11890064" lon="-2.66593873">
        <ele>1325.0000</ele>
        <time>2018-10-13T17:46:04Z</time>
      </trkpt>
      <trkpt lat="38.11877517" lon="-2.66580697">
        <ele>1324.0000</ele>
        <time>2018-10-13T17:46:06Z</time>
      </trkpt>
      <trkpt lat="38.11865346" lon="-2.66569130">
        <ele>1322.0000</ele>
        <time>2018-10-13T17:46:08Z</time>
      </trkpt>
      <trkpt lat="38.11859772" lon="-2.66563631">
        <ele>1321.0000</ele>
        <time>2018-10-13T17:46:09Z</time>
      </trkpt>
      <trkpt lat="38.11844903" lon="-2.66549549">
        <ele>1320.0000</ele>
        <time>2018-10-13T17:46:12Z</time>
      </trkpt>
      <trkpt lat="38.11840536" lon="-2.66545744">
        <ele>1320.0000</ele>
        <time>2018-10-13T17:46:13Z</time>
      </trkpt>
      <trkpt lat="38.11836487" lon="-2.66542366">
        <ele>1320.0000</ele>
        <time>2018-10-13T17:46:14Z</time>
      </trkpt>
      <trkpt lat="38.11825406" lon="-2.66535057">
        <ele>1320.0000</ele>
        <time>2018-10-13T17:46:17Z</time>
      </trkpt>
      <trkpt lat="38.11816094" lon="-2.66531202">
        <ele>1321.0000</ele>
        <time>2018-10-13T17:46:20Z</time>
      </trkpt>
      <trkpt lat="38.11810688" lon="-2.66530489">
        <ele>1321.0000</ele>
        <time>2018-10-13T17:46:22Z</time>
      </trkpt>
      <trkpt lat="38.11802348" lon="-2.66532316">
        <ele>1323.0000</ele>
        <time>2018-10-13T17:46:25Z</time>
      </trkpt>
      <trkpt lat="38.11797117" lon="-2.66534244">
        <ele>1324.0000</ele>
        <time>2018-10-13T17:46:27Z</time>
      </trkpt>
      <trkpt lat="38.11789607" lon="-2.66536231">
        <ele>1325.0000</ele>
        <time>2018-10-13T17:46:30Z</time>
      </trkpt>
      <trkpt lat="38.11787067" lon="-2.66536599">
        <ele>1325.0000</ele>
        <time>2018-10-13T17:46:31Z</time>
      </trkpt>
      <trkpt lat="38.11776959" lon="-2.66534906">
        <ele>1326.0000</ele>
        <time>2018-10-13T17:46:35Z</time>
      </trkpt>
      <trkpt lat="38.11768149" lon="-2.66529835">
        <ele>1327.0000</ele>
        <time>2018-10-13T17:46:39Z</time>
      </trkpt>
      <trkpt lat="38.11759030" lon="-2.66518017">
        <ele>1329.0000</ele>
        <time>2018-10-13T17:46:44Z</time>
      </trkpt>
      <trkpt lat="38.11755225" lon="-2.66506290">
        <ele>1330.0000</ele>
        <time>2018-10-13T17:46:48Z</time>
      </trkpt>
      <trkpt lat="38.11751754" lon="-2.66494036">
        <ele>1331.0000</ele>
        <time>2018-10-13T17:46:52Z</time>
      </trkpt>
      <trkpt lat="38.11747387" lon="-2.66479980">
        <ele>1332.0000</ele>
        <time>2018-10-13T17:46:57Z</time>
      </trkpt>
      <trkpt lat="38.11741520" lon="-2.66461523">
        <ele>1333.0000</ele>
        <time>2018-10-13T17:47:04Z</time>
      </trkpt>
      <trkpt lat="38.11736592" lon="-2.66445497">
        <ele>1334.0000</ele>
        <time>2018-10-13T17:47:10Z</time>
      </trkpt>
      <trkpt lat="38.11733306" lon="-2.66432086">
        <ele>1335.0000</ele>
        <time>2018-10-13T17:47:15Z</time>
      </trkpt>
      <trkpt lat="38.11730909" lon="-2.66419873">
        <ele>1336.0000</ele>
        <time>2018-10-13T17:47:20Z</time>
      </trkpt>
      <trkpt lat="38.11729911" lon="-2.66400687">
        <ele>1338.0000</ele>
        <time>2018-10-13T17:47:27Z</time>
      </trkpt>
      <trkpt lat="38.11731227" lon="-2.66383051">
        <ele>1339.0000</ele>
        <time>2018-10-13T17:47:33Z</time>
      </trkpt>
      <trkpt lat="38.11735971" lon="-2.66367981">
        <ele>1340.0000</ele>
        <time>2018-10-13T17:47:39Z</time>
      </trkpt>
      <trkpt lat="38.11744119" lon="-2.66355182">
        <ele>1341.0000</ele>
        <time>2018-10-13T17:47:45Z</time>
      </trkpt>
      <trkpt lat="38.11754571" lon="-2.66345299">
        <ele>1342.0000</ele>
        <time>2018-10-13T17:47:51Z</time>
      </trkpt>
      <trkpt lat="38.11767722" lon="-2.66335777">
        <ele>1343.0000</ele>
        <time>2018-10-13T17:47:58Z</time>
      </trkpt>
      <trkpt lat="38.11780999" lon="-2.66326876">
        <ele>1344.0000</ele>
        <time>2018-10-13T17:48:05Z</time>
      </trkpt>
      <trkpt lat="38.11790353" lon="-2.66320447">
        <ele>1345.0000</ele>
        <time>2018-10-13T17:48:10Z</time>
      </trkpt>
      <trkpt lat="38.11803647" lon="-2.66310489">
        <ele>1346.0000</ele>
        <time>2018-10-13T17:48:17Z</time>
      </trkpt>
      <trkpt lat="38.11814594" lon="-2.66301671">
        <ele>1347.0000</ele>
        <time>2018-10-13T17:48:23Z</time>
      </trkpt>
      <trkpt lat="38.11824736" lon="-2.66288093">
        <ele>1349.0000</ele>
        <time>2018-10-13T17:48:30Z</time>
      </trkpt>
      <trkpt lat="38.11828424" lon="-2.66269695">
        <ele>1350.0000</ele>
        <time>2018-10-13T17:48:37Z</time>
      </trkpt>
      <trkpt lat="38.11824333" lon="-2.66254968">
        <ele>1351.0000</ele>
        <time>2018-10-13T17:48:43Z</time>
      </trkpt>
      <trkpt lat="38.11816480" lon="-2.66245957">
        <ele>1352.0000</ele>
        <time>2018-10-13T17:48:48Z</time>
      </trkpt>
      <trkpt lat="38.11804485" lon="-2.66240534">
        <ele>1353.0000</ele>
        <time>2018-10-13T17:48:54Z</time>
      </trkpt>
      <trkpt lat="38.11791594" lon="-2.66237634">
        <ele>1354.0000</ele>
        <time>2018-10-13T17:49:00Z</time>
      </trkpt>
      <trkpt lat="38.11778501" lon="-2.66237860">
        <ele>1355.0000</ele>
        <time>2018-10-13T17:49:06Z</time>
      </trkpt>
      <trkpt lat="38.11766213" lon="-2.66238665">
        <ele>1356.0000</ele>
        <time>2018-10-13T17:49:12Z</time>
      </trkpt>
      <trkpt lat="38.11752165" lon="-2.66240878">
        <ele>1357.0000</ele>
        <time>2018-10-13T17:49:19Z</time>
      </trkpt>
      <trkpt lat="38.11737941" lon="-2.66245873">
        <ele>1359.0000</ele>
        <time>2018-10-13T17:49:26Z</time>
      </trkpt>
      <trkpt lat="38.11728201" lon="-2.66250953">
        <ele>1360.0000</ele>
        <time>2018-10-13T17:49:31Z</time>
      </trkpt>
      <trkpt lat="38.11717464" lon="-2.66258538">
        <ele>1361.0000</ele>
        <time>2018-10-13T17:49:37Z</time>
      </trkpt>
      <trkpt lat="38.11702444" lon="-2.66271614">
        <ele>1362.0000</ele>
        <time>2018-10-13T17:49:45Z</time>
      </trkpt>
      <trkpt lat="38.11681120" lon="-2.66302292">
        <ele>1363.0000</ele>
        <time>2018-10-13T17:49:56Z</time>
      </trkpt>
      <trkpt lat="38.11676493" lon="-2.66315904">
        <ele>1363.0000</ele>
        <time>2018-10-13T17:49:59Z</time>
      </trkpt>
      <trkpt lat="38.11672797" lon="-2.66332047">
        <ele>1363.0000</ele>
        <time>2018-10-13T17:50:02Z</time>
      </trkpt>
      <trkpt lat="38.11669813" lon="-2.66351955">
        <ele>1362.0000</ele>
        <time>2018-10-13T17:50:05Z</time>
      </trkpt>
      <trkpt lat="38.11669511" lon="-2.66359423">
        <ele>1362.0000</ele>
        <time>2018-10-13T17:50:06Z</time>
      </trkpt>
      <trkpt lat="38.11671573" lon="-2.66383655">
        <ele>1362.0000</ele>
        <time>2018-10-13T17:50:09Z</time>
      </trkpt>
      <trkpt lat="38.11673878" lon="-2.66420301">
        <ele>1361.0000</ele>
        <time>2018-10-13T17:50:13Z</time>
      </trkpt>
      <trkpt lat="38.11672545" lon="-2.66450023">
        <ele>1359.0000</ele>
        <time>2018-10-13T17:50:16Z</time>
      </trkpt>
      <trkpt lat="38.11671498" lon="-2.66469502">
        <ele>1358.0000</ele>
        <time>2018-10-13T17:50:18Z</time>
      </trkpt>
      <trkpt lat="38.11671062" lon="-2.66478999">
        <ele>1358.0000</ele>
        <time>2018-10-13T17:50:19Z</time>
      </trkpt>
      <trkpt lat="38.11670123" lon="-2.66497540">
        <ele>1357.0000</ele>
        <time>2018-10-13T17:50:21Z</time>
      </trkpt>
      <trkpt lat="38.11669017" lon="-2.66515427">
        <ele>1357.0000</ele>
        <time>2018-10-13T17:50:23Z</time>
      </trkpt>
      <trkpt lat="38.11666016" lon="-2.66563857">
        <ele>1356.0000</ele>
        <time>2018-10-13T17:50:29Z</time>
      </trkpt>
      <trkpt lat="38.11663736" lon="-2.66590705">
        <ele>1356.0000</ele>
        <time>2018-10-13T17:50:33Z</time>
      </trkpt>
      <trkpt lat="38.11663116" lon="-2.66597016">
        <ele>1356.0000</ele>
        <time>2018-10-13T17:50:34Z</time>
      </trkpt>
      <trkpt lat="38.11662261" lon="-2.66603261">
        <ele>1356.0000</ele>
        <time>2018-10-13T17:50:35Z</time>
      </trkpt>
      <trkpt lat="38.11661146" lon="-2.66609396">
        <ele>1356.0000</ele>
        <time>2018-10-13T17:50:36Z</time>
      </trkpt>
      <trkpt lat="38.11659922" lon="-2.66615398">
        <ele>1356.0000</ele>
        <time>2018-10-13T17:50:37Z</time>
      </trkpt>
      <trkpt lat="38.11657601" lon="-2.66627090">
        <ele>1357.0000</ele>
        <time>2018-10-13T17:50:39Z</time>
      </trkpt>
      <trkpt lat="38.11644785" lon="-2.66665798">
        <ele>1358.0000</ele>
        <time>2018-10-13T17:50:47Z</time>
      </trkpt>
      <trkpt lat="38.11639185" lon="-2.66672269">
        <ele>1358.0000</ele>
        <time>2018-10-13T17:50:49Z</time>
      </trkpt>
      <trkpt lat="38.11632321" lon="-2.66677256">
        <ele>1359.0000</ele>
        <time>2018-10-13T17:50:51Z</time>
      </trkpt>
      <trkpt lat="38.11624693" lon="-2.66680466">
        <ele>1359.0000</ele>
        <time>2018-10-13T17:50:53Z</time>
      </trkpt>
      <trkpt lat="38.11608985" lon="-2.66682084">
        <ele>1360.0000</ele>
        <time>2018-10-13T17:50:57Z</time>
      </trkpt>
      <trkpt lat="38.11605314" lon="-2.66681162">
        <ele>1360.0000</ele>
        <time>2018-10-13T17:50:58Z</time>
      </trkpt>
      <trkpt lat="38.11595910" lon="-2.66674549">
        <ele>1361.0000</ele>
        <time>2018-10-13T17:51:01Z</time>
      </trkpt>
      <trkpt lat="38.11593739" lon="-2.66671003">
        <ele>1361.0000</ele>
        <time>2018-10-13T17:51:02Z</time>
      </trkpt>
      <trkpt lat="38.11590705" lon="-2.66658070">
        <ele>1362.0000</ele>
        <time>2018-10-13T17:51:05Z</time>
      </trkpt>
      <trkpt lat="38.11592641" lon="-2.66636964">
        <ele>1364.0000</ele>
        <time>2018-10-13T17:51:10Z</time>
      </trkpt>
      <trkpt lat="38.11597008" lon="-2.66618809">
        <ele>1365.0000</ele>
        <time>2018-10-13T17:51:15Z</time>
      </trkpt>
      <trkpt lat="38.11604225" lon="-2.66595725">
        <ele>1366.0000</ele>
        <time>2018-10-13T17:51:22Z</time>
      </trkpt>
      <trkpt lat="38.11609715" lon="-2.66576338">
        <ele>1367.0000</ele>
        <time>2018-10-13T17:51:28Z</time>
      </trkpt>
      <trkpt lat="38.11613269" lon="-2.66560832">
        <ele>1368.0000</ele>
        <time>2018-10-13T17:51:33Z</time>
      </trkpt>
      <trkpt lat="38.11614727" lon="-2.66541402">
        <ele>1369.0000</ele>
        <time>2018-10-13T17:51:39Z</time>
      </trkpt>
      <trkpt lat="38.11614744" lon="-2.66522828">
        <ele>1370.0000</ele>
        <time>2018-10-13T17:51:45Z</time>
      </trkpt>
      <trkpt lat="38.11614450" lon="-2.66508646">
        <ele>1372.0000</ele>
        <time>2018-10-13T17:51:50Z</time>
      </trkpt>
      <trkpt lat="38.11615389" lon="-2.66493542">
        <ele>1373.0000</ele>
        <time>2018-10-13T17:51:56Z</time>
      </trkpt>
      <trkpt lat="38.11614358" lon="-2.66478488">
        <ele>1374.0000</ele>
        <time>2018-10-13T17:52:01Z</time>
      </trkpt>
      <trkpt lat="38.11612782" lon="-2.66453376">
        <ele>1375.0000</ele>
        <time>2018-10-13T17:52:09Z</time>
      </trkpt>
      <trkpt lat="38.11611265" lon="-2.66436100">
        <ele>1376.0000</ele>
        <time>2018-10-13T17:52:15Z</time>
      </trkpt>
      <trkpt lat="38.11609924" lon="-2.66423771">
        <ele>1377.0000</ele>
        <time>2018-10-13T17:52:21Z</time>
      </trkpt>
      <trkpt lat="38.11604032" lon="-2.66400326">
        <ele>1378.0000</ele>
        <time>2018-10-13T17:52:29Z</time>
      </trkpt>
      <trkpt lat="38.11600503" lon="-2.66376237">
        <ele>1380.0000</ele>
        <time>2018-10-13T17:52:36Z</time>
      </trkpt>
      <trkpt lat="38.11600822" lon="-2.66359381">
        <ele>1381.0000</ele>
        <time>2018-10-13T17:52:42Z</time>
      </trkpt>
      <trkpt lat="38.11603026" lon="-2.66342441">
        <ele>1382.0000</ele>
        <time>2018-10-13T17:52:49Z</time>
      </trkpt>
      <trkpt lat="38.11606043" lon="-2.66328401">
        <ele>1383.0000</ele>
        <time>2018-10-13T17:52:55Z</time>
      </trkpt>
      <trkpt lat="38.11606949" lon="-2.66316751">
        <ele>1384.0000</ele>
        <time>2018-10-13T17:53:00Z</time>
      </trkpt>
      <trkpt lat="38.11607209" lon="-2.66314412">
        <ele>1384.0000</ele>
        <time>2018-10-13T17:53:01Z</time>
      </trkpt>
      <trkpt lat="38.11607552" lon="-2.66297036">
        <ele>1385.0000</ele>
        <time>2018-10-13T17:53:08Z</time>
      </trkpt>
      <trkpt lat="38.11607569" lon="-2.66279376">
        <ele>1386.0000</ele>
        <time>2018-10-13T17:53:15Z</time>
      </trkpt>
      <trkpt lat="38.11607250" lon="-2.66265713">
        <ele>1387.0000</ele>
        <time>2018-10-13T17:53:21Z</time>
      </trkpt>
      <trkpt lat="38.11606915" lon="-2.66247801">
        <ele>1388.0000</ele>
        <time>2018-10-13T17:53:28Z</time>
      </trkpt>
      <trkpt lat="38.11606630" lon="-2.66233979">
        <ele>1390.0000</ele>
        <time>2018-10-13T17:53:34Z</time>
      </trkpt>
      <trkpt lat="38.11605834" lon="-2.66215036">
        <ele>1391.0000</ele>
        <time>2018-10-13T17:53:41Z</time>
      </trkpt>
      <trkpt lat="38.11606178" lon="-2.66199664">
        <ele>1392.0000</ele>
        <time>2018-10-13T17:53:47Z</time>
      </trkpt>
      <trkpt lat="38.11607711" lon="-2.66184099">
        <ele>1393.0000</ele>
        <time>2018-10-13T17:53:53Z</time>
      </trkpt>
      <trkpt lat="38.11612984" lon="-2.66166572">
        <ele>1394.0000</ele>
        <time>2018-10-13T17:54:00Z</time>
      </trkpt>
      <trkpt lat="38.11618239" lon="-2.66152641">
        <ele>1395.0000</ele>
        <time>2018-10-13T17:54:06Z</time>
      </trkpt>
      <trkpt lat="38.11623813" lon="-2.66138576">
        <ele>1396.0000</ele>
        <time>2018-10-13T17:54:12Z</time>
      </trkpt>
      <trkpt lat="38.11632857" lon="-2.66117052">
        <ele>1398.0000</ele>
        <time>2018-10-13T17:54:19Z</time>
      </trkpt>
      <trkpt lat="38.11641365" lon="-2.66097539">
        <ele>1399.0000</ele>
        <time>2018-10-13T17:54:26Z</time>
      </trkpt>
      <trkpt lat="38.11645665" lon="-2.66086759">
        <ele>1400.0000</ele>
        <time>2018-10-13T17:54:30Z</time>
      </trkpt>
      <trkpt lat="38.11650853" lon="-2.66070809">
        <ele>1401.0000</ele>
        <time>2018-10-13T17:54:36Z</time>
      </trkpt>
      <trkpt lat="38.11653560" lon="-2.66053676">
        <ele>1402.0000</ele>
        <time>2018-10-13T17:54:42Z</time>
      </trkpt>
      <trkpt lat="38.11652680" lon="-2.66035982">
        <ele>1403.0000</ele>
        <time>2018-10-13T17:54:48Z</time>
      </trkpt>
      <trkpt lat="38.11646595" lon="-2.66014189">
        <ele>1404.0000</ele>
        <time>2018-10-13T17:54:56Z</time>
      </trkpt>
      <trkpt lat="38.11640485" lon="-2.65997073">
        <ele>1405.0000</ele>
        <time>2018-10-13T17:55:02Z</time>
      </trkpt>
      <trkpt lat="38.11634441" lon="-2.65983369">
        <ele>1405.0000</ele>
        <time>2018-10-13T17:55:06Z</time>
      </trkpt>
      <trkpt lat="38.11620536" lon="-2.65947871">
        <ele>1405.0000</ele>
        <time>2018-10-13T17:55:15Z</time>
      </trkpt>
      <trkpt lat="38.11615758" lon="-2.65937042">
        <ele>1405.0000</ele>
        <time>2018-10-13T17:55:18Z</time>
      </trkpt>
      <trkpt lat="38.11610025" lon="-2.65923891">
        <ele>1406.0000</ele>
        <time>2018-10-13T17:55:23Z</time>
      </trkpt>
      <trkpt lat="38.11601609" lon="-2.65902408">
        <ele>1406.0000</ele>
        <time>2018-10-13T17:55:29Z</time>
      </trkpt>
      <trkpt lat="38.11583815" lon="-2.65859115">
        <ele>1406.0000</ele>
        <time>2018-10-13T17:55:39Z</time>
      </trkpt>
      <trkpt lat="38.11570370" lon="-2.65831614">
        <ele>1406.0000</ele>
        <time>2018-10-13T17:55:45Z</time>
      </trkpt>
      <trkpt lat="38.11551469" lon="-2.65816669">
        <ele>1406.0000</ele>
        <time>2018-10-13T17:55:50Z</time>
      </trkpt>
      <trkpt lat="38.11535501" lon="-2.65812378">
        <ele>1406.0000</ele>
        <time>2018-10-13T17:55:54Z</time>
      </trkpt>
      <trkpt lat="38.11528176" lon="-2.65814247">
        <ele>1406.0000</ele>
        <time>2018-10-13T17:55:56Z</time>
      </trkpt>
      <trkpt lat="38.11521051" lon="-2.65816778">
        <ele>1406.0000</ele>
        <time>2018-10-13T17:55:58Z</time>
      </trkpt>
      <trkpt lat="38.11493768" lon="-2.65824615">
        <ele>1407.0000</ele>
        <time>2018-10-13T17:56:06Z</time>
      </trkpt>
      <trkpt lat="38.11474062" lon="-2.65823375">
        <ele>1408.0000</ele>
        <time>2018-10-13T17:56:12Z</time>
      </trkpt>
      <trkpt lat="38.11461372" lon="-2.65819268">
        <ele>1409.0000</ele>
        <time>2018-10-13T17:56:16Z</time>
      </trkpt>
      <trkpt lat="38.11458279" lon="-2.65818094">
        <ele>1409.0000</ele>
        <time>2018-10-13T17:56:17Z</time>
      </trkpt>
      <trkpt lat="38.11432513" lon="-2.65808790">
        <ele>1410.0000</ele>
        <time>2018-10-13T17:56:26Z</time>
      </trkpt>
      <trkpt lat="38.11416738" lon="-2.65801339">
        <ele>1411.0000</ele>
        <time>2018-10-13T17:56:32Z</time>
      </trkpt>
      <trkpt lat="38.11398977" lon="-2.65793384">
        <ele>1413.0000</ele>
        <time>2018-10-13T17:56:39Z</time>
      </trkpt>
      <trkpt lat="38.11382808" lon="-2.65786092">
        <ele>1414.0000</ele>
        <time>2018-10-13T17:56:46Z</time>
      </trkpt>
      <trkpt lat="38.11367503" lon="-2.65778901">
        <ele>1415.0000</ele>
        <time>2018-10-13T17:56:53Z</time>
      </trkpt>
      <trkpt lat="38.11355022" lon="-2.65774123">
        <ele>1416.0000</ele>
        <time>2018-10-13T17:56:59Z</time>
      </trkpt>
      <trkpt lat="38.11342290" lon="-2.65771441">
        <ele>1417.0000</ele>
        <time>2018-10-13T17:57:05Z</time>
      </trkpt>
      <trkpt lat="38.11327974" lon="-2.65766705">
        <ele>1418.0000</ele>
        <time>2018-10-13T17:57:12Z</time>
      </trkpt>
      <trkpt lat="38.11313565" lon="-2.65760368">
        <ele>1419.0000</ele>
        <time>2018-10-13T17:57:19Z</time>
      </trkpt>
      <trkpt lat="38.11299433" lon="-2.65753579">
        <ele>1420.0000</ele>
        <time>2018-10-13T17:57:25Z</time>
      </trkpt>
      <trkpt lat="38.11279719" lon="-2.65745482">
        <ele>1421.0000</ele>
        <time>2018-10-13T17:57:32Z</time>
      </trkpt>
      <trkpt lat="38.11265260" lon="-2.65739288">
        <ele>1422.0000</ele>
        <time>2018-10-13T17:57:38Z</time>
      </trkpt>
      <trkpt lat="38.11253819" lon="-2.65733839">
        <ele>1423.0000</ele>
        <time>2018-10-13T17:57:43Z</time>
      </trkpt>
      <trkpt lat="38.11242889" lon="-2.65727670">
        <ele>1424.0000</ele>
        <time>2018-10-13T17:57:48Z</time>
      </trkpt>
      <trkpt lat="38.11230937" lon="-2.65719146">
        <ele>1425.0000</ele>
        <time>2018-10-13T17:57:54Z</time>
      </trkpt>
      <trkpt lat="38.11217534" lon="-2.65709389">
        <ele>1426.0000</ele>
        <time>2018-10-13T17:58:01Z</time>
      </trkpt>
      <trkpt lat="38.11202874" lon="-2.65696280">
        <ele>1427.0000</ele>
        <time>2018-10-13T17:58:09Z</time>
      </trkpt>
      <trkpt lat="38.11193293" lon="-2.65686733">
        <ele>1428.0000</ele>
        <time>2018-10-13T17:58:14Z</time>
      </trkpt>
      <trkpt lat="38.11180251" lon="-2.65675527">
        <ele>1429.0000</ele>
        <time>2018-10-13T17:58:20Z</time>
      </trkpt>
      <trkpt lat="38.11168257" lon="-2.65666239">
        <ele>1430.0000</ele>
        <time>2018-10-13T17:58:26Z</time>
      </trkpt>
      <trkpt lat="38.11156547" lon="-2.65655376">
        <ele>1431.0000</ele>
        <time>2018-10-13T17:58:32Z</time>
      </trkpt>
      <trkpt lat="38.11145282" lon="-2.65646844">
        <ele>1432.0000</ele>
        <time>2018-10-13T17:58:38Z</time>
      </trkpt>
      <trkpt lat="38.11132047" lon="-2.65636291">
        <ele>1434.0000</ele>
        <time>2018-10-13T17:58:45Z</time>
      </trkpt>
      <trkpt lat="38.11119482" lon="-2.65626593">
        <ele>1435.0000</ele>
        <time>2018-10-13T17:58:52Z</time>
      </trkpt>
      <trkpt lat="38.11107337" lon="-2.65614976">
        <ele>1436.0000</ele>
        <time>2018-10-13T17:58:59Z</time>
      </trkpt>
      <trkpt lat="38.11097631" lon="-2.65605135">
        <ele>1437.0000</ele>
        <time>2018-10-13T17:59:05Z</time>
      </trkpt>
      <trkpt lat="38.11088712" lon="-2.65597533">
        <ele>1438.0000</ele>
        <time>2018-10-13T17:59:10Z</time>
      </trkpt>
      <trkpt lat="38.11078721" lon="-2.65585932">
        <ele>1439.0000</ele>
        <time>2018-10-13T17:59:17Z</time>
      </trkpt>
      <trkpt lat="38.11067188" lon="-2.65570350">
        <ele>1440.0000</ele>
        <time>2018-10-13T17:59:25Z</time>
      </trkpt>
      <trkpt lat="38.11060021" lon="-2.65556939">
        <ele>1441.0000</ele>
        <time>2018-10-13T17:59:31Z</time>
      </trkpt>
      <trkpt lat="38.11050097" lon="-2.65535624">
        <ele>1442.0000</ele>
        <time>2018-10-13T17:59:40Z</time>
      </trkpt>
      <trkpt lat="38.11043232" lon="-2.65517486">
        <ele>1443.0000</ele>
        <time>2018-10-13T17:59:47Z</time>
      </trkpt>
      <trkpt lat="38.11039988" lon="-2.65501577">
        <ele>1444.0000</ele>
        <time>2018-10-13T17:59:54Z</time>
      </trkpt>
      <trkpt lat="38.11038572" lon="-2.65480790">
        <ele>1446.0000</ele>
        <time>2018-10-13T18:00:03Z</time>
      </trkpt>
      <trkpt lat="38.11036543" lon="-2.65462031">
        <ele>1447.0000</ele>
        <time>2018-10-13T18:00:10Z</time>
      </trkpt>
      <trkpt lat="38.11036686" lon="-2.65438562">
        <ele>1448.0000</ele>
        <time>2018-10-13T18:00:18Z</time>
      </trkpt>
      <trkpt lat="38.11040315" lon="-2.65422552">
        <ele>1449.0000</ele>
        <time>2018-10-13T18:00:25Z</time>
      </trkpt>
      <trkpt lat="38.11046082" lon="-2.65405721">
        <ele>1450.0000</ele>
        <time>2018-10-13T18:00:32Z</time>
      </trkpt>
      <trkpt lat="38.11048052" lon="-2.65398379">
        <ele>1450.0000</ele>
        <time>2018-10-13T18:00:35Z</time>
      </trkpt>
      <trkpt lat="38.11051849" lon="-2.65391673">
        <ele>1451.0000</ele>
        <time>2018-10-13T18:00:38Z</time>
      </trkpt>
      <trkpt lat="38.11053601" lon="-2.65386879">
        <ele>1451.0000</ele>
        <time>2018-10-13T18:00:40Z</time>
      </trkpt>
      <trkpt lat="38.11058923" lon="-2.65373636">
        <ele>1452.0000</ele>
        <time>2018-10-13T18:00:46Z</time>
      </trkpt>
      <trkpt lat="38.11068604" lon="-2.65352161">
        <ele>1453.0000</ele>
        <time>2018-10-13T18:00:55Z</time>
      </trkpt>
      <trkpt lat="38.11075938" lon="-2.65338440">
        <ele>1454.0000</ele>
        <time>2018-10-13T18:01:02Z</time>
      </trkpt>
      <trkpt lat="38.11083231" lon="-2.65330217">
        <ele>1455.0000</ele>
        <time>2018-10-13T18:01:07Z</time>
      </trkpt>
      <trkpt lat="38.11091797" lon="-2.65314979">
        <ele>1456.0000</ele>
        <time>2018-10-13T18:01:12Z</time>
      </trkpt>
      <trkpt lat="38.11099483" lon="-2.65306580">
        <ele>1456.0000</ele>
        <time>2018-10-13T18:01:15Z</time>
      </trkpt>
      <trkpt lat="38.11111645" lon="-2.65295701">
        <ele>1457.0000</ele>
        <time>2018-10-13T18:01:21Z</time>
      </trkpt>
      <trkpt lat="38.11122240" lon="-2.65281275">
        <ele>1458.0000</ele>
        <time>2018-10-13T18:01:28Z</time>
      </trkpt>
      <trkpt lat="38.11131611" lon="-2.65268359">
        <ele>1459.0000</ele>
        <time>2018-10-13T18:01:34Z</time>
      </trkpt>
      <trkpt lat="38.11137855" lon="-2.65250782">
        <ele>1461.0000</ele>
        <time>2018-10-13T18:01:41Z</time>
      </trkpt>
      <trkpt lat="38.11144150" lon="-2.65232845">
        <ele>1462.0000</ele>
        <time>2018-10-13T18:01:49Z</time>
      </trkpt>
      <trkpt lat="38.11149976" lon="-2.65215578">
        <ele>1463.0000</ele>
        <time>2018-10-13T18:01:56Z</time>
      </trkpt>
      <trkpt lat="38.11159514" lon="-2.65195822">
        <ele>1464.0000</ele>
        <time>2018-10-13T18:02:04Z</time>
      </trkpt>
      <trkpt lat="38.11162465" lon="-2.65182679">
        <ele>1464.0000</ele>
        <time>2018-10-13T18:02:08Z</time>
      </trkpt>
      <trkpt lat="38.11166128" lon="-2.65169855">
        <ele>1465.0000</ele>
        <time>2018-10-13T18:02:12Z</time>
      </trkpt>
      <trkpt lat="38.11175633" lon="-2.65150350">
        <ele>1466.0000</ele>
        <time>2018-10-13T18:02:19Z</time>
      </trkpt>
      <trkpt lat="38.11179530" lon="-2.65140216">
        <ele>1467.0000</ele>
        <time>2018-10-13T18:02:23Z</time>
      </trkpt>
      <trkpt lat="38.11181232" lon="-2.65134885">
        <ele>1467.0000</ele>
        <time>2018-10-13T18:02:25Z</time>
      </trkpt>
      <trkpt lat="38.11182824" lon="-2.65132530">
        <ele>1467.0000</ele>
        <time>2018-10-13T18:02:26Z</time>
      </trkpt>
      <trkpt lat="38.11189421" lon="-2.65116428">
        <ele>1469.0000</ele>
        <time>2018-10-13T18:02:32Z</time>
      </trkpt>
      <trkpt lat="38.11194450" lon="-2.65100670">
        <ele>1470.0000</ele>
        <time>2018-10-13T18:02:38Z</time>
      </trkpt>
      <trkpt lat="38.11201483" lon="-2.65082281">
        <ele>1471.0000</ele>
        <time>2018-10-13T18:02:45Z</time>
      </trkpt>
      <trkpt lat="38.11202849" lon="-2.65077595">
        <ele>1471.0000</ele>
        <time>2018-10-13T18:02:47Z</time>
      </trkpt>
      <trkpt lat="38.11207610" lon="-2.65068216">
        <ele>1472.0000</ele>
        <time>2018-10-13T18:02:51Z</time>
      </trkpt>
      <trkpt lat="38.11214751" lon="-2.65052617">
        <ele>1473.0000</ele>
        <time>2018-10-13T18:02:58Z</time>
      </trkpt>
      <trkpt lat="38.11222605" lon="-2.65031897">
        <ele>1474.0000</ele>
        <time>2018-10-13T18:03:06Z</time>
      </trkpt>
      <trkpt lat="38.11230358" lon="-2.65014823">
        <ele>1475.0000</ele>
        <time>2018-10-13T18:03:13Z</time>
      </trkpt>
      <trkpt lat="38.11239553" lon="-2.64999048">
        <ele>1476.0000</ele>
        <time>2018-10-13T18:03:20Z</time>
      </trkpt>
      <trkpt lat="38.11248580" lon="-2.64986576">
        <ele>1478.0000</ele>
        <time>2018-10-13T18:03:26Z</time>
      </trkpt>
      <trkpt lat="38.11262226" lon="-2.64970374">
        <ele>1479.0000</ele>
        <time>2018-10-13T18:03:35Z</time>
      </trkpt>
      <trkpt lat="38.11272519" lon="-2.64956166">
        <ele>1480.0000</ele>
        <time>2018-10-13T18:03:42Z</time>
      </trkpt>
      <trkpt lat="38.11283801" lon="-2.64944423">
        <ele>1481.0000</ele>
        <time>2018-10-13T18:03:49Z</time>
      </trkpt>
      <trkpt lat="38.11296676" lon="-2.64933519">
        <ele>1482.0000</ele>
        <time>2018-10-13T18:03:56Z</time>
      </trkpt>
      <trkpt lat="38.11311839" lon="-2.64919772">
        <ele>1483.0000</ele>
        <time>2018-10-13T18:04:04Z</time>
      </trkpt>
      <trkpt lat="38.11331360" lon="-2.64903595">
        <ele>1484.0000</ele>
        <time>2018-10-13T18:04:14Z</time>
      </trkpt>
      <trkpt lat="38.11340848" lon="-2.64893805">
        <ele>1485.0000</ele>
        <time>2018-10-13T18:04:20Z</time>
      </trkpt>
      <trkpt lat="38.11355282" lon="-2.64883445">
        <ele>1486.0000</ele>
        <time>2018-10-13T18:04:28Z</time>
      </trkpt>
      <trkpt lat="38.11366925" lon="-2.64873479">
        <ele>1487.0000</ele>
        <time>2018-10-13T18:04:35Z</time>
      </trkpt>
      <trkpt lat="38.11382624" lon="-2.64860755">
        <ele>1488.0000</ele>
        <time>2018-10-13T18:04:42Z</time>
      </trkpt>
      <trkpt lat="38.11397829" lon="-2.64847897">
        <ele>1489.0000</ele>
        <time>2018-10-13T18:04:50Z</time>
      </trkpt>
      <trkpt lat="38.11410158" lon="-2.64836900">
        <ele>1490.0000</ele>
        <time>2018-10-13T18:04:56Z</time>
      </trkpt>
      <trkpt lat="38.11418473" lon="-2.64822995">
        <ele>1491.0000</ele>
        <time>2018-10-13T18:05:02Z</time>
      </trkpt>
      <trkpt lat="38.11427576" lon="-2.64804027">
        <ele>1492.0000</ele>
        <time>2018-10-13T18:05:10Z</time>
      </trkpt>
      <trkpt lat="38.11433468" lon="-2.64786844">
        <ele>1493.0000</ele>
        <time>2018-10-13T18:05:16Z</time>
      </trkpt>
      <trkpt lat="38.11437978" lon="-2.64774908">
        <ele>1494.0000</ele>
        <time>2018-10-13T18:05:20Z</time>
      </trkpt>
      <trkpt lat="38.11439202" lon="-2.64764782">
        <ele>1495.0000</ele>
        <time>2018-10-13T18:05:23Z</time>
      </trkpt>
      <trkpt lat="38.11437978" lon="-2.64740508">
        <ele>1496.0000</ele>
        <time>2018-10-13T18:05:30Z</time>
      </trkpt>
      <trkpt lat="38.11436419" lon="-2.64724038">
        <ele>1497.0000</ele>
        <time>2018-10-13T18:05:35Z</time>
      </trkpt>
      <trkpt lat="38.11435874" lon="-2.64704190">
        <ele>1498.0000</ele>
        <time>2018-10-13T18:05:41Z</time>
      </trkpt>
      <trkpt lat="38.11434248" lon="-2.64680947">
        <ele>1499.0000</ele>
        <time>2018-10-13T18:05:49Z</time>
      </trkpt>
      <trkpt lat="38.11431960" lon="-2.64661643">
        <ele>1500.0000</ele>
        <time>2018-10-13T18:05:56Z</time>
      </trkpt>
      <trkpt lat="38.11427098" lon="-2.64643823">
        <ele>1501.0000</ele>
        <time>2018-10-13T18:06:02Z</time>
      </trkpt>
      <trkpt lat="38.11419253" lon="-2.64613238">
        <ele>1502.0000</ele>
        <time>2018-10-13T18:06:12Z</time>
      </trkpt>
      <trkpt lat="38.11417191" lon="-2.64606457">
        <ele>1502.0000</ele>
        <time>2018-10-13T18:06:14Z</time>
      </trkpt>
      <trkpt lat="38.11412983" lon="-2.64587723">
        <ele>1503.0000</ele>
        <time>2018-10-13T18:06:21Z</time>
      </trkpt>
      <trkpt lat="38.11412908" lon="-2.64585192">
        <ele>1503.0000</ele>
        <time>2018-10-13T18:06:22Z</time>
      </trkpt>
      <trkpt lat="38.11413997" lon="-2.64560935">
        <ele>1504.0000</ele>
        <time>2018-10-13T18:06:28Z</time>
      </trkpt>
      <trkpt lat="38.11415556" lon="-2.64544162">
        <ele>1504.0000</ele>
        <time>2018-10-13T18:06:32Z</time>
      </trkpt>
      <trkpt lat="38.11423377" lon="-2.64487308">
        <ele>1504.0000</ele>
        <time>2018-10-13T18:06:44Z</time>
      </trkpt>
      <trkpt lat="38.11422555" lon="-2.64476386">
        <ele>1504.0000</ele>
        <time>2018-10-13T18:06:46Z</time>
      </trkpt>
      <trkpt lat="38.11421482" lon="-2.64470712">
        <ele>1504.0000</ele>
        <time>2018-10-13T18:06:47Z</time>
      </trkpt>
      <trkpt lat="38.11417509" lon="-2.64456479">
        <ele>1504.0000</ele>
        <time>2018-10-13T18:06:49Z</time>
      </trkpt>
      <trkpt lat="38.11408717" lon="-2.64430554">
        <ele>1503.0000</ele>
        <time>2018-10-13T18:06:52Z</time>
      </trkpt>
      <trkpt lat="38.11399631" lon="-2.64413597">
        <ele>1502.0000</ele>
        <time>2018-10-13T18:06:54Z</time>
      </trkpt>
      <trkpt lat="38.11388726" lon="-2.64396800">
        <ele>1501.0000</ele>
        <time>2018-10-13T18:06:56Z</time>
      </trkpt>
      <trkpt lat="38.11375893" lon="-2.64382350">
        <ele>1500.0000</ele>
        <time>2018-10-13T18:06:58Z</time>
      </trkpt>
      <trkpt lat="38.11361233" lon="-2.64372392">
        <ele>1498.0000</ele>
        <time>2018-10-13T18:07:00Z</time>
      </trkpt>
      <trkpt lat="38.11347026" lon="-2.64363205">
        <ele>1497.0000</ele>
        <time>2018-10-13T18:07:02Z</time>
      </trkpt>
      <trkpt lat="38.11320950" lon="-2.64344120">
        <ele>1496.0000</ele>
        <time>2018-10-13T18:07:06Z</time>
      </trkpt>
      <trkpt lat="38.11300171" lon="-2.64324850">
        <ele>1496.0000</ele>
        <time>2018-10-13T18:07:11Z</time>
      </trkpt>
      <trkpt lat="38.11289208" lon="-2.64309687">
        <ele>1497.0000</ele>
        <time>2018-10-13T18:07:16Z</time>
      </trkpt>
      <trkpt lat="38.11285411" lon="-2.64302403">
        <ele>1498.0000</ele>
        <time>2018-10-13T18:07:18Z</time>
      </trkpt>
      <trkpt lat="38.11283432" lon="-2.64295195">
        <ele>1499.0000</ele>
        <time>2018-10-13T18:07:20Z</time>
      </trkpt>
      <trkpt lat="38.11278705" lon="-2.64285933">
        <ele>1500.0000</ele>
        <time>2018-10-13T18:07:23Z</time>
      </trkpt>
      <trkpt lat="38.11272209" lon="-2.64274986">
        <ele>1502.0000</ele>
        <time>2018-10-13T18:07:27Z</time>
      </trkpt>
      <trkpt lat="38.11264389" lon="-2.64262975">
        <ele>1503.0000</ele>
        <time>2018-10-13T18:07:32Z</time>
      </trkpt>
      <trkpt lat="38.11260692" lon="-2.64257149">
        <ele>1503.0000</ele>
        <time>2018-10-13T18:07:35Z</time>
      </trkpt>
      <trkpt lat="38.11257826" lon="-2.64253277">
        <ele>1504.0000</ele>
        <time>2018-10-13T18:07:37Z</time>
      </trkpt>
      <trkpt lat="38.11251095" lon="-2.64245574">
        <ele>1505.0000</ele>
        <time>2018-10-13T18:07:42Z</time>
      </trkpt>
      <trkpt lat="38.11243216" lon="-2.64236622">
        <ele>1506.0000</ele>
        <time>2018-10-13T18:07:47Z</time>
      </trkpt>
      <trkpt lat="38.11234197" lon="-2.64223379">
        <ele>1507.0000</ele>
        <time>2018-10-13T18:07:53Z</time>
      </trkpt>
      <trkpt lat="38.11226938" lon="-2.64210135">
        <ele>1508.0000</ele>
        <time>2018-10-13T18:07:59Z</time>
      </trkpt>
      <trkpt lat="38.11221691" lon="-2.64196808">
        <ele>1509.0000</ele>
        <time>2018-10-13T18:08:05Z</time>
      </trkpt>
      <trkpt lat="38.11215908" lon="-2.64182517">
        <ele>1511.0000</ele>
        <time>2018-10-13T18:08:12Z</time>
      </trkpt>
      <trkpt lat="38.11208792" lon="-2.64166641">
        <ele>1512.0000</ele>
        <time>2018-10-13T18:08:19Z</time>
      </trkpt>
      <trkpt lat="38.11201147" lon="-2.64150448">
        <ele>1513.0000</ele>
        <time>2018-10-13T18:08:26Z</time>
      </trkpt>
      <trkpt lat="38.11193084" lon="-2.64135511">
        <ele>1514.0000</ele>
        <time>2018-10-13T18:08:33Z</time>
      </trkpt>
      <trkpt lat="38.11181534" lon="-2.64113131">
        <ele>1515.0000</ele>
        <time>2018-10-13T18:08:42Z</time>
      </trkpt>
      <trkpt lat="38.11174493" lon="-2.64097390">
        <ele>1516.0000</ele>
        <time>2018-10-13T18:08:47Z</time>
      </trkpt>
      <trkpt lat="38.11169154" lon="-2.64073586">
        <ele>1516.0000</ele>
        <time>2018-10-13T18:08:54Z</time>
      </trkpt>
      <trkpt lat="38.11167502" lon="-2.64059831">
        <ele>1516.0000</ele>
        <time>2018-10-13T18:08:58Z</time>
      </trkpt>
      <trkpt lat="38.11165482" lon="-2.64039924">
        <ele>1516.0000</ele>
        <time>2018-10-13T18:09:03Z</time>
      </trkpt>
      <trkpt lat="38.11165122" lon="-2.64010143">
        <ele>1516.0000</ele>
        <time>2018-10-13T18:09:11Z</time>
      </trkpt>
      <trkpt lat="38.11164493" lon="-2.63992105">
        <ele>1516.0000</ele>
        <time>2018-10-13T18:09:14Z</time>
      </trkpt>
      <trkpt lat="38.11158743" lon="-2.63972123">
        <ele>1516.0000</ele>
        <time>2018-10-13T18:09:17Z</time>
      </trkpt>
      <trkpt lat="38.11151191" lon="-2.63950623">
        <ele>1515.0000</ele>
        <time>2018-10-13T18:09:21Z</time>
      </trkpt>
      <trkpt lat="38.11144192" lon="-2.63931571">
        <ele>1515.0000</ele>
        <time>2018-10-13T18:09:24Z</time>
      </trkpt>
      <trkpt lat="38.11126297" lon="-2.63894188">
        <ele>1515.0000</ele>
        <time>2018-10-13T18:09:32Z</time>
      </trkpt>
      <trkpt lat="38.11121880" lon="-2.63885638">
        <ele>1515.0000</ele>
        <time>2018-10-13T18:09:34Z</time>
      </trkpt>
      <trkpt lat="38.11115451" lon="-2.63872219">
        <ele>1515.0000</ele>
        <time>2018-10-13T18:09:37Z</time>
      </trkpt>
      <trkpt lat="38.11112106" lon="-2.63863963">
        <ele>1516.0000</ele>
        <time>2018-10-13T18:09:39Z</time>
      </trkpt>
      <trkpt lat="38.11108728" lon="-2.63855271">
        <ele>1516.0000</ele>
        <time>2018-10-13T18:09:41Z</time>
      </trkpt>
      <trkpt lat="38.11103096" lon="-2.63838884">
        <ele>1517.0000</ele>
        <time>2018-10-13T18:09:45Z</time>
      </trkpt>
      <trkpt lat="38.11097304" lon="-2.63818918">
        <ele>1518.0000</ele>
        <time>2018-10-13T18:09:50Z</time>
      </trkpt>
      <trkpt lat="38.11091755" lon="-2.63796949">
        <ele>1520.0000</ele>
        <time>2018-10-13T18:09:56Z</time>
      </trkpt>
      <trkpt lat="38.11089274" lon="-2.63772189">
        <ele>1521.0000</ele>
        <time>2018-10-13T18:10:02Z</time>
      </trkpt>
      <trkpt lat="38.11084765" lon="-2.63744730">
        <ele>1522.0000</ele>
        <time>2018-10-13T18:10:09Z</time>
      </trkpt>
      <trkpt lat="38.11078520" lon="-2.63719241">
        <ele>1523.0000</ele>
        <time>2018-10-13T18:10:16Z</time>
      </trkpt>
      <trkpt lat="38.11073943" lon="-2.63701932">
        <ele>1524.0000</ele>
        <time>2018-10-13T18:10:21Z</time>
      </trkpt>
      <trkpt lat="38.11064841" lon="-2.63666166">
        <ele>1525.0000</ele>
        <time>2018-10-13T18:10:31Z</time>
      </trkpt>
      <trkpt lat="38.11059325" lon="-2.63644566">
        <ele>1526.0000</ele>
        <time>2018-10-13T18:10:37Z</time>
      </trkpt>
      <trkpt lat="38.11053374" lon="-2.63624148">
        <ele>1526.0000</ele>
        <time>2018-10-13T18:10:43Z</time>
      </trkpt>
      <trkpt lat="38.11046082" lon="-2.63597183">
        <ele>1527.0000</ele>
        <time>2018-10-13T18:10:51Z</time>
      </trkpt>
      <trkpt lat="38.11036183" lon="-2.63562533">
        <ele>1528.0000</ele>
        <time>2018-10-13T18:11:02Z</time>
      </trkpt>
      <trkpt lat="38.11031757" lon="-2.63545291">
        <ele>1529.0000</ele>
        <time>2018-10-13T18:11:08Z</time>
      </trkpt>
      <trkpt lat="38.11024465" lon="-2.63519492">
        <ele>1530.0000</ele>
        <time>2018-10-13T18:11:17Z</time>
      </trkpt>
      <trkpt lat="38.11017567" lon="-2.63494337">
        <ele>1531.0000</ele>
        <time>2018-10-13T18:11:24Z</time>
      </trkpt>
      <trkpt lat="38.11013460" lon="-2.63479149">
        <ele>1531.0000</ele>
        <time>2018-10-13T18:11:28Z</time>
      </trkpt>
      <trkpt lat="38.11006871" lon="-2.63455186">
        <ele>1532.0000</ele>
        <time>2018-10-13T18:11:35Z</time>
      </trkpt>
      <trkpt lat="38.11001641" lon="-2.63436335">
        <ele>1533.0000</ele>
        <time>2018-10-13T18:11:41Z</time>
      </trkpt>
      <trkpt lat="38.10996285" lon="-2.63415983">
        <ele>1534.0000</ele>
        <time>2018-10-13T18:11:48Z</time>
      </trkpt>
      <trkpt lat="38.10989261" lon="-2.63390905">
        <ele>1535.0000</ele>
        <time>2018-10-13T18:11:56Z</time>
      </trkpt>
      <trkpt lat="38.10983411" lon="-2.63367016">
        <ele>1537.0000</ele>
        <time>2018-10-13T18:12:04Z</time>
      </trkpt>
      <trkpt lat="38.10978390" lon="-2.63351216">
        <ele>1537.0000</ele>
        <time>2018-10-13T18:12:10Z</time>
      </trkpt>
      <trkpt lat="38.10973587" lon="-2.63334880">
        <ele>1538.0000</ele>
        <time>2018-10-13T18:12:17Z</time>
      </trkpt>
      <trkpt lat="38.10969103" lon="-2.63319625">
        <ele>1540.0000</ele>
        <time>2018-10-13T18:12:24Z</time>
      </trkpt>
      <trkpt lat="38.10964845" lon="-2.63305158">
        <ele>1541.0000</ele>
        <time>2018-10-13T18:12:31Z</time>
      </trkpt>
      <trkpt lat="38.10962615" lon="-2.63295200">
        <ele>1542.0000</ele>
        <time>2018-10-13T18:12:36Z</time>
      </trkpt>
      <trkpt lat="38.10958516" lon="-2.63279660">
        <ele>1543.0000</ele>
        <time>2018-10-13T18:12:43Z</time>
      </trkpt>
      <trkpt lat="38.10955122" lon="-2.63270197">
        <ele>1543.0000</ele>
        <time>2018-10-13T18:12:47Z</time>
      </trkpt>
      <trkpt lat="38.10952917" lon="-2.63262653">
        <ele>1544.0000</ele>
        <time>2018-10-13T18:12:50Z</time>
      </trkpt>
      <trkpt lat="38.10948567" lon="-2.63245311">
        <ele>1545.0000</ele>
        <time>2018-10-13T18:12:57Z</time>
      </trkpt>
      <trkpt lat="38.10944326" lon="-2.63232378">
        <ele>1546.0000</ele>
        <time>2018-10-13T18:13:02Z</time>
      </trkpt>
      <trkpt lat="38.10940411" lon="-2.63217877">
        <ele>1547.0000</ele>
        <time>2018-10-13T18:13:08Z</time>
      </trkpt>
      <trkpt lat="38.10938023" lon="-2.63209135">
        <ele>1548.0000</ele>
        <time>2018-10-13T18:13:12Z</time>
      </trkpt>
      <trkpt lat="38.10934091" lon="-2.63193880">
        <ele>1549.0000</ele>
        <time>2018-10-13T18:13:19Z</time>
      </trkpt>
      <trkpt lat="38.10929146" lon="-2.63176638">
        <ele>1550.0000</ele>
        <time>2018-10-13T18:13:27Z</time>
      </trkpt>
      <trkpt lat="38.10926489" lon="-2.63163043">
        <ele>1551.0000</ele>
        <time>2018-10-13T18:13:33Z</time>
      </trkpt>
      <trkpt lat="38.10923237" lon="-2.63150277">
        <ele>1552.0000</ele>
        <time>2018-10-13T18:13:39Z</time>
      </trkpt>
      <trkpt lat="38.10919775" lon="-2.63132231">
        <ele>1553.0000</ele>
        <time>2018-10-13T18:13:47Z</time>
      </trkpt>
      <trkpt lat="38.10917403" lon="-2.63114210">
        <ele>1554.0000</ele>
        <time>2018-10-13T18:13:55Z</time>
      </trkpt>
      <trkpt lat="38.10916841" lon="-2.63096516">
        <ele>1555.0000</ele>
        <time>2018-10-13T18:14:03Z</time>
      </trkpt>
      <trkpt lat="38.10917353" lon="-2.63080992">
        <ele>1556.0000</ele>
        <time>2018-10-13T18:14:10Z</time>
      </trkpt>
      <trkpt lat="38.10919825" lon="-2.63060272">
        <ele>1557.0000</ele>
        <time>2018-10-13T18:14:19Z</time>
      </trkpt>
      <trkpt lat="38.10925156" lon="-2.63036048">
        <ele>1559.0000</ele>
        <time>2018-10-13T18:14:30Z</time>
      </trkpt>
      <trkpt lat="38.10930605" lon="-2.63018966">
        <ele>1559.0000</ele>
        <time>2018-10-13T18:14:38Z</time>
      </trkpt>
      <trkpt lat="38.10936958" lon="-2.63003082">
        <ele>1560.0000</ele>
        <time>2018-10-13T18:14:46Z</time>
      </trkpt>
      <trkpt lat="38.10942909" lon="-2.62989060">
        <ele>1562.0000</ele>
        <time>2018-10-13T18:14:53Z</time>
      </trkpt>
      <trkpt lat="38.10952490" lon="-2.62968633">
        <ele>1563.0000</ele>
        <time>2018-10-13T18:15:03Z</time>
      </trkpt>
      <trkpt lat="38.10962045" lon="-2.62947930">
        <ele>1563.0000</ele>
        <time>2018-10-13T18:15:13Z</time>
      </trkpt>
      <trkpt lat="38.10963939" lon="-2.62943931">
        <ele>1563.0000</ele>
        <time>2018-10-13T18:15:15Z</time>
      </trkpt>
      <trkpt lat="38.10974668" lon="-2.62920454">
        <ele>1564.0000</ele>
        <time>2018-10-13T18:15:26Z</time>
      </trkpt>
      <trkpt lat="38.10987224" lon="-2.62894344">
        <ele>1566.0000</ele>
        <time>2018-10-13T18:15:36Z</time>
      </trkpt>
      <trkpt lat="38.10998397" lon="-2.62871813">
        <ele>1566.0000</ele>
        <time>2018-10-13T18:15:45Z</time>
      </trkpt>
      <trkpt lat="38.11007115" lon="-2.62853382">
        <ele>1567.0000</ele>
        <time>2018-10-13T18:15:52Z</time>
      </trkpt>
      <trkpt lat="38.11013418" lon="-2.62841236">
        <ele>1567.0000</ele>
        <time>2018-10-13T18:15:56Z</time>
      </trkpt>
      <trkpt lat="38.11020844" lon="-2.62827029">
        <ele>1568.0000</ele>
        <time>2018-10-13T18:16:00Z</time>
      </trkpt>
      <trkpt lat="38.11029938" lon="-2.62809410">
        <ele>1568.0000</ele>
        <time>2018-10-13T18:16:05Z</time>
      </trkpt>
      <trkpt lat="38.11037993" lon="-2.62795982">
        <ele>1569.0000</ele>
        <time>2018-10-13T18:16:09Z</time>
      </trkpt>
      <trkpt lat="38.11052343" lon="-2.62774391">
        <ele>1570.0000</ele>
        <time>2018-10-13T18:16:16Z</time>
      </trkpt>
      <trkpt lat="38.11078344" lon="-2.62744928">
        <ele>1570.0000</ele>
        <time>2018-10-13T18:16:27Z</time>
      </trkpt>
      <trkpt lat="38.11093046" lon="-2.62730796">
        <ele>1571.0000</ele>
        <time>2018-10-13T18:16:33Z</time>
      </trkpt>
      <trkpt lat="38.11103465" lon="-2.62721249">
        <ele>1572.0000</ele>
        <time>2018-10-13T18:16:37Z</time>
      </trkpt>
      <trkpt lat="38.11120765" lon="-2.62706095">
        <ele>1572.0000</ele>
        <time>2018-10-13T18:16:44Z</time>
      </trkpt>
      <trkpt lat="38.11126305" lon="-2.62700655">
        <ele>1572.0000</ele>
        <time>2018-10-13T18:16:47Z</time>
      </trkpt>
      <trkpt lat="38.11129147" lon="-2.62698199">
        <ele>1572.0000</ele>
        <time>2018-10-13T18:16:50Z</time>
      </trkpt>
      <trkpt lat="38.11131100" lon="-2.62696405">
        <ele>1572.0000</ele>
        <time>2018-10-13T18:19:07Z</time>
      </trkpt>
      <trkpt lat="38.11144351" lon="-2.62685677">
        <ele>1572.0000</ele>
        <time>2018-10-13T18:19:13Z</time>
      </trkpt>
      <trkpt lat="38.11152432" lon="-2.62678736">
        <ele>1572.0000</ele>
        <time>2018-10-13T18:19:16Z</time>
      </trkpt>
      <trkpt lat="38.11180151" lon="-2.62653959">
        <ele>1572.0000</ele>
        <time>2018-10-13T18:19:25Z</time>
      </trkpt>
      <trkpt lat="38.11222211" lon="-2.62615562">
        <ele>1572.0000</ele>
        <time>2018-10-13T18:19:39Z</time>
      </trkpt>
      <trkpt lat="38.11238950" lon="-2.62599737">
        <ele>1572.0000</ele>
        <time>2018-10-13T18:19:48Z</time>
      </trkpt>
      <trkpt lat="38.11241204" lon="-2.62598413">
        <ele>1573.0000</ele>
        <time>2018-10-13T18:20:38Z</time>
      </trkpt>
      <trkpt lat="38.11249243" lon="-2.62591187">
        <ele>1572.0000</ele>
        <time>2018-10-13T18:20:42Z</time>
      </trkpt>
      <trkpt lat="38.11262947" lon="-2.62578941">
        <ele>1572.0000</ele>
        <time>2018-10-13T18:20:47Z</time>
      </trkpt>
      <trkpt lat="38.11271597" lon="-2.62571859">
        <ele>1572.0000</ele>
        <time>2018-10-13T18:20:50Z</time>
      </trkpt>
      <trkpt lat="38.11277322" lon="-2.62565916">
        <ele>1572.0000</ele>
        <time>2018-10-13T18:20:52Z</time>
      </trkpt>
      <trkpt lat="38.11295050" lon="-2.62549948">
        <ele>1572.0000</ele>
        <time>2018-10-13T18:20:57Z</time>
      </trkpt>
      <trkpt lat="38.11333757" lon="-2.62515172">
        <ele>1571.0000</ele>
        <time>2018-10-13T18:21:05Z</time>
      </trkpt>
      <trkpt lat="38.11351560" lon="-2.62499188">
        <ele>1570.0000</ele>
        <time>2018-10-13T18:21:08Z</time>
      </trkpt>
      <trkpt lat="38.11370780" lon="-2.62481753">
        <ele>1569.0000</ele>
        <time>2018-10-13T18:21:11Z</time>
      </trkpt>
      <trkpt lat="38.11397938" lon="-2.62454722">
        <ele>1567.0000</ele>
        <time>2018-10-13T18:21:15Z</time>
      </trkpt>
      <trkpt lat="38.11410980" lon="-2.62438612">
        <ele>1566.0000</ele>
        <time>2018-10-13T18:21:17Z</time>
      </trkpt>
      <trkpt lat="38.11423150" lon="-2.62421001">
        <ele>1565.0000</ele>
        <time>2018-10-13T18:21:19Z</time>
      </trkpt>
      <trkpt lat="38.11428640" lon="-2.62411681">
        <ele>1565.0000</ele>
        <time>2018-10-13T18:21:20Z</time>
      </trkpt>
      <trkpt lat="38.11438213" lon="-2.62392142">
        <ele>1564.0000</ele>
        <time>2018-10-13T18:21:22Z</time>
      </trkpt>
      <trkpt lat="38.11446486" lon="-2.62371942">
        <ele>1562.0000</ele>
        <time>2018-10-13T18:21:24Z</time>
      </trkpt>
      <trkpt lat="38.11457172" lon="-2.62340912">
        <ele>1561.0000</ele>
        <time>2018-10-13T18:21:27Z</time>
      </trkpt>
      <trkpt lat="38.11482335" lon="-2.62268568">
        <ele>1560.0000</ele>
        <time>2018-10-13T18:21:34Z</time>
      </trkpt>
      <trkpt lat="38.11491195" lon="-2.62248686">
        <ele>1560.0000</ele>
        <time>2018-10-13T18:21:36Z</time>
      </trkpt>
      <trkpt lat="38.11516324" lon="-2.62202636">
        <ele>1560.0000</ele>
        <time>2018-10-13T18:21:41Z</time>
      </trkpt>
      <trkpt lat="38.11533297" lon="-2.62177926">
        <ele>1559.0000</ele>
        <time>2018-10-13T18:21:44Z</time>
      </trkpt>
      <trkpt lat="38.11544998" lon="-2.62161942">
        <ele>1558.0000</ele>
        <time>2018-10-13T18:21:46Z</time>
      </trkpt>
      <trkpt lat="38.11563874" lon="-2.62137743">
        <ele>1557.0000</ele>
        <time>2018-10-13T18:21:49Z</time>
      </trkpt>
      <trkpt lat="38.11605725" lon="-2.62083152">
        <ele>1556.0000</ele>
        <time>2018-10-13T18:21:55Z</time>
      </trkpt>
      <trkpt lat="38.11613369" lon="-2.62073286">
        <ele>1555.0000</ele>
        <time>2018-10-13T18:21:56Z</time>
      </trkpt>
      <trkpt lat="38.11629094" lon="-2.62052709">
        <ele>1554.0000</ele>
        <time>2018-10-13T18:21:58Z</time>
      </trkpt>
      <trkpt lat="38.11645673" lon="-2.62031226">
        <ele>1552.0000</ele>
        <time>2018-10-13T18:22:00Z</time>
      </trkpt>
      <trkpt lat="38.11662688" lon="-2.62008897">
        <ele>1551.0000</ele>
        <time>2018-10-13T18:22:02Z</time>
      </trkpt>
      <trkpt lat="38.11688655" lon="-2.61973240">
        <ele>1550.0000</ele>
        <time>2018-10-13T18:22:05Z</time>
      </trkpt>
      <trkpt lat="38.11705319" lon="-2.61948069">
        <ele>1548.0000</ele>
        <time>2018-10-13T18:22:07Z</time>
      </trkpt>
      <trkpt lat="38.11713089" lon="-2.61935010">
        <ele>1546.0000</ele>
        <time>2018-10-13T18:22:08Z</time>
      </trkpt>
      <trkpt lat="38.11720364" lon="-2.61921549">
        <ele>1545.0000</ele>
        <time>2018-10-13T18:22:09Z</time>
      </trkpt>
      <trkpt lat="38.11733230" lon="-2.61893855">
        <ele>1543.0000</ele>
        <time>2018-10-13T18:22:11Z</time>
      </trkpt>
      <trkpt lat="38.11738821" lon="-2.61879798">
        <ele>1542.0000</ele>
        <time>2018-10-13T18:22:12Z</time>
      </trkpt>
      <trkpt lat="38.11748410" lon="-2.61851367">
        <ele>1541.0000</ele>
        <time>2018-10-13T18:22:14Z</time>
      </trkpt>
      <trkpt lat="38.11756423" lon="-2.61822969">
        <ele>1539.0000</ele>
        <time>2018-10-13T18:22:16Z</time>
      </trkpt>
      <trkpt lat="38.11766892" lon="-2.61781102">
        <ele>1538.0000</ele>
        <time>2018-10-13T18:22:19Z</time>
      </trkpt>
      <trkpt lat="38.11776598" lon="-2.61740240">
        <ele>1537.0000</ele>
        <time>2018-10-13T18:22:22Z</time>
      </trkpt>
      <trkpt lat="38.11792189" lon="-2.61674274">
        <ele>1536.0000</ele>
        <time>2018-10-13T18:22:27Z</time>
      </trkpt>
      <trkpt lat="38.11810461" lon="-2.61596398">
        <ele>1536.0000</ele>
        <time>2018-10-13T18:22:33Z</time>
      </trkpt>
      <trkpt lat="38.11817653" lon="-2.61556944">
        <ele>1535.0000</ele>
        <time>2018-10-13T18:22:36Z</time>
      </trkpt>
      <trkpt lat="38.11815046" lon="-2.61517591">
        <ele>1535.0000</ele>
        <time>2018-10-13T18:22:39Z</time>
      </trkpt>
      <trkpt lat="38.11812976" lon="-2.61505060">
        <ele>1534.0000</ele>
        <time>2018-10-13T18:22:40Z</time>
      </trkpt>
      <trkpt lat="38.11801166" lon="-2.61434149">
        <ele>1534.0000</ele>
        <time>2018-10-13T18:22:46Z</time>
      </trkpt>
      <trkpt lat="38.11791904" lon="-2.61379198">
        <ele>1534.0000</ele>
        <time>2018-10-13T18:22:51Z</time>
      </trkpt>
      <trkpt lat="38.11783086" lon="-2.61306677">
        <ele>1534.0000</ele>
        <time>2018-10-13T18:22:58Z</time>
      </trkpt>
      <trkpt lat="38.11783446" lon="-2.61286100">
        <ele>1534.0000</ele>
        <time>2018-10-13T18:23:00Z</time>
      </trkpt>
      <trkpt lat="38.11784980" lon="-2.61265313">
        <ele>1534.0000</ele>
        <time>2018-10-13T18:23:02Z</time>
      </trkpt>
      <trkpt lat="38.11792826" lon="-2.61214091">
        <ele>1533.0000</ele>
        <time>2018-10-13T18:23:07Z</time>
      </trkpt>
      <trkpt lat="38.11795424" lon="-2.61204192">
        <ele>1533.0000</ele>
        <time>2018-10-13T18:23:08Z</time>
      </trkpt>
      <trkpt lat="38.11819975" lon="-2.61138972">
        <ele>1533.0000</ele>
        <time>2018-10-13T18:23:15Z</time>
      </trkpt>
      <trkpt lat="38.11849295" lon="-2.61076125">
        <ele>1532.0000</ele>
        <time>2018-10-13T18:23:22Z</time>
      </trkpt>
      <trkpt lat="38.11857987" lon="-2.61058171">
        <ele>1532.0000</ele>
        <time>2018-10-13T18:23:24Z</time>
      </trkpt>
      <trkpt lat="38.11884423" lon="-2.61004736">
        <ele>1531.0000</ele>
        <time>2018-10-13T18:23:30Z</time>
      </trkpt>
      <trkpt lat="38.11893551" lon="-2.60986849">
        <ele>1530.0000</ele>
        <time>2018-10-13T18:23:32Z</time>
      </trkpt>
      <trkpt lat="38.11915445" lon="-2.60942207">
        <ele>1529.0000</ele>
        <time>2018-10-13T18:23:37Z</time>
      </trkpt>
      <trkpt lat="38.11944890" lon="-2.60881857">
        <ele>1528.0000</ele>
        <time>2018-10-13T18:23:44Z</time>
      </trkpt>
      <trkpt lat="38.11974738" lon="-2.60818809">
        <ele>1529.0000</ele>
        <time>2018-10-13T18:23:52Z</time>
      </trkpt>
      <trkpt lat="38.12004377" lon="-2.60761183">
        <ele>1530.0000</ele>
        <time>2018-10-13T18:24:00Z</time>
      </trkpt>
      <trkpt lat="38.12040964" lon="-2.60700155">
        <ele>1531.0000</ele>
        <time>2018-10-13T18:24:09Z</time>
      </trkpt>
      <trkpt lat="38.12077207" lon="-2.60640962">
        <ele>1530.0000</ele>
        <time>2018-10-13T18:24:17Z</time>
      </trkpt>
      <trkpt lat="38.12086042" lon="-2.60625706">
        <ele>1530.0000</ele>
        <time>2018-10-13T18:24:19Z</time>
      </trkpt>
      <trkpt lat="38.12099922" lon="-2.60603075">
        <ele>1529.0000</ele>
        <time>2018-10-13T18:24:22Z</time>
      </trkpt>
      <trkpt lat="38.12122754" lon="-2.60565315">
        <ele>1529.0000</ele>
        <time>2018-10-13T18:24:27Z</time>
      </trkpt>
      <trkpt lat="38.12136149" lon="-2.60542323">
        <ele>1528.0000</ele>
        <time>2018-10-13T18:24:30Z</time>
      </trkpt>
      <trkpt lat="38.12154513" lon="-2.60512308">
        <ele>1528.0000</ele>
        <time>2018-10-13T18:24:34Z</time>
      </trkpt>
      <trkpt lat="38.12191201" lon="-2.60451070">
        <ele>1527.0000</ele>
        <time>2018-10-13T18:24:42Z</time>
      </trkpt>
      <trkpt lat="38.12196322" lon="-2.60442713">
        <ele>1527.0000</ele>
        <time>2018-10-13T18:24:43Z</time>
      </trkpt>
      <trkpt lat="38.12206624" lon="-2.60425999">
        <ele>1526.0000</ele>
        <time>2018-10-13T18:24:45Z</time>
      </trkpt>
      <trkpt lat="38.12236404" lon="-2.60376982">
        <ele>1525.0000</ele>
        <time>2018-10-13T18:24:51Z</time>
      </trkpt>
      <trkpt lat="38.12260427" lon="-2.60337294">
        <ele>1524.0000</ele>
        <time>2018-10-13T18:24:56Z</time>
      </trkpt>
      <trkpt lat="38.12289210" lon="-2.60289894">
        <ele>1523.0000</ele>
        <time>2018-10-13T18:25:02Z</time>
      </trkpt>
      <trkpt lat="38.12294424" lon="-2.60281403">
        <ele>1523.0000</ele>
        <time>2018-10-13T18:25:03Z</time>
      </trkpt>
      <trkpt lat="38.12310584" lon="-2.60254765">
        <ele>1523.0000</ele>
        <time>2018-10-13T18:25:06Z</time>
      </trkpt>
      <trkpt lat="38.12315915" lon="-2.60246191">
        <ele>1523.0000</ele>
        <time>2018-10-13T18:25:07Z</time>
      </trkpt>
      <trkpt lat="38.12340608" lon="-2.60205354">
        <ele>1522.0000</ele>
        <time>2018-10-13T18:25:12Z</time>
      </trkpt>
      <trkpt lat="38.12345386" lon="-2.60197626">
        <ele>1522.0000</ele>
        <time>2018-10-13T18:25:13Z</time>
      </trkpt>
      <trkpt lat="38.12380976" lon="-2.60138869">
        <ele>1522.0000</ele>
        <time>2018-10-13T18:25:21Z</time>
      </trkpt>
      <trkpt lat="38.12406222" lon="-2.60097747">
        <ele>1523.0000</ele>
        <time>2018-10-13T18:25:27Z</time>
      </trkpt>
      <trkpt lat="38.12422357" lon="-2.60071445">
        <ele>1523.0000</ele>
        <time>2018-10-13T18:25:31Z</time>
      </trkpt>
      <trkpt lat="38.12453010" lon="-2.60020500">
        <ele>1524.0000</ele>
        <time>2018-10-13T18:25:39Z</time>
      </trkpt>
      <trkpt lat="38.12486370" lon="-2.59966269">
        <ele>1525.0000</ele>
        <time>2018-10-13T18:25:48Z</time>
      </trkpt>
      <trkpt lat="38.12490100" lon="-2.59960133">
        <ele>1525.0000</ele>
        <time>2018-10-13T18:25:49Z</time>
      </trkpt>
      <trkpt lat="38.12524951" lon="-2.59903522">
        <ele>1525.0000</ele>
        <time>2018-10-13T18:25:58Z</time>
      </trkpt>
      <trkpt lat="38.12550441" lon="-2.59857094">
        <ele>1525.0000</ele>
        <time>2018-10-13T18:26:05Z</time>
      </trkpt>
      <trkpt lat="38.12562041" lon="-2.59836659">
        <ele>1525.0000</ele>
        <time>2018-10-13T18:26:08Z</time>
      </trkpt>
      <trkpt lat="38.12575704" lon="-2.59815503">
        <ele>1524.0000</ele>
        <time>2018-10-13T18:26:11Z</time>
      </trkpt>
      <trkpt lat="38.12589224" lon="-2.59794062">
        <ele>1523.0000</ele>
        <time>2018-10-13T18:26:14Z</time>
      </trkpt>
      <trkpt lat="38.12598100" lon="-2.59780023">
        <ele>1523.0000</ele>
        <time>2018-10-13T18:26:16Z</time>
      </trkpt>
      <trkpt lat="38.12610958" lon="-2.59758615">
        <ele>1522.0000</ele>
        <time>2018-10-13T18:26:19Z</time>
      </trkpt>
      <trkpt lat="38.12619667" lon="-2.59744022">
        <ele>1521.0000</ele>
        <time>2018-10-13T18:26:21Z</time>
      </trkpt>
      <trkpt lat="38.12637244" lon="-2.59714795">
        <ele>1520.0000</ele>
        <time>2018-10-13T18:26:25Z</time>
      </trkpt>
      <trkpt lat="38.12668416" lon="-2.59663481">
        <ele>1519.0000</ele>
        <time>2018-10-13T18:26:32Z</time>
      </trkpt>
      <trkpt lat="38.12681316" lon="-2.59642358">
        <ele>1518.0000</ele>
        <time>2018-10-13T18:26:35Z</time>
      </trkpt>
      <trkpt lat="38.12689673" lon="-2.59628687">
        <ele>1517.0000</ele>
        <time>2018-10-13T18:26:37Z</time>
      </trkpt>
      <trkpt lat="38.12709202" lon="-2.59588127">
        <ele>1517.0000</ele>
        <time>2018-10-13T18:26:43Z</time>
      </trkpt>
      <trkpt lat="38.12711181" lon="-2.59575043">
        <ele>1517.0000</ele>
        <time>2018-10-13T18:26:45Z</time>
      </trkpt>
      <trkpt lat="38.12711407" lon="-2.59563392">
        <ele>1518.0000</ele>
        <time>2018-10-13T18:26:47Z</time>
      </trkpt>
      <trkpt lat="38.12711155" lon="-2.59558288">
        <ele>1519.0000</ele>
        <time>2018-10-13T18:26:48Z</time>
      </trkpt>
      <trkpt lat="38.12708079" lon="-2.59545631">
        <ele>1520.0000</ele>
        <time>2018-10-13T18:26:51Z</time>
      </trkpt>
      <trkpt lat="38.12706445" lon="-2.59541876">
        <ele>1520.0000</ele>
        <time>2018-10-13T18:26:52Z</time>
      </trkpt>
      <trkpt lat="38.12701357" lon="-2.59532296">
        <ele>1521.0000</ele>
        <time>2018-10-13T18:26:55Z</time>
      </trkpt>
      <trkpt lat="38.12694844" lon="-2.59524106">
        <ele>1523.0000</ele>
        <time>2018-10-13T18:26:58Z</time>
      </trkpt>
      <trkpt lat="38.12690494" lon="-2.59520217">
        <ele>1524.0000</ele>
        <time>2018-10-13T18:27:00Z</time>
      </trkpt>
      <trkpt lat="38.12678106" lon="-2.59512003">
        <ele>1525.0000</ele>
        <time>2018-10-13T18:27:04Z</time>
      </trkpt>
      <trkpt lat="38.12665759" lon="-2.59510913">
        <ele>1526.0000</ele>
        <time>2018-10-13T18:27:08Z</time>
      </trkpt>
      <trkpt lat="38.12652323" lon="-2.59511793">
        <ele>1527.0000</ele>
        <time>2018-10-13T18:27:13Z</time>
      </trkpt>
      <trkpt lat="38.12641016" lon="-2.59514467">
        <ele>1528.0000</ele>
        <time>2018-10-13T18:27:18Z</time>
      </trkpt>
      <trkpt lat="38.12632223" lon="-2.59517049">
        <ele>1529.0000</ele>
        <time>2018-10-13T18:27:22Z</time>
      </trkpt>
      <trkpt lat="38.12616507" lon="-2.59519631">
        <ele>1530.0000</ele>
        <time>2018-10-13T18:27:29Z</time>
      </trkpt>
      <trkpt lat="38.12603507" lon="-2.59521123">
        <ele>1532.0000</ele>
        <time>2018-10-13T18:27:35Z</time>
      </trkpt>
      <trkpt lat="38.12586181" lon="-2.59524282">
        <ele>1533.0000</ele>
        <time>2018-10-13T18:27:44Z</time>
      </trkpt>
      <trkpt lat="38.12577724" lon="-2.59525816">
        <ele>1533.0000</ele>
        <time>2018-10-13T18:27:49Z</time>
      </trkpt>
      <trkpt lat="38.12572762" lon="-2.59526537">
        <ele>1534.0000</ele>
        <time>2018-10-13T18:27:52Z</time>
      </trkpt>
      <trkpt lat="38.12555504" lon="-2.59529144">
        <ele>1535.0000</ele>
        <time>2018-10-13T18:28:02Z</time>
      </trkpt>
      <trkpt lat="38.12541782" lon="-2.59532472">
        <ele>1536.0000</ele>
        <time>2018-10-13T18:28:09Z</time>
      </trkpt>
      <trkpt lat="38.12524071" lon="-2.59543024">
        <ele>1537.0000</ele>
        <time>2018-10-13T18:28:18Z</time>
      </trkpt>
      <trkpt lat="38.12509596" lon="-2.59557927">
        <ele>1538.0000</ele>
        <time>2018-10-13T18:28:27Z</time>
      </trkpt>
      <trkpt lat="38.12497165" lon="-2.59570207">
        <ele>1539.0000</ele>
        <time>2018-10-13T18:28:33Z</time>
      </trkpt>
      <trkpt lat="38.12487208" lon="-2.59579787">
        <ele>1539.0000</ele>
        <time>2018-10-13T18:28:37Z</time>
      </trkpt>
      <trkpt lat="38.12481106" lon="-2.59587625">
        <ele>1540.0000</ele>
        <time>2018-10-13T18:28:40Z</time>
      </trkpt>
      <trkpt lat="38.12470712" lon="-2.59597716">
        <ele>1541.0000</ele>
        <time>2018-10-13T18:28:44Z</time>
      </trkpt>
      <trkpt lat="38.12455650" lon="-2.59612561">
        <ele>1542.0000</ele>
        <time>2018-10-13T18:28:50Z</time>
      </trkpt>
      <trkpt lat="38.12445323" lon="-2.59623415">
        <ele>1543.0000</ele>
        <time>2018-10-13T18:28:55Z</time>
      </trkpt>
      <trkpt lat="38.12434444" lon="-2.59633356">
        <ele>1544.0000</ele>
        <time>2018-10-13T18:29:00Z</time>
      </trkpt>
      <trkpt lat="38.12420144" lon="-2.59641990">
        <ele>1545.0000</ele>
        <time>2018-10-13T18:29:06Z</time>
      </trkpt>
      <trkpt lat="38.12400044" lon="-2.59647161">
        <ele>1546.0000</ele>
        <time>2018-10-13T18:29:13Z</time>
      </trkpt>
      <trkpt lat="38.12388570" lon="-2.59647605">
        <ele>1547.0000</ele>
        <time>2018-10-13T18:29:17Z</time>
      </trkpt>
      <trkpt lat="38.12380406" lon="-2.59646306">
        <ele>1547.0000</ele>
        <time>2018-10-13T18:29:20Z</time>
      </trkpt>
      <trkpt lat="38.12359669" lon="-2.59636784">
        <ele>1547.0000</ele>
        <time>2018-10-13T18:29:26Z</time>
      </trkpt>
      <trkpt lat="38.12342838" lon="-2.59625033">
        <ele>1547.0000</ele>
        <time>2018-10-13T18:29:30Z</time>
      </trkpt>
      <trkpt lat="38.12317843" lon="-2.59604489">
        <ele>1546.0000</ele>
        <time>2018-10-13T18:29:35Z</time>
      </trkpt>
      <trkpt lat="38.12306083" lon="-2.59593852">
        <ele>1546.0000</ele>
        <time>2018-10-13T18:29:37Z</time>
      </trkpt>
      <trkpt lat="38.12299830" lon="-2.59588094">
        <ele>1545.0000</ele>
        <time>2018-10-13T18:29:38Z</time>
      </trkpt>
      <trkpt lat="38.12272656" lon="-2.59562630">
        <ele>1544.0000</ele>
        <time>2018-10-13T18:29:42Z</time>
      </trkpt>
      <trkpt lat="38.12249816" lon="-2.59541776">
        <ele>1543.0000</ele>
        <time>2018-10-13T18:29:45Z</time>
      </trkpt>
      <trkpt lat="38.12233245" lon="-2.59527434">
        <ele>1541.0000</ele>
        <time>2018-10-13T18:29:47Z</time>
      </trkpt>
      <trkpt lat="38.12215425" lon="-2.59513319">
        <ele>1540.0000</ele>
        <time>2018-10-13T18:29:49Z</time>
      </trkpt>
      <trkpt lat="38.12196289" lon="-2.59500134">
        <ele>1539.0000</ele>
        <time>2018-10-13T18:29:51Z</time>
      </trkpt>
      <trkpt lat="38.12186381" lon="-2.59493487">
        <ele>1537.0000</ele>
        <time>2018-10-13T18:29:52Z</time>
      </trkpt>
      <trkpt lat="38.12166156" lon="-2.59480135">
        <ele>1535.0000</ele>
        <time>2018-10-13T18:29:54Z</time>
      </trkpt>
      <trkpt lat="38.12145260" lon="-2.59466607">
        <ele>1534.0000</ele>
        <time>2018-10-13T18:29:56Z</time>
      </trkpt>
      <trkpt lat="38.12123794" lon="-2.59452844">
        <ele>1532.0000</ele>
        <time>2018-10-13T18:29:58Z</time>
      </trkpt>
      <trkpt lat="38.12102353" lon="-2.59438242">
        <ele>1530.0000</ele>
        <time>2018-10-13T18:30:00Z</time>
      </trkpt>
      <trkpt lat="38.12081473" lon="-2.59423037">
        <ele>1528.0000</ele>
        <time>2018-10-13T18:30:02Z</time>
      </trkpt>
      <trkpt lat="38.12063452" lon="-2.59408260">
        <ele>1527.0000</ele>
        <time>2018-10-13T18:30:04Z</time>
      </trkpt>
      <trkpt lat="38.12056361" lon="-2.59400147">
        <ele>1526.0000</ele>
        <time>2018-10-13T18:30:05Z</time>
      </trkpt>
      <trkpt lat="38.12051231" lon="-2.59390918">
        <ele>1525.0000</ele>
        <time>2018-10-13T18:30:06Z</time>
      </trkpt>
      <trkpt lat="38.12048457" lon="-2.59369712">
        <ele>1523.0000</ele>
        <time>2018-10-13T18:30:08Z</time>
      </trkpt>
      <trkpt lat="38.12081742" lon="-2.59335338">
        <ele>1522.0000</ele>
        <time>2018-10-13T18:30:13Z</time>
      </trkpt>
      <trkpt lat="38.12091532" lon="-2.59333007">
        <ele>1522.0000</ele>
        <time>2018-10-13T18:30:14Z</time>
      </trkpt>
      <trkpt lat="38.12119527" lon="-2.59324064">
        <ele>1522.0000</ele>
        <time>2018-10-13T18:30:17Z</time>
      </trkpt>
      <trkpt lat="38.12129653" lon="-2.59310536">
        <ele>1521.0000</ele>
        <time>2018-10-13T18:30:19Z</time>
      </trkpt>
      <trkpt lat="38.12130457" lon="-2.59295063">
        <ele>1519.0000</ele>
        <time>2018-10-13T18:30:21Z</time>
      </trkpt>
      <trkpt lat="38.12122260" lon="-2.59280486">
        <ele>1518.0000</ele>
        <time>2018-10-13T18:30:23Z</time>
      </trkpt>
      <trkpt lat="38.12097902" lon="-2.59258777">
        <ele>1517.0000</ele>
        <time>2018-10-13T18:30:26Z</time>
      </trkpt>
      <trkpt lat="38.12067828" lon="-2.59244075">
        <ele>1516.0000</ele>
        <time>2018-10-13T18:30:29Z</time>
      </trkpt>
      <trkpt lat="38.12045616" lon="-2.59238250">
        <ele>1515.0000</ele>
        <time>2018-10-13T18:30:31Z</time>
      </trkpt>
      <trkpt lat="38.12034811" lon="-2.59235266">
        <ele>1514.0000</ele>
        <time>2018-10-13T18:30:32Z</time>
      </trkpt>
      <trkpt lat="38.12024946" lon="-2.59231318">
        <ele>1513.0000</ele>
        <time>2018-10-13T18:30:33Z</time>
      </trkpt>
      <trkpt lat="38.12010219" lon="-2.59217882">
        <ele>1511.0000</ele>
        <time>2018-10-13T18:30:35Z</time>
      </trkpt>
      <trkpt lat="38.12005450" lon="-2.59206466">
        <ele>1510.0000</ele>
        <time>2018-10-13T18:30:36Z</time>
      </trkpt>
      <trkpt lat="38.12002088" lon="-2.59193323">
        <ele>1508.0000</ele>
        <time>2018-10-13T18:30:37Z</time>
      </trkpt>
      <trkpt lat="38.12000194" lon="-2.59179124">
        <ele>1507.0000</ele>
        <time>2018-10-13T18:30:38Z</time>
      </trkpt>
      <trkpt lat="38.11999431" lon="-2.59164640">
        <ele>1506.0000</ele>
        <time>2018-10-13T18:30:39Z</time>
      </trkpt>
      <trkpt lat="38.11999725" lon="-2.59135002">
        <ele>1505.0000</ele>
        <time>2018-10-13T18:30:41Z</time>
      </trkpt>
      <trkpt lat="38.11999632" lon="-2.59120191">
        <ele>1505.0000</ele>
        <time>2018-10-13T18:30:42Z</time>
      </trkpt>
      <trkpt lat="38.11999993" lon="-2.59075272">
        <ele>1503.0000</ele>
        <time>2018-10-13T18:30:45Z</time>
      </trkpt>
      <trkpt lat="38.12003941" lon="-2.59046657">
        <ele>1502.0000</ele>
        <time>2018-10-13T18:30:47Z</time>
      </trkpt>
      <trkpt lat="38.12012557" lon="-2.59019969">
        <ele>1500.0000</ele>
        <time>2018-10-13T18:30:49Z</time>
      </trkpt>
      <trkpt lat="38.12018701" lon="-2.59007547">
        <ele>1499.0000</ele>
        <time>2018-10-13T18:30:50Z</time>
      </trkpt>
      <trkpt lat="38.12034459" lon="-2.58986257">
        <ele>1497.0000</ele>
        <time>2018-10-13T18:30:52Z</time>
      </trkpt>
      <trkpt lat="38.12042866" lon="-2.58976701">
        <ele>1497.0000</ele>
        <time>2018-10-13T18:30:53Z</time>
      </trkpt>
      <trkpt lat="38.12051181" lon="-2.58967020">
        <ele>1496.0000</ele>
        <time>2018-10-13T18:30:54Z</time>
      </trkpt>
      <trkpt lat="38.12083611" lon="-2.58927055">
        <ele>1495.0000</ele>
        <time>2018-10-13T18:30:58Z</time>
      </trkpt>
      <trkpt lat="38.12100383" lon="-2.58906402">
        <ele>1494.0000</ele>
        <time>2018-10-13T18:31:00Z</time>
      </trkpt>
      <trkpt lat="38.12108832" lon="-2.58895883">
        <ele>1493.0000</ele>
        <time>2018-10-13T18:31:01Z</time>
      </trkpt>
      <trkpt lat="38.12126300" lon="-2.58874853">
        <ele>1492.0000</ele>
        <time>2018-10-13T18:31:03Z</time>
      </trkpt>
      <trkpt lat="38.12152971" lon="-2.58842976">
        <ele>1490.0000</ele>
        <time>2018-10-13T18:31:06Z</time>
      </trkpt>
      <trkpt lat="38.12170682" lon="-2.58821435">
        <ele>1489.0000</ele>
        <time>2018-10-13T18:31:08Z</time>
      </trkpt>
      <trkpt lat="38.12188653" lon="-2.58799726">
        <ele>1488.0000</ele>
        <time>2018-10-13T18:31:10Z</time>
      </trkpt>
      <trkpt lat="38.12206858" lon="-2.58778385">
        <ele>1486.0000</ele>
        <time>2018-10-13T18:31:12Z</time>
      </trkpt>
      <trkpt lat="38.12216363" lon="-2.58767833">
        <ele>1485.0000</ele>
        <time>2018-10-13T18:31:13Z</time>
      </trkpt>
      <trkpt lat="38.12226329" lon="-2.58757665">
        <ele>1484.0000</ele>
        <time>2018-10-13T18:31:14Z</time>
      </trkpt>
      <trkpt lat="38.12236773" lon="-2.58748068">
        <ele>1482.0000</ele>
        <time>2018-10-13T18:31:15Z</time>
      </trkpt>
      <trkpt lat="38.12259262" lon="-2.58731287">
        <ele>1481.0000</ele>
        <time>2018-10-13T18:31:17Z</time>
      </trkpt>
      <trkpt lat="38.12280619" lon="-2.58717114">
        <ele>1480.0000</ele>
        <time>2018-10-13T18:31:19Z</time>
      </trkpt>
      <trkpt lat="38.12297794" lon="-2.58703191">
        <ele>1479.0000</ele>
        <time>2018-10-13T18:31:21Z</time>
      </trkpt>
      <trkpt lat="38.12303745" lon="-2.58694969">
        <ele>1479.0000</ele>
        <time>2018-10-13T18:31:22Z</time>
      </trkpt>
      <trkpt lat="38.12310668" lon="-2.58674894">
        <ele>1477.0000</ele>
        <time>2018-10-13T18:31:24Z</time>
      </trkpt>
      <trkpt lat="38.12307382" lon="-2.58652967">
        <ele>1476.0000</ele>
        <time>2018-10-13T18:31:26Z</time>
      </trkpt>
      <trkpt lat="38.12285522" lon="-2.58620923">
        <ele>1475.0000</ele>
        <time>2018-10-13T18:31:29Z</time>
      </trkpt>
      <trkpt lat="38.12277157" lon="-2.58609515">
        <ele>1474.0000</ele>
        <time>2018-10-13T18:31:30Z</time>
      </trkpt>
      <trkpt lat="38.12244283" lon="-2.58560682">
        <ele>1473.0000</ele>
        <time>2018-10-13T18:31:34Z</time>
      </trkpt>
      <trkpt lat="38.12235700" lon="-2.58547288">
        <ele>1472.0000</ele>
        <time>2018-10-13T18:31:35Z</time>
      </trkpt>
      <trkpt lat="38.12227168" lon="-2.58534137">
        <ele>1469.0000</ele>
        <time>2018-10-13T18:31:36Z</time>
      </trkpt>
      <trkpt lat="38.12218593" lon="-2.58521128">
        <ele>1467.0000</ele>
        <time>2018-10-13T18:31:37Z</time>
      </trkpt>
      <trkpt lat="38.12209649" lon="-2.58507449">
        <ele>1466.0000</ele>
        <time>2018-10-13T18:31:38Z</time>
      </trkpt>
      <trkpt lat="38.12200832" lon="-2.58493828">
        <ele>1464.0000</ele>
        <time>2018-10-13T18:31:39Z</time>
      </trkpt>
      <trkpt lat="38.12191804" lon="-2.58480300">
        <ele>1463.0000</ele>
        <time>2018-10-13T18:31:40Z</time>
      </trkpt>
      <trkpt lat="38.12182920" lon="-2.58466822">
        <ele>1461.0000</ele>
        <time>2018-10-13T18:31:41Z</time>
      </trkpt>
      <trkpt lat="38.12174068" lon="-2.58453260">
        <ele>1459.0000</ele>
        <time>2018-10-13T18:31:42Z</time>
      </trkpt>
      <trkpt lat="38.12164731" lon="-2.58438994">
        <ele>1458.0000</ele>
        <time>2018-10-13T18:31:43Z</time>
      </trkpt>
      <trkpt lat="38.12155058" lon="-2.58424795">
        <ele>1456.0000</ele>
        <time>2018-10-13T18:31:44Z</time>
      </trkpt>
      <trkpt lat="38.12145201" lon="-2.58411032">
        <ele>1455.0000</ele>
        <time>2018-10-13T18:31:45Z</time>
      </trkpt>
      <trkpt lat="38.12134967" lon="-2.58398249">
        <ele>1453.0000</ele>
        <time>2018-10-13T18:31:46Z</time>
      </trkpt>
      <trkpt lat="38.12124112" lon="-2.58387361">
        <ele>1451.0000</ele>
        <time>2018-10-13T18:31:47Z</time>
      </trkpt>
      <trkpt lat="38.12112294" lon="-2.58378560">
        <ele>1450.0000</ele>
        <time>2018-10-13T18:31:48Z</time>
      </trkpt>
      <trkpt lat="38.12086662" lon="-2.58366356">
        <ele>1448.0000</ele>
        <time>2018-10-13T18:31:50Z</time>
      </trkpt>
      <trkpt lat="38.12061005" lon="-2.58361210">
        <ele>1446.0000</ele>
        <time>2018-10-13T18:31:52Z</time>
      </trkpt>
      <trkpt lat="38.12036932" lon="-2.58357664">
        <ele>1445.0000</ele>
        <time>2018-10-13T18:31:54Z</time>
      </trkpt>
      <trkpt lat="38.12015240" lon="-2.58349726">
        <ele>1444.0000</ele>
        <time>2018-10-13T18:31:56Z</time>
      </trkpt>
      <trkpt lat="38.11998032" lon="-2.58332007">
        <ele>1442.0000</ele>
        <time>2018-10-13T18:31:58Z</time>
      </trkpt>
      <trkpt lat="38.11987554" lon="-2.58304447">
        <ele>1441.0000</ele>
        <time>2018-10-13T18:32:00Z</time>
      </trkpt>
      <trkpt lat="38.11985953" lon="-2.58235431">
        <ele>1440.0000</ele>
        <time>2018-10-13T18:32:04Z</time>
      </trkpt>
      <trkpt lat="38.11986012" lon="-2.58217778">
        <ele>1439.0000</ele>
        <time>2018-10-13T18:32:05Z</time>
      </trkpt>
      <trkpt lat="38.11982550" lon="-2.58182231">
        <ele>1438.0000</ele>
        <time>2018-10-13T18:32:07Z</time>
      </trkpt>
      <trkpt lat="38.11977982" lon="-2.58150229">
        <ele>1437.0000</ele>
        <time>2018-10-13T18:32:09Z</time>
      </trkpt>
      <trkpt lat="38.11975962" lon="-2.58123566">
        <ele>1433.0000</ele>
        <time>2018-10-13T18:32:11Z</time>
      </trkpt>
      <trkpt lat="38.11977789" lon="-2.58111228">
        <ele>1432.0000</ele>
        <time>2018-10-13T18:32:12Z</time>
      </trkpt>
      <trkpt lat="38.11981754" lon="-2.58098588">
        <ele>1430.0000</ele>
        <time>2018-10-13T18:32:13Z</time>
      </trkpt>
      <trkpt lat="38.11995601" lon="-2.58078102">
        <ele>1429.0000</ele>
        <time>2018-10-13T18:32:15Z</time>
      </trkpt>
      <trkpt lat="38.12046236" lon="-2.58064247">
        <ele>1427.0000</ele>
        <time>2018-10-13T18:32:20Z</time>
      </trkpt>
      <trkpt lat="38.12069378" lon="-2.58068254">
        <ele>1426.0000</ele>
        <time>2018-10-13T18:32:22Z</time>
      </trkpt>
      <trkpt lat="38.12082245" lon="-2.58069184">
        <ele>1425.0000</ele>
        <time>2018-10-13T18:32:23Z</time>
      </trkpt>
      <trkpt lat="38.12095756" lon="-2.58068656">
        <ele>1424.0000</ele>
        <time>2018-10-13T18:32:24Z</time>
      </trkpt>
      <trkpt lat="38.12112126" lon="-2.58072956">
        <ele>1423.0000</ele>
        <time>2018-10-13T18:32:25Z</time>
      </trkpt>
      <trkpt lat="38.12128546" lon="-2.58078329">
        <ele>1422.0000</ele>
        <time>2018-10-13T18:32:26Z</time>
      </trkpt>
      <trkpt lat="38.12142209" lon="-2.58080315">
        <ele>1420.0000</ele>
        <time>2018-10-13T18:32:27Z</time>
      </trkpt>
      <trkpt lat="38.12154111" lon="-2.58080843">
        <ele>1419.0000</ele>
        <time>2018-10-13T18:32:28Z</time>
      </trkpt>
      <trkpt lat="38.12164739" lon="-2.58081061">
        <ele>1418.0000</ele>
        <time>2018-10-13T18:32:29Z</time>
      </trkpt>
      <trkpt lat="38.12174697" lon="-2.58081397">
        <ele>1416.0000</ele>
        <time>2018-10-13T18:32:30Z</time>
      </trkpt>
      <trkpt lat="38.12183733" lon="-2.58081153">
        <ele>1415.0000</ele>
        <time>2018-10-13T18:32:31Z</time>
      </trkpt>
      <trkpt lat="38.12190237" lon="-2.58076057">
        <ele>1413.0000</ele>
        <time>2018-10-13T18:32:32Z</time>
      </trkpt>
      <trkpt lat="38.12195325" lon="-2.58068145">
        <ele>1412.0000</ele>
        <time>2018-10-13T18:32:33Z</time>
      </trkpt>
      <trkpt lat="38.12198627" lon="-2.58049587">
        <ele>1411.0000</ele>
        <time>2018-10-13T18:32:35Z</time>
      </trkpt>
      <trkpt lat="38.12164605" lon="-2.58015825">
        <ele>1410.0000</ele>
        <time>2018-10-13T18:32:40Z</time>
      </trkpt>
      <trkpt lat="38.12136752" lon="-2.58001911">
        <ele>1409.0000</ele>
        <time>2018-10-13T18:32:43Z</time>
      </trkpt>
      <trkpt lat="38.12119251" lon="-2.57990461">
        <ele>1407.0000</ele>
        <time>2018-10-13T18:32:45Z</time>
      </trkpt>
      <trkpt lat="38.12102009" lon="-2.57979112">
        <ele>1405.0000</ele>
        <time>2018-10-13T18:32:47Z</time>
      </trkpt>
      <trkpt lat="38.12084273" lon="-2.57969205">
        <ele>1404.0000</ele>
        <time>2018-10-13T18:32:49Z</time>
      </trkpt>
      <trkpt lat="38.12066311" lon="-2.57961384">
        <ele>1403.0000</ele>
        <time>2018-10-13T18:32:51Z</time>
      </trkpt>
      <trkpt lat="38.12040595" lon="-2.57952860">
        <ele>1401.0000</ele>
        <time>2018-10-13T18:32:54Z</time>
      </trkpt>
      <trkpt lat="38.12001158" lon="-2.57945258">
        <ele>1401.0000</ele>
        <time>2018-10-13T18:32:59Z</time>
      </trkpt>
      <trkpt lat="38.11986339" lon="-2.57942609">
        <ele>1401.0000</ele>
        <time>2018-10-13T18:33:01Z</time>
      </trkpt>
      <trkpt lat="38.11972366" lon="-2.57938284">
        <ele>1401.0000</ele>
        <time>2018-10-13T18:33:03Z</time>
      </trkpt>
      <trkpt lat="38.11958209" lon="-2.57931754">
        <ele>1401.0000</ele>
        <time>2018-10-13T18:33:05Z</time>
      </trkpt>
      <trkpt lat="38.11937866" lon="-2.57919500">
        <ele>1401.0000</ele>
        <time>2018-10-13T18:33:08Z</time>
      </trkpt>
      <trkpt lat="38.11903727" lon="-2.57893977">
        <ele>1401.0000</ele>
        <time>2018-10-13T18:33:13Z</time>
      </trkpt>
      <trkpt lat="38.11885647" lon="-2.57871732">
        <ele>1401.0000</ele>
        <time>2018-10-13T18:33:16Z</time>
      </trkpt>
      <trkpt lat="38.11859160" lon="-2.57836285">
        <ele>1401.0000</ele>
        <time>2018-10-13T18:33:20Z</time>
      </trkpt>
      <trkpt lat="38.11841558" lon="-2.57819051">
        <ele>1400.0000</ele>
        <time>2018-10-13T18:33:22Z</time>
      </trkpt>
      <trkpt lat="38.11822221" lon="-2.57802782">
        <ele>1398.0000</ele>
        <time>2018-10-13T18:33:24Z</time>
      </trkpt>
      <trkpt lat="38.11803001" lon="-2.57785817">
        <ele>1397.0000</ele>
        <time>2018-10-13T18:33:26Z</time>
      </trkpt>
      <trkpt lat="38.11793924" lon="-2.57777050">
        <ele>1396.0000</ele>
        <time>2018-10-13T18:33:27Z</time>
      </trkpt>
      <trkpt lat="38.11785441" lon="-2.57768115">
        <ele>1395.0000</ele>
        <time>2018-10-13T18:33:28Z</time>
      </trkpt>
      <trkpt lat="38.11777655" lon="-2.57758534">
        <ele>1393.0000</ele>
        <time>2018-10-13T18:33:29Z</time>
      </trkpt>
      <trkpt lat="38.11769323" lon="-2.57749725">
        <ele>1392.0000</ele>
        <time>2018-10-13T18:33:30Z</time>
      </trkpt>
      <trkpt lat="38.11757395" lon="-2.57729600">
        <ele>1391.0000</ele>
        <time>2018-10-13T18:33:32Z</time>
      </trkpt>
      <trkpt lat="38.11752551" lon="-2.57719173">
        <ele>1391.0000</ele>
        <time>2018-10-13T18:33:33Z</time>
      </trkpt>
      <trkpt lat="38.11741872" lon="-2.57689383">
        <ele>1391.0000</ele>
        <time>2018-10-13T18:33:36Z</time>
      </trkpt>
      <trkpt lat="38.11737673" lon="-2.57651187">
        <ele>1391.0000</ele>
        <time>2018-10-13T18:33:40Z</time>
      </trkpt>
      <trkpt lat="38.11737664" lon="-2.57642596">
        <ele>1391.0000</ele>
        <time>2018-10-13T18:33:41Z</time>
      </trkpt>
      <trkpt lat="38.11737648" lon="-2.57634406">
        <ele>1392.0000</ele>
        <time>2018-10-13T18:33:42Z</time>
      </trkpt>
      <trkpt lat="38.11737019" lon="-2.57611365">
        <ele>1393.0000</ele>
        <time>2018-10-13T18:33:45Z</time>
      </trkpt>
      <trkpt lat="38.11735007" lon="-2.57583788">
        <ele>1395.0000</ele>
        <time>2018-10-13T18:33:49Z</time>
      </trkpt>
      <trkpt lat="38.11732602" lon="-2.57563806">
        <ele>1395.0000</ele>
        <time>2018-10-13T18:33:52Z</time>
      </trkpt>
      <trkpt lat="38.11729551" lon="-2.57551434">
        <ele>1396.0000</ele>
        <time>2018-10-13T18:33:54Z</time>
      </trkpt>
      <trkpt lat="38.11720280" lon="-2.57524821">
        <ele>1397.0000</ele>
        <time>2018-10-13T18:33:59Z</time>
      </trkpt>
      <trkpt lat="38.11710708" lon="-2.57504923">
        <ele>1398.0000</ele>
        <time>2018-10-13T18:34:05Z</time>
      </trkpt>
      <trkpt lat="38.11700709" lon="-2.57489198">
        <ele>1399.0000</ele>
        <time>2018-10-13T18:34:09Z</time>
      </trkpt>
      <trkpt lat="38.11692922" lon="-2.57476642">
        <ele>1400.0000</ele>
        <time>2018-10-13T18:34:12Z</time>
      </trkpt>
      <trkpt lat="38.11680919" lon="-2.57459945">
        <ele>1400.0000</ele>
        <time>2018-10-13T18:34:16Z</time>
      </trkpt>
      <trkpt lat="38.11663929" lon="-2.57423912">
        <ele>1402.0000</ele>
        <time>2018-10-13T18:34:24Z</time>
      </trkpt>
      <trkpt lat="38.11657181" lon="-2.57400996">
        <ele>1403.0000</ele>
        <time>2018-10-13T18:34:29Z</time>
      </trkpt>
      <trkpt lat="38.11647467" lon="-2.57347368">
        <ele>1404.0000</ele>
        <time>2018-10-13T18:34:41Z</time>
      </trkpt>
      <trkpt lat="38.11639990" lon="-2.57296691">
        <ele>1405.0000</ele>
        <time>2018-10-13T18:34:52Z</time>
      </trkpt>
      <trkpt lat="38.11639345" lon="-2.57292366">
        <ele>1405.0000</ele>
        <time>2018-10-13T18:34:53Z</time>
      </trkpt>
      <trkpt lat="38.11637333" lon="-2.57275242">
        <ele>1405.0000</ele>
        <time>2018-10-13T18:34:57Z</time>
      </trkpt>
      <trkpt lat="38.11634902" lon="-2.57258252">
        <ele>1406.0000</ele>
        <time>2018-10-13T18:35:01Z</time>
      </trkpt>
      <trkpt lat="38.11630259" lon="-2.57222235">
        <ele>1407.0000</ele>
        <time>2018-10-13T18:35:09Z</time>
      </trkpt>
      <trkpt lat="38.11620519" lon="-2.57153822">
        <ele>1407.0000</ele>
        <time>2018-10-13T18:35:22Z</time>
      </trkpt>
      <trkpt lat="38.11614735" lon="-2.57115039">
        <ele>1407.0000</ele>
        <time>2018-10-13T18:35:28Z</time>
      </trkpt>
      <trkpt lat="38.11612120" lon="-2.57101250">
        <ele>1407.0000</ele>
        <time>2018-10-13T18:35:30Z</time>
      </trkpt>
      <trkpt lat="38.11593613" lon="-2.57041278">
        <ele>1406.0000</ele>
        <time>2018-10-13T18:35:38Z</time>
      </trkpt>
      <trkpt lat="38.11578936" lon="-2.57008899">
        <ele>1404.0000</ele>
        <time>2018-10-13T18:35:42Z</time>
      </trkpt>
      <trkpt lat="38.11570001" lon="-2.56991707">
        <ele>1403.0000</ele>
        <time>2018-10-13T18:35:44Z</time>
      </trkpt>
      <trkpt lat="38.11560337" lon="-2.56973099">
        <ele>1402.0000</ele>
        <time>2018-10-13T18:35:46Z</time>
      </trkpt>
      <trkpt lat="38.11550396" lon="-2.56952614">
        <ele>1401.0000</ele>
        <time>2018-10-13T18:35:48Z</time>
      </trkpt>
      <trkpt lat="38.11545166" lon="-2.56941416">
        <ele>1401.0000</ele>
        <time>2018-10-13T18:35:49Z</time>
      </trkpt>
      <trkpt lat="38.11527832" lon="-2.56905776">
        <ele>1400.0000</ele>
        <time>2018-10-13T18:35:52Z</time>
      </trkpt>
      <trkpt lat="38.11518402" lon="-2.56879096">
        <ele>1399.0000</ele>
        <time>2018-10-13T18:35:54Z</time>
      </trkpt>
      <trkpt lat="38.11514907" lon="-2.56849165">
        <ele>1397.0000</ele>
        <time>2018-10-13T18:35:56Z</time>
      </trkpt>
      <trkpt lat="38.11518863" lon="-2.56817691">
        <ele>1395.0000</ele>
        <time>2018-10-13T18:35:58Z</time>
      </trkpt>
      <trkpt lat="38.11527413" lon="-2.56789133">
        <ele>1393.0000</ele>
        <time>2018-10-13T18:36:00Z</time>
      </trkpt>
      <trkpt lat="38.11531545" lon="-2.56776552">
        <ele>1392.0000</ele>
        <time>2018-10-13T18:36:01Z</time>
      </trkpt>
      <trkpt lat="38.11534889" lon="-2.56764256">
        <ele>1391.0000</ele>
        <time>2018-10-13T18:36:02Z</time>
      </trkpt>
      <trkpt lat="38.11536658" lon="-2.56751515">
        <ele>1389.0000</ele>
        <time>2018-10-13T18:36:03Z</time>
      </trkpt>
      <trkpt lat="38.11537211" lon="-2.56739236">
        <ele>1388.0000</ele>
        <time>2018-10-13T18:36:04Z</time>
      </trkpt>
      <trkpt lat="38.11536272" lon="-2.56727451">
        <ele>1386.0000</ele>
        <time>2018-10-13T18:36:05Z</time>
      </trkpt>
      <trkpt lat="38.11533129" lon="-2.56715926">
        <ele>1384.0000</ele>
        <time>2018-10-13T18:36:06Z</time>
      </trkpt>
      <trkpt lat="38.11528150" lon="-2.56705365">
        <ele>1383.0000</ele>
        <time>2018-10-13T18:36:07Z</time>
      </trkpt>
      <trkpt lat="38.11512024" lon="-2.56688760">
        <ele>1381.0000</ele>
        <time>2018-10-13T18:36:09Z</time>
      </trkpt>
      <trkpt lat="38.11489962" lon="-2.56677939">
        <ele>1380.0000</ele>
        <time>2018-10-13T18:36:11Z</time>
      </trkpt>
      <trkpt lat="38.11466082" lon="-2.56671829">
        <ele>1378.0000</ele>
        <time>2018-10-13T18:36:13Z</time>
      </trkpt>
      <trkpt lat="38.11441859" lon="-2.56667286">
        <ele>1377.0000</ele>
        <time>2018-10-13T18:36:15Z</time>
      </trkpt>
      <trkpt lat="38.11415883" lon="-2.56662542">
        <ele>1375.0000</ele>
        <time>2018-10-13T18:36:17Z</time>
      </trkpt>
      <trkpt lat="38.11388843" lon="-2.56657755">
        <ele>1374.0000</ele>
        <time>2018-10-13T18:36:19Z</time>
      </trkpt>
      <trkpt lat="38.11361091" lon="-2.56651620">
        <ele>1373.0000</ele>
        <time>2018-10-13T18:36:21Z</time>
      </trkpt>
      <trkpt lat="38.11347688" lon="-2.56647865">
        <ele>1371.0000</ele>
        <time>2018-10-13T18:36:22Z</time>
      </trkpt>
      <trkpt lat="38.11334696" lon="-2.56643230">
        <ele>1370.0000</ele>
        <time>2018-10-13T18:36:23Z</time>
      </trkpt>
      <trkpt lat="38.11322274" lon="-2.56637471">
        <ele>1369.0000</ele>
        <time>2018-10-13T18:36:24Z</time>
      </trkpt>
      <trkpt lat="38.11309944" lon="-2.56631151">
        <ele>1368.0000</ele>
        <time>2018-10-13T18:36:25Z</time>
      </trkpt>
      <trkpt lat="38.11297799" lon="-2.56623641">
        <ele>1366.0000</ele>
        <time>2018-10-13T18:36:26Z</time>
      </trkpt>
      <trkpt lat="38.11285603" lon="-2.56615284">
        <ele>1365.0000</ele>
        <time>2018-10-13T18:36:27Z</time>
      </trkpt>
      <trkpt lat="38.11273626" lon="-2.56605863">
        <ele>1363.0000</ele>
        <time>2018-10-13T18:36:28Z</time>
      </trkpt>
      <trkpt lat="38.11262344" lon="-2.56595067">
        <ele>1362.0000</ele>
        <time>2018-10-13T18:36:29Z</time>
      </trkpt>
      <trkpt lat="38.11251212" lon="-2.56583483">
        <ele>1361.0000</ele>
        <time>2018-10-13T18:36:30Z</time>
      </trkpt>
      <trkpt lat="38.11229662" lon="-2.56558908">
        <ele>1360.0000</ele>
        <time>2018-10-13T18:36:32Z</time>
      </trkpt>
      <trkpt lat="38.11208062" lon="-2.56534181">
        <ele>1358.0000</ele>
        <time>2018-10-13T18:36:34Z</time>
      </trkpt>
      <trkpt lat="38.11197216" lon="-2.56522212">
        <ele>1356.0000</ele>
        <time>2018-10-13T18:36:35Z</time>
      </trkpt>
      <trkpt lat="38.11186403" lon="-2.56510008">
        <ele>1354.0000</ele>
        <time>2018-10-13T18:36:36Z</time>
      </trkpt>
      <trkpt lat="38.11175591" lon="-2.56496898">
        <ele>1353.0000</ele>
        <time>2018-10-13T18:36:37Z</time>
      </trkpt>
      <trkpt lat="38.11165231" lon="-2.56483311">
        <ele>1351.0000</ele>
        <time>2018-10-13T18:36:38Z</time>
      </trkpt>
      <trkpt lat="38.11155290" lon="-2.56468785">
        <ele>1350.0000</ele>
        <time>2018-10-13T18:36:39Z</time>
      </trkpt>
      <trkpt lat="38.11146003" lon="-2.56454184">
        <ele>1348.0000</ele>
        <time>2018-10-13T18:36:40Z</time>
      </trkpt>
      <trkpt lat="38.11137235" lon="-2.56439055">
        <ele>1347.0000</ele>
        <time>2018-10-13T18:36:41Z</time>
      </trkpt>
      <trkpt lat="38.11128920" lon="-2.56422886">
        <ele>1346.0000</ele>
        <time>2018-10-13T18:36:42Z</time>
      </trkpt>
      <trkpt lat="38.11120924" lon="-2.56406114">
        <ele>1345.0000</ele>
        <time>2018-10-13T18:36:43Z</time>
      </trkpt>
      <trkpt lat="38.11113095" lon="-2.56389375">
        <ele>1344.0000</ele>
        <time>2018-10-13T18:36:44Z</time>
      </trkpt>
      <trkpt lat="38.11105703" lon="-2.56373140">
        <ele>1343.0000</ele>
        <time>2018-10-13T18:36:45Z</time>
      </trkpt>
      <trkpt lat="38.11098385" lon="-2.56357365">
        <ele>1342.0000</ele>
        <time>2018-10-13T18:36:46Z</time>
      </trkpt>
      <trkpt lat="38.11091470" lon="-2.56342604">
        <ele>1341.0000</ele>
        <time>2018-10-13T18:36:47Z</time>
      </trkpt>
      <trkpt lat="38.11084304" lon="-2.56328606">
        <ele>1338.0000</ele>
        <time>2018-10-13T18:36:48Z</time>
      </trkpt>
      <trkpt lat="38.11077070" lon="-2.56315397">
        <ele>1337.0000</ele>
        <time>2018-10-13T18:36:49Z</time>
      </trkpt>
      <trkpt lat="38.11069048" lon="-2.56303017">
        <ele>1336.0000</ele>
        <time>2018-10-13T18:36:50Z</time>
      </trkpt>
      <trkpt lat="38.11060105" lon="-2.56291852">
        <ele>1334.0000</ele>
        <time>2018-10-13T18:36:51Z</time>
      </trkpt>
      <trkpt lat="38.11040684" lon="-2.56271953">
        <ele>1333.0000</ele>
        <time>2018-10-13T18:36:53Z</time>
      </trkpt>
      <trkpt lat="38.11015211" lon="-2.56243220">
        <ele>1332.0000</ele>
        <time>2018-10-13T18:36:56Z</time>
      </trkpt>
      <trkpt lat="38.10997618" lon="-2.56208620">
        <ele>1330.0000</ele>
        <time>2018-10-13T18:36:59Z</time>
      </trkpt>
      <trkpt lat="38.10990242" lon="-2.56127072">
        <ele>1329.0000</ele>
        <time>2018-10-13T18:37:04Z</time>
      </trkpt>
      <trkpt lat="38.10991549" lon="-2.56110786">
        <ele>1329.0000</ele>
        <time>2018-10-13T18:37:05Z</time>
      </trkpt>
      <trkpt lat="38.10994709" lon="-2.56081826">
        <ele>1328.0000</ele>
        <time>2018-10-13T18:37:07Z</time>
      </trkpt>
      <trkpt lat="38.11007307" lon="-2.56011033">
        <ele>1327.0000</ele>
        <time>2018-10-13T18:37:13Z</time>
      </trkpt>
      <trkpt lat="38.11009470" lon="-2.56001067">
        <ele>1327.0000</ele>
        <time>2018-10-13T18:37:14Z</time>
      </trkpt>
      <trkpt lat="38.11013661" lon="-2.55982333">
        <ele>1327.0000</ele>
        <time>2018-10-13T18:37:16Z</time>
      </trkpt>
      <trkpt lat="38.11022168" lon="-2.55948663">
        <ele>1329.0000</ele>
        <time>2018-10-13T18:37:20Z</time>
      </trkpt>
      <trkpt lat="38.11026292" lon="-2.55933928">
        <ele>1331.0000</ele>
        <time>2018-10-13T18:37:22Z</time>
      </trkpt>
      <trkpt lat="38.11028262" lon="-2.55926485">
        <ele>1332.0000</ele>
        <time>2018-10-13T18:37:23Z</time>
      </trkpt>
      <trkpt lat="38.11034188" lon="-2.55903250">
        <ele>1333.0000</ele>
        <time>2018-10-13T18:37:26Z</time>
      </trkpt>
      <trkpt lat="38.11041866" lon="-2.55862992">
        <ele>1333.0000</ele>
        <time>2018-10-13T18:37:31Z</time>
      </trkpt>
      <trkpt lat="38.11035940" lon="-2.55829112">
        <ele>1333.0000</ele>
        <time>2018-10-13T18:37:35Z</time>
      </trkpt>
      <trkpt lat="38.11019863" lon="-2.55772585">
        <ele>1332.0000</ele>
        <time>2018-10-13T18:37:41Z</time>
      </trkpt>
      <trkpt lat="38.11017299" lon="-2.55763691">
        <ele>1332.0000</ele>
        <time>2018-10-13T18:37:42Z</time>
      </trkpt>
      <trkpt lat="38.11011624" lon="-2.55746240">
        <ele>1330.0000</ele>
        <time>2018-10-13T18:37:44Z</time>
      </trkpt>
      <trkpt lat="38.11005530" lon="-2.55731505">
        <ele>1329.0000</ele>
        <time>2018-10-13T18:37:46Z</time>
      </trkpt>
      <trkpt lat="38.10999135" lon="-2.55721648">
        <ele>1328.0000</ele>
        <time>2018-10-13T18:37:48Z</time>
      </trkpt>
      <trkpt lat="38.10993578" lon="-2.55715814">
        <ele>1327.0000</ele>
        <time>2018-10-13T18:37:50Z</time>
      </trkpt>
      <trkpt lat="38.10990795" lon="-2.55712344">
        <ele>1327.0000</ele>
        <time>2018-10-13T18:37:51Z</time>
      </trkpt>
      <trkpt lat="38.10982698" lon="-2.55701439">
        <ele>1326.0000</ele>
        <time>2018-10-13T18:37:58Z</time>
      </trkpt>
      <trkpt lat="38.10969077" lon="-2.55712914">
        <ele>1325.0000</ele>
        <time>2018-10-13T18:48:43Z</time>
      </trkpt>
      <trkpt lat="38.10961659" lon="-2.55715873">
        <ele>1325.0000</ele>
        <time>2018-10-13T18:48:48Z</time>
      </trkpt>
      <trkpt lat="38.10954635" lon="-2.55712855">
        <ele>1324.0000</ele>
        <time>2018-10-13T18:48:52Z</time>
      </trkpt>
      <trkpt lat="38.10944653" lon="-2.55678506">
        <ele>1324.0000</ele>
        <time>2018-10-13T18:48:59Z</time>
      </trkpt>
      <trkpt lat="38.10944887" lon="-2.55661256">
        <ele>1324.0000</ele>
        <time>2018-10-13T18:49:01Z</time>
      </trkpt>
      <trkpt lat="38.10945759" lon="-2.55619732">
        <ele>1323.0000</ele>
        <time>2018-10-13T18:49:05Z</time>
      </trkpt>
      <trkpt lat="38.10946572" lon="-2.55597529">
        <ele>1321.0000</ele>
        <time>2018-10-13T18:49:07Z</time>
      </trkpt>
      <trkpt lat="38.10945725" lon="-2.55576708">
        <ele>1320.0000</ele>
        <time>2018-10-13T18:49:09Z</time>
      </trkpt>
      <trkpt lat="38.10944074" lon="-2.55567471">
        <ele>1319.0000</ele>
        <time>2018-10-13T18:49:10Z</time>
      </trkpt>
      <trkpt lat="38.10941124" lon="-2.55559114">
        <ele>1318.0000</ele>
        <time>2018-10-13T18:49:11Z</time>
      </trkpt>
      <trkpt lat="38.10931099" lon="-2.55545896">
        <ele>1316.0000</ele>
        <time>2018-10-13T18:49:13Z</time>
      </trkpt>
      <trkpt lat="38.10916280" lon="-2.55539702">
        <ele>1314.0000</ele>
        <time>2018-10-13T18:49:15Z</time>
      </trkpt>
      <trkpt lat="38.10883088" lon="-2.55549031">
        <ele>1314.0000</ele>
        <time>2018-10-13T18:49:19Z</time>
      </trkpt>
      <trkpt lat="38.10874521" lon="-2.55553775">
        <ele>1313.0000</ele>
        <time>2018-10-13T18:49:20Z</time>
      </trkpt>
      <trkpt lat="38.10849007" lon="-2.55573389">
        <ele>1312.0000</ele>
        <time>2018-10-13T18:49:23Z</time>
      </trkpt>
      <trkpt lat="38.10832536" lon="-2.55586431">
        <ele>1310.0000</ele>
        <time>2018-10-13T18:49:25Z</time>
      </trkpt>
      <trkpt lat="38.10818354" lon="-2.55597579">
        <ele>1308.0000</ele>
        <time>2018-10-13T18:49:27Z</time>
      </trkpt>
      <trkpt lat="38.10812311" lon="-2.55603589">
        <ele>1307.0000</ele>
        <time>2018-10-13T18:49:28Z</time>
      </trkpt>
      <trkpt lat="38.10807122" lon="-2.55611275">
        <ele>1306.0000</ele>
        <time>2018-10-13T18:49:29Z</time>
      </trkpt>
      <trkpt lat="38.10803233" lon="-2.55620738">
        <ele>1304.0000</ele>
        <time>2018-10-13T18:49:30Z</time>
      </trkpt>
      <trkpt lat="38.10801029" lon="-2.55631349">
        <ele>1303.0000</ele>
        <time>2018-10-13T18:49:31Z</time>
      </trkpt>
      <trkpt lat="38.10798891" lon="-2.55653469">
        <ele>1302.0000</ele>
        <time>2018-10-13T18:49:33Z</time>
      </trkpt>
      <trkpt lat="38.10797433" lon="-2.55663419">
        <ele>1302.0000</ele>
        <time>2018-10-13T18:49:34Z</time>
      </trkpt>
      <trkpt lat="38.10781985" lon="-2.55684893">
        <ele>1301.0000</ele>
        <time>2018-10-13T18:49:37Z</time>
      </trkpt>
      <trkpt lat="38.10769270" lon="-2.55691188">
        <ele>1299.0000</ele>
        <time>2018-10-13T18:49:39Z</time>
      </trkpt>
      <trkpt lat="38.10764215" lon="-2.55693937">
        <ele>1298.0000</ele>
        <time>2018-10-13T18:49:40Z</time>
      </trkpt>
      <trkpt lat="38.10759731" lon="-2.55697416">
        <ele>1298.0000</ele>
        <time>2018-10-13T18:49:41Z</time>
      </trkpt>
      <trkpt lat="38.10752565" lon="-2.55717549">
        <ele>1297.0000</ele>
        <time>2018-10-13T18:49:44Z</time>
      </trkpt>
      <trkpt lat="38.10759010" lon="-2.55754765">
        <ele>1295.0000</ele>
        <time>2018-10-13T18:49:48Z</time>
      </trkpt>
      <trkpt lat="38.10767224" lon="-2.55787622">
        <ele>1294.0000</ele>
        <time>2018-10-13T18:49:51Z</time>
      </trkpt>
      <trkpt lat="38.10774642" lon="-2.55811418">
        <ele>1292.0000</ele>
        <time>2018-10-13T18:49:53Z</time>
      </trkpt>
      <trkpt lat="38.10784181" lon="-2.55835533">
        <ele>1290.0000</ele>
        <time>2018-10-13T18:49:55Z</time>
      </trkpt>
      <trkpt lat="38.10794399" lon="-2.55857351">
        <ele>1288.0000</ele>
        <time>2018-10-13T18:49:57Z</time>
      </trkpt>
      <trkpt lat="38.10804608" lon="-2.55876369">
        <ele>1287.0000</ele>
        <time>2018-10-13T18:49:59Z</time>
      </trkpt>
      <trkpt lat="38.10810165" lon="-2.55884701">
        <ele>1286.0000</ele>
        <time>2018-10-13T18:50:00Z</time>
      </trkpt>
      <trkpt lat="38.10816653" lon="-2.55891641">
        <ele>1285.0000</ele>
        <time>2018-10-13T18:50:01Z</time>
      </trkpt>
      <trkpt lat="38.10823920" lon="-2.55896989">
        <ele>1282.0000</ele>
        <time>2018-10-13T18:50:02Z</time>
      </trkpt>
      <trkpt lat="38.10839443" lon="-2.55903862">
        <ele>1280.0000</ele>
        <time>2018-10-13T18:50:04Z</time>
      </trkpt>
      <trkpt lat="38.10847288" lon="-2.55907567">
        <ele>1280.0000</ele>
        <time>2018-10-13T18:50:05Z</time>
      </trkpt>
      <trkpt lat="38.10871152" lon="-2.55934816">
        <ele>1279.0000</ele>
        <time>2018-10-13T18:50:09Z</time>
      </trkpt>
      <trkpt lat="38.10877606" lon="-2.55960825">
        <ele>1278.0000</ele>
        <time>2018-10-13T18:50:12Z</time>
      </trkpt>
      <trkpt lat="38.10874421" lon="-2.55981814">
        <ele>1277.0000</ele>
        <time>2018-10-13T18:50:14Z</time>
      </trkpt>
      <trkpt lat="38.10865905" lon="-2.56003690">
        <ele>1276.0000</ele>
        <time>2018-10-13T18:50:16Z</time>
      </trkpt>
      <trkpt lat="38.10845495" lon="-2.56053227">
        <ele>1274.0000</ele>
        <time>2018-10-13T18:50:20Z</time>
      </trkpt>
      <trkpt lat="38.10840549" lon="-2.56066638">
        <ele>1273.0000</ele>
        <time>2018-10-13T18:50:21Z</time>
      </trkpt>
      <trkpt lat="38.10835906" lon="-2.56079999">
        <ele>1272.0000</ele>
        <time>2018-10-13T18:50:22Z</time>
      </trkpt>
      <trkpt lat="38.10831254" lon="-2.56092731">
        <ele>1270.0000</ele>
        <time>2018-10-13T18:50:23Z</time>
      </trkpt>
      <trkpt lat="38.10826594" lon="-2.56105388">
        <ele>1269.0000</ele>
        <time>2018-10-13T18:50:24Z</time>
      </trkpt>
      <trkpt lat="38.10821841" lon="-2.56117877">
        <ele>1267.0000</ele>
        <time>2018-10-13T18:50:25Z</time>
      </trkpt>
      <trkpt lat="38.10817264" lon="-2.56130618">
        <ele>1266.0000</ele>
        <time>2018-10-13T18:50:26Z</time>
      </trkpt>
      <trkpt lat="38.10812990" lon="-2.56143551">
        <ele>1265.0000</ele>
        <time>2018-10-13T18:50:27Z</time>
      </trkpt>
      <trkpt lat="38.10808941" lon="-2.56156476">
        <ele>1263.0000</ele>
        <time>2018-10-13T18:50:28Z</time>
      </trkpt>
      <trkpt lat="38.10805044" lon="-2.56169426">
        <ele>1262.0000</ele>
        <time>2018-10-13T18:50:29Z</time>
      </trkpt>
      <trkpt lat="38.10797626" lon="-2.56194639">
        <ele>1260.0000</ele>
        <time>2018-10-13T18:50:31Z</time>
      </trkpt>
      <trkpt lat="38.10789034" lon="-2.56218980">
        <ele>1259.0000</ele>
        <time>2018-10-13T18:50:33Z</time>
      </trkpt>
      <trkpt lat="38.10784223" lon="-2.56230580">
        <ele>1258.0000</ele>
        <time>2018-10-13T18:50:34Z</time>
      </trkpt>
      <trkpt lat="38.10775020" lon="-2.56250990">
        <ele>1255.0000</ele>
        <time>2018-10-13T18:50:36Z</time>
      </trkpt>
      <trkpt lat="38.10770317" lon="-2.56259640">
        <ele>1254.0000</ele>
        <time>2018-10-13T18:50:37Z</time>
      </trkpt>
      <trkpt lat="38.10764978" lon="-2.56266815">
        <ele>1254.0000</ele>
        <time>2018-10-13T18:50:38Z</time>
      </trkpt>
      <trkpt lat="38.10736832" lon="-2.56279958">
        <ele>1253.0000</ele>
        <time>2018-10-13T18:50:42Z</time>
      </trkpt>
      <trkpt lat="38.10729372" lon="-2.56282104">
        <ele>1253.0000</ele>
        <time>2018-10-13T18:50:43Z</time>
      </trkpt>
      <trkpt lat="38.10695853" lon="-2.56322094">
        <ele>1252.0000</ele>
        <time>2018-10-13T18:50:49Z</time>
      </trkpt>
      <trkpt lat="38.10664311" lon="-2.56368337">
        <ele>1252.0000</ele>
        <time>2018-10-13T18:50:55Z</time>
      </trkpt>
      <trkpt lat="38.10657438" lon="-2.56373441">
        <ele>1252.0000</ele>
        <time>2018-10-13T18:50:56Z</time>
      </trkpt>
      <trkpt lat="38.10628839" lon="-2.56374573">
        <ele>1250.0000</ele>
        <time>2018-10-13T18:51:00Z</time>
      </trkpt>
      <trkpt lat="38.10612880" lon="-2.56361078">
        <ele>1250.0000</ele>
        <time>2018-10-13T18:51:03Z</time>
      </trkpt>
      <trkpt lat="38.10608144" lon="-2.56357415">
        <ele>1250.0000</ele>
        <time>2018-10-13T18:51:04Z</time>
      </trkpt>
      <trkpt lat="38.10592546" lon="-2.56349083">
        <ele>1250.0000</ele>
        <time>2018-10-13T18:51:07Z</time>
      </trkpt>
      <trkpt lat="38.10587408" lon="-2.56347633">
        <ele>1250.0000</ele>
        <time>2018-10-13T18:51:08Z</time>
      </trkpt>
      <trkpt lat="38.10577115" lon="-2.56345915">
        <ele>1250.0000</ele>
        <time>2018-10-13T18:51:10Z</time>
      </trkpt>
      <trkpt lat="38.10560837" lon="-2.56343459">
        <ele>1251.0000</ele>
        <time>2018-10-13T18:51:13Z</time>
      </trkpt>
      <trkpt lat="38.10550083" lon="-2.56342889">
        <ele>1252.0000</ele>
        <time>2018-10-13T18:51:15Z</time>
      </trkpt>
      <trkpt lat="38.10539748" lon="-2.56342621">
        <ele>1252.0000</ele>
        <time>2018-10-13T18:51:17Z</time>
      </trkpt>
      <trkpt lat="38.10529581" lon="-2.56342772">
        <ele>1252.0000</ele>
        <time>2018-10-13T18:51:19Z</time>
      </trkpt>
      <trkpt lat="38.10513169" lon="-2.56342956">
        <ele>1253.0000</ele>
        <time>2018-10-13T18:51:22Z</time>
      </trkpt>
      <trkpt lat="38.10502071" lon="-2.56343157">
        <ele>1253.0000</ele>
        <time>2018-10-13T18:51:24Z</time>
      </trkpt>
      <trkpt lat="38.10475358" lon="-2.56344725">
        <ele>1253.0000</ele>
        <time>2018-10-13T18:51:29Z</time>
      </trkpt>
      <trkpt lat="38.10449014" lon="-2.56344356">
        <ele>1253.0000</ele>
        <time>2018-10-13T18:51:34Z</time>
      </trkpt>
      <trkpt lat="38.10434044" lon="-2.56343426">
        <ele>1253.0000</ele>
        <time>2018-10-13T18:51:37Z</time>
      </trkpt>
      <trkpt lat="38.10423642" lon="-2.56339495">
        <ele>1253.0000</ele>
        <time>2018-10-13T18:51:39Z</time>
      </trkpt>
      <trkpt lat="38.10418462" lon="-2.56336444">
        <ele>1253.0000</ele>
        <time>2018-10-13T18:51:40Z</time>
      </trkpt>
      <trkpt lat="38.10386368" lon="-2.56287912">
        <ele>1253.0000</ele>
        <time>2018-10-13T18:51:48Z</time>
      </trkpt>
      <trkpt lat="38.10361071" lon="-2.56240756">
        <ele>1252.0000</ele>
        <time>2018-10-13T18:51:54Z</time>
      </trkpt>
      <trkpt lat="38.10347761" lon="-2.56215308">
        <ele>1250.0000</ele>
        <time>2018-10-13T18:51:57Z</time>
      </trkpt>
      <trkpt lat="38.10333017" lon="-2.56188587">
        <ele>1249.0000</ele>
        <time>2018-10-13T18:52:00Z</time>
      </trkpt>
      <trkpt lat="38.10322632" lon="-2.56170616">
        <ele>1249.0000</ele>
        <time>2018-10-13T18:52:02Z</time>
      </trkpt>
      <trkpt lat="38.10317527" lon="-2.56161413">
        <ele>1248.0000</ele>
        <time>2018-10-13T18:52:03Z</time>
      </trkpt>
      <trkpt lat="38.10306304" lon="-2.56144171">
        <ele>1247.0000</ele>
        <time>2018-10-13T18:52:05Z</time>
      </trkpt>
      <trkpt lat="38.10283505" lon="-2.56124842">
        <ele>1246.0000</ele>
        <time>2018-10-13T18:52:08Z</time>
      </trkpt>
      <trkpt lat="38.10267512" lon="-2.56117156">
        <ele>1245.0000</ele>
        <time>2018-10-13T18:52:10Z</time>
      </trkpt>
      <trkpt lat="38.10242417" lon="-2.56105631">
        <ele>1245.0000</ele>
        <time>2018-10-13T18:52:13Z</time>
      </trkpt>
      <trkpt lat="38.10233834" lon="-2.56101759">
        <ele>1245.0000</ele>
        <time>2018-10-13T18:52:14Z</time>
      </trkpt>
      <trkpt lat="38.10216852" lon="-2.56094181">
        <ele>1243.0000</ele>
        <time>2018-10-13T18:52:16Z</time>
      </trkpt>
      <trkpt lat="38.10191052" lon="-2.56081969">
        <ele>1243.0000</ele>
        <time>2018-10-13T18:52:19Z</time>
      </trkpt>
      <trkpt lat="38.10182319" lon="-2.56077686">
        <ele>1242.0000</ele>
        <time>2018-10-13T18:52:20Z</time>
      </trkpt>
      <trkpt lat="38.10146260" lon="-2.56060838">
        <ele>1241.0000</ele>
        <time>2018-10-13T18:52:24Z</time>
      </trkpt>
      <trkpt lat="38.10127543" lon="-2.56051828">
        <ele>1240.0000</ele>
        <time>2018-10-13T18:52:26Z</time>
      </trkpt>
      <trkpt lat="38.10108675" lon="-2.56042993">
        <ele>1239.0000</ele>
        <time>2018-10-13T18:52:28Z</time>
      </trkpt>
      <trkpt lat="38.10079758" lon="-2.56029498">
        <ele>1238.0000</ele>
        <time>2018-10-13T18:52:31Z</time>
      </trkpt>
      <trkpt lat="38.10059800" lon="-2.56020035">
        <ele>1236.0000</ele>
        <time>2018-10-13T18:52:33Z</time>
      </trkpt>
      <trkpt lat="38.10040773" lon="-2.56010438">
        <ele>1235.0000</ele>
        <time>2018-10-13T18:52:35Z</time>
      </trkpt>
      <trkpt lat="38.10014555" lon="-2.55995962">
        <ele>1233.0000</ele>
        <time>2018-10-13T18:52:38Z</time>
      </trkpt>
      <trkpt lat="38.09998654" lon="-2.55989139">
        <ele>1232.0000</ele>
        <time>2018-10-13T18:52:40Z</time>
      </trkpt>
      <trkpt lat="38.09982234" lon="-2.55988972">
        <ele>1230.0000</ele>
        <time>2018-10-13T18:52:42Z</time>
      </trkpt>
      <trkpt lat="38.09958547" lon="-2.56003783">
        <ele>1229.0000</ele>
        <time>2018-10-13T18:52:45Z</time>
      </trkpt>
      <trkpt lat="38.09945303" lon="-2.56016473">
        <ele>1229.0000</ele>
        <time>2018-10-13T18:52:47Z</time>
      </trkpt>
      <trkpt lat="38.09933946" lon="-2.56028367">
        <ele>1228.0000</ele>
        <time>2018-10-13T18:52:49Z</time>
      </trkpt>
      <trkpt lat="38.09924860" lon="-2.56039523">
        <ele>1226.0000</ele>
        <time>2018-10-13T18:52:51Z</time>
      </trkpt>
      <trkpt lat="38.09921029" lon="-2.56044058">
        <ele>1225.0000</ele>
        <time>2018-10-13T18:52:52Z</time>
      </trkpt>
      <trkpt lat="38.09909923" lon="-2.56056379">
        <ele>1223.0000</ele>
        <time>2018-10-13T18:52:55Z</time>
      </trkpt>
      <trkpt lat="38.09894819" lon="-2.56072221">
        <ele>1223.0000</ele>
        <time>2018-10-13T18:52:59Z</time>
      </trkpt>
      <trkpt lat="38.09885943" lon="-2.56084333">
        <ele>1223.0000</ele>
        <time>2018-10-13T18:53:03Z</time>
      </trkpt>
      <trkpt lat="38.09884903" lon="-2.56080552">
        <ele>1223.0000</ele>
        <time>2018-10-13T18:53:06Z</time>
      </trkpt>
      <trkpt lat="38.09889849" lon="-2.56073906">
        <ele>1224.0000</ele>
        <time>2018-10-13T18:53:09Z</time>
      </trkpt>
      <trkpt lat="38.09891483" lon="-2.56070980">
        <ele>1224.0000</ele>
        <time>2018-10-13T18:53:10Z</time>
      </trkpt>
      <trkpt lat="38.09895599" lon="-2.56065138">
        <ele>1224.0000</ele>
        <time>2018-10-13T18:53:12Z</time>
      </trkpt>
      <trkpt lat="38.09900041" lon="-2.56060109">
        <ele>1225.0000</ele>
        <time>2018-10-13T18:53:14Z</time>
      </trkpt>
      <trkpt lat="38.09908591" lon="-2.56050302">
        <ele>1225.0000</ele>
        <time>2018-10-13T18:53:18Z</time>
      </trkpt>
      <trkpt lat="38.09914676" lon="-2.56036254">
        <ele>1225.0000</ele>
        <time>2018-10-13T18:53:23Z</time>
      </trkpt>
      <trkpt lat="38.09886370" lon="-2.56024595">
        <ele>1225.0000</ele>
        <time>2018-10-13T18:53:29Z</time>
      </trkpt>
      <trkpt lat="38.09853840" lon="-2.56023463">
        <ele>1223.0000</ele>
        <time>2018-10-13T18:53:33Z</time>
      </trkpt>
      <trkpt lat="38.09844972" lon="-2.56023061">
        <ele>1222.0000</ele>
        <time>2018-10-13T18:53:34Z</time>
      </trkpt>
      <trkpt lat="38.09835635" lon="-2.56022407">
        <ele>1220.0000</ele>
        <time>2018-10-13T18:53:35Z</time>
      </trkpt>
      <trkpt lat="38.09816675" lon="-2.56021770">
        <ele>1219.0000</ele>
        <time>2018-10-13T18:53:37Z</time>
      </trkpt>
      <trkpt lat="38.09796944" lon="-2.56021142">
        <ele>1217.0000</ele>
        <time>2018-10-13T18:53:39Z</time>
      </trkpt>
      <trkpt lat="38.09777699" lon="-2.56020437">
        <ele>1216.0000</ele>
        <time>2018-10-13T18:53:41Z</time>
      </trkpt>
      <trkpt lat="38.09759275" lon="-2.56019046">
        <ele>1214.0000</ele>
        <time>2018-10-13T18:53:43Z</time>
      </trkpt>
      <trkpt lat="38.09741640" lon="-2.56017671">
        <ele>1213.0000</ele>
        <time>2018-10-13T18:53:45Z</time>
      </trkpt>
      <trkpt lat="38.09717098" lon="-2.56016305">
        <ele>1212.0000</ele>
        <time>2018-10-13T18:53:48Z</time>
      </trkpt>
      <trkpt lat="38.09702136" lon="-2.56015593">
        <ele>1212.0000</ele>
        <time>2018-10-13T18:53:50Z</time>
      </trkpt>
      <trkpt lat="38.09669539" lon="-2.56012835">
        <ele>1212.0000</ele>
        <time>2018-10-13T18:53:55Z</time>
      </trkpt>
      <trkpt lat="38.09645575" lon="-2.56012433">
        <ele>1213.0000</ele>
        <time>2018-10-13T18:53:59Z</time>
      </trkpt>
      <trkpt lat="38.09639607" lon="-2.56012148">
        <ele>1214.0000</ele>
        <time>2018-10-13T18:54:00Z</time>
      </trkpt>
      <trkpt lat="38.09627462" lon="-2.56011745">
        <ele>1214.0000</ele>
        <time>2018-10-13T18:54:02Z</time>
      </trkpt>
      <trkpt lat="38.09609667" lon="-2.56010949">
        <ele>1215.0000</ele>
        <time>2018-10-13T18:54:05Z</time>
      </trkpt>
      <trkpt lat="38.09591369" lon="-2.56009776">
        <ele>1215.0000</ele>
        <time>2018-10-13T18:54:08Z</time>
      </trkpt>
      <trkpt lat="38.09579132" lon="-2.56009742">
        <ele>1215.0000</ele>
        <time>2018-10-13T18:54:10Z</time>
      </trkpt>
      <trkpt lat="38.09560633" lon="-2.56009298">
        <ele>1215.0000</ele>
        <time>2018-10-13T18:54:13Z</time>
      </trkpt>
      <trkpt lat="38.09543156" lon="-2.56011603">
        <ele>1215.0000</ele>
        <time>2018-10-13T18:54:16Z</time>
      </trkpt>
      <trkpt lat="38.09498129" lon="-2.56038056">
        <ele>1215.0000</ele>
        <time>2018-10-13T18:54:24Z</time>
      </trkpt>
      <trkpt lat="38.09469882" lon="-2.56056924">
        <ele>1214.0000</ele>
        <time>2018-10-13T18:54:29Z</time>
      </trkpt>
      <trkpt lat="38.09464450" lon="-2.56060654">
        <ele>1214.0000</ele>
        <time>2018-10-13T18:54:30Z</time>
      </trkpt>
      <trkpt lat="38.09447821" lon="-2.56071760">
        <ele>1213.0000</ele>
        <time>2018-10-13T18:54:33Z</time>
      </trkpt>
      <trkpt lat="38.09394679" lon="-2.56102429">
        <ele>1212.0000</ele>
        <time>2018-10-13T18:54:41Z</time>
      </trkpt>
      <trkpt lat="38.09378544" lon="-2.56111197">
        <ele>1212.0000</ele>
        <time>2018-10-13T18:54:43Z</time>
      </trkpt>
      <trkpt lat="38.09360649" lon="-2.56118254">
        <ele>1211.0000</ele>
        <time>2018-10-13T18:54:45Z</time>
      </trkpt>
      <trkpt lat="38.09350934" lon="-2.56119386">
        <ele>1210.0000</ele>
        <time>2018-10-13T18:54:46Z</time>
      </trkpt>
      <trkpt lat="38.09330902" lon="-2.56115329">
        <ele>1208.0000</ele>
        <time>2018-10-13T18:54:48Z</time>
      </trkpt>
      <trkpt lat="38.09310936" lon="-2.56106520">
        <ele>1207.0000</ele>
        <time>2018-10-13T18:54:50Z</time>
      </trkpt>
      <trkpt lat="38.09291004" lon="-2.56096830">
        <ele>1205.0000</ele>
        <time>2018-10-13T18:54:52Z</time>
      </trkpt>
      <trkpt lat="38.09272044" lon="-2.56087074">
        <ele>1203.0000</ele>
        <time>2018-10-13T18:54:54Z</time>
      </trkpt>
      <trkpt lat="38.09263964" lon="-2.56081516">
        <ele>1202.0000</ele>
        <time>2018-10-13T18:54:55Z</time>
      </trkpt>
      <trkpt lat="38.09243252" lon="-2.56051769">
        <ele>1202.0000</ele>
        <time>2018-10-13T18:54:59Z</time>
      </trkpt>
      <trkpt lat="38.09231434" lon="-2.56030194">
        <ele>1201.0000</ele>
        <time>2018-10-13T18:55:02Z</time>
      </trkpt>
      <trkpt lat="38.09223638" lon="-2.56016573">
        <ele>1201.0000</ele>
        <time>2018-10-13T18:55:04Z</time>
      </trkpt>
      <trkpt lat="38.09212516" lon="-2.55996935">
        <ele>1203.0000</ele>
        <time>2018-10-13T18:55:07Z</time>
      </trkpt>
      <trkpt lat="38.09204326" lon="-2.55983691">
        <ele>1204.0000</ele>
        <time>2018-10-13T18:55:09Z</time>
      </trkpt>
      <trkpt lat="38.09193975" lon="-2.55966877">
        <ele>1205.0000</ele>
        <time>2018-10-13T18:55:12Z</time>
      </trkpt>
      <trkpt lat="38.09191142" lon="-2.55961680">
        <ele>1206.0000</ele>
        <time>2018-10-13T18:55:13Z</time>
      </trkpt>
      <trkpt lat="38.09180287" lon="-2.55943232">
        <ele>1207.0000</ele>
        <time>2018-10-13T18:55:17Z</time>
      </trkpt>
      <trkpt lat="38.09172743" lon="-2.55930994">
        <ele>1208.0000</ele>
        <time>2018-10-13T18:55:21Z</time>
      </trkpt>
      <trkpt lat="38.09168376" lon="-2.55925915">
        <ele>1209.0000</ele>
        <time>2018-10-13T18:55:25Z</time>
      </trkpt>
      <trkpt lat="38.09165627" lon="-2.55921011">
        <ele>1212.0000</ele>
        <time>2018-10-13T18:55:42Z</time>
      </trkpt>
      <trkpt lat="38.09164730" lon="-2.55919142">
        <ele>1212.0000</ele>
        <time>2018-10-13T18:55:43Z</time>
      </trkpt>
      <trkpt lat="38.09158897" lon="-2.55909662">
        <ele>1212.0000</ele>
        <time>2018-10-13T18:55:47Z</time>
      </trkpt>
      <trkpt lat="38.09145234" lon="-2.55891155">
        <ele>1212.0000</ele>
        <time>2018-10-13T18:55:54Z</time>
      </trkpt>
      <trkpt lat="38.09131387" lon="-2.55876176">
        <ele>1213.0000</ele>
        <time>2018-10-13T18:56:00Z</time>
      </trkpt>
      <trkpt lat="38.09116576" lon="-2.55869546">
        <ele>1214.0000</ele>
        <time>2018-10-13T18:56:05Z</time>
      </trkpt>
      <trkpt lat="38.09107390" lon="-2.55869370">
        <ele>1214.0000</ele>
        <time>2018-10-13T18:56:08Z</time>
      </trkpt>
      <trkpt lat="38.09086946" lon="-2.55872430">
        <ele>1215.0000</ele>
        <time>2018-10-13T18:56:15Z</time>
      </trkpt>
      <trkpt lat="38.09066955" lon="-2.55882740">
        <ele>1216.0000</ele>
        <time>2018-10-13T18:56:22Z</time>
      </trkpt>
      <trkpt lat="38.09017997" lon="-2.55918421">
        <ele>1218.0000</ele>
        <time>2018-10-13T18:56:39Z</time>
      </trkpt>
      <trkpt lat="38.09014962" lon="-2.55920676">
        <ele>1218.0000</ele>
        <time>2018-10-13T18:56:40Z</time>
      </trkpt>
      <trkpt lat="38.08983757" lon="-2.55923283">
        <ele>1219.0000</ele>
        <time>2018-10-13T18:56:49Z</time>
      </trkpt>
      <trkpt lat="38.08967186" lon="-2.55908455">
        <ele>1220.0000</ele>
        <time>2018-10-13T18:56:55Z</time>
      </trkpt>
      <trkpt lat="38.08953347" lon="-2.55897425">
        <ele>1221.0000</ele>
        <time>2018-10-13T18:57:00Z</time>
      </trkpt>
      <trkpt lat="38.08929056" lon="-2.55886327">
        <ele>1222.0000</ele>
        <time>2018-10-13T18:57:08Z</time>
      </trkpt>
      <trkpt lat="38.08908127" lon="-2.55880502">
        <ele>1223.0000</ele>
        <time>2018-10-13T18:57:15Z</time>
      </trkpt>
      <trkpt lat="38.08897926" lon="-2.55874307">
        <ele>1224.0000</ele>
        <time>2018-10-13T18:57:21Z</time>
      </trkpt>
      <trkpt lat="38.08888605" lon="-2.55861869">
        <ele>1225.0000</ele>
        <time>2018-10-13T18:57:27Z</time>
      </trkpt>
      <trkpt lat="38.08862018" lon="-2.55832255">
        <ele>1226.0000</ele>
        <time>2018-10-13T18:57:37Z</time>
      </trkpt>
      <trkpt lat="38.08841046" lon="-2.55809037">
        <ele>1228.0000</ele>
        <time>2018-10-13T18:57:44Z</time>
      </trkpt>
      <trkpt lat="38.08828834" lon="-2.55791100">
        <ele>1229.0000</ele>
        <time>2018-10-13T18:57:50Z</time>
      </trkpt>
      <trkpt lat="38.08822120" lon="-2.55767279">
        <ele>1230.0000</ele>
        <time>2018-10-13T18:57:57Z</time>
      </trkpt>
      <trkpt lat="38.08818566" lon="-2.55729636">
        <ele>1231.0000</ele>
        <time>2018-10-13T18:58:05Z</time>
      </trkpt>
      <trkpt lat="38.08821223" lon="-2.55705060">
        <ele>1232.0000</ele>
        <time>2018-10-13T18:58:11Z</time>
      </trkpt>
      <trkpt lat="38.08823972" lon="-2.55679193">
        <ele>1233.0000</ele>
        <time>2018-10-13T18:58:17Z</time>
      </trkpt>
      <trkpt lat="38.08822698" lon="-2.55645968">
        <ele>1235.0000</ele>
        <time>2018-10-13T18:58:25Z</time>
      </trkpt>
      <trkpt lat="38.08818398" lon="-2.55618701">
        <ele>1236.0000</ele>
        <time>2018-10-13T18:58:32Z</time>
      </trkpt>
      <trkpt lat="38.08807116" lon="-2.55600538">
        <ele>1237.0000</ele>
        <time>2018-10-13T18:58:38Z</time>
      </trkpt>
      <trkpt lat="38.08792012" lon="-2.55597939">
        <ele>1238.0000</ele>
        <time>2018-10-13T18:58:43Z</time>
      </trkpt>
      <trkpt lat="38.08771242" lon="-2.55604268">
        <ele>1239.0000</ele>
        <time>2018-10-13T18:58:50Z</time>
      </trkpt>
      <trkpt lat="38.08750740" lon="-2.55610386">
        <ele>1240.0000</ele>
        <time>2018-10-13T18:58:57Z</time>
      </trkpt>
      <trkpt lat="38.08738946" lon="-2.55611702">
        <ele>1241.0000</ele>
        <time>2018-10-13T18:59:01Z</time>
      </trkpt>
      <trkpt lat="38.08723482" lon="-2.55608115">
        <ele>1243.0000</ele>
        <time>2018-10-13T18:59:06Z</time>
      </trkpt>
      <trkpt lat="38.08705159" lon="-2.55594846">
        <ele>1244.0000</ele>
        <time>2018-10-13T18:59:13Z</time>
      </trkpt>
      <trkpt lat="38.08696442" lon="-2.55590035">
        <ele>1245.0000</ele>
        <time>2018-10-13T18:59:16Z</time>
      </trkpt>
      <trkpt lat="38.08658841" lon="-2.55581863">
        <ele>1246.0000</ele>
        <time>2018-10-13T18:59:28Z</time>
      </trkpt>
      <trkpt lat="38.08624785" lon="-2.55576406">
        <ele>1247.0000</ele>
        <time>2018-10-13T18:59:39Z</time>
      </trkpt>
      <trkpt lat="38.08618457" lon="-2.55575861">
        <ele>1247.0000</ele>
        <time>2018-10-13T18:59:41Z</time>
      </trkpt>
      <trkpt lat="38.08598835" lon="-2.55582081">
        <ele>1248.0000</ele>
        <time>2018-10-13T18:59:47Z</time>
      </trkpt>
      <trkpt lat="38.08584552" lon="-2.55586724">
        <ele>1248.0000</ele>
        <time>2018-10-13T18:59:51Z</time>
      </trkpt>
      <trkpt lat="38.08554444" lon="-2.55578116">
        <ele>1248.0000</ele>
        <time>2018-10-13T18:59:58Z</time>
      </trkpt>
      <trkpt lat="38.08523389" lon="-2.55558729">
        <ele>1248.0000</ele>
        <time>2018-10-13T19:00:07Z</time>
      </trkpt>
      <trkpt lat="38.08511805" lon="-2.55553834">
        <ele>1249.0000</ele>
        <time>2018-10-13T19:00:10Z</time>
      </trkpt>
      <trkpt lat="38.08503356" lon="-2.55552107">
        <ele>1249.0000</ele>
        <time>2018-10-13T19:00:12Z</time>
      </trkpt>
      <trkpt lat="38.08489048" lon="-2.55551193">
        <ele>1250.0000</ele>
        <time>2018-10-13T19:00:16Z</time>
      </trkpt>
      <trkpt lat="38.08468018" lon="-2.55550397">
        <ele>1251.0000</ele>
        <time>2018-10-13T19:00:23Z</time>
      </trkpt>
      <trkpt lat="38.08429336" lon="-2.55552140">
        <ele>1252.0000</ele>
        <time>2018-10-13T19:00:34Z</time>
      </trkpt>
      <trkpt lat="38.08420375" lon="-2.55554731">
        <ele>1252.0000</ele>
        <time>2018-10-13T19:00:36Z</time>
      </trkpt>
      <trkpt lat="38.08415422" lon="-2.55556918">
        <ele>1252.0000</ele>
        <time>2018-10-13T19:00:37Z</time>
      </trkpt>
      <trkpt lat="38.08397090" lon="-2.55576666">
        <ele>1251.0000</ele>
        <time>2018-10-13T19:00:41Z</time>
      </trkpt>
      <trkpt lat="38.08387577" lon="-2.55590479">
        <ele>1251.0000</ele>
        <time>2018-10-13T19:00:43Z</time>
      </trkpt>
      <trkpt lat="38.08382447" lon="-2.55597897">
        <ele>1250.0000</ele>
        <time>2018-10-13T19:00:44Z</time>
      </trkpt>
      <trkpt lat="38.08377158" lon="-2.55605709">
        <ele>1249.0000</ele>
        <time>2018-10-13T19:00:45Z</time>
      </trkpt>
      <trkpt lat="38.08360126" lon="-2.55631031">
        <ele>1248.0000</ele>
        <time>2018-10-13T19:00:48Z</time>
      </trkpt>
      <trkpt lat="38.08348777" lon="-2.55650536">
        <ele>1247.0000</ele>
        <time>2018-10-13T19:00:50Z</time>
      </trkpt>
      <trkpt lat="38.08343740" lon="-2.55661617">
        <ele>1246.0000</ele>
        <time>2018-10-13T19:00:51Z</time>
      </trkpt>
      <trkpt lat="38.08339205" lon="-2.55673502">
        <ele>1245.0000</ele>
        <time>2018-10-13T19:00:52Z</time>
      </trkpt>
      <trkpt lat="38.08330723" lon="-2.55698866">
        <ele>1243.0000</ele>
        <time>2018-10-13T19:00:54Z</time>
      </trkpt>
      <trkpt lat="38.08322533" lon="-2.55723643">
        <ele>1242.0000</ele>
        <time>2018-10-13T19:00:56Z</time>
      </trkpt>
      <trkpt lat="38.08314638" lon="-2.55746508">
        <ele>1241.0000</ele>
        <time>2018-10-13T19:00:58Z</time>
      </trkpt>
      <trkpt lat="38.08310380" lon="-2.55756986">
        <ele>1239.0000</ele>
        <time>2018-10-13T19:00:59Z</time>
      </trkpt>
      <trkpt lat="38.08305082" lon="-2.55766499">
        <ele>1238.0000</ele>
        <time>2018-10-13T19:01:00Z</time>
      </trkpt>
      <trkpt lat="38.08298452" lon="-2.55774655">
        <ele>1236.0000</ele>
        <time>2018-10-13T19:01:01Z</time>
      </trkpt>
      <trkpt lat="38.08291261" lon="-2.55781503">
        <ele>1235.0000</ele>
        <time>2018-10-13T19:01:02Z</time>
      </trkpt>
      <trkpt lat="38.08266961" lon="-2.55797252">
        <ele>1234.0000</ele>
        <time>2018-10-13T19:01:05Z</time>
      </trkpt>
      <trkpt lat="38.08242084" lon="-2.55811083">
        <ele>1234.0000</ele>
        <time>2018-10-13T19:01:08Z</time>
      </trkpt>
      <trkpt lat="38.08188976" lon="-2.55800253">
        <ele>1233.0000</ele>
        <time>2018-10-13T19:01:15Z</time>
      </trkpt>
      <trkpt lat="38.08183025" lon="-2.55804771">
        <ele>1233.0000</ele>
        <time>2018-10-13T19:01:16Z</time>
      </trkpt>
      <trkpt lat="38.08186319" lon="-2.55863662">
        <ele>1232.0000</ele>
        <time>2018-10-13T19:01:22Z</time>
      </trkpt>
      <trkpt lat="38.08190083" lon="-2.55874768">
        <ele>1232.0000</ele>
        <time>2018-10-13T19:01:23Z</time>
      </trkpt>
      <trkpt lat="38.08197082" lon="-2.55898497">
        <ele>1231.0000</ele>
        <time>2018-10-13T19:01:25Z</time>
      </trkpt>
      <trkpt lat="38.08203058" lon="-2.55923962">
        <ele>1229.0000</ele>
        <time>2018-10-13T19:01:27Z</time>
      </trkpt>
      <trkpt lat="38.08206981" lon="-2.55936618">
        <ele>1228.0000</ele>
        <time>2018-10-13T19:01:28Z</time>
      </trkpt>
      <trkpt lat="38.08211867" lon="-2.55949007">
        <ele>1228.0000</ele>
        <time>2018-10-13T19:01:29Z</time>
      </trkpt>
      <trkpt lat="38.08221699" lon="-2.55974454">
        <ele>1225.0000</ele>
        <time>2018-10-13T19:01:31Z</time>
      </trkpt>
      <trkpt lat="38.08225932" lon="-2.55987698">
        <ele>1224.0000</ele>
        <time>2018-10-13T19:01:32Z</time>
      </trkpt>
      <trkpt lat="38.08229754" lon="-2.56000807">
        <ele>1222.0000</ele>
        <time>2018-10-13T19:01:33Z</time>
      </trkpt>
      <trkpt lat="38.08237751" lon="-2.56025416">
        <ele>1221.0000</ele>
        <time>2018-10-13T19:01:35Z</time>
      </trkpt>
      <trkpt lat="38.08245906" lon="-2.56047327">
        <ele>1220.0000</ele>
        <time>2018-10-13T19:01:37Z</time>
      </trkpt>
      <trkpt lat="38.08258647" lon="-2.56083863">
        <ele>1219.0000</ele>
        <time>2018-10-13T19:01:41Z</time>
      </trkpt>
      <trkpt lat="38.08251212" lon="-2.56117936">
        <ele>1219.0000</ele>
        <time>2018-10-13T19:01:46Z</time>
      </trkpt>
      <trkpt lat="38.08235672" lon="-2.56114155">
        <ele>1218.0000</ele>
        <time>2018-10-13T19:01:49Z</time>
      </trkpt>
      <trkpt lat="38.08225412" lon="-2.56078985">
        <ele>1218.0000</ele>
        <time>2018-10-13T19:01:53Z</time>
      </trkpt>
      <trkpt lat="38.08218573" lon="-2.56046916">
        <ele>1217.0000</ele>
        <time>2018-10-13T19:01:56Z</time>
      </trkpt>
      <trkpt lat="38.08215379" lon="-2.56025768">
        <ele>1216.0000</ele>
        <time>2018-10-13T19:01:58Z</time>
      </trkpt>
      <trkpt lat="38.08212982" lon="-2.56006347">
        <ele>1215.0000</ele>
        <time>2018-10-13T19:02:00Z</time>
      </trkpt>
      <trkpt lat="38.08209445" lon="-2.55988888">
        <ele>1213.0000</ele>
        <time>2018-10-13T19:02:02Z</time>
      </trkpt>
      <trkpt lat="38.08202496" lon="-2.55974756">
        <ele>1212.0000</ele>
        <time>2018-10-13T19:02:04Z</time>
      </trkpt>
      <trkpt lat="38.08191390" lon="-2.55966927">
        <ele>1211.0000</ele>
        <time>2018-10-13T19:02:06Z</time>
      </trkpt>
      <trkpt lat="38.08171072" lon="-2.55969693">
        <ele>1209.0000</ele>
        <time>2018-10-13T19:02:09Z</time>
      </trkpt>
      <trkpt lat="38.08164342" lon="-2.55972334">
        <ele>1209.0000</ele>
        <time>2018-10-13T19:02:10Z</time>
      </trkpt>
      <trkpt lat="38.08152322" lon="-2.55975938">
        <ele>1208.0000</ele>
        <time>2018-10-13T19:02:12Z</time>
      </trkpt>
      <trkpt lat="38.08147067" lon="-2.55975712">
        <ele>1208.0000</ele>
        <time>2018-10-13T19:02:13Z</time>
      </trkpt>
      <trkpt lat="38.08138987" lon="-2.55972635">
        <ele>1208.0000</ele>
        <time>2018-10-13T19:02:15Z</time>
      </trkpt>
      <trkpt lat="38.08136346" lon="-2.55970532">
        <ele>1208.0000</ele>
        <time>2018-10-13T19:02:16Z</time>
      </trkpt>
      <trkpt lat="38.08131845" lon="-2.55964337">
        <ele>1208.0000</ele>
        <time>2018-10-13T19:02:18Z</time>
      </trkpt>
      <trkpt lat="38.08125768" lon="-2.55954639">
        <ele>1208.0000</ele>
        <time>2018-10-13T19:02:21Z</time>
      </trkpt>
      <trkpt lat="38.08121577" lon="-2.55945134">
        <ele>1209.0000</ele>
        <time>2018-10-13T19:02:24Z</time>
      </trkpt>
      <trkpt lat="38.08120152" lon="-2.55942553">
        <ele>1209.0000</ele>
        <time>2018-10-13T19:02:25Z</time>
      </trkpt>
      <trkpt lat="38.08116045" lon="-2.55936325">
        <ele>1210.0000</ele>
        <time>2018-10-13T19:02:27Z</time>
      </trkpt>
      <trkpt lat="38.08112391" lon="-2.55930734">
        <ele>1210.0000</ele>
        <time>2018-10-13T19:02:29Z</time>
      </trkpt>
      <trkpt lat="38.08105182" lon="-2.55915999">
        <ele>1212.0000</ele>
        <time>2018-10-13T19:02:34Z</time>
      </trkpt>
      <trkpt lat="38.08098745" lon="-2.55902093">
        <ele>1213.0000</ele>
        <time>2018-10-13T19:02:39Z</time>
      </trkpt>
      <trkpt lat="38.08091989" lon="-2.55890979">
        <ele>1214.0000</ele>
        <time>2018-10-13T19:02:43Z</time>
      </trkpt>
      <trkpt lat="38.08091629" lon="-2.55889638">
        <ele>1214.0000</ele>
        <time>2018-10-13T19:02:44Z</time>
      </trkpt>
      <trkpt lat="38.08082032" lon="-2.55871424">
        <ele>1215.0000</ele>
        <time>2018-10-13T19:02:50Z</time>
      </trkpt>
      <trkpt lat="38.08072552" lon="-2.55848575">
        <ele>1216.0000</ele>
        <time>2018-10-13T19:02:58Z</time>
      </trkpt>
      <trkpt lat="38.08064287" lon="-2.55821191">
        <ele>1218.0000</ele>
        <time>2018-10-13T19:03:06Z</time>
      </trkpt>
      <trkpt lat="38.08061898" lon="-2.55796909">
        <ele>1219.0000</ele>
        <time>2018-10-13T19:03:13Z</time>
      </trkpt>
      <trkpt lat="38.08062795" lon="-2.55790472">
        <ele>1219.0000</ele>
        <time>2018-10-13T19:03:15Z</time>
      </trkpt>
      <trkpt lat="38.08065628" lon="-2.55781126">
        <ele>1220.0000</ele>
        <time>2018-10-13T19:03:18Z</time>
      </trkpt>
      <trkpt lat="38.08072510" lon="-2.55762769">
        <ele>1221.0000</ele>
        <time>2018-10-13T19:03:24Z</time>
      </trkpt>
      <trkpt lat="38.08078779" lon="-2.55748285">
        <ele>1222.0000</ele>
        <time>2018-10-13T19:03:29Z</time>
      </trkpt>
      <trkpt lat="38.08080573" lon="-2.55739174">
        <ele>1222.0000</ele>
        <time>2018-10-13T19:03:32Z</time>
      </trkpt>
      <trkpt lat="38.08082308" lon="-2.55717909">
        <ele>1224.0000</ele>
        <time>2018-10-13T19:03:39Z</time>
      </trkpt>
      <trkpt lat="38.08081738" lon="-2.55699788">
        <ele>1225.0000</ele>
        <time>2018-10-13T19:03:45Z</time>
      </trkpt>
      <trkpt lat="38.08080783" lon="-2.55679084">
        <ele>1226.0000</ele>
        <time>2018-10-13T19:03:52Z</time>
      </trkpt>
      <trkpt lat="38.08081235" lon="-2.55661281">
        <ele>1227.0000</ele>
        <time>2018-10-13T19:03:58Z</time>
      </trkpt>
      <trkpt lat="38.08086558" lon="-2.55646672">
        <ele>1228.0000</ele>
        <time>2018-10-13T19:04:03Z</time>
      </trkpt>
      <trkpt lat="38.08095904" lon="-2.55629103">
        <ele>1229.0000</ele>
        <time>2018-10-13T19:04:09Z</time>
      </trkpt>
      <trkpt lat="38.08105534" lon="-2.55601543">
        <ele>1231.0000</ele>
        <time>2018-10-13T19:04:18Z</time>
      </trkpt>
      <trkpt lat="38.08103657" lon="-2.55579004">
        <ele>1232.0000</ele>
        <time>2018-10-13T19:04:25Z</time>
      </trkpt>
      <trkpt lat="38.08099298" lon="-2.55559072">
        <ele>1233.0000</ele>
        <time>2018-10-13T19:04:32Z</time>
      </trkpt>
      <trkpt lat="38.08089173" lon="-2.55537120">
        <ele>1234.0000</ele>
        <time>2018-10-13T19:04:40Z</time>
      </trkpt>
      <trkpt lat="38.08081001" lon="-2.55522075">
        <ele>1235.0000</ele>
        <time>2018-10-13T19:04:46Z</time>
      </trkpt>
      <trkpt lat="38.08074471" lon="-2.55508362">
        <ele>1236.0000</ele>
        <time>2018-10-13T19:04:51Z</time>
      </trkpt>
      <trkpt lat="38.08060046" lon="-2.55490332">
        <ele>1238.0000</ele>
        <time>2018-10-13T19:04:59Z</time>
      </trkpt>
      <trkpt lat="38.08042494" lon="-2.55487617">
        <ele>1239.0000</ele>
        <time>2018-10-13T19:05:06Z</time>
      </trkpt>
      <trkpt lat="38.08030919" lon="-2.55488287">
        <ele>1240.0000</ele>
        <time>2018-10-13T19:05:11Z</time>
      </trkpt>
      <trkpt lat="38.08028412" lon="-2.55487952">
        <ele>1240.0000</ele>
        <time>2018-10-13T19:05:12Z</time>
      </trkpt>
      <trkpt lat="38.08013149" lon="-2.55485823">
        <ele>1241.0000</ele>
        <time>2018-10-13T19:05:18Z</time>
      </trkpt>
      <trkpt lat="38.08002060" lon="-2.55484465">
        <ele>1242.0000</ele>
        <time>2018-10-13T19:05:23Z</time>
      </trkpt>
      <trkpt lat="38.07988037" lon="-2.55479268">
        <ele>1243.0000</ele>
        <time>2018-10-13T19:05:30Z</time>
      </trkpt>
      <trkpt lat="38.07976361" lon="-2.55468900">
        <ele>1244.0000</ele>
        <time>2018-10-13T19:05:36Z</time>
      </trkpt>
      <trkpt lat="38.07964224" lon="-2.55451985">
        <ele>1245.0000</ele>
        <time>2018-10-13T19:05:44Z</time>
      </trkpt>
      <trkpt lat="38.07953847" lon="-2.55439722">
        <ele>1246.0000</ele>
        <time>2018-10-13T19:05:50Z</time>
      </trkpt>
      <trkpt lat="38.07944317" lon="-2.55428315">
        <ele>1247.0000</ele>
        <time>2018-10-13T19:05:56Z</time>
      </trkpt>
      <trkpt lat="38.07930545" lon="-2.55418030">
        <ele>1248.0000</ele>
        <time>2018-10-13T19:06:03Z</time>
      </trkpt>
      <trkpt lat="38.07915056" lon="-2.55411769">
        <ele>1250.0000</ele>
        <time>2018-10-13T19:06:10Z</time>
      </trkpt>
      <trkpt lat="38.07899247" lon="-2.55401476">
        <ele>1251.0000</ele>
        <time>2018-10-13T19:06:18Z</time>
      </trkpt>
      <trkpt lat="38.07898384" lon="-2.55399271">
        <ele>1251.0000</ele>
        <time>2018-10-13T19:06:19Z</time>
      </trkpt>
      <trkpt lat="38.07891645" lon="-2.55380429">
        <ele>1251.0000</ele>
        <time>2018-10-13T19:06:23Z</time>
      </trkpt>
      <trkpt lat="38.07895970" lon="-2.55360195">
        <ele>1252.0000</ele>
        <time>2018-10-13T19:06:29Z</time>
      </trkpt>
      <trkpt lat="38.07914385" lon="-2.55343222">
        <ele>1253.0000</ele>
        <time>2018-10-13T19:06:38Z</time>
      </trkpt>
      <trkpt lat="38.07924158" lon="-2.55336432">
        <ele>1253.0000</ele>
        <time>2018-10-13T19:06:42Z</time>
      </trkpt>
      <trkpt lat="38.07937016" lon="-2.55331990">
        <ele>1254.0000</ele>
        <time>2018-10-13T19:06:47Z</time>
      </trkpt>
      <trkpt lat="38.07965808" lon="-2.55323776">
        <ele>1255.0000</ele>
        <time>2018-10-13T19:06:58Z</time>
      </trkpt>
      <trkpt lat="38.07978741" lon="-2.55324119">
        <ele>1256.0000</ele>
        <time>2018-10-13T19:07:02Z</time>
      </trkpt>
      <trkpt lat="38.07999629" lon="-2.55325527">
        <ele>1256.0000</ele>
        <time>2018-10-13T19:07:08Z</time>
      </trkpt>
      <trkpt lat="38.08018815" lon="-2.55324714">
        <ele>1257.0000</ele>
        <time>2018-10-13T19:07:14Z</time>
      </trkpt>
      <trkpt lat="38.08033274" lon="-2.55321764">
        <ele>1258.0000</ele>
        <time>2018-10-13T19:07:19Z</time>
      </trkpt>
      <trkpt lat="38.08046207" lon="-2.55314203">
        <ele>1259.0000</ele>
        <time>2018-10-13T19:07:24Z</time>
      </trkpt>
      <trkpt lat="38.08061772" lon="-2.55303399">
        <ele>1261.0000</ele>
        <time>2018-10-13T19:07:30Z</time>
      </trkpt>
      <trkpt lat="38.08082937" lon="-2.55292268">
        <ele>1262.0000</ele>
        <time>2018-10-13T19:07:38Z</time>
      </trkpt>
      <trkpt lat="38.08098603" lon="-2.55285453">
        <ele>1263.0000</ele>
        <time>2018-10-13T19:07:44Z</time>
      </trkpt>
      <trkpt lat="38.08114922" lon="-2.55275345">
        <ele>1264.0000</ele>
        <time>2018-10-13T19:07:51Z</time>
      </trkpt>
      <trkpt lat="38.08123832" lon="-2.55265153">
        <ele>1265.0000</ele>
        <time>2018-10-13T19:07:55Z</time>
      </trkpt>
      <trkpt lat="38.08129993" lon="-2.55249973">
        <ele>1266.0000</ele>
        <time>2018-10-13T19:08:00Z</time>
      </trkpt>
      <trkpt lat="38.08128970" lon="-2.55244106">
        <ele>1266.0000</ele>
        <time>2018-10-13T19:08:02Z</time>
      </trkpt>
      <trkpt lat="38.08123170" lon="-2.55235841">
        <ele>1267.0000</ele>
        <time>2018-10-13T19:08:06Z</time>
      </trkpt>
      <trkpt lat="38.08110404" lon="-2.55227057">
        <ele>1268.0000</ele>
        <time>2018-10-13T19:08:11Z</time>
      </trkpt>
      <trkpt lat="38.08099281" lon="-2.55221952">
        <ele>1269.0000</ele>
        <time>2018-10-13T19:08:15Z</time>
      </trkpt>
      <trkpt lat="38.08088410" lon="-2.55217309">
        <ele>1270.0000</ele>
        <time>2018-10-13T19:08:20Z</time>
      </trkpt>
      <trkpt lat="38.08075645" lon="-2.55209639">
        <ele>1271.0000</ele>
        <time>2018-10-13T19:08:25Z</time>
      </trkpt>
      <trkpt lat="38.08064077" lon="-2.55203579">
        <ele>1273.0000</ele>
        <time>2018-10-13T19:08:30Z</time>
      </trkpt>
      <trkpt lat="38.08050088" lon="-2.55197033">
        <ele>1274.0000</ele>
        <time>2018-10-13T19:08:36Z</time>
      </trkpt>
      <trkpt lat="38.08033584" lon="-2.55187226">
        <ele>1275.0000</ele>
        <time>2018-10-13T19:08:43Z</time>
      </trkpt>
      <trkpt lat="38.08020642" lon="-2.55179087">
        <ele>1276.0000</ele>
        <time>2018-10-13T19:08:49Z</time>
      </trkpt>
      <trkpt lat="38.08004960" lon="-2.55167939">
        <ele>1277.0000</ele>
        <time>2018-10-13T19:08:56Z</time>
      </trkpt>
      <trkpt lat="38.07992085" lon="-2.55160714">
        <ele>1278.0000</ele>
        <time>2018-10-13T19:09:02Z</time>
      </trkpt>
      <trkpt lat="38.07981767" lon="-2.55154889">
        <ele>1279.0000</ele>
        <time>2018-10-13T19:09:07Z</time>
      </trkpt>
      <trkpt lat="38.07967568" lon="-2.55143607">
        <ele>1280.0000</ele>
        <time>2018-10-13T19:09:13Z</time>
      </trkpt>
      <trkpt lat="38.07954794" lon="-2.55124563">
        <ele>1281.0000</ele>
        <time>2018-10-13T19:09:20Z</time>
      </trkpt>
      <trkpt lat="38.07950234" lon="-2.55104497">
        <ele>1282.0000</ele>
        <time>2018-10-13T19:09:26Z</time>
      </trkpt>
      <trkpt lat="38.07928718" lon="-2.55077423">
        <ele>1283.0000</ele>
        <time>2018-10-13T19:09:35Z</time>
      </trkpt>
      <trkpt lat="38.07913589" lon="-2.55084522">
        <ele>1284.0000</ele>
        <time>2018-10-13T19:09:40Z</time>
      </trkpt>
      <trkpt lat="38.07911560" lon="-2.55091287">
        <ele>1285.0000</ele>
        <time>2018-10-13T19:09:42Z</time>
      </trkpt>
      <trkpt lat="38.07914695" lon="-2.55106181">
        <ele>1286.0000</ele>
        <time>2018-10-13T19:09:47Z</time>
      </trkpt>
      <trkpt lat="38.07922624" lon="-2.55115209">
        <ele>1287.0000</ele>
        <time>2018-10-13T19:09:51Z</time>
      </trkpt>
      <trkpt lat="38.07928567" lon="-2.55122124">
        <ele>1288.0000</ele>
        <time>2018-10-13T19:09:54Z</time>
      </trkpt>
      <trkpt lat="38.07936388" lon="-2.55134219">
        <ele>1289.0000</ele>
        <time>2018-10-13T19:09:58Z</time>
      </trkpt>
      <trkpt lat="38.07951659" lon="-2.55156422">
        <ele>1290.0000</ele>
        <time>2018-10-13T19:10:06Z</time>
      </trkpt>
      <trkpt lat="38.07965833" lon="-2.55174343">
        <ele>1292.0000</ele>
        <time>2018-10-13T19:10:13Z</time>
      </trkpt>
      <trkpt lat="38.07979403" lon="-2.55192406">
        <ele>1293.0000</ele>
        <time>2018-10-13T19:10:20Z</time>
      </trkpt>
      <trkpt lat="38.07977643" lon="-2.55219454">
        <ele>1294.0000</ele>
        <time>2018-10-13T19:10:28Z</time>
      </trkpt>
      <trkpt lat="38.07966697" lon="-2.55230812">
        <ele>1295.0000</ele>
        <time>2018-10-13T19:10:33Z</time>
      </trkpt>
      <trkpt lat="38.07961701" lon="-2.55233637">
        <ele>1295.0000</ele>
        <time>2018-10-13T19:10:35Z</time>
      </trkpt>
      <trkpt lat="38.07946194" lon="-2.55238356">
        <ele>1296.0000</ele>
        <time>2018-10-13T19:10:41Z</time>
      </trkpt>
      <trkpt lat="38.07930001" lon="-2.55237358">
        <ele>1297.0000</ele>
        <time>2018-10-13T19:10:47Z</time>
      </trkpt>
      <trkpt lat="38.07902600" lon="-2.55238180">
        <ele>1299.0000</ele>
        <time>2018-10-13T19:10:57Z</time>
      </trkpt>
      <trkpt lat="38.07885124" lon="-2.55249562">
        <ele>1300.0000</ele>
        <time>2018-10-13T19:11:04Z</time>
      </trkpt>
      <trkpt lat="38.07872987" lon="-2.55267038">
        <ele>1301.0000</ele>
        <time>2018-10-13T19:11:11Z</time>
      </trkpt>
      <trkpt lat="38.07861931" lon="-2.55284037">
        <ele>1302.0000</ele>
        <time>2018-10-13T19:11:17Z</time>
      </trkpt>
      <trkpt lat="38.07851303" lon="-2.55303709">
        <ele>1303.0000</ele>
        <time>2018-10-13T19:11:23Z</time>
      </trkpt>
      <trkpt lat="38.07840188" lon="-2.55320649">
        <ele>1304.0000</ele>
        <time>2018-10-13T19:11:29Z</time>
      </trkpt>
      <trkpt lat="38.07829384" lon="-2.55336248">
        <ele>1305.0000</ele>
        <time>2018-10-13T19:11:35Z</time>
      </trkpt>
      <trkpt lat="38.07811363" lon="-2.55348075">
        <ele>1306.0000</ele>
        <time>2018-10-13T19:11:42Z</time>
      </trkpt>
      <trkpt lat="38.07793107" lon="-2.55359097">
        <ele>1307.0000</ele>
        <time>2018-10-13T19:11:49Z</time>
      </trkpt>
      <trkpt lat="38.07780543" lon="-2.55369926">
        <ele>1308.0000</ele>
        <time>2018-10-13T19:11:54Z</time>
      </trkpt>
      <trkpt lat="38.07774147" lon="-2.55378778">
        <ele>1309.0000</ele>
        <time>2018-10-13T19:11:57Z</time>
      </trkpt>
      <trkpt lat="38.07752070" lon="-2.55409179">
        <ele>1309.0000</ele>
        <time>2018-10-13T19:12:07Z</time>
      </trkpt>
      <trkpt lat="38.07743344" lon="-2.55415323">
        <ele>1310.0000</ele>
        <time>2018-10-13T19:12:10Z</time>
      </trkpt>
      <trkpt lat="38.07729531" lon="-2.55427217">
        <ele>1310.0000</ele>
        <time>2018-10-13T19:12:15Z</time>
      </trkpt>
      <trkpt lat="38.07730805" lon="-2.55451113">
        <ele>1310.0000</ele>
        <time>2018-10-13T19:12:21Z</time>
      </trkpt>
      <trkpt lat="38.07743403" lon="-2.55459076">
        <ele>1310.0000</ele>
        <time>2018-10-13T19:12:25Z</time>
      </trkpt>
      <trkpt lat="38.07757333" lon="-2.55465279">
        <ele>1311.0000</ele>
        <time>2018-10-13T19:12:29Z</time>
      </trkpt>
      <trkpt lat="38.07800450" lon="-2.55471741">
        <ele>1312.0000</ele>
        <time>2018-10-13T19:12:42Z</time>
      </trkpt>
      <trkpt lat="38.07804021" lon="-2.55473468">
        <ele>1312.0000</ele>
        <time>2018-10-13T19:12:43Z</time>
      </trkpt>
      <trkpt lat="38.07814850" lon="-2.55478623">
        <ele>1313.0000</ele>
        <time>2018-10-13T19:12:46Z</time>
      </trkpt>
      <trkpt lat="38.07821723" lon="-2.55481556">
        <ele>1313.0000</ele>
        <time>2018-10-13T19:12:48Z</time>
      </trkpt>
      <trkpt lat="38.07836484" lon="-2.55493367">
        <ele>1314.0000</ele>
        <time>2018-10-13T19:12:53Z</time>
      </trkpt>
      <trkpt lat="38.07839141" lon="-2.55496149">
        <ele>1314.0000</ele>
        <time>2018-10-13T19:12:54Z</time>
      </trkpt>
      <trkpt lat="38.07842535" lon="-2.55497591">
        <ele>1315.0000</ele>
        <time>2018-10-13T19:12:55Z</time>
      </trkpt>
      <trkpt lat="38.07855360" lon="-2.55506082">
        <ele>1315.0000</ele>
        <time>2018-10-13T19:12:59Z</time>
      </trkpt>
      <trkpt lat="38.07866608" lon="-2.55519862">
        <ele>1317.0000</ele>
        <time>2018-10-13T19:13:05Z</time>
      </trkpt>
      <trkpt lat="38.07874797" lon="-2.55527003">
        <ele>1318.0000</ele>
        <time>2018-10-13T19:13:09Z</time>
      </trkpt>
      <trkpt lat="38.07881134" lon="-2.55538637">
        <ele>1319.0000</ele>
        <time>2018-10-13T19:13:13Z</time>
      </trkpt>
      <trkpt lat="38.07883515" lon="-2.55561034">
        <ele>1320.0000</ele>
        <time>2018-10-13T19:13:19Z</time>
      </trkpt>
      <trkpt lat="38.07890187" lon="-2.55593120">
        <ele>1321.0000</ele>
        <time>2018-10-13T19:13:28Z</time>
      </trkpt>
      <trkpt lat="38.07897294" lon="-2.55608911">
        <ele>1323.0000</ele>
        <time>2018-10-13T19:13:33Z</time>
      </trkpt>
      <trkpt lat="38.07906322" lon="-2.55630536">
        <ele>1324.0000</ele>
        <time>2018-10-13T19:13:40Z</time>
      </trkpt>
      <trkpt lat="38.07911619" lon="-2.55647133">
        <ele>1325.0000</ele>
        <time>2018-10-13T19:13:45Z</time>
      </trkpt>
      <trkpt lat="38.07917855" lon="-2.55664852">
        <ele>1325.0000</ele>
        <time>2018-10-13T19:13:50Z</time>
      </trkpt>
      <trkpt lat="38.07920127" lon="-2.55672915">
        <ele>1326.0000</ele>
        <time>2018-10-13T19:13:52Z</time>
      </trkpt>
      <trkpt lat="38.07925592" lon="-2.55691188">
        <ele>1326.0000</ele>
        <time>2018-10-13T19:13:56Z</time>
      </trkpt>
      <trkpt lat="38.07929967" lon="-2.55705043">
        <ele>1326.0000</ele>
        <time>2018-10-13T19:13:59Z</time>
      </trkpt>
      <trkpt lat="38.07932783" lon="-2.55719963">
        <ele>1326.0000</ele>
        <time>2018-10-13T19:14:02Z</time>
      </trkpt>
      <trkpt lat="38.07933328" lon="-2.55747171">
        <ele>1326.0000</ele>
        <time>2018-10-13T19:14:07Z</time>
      </trkpt>
      <trkpt lat="38.07933655" lon="-2.55757866">
        <ele>1326.0000</ele>
        <time>2018-10-13T19:14:09Z</time>
      </trkpt>
      <trkpt lat="38.07935046" lon="-2.55773724">
        <ele>1326.0000</ele>
        <time>2018-10-13T19:14:12Z</time>
      </trkpt>
      <trkpt lat="38.07937318" lon="-2.55841350">
        <ele>1327.0000</ele>
        <time>2018-10-13T19:14:26Z</time>
      </trkpt>
      <trkpt lat="38.07935583" lon="-2.55844392">
        <ele>1327.0000</ele>
        <time>2018-10-13T19:14:27Z</time>
      </trkpt>
      <trkpt lat="38.07930772" lon="-2.55849572">
        <ele>1327.0000</ele>
        <time>2018-10-13T19:14:29Z</time>
      </trkpt>
      <trkpt lat="38.07922063" lon="-2.55852011">
        <ele>1328.0000</ele>
        <time>2018-10-13T19:14:32Z</time>
      </trkpt>
      <trkpt lat="38.07916631" lon="-2.55849069">
        <ele>1328.0000</ele>
        <time>2018-10-13T19:14:34Z</time>
      </trkpt>
      <trkpt lat="38.07910655" lon="-2.55838374">
        <ele>1330.0000</ele>
        <time>2018-10-13T19:14:38Z</time>
      </trkpt>
      <trkpt lat="38.07908065" lon="-2.55823111">
        <ele>1330.0000</ele>
        <time>2018-10-13T19:14:42Z</time>
      </trkpt>
      <trkpt lat="38.07907537" lon="-2.55808308">
        <ele>1332.0000</ele>
        <time>2018-10-13T19:14:46Z</time>
      </trkpt>
      <trkpt lat="38.07907126" lon="-2.55794201">
        <ele>1333.0000</ele>
        <time>2018-10-13T19:14:50Z</time>
      </trkpt>
      <trkpt lat="38.07905240" lon="-2.55776247">
        <ele>1334.0000</ele>
        <time>2018-10-13T19:14:56Z</time>
      </trkpt>
      <trkpt lat="38.07900899" lon="-2.55756139">
        <ele>1335.0000</ele>
        <time>2018-10-13T19:15:02Z</time>
      </trkpt>
      <trkpt lat="38.07897194" lon="-2.55739334">
        <ele>1336.0000</ele>
        <time>2018-10-13T19:15:07Z</time>
      </trkpt>
      <trkpt lat="38.07893120" lon="-2.55717004">
        <ele>1337.0000</ele>
        <time>2018-10-13T19:15:14Z</time>
      </trkpt>
      <trkpt lat="38.07889608" lon="-2.55697508">
        <ele>1339.0000</ele>
        <time>2018-10-13T19:15:20Z</time>
      </trkpt>
      <trkpt lat="38.07887244" lon="-2.55681155">
        <ele>1340.0000</ele>
        <time>2018-10-13T19:15:25Z</time>
      </trkpt>
      <trkpt lat="38.07886322" lon="-2.55666956">
        <ele>1341.0000</ele>
        <time>2018-10-13T19:15:30Z</time>
      </trkpt>
      <trkpt lat="38.07880380" lon="-2.55645859">
        <ele>1342.0000</ele>
        <time>2018-10-13T19:15:37Z</time>
      </trkpt>
      <trkpt lat="38.07858780" lon="-2.55629070">
        <ele>1343.0000</ele>
        <time>2018-10-13T19:15:45Z</time>
      </trkpt>
      <trkpt lat="38.07838076" lon="-2.55631199">
        <ele>1344.0000</ele>
        <time>2018-10-13T19:15:52Z</time>
      </trkpt>
      <trkpt lat="38.07819779" lon="-2.55639262">
        <ele>1345.0000</ele>
        <time>2018-10-13T19:15:59Z</time>
      </trkpt>
      <trkpt lat="38.07803358" lon="-2.55640829">
        <ele>1346.0000</ele>
        <time>2018-10-13T19:16:05Z</time>
      </trkpt>
      <trkpt lat="38.07789998" lon="-2.55629103">
        <ele>1347.0000</ele>
        <time>2018-10-13T19:16:11Z</time>
      </trkpt>
      <trkpt lat="38.07784005" lon="-2.55605567">
        <ele>1348.0000</ele>
        <time>2018-10-13T19:16:18Z</time>
      </trkpt>
      <trkpt lat="38.07775966" lon="-2.55596774">
        <ele>1349.0000</ele>
        <time>2018-10-13T19:16:22Z</time>
      </trkpt>
      <trkpt lat="38.07762111" lon="-2.55600948">
        <ele>1349.0000</ele>
        <time>2018-10-13T19:16:27Z</time>
      </trkpt>
      <trkpt lat="38.07758281" lon="-2.55606195">
        <ele>1349.0000</ele>
        <time>2018-10-13T19:16:29Z</time>
      </trkpt>
      <trkpt lat="38.07755950" lon="-2.55616882">
        <ele>1350.0000</ele>
        <time>2018-10-13T19:16:32Z</time>
      </trkpt>
      <trkpt lat="38.07756889" lon="-2.55623940">
        <ele>1350.0000</ele>
        <time>2018-10-13T19:16:34Z</time>
      </trkpt>
      <trkpt lat="38.07760703" lon="-2.55634007">
        <ele>1351.0000</ele>
        <time>2018-10-13T19:16:37Z</time>
      </trkpt>
      <trkpt lat="38.07769755" lon="-2.55650846">
        <ele>1353.0000</ele>
        <time>2018-10-13T19:16:42Z</time>
      </trkpt>
      <trkpt lat="38.07782873" lon="-2.55690677">
        <ele>1354.0000</ele>
        <time>2018-10-13T19:16:53Z</time>
      </trkpt>
      <trkpt lat="38.07780995" lon="-2.55698522">
        <ele>1354.0000</ele>
        <time>2018-10-13T19:16:55Z</time>
      </trkpt>
      <trkpt lat="38.07752614" lon="-2.55707675">
        <ele>1355.0000</ele>
        <time>2018-10-13T19:17:07Z</time>
      </trkpt>
      <trkpt lat="38.07747686" lon="-2.55695203">
        <ele>1356.0000</ele>
        <time>2018-10-13T19:17:11Z</time>
      </trkpt>
      <trkpt lat="38.07745657" lon="-2.55679562">
        <ele>1357.0000</ele>
        <time>2018-10-13T19:17:15Z</time>
      </trkpt>
      <trkpt lat="38.07743738" lon="-2.55668473">
        <ele>1358.0000</ele>
        <time>2018-10-13T19:17:18Z</time>
      </trkpt>
      <trkpt lat="38.07738491" lon="-2.55655012">
        <ele>1359.0000</ele>
        <time>2018-10-13T19:17:22Z</time>
      </trkpt>
      <trkpt lat="38.07726220" lon="-2.55650536">
        <ele>1360.0000</ele>
        <time>2018-10-13T19:17:26Z</time>
      </trkpt>
      <trkpt lat="38.07712398" lon="-2.55662698">
        <ele>1361.0000</ele>
        <time>2018-10-13T19:17:31Z</time>
      </trkpt>
      <trkpt lat="38.07706883" lon="-2.55674164">
        <ele>1362.0000</ele>
        <time>2018-10-13T19:17:35Z</time>
      </trkpt>
      <trkpt lat="38.07698342" lon="-2.55682982">
        <ele>1363.0000</ele>
        <time>2018-10-13T19:17:39Z</time>
      </trkpt>
      <trkpt lat="38.07688107" lon="-2.55689755">
        <ele>1365.0000</ele>
        <time>2018-10-13T19:17:43Z</time>
      </trkpt>
      <trkpt lat="38.07677948" lon="-2.55692177">
        <ele>1366.0000</ele>
        <time>2018-10-13T19:17:47Z</time>
      </trkpt>
      <trkpt lat="38.07659944" lon="-2.55692319">
        <ele>1367.0000</ele>
        <time>2018-10-13T19:17:54Z</time>
      </trkpt>
      <trkpt lat="38.07641956" lon="-2.55684214">
        <ele>1368.0000</ele>
        <time>2018-10-13T19:18:01Z</time>
      </trkpt>
      <trkpt lat="38.07626877" lon="-2.55674156">
        <ele>1369.0000</ele>
        <time>2018-10-13T19:18:07Z</time>
      </trkpt>
      <trkpt lat="38.07604883" lon="-2.55676335">
        <ele>1370.0000</ele>
        <time>2018-10-13T19:18:15Z</time>
      </trkpt>
      <trkpt lat="38.07600433" lon="-2.55680895">
        <ele>1370.0000</ele>
        <time>2018-10-13T19:18:17Z</time>
      </trkpt>
      <trkpt lat="38.07596309" lon="-2.55699469">
        <ele>1371.0000</ele>
        <time>2018-10-13T19:18:22Z</time>
      </trkpt>
      <trkpt lat="38.07597055" lon="-2.55703275">
        <ele>1371.0000</ele>
        <time>2018-10-13T19:18:23Z</time>
      </trkpt>
      <trkpt lat="38.07606744" lon="-2.55726224">
        <ele>1372.0000</ele>
        <time>2018-10-13T19:18:31Z</time>
      </trkpt>
      <trkpt lat="38.07611069" lon="-2.55745771">
        <ele>1374.0000</ele>
        <time>2018-10-13T19:18:37Z</time>
      </trkpt>
      <trkpt lat="38.07609158" lon="-2.55769651">
        <ele>1375.0000</ele>
        <time>2018-10-13T19:18:44Z</time>
      </trkpt>
      <trkpt lat="38.07598463" lon="-2.55794277">
        <ele>1376.0000</ele>
        <time>2018-10-13T19:18:52Z</time>
      </trkpt>
      <trkpt lat="38.07584951" lon="-2.55810169">
        <ele>1377.0000</ele>
        <time>2018-10-13T19:18:59Z</time>
      </trkpt>
      <trkpt lat="38.07569269" lon="-2.55820630">
        <ele>1378.0000</ele>
        <time>2018-10-13T19:19:06Z</time>
      </trkpt>
      <trkpt lat="38.07553938" lon="-2.55829422">
        <ele>1379.0000</ele>
        <time>2018-10-13T19:19:12Z</time>
      </trkpt>
      <trkpt lat="38.07533822" lon="-2.55838911">
        <ele>1380.0000</ele>
        <time>2018-10-13T19:19:20Z</time>
      </trkpt>
      <trkpt lat="38.07516194" lon="-2.55843118">
        <ele>1381.0000</ele>
        <time>2018-10-13T19:19:27Z</time>
      </trkpt>
      <trkpt lat="38.07497084" lon="-2.55841484">
        <ele>1382.0000</ele>
        <time>2018-10-13T19:19:34Z</time>
      </trkpt>
      <trkpt lat="38.07475986" lon="-2.55839833">
        <ele>1383.0000</ele>
        <time>2018-10-13T19:19:42Z</time>
      </trkpt>
      <trkpt lat="38.07463531" lon="-2.55836874">
        <ele>1384.0000</ele>
        <time>2018-10-13T19:19:47Z</time>
      </trkpt>
      <trkpt lat="38.07451327" lon="-2.55831501">
        <ele>1385.0000</ele>
        <time>2018-10-13T19:19:52Z</time>
      </trkpt>
      <trkpt lat="38.07436566" lon="-2.55819993">
        <ele>1386.0000</ele>
        <time>2018-10-13T19:19:59Z</time>
      </trkpt>
      <trkpt lat="38.07427313" lon="-2.55802902">
        <ele>1387.0000</ele>
        <time>2018-10-13T19:20:05Z</time>
      </trkpt>
      <trkpt lat="38.07409811" lon="-2.55782693">
        <ele>1388.0000</ele>
        <time>2018-10-13T19:20:14Z</time>
      </trkpt>
      <trkpt lat="38.07398328" lon="-2.55779818">
        <ele>1389.0000</ele>
        <time>2018-10-13T19:20:18Z</time>
      </trkpt>
      <trkpt lat="38.07382402" lon="-2.55781360">
        <ele>1389.0000</ele>
        <time>2018-10-13T19:20:23Z</time>
      </trkpt>
      <trkpt lat="38.07368648" lon="-2.55786415">
        <ele>1390.0000</ele>
        <time>2018-10-13T19:20:28Z</time>
      </trkpt>
      <trkpt lat="38.07357667" lon="-2.55797185">
        <ele>1391.0000</ele>
        <time>2018-10-13T19:20:33Z</time>
      </trkpt>
      <trkpt lat="38.07352437" lon="-2.55808996">
        <ele>1392.0000</ele>
        <time>2018-10-13T19:20:37Z</time>
      </trkpt>
      <trkpt lat="38.07350367" lon="-2.55825147">
        <ele>1394.0000</ele>
        <time>2018-10-13T19:20:42Z</time>
      </trkpt>
      <trkpt lat="38.07350317" lon="-2.55841392">
        <ele>1395.0000</ele>
        <time>2018-10-13T19:20:47Z</time>
      </trkpt>
      <trkpt lat="38.07352353" lon="-2.55861030">
        <ele>1396.0000</ele>
        <time>2018-10-13T19:20:53Z</time>
      </trkpt>
      <trkpt lat="38.07360735" lon="-2.55880502">
        <ele>1397.0000</ele>
        <time>2018-10-13T19:21:00Z</time>
      </trkpt>
      <trkpt lat="38.07364541" lon="-2.55898833">
        <ele>1398.0000</ele>
        <time>2018-10-13T19:21:06Z</time>
      </trkpt>
      <trkpt lat="38.07363677" lon="-2.55918153">
        <ele>1399.0000</ele>
        <time>2018-10-13T19:21:12Z</time>
      </trkpt>
      <trkpt lat="38.07349612" lon="-2.55936174">
        <ele>1400.0000</ele>
        <time>2018-10-13T19:21:20Z</time>
      </trkpt>
      <trkpt lat="38.07330493" lon="-2.55925370">
        <ele>1401.0000</ele>
        <time>2018-10-13T19:21:29Z</time>
      </trkpt>
      <trkpt lat="38.07324039" lon="-2.55911095">
        <ele>1402.0000</ele>
        <time>2018-10-13T19:21:34Z</time>
      </trkpt>
      <trkpt lat="38.07319178" lon="-2.55896712">
        <ele>1404.0000</ele>
        <time>2018-10-13T19:21:39Z</time>
      </trkpt>
      <trkpt lat="38.07308943" lon="-2.55878993">
        <ele>1405.0000</ele>
        <time>2018-10-13T19:21:46Z</time>
      </trkpt>
      <trkpt lat="38.07294644" lon="-2.55855649">
        <ele>1406.0000</ele>
        <time>2018-10-13T19:21:55Z</time>
      </trkpt>
      <trkpt lat="38.07278827" lon="-2.55837787">
        <ele>1407.0000</ele>
        <time>2018-10-13T19:22:02Z</time>
      </trkpt>
      <trkpt lat="38.07267872" lon="-2.55827964">
        <ele>1408.0000</ele>
        <time>2018-10-13T19:22:07Z</time>
      </trkpt>
      <trkpt lat="38.07256489" lon="-2.55817947">
        <ele>1409.0000</ele>
        <time>2018-10-13T19:22:12Z</time>
      </trkpt>
      <trkpt lat="38.07246012" lon="-2.55817570">
        <ele>1409.0000</ele>
        <time>2018-10-13T19:22:16Z</time>
      </trkpt>
      <trkpt lat="38.07245073" lon="-2.55835533">
        <ele>1410.0000</ele>
        <time>2018-10-13T19:22:22Z</time>
      </trkpt>
      <trkpt lat="38.07245886" lon="-2.55839028">
        <ele>1410.0000</ele>
        <time>2018-10-13T19:22:23Z</time>
      </trkpt>
      <trkpt lat="38.07247948" lon="-2.55849530">
        <ele>1411.0000</ele>
        <time>2018-10-13T19:22:26Z</time>
      </trkpt>
      <trkpt lat="38.07250530" lon="-2.55863520">
        <ele>1412.0000</ele>
        <time>2018-10-13T19:22:30Z</time>
      </trkpt>
      <trkpt lat="38.07256892" lon="-2.55888892">
        <ele>1413.0000</ele>
        <time>2018-10-13T19:22:38Z</time>
      </trkpt>
      <trkpt lat="38.07257378" lon="-2.55892186">
        <ele>1414.0000</ele>
        <time>2018-10-13T19:22:39Z</time>
      </trkpt>
      <trkpt lat="38.07262809" lon="-2.55917541">
        <ele>1415.0000</ele>
        <time>2018-10-13T19:22:47Z</time>
      </trkpt>
      <trkpt lat="38.07267311" lon="-2.55938278">
        <ele>1416.0000</ele>
        <time>2018-10-13T19:22:54Z</time>
      </trkpt>
      <trkpt lat="38.07270638" lon="-2.55949770">
        <ele>1416.0000</ele>
        <time>2018-10-13T19:22:58Z</time>
      </trkpt>
      <trkpt lat="38.07276271" lon="-2.55971797">
        <ele>1418.0000</ele>
        <time>2018-10-13T19:23:06Z</time>
      </trkpt>
      <trkpt lat="38.07277503" lon="-2.55985334">
        <ele>1419.0000</ele>
        <time>2018-10-13T19:23:11Z</time>
      </trkpt>
      <trkpt lat="38.07277369" lon="-2.56002735">
        <ele>1420.0000</ele>
        <time>2018-10-13T19:23:17Z</time>
      </trkpt>
      <trkpt lat="38.07274460" lon="-2.56020253">
        <ele>1421.0000</ele>
        <time>2018-10-13T19:23:23Z</time>
      </trkpt>
      <trkpt lat="38.07265165" lon="-2.56040043">
        <ele>1422.0000</ele>
        <time>2018-10-13T19:23:30Z</time>
      </trkpt>
      <trkpt lat="38.07256741" lon="-2.56051626">
        <ele>1422.0000</ele>
        <time>2018-10-13T19:23:35Z</time>
      </trkpt>
      <trkpt lat="38.07255970" lon="-2.56052456">
        <ele>1422.0000</ele>
        <time>2018-10-13T19:23:37Z</time>
      </trkpt>
      <trkpt lat="38.07254260" lon="-2.56053906">
        <ele>1423.0000</ele>
        <time>2018-10-13T19:30:14Z</time>
      </trkpt>
      <trkpt lat="38.07253053" lon="-2.56054837">
        <ele>1423.0000</ele>
        <time>2018-10-13T19:30:15Z</time>
      </trkpt>
      <trkpt lat="38.07249449" lon="-2.56058097">
        <ele>1423.0000</ele>
        <time>2018-10-13T19:30:17Z</time>
      </trkpt>
      <trkpt lat="38.07243908" lon="-2.56062372">
        <ele>1423.0000</ele>
        <time>2018-10-13T19:30:19Z</time>
      </trkpt>
      <trkpt lat="38.07238485" lon="-2.56066714">
        <ele>1423.0000</ele>
        <time>2018-10-13T19:30:21Z</time>
      </trkpt>
      <trkpt lat="38.07233397" lon="-2.56070000">
        <ele>1423.0000</ele>
        <time>2018-10-13T19:30:23Z</time>
      </trkpt>
      <trkpt lat="38.07197255" lon="-2.56097224">
        <ele>1422.0000</ele>
        <time>2018-10-13T19:30:34Z</time>
      </trkpt>
      <trkpt lat="38.07189376" lon="-2.56104449">
        <ele>1422.0000</ele>
        <time>2018-10-13T19:30:36Z</time>
      </trkpt>
      <trkpt lat="38.07175680" lon="-2.56127307">
        <ele>1422.0000</ele>
        <time>2018-10-13T19:30:40Z</time>
      </trkpt>
      <trkpt lat="38.07172930" lon="-2.56134104">
        <ele>1422.0000</ele>
        <time>2018-10-13T19:30:41Z</time>
      </trkpt>
      <trkpt lat="38.07166929" lon="-2.56148639">
        <ele>1421.0000</ele>
        <time>2018-10-13T19:30:43Z</time>
      </trkpt>
      <trkpt lat="38.07160483" lon="-2.56162905">
        <ele>1421.0000</ele>
        <time>2018-10-13T19:30:45Z</time>
      </trkpt>
      <trkpt lat="38.07152135" lon="-2.56176601">
        <ele>1420.0000</ele>
        <time>2018-10-13T19:30:47Z</time>
      </trkpt>
      <trkpt lat="38.07146645" lon="-2.56182468">
        <ele>1420.0000</ele>
        <time>2018-10-13T19:30:48Z</time>
      </trkpt>
      <trkpt lat="38.07125011" lon="-2.56191009">
        <ele>1418.0000</ele>
        <time>2018-10-13T19:30:51Z</time>
      </trkpt>
      <trkpt lat="38.07108817" lon="-2.56190825">
        <ele>1418.0000</ele>
        <time>2018-10-13T19:30:53Z</time>
      </trkpt>
      <trkpt lat="38.07100511" lon="-2.56189961">
        <ele>1417.0000</ele>
        <time>2018-10-13T19:30:54Z</time>
      </trkpt>
      <trkpt lat="38.07084434" lon="-2.56189366">
        <ele>1416.0000</ele>
        <time>2018-10-13T19:30:56Z</time>
      </trkpt>
      <trkpt lat="38.07068718" lon="-2.56193029">
        <ele>1415.0000</ele>
        <time>2018-10-13T19:30:58Z</time>
      </trkpt>
      <trkpt lat="38.07060722" lon="-2.56196550">
        <ele>1413.0000</ele>
        <time>2018-10-13T19:30:59Z</time>
      </trkpt>
      <trkpt lat="38.07043950" lon="-2.56204102">
        <ele>1412.0000</ele>
        <time>2018-10-13T19:31:01Z</time>
      </trkpt>
      <trkpt lat="38.07027052" lon="-2.56211495">
        <ele>1411.0000</ele>
        <time>2018-10-13T19:31:03Z</time>
      </trkpt>
      <trkpt lat="38.06999375" lon="-2.56223414">
        <ele>1409.0000</ele>
        <time>2018-10-13T19:31:07Z</time>
      </trkpt>
      <trkpt lat="38.06992828" lon="-2.56224914">
        <ele>1408.0000</ele>
        <time>2018-10-13T19:31:08Z</time>
      </trkpt>
      <trkpt lat="38.06986114" lon="-2.56224822">
        <ele>1408.0000</ele>
        <time>2018-10-13T19:31:09Z</time>
      </trkpt>
      <trkpt lat="38.06972561" lon="-2.56220145">
        <ele>1406.0000</ele>
        <time>2018-10-13T19:31:11Z</time>
      </trkpt>
      <trkpt lat="38.06948564" lon="-2.56196147">
        <ele>1405.0000</ele>
        <time>2018-10-13T19:31:15Z</time>
      </trkpt>
      <trkpt lat="38.06931020" lon="-2.56179409">
        <ele>1404.0000</ele>
        <time>2018-10-13T19:31:18Z</time>
      </trkpt>
      <trkpt lat="38.06924734" lon="-2.56176291">
        <ele>1404.0000</ele>
        <time>2018-10-13T19:31:19Z</time>
      </trkpt>
      <trkpt lat="38.06904927" lon="-2.56179316">
        <ele>1402.0000</ele>
        <time>2018-10-13T19:31:22Z</time>
      </trkpt>
      <trkpt lat="38.06892497" lon="-2.56189718">
        <ele>1402.0000</ele>
        <time>2018-10-13T19:31:24Z</time>
      </trkpt>
      <trkpt lat="38.06886420" lon="-2.56195435">
        <ele>1401.0000</ele>
        <time>2018-10-13T19:31:25Z</time>
      </trkpt>
      <trkpt lat="38.06873227" lon="-2.56205200">
        <ele>1401.0000</ele>
        <time>2018-10-13T19:31:27Z</time>
      </trkpt>
      <trkpt lat="38.06850554" lon="-2.56210271">
        <ele>1400.0000</ele>
        <time>2018-10-13T19:31:30Z</time>
      </trkpt>
      <trkpt lat="38.06823967" lon="-2.56204085">
        <ele>1399.0000</ele>
        <time>2018-10-13T19:31:33Z</time>
      </trkpt>
      <trkpt lat="38.06814562" lon="-2.56201914">
        <ele>1398.0000</ele>
        <time>2018-10-13T19:31:34Z</time>
      </trkpt>
      <trkpt lat="38.06795015" lon="-2.56198092">
        <ele>1396.0000</ele>
        <time>2018-10-13T19:31:36Z</time>
      </trkpt>
      <trkpt lat="38.06774354" lon="-2.56194672">
        <ele>1394.0000</ele>
        <time>2018-10-13T19:31:38Z</time>
      </trkpt>
      <trkpt lat="38.06763986" lon="-2.56192937">
        <ele>1393.0000</ele>
        <time>2018-10-13T19:31:39Z</time>
      </trkpt>
      <trkpt lat="38.06753567" lon="-2.56190967">
        <ele>1392.0000</ele>
        <time>2018-10-13T19:31:40Z</time>
      </trkpt>
      <trkpt lat="38.06743450" lon="-2.56189333">
        <ele>1391.0000</ele>
        <time>2018-10-13T19:31:41Z</time>
      </trkpt>
      <trkpt lat="38.06722990" lon="-2.56185754">
        <ele>1389.0000</ele>
        <time>2018-10-13T19:31:43Z</time>
      </trkpt>
      <trkpt lat="38.06702094" lon="-2.56182963">
        <ele>1387.0000</ele>
        <time>2018-10-13T19:31:45Z</time>
      </trkpt>
      <trkpt lat="38.06691331" lon="-2.56181898">
        <ele>1386.0000</ele>
        <time>2018-10-13T19:31:46Z</time>
      </trkpt>
      <trkpt lat="38.06669362" lon="-2.56180054">
        <ele>1385.0000</ele>
        <time>2018-10-13T19:31:48Z</time>
      </trkpt>
      <trkpt lat="38.06647402" lon="-2.56178352">
        <ele>1383.0000</ele>
        <time>2018-10-13T19:31:50Z</time>
      </trkpt>
      <trkpt lat="38.06627411" lon="-2.56177430">
        <ele>1382.0000</ele>
        <time>2018-10-13T19:31:52Z</time>
      </trkpt>
      <trkpt lat="38.06571319" lon="-2.56173851">
        <ele>1381.0000</ele>
        <time>2018-10-13T19:31:59Z</time>
      </trkpt>
      <trkpt lat="38.06558520" lon="-2.56173114">
        <ele>1381.0000</ele>
        <time>2018-10-13T19:32:01Z</time>
      </trkpt>
      <trkpt lat="38.06527197" lon="-2.56199056">
        <ele>1383.0000</ele>
        <time>2018-10-13T19:32:08Z</time>
      </trkpt>
      <trkpt lat="38.06524422" lon="-2.56210279">
        <ele>1385.0000</ele>
        <time>2018-10-13T19:32:10Z</time>
      </trkpt>
      <trkpt lat="38.06525445" lon="-2.56231854">
        <ele>1385.0000</ele>
        <time>2018-10-13T19:32:14Z</time>
      </trkpt>
      <trkpt lat="38.06526602" lon="-2.56236816">
        <ele>1386.0000</ele>
        <time>2018-10-13T19:32:15Z</time>
      </trkpt>
      <trkpt lat="38.06534850" lon="-2.56250361">
        <ele>1386.0000</ele>
        <time>2018-10-13T19:32:19Z</time>
      </trkpt>
      <trkpt lat="38.06537322" lon="-2.56252675">
        <ele>1387.0000</ele>
        <time>2018-10-13T19:32:20Z</time>
      </trkpt>
      <trkpt lat="38.06549090" lon="-2.56259959">
        <ele>1388.0000</ele>
        <time>2018-10-13T19:32:25Z</time>
      </trkpt>
      <trkpt lat="38.06557581" lon="-2.56263873">
        <ele>1389.0000</ele>
        <time>2018-10-13T19:32:29Z</time>
      </trkpt>
      <trkpt lat="38.06567262" lon="-2.56266379">
        <ele>1390.0000</ele>
        <time>2018-10-13T19:32:33Z</time>
      </trkpt>
      <trkpt lat="38.06582769" lon="-2.56271140">
        <ele>1391.0000</ele>
        <time>2018-10-13T19:32:40Z</time>
      </trkpt>
      <trkpt lat="38.06595082" lon="-2.56275993">
        <ele>1392.0000</ele>
        <time>2018-10-13T19:32:46Z</time>
      </trkpt>
      <trkpt lat="38.06605827" lon="-2.56279690">
        <ele>1393.0000</ele>
        <time>2018-10-13T19:32:52Z</time>
      </trkpt>
      <trkpt lat="38.06617244" lon="-2.56284073">
        <ele>1394.0000</ele>
        <time>2018-10-13T19:32:58Z</time>
      </trkpt>
      <trkpt lat="38.06631786" lon="-2.56288843">
        <ele>1396.0000</ele>
        <time>2018-10-13T19:33:05Z</time>
      </trkpt>
      <trkpt lat="38.06650486" lon="-2.56295884">
        <ele>1397.0000</ele>
        <time>2018-10-13T19:33:14Z</time>
      </trkpt>
      <trkpt lat="38.06662003" lon="-2.56298013">
        <ele>1398.0000</ele>
        <time>2018-10-13T19:33:20Z</time>
      </trkpt>
      <trkpt lat="38.06675984" lon="-2.56299739">
        <ele>1399.0000</ele>
        <time>2018-10-13T19:33:27Z</time>
      </trkpt>
      <trkpt lat="38.06690066" lon="-2.56303880">
        <ele>1400.0000</ele>
        <time>2018-10-13T19:33:34Z</time>
      </trkpt>
      <trkpt lat="38.06703326" lon="-2.56308322">
        <ele>1401.0000</ele>
        <time>2018-10-13T19:33:41Z</time>
      </trkpt>
      <trkpt lat="38.06716460" lon="-2.56314299">
        <ele>1402.0000</ele>
        <time>2018-10-13T19:33:48Z</time>
      </trkpt>
      <trkpt lat="38.06728187" lon="-2.56321700">
        <ele>1404.0000</ele>
        <time>2018-10-13T19:33:55Z</time>
      </trkpt>
      <trkpt lat="38.06740977" lon="-2.56330233">
        <ele>1405.0000</ele>
        <time>2018-10-13T19:34:03Z</time>
      </trkpt>
      <trkpt lat="38.06755009" lon="-2.56337416">
        <ele>1406.0000</ele>
        <time>2018-10-13T19:34:12Z</time>
      </trkpt>
      <trkpt lat="38.06765830" lon="-2.56343417">
        <ele>1407.0000</ele>
        <time>2018-10-13T19:34:18Z</time>
      </trkpt>
      <trkpt lat="38.06778143" lon="-2.56350860">
        <ele>1408.0000</ele>
        <time>2018-10-13T19:34:25Z</time>
      </trkpt>
      <trkpt lat="38.06789701" lon="-2.56358019">
        <ele>1409.0000</ele>
        <time>2018-10-13T19:34:32Z</time>
      </trkpt>
      <trkpt lat="38.06800832" lon="-2.56364422">
        <ele>1410.0000</ele>
        <time>2018-10-13T19:34:39Z</time>
      </trkpt>
      <trkpt lat="38.06813565" lon="-2.56371388">
        <ele>1411.0000</ele>
        <time>2018-10-13T19:34:47Z</time>
      </trkpt>
      <trkpt lat="38.06827009" lon="-2.56377062">
        <ele>1412.0000</ele>
        <time>2018-10-13T19:34:55Z</time>
      </trkpt>
      <trkpt lat="38.06842365" lon="-2.56380331">
        <ele>1414.0000</ele>
        <time>2018-10-13T19:35:03Z</time>
      </trkpt>
      <trkpt lat="38.06849380" lon="-2.56382661">
        <ele>1414.0000</ele>
        <time>2018-10-13T19:35:07Z</time>
      </trkpt>
      <trkpt lat="38.06857226" lon="-2.56384472">
        <ele>1415.0000</ele>
        <time>2018-10-13T19:35:11Z</time>
      </trkpt>
      <trkpt lat="38.06870419" lon="-2.56387171">
        <ele>1416.0000</ele>
        <time>2018-10-13T19:35:18Z</time>
      </trkpt>
      <trkpt lat="38.06886294" lon="-2.56392225">
        <ele>1417.0000</ele>
        <time>2018-10-13T19:35:26Z</time>
      </trkpt>
      <trkpt lat="38.06904533" lon="-2.56396265">
        <ele>1418.0000</ele>
        <time>2018-10-13T19:35:35Z</time>
      </trkpt>
      <trkpt lat="38.06926284" lon="-2.56400934">
        <ele>1419.0000</ele>
        <time>2018-10-13T19:35:45Z</time>
      </trkpt>
      <trkpt lat="38.06943727" lon="-2.56404899">
        <ele>1420.0000</ele>
        <time>2018-10-13T19:35:53Z</time>
      </trkpt>
      <trkpt lat="38.06958924" lon="-2.56415636">
        <ele>1421.0000</ele>
        <time>2018-10-13T19:36:01Z</time>
      </trkpt>
      <trkpt lat="38.06962612" lon="-2.56420397">
        <ele>1421.0000</ele>
        <time>2018-10-13T19:36:03Z</time>
      </trkpt>
      <trkpt lat="38.06967046" lon="-2.56428033">
        <ele>1421.0000</ele>
        <time>2018-10-13T19:36:06Z</time>
      </trkpt>
      <trkpt lat="38.06969669" lon="-2.56440882">
        <ele>1422.0000</ele>
        <time>2018-10-13T19:36:10Z</time>
      </trkpt>
      <trkpt lat="38.06969745" lon="-2.56444260">
        <ele>1422.0000</ele>
        <time>2018-10-13T19:36:11Z</time>
      </trkpt>
      <trkpt lat="38.06968429" lon="-2.56459440">
        <ele>1424.0000</ele>
        <time>2018-10-13T19:36:16Z</time>
      </trkpt>
      <trkpt lat="38.06962997" lon="-2.56474426">
        <ele>1425.0000</ele>
        <time>2018-10-13T19:36:21Z</time>
      </trkpt>
      <trkpt lat="38.06941690" lon="-2.56495197">
        <ele>1426.0000</ele>
        <time>2018-10-13T19:36:31Z</time>
      </trkpt>
      <trkpt lat="38.06912890" lon="-2.56511106">
        <ele>1427.0000</ele>
        <time>2018-10-13T19:36:43Z</time>
      </trkpt>
      <trkpt lat="38.06903025" lon="-2.56518943">
        <ele>1428.0000</ele>
        <time>2018-10-13T19:36:48Z</time>
      </trkpt>
      <trkpt lat="38.06893897" lon="-2.56531474">
        <ele>1429.0000</ele>
        <time>2018-10-13T19:36:54Z</time>
      </trkpt>
      <trkpt lat="38.06886437" lon="-2.56551104">
        <ele>1430.0000</ele>
        <time>2018-10-13T19:37:02Z</time>
      </trkpt>
      <trkpt lat="38.06883076" lon="-2.56570039">
        <ele>1431.0000</ele>
        <time>2018-10-13T19:37:09Z</time>
      </trkpt>
      <trkpt lat="38.06882975" lon="-2.56590910">
        <ele>1432.0000</ele>
        <time>2018-10-13T19:37:16Z</time>
      </trkpt>
      <trkpt lat="38.06882238" lon="-2.56605427">
        <ele>1434.0000</ele>
        <time>2018-10-13T19:37:21Z</time>
      </trkpt>
      <trkpt lat="38.06883838" lon="-2.56622820">
        <ele>1435.0000</ele>
        <time>2018-10-13T19:37:27Z</time>
      </trkpt>
      <trkpt lat="38.06887652" lon="-2.56641327">
        <ele>1436.0000</ele>
        <time>2018-10-13T19:37:34Z</time>
      </trkpt>
      <trkpt lat="38.06893050" lon="-2.56662298">
        <ele>1437.0000</ele>
        <time>2018-10-13T19:37:42Z</time>
      </trkpt>
      <trkpt lat="38.06897032" lon="-2.56678886">
        <ele>1438.0000</ele>
        <time>2018-10-13T19:37:49Z</time>
      </trkpt>
      <trkpt lat="38.06898239" lon="-2.56694091">
        <ele>1439.0000</ele>
        <time>2018-10-13T19:37:55Z</time>
      </trkpt>
      <trkpt lat="38.06894718" lon="-2.56708391">
        <ele>1440.0000</ele>
        <time>2018-10-13T19:38:01Z</time>
      </trkpt>
      <trkpt lat="38.06889228" lon="-2.56722003">
        <ele>1441.0000</ele>
        <time>2018-10-13T19:38:07Z</time>
      </trkpt>
      <trkpt lat="38.06877108" lon="-2.56739957">
        <ele>1442.0000</ele>
        <time>2018-10-13T19:38:16Z</time>
      </trkpt>
      <trkpt lat="38.06866739" lon="-2.56751105">
        <ele>1443.0000</ele>
        <time>2018-10-13T19:38:23Z</time>
      </trkpt>
      <trkpt lat="38.06854938" lon="-2.56759361">
        <ele>1444.0000</ele>
        <time>2018-10-13T19:38:30Z</time>
      </trkpt>
      <trkpt lat="38.06842097" lon="-2.56769352">
        <ele>1446.0000</ele>
        <time>2018-10-13T19:38:38Z</time>
      </trkpt>
      <trkpt lat="38.06830932" lon="-2.56777307">
        <ele>1447.0000</ele>
        <time>2018-10-13T19:38:45Z</time>
      </trkpt>
      <trkpt lat="38.06811050" lon="-2.56787482">
        <ele>1448.0000</ele>
        <time>2018-10-13T19:38:56Z</time>
      </trkpt>
      <trkpt lat="38.06796415" lon="-2.56791422">
        <ele>1449.0000</ele>
        <time>2018-10-13T19:39:03Z</time>
      </trkpt>
      <trkpt lat="38.06780481" lon="-2.56788522">
        <ele>1450.0000</ele>
        <time>2018-10-13T19:39:11Z</time>
      </trkpt>
      <trkpt lat="38.06766802" lon="-2.56782880">
        <ele>1451.0000</ele>
        <time>2018-10-13T19:39:18Z</time>
      </trkpt>
      <trkpt lat="38.06752502" lon="-2.56774658">
        <ele>1452.0000</ele>
        <time>2018-10-13T19:39:24Z</time>
      </trkpt>
      <trkpt lat="38.06733383" lon="-2.56760459">
        <ele>1453.0000</ele>
        <time>2018-10-13T19:39:33Z</time>
      </trkpt>
      <trkpt lat="38.06721489" lon="-2.56755849">
        <ele>1454.0000</ele>
        <time>2018-10-13T19:39:39Z</time>
      </trkpt>
      <trkpt lat="38.06707475" lon="-2.56755103">
        <ele>1455.0000</ele>
        <time>2018-10-13T19:39:45Z</time>
      </trkpt>
      <trkpt lat="38.06692706" lon="-2.56757802">
        <ele>1457.0000</ele>
        <time>2018-10-13T19:39:52Z</time>
      </trkpt>
      <trkpt lat="38.06681835" lon="-2.56765295">
        <ele>1458.0000</ele>
        <time>2018-10-13T19:39:58Z</time>
      </trkpt>
      <trkpt lat="38.06667082" lon="-2.56776183">
        <ele>1459.0000</ele>
        <time>2018-10-13T19:40:06Z</time>
      </trkpt>
      <trkpt lat="38.06656261" lon="-2.56781539">
        <ele>1460.0000</ele>
        <time>2018-10-13T19:40:12Z</time>
      </trkpt>
      <trkpt lat="38.06641811" lon="-2.56784624">
        <ele>1461.0000</ele>
        <time>2018-10-13T19:40:19Z</time>
      </trkpt>
      <trkpt lat="38.06630403" lon="-2.56786694">
        <ele>1462.0000</ele>
        <time>2018-10-13T19:40:25Z</time>
      </trkpt>
      <trkpt lat="38.06628459" lon="-2.56787063">
        <ele>1462.0000</ele>
        <time>2018-10-13T19:40:26Z</time>
      </trkpt>
      <trkpt lat="38.06612944" lon="-2.56789435">
        <ele>1463.0000</ele>
        <time>2018-10-13T19:40:34Z</time>
      </trkpt>
      <trkpt lat="38.06601150" lon="-2.56792075">
        <ele>1464.0000</ele>
        <time>2018-10-13T19:40:40Z</time>
      </trkpt>
      <trkpt lat="38.06585870" lon="-2.56791464">
        <ele>1465.0000</ele>
        <time>2018-10-13T19:40:48Z</time>
      </trkpt>
      <trkpt lat="38.06572451" lon="-2.56789946">
        <ele>1466.0000</ele>
        <time>2018-10-13T19:40:56Z</time>
      </trkpt>
      <trkpt lat="38.06555863" lon="-2.56786401">
        <ele>1467.0000</ele>
        <time>2018-10-13T19:41:04Z</time>
      </trkpt>
      <trkpt lat="38.06535746" lon="-2.56780005">
        <ele>1468.0000</ele>
        <time>2018-10-13T19:41:13Z</time>
      </trkpt>
      <trkpt lat="38.06520081" lon="-2.56778212">
        <ele>1469.0000</ele>
        <time>2018-10-13T19:41:21Z</time>
      </trkpt>
      <trkpt lat="38.06510760" lon="-2.56777457">
        <ele>1470.0000</ele>
        <time>2018-10-13T19:41:25Z</time>
      </trkpt>
      <trkpt lat="38.06502227" lon="-2.56775706">
        <ele>1471.0000</ele>
        <time>2018-10-13T19:41:28Z</time>
      </trkpt>
      <trkpt lat="38.06480283" lon="-2.56779293">
        <ele>1471.0000</ele>
        <time>2018-10-13T19:41:35Z</time>
      </trkpt>
      <trkpt lat="38.06477467" lon="-2.56781757">
        <ele>1472.0000</ele>
        <time>2018-10-13T19:41:36Z</time>
      </trkpt>
      <trkpt lat="38.06466713" lon="-2.56796333">
        <ele>1473.0000</ele>
        <time>2018-10-13T19:41:41Z</time>
      </trkpt>
      <trkpt lat="38.06465531" lon="-2.56799854">
        <ele>1473.0000</ele>
        <time>2018-10-13T19:41:42Z</time>
      </trkpt>
      <trkpt lat="38.06463100" lon="-2.56813977">
        <ele>1474.0000</ele>
        <time>2018-10-13T19:41:46Z</time>
      </trkpt>
      <trkpt lat="38.06463411" lon="-2.56829417">
        <ele>1475.0000</ele>
        <time>2018-10-13T19:41:50Z</time>
      </trkpt>
      <trkpt lat="38.06466084" lon="-2.56841403">
        <ele>1476.0000</ele>
        <time>2018-10-13T19:41:54Z</time>
      </trkpt>
      <trkpt lat="38.06469538" lon="-2.56851755">
        <ele>1477.0000</ele>
        <time>2018-10-13T19:41:58Z</time>
      </trkpt>
      <trkpt lat="38.06473938" lon="-2.56862291">
        <ele>1478.0000</ele>
        <time>2018-10-13T19:42:02Z</time>
      </trkpt>
      <trkpt lat="38.06478498" lon="-2.56873405">
        <ele>1479.0000</ele>
        <time>2018-10-13T19:42:06Z</time>
      </trkpt>
      <trkpt lat="38.06482722" lon="-2.56889297">
        <ele>1480.0000</ele>
        <time>2018-10-13T19:42:11Z</time>
      </trkpt>
      <trkpt lat="38.06483360" lon="-2.56909045">
        <ele>1482.0000</ele>
        <time>2018-10-13T19:42:17Z</time>
      </trkpt>
      <trkpt lat="38.06470552" lon="-2.56945255">
        <ele>1483.0000</ele>
        <time>2018-10-13T19:42:28Z</time>
      </trkpt>
      <trkpt lat="38.06458457" lon="-2.56965673">
        <ele>1483.0000</ele>
        <time>2018-10-13T19:42:35Z</time>
      </trkpt>
      <trkpt lat="38.06450444" lon="-2.56976544">
        <ele>1484.0000</ele>
        <time>2018-10-13T19:42:39Z</time>
      </trkpt>
      <trkpt lat="38.06444300" lon="-2.56984289">
        <ele>1484.0000</ele>
        <time>2018-10-13T19:42:42Z</time>
      </trkpt>
      <trkpt lat="38.06426296" lon="-2.57000156">
        <ele>1485.0000</ele>
        <time>2018-10-13T19:42:50Z</time>
      </trkpt>
      <trkpt lat="38.06408635" lon="-2.57007080">
        <ele>1486.0000</ele>
        <time>2018-10-13T19:42:57Z</time>
      </trkpt>
      <trkpt lat="38.06388250" lon="-2.57004473">
        <ele>1487.0000</ele>
        <time>2018-10-13T19:43:04Z</time>
      </trkpt>
      <trkpt lat="38.06382986" lon="-2.57002796">
        <ele>1487.0000</ele>
        <time>2018-10-13T19:43:06Z</time>
      </trkpt>
      <trkpt lat="38.06347548" lon="-2.56985253">
        <ele>1487.0000</ele>
        <time>2018-10-13T19:43:17Z</time>
      </trkpt>
      <trkpt lat="38.06343583" lon="-2.56984650">
        <ele>1487.0000</ele>
        <time>2018-10-13T19:43:18Z</time>
      </trkpt>
      <trkpt lat="38.06323659" lon="-2.56997105">
        <ele>1487.0000</ele>
        <time>2018-10-13T19:43:24Z</time>
      </trkpt>
      <trkpt lat="38.06321371" lon="-2.57000575">
        <ele>1487.0000</ele>
        <time>2018-10-13T19:43:25Z</time>
      </trkpt>
      <trkpt lat="38.06310717" lon="-2.57017674">
        <ele>1488.0000</ele>
        <time>2018-10-13T19:43:30Z</time>
      </trkpt>
      <trkpt lat="38.06300533" lon="-2.57034321">
        <ele>1489.0000</ele>
        <time>2018-10-13T19:43:35Z</time>
      </trkpt>
      <trkpt lat="38.06285094" lon="-2.57054463">
        <ele>1490.0000</ele>
        <time>2018-10-13T19:43:42Z</time>
      </trkpt>
      <trkpt lat="38.06268280" lon="-2.57071746">
        <ele>1491.0000</ele>
        <time>2018-10-13T19:43:49Z</time>
      </trkpt>
      <trkpt lat="38.06241173" lon="-2.57084663">
        <ele>1492.0000</ele>
        <time>2018-10-13T19:43:58Z</time>
      </trkpt>
      <trkpt lat="38.06184813" lon="-2.57094528">
        <ele>1493.0000</ele>
        <time>2018-10-13T19:44:14Z</time>
      </trkpt>
      <trkpt lat="38.06175450" lon="-2.57098618">
        <ele>1493.0000</ele>
        <time>2018-10-13T19:44:17Z</time>
      </trkpt>
      <trkpt lat="38.06152828" lon="-2.57107738">
        <ele>1494.0000</ele>
        <time>2018-10-13T19:44:24Z</time>
      </trkpt>
      <trkpt lat="38.06149760" lon="-2.57108769">
        <ele>1494.0000</ele>
        <time>2018-10-13T19:44:25Z</time>
      </trkpt>
      <trkpt lat="38.06129182" lon="-2.57115550">
        <ele>1495.0000</ele>
        <time>2018-10-13T19:44:32Z</time>
      </trkpt>
      <trkpt lat="38.06114849" lon="-2.57116061">
        <ele>1496.0000</ele>
        <time>2018-10-13T19:44:37Z</time>
      </trkpt>
      <trkpt lat="38.06087583" lon="-2.57108534">
        <ele>1497.0000</ele>
        <time>2018-10-13T19:44:47Z</time>
      </trkpt>
      <trkpt lat="38.06062890" lon="-2.57116447">
        <ele>1499.0000</ele>
        <time>2018-10-13T19:44:54Z</time>
      </trkpt>
      <trkpt lat="38.06054072" lon="-2.57125382">
        <ele>1499.0000</ele>
        <time>2018-10-13T19:44:57Z</time>
      </trkpt>
      <trkpt lat="38.06046185" lon="-2.57140126">
        <ele>1499.0000</ele>
        <time>2018-10-13T19:45:01Z</time>
      </trkpt>
      <trkpt lat="38.06043787" lon="-2.57145289">
        <ele>1500.0000</ele>
        <time>2018-10-13T19:45:03Z</time>
      </trkpt>
      <trkpt lat="38.06039554" lon="-2.57153763">
        <ele>1501.0000</ele>
        <time>2018-10-13T19:45:06Z</time>
      </trkpt>
      <trkpt lat="38.06033603" lon="-2.57167560">
        <ele>1502.0000</ele>
        <time>2018-10-13T19:45:10Z</time>
      </trkpt>
      <trkpt lat="38.06007703" lon="-2.57191582">
        <ele>1503.0000</ele>
        <time>2018-10-13T19:45:22Z</time>
      </trkpt>
      <trkpt lat="38.05985148" lon="-2.57200920">
        <ele>1504.0000</ele>
        <time>2018-10-13T19:45:30Z</time>
      </trkpt>
      <trkpt lat="38.05973472" lon="-2.57205228">
        <ele>1504.0000</ele>
        <time>2018-10-13T19:45:34Z</time>
      </trkpt>
      <trkpt lat="38.05956012" lon="-2.57214641">
        <ele>1505.0000</ele>
        <time>2018-10-13T19:45:40Z</time>
      </trkpt>
      <trkpt lat="38.05921697" lon="-2.57228605">
        <ele>1506.0000</ele>
        <time>2018-10-13T19:45:51Z</time>
      </trkpt>
      <trkpt lat="38.05885612" lon="-2.57242184">
        <ele>1507.0000</ele>
        <time>2018-10-13T19:46:03Z</time>
      </trkpt>
      <trkpt lat="38.05882369" lon="-2.57242804">
        <ele>1507.0000</ele>
        <time>2018-10-13T19:46:04Z</time>
      </trkpt>
      <trkpt lat="38.05859243" lon="-2.57245847">
        <ele>1508.0000</ele>
        <time>2018-10-13T19:46:11Z</time>
      </trkpt>
      <trkpt lat="38.05820762" lon="-2.57249602">
        <ele>1509.0000</ele>
        <time>2018-10-13T19:46:23Z</time>
      </trkpt>
      <trkpt lat="38.05798533" lon="-2.57253843">
        <ele>1510.0000</ele>
        <time>2018-10-13T19:46:30Z</time>
      </trkpt>
      <trkpt lat="38.05770697" lon="-2.57251404">
        <ele>1511.0000</ele>
        <time>2018-10-13T19:46:39Z</time>
      </trkpt>
      <trkpt lat="38.05767444" lon="-2.57250339">
        <ele>1511.0000</ele>
        <time>2018-10-13T19:46:40Z</time>
      </trkpt>
      <trkpt lat="38.05734227" lon="-2.57236434">
        <ele>1512.0000</ele>
        <time>2018-10-13T19:46:51Z</time>
      </trkpt>
      <trkpt lat="38.05731696" lon="-2.57236459">
        <ele>1512.0000</ele>
        <time>2018-10-13T19:46:52Z</time>
      </trkpt>
      <trkpt lat="38.05690809" lon="-2.57226342">
        <ele>1513.0000</ele>
        <time>2018-10-13T19:47:06Z</time>
      </trkpt>
      <trkpt lat="38.05657683" lon="-2.57215739">
        <ele>1514.0000</ele>
        <time>2018-10-13T19:47:17Z</time>
      </trkpt>
      <trkpt lat="38.05633250" lon="-2.57218572">
        <ele>1516.0000</ele>
        <time>2018-10-13T19:47:24Z</time>
      </trkpt>
      <trkpt lat="38.05605380" lon="-2.57228513">
        <ele>1516.0000</ele>
        <time>2018-10-13T19:47:35Z</time>
      </trkpt>
      <trkpt lat="38.05600108" lon="-2.57226878">
        <ele>1518.0000</ele>
        <time>2018-10-13T19:48:49Z</time>
      </trkpt>
      <trkpt lat="38.05597962" lon="-2.57226778">
        <ele>1518.0000</ele>
        <time>2018-10-13T19:48:50Z</time>
      </trkpt>
      <trkpt lat="38.05590201" lon="-2.57227515">
        <ele>1518.0000</ele>
        <time>2018-10-13T19:48:53Z</time>
      </trkpt>
      <trkpt lat="38.05584057" lon="-2.57227339">
        <ele>1518.0000</ele>
        <time>2018-10-13T19:48:55Z</time>
      </trkpt>
      <trkpt lat="38.05531888" lon="-2.57224054">
        <ele>1519.0000</ele>
        <time>2018-10-13T19:49:14Z</time>
      </trkpt>
      <trkpt lat="38.05506097" lon="-2.57224665">
        <ele>1520.0000</ele>
        <time>2018-10-13T19:49:23Z</time>
      </trkpt>
      <trkpt lat="38.05471949" lon="-2.57226224">
        <ele>1521.0000</ele>
        <time>2018-10-13T19:49:35Z</time>
      </trkpt>
      <trkpt lat="38.05446845" lon="-2.57226392">
        <ele>1522.0000</ele>
        <time>2018-10-13T19:49:44Z</time>
      </trkpt>
      <trkpt lat="38.05438186" lon="-2.57227004">
        <ele>1522.0000</ele>
        <time>2018-10-13T19:49:47Z</time>
      </trkpt>
      <trkpt lat="38.05406712" lon="-2.57229787">
        <ele>1523.0000</ele>
        <time>2018-10-13T19:49:58Z</time>
      </trkpt>
      <trkpt lat="38.05386696" lon="-2.57236559">
        <ele>1525.0000</ele>
        <time>2018-10-13T19:50:05Z</time>
      </trkpt>
      <trkpt lat="38.05364199" lon="-2.57241731">
        <ele>1526.0000</ele>
        <time>2018-10-13T19:50:13Z</time>
      </trkpt>
      <trkpt lat="38.05331837" lon="-2.57245562">
        <ele>1527.0000</ele>
        <time>2018-10-13T19:50:24Z</time>
      </trkpt>
      <trkpt lat="38.05312760" lon="-2.57247732">
        <ele>1528.0000</ele>
        <time>2018-10-13T19:50:31Z</time>
      </trkpt>
      <trkpt lat="38.05294512" lon="-2.57254807">
        <ele>1529.0000</ele>
        <time>2018-10-13T19:50:38Z</time>
      </trkpt>
      <trkpt lat="38.05271479" lon="-2.57270741">
        <ele>1530.0000</ele>
        <time>2018-10-13T19:50:47Z</time>
      </trkpt>
      <trkpt lat="38.05236283" lon="-2.57294068">
        <ele>1531.0000</ele>
        <time>2018-10-13T19:51:01Z</time>
      </trkpt>
      <trkpt lat="38.05223367" lon="-2.57301100">
        <ele>1532.0000</ele>
        <time>2018-10-13T19:51:06Z</time>
      </trkpt>
      <trkpt lat="38.05202982" lon="-2.57312407">
        <ele>1533.0000</ele>
        <time>2018-10-13T19:51:14Z</time>
      </trkpt>
      <trkpt lat="38.05188590" lon="-2.57319624">
        <ele>1534.0000</ele>
        <time>2018-10-13T19:51:20Z</time>
      </trkpt>
      <trkpt lat="38.05176529" lon="-2.57325307">
        <ele>1535.0000</ele>
        <time>2018-10-13T19:51:25Z</time>
      </trkpt>
      <trkpt lat="38.05148726" lon="-2.57333622">
        <ele>1536.0000</ele>
        <time>2018-10-13T19:51:36Z</time>
      </trkpt>
      <trkpt lat="38.05138408" lon="-2.57335382">
        <ele>1537.0000</ele>
        <time>2018-10-13T19:51:40Z</time>
      </trkpt>
      <trkpt lat="38.05122625" lon="-2.57338710">
        <ele>1538.0000</ele>
        <time>2018-10-13T19:51:46Z</time>
      </trkpt>
      <trkpt lat="38.05096833" lon="-2.57346270">
        <ele>1539.0000</ele>
        <time>2018-10-13T19:51:56Z</time>
      </trkpt>
      <trkpt lat="38.05079106" lon="-2.57350402">
        <ele>1540.0000</ele>
        <time>2018-10-13T19:52:03Z</time>
      </trkpt>
      <trkpt lat="38.05064345" lon="-2.57353780">
        <ele>1541.0000</ele>
        <time>2018-10-13T19:52:09Z</time>
      </trkpt>
      <trkpt lat="38.05052284" lon="-2.57357234">
        <ele>1542.0000</ele>
        <time>2018-10-13T19:52:14Z</time>
      </trkpt>
      <trkpt lat="38.05037816" lon="-2.57359983">
        <ele>1543.0000</ele>
        <time>2018-10-13T19:52:20Z</time>
      </trkpt>
      <trkpt lat="38.05021790" lon="-2.57363755">
        <ele>1544.0000</ele>
        <time>2018-10-13T19:52:26Z</time>
      </trkpt>
      <trkpt lat="38.05007801" lon="-2.57368541">
        <ele>1544.0000</ele>
        <time>2018-10-13T19:52:31Z</time>
      </trkpt>
      <trkpt lat="38.04993845" lon="-2.57373008">
        <ele>1545.0000</ele>
        <time>2018-10-13T19:52:36Z</time>
      </trkpt>
      <trkpt lat="38.04976310" lon="-2.57378163">
        <ele>1547.0000</ele>
        <time>2018-10-13T19:52:43Z</time>
      </trkpt>
      <trkpt lat="38.04963922" lon="-2.57381172">
        <ele>1548.0000</ele>
        <time>2018-10-13T19:52:48Z</time>
      </trkpt>
      <trkpt lat="38.04950729" lon="-2.57385481">
        <ele>1549.0000</ele>
        <time>2018-10-13T19:52:54Z</time>
      </trkpt>
      <trkpt lat="38.04939673" lon="-2.57387769">
        <ele>1550.0000</ele>
        <time>2018-10-13T19:52:59Z</time>
      </trkpt>
      <trkpt lat="38.04921098" lon="-2.57392480">
        <ele>1551.0000</ele>
        <time>2018-10-13T19:53:07Z</time>
      </trkpt>
      <trkpt lat="38.04904678" lon="-2.57396905">
        <ele>1552.0000</ele>
        <time>2018-10-13T19:53:14Z</time>
      </trkpt>
      <trkpt lat="38.04883958" lon="-2.57401892">
        <ele>1553.0000</ele>
        <time>2018-10-13T19:53:23Z</time>
      </trkpt>
      <trkpt lat="38.04872366" lon="-2.57405061">
        <ele>1554.0000</ele>
        <time>2018-10-13T19:53:28Z</time>
      </trkpt>
      <trkpt lat="38.04853549" lon="-2.57409771">
        <ele>1555.0000</ele>
        <time>2018-10-13T19:53:37Z</time>
      </trkpt>
      <trkpt lat="38.04842627" lon="-2.57412076">
        <ele>1557.0000</ele>
        <time>2018-10-13T19:53:42Z</time>
      </trkpt>
      <trkpt lat="38.04826844" lon="-2.57413116">
        <ele>1558.0000</ele>
        <time>2018-10-13T19:53:49Z</time>
      </trkpt>
      <trkpt lat="38.04815956" lon="-2.57412252">
        <ele>1559.0000</ele>
        <time>2018-10-13T19:53:54Z</time>
      </trkpt>
      <trkpt lat="38.04801246" lon="-2.57407332">
        <ele>1560.0000</ele>
        <time>2018-10-13T19:54:01Z</time>
      </trkpt>
      <trkpt lat="38.04784247" lon="-2.57401138">
        <ele>1561.0000</ele>
        <time>2018-10-13T19:54:09Z</time>
      </trkpt>
      <trkpt lat="38.04768699" lon="-2.57395195">
        <ele>1562.0000</ele>
        <time>2018-10-13T19:54:17Z</time>
      </trkpt>
      <trkpt lat="38.04756327" lon="-2.57390183">
        <ele>1563.0000</ele>
        <time>2018-10-13T19:54:23Z</time>
      </trkpt>
      <trkpt lat="38.04743293" lon="-2.57383360">
        <ele>1564.0000</ele>
        <time>2018-10-13T19:54:30Z</time>
      </trkpt>
      <trkpt lat="38.04723512" lon="-2.57376495">
        <ele>1565.0000</ele>
        <time>2018-10-13T19:54:40Z</time>
      </trkpt>
      <trkpt lat="38.04696329" lon="-2.57365062">
        <ele>1566.0000</ele>
        <time>2018-10-13T19:54:52Z</time>
      </trkpt>
      <trkpt lat="38.04682960" lon="-2.57357938">
        <ele>1567.0000</ele>
        <time>2018-10-13T19:54:57Z</time>
      </trkpt>
      <trkpt lat="38.04664604" lon="-2.57333898">
        <ele>1568.0000</ele>
        <time>2018-10-13T19:55:07Z</time>
      </trkpt>
      <trkpt lat="38.04660488" lon="-2.57317780">
        <ele>1569.0000</ele>
        <time>2018-10-13T19:55:12Z</time>
      </trkpt>
      <trkpt lat="38.04643909" lon="-2.57286977">
        <ele>1569.0000</ele>
        <time>2018-10-13T19:55:21Z</time>
      </trkpt>
      <trkpt lat="38.04620683" lon="-2.57269006">
        <ele>1570.0000</ele>
        <time>2018-10-13T19:55:30Z</time>
      </trkpt>
      <trkpt lat="38.04597607" lon="-2.57256156">
        <ele>1571.0000</ele>
        <time>2018-10-13T19:55:39Z</time>
      </trkpt>
      <trkpt lat="38.04578647" lon="-2.57240826">
        <ele>1572.0000</ele>
        <time>2018-10-13T19:55:47Z</time>
      </trkpt>
      <trkpt lat="38.04565111" lon="-2.57231220">
        <ele>1573.0000</ele>
        <time>2018-10-13T19:55:53Z</time>
      </trkpt>
      <trkpt lat="38.04550652" lon="-2.57217390">
        <ele>1574.0000</ele>
        <time>2018-10-13T19:56:00Z</time>
      </trkpt>
      <trkpt lat="38.04542178" lon="-2.57204976">
        <ele>1576.0000</ele>
        <time>2018-10-13T19:56:05Z</time>
      </trkpt>
      <trkpt lat="38.04534684" lon="-2.57193434">
        <ele>1577.0000</ele>
        <time>2018-10-13T19:56:10Z</time>
      </trkpt>
      <trkpt lat="38.04519203" lon="-2.57168741">
        <ele>1578.0000</ele>
        <time>2018-10-13T19:56:20Z</time>
      </trkpt>
      <trkpt lat="38.04507820" lon="-2.57151533">
        <ele>1579.0000</ele>
        <time>2018-10-13T19:56:27Z</time>
      </trkpt>
      <trkpt lat="38.04497108" lon="-2.57138416">
        <ele>1580.0000</ele>
        <time>2018-10-13T19:56:32Z</time>
      </trkpt>
      <trkpt lat="38.04474871" lon="-2.57121887">
        <ele>1581.0000</ele>
        <time>2018-10-13T19:56:41Z</time>
      </trkpt>
      <trkpt lat="38.04454461" lon="-2.57112189">
        <ele>1582.0000</ele>
        <time>2018-10-13T19:56:49Z</time>
      </trkpt>
      <trkpt lat="38.04451997" lon="-2.57111418">
        <ele>1582.0000</ele>
        <time>2018-10-13T19:56:50Z</time>
      </trkpt>
      <trkpt lat="38.04432467" lon="-2.57103011">
        <ele>1583.0000</ele>
        <time>2018-10-13T19:56:58Z</time>
      </trkpt>
      <trkpt lat="38.04416508" lon="-2.57095978">
        <ele>1584.0000</ele>
        <time>2018-10-13T19:57:05Z</time>
      </trkpt>
      <trkpt lat="38.04399090" lon="-2.57085828">
        <ele>1585.0000</ele>
        <time>2018-10-13T19:57:13Z</time>
      </trkpt>
      <trkpt lat="38.04382117" lon="-2.57077923">
        <ele>1586.0000</ele>
        <time>2018-10-13T19:57:20Z</time>
      </trkpt>
      <trkpt lat="38.04371925" lon="-2.57073582">
        <ele>1586.0000</ele>
        <time>2018-10-13T19:57:24Z</time>
      </trkpt>
      <trkpt lat="38.04359628" lon="-2.57068720">
        <ele>1587.0000</ele>
        <time>2018-10-13T19:57:29Z</time>
      </trkpt>
      <trkpt lat="38.04346125" lon="-2.57062861">
        <ele>1588.0000</ele>
        <time>2018-10-13T19:57:35Z</time>
      </trkpt>
      <trkpt lat="38.04332270" lon="-2.57058327">
        <ele>1589.0000</ele>
        <time>2018-10-13T19:57:41Z</time>
      </trkpt>
      <trkpt lat="38.04320183" lon="-2.57056122">
        <ele>1590.0000</ele>
        <time>2018-10-13T19:57:46Z</time>
      </trkpt>
      <trkpt lat="38.04302154" lon="-2.57051001">
        <ele>1592.0000</ele>
        <time>2018-10-13T19:57:54Z</time>
      </trkpt>
      <trkpt lat="38.04286010" lon="-2.57045326">
        <ele>1592.0000</ele>
        <time>2018-10-13T19:58:01Z</time>
      </trkpt>
      <trkpt lat="38.04264418" lon="-2.57039685">
        <ele>1593.0000</ele>
        <time>2018-10-13T19:58:10Z</time>
      </trkpt>
      <trkpt lat="38.04247864" lon="-2.57035167">
        <ele>1595.0000</ele>
        <time>2018-10-13T19:58:17Z</time>
      </trkpt>
      <trkpt lat="38.04245534" lon="-2.57034095">
        <ele>1595.0000</ele>
        <time>2018-10-13T19:58:18Z</time>
      </trkpt>
      <trkpt lat="38.04230832" lon="-2.57030641">
        <ele>1596.0000</ele>
        <time>2018-10-13T19:58:24Z</time>
      </trkpt>
      <trkpt lat="38.04215904" lon="-2.57025813">
        <ele>1597.0000</ele>
        <time>2018-10-13T19:58:31Z</time>
      </trkpt>
      <trkpt lat="38.04193876" lon="-2.57020734">
        <ele>1598.0000</ele>
        <time>2018-10-13T19:58:41Z</time>
      </trkpt>
      <trkpt lat="38.04180658" lon="-2.57016954">
        <ele>1599.0000</ele>
        <time>2018-10-13T19:58:47Z</time>
      </trkpt>
      <trkpt lat="38.04169191" lon="-2.57014003">
        <ele>1600.0000</ele>
        <time>2018-10-13T19:58:52Z</time>
      </trkpt>
      <trkpt lat="38.04153157" lon="-2.57009712">
        <ele>1601.0000</ele>
        <time>2018-10-13T19:58:59Z</time>
      </trkpt>
      <trkpt lat="38.04139880" lon="-2.57006241">
        <ele>1602.0000</ele>
        <time>2018-10-13T19:59:05Z</time>
      </trkpt>
      <trkpt lat="38.04115145" lon="-2.56999854">
        <ele>1603.0000</ele>
        <time>2018-10-13T19:59:16Z</time>
      </trkpt>
      <trkpt lat="38.04104542" lon="-2.56996778">
        <ele>1604.0000</ele>
        <time>2018-10-13T19:59:21Z</time>
      </trkpt>
      <trkpt lat="38.04078742" lon="-2.56988790">
        <ele>1605.0000</ele>
        <time>2018-10-13T19:59:31Z</time>
      </trkpt>
      <trkpt lat="38.04039875" lon="-2.56977274">
        <ele>1606.0000</ele>
        <time>2018-10-13T19:59:46Z</time>
      </trkpt>
      <trkpt lat="38.04020882" lon="-2.56970526">
        <ele>1606.0000</ele>
        <time>2018-10-13T19:59:51Z</time>
      </trkpt>
      <trkpt lat="38.03988528" lon="-2.56960334">
        <ele>1607.0000</ele>
        <time>2018-10-13T20:00:01Z</time>
      </trkpt>
      <trkpt lat="38.03966098" lon="-2.56949932">
        <ele>1608.0000</ele>
        <time>2018-10-13T20:00:08Z</time>
      </trkpt>
      <trkpt lat="38.03927709" lon="-2.56932715">
        <ele>1609.0000</ele>
        <time>2018-10-13T20:00:20Z</time>
      </trkpt>
      <trkpt lat="38.03893553" lon="-2.56920629">
        <ele>1610.0000</ele>
        <time>2018-10-13T20:00:31Z</time>
      </trkpt>
      <trkpt lat="38.03875381" lon="-2.56922800">
        <ele>1611.0000</ele>
        <time>2018-10-13T20:00:37Z</time>
      </trkpt>
      <trkpt lat="38.03865859" lon="-2.56928022">
        <ele>1612.0000</ele>
        <time>2018-10-13T20:00:41Z</time>
      </trkpt>
      <trkpt lat="38.03846153" lon="-2.56938046">
        <ele>1613.0000</ele>
        <time>2018-10-13T20:00:49Z</time>
      </trkpt>
      <trkpt lat="38.03823195" lon="-2.56946914">
        <ele>1614.0000</ele>
        <time>2018-10-13T20:00:58Z</time>
      </trkpt>
      <trkpt lat="38.03811972" lon="-2.56952069">
        <ele>1615.0000</ele>
        <time>2018-10-13T20:01:03Z</time>
      </trkpt>
      <trkpt lat="38.03801595" lon="-2.56956612">
        <ele>1617.0000</ele>
        <time>2018-10-13T20:01:08Z</time>
      </trkpt>
      <trkpt lat="38.03781369" lon="-2.56964743">
        <ele>1617.0000</ele>
        <time>2018-10-13T20:01:17Z</time>
      </trkpt>
      <trkpt lat="38.03767589" lon="-2.56970250">
        <ele>1619.0000</ele>
        <time>2018-10-13T20:01:23Z</time>
      </trkpt>
      <trkpt lat="38.03749057" lon="-2.56977869">
        <ele>1620.0000</ele>
        <time>2018-10-13T20:01:32Z</time>
      </trkpt>
      <trkpt lat="38.03728437" lon="-2.56990701">
        <ele>1621.0000</ele>
        <time>2018-10-13T20:01:41Z</time>
      </trkpt>
      <trkpt lat="38.03718086" lon="-2.57005521">
        <ele>1622.0000</ele>
        <time>2018-10-13T20:01:47Z</time>
      </trkpt>
      <trkpt lat="38.03710718" lon="-2.57041286">
        <ele>1623.0000</ele>
        <time>2018-10-13T20:01:58Z</time>
      </trkpt>
      <trkpt lat="38.03706728" lon="-2.57072266">
        <ele>1624.0000</ele>
        <time>2018-10-13T20:02:07Z</time>
      </trkpt>
      <trkpt lat="38.03707189" lon="-2.57120579">
        <ele>1625.0000</ele>
        <time>2018-10-13T20:02:21Z</time>
      </trkpt>
      <trkpt lat="38.03707122" lon="-2.57161734">
        <ele>1626.0000</ele>
        <time>2018-10-13T20:02:33Z</time>
      </trkpt>
      <trkpt lat="38.03678398" lon="-2.57212470">
        <ele>1627.0000</ele>
        <time>2018-10-13T20:02:52Z</time>
      </trkpt>
      <trkpt lat="38.03664433" lon="-2.57217826">
        <ele>1627.0000</ele>
        <time>2018-10-13T20:02:57Z</time>
      </trkpt>
      <trkpt lat="38.03656646" lon="-2.57218840">
        <ele>1628.0000</ele>
        <time>2018-10-13T20:03:00Z</time>
      </trkpt>
      <trkpt lat="38.03635390" lon="-2.57217180">
        <ele>1629.0000</ele>
        <time>2018-10-13T20:03:07Z</time>
      </trkpt>
      <trkpt lat="38.03620789" lon="-2.57217407">
        <ele>1630.0000</ele>
        <time>2018-10-13T20:03:12Z</time>
      </trkpt>
      <trkpt lat="38.03599063" lon="-2.57216300">
        <ele>1631.0000</ele>
        <time>2018-10-13T20:03:20Z</time>
      </trkpt>
      <trkpt lat="38.03576314" lon="-2.57212805">
        <ele>1632.0000</ele>
        <time>2018-10-13T20:03:29Z</time>
      </trkpt>
      <trkpt lat="38.03552535" lon="-2.57211347">
        <ele>1633.0000</ele>
        <time>2018-10-13T20:03:39Z</time>
      </trkpt>
      <trkpt lat="38.03548134" lon="-2.57210592">
        <ele>1633.0000</ele>
        <time>2018-10-13T20:03:41Z</time>
      </trkpt>
      <trkpt lat="38.03540096" lon="-2.57209109">
        <ele>1634.0000</ele>
        <time>2018-10-13T20:03:45Z</time>
      </trkpt>
      <trkpt lat="38.03535360" lon="-2.57206954">
        <ele>1634.0000</ele>
        <time>2018-10-13T20:03:47Z</time>
      </trkpt>
      <trkpt lat="38.03511422" lon="-2.57197257">
        <ele>1634.0000</ele>
        <time>2018-10-13T20:03:56Z</time>
      </trkpt>
      <trkpt lat="38.03504230" lon="-2.57194767">
        <ele>1634.0000</ele>
        <time>2018-10-13T20:03:58Z</time>
      </trkpt>
      <trkpt lat="38.03490207" lon="-2.57193091">
        <ele>1633.0000</ele>
        <time>2018-10-13T20:04:01Z</time>
      </trkpt>
      <trkpt lat="38.03462840" lon="-2.57198355">
        <ele>1632.0000</ele>
        <time>2018-10-13T20:04:06Z</time>
      </trkpt>
      <trkpt lat="38.03429941" lon="-2.57206929">
        <ele>1631.0000</ele>
        <time>2018-10-13T20:04:11Z</time>
      </trkpt>
      <trkpt lat="38.03415474" lon="-2.57210676">
        <ele>1630.0000</ele>
        <time>2018-10-13T20:04:13Z</time>
      </trkpt>
      <trkpt lat="38.03393161" lon="-2.57216510">
        <ele>1628.0000</ele>
        <time>2018-10-13T20:04:16Z</time>
      </trkpt>
      <trkpt lat="38.03378627" lon="-2.57220793">
        <ele>1627.0000</ele>
        <time>2018-10-13T20:04:18Z</time>
      </trkpt>
      <trkpt lat="38.03356977" lon="-2.57230089">
        <ele>1626.0000</ele>
        <time>2018-10-13T20:04:21Z</time>
      </trkpt>
      <trkpt lat="38.03337145" lon="-2.57240331">
        <ele>1625.0000</ele>
        <time>2018-10-13T20:04:24Z</time>
      </trkpt>
      <trkpt lat="38.03331160" lon="-2.57244095">
        <ele>1625.0000</ele>
        <time>2018-10-13T20:04:25Z</time>
      </trkpt>
      <trkpt lat="38.03320306" lon="-2.57253508">
        <ele>1624.0000</ele>
        <time>2018-10-13T20:04:27Z</time>
      </trkpt>
      <trkpt lat="38.03287725" lon="-2.57269240">
        <ele>1623.0000</ele>
        <time>2018-10-13T20:04:32Z</time>
      </trkpt>
      <trkpt lat="38.03261188" lon="-2.57276910">
        <ele>1621.0000</ele>
        <time>2018-10-13T20:04:36Z</time>
      </trkpt>
      <trkpt lat="38.03246260" lon="-2.57282199">
        <ele>1620.0000</ele>
        <time>2018-10-13T20:04:38Z</time>
      </trkpt>
      <trkpt lat="38.03214535" lon="-2.57296004">
        <ele>1619.0000</ele>
        <time>2018-10-13T20:04:42Z</time>
      </trkpt>
      <trkpt lat="38.03198182" lon="-2.57303715">
        <ele>1618.0000</ele>
        <time>2018-10-13T20:04:44Z</time>
      </trkpt>
      <trkpt lat="38.03176053" lon="-2.57317378">
        <ele>1617.0000</ele>
        <time>2018-10-13T20:04:47Z</time>
      </trkpt>
      <trkpt lat="38.03162651" lon="-2.57325106">
        <ele>1614.0000</ele>
        <time>2018-10-13T20:04:49Z</time>
      </trkpt>
      <trkpt lat="38.03144495" lon="-2.57334125">
        <ele>1614.0000</ele>
        <time>2018-10-13T20:04:52Z</time>
      </trkpt>
      <trkpt lat="38.03124999" lon="-2.57338316">
        <ele>1613.0000</ele>
        <time>2018-10-13T20:04:56Z</time>
      </trkpt>
      <trkpt lat="38.03110138" lon="-2.57337419">
        <ele>1615.0000</ele>
        <time>2018-10-13T20:05:00Z</time>
      </trkpt>
      <trkpt lat="38.03099996" lon="-2.57335701">
        <ele>1616.0000</ele>
        <time>2018-10-13T20:05:03Z</time>
      </trkpt>
      <trkpt lat="38.03090223" lon="-2.57335491">
        <ele>1617.0000</ele>
        <time>2018-10-13T20:05:06Z</time>
      </trkpt>
      <trkpt lat="38.03080776" lon="-2.57336799">
        <ele>1617.0000</ele>
        <time>2018-10-13T20:05:09Z</time>
      </trkpt>
      <trkpt lat="38.03064155" lon="-2.57339372">
        <ele>1618.0000</ele>
        <time>2018-10-13T20:05:14Z</time>
      </trkpt>
      <trkpt lat="38.03039638" lon="-2.57343722">
        <ele>1619.0000</ele>
        <time>2018-10-13T20:05:22Z</time>
      </trkpt>
      <trkpt lat="38.03020074" lon="-2.57348910">
        <ele>1620.0000</ele>
        <time>2018-10-13T20:05:29Z</time>
      </trkpt>
      <trkpt lat="38.02993722" lon="-2.57361944">
        <ele>1621.0000</ele>
        <time>2018-10-13T20:05:39Z</time>
      </trkpt>
      <trkpt lat="38.02971283" lon="-2.57388926">
        <ele>1622.0000</ele>
        <time>2018-10-13T20:05:50Z</time>
      </trkpt>
      <trkpt lat="38.02963212" lon="-2.57400241">
        <ele>1623.0000</ele>
        <time>2018-10-13T20:05:54Z</time>
      </trkpt>
      <trkpt lat="38.02940228" lon="-2.57432671">
        <ele>1624.0000</ele>
        <time>2018-10-13T20:06:06Z</time>
      </trkpt>
      <trkpt lat="38.02938443" lon="-2.57435336">
        <ele>1624.0000</ele>
        <time>2018-10-13T20:06:07Z</time>
      </trkpt>
      <trkpt lat="38.02919500" lon="-2.57463701">
        <ele>1625.0000</ele>
        <time>2018-10-13T20:06:18Z</time>
      </trkpt>
      <trkpt lat="38.02909266" lon="-2.57483029">
        <ele>1626.0000</ele>
        <time>2018-10-13T20:06:25Z</time>
      </trkpt>
      <trkpt lat="38.02900146" lon="-2.57506758">
        <ele>1627.0000</ele>
        <time>2018-10-13T20:06:33Z</time>
      </trkpt>
      <trkpt lat="38.02880164" lon="-2.57545407">
        <ele>1628.0000</ele>
        <time>2018-10-13T20:06:47Z</time>
      </trkpt>
      <trkpt lat="38.02861187" lon="-2.57560805">
        <ele>1629.0000</ele>
        <time>2018-10-13T20:06:56Z</time>
      </trkpt>
      <trkpt lat="38.02848028" lon="-2.57568969">
        <ele>1630.0000</ele>
        <time>2018-10-13T20:07:02Z</time>
      </trkpt>
      <trkpt lat="38.02824961" lon="-2.57586990">
        <ele>1631.0000</ele>
        <time>2018-10-13T20:07:13Z</time>
      </trkpt>
      <trkpt lat="38.02804165" lon="-2.57614784">
        <ele>1632.0000</ele>
        <time>2018-10-13T20:07:24Z</time>
      </trkpt>
      <trkpt lat="38.02793176" lon="-2.57632805">
        <ele>1633.0000</ele>
        <time>2018-10-13T20:07:29Z</time>
      </trkpt>
      <trkpt lat="38.02774602" lon="-2.57658647">
        <ele>1633.0000</ele>
        <time>2018-10-13T20:07:37Z</time>
      </trkpt>
      <trkpt lat="38.02759707" lon="-2.57672309">
        <ele>1634.0000</ele>
        <time>2018-10-13T20:07:43Z</time>
      </trkpt>
      <trkpt lat="38.02752784" lon="-2.57679484">
        <ele>1635.0000</ele>
        <time>2018-10-13T20:07:46Z</time>
      </trkpt>
      <trkpt lat="38.02732936" lon="-2.57695393">
        <ele>1636.0000</ele>
        <time>2018-10-13T20:07:54Z</time>
      </trkpt>
      <trkpt lat="38.02700540" lon="-2.57723146">
        <ele>1637.0000</ele>
        <time>2018-10-13T20:08:08Z</time>
      </trkpt>
      <trkpt lat="38.02686584" lon="-2.57734361">
        <ele>1638.0000</ele>
        <time>2018-10-13T20:08:14Z</time>
      </trkpt>
      <trkpt lat="38.02665428" lon="-2.57752482">
        <ele>1639.0000</ele>
        <time>2018-10-13T20:08:23Z</time>
      </trkpt>
      <trkpt lat="38.02650751" lon="-2.57764762">
        <ele>1640.0000</ele>
        <time>2018-10-13T20:08:29Z</time>
      </trkpt>
      <trkpt lat="38.02636083" lon="-2.57776974">
        <ele>1641.0000</ele>
        <time>2018-10-13T20:08:35Z</time>
      </trkpt>
      <trkpt lat="38.02617316" lon="-2.57791567">
        <ele>1641.0000</ele>
        <time>2018-10-13T20:08:43Z</time>
      </trkpt>
      <trkpt lat="38.02596688" lon="-2.57807224">
        <ele>1642.0000</ele>
        <time>2018-10-13T20:08:52Z</time>
      </trkpt>
      <trkpt lat="38.02578700" lon="-2.57822421">
        <ele>1642.0000</ele>
        <time>2018-10-13T20:09:00Z</time>
      </trkpt>
      <trkpt lat="38.02568893" lon="-2.57831163">
        <ele>1643.0000</ele>
        <time>2018-10-13T20:09:06Z</time>
      </trkpt>
      <trkpt lat="38.02568751" lon="-2.57831197">
        <ele>1643.0000</ele>
        <time>2018-10-13T20:09:07Z</time>
      </trkpt>
      <trkpt lat="38.02564216" lon="-2.57834466">
        <ele>1645.0000</ele>
        <time>2018-10-13T20:10:25Z</time>
      </trkpt>
      <trkpt lat="38.02550218" lon="-2.57847089">
        <ele>1645.0000</ele>
        <time>2018-10-13T20:10:31Z</time>
      </trkpt>
      <trkpt lat="38.02508921" lon="-2.57879845">
        <ele>1646.0000</ele>
        <time>2018-10-13T20:10:48Z</time>
      </trkpt>
      <trkpt lat="38.02484739" lon="-2.57897984">
        <ele>1647.0000</ele>
        <time>2018-10-13T20:10:58Z</time>
      </trkpt>
      <trkpt lat="38.02461689" lon="-2.57912996">
        <ele>1648.0000</ele>
        <time>2018-10-13T20:11:07Z</time>
      </trkpt>
      <trkpt lat="38.02442067" lon="-2.57925024">
        <ele>1649.0000</ele>
        <time>2018-10-13T20:11:15Z</time>
      </trkpt>
      <trkpt lat="38.02418044" lon="-2.57939281">
        <ele>1650.0000</ele>
        <time>2018-10-13T20:11:25Z</time>
      </trkpt>
      <trkpt lat="38.02394248" lon="-2.57953237">
        <ele>1651.0000</ele>
        <time>2018-10-13T20:11:35Z</time>
      </trkpt>
      <trkpt lat="38.02370661" lon="-2.57966573">
        <ele>1652.0000</ele>
        <time>2018-10-13T20:11:45Z</time>
      </trkpt>
      <trkpt lat="38.02358524" lon="-2.57973228">
        <ele>1653.0000</ele>
        <time>2018-10-13T20:11:50Z</time>
      </trkpt>
      <trkpt lat="38.02331283" lon="-2.57988953">
        <ele>1654.0000</ele>
        <time>2018-10-13T20:12:01Z</time>
      </trkpt>
      <trkpt lat="38.02304696" lon="-2.58004300">
        <ele>1655.0000</ele>
        <time>2018-10-13T20:12:11Z</time>
      </trkpt>
      <trkpt lat="38.02253164" lon="-2.58034123">
        <ele>1655.0000</ele>
        <time>2018-10-13T20:12:28Z</time>
      </trkpt>
      <trkpt lat="38.02218379" lon="-2.58054893">
        <ele>1656.0000</ele>
        <time>2018-10-13T20:12:39Z</time>
      </trkpt>
      <trkpt lat="38.02167761" lon="-2.58085118">
        <ele>1657.0000</ele>
        <time>2018-10-13T20:12:54Z</time>
      </trkpt>
      <trkpt lat="38.02147393" lon="-2.58098185">
        <ele>1657.0000</ele>
        <time>2018-10-13T20:13:01Z</time>
      </trkpt>
      <trkpt lat="38.02128324" lon="-2.58110549">
        <ele>1657.0000</ele>
        <time>2018-10-13T20:13:08Z</time>
      </trkpt>
      <trkpt lat="38.02093313" lon="-2.58134010">
        <ele>1658.0000</ele>
        <time>2018-10-13T20:13:21Z</time>
      </trkpt>
      <trkpt lat="38.02062283" lon="-2.58152073">
        <ele>1659.0000</ele>
        <time>2018-10-13T20:13:32Z</time>
      </trkpt>
      <trkpt lat="38.02058737" lon="-2.58154705">
        <ele>1659.0000</ele>
        <time>2018-10-13T20:13:33Z</time>
      </trkpt>
      <trkpt lat="38.02047120" lon="-2.58162341">
        <ele>1659.0000</ele>
        <time>2018-10-13T20:13:36Z</time>
      </trkpt>
      <trkpt lat="38.02013073" lon="-2.58180722">
        <ele>1660.0000</ele>
        <time>2018-10-13T20:13:46Z</time>
      </trkpt>
      <trkpt lat="38.01998111" lon="-2.58190160">
        <ele>1661.0000</ele>
        <time>2018-10-13T20:13:51Z</time>
      </trkpt>
      <trkpt lat="38.01971373" lon="-2.58205734">
        <ele>1662.0000</ele>
        <time>2018-10-13T20:14:00Z</time>
      </trkpt>
      <trkpt lat="38.01939446" lon="-2.58224492">
        <ele>1663.0000</ele>
        <time>2018-10-13T20:14:11Z</time>
      </trkpt>
      <trkpt lat="38.01907511" lon="-2.58242078">
        <ele>1665.0000</ele>
        <time>2018-10-13T20:14:22Z</time>
      </trkpt>
      <trkpt lat="38.01889356" lon="-2.58250351">
        <ele>1665.0000</ele>
        <time>2018-10-13T20:14:28Z</time>
      </trkpt>
      <trkpt lat="38.01875593" lon="-2.58254919">
        <ele>1666.0000</ele>
        <time>2018-10-13T20:14:33Z</time>
      </trkpt>
      <trkpt lat="38.01860589" lon="-2.58259512">
        <ele>1667.0000</ele>
        <time>2018-10-13T20:14:39Z</time>
      </trkpt>
      <trkpt lat="38.01848804" lon="-2.58261465">
        <ele>1668.0000</ele>
        <time>2018-10-13T20:14:44Z</time>
      </trkpt>
      <trkpt lat="38.01829316" lon="-2.58266335">
        <ele>1669.0000</ele>
        <time>2018-10-13T20:14:53Z</time>
      </trkpt>
      <trkpt lat="38.01808303" lon="-2.58267500">
        <ele>1670.0000</ele>
        <time>2018-10-13T20:15:03Z</time>
      </trkpt>
      <trkpt lat="38.01798488" lon="-2.58267290">
        <ele>1671.0000</ele>
        <time>2018-10-13T20:15:08Z</time>
      </trkpt>
      <trkpt lat="38.01786661" lon="-2.58266687">
        <ele>1672.0000</ele>
        <time>2018-10-13T20:15:14Z</time>
      </trkpt>
      <trkpt lat="38.01768329" lon="-2.58265933">
        <ele>1673.0000</ele>
        <time>2018-10-13T20:15:23Z</time>
      </trkpt>
      <trkpt lat="38.01749914" lon="-2.58269327">
        <ele>1674.0000</ele>
        <time>2018-10-13T20:15:32Z</time>
      </trkpt>
      <trkpt lat="38.01735430" lon="-2.58272655">
        <ele>1675.0000</ele>
        <time>2018-10-13T20:15:39Z</time>
      </trkpt>
      <trkpt lat="38.01715079" lon="-2.58280668">
        <ele>1676.0000</ele>
        <time>2018-10-13T20:15:49Z</time>
      </trkpt>
      <trkpt lat="38.01713177" lon="-2.58281573">
        <ele>1677.0000</ele>
        <time>2018-10-13T20:15:50Z</time>
      </trkpt>
      <trkpt lat="38.01694032" lon="-2.58291078">
        <ele>1678.0000</ele>
        <time>2018-10-13T20:16:00Z</time>
      </trkpt>
      <trkpt lat="38.01677914" lon="-2.58298220">
        <ele>1679.0000</ele>
        <time>2018-10-13T20:16:08Z</time>
      </trkpt>
      <trkpt lat="38.01661284" lon="-2.58307708">
        <ele>1680.0000</ele>
        <time>2018-10-13T20:16:17Z</time>
      </trkpt>
      <trkpt lat="38.01648024" lon="-2.58313550">
        <ele>1681.0000</ele>
        <time>2018-10-13T20:16:24Z</time>
      </trkpt>
      <trkpt lat="38.01635594" lon="-2.58319887">
        <ele>1682.0000</ele>
        <time>2018-10-13T20:16:31Z</time>
      </trkpt>
      <trkpt lat="38.01624664" lon="-2.58324924">
        <ele>1684.0000</ele>
        <time>2018-10-13T20:16:37Z</time>
      </trkpt>
      <trkpt lat="38.01606844" lon="-2.58333449">
        <ele>1685.0000</ele>
        <time>2018-10-13T20:16:45Z</time>
      </trkpt>
      <trkpt lat="38.01596987" lon="-2.58338067">
        <ele>1685.0000</ele>
        <time>2018-10-13T20:16:49Z</time>
      </trkpt>
      <trkpt lat="38.01585143" lon="-2.58344027">
        <ele>1685.0000</ele>
        <time>2018-10-13T20:16:54Z</time>
      </trkpt>
      <trkpt lat="38.01574758" lon="-2.58348989">
        <ele>1686.0000</ele>
        <time>2018-10-13T20:16:59Z</time>
      </trkpt>
      <trkpt lat="38.01562864" lon="-2.58354420">
        <ele>1688.0000</ele>
        <time>2018-10-13T20:17:05Z</time>
      </trkpt>
      <trkpt lat="38.01551272" lon="-2.58360405">
        <ele>1689.0000</ele>
        <time>2018-10-13T20:17:11Z</time>
      </trkpt>
      <trkpt lat="38.01531331" lon="-2.58366364">
        <ele>1690.0000</ele>
        <time>2018-10-13T20:17:21Z</time>
      </trkpt>
      <trkpt lat="38.01521952" lon="-2.58369432">
        <ele>1691.0000</ele>
        <time>2018-10-13T20:17:26Z</time>
      </trkpt>
      <trkpt lat="38.01500444" lon="-2.58368083">
        <ele>1692.0000</ele>
        <time>2018-10-13T20:17:37Z</time>
      </trkpt>
      <trkpt lat="38.01485080" lon="-2.58361939">
        <ele>1693.0000</ele>
        <time>2018-10-13T20:17:45Z</time>
      </trkpt>
      <trkpt lat="38.01473823" lon="-2.58356080">
        <ele>1694.0000</ele>
        <time>2018-10-13T20:17:51Z</time>
      </trkpt>
      <trkpt lat="38.01461401" lon="-2.58349777">
        <ele>1695.0000</ele>
        <time>2018-10-13T20:17:58Z</time>
      </trkpt>
      <trkpt lat="38.01448216" lon="-2.58345049">
        <ele>1696.0000</ele>
        <time>2018-10-13T20:18:05Z</time>
      </trkpt>
      <trkpt lat="38.01433682" lon="-2.58343733">
        <ele>1697.0000</ele>
        <time>2018-10-13T20:18:12Z</time>
      </trkpt>
      <trkpt lat="38.01417639" lon="-2.58347723">
        <ele>1698.0000</ele>
        <time>2018-10-13T20:18:20Z</time>
      </trkpt>
      <trkpt lat="38.01402501" lon="-2.58356759">
        <ele>1699.0000</ele>
        <time>2018-10-13T20:18:27Z</time>
      </trkpt>
      <trkpt lat="38.01388051" lon="-2.58366616">
        <ele>1700.0000</ele>
        <time>2018-10-13T20:18:34Z</time>
      </trkpt>
      <trkpt lat="38.01373491" lon="-2.58375853">
        <ele>1701.0000</ele>
        <time>2018-10-13T20:18:41Z</time>
      </trkpt>
      <trkpt lat="38.01357138" lon="-2.58387344">
        <ele>1702.0000</ele>
        <time>2018-10-13T20:18:49Z</time>
      </trkpt>
      <trkpt lat="38.01345513" lon="-2.58396196">
        <ele>1703.0000</ele>
        <time>2018-10-13T20:18:55Z</time>
      </trkpt>
      <trkpt lat="38.01325790" lon="-2.58410990">
        <ele>1704.0000</ele>
        <time>2018-10-13T20:19:05Z</time>
      </trkpt>
      <trkpt lat="38.01304617" lon="-2.58426337">
        <ele>1705.0000</ele>
        <time>2018-10-13T20:19:15Z</time>
      </trkpt>
      <trkpt lat="38.01278139" lon="-2.58447811">
        <ele>1706.0000</ele>
        <time>2018-10-13T20:19:26Z</time>
      </trkpt>
      <trkpt lat="38.01227076" lon="-2.58467165">
        <ele>1707.0000</ele>
        <time>2018-10-13T20:19:43Z</time>
      </trkpt>
      <trkpt lat="38.01204848" lon="-2.58466972">
        <ele>1707.0000</ele>
        <time>2018-10-13T20:19:50Z</time>
      </trkpt>
      <trkpt lat="38.01178688" lon="-2.58480786">
        <ele>1707.0000</ele>
        <time>2018-10-13T20:19:59Z</time>
      </trkpt>
      <trkpt lat="38.01171035" lon="-2.58488221">
        <ele>1707.0000</ele>
        <time>2018-10-13T20:20:02Z</time>
      </trkpt>
      <trkpt lat="38.01162796" lon="-2.58495982">
        <ele>1708.0000</ele>
        <time>2018-10-13T20:20:05Z</time>
      </trkpt>
      <trkpt lat="38.01123811" lon="-2.58546793">
        <ele>1708.0000</ele>
        <time>2018-10-13T20:20:20Z</time>
      </trkpt>
      <trkpt lat="38.01107240" lon="-2.58576834">
        <ele>1708.0000</ele>
        <time>2018-10-13T20:20:27Z</time>
      </trkpt>
      <trkpt lat="38.01081273" lon="-2.58608526">
        <ele>1708.0000</ele>
        <time>2018-10-13T20:20:36Z</time>
      </trkpt>
      <trkpt lat="38.01055138" lon="-2.58640754">
        <ele>1707.0000</ele>
        <time>2018-10-13T20:20:44Z</time>
      </trkpt>
      <trkpt lat="38.01026741" lon="-2.58675833">
        <ele>1708.0000</ele>
        <time>2018-10-13T20:20:54Z</time>
      </trkpt>
      <trkpt lat="38.01013765" lon="-2.58692689">
        <ele>1708.0000</ele>
        <time>2018-10-13T20:20:58Z</time>
      </trkpt>
      <trkpt lat="38.00973683" lon="-2.58743148">
        <ele>1708.0000</ele>
        <time>2018-10-13T20:21:12Z</time>
      </trkpt>
      <trkpt lat="38.00945302" lon="-2.58778553">
        <ele>1709.0000</ele>
        <time>2018-10-13T20:21:22Z</time>
      </trkpt>
      <trkpt lat="38.00923777" lon="-2.58806356">
        <ele>1709.0000</ele>
        <time>2018-10-13T20:21:30Z</time>
      </trkpt>
      <trkpt lat="38.00880535" lon="-2.58853320">
        <ele>1710.0000</ele>
        <time>2018-10-13T20:21:45Z</time>
      </trkpt>
      <trkpt lat="38.00842054" lon="-2.58886453">
        <ele>1711.0000</ele>
        <time>2018-10-13T20:21:57Z</time>
      </trkpt>
      <trkpt lat="38.00796699" lon="-2.58925932">
        <ele>1711.0000</ele>
        <time>2018-10-13T20:22:11Z</time>
      </trkpt>
      <trkpt lat="38.00771109" lon="-2.58949100">
        <ele>1712.0000</ele>
        <time>2018-10-13T20:22:19Z</time>
      </trkpt>
      <trkpt lat="38.00743097" lon="-2.58971932">
        <ele>1713.0000</ele>
        <time>2018-10-13T20:22:27Z</time>
      </trkpt>
      <trkpt lat="38.00729460" lon="-2.58983809">
        <ele>1713.0000</ele>
        <time>2018-10-13T20:22:30Z</time>
      </trkpt>
      <trkpt lat="38.00682554" lon="-2.59027110">
        <ele>1713.0000</ele>
        <time>2018-10-13T20:22:41Z</time>
      </trkpt>
      <trkpt lat="38.00678447" lon="-2.59030546">
        <ele>1713.0000</ele>
        <time>2018-10-13T20:22:42Z</time>
      </trkpt>
      <trkpt lat="38.00644249" lon="-2.59053060">
        <ele>1714.0000</ele>
        <time>2018-10-13T20:22:50Z</time>
      </trkpt>
      <trkpt lat="38.00635348" lon="-2.59056639">
        <ele>1714.0000</ele>
        <time>2018-10-13T20:22:52Z</time>
      </trkpt>
      <trkpt lat="38.00605818" lon="-2.59072531">
        <ele>1714.0000</ele>
        <time>2018-10-13T20:22:59Z</time>
      </trkpt>
      <trkpt lat="38.00553825" lon="-2.59100309">
        <ele>1715.0000</ele>
        <time>2018-10-13T20:23:12Z</time>
      </trkpt>
      <trkpt lat="38.00499686" lon="-2.59119722">
        <ele>1716.0000</ele>
        <time>2018-10-13T20:23:26Z</time>
      </trkpt>
      <trkpt lat="38.00465991" lon="-2.59128673">
        <ele>1717.0000</ele>
        <time>2018-10-13T20:23:35Z</time>
      </trkpt>
      <trkpt lat="38.00451960" lon="-2.59136787">
        <ele>1719.0000</ele>
        <time>2018-10-13T20:23:39Z</time>
      </trkpt>
      <trkpt lat="38.00399062" lon="-2.59158270">
        <ele>1719.0000</ele>
        <time>2018-10-13T20:23:54Z</time>
      </trkpt>
      <trkpt lat="38.00364277" lon="-2.59151749">
        <ele>1719.0000</ele>
        <time>2018-10-13T20:24:03Z</time>
      </trkpt>
      <trkpt lat="38.00330280" lon="-2.59142160">
        <ele>1719.0000</ele>
        <time>2018-10-13T20:24:12Z</time>
      </trkpt>
      <trkpt lat="38.00292033" lon="-2.59133962">
        <ele>1720.0000</ele>
        <time>2018-10-13T20:24:22Z</time>
      </trkpt>
      <trkpt lat="38.00237987" lon="-2.59131263">
        <ele>1721.0000</ele>
        <time>2018-10-13T20:24:35Z</time>
      </trkpt>
      <trkpt lat="38.00195935" lon="-2.59132294">
        <ele>1721.0000</ele>
        <time>2018-10-13T20:24:46Z</time>
      </trkpt>
      <trkpt lat="38.00168844" lon="-2.59129503">
        <ele>1722.0000</ele>
        <time>2018-10-13T20:24:53Z</time>
      </trkpt>
      <trkpt lat="38.00130128" lon="-2.59117936">
        <ele>1722.0000</ele>
        <time>2018-10-13T20:25:04Z</time>
      </trkpt>
      <trkpt lat="38.00107648" lon="-2.59109496">
        <ele>1723.0000</ele>
        <time>2018-10-13T20:25:11Z</time>
      </trkpt>
      <trkpt lat="38.00098964" lon="-2.59105548">
        <ele>1724.0000</ele>
        <time>2018-10-13T20:25:17Z</time>
      </trkpt>
      <trkpt lat="38.00094975" lon="-2.59103813">
        <ele>1726.0000</ele>
        <time>2018-10-13T20:29:08Z</time>
      </trkpt>
      <trkpt lat="38.00092225" lon="-2.59102354">
        <ele>1726.0000</ele>
        <time>2018-10-13T20:29:09Z</time>
      </trkpt>
      <trkpt lat="38.00085922" lon="-2.59099211">
        <ele>1726.0000</ele>
        <time>2018-10-13T20:29:11Z</time>
      </trkpt>
      <trkpt lat="38.00077381" lon="-2.59095607">
        <ele>1726.0000</ele>
        <time>2018-10-13T20:29:14Z</time>
      </trkpt>
      <trkpt lat="38.00024483" lon="-2.59074409">
        <ele>1727.0000</ele>
        <time>2018-10-13T20:29:32Z</time>
      </trkpt>
      <trkpt lat="38.00013134" lon="-2.59070327">
        <ele>1727.0000</ele>
        <time>2018-10-13T20:29:35Z</time>
      </trkpt>
      <trkpt lat="37.99988868" lon="-2.59059975">
        <ele>1726.0000</ele>
        <time>2018-10-13T20:29:40Z</time>
      </trkpt>
      <trkpt lat="37.99955785" lon="-2.59047444">
        <ele>1725.0000</ele>
        <time>2018-10-13T20:29:45Z</time>
      </trkpt>
      <trkpt lat="37.99943220" lon="-2.59042558">
        <ele>1724.0000</ele>
        <time>2018-10-13T20:29:47Z</time>
      </trkpt>
      <trkpt lat="37.99936909" lon="-2.59040035">
        <ele>1723.0000</ele>
        <time>2018-10-13T20:29:48Z</time>
      </trkpt>
      <trkpt lat="37.99924059" lon="-2.59034897">
        <ele>1722.0000</ele>
        <time>2018-10-13T20:29:50Z</time>
      </trkpt>
      <trkpt lat="37.99910858" lon="-2.59030027">
        <ele>1720.0000</ele>
        <time>2018-10-13T20:29:52Z</time>
      </trkpt>
      <trkpt lat="37.99884765" lon="-2.59021704">
        <ele>1719.0000</ele>
        <time>2018-10-13T20:29:56Z</time>
      </trkpt>
      <trkpt lat="37.99865101" lon="-2.59018887">
        <ele>1717.0000</ele>
        <time>2018-10-13T20:29:59Z</time>
      </trkpt>
      <trkpt lat="37.99851883" lon="-2.59018619">
        <ele>1716.0000</ele>
        <time>2018-10-13T20:30:01Z</time>
      </trkpt>
      <trkpt lat="37.99831054" lon="-2.59017647">
        <ele>1715.0000</ele>
        <time>2018-10-13T20:30:04Z</time>
      </trkpt>
      <trkpt lat="37.99810451" lon="-2.59013967">
        <ele>1714.0000</ele>
        <time>2018-10-13T20:30:07Z</time>
      </trkpt>
      <trkpt lat="37.99803645" lon="-2.59011687">
        <ele>1713.0000</ele>
        <time>2018-10-13T20:30:08Z</time>
      </trkpt>
      <trkpt lat="37.99783394" lon="-2.59001009">
        <ele>1711.0000</ele>
        <time>2018-10-13T20:30:11Z</time>
      </trkpt>
      <trkpt lat="37.99771232" lon="-2.58991076">
        <ele>1710.0000</ele>
        <time>2018-10-13T20:30:13Z</time>
      </trkpt>
      <trkpt lat="37.99755088" lon="-2.58973407">
        <ele>1708.0000</ele>
        <time>2018-10-13T20:30:16Z</time>
      </trkpt>
      <trkpt lat="37.99739498" lon="-2.58954246">
        <ele>1707.0000</ele>
        <time>2018-10-13T20:30:19Z</time>
      </trkpt>
      <trkpt lat="37.99724377" lon="-2.58935395">
        <ele>1705.0000</ele>
        <time>2018-10-13T20:30:22Z</time>
      </trkpt>
      <trkpt lat="37.99713992" lon="-2.58923484">
        <ele>1704.0000</ele>
        <time>2018-10-13T20:30:24Z</time>
      </trkpt>
      <trkpt lat="37.99703364" lon="-2.58911331">
        <ele>1703.0000</ele>
        <time>2018-10-13T20:30:26Z</time>
      </trkpt>
      <trkpt lat="37.99687170" lon="-2.58891264">
        <ele>1702.0000</ele>
        <time>2018-10-13T20:30:29Z</time>
      </trkpt>
      <trkpt lat="37.99677086" lon="-2.58876378">
        <ele>1701.0000</ele>
        <time>2018-10-13T20:30:31Z</time>
      </trkpt>
      <trkpt lat="37.99667120" lon="-2.58861509">
        <ele>1700.0000</ele>
        <time>2018-10-13T20:30:33Z</time>
      </trkpt>
      <trkpt lat="37.99653341" lon="-2.58839137">
        <ele>1699.0000</ele>
        <time>2018-10-13T20:30:36Z</time>
      </trkpt>
      <trkpt lat="37.99644774" lon="-2.58823706">
        <ele>1697.0000</ele>
        <time>2018-10-13T20:30:38Z</time>
      </trkpt>
      <trkpt lat="37.99636409" lon="-2.58808091">
        <ele>1696.0000</ele>
        <time>2018-10-13T20:30:40Z</time>
      </trkpt>
      <trkpt lat="37.99632855" lon="-2.58801125">
        <ele>1695.0000</ele>
        <time>2018-10-13T20:30:41Z</time>
      </trkpt>
      <trkpt lat="37.99625110" lon="-2.58783951">
        <ele>1694.0000</ele>
        <time>2018-10-13T20:30:44Z</time>
      </trkpt>
      <trkpt lat="37.99616603" lon="-2.58768486">
        <ele>1694.0000</ele>
        <time>2018-10-13T20:30:47Z</time>
      </trkpt>
      <trkpt lat="37.99602907" lon="-2.58747858">
        <ele>1693.0000</ele>
        <time>2018-10-13T20:30:51Z</time>
      </trkpt>
      <trkpt lat="37.99595128" lon="-2.58742201">
        <ele>1692.0000</ele>
        <time>2018-10-13T20:30:53Z</time>
      </trkpt>
      <trkpt lat="37.99583645" lon="-2.58741597">
        <ele>1691.0000</ele>
        <time>2018-10-13T20:30:56Z</time>
      </trkpt>
      <trkpt lat="37.99580946" lon="-2.58780347">
        <ele>1690.0000</ele>
        <time>2018-10-13T20:31:04Z</time>
      </trkpt>
      <trkpt lat="37.99584550" lon="-2.58786457">
        <ele>1690.0000</ele>
        <time>2018-10-13T20:31:05Z</time>
      </trkpt>
      <trkpt lat="37.99588314" lon="-2.58792534">
        <ele>1690.0000</ele>
        <time>2018-10-13T20:31:06Z</time>
      </trkpt>
      <trkpt lat="37.99603066" lon="-2.58818409">
        <ele>1689.0000</ele>
        <time>2018-10-13T20:31:10Z</time>
      </trkpt>
      <trkpt lat="37.99611867" lon="-2.58839456">
        <ele>1687.0000</ele>
        <time>2018-10-13T20:31:13Z</time>
      </trkpt>
      <trkpt lat="37.99616611" lon="-2.58854803">
        <ele>1686.0000</ele>
        <time>2018-10-13T20:31:15Z</time>
      </trkpt>
      <trkpt lat="37.99624121" lon="-2.58885070">
        <ele>1685.0000</ele>
        <time>2018-10-13T20:31:19Z</time>
      </trkpt>
      <trkpt lat="37.99627063" lon="-2.58900107">
        <ele>1684.0000</ele>
        <time>2018-10-13T20:31:21Z</time>
      </trkpt>
      <trkpt lat="37.99628723" lon="-2.58923459">
        <ele>1682.0000</ele>
        <time>2018-10-13T20:31:24Z</time>
      </trkpt>
      <trkpt lat="37.99628958" lon="-2.58939184">
        <ele>1681.0000</ele>
        <time>2018-10-13T20:31:26Z</time>
      </trkpt>
      <trkpt lat="37.99628371" lon="-2.58964044">
        <ele>1679.0000</ele>
        <time>2018-10-13T20:31:29Z</time>
      </trkpt>
      <trkpt lat="37.99628186" lon="-2.58972217">
        <ele>1679.0000</ele>
        <time>2018-10-13T20:31:30Z</time>
      </trkpt>
      <trkpt lat="37.99628228" lon="-2.58980439">
        <ele>1678.0000</ele>
        <time>2018-10-13T20:31:31Z</time>
      </trkpt>
      <trkpt lat="37.99627600" lon="-2.59006172">
        <ele>1677.0000</ele>
        <time>2018-10-13T20:31:34Z</time>
      </trkpt>
      <trkpt lat="37.99627348" lon="-2.59023916">
        <ele>1676.0000</ele>
        <time>2018-10-13T20:31:36Z</time>
      </trkpt>
      <trkpt lat="37.99630483" lon="-2.59058140">
        <ele>1674.0000</ele>
        <time>2018-10-13T20:31:40Z</time>
      </trkpt>
      <trkpt lat="37.99635169" lon="-2.59079740">
        <ele>1673.0000</ele>
        <time>2018-10-13T20:31:43Z</time>
      </trkpt>
      <trkpt lat="37.99636594" lon="-2.59101273">
        <ele>1671.0000</ele>
        <time>2018-10-13T20:31:46Z</time>
      </trkpt>
      <trkpt lat="37.99635512" lon="-2.59115690">
        <ele>1670.0000</ele>
        <time>2018-10-13T20:31:48Z</time>
      </trkpt>
      <trkpt lat="37.99629611" lon="-2.59154356">
        <ele>1669.0000</ele>
        <time>2018-10-13T20:31:53Z</time>
      </trkpt>
      <trkpt lat="37.99626007" lon="-2.59179250">
        <ele>1667.0000</ele>
        <time>2018-10-13T20:31:56Z</time>
      </trkpt>
      <trkpt lat="37.99622663" lon="-2.59205410">
        <ele>1666.0000</ele>
        <time>2018-10-13T20:31:59Z</time>
      </trkpt>
      <trkpt lat="37.99619620" lon="-2.59227773">
        <ele>1665.0000</ele>
        <time>2018-10-13T20:32:02Z</time>
      </trkpt>
      <trkpt lat="37.99618522" lon="-2.59241754">
        <ele>1664.0000</ele>
        <time>2018-10-13T20:32:04Z</time>
      </trkpt>
      <trkpt lat="37.99617215" lon="-2.59254972">
        <ele>1662.0000</ele>
        <time>2018-10-13T20:32:06Z</time>
      </trkpt>
      <trkpt lat="37.99614239" lon="-2.59273923">
        <ele>1662.0000</ele>
        <time>2018-10-13T20:32:09Z</time>
      </trkpt>
      <trkpt lat="37.99609864" lon="-2.59285432">
        <ele>1661.0000</ele>
        <time>2018-10-13T20:32:11Z</time>
      </trkpt>
      <trkpt lat="37.99594005" lon="-2.59304107">
        <ele>1660.0000</ele>
        <time>2018-10-13T20:32:15Z</time>
      </trkpt>
      <trkpt lat="37.99589093" lon="-2.59307350">
        <ele>1660.0000</ele>
        <time>2018-10-13T20:32:16Z</time>
      </trkpt>
      <trkpt lat="37.99578549" lon="-2.59313545">
        <ele>1659.0000</ele>
        <time>2018-10-13T20:32:18Z</time>
      </trkpt>
      <trkpt lat="37.99572883" lon="-2.59317141">
        <ele>1659.0000</ele>
        <time>2018-10-13T20:32:19Z</time>
      </trkpt>
      <trkpt lat="37.99561534" lon="-2.59325221">
        <ele>1658.0000</ele>
        <time>2018-10-13T20:32:21Z</time>
      </trkpt>
      <trkpt lat="37.99546270" lon="-2.59340032">
        <ele>1656.0000</ele>
        <time>2018-10-13T20:32:24Z</time>
      </trkpt>
      <trkpt lat="37.99534552" lon="-2.59360693">
        <ele>1655.0000</ele>
        <time>2018-10-13T20:32:27Z</time>
      </trkpt>
      <trkpt lat="37.99524888" lon="-2.59380851">
        <ele>1653.0000</ele>
        <time>2018-10-13T20:32:30Z</time>
      </trkpt>
      <trkpt lat="37.99521862" lon="-2.59387004">
        <ele>1653.0000</ele>
        <time>2018-10-13T20:32:31Z</time>
      </trkpt>
      <trkpt lat="37.99518434" lon="-2.59392796">
        <ele>1652.0000</ele>
        <time>2018-10-13T20:32:32Z</time>
      </trkpt>
      <trkpt lat="37.99514687" lon="-2.59397867">
        <ele>1652.0000</ele>
        <time>2018-10-13T20:32:33Z</time>
      </trkpt>
      <trkpt lat="37.99510588" lon="-2.59401689">
        <ele>1651.0000</ele>
        <time>2018-10-13T20:32:34Z</time>
      </trkpt>
      <trkpt lat="37.99501050" lon="-2.59403918">
        <ele>1650.0000</ele>
        <time>2018-10-13T20:32:36Z</time>
      </trkpt>
      <trkpt lat="37.99490673" lon="-2.59399543">
        <ele>1649.0000</ele>
        <time>2018-10-13T20:32:38Z</time>
      </trkpt>
      <trkpt lat="37.99475686" lon="-2.59374867">
        <ele>1647.0000</ele>
        <time>2018-10-13T20:32:42Z</time>
      </trkpt>
      <trkpt lat="37.99467237" lon="-2.59351992">
        <ele>1646.0000</ele>
        <time>2018-10-13T20:32:45Z</time>
      </trkpt>
      <trkpt lat="37.99462200" lon="-2.59336176">
        <ele>1645.0000</ele>
        <time>2018-10-13T20:32:47Z</time>
      </trkpt>
      <trkpt lat="37.99460347" lon="-2.59328540">
        <ele>1644.0000</ele>
        <time>2018-10-13T20:32:48Z</time>
      </trkpt>
      <trkpt lat="37.99458746" lon="-2.59320862">
        <ele>1644.0000</ele>
        <time>2018-10-13T20:32:49Z</time>
      </trkpt>
      <trkpt lat="37.99454907" lon="-2.59304853">
        <ele>1643.0000</ele>
        <time>2018-10-13T20:32:51Z</time>
      </trkpt>
      <trkpt lat="37.99450733" lon="-2.59288206">
        <ele>1641.0000</ele>
        <time>2018-10-13T20:32:53Z</time>
      </trkpt>
      <trkpt lat="37.99449618" lon="-2.59279464">
        <ele>1640.0000</ele>
        <time>2018-10-13T20:32:54Z</time>
      </trkpt>
      <trkpt lat="37.99448001" lon="-2.59253069">
        <ele>1639.0000</ele>
        <time>2018-10-13T20:32:57Z</time>
      </trkpt>
      <trkpt lat="37.99448311" lon="-2.59223263">
        <ele>1638.0000</ele>
        <time>2018-10-13T20:33:01Z</time>
      </trkpt>
      <trkpt lat="37.99455972" lon="-2.59171589">
        <ele>1637.0000</ele>
        <time>2018-10-13T20:33:08Z</time>
      </trkpt>
      <trkpt lat="37.99461789" lon="-2.59158848">
        <ele>1637.0000</ele>
        <time>2018-10-13T20:33:10Z</time>
      </trkpt>
      <trkpt lat="37.99469433" lon="-2.59147549">
        <ele>1636.0000</ele>
        <time>2018-10-13T20:33:12Z</time>
      </trkpt>
      <trkpt lat="37.99482760" lon="-2.59132009">
        <ele>1634.0000</ele>
        <time>2018-10-13T20:33:15Z</time>
      </trkpt>
      <trkpt lat="37.99495903" lon="-2.59117006">
        <ele>1633.0000</ele>
        <time>2018-10-13T20:33:18Z</time>
      </trkpt>
      <trkpt lat="37.99508518" lon="-2.59101139">
        <ele>1632.0000</ele>
        <time>2018-10-13T20:33:21Z</time>
      </trkpt>
      <trkpt lat="37.99514285" lon="-2.59088910">
        <ele>1631.0000</ele>
        <time>2018-10-13T20:33:23Z</time>
      </trkpt>
      <trkpt lat="37.99518836" lon="-2.59076111">
        <ele>1629.0000</ele>
        <time>2018-10-13T20:33:25Z</time>
      </trkpt>
      <trkpt lat="37.99520437" lon="-2.59070805">
        <ele>1628.0000</ele>
        <time>2018-10-13T20:33:26Z</time>
      </trkpt>
      <trkpt lat="37.99522767" lon="-2.59064979">
        <ele>1627.0000</ele>
        <time>2018-10-13T20:33:29Z</time>
      </trkpt>
      <trkpt lat="37.99522801" lon="-2.59065088">
        <ele>1627.0000</ele>
        <time>2018-10-13T20:33:30Z</time>
      </trkpt>
      <trkpt lat="37.99523555" lon="-2.59062674">
        <ele>1627.0000</ele>
        <time>2018-10-13T20:33:48Z</time>
      </trkpt>
      <trkpt lat="37.99526346" lon="-2.59052398">
        <ele>1627.0000</ele>
        <time>2018-10-13T20:33:51Z</time>
      </trkpt>
      <trkpt lat="37.99528735" lon="-2.59034846">
        <ele>1627.0000</ele>
        <time>2018-10-13T20:33:54Z</time>
      </trkpt>
      <trkpt lat="37.99513346" lon="-2.59013506">
        <ele>1625.0000</ele>
        <time>2018-10-13T20:34:00Z</time>
      </trkpt>
      <trkpt lat="37.99505283" lon="-2.59014336">
        <ele>1624.0000</ele>
        <time>2018-10-13T20:34:02Z</time>
      </trkpt>
      <trkpt lat="37.99492936" lon="-2.59034050">
        <ele>1623.0000</ele>
        <time>2018-10-13T20:34:06Z</time>
      </trkpt>
      <trkpt lat="37.99488334" lon="-2.59048534">
        <ele>1622.0000</ele>
        <time>2018-10-13T20:34:08Z</time>
      </trkpt>
      <trkpt lat="37.99483758" lon="-2.59063504">
        <ele>1622.0000</ele>
        <time>2018-10-13T20:34:10Z</time>
      </trkpt>
      <trkpt lat="37.99481369" lon="-2.59070679">
        <ele>1621.0000</ele>
        <time>2018-10-13T20:34:11Z</time>
      </trkpt>
      <trkpt lat="37.99475250" lon="-2.59083889">
        <ele>1620.0000</ele>
        <time>2018-10-13T20:34:13Z</time>
      </trkpt>
      <trkpt lat="37.99466609" lon="-2.59094785">
        <ele>1619.0000</ele>
        <time>2018-10-13T20:34:15Z</time>
      </trkpt>
      <trkpt lat="37.99457447" lon="-2.59101994">
        <ele>1618.0000</ele>
        <time>2018-10-13T20:34:17Z</time>
      </trkpt>
      <trkpt lat="37.99442930" lon="-2.59111549">
        <ele>1617.0000</ele>
        <time>2018-10-13T20:34:20Z</time>
      </trkpt>
      <trkpt lat="37.99437833" lon="-2.59113611">
        <ele>1616.0000</ele>
        <time>2018-10-13T20:34:21Z</time>
      </trkpt>
      <trkpt lat="37.99432670" lon="-2.59113720">
        <ele>1616.0000</ele>
        <time>2018-10-13T20:34:22Z</time>
      </trkpt>
      <trkpt lat="37.99417859" lon="-2.59097116">
        <ele>1614.0000</ele>
        <time>2018-10-13T20:34:26Z</time>
      </trkpt>
      <trkpt lat="37.99418983" lon="-2.59077276">
        <ele>1614.0000</ele>
        <time>2018-10-13T20:34:29Z</time>
      </trkpt>
      <trkpt lat="37.99421874" lon="-2.59072087">
        <ele>1613.0000</ele>
        <time>2018-10-13T20:34:30Z</time>
      </trkpt>
      <trkpt lat="37.99433961" lon="-2.59060914">
        <ele>1612.0000</ele>
        <time>2018-10-13T20:34:33Z</time>
      </trkpt>
      <trkpt lat="37.99438579" lon="-2.59056530">
        <ele>1611.0000</ele>
        <time>2018-10-13T20:34:34Z</time>
      </trkpt>
      <trkpt lat="37.99442963" lon="-2.59051040">
        <ele>1611.0000</ele>
        <time>2018-10-13T20:34:35Z</time>
      </trkpt>
      <trkpt lat="37.99451194" lon="-2.59031066">
        <ele>1609.0000</ele>
        <time>2018-10-13T20:34:38Z</time>
      </trkpt>
      <trkpt lat="37.99452954" lon="-2.59008259">
        <ele>1608.0000</ele>
        <time>2018-10-13T20:34:41Z</time>
      </trkpt>
      <trkpt lat="37.99451286" lon="-2.58992568">
        <ele>1606.0000</ele>
        <time>2018-10-13T20:34:43Z</time>
      </trkpt>
      <trkpt lat="37.99447850" lon="-2.58978855">
        <ele>1605.0000</ele>
        <time>2018-10-13T20:34:45Z</time>
      </trkpt>
      <trkpt lat="37.99445318" lon="-2.58973172">
        <ele>1605.0000</ele>
        <time>2018-10-13T20:34:46Z</time>
      </trkpt>
      <trkpt lat="37.99442100" lon="-2.58967607">
        <ele>1605.0000</ele>
        <time>2018-10-13T20:34:47Z</time>
      </trkpt>
      <trkpt lat="37.99424800" lon="-2.58948605">
        <ele>1604.0000</ele>
        <time>2018-10-13T20:34:51Z</time>
      </trkpt>
      <trkpt lat="37.99419628" lon="-2.58945018">
        <ele>1603.0000</ele>
        <time>2018-10-13T20:34:52Z</time>
      </trkpt>
      <trkpt lat="37.99394415" lon="-2.58923099">
        <ele>1602.0000</ele>
        <time>2018-10-13T20:34:57Z</time>
      </trkpt>
      <trkpt lat="37.99375799" lon="-2.58905447">
        <ele>1602.0000</ele>
        <time>2018-10-13T20:35:01Z</time>
      </trkpt>
      <trkpt lat="37.99364777" lon="-2.58900686">
        <ele>1601.0000</ele>
        <time>2018-10-13T20:35:03Z</time>
      </trkpt>
      <trkpt lat="37.99346873" lon="-2.58901155">
        <ele>1601.0000</ele>
        <time>2018-10-13T20:35:06Z</time>
      </trkpt>
      <trkpt lat="37.99335599" lon="-2.58901733">
        <ele>1600.0000</ele>
        <time>2018-10-13T20:35:08Z</time>
      </trkpt>
      <trkpt lat="37.99318450" lon="-2.58895942">
        <ele>1599.0000</ele>
        <time>2018-10-13T20:35:11Z</time>
      </trkpt>
      <trkpt lat="37.99296691" lon="-2.58875590">
        <ele>1598.0000</ele>
        <time>2018-10-13T20:35:15Z</time>
      </trkpt>
      <trkpt lat="37.99291888" lon="-2.58869270">
        <ele>1597.0000</ele>
        <time>2018-10-13T20:35:16Z</time>
      </trkpt>
      <trkpt lat="37.99286993" lon="-2.58863026">
        <ele>1597.0000</ele>
        <time>2018-10-13T20:35:17Z</time>
      </trkpt>
      <trkpt lat="37.99276633" lon="-2.58851417">
        <ele>1596.0000</ele>
        <time>2018-10-13T20:35:19Z</time>
      </trkpt>
      <trkpt lat="37.99266583" lon="-2.58840361">
        <ele>1594.0000</ele>
        <time>2018-10-13T20:35:21Z</time>
      </trkpt>
      <trkpt lat="37.99256751" lon="-2.58827939">
        <ele>1593.0000</ele>
        <time>2018-10-13T20:35:23Z</time>
      </trkpt>
      <trkpt lat="37.99243457" lon="-2.58807764">
        <ele>1591.0000</ele>
        <time>2018-10-13T20:35:26Z</time>
      </trkpt>
      <trkpt lat="37.99232737" lon="-2.58785795">
        <ele>1590.0000</ele>
        <time>2018-10-13T20:35:29Z</time>
      </trkpt>
      <trkpt lat="37.99227121" lon="-2.58770707">
        <ele>1589.0000</ele>
        <time>2018-10-13T20:35:31Z</time>
      </trkpt>
      <trkpt lat="37.99220759" lon="-2.58753994">
        <ele>1587.0000</ele>
        <time>2018-10-13T20:35:33Z</time>
      </trkpt>
      <trkpt lat="37.99209619" lon="-2.58725353">
        <ele>1586.0000</ele>
        <time>2018-10-13T20:35:36Z</time>
      </trkpt>
      <trkpt lat="37.99200206" lon="-2.58695916">
        <ele>1585.0000</ele>
        <time>2018-10-13T20:35:39Z</time>
      </trkpt>
      <trkpt lat="37.99195814" lon="-2.58677316">
        <ele>1583.0000</ele>
        <time>2018-10-13T20:35:41Z</time>
      </trkpt>
      <trkpt lat="37.99192939" lon="-2.58661114">
        <ele>1581.0000</ele>
        <time>2018-10-13T20:35:43Z</time>
      </trkpt>
      <trkpt lat="37.99191213" lon="-2.58653922">
        <ele>1580.0000</ele>
        <time>2018-10-13T20:35:44Z</time>
      </trkpt>
      <trkpt lat="37.99188815" lon="-2.58648273">
        <ele>1579.0000</ele>
        <time>2018-10-13T20:35:45Z</time>
      </trkpt>
      <trkpt lat="37.99180174" lon="-2.58641316">
        <ele>1578.0000</ele>
        <time>2018-10-13T20:35:47Z</time>
      </trkpt>
      <trkpt lat="37.99154953" lon="-2.58656688">
        <ele>1577.0000</ele>
        <time>2018-10-13T20:35:52Z</time>
      </trkpt>
      <trkpt lat="37.99153050" lon="-2.58663972">
        <ele>1577.0000</ele>
        <time>2018-10-13T20:35:53Z</time>
      </trkpt>
      <trkpt lat="37.99157207" lon="-2.58697039">
        <ele>1576.0000</ele>
        <time>2018-10-13T20:35:57Z</time>
      </trkpt>
      <trkpt lat="37.99159630" lon="-2.58705991">
        <ele>1576.0000</ele>
        <time>2018-10-13T20:35:58Z</time>
      </trkpt>
      <trkpt lat="37.99164189" lon="-2.58723911">
        <ele>1575.0000</ele>
        <time>2018-10-13T20:36:00Z</time>
      </trkpt>
      <trkpt lat="37.99174005" lon="-2.58760834">
        <ele>1573.0000</ele>
        <time>2018-10-13T20:36:04Z</time>
      </trkpt>
      <trkpt lat="37.99178355" lon="-2.58779676">
        <ele>1572.0000</ele>
        <time>2018-10-13T20:36:06Z</time>
      </trkpt>
      <trkpt lat="37.99181766" lon="-2.58797463">
        <ele>1570.0000</ele>
        <time>2018-10-13T20:36:08Z</time>
      </trkpt>
      <trkpt lat="37.99181758" lon="-2.58814671">
        <ele>1569.0000</ele>
        <time>2018-10-13T20:36:10Z</time>
      </trkpt>
      <trkpt lat="37.99178137" lon="-2.58832558">
        <ele>1567.0000</ele>
        <time>2018-10-13T20:36:12Z</time>
      </trkpt>
      <trkpt lat="37.99170493" lon="-2.58850277">
        <ele>1566.0000</ele>
        <time>2018-10-13T20:36:14Z</time>
      </trkpt>
      <trkpt lat="37.99167157" lon="-2.58857888">
        <ele>1566.0000</ele>
        <time>2018-10-13T20:36:15Z</time>
      </trkpt>
      <trkpt lat="37.99164701" lon="-2.58864996">
        <ele>1566.0000</ele>
        <time>2018-10-13T20:36:16Z</time>
      </trkpt>
      <trkpt lat="37.99163703" lon="-2.58888071">
        <ele>1565.0000</ele>
        <time>2018-10-13T20:36:19Z</time>
      </trkpt>
      <trkpt lat="37.99168724" lon="-2.58903661">
        <ele>1564.0000</ele>
        <time>2018-10-13T20:36:21Z</time>
      </trkpt>
      <trkpt lat="37.99186100" lon="-2.58942034">
        <ele>1563.0000</ele>
        <time>2018-10-13T20:36:27Z</time>
      </trkpt>
      <trkpt lat="37.99183024" lon="-2.58955579">
        <ele>1561.0000</ele>
        <time>2018-10-13T20:36:29Z</time>
      </trkpt>
      <trkpt lat="37.99174156" lon="-2.58965972">
        <ele>1560.0000</ele>
        <time>2018-10-13T20:36:31Z</time>
      </trkpt>
      <trkpt lat="37.99157191" lon="-2.58968202">
        <ele>1559.0000</ele>
        <time>2018-10-13T20:36:35Z</time>
      </trkpt>
      <trkpt lat="37.99145364" lon="-2.58958387">
        <ele>1558.0000</ele>
        <time>2018-10-13T20:36:39Z</time>
      </trkpt>
      <trkpt lat="37.99140410" lon="-2.58947951">
        <ele>1557.0000</ele>
        <time>2018-10-13T20:36:41Z</time>
      </trkpt>
      <trkpt lat="37.99131324" lon="-2.58931020">
        <ele>1557.0000</ele>
        <time>2018-10-13T20:36:44Z</time>
      </trkpt>
      <trkpt lat="37.99120704" lon="-2.58912747">
        <ele>1555.0000</ele>
        <time>2018-10-13T20:36:47Z</time>
      </trkpt>
      <trkpt lat="37.99113982" lon="-2.58897727">
        <ele>1554.0000</ele>
        <time>2018-10-13T20:36:49Z</time>
      </trkpt>
      <trkpt lat="37.99113630" lon="-2.58867787">
        <ele>1553.0000</ele>
        <time>2018-10-13T20:36:52Z</time>
      </trkpt>
      <trkpt lat="37.99114946" lon="-2.58857066">
        <ele>1553.0000</ele>
        <time>2018-10-13T20:36:53Z</time>
      </trkpt>
      <trkpt lat="37.99116337" lon="-2.58836681">
        <ele>1552.0000</ele>
        <time>2018-10-13T20:36:55Z</time>
      </trkpt>
      <trkpt lat="37.99111015" lon="-2.58809708">
        <ele>1550.0000</ele>
        <time>2018-10-13T20:36:58Z</time>
      </trkpt>
      <trkpt lat="37.99102088" lon="-2.58795392">
        <ele>1549.0000</ele>
        <time>2018-10-13T20:37:00Z</time>
      </trkpt>
      <trkpt lat="37.99089440" lon="-2.58785124">
        <ele>1548.0000</ele>
        <time>2018-10-13T20:37:02Z</time>
      </trkpt>
      <trkpt lat="37.99082122" lon="-2.58780464">
        <ele>1547.0000</ele>
        <time>2018-10-13T20:37:03Z</time>
      </trkpt>
      <trkpt lat="37.99060405" lon="-2.58766399">
        <ele>1547.0000</ele>
        <time>2018-10-13T20:37:06Z</time>
      </trkpt>
      <trkpt lat="37.99040297" lon="-2.58748906">
        <ele>1545.0000</ele>
        <time>2018-10-13T20:37:09Z</time>
      </trkpt>
      <trkpt lat="37.99027338" lon="-2.58732520">
        <ele>1544.0000</ele>
        <time>2018-10-13T20:37:11Z</time>
      </trkpt>
      <trkpt lat="37.99016023" lon="-2.58717415">
        <ele>1543.0000</ele>
        <time>2018-10-13T20:37:13Z</time>
      </trkpt>
      <trkpt lat="37.99002075" lon="-2.58699973">
        <ele>1541.0000</ele>
        <time>2018-10-13T20:37:16Z</time>
      </trkpt>
      <trkpt lat="37.98997582" lon="-2.58696259">
        <ele>1541.0000</ele>
        <time>2018-10-13T20:37:17Z</time>
      </trkpt>
      <trkpt lat="37.98993266" lon="-2.58693946">
        <ele>1539.0000</ele>
        <time>2018-10-13T20:37:18Z</time>
      </trkpt>
      <trkpt lat="37.98977985" lon="-2.58695891">
        <ele>1538.0000</ele>
        <time>2018-10-13T20:37:21Z</time>
      </trkpt>
      <trkpt lat="37.98973409" lon="-2.58700140">
        <ele>1538.0000</ele>
        <time>2018-10-13T20:37:22Z</time>
      </trkpt>
      <trkpt lat="37.98973090" lon="-2.58740281">
        <ele>1536.0000</ele>
        <time>2018-10-13T20:37:28Z</time>
      </trkpt>
      <trkpt lat="37.98982327" lon="-2.58753784">
        <ele>1535.0000</ele>
        <time>2018-10-13T20:37:30Z</time>
      </trkpt>
      <trkpt lat="37.98993249" lon="-2.58769274">
        <ele>1533.0000</ele>
        <time>2018-10-13T20:37:32Z</time>
      </trkpt>
      <trkpt lat="37.99006358" lon="-2.58785066">
        <ele>1532.0000</ele>
        <time>2018-10-13T20:37:34Z</time>
      </trkpt>
      <trkpt lat="37.99018604" lon="-2.58800178">
        <ele>1531.0000</ele>
        <time>2018-10-13T20:37:36Z</time>
      </trkpt>
      <trkpt lat="37.99030129" lon="-2.58814159">
        <ele>1529.0000</ele>
        <time>2018-10-13T20:37:38Z</time>
      </trkpt>
      <trkpt lat="37.99035955" lon="-2.58821418">
        <ele>1528.0000</ele>
        <time>2018-10-13T20:37:39Z</time>
      </trkpt>
      <trkpt lat="37.99041344" lon="-2.58828224">
        <ele>1527.0000</ele>
        <time>2018-10-13T20:37:40Z</time>
      </trkpt>
      <trkpt lat="37.99046617" lon="-2.58834963">
        <ele>1526.0000</ele>
        <time>2018-10-13T20:37:41Z</time>
      </trkpt>
      <trkpt lat="37.99056440" lon="-2.58848475">
        <ele>1524.0000</ele>
        <time>2018-10-13T20:37:43Z</time>
      </trkpt>
      <trkpt lat="37.99063724" lon="-2.58860771">
        <ele>1523.0000</ele>
        <time>2018-10-13T20:37:45Z</time>
      </trkpt>
      <trkpt lat="37.99066306" lon="-2.58866605">
        <ele>1522.0000</ele>
        <time>2018-10-13T20:37:46Z</time>
      </trkpt>
      <trkpt lat="37.99067362" lon="-2.58873126">
        <ele>1522.0000</ele>
        <time>2018-10-13T20:37:47Z</time>
      </trkpt>
      <trkpt lat="37.99055258" lon="-2.58901365">
        <ele>1521.0000</ele>
        <time>2018-10-13T20:37:52Z</time>
      </trkpt>
      <trkpt lat="37.99031118" lon="-2.58885112">
        <ele>1520.0000</ele>
        <time>2018-10-13T20:37:57Z</time>
      </trkpt>
      <trkpt lat="37.99027548" lon="-2.58877166">
        <ele>1519.0000</ele>
        <time>2018-10-13T20:37:58Z</time>
      </trkpt>
      <trkpt lat="37.99020809" lon="-2.58861316">
        <ele>1518.0000</ele>
        <time>2018-10-13T20:38:00Z</time>
      </trkpt>
      <trkpt lat="37.99013407" lon="-2.58845751">
        <ele>1517.0000</ele>
        <time>2018-10-13T20:38:02Z</time>
      </trkpt>
      <trkpt lat="37.99009133" lon="-2.58839464">
        <ele>1517.0000</ele>
        <time>2018-10-13T20:38:03Z</time>
      </trkpt>
      <trkpt lat="37.99004456" lon="-2.58834536">
        <ele>1516.0000</ele>
        <time>2018-10-13T20:38:04Z</time>
      </trkpt>
      <trkpt lat="37.98998806" lon="-2.58831225">
        <ele>1515.0000</ele>
        <time>2018-10-13T20:38:05Z</time>
      </trkpt>
      <trkpt lat="37.98993065" lon="-2.58827788">
        <ele>1513.0000</ele>
        <time>2018-10-13T20:38:06Z</time>
      </trkpt>
      <trkpt lat="37.98979192" lon="-2.58822700">
        <ele>1512.0000</ele>
        <time>2018-10-13T20:38:08Z</time>
      </trkpt>
      <trkpt lat="37.98954826" lon="-2.58813153">
        <ele>1511.0000</ele>
        <time>2018-10-13T20:38:11Z</time>
      </trkpt>
      <trkpt lat="37.98931592" lon="-2.58799441">
        <ele>1509.0000</ele>
        <time>2018-10-13T20:38:14Z</time>
      </trkpt>
      <trkpt lat="37.98918348" lon="-2.58786952">
        <ele>1508.0000</ele>
        <time>2018-10-13T20:38:16Z</time>
      </trkpt>
      <trkpt lat="37.98907569" lon="-2.58772711">
        <ele>1506.0000</ele>
        <time>2018-10-13T20:38:18Z</time>
      </trkpt>
      <trkpt lat="37.98902951" lon="-2.58765159">
        <ele>1505.0000</ele>
        <time>2018-10-13T20:38:19Z</time>
      </trkpt>
      <trkpt lat="37.98894334" lon="-2.58748504">
        <ele>1503.0000</ele>
        <time>2018-10-13T20:38:21Z</time>
      </trkpt>
      <trkpt lat="37.98887109" lon="-2.58729787">
        <ele>1502.0000</ele>
        <time>2018-10-13T20:38:23Z</time>
      </trkpt>
      <trkpt lat="37.98884167" lon="-2.58720709">
        <ele>1501.0000</ele>
        <time>2018-10-13T20:38:24Z</time>
      </trkpt>
      <trkpt lat="37.98882147" lon="-2.58711632">
        <ele>1500.0000</ele>
        <time>2018-10-13T20:38:25Z</time>
      </trkpt>
      <trkpt lat="37.98881258" lon="-2.58702437">
        <ele>1499.0000</ele>
        <time>2018-10-13T20:38:26Z</time>
      </trkpt>
      <trkpt lat="37.98881242" lon="-2.58683854">
        <ele>1498.0000</ele>
        <time>2018-10-13T20:38:28Z</time>
      </trkpt>
      <trkpt lat="37.98883069" lon="-2.58665850">
        <ele>1497.0000</ele>
        <time>2018-10-13T20:38:30Z</time>
      </trkpt>
      <trkpt lat="37.98883832" lon="-2.58650327">
        <ele>1496.0000</ele>
        <time>2018-10-13T20:38:32Z</time>
      </trkpt>
      <trkpt lat="37.98878761" lon="-2.58639187">
        <ele>1495.0000</ele>
        <time>2018-10-13T20:38:34Z</time>
      </trkpt>
      <trkpt lat="37.98873983" lon="-2.58635792">
        <ele>1495.0000</ele>
        <time>2018-10-13T20:38:35Z</time>
      </trkpt>
      <trkpt lat="37.98864084" lon="-2.58632096">
        <ele>1493.0000</ele>
        <time>2018-10-13T20:38:37Z</time>
      </trkpt>
      <trkpt lat="37.98854545" lon="-2.58636664">
        <ele>1493.0000</ele>
        <time>2018-10-13T20:38:39Z</time>
      </trkpt>
      <trkpt lat="37.98844177" lon="-2.58653696">
        <ele>1492.0000</ele>
        <time>2018-10-13T20:38:42Z</time>
      </trkpt>
      <trkpt lat="37.98843498" lon="-2.58670267">
        <ele>1491.0000</ele>
        <time>2018-10-13T20:38:44Z</time>
      </trkpt>
      <trkpt lat="37.98843783" lon="-2.58678917">
        <ele>1490.0000</ele>
        <time>2018-10-13T20:38:45Z</time>
      </trkpt>
      <trkpt lat="37.98844177" lon="-2.58688028">
        <ele>1489.0000</ele>
        <time>2018-10-13T20:38:46Z</time>
      </trkpt>
      <trkpt lat="37.98844772" lon="-2.58706720">
        <ele>1488.0000</ele>
        <time>2018-10-13T20:38:48Z</time>
      </trkpt>
      <trkpt lat="37.98844470" lon="-2.58725965">
        <ele>1487.0000</ele>
        <time>2018-10-13T20:38:50Z</time>
      </trkpt>
      <trkpt lat="37.98844646" lon="-2.58754857">
        <ele>1485.0000</ele>
        <time>2018-10-13T20:38:53Z</time>
      </trkpt>
      <trkpt lat="37.98847731" lon="-2.58774194">
        <ele>1484.0000</ele>
        <time>2018-10-13T20:38:55Z</time>
      </trkpt>
      <trkpt lat="37.98852148" lon="-2.58793540">
        <ele>1483.0000</ele>
        <time>2018-10-13T20:38:57Z</time>
      </trkpt>
      <trkpt lat="37.98855031" lon="-2.58802844">
        <ele>1481.0000</ele>
        <time>2018-10-13T20:38:58Z</time>
      </trkpt>
      <trkpt lat="37.98862089" lon="-2.58821753">
        <ele>1480.0000</ele>
        <time>2018-10-13T20:39:00Z</time>
      </trkpt>
      <trkpt lat="37.98869884" lon="-2.58840286">
        <ele>1479.0000</ele>
        <time>2018-10-13T20:39:02Z</time>
      </trkpt>
      <trkpt lat="37.98877512" lon="-2.58858768">
        <ele>1478.0000</ele>
        <time>2018-10-13T20:39:04Z</time>
      </trkpt>
      <trkpt lat="37.98884795" lon="-2.58875858">
        <ele>1477.0000</ele>
        <time>2018-10-13T20:39:06Z</time>
      </trkpt>
      <trkpt lat="37.98892021" lon="-2.58891650">
        <ele>1475.0000</ele>
        <time>2018-10-13T20:39:08Z</time>
      </trkpt>
      <trkpt lat="37.98896949" lon="-2.58899311">
        <ele>1474.0000</ele>
        <time>2018-10-13T20:39:09Z</time>
      </trkpt>
      <trkpt lat="37.98902314" lon="-2.58907131">
        <ele>1473.0000</ele>
        <time>2018-10-13T20:39:10Z</time>
      </trkpt>
      <trkpt lat="37.98914333" lon="-2.58919486">
        <ele>1472.0000</ele>
        <time>2018-10-13T20:39:12Z</time>
      </trkpt>
      <trkpt lat="37.98929303" lon="-2.58936242">
        <ele>1471.0000</ele>
        <time>2018-10-13T20:39:15Z</time>
      </trkpt>
      <trkpt lat="37.98933218" lon="-2.58952888">
        <ele>1470.0000</ele>
        <time>2018-10-13T20:39:17Z</time>
      </trkpt>
      <trkpt lat="37.98934718" lon="-2.58973047">
        <ele>1468.0000</ele>
        <time>2018-10-13T20:39:19Z</time>
      </trkpt>
      <trkpt lat="37.98936923" lon="-2.59005317">
        <ele>1467.0000</ele>
        <time>2018-10-13T20:39:22Z</time>
      </trkpt>
      <trkpt lat="37.98939202" lon="-2.59039037">
        <ele>1466.0000</ele>
        <time>2018-10-13T20:39:25Z</time>
      </trkpt>
      <trkpt lat="37.98940770" lon="-2.59063345">
        <ele>1464.0000</ele>
        <time>2018-10-13T20:39:27Z</time>
      </trkpt>
      <trkpt lat="37.98941709" lon="-2.59089354">
        <ele>1463.0000</ele>
        <time>2018-10-13T20:39:29Z</time>
      </trkpt>
      <trkpt lat="37.98942404" lon="-2.59102514">
        <ele>1461.0000</ele>
        <time>2018-10-13T20:39:30Z</time>
      </trkpt>
      <trkpt lat="37.98943703" lon="-2.59127919">
        <ele>1460.0000</ele>
        <time>2018-10-13T20:39:32Z</time>
      </trkpt>
      <trkpt lat="37.98944458" lon="-2.59149201">
        <ele>1458.0000</ele>
        <time>2018-10-13T20:39:34Z</time>
      </trkpt>
      <trkpt lat="37.98945631" lon="-2.59168697">
        <ele>1456.0000</ele>
        <time>2018-10-13T20:39:36Z</time>
      </trkpt>
      <trkpt lat="37.98946612" lon="-2.59177515">
        <ele>1456.0000</ele>
        <time>2018-10-13T20:39:37Z</time>
      </trkpt>
      <trkpt lat="37.98948649" lon="-2.59184991">
        <ele>1455.0000</ele>
        <time>2018-10-13T20:39:38Z</time>
      </trkpt>
      <trkpt lat="37.98956218" lon="-2.59195343">
        <ele>1454.0000</ele>
        <time>2018-10-13T20:39:40Z</time>
      </trkpt>
      <trkpt lat="37.98988186" lon="-2.59215418">
        <ele>1453.0000</ele>
        <time>2018-10-13T20:39:47Z</time>
      </trkpt>
      <trkpt lat="37.98985864" lon="-2.59236825">
        <ele>1452.0000</ele>
        <time>2018-10-13T20:39:50Z</time>
      </trkpt>
      <trkpt lat="37.98977013" lon="-2.59246557">
        <ele>1451.0000</ele>
        <time>2018-10-13T20:39:52Z</time>
      </trkpt>
      <trkpt lat="37.98964030" lon="-2.59250412">
        <ele>1451.0000</ele>
        <time>2018-10-13T20:39:54Z</time>
      </trkpt>
      <trkpt lat="37.98956494" lon="-2.59253597">
        <ele>1450.0000</ele>
        <time>2018-10-13T20:39:55Z</time>
      </trkpt>
      <trkpt lat="37.98923947" lon="-2.59268802">
        <ele>1449.0000</ele>
        <time>2018-10-13T20:39:59Z</time>
      </trkpt>
      <trkpt lat="37.98899422" lon="-2.59273136">
        <ele>1448.0000</ele>
        <time>2018-10-13T20:40:02Z</time>
      </trkpt>
      <trkpt lat="37.98892230" lon="-2.59274938">
        <ele>1446.0000</ele>
        <time>2018-10-13T20:40:03Z</time>
      </trkpt>
      <trkpt lat="37.98880429" lon="-2.59282372">
        <ele>1445.0000</ele>
        <time>2018-10-13T20:40:05Z</time>
      </trkpt>
      <trkpt lat="37.98872642" lon="-2.59294040">
        <ele>1443.0000</ele>
        <time>2018-10-13T20:40:07Z</time>
      </trkpt>
      <trkpt lat="37.98869834" lon="-2.59301131">
        <ele>1442.0000</ele>
        <time>2018-10-13T20:40:08Z</time>
      </trkpt>
      <trkpt lat="37.98865601" lon="-2.59318096">
        <ele>1442.0000</ele>
        <time>2018-10-13T20:40:10Z</time>
      </trkpt>
      <trkpt lat="37.98862986" lon="-2.59348145">
        <ele>1441.0000</ele>
        <time>2018-10-13T20:40:13Z</time>
      </trkpt>
      <trkpt lat="37.98862583" lon="-2.59358011">
        <ele>1441.0000</ele>
        <time>2018-10-13T20:40:14Z</time>
      </trkpt>
      <trkpt lat="37.98861435" lon="-2.59367558">
        <ele>1440.0000</ele>
        <time>2018-10-13T20:40:15Z</time>
      </trkpt>
      <trkpt lat="37.98855283" lon="-2.59384850">
        <ele>1439.0000</ele>
        <time>2018-10-13T20:40:17Z</time>
      </trkpt>
      <trkpt lat="37.98844177" lon="-2.59397649">
        <ele>1437.0000</ele>
        <time>2018-10-13T20:40:19Z</time>
      </trkpt>
      <trkpt lat="37.98829399" lon="-2.59405796">
        <ele>1435.0000</ele>
        <time>2018-10-13T20:40:21Z</time>
      </trkpt>
      <trkpt lat="37.98821277" lon="-2.59409358">
        <ele>1435.0000</ele>
        <time>2018-10-13T20:40:22Z</time>
      </trkpt>
      <trkpt lat="37.98812904" lon="-2.59413189">
        <ele>1434.0000</ele>
        <time>2018-10-13T20:40:23Z</time>
      </trkpt>
      <trkpt lat="37.98788169" lon="-2.59424421">
        <ele>1433.0000</ele>
        <time>2018-10-13T20:40:26Z</time>
      </trkpt>
      <trkpt lat="37.98769921" lon="-2.59427522">
        <ele>1432.0000</ele>
        <time>2018-10-13T20:40:28Z</time>
      </trkpt>
      <trkpt lat="37.98753233" lon="-2.59428092">
        <ele>1430.0000</ele>
        <time>2018-10-13T20:40:30Z</time>
      </trkpt>
      <trkpt lat="37.98746058" lon="-2.59429240">
        <ele>1429.0000</ele>
        <time>2018-10-13T20:40:31Z</time>
      </trkpt>
      <trkpt lat="37.98739244" lon="-2.59431679">
        <ele>1428.0000</ele>
        <time>2018-10-13T20:40:32Z</time>
      </trkpt>
      <trkpt lat="37.98728884" lon="-2.59443271">
        <ele>1427.0000</ele>
        <time>2018-10-13T20:40:34Z</time>
      </trkpt>
      <trkpt lat="37.98722413" lon="-2.59460555">
        <ele>1425.0000</ele>
        <time>2018-10-13T20:40:36Z</time>
      </trkpt>
      <trkpt lat="37.98719940" lon="-2.59469767">
        <ele>1425.0000</ele>
        <time>2018-10-13T20:40:37Z</time>
      </trkpt>
      <trkpt lat="37.98716931" lon="-2.59477964">
        <ele>1424.0000</ele>
        <time>2018-10-13T20:40:38Z</time>
      </trkpt>
      <trkpt lat="37.98709421" lon="-2.59491836">
        <ele>1424.0000</ele>
        <time>2018-10-13T20:40:40Z</time>
      </trkpt>
      <trkpt lat="37.98698499" lon="-2.59501576">
        <ele>1423.0000</ele>
        <time>2018-10-13T20:40:42Z</time>
      </trkpt>
      <trkpt lat="37.98692163" lon="-2.59504862">
        <ele>1422.0000</ele>
        <time>2018-10-13T20:40:43Z</time>
      </trkpt>
      <trkpt lat="37.98683068" lon="-2.59504660">
        <ele>1421.0000</ele>
        <time>2018-10-13T20:40:44Z</time>
      </trkpt>
      <trkpt lat="37.98666749" lon="-2.59505096">
        <ele>1420.0000</ele>
        <time>2018-10-13T20:40:46Z</time>
      </trkpt>
      <trkpt lat="37.98642525" lon="-2.59506706">
        <ele>1419.0000</ele>
        <time>2018-10-13T20:40:49Z</time>
      </trkpt>
      <trkpt lat="37.98618645" lon="-2.59508608">
        <ele>1417.0000</ele>
        <time>2018-10-13T20:40:52Z</time>
      </trkpt>
      <trkpt lat="37.98594622" lon="-2.59510461">
        <ele>1416.0000</ele>
        <time>2018-10-13T20:40:55Z</time>
      </trkpt>
      <trkpt lat="37.98555085" lon="-2.59513562">
        <ele>1415.0000</ele>
        <time>2018-10-13T20:41:00Z</time>
      </trkpt>
      <trkpt lat="37.98529068" lon="-2.59514970">
        <ele>1414.0000</ele>
        <time>2018-10-13T20:41:03Z</time>
      </trkpt>
      <trkpt lat="37.98510435" lon="-2.59516881">
        <ele>1414.0000</ele>
        <time>2018-10-13T20:41:05Z</time>
      </trkpt>
      <trkpt lat="37.98492229" lon="-2.59520787">
        <ele>1414.0000</ele>
        <time>2018-10-13T20:41:07Z</time>
      </trkpt>
      <trkpt lat="37.98465784" lon="-2.59530502">
        <ele>1412.0000</ele>
        <time>2018-10-13T20:41:10Z</time>
      </trkpt>
      <trkpt lat="37.98457545" lon="-2.59534358">
        <ele>1411.0000</ele>
        <time>2018-10-13T20:41:11Z</time>
      </trkpt>
      <trkpt lat="37.98449783" lon="-2.59538305">
        <ele>1410.0000</ele>
        <time>2018-10-13T20:41:12Z</time>
      </trkpt>
      <trkpt lat="37.98434327" lon="-2.59545573">
        <ele>1408.0000</ele>
        <time>2018-10-13T20:41:14Z</time>
      </trkpt>
      <trkpt lat="37.98425886" lon="-2.59548062">
        <ele>1408.0000</ele>
        <time>2018-10-13T20:41:15Z</time>
      </trkpt>
      <trkpt lat="37.98416892" lon="-2.59549621">
        <ele>1407.0000</ele>
        <time>2018-10-13T20:41:16Z</time>
      </trkpt>
      <trkpt lat="37.98398109" lon="-2.59551348">
        <ele>1406.0000</ele>
        <time>2018-10-13T20:41:18Z</time>
      </trkpt>
      <trkpt lat="37.98379442" lon="-2.59552706">
        <ele>1405.0000</ele>
        <time>2018-10-13T20:41:20Z</time>
      </trkpt>
      <trkpt lat="37.98370013" lon="-2.59553502">
        <ele>1405.0000</ele>
        <time>2018-10-13T20:41:21Z</time>
      </trkpt>
      <trkpt lat="37.98350432" lon="-2.59554885">
        <ele>1403.0000</ele>
        <time>2018-10-13T20:41:23Z</time>
      </trkpt>
      <trkpt lat="37.98330676" lon="-2.59556461">
        <ele>1402.0000</ele>
        <time>2018-10-13T20:41:25Z</time>
      </trkpt>
      <trkpt lat="37.98311775" lon="-2.59558045">
        <ele>1400.0000</ele>
        <time>2018-10-13T20:41:27Z</time>
      </trkpt>
      <trkpt lat="37.98294902" lon="-2.59559294">
        <ele>1398.0000</ele>
        <time>2018-10-13T20:41:29Z</time>
      </trkpt>
      <trkpt lat="37.98278365" lon="-2.59557835">
        <ele>1397.0000</ele>
        <time>2018-10-13T20:41:31Z</time>
      </trkpt>
      <trkpt lat="37.98261626" lon="-2.59551574">
        <ele>1396.0000</ele>
        <time>2018-10-13T20:41:33Z</time>
      </trkpt>
      <trkpt lat="37.98247612" lon="-2.59544407">
        <ele>1395.0000</ele>
        <time>2018-10-13T20:41:35Z</time>
      </trkpt>
      <trkpt lat="37.98240956" lon="-2.59541566">
        <ele>1394.0000</ele>
        <time>2018-10-13T20:41:36Z</time>
      </trkpt>
      <trkpt lat="37.98219423" lon="-2.59541331">
        <ele>1393.0000</ele>
        <time>2018-10-13T20:41:39Z</time>
      </trkpt>
      <trkpt lat="37.98203757" lon="-2.59546863">
        <ele>1392.0000</ele>
        <time>2018-10-13T20:41:41Z</time>
      </trkpt>
      <trkpt lat="37.98187463" lon="-2.59554047">
        <ele>1391.0000</ele>
        <time>2018-10-13T20:41:43Z</time>
      </trkpt>
      <trkpt lat="37.98171579" lon="-2.59560844">
        <ele>1391.0000</ele>
        <time>2018-10-13T20:41:45Z</time>
      </trkpt>
      <trkpt lat="37.98148948" lon="-2.59570986">
        <ele>1389.0000</ele>
        <time>2018-10-13T20:41:48Z</time>
      </trkpt>
      <trkpt lat="37.98134372" lon="-2.59580827">
        <ele>1388.0000</ele>
        <time>2018-10-13T20:41:50Z</time>
      </trkpt>
      <trkpt lat="37.98111012" lon="-2.59596794">
        <ele>1387.0000</ele>
        <time>2018-10-13T20:41:53Z</time>
      </trkpt>
      <trkpt lat="37.98086243" lon="-2.59615302">
        <ele>1385.0000</ele>
        <time>2018-10-13T20:41:56Z</time>
      </trkpt>
      <trkpt lat="37.98059765" lon="-2.59635301">
        <ele>1384.0000</ele>
        <time>2018-10-13T20:41:59Z</time>
      </trkpt>
      <trkpt lat="37.98044149" lon="-2.59649181">
        <ele>1382.0000</ele>
        <time>2018-10-13T20:42:01Z</time>
      </trkpt>
      <trkpt lat="37.98029657" lon="-2.59661427">
        <ele>1381.0000</ele>
        <time>2018-10-13T20:42:03Z</time>
      </trkpt>
      <trkpt lat="37.98013798" lon="-2.59670991">
        <ele>1379.0000</ele>
        <time>2018-10-13T20:42:05Z</time>
      </trkpt>
      <trkpt lat="37.97996205" lon="-2.59677143">
        <ele>1378.0000</ele>
        <time>2018-10-13T20:42:07Z</time>
      </trkpt>
      <trkpt lat="37.97973490" lon="-2.59684083">
        <ele>1377.0000</ele>
        <time>2018-10-13T20:42:10Z</time>
      </trkpt>
      <trkpt lat="37.97957170" lon="-2.59700403">
        <ele>1375.0000</ele>
        <time>2018-10-13T20:42:13Z</time>
      </trkpt>
      <trkpt lat="37.97947984" lon="-2.59716840">
        <ele>1374.0000</ele>
        <time>2018-10-13T20:42:15Z</time>
      </trkpt>
      <trkpt lat="37.97944002" lon="-2.59725322">
        <ele>1374.0000</ele>
        <time>2018-10-13T20:42:16Z</time>
      </trkpt>
      <trkpt lat="37.97929460" lon="-2.59755841">
        <ele>1373.0000</ele>
        <time>2018-10-13T20:42:20Z</time>
      </trkpt>
      <trkpt lat="37.97924707" lon="-2.59761842">
        <ele>1373.0000</ele>
        <time>2018-10-13T20:42:21Z</time>
      </trkpt>
      <trkpt lat="37.97919334" lon="-2.59766058">
        <ele>1372.0000</ele>
        <time>2018-10-13T20:42:22Z</time>
      </trkpt>
      <trkpt lat="37.97906150" lon="-2.59767601">
        <ele>1371.0000</ele>
        <time>2018-10-13T20:42:24Z</time>
      </trkpt>
      <trkpt lat="37.97882337" lon="-2.59737552">
        <ele>1370.0000</ele>
        <time>2018-10-13T20:42:29Z</time>
      </trkpt>
      <trkpt lat="37.97890777" lon="-2.59702423">
        <ele>1369.0000</ele>
        <time>2018-10-13T20:42:33Z</time>
      </trkpt>
      <trkpt lat="37.97900341" lon="-2.59686992">
        <ele>1368.0000</ele>
        <time>2018-10-13T20:42:35Z</time>
      </trkpt>
      <trkpt lat="37.97910709" lon="-2.59670622">
        <ele>1367.0000</ele>
        <time>2018-10-13T20:42:37Z</time>
      </trkpt>
      <trkpt lat="37.97927884" lon="-2.59646181">
        <ele>1365.0000</ele>
        <time>2018-10-13T20:42:40Z</time>
      </trkpt>
      <trkpt lat="37.97941504" lon="-2.59630842">
        <ele>1364.0000</ele>
        <time>2018-10-13T20:42:42Z</time>
      </trkpt>
      <trkpt lat="37.97955854" lon="-2.59614757">
        <ele>1363.0000</ele>
        <time>2018-10-13T20:42:44Z</time>
      </trkpt>
      <trkpt lat="37.97970875" lon="-2.59597926">
        <ele>1361.0000</ele>
        <time>2018-10-13T20:42:46Z</time>
      </trkpt>
      <trkpt lat="37.97986809" lon="-2.59580492">
        <ele>1360.0000</ele>
        <time>2018-10-13T20:42:48Z</time>
      </trkpt>
      <trkpt lat="37.97994663" lon="-2.59571791">
        <ele>1359.0000</ele>
        <time>2018-10-13T20:42:49Z</time>
      </trkpt>
      <trkpt lat="37.98009012" lon="-2.59555346">
        <ele>1357.0000</ele>
        <time>2018-10-13T20:42:51Z</time>
      </trkpt>
      <trkpt lat="37.98023161" lon="-2.59539873">
        <ele>1355.0000</ele>
        <time>2018-10-13T20:42:53Z</time>
      </trkpt>
      <trkpt lat="37.98029791" lon="-2.59532027">
        <ele>1354.0000</ele>
        <time>2018-10-13T20:42:54Z</time>
      </trkpt>
      <trkpt lat="37.98041693" lon="-2.59515666">
        <ele>1353.0000</ele>
        <time>2018-10-13T20:42:56Z</time>
      </trkpt>
      <trkpt lat="37.98071776" lon="-2.59464662">
        <ele>1352.0000</ele>
        <time>2018-10-13T20:43:02Z</time>
      </trkpt>
      <trkpt lat="37.98087651" lon="-2.59435518">
        <ele>1351.0000</ele>
        <time>2018-10-13T20:43:06Z</time>
      </trkpt>
      <trkpt lat="37.98060368" lon="-2.59389099">
        <ele>1351.0000</ele>
        <time>2018-10-13T20:43:15Z</time>
      </trkpt>
      <trkpt lat="37.98043554" lon="-2.59399367">
        <ele>1350.0000</ele>
        <time>2018-10-13T20:43:18Z</time>
      </trkpt>
      <trkpt lat="37.98038265" lon="-2.59405100">
        <ele>1349.0000</ele>
        <time>2018-10-13T20:43:19Z</time>
      </trkpt>
      <trkpt lat="37.98027159" lon="-2.59417489">
        <ele>1349.0000</ele>
        <time>2018-10-13T20:43:21Z</time>
      </trkpt>
      <trkpt lat="37.98021359" lon="-2.59423498">
        <ele>1348.0000</ele>
        <time>2018-10-13T20:43:22Z</time>
      </trkpt>
      <trkpt lat="37.98008602" lon="-2.59434211">
        <ele>1346.0000</ele>
        <time>2018-10-13T20:43:24Z</time>
      </trkpt>
      <trkpt lat="37.97993665" lon="-2.59441067">
        <ele>1345.0000</ele>
        <time>2018-10-13T20:43:26Z</time>
      </trkpt>
      <trkpt lat="37.97977077" lon="-2.59445099">
        <ele>1344.0000</ele>
        <time>2018-10-13T20:43:28Z</time>
      </trkpt>
      <trkpt lat="37.97958528" lon="-2.59448041">
        <ele>1343.0000</ele>
        <time>2018-10-13T20:43:30Z</time>
      </trkpt>
      <trkpt lat="37.97929066" lon="-2.59452491">
        <ele>1341.0000</ele>
        <time>2018-10-13T20:43:33Z</time>
      </trkpt>
      <trkpt lat="37.97910307" lon="-2.59456540">
        <ele>1340.0000</ele>
        <time>2018-10-13T20:43:35Z</time>
      </trkpt>
      <trkpt lat="37.97932293" lon="-2.58395693">
        <ele>1307.0000</ele>
        <time>2018-10-13T20:48:55Z</time>
      </trkpt>
      <trkpt lat="37.97930642" lon="-2.58394444">
        <ele>1307.0000</ele>
        <time>2018-10-13T20:48:56Z</time>
      </trkpt>
      <trkpt lat="37.97928940" lon="-2.58393555">
        <ele>1307.0000</ele>
        <time>2018-10-13T20:48:57Z</time>
      </trkpt>
      <trkpt lat="37.97926819" lon="-2.58393019">
        <ele>1307.0000</ele>
        <time>2018-10-13T20:48:58Z</time>
      </trkpt>
      <trkpt lat="37.97923760" lon="-2.58392382">
        <ele>1307.0000</ele>
        <time>2018-10-13T20:49:00Z</time>
      </trkpt>
      <trkpt lat="37.97920910" lon="-2.58392306">
        <ele>1308.0000</ele>
        <time>2018-10-13T20:49:02Z</time>
      </trkpt>
      <trkpt lat="37.97917650" lon="-2.58392298">
        <ele>1308.0000</ele>
        <time>2018-10-13T20:49:04Z</time>
      </trkpt>
      <trkpt lat="37.97915915" lon="-2.58392784">
        <ele>1309.0000</ele>
        <time>2018-10-13T20:49:05Z</time>
      </trkpt>
      <trkpt lat="37.97912143" lon="-2.58394268">
        <ele>1309.0000</ele>
        <time>2018-10-13T20:49:07Z</time>
      </trkpt>
      <trkpt lat="37.97908237" lon="-2.58395877">
        <ele>1309.0000</ele>
        <time>2018-10-13T20:49:09Z</time>
      </trkpt>
      <trkpt lat="37.97905345" lon="-2.58399129">
        <ele>1310.0000</ele>
        <time>2018-10-13T20:49:11Z</time>
      </trkpt>
      <trkpt lat="37.97902545" lon="-2.58402834">
        <ele>1310.0000</ele>
        <time>2018-10-13T20:49:13Z</time>
      </trkpt>
      <trkpt lat="37.97899369" lon="-2.58406128">
        <ele>1310.0000</ele>
        <time>2018-10-13T20:49:15Z</time>
      </trkpt>
      <trkpt lat="37.97897466" lon="-2.58407369">
        <ele>1311.0000</ele>
        <time>2018-10-13T20:49:16Z</time>
      </trkpt>
      <trkpt lat="37.97894801" lon="-2.58410990">
        <ele>1311.0000</ele>
        <time>2018-10-13T20:49:18Z</time>
      </trkpt>
      <trkpt lat="37.97890970" lon="-2.58416832">
        <ele>1312.0000</ele>
        <time>2018-10-13T20:49:21Z</time>
      </trkpt>
      <trkpt lat="37.97886854" lon="-2.58422515">
        <ele>1312.0000</ele>
        <time>2018-10-13T20:49:24Z</time>
      </trkpt>
      <trkpt lat="37.97881733" lon="-2.58428525">
        <ele>1313.0000</ele>
        <time>2018-10-13T20:49:27Z</time>
      </trkpt>
      <trkpt lat="37.97876553" lon="-2.58434057">
        <ele>1314.0000</ele>
        <time>2018-10-13T20:49:30Z</time>
      </trkpt>
      <trkpt lat="37.97870476" lon="-2.58439077">
        <ele>1314.0000</ele>
        <time>2018-10-13T20:49:33Z</time>
      </trkpt>
      <trkpt lat="37.97863343" lon="-2.58441416">
        <ele>1315.0000</ele>
        <time>2018-10-13T20:49:36Z</time>
      </trkpt>
      <trkpt lat="37.97856294" lon="-2.58439589">
        <ele>1315.0000</ele>
        <time>2018-10-13T20:49:39Z</time>
      </trkpt>
      <trkpt lat="37.97850863" lon="-2.58434191">
        <ele>1315.0000</ele>
        <time>2018-10-13T20:49:42Z</time>
      </trkpt>
      <trkpt lat="37.97847636" lon="-2.58426052">
        <ele>1316.0000</ele>
        <time>2018-10-13T20:49:45Z</time>
      </trkpt>
      <trkpt lat="37.97846814" lon="-2.58416270">
        <ele>1316.0000</ele>
        <time>2018-10-13T20:49:48Z</time>
      </trkpt>
      <trkpt lat="37.97847719" lon="-2.58405751">
        <ele>1316.0000</ele>
        <time>2018-10-13T20:49:51Z</time>
      </trkpt>
      <trkpt lat="37.97849848" lon="-2.58384369">
        <ele>1316.0000</ele>
        <time>2018-10-13T20:49:57Z</time>
      </trkpt>
      <trkpt lat="37.97851500" lon="-2.58370866">
        <ele>1316.0000</ele>
        <time>2018-10-13T20:50:01Z</time>
      </trkpt>
      <trkpt lat="37.97851223" lon="-2.58360941">
        <ele>1317.0000</ele>
        <time>2018-10-13T20:50:04Z</time>
      </trkpt>
      <trkpt lat="37.97850192" lon="-2.58347589">
        <ele>1317.0000</ele>
        <time>2018-10-13T20:50:08Z</time>
      </trkpt>
      <trkpt lat="37.97847728" lon="-2.58338277">
        <ele>1318.0000</ele>
        <time>2018-10-13T20:50:11Z</time>
      </trkpt>
      <trkpt lat="37.97843671" lon="-2.58328185">
        <ele>1318.0000</ele>
        <time>2018-10-13T20:50:15Z</time>
      </trkpt>
      <trkpt lat="37.97838424" lon="-2.58319593">
        <ele>1319.0000</ele>
        <time>2018-10-13T20:50:19Z</time>
      </trkpt>
      <trkpt lat="37.97834694" lon="-2.58314346">
        <ele>1320.0000</ele>
        <time>2018-10-13T20:50:22Z</time>
      </trkpt>
      <trkpt lat="37.97831333" lon="-2.58308412">
        <ele>1320.0000</ele>
        <time>2018-10-13T20:50:25Z</time>
      </trkpt>
      <trkpt lat="37.97826505" lon="-2.58299712">
        <ele>1321.0000</ele>
        <time>2018-10-13T20:50:29Z</time>
      </trkpt>
      <trkpt lat="37.97822540" lon="-2.58287725">
        <ele>1322.0000</ele>
        <time>2018-10-13T20:50:34Z</time>
      </trkpt>
      <trkpt lat="37.97817461" lon="-2.58274717">
        <ele>1322.0000</ele>
        <time>2018-10-13T20:50:39Z</time>
      </trkpt>
      <trkpt lat="37.97816170" lon="-2.58272093">
        <ele>1324.0000</ele>
        <time>2018-10-13T20:50:40Z</time>
      </trkpt>
      <trkpt lat="37.97805307" lon="-2.58252614">
        <ele>1325.0000</ele>
        <time>2018-10-13T20:50:48Z</time>
      </trkpt>
      <trkpt lat="37.97797889" lon="-2.58241784">
        <ele>1326.0000</ele>
        <time>2018-10-13T20:50:52Z</time>
      </trkpt>
      <trkpt lat="37.97795995" lon="-2.58239043">
        <ele>1326.0000</ele>
        <time>2018-10-13T20:50:53Z</time>
      </trkpt>
      <trkpt lat="37.97785500" lon="-2.58225557">
        <ele>1325.0000</ele>
        <time>2018-10-13T20:50:58Z</time>
      </trkpt>
      <trkpt lat="37.97770732" lon="-2.58206488">
        <ele>1326.0000</ele>
        <time>2018-10-13T20:51:05Z</time>
      </trkpt>
      <trkpt lat="37.97762149" lon="-2.58192029">
        <ele>1327.0000</ele>
        <time>2018-10-13T20:51:10Z</time>
      </trkpt>
      <trkpt lat="37.97753809" lon="-2.58172374">
        <ele>1328.0000</ele>
        <time>2018-10-13T20:51:16Z</time>
      </trkpt>
      <trkpt lat="37.97748922" lon="-2.58155459">
        <ele>1329.0000</ele>
        <time>2018-10-13T20:51:21Z</time>
      </trkpt>
      <trkpt lat="37.97746256" lon="-2.58140053">
        <ele>1330.0000</ele>
        <time>2018-10-13T20:51:25Z</time>
      </trkpt>
      <trkpt lat="37.97742166" lon="-2.58114572">
        <ele>1330.0000</ele>
        <time>2018-10-13T20:51:31Z</time>
      </trkpt>
      <trkpt lat="37.97740682" lon="-2.58095889">
        <ele>1330.0000</ele>
        <time>2018-10-13T20:51:35Z</time>
      </trkpt>
      <trkpt lat="37.97740825" lon="-2.58084330">
        <ele>1330.0000</ele>
        <time>2018-10-13T20:51:37Z</time>
      </trkpt>
      <trkpt lat="37.97741286" lon="-2.58071288">
        <ele>1330.0000</ele>
        <time>2018-10-13T20:51:39Z</time>
      </trkpt>
      <trkpt lat="37.97742384" lon="-2.58049227">
        <ele>1330.0000</ele>
        <time>2018-10-13T20:51:42Z</time>
      </trkpt>
      <trkpt lat="37.97743096" lon="-2.58033410">
        <ele>1329.0000</ele>
        <time>2018-10-13T20:51:44Z</time>
      </trkpt>
      <trkpt lat="37.97742577" lon="-2.58025271">
        <ele>1329.0000</ele>
        <time>2018-10-13T20:51:45Z</time>
      </trkpt>
      <trkpt lat="37.97738864" lon="-2.58010033">
        <ele>1328.0000</ele>
        <time>2018-10-13T20:51:47Z</time>
      </trkpt>
      <trkpt lat="37.97725461" lon="-2.57997904">
        <ele>1327.0000</ele>
        <time>2018-10-13T20:51:50Z</time>
      </trkpt>
      <trkpt lat="37.97716098" lon="-2.57998474">
        <ele>1327.0000</ele>
        <time>2018-10-13T20:51:52Z</time>
      </trkpt>
      <trkpt lat="37.97709032" lon="-2.58002330">
        <ele>1327.0000</ele>
        <time>2018-10-13T20:51:54Z</time>
      </trkpt>
      <trkpt lat="37.97705948" lon="-2.58004426">
        <ele>1327.0000</ele>
        <time>2018-10-13T20:51:55Z</time>
      </trkpt>
      <trkpt lat="37.97700852" lon="-2.58008876">
        <ele>1327.0000</ele>
        <time>2018-10-13T20:51:57Z</time>
      </trkpt>
      <trkpt lat="37.97693040" lon="-2.58018180">
        <ele>1328.0000</ele>
        <time>2018-10-13T20:52:01Z</time>
      </trkpt>
      <trkpt lat="37.97690089" lon="-2.58022899">
        <ele>1329.0000</ele>
        <time>2018-10-13T20:52:03Z</time>
      </trkpt>
      <trkpt lat="37.97682210" lon="-2.58029278">
        <ele>1330.0000</ele>
        <time>2018-10-13T20:52:07Z</time>
      </trkpt>
      <trkpt lat="37.97675681" lon="-2.58033729">
        <ele>1331.0000</ele>
        <time>2018-10-13T20:52:10Z</time>
      </trkpt>
      <trkpt lat="37.97670761" lon="-2.58036327">
        <ele>1332.0000</ele>
        <time>2018-10-13T20:52:12Z</time>
      </trkpt>
      <trkpt lat="37.97662915" lon="-2.58038666">
        <ele>1332.0000</ele>
        <time>2018-10-13T20:52:15Z</time>
      </trkpt>
      <trkpt lat="37.97657777" lon="-2.58039345">
        <ele>1333.0000</ele>
        <time>2018-10-13T20:52:17Z</time>
      </trkpt>
      <trkpt lat="37.97645330" lon="-2.58041381">
        <ele>1334.0000</ele>
        <time>2018-10-13T20:52:22Z</time>
      </trkpt>
      <trkpt lat="37.97635121" lon="-2.58043041">
        <ele>1335.0000</ele>
        <time>2018-10-13T20:52:26Z</time>
      </trkpt>
      <trkpt lat="37.97625976" lon="-2.58044122">
        <ele>1336.0000</ele>
        <time>2018-10-13T20:52:30Z</time>
      </trkpt>
      <trkpt lat="37.97617142" lon="-2.58045690">
        <ele>1337.0000</ele>
        <time>2018-10-13T20:52:34Z</time>
      </trkpt>
      <trkpt lat="37.97609020" lon="-2.58047207">
        <ele>1338.0000</ele>
        <time>2018-10-13T20:52:38Z</time>
      </trkpt>
      <trkpt lat="37.97599397" lon="-2.58051012">
        <ele>1339.0000</ele>
        <time>2018-10-13T20:52:43Z</time>
      </trkpt>
      <trkpt lat="37.97588090" lon="-2.58052538">
        <ele>1340.0000</ele>
        <time>2018-10-13T20:52:49Z</time>
      </trkpt>
      <trkpt lat="37.97582600" lon="-2.58050518">
        <ele>1341.0000</ele>
        <time>2018-10-13T20:52:52Z</time>
      </trkpt>
      <trkpt lat="37.97578928" lon="-2.58050057">
        <ele>1342.0000</ele>
        <time>2018-10-13T20:52:54Z</time>
      </trkpt>
      <trkpt lat="37.97573950" lon="-2.58040686">
        <ele>1343.0000</ele>
        <time>2018-10-13T20:52:59Z</time>
      </trkpt>
      <trkpt lat="37.97574771" lon="-2.58031315">
        <ele>1344.0000</ele>
        <time>2018-10-13T20:53:03Z</time>
      </trkpt>
      <trkpt lat="37.97580328" lon="-2.58023318">
        <ele>1345.0000</ele>
        <time>2018-10-13T20:53:08Z</time>
      </trkpt>
      <trkpt lat="37.97583824" lon="-2.58021835">
        <ele>1346.0000</ele>
        <time>2018-10-13T20:53:10Z</time>
      </trkpt>
      <trkpt lat="37.97592272" lon="-2.58020544">
        <ele>1346.0000</ele>
        <time>2018-10-13T20:53:14Z</time>
      </trkpt>
      <trkpt lat="37.97609003" lon="-2.58017979">
        <ele>1347.0000</ele>
        <time>2018-10-13T20:53:22Z</time>
      </trkpt>
      <trkpt lat="37.97614560" lon="-2.58016185">
        <ele>1347.0000</ele>
        <time>2018-10-13T20:53:25Z</time>
      </trkpt>
      <trkpt lat="37.97623587" lon="-2.58010888">
        <ele>1348.0000</ele>
        <time>2018-10-13T20:53:30Z</time>
      </trkpt>
      <trkpt lat="37.97629161" lon="-2.58007954">
        <ele>1348.0000</ele>
        <time>2018-10-13T20:53:33Z</time>
      </trkpt>
      <trkpt lat="37.97641231" lon="-2.57998810">
        <ele>1349.0000</ele>
        <time>2018-10-13T20:53:40Z</time>
      </trkpt>
      <trkpt lat="37.97651340" lon="-2.57985591">
        <ele>1350.0000</ele>
        <time>2018-10-13T20:53:47Z</time>
      </trkpt>
      <trkpt lat="37.97662479" lon="-2.57970688">
        <ele>1352.0000</ele>
        <time>2018-10-13T20:53:55Z</time>
      </trkpt>
      <trkpt lat="37.97673300" lon="-2.57956691">
        <ele>1353.0000</ele>
        <time>2018-10-13T20:54:03Z</time>
      </trkpt>
      <trkpt lat="37.97681380" lon="-2.57943833">
        <ele>1353.0000</ele>
        <time>2018-10-13T20:54:10Z</time>
      </trkpt>
      <trkpt lat="37.97682604" lon="-2.57942123">
        <ele>1354.0000</ele>
        <time>2018-10-13T20:54:11Z</time>
      </trkpt>
      <trkpt lat="37.97688974" lon="-2.57927714">
        <ele>1355.0000</ele>
        <time>2018-10-13T20:54:18Z</time>
      </trkpt>
      <trkpt lat="37.97694917" lon="-2.57899166">
        <ele>1356.0000</ele>
        <time>2018-10-13T20:54:30Z</time>
      </trkpt>
      <trkpt lat="37.97694699" lon="-2.57886651">
        <ele>1357.0000</ele>
        <time>2018-10-13T20:54:35Z</time>
      </trkpt>
      <trkpt lat="37.97691430" lon="-2.57875118">
        <ele>1358.0000</ele>
        <time>2018-10-13T20:54:40Z</time>
      </trkpt>
      <trkpt lat="37.97683007" lon="-2.57859058">
        <ele>1359.0000</ele>
        <time>2018-10-13T20:54:48Z</time>
      </trkpt>
      <trkpt lat="37.97679746" lon="-2.57846066">
        <ele>1360.0000</ele>
        <time>2018-10-13T20:54:54Z</time>
      </trkpt>
      <trkpt lat="37.97687206" lon="-2.57829470">
        <ele>1361.0000</ele>
        <time>2018-10-13T20:55:02Z</time>
      </trkpt>
      <trkpt lat="37.97700667" lon="-2.57820895">
        <ele>1362.0000</ele>
        <time>2018-10-13T20:55:10Z</time>
      </trkpt>
      <trkpt lat="37.97714447" lon="-2.57804928">
        <ele>1363.0000</ele>
        <time>2018-10-13T20:55:19Z</time>
      </trkpt>
      <trkpt lat="37.97715864" lon="-2.57802279">
        <ele>1363.0000</ele>
        <time>2018-10-13T20:55:20Z</time>
      </trkpt>
      <trkpt lat="37.97727196" lon="-2.57779296">
        <ele>1364.0000</ele>
        <time>2018-10-13T20:55:28Z</time>
      </trkpt>
      <trkpt lat="37.97736139" lon="-2.57759825">
        <ele>1365.0000</ele>
        <time>2018-10-13T20:55:35Z</time>
      </trkpt>
      <trkpt lat="37.97741336" lon="-2.57747436">
        <ele>1366.0000</ele>
        <time>2018-10-13T20:55:40Z</time>
      </trkpt>
      <trkpt lat="37.97748452" lon="-2.57733690">
        <ele>1367.0000</ele>
        <time>2018-10-13T20:55:46Z</time>
      </trkpt>
      <trkpt lat="37.97754613" lon="-2.57719181">
        <ele>1368.0000</ele>
        <time>2018-10-13T20:55:52Z</time>
      </trkpt>
      <trkpt lat="37.97763330" lon="-2.57703356">
        <ele>1369.0000</ele>
        <time>2018-10-13T20:55:59Z</time>
      </trkpt>
      <trkpt lat="37.97773037" lon="-2.57688646">
        <ele>1371.0000</ele>
        <time>2018-10-13T20:56:06Z</time>
      </trkpt>
      <trkpt lat="37.97785006" lon="-2.57672469">
        <ele>1372.0000</ele>
        <time>2018-10-13T20:56:14Z</time>
      </trkpt>
      <trkpt lat="37.97797797" lon="-2.57657934">
        <ele>1373.0000</ele>
        <time>2018-10-13T20:56:22Z</time>
      </trkpt>
      <trkpt lat="37.97801946" lon="-2.57651883">
        <ele>1373.0000</ele>
        <time>2018-10-13T20:56:25Z</time>
      </trkpt>
      <trkpt lat="37.97804469" lon="-2.57647465">
        <ele>1374.0000</ele>
        <time>2018-10-13T20:56:27Z</time>
      </trkpt>
      <trkpt lat="37.97815223" lon="-2.57633225">
        <ele>1375.0000</ele>
        <time>2018-10-13T20:56:34Z</time>
      </trkpt>
      <trkpt lat="37.97828290" lon="-2.57613510">
        <ele>1376.0000</ele>
        <time>2018-10-13T20:56:43Z</time>
      </trkpt>
      <trkpt lat="37.97842405" lon="-2.57593033">
        <ele>1377.0000</ele>
        <time>2018-10-13T20:56:52Z</time>
      </trkpt>
      <trkpt lat="37.97856487" lon="-2.57574057">
        <ele>1378.0000</ele>
        <time>2018-10-13T20:57:00Z</time>
      </trkpt>
      <trkpt lat="37.97863435" lon="-2.57560537">
        <ele>1378.0000</ele>
        <time>2018-10-13T20:57:04Z</time>
      </trkpt>
      <trkpt lat="37.97864282" lon="-2.57532533">
        <ele>1379.0000</ele>
        <time>2018-10-13T20:57:11Z</time>
      </trkpt>
      <trkpt lat="37.97855531" lon="-2.57509927">
        <ele>1380.0000</ele>
        <time>2018-10-13T20:57:18Z</time>
      </trkpt>
      <trkpt lat="37.97847594" lon="-2.57493364">
        <ele>1381.0000</ele>
        <time>2018-10-13T20:57:24Z</time>
      </trkpt>
      <trkpt lat="37.97838843" lon="-2.57480272">
        <ele>1382.0000</ele>
        <time>2018-10-13T20:57:30Z</time>
      </trkpt>
      <trkpt lat="37.97832707" lon="-2.57472066">
        <ele>1383.0000</ele>
        <time>2018-10-13T20:57:34Z</time>
      </trkpt>
      <trkpt lat="37.97830880" lon="-2.57470272">
        <ele>1383.0000</ele>
        <time>2018-10-13T20:57:35Z</time>
      </trkpt>
      <trkpt lat="37.97816857" lon="-2.57451220">
        <ele>1384.0000</ele>
        <time>2018-10-13T20:57:42Z</time>
      </trkpt>
      <trkpt lat="37.97809246" lon="-2.57439292">
        <ele>1385.0000</ele>
        <time>2018-10-13T20:57:47Z</time>
      </trkpt>
      <trkpt lat="37.97799448" lon="-2.57425890">
        <ele>1386.0000</ele>
        <time>2018-10-13T20:57:53Z</time>
      </trkpt>
      <trkpt lat="37.97791427" lon="-2.57407181">
        <ele>1387.0000</ele>
        <time>2018-10-13T20:57:59Z</time>
      </trkpt>
      <trkpt lat="37.97784394" lon="-2.57390149">
        <ele>1389.0000</ele>
        <time>2018-10-13T20:58:05Z</time>
      </trkpt>
      <trkpt lat="37.97781142" lon="-2.57375204">
        <ele>1390.0000</ele>
        <time>2018-10-13T20:58:10Z</time>
      </trkpt>
      <trkpt lat="37.97778862" lon="-2.57357401">
        <ele>1391.0000</ele>
        <time>2018-10-13T20:58:16Z</time>
      </trkpt>
      <trkpt lat="37.97777739" lon="-2.57338458">
        <ele>1392.0000</ele>
        <time>2018-10-13T20:58:23Z</time>
      </trkpt>
      <trkpt lat="37.97780849" lon="-2.57319088">
        <ele>1393.0000</ele>
        <time>2018-10-13T20:58:30Z</time>
      </trkpt>
      <trkpt lat="37.97786163" lon="-2.57298300">
        <ele>1394.0000</ele>
        <time>2018-10-13T20:58:37Z</time>
      </trkpt>
      <trkpt lat="37.97786431" lon="-2.57295459">
        <ele>1394.0000</ele>
        <time>2018-10-13T20:58:38Z</time>
      </trkpt>
      <trkpt lat="37.97792240" lon="-2.57273783">
        <ele>1395.0000</ele>
        <time>2018-10-13T20:58:46Z</time>
      </trkpt>
      <trkpt lat="37.97796548" lon="-2.57255662">
        <ele>1396.0000</ele>
        <time>2018-10-13T20:58:53Z</time>
      </trkpt>
      <trkpt lat="37.97799649" lon="-2.57240046">
        <ele>1397.0000</ele>
        <time>2018-10-13T20:58:59Z</time>
      </trkpt>
      <trkpt lat="37.97801007" lon="-2.57212143">
        <ele>1398.0000</ele>
        <time>2018-10-13T20:59:09Z</time>
      </trkpt>
      <trkpt lat="37.97796372" lon="-2.57189495">
        <ele>1399.0000</ele>
        <time>2018-10-13T20:59:17Z</time>
      </trkpt>
      <trkpt lat="37.97788862" lon="-2.57154618">
        <ele>1400.0000</ele>
        <time>2018-10-13T20:59:29Z</time>
      </trkpt>
      <trkpt lat="37.97784193" lon="-2.57129120">
        <ele>1401.0000</ele>
        <time>2018-10-13T20:59:38Z</time>
      </trkpt>
      <trkpt lat="37.97779683" lon="-2.57106916">
        <ele>1403.0000</ele>
        <time>2018-10-13T20:59:46Z</time>
      </trkpt>
      <trkpt lat="37.97774839" lon="-2.57084880">
        <ele>1404.0000</ele>
        <time>2018-10-13T20:59:54Z</time>
      </trkpt>
      <trkpt lat="37.97774093" lon="-2.57081612">
        <ele>1404.0000</ele>
        <time>2018-10-13T20:59:55Z</time>
      </trkpt>
      <trkpt lat="37.97769659" lon="-2.57061042">
        <ele>1405.0000</ele>
        <time>2018-10-13T21:00:02Z</time>
      </trkpt>
      <trkpt lat="37.97766759" lon="-2.57045720">
        <ele>1406.0000</ele>
        <time>2018-10-13T21:00:08Z</time>
      </trkpt>
      <trkpt lat="37.97764764" lon="-2.57031949">
        <ele>1407.0000</ele>
        <time>2018-10-13T21:00:14Z</time>
      </trkpt>
      <trkpt lat="37.97761025" lon="-2.57015747">
        <ele>1408.0000</ele>
        <time>2018-10-13T21:00:21Z</time>
      </trkpt>
      <trkpt lat="37.97757153" lon="-2.56997633">
        <ele>1409.0000</ele>
        <time>2018-10-13T21:00:29Z</time>
      </trkpt>
      <trkpt lat="37.97754580" lon="-2.56983091">
        <ele>1410.0000</ele>
        <time>2018-10-13T21:00:35Z</time>
      </trkpt>
      <trkpt lat="37.97749073" lon="-2.56964785">
        <ele>1411.0000</ele>
        <time>2018-10-13T21:00:43Z</time>
      </trkpt>
      <trkpt lat="37.97741236" lon="-2.56950334">
        <ele>1412.0000</ele>
        <time>2018-10-13T21:00:50Z</time>
      </trkpt>
      <trkpt lat="37.97734740" lon="-2.56940050">
        <ele>1413.0000</ele>
        <time>2018-10-13T21:00:55Z</time>
      </trkpt>
      <trkpt lat="37.97720616" lon="-2.56925247">
        <ele>1414.0000</ele>
        <time>2018-10-13T21:01:04Z</time>
      </trkpt>
      <trkpt lat="37.97700424" lon="-2.56903697">
        <ele>1415.0000</ele>
        <time>2018-10-13T21:01:17Z</time>
      </trkpt>
      <trkpt lat="37.97698748" lon="-2.56902365">
        <ele>1415.0000</ele>
        <time>2018-10-13T21:01:18Z</time>
      </trkpt>
      <trkpt lat="37.97691045" lon="-2.56892683">
        <ele>1416.0000</ele>
        <time>2018-10-13T21:01:24Z</time>
      </trkpt>
      <trkpt lat="37.97684725" lon="-2.56887034">
        <ele>1417.0000</ele>
        <time>2018-10-13T21:01:28Z</time>
      </trkpt>
      <trkpt lat="37.97680023" lon="-2.56881636">
        <ele>1418.0000</ele>
        <time>2018-10-13T21:01:31Z</time>
      </trkpt>
      <trkpt lat="37.97668464" lon="-2.56870446">
        <ele>1419.0000</ele>
        <time>2018-10-13T21:01:38Z</time>
      </trkpt>
      <trkpt lat="37.97662781" lon="-2.56862048">
        <ele>1420.0000</ele>
        <time>2018-10-13T21:01:43Z</time>
      </trkpt>
      <trkpt lat="37.97658280" lon="-2.56855954">
        <ele>1421.0000</ele>
        <time>2018-10-13T21:01:47Z</time>
      </trkpt>
      <trkpt lat="37.97656872" lon="-2.56851344">
        <ele>1421.0000</ele>
        <time>2018-10-13T21:01:49Z</time>
      </trkpt>
      <trkpt lat="37.97653402" lon="-2.56837807">
        <ele>1422.0000</ele>
        <time>2018-10-13T21:01:55Z</time>
      </trkpt>
      <trkpt lat="37.97653385" lon="-2.56835703">
        <ele>1422.0000</ele>
        <time>2018-10-13T21:01:56Z</time>
      </trkpt>
      <trkpt lat="37.97653905" lon="-2.56826659">
        <ele>1423.0000</ele>
        <time>2018-10-13T21:02:00Z</time>
      </trkpt>
      <trkpt lat="37.97654885" lon="-2.56820079">
        <ele>1423.0000</ele>
        <time>2018-10-13T21:02:03Z</time>
      </trkpt>
      <trkpt lat="37.97660702" lon="-2.56803114">
        <ele>1424.0000</ele>
        <time>2018-10-13T21:02:11Z</time>
      </trkpt>
      <trkpt lat="37.97668799" lon="-2.56780433">
        <ele>1425.0000</ele>
        <time>2018-10-13T21:02:22Z</time>
      </trkpt>
      <trkpt lat="37.97676846" lon="-2.56763719">
        <ele>1426.0000</ele>
        <time>2018-10-13T21:02:31Z</time>
      </trkpt>
      <trkpt lat="37.97687357" lon="-2.56748557">
        <ele>1427.0000</ele>
        <time>2018-10-13T21:02:40Z</time>
      </trkpt>
      <trkpt lat="37.97698949" lon="-2.56737132">
        <ele>1428.0000</ele>
        <time>2018-10-13T21:02:49Z</time>
      </trkpt>
      <trkpt lat="37.97699200" lon="-2.56737015">
        <ele>1429.0000</ele>
        <time>2018-10-13T21:02:51Z</time>
      </trkpt>
      <trkpt lat="37.97701799" lon="-2.56735481">
        <ele>1430.0000</ele>
        <time>2018-10-13T21:04:31Z</time>
      </trkpt>
      <trkpt lat="37.97703014" lon="-2.56734592">
        <ele>1430.0000</ele>
        <time>2018-10-13T21:04:32Z</time>
      </trkpt>
      <trkpt lat="37.97705805" lon="-2.56732572">
        <ele>1430.0000</ele>
        <time>2018-10-13T21:04:34Z</time>
      </trkpt>
      <trkpt lat="37.97724916" lon="-2.56718390">
        <ele>1430.0000</ele>
        <time>2018-10-13T21:04:45Z</time>
      </trkpt>
      <trkpt lat="37.97733709" lon="-2.56711659">
        <ele>1430.0000</ele>
        <time>2018-10-13T21:04:49Z</time>
      </trkpt>
      <trkpt lat="37.97745997" lon="-2.56702532">
        <ele>1431.0000</ele>
        <time>2018-10-13T21:04:55Z</time>
      </trkpt>
      <trkpt lat="37.97757564" lon="-2.56693102">
        <ele>1432.0000</ele>
        <time>2018-10-13T21:05:01Z</time>
      </trkpt>
      <trkpt lat="37.97770312" lon="-2.56684686">
        <ele>1432.0000</ele>
        <time>2018-10-13T21:05:07Z</time>
      </trkpt>
      <trkpt lat="37.97781276" lon="-2.56679297">
        <ele>1433.0000</ele>
        <time>2018-10-13T21:05:11Z</time>
      </trkpt>
      <trkpt lat="37.97805340" lon="-2.56667386">
        <ele>1433.0000</ele>
        <time>2018-10-13T21:05:19Z</time>
      </trkpt>
      <trkpt lat="37.97832246" lon="-2.56649767">
        <ele>1432.0000</ele>
        <time>2018-10-13T21:05:26Z</time>
      </trkpt>
      <trkpt lat="37.97839974" lon="-2.56641922">
        <ele>1432.0000</ele>
        <time>2018-10-13T21:05:28Z</time>
      </trkpt>
      <trkpt lat="37.97843587" lon="-2.56637622">
        <ele>1432.0000</ele>
        <time>2018-10-13T21:05:29Z</time>
      </trkpt>
      <trkpt lat="37.97850418" lon="-2.56628628">
        <ele>1431.0000</ele>
        <time>2018-10-13T21:05:31Z</time>
      </trkpt>
      <trkpt lat="37.97864031" lon="-2.56610934">
        <ele>1430.0000</ele>
        <time>2018-10-13T21:05:35Z</time>
      </trkpt>
      <trkpt lat="37.97877701" lon="-2.56594086">
        <ele>1430.0000</ele>
        <time>2018-10-13T21:05:39Z</time>
      </trkpt>
      <trkpt lat="37.97903115" lon="-2.56561607">
        <ele>1430.0000</ele>
        <time>2018-10-13T21:05:47Z</time>
      </trkpt>
      <trkpt lat="37.97916853" lon="-2.56544197">
        <ele>1430.0000</ele>
        <time>2018-10-13T21:05:52Z</time>
      </trkpt>
      <trkpt lat="37.97922503" lon="-2.56482180">
        <ele>1430.0000</ele>
        <time>2018-10-13T21:06:06Z</time>
      </trkpt>
      <trkpt lat="37.97914867" lon="-2.56453966">
        <ele>1430.0000</ele>
        <time>2018-10-13T21:06:12Z</time>
      </trkpt>
      <trkpt lat="37.97911279" lon="-2.56440253">
        <ele>1430.0000</ele>
        <time>2018-10-13T21:06:15Z</time>
      </trkpt>
      <trkpt lat="37.97895044" lon="-2.56373014">
        <ele>1430.0000</ele>
        <time>2018-10-13T21:06:29Z</time>
      </trkpt>
      <trkpt lat="37.97896728" lon="-2.56346569">
        <ele>1429.0000</ele>
        <time>2018-10-13T21:06:34Z</time>
      </trkpt>
      <trkpt lat="37.97898631" lon="-2.56322437">
        <ele>1429.0000</ele>
        <time>2018-10-13T21:06:38Z</time>
      </trkpt>
      <trkpt lat="37.97904197" lon="-2.56285951">
        <ele>1428.0000</ele>
        <time>2018-10-13T21:06:44Z</time>
      </trkpt>
      <trkpt lat="37.97933206" lon="-2.56257863">
        <ele>1427.0000</ele>
        <time>2018-10-13T21:06:51Z</time>
      </trkpt>
      <trkpt lat="37.97958914" lon="-2.56244704">
        <ele>1427.0000</ele>
        <time>2018-10-13T21:06:55Z</time>
      </trkpt>
      <trkpt lat="37.97964496" lon="-2.56241041">
        <ele>1426.0000</ele>
        <time>2018-10-13T21:06:56Z</time>
      </trkpt>
      <trkpt lat="37.97973657" lon="-2.56234033">
        <ele>1425.0000</ele>
        <time>2018-10-13T21:06:58Z</time>
      </trkpt>
      <trkpt lat="37.97978108" lon="-2.56227722">
        <ele>1424.0000</ele>
        <time>2018-10-13T21:07:00Z</time>
      </trkpt>
      <trkpt lat="37.97978033" lon="-2.56224260">
        <ele>1424.0000</ele>
        <time>2018-10-13T21:07:01Z</time>
      </trkpt>
      <trkpt lat="37.97981075" lon="-2.56184404">
        <ele>1424.0000</ele>
        <time>2018-10-13T21:07:12Z</time>
      </trkpt>
      <trkpt lat="37.97984152" lon="-2.56181571">
        <ele>1424.0000</ele>
        <time>2018-10-13T21:07:14Z</time>
      </trkpt>
      <trkpt lat="37.97987446" lon="-2.56179526">
        <ele>1424.0000</ele>
        <time>2018-10-13T21:07:16Z</time>
      </trkpt>
      <trkpt lat="37.97988829" lon="-2.56177766">
        <ele>1424.0000</ele>
        <time>2018-10-13T21:07:17Z</time>
      </trkpt>
      <trkpt lat="37.97989390" lon="-2.56169568">
        <ele>1424.0000</ele>
        <time>2018-10-13T21:07:20Z</time>
      </trkpt>
      <trkpt lat="37.97991611" lon="-2.56145135">
        <ele>1425.0000</ele>
        <time>2018-10-13T21:07:28Z</time>
      </trkpt>
      <trkpt lat="37.98001603" lon="-2.56126695">
        <ele>1426.0000</ele>
        <time>2018-10-13T21:07:38Z</time>
      </trkpt>
      <trkpt lat="37.98001443" lon="-2.56130919">
        <ele>1426.0000</ele>
        <time>2018-10-13T21:07:42Z</time>
      </trkpt>
      <trkpt lat="37.97994562" lon="-2.56139167">
        <ele>1426.0000</ele>
        <time>2018-10-13T21:07:46Z</time>
      </trkpt>
      <trkpt lat="37.97989021" lon="-2.56163642">
        <ele>1426.0000</ele>
        <time>2018-10-13T21:07:54Z</time>
      </trkpt>
      <trkpt lat="37.97991025" lon="-2.56167875">
        <ele>1425.0000</ele>
        <time>2018-10-13T21:07:56Z</time>
      </trkpt>
      <trkpt lat="37.97996951" lon="-2.56167448">
        <ele>1425.0000</ele>
        <time>2018-10-13T21:08:01Z</time>
      </trkpt>
      <trkpt lat="37.97998049" lon="-2.56167381">
        <ele>1425.0000</ele>
        <time>2018-10-13T21:08:03Z</time>
      </trkpt>
      <trkpt lat="37.97907390" lon="-2.56286764">
        <ele>1461.0000</ele>
        <time>2018-10-14T09:03:12Z</time>
      </trkpt>
      <trkpt lat="37.97908337" lon="-2.56285188">
        <ele>1462.0000</ele>
        <time>2018-10-14T09:03:13Z</time>
      </trkpt>
      <trkpt lat="37.97909067" lon="-2.56283118">
        <ele>1462.0000</ele>
        <time>2018-10-14T09:03:14Z</time>
      </trkpt>
      <trkpt lat="37.97910039" lon="-2.56280989">
        <ele>1461.0000</ele>
        <time>2018-10-14T09:03:15Z</time>
      </trkpt>
      <trkpt lat="37.97915353" lon="-2.56274116">
        <ele>1461.0000</ele>
        <time>2018-10-14T09:03:18Z</time>
      </trkpt>
      <trkpt lat="37.97927146" lon="-2.56264401">
        <ele>1459.0000</ele>
        <time>2018-10-14T09:03:22Z</time>
      </trkpt>
      <trkpt lat="37.97935805" lon="-2.56259162">
        <ele>1458.0000</ele>
        <time>2018-10-14T09:03:24Z</time>
      </trkpt>
      <trkpt lat="37.97952082" lon="-2.56250646">
        <ele>1457.0000</ele>
        <time>2018-10-14T09:03:27Z</time>
      </trkpt>
      <trkpt lat="37.97964110" lon="-2.56243363">
        <ele>1455.0000</ele>
        <time>2018-10-14T09:03:29Z</time>
      </trkpt>
      <trkpt lat="37.97969584" lon="-2.56239163">
        <ele>1455.0000</ele>
        <time>2018-10-14T09:03:30Z</time>
      </trkpt>
      <trkpt lat="37.97974043" lon="-2.56233924">
        <ele>1457.0000</ele>
        <time>2018-10-14T09:03:31Z</time>
      </trkpt>
      <trkpt lat="37.97978444" lon="-2.56219726">
        <ele>1458.0000</ele>
        <time>2018-10-14T09:03:33Z</time>
      </trkpt>
      <trkpt lat="37.97973792" lon="-2.56189366">
        <ele>1456.0000</ele>
        <time>2018-10-14T09:03:37Z</time>
      </trkpt>
      <trkpt lat="37.97965728" lon="-2.56161312">
        <ele>1455.0000</ele>
        <time>2018-10-14T09:03:41Z</time>
      </trkpt>
      <trkpt lat="37.97964563" lon="-2.56154263">
        <ele>1455.0000</ele>
        <time>2018-10-14T09:03:42Z</time>
      </trkpt>
      <trkpt lat="37.97966231" lon="-2.56131079">
        <ele>1455.0000</ele>
        <time>2018-10-14T09:03:45Z</time>
      </trkpt>
      <trkpt lat="37.97970338" lon="-2.56114776">
        <ele>1455.0000</ele>
        <time>2018-10-14T09:03:47Z</time>
      </trkpt>
      <trkpt lat="37.97972979" lon="-2.56105992">
        <ele>1455.0000</ele>
        <time>2018-10-14T09:03:48Z</time>
      </trkpt>
      <trkpt lat="37.97990706" lon="-2.56057050">
        <ele>1454.0000</ele>
        <time>2018-10-14T09:03:53Z</time>
      </trkpt>
      <trkpt lat="37.98002106" lon="-2.56025374">
        <ele>1452.0000</ele>
        <time>2018-10-14T09:03:56Z</time>
      </trkpt>
      <trkpt lat="37.98008937" lon="-2.56003992">
        <ele>1452.0000</ele>
        <time>2018-10-14T09:03:58Z</time>
      </trkpt>
      <trkpt lat="37.98011192" lon="-2.55992886">
        <ele>1451.0000</ele>
        <time>2018-10-14T09:03:59Z</time>
      </trkpt>
      <trkpt lat="37.98011410" lon="-2.55971663">
        <ele>1450.0000</ele>
        <time>2018-10-14T09:04:01Z</time>
      </trkpt>
      <trkpt lat="37.98005484" lon="-2.55954598">
        <ele>1448.0000</ele>
        <time>2018-10-14T09:04:03Z</time>
      </trkpt>
      <trkpt lat="37.97992944" lon="-2.55941916">
        <ele>1447.0000</ele>
        <time>2018-10-14T09:04:05Z</time>
      </trkpt>
      <trkpt lat="37.97976139" lon="-2.55932570">
        <ele>1446.0000</ele>
        <time>2018-10-14T09:04:07Z</time>
      </trkpt>
      <trkpt lat="37.97938009" lon="-2.55913660">
        <ele>1445.0000</ele>
        <time>2018-10-14T09:04:11Z</time>
      </trkpt>
      <trkpt lat="37.97928605" lon="-2.55909159">
        <ele>1444.0000</ele>
        <time>2018-10-14T09:04:12Z</time>
      </trkpt>
      <trkpt lat="37.97919628" lon="-2.55905094">
        <ele>1442.0000</ele>
        <time>2018-10-14T09:04:13Z</time>
      </trkpt>
      <trkpt lat="37.97910994" lon="-2.55901213">
        <ele>1441.0000</ele>
        <time>2018-10-14T09:04:14Z</time>
      </trkpt>
      <trkpt lat="37.97895639" lon="-2.55892488">
        <ele>1439.0000</ele>
        <time>2018-10-14T09:04:16Z</time>
      </trkpt>
      <trkpt lat="37.97889545" lon="-2.55885497">
        <ele>1438.0000</ele>
        <time>2018-10-14T09:04:17Z</time>
      </trkpt>
      <trkpt lat="37.97881892" lon="-2.55868809">
        <ele>1437.0000</ele>
        <time>2018-10-14T09:04:19Z</time>
      </trkpt>
      <trkpt lat="37.97895915" lon="-2.55811485">
        <ele>1436.0000</ele>
        <time>2018-10-14T09:04:25Z</time>
      </trkpt>
      <trkpt lat="37.97901615" lon="-2.55803363">
        <ele>1436.0000</ele>
        <time>2018-10-14T09:04:26Z</time>
      </trkpt>
      <trkpt lat="37.97924363" lon="-2.55786063">
        <ele>1434.0000</ele>
        <time>2018-10-14T09:04:29Z</time>
      </trkpt>
      <trkpt lat="37.97937992" lon="-2.55776767">
        <ele>1432.0000</ele>
        <time>2018-10-14T09:04:31Z</time>
      </trkpt>
      <trkpt lat="37.97943608" lon="-2.55769844">
        <ele>1431.0000</ele>
        <time>2018-10-14T09:04:32Z</time>
      </trkpt>
      <trkpt lat="37.97948294" lon="-2.55761688">
        <ele>1430.0000</ele>
        <time>2018-10-14T09:04:33Z</time>
      </trkpt>
      <trkpt lat="37.97954304" lon="-2.55742519">
        <ele>1429.0000</ele>
        <time>2018-10-14T09:04:35Z</time>
      </trkpt>
      <trkpt lat="37.97954614" lon="-2.55721438">
        <ele>1427.0000</ele>
        <time>2018-10-14T09:04:37Z</time>
      </trkpt>
      <trkpt lat="37.97952284" lon="-2.55710986">
        <ele>1427.0000</ele>
        <time>2018-10-14T09:04:38Z</time>
      </trkpt>
      <trkpt lat="37.97948813" lon="-2.55700693">
        <ele>1426.0000</ele>
        <time>2018-10-14T09:04:39Z</time>
      </trkpt>
      <trkpt lat="37.97944773" lon="-2.55690190">
        <ele>1425.0000</ele>
        <time>2018-10-14T09:04:40Z</time>
      </trkpt>
      <trkpt lat="37.97940566" lon="-2.55679529">
        <ele>1424.0000</ele>
        <time>2018-10-14T09:04:41Z</time>
      </trkpt>
      <trkpt lat="37.97932326" lon="-2.55657962">
        <ele>1423.0000</ele>
        <time>2018-10-14T09:04:43Z</time>
      </trkpt>
      <trkpt lat="37.97925386" lon="-2.55635934">
        <ele>1421.0000</ele>
        <time>2018-10-14T09:04:45Z</time>
      </trkpt>
      <trkpt lat="37.97923542" lon="-2.55624007">
        <ele>1419.0000</ele>
        <time>2018-10-14T09:04:46Z</time>
      </trkpt>
      <trkpt lat="37.97922578" lon="-2.55598174">
        <ele>1418.0000</ele>
        <time>2018-10-14T09:04:48Z</time>
      </trkpt>
      <trkpt lat="37.97920038" lon="-2.55571679">
        <ele>1416.0000</ele>
        <time>2018-10-14T09:04:50Z</time>
      </trkpt>
      <trkpt lat="37.97917046" lon="-2.55558603">
        <ele>1416.0000</ele>
        <time>2018-10-14T09:04:51Z</time>
      </trkpt>
      <trkpt lat="37.97913333" lon="-2.55545594">
        <ele>1415.0000</ele>
        <time>2018-10-14T09:04:52Z</time>
      </trkpt>
      <trkpt lat="37.97903987" lon="-2.55519920">
        <ele>1414.0000</ele>
        <time>2018-10-14T09:04:54Z</time>
      </trkpt>
      <trkpt lat="37.97897952" lon="-2.55507716">
        <ele>1414.0000</ele>
        <time>2018-10-14T09:04:55Z</time>
      </trkpt>
      <trkpt lat="37.97884516" lon="-2.55485328">
        <ele>1413.0000</ele>
        <time>2018-10-14T09:04:57Z</time>
      </trkpt>
      <trkpt lat="37.97870853" lon="-2.55465723">
        <ele>1411.0000</ele>
        <time>2018-10-14T09:04:59Z</time>
      </trkpt>
      <trkpt lat="37.97856763" lon="-2.55448616">
        <ele>1409.0000</ele>
        <time>2018-10-14T09:05:01Z</time>
      </trkpt>
      <trkpt lat="37.97842715" lon="-2.55433687">
        <ele>1407.0000</ele>
        <time>2018-10-14T09:05:03Z</time>
      </trkpt>
      <trkpt lat="37.97830687" lon="-2.55419011">
        <ele>1406.0000</ele>
        <time>2018-10-14T09:05:05Z</time>
      </trkpt>
      <trkpt lat="37.97820017" lon="-2.55388216">
        <ele>1405.0000</ele>
        <time>2018-10-14T09:05:08Z</time>
      </trkpt>
      <trkpt lat="37.97817754" lon="-2.55362005">
        <ele>1405.0000</ele>
        <time>2018-10-14T09:05:10Z</time>
      </trkpt>
      <trkpt lat="37.97815441" lon="-2.55320884">
        <ele>1404.0000</ele>
        <time>2018-10-14T09:05:13Z</time>
      </trkpt>
      <trkpt lat="37.97815633" lon="-2.55293777">
        <ele>1403.0000</ele>
        <time>2018-10-14T09:05:15Z</time>
      </trkpt>
      <trkpt lat="37.97819774" lon="-2.55266443">
        <ele>1401.0000</ele>
        <time>2018-10-14T09:05:17Z</time>
      </trkpt>
      <trkpt lat="37.97822582" lon="-2.55253569">
        <ele>1400.0000</ele>
        <time>2018-10-14T09:05:18Z</time>
      </trkpt>
      <trkpt lat="37.97825105" lon="-2.55240979">
        <ele>1398.0000</ele>
        <time>2018-10-14T09:05:19Z</time>
      </trkpt>
      <trkpt lat="37.97826874" lon="-2.55228331">
        <ele>1396.0000</ele>
        <time>2018-10-14T09:05:20Z</time>
      </trkpt>
      <trkpt lat="37.97827812" lon="-2.55202950">
        <ele>1394.0000</ele>
        <time>2018-10-14T09:05:22Z</time>
      </trkpt>
      <trkpt lat="37.97828617" lon="-2.55190101">
        <ele>1393.0000</ele>
        <time>2018-10-14T09:05:23Z</time>
      </trkpt>
      <trkpt lat="37.97830712" lon="-2.55176874">
        <ele>1392.0000</ele>
        <time>2018-10-14T09:05:24Z</time>
      </trkpt>
      <trkpt lat="37.97838818" lon="-2.55151838">
        <ele>1390.0000</ele>
        <time>2018-10-14T09:05:26Z</time>
      </trkpt>
      <trkpt lat="37.97847577" lon="-2.55131268">
        <ele>1389.0000</ele>
        <time>2018-10-14T09:05:28Z</time>
      </trkpt>
      <trkpt lat="37.97859420" lon="-2.55114454">
        <ele>1387.0000</ele>
        <time>2018-10-14T09:05:30Z</time>
      </trkpt>
      <trkpt lat="37.97875581" lon="-2.55098856">
        <ele>1385.0000</ele>
        <time>2018-10-14T09:05:32Z</time>
      </trkpt>
      <trkpt lat="37.97882932" lon="-2.55089677">
        <ele>1384.0000</ele>
        <time>2018-10-14T09:05:33Z</time>
      </trkpt>
      <trkpt lat="37.97890065" lon="-2.55080181">
        <ele>1383.0000</ele>
        <time>2018-10-14T09:05:34Z</time>
      </trkpt>
      <trkpt lat="37.97897491" lon="-2.55071732">
        <ele>1382.0000</ele>
        <time>2018-10-14T09:05:35Z</time>
      </trkpt>
      <trkpt lat="37.97914708" lon="-2.55057943">
        <ele>1381.0000</ele>
        <time>2018-10-14T09:05:37Z</time>
      </trkpt>
      <trkpt lat="37.97922980" lon="-2.55050970">
        <ele>1380.0000</ele>
        <time>2018-10-14T09:05:38Z</time>
      </trkpt>
      <trkpt lat="37.97930792" lon="-2.55043275">
        <ele>1379.0000</ele>
        <time>2018-10-14T09:05:39Z</time>
      </trkpt>
      <trkpt lat="37.97937448" lon="-2.55035388">
        <ele>1377.0000</ele>
        <time>2018-10-14T09:05:40Z</time>
      </trkpt>
      <trkpt lat="37.97943240" lon="-2.55027618">
        <ele>1376.0000</ele>
        <time>2018-10-14T09:05:41Z</time>
      </trkpt>
      <trkpt lat="37.97951697" lon="-2.55013645">
        <ele>1375.0000</ele>
        <time>2018-10-14T09:05:43Z</time>
      </trkpt>
      <trkpt lat="37.97952535" lon="-2.54999522">
        <ele>1373.0000</ele>
        <time>2018-10-14T09:05:45Z</time>
      </trkpt>
      <trkpt lat="37.97944840" lon="-2.54988013">
        <ele>1371.0000</ele>
        <time>2018-10-14T09:05:47Z</time>
      </trkpt>
      <trkpt lat="37.97915085" lon="-2.54992791">
        <ele>1370.0000</ele>
        <time>2018-10-14T09:05:52Z</time>
      </trkpt>
      <trkpt lat="37.97902277" lon="-2.55000041">
        <ele>1368.0000</ele>
        <time>2018-10-14T09:05:54Z</time>
      </trkpt>
      <trkpt lat="37.97865933" lon="-2.55014668">
        <ele>1367.0000</ele>
        <time>2018-10-14T09:05:59Z</time>
      </trkpt>
      <trkpt lat="37.97843822" lon="-2.55017274">
        <ele>1366.0000</ele>
        <time>2018-10-14T09:06:02Z</time>
      </trkpt>
      <trkpt lat="37.97830444" lon="-2.55012941">
        <ele>1365.0000</ele>
        <time>2018-10-14T09:06:04Z</time>
      </trkpt>
      <trkpt lat="37.97812800" lon="-2.54995507">
        <ele>1363.0000</ele>
        <time>2018-10-14T09:06:07Z</time>
      </trkpt>
      <trkpt lat="37.97775979" lon="-2.54961510">
        <ele>1363.0000</ele>
        <time>2018-10-14T09:06:13Z</time>
      </trkpt>
      <trkpt lat="37.97771343" lon="-2.54910992">
        <ele>1363.0000</ele>
        <time>2018-10-14T09:06:20Z</time>
      </trkpt>
      <trkpt lat="37.97776130" lon="-2.54895242">
        <ele>1363.0000</ele>
        <time>2018-10-14T09:06:22Z</time>
      </trkpt>
      <trkpt lat="37.97780958" lon="-2.54879543">
        <ele>1362.0000</ele>
        <time>2018-10-14T09:06:24Z</time>
      </trkpt>
      <trkpt lat="37.97781947" lon="-2.54871723">
        <ele>1362.0000</ele>
        <time>2018-10-14T09:06:25Z</time>
      </trkpt>
      <trkpt lat="37.97769055" lon="-2.54837181">
        <ele>1363.0000</ele>
        <time>2018-10-14T09:06:30Z</time>
      </trkpt>
      <trkpt lat="37.97759433" lon="-2.54827433">
        <ele>1363.0000</ele>
        <time>2018-10-14T09:06:32Z</time>
      </trkpt>
      <trkpt lat="37.97738067" lon="-2.54811666">
        <ele>1363.0000</ele>
        <time>2018-10-14T09:06:36Z</time>
      </trkpt>
      <trkpt lat="37.97714816" lon="-2.54801357">
        <ele>1363.0000</ele>
        <time>2018-10-14T09:06:40Z</time>
      </trkpt>
      <trkpt lat="37.97698220" lon="-2.54781693">
        <ele>1363.0000</ele>
        <time>2018-10-14T09:06:44Z</time>
      </trkpt>
      <trkpt lat="37.97695093" lon="-2.54775859">
        <ele>1363.0000</ele>
        <time>2018-10-14T09:06:45Z</time>
      </trkpt>
      <trkpt lat="37.97689477" lon="-2.54757058">
        <ele>1364.0000</ele>
        <time>2018-10-14T09:06:48Z</time>
      </trkpt>
      <trkpt lat="37.97688069" lon="-2.54736741">
        <ele>1364.0000</ele>
        <time>2018-10-14T09:06:51Z</time>
      </trkpt>
      <trkpt lat="37.97687684" lon="-2.54723380">
        <ele>1365.0000</ele>
        <time>2018-10-14T09:06:53Z</time>
      </trkpt>
      <trkpt lat="37.97686376" lon="-2.54710438">
        <ele>1365.0000</ele>
        <time>2018-10-14T09:06:55Z</time>
      </trkpt>
      <trkpt lat="37.97675245" lon="-2.54687832">
        <ele>1366.0000</ele>
        <time>2018-10-14T09:06:59Z</time>
      </trkpt>
      <trkpt lat="37.97668355" lon="-2.54680045">
        <ele>1366.0000</ele>
        <time>2018-10-14T09:07:01Z</time>
      </trkpt>
      <trkpt lat="37.97656101" lon="-2.54660172">
        <ele>1367.0000</ele>
        <time>2018-10-14T09:07:06Z</time>
      </trkpt>
      <trkpt lat="37.97651943" lon="-2.54647021">
        <ele>1368.0000</ele>
        <time>2018-10-14T09:07:09Z</time>
      </trkpt>
      <trkpt lat="37.97649890" lon="-2.54637407">
        <ele>1370.0000</ele>
        <time>2018-10-14T09:07:11Z</time>
      </trkpt>
      <trkpt lat="37.97645841" lon="-2.54617701">
        <ele>1371.0000</ele>
        <time>2018-10-14T09:07:15Z</time>
      </trkpt>
      <trkpt lat="37.97644073" lon="-2.54597936">
        <ele>1372.0000</ele>
        <time>2018-10-14T09:07:19Z</time>
      </trkpt>
      <trkpt lat="37.97643494" lon="-2.54578297">
        <ele>1373.0000</ele>
        <time>2018-10-14T09:07:23Z</time>
      </trkpt>
      <trkpt lat="37.97643796" lon="-2.54557083">
        <ele>1374.0000</ele>
        <time>2018-10-14T09:07:27Z</time>
      </trkpt>
      <trkpt lat="37.97648909" lon="-2.54518853">
        <ele>1375.0000</ele>
        <time>2018-10-14T09:07:34Z</time>
      </trkpt>
      <trkpt lat="37.97652857" lon="-2.54496809">
        <ele>1376.0000</ele>
        <time>2018-10-14T09:07:38Z</time>
      </trkpt>
      <trkpt lat="37.97664592" lon="-2.54425311">
        <ele>1376.0000</ele>
        <time>2018-10-14T09:07:49Z</time>
      </trkpt>
      <trkpt lat="37.97681096" lon="-2.54382337">
        <ele>1375.0000</ele>
        <time>2018-10-14T09:07:55Z</time>
      </trkpt>
      <trkpt lat="37.97701891" lon="-2.54350000">
        <ele>1374.0000</ele>
        <time>2018-10-14T09:07:59Z</time>
      </trkpt>
      <trkpt lat="37.97717582" lon="-2.54320537">
        <ele>1374.0000</ele>
        <time>2018-10-14T09:08:02Z</time>
      </trkpt>
      <trkpt lat="37.97721379" lon="-2.54308878">
        <ele>1373.0000</ele>
        <time>2018-10-14T09:08:03Z</time>
      </trkpt>
      <trkpt lat="37.97726618" lon="-2.54283674">
        <ele>1372.0000</ele>
        <time>2018-10-14T09:08:05Z</time>
      </trkpt>
      <trkpt lat="37.97730850" lon="-2.54257204">
        <ele>1370.0000</ele>
        <time>2018-10-14T09:08:07Z</time>
      </trkpt>
      <trkpt lat="37.97733055" lon="-2.54243792">
        <ele>1369.0000</ele>
        <time>2018-10-14T09:08:08Z</time>
      </trkpt>
      <trkpt lat="37.97735536" lon="-2.54230482">
        <ele>1368.0000</ele>
        <time>2018-10-14T09:08:09Z</time>
      </trkpt>
      <trkpt lat="37.97738579" lon="-2.54217524">
        <ele>1367.0000</ele>
        <time>2018-10-14T09:08:10Z</time>
      </trkpt>
      <trkpt lat="37.97742342" lon="-2.54205135">
        <ele>1366.0000</ele>
        <time>2018-10-14T09:08:11Z</time>
      </trkpt>
      <trkpt lat="37.97746969" lon="-2.54193476">
        <ele>1363.0000</ele>
        <time>2018-10-14T09:08:12Z</time>
      </trkpt>
      <trkpt lat="37.97757530" lon="-2.54171549">
        <ele>1362.0000</ele>
        <time>2018-10-14T09:08:14Z</time>
      </trkpt>
      <trkpt lat="37.97765887" lon="-2.54148985">
        <ele>1361.0000</ele>
        <time>2018-10-14T09:08:16Z</time>
      </trkpt>
      <trkpt lat="37.97770975" lon="-2.54071058">
        <ele>1361.0000</ele>
        <time>2018-10-14T09:08:23Z</time>
      </trkpt>
      <trkpt lat="37.97773045" lon="-2.54049290">
        <ele>1361.0000</ele>
        <time>2018-10-14T09:08:25Z</time>
      </trkpt>
      <trkpt lat="37.97777705" lon="-2.54027414">
        <ele>1362.0000</ele>
        <time>2018-10-14T09:08:27Z</time>
      </trkpt>
      <trkpt lat="37.97805533" lon="-2.53958774">
        <ele>1362.0000</ele>
        <time>2018-10-14T09:08:34Z</time>
      </trkpt>
      <trkpt lat="37.97811753" lon="-2.53940133">
        <ele>1361.0000</ele>
        <time>2018-10-14T09:08:36Z</time>
      </trkpt>
      <trkpt lat="37.97814502" lon="-2.53921810">
        <ele>1361.0000</ele>
        <time>2018-10-14T09:08:38Z</time>
      </trkpt>
      <trkpt lat="37.97814125" lon="-2.53904636">
        <ele>1361.0000</ele>
        <time>2018-10-14T09:08:40Z</time>
      </trkpt>
      <trkpt lat="37.97813027" lon="-2.53888500">
        <ele>1361.0000</ele>
        <time>2018-10-14T09:08:42Z</time>
      </trkpt>
      <trkpt lat="37.97813119" lon="-2.53873287">
        <ele>1361.0000</ele>
        <time>2018-10-14T09:08:44Z</time>
      </trkpt>
      <trkpt lat="37.97819816" lon="-2.53845560">
        <ele>1363.0000</ele>
        <time>2018-10-14T09:08:48Z</time>
      </trkpt>
      <trkpt lat="37.97822607" lon="-2.53839768">
        <ele>1363.0000</ele>
        <time>2018-10-14T09:08:49Z</time>
      </trkpt>
      <trkpt lat="37.97825650" lon="-2.53834236">
        <ele>1363.0000</ele>
        <time>2018-10-14T09:08:50Z</time>
      </trkpt>
      <trkpt lat="37.97834610" lon="-2.53818956">
        <ele>1364.0000</ele>
        <time>2018-10-14T09:08:53Z</time>
      </trkpt>
      <trkpt lat="37.97846697" lon="-2.53799141">
        <ele>1365.0000</ele>
        <time>2018-10-14T09:08:57Z</time>
      </trkpt>
      <trkpt lat="37.97858918" lon="-2.53771355">
        <ele>1366.0000</ele>
        <time>2018-10-14T09:09:02Z</time>
      </trkpt>
      <trkpt lat="37.97880819" lon="-2.53704853">
        <ele>1367.0000</ele>
        <time>2018-10-14T09:09:13Z</time>
      </trkpt>
      <trkpt lat="37.97892822" lon="-2.53668987">
        <ele>1367.0000</ele>
        <time>2018-10-14T09:09:19Z</time>
      </trkpt>
      <trkpt lat="37.97913392" lon="-2.53599367">
        <ele>1368.0000</ele>
        <time>2018-10-14T09:09:30Z</time>
      </trkpt>
      <trkpt lat="37.97930709" lon="-2.53547172">
        <ele>1368.0000</ele>
        <time>2018-10-14T09:09:37Z</time>
      </trkpt>
      <trkpt lat="37.97951529" lon="-2.53480796">
        <ele>1368.0000</ele>
        <time>2018-10-14T09:09:47Z</time>
      </trkpt>
      <trkpt lat="37.97958620" lon="-2.53451183">
        <ele>1368.0000</ele>
        <time>2018-10-14T09:09:53Z</time>
      </trkpt>
      <trkpt lat="37.97956433" lon="-2.53432399">
        <ele>1370.0000</ele>
        <time>2018-10-14T09:09:57Z</time>
      </trkpt>
      <trkpt lat="37.97952451" lon="-2.53419223">
        <ele>1370.0000</ele>
        <time>2018-10-14T09:10:00Z</time>
      </trkpt>
      <trkpt lat="37.97949224" lon="-2.53411587">
        <ele>1371.0000</ele>
        <time>2018-10-14T09:10:02Z</time>
      </trkpt>
      <trkpt lat="37.97939116" lon="-2.53398075">
        <ele>1372.0000</ele>
        <time>2018-10-14T09:10:06Z</time>
      </trkpt>
      <trkpt lat="37.97926853" lon="-2.53386198">
        <ele>1373.0000</ele>
        <time>2018-10-14T09:10:10Z</time>
      </trkpt>
      <trkpt lat="37.97911724" lon="-2.53373013">
        <ele>1374.0000</ele>
        <time>2018-10-14T09:10:15Z</time>
      </trkpt>
      <trkpt lat="37.97902068" lon="-2.53357633">
        <ele>1375.0000</ele>
        <time>2018-10-14T09:10:19Z</time>
      </trkpt>
      <trkpt lat="37.97898271" lon="-2.53347532">
        <ele>1376.0000</ele>
        <time>2018-10-14T09:10:21Z</time>
      </trkpt>
      <trkpt lat="37.97888087" lon="-2.53278566">
        <ele>1376.0000</ele>
        <time>2018-10-14T09:10:29Z</time>
      </trkpt>
      <trkpt lat="37.97883326" lon="-2.53244569">
        <ele>1374.0000</ele>
        <time>2018-10-14T09:10:32Z</time>
      </trkpt>
      <trkpt lat="37.97879889" lon="-2.53219742">
        <ele>1373.0000</ele>
        <time>2018-10-14T09:10:34Z</time>
      </trkpt>
      <trkpt lat="37.97876260" lon="-2.53193347">
        <ele>1371.0000</ele>
        <time>2018-10-14T09:10:36Z</time>
      </trkpt>
      <trkpt lat="37.97872488" lon="-2.53165586">
        <ele>1369.0000</ele>
        <time>2018-10-14T09:10:38Z</time>
      </trkpt>
      <trkpt lat="37.97868582" lon="-2.53136912">
        <ele>1368.0000</ele>
        <time>2018-10-14T09:10:40Z</time>
      </trkpt>
      <trkpt lat="37.97864450" lon="-2.53107366">
        <ele>1366.0000</ele>
        <time>2018-10-14T09:10:42Z</time>
      </trkpt>
      <trkpt lat="37.97862354" lon="-2.53092320">
        <ele>1364.0000</ele>
        <time>2018-10-14T09:10:43Z</time>
      </trkpt>
      <trkpt lat="37.97860292" lon="-2.53077115">
        <ele>1363.0000</ele>
        <time>2018-10-14T09:10:44Z</time>
      </trkpt>
      <trkpt lat="37.97858222" lon="-2.53061785">
        <ele>1362.0000</ele>
        <time>2018-10-14T09:10:45Z</time>
      </trkpt>
      <trkpt lat="37.97856059" lon="-2.53046429">
        <ele>1361.0000</ele>
        <time>2018-10-14T09:10:46Z</time>
      </trkpt>
      <trkpt lat="37.97851734" lon="-2.53015642">
        <ele>1359.0000</ele>
        <time>2018-10-14T09:10:48Z</time>
      </trkpt>
      <trkpt lat="37.97847342" lon="-2.52985862">
        <ele>1358.0000</ele>
        <time>2018-10-14T09:10:50Z</time>
      </trkpt>
      <trkpt lat="37.97843193" lon="-2.52958352">
        <ele>1356.0000</ele>
        <time>2018-10-14T09:10:52Z</time>
      </trkpt>
      <trkpt lat="37.97839891" lon="-2.52935763">
        <ele>1355.0000</ele>
        <time>2018-10-14T09:10:54Z</time>
      </trkpt>
      <trkpt lat="37.97838935" lon="-2.52925713">
        <ele>1355.0000</ele>
        <time>2018-10-14T09:10:55Z</time>
      </trkpt>
      <trkpt lat="37.97841534" lon="-2.52905831">
        <ele>1355.0000</ele>
        <time>2018-10-14T09:10:57Z</time>
      </trkpt>
      <trkpt lat="37.97850703" lon="-2.52887709">
        <ele>1354.0000</ele>
        <time>2018-10-14T09:10:59Z</time>
      </trkpt>
      <trkpt lat="37.97855439" lon="-2.52879068">
        <ele>1354.0000</ele>
        <time>2018-10-14T09:11:00Z</time>
      </trkpt>
      <trkpt lat="37.97860275" lon="-2.52849530">
        <ele>1353.0000</ele>
        <time>2018-10-14T09:11:03Z</time>
      </trkpt>
      <trkpt lat="37.97854651" lon="-2.52821878">
        <ele>1353.0000</ele>
        <time>2018-10-14T09:11:06Z</time>
      </trkpt>
      <trkpt lat="37.97852740" lon="-2.52802859">
        <ele>1353.0000</ele>
        <time>2018-10-14T09:11:08Z</time>
      </trkpt>
      <trkpt lat="37.97853302" lon="-2.52793908">
        <ele>1352.0000</ele>
        <time>2018-10-14T09:11:09Z</time>
      </trkpt>
      <trkpt lat="37.97860016" lon="-2.52780077">
        <ele>1351.0000</ele>
        <time>2018-10-14T09:11:11Z</time>
      </trkpt>
      <trkpt lat="37.97873234" lon="-2.52773087">
        <ele>1350.0000</ele>
        <time>2018-10-14T09:11:13Z</time>
      </trkpt>
      <trkpt lat="37.97892889" lon="-2.52763532">
        <ele>1348.0000</ele>
        <time>2018-10-14T09:11:16Z</time>
      </trkpt>
      <trkpt lat="37.97902185" lon="-2.52731404">
        <ele>1347.0000</ele>
        <time>2018-10-14T09:11:20Z</time>
      </trkpt>
      <trkpt lat="37.97898363" lon="-2.52711882">
        <ele>1346.0000</ele>
        <time>2018-10-14T09:11:22Z</time>
      </trkpt>
      <trkpt lat="37.97892085" lon="-2.52680324">
        <ele>1345.0000</ele>
        <time>2018-10-14T09:11:25Z</time>
      </trkpt>
      <trkpt lat="37.97888020" lon="-2.52660216">
        <ele>1344.0000</ele>
        <time>2018-10-14T09:11:27Z</time>
      </trkpt>
      <trkpt lat="37.97885958" lon="-2.52641726">
        <ele>1343.0000</ele>
        <time>2018-10-14T09:11:29Z</time>
      </trkpt>
      <trkpt lat="37.97887944" lon="-2.52624266">
        <ele>1343.0000</ele>
        <time>2018-10-14T09:11:31Z</time>
      </trkpt>
      <trkpt lat="37.97894423" lon="-2.52609296">
        <ele>1343.0000</ele>
        <time>2018-10-14T09:11:33Z</time>
      </trkpt>
      <trkpt lat="37.97902822" lon="-2.52596908">
        <ele>1343.0000</ele>
        <time>2018-10-14T09:11:35Z</time>
      </trkpt>
      <trkpt lat="37.97931103" lon="-2.52560237">
        <ele>1344.0000</ele>
        <time>2018-10-14T09:11:42Z</time>
      </trkpt>
      <trkpt lat="37.97938722" lon="-2.52549801">
        <ele>1344.0000</ele>
        <time>2018-10-14T09:11:44Z</time>
      </trkpt>
      <trkpt lat="37.97973087" lon="-2.52509468">
        <ele>1344.0000</ele>
        <time>2018-10-14T09:11:52Z</time>
      </trkpt>
      <trkpt lat="37.97999692" lon="-2.52506903">
        <ele>1344.0000</ele>
        <time>2018-10-14T09:11:56Z</time>
      </trkpt>
      <trkpt lat="37.98006598" lon="-2.52505092">
        <ele>1344.0000</ele>
        <time>2018-10-14T09:11:57Z</time>
      </trkpt>
      <trkpt lat="37.98028634" lon="-2.52473627">
        <ele>1343.0000</ele>
        <time>2018-10-14T09:12:02Z</time>
      </trkpt>
      <trkpt lat="37.98028467" lon="-2.52449085">
        <ele>1341.0000</ele>
        <time>2018-10-14T09:12:05Z</time>
      </trkpt>
      <trkpt lat="37.98023966" lon="-2.52433922">
        <ele>1340.0000</ele>
        <time>2018-10-14T09:12:07Z</time>
      </trkpt>
      <trkpt lat="37.98014796" lon="-2.52422966">
        <ele>1339.0000</ele>
        <time>2018-10-14T09:12:09Z</time>
      </trkpt>
      <trkpt lat="37.98003170" lon="-2.52415020">
        <ele>1339.0000</ele>
        <time>2018-10-14T09:12:11Z</time>
      </trkpt>
      <trkpt lat="37.97984168" lon="-2.52403940">
        <ele>1339.0000</ele>
        <time>2018-10-14T09:12:14Z</time>
      </trkpt>
      <trkpt lat="37.97970908" lon="-2.52395717">
        <ele>1339.0000</ele>
        <time>2018-10-14T09:12:16Z</time>
      </trkpt>
      <trkpt lat="37.97922637" lon="-2.52364226">
        <ele>1338.0000</ele>
        <time>2018-10-14T09:12:23Z</time>
      </trkpt>
      <trkpt lat="37.97895002" lon="-2.52346532">
        <ele>1337.0000</ele>
        <time>2018-10-14T09:12:27Z</time>
      </trkpt>
      <trkpt lat="37.97870141" lon="-2.52330564">
        <ele>1337.0000</ele>
        <time>2018-10-14T09:12:31Z</time>
      </trkpt>
      <trkpt lat="37.97825524" lon="-2.52302284">
        <ele>1338.0000</ele>
        <time>2018-10-14T09:12:39Z</time>
      </trkpt>
      <trkpt lat="37.97814619" lon="-2.52294874">
        <ele>1338.0000</ele>
        <time>2018-10-14T09:12:41Z</time>
      </trkpt>
      <trkpt lat="37.97791535" lon="-2.52279225">
        <ele>1340.0000</ele>
        <time>2018-10-14T09:12:45Z</time>
      </trkpt>
      <trkpt lat="37.97773774" lon="-2.52230091">
        <ele>1340.0000</ele>
        <time>2018-10-14T09:12:51Z</time>
      </trkpt>
      <trkpt lat="37.97763800" lon="-2.52155165">
        <ele>1338.0000</ele>
        <time>2018-10-14T09:12:58Z</time>
      </trkpt>
      <trkpt lat="37.97759843" lon="-2.52122467">
        <ele>1337.0000</ele>
        <time>2018-10-14T09:13:01Z</time>
      </trkpt>
      <trkpt lat="37.97755560" lon="-2.52090314">
        <ele>1336.0000</ele>
        <time>2018-10-14T09:13:04Z</time>
      </trkpt>
      <trkpt lat="37.97749961" lon="-2.52048882">
        <ele>1335.0000</ele>
        <time>2018-10-14T09:13:08Z</time>
      </trkpt>
      <trkpt lat="37.97747162" lon="-2.52028774">
        <ele>1334.0000</ele>
        <time>2018-10-14T09:13:10Z</time>
      </trkpt>
      <trkpt lat="37.97745443" lon="-2.51998046">
        <ele>1334.0000</ele>
        <time>2018-10-14T09:13:13Z</time>
      </trkpt>
      <trkpt lat="37.97750514" lon="-2.51966488">
        <ele>1334.0000</ele>
        <time>2018-10-14T09:13:16Z</time>
      </trkpt>
      <trkpt lat="37.97753482" lon="-2.51956631">
        <ele>1334.0000</ele>
        <time>2018-10-14T09:13:17Z</time>
      </trkpt>
      <trkpt lat="37.97757865" lon="-2.51947319">
        <ele>1334.0000</ele>
        <time>2018-10-14T09:13:18Z</time>
      </trkpt>
      <trkpt lat="37.97763825" lon="-2.51939012">
        <ele>1334.0000</ele>
        <time>2018-10-14T09:13:19Z</time>
      </trkpt>
      <trkpt lat="37.97778644" lon="-2.51924377">
        <ele>1334.0000</ele>
        <time>2018-10-14T09:13:21Z</time>
      </trkpt>
      <trkpt lat="37.97786456" lon="-2.51916758">
        <ele>1333.0000</ele>
        <time>2018-10-14T09:13:22Z</time>
      </trkpt>
      <trkpt lat="37.97806179" lon="-2.51893004">
        <ele>1332.0000</ele>
        <time>2018-10-14T09:13:25Z</time>
      </trkpt>
      <trkpt lat="37.97815206" lon="-2.51879417">
        <ele>1330.0000</ele>
        <time>2018-10-14T09:13:27Z</time>
      </trkpt>
      <trkpt lat="37.97822523" lon="-2.51868093">
        <ele>1328.0000</ele>
        <time>2018-10-14T09:13:29Z</time>
      </trkpt>
      <trkpt lat="37.97834392" lon="-2.51854263">
        <ele>1328.0000</ele>
        <time>2018-10-14T09:13:34Z</time>
      </trkpt>
      <trkpt lat="37.97834660" lon="-2.51854062">
        <ele>1328.0000</ele>
        <time>2018-10-14T09:13:35Z</time>
      </trkpt>
      <trkpt lat="37.97837695" lon="-2.51852578">
        <ele>1328.0000</ele>
        <time>2018-10-14T09:14:01Z</time>
      </trkpt>
      <trkpt lat="37.97847309" lon="-2.51850206">
        <ele>1328.0000</ele>
        <time>2018-10-14T09:14:04Z</time>
      </trkpt>
      <trkpt lat="37.97862203" lon="-2.51849569">
        <ele>1328.0000</ele>
        <time>2018-10-14T09:14:07Z</time>
      </trkpt>
      <trkpt lat="37.97867895" lon="-2.51848831">
        <ele>1328.0000</ele>
        <time>2018-10-14T09:14:08Z</time>
      </trkpt>
      <trkpt lat="37.97892043" lon="-2.51835110">
        <ele>1327.0000</ele>
        <time>2018-10-14T09:14:12Z</time>
      </trkpt>
      <trkpt lat="37.97904800" lon="-2.51825161">
        <ele>1326.0000</ele>
        <time>2018-10-14T09:14:14Z</time>
      </trkpt>
      <trkpt lat="37.97911975" lon="-2.51820811">
        <ele>1325.0000</ele>
        <time>2018-10-14T09:14:15Z</time>
      </trkpt>
      <trkpt lat="37.97927775" lon="-2.51814792">
        <ele>1324.0000</ele>
        <time>2018-10-14T09:14:17Z</time>
      </trkpt>
      <trkpt lat="37.97944706" lon="-2.51811599">
        <ele>1323.0000</ele>
        <time>2018-10-14T09:14:19Z</time>
      </trkpt>
      <trkpt lat="37.97962518" lon="-2.51810224">
        <ele>1322.0000</ele>
        <time>2018-10-14T09:14:21Z</time>
      </trkpt>
      <trkpt lat="37.97980053" lon="-2.51809604">
        <ele>1320.0000</ele>
        <time>2018-10-14T09:14:23Z</time>
      </trkpt>
      <trkpt lat="37.97995383" lon="-2.51807584">
        <ele>1319.0000</ele>
        <time>2018-10-14T09:14:25Z</time>
      </trkpt>
      <trkpt lat="37.98006825" lon="-2.51800107">
        <ele>1318.0000</ele>
        <time>2018-10-14T09:14:27Z</time>
      </trkpt>
      <trkpt lat="37.98010119" lon="-2.51778046">
        <ele>1317.0000</ele>
        <time>2018-10-14T09:14:30Z</time>
      </trkpt>
      <trkpt lat="37.97980128" lon="-2.51767451">
        <ele>1316.0000</ele>
        <time>2018-10-14T09:14:35Z</time>
      </trkpt>
      <trkpt lat="37.97972828" lon="-2.51769907">
        <ele>1315.0000</ele>
        <time>2018-10-14T09:14:36Z</time>
      </trkpt>
      <trkpt lat="37.97949451" lon="-2.51776705">
        <ele>1314.0000</ele>
        <time>2018-10-14T09:14:39Z</time>
      </trkpt>
      <trkpt lat="37.97932787" lon="-2.51780963">
        <ele>1313.0000</ele>
        <time>2018-10-14T09:14:41Z</time>
      </trkpt>
      <trkpt lat="37.97915420" lon="-2.51783402">
        <ele>1312.0000</ele>
        <time>2018-10-14T09:14:43Z</time>
      </trkpt>
      <trkpt lat="37.97887785" lon="-2.51780837">
        <ele>1311.0000</ele>
        <time>2018-10-14T09:14:46Z</time>
      </trkpt>
      <trkpt lat="37.97858616" lon="-2.51775708">
        <ele>1309.0000</ele>
        <time>2018-10-14T09:14:49Z</time>
      </trkpt>
      <trkpt lat="37.97838734" lon="-2.51772564">
        <ele>1308.0000</ele>
        <time>2018-10-14T09:14:51Z</time>
      </trkpt>
      <trkpt lat="37.97820034" lon="-2.51767175">
        <ele>1307.0000</ele>
        <time>2018-10-14T09:14:53Z</time>
      </trkpt>
      <trkpt lat="37.97803857" lon="-2.51756370">
        <ele>1305.0000</ele>
        <time>2018-10-14T09:14:55Z</time>
      </trkpt>
      <trkpt lat="37.97790991" lon="-2.51739883">
        <ele>1304.0000</ele>
        <time>2018-10-14T09:14:57Z</time>
      </trkpt>
      <trkpt lat="37.97781762" lon="-2.51718501">
        <ele>1303.0000</ele>
        <time>2018-10-14T09:14:59Z</time>
      </trkpt>
      <trkpt lat="37.97778217" lon="-2.51706473">
        <ele>1302.0000</ele>
        <time>2018-10-14T09:15:00Z</time>
      </trkpt>
      <trkpt lat="37.97771276" lon="-2.51681713">
        <ele>1302.0000</ele>
        <time>2018-10-14T09:15:02Z</time>
      </trkpt>
      <trkpt lat="37.97763280" lon="-2.51659308">
        <ele>1301.0000</ele>
        <time>2018-10-14T09:15:04Z</time>
      </trkpt>
      <trkpt lat="37.97758100" lon="-2.51649627">
        <ele>1300.0000</ele>
        <time>2018-10-14T09:15:05Z</time>
      </trkpt>
      <trkpt lat="37.97751998" lon="-2.51641161">
        <ele>1299.0000</ele>
        <time>2018-10-14T09:15:06Z</time>
      </trkpt>
      <trkpt lat="37.97736969" lon="-2.51626778">
        <ele>1298.0000</ele>
        <time>2018-10-14T09:15:08Z</time>
      </trkpt>
      <trkpt lat="37.97718772" lon="-2.51615395">
        <ele>1296.0000</ele>
        <time>2018-10-14T09:15:10Z</time>
      </trkpt>
      <trkpt lat="37.97708932" lon="-2.51610467">
        <ele>1296.0000</ele>
        <time>2018-10-14T09:15:11Z</time>
      </trkpt>
      <trkpt lat="37.97698974" lon="-2.51605655">
        <ele>1295.0000</ele>
        <time>2018-10-14T09:15:12Z</time>
      </trkpt>
      <trkpt lat="37.97680844" lon="-2.51596888">
        <ele>1294.0000</ele>
        <time>2018-10-14T09:15:14Z</time>
      </trkpt>
      <trkpt lat="37.97666863" lon="-2.51589621">
        <ele>1293.0000</ele>
        <time>2018-10-14T09:15:16Z</time>
      </trkpt>
      <trkpt lat="37.97661465" lon="-2.51585623">
        <ele>1292.0000</ele>
        <time>2018-10-14T09:15:17Z</time>
      </trkpt>
      <trkpt lat="37.97657283" lon="-2.51580527">
        <ele>1291.0000</ele>
        <time>2018-10-14T09:15:18Z</time>
      </trkpt>
      <trkpt lat="37.97654709" lon="-2.51574156">
        <ele>1289.0000</ele>
        <time>2018-10-14T09:15:19Z</time>
      </trkpt>
      <trkpt lat="37.97655430" lon="-2.51559144">
        <ele>1288.0000</ele>
        <time>2018-10-14T09:15:21Z</time>
      </trkpt>
      <trkpt lat="37.97680249" lon="-2.51541073">
        <ele>1287.0000</ele>
        <time>2018-10-14T09:15:25Z</time>
      </trkpt>
      <trkpt lat="37.97688974" lon="-2.51540159">
        <ele>1287.0000</ele>
        <time>2018-10-14T09:15:26Z</time>
      </trkpt>
      <trkpt lat="37.97716459" lon="-2.51538131">
        <ele>1286.0000</ele>
        <time>2018-10-14T09:15:29Z</time>
      </trkpt>
      <trkpt lat="37.97725553" lon="-2.51536404">
        <ele>1285.0000</ele>
        <time>2018-10-14T09:15:30Z</time>
      </trkpt>
      <trkpt lat="37.97734530" lon="-2.51533362">
        <ele>1284.0000</ele>
        <time>2018-10-14T09:15:31Z</time>
      </trkpt>
      <trkpt lat="37.97751596" lon="-2.51522717">
        <ele>1282.0000</ele>
        <time>2018-10-14T09:15:33Z</time>
      </trkpt>
      <trkpt lat="37.97759961" lon="-2.51516212">
        <ele>1281.0000</ele>
        <time>2018-10-14T09:15:34Z</time>
      </trkpt>
      <trkpt lat="37.97768041" lon="-2.51509859">
        <ele>1280.0000</ele>
        <time>2018-10-14T09:15:35Z</time>
      </trkpt>
      <trkpt lat="37.97775316" lon="-2.51503991">
        <ele>1279.0000</ele>
        <time>2018-10-14T09:15:36Z</time>
      </trkpt>
      <trkpt lat="37.97786699" lon="-2.51492802">
        <ele>1278.0000</ele>
        <time>2018-10-14T09:15:38Z</time>
      </trkpt>
      <trkpt lat="37.97791846" lon="-2.51479474">
        <ele>1276.0000</ele>
        <time>2018-10-14T09:15:40Z</time>
      </trkpt>
      <trkpt lat="37.97791644" lon="-2.51472584">
        <ele>1275.0000</ele>
        <time>2018-10-14T09:15:41Z</time>
      </trkpt>
      <trkpt lat="37.97787738" lon="-2.51461948">
        <ele>1275.0000</ele>
        <time>2018-10-14T09:15:43Z</time>
      </trkpt>
      <trkpt lat="37.97784863" lon="-2.51456500">
        <ele>1275.0000</ele>
        <time>2018-10-14T09:15:44Z</time>
      </trkpt>
      <trkpt lat="37.97777940" lon="-2.51445972">
        <ele>1275.0000</ele>
        <time>2018-10-14T09:15:46Z</time>
      </trkpt>
      <trkpt lat="37.97773690" lon="-2.51441286">
        <ele>1275.0000</ele>
        <time>2018-10-14T09:15:47Z</time>
      </trkpt>
      <trkpt lat="37.97758947" lon="-2.51432360">
        <ele>1275.0000</ele>
        <time>2018-10-14T09:15:50Z</time>
      </trkpt>
      <trkpt lat="37.97745016" lon="-2.51425973">
        <ele>1275.0000</ele>
        <time>2018-10-14T09:15:53Z</time>
      </trkpt>
      <trkpt lat="37.97732996" lon="-2.51420365">
        <ele>1276.0000</ele>
        <time>2018-10-14T09:15:56Z</time>
      </trkpt>
      <trkpt lat="37.97725629" lon="-2.51416937">
        <ele>1277.0000</ele>
        <time>2018-10-14T09:15:58Z</time>
      </trkpt>
      <trkpt lat="37.97709376" lon="-2.51408723">
        <ele>1278.0000</ele>
        <time>2018-10-14T09:16:03Z</time>
      </trkpt>
      <trkpt lat="37.97700542" lon="-2.51404096">
        <ele>1279.0000</ele>
        <time>2018-10-14T09:16:06Z</time>
      </trkpt>
      <trkpt lat="37.97688086" lon="-2.51392185">
        <ele>1280.0000</ele>
        <time>2018-10-14T09:16:11Z</time>
      </trkpt>
      <trkpt lat="37.97673644" lon="-2.51373628">
        <ele>1281.0000</ele>
        <time>2018-10-14T09:16:17Z</time>
      </trkpt>
      <trkpt lat="37.97671331" lon="-2.51370367">
        <ele>1281.0000</ele>
        <time>2018-10-14T09:16:18Z</time>
      </trkpt>
      <trkpt lat="37.97653519" lon="-2.51349362">
        <ele>1282.0000</ele>
        <time>2018-10-14T09:16:25Z</time>
      </trkpt>
      <trkpt lat="37.97639966" lon="-2.51337016">
        <ele>1283.0000</ele>
        <time>2018-10-14T09:16:30Z</time>
      </trkpt>
      <trkpt lat="37.97631927" lon="-2.51329983">
        <ele>1284.0000</ele>
        <time>2018-10-14T09:16:33Z</time>
      </trkpt>
      <trkpt lat="37.97621408" lon="-2.51320637">
        <ele>1285.0000</ele>
        <time>2018-10-14T09:16:37Z</time>
      </trkpt>
      <trkpt lat="37.97600596" lon="-2.51300839">
        <ele>1286.0000</ele>
        <time>2018-10-14T09:16:45Z</time>
      </trkpt>
      <trkpt lat="37.97597955" lon="-2.51298442">
        <ele>1286.0000</ele>
        <time>2018-10-14T09:16:46Z</time>
      </trkpt>
      <trkpt lat="37.97585089" lon="-2.51285551">
        <ele>1287.0000</ele>
        <time>2018-10-14T09:16:51Z</time>
      </trkpt>
      <trkpt lat="37.97572349" lon="-2.51267538">
        <ele>1288.0000</ele>
        <time>2018-10-14T09:16:57Z</time>
      </trkpt>
      <trkpt lat="37.97562802" lon="-2.51248100">
        <ele>1289.0000</ele>
        <time>2018-10-14T09:17:03Z</time>
      </trkpt>
      <trkpt lat="37.97556909" lon="-2.51231487">
        <ele>1290.0000</ele>
        <time>2018-10-14T09:17:08Z</time>
      </trkpt>
      <trkpt lat="37.97553154" lon="-2.51218512">
        <ele>1292.0000</ele>
        <time>2018-10-14T09:17:12Z</time>
      </trkpt>
      <trkpt lat="37.97549592" lon="-2.51202411">
        <ele>1293.0000</ele>
        <time>2018-10-14T09:17:17Z</time>
      </trkpt>
      <trkpt lat="37.97545745" lon="-2.51183526">
        <ele>1294.0000</ele>
        <time>2018-10-14T09:17:23Z</time>
      </trkpt>
      <trkpt lat="37.97544186" lon="-2.51174306">
        <ele>1295.0000</ele>
        <time>2018-10-14T09:17:26Z</time>
      </trkpt>
      <trkpt lat="37.97542291" lon="-2.51165287">
        <ele>1296.0000</ele>
        <time>2018-10-14T09:17:29Z</time>
      </trkpt>
      <trkpt lat="37.97539056" lon="-2.51149982">
        <ele>1297.0000</ele>
        <time>2018-10-14T09:17:34Z</time>
      </trkpt>
      <trkpt lat="37.97536072" lon="-2.51135204">
        <ele>1298.0000</ele>
        <time>2018-10-14T09:17:39Z</time>
      </trkpt>
      <trkpt lat="37.97533566" lon="-2.51120092">
        <ele>1299.0000</ele>
        <time>2018-10-14T09:17:44Z</time>
      </trkpt>
      <trkpt lat="37.97532233" lon="-2.51107812">
        <ele>1300.0000</ele>
        <time>2018-10-14T09:17:48Z</time>
      </trkpt>
      <trkpt lat="37.97532065" lon="-2.51092365">
        <ele>1302.0000</ele>
        <time>2018-10-14T09:17:53Z</time>
      </trkpt>
      <trkpt lat="37.97533599" lon="-2.51073346">
        <ele>1303.0000</ele>
        <time>2018-10-14T09:17:59Z</time>
      </trkpt>
      <trkpt lat="37.97535552" lon="-2.51061150">
        <ele>1304.0000</ele>
        <time>2018-10-14T09:18:03Z</time>
      </trkpt>
      <trkpt lat="37.97538109" lon="-2.51043054">
        <ele>1305.0000</ele>
        <time>2018-10-14T09:18:09Z</time>
      </trkpt>
      <trkpt lat="37.97540850" lon="-2.51021630">
        <ele>1306.0000</ele>
        <time>2018-10-14T09:18:16Z</time>
      </trkpt>
      <trkpt lat="37.97545049" lon="-2.50997113">
        <ele>1307.0000</ele>
        <time>2018-10-14T09:18:24Z</time>
      </trkpt>
      <trkpt lat="37.97548737" lon="-2.50982528">
        <ele>1308.0000</ele>
        <time>2018-10-14T09:18:29Z</time>
      </trkpt>
      <trkpt lat="37.97551872" lon="-2.50974448">
        <ele>1310.0000</ele>
        <time>2018-10-14T09:18:32Z</time>
      </trkpt>
      <trkpt lat="37.97555124" lon="-2.50966091">
        <ele>1311.0000</ele>
        <time>2018-10-14T09:18:35Z</time>
      </trkpt>
      <trkpt lat="37.97566456" lon="-2.50940778">
        <ele>1312.0000</ele>
        <time>2018-10-14T09:18:44Z</time>
      </trkpt>
      <trkpt lat="37.97575576" lon="-2.50922145">
        <ele>1313.0000</ele>
        <time>2018-10-14T09:18:51Z</time>
      </trkpt>
      <trkpt lat="37.97583949" lon="-2.50905306">
        <ele>1314.0000</ele>
        <time>2018-10-14T09:18:57Z</time>
      </trkpt>
      <trkpt lat="37.97590185" lon="-2.50891241">
        <ele>1316.0000</ele>
        <time>2018-10-14T09:19:02Z</time>
      </trkpt>
      <trkpt lat="37.97598676" lon="-2.50871728">
        <ele>1317.0000</ele>
        <time>2018-10-14T09:19:09Z</time>
      </trkpt>
      <trkpt lat="37.97605231" lon="-2.50857973">
        <ele>1318.0000</ele>
        <time>2018-10-14T09:19:14Z</time>
      </trkpt>
      <trkpt lat="37.97611534" lon="-2.50844243">
        <ele>1319.0000</ele>
        <time>2018-10-14T09:19:19Z</time>
      </trkpt>
      <trkpt lat="37.97618768" lon="-2.50827999">
        <ele>1320.0000</ele>
        <time>2018-10-14T09:19:25Z</time>
      </trkpt>
      <trkpt lat="37.97626479" lon="-2.50807975">
        <ele>1321.0000</ele>
        <time>2018-10-14T09:19:32Z</time>
      </trkpt>
      <trkpt lat="37.97631198" lon="-2.50793416">
        <ele>1322.0000</ele>
        <time>2018-10-14T09:19:37Z</time>
      </trkpt>
      <trkpt lat="37.97635884" lon="-2.50775210">
        <ele>1323.0000</ele>
        <time>2018-10-14T09:19:43Z</time>
      </trkpt>
      <trkpt lat="37.97638323" lon="-2.50762972">
        <ele>1324.0000</ele>
        <time>2018-10-14T09:19:47Z</time>
      </trkpt>
      <trkpt lat="37.97643679" lon="-2.50737491">
        <ele>1325.0000</ele>
        <time>2018-10-14T09:19:55Z</time>
      </trkpt>
      <trkpt lat="37.97646705" lon="-2.50711357">
        <ele>1326.0000</ele>
        <time>2018-10-14T09:20:03Z</time>
      </trkpt>
      <trkpt lat="37.97646746" lon="-2.50689807">
        <ele>1327.0000</ele>
        <time>2018-10-14T09:20:09Z</time>
      </trkpt>
      <trkpt lat="37.97645690" lon="-2.50659037">
        <ele>1329.0000</ele>
        <time>2018-10-14T09:20:17Z</time>
      </trkpt>
      <trkpt lat="37.97646990" lon="-2.50631754">
        <ele>1330.0000</ele>
        <time>2018-10-14T09:20:23Z</time>
      </trkpt>
      <trkpt lat="37.97658481" lon="-2.50590984">
        <ele>1330.0000</ele>
        <time>2018-10-14T09:20:30Z</time>
      </trkpt>
      <trkpt lat="37.97664692" lon="-2.50571739">
        <ele>1330.0000</ele>
        <time>2018-10-14T09:20:33Z</time>
      </trkpt>
      <trkpt lat="37.97670979" lon="-2.50552587">
        <ele>1329.0000</ele>
        <time>2018-10-14T09:20:36Z</time>
      </trkpt>
      <trkpt lat="37.97675304" lon="-2.50539813">
        <ele>1329.0000</ele>
        <time>2018-10-14T09:20:38Z</time>
      </trkpt>
      <trkpt lat="37.97692327" lon="-2.50473554">
        <ele>1328.0000</ele>
        <time>2018-10-14T09:20:48Z</time>
      </trkpt>
      <trkpt lat="37.97694850" lon="-2.50403783">
        <ele>1328.0000</ele>
        <time>2018-10-14T09:20:58Z</time>
      </trkpt>
      <trkpt lat="37.97685697" lon="-2.50331841">
        <ele>1328.0000</ele>
        <time>2018-10-14T09:21:08Z</time>
      </trkpt>
      <trkpt lat="37.97682646" lon="-2.50305916">
        <ele>1328.0000</ele>
        <time>2018-10-14T09:21:11Z</time>
      </trkpt>
      <trkpt lat="37.97675547" lon="-2.50266571">
        <ele>1328.0000</ele>
        <time>2018-10-14T09:21:15Z</time>
      </trkpt>
      <trkpt lat="37.97669881" lon="-2.50247687">
        <ele>1327.0000</ele>
        <time>2018-10-14T09:21:17Z</time>
      </trkpt>
      <trkpt lat="37.97664172" lon="-2.50229925">
        <ele>1327.0000</ele>
        <time>2018-10-14T09:21:19Z</time>
      </trkpt>
      <trkpt lat="37.97658657" lon="-2.50212801">
        <ele>1325.0000</ele>
        <time>2018-10-14T09:21:21Z</time>
      </trkpt>
      <trkpt lat="37.97650862" lon="-2.50188192">
        <ele>1324.0000</ele>
        <time>2018-10-14T09:21:24Z</time>
      </trkpt>
      <trkpt lat="37.97645917" lon="-2.50172032">
        <ele>1324.0000</ele>
        <time>2018-10-14T09:21:26Z</time>
      </trkpt>
      <trkpt lat="37.97636604" lon="-2.50139024">
        <ele>1324.0000</ele>
        <time>2018-10-14T09:21:30Z</time>
      </trkpt>
      <trkpt lat="37.97631542" lon="-2.50113526">
        <ele>1324.0000</ele>
        <time>2018-10-14T09:21:33Z</time>
      </trkpt>
      <trkpt lat="37.97633880" lon="-2.50068448">
        <ele>1324.0000</ele>
        <time>2018-10-14T09:21:38Z</time>
      </trkpt>
      <trkpt lat="37.97637803" lon="-2.50038826">
        <ele>1324.0000</ele>
        <time>2018-10-14T09:21:41Z</time>
      </trkpt>
      <trkpt lat="37.97638541" lon="-2.50028332">
        <ele>1324.0000</ele>
        <time>2018-10-14T09:21:42Z</time>
      </trkpt>
      <trkpt lat="37.97637049" lon="-2.49995584">
        <ele>1324.0000</ele>
        <time>2018-10-14T09:21:45Z</time>
      </trkpt>
      <trkpt lat="37.97636051" lon="-2.49960347">
        <ele>1323.0000</ele>
        <time>2018-10-14T09:21:48Z</time>
      </trkpt>
      <trkpt lat="37.97638876" lon="-2.49921136">
        <ele>1321.0000</ele>
        <time>2018-10-14T09:21:51Z</time>
      </trkpt>
      <trkpt lat="37.97640477" lon="-2.49892688">
        <ele>1320.0000</ele>
        <time>2018-10-14T09:21:53Z</time>
      </trkpt>
      <trkpt lat="37.97641776" lon="-2.49864676">
        <ele>1319.0000</ele>
        <time>2018-10-14T09:21:55Z</time>
      </trkpt>
      <trkpt lat="37.97642832" lon="-2.49838558">
        <ele>1318.0000</ele>
        <time>2018-10-14T09:21:57Z</time>
      </trkpt>
      <trkpt lat="37.97642497" lon="-2.49826236">
        <ele>1317.0000</ele>
        <time>2018-10-14T09:21:58Z</time>
      </trkpt>
      <trkpt lat="37.97640812" lon="-2.49814225">
        <ele>1315.0000</ele>
        <time>2018-10-14T09:21:59Z</time>
      </trkpt>
      <trkpt lat="37.97637652" lon="-2.49802608">
        <ele>1313.0000</ele>
        <time>2018-10-14T09:22:00Z</time>
      </trkpt>
      <trkpt lat="37.97633386" lon="-2.49791359">
        <ele>1312.0000</ele>
        <time>2018-10-14T09:22:01Z</time>
      </trkpt>
      <trkpt lat="37.97628608" lon="-2.49780312">
        <ele>1310.0000</ele>
        <time>2018-10-14T09:22:02Z</time>
      </trkpt>
      <trkpt lat="37.97619774" lon="-2.49757957">
        <ele>1309.0000</ele>
        <time>2018-10-14T09:22:04Z</time>
      </trkpt>
      <trkpt lat="37.97616555" lon="-2.49746818">
        <ele>1308.0000</ele>
        <time>2018-10-14T09:22:05Z</time>
      </trkpt>
      <trkpt lat="37.97614845" lon="-2.49735225">
        <ele>1308.0000</ele>
        <time>2018-10-14T09:22:06Z</time>
      </trkpt>
      <trkpt lat="37.97616077" lon="-2.49711354">
        <ele>1306.0000</ele>
        <time>2018-10-14T09:22:08Z</time>
      </trkpt>
      <trkpt lat="37.97617888" lon="-2.49699569">
        <ele>1306.0000</ele>
        <time>2018-10-14T09:22:09Z</time>
      </trkpt>
      <trkpt lat="37.97628533" lon="-2.49633444">
        <ele>1305.0000</ele>
        <time>2018-10-14T09:22:15Z</time>
      </trkpt>
      <trkpt lat="37.97631584" lon="-2.49613151">
        <ele>1305.0000</ele>
        <time>2018-10-14T09:22:17Z</time>
      </trkpt>
      <trkpt lat="37.97634936" lon="-2.49593496">
        <ele>1305.0000</ele>
        <time>2018-10-14T09:22:19Z</time>
      </trkpt>
      <trkpt lat="37.97644995" lon="-2.49557051">
        <ele>1305.0000</ele>
        <time>2018-10-14T09:22:23Z</time>
      </trkpt>
      <trkpt lat="37.97655439" lon="-2.49523859">
        <ele>1306.0000</ele>
        <time>2018-10-14T09:22:27Z</time>
      </trkpt>
      <trkpt lat="37.97660753" lon="-2.49508227">
        <ele>1306.0000</ele>
        <time>2018-10-14T09:22:29Z</time>
      </trkpt>
      <trkpt lat="37.97674633" lon="-2.49464825">
        <ele>1307.0000</ele>
        <time>2018-10-14T09:22:35Z</time>
      </trkpt>
      <trkpt lat="37.97678120" lon="-2.49451205">
        <ele>1309.0000</ele>
        <time>2018-10-14T09:22:37Z</time>
      </trkpt>
      <trkpt lat="37.97685370" lon="-2.49411248">
        <ele>1310.0000</ele>
        <time>2018-10-14T09:22:43Z</time>
      </trkpt>
      <trkpt lat="37.97686636" lon="-2.49375139">
        <ele>1311.0000</ele>
        <time>2018-10-14T09:22:49Z</time>
      </trkpt>
      <trkpt lat="37.97687089" lon="-2.49369632">
        <ele>1311.0000</ele>
        <time>2018-10-14T09:22:50Z</time>
      </trkpt>
      <trkpt lat="37.97690056" lon="-2.49344377">
        <ele>1312.0000</ele>
        <time>2018-10-14T09:22:55Z</time>
      </trkpt>
      <trkpt lat="37.97693425" lon="-2.49330488">
        <ele>1314.0000</ele>
        <time>2018-10-14T09:22:58Z</time>
      </trkpt>
      <trkpt lat="37.97700122" lon="-2.49313062">
        <ele>1315.0000</ele>
        <time>2018-10-14T09:23:02Z</time>
      </trkpt>
      <trkpt lat="37.97707356" lon="-2.49295695">
        <ele>1316.0000</ele>
        <time>2018-10-14T09:23:06Z</time>
      </trkpt>
      <trkpt lat="37.97719275" lon="-2.49269569">
        <ele>1317.0000</ele>
        <time>2018-10-14T09:23:12Z</time>
      </trkpt>
      <trkpt lat="37.97730188" lon="-2.49229948">
        <ele>1317.0000</ele>
        <time>2018-10-14T09:23:20Z</time>
      </trkpt>
      <trkpt lat="37.97731974" lon="-2.49208565">
        <ele>1318.0000</ele>
        <time>2018-10-14T09:23:24Z</time>
      </trkpt>
      <trkpt lat="37.97734128" lon="-2.49149632">
        <ele>1319.0000</ele>
        <time>2018-10-14T09:23:35Z</time>
      </trkpt>
      <trkpt lat="37.97731756" lon="-2.49085343">
        <ele>1320.0000</ele>
        <time>2018-10-14T09:23:47Z</time>
      </trkpt>
      <trkpt lat="37.97730155" lon="-2.49046560">
        <ele>1321.0000</ele>
        <time>2018-10-14T09:23:55Z</time>
      </trkpt>
      <trkpt lat="37.97729694" lon="-2.49029469">
        <ele>1322.0000</ele>
        <time>2018-10-14T09:23:59Z</time>
      </trkpt>
      <trkpt lat="37.97729040" lon="-2.49008665">
        <ele>1324.0000</ele>
        <time>2018-10-14T09:24:04Z</time>
      </trkpt>
      <trkpt lat="37.97728705" lon="-2.48988591">
        <ele>1325.0000</ele>
        <time>2018-10-14T09:24:09Z</time>
      </trkpt>
      <trkpt lat="37.97731496" lon="-2.48970067">
        <ele>1326.0000</ele>
        <time>2018-10-14T09:24:14Z</time>
      </trkpt>
      <trkpt lat="37.97735963" lon="-2.48956639">
        <ele>1327.0000</ele>
        <time>2018-10-14T09:24:18Z</time>
      </trkpt>
      <trkpt lat="37.97741102" lon="-2.48948458">
        <ele>1328.0000</ele>
        <time>2018-10-14T09:24:21Z</time>
      </trkpt>
      <trkpt lat="37.97749651" lon="-2.48936790">
        <ele>1329.0000</ele>
        <time>2018-10-14T09:24:26Z</time>
      </trkpt>
      <trkpt lat="37.97758494" lon="-2.48923639">
        <ele>1331.0000</ele>
        <time>2018-10-14T09:24:31Z</time>
      </trkpt>
      <trkpt lat="37.97771955" lon="-2.48906565">
        <ele>1332.0000</ele>
        <time>2018-10-14T09:24:38Z</time>
      </trkpt>
      <trkpt lat="37.97784872" lon="-2.48888595">
        <ele>1333.0000</ele>
        <time>2018-10-14T09:24:45Z</time>
      </trkpt>
      <trkpt lat="37.97799456" lon="-2.48867673">
        <ele>1334.0000</ele>
        <time>2018-10-14T09:24:53Z</time>
      </trkpt>
      <trkpt lat="37.97811057" lon="-2.48852108">
        <ele>1335.0000</ele>
        <time>2018-10-14T09:24:59Z</time>
      </trkpt>
      <trkpt lat="37.97822272" lon="-2.48836719">
        <ele>1336.0000</ele>
        <time>2018-10-14T09:25:05Z</time>
      </trkpt>
      <trkpt lat="37.97833411" lon="-2.48821271">
        <ele>1337.0000</ele>
        <time>2018-10-14T09:25:11Z</time>
      </trkpt>
      <trkpt lat="37.97846294" lon="-2.48803912">
        <ele>1338.0000</ele>
        <time>2018-10-14T09:25:18Z</time>
      </trkpt>
      <trkpt lat="37.97857820" lon="-2.48788079">
        <ele>1339.0000</ele>
        <time>2018-10-14T09:25:24Z</time>
      </trkpt>
      <trkpt lat="37.97870133" lon="-2.48772312">
        <ele>1340.0000</ele>
        <time>2018-10-14T09:25:30Z</time>
      </trkpt>
      <trkpt lat="37.97879738" lon="-2.48758449">
        <ele>1341.0000</ele>
        <time>2018-10-14T09:25:35Z</time>
      </trkpt>
      <trkpt lat="37.97891750" lon="-2.48742842">
        <ele>1342.0000</ele>
        <time>2018-10-14T09:25:41Z</time>
      </trkpt>
      <trkpt lat="37.97903208" lon="-2.48726631">
        <ele>1344.0000</ele>
        <time>2018-10-14T09:25:47Z</time>
      </trkpt>
      <trkpt lat="37.97913794" lon="-2.48714595">
        <ele>1345.0000</ele>
        <time>2018-10-14T09:25:52Z</time>
      </trkpt>
      <trkpt lat="37.97924330" lon="-2.48701242">
        <ele>1346.0000</ele>
        <time>2018-10-14T09:25:57Z</time>
      </trkpt>
      <trkpt lat="37.97937171" lon="-2.48687571">
        <ele>1347.0000</ele>
        <time>2018-10-14T09:26:02Z</time>
      </trkpt>
      <trkpt lat="37.97950188" lon="-2.48673171">
        <ele>1348.0000</ele>
        <time>2018-10-14T09:26:08Z</time>
      </trkpt>
      <trkpt lat="37.97951797" lon="-2.48671570">
        <ele>1348.0000</ele>
        <time>2018-10-14T09:26:09Z</time>
      </trkpt>
      <trkpt lat="37.97953331" lon="-2.48671285">
        <ele>1348.0000</ele>
        <time>2018-10-14T09:26:10Z</time>
      </trkpt>
      <trkpt lat="37.97953591" lon="-2.48675459">
        <ele>1349.0000</ele>
        <time>2018-10-14T09:26:15Z</time>
      </trkpt>
      <trkpt lat="37.97953700" lon="-2.48675510">
        <ele>1349.0000</ele>
        <time>2018-10-14T09:26:16Z</time>
      </trkpt>
      <trkpt lat="37.97958914" lon="-2.48668938">
        <ele>1350.0000</ele>
        <time>2018-10-14T09:27:58Z</time>
      </trkpt>
      <trkpt lat="37.97960481" lon="-2.48666608">
        <ele>1350.0000</ele>
        <time>2018-10-14T09:27:59Z</time>
      </trkpt>
      <trkpt lat="37.97974118" lon="-2.48648931">
        <ele>1350.0000</ele>
        <time>2018-10-14T09:28:08Z</time>
      </trkpt>
      <trkpt lat="37.97985736" lon="-2.48635327">
        <ele>1351.0000</ele>
        <time>2018-10-14T09:28:14Z</time>
      </trkpt>
      <trkpt lat="37.97998510" lon="-2.48621623">
        <ele>1351.0000</ele>
        <time>2018-10-14T09:28:21Z</time>
      </trkpt>
      <trkpt lat="37.98004880" lon="-2.48614045">
        <ele>1352.0000</ele>
        <time>2018-10-14T09:28:24Z</time>
      </trkpt>
      <trkpt lat="37.98037519" lon="-2.48578271">
        <ele>1353.0000</ele>
        <time>2018-10-14T09:28:39Z</time>
      </trkpt>
      <trkpt lat="37.98052565" lon="-2.48561097">
        <ele>1354.0000</ele>
        <time>2018-10-14T09:28:46Z</time>
      </trkpt>
      <trkpt lat="37.98082195" lon="-2.48520880">
        <ele>1355.0000</ele>
        <time>2018-10-14T09:29:00Z</time>
      </trkpt>
      <trkpt lat="37.98113929" lon="-2.48470438">
        <ele>1355.0000</ele>
        <time>2018-10-14T09:29:14Z</time>
      </trkpt>
      <trkpt lat="37.98130575" lon="-2.48444144">
        <ele>1356.0000</ele>
        <time>2018-10-14T09:29:21Z</time>
      </trkpt>
      <trkpt lat="37.98150809" lon="-2.48409326">
        <ele>1356.0000</ele>
        <time>2018-10-14T09:29:29Z</time>
      </trkpt>
      <trkpt lat="37.98156039" lon="-2.48386560">
        <ele>1356.0000</ele>
        <time>2018-10-14T09:29:33Z</time>
      </trkpt>
      <trkpt lat="37.98159183" lon="-2.48316035">
        <ele>1356.0000</ele>
        <time>2018-10-14T09:29:44Z</time>
      </trkpt>
      <trkpt lat="37.98161680" lon="-2.48244839">
        <ele>1356.0000</ele>
        <time>2018-10-14T09:29:54Z</time>
      </trkpt>
      <trkpt lat="37.98161370" lon="-2.48237346">
        <ele>1356.0000</ele>
        <time>2018-10-14T09:29:55Z</time>
      </trkpt>
      <trkpt lat="37.98158696" lon="-2.48221747">
        <ele>1356.0000</ele>
        <time>2018-10-14T09:29:57Z</time>
      </trkpt>
      <trkpt lat="37.98154396" lon="-2.48195914">
        <ele>1355.0000</ele>
        <time>2018-10-14T09:30:00Z</time>
      </trkpt>
      <trkpt lat="37.98148110" lon="-2.48148648">
        <ele>1354.0000</ele>
        <time>2018-10-14T09:30:05Z</time>
      </trkpt>
      <trkpt lat="37.98146551" lon="-2.48138733">
        <ele>1353.0000</ele>
        <time>2018-10-14T09:30:06Z</time>
      </trkpt>
      <trkpt lat="37.98143106" lon="-2.48118457">
        <ele>1352.0000</ele>
        <time>2018-10-14T09:30:08Z</time>
      </trkpt>
      <trkpt lat="37.98130986" lon="-2.48078618">
        <ele>1351.0000</ele>
        <time>2018-10-14T09:30:12Z</time>
      </trkpt>
      <trkpt lat="37.98119670" lon="-2.48048233">
        <ele>1350.0000</ele>
        <time>2018-10-14T09:30:15Z</time>
      </trkpt>
      <trkpt lat="37.98111137" lon="-2.48026574">
        <ele>1349.0000</ele>
        <time>2018-10-14T09:30:17Z</time>
      </trkpt>
      <trkpt lat="37.98096503" lon="-2.47990624">
        <ele>1347.0000</ele>
        <time>2018-10-14T09:30:20Z</time>
      </trkpt>
      <trkpt lat="37.98080619" lon="-2.47951129">
        <ele>1346.0000</ele>
        <time>2018-10-14T09:30:23Z</time>
      </trkpt>
      <trkpt lat="37.98069622" lon="-2.47923410">
        <ele>1344.0000</ele>
        <time>2018-10-14T09:30:25Z</time>
      </trkpt>
      <trkpt lat="37.98063889" lon="-2.47909261">
        <ele>1343.0000</ele>
        <time>2018-10-14T09:30:26Z</time>
      </trkpt>
      <trkpt lat="37.98058038" lon="-2.47894953">
        <ele>1341.0000</ele>
        <time>2018-10-14T09:30:27Z</time>
      </trkpt>
      <trkpt lat="37.98052171" lon="-2.47880578">
        <ele>1340.0000</ele>
        <time>2018-10-14T09:30:28Z</time>
      </trkpt>
      <trkpt lat="37.98046303" lon="-2.47866170">
        <ele>1338.0000</ele>
        <time>2018-10-14T09:30:29Z</time>
      </trkpt>
      <trkpt lat="37.98040470" lon="-2.47851669">
        <ele>1336.0000</ele>
        <time>2018-10-14T09:30:30Z</time>
      </trkpt>
      <trkpt lat="37.98034736" lon="-2.47837194">
        <ele>1334.0000</ele>
        <time>2018-10-14T09:30:31Z</time>
      </trkpt>
      <trkpt lat="37.98029062" lon="-2.47822836">
        <ele>1333.0000</ele>
        <time>2018-10-14T09:30:32Z</time>
      </trkpt>
      <trkpt lat="37.98017939" lon="-2.47794505">
        <ele>1332.0000</ele>
        <time>2018-10-14T09:30:34Z</time>
      </trkpt>
      <trkpt lat="37.98007319" lon="-2.47766903">
        <ele>1330.0000</ele>
        <time>2018-10-14T09:30:36Z</time>
      </trkpt>
      <trkpt lat="37.97996792" lon="-2.47740282">
        <ele>1328.0000</ele>
        <time>2018-10-14T09:30:38Z</time>
      </trkpt>
      <trkpt lat="37.97976147" lon="-2.47689320">
        <ele>1327.0000</ele>
        <time>2018-10-14T09:30:42Z</time>
      </trkpt>
      <trkpt lat="37.97944413" lon="-2.47632910">
        <ele>1327.0000</ele>
        <time>2018-10-14T09:30:47Z</time>
      </trkpt>
      <trkpt lat="37.97904691" lon="-2.47581630">
        <ele>1326.0000</ele>
        <time>2018-10-14T09:30:52Z</time>
      </trkpt>
      <trkpt lat="37.97896653" lon="-2.47571127">
        <ele>1326.0000</ele>
        <time>2018-10-14T09:30:53Z</time>
      </trkpt>
      <trkpt lat="37.97871901" lon="-2.47539519">
        <ele>1324.0000</ele>
        <time>2018-10-14T09:30:56Z</time>
      </trkpt>
      <trkpt lat="37.97855372" lon="-2.47518028">
        <ele>1323.0000</ele>
        <time>2018-10-14T09:30:58Z</time>
      </trkpt>
      <trkpt lat="37.97838558" lon="-2.47495958">
        <ele>1322.0000</ele>
        <time>2018-10-14T09:31:00Z</time>
      </trkpt>
      <trkpt lat="37.97820889" lon="-2.47473000">
        <ele>1321.0000</ele>
        <time>2018-10-14T09:31:02Z</time>
      </trkpt>
      <trkpt lat="37.97803530" lon="-2.47450562">
        <ele>1320.0000</ele>
        <time>2018-10-14T09:31:04Z</time>
      </trkpt>
      <trkpt lat="37.97786984" lon="-2.47428853">
        <ele>1318.0000</ele>
        <time>2018-10-14T09:31:06Z</time>
      </trkpt>
      <trkpt lat="37.97778569" lon="-2.47417495">
        <ele>1317.0000</ele>
        <time>2018-10-14T09:31:07Z</time>
      </trkpt>
      <trkpt lat="37.97760900" lon="-2.47394805">
        <ele>1315.0000</ele>
        <time>2018-10-14T09:31:09Z</time>
      </trkpt>
      <trkpt lat="37.97741370" lon="-2.47374337">
        <ele>1313.0000</ele>
        <time>2018-10-14T09:31:11Z</time>
      </trkpt>
      <trkpt lat="37.97719879" lon="-2.47356031">
        <ele>1312.0000</ele>
        <time>2018-10-14T09:31:13Z</time>
      </trkpt>
      <trkpt lat="37.97697759" lon="-2.47338001">
        <ele>1309.0000</ele>
        <time>2018-10-14T09:31:15Z</time>
      </trkpt>
      <trkpt lat="37.97675522" lon="-2.47320466">
        <ele>1307.0000</ele>
        <time>2018-10-14T09:31:17Z</time>
      </trkpt>
      <trkpt lat="37.97664575" lon="-2.47311967">
        <ele>1306.0000</ele>
        <time>2018-10-14T09:31:18Z</time>
      </trkpt>
      <trkpt lat="37.97653745" lon="-2.47303719">
        <ele>1305.0000</ele>
        <time>2018-10-14T09:31:19Z</time>
      </trkpt>
      <trkpt lat="37.97633076" lon="-2.47287609">
        <ele>1303.0000</ele>
        <time>2018-10-14T09:31:21Z</time>
      </trkpt>
      <trkpt lat="37.97581971" lon="-2.47249530">
        <ele>1303.0000</ele>
        <time>2018-10-14T09:31:27Z</time>
      </trkpt>
      <trkpt lat="37.97560061" lon="-2.47251408">
        <ele>1303.0000</ele>
        <time>2018-10-14T09:31:30Z</time>
      </trkpt>
      <trkpt lat="37.97548620" lon="-2.47261458">
        <ele>1303.0000</ele>
        <time>2018-10-14T09:31:32Z</time>
      </trkpt>
      <trkpt lat="37.97544018" lon="-2.47268096">
        <ele>1304.0000</ele>
        <time>2018-10-14T09:31:33Z</time>
      </trkpt>
      <trkpt lat="37.97539735" lon="-2.47275145">
        <ele>1305.0000</ele>
        <time>2018-10-14T09:31:34Z</time>
      </trkpt>
      <trkpt lat="37.97530967" lon="-2.47288975">
        <ele>1306.0000</ele>
        <time>2018-10-14T09:31:36Z</time>
      </trkpt>
      <trkpt lat="37.97518017" lon="-2.47309980">
        <ele>1308.0000</ele>
        <time>2018-10-14T09:31:39Z</time>
      </trkpt>
      <trkpt lat="37.97500097" lon="-2.47336308">
        <ele>1309.0000</ele>
        <time>2018-10-14T09:31:43Z</time>
      </trkpt>
      <trkpt lat="37.97467047" lon="-2.47357481">
        <ele>1309.0000</ele>
        <time>2018-10-14T09:31:48Z</time>
      </trkpt>
      <trkpt lat="37.97435640" lon="-2.47371177">
        <ele>1308.0000</ele>
        <time>2018-10-14T09:31:52Z</time>
      </trkpt>
      <trkpt lat="37.97427392" lon="-2.47374697">
        <ele>1307.0000</ele>
        <time>2018-10-14T09:31:53Z</time>
      </trkpt>
      <trkpt lat="37.97418901" lon="-2.47378150">
        <ele>1305.0000</ele>
        <time>2018-10-14T09:31:54Z</time>
      </trkpt>
      <trkpt lat="37.97410234" lon="-2.47381545">
        <ele>1304.0000</ele>
        <time>2018-10-14T09:31:55Z</time>
      </trkpt>
      <trkpt lat="37.97401509" lon="-2.47385099">
        <ele>1303.0000</ele>
        <time>2018-10-14T09:31:56Z</time>
      </trkpt>
      <trkpt lat="37.97383689" lon="-2.47392643">
        <ele>1301.0000</ele>
        <time>2018-10-14T09:31:58Z</time>
      </trkpt>
      <trkpt lat="37.97355819" lon="-2.47401528">
        <ele>1300.0000</ele>
        <time>2018-10-14T09:32:01Z</time>
      </trkpt>
      <trkpt lat="37.97336096" lon="-2.47398049">
        <ele>1299.0000</ele>
        <time>2018-10-14T09:32:03Z</time>
      </trkpt>
      <trkpt lat="37.97326759" lon="-2.47392743">
        <ele>1299.0000</ele>
        <time>2018-10-14T09:32:04Z</time>
      </trkpt>
      <trkpt lat="37.97309408" lon="-2.47377907">
        <ele>1298.0000</ele>
        <time>2018-10-14T09:32:06Z</time>
      </trkpt>
      <trkpt lat="37.97291974" lon="-2.47361496">
        <ele>1296.0000</ele>
        <time>2018-10-14T09:32:08Z</time>
      </trkpt>
      <trkpt lat="37.97265177" lon="-2.47336300">
        <ele>1295.0000</ele>
        <time>2018-10-14T09:32:11Z</time>
      </trkpt>
      <trkpt lat="37.97237827" lon="-2.47310173">
        <ele>1294.0000</ele>
        <time>2018-10-14T09:32:14Z</time>
      </trkpt>
      <trkpt lat="37.97210192" lon="-2.47283209">
        <ele>1292.0000</ele>
        <time>2018-10-14T09:32:17Z</time>
      </trkpt>
      <trkpt lat="37.97191391" lon="-2.47265405">
        <ele>1290.0000</ele>
        <time>2018-10-14T09:32:19Z</time>
      </trkpt>
      <trkpt lat="37.97172456" lon="-2.47247418">
        <ele>1289.0000</ele>
        <time>2018-10-14T09:32:21Z</time>
      </trkpt>
      <trkpt lat="37.97153539" lon="-2.47228994">
        <ele>1288.0000</ele>
        <time>2018-10-14T09:32:23Z</time>
      </trkpt>
      <trkpt lat="37.97144033" lon="-2.47219758">
        <ele>1287.0000</ele>
        <time>2018-10-14T09:32:24Z</time>
      </trkpt>
      <trkpt lat="37.97106063" lon="-2.47185459">
        <ele>1285.0000</ele>
        <time>2018-10-14T09:32:28Z</time>
      </trkpt>
      <trkpt lat="37.97086676" lon="-2.47176524">
        <ele>1284.0000</ele>
        <time>2018-10-14T09:32:30Z</time>
      </trkpt>
      <trkpt lat="37.97051916" lon="-2.47165854">
        <ele>1283.0000</ele>
        <time>2018-10-14T09:32:34Z</time>
      </trkpt>
      <trkpt lat="37.97040693" lon="-2.47151914">
        <ele>1282.0000</ele>
        <time>2018-10-14T09:32:36Z</time>
      </trkpt>
      <trkpt lat="37.97032739" lon="-2.47119938">
        <ele>1281.0000</ele>
        <time>2018-10-14T09:32:39Z</time>
      </trkpt>
      <trkpt lat="37.97023124" lon="-2.47071582">
        <ele>1281.0000</ele>
        <time>2018-10-14T09:32:43Z</time>
      </trkpt>
      <trkpt lat="37.97017919" lon="-2.47045246">
        <ele>1280.0000</ele>
        <time>2018-10-14T09:32:45Z</time>
      </trkpt>
      <trkpt lat="37.97009705" lon="-2.47002624">
        <ele>1279.0000</ele>
        <time>2018-10-14T09:32:48Z</time>
      </trkpt>
      <trkpt lat="37.97005363" lon="-2.46972081">
        <ele>1278.0000</ele>
        <time>2018-10-14T09:32:50Z</time>
      </trkpt>
      <trkpt lat="37.97004533" lon="-2.46939718">
        <ele>1277.0000</ele>
        <time>2018-10-14T09:32:52Z</time>
      </trkpt>
      <trkpt lat="37.97005472" lon="-2.46906291">
        <ele>1275.0000</ele>
        <time>2018-10-14T09:32:54Z</time>
      </trkpt>
      <trkpt lat="37.97006009" lon="-2.46889318">
        <ele>1274.0000</ele>
        <time>2018-10-14T09:32:55Z</time>
      </trkpt>
      <trkpt lat="37.97006553" lon="-2.46872168">
        <ele>1272.0000</ele>
        <time>2018-10-14T09:32:56Z</time>
      </trkpt>
      <trkpt lat="37.97007140" lon="-2.46854860">
        <ele>1271.0000</ele>
        <time>2018-10-14T09:32:57Z</time>
      </trkpt>
      <trkpt lat="37.97008171" lon="-2.46837769">
        <ele>1270.0000</ele>
        <time>2018-10-14T09:32:58Z</time>
      </trkpt>
      <trkpt lat="37.97010191" lon="-2.46820871">
        <ele>1268.0000</ele>
        <time>2018-10-14T09:32:59Z</time>
      </trkpt>
      <trkpt lat="37.97017676" lon="-2.46787578">
        <ele>1266.0000</ele>
        <time>2018-10-14T09:33:01Z</time>
      </trkpt>
      <trkpt lat="37.97026519" lon="-2.46755962">
        <ele>1265.0000</ele>
        <time>2018-10-14T09:33:03Z</time>
      </trkpt>
      <trkpt lat="37.97032160" lon="-2.46726240">
        <ele>1263.0000</ele>
        <time>2018-10-14T09:33:05Z</time>
      </trkpt>
      <trkpt lat="37.97032973" lon="-2.46711160">
        <ele>1262.0000</ele>
        <time>2018-10-14T09:33:06Z</time>
      </trkpt>
      <trkpt lat="37.97032244" lon="-2.46680332">
        <ele>1260.0000</ele>
        <time>2018-10-14T09:33:08Z</time>
      </trkpt>
      <trkpt lat="37.97031942" lon="-2.46665513">
        <ele>1259.0000</ele>
        <time>2018-10-14T09:33:09Z</time>
      </trkpt>
      <trkpt lat="37.97031850" lon="-2.46639696">
        <ele>1257.0000</ele>
        <time>2018-10-14T09:33:11Z</time>
      </trkpt>
      <trkpt lat="37.97032546" lon="-2.46628222">
        <ele>1257.0000</ele>
        <time>2018-10-14T09:33:12Z</time>
      </trkpt>
      <trkpt lat="37.97039486" lon="-2.46606797">
        <ele>1256.0000</ele>
        <time>2018-10-14T09:33:14Z</time>
      </trkpt>
      <trkpt lat="37.97050299" lon="-2.46585725">
        <ele>1255.0000</ele>
        <time>2018-10-14T09:33:16Z</time>
      </trkpt>
      <trkpt lat="37.97054674" lon="-2.46573756">
        <ele>1255.0000</ele>
        <time>2018-10-14T09:33:17Z</time>
      </trkpt>
      <trkpt lat="37.97072066" lon="-2.46506441">
        <ele>1254.0000</ele>
        <time>2018-10-14T09:33:22Z</time>
      </trkpt>
      <trkpt lat="37.97075880" lon="-2.46492200">
        <ele>1254.0000</ele>
        <time>2018-10-14T09:33:23Z</time>
      </trkpt>
      <trkpt lat="37.97083256" lon="-2.46463132">
        <ele>1252.0000</ele>
        <time>2018-10-14T09:33:25Z</time>
      </trkpt>
      <trkpt lat="37.97090616" lon="-2.46433652">
        <ele>1251.0000</ele>
        <time>2018-10-14T09:33:27Z</time>
      </trkpt>
      <trkpt lat="37.97098143" lon="-2.46403788">
        <ele>1249.0000</ele>
        <time>2018-10-14T09:33:29Z</time>
      </trkpt>
      <trkpt lat="37.97101956" lon="-2.46388751">
        <ele>1248.0000</ele>
        <time>2018-10-14T09:33:30Z</time>
      </trkpt>
      <trkpt lat="37.97105845" lon="-2.46373688">
        <ele>1247.0000</ele>
        <time>2018-10-14T09:33:31Z</time>
      </trkpt>
      <trkpt lat="37.97109869" lon="-2.46358542">
        <ele>1245.0000</ele>
        <time>2018-10-14T09:33:32Z</time>
      </trkpt>
      <trkpt lat="37.97113917" lon="-2.46343245">
        <ele>1243.0000</ele>
        <time>2018-10-14T09:33:33Z</time>
      </trkpt>
      <trkpt lat="37.97123070" lon="-2.46312894">
        <ele>1241.0000</ele>
        <time>2018-10-14T09:33:35Z</time>
      </trkpt>
      <trkpt lat="37.97129013" lon="-2.46298461">
        <ele>1240.0000</ele>
        <time>2018-10-14T09:33:36Z</time>
      </trkpt>
      <trkpt lat="37.97135911" lon="-2.46284798">
        <ele>1239.0000</ele>
        <time>2018-10-14T09:33:37Z</time>
      </trkpt>
      <trkpt lat="37.97150772" lon="-2.46258697">
        <ele>1238.0000</ele>
        <time>2018-10-14T09:33:39Z</time>
      </trkpt>
      <trkpt lat="37.97165784" lon="-2.46233208">
        <ele>1236.0000</ele>
        <time>2018-10-14T09:33:41Z</time>
      </trkpt>
      <trkpt lat="37.97180813" lon="-2.46208162">
        <ele>1235.0000</ele>
        <time>2018-10-14T09:33:43Z</time>
      </trkpt>
      <trkpt lat="37.97188131" lon="-2.46195690">
        <ele>1233.0000</ele>
        <time>2018-10-14T09:33:44Z</time>
      </trkpt>
      <trkpt lat="37.97202623" lon="-2.46170595">
        <ele>1232.0000</ele>
        <time>2018-10-14T09:33:46Z</time>
      </trkpt>
      <trkpt lat="37.97217266" lon="-2.46144988">
        <ele>1231.0000</ele>
        <time>2018-10-14T09:33:48Z</time>
      </trkpt>
      <trkpt lat="37.97232060" lon="-2.46118904">
        <ele>1230.0000</ele>
        <time>2018-10-14T09:33:50Z</time>
      </trkpt>
      <trkpt lat="37.97247357" lon="-2.46092618">
        <ele>1230.0000</ele>
        <time>2018-10-14T09:33:52Z</time>
      </trkpt>
      <trkpt lat="37.97268815" lon="-2.46054807">
        <ele>1228.0000</ele>
        <time>2018-10-14T09:33:55Z</time>
      </trkpt>
      <trkpt lat="37.97274263" lon="-2.46043332">
        <ele>1227.0000</ele>
        <time>2018-10-14T09:33:56Z</time>
      </trkpt>
      <trkpt lat="37.97278085" lon="-2.46031346">
        <ele>1226.0000</ele>
        <time>2018-10-14T09:33:57Z</time>
      </trkpt>
      <trkpt lat="37.97279519" lon="-2.46004893">
        <ele>1224.0000</ele>
        <time>2018-10-14T09:33:59Z</time>
      </trkpt>
      <trkpt lat="37.97275177" lon="-2.45977677">
        <ele>1223.0000</ele>
        <time>2018-10-14T09:34:01Z</time>
      </trkpt>
      <trkpt lat="37.97263970" lon="-2.45922784">
        <ele>1222.0000</ele>
        <time>2018-10-14T09:34:05Z</time>
      </trkpt>
      <trkpt lat="37.97257005" lon="-2.45900421">
        <ele>1221.0000</ele>
        <time>2018-10-14T09:34:07Z</time>
      </trkpt>
      <trkpt lat="37.97251699" lon="-2.45891419">
        <ele>1220.0000</ele>
        <time>2018-10-14T09:34:08Z</time>
      </trkpt>
      <trkpt lat="37.97236251" lon="-2.45879366">
        <ele>1218.0000</ele>
        <time>2018-10-14T09:34:10Z</time>
      </trkpt>
      <trkpt lat="37.97216830" lon="-2.45874194">
        <ele>1216.0000</ele>
        <time>2018-10-14T09:34:12Z</time>
      </trkpt>
      <trkpt lat="37.97206537" lon="-2.45872735">
        <ele>1216.0000</ele>
        <time>2018-10-14T09:34:13Z</time>
      </trkpt>
      <trkpt lat="37.97171526" lon="-2.45868545">
        <ele>1215.0000</ele>
        <time>2018-10-14T09:34:17Z</time>
      </trkpt>
      <trkpt lat="37.97163731" lon="-2.45869148">
        <ele>1215.0000</ele>
        <time>2018-10-14T09:34:18Z</time>
      </trkpt>
      <trkpt lat="37.97155693" lon="-2.45871243">
        <ele>1214.0000</ele>
        <time>2018-10-14T09:34:19Z</time>
      </trkpt>
      <trkpt lat="37.97139415" lon="-2.45878779">
        <ele>1212.0000</ele>
        <time>2018-10-14T09:34:21Z</time>
      </trkpt>
      <trkpt lat="37.97124185" lon="-2.45884831">
        <ele>1212.0000</ele>
        <time>2018-10-14T09:34:23Z</time>
      </trkpt>
      <trkpt lat="37.97116558" lon="-2.45885149">
        <ele>1211.0000</ele>
        <time>2018-10-14T09:34:24Z</time>
      </trkpt>
      <trkpt lat="37.97102132" lon="-2.45877119">
        <ele>1211.0000</ele>
        <time>2018-10-14T09:34:26Z</time>
      </trkpt>
      <trkpt lat="37.97093139" lon="-2.45858880">
        <ele>1210.0000</ele>
        <time>2018-10-14T09:34:28Z</time>
      </trkpt>
      <trkpt lat="37.97089526" lon="-2.45836358">
        <ele>1209.0000</ele>
        <time>2018-10-14T09:34:30Z</time>
      </trkpt>
      <trkpt lat="37.97088596" lon="-2.45824464">
        <ele>1209.0000</ele>
        <time>2018-10-14T09:34:31Z</time>
      </trkpt>
      <trkpt lat="37.97088579" lon="-2.45811992">
        <ele>1208.0000</ele>
        <time>2018-10-14T09:34:32Z</time>
      </trkpt>
      <trkpt lat="37.97090507" lon="-2.45787014">
        <ele>1207.0000</ele>
        <time>2018-10-14T09:34:34Z</time>
      </trkpt>
      <trkpt lat="37.97094698" lon="-2.45761617">
        <ele>1206.0000</ele>
        <time>2018-10-14T09:34:36Z</time>
      </trkpt>
      <trkpt lat="37.97100330" lon="-2.45735800">
        <ele>1204.0000</ele>
        <time>2018-10-14T09:34:38Z</time>
      </trkpt>
      <trkpt lat="37.97104395" lon="-2.45709079">
        <ele>1202.0000</ele>
        <time>2018-10-14T09:34:40Z</time>
      </trkpt>
      <trkpt lat="37.97106449" lon="-2.45685417">
        <ele>1200.0000</ele>
        <time>2018-10-14T09:34:42Z</time>
      </trkpt>
      <trkpt lat="37.97106281" lon="-2.45675509">
        <ele>1199.0000</ele>
        <time>2018-10-14T09:34:43Z</time>
      </trkpt>
      <trkpt lat="37.97086240" lon="-2.45640515">
        <ele>1199.0000</ele>
        <time>2018-10-14T09:34:48Z</time>
      </trkpt>
      <trkpt lat="37.97049519" lon="-2.45597457">
        <ele>1199.0000</ele>
        <time>2018-10-14T09:34:56Z</time>
      </trkpt>
      <trkpt lat="37.97030853" lon="-2.45562781">
        <ele>1199.0000</ele>
        <time>2018-10-14T09:35:03Z</time>
      </trkpt>
      <trkpt lat="37.97035211" lon="-2.45558758">
        <ele>1200.0000</ele>
        <time>2018-10-14T09:35:07Z</time>
      </trkpt>
      <trkpt lat="37.97037919" lon="-2.45556344">
        <ele>1203.0000</ele>
        <time>2018-10-14T09:40:35Z</time>
      </trkpt>
      <trkpt lat="37.97057071" lon="-2.45546135">
        <ele>1203.0000</ele>
        <time>2018-10-14T09:40:41Z</time>
      </trkpt>
      <trkpt lat="37.97065361" lon="-2.45540225">
        <ele>1203.0000</ele>
        <time>2018-10-14T09:40:43Z</time>
      </trkpt>
      <trkpt lat="37.97069426" lon="-2.45537778">
        <ele>1203.0000</ele>
        <time>2018-10-14T09:40:44Z</time>
      </trkpt>
      <trkpt lat="37.97085729" lon="-2.45535959">
        <ele>1202.0000</ele>
        <time>2018-10-14T09:40:48Z</time>
      </trkpt>
      <trkpt lat="37.97091739" lon="-2.45540888">
        <ele>1202.0000</ele>
        <time>2018-10-14T09:40:50Z</time>
      </trkpt>
      <trkpt lat="37.97099567" lon="-2.45551549">
        <ele>1202.0000</ele>
        <time>2018-10-14T09:40:53Z</time>
      </trkpt>
      <trkpt lat="37.97107438" lon="-2.45566394">
        <ele>1202.0000</ele>
        <time>2018-10-14T09:40:57Z</time>
      </trkpt>
      <trkpt lat="37.97120715" lon="-2.45583426">
        <ele>1203.0000</ele>
        <time>2018-10-14T09:41:03Z</time>
      </trkpt>
      <trkpt lat="37.97135375" lon="-2.45584012">
        <ele>1204.0000</ele>
        <time>2018-10-14T09:41:08Z</time>
      </trkpt>
      <trkpt lat="37.97149490" lon="-2.45577449">
        <ele>1205.0000</ele>
        <time>2018-10-14T09:41:13Z</time>
      </trkpt>
      <trkpt lat="37.97160487" lon="-2.45571037">
        <ele>1206.0000</ele>
        <time>2018-10-14T09:41:17Z</time>
      </trkpt>
      <trkpt lat="37.97175893" lon="-2.45561398">
        <ele>1207.0000</ele>
        <time>2018-10-14T09:41:23Z</time>
      </trkpt>
      <trkpt lat="37.97188768" lon="-2.45553477">
        <ele>1209.0000</ele>
        <time>2018-10-14T09:41:29Z</time>
      </trkpt>
      <trkpt lat="37.97200703" lon="-2.45543561">
        <ele>1210.0000</ele>
        <time>2018-10-14T09:41:35Z</time>
      </trkpt>
      <trkpt lat="37.97214735" lon="-2.45529019">
        <ele>1211.0000</ele>
        <time>2018-10-14T09:41:42Z</time>
      </trkpt>
      <trkpt lat="37.97227123" lon="-2.45511878">
        <ele>1212.0000</ele>
        <time>2018-10-14T09:41:49Z</time>
      </trkpt>
      <trkpt lat="37.97243267" lon="-2.45494695">
        <ele>1213.0000</ele>
        <time>2018-10-14T09:41:57Z</time>
      </trkpt>
      <trkpt lat="37.97259368" lon="-2.45475534">
        <ele>1214.0000</ele>
        <time>2018-10-14T09:42:05Z</time>
      </trkpt>
      <trkpt lat="37.97269561" lon="-2.45454663">
        <ele>1215.0000</ele>
        <time>2018-10-14T09:42:12Z</time>
      </trkpt>
      <trkpt lat="37.97286450" lon="-2.45435250">
        <ele>1217.0000</ele>
        <time>2018-10-14T09:42:20Z</time>
      </trkpt>
      <trkpt lat="37.97307254" lon="-2.45423340">
        <ele>1218.0000</ele>
        <time>2018-10-14T09:42:28Z</time>
      </trkpt>
      <trkpt lat="37.97327136" lon="-2.45419442">
        <ele>1219.0000</ele>
        <time>2018-10-14T09:42:35Z</time>
      </trkpt>
      <trkpt lat="37.97347261" lon="-2.45422837">
        <ele>1220.0000</ele>
        <time>2018-10-14T09:42:42Z</time>
      </trkpt>
      <trkpt lat="37.97364327" lon="-2.45425871">
        <ele>1221.0000</ele>
        <time>2018-10-14T09:42:48Z</time>
      </trkpt>
      <trkpt lat="37.97378760" lon="-2.45426508">
        <ele>1222.0000</ele>
        <time>2018-10-14T09:42:53Z</time>
      </trkpt>
      <trkpt lat="37.97404920" lon="-2.45418679">
        <ele>1223.0000</ele>
        <time>2018-10-14T09:43:03Z</time>
      </trkpt>
      <trkpt lat="37.97418239" lon="-2.45413047">
        <ele>1224.0000</ele>
        <time>2018-10-14T09:43:08Z</time>
      </trkpt>
      <trkpt lat="37.97437660" lon="-2.45408521">
        <ele>1225.0000</ele>
        <time>2018-10-14T09:43:15Z</time>
      </trkpt>
      <trkpt lat="37.97451524" lon="-2.45412368">
        <ele>1226.0000</ele>
        <time>2018-10-14T09:43:20Z</time>
      </trkpt>
      <trkpt lat="37.97470157" lon="-2.45422602">
        <ele>1228.0000</ele>
        <time>2018-10-14T09:43:27Z</time>
      </trkpt>
      <trkpt lat="37.97482478" lon="-2.45430984">
        <ele>1229.0000</ele>
        <time>2018-10-14T09:43:32Z</time>
      </trkpt>
      <trkpt lat="37.97501337" lon="-2.45444496">
        <ele>1230.0000</ele>
        <time>2018-10-14T09:43:40Z</time>
      </trkpt>
      <trkpt lat="37.97519300" lon="-2.45459876">
        <ele>1231.0000</ele>
        <time>2018-10-14T09:43:48Z</time>
      </trkpt>
      <trkpt lat="37.97533121" lon="-2.45472365">
        <ele>1232.0000</ele>
        <time>2018-10-14T09:43:54Z</time>
      </trkpt>
      <trkpt lat="37.97545099" lon="-2.45482667">
        <ele>1233.0000</ele>
        <time>2018-10-14T09:43:59Z</time>
      </trkpt>
      <trkpt lat="37.97558904" lon="-2.45494921">
        <ele>1234.0000</ele>
        <time>2018-10-14T09:44:05Z</time>
      </trkpt>
      <trkpt lat="37.97572944" lon="-2.45506991">
        <ele>1236.0000</ele>
        <time>2018-10-14T09:44:11Z</time>
      </trkpt>
      <trkpt lat="37.97591174" lon="-2.45524266">
        <ele>1237.0000</ele>
        <time>2018-10-14T09:44:19Z</time>
      </trkpt>
      <trkpt lat="37.97605331" lon="-2.45541390">
        <ele>1238.0000</ele>
        <time>2018-10-14T09:44:26Z</time>
      </trkpt>
      <trkpt lat="37.97610989" lon="-2.45549253">
        <ele>1239.0000</ele>
        <time>2018-10-14T09:44:29Z</time>
      </trkpt>
      <trkpt lat="37.97626328" lon="-2.45571339">
        <ele>1240.0000</ele>
        <time>2018-10-14T09:44:37Z</time>
      </trkpt>
      <trkpt lat="37.97641541" lon="-2.45591078">
        <ele>1241.0000</ele>
        <time>2018-10-14T09:44:44Z</time>
      </trkpt>
      <trkpt lat="37.97659780" lon="-2.45611245">
        <ele>1242.0000</ele>
        <time>2018-10-14T09:44:51Z</time>
      </trkpt>
      <trkpt lat="37.97680635" lon="-2.45640423">
        <ele>1242.0000</ele>
        <time>2018-10-14T09:45:00Z</time>
      </trkpt>
      <trkpt lat="37.97695261" lon="-2.45666985">
        <ele>1242.0000</ele>
        <time>2018-10-14T09:45:07Z</time>
      </trkpt>
      <trkpt lat="37.97716308" lon="-2.45696749">
        <ele>1243.0000</ele>
        <time>2018-10-14T09:45:15Z</time>
      </trkpt>
      <trkpt lat="37.97729493" lon="-2.45709808">
        <ele>1243.0000</ele>
        <time>2018-10-14T09:45:19Z</time>
      </trkpt>
      <trkpt lat="37.97755376" lon="-2.45731417">
        <ele>1243.0000</ele>
        <time>2018-10-14T09:45:26Z</time>
      </trkpt>
      <trkpt lat="37.97766583" lon="-2.45740025">
        <ele>1244.0000</ele>
        <time>2018-10-14T09:45:29Z</time>
      </trkpt>
      <trkpt lat="37.97780991" lon="-2.45752497">
        <ele>1244.0000</ele>
        <time>2018-10-14T09:45:33Z</time>
      </trkpt>
      <trkpt lat="37.97807537" lon="-2.45779545">
        <ele>1245.0000</ele>
        <time>2018-10-14T09:45:41Z</time>
      </trkpt>
      <trkpt lat="37.97822792" lon="-2.45791875">
        <ele>1245.0000</ele>
        <time>2018-10-14T09:45:46Z</time>
      </trkpt>
      <trkpt lat="37.97825868" lon="-2.45793635">
        <ele>1246.0000</ele>
        <time>2018-10-14T09:45:47Z</time>
      </trkpt>
      <trkpt lat="37.97838483" lon="-2.45799117">
        <ele>1247.0000</ele>
        <time>2018-10-14T09:45:51Z</time>
      </trkpt>
      <trkpt lat="37.97850594" lon="-2.45803199">
        <ele>1248.0000</ele>
        <time>2018-10-14T09:45:55Z</time>
      </trkpt>
      <trkpt lat="37.97868590" lon="-2.45810877">
        <ele>1249.0000</ele>
        <time>2018-10-14T09:46:01Z</time>
      </trkpt>
      <trkpt lat="37.97884541" lon="-2.45814942">
        <ele>1250.0000</ele>
        <time>2018-10-14T09:46:06Z</time>
      </trkpt>
      <trkpt lat="37.97903954" lon="-2.45820030">
        <ele>1251.0000</ele>
        <time>2018-10-14T09:46:12Z</time>
      </trkpt>
      <trkpt lat="37.97923894" lon="-2.45822419">
        <ele>1252.0000</ele>
        <time>2018-10-14T09:46:18Z</time>
      </trkpt>
      <trkpt lat="37.97943424" lon="-2.45820952">
        <ele>1254.0000</ele>
        <time>2018-10-14T09:46:24Z</time>
      </trkpt>
      <trkpt lat="37.97959190" lon="-2.45822318">
        <ele>1255.0000</ele>
        <time>2018-10-14T09:46:29Z</time>
      </trkpt>
      <trkpt lat="37.97974253" lon="-2.45831128">
        <ele>1256.0000</ele>
        <time>2018-10-14T09:46:34Z</time>
      </trkpt>
      <trkpt lat="37.97992659" lon="-2.45880304">
        <ele>1257.0000</ele>
        <time>2018-10-14T09:46:47Z</time>
      </trkpt>
      <trkpt lat="37.97998401" lon="-2.45908543">
        <ele>1258.0000</ele>
        <time>2018-10-14T09:46:54Z</time>
      </trkpt>
      <trkpt lat="37.98007722" lon="-2.45934569">
        <ele>1259.0000</ele>
        <time>2018-10-14T09:47:01Z</time>
      </trkpt>
      <trkpt lat="37.98020076" lon="-2.45947703">
        <ele>1260.0000</ele>
        <time>2018-10-14T09:47:06Z</time>
      </trkpt>
      <trkpt lat="37.98039120" lon="-2.45955507">
        <ele>1262.0000</ele>
        <time>2018-10-14T09:47:12Z</time>
      </trkpt>
      <trkpt lat="37.98054836" lon="-2.45959455">
        <ele>1263.0000</ele>
        <time>2018-10-14T09:47:17Z</time>
      </trkpt>
      <trkpt lat="37.98069647" lon="-2.45967501">
        <ele>1264.0000</ele>
        <time>2018-10-14T09:47:22Z</time>
      </trkpt>
      <trkpt lat="37.98087459" lon="-2.45976805">
        <ele>1265.0000</ele>
        <time>2018-10-14T09:47:28Z</time>
      </trkpt>
      <trkpt lat="37.98109260" lon="-2.45977895">
        <ele>1266.0000</ele>
        <time>2018-10-14T09:47:35Z</time>
      </trkpt>
      <trkpt lat="37.98134146" lon="-2.45971181">
        <ele>1267.0000</ele>
        <time>2018-10-14T09:47:43Z</time>
      </trkpt>
      <trkpt lat="37.98161337" lon="-2.45962724">
        <ele>1268.0000</ele>
        <time>2018-10-14T09:47:52Z</time>
      </trkpt>
      <trkpt lat="37.98182191" lon="-2.45955700">
        <ele>1269.0000</ele>
        <time>2018-10-14T09:47:59Z</time>
      </trkpt>
      <trkpt lat="37.98200028" lon="-2.45949983">
        <ele>1271.0000</ele>
        <time>2018-10-14T09:48:05Z</time>
      </trkpt>
      <trkpt lat="37.98221535" lon="-2.45944560">
        <ele>1272.0000</ele>
        <time>2018-10-14T09:48:12Z</time>
      </trkpt>
      <trkpt lat="37.98237302" lon="-2.45943931">
        <ele>1273.0000</ele>
        <time>2018-10-14T09:48:17Z</time>
      </trkpt>
      <trkpt lat="37.98258475" lon="-2.45948256">
        <ele>1274.0000</ele>
        <time>2018-10-14T09:48:24Z</time>
      </trkpt>
      <trkpt lat="37.98276747" lon="-2.45952682">
        <ele>1275.0000</ele>
        <time>2018-10-14T09:48:30Z</time>
      </trkpt>
      <trkpt lat="37.98291751" lon="-2.45956764">
        <ele>1276.0000</ele>
        <time>2018-10-14T09:48:35Z</time>
      </trkpt>
      <trkpt lat="37.98312940" lon="-2.45962841">
        <ele>1277.0000</ele>
        <time>2018-10-14T09:48:42Z</time>
      </trkpt>
      <trkpt lat="37.98331615" lon="-2.45966437">
        <ele>1279.0000</ele>
        <time>2018-10-14T09:48:48Z</time>
      </trkpt>
      <trkpt lat="37.98349997" lon="-2.45963168">
        <ele>1280.0000</ele>
        <time>2018-10-14T09:48:54Z</time>
      </trkpt>
      <trkpt lat="37.98366894" lon="-2.45954778">
        <ele>1281.0000</ele>
        <time>2018-10-14T09:49:00Z</time>
      </trkpt>
      <trkpt lat="37.98380272" lon="-2.45948516">
        <ele>1282.0000</ele>
        <time>2018-10-14T09:49:05Z</time>
      </trkpt>
      <trkpt lat="37.98396977" lon="-2.45946044">
        <ele>1283.0000</ele>
        <time>2018-10-14T09:49:11Z</time>
      </trkpt>
      <trkpt lat="37.98411528" lon="-2.45950134">
        <ele>1284.0000</ele>
        <time>2018-10-14T09:49:16Z</time>
      </trkpt>
      <trkpt lat="37.98430513" lon="-2.45950796">
        <ele>1285.0000</ele>
        <time>2018-10-14T09:49:22Z</time>
      </trkpt>
      <trkpt lat="37.98445156" lon="-2.45927494">
        <ele>1286.0000</ele>
        <time>2018-10-14T09:49:30Z</time>
      </trkpt>
      <trkpt lat="37.98446062" lon="-2.45923739">
        <ele>1286.0000</ele>
        <time>2018-10-14T09:49:31Z</time>
      </trkpt>
      <trkpt lat="37.98448425" lon="-2.45912642">
        <ele>1288.0000</ele>
        <time>2018-10-14T09:49:34Z</time>
      </trkpt>
      <trkpt lat="37.98454016" lon="-2.45891494">
        <ele>1289.0000</ele>
        <time>2018-10-14T09:49:40Z</time>
      </trkpt>
      <trkpt lat="37.98462398" lon="-2.45877128">
        <ele>1290.0000</ele>
        <time>2018-10-14T09:49:45Z</time>
      </trkpt>
      <trkpt lat="37.98474468" lon="-2.45865393">
        <ele>1291.0000</ele>
        <time>2018-10-14T09:49:50Z</time>
      </trkpt>
      <trkpt lat="37.98492346" lon="-2.45849844">
        <ele>1292.0000</ele>
        <time>2018-10-14T09:49:57Z</time>
      </trkpt>
      <trkpt lat="37.98511541" lon="-2.45836735">
        <ele>1293.0000</ele>
        <time>2018-10-14T09:50:04Z</time>
      </trkpt>
      <trkpt lat="37.98527978" lon="-2.45825956">
        <ele>1294.0000</ele>
        <time>2018-10-14T09:50:10Z</time>
      </trkpt>
      <trkpt lat="37.98544155" lon="-2.45814381">
        <ele>1295.0000</ele>
        <time>2018-10-14T09:50:16Z</time>
      </trkpt>
      <trkpt lat="37.98560441" lon="-2.45798346">
        <ele>1296.0000</ele>
        <time>2018-10-14T09:50:23Z</time>
      </trkpt>
      <trkpt lat="37.98575956" lon="-2.45780660">
        <ele>1297.0000</ele>
        <time>2018-10-14T09:50:30Z</time>
      </trkpt>
      <trkpt lat="37.98587271" lon="-2.45763226">
        <ele>1299.0000</ele>
        <time>2018-10-14T09:50:36Z</time>
      </trkpt>
      <trkpt lat="37.98599710" lon="-2.45741307">
        <ele>1300.0000</ele>
        <time>2018-10-14T09:50:43Z</time>
      </trkpt>
      <trkpt lat="37.98611286" lon="-2.45718458">
        <ele>1301.0000</ele>
        <time>2018-10-14T09:50:50Z</time>
      </trkpt>
      <trkpt lat="37.98619785" lon="-2.45701845">
        <ele>1302.0000</ele>
        <time>2018-10-14T09:50:56Z</time>
      </trkpt>
      <trkpt lat="37.98632618" lon="-2.45691988">
        <ele>1302.0000</ele>
        <time>2018-10-14T09:51:01Z</time>
      </trkpt>
      <trkpt lat="37.98655961" lon="-2.45687437">
        <ele>1304.0000</ele>
        <time>2018-10-14T09:51:09Z</time>
      </trkpt>
      <trkpt lat="37.98674753" lon="-2.45686154">
        <ele>1305.0000</ele>
        <time>2018-10-14T09:51:15Z</time>
      </trkpt>
      <trkpt lat="37.98689405" lon="-2.45690496">
        <ele>1306.0000</ele>
        <time>2018-10-14T09:51:20Z</time>
      </trkpt>
      <trkpt lat="37.98692758" lon="-2.45691535">
        <ele>1306.0000</ele>
        <time>2018-10-14T09:51:21Z</time>
      </trkpt>
      <trkpt lat="37.98704995" lon="-2.45707319">
        <ele>1307.0000</ele>
        <time>2018-10-14T09:51:26Z</time>
      </trkpt>
      <trkpt lat="37.98702791" lon="-2.45734677">
        <ele>1308.0000</ele>
        <time>2018-10-14T09:51:33Z</time>
      </trkpt>
      <trkpt lat="37.98702606" lon="-2.45774399">
        <ele>1309.0000</ele>
        <time>2018-10-14T09:51:43Z</time>
      </trkpt>
      <trkpt lat="37.98716110" lon="-2.45785932">
        <ele>1310.0000</ele>
        <time>2018-10-14T09:51:48Z</time>
      </trkpt>
      <trkpt lat="37.98731147" lon="-2.45793434">
        <ele>1312.0000</ele>
        <time>2018-10-14T09:51:53Z</time>
      </trkpt>
      <trkpt lat="37.98742932" lon="-2.45799897">
        <ele>1313.0000</ele>
        <time>2018-10-14T09:51:57Z</time>
      </trkpt>
      <trkpt lat="37.98756787" lon="-2.45809134">
        <ele>1314.0000</ele>
        <time>2018-10-14T09:52:02Z</time>
      </trkpt>
      <trkpt lat="37.98771020" lon="-2.45817658">
        <ele>1315.0000</ele>
        <time>2018-10-14T09:52:07Z</time>
      </trkpt>
      <trkpt lat="37.98796207" lon="-2.45820935">
        <ele>1316.0000</ele>
        <time>2018-10-14T09:52:15Z</time>
      </trkpt>
      <trkpt lat="37.98817841" lon="-2.45821715">
        <ele>1317.0000</ele>
        <time>2018-10-14T09:52:22Z</time>
      </trkpt>
      <trkpt lat="37.98832442" lon="-2.45825705">
        <ele>1318.0000</ele>
        <time>2018-10-14T09:52:27Z</time>
      </trkpt>
      <trkpt lat="37.98851670" lon="-2.45829720">
        <ele>1319.0000</ele>
        <time>2018-10-14T09:52:33Z</time>
      </trkpt>
      <trkpt lat="37.98863891" lon="-2.45833919">
        <ele>1320.0000</ele>
        <time>2018-10-14T09:52:37Z</time>
      </trkpt>
      <trkpt lat="37.98870295" lon="-2.45835411">
        <ele>1321.0000</ele>
        <time>2018-10-14T09:52:39Z</time>
      </trkpt>
      <trkpt lat="37.98885315" lon="-2.45839887">
        <ele>1322.0000</ele>
        <time>2018-10-14T09:52:44Z</time>
      </trkpt>
      <trkpt lat="37.98903152" lon="-2.45844941">
        <ele>1323.0000</ele>
        <time>2018-10-14T09:52:50Z</time>
      </trkpt>
      <trkpt lat="37.98920460" lon="-2.45850171">
        <ele>1324.0000</ele>
        <time>2018-10-14T09:52:56Z</time>
      </trkpt>
      <trkpt lat="37.98935229" lon="-2.45859811">
        <ele>1325.0000</ele>
        <time>2018-10-14T09:53:02Z</time>
      </trkpt>
      <trkpt lat="37.98947148" lon="-2.45871688">
        <ele>1326.0000</ele>
        <time>2018-10-14T09:53:07Z</time>
      </trkpt>
      <trkpt lat="37.98962663" lon="-2.45893288">
        <ele>1327.0000</ele>
        <time>2018-10-14T09:53:14Z</time>
      </trkpt>
      <trkpt lat="37.98972395" lon="-2.45917478">
        <ele>1329.0000</ele>
        <time>2018-10-14T09:53:21Z</time>
      </trkpt>
      <trkpt lat="37.98977667" lon="-2.45935239">
        <ele>1330.0000</ele>
        <time>2018-10-14T09:53:26Z</time>
      </trkpt>
      <trkpt lat="37.98985948" lon="-2.45960595">
        <ele>1331.0000</ele>
        <time>2018-10-14T09:53:33Z</time>
      </trkpt>
      <trkpt lat="37.98999452" lon="-2.45986226">
        <ele>1332.0000</ele>
        <time>2018-10-14T09:53:41Z</time>
      </trkpt>
      <trkpt lat="37.99005579" lon="-2.45995153">
        <ele>1333.0000</ele>
        <time>2018-10-14T09:53:44Z</time>
      </trkpt>
      <trkpt lat="37.99019107" lon="-2.46011255">
        <ele>1334.0000</ele>
        <time>2018-10-14T09:53:50Z</time>
      </trkpt>
      <trkpt lat="37.99029652" lon="-2.46020031">
        <ele>1335.0000</ele>
        <time>2018-10-14T09:53:54Z</time>
      </trkpt>
      <trkpt lat="37.99045410" lon="-2.46021514">
        <ele>1336.0000</ele>
        <time>2018-10-14T09:53:59Z</time>
      </trkpt>
      <trkpt lat="37.99057924" lon="-2.45999881">
        <ele>1337.0000</ele>
        <time>2018-10-14T09:54:06Z</time>
      </trkpt>
      <trkpt lat="37.99060715" lon="-2.45981155">
        <ele>1338.0000</ele>
        <time>2018-10-14T09:54:11Z</time>
      </trkpt>
      <trkpt lat="37.99070840" lon="-2.45962615">
        <ele>1340.0000</ele>
        <time>2018-10-14T09:54:17Z</time>
      </trkpt>
      <trkpt lat="37.99085140" lon="-2.45958382">
        <ele>1341.0000</ele>
        <time>2018-10-14T09:54:22Z</time>
      </trkpt>
      <trkpt lat="37.99101962" lon="-2.45962900">
        <ele>1342.0000</ele>
        <time>2018-10-14T09:54:28Z</time>
      </trkpt>
      <trkpt lat="37.99122163" lon="-2.45967535">
        <ele>1343.0000</ele>
        <time>2018-10-14T09:54:35Z</time>
      </trkpt>
      <trkpt lat="37.99142313" lon="-2.45972095">
        <ele>1344.0000</ele>
        <time>2018-10-14T09:54:42Z</time>
      </trkpt>
      <trkpt lat="37.99160057" lon="-2.45978205">
        <ele>1345.0000</ele>
        <time>2018-10-14T09:54:48Z</time>
      </trkpt>
      <trkpt lat="37.99174474" lon="-2.45985137">
        <ele>1346.0000</ele>
        <time>2018-10-14T09:54:53Z</time>
      </trkpt>
      <trkpt lat="37.99188489" lon="-2.45992546">
        <ele>1348.0000</ele>
        <time>2018-10-14T09:54:58Z</time>
      </trkpt>
      <trkpt lat="37.99210826" lon="-2.46000828">
        <ele>1349.0000</ele>
        <time>2018-10-14T09:55:06Z</time>
      </trkpt>
      <trkpt lat="37.99224657" lon="-2.46007164">
        <ele>1350.0000</ele>
        <time>2018-10-14T09:55:11Z</time>
      </trkpt>
      <trkpt lat="37.99240532" lon="-2.46016829">
        <ele>1351.0000</ele>
        <time>2018-10-14T09:55:17Z</time>
      </trkpt>
      <trkpt lat="37.99258243" lon="-2.46029913">
        <ele>1352.0000</ele>
        <time>2018-10-14T09:55:24Z</time>
      </trkpt>
      <trkpt lat="37.99272132" lon="-2.46042653">
        <ele>1353.0000</ele>
        <time>2018-10-14T09:55:30Z</time>
      </trkpt>
      <trkpt lat="37.99282232" lon="-2.46061488">
        <ele>1354.0000</ele>
        <time>2018-10-14T09:55:36Z</time>
      </trkpt>
      <trkpt lat="37.99289507" lon="-2.46087304">
        <ele>1355.0000</ele>
        <time>2018-10-14T09:55:43Z</time>
      </trkpt>
      <trkpt lat="37.99294897" lon="-2.46106406">
        <ele>1356.0000</ele>
        <time>2018-10-14T09:55:48Z</time>
      </trkpt>
      <trkpt lat="37.99302650" lon="-2.46132725">
        <ele>1358.0000</ele>
        <time>2018-10-14T09:55:55Z</time>
      </trkpt>
      <trkpt lat="37.99310009" lon="-2.46154133">
        <ele>1359.0000</ele>
        <time>2018-10-14T09:56:01Z</time>
      </trkpt>
      <trkpt lat="37.99316966" lon="-2.46171710">
        <ele>1360.0000</ele>
        <time>2018-10-14T09:56:06Z</time>
      </trkpt>
      <trkpt lat="37.99322674" lon="-2.46189630">
        <ele>1361.0000</ele>
        <time>2018-10-14T09:56:11Z</time>
      </trkpt>
      <trkpt lat="37.99331660" lon="-2.46214281">
        <ele>1362.0000</ele>
        <time>2018-10-14T09:56:18Z</time>
      </trkpt>
      <trkpt lat="37.99336731" lon="-2.46228975">
        <ele>1363.0000</ele>
        <time>2018-10-14T09:56:22Z</time>
      </trkpt>
      <trkpt lat="37.99343101" lon="-2.46246920">
        <ele>1364.0000</ele>
        <time>2018-10-14T09:56:27Z</time>
      </trkpt>
      <trkpt lat="37.99352271" lon="-2.46272485">
        <ele>1365.0000</ele>
        <time>2018-10-14T09:56:34Z</time>
      </trkpt>
      <trkpt lat="37.99359060" lon="-2.46291428">
        <ele>1366.0000</ele>
        <time>2018-10-14T09:56:39Z</time>
      </trkpt>
      <trkpt lat="37.99369563" lon="-2.46321989">
        <ele>1367.0000</ele>
        <time>2018-10-14T09:56:47Z</time>
      </trkpt>
      <trkpt lat="37.99382010" lon="-2.46357285">
        <ele>1368.0000</ele>
        <time>2018-10-14T09:56:55Z</time>
      </trkpt>
      <trkpt lat="37.99386897" lon="-2.46372079">
        <ele>1368.0000</ele>
        <time>2018-10-14T09:56:58Z</time>
      </trkpt>
      <trkpt lat="37.99409469" lon="-2.46434709">
        <ele>1368.0000</ele>
        <time>2018-10-14T09:57:10Z</time>
      </trkpt>
      <trkpt lat="37.99417566" lon="-2.46457465">
        <ele>1368.0000</ele>
        <time>2018-10-14T09:57:14Z</time>
      </trkpt>
      <trkpt lat="37.99423676" lon="-2.46474690">
        <ele>1368.0000</ele>
        <time>2018-10-14T09:57:17Z</time>
      </trkpt>
      <trkpt lat="37.99443592" lon="-2.46532752">
        <ele>1368.0000</ele>
        <time>2018-10-14T09:57:26Z</time>
      </trkpt>
      <trkpt lat="37.99452988" lon="-2.46561057">
        <ele>1367.0000</ele>
        <time>2018-10-14T09:57:30Z</time>
      </trkpt>
      <trkpt lat="37.99455377" lon="-2.46567863">
        <ele>1367.0000</ele>
        <time>2018-10-14T09:57:31Z</time>
      </trkpt>
      <trkpt lat="37.99470355" lon="-2.46610242">
        <ele>1367.0000</ele>
        <time>2018-10-14T09:57:38Z</time>
      </trkpt>
      <trkpt lat="37.99482719" lon="-2.46643544">
        <ele>1367.0000</ele>
        <time>2018-10-14T09:57:45Z</time>
      </trkpt>
      <trkpt lat="37.99491670" lon="-2.46657650">
        <ele>1368.0000</ele>
        <time>2018-10-14T09:57:49Z</time>
      </trkpt>
      <trkpt lat="37.99507068" lon="-2.46667365">
        <ele>1369.0000</ele>
        <time>2018-10-14T09:57:54Z</time>
      </trkpt>
      <trkpt lat="37.99523555" lon="-2.46672369">
        <ele>1370.0000</ele>
        <time>2018-10-14T09:57:59Z</time>
      </trkpt>
      <trkpt lat="37.99538819" lon="-2.46677147">
        <ele>1371.0000</ele>
        <time>2018-10-14T09:58:04Z</time>
      </trkpt>
      <trkpt lat="37.99560972" lon="-2.46682922">
        <ele>1372.0000</ele>
        <time>2018-10-14T09:58:11Z</time>
      </trkpt>
      <trkpt lat="37.99580259" lon="-2.46688915">
        <ele>1373.0000</ele>
        <time>2018-10-14T09:58:17Z</time>
      </trkpt>
      <trkpt lat="37.99599160" lon="-2.46694112">
        <ele>1375.0000</ele>
        <time>2018-10-14T09:58:23Z</time>
      </trkpt>
      <trkpt lat="37.99614021" lon="-2.46698864">
        <ele>1376.0000</ele>
        <time>2018-10-14T09:58:28Z</time>
      </trkpt>
      <trkpt lat="37.99643031" lon="-2.46708076">
        <ele>1377.0000</ele>
        <time>2018-10-14T09:58:37Z</time>
      </trkpt>
      <trkpt lat="37.99671001" lon="-2.46713985">
        <ele>1378.0000</ele>
        <time>2018-10-14T09:58:46Z</time>
      </trkpt>
      <trkpt lat="37.99686181" lon="-2.46708998">
        <ele>1378.0000</ele>
        <time>2018-10-14T09:58:50Z</time>
      </trkpt>
      <trkpt lat="37.99703582" lon="-2.46685168">
        <ele>1379.0000</ele>
        <time>2018-10-14T09:58:56Z</time>
      </trkpt>
      <trkpt lat="37.99724427" lon="-2.46623444">
        <ele>1379.0000</ele>
        <time>2018-10-14T09:59:07Z</time>
      </trkpt>
      <trkpt lat="37.99735492" lon="-2.46601869">
        <ele>1379.0000</ele>
        <time>2018-10-14T09:59:11Z</time>
      </trkpt>
      <trkpt lat="37.99747302" lon="-2.46590998">
        <ele>1379.0000</ele>
        <time>2018-10-14T09:59:14Z</time>
      </trkpt>
      <trkpt lat="37.99761534" lon="-2.46586144">
        <ele>1379.0000</ele>
        <time>2018-10-14T09:59:17Z</time>
      </trkpt>
      <trkpt lat="37.99787015" lon="-2.46580612">
        <ele>1379.0000</ele>
        <time>2018-10-14T09:59:22Z</time>
      </trkpt>
      <trkpt lat="37.99825337" lon="-2.46573102">
        <ele>1380.0000</ele>
        <time>2018-10-14T09:59:33Z</time>
      </trkpt>
      <trkpt lat="37.99833392" lon="-2.46571468">
        <ele>1381.0000</ele>
        <time>2018-10-14T09:59:36Z</time>
      </trkpt>
      <trkpt lat="37.99846787" lon="-2.46568433">
        <ele>1382.0000</ele>
        <time>2018-10-14T09:59:41Z</time>
      </trkpt>
      <trkpt lat="37.99863190" lon="-2.46564779">
        <ele>1383.0000</ele>
        <time>2018-10-14T09:59:47Z</time>
      </trkpt>
      <trkpt lat="37.99881228" lon="-2.46558669">
        <ele>1384.0000</ele>
        <time>2018-10-14T09:59:54Z</time>
      </trkpt>
      <trkpt lat="37.99895318" lon="-2.46546339">
        <ele>1385.0000</ele>
        <time>2018-10-14T10:00:00Z</time>
      </trkpt>
      <trkpt lat="37.99897841" lon="-2.46524152">
        <ele>1386.0000</ele>
        <time>2018-10-14T10:00:07Z</time>
      </trkpt>
      <trkpt lat="37.99894664" lon="-2.46507145">
        <ele>1388.0000</ele>
        <time>2018-10-14T10:00:12Z</time>
      </trkpt>
      <trkpt lat="37.99890926" lon="-2.46486986">
        <ele>1389.0000</ele>
        <time>2018-10-14T10:00:18Z</time>
      </trkpt>
      <trkpt lat="37.99891144" lon="-2.46470726">
        <ele>1390.0000</ele>
        <time>2018-10-14T10:00:23Z</time>
      </trkpt>
      <trkpt lat="37.99899500" lon="-2.46455814">
        <ele>1391.0000</ele>
        <time>2018-10-14T10:00:29Z</time>
      </trkpt>
      <trkpt lat="37.99904295" lon="-2.46454155">
        <ele>1391.0000</ele>
        <time>2018-10-14T10:00:31Z</time>
      </trkpt>
      <trkpt lat="37.99916566" lon="-2.46455479">
        <ele>1392.0000</ele>
        <time>2018-10-14T10:00:36Z</time>
      </trkpt>
      <trkpt lat="37.99931528" lon="-2.46468957">
        <ele>1394.0000</ele>
        <time>2018-10-14T10:00:43Z</time>
      </trkpt>
      <trkpt lat="37.99948191" lon="-2.46485176">
        <ele>1395.0000</ele>
        <time>2018-10-14T10:00:51Z</time>
      </trkpt>
      <trkpt lat="37.99962683" lon="-2.46499786">
        <ele>1396.0000</ele>
        <time>2018-10-14T10:00:58Z</time>
      </trkpt>
      <trkpt lat="37.99977745" lon="-2.46514412">
        <ele>1397.0000</ele>
        <time>2018-10-14T10:01:05Z</time>
      </trkpt>
      <trkpt lat="37.99989597" lon="-2.46528343">
        <ele>1398.0000</ele>
        <time>2018-10-14T10:01:11Z</time>
      </trkpt>
      <trkpt lat="37.99997300" lon="-2.46546112">
        <ele>1399.0000</ele>
        <time>2018-10-14T10:01:17Z</time>
      </trkpt>
      <trkpt lat="37.99997149" lon="-2.46577025">
        <ele>1400.0000</ele>
        <time>2018-10-14T10:01:26Z</time>
      </trkpt>
      <trkpt lat="37.99996420" lon="-2.46597988">
        <ele>1401.0000</ele>
        <time>2018-10-14T10:01:32Z</time>
      </trkpt>
      <trkpt lat="38.00004031" lon="-2.46620552">
        <ele>1402.0000</ele>
        <time>2018-10-14T10:01:39Z</time>
      </trkpt>
      <trkpt lat="38.00019982" lon="-2.46638917">
        <ele>1403.0000</ele>
        <time>2018-10-14T10:01:47Z</time>
      </trkpt>
      <trkpt lat="38.00030468" lon="-2.46653250">
        <ele>1404.0000</ele>
        <time>2018-10-14T10:01:53Z</time>
      </trkpt>
      <trkpt lat="38.00037207" lon="-2.46667080">
        <ele>1405.0000</ele>
        <time>2018-10-14T10:01:58Z</time>
      </trkpt>
      <trkpt lat="38.00044926" lon="-2.46687146">
        <ele>1407.0000</ele>
        <time>2018-10-14T10:02:04Z</time>
      </trkpt>
      <trkpt lat="38.00051640" lon="-2.46710482">
        <ele>1408.0000</ele>
        <time>2018-10-14T10:02:11Z</time>
      </trkpt>
      <trkpt lat="38.00054951" lon="-2.46730900">
        <ele>1409.0000</ele>
        <time>2018-10-14T10:02:17Z</time>
      </trkpt>
      <trkpt lat="38.00052403" lon="-2.46747387">
        <ele>1410.0000</ele>
        <time>2018-10-14T10:02:22Z</time>
      </trkpt>
      <trkpt lat="38.00045857" lon="-2.46765869">
        <ele>1411.0000</ele>
        <time>2018-10-14T10:02:28Z</time>
      </trkpt>
      <trkpt lat="38.00029302" lon="-2.46787796">
        <ele>1412.0000</ele>
        <time>2018-10-14T10:02:37Z</time>
      </trkpt>
      <trkpt lat="38.00022672" lon="-2.46792566">
        <ele>1413.0000</ele>
        <time>2018-10-14T10:02:40Z</time>
      </trkpt>
      <trkpt lat="38.00006722" lon="-2.46803093">
        <ele>1414.0000</ele>
        <time>2018-10-14T10:02:47Z</time>
      </trkpt>
      <trkpt lat="37.99995490" lon="-2.46812020">
        <ele>1415.0000</ele>
        <time>2018-10-14T10:02:52Z</time>
      </trkpt>
      <trkpt lat="37.99984836" lon="-2.46822757">
        <ele>1416.0000</ele>
        <time>2018-10-14T10:02:57Z</time>
      </trkpt>
      <trkpt lat="37.99978315" lon="-2.46847802">
        <ele>1417.0000</ele>
        <time>2018-10-14T10:03:05Z</time>
      </trkpt>
      <trkpt lat="37.99977955" lon="-2.46857877">
        <ele>1419.0000</ele>
        <time>2018-10-14T10:03:08Z</time>
      </trkpt>
      <trkpt lat="37.99976211" lon="-2.46884238">
        <ele>1420.0000</ele>
        <time>2018-10-14T10:03:16Z</time>
      </trkpt>
      <trkpt lat="37.99968995" lon="-2.46905143">
        <ele>1421.0000</ele>
        <time>2018-10-14T10:03:23Z</time>
      </trkpt>
      <trkpt lat="37.99955617" lon="-2.46929283">
        <ele>1422.0000</ele>
        <time>2018-10-14T10:03:32Z</time>
      </trkpt>
      <trkpt lat="37.99943866" lon="-2.46950984">
        <ele>1423.0000</ele>
        <time>2018-10-14T10:03:40Z</time>
      </trkpt>
      <trkpt lat="37.99935308" lon="-2.46967663">
        <ele>1424.0000</ele>
        <time>2018-10-14T10:03:46Z</time>
      </trkpt>
      <trkpt lat="37.99927219" lon="-2.46989029">
        <ele>1425.0000</ele>
        <time>2018-10-14T10:03:53Z</time>
      </trkpt>
      <trkpt lat="37.99919340" lon="-2.47010068">
        <ele>1426.0000</ele>
        <time>2018-10-14T10:04:00Z</time>
      </trkpt>
      <trkpt lat="37.99912903" lon="-2.47024627">
        <ele>1427.0000</ele>
        <time>2018-10-14T10:04:05Z</time>
      </trkpt>
      <trkpt lat="37.99906399" lon="-2.47043453">
        <ele>1428.0000</ele>
        <time>2018-10-14T10:04:11Z</time>
      </trkpt>
      <trkpt lat="37.99899266" lon="-2.47061884">
        <ele>1429.0000</ele>
        <time>2018-10-14T10:04:17Z</time>
      </trkpt>
      <trkpt lat="37.99891563" lon="-2.47083367">
        <ele>1430.0000</ele>
        <time>2018-10-14T10:04:24Z</time>
      </trkpt>
      <trkpt lat="37.99885368" lon="-2.47103140">
        <ele>1431.0000</ele>
        <time>2018-10-14T10:04:30Z</time>
      </trkpt>
      <trkpt lat="37.99880859" lon="-2.47128412">
        <ele>1432.0000</ele>
        <time>2018-10-14T10:04:37Z</time>
      </trkpt>
      <trkpt lat="37.99877506" lon="-2.47155468">
        <ele>1433.0000</ele>
        <time>2018-10-14T10:04:45Z</time>
      </trkpt>
      <trkpt lat="37.99875587" lon="-2.47165133">
        <ele>1434.0000</ele>
        <time>2018-10-14T10:04:48Z</time>
      </trkpt>
      <trkpt lat="37.99870876" lon="-2.47177362">
        <ele>1435.0000</ele>
        <time>2018-10-14T10:04:52Z</time>
      </trkpt>
      <trkpt lat="37.99862788" lon="-2.47199356">
        <ele>1436.0000</ele>
        <time>2018-10-14T10:04:59Z</time>
      </trkpt>
      <trkpt lat="37.99864908" lon="-2.47226237">
        <ele>1437.0000</ele>
        <time>2018-10-14T10:05:06Z</time>
      </trkpt>
      <trkpt lat="37.99871522" lon="-2.47260586">
        <ele>1439.0000</ele>
        <time>2018-10-14T10:05:15Z</time>
      </trkpt>
      <trkpt lat="37.99882183" lon="-2.47283594">
        <ele>1440.0000</ele>
        <time>2018-10-14T10:05:22Z</time>
      </trkpt>
      <trkpt lat="37.99898545" lon="-2.47307533">
        <ele>1441.0000</ele>
        <time>2018-10-14T10:05:30Z</time>
      </trkpt>
      <trkpt lat="37.99915535" lon="-2.47334598">
        <ele>1442.0000</ele>
        <time>2018-10-14T10:05:39Z</time>
      </trkpt>
      <trkpt lat="37.99923229" lon="-2.47349157">
        <ele>1443.0000</ele>
        <time>2018-10-14T10:05:44Z</time>
      </trkpt>
      <trkpt lat="37.99929767" lon="-2.47360817">
        <ele>1444.0000</ele>
        <time>2018-10-14T10:05:48Z</time>
      </trkpt>
      <trkpt lat="37.99943086" lon="-2.47381386">
        <ele>1445.0000</ele>
        <time>2018-10-14T10:05:55Z</time>
      </trkpt>
      <trkpt lat="37.99957654" lon="-2.47395006">
        <ele>1447.0000</ele>
        <time>2018-10-14T10:06:01Z</time>
      </trkpt>
      <trkpt lat="37.99974082" lon="-2.47403698">
        <ele>1448.0000</ele>
        <time>2018-10-14T10:06:07Z</time>
      </trkpt>
      <trkpt lat="37.99985473" lon="-2.47407822">
        <ele>1449.0000</ele>
        <time>2018-10-14T10:06:11Z</time>
      </trkpt>
      <trkpt lat="38.00002925" lon="-2.47410379">
        <ele>1450.0000</ele>
        <time>2018-10-14T10:06:17Z</time>
      </trkpt>
      <trkpt lat="38.00017375" lon="-2.47409926">
        <ele>1451.0000</ele>
        <time>2018-10-14T10:06:22Z</time>
      </trkpt>
      <trkpt lat="38.00031549" lon="-2.47409650">
        <ele>1452.0000</ele>
        <time>2018-10-14T10:06:27Z</time>
      </trkpt>
      <trkpt lat="38.00045848" lon="-2.47405936">
        <ele>1453.0000</ele>
        <time>2018-10-14T10:06:32Z</time>
      </trkpt>
      <trkpt lat="38.00059913" lon="-2.47391687">
        <ele>1454.0000</ele>
        <time>2018-10-14T10:06:38Z</time>
      </trkpt>
      <trkpt lat="38.00077825" lon="-2.47372258">
        <ele>1455.0000</ele>
        <time>2018-10-14T10:06:46Z</time>
      </trkpt>
      <trkpt lat="38.00090298" lon="-2.47358193">
        <ele>1456.0000</ele>
        <time>2018-10-14T10:06:52Z</time>
      </trkpt>
      <trkpt lat="38.00101747" lon="-2.47349241">
        <ele>1458.0000</ele>
        <time>2018-10-14T10:06:57Z</time>
      </trkpt>
      <trkpt lat="38.00111412" lon="-2.47342150">
        <ele>1459.0000</ele>
        <time>2018-10-14T10:07:01Z</time>
      </trkpt>
      <trkpt lat="38.00126323" lon="-2.47331539">
        <ele>1460.0000</ele>
        <time>2018-10-14T10:07:07Z</time>
      </trkpt>
      <trkpt lat="38.00142869" lon="-2.47320508">
        <ele>1461.0000</ele>
        <time>2018-10-14T10:07:14Z</time>
      </trkpt>
      <trkpt lat="38.00160513" lon="-2.47307675">
        <ele>1462.0000</ele>
        <time>2018-10-14T10:07:21Z</time>
      </trkpt>
      <trkpt lat="38.00175785" lon="-2.47297500">
        <ele>1463.0000</ele>
        <time>2018-10-14T10:07:27Z</time>
      </trkpt>
      <trkpt lat="38.00189422" lon="-2.47290316">
        <ele>1464.0000</ele>
        <time>2018-10-14T10:07:32Z</time>
      </trkpt>
      <trkpt lat="38.00203763" lon="-2.47283946">
        <ele>1465.0000</ele>
        <time>2018-10-14T10:07:37Z</time>
      </trkpt>
      <trkpt lat="38.00223813" lon="-2.47276335">
        <ele>1466.0000</ele>
        <time>2018-10-14T10:07:44Z</time>
      </trkpt>
      <trkpt lat="38.00240920" lon="-2.47270124">
        <ele>1467.0000</ele>
        <time>2018-10-14T10:07:50Z</time>
      </trkpt>
      <trkpt lat="38.00258321" lon="-2.47263528">
        <ele>1468.0000</ele>
        <time>2018-10-14T10:07:56Z</time>
      </trkpt>
      <trkpt lat="38.00279318" lon="-2.47256345">
        <ele>1470.0000</ele>
        <time>2018-10-14T10:08:03Z</time>
      </trkpt>
      <trkpt lat="38.00301480" lon="-2.47256470">
        <ele>1471.0000</ele>
        <time>2018-10-14T10:08:10Z</time>
      </trkpt>
      <trkpt lat="38.00304732" lon="-2.47257661">
        <ele>1471.0000</ele>
        <time>2018-10-14T10:08:11Z</time>
      </trkpt>
      <trkpt lat="38.00324086" lon="-2.47298405">
        <ele>1472.0000</ele>
        <time>2018-10-14T10:08:23Z</time>
      </trkpt>
      <trkpt lat="38.00323340" lon="-2.47302370">
        <ele>1472.0000</ele>
        <time>2018-10-14T10:08:24Z</time>
      </trkpt>
      <trkpt lat="38.00313726" lon="-2.47339149">
        <ele>1473.0000</ele>
        <time>2018-10-14T10:08:34Z</time>
      </trkpt>
      <trkpt lat="38.00311898" lon="-2.47350063">
        <ele>1473.0000</ele>
        <time>2018-10-14T10:08:37Z</time>
      </trkpt>
      <trkpt lat="38.00310214" lon="-2.47368453">
        <ele>1474.0000</ele>
        <time>2018-10-14T10:08:42Z</time>
      </trkpt>
      <trkpt lat="38.00311052" lon="-2.47390623">
        <ele>1475.0000</ele>
        <time>2018-10-14T10:08:48Z</time>
      </trkpt>
      <trkpt lat="38.00312946" lon="-2.47404646">
        <ele>1476.0000</ele>
        <time>2018-10-14T10:08:52Z</time>
      </trkpt>
      <trkpt lat="38.00315553" lon="-2.47421686">
        <ele>1477.0000</ele>
        <time>2018-10-14T10:08:57Z</time>
      </trkpt>
      <trkpt lat="38.00318914" lon="-2.47446455">
        <ele>1478.0000</ele>
        <time>2018-10-14T10:09:04Z</time>
      </trkpt>
      <trkpt lat="38.00319149" lon="-2.47464811">
        <ele>1479.0000</ele>
        <time>2018-10-14T10:09:09Z</time>
      </trkpt>
      <trkpt lat="38.00319316" lon="-2.47472246">
        <ele>1479.0000</ele>
        <time>2018-10-14T10:09:11Z</time>
      </trkpt>
      <trkpt lat="38.00319543" lon="-2.47490535">
        <ele>1480.0000</ele>
        <time>2018-10-14T10:09:16Z</time>
      </trkpt>
      <trkpt lat="38.00320741" lon="-2.47512663">
        <ele>1481.0000</ele>
        <time>2018-10-14T10:09:22Z</time>
      </trkpt>
      <trkpt lat="38.00315167" lon="-2.47533123">
        <ele>1482.0000</ele>
        <time>2018-10-14T10:09:27Z</time>
      </trkpt>
      <trkpt lat="38.00305847" lon="-2.47559091">
        <ele>1484.0000</ele>
        <time>2018-10-14T10:09:34Z</time>
      </trkpt>
      <trkpt lat="38.00304388" lon="-2.47582149">
        <ele>1485.0000</ele>
        <time>2018-10-14T10:09:40Z</time>
      </trkpt>
      <trkpt lat="38.00304254" lon="-2.47602350">
        <ele>1486.0000</ele>
        <time>2018-10-14T10:09:45Z</time>
      </trkpt>
      <trkpt lat="38.00305453" lon="-2.47620823">
        <ele>1487.0000</ele>
        <time>2018-10-14T10:09:49Z</time>
      </trkpt>
      <trkpt lat="38.00306928" lon="-2.47625844">
        <ele>1487.0000</ele>
        <time>2018-10-14T10:09:50Z</time>
      </trkpt>
      <trkpt lat="38.00318503" lon="-2.47640185">
        <ele>1487.0000</ele>
        <time>2018-10-14T10:09:54Z</time>
      </trkpt>
      <trkpt lat="38.00343087" lon="-2.47653462">
        <ele>1487.0000</ele>
        <time>2018-10-14T10:10:01Z</time>
      </trkpt>
      <trkpt lat="38.00350665" lon="-2.47656111">
        <ele>1487.0000</ele>
        <time>2018-10-14T10:10:04Z</time>
      </trkpt>
      <trkpt lat="38.00354872" lon="-2.47656639">
        <ele>1487.0000</ele>
        <time>2018-10-14T10:10:06Z</time>
      </trkpt>
      <trkpt lat="38.00355711" lon="-2.47659514">
        <ele>1488.0000</ele>
        <time>2018-10-14T10:10:08Z</time>
      </trkpt>
      <trkpt lat="38.00354210" lon="-2.47659489">
        <ele>1488.0000</ele>
        <time>2018-10-14T10:10:09Z</time>
      </trkpt>
      <trkpt lat="38.00348301" lon="-2.47656606">
        <ele>1489.0000</ele>
        <time>2018-10-14T10:10:12Z</time>
      </trkpt>
      <trkpt lat="38.00347278" lon="-2.47655273">
        <ele>1489.0000</ele>
        <time>2018-10-14T10:10:13Z</time>
      </trkpt>
      <trkpt lat="38.00347739" lon="-2.47653203">
        <ele>1489.0000</ele>
        <time>2018-10-14T10:10:14Z</time>
      </trkpt>
      <trkpt lat="38.00350489" lon="-2.47652800">
        <ele>1489.0000</ele>
        <time>2018-10-14T10:10:16Z</time>
      </trkpt>
      <trkpt lat="38.00357521" lon="-2.47658022">
        <ele>1489.0000</ele>
        <time>2018-10-14T10:10:19Z</time>
      </trkpt>
      <trkpt lat="38.00367102" lon="-2.47663236">
        <ele>1489.0000</ele>
        <time>2018-10-14T10:10:22Z</time>
      </trkpt>
      <trkpt lat="38.00373723" lon="-2.47666312">
        <ele>1489.0000</ele>
        <time>2018-10-14T10:10:24Z</time>
      </trkpt>
      <trkpt lat="38.00398718" lon="-2.47679295">
        <ele>1489.0000</ele>
        <time>2018-10-14T10:10:31Z</time>
      </trkpt>
      <trkpt lat="38.00418265" lon="-2.47690267">
        <ele>1490.0000</ele>
        <time>2018-10-14T10:10:36Z</time>
      </trkpt>
      <trkpt lat="38.00441893" lon="-2.47701834">
        <ele>1491.0000</ele>
        <time>2018-10-14T10:10:44Z</time>
      </trkpt>
      <trkpt lat="38.00478522" lon="-2.47710065">
        <ele>1492.0000</ele>
        <time>2018-10-14T10:10:52Z</time>
      </trkpt>
      <trkpt lat="38.00498186" lon="-2.47712605">
        <ele>1492.0000</ele>
        <time>2018-10-14T10:10:56Z</time>
      </trkpt>
      <trkpt lat="38.00521714" lon="-2.47716519">
        <ele>1493.0000</ele>
        <time>2018-10-14T10:11:01Z</time>
      </trkpt>
      <trkpt lat="38.00574998" lon="-2.47726092">
        <ele>1493.0000</ele>
        <time>2018-10-14T10:11:12Z</time>
      </trkpt>
      <trkpt lat="38.00592457" lon="-2.47730174">
        <ele>1492.0000</ele>
        <time>2018-10-14T10:11:15Z</time>
      </trkpt>
      <trkpt lat="38.00647040" lon="-2.47740307">
        <ele>1492.0000</ele>
        <time>2018-10-14T10:11:25Z</time>
      </trkpt>
      <trkpt lat="38.00701565" lon="-2.47750081">
        <ele>1493.0000</ele>
        <time>2018-10-14T10:11:35Z</time>
      </trkpt>
      <trkpt lat="38.00758302" lon="-2.47760198">
        <ele>1493.0000</ele>
        <time>2018-10-14T10:11:45Z</time>
      </trkpt>
      <trkpt lat="38.00804478" lon="-2.47768613">
        <ele>1493.0000</ele>
        <time>2018-10-14T10:11:52Z</time>
      </trkpt>
      <trkpt lat="38.00832364" lon="-2.47773567">
        <ele>1492.0000</ele>
        <time>2018-10-14T10:11:56Z</time>
      </trkpt>
      <trkpt lat="38.00875321" lon="-2.47782032">
        <ele>1492.0000</ele>
        <time>2018-10-14T10:12:02Z</time>
      </trkpt>
      <trkpt lat="38.00889110" lon="-2.47784329">
        <ele>1491.0000</ele>
        <time>2018-10-14T10:12:04Z</time>
      </trkpt>
      <trkpt lat="38.00916971" lon="-2.47789216">
        <ele>1491.0000</ele>
        <time>2018-10-14T10:12:08Z</time>
      </trkpt>
      <trkpt lat="38.00930441" lon="-2.47791479">
        <ele>1491.0000</ele>
        <time>2018-10-14T10:12:10Z</time>
      </trkpt>
      <trkpt lat="38.00965511" lon="-2.47797019">
        <ele>1491.0000</ele>
        <time>2018-10-14T10:12:15Z</time>
      </trkpt>
      <trkpt lat="38.01001318" lon="-2.47803524">
        <ele>1491.0000</ele>
        <time>2018-10-14T10:12:20Z</time>
      </trkpt>
      <trkpt lat="38.01055993" lon="-2.47813398">
        <ele>1491.0000</ele>
        <time>2018-10-14T10:12:28Z</time>
      </trkpt>
      <trkpt lat="38.01085607" lon="-2.47818921">
        <ele>1491.0000</ele>
        <time>2018-10-14T10:12:33Z</time>
      </trkpt>
      <trkpt lat="38.01103628" lon="-2.47822081">
        <ele>1492.0000</ele>
        <time>2018-10-14T10:12:36Z</time>
      </trkpt>
      <trkpt lat="38.01114935" lon="-2.47824126">
        <ele>1492.0000</ele>
        <time>2018-10-14T10:12:38Z</time>
      </trkpt>
      <trkpt lat="38.01126552" lon="-2.47826104">
        <ele>1493.0000</ele>
        <time>2018-10-14T10:12:40Z</time>
      </trkpt>
      <trkpt lat="38.01183021" lon="-2.47836288">
        <ele>1494.0000</ele>
        <time>2018-10-14T10:12:49Z</time>
      </trkpt>
      <trkpt lat="38.01241552" lon="-2.47846649">
        <ele>1494.0000</ele>
        <time>2018-10-14T10:12:58Z</time>
      </trkpt>
      <trkpt lat="38.01296118" lon="-2.47856673">
        <ele>1494.0000</ele>
        <time>2018-10-14T10:13:06Z</time>
      </trkpt>
      <trkpt lat="38.01317366" lon="-2.47860529">
        <ele>1494.0000</ele>
        <time>2018-10-14T10:13:09Z</time>
      </trkpt>
      <trkpt lat="38.01370943" lon="-2.47869992">
        <ele>1493.0000</ele>
        <time>2018-10-14T10:13:17Z</time>
      </trkpt>
      <trkpt lat="38.01424680" lon="-2.47878961">
        <ele>1493.0000</ele>
        <time>2018-10-14T10:13:26Z</time>
      </trkpt>
      <trkpt lat="38.01460093" lon="-2.47885272">
        <ele>1494.0000</ele>
        <time>2018-10-14T10:13:32Z</time>
      </trkpt>
      <trkpt lat="38.01519555" lon="-2.47896697">
        <ele>1495.0000</ele>
        <time>2018-10-14T10:13:42Z</time>
      </trkpt>
      <trkpt lat="38.01553954" lon="-2.47903654">
        <ele>1495.0000</ele>
        <time>2018-10-14T10:13:48Z</time>
      </trkpt>
      <trkpt lat="38.01611278" lon="-2.47913209">
        <ele>1496.0000</ele>
        <time>2018-10-14T10:13:58Z</time>
      </trkpt>
      <trkpt lat="38.01650924" lon="-2.47918356">
        <ele>1496.0000</ele>
        <time>2018-10-14T10:14:05Z</time>
      </trkpt>
      <trkpt lat="38.01705943" lon="-2.47915866">
        <ele>1496.0000</ele>
        <time>2018-10-14T10:14:15Z</time>
      </trkpt>
      <trkpt lat="38.01762605" lon="-2.47911122">
        <ele>1496.0000</ele>
        <time>2018-10-14T10:14:24Z</time>
      </trkpt>
      <trkpt lat="38.01768531" lon="-2.47910896">
        <ele>1496.0000</ele>
        <time>2018-10-14T10:14:25Z</time>
      </trkpt>
      <trkpt lat="38.01819853" lon="-2.47905355">
        <ele>1497.0000</ele>
        <time>2018-10-14T10:14:36Z</time>
      </trkpt>
      <trkpt lat="38.01855409" lon="-2.47900444">
        <ele>1497.0000</ele>
        <time>2018-10-14T10:14:43Z</time>
      </trkpt>
      <trkpt lat="38.01895533" lon="-2.47894928">
        <ele>1498.0000</ele>
        <time>2018-10-14T10:14:53Z</time>
      </trkpt>
      <trkpt lat="38.01935934" lon="-2.47894937">
        <ele>1500.0000</ele>
        <time>2018-10-14T10:15:02Z</time>
      </trkpt>
      <trkpt lat="38.01965706" lon="-2.47896035">
        <ele>1501.0000</ele>
        <time>2018-10-14T10:15:09Z</time>
      </trkpt>
      <trkpt lat="38.02021153" lon="-2.47889547">
        <ele>1502.0000</ele>
        <time>2018-10-14T10:15:20Z</time>
      </trkpt>
      <trkpt lat="38.02048914" lon="-2.47886714">
        <ele>1502.0000</ele>
        <time>2018-10-14T10:15:25Z</time>
      </trkpt>
      <trkpt lat="38.02103212" lon="-2.47882951">
        <ele>1503.0000</ele>
        <time>2018-10-14T10:15:35Z</time>
      </trkpt>
      <trkpt lat="38.02123622" lon="-2.47880612">
        <ele>1503.0000</ele>
        <time>2018-10-14T10:15:39Z</time>
      </trkpt>
      <trkpt lat="38.02138885" lon="-2.47877838">
        <ele>1503.0000</ele>
        <time>2018-10-14T10:15:42Z</time>
      </trkpt>
      <trkpt lat="38.02173670" lon="-2.47871752">
        <ele>1504.0000</ele>
        <time>2018-10-14T10:15:51Z</time>
      </trkpt>
      <trkpt lat="38.02208178" lon="-2.47870738">
        <ele>1505.0000</ele>
        <time>2018-10-14T10:15:59Z</time>
      </trkpt>
      <trkpt lat="38.02244824" lon="-2.47868609">
        <ele>1506.0000</ele>
        <time>2018-10-14T10:16:07Z</time>
      </trkpt>
      <trkpt lat="38.02252963" lon="-2.47866857">
        <ele>1506.0000</ele>
        <time>2018-10-14T10:16:09Z</time>
      </trkpt>
      <trkpt lat="38.02257128" lon="-2.47866237">
        <ele>1506.0000</ele>
        <time>2018-10-14T10:16:10Z</time>
      </trkpt>
      <trkpt lat="38.02311552" lon="-2.47859498">
        <ele>1507.0000</ele>
        <time>2018-10-14T10:16:21Z</time>
      </trkpt>
      <trkpt lat="38.02332918" lon="-2.47851979">
        <ele>1507.0000</ele>
        <time>2018-10-14T10:16:26Z</time>
      </trkpt>
      <trkpt lat="38.02363554" lon="-2.47838200">
        <ele>1509.0000</ele>
        <time>2018-10-14T10:16:33Z</time>
      </trkpt>
      <trkpt lat="38.02383536" lon="-2.47830647">
        <ele>1510.0000</ele>
        <time>2018-10-14T10:16:38Z</time>
      </trkpt>
      <trkpt lat="38.02402990" lon="-2.47820648">
        <ele>1511.0000</ele>
        <time>2018-10-14T10:16:44Z</time>
      </trkpt>
      <trkpt lat="38.02421657" lon="-2.47810816">
        <ele>1512.0000</ele>
        <time>2018-10-14T10:16:50Z</time>
      </trkpt>
      <trkpt lat="38.02442620" lon="-2.47796508">
        <ele>1513.0000</ele>
        <time>2018-10-14T10:16:57Z</time>
      </trkpt>
      <trkpt lat="38.02467548" lon="-2.47779602">
        <ele>1514.0000</ele>
        <time>2018-10-14T10:17:06Z</time>
      </trkpt>
      <trkpt lat="38.02488964" lon="-2.47767557">
        <ele>1515.0000</ele>
        <time>2018-10-14T10:17:14Z</time>
      </trkpt>
      <trkpt lat="38.02506951" lon="-2.47759309">
        <ele>1516.0000</ele>
        <time>2018-10-14T10:17:20Z</time>
      </trkpt>
      <trkpt lat="38.02509591" lon="-2.47757968">
        <ele>1517.0000</ele>
        <time>2018-10-14T10:17:21Z</time>
      </trkpt>
      <trkpt lat="38.02527143" lon="-2.47749930">
        <ele>1518.0000</ele>
        <time>2018-10-14T10:17:28Z</time>
      </trkpt>
      <trkpt lat="38.02532826" lon="-2.47744808">
        <ele>1518.0000</ele>
        <time>2018-10-14T10:17:31Z</time>
      </trkpt>
      <trkpt lat="38.02540789" lon="-2.47740651">
        <ele>1519.0000</ele>
        <time>2018-10-14T10:17:35Z</time>
      </trkpt>
      <trkpt lat="38.02550151" lon="-2.47740207">
        <ele>1520.0000</ele>
        <time>2018-10-14T10:17:40Z</time>
      </trkpt>
      <trkpt lat="38.02552339" lon="-2.47741062">
        <ele>1520.0000</ele>
        <time>2018-10-14T10:17:41Z</time>
      </trkpt>
      <trkpt lat="38.02566672" lon="-2.47745948">
        <ele>1521.0000</ele>
        <time>2018-10-14T10:17:45Z</time>
      </trkpt>
      <trkpt lat="38.02586177" lon="-2.47755847">
        <ele>1522.0000</ele>
        <time>2018-10-14T10:17:50Z</time>
      </trkpt>
      <trkpt lat="38.02608397" lon="-2.47766945">
        <ele>1523.0000</ele>
        <time>2018-10-14T10:17:58Z</time>
      </trkpt>
      <trkpt lat="38.02626091" lon="-2.47776132">
        <ele>1525.0000</ele>
        <time>2018-10-14T10:18:04Z</time>
      </trkpt>
      <trkpt lat="38.02645512" lon="-2.47784564">
        <ele>1526.0000</ele>
        <time>2018-10-14T10:18:11Z</time>
      </trkpt>
      <trkpt lat="38.02658823" lon="-2.47789610">
        <ele>1527.0000</ele>
        <time>2018-10-14T10:18:16Z</time>
      </trkpt>
      <trkpt lat="38.02674338" lon="-2.47802325">
        <ele>1528.0000</ele>
        <time>2018-10-14T10:18:22Z</time>
      </trkpt>
      <trkpt lat="38.02676584" lon="-2.47819726">
        <ele>1529.0000</ele>
        <time>2018-10-14T10:18:27Z</time>
      </trkpt>
      <trkpt lat="38.02675109" lon="-2.47826473">
        <ele>1529.0000</ele>
        <time>2018-10-14T10:18:29Z</time>
      </trkpt>
      <trkpt lat="38.02663617" lon="-2.47837227">
        <ele>1530.0000</ele>
        <time>2018-10-14T10:18:34Z</time>
      </trkpt>
      <trkpt lat="38.02648538" lon="-2.47836624">
        <ele>1531.0000</ele>
        <time>2018-10-14T10:18:39Z</time>
      </trkpt>
      <trkpt lat="38.02627223" lon="-2.47837470">
        <ele>1532.0000</ele>
        <time>2018-10-14T10:18:46Z</time>
      </trkpt>
      <trkpt lat="38.02612504" lon="-2.47848995">
        <ele>1533.0000</ele>
        <time>2018-10-14T10:18:52Z</time>
      </trkpt>
      <trkpt lat="38.02601541" lon="-2.47860931">
        <ele>1534.0000</ele>
        <time>2018-10-14T10:18:57Z</time>
      </trkpt>
      <trkpt lat="38.02594852" lon="-2.47878139">
        <ele>1536.0000</ele>
        <time>2018-10-14T10:19:02Z</time>
      </trkpt>
      <trkpt lat="38.02609479" lon="-2.47901516">
        <ele>1537.0000</ele>
        <time>2018-10-14T10:19:10Z</time>
      </trkpt>
      <trkpt lat="38.02628916" lon="-2.47904903">
        <ele>1538.0000</ele>
        <time>2018-10-14T10:19:16Z</time>
      </trkpt>
      <trkpt lat="38.02649913" lon="-2.47907962">
        <ele>1539.0000</ele>
        <time>2018-10-14T10:19:22Z</time>
      </trkpt>
      <trkpt lat="38.02684505" lon="-2.47914131">
        <ele>1540.0000</ele>
        <time>2018-10-14T10:19:32Z</time>
      </trkpt>
      <trkpt lat="38.02702367" lon="-2.47915472">
        <ele>1541.0000</ele>
        <time>2018-10-14T10:19:38Z</time>
      </trkpt>
      <trkpt lat="38.02726792" lon="-2.47916596">
        <ele>1542.0000</ele>
        <time>2018-10-14T10:19:46Z</time>
      </trkpt>
      <trkpt lat="38.02754586" lon="-2.47913813">
        <ele>1543.0000</ele>
        <time>2018-10-14T10:19:54Z</time>
      </trkpt>
      <trkpt lat="38.02789421" lon="-2.47902036">
        <ele>1544.0000</ele>
        <time>2018-10-14T10:20:04Z</time>
      </trkpt>
      <trkpt lat="38.02810292" lon="-2.47893847">
        <ele>1546.0000</ele>
        <time>2018-10-14T10:20:10Z</time>
      </trkpt>
      <trkpt lat="38.02851372" lon="-2.47876832">
        <ele>1547.0000</ele>
        <time>2018-10-14T10:20:21Z</time>
      </trkpt>
      <trkpt lat="38.02871497" lon="-2.47867821">
        <ele>1547.0000</ele>
        <time>2018-10-14T10:20:26Z</time>
      </trkpt>
      <trkpt lat="38.02907556" lon="-2.47852482">
        <ele>1547.0000</ele>
        <time>2018-10-14T10:20:35Z</time>
      </trkpt>
      <trkpt lat="38.02925468" lon="-2.47845056">
        <ele>1548.0000</ele>
        <time>2018-10-14T10:20:39Z</time>
      </trkpt>
      <trkpt lat="38.02940069" lon="-2.47839013">
        <ele>1547.0000</ele>
        <time>2018-10-14T10:20:42Z</time>
      </trkpt>
      <trkpt lat="38.02950622" lon="-2.47834545">
        <ele>1547.0000</ele>
        <time>2018-10-14T10:20:44Z</time>
      </trkpt>
      <trkpt lat="38.02956188" lon="-2.47832148">
        <ele>1547.0000</ele>
        <time>2018-10-14T10:20:45Z</time>
      </trkpt>
      <trkpt lat="38.02993998" lon="-2.47815870">
        <ele>1546.0000</ele>
        <time>2018-10-14T10:20:51Z</time>
      </trkpt>
      <trkpt lat="38.03001391" lon="-2.47813045">
        <ele>1546.0000</ele>
        <time>2018-10-14T10:20:52Z</time>
      </trkpt>
      <trkpt lat="38.03017149" lon="-2.47806642">
        <ele>1546.0000</ele>
        <time>2018-10-14T10:20:54Z</time>
      </trkpt>
      <trkpt lat="38.03025439" lon="-2.47802996">
        <ele>1545.0000</ele>
        <time>2018-10-14T10:20:55Z</time>
      </trkpt>
      <trkpt lat="38.03042697" lon="-2.47795393">
        <ele>1544.0000</ele>
        <time>2018-10-14T10:20:57Z</time>
      </trkpt>
      <trkpt lat="38.03060081" lon="-2.47787833">
        <ele>1543.0000</ele>
        <time>2018-10-14T10:20:59Z</time>
      </trkpt>
      <trkpt lat="38.03077046" lon="-2.47780641">
        <ele>1542.0000</ele>
        <time>2018-10-14T10:21:01Z</time>
      </trkpt>
      <trkpt lat="38.03093014" lon="-2.47773843">
        <ele>1541.0000</ele>
        <time>2018-10-14T10:21:03Z</time>
      </trkpt>
      <trkpt lat="38.03118738" lon="-2.47762972">
        <ele>1540.0000</ele>
        <time>2018-10-14T10:21:07Z</time>
      </trkpt>
      <trkpt lat="38.03128846" lon="-2.47758714">
        <ele>1540.0000</ele>
        <time>2018-10-14T10:21:09Z</time>
      </trkpt>
      <trkpt lat="38.03137614" lon="-2.47754657">
        <ele>1540.0000</ele>
        <time>2018-10-14T10:21:11Z</time>
      </trkpt>
      <trkpt lat="38.03149323" lon="-2.47749829">
        <ele>1541.0000</ele>
        <time>2018-10-14T10:21:14Z</time>
      </trkpt>
      <trkpt lat="38.03153363" lon="-2.47748279">
        <ele>1542.0000</ele>
        <time>2018-10-14T10:21:15Z</time>
      </trkpt>
      <trkpt lat="38.03157487" lon="-2.47746585">
        <ele>1543.0000</ele>
        <time>2018-10-14T10:21:16Z</time>
      </trkpt>
      <trkpt lat="38.03165953" lon="-2.47742730">
        <ele>1544.0000</ele>
        <time>2018-10-14T10:21:18Z</time>
      </trkpt>
      <trkpt lat="38.03170513" lon="-2.47740869">
        <ele>1544.0000</ele>
        <time>2018-10-14T10:21:19Z</time>
      </trkpt>
      <trkpt lat="38.03179850" lon="-2.47737072">
        <ele>1545.0000</ele>
        <time>2018-10-14T10:21:21Z</time>
      </trkpt>
      <trkpt lat="38.03184578" lon="-2.47735127">
        <ele>1545.0000</ele>
        <time>2018-10-14T10:21:22Z</time>
      </trkpt>
      <trkpt lat="38.03198089" lon="-2.47729344">
        <ele>1546.0000</ele>
        <time>2018-10-14T10:21:25Z</time>
      </trkpt>
      <trkpt lat="38.03202699" lon="-2.47727357">
        <ele>1547.0000</ele>
        <time>2018-10-14T10:21:26Z</time>
      </trkpt>
      <trkpt lat="38.03221106" lon="-2.47720124">
        <ele>1547.0000</ele>
        <time>2018-10-14T10:21:30Z</time>
      </trkpt>
      <trkpt lat="38.03225942" lon="-2.47717953">
        <ele>1548.0000</ele>
        <time>2018-10-14T10:21:31Z</time>
      </trkpt>
      <trkpt lat="38.03240141" lon="-2.47711222">
        <ele>1549.0000</ele>
        <time>2018-10-14T10:21:34Z</time>
      </trkpt>
      <trkpt lat="38.03255388" lon="-2.47704416">
        <ele>1550.0000</ele>
        <time>2018-10-14T10:21:38Z</time>
      </trkpt>
      <trkpt lat="38.03274197" lon="-2.47701876">
        <ele>1551.0000</ele>
        <time>2018-10-14T10:21:43Z</time>
      </trkpt>
      <trkpt lat="38.03285638" lon="-2.47703930">
        <ele>1552.0000</ele>
        <time>2018-10-14T10:21:46Z</time>
      </trkpt>
      <trkpt lat="38.03315109" lon="-2.47700141">
        <ele>1553.0000</ele>
        <time>2018-10-14T10:21:54Z</time>
      </trkpt>
      <trkpt lat="38.03329660" lon="-2.47690879">
        <ele>1553.0000</ele>
        <time>2018-10-14T10:21:59Z</time>
      </trkpt>
      <trkpt lat="38.03336600" lon="-2.47687141">
        <ele>1553.0000</ele>
        <time>2018-10-14T10:22:01Z</time>
      </trkpt>
      <trkpt lat="38.03344722" lon="-2.47685272">
        <ele>1553.0000</ele>
        <time>2018-10-14T10:22:03Z</time>
      </trkpt>
      <trkpt lat="38.03349383" lon="-2.47685557">
        <ele>1553.0000</ele>
        <time>2018-10-14T10:22:04Z</time>
      </trkpt>
      <trkpt lat="38.03365400" lon="-2.47700569">
        <ele>1553.0000</ele>
        <time>2018-10-14T10:22:08Z</time>
      </trkpt>
      <trkpt lat="38.03372802" lon="-2.47722529">
        <ele>1553.0000</ele>
        <time>2018-10-14T10:22:11Z</time>
      </trkpt>
      <trkpt lat="38.03377345" lon="-2.47740274">
        <ele>1553.0000</ele>
        <time>2018-10-14T10:22:13Z</time>
      </trkpt>
      <trkpt lat="38.03382734" lon="-2.47759485">
        <ele>1553.0000</ele>
        <time>2018-10-14T10:22:15Z</time>
      </trkpt>
      <trkpt lat="38.03384478" lon="-2.47770139">
        <ele>1552.0000</ele>
        <time>2018-10-14T10:22:16Z</time>
      </trkpt>
      <trkpt lat="38.03386540" lon="-2.47801193">
        <ele>1551.0000</ele>
        <time>2018-10-14T10:22:19Z</time>
      </trkpt>
      <trkpt lat="38.03388157" lon="-2.47810439">
        <ele>1550.0000</ele>
        <time>2018-10-14T10:22:20Z</time>
      </trkpt>
      <trkpt lat="38.03395466" lon="-2.47825132">
        <ele>1549.0000</ele>
        <time>2018-10-14T10:22:22Z</time>
      </trkpt>
      <trkpt lat="38.03407955" lon="-2.47831528">
        <ele>1547.0000</ele>
        <time>2018-10-14T10:22:24Z</time>
      </trkpt>
      <trkpt lat="38.03414334" lon="-2.47831536">
        <ele>1546.0000</ele>
        <time>2018-10-14T10:22:25Z</time>
      </trkpt>
      <trkpt lat="38.03430779" lon="-2.47824780">
        <ele>1546.0000</ele>
        <time>2018-10-14T10:22:28Z</time>
      </trkpt>
      <trkpt lat="38.03440930" lon="-2.47818846">
        <ele>1546.0000</ele>
        <time>2018-10-14T10:22:30Z</time>
      </trkpt>
      <trkpt lat="38.03450544" lon="-2.47813029">
        <ele>1546.0000</ele>
        <time>2018-10-14T10:22:32Z</time>
      </trkpt>
      <trkpt lat="38.03472504" lon="-2.47796801">
        <ele>1546.0000</ele>
        <time>2018-10-14T10:22:37Z</time>
      </trkpt>
      <trkpt lat="38.03485840" lon="-2.47785301">
        <ele>1547.0000</ele>
        <time>2018-10-14T10:22:40Z</time>
      </trkpt>
      <trkpt lat="38.03521698" lon="-2.47752863">
        <ele>1548.0000</ele>
        <time>2018-10-14T10:22:48Z</time>
      </trkpt>
      <trkpt lat="38.03570338" lon="-2.47711231">
        <ele>1548.0000</ele>
        <time>2018-10-14T10:22:58Z</time>
      </trkpt>
      <trkpt lat="38.03616606" lon="-2.47670570">
        <ele>1548.0000</ele>
        <time>2018-10-14T10:23:08Z</time>
      </trkpt>
      <trkpt lat="38.03649371" lon="-2.47641552">
        <ele>1548.0000</ele>
        <time>2018-10-14T10:23:15Z</time>
      </trkpt>
      <trkpt lat="38.03696712" lon="-2.47599399">
        <ele>1549.0000</ele>
        <time>2018-10-14T10:23:25Z</time>
      </trkpt>
      <trkpt lat="38.03744732" lon="-2.47558361">
        <ele>1549.0000</ele>
        <time>2018-10-14T10:23:35Z</time>
      </trkpt>
      <trkpt lat="38.03792718" lon="-2.47516309">
        <ele>1549.0000</ele>
        <time>2018-10-14T10:23:45Z</time>
      </trkpt>
      <trkpt lat="38.03797546" lon="-2.47511993">
        <ele>1549.0000</ele>
        <time>2018-10-14T10:23:46Z</time>
      </trkpt>
      <trkpt lat="38.03845667" lon="-2.47470846">
        <ele>1549.0000</ele>
        <time>2018-10-14T10:23:56Z</time>
      </trkpt>
      <trkpt lat="38.03890401" lon="-2.47432272">
        <ele>1549.0000</ele>
        <time>2018-10-14T10:24:05Z</time>
      </trkpt>
      <trkpt lat="38.03936401" lon="-2.47391914">
        <ele>1549.0000</ele>
        <time>2018-10-14T10:24:14Z</time>
      </trkpt>
      <trkpt lat="38.03986022" lon="-2.47351546">
        <ele>1549.0000</ele>
        <time>2018-10-14T10:24:24Z</time>
      </trkpt>
      <trkpt lat="38.04037788" lon="-2.47330474">
        <ele>1550.0000</ele>
        <time>2018-10-14T10:24:33Z</time>
      </trkpt>
      <trkpt lat="38.04052046" lon="-2.47325059">
        <ele>1550.0000</ele>
        <time>2018-10-14T10:24:36Z</time>
      </trkpt>
      <trkpt lat="38.04072724" lon="-2.47316820">
        <ele>1550.0000</ele>
        <time>2018-10-14T10:24:41Z</time>
      </trkpt>
      <trkpt lat="38.04080779" lon="-2.47313199">
        <ele>1551.0000</ele>
        <time>2018-10-14T10:24:43Z</time>
      </trkpt>
      <trkpt lat="38.04092438" lon="-2.47308463">
        <ele>1552.0000</ele>
        <time>2018-10-14T10:24:46Z</time>
      </trkpt>
      <trkpt lat="38.04103536" lon="-2.47303543">
        <ele>1553.0000</ele>
        <time>2018-10-14T10:24:49Z</time>
      </trkpt>
      <trkpt lat="38.04107224" lon="-2.47302034">
        <ele>1554.0000</ele>
        <time>2018-10-14T10:24:50Z</time>
      </trkpt>
      <trkpt lat="38.04124692" lon="-2.47295279">
        <ele>1555.0000</ele>
        <time>2018-10-14T10:24:55Z</time>
      </trkpt>
      <trkpt lat="38.04137097" lon="-2.47290191">
        <ele>1556.0000</ele>
        <time>2018-10-14T10:24:59Z</time>
      </trkpt>
      <trkpt lat="38.04149201" lon="-2.47284634">
        <ele>1557.0000</ele>
        <time>2018-10-14T10:25:03Z</time>
      </trkpt>
      <trkpt lat="38.04160701" lon="-2.47279177">
        <ele>1558.0000</ele>
        <time>2018-10-14T10:25:07Z</time>
      </trkpt>
      <trkpt lat="38.04177632" lon="-2.47272706">
        <ele>1560.0000</ele>
        <time>2018-10-14T10:25:13Z</time>
      </trkpt>
      <trkpt lat="38.04191228" lon="-2.47266931">
        <ele>1561.0000</ele>
        <time>2018-10-14T10:25:18Z</time>
      </trkpt>
      <trkpt lat="38.04205024" lon="-2.47263788">
        <ele>1562.0000</ele>
        <time>2018-10-14T10:25:23Z</time>
      </trkpt>
      <trkpt lat="38.04225719" lon="-2.47267367">
        <ele>1563.0000</ele>
        <time>2018-10-14T10:25:30Z</time>
      </trkpt>
      <trkpt lat="38.04243338" lon="-2.47272564">
        <ele>1564.0000</ele>
        <time>2018-10-14T10:25:36Z</time>
      </trkpt>
      <trkpt lat="38.04261703" lon="-2.47278615">
        <ele>1565.0000</ele>
        <time>2018-10-14T10:25:42Z</time>
      </trkpt>
      <trkpt lat="38.04278022" lon="-2.47286561">
        <ele>1566.0000</ele>
        <time>2018-10-14T10:25:48Z</time>
      </trkpt>
      <trkpt lat="38.04292565" lon="-2.47294491">
        <ele>1567.0000</ele>
        <time>2018-10-14T10:25:53Z</time>
      </trkpt>
      <trkpt lat="38.04308708" lon="-2.47305840">
        <ele>1568.0000</ele>
        <time>2018-10-14T10:25:59Z</time>
      </trkpt>
      <trkpt lat="38.04326972" lon="-2.47319586">
        <ele>1570.0000</ele>
        <time>2018-10-14T10:26:06Z</time>
      </trkpt>
      <trkpt lat="38.04340635" lon="-2.47330348">
        <ele>1571.0000</ele>
        <time>2018-10-14T10:26:12Z</time>
      </trkpt>
      <trkpt lat="38.04353845" lon="-2.47340725">
        <ele>1572.0000</ele>
        <time>2018-10-14T10:26:18Z</time>
      </trkpt>
      <trkpt lat="38.04375529" lon="-2.47356274">
        <ele>1573.0000</ele>
        <time>2018-10-14T10:26:26Z</time>
      </trkpt>
      <trkpt lat="38.04386467" lon="-2.47365167">
        <ele>1574.0000</ele>
        <time>2018-10-14T10:26:30Z</time>
      </trkpt>
      <trkpt lat="38.04399082" lon="-2.47378301">
        <ele>1575.0000</ele>
        <time>2018-10-14T10:26:35Z</time>
      </trkpt>
      <trkpt lat="38.04410775" lon="-2.47390916">
        <ele>1576.0000</ele>
        <time>2018-10-14T10:26:40Z</time>
      </trkpt>
      <trkpt lat="38.04432802" lon="-2.47421963">
        <ele>1577.0000</ele>
        <time>2018-10-14T10:26:51Z</time>
      </trkpt>
      <trkpt lat="38.04442961" lon="-2.47435600">
        <ele>1578.0000</ele>
        <time>2018-10-14T10:26:56Z</time>
      </trkpt>
      <trkpt lat="38.04449633" lon="-2.47448466">
        <ele>1579.0000</ele>
        <time>2018-10-14T10:27:00Z</time>
      </trkpt>
      <trkpt lat="38.04459717" lon="-2.47466999">
        <ele>1581.0000</ele>
        <time>2018-10-14T10:27:06Z</time>
      </trkpt>
      <trkpt lat="38.04462935" lon="-2.47481944">
        <ele>1582.0000</ele>
        <time>2018-10-14T10:27:10Z</time>
      </trkpt>
      <trkpt lat="38.04466078" lon="-2.47501364">
        <ele>1583.0000</ele>
        <time>2018-10-14T10:27:15Z</time>
      </trkpt>
      <trkpt lat="38.04478333" lon="-2.47531682">
        <ele>1584.0000</ele>
        <time>2018-10-14T10:27:24Z</time>
      </trkpt>
      <trkpt lat="38.04487519" lon="-2.47545219">
        <ele>1585.0000</ele>
        <time>2018-10-14T10:27:29Z</time>
      </trkpt>
      <trkpt lat="38.04496513" lon="-2.47567850">
        <ele>1586.0000</ele>
        <time>2018-10-14T10:27:35Z</time>
      </trkpt>
      <trkpt lat="38.04495499" lon="-2.47596650">
        <ele>1587.0000</ele>
        <time>2018-10-14T10:27:42Z</time>
      </trkpt>
      <trkpt lat="38.04494208" lon="-2.47611612">
        <ele>1589.0000</ele>
        <time>2018-10-14T10:27:46Z</time>
      </trkpt>
      <trkpt lat="38.04493756" lon="-2.47636732">
        <ele>1590.0000</ele>
        <time>2018-10-14T10:27:53Z</time>
      </trkpt>
      <trkpt lat="38.04497536" lon="-2.47658131">
        <ele>1591.0000</ele>
        <time>2018-10-14T10:27:59Z</time>
      </trkpt>
      <trkpt lat="38.04498223" lon="-2.47672816">
        <ele>1592.0000</ele>
        <time>2018-10-14T10:28:03Z</time>
      </trkpt>
      <trkpt lat="38.04498407" lon="-2.47675113">
        <ele>1592.0000</ele>
        <time>2018-10-14T10:28:05Z</time>
      </trkpt>
      <trkpt lat="38.04499874" lon="-2.47683520">
        <ele>1594.0000</ele>
        <time>2018-10-14T10:28:47Z</time>
      </trkpt>
      <trkpt lat="38.04500461" lon="-2.47686194">
        <ele>1594.0000</ele>
        <time>2018-10-14T10:28:48Z</time>
      </trkpt>
      <trkpt lat="38.04501811" lon="-2.47693084">
        <ele>1594.0000</ele>
        <time>2018-10-14T10:28:50Z</time>
      </trkpt>
      <trkpt lat="38.04506253" lon="-2.47738614">
        <ele>1595.0000</ele>
        <time>2018-10-14T10:29:03Z</time>
      </trkpt>
      <trkpt lat="38.04508692" lon="-2.47769401">
        <ele>1596.0000</ele>
        <time>2018-10-14T10:29:12Z</time>
      </trkpt>
      <trkpt lat="38.04513470" lon="-2.47793834">
        <ele>1597.0000</ele>
        <time>2018-10-14T10:29:19Z</time>
      </trkpt>
      <trkpt lat="38.04514945" lon="-2.47808435">
        <ele>1597.0000</ele>
        <time>2018-10-14T10:29:23Z</time>
      </trkpt>
      <trkpt lat="38.04518055" lon="-2.47830413">
        <ele>1598.0000</ele>
        <time>2018-10-14T10:29:29Z</time>
      </trkpt>
      <trkpt lat="38.04526336" lon="-2.47863228">
        <ele>1599.0000</ele>
        <time>2018-10-14T10:29:38Z</time>
      </trkpt>
      <trkpt lat="38.04529932" lon="-2.47882138">
        <ele>1600.0000</ele>
        <time>2018-10-14T10:29:43Z</time>
      </trkpt>
      <trkpt lat="38.04530460" lon="-2.47886018">
        <ele>1600.0000</ele>
        <time>2018-10-14T10:29:44Z</time>
      </trkpt>
      <trkpt lat="38.04532857" lon="-2.47905540">
        <ele>1601.0000</ele>
        <time>2018-10-14T10:29:49Z</time>
      </trkpt>
      <trkpt lat="38.04534642" lon="-2.47925120">
        <ele>1602.0000</ele>
        <time>2018-10-14T10:29:54Z</time>
      </trkpt>
      <trkpt lat="38.04534927" lon="-2.47932982">
        <ele>1602.0000</ele>
        <time>2018-10-14T10:29:56Z</time>
      </trkpt>
      <trkpt lat="38.04536034" lon="-2.47948732">
        <ele>1602.0000</ele>
        <time>2018-10-14T10:30:00Z</time>
      </trkpt>
      <trkpt lat="38.04536679" lon="-2.47970634">
        <ele>1603.0000</ele>
        <time>2018-10-14T10:30:06Z</time>
      </trkpt>
      <trkpt lat="38.04537509" lon="-2.47984464">
        <ele>1604.0000</ele>
        <time>2018-10-14T10:30:10Z</time>
      </trkpt>
      <trkpt lat="38.04536227" lon="-2.48011529">
        <ele>1605.0000</ele>
        <time>2018-10-14T10:30:17Z</time>
      </trkpt>
      <trkpt lat="38.04532631" lon="-2.48042173">
        <ele>1606.0000</ele>
        <time>2018-10-14T10:30:25Z</time>
      </trkpt>
      <trkpt lat="38.04528817" lon="-2.48068308">
        <ele>1607.0000</ele>
        <time>2018-10-14T10:30:32Z</time>
      </trkpt>
      <trkpt lat="38.04526981" lon="-2.48083144">
        <ele>1608.0000</ele>
        <time>2018-10-14T10:30:36Z</time>
      </trkpt>
      <trkpt lat="38.04518465" lon="-2.48112137">
        <ele>1609.0000</ele>
        <time>2018-10-14T10:30:44Z</time>
      </trkpt>
      <trkpt lat="38.04502448" lon="-2.48143326">
        <ele>1611.0000</ele>
        <time>2018-10-14T10:30:53Z</time>
      </trkpt>
      <trkpt lat="38.04493588" lon="-2.48155899">
        <ele>1612.0000</ele>
        <time>2018-10-14T10:30:57Z</time>
      </trkpt>
      <trkpt lat="38.04483136" lon="-2.48176435">
        <ele>1613.0000</ele>
        <time>2018-10-14T10:31:03Z</time>
      </trkpt>
      <trkpt lat="38.04472214" lon="-2.48197213">
        <ele>1614.0000</ele>
        <time>2018-10-14T10:31:09Z</time>
      </trkpt>
      <trkpt lat="38.04462323" lon="-2.48218461">
        <ele>1615.0000</ele>
        <time>2018-10-14T10:31:15Z</time>
      </trkpt>
      <trkpt lat="38.04454134" lon="-2.48245124">
        <ele>1616.0000</ele>
        <time>2018-10-14T10:31:22Z</time>
      </trkpt>
      <trkpt lat="38.04451041" lon="-2.48268459">
        <ele>1618.0000</ele>
        <time>2018-10-14T10:31:28Z</time>
      </trkpt>
      <trkpt lat="38.04448946" lon="-2.48295608">
        <ele>1619.0000</ele>
        <time>2018-10-14T10:31:35Z</time>
      </trkpt>
      <trkpt lat="38.04448334" lon="-2.48314736">
        <ele>1620.0000</ele>
        <time>2018-10-14T10:31:40Z</time>
      </trkpt>
      <trkpt lat="38.04447261" lon="-2.48337945">
        <ele>1621.0000</ele>
        <time>2018-10-14T10:31:46Z</time>
      </trkpt>
      <trkpt lat="38.04446599" lon="-2.48357182">
        <ele>1622.0000</ele>
        <time>2018-10-14T10:31:51Z</time>
      </trkpt>
      <trkpt lat="38.04445224" lon="-2.48380257">
        <ele>1623.0000</ele>
        <time>2018-10-14T10:31:57Z</time>
      </trkpt>
      <trkpt lat="38.04437966" lon="-2.48414095">
        <ele>1624.0000</ele>
        <time>2018-10-14T10:32:06Z</time>
      </trkpt>
      <trkpt lat="38.04433154" lon="-2.48432988">
        <ele>1625.0000</ele>
        <time>2018-10-14T10:32:11Z</time>
      </trkpt>
      <trkpt lat="38.04428989" lon="-2.48451889">
        <ele>1626.0000</ele>
        <time>2018-10-14T10:32:16Z</time>
      </trkpt>
      <trkpt lat="38.04425694" lon="-2.48493421">
        <ele>1627.0000</ele>
        <time>2018-10-14T10:32:26Z</time>
      </trkpt>
      <trkpt lat="38.04445065" lon="-2.48518005">
        <ele>1628.0000</ele>
        <time>2018-10-14T10:32:35Z</time>
      </trkpt>
      <trkpt lat="38.04458619" lon="-2.48503731">
        <ele>1629.0000</ele>
        <time>2018-10-14T10:32:40Z</time>
      </trkpt>
      <trkpt lat="38.04466883" lon="-2.48489717">
        <ele>1630.0000</ele>
        <time>2018-10-14T10:32:44Z</time>
      </trkpt>
      <trkpt lat="38.04475324" lon="-2.48482818">
        <ele>1631.0000</ele>
        <time>2018-10-14T10:32:47Z</time>
      </trkpt>
      <trkpt lat="38.04492381" lon="-2.48480605">
        <ele>1632.0000</ele>
        <time>2018-10-14T10:32:52Z</time>
      </trkpt>
      <trkpt lat="38.04523285" lon="-2.48483179">
        <ele>1633.0000</ele>
        <time>2018-10-14T10:33:00Z</time>
      </trkpt>
      <trkpt lat="38.04552747" lon="-2.48485593">
        <ele>1634.0000</ele>
        <time>2018-10-14T10:33:07Z</time>
      </trkpt>
      <trkpt lat="38.04567860" lon="-2.48486263">
        <ele>1636.0000</ele>
        <time>2018-10-14T10:33:11Z</time>
      </trkpt>
      <trkpt lat="38.04585303" lon="-2.48483179">
        <ele>1637.0000</ele>
        <time>2018-10-14T10:33:16Z</time>
      </trkpt>
      <trkpt lat="38.04598504" lon="-2.48478543">
        <ele>1637.0000</ele>
        <time>2018-10-14T10:33:20Z</time>
      </trkpt>
      <trkpt lat="38.04608982" lon="-2.48475308">
        <ele>1639.0000</ele>
        <time>2018-10-14T10:33:23Z</time>
      </trkpt>
      <trkpt lat="38.04623415" lon="-2.48476104">
        <ele>1639.0000</ele>
        <time>2018-10-14T10:33:27Z</time>
      </trkpt>
      <trkpt lat="38.04630498" lon="-2.48480203">
        <ele>1640.0000</ele>
        <time>2018-10-14T10:33:29Z</time>
      </trkpt>
      <trkpt lat="38.04640221" lon="-2.48496254">
        <ele>1641.0000</ele>
        <time>2018-10-14T10:33:34Z</time>
      </trkpt>
      <trkpt lat="38.04641730" lon="-2.48504695">
        <ele>1641.0000</ele>
        <time>2018-10-14T10:33:36Z</time>
      </trkpt>
      <trkpt lat="38.04641570" lon="-2.48525901">
        <ele>1641.0000</ele>
        <time>2018-10-14T10:33:40Z</time>
      </trkpt>
      <trkpt lat="38.04645183" lon="-2.48561893">
        <ele>1641.0000</ele>
        <time>2018-10-14T10:33:45Z</time>
      </trkpt>
      <trkpt lat="38.04650841" lon="-2.48574977">
        <ele>1640.0000</ele>
        <time>2018-10-14T10:33:47Z</time>
      </trkpt>
      <trkpt lat="38.04660203" lon="-2.48584147">
        <ele>1639.0000</ele>
        <time>2018-10-14T10:33:49Z</time>
      </trkpt>
      <trkpt lat="38.04672458" lon="-2.48584625">
        <ele>1638.0000</ele>
        <time>2018-10-14T10:33:51Z</time>
      </trkpt>
      <trkpt lat="38.04684511" lon="-2.48577073">
        <ele>1637.0000</ele>
        <time>2018-10-14T10:33:53Z</time>
      </trkpt>
      <trkpt lat="38.04697712" lon="-2.48568465">
        <ele>1636.0000</ele>
        <time>2018-10-14T10:33:55Z</time>
      </trkpt>
      <trkpt lat="38.04712850" lon="-2.48560762">
        <ele>1635.0000</ele>
        <time>2018-10-14T10:33:57Z</time>
      </trkpt>
      <trkpt lat="38.04720595" lon="-2.48555473">
        <ele>1634.0000</ele>
        <time>2018-10-14T10:33:58Z</time>
      </trkpt>
      <trkpt lat="38.04735532" lon="-2.48540184">
        <ele>1633.0000</ele>
        <time>2018-10-14T10:34:00Z</time>
      </trkpt>
      <trkpt lat="38.04749144" lon="-2.48523923">
        <ele>1632.0000</ele>
        <time>2018-10-14T10:34:02Z</time>
      </trkpt>
      <trkpt lat="38.04761926" lon="-2.48508484">
        <ele>1631.0000</ele>
        <time>2018-10-14T10:34:04Z</time>
      </trkpt>
      <trkpt lat="38.04774172" lon="-2.48494804">
        <ele>1629.0000</ele>
        <time>2018-10-14T10:34:06Z</time>
      </trkpt>
      <trkpt lat="38.04780459" lon="-2.48489641">
        <ele>1628.0000</ele>
        <time>2018-10-14T10:34:07Z</time>
      </trkpt>
      <trkpt lat="38.04787231" lon="-2.48485811">
        <ele>1627.0000</ele>
        <time>2018-10-14T10:34:08Z</time>
      </trkpt>
      <trkpt lat="38.04801765" lon="-2.48483061">
        <ele>1625.0000</ele>
        <time>2018-10-14T10:34:10Z</time>
      </trkpt>
      <trkpt lat="38.04822544" lon="-2.48490136">
        <ele>1624.0000</ele>
        <time>2018-10-14T10:34:13Z</time>
      </trkpt>
      <trkpt lat="38.04839400" lon="-2.48506899">
        <ele>1623.0000</ele>
        <time>2018-10-14T10:34:16Z</time>
      </trkpt>
      <trkpt lat="38.04848846" lon="-2.48523244">
        <ele>1621.0000</ele>
        <time>2018-10-14T10:34:18Z</time>
      </trkpt>
      <trkpt lat="38.04858704" lon="-2.48540787">
        <ele>1620.0000</ele>
        <time>2018-10-14T10:34:20Z</time>
      </trkpt>
      <trkpt lat="38.04864462" lon="-2.48548977">
        <ele>1619.0000</ele>
        <time>2018-10-14T10:34:21Z</time>
      </trkpt>
      <trkpt lat="38.04870396" lon="-2.48555850">
        <ele>1619.0000</ele>
        <time>2018-10-14T10:34:22Z</time>
      </trkpt>
      <trkpt lat="38.04884620" lon="-2.48569873">
        <ele>1617.0000</ele>
        <time>2018-10-14T10:34:24Z</time>
      </trkpt>
      <trkpt lat="38.04901108" lon="-2.48581146">
        <ele>1616.0000</ele>
        <time>2018-10-14T10:34:26Z</time>
      </trkpt>
      <trkpt lat="38.04909825" lon="-2.48585849">
        <ele>1615.0000</ele>
        <time>2018-10-14T10:34:27Z</time>
      </trkpt>
      <trkpt lat="38.04919942" lon="-2.48590727">
        <ele>1614.0000</ele>
        <time>2018-10-14T10:34:28Z</time>
      </trkpt>
      <trkpt lat="38.04939413" lon="-2.48598195">
        <ele>1613.0000</ele>
        <time>2018-10-14T10:34:30Z</time>
      </trkpt>
      <trkpt lat="38.04958230" lon="-2.48603886">
        <ele>1612.0000</ele>
        <time>2018-10-14T10:34:32Z</time>
      </trkpt>
      <trkpt lat="38.04976821" lon="-2.48608941">
        <ele>1610.0000</ele>
        <time>2018-10-14T10:34:34Z</time>
      </trkpt>
      <trkpt lat="38.04986075" lon="-2.48611673">
        <ele>1609.0000</ele>
        <time>2018-10-14T10:34:35Z</time>
      </trkpt>
      <trkpt lat="38.04995966" lon="-2.48615713">
        <ele>1608.0000</ele>
        <time>2018-10-14T10:34:36Z</time>
      </trkpt>
      <trkpt lat="38.05005529" lon="-2.48620265">
        <ele>1607.0000</ele>
        <time>2018-10-14T10:34:37Z</time>
      </trkpt>
      <trkpt lat="38.05024431" lon="-2.48632544">
        <ele>1606.0000</ele>
        <time>2018-10-14T10:34:39Z</time>
      </trkpt>
      <trkpt lat="38.05042896" lon="-2.48646475">
        <ele>1605.0000</ele>
        <time>2018-10-14T10:34:41Z</time>
      </trkpt>
      <trkpt lat="38.05059819" lon="-2.48663515">
        <ele>1603.0000</ele>
        <time>2018-10-14T10:34:43Z</time>
      </trkpt>
      <trkpt lat="38.05076985" lon="-2.48681947">
        <ele>1602.0000</ele>
        <time>2018-10-14T10:34:45Z</time>
      </trkpt>
      <trkpt lat="38.05095006" lon="-2.48701393">
        <ele>1600.0000</ele>
        <time>2018-10-14T10:34:47Z</time>
      </trkpt>
      <trkpt lat="38.05121786" lon="-2.48731652">
        <ele>1599.0000</ele>
        <time>2018-10-14T10:34:50Z</time>
      </trkpt>
      <trkpt lat="38.05138366" lon="-2.48753235">
        <ele>1598.0000</ele>
        <time>2018-10-14T10:34:52Z</time>
      </trkpt>
      <trkpt lat="38.05151274" lon="-2.48772472">
        <ele>1596.0000</ele>
        <time>2018-10-14T10:34:54Z</time>
      </trkpt>
      <trkpt lat="38.05163017" lon="-2.48789881">
        <ele>1594.0000</ele>
        <time>2018-10-14T10:34:56Z</time>
      </trkpt>
      <trkpt lat="38.05175422" lon="-2.48806544">
        <ele>1593.0000</ele>
        <time>2018-10-14T10:34:58Z</time>
      </trkpt>
      <trkpt lat="38.05182429" lon="-2.48814264">
        <ele>1592.0000</ele>
        <time>2018-10-14T10:34:59Z</time>
      </trkpt>
      <trkpt lat="38.05190191" lon="-2.48820676">
        <ele>1591.0000</ele>
        <time>2018-10-14T10:35:00Z</time>
      </trkpt>
      <trkpt lat="38.05204289" lon="-2.48831355">
        <ele>1590.0000</ele>
        <time>2018-10-14T10:35:02Z</time>
      </trkpt>
      <trkpt lat="38.05210350" lon="-2.48836794">
        <ele>1589.0000</ele>
        <time>2018-10-14T10:35:03Z</time>
      </trkpt>
      <trkpt lat="38.05220408" lon="-2.48861546">
        <ele>1589.0000</ele>
        <time>2018-10-14T10:35:06Z</time>
      </trkpt>
      <trkpt lat="38.05222646" lon="-2.48880271">
        <ele>1588.0000</ele>
        <time>2018-10-14T10:35:08Z</time>
      </trkpt>
      <trkpt lat="38.05223928" lon="-2.48890506">
        <ele>1588.0000</ele>
        <time>2018-10-14T10:35:09Z</time>
      </trkpt>
      <trkpt lat="38.05229377" lon="-2.48946304">
        <ele>1586.0000</ele>
        <time>2018-10-14T10:35:14Z</time>
      </trkpt>
      <trkpt lat="38.05231506" lon="-2.48971274">
        <ele>1585.0000</ele>
        <time>2018-10-14T10:35:16Z</time>
      </trkpt>
      <trkpt lat="38.05235437" lon="-2.48997115">
        <ele>1584.0000</ele>
        <time>2018-10-14T10:35:18Z</time>
      </trkpt>
      <trkpt lat="38.05241279" lon="-2.49020325">
        <ele>1582.0000</ele>
        <time>2018-10-14T10:35:20Z</time>
      </trkpt>
      <trkpt lat="38.05247238" lon="-2.49040768">
        <ele>1581.0000</ele>
        <time>2018-10-14T10:35:22Z</time>
      </trkpt>
      <trkpt lat="38.05254614" lon="-2.49058286">
        <ele>1579.0000</ele>
        <time>2018-10-14T10:35:24Z</time>
      </trkpt>
      <trkpt lat="38.05265259" lon="-2.49072209">
        <ele>1578.0000</ele>
        <time>2018-10-14T10:35:26Z</time>
      </trkpt>
      <trkpt lat="38.05296784" lon="-2.49106918">
        <ele>1577.0000</ele>
        <time>2018-10-14T10:35:31Z</time>
      </trkpt>
      <trkpt lat="38.05302182" lon="-2.49114152">
        <ele>1577.0000</ele>
        <time>2018-10-14T10:35:32Z</time>
      </trkpt>
      <trkpt lat="38.05306892" lon="-2.49121787">
        <ele>1577.0000</ele>
        <time>2018-10-14T10:35:33Z</time>
      </trkpt>
      <trkpt lat="38.05310220" lon="-2.49130119">
        <ele>1576.0000</ele>
        <time>2018-10-14T10:35:34Z</time>
      </trkpt>
      <trkpt lat="38.05314679" lon="-2.49149657">
        <ele>1574.0000</ele>
        <time>2018-10-14T10:35:36Z</time>
      </trkpt>
      <trkpt lat="38.05316381" lon="-2.49160227">
        <ele>1573.0000</ele>
        <time>2018-10-14T10:35:37Z</time>
      </trkpt>
      <trkpt lat="38.05318459" lon="-2.49170520">
        <ele>1572.0000</ele>
        <time>2018-10-14T10:35:38Z</time>
      </trkpt>
      <trkpt lat="38.05324637" lon="-2.49197753">
        <ele>1571.0000</ele>
        <time>2018-10-14T10:35:41Z</time>
      </trkpt>
      <trkpt lat="38.05337989" lon="-2.49215388">
        <ele>1571.0000</ele>
        <time>2018-10-14T10:35:44Z</time>
      </trkpt>
      <trkpt lat="38.05350872" lon="-2.49223938">
        <ele>1569.0000</ele>
        <time>2018-10-14T10:35:46Z</time>
      </trkpt>
      <trkpt lat="38.05363571" lon="-2.49235630">
        <ele>1568.0000</ele>
        <time>2018-10-14T10:35:48Z</time>
      </trkpt>
      <trkpt lat="38.05369765" lon="-2.49242998">
        <ele>1568.0000</ele>
        <time>2018-10-14T10:35:49Z</time>
      </trkpt>
      <trkpt lat="38.05375599" lon="-2.49251229">
        <ele>1567.0000</ele>
        <time>2018-10-14T10:35:50Z</time>
      </trkpt>
      <trkpt lat="38.05388071" lon="-2.49281320">
        <ele>1566.0000</ele>
        <time>2018-10-14T10:35:53Z</time>
      </trkpt>
      <trkpt lat="38.05393109" lon="-2.49315552">
        <ele>1564.0000</ele>
        <time>2018-10-14T10:35:56Z</time>
      </trkpt>
      <trkpt lat="38.05394500" lon="-2.49325459">
        <ele>1563.0000</ele>
        <time>2018-10-14T10:35:57Z</time>
      </trkpt>
      <trkpt lat="38.05396302" lon="-2.49334721">
        <ele>1562.0000</ele>
        <time>2018-10-14T10:35:58Z</time>
      </trkpt>
      <trkpt lat="38.05399211" lon="-2.49343539">
        <ele>1561.0000</ele>
        <time>2018-10-14T10:35:59Z</time>
      </trkpt>
      <trkpt lat="38.05408942" lon="-2.49357989">
        <ele>1560.0000</ele>
        <time>2018-10-14T10:36:01Z</time>
      </trkpt>
      <trkpt lat="38.05414943" lon="-2.49364150">
        <ele>1559.0000</ele>
        <time>2018-10-14T10:36:02Z</time>
      </trkpt>
      <trkpt lat="38.05420576" lon="-2.49371107">
        <ele>1558.0000</ele>
        <time>2018-10-14T10:36:03Z</time>
      </trkpt>
      <trkpt lat="38.05428698" lon="-2.49389095">
        <ele>1557.0000</ele>
        <time>2018-10-14T10:36:05Z</time>
      </trkpt>
      <trkpt lat="38.05430727" lon="-2.49399329">
        <ele>1557.0000</ele>
        <time>2018-10-14T10:36:06Z</time>
      </trkpt>
      <trkpt lat="38.05432529" lon="-2.49421206">
        <ele>1556.0000</ele>
        <time>2018-10-14T10:36:08Z</time>
      </trkpt>
      <trkpt lat="38.05432797" lon="-2.49432681">
        <ele>1556.0000</ele>
        <time>2018-10-14T10:36:09Z</time>
      </trkpt>
      <trkpt lat="38.05432118" lon="-2.49479703">
        <ele>1553.0000</ele>
        <time>2018-10-14T10:36:13Z</time>
      </trkpt>
      <trkpt lat="38.05432755" lon="-2.49503147">
        <ele>1552.0000</ele>
        <time>2018-10-14T10:36:15Z</time>
      </trkpt>
      <trkpt lat="38.05438212" lon="-2.49536859">
        <ele>1550.0000</ele>
        <time>2018-10-14T10:36:18Z</time>
      </trkpt>
      <trkpt lat="38.05444439" lon="-2.49557554">
        <ele>1549.0000</ele>
        <time>2018-10-14T10:36:20Z</time>
      </trkpt>
      <trkpt lat="38.05454079" lon="-2.49586111">
        <ele>1547.0000</ele>
        <time>2018-10-14T10:36:23Z</time>
      </trkpt>
      <trkpt lat="38.05454481" lon="-2.49622832">
        <ele>1546.0000</ele>
        <time>2018-10-14T10:36:27Z</time>
      </trkpt>
      <trkpt lat="38.05454012" lon="-2.49631281">
        <ele>1546.0000</ele>
        <time>2018-10-14T10:36:28Z</time>
      </trkpt>
      <trkpt lat="38.05474849" lon="-2.49662035">
        <ele>1545.0000</ele>
        <time>2018-10-14T10:36:34Z</time>
      </trkpt>
      <trkpt lat="38.05486894" lon="-2.49662538">
        <ele>1544.0000</ele>
        <time>2018-10-14T10:36:36Z</time>
      </trkpt>
      <trkpt lat="38.05492811" lon="-2.49663376">
        <ele>1544.0000</ele>
        <time>2018-10-14T10:36:37Z</time>
      </trkpt>
      <trkpt lat="38.05497857" lon="-2.49665932">
        <ele>1544.0000</ele>
        <time>2018-10-14T10:36:38Z</time>
      </trkpt>
      <trkpt lat="38.05504806" lon="-2.49687482">
        <ele>1542.0000</ele>
        <time>2018-10-14T10:36:42Z</time>
      </trkpt>
      <trkpt lat="38.05489056" lon="-2.49709786">
        <ele>1541.0000</ele>
        <time>2018-10-14T10:36:46Z</time>
      </trkpt>
      <trkpt lat="38.05473692" lon="-2.49730263">
        <ele>1540.0000</ele>
        <time>2018-10-14T10:36:49Z</time>
      </trkpt>
      <trkpt lat="38.05469677" lon="-2.49738452">
        <ele>1540.0000</ele>
        <time>2018-10-14T10:36:50Z</time>
      </trkpt>
      <trkpt lat="38.05464874" lon="-2.49757287">
        <ele>1539.0000</ele>
        <time>2018-10-14T10:36:52Z</time>
      </trkpt>
      <trkpt lat="38.05464279" lon="-2.49777420">
        <ele>1538.0000</ele>
        <time>2018-10-14T10:36:54Z</time>
      </trkpt>
      <trkpt lat="38.05465964" lon="-2.49796950">
        <ele>1537.0000</ele>
        <time>2018-10-14T10:36:56Z</time>
      </trkpt>
      <trkpt lat="38.05467238" lon="-2.49806371">
        <ele>1536.0000</ele>
        <time>2018-10-14T10:36:57Z</time>
      </trkpt>
      <trkpt lat="38.05472536" lon="-2.49824023">
        <ele>1534.0000</ele>
        <time>2018-10-14T10:36:59Z</time>
      </trkpt>
      <trkpt lat="38.05482401" lon="-2.49839890">
        <ele>1533.0000</ele>
        <time>2018-10-14T10:37:01Z</time>
      </trkpt>
      <trkpt lat="38.05488495" lon="-2.49847174">
        <ele>1532.0000</ele>
        <time>2018-10-14T10:37:02Z</time>
      </trkpt>
      <trkpt lat="38.05500581" lon="-2.49863485">
        <ele>1532.0000</ele>
        <time>2018-10-14T10:37:04Z</time>
      </trkpt>
      <trkpt lat="38.05505443" lon="-2.49873083">
        <ele>1531.0000</ele>
        <time>2018-10-14T10:37:05Z</time>
      </trkpt>
      <trkpt lat="38.05513305" lon="-2.49894054">
        <ele>1531.0000</ele>
        <time>2018-10-14T10:37:07Z</time>
      </trkpt>
      <trkpt lat="38.05518879" lon="-2.49914447">
        <ele>1529.0000</ele>
        <time>2018-10-14T10:37:09Z</time>
      </trkpt>
      <trkpt lat="38.05523942" lon="-2.49931018">
        <ele>1527.0000</ele>
        <time>2018-10-14T10:37:11Z</time>
      </trkpt>
      <trkpt lat="38.05531997" lon="-2.49944086">
        <ele>1526.0000</ele>
        <time>2018-10-14T10:37:13Z</time>
      </trkpt>
      <trkpt lat="38.05537386" lon="-2.49949534">
        <ele>1525.0000</ele>
        <time>2018-10-14T10:37:14Z</time>
      </trkpt>
      <trkpt lat="38.05550621" lon="-2.49954815">
        <ele>1523.0000</ele>
        <time>2018-10-14T10:37:16Z</time>
      </trkpt>
      <trkpt lat="38.05563831" lon="-2.49955929">
        <ele>1523.0000</ele>
        <time>2018-10-14T10:37:18Z</time>
      </trkpt>
      <trkpt lat="38.05578064" lon="-2.49958436">
        <ele>1522.0000</ele>
        <time>2018-10-14T10:37:20Z</time>
      </trkpt>
      <trkpt lat="38.05585666" lon="-2.49960984">
        <ele>1522.0000</ele>
        <time>2018-10-14T10:37:21Z</time>
      </trkpt>
      <trkpt lat="38.05593310" lon="-2.49964940">
        <ele>1521.0000</ele>
        <time>2018-10-14T10:37:22Z</time>
      </trkpt>
      <trkpt lat="38.05619076" lon="-2.49990412">
        <ele>1520.0000</ele>
        <time>2018-10-14T10:37:26Z</time>
      </trkpt>
      <trkpt lat="38.05624525" lon="-2.49998778">
        <ele>1520.0000</ele>
        <time>2018-10-14T10:37:27Z</time>
      </trkpt>
      <trkpt lat="38.05629948" lon="-2.50007411">
        <ele>1519.0000</ele>
        <time>2018-10-14T10:37:28Z</time>
      </trkpt>
      <trkpt lat="38.05641381" lon="-2.50023546">
        <ele>1518.0000</ele>
        <time>2018-10-14T10:37:30Z</time>
      </trkpt>
      <trkpt lat="38.05646334" lon="-2.50031584">
        <ele>1517.0000</ele>
        <time>2018-10-14T10:37:31Z</time>
      </trkpt>
      <trkpt lat="38.05650542" lon="-2.50040519">
        <ele>1515.0000</ele>
        <time>2018-10-14T10:37:32Z</time>
      </trkpt>
      <trkpt lat="38.05655412" lon="-2.50060452">
        <ele>1514.0000</ele>
        <time>2018-10-14T10:37:34Z</time>
      </trkpt>
      <trkpt lat="38.05655982" lon="-2.50071021">
        <ele>1513.0000</ele>
        <time>2018-10-14T10:37:35Z</time>
      </trkpt>
      <trkpt lat="38.05659209" lon="-2.50090216">
        <ele>1512.0000</ele>
        <time>2018-10-14T10:37:37Z</time>
      </trkpt>
      <trkpt lat="38.05661791" lon="-2.50098916">
        <ele>1512.0000</ele>
        <time>2018-10-14T10:37:38Z</time>
      </trkpt>
      <trkpt lat="38.05669787" lon="-2.50112763">
        <ele>1512.0000</ele>
        <time>2018-10-14T10:37:40Z</time>
      </trkpt>
      <trkpt lat="38.05680407" lon="-2.50121757">
        <ele>1512.0000</ele>
        <time>2018-10-14T10:37:42Z</time>
      </trkpt>
      <trkpt lat="38.05685587" lon="-2.50125160">
        <ele>1512.0000</ele>
        <time>2018-10-14T10:37:43Z</time>
      </trkpt>
      <trkpt lat="38.05695796" lon="-2.50131136">
        <ele>1512.0000</ele>
        <time>2018-10-14T10:37:45Z</time>
      </trkpt>
      <trkpt lat="38.05705519" lon="-2.50136509">
        <ele>1512.0000</ele>
        <time>2018-10-14T10:37:47Z</time>
      </trkpt>
      <trkpt lat="38.05717664" lon="-2.50144061">
        <ele>1513.0000</ele>
        <time>2018-10-14T10:37:50Z</time>
      </trkpt>
      <trkpt lat="38.05721612" lon="-2.50146467">
        <ele>1513.0000</ele>
        <time>2018-10-14T10:37:51Z</time>
      </trkpt>
      <trkpt lat="38.05734386" lon="-2.50150096">
        <ele>1514.0000</ele>
        <time>2018-10-14T10:37:54Z</time>
      </trkpt>
      <trkpt lat="38.05738560" lon="-2.50150138">
        <ele>1515.0000</ele>
        <time>2018-10-14T10:37:55Z</time>
      </trkpt>
      <trkpt lat="38.05742491" lon="-2.50150155">
        <ele>1516.0000</ele>
        <time>2018-10-14T10:37:56Z</time>
      </trkpt>
      <trkpt lat="38.05752432" lon="-2.50149032">
        <ele>1517.0000</ele>
        <time>2018-10-14T10:37:59Z</time>
      </trkpt>
      <trkpt lat="38.05767972" lon="-2.50151739">
        <ele>1518.0000</ele>
        <time>2018-10-14T10:38:03Z</time>
      </trkpt>
      <trkpt lat="38.05783160" lon="-2.50160624">
        <ele>1519.0000</ele>
        <time>2018-10-14T10:38:07Z</time>
      </trkpt>
      <trkpt lat="38.05795432" lon="-2.50173750">
        <ele>1520.0000</ele>
        <time>2018-10-14T10:38:11Z</time>
      </trkpt>
      <trkpt lat="38.05798189" lon="-2.50177379">
        <ele>1521.0000</ele>
        <time>2018-10-14T10:38:12Z</time>
      </trkpt>
      <trkpt lat="38.05810351" lon="-2.50197337">
        <ele>1522.0000</ele>
        <time>2018-10-14T10:38:17Z</time>
      </trkpt>
      <trkpt lat="38.05819789" lon="-2.50224561">
        <ele>1523.0000</ele>
        <time>2018-10-14T10:38:23Z</time>
      </trkpt>
      <trkpt lat="38.05827819" lon="-2.50255758">
        <ele>1524.0000</ele>
        <time>2018-10-14T10:38:30Z</time>
      </trkpt>
      <trkpt lat="38.05830216" lon="-2.50265423">
        <ele>1524.0000</ele>
        <time>2018-10-14T10:38:32Z</time>
      </trkpt>
      <trkpt lat="38.05839378" lon="-2.50313979">
        <ele>1523.0000</ele>
        <time>2018-10-14T10:38:41Z</time>
      </trkpt>
      <trkpt lat="38.05835489" lon="-2.50338505">
        <ele>1523.0000</ele>
        <time>2018-10-14T10:38:45Z</time>
      </trkpt>
      <trkpt lat="38.05822597" lon="-2.50375058">
        <ele>1523.0000</ele>
        <time>2018-10-14T10:38:51Z</time>
      </trkpt>
      <trkpt lat="38.05816252" lon="-2.50406172">
        <ele>1523.0000</ele>
        <time>2018-10-14T10:38:56Z</time>
      </trkpt>
      <trkpt lat="38.05811290" lon="-2.50465172">
        <ele>1523.0000</ele>
        <time>2018-10-14T10:39:05Z</time>
      </trkpt>
      <trkpt lat="38.05809069" lon="-2.50478876">
        <ele>1523.0000</ele>
        <time>2018-10-14T10:39:07Z</time>
      </trkpt>
      <trkpt lat="38.05804995" lon="-2.50509697">
        <ele>1523.0000</ele>
        <time>2018-10-14T10:39:11Z</time>
      </trkpt>
      <trkpt lat="38.05805054" lon="-2.50524055">
        <ele>1523.0000</ele>
        <time>2018-10-14T10:39:13Z</time>
      </trkpt>
      <trkpt lat="38.05809832" lon="-2.50536502">
        <ele>1522.0000</ele>
        <time>2018-10-14T10:39:15Z</time>
      </trkpt>
      <trkpt lat="38.05829144" lon="-2.50539117">
        <ele>1521.0000</ele>
        <time>2018-10-14T10:39:19Z</time>
      </trkpt>
      <trkpt lat="38.05843049" lon="-2.50524315">
        <ele>1521.0000</ele>
        <time>2018-10-14T10:39:23Z</time>
      </trkpt>
      <trkpt lat="38.05849319" lon="-2.50516075">
        <ele>1521.0000</ele>
        <time>2018-10-14T10:39:25Z</time>
      </trkpt>
      <trkpt lat="38.05859042" lon="-2.50505665">
        <ele>1521.0000</ele>
        <time>2018-10-14T10:39:28Z</time>
      </trkpt>
      <trkpt lat="38.05869184" lon="-2.50496277">
        <ele>1521.0000</ele>
        <time>2018-10-14T10:39:31Z</time>
      </trkpt>
      <trkpt lat="38.05879343" lon="-2.50486512">
        <ele>1522.0000</ele>
        <time>2018-10-14T10:39:34Z</time>
      </trkpt>
      <trkpt lat="38.05882872" lon="-2.50483553">
        <ele>1523.0000</ele>
        <time>2018-10-14T10:39:35Z</time>
      </trkpt>
      <trkpt lat="38.05899895" lon="-2.50472364">
        <ele>1524.0000</ele>
        <time>2018-10-14T10:39:40Z</time>
      </trkpt>
      <trkpt lat="38.05914069" lon="-2.50471475">
        <ele>1525.0000</ele>
        <time>2018-10-14T10:39:44Z</time>
      </trkpt>
      <trkpt lat="38.05929039" lon="-2.50487065">
        <ele>1526.0000</ele>
        <time>2018-10-14T10:39:50Z</time>
      </trkpt>
      <trkpt lat="38.05936289" lon="-2.50508439">
        <ele>1527.0000</ele>
        <time>2018-10-14T10:39:56Z</time>
      </trkpt>
      <trkpt lat="38.05941319" lon="-2.50524516">
        <ele>1529.0000</ele>
        <time>2018-10-14T10:40:01Z</time>
      </trkpt>
      <trkpt lat="38.05944227" lon="-2.50534197">
        <ele>1530.0000</ele>
        <time>2018-10-14T10:40:07Z</time>
      </trkpt>
      <trkpt lat="38.05943607" lon="-2.50534532">
        <ele>1530.0000</ele>
        <time>2018-10-14T10:40:08Z</time>
      </trkpt>
      <trkpt lat="38.05939307" lon="-2.50525941">
        <ele>1531.0000</ele>
        <time>2018-10-14T10:40:14Z</time>
      </trkpt>
      <trkpt lat="38.05932987" lon="-2.50504449">
        <ele>1531.0000</ele>
        <time>2018-10-14T10:40:19Z</time>
      </trkpt>
      <trkpt lat="38.05926960" lon="-2.50486705">
        <ele>1530.0000</ele>
        <time>2018-10-14T10:40:23Z</time>
      </trkpt>
      <trkpt lat="38.05925762" lon="-2.50483134">
        <ele>1530.0000</ele>
        <time>2018-10-14T10:40:24Z</time>
      </trkpt>
      <trkpt lat="38.05924831" lon="-2.50477443">
        <ele>1529.0000</ele>
        <time>2018-10-14T10:40:26Z</time>
      </trkpt>
      <trkpt lat="38.05926960" lon="-2.50472925">
        <ele>1529.0000</ele>
        <time>2018-10-14T10:40:28Z</time>
      </trkpt>
      <trkpt lat="38.05940841" lon="-2.50475373">
        <ele>1528.0000</ele>
        <time>2018-10-14T10:40:33Z</time>
      </trkpt>
      <trkpt lat="38.05955970" lon="-2.50485666">
        <ele>1528.0000</ele>
        <time>2018-10-14T10:40:37Z</time>
      </trkpt>
      <trkpt lat="38.05962525" lon="-2.50489446">
        <ele>1527.0000</ele>
        <time>2018-10-14T10:40:39Z</time>
      </trkpt>
      <trkpt lat="38.05971175" lon="-2.50495053">
        <ele>1526.0000</ele>
        <time>2018-10-14T10:40:42Z</time>
      </trkpt>
      <trkpt lat="38.05975609" lon="-2.50497249">
        <ele>1525.0000</ele>
        <time>2018-10-14T10:40:44Z</time>
      </trkpt>
      <trkpt lat="38.05984192" lon="-2.50498012">
        <ele>1523.0000</ele>
        <time>2018-10-14T10:40:47Z</time>
      </trkpt>
      <trkpt lat="38.05999162" lon="-2.50492287">
        <ele>1522.0000</ele>
        <time>2018-10-14T10:40:51Z</time>
      </trkpt>
      <trkpt lat="38.06008349" lon="-2.50482925">
        <ele>1521.0000</ele>
        <time>2018-10-14T10:40:54Z</time>
      </trkpt>
      <trkpt lat="38.06012473" lon="-2.50476756">
        <ele>1520.0000</ele>
        <time>2018-10-14T10:40:56Z</time>
      </trkpt>
      <trkpt lat="38.06014065" lon="-2.50473562">
        <ele>1520.0000</ele>
        <time>2018-10-14T10:40:57Z</time>
      </trkpt>
      <trkpt lat="38.06018700" lon="-2.50455575">
        <ele>1519.0000</ele>
        <time>2018-10-14T10:41:01Z</time>
      </trkpt>
      <trkpt lat="38.06022791" lon="-2.50434955">
        <ele>1517.0000</ele>
        <time>2018-10-14T10:41:05Z</time>
      </trkpt>
      <trkpt lat="38.06024601" lon="-2.50422072">
        <ele>1516.0000</ele>
        <time>2018-10-14T10:41:08Z</time>
      </trkpt>
      <trkpt lat="38.06026554" lon="-2.50414109">
        <ele>1515.0000</ele>
        <time>2018-10-14T10:41:10Z</time>
      </trkpt>
      <trkpt lat="38.06028423" lon="-2.50406406">
        <ele>1514.0000</ele>
        <time>2018-10-14T10:41:12Z</time>
      </trkpt>
      <trkpt lat="38.06031466" lon="-2.50394638">
        <ele>1512.0000</ele>
        <time>2018-10-14T10:41:15Z</time>
      </trkpt>
      <trkpt lat="38.06032740" lon="-2.50385083">
        <ele>1511.0000</ele>
        <time>2018-10-14T10:41:17Z</time>
      </trkpt>
      <trkpt lat="38.06033050" lon="-2.50362016">
        <ele>1510.0000</ele>
        <time>2018-10-14T10:41:21Z</time>
      </trkpt>
      <trkpt lat="38.06032111" lon="-2.50351614">
        <ele>1509.0000</ele>
        <time>2018-10-14T10:41:23Z</time>
      </trkpt>
      <trkpt lat="38.06030779" lon="-2.50346451">
        <ele>1509.0000</ele>
        <time>2018-10-14T10:41:24Z</time>
      </trkpt>
      <trkpt lat="38.06026319" lon="-2.50336174">
        <ele>1508.0000</ele>
        <time>2018-10-14T10:41:26Z</time>
      </trkpt>
      <trkpt lat="38.06023604" lon="-2.50331170">
        <ele>1507.0000</ele>
        <time>2018-10-14T10:41:27Z</time>
      </trkpt>
      <trkpt lat="38.06020653" lon="-2.50326820">
        <ele>1506.0000</ele>
        <time>2018-10-14T10:41:28Z</time>
      </trkpt>
      <trkpt lat="38.06011961" lon="-2.50314884">
        <ele>1505.0000</ele>
        <time>2018-10-14T10:41:31Z</time>
      </trkpt>
      <trkpt lat="38.06003370" lon="-2.50303636">
        <ele>1504.0000</ele>
        <time>2018-10-14T10:41:34Z</time>
      </trkpt>
      <trkpt lat="38.05998290" lon="-2.50291415">
        <ele>1502.0000</ele>
        <time>2018-10-14T10:41:37Z</time>
      </trkpt>
      <trkpt lat="38.05997142" lon="-2.50283167">
        <ele>1501.0000</ele>
        <time>2018-10-14T10:41:39Z</time>
      </trkpt>
      <trkpt lat="38.05997888" lon="-2.50274852">
        <ele>1500.0000</ele>
        <time>2018-10-14T10:41:41Z</time>
      </trkpt>
      <trkpt lat="38.06000579" lon="-2.50268616">
        <ele>1498.0000</ele>
        <time>2018-10-14T10:41:43Z</time>
      </trkpt>
      <trkpt lat="38.06006974" lon="-2.50263193">
        <ele>1497.0000</ele>
        <time>2018-10-14T10:41:46Z</time>
      </trkpt>
      <trkpt lat="38.06014643" lon="-2.50260578">
        <ele>1496.0000</ele>
        <time>2018-10-14T10:41:49Z</time>
      </trkpt>
      <trkpt lat="38.06021064" lon="-2.50261500">
        <ele>1495.0000</ele>
        <time>2018-10-14T10:41:51Z</time>
      </trkpt>
      <trkpt lat="38.06024744" lon="-2.50262774">
        <ele>1494.0000</ele>
        <time>2018-10-14T10:41:52Z</time>
      </trkpt>
      <trkpt lat="38.06031835" lon="-2.50266294">
        <ele>1494.0000</ele>
        <time>2018-10-14T10:41:54Z</time>
      </trkpt>
      <trkpt lat="38.06039043" lon="-2.50270150">
        <ele>1494.0000</ele>
        <time>2018-10-14T10:41:56Z</time>
      </trkpt>
      <trkpt lat="38.06051289" lon="-2.50275858">
        <ele>1494.0000</ele>
        <time>2018-10-14T10:42:00Z</time>
      </trkpt>
      <trkpt lat="38.06059336" lon="-2.50279789">
        <ele>1494.0000</ele>
        <time>2018-10-14T10:42:03Z</time>
      </trkpt>
      <trkpt lat="38.06070861" lon="-2.50280686">
        <ele>1495.0000</ele>
        <time>2018-10-14T10:42:07Z</time>
      </trkpt>
      <trkpt lat="38.06077164" lon="-2.50277333">
        <ele>1496.0000</ele>
        <time>2018-10-14T10:42:10Z</time>
      </trkpt>
      <trkpt lat="38.06084465" lon="-2.50266663">
        <ele>1496.0000</ele>
        <time>2018-10-14T10:42:14Z</time>
      </trkpt>
      <trkpt lat="38.06086217" lon="-2.50264015">
        <ele>1497.0000</ele>
        <time>2018-10-14T10:42:15Z</time>
      </trkpt>
      <trkpt lat="38.06094431" lon="-2.50255926">
        <ele>1498.0000</ele>
        <time>2018-10-14T10:42:19Z</time>
      </trkpt>
      <trkpt lat="38.06109485" lon="-2.50248625">
        <ele>1499.0000</ele>
        <time>2018-10-14T10:42:26Z</time>
      </trkpt>
      <trkpt lat="38.06123491" lon="-2.50246329">
        <ele>1500.0000</ele>
        <time>2018-10-14T10:42:31Z</time>
      </trkpt>
      <trkpt lat="38.06136282" lon="-2.50247502">
        <ele>1501.0000</ele>
        <time>2018-10-14T10:42:35Z</time>
      </trkpt>
      <trkpt lat="38.06148913" lon="-2.50252137">
        <ele>1502.0000</ele>
        <time>2018-10-14T10:42:40Z</time>
      </trkpt>
      <trkpt lat="38.06164026" lon="-2.50267476">
        <ele>1503.0000</ele>
        <time>2018-10-14T10:42:47Z</time>
      </trkpt>
      <trkpt lat="38.06181192" lon="-2.50290166">
        <ele>1504.0000</ele>
        <time>2018-10-14T10:42:55Z</time>
      </trkpt>
      <trkpt lat="38.06205273" lon="-2.50320224">
        <ele>1505.0000</ele>
        <time>2018-10-14T10:43:06Z</time>
      </trkpt>
      <trkpt lat="38.06214217" lon="-2.50338345">
        <ele>1506.0000</ele>
        <time>2018-10-14T10:43:12Z</time>
      </trkpt>
      <trkpt lat="38.06219631" lon="-2.50351547">
        <ele>1508.0000</ele>
        <time>2018-10-14T10:43:16Z</time>
      </trkpt>
      <trkpt lat="38.06231349" lon="-2.50369668">
        <ele>1508.0000</ele>
        <time>2018-10-14T10:43:22Z</time>
      </trkpt>
      <trkpt lat="38.06253821" lon="-2.50381663">
        <ele>1510.0000</ele>
        <time>2018-10-14T10:43:30Z</time>
      </trkpt>
      <trkpt lat="38.06273887" lon="-2.50388092">
        <ele>1511.0000</ele>
        <time>2018-10-14T10:43:37Z</time>
      </trkpt>
      <trkpt lat="38.06288799" lon="-2.50389140">
        <ele>1512.0000</ele>
        <time>2018-10-14T10:43:42Z</time>
      </trkpt>
      <trkpt lat="38.06316778" lon="-2.50387581">
        <ele>1512.0000</ele>
        <time>2018-10-14T10:43:51Z</time>
      </trkpt>
      <trkpt lat="38.06328722" lon="-2.50386130">
        <ele>1513.0000</ele>
        <time>2018-10-14T10:43:54Z</time>
      </trkpt>
      <trkpt lat="38.06345527" lon="-2.50383130">
        <ele>1513.0000</ele>
        <time>2018-10-14T10:43:57Z</time>
      </trkpt>
      <trkpt lat="38.06364060" lon="-2.50380506">
        <ele>1513.0000</ele>
        <time>2018-10-14T10:44:00Z</time>
      </trkpt>
      <trkpt lat="38.06376490" lon="-2.50378570">
        <ele>1513.0000</ele>
        <time>2018-10-14T10:44:02Z</time>
      </trkpt>
      <trkpt lat="38.06393715" lon="-2.50374438">
        <ele>1513.0000</ele>
        <time>2018-10-14T10:44:05Z</time>
      </trkpt>
      <trkpt lat="38.06408517" lon="-2.50366349">
        <ele>1513.0000</ele>
        <time>2018-10-14T10:44:08Z</time>
      </trkpt>
      <trkpt lat="38.06412960" lon="-2.50362887">
        <ele>1513.0000</ele>
        <time>2018-10-14T10:44:09Z</time>
      </trkpt>
      <trkpt lat="38.06423546" lon="-2.50354732">
        <ele>1513.0000</ele>
        <time>2018-10-14T10:44:11Z</time>
      </trkpt>
      <trkpt lat="38.06456990" lon="-2.50327005">
        <ele>1513.0000</ele>
        <time>2018-10-14T10:44:17Z</time>
      </trkpt>
      <trkpt lat="38.06473838" lon="-2.50303334">
        <ele>1513.0000</ele>
        <time>2018-10-14T10:44:22Z</time>
      </trkpt>
      <trkpt lat="38.06478942" lon="-2.50294525">
        <ele>1513.0000</ele>
        <time>2018-10-14T10:44:24Z</time>
      </trkpt>
      <trkpt lat="38.06503191" lon="-2.50233379">
        <ele>1514.0000</ele>
        <time>2018-10-14T10:44:34Z</time>
      </trkpt>
      <trkpt lat="38.06506812" lon="-2.50216933">
        <ele>1514.0000</ele>
        <time>2018-10-14T10:44:36Z</time>
      </trkpt>
      <trkpt lat="38.06511263" lon="-2.50193573">
        <ele>1514.0000</ele>
        <time>2018-10-14T10:44:39Z</time>
      </trkpt>
      <trkpt lat="38.06515957" lon="-2.50175611">
        <ele>1514.0000</ele>
        <time>2018-10-14T10:44:42Z</time>
      </trkpt>
      <trkpt lat="38.06536635" lon="-2.50135931">
        <ele>1514.0000</ele>
        <time>2018-10-14T10:44:51Z</time>
      </trkpt>
      <trkpt lat="38.06562786" lon="-2.50089596">
        <ele>1513.0000</ele>
        <time>2018-10-14T10:45:00Z</time>
      </trkpt>
      <trkpt lat="38.06580958" lon="-2.50023144">
        <ele>1513.0000</ele>
        <time>2018-10-14T10:45:09Z</time>
      </trkpt>
      <trkpt lat="38.06591872" lon="-2.49970003">
        <ele>1513.0000</ele>
        <time>2018-10-14T10:45:15Z</time>
      </trkpt>
      <trkpt lat="38.06594864" lon="-2.49953038">
        <ele>1513.0000</ele>
        <time>2018-10-14T10:45:17Z</time>
      </trkpt>
      <trkpt lat="38.06596591" lon="-2.49898983">
        <ele>1511.0000</ele>
        <time>2018-10-14T10:45:24Z</time>
      </trkpt>
      <trkpt lat="38.06596750" lon="-2.49891858">
        <ele>1509.0000</ele>
        <time>2018-10-14T10:45:25Z</time>
      </trkpt>
      <trkpt lat="38.06597286" lon="-2.49885069">
        <ele>1508.0000</ele>
        <time>2018-10-14T10:45:26Z</time>
      </trkpt>
      <trkpt lat="38.06597739" lon="-2.49879168">
        <ele>1506.0000</ele>
        <time>2018-10-14T10:45:27Z</time>
      </trkpt>
      <trkpt lat="38.06598217" lon="-2.49874055">
        <ele>1504.0000</ele>
        <time>2018-10-14T10:45:28Z</time>
      </trkpt>
      <trkpt lat="38.06598820" lon="-2.49869554">
        <ele>1502.0000</ele>
        <time>2018-10-14T10:45:29Z</time>
      </trkpt>
      <trkpt lat="38.06600010" lon="-2.49865581">
        <ele>1500.0000</ele>
        <time>2018-10-14T10:45:30Z</time>
      </trkpt>
      <trkpt lat="38.06601678" lon="-2.49861817">
        <ele>1498.0000</ele>
        <time>2018-10-14T10:45:31Z</time>
      </trkpt>
      <trkpt lat="38.06604185" lon="-2.49858481">
        <ele>1496.0000</ele>
        <time>2018-10-14T10:45:32Z</time>
      </trkpt>
      <trkpt lat="38.06607672" lon="-2.49856361">
        <ele>1495.0000</ele>
        <time>2018-10-14T10:45:33Z</time>
      </trkpt>
      <trkpt lat="38.06612215" lon="-2.49855288">
        <ele>1493.0000</ele>
        <time>2018-10-14T10:45:34Z</time>
      </trkpt>
      <trkpt lat="38.06616162" lon="-2.49855699">
        <ele>1492.0000</ele>
        <time>2018-10-14T10:45:35Z</time>
      </trkpt>
      <trkpt lat="38.06619725" lon="-2.49857040">
        <ele>1491.0000</ele>
        <time>2018-10-14T10:45:36Z</time>
      </trkpt>
      <trkpt lat="38.06622868" lon="-2.49858397">
        <ele>1490.0000</ele>
        <time>2018-10-14T10:45:37Z</time>
      </trkpt>
      <trkpt lat="38.06626816" lon="-2.49859655">
        <ele>1489.0000</ele>
        <time>2018-10-14T10:45:38Z</time>
      </trkpt>
      <trkpt lat="38.06630169" lon="-2.49861599">
        <ele>1488.0000</ele>
        <time>2018-10-14T10:45:39Z</time>
      </trkpt>
      <trkpt lat="38.06632842" lon="-2.49863527">
        <ele>1487.0000</ele>
        <time>2018-10-14T10:45:40Z</time>
      </trkpt>
      <trkpt lat="38.06635399" lon="-2.49865472">
        <ele>1486.0000</ele>
        <time>2018-10-14T10:45:41Z</time>
      </trkpt>
      <trkpt lat="38.06639330" lon="-2.49867173">
        <ele>1485.0000</ele>
        <time>2018-10-14T10:45:42Z</time>
      </trkpt>
      <trkpt lat="38.06642674" lon="-2.49868506">
        <ele>1485.0000</ele>
        <time>2018-10-14T10:45:43Z</time>
      </trkpt>
      <trkpt lat="38.06649673" lon="-2.49871985">
        <ele>1484.0000</ele>
        <time>2018-10-14T10:45:45Z</time>
      </trkpt>
      <trkpt lat="38.06666336" lon="-2.49881196">
        <ele>1483.0000</ele>
        <time>2018-10-14T10:45:50Z</time>
      </trkpt>
      <trkpt lat="38.06686419" lon="-2.49893501">
        <ele>1483.0000</ele>
        <time>2018-10-14T10:45:57Z</time>
      </trkpt>
      <trkpt lat="38.06707148" lon="-2.49912243">
        <ele>1485.0000</ele>
        <time>2018-10-14T10:46:06Z</time>
      </trkpt>
      <trkpt lat="38.06717843" lon="-2.49926190">
        <ele>1486.0000</ele>
        <time>2018-10-14T10:46:12Z</time>
      </trkpt>
      <trkpt lat="38.06724088" lon="-2.49936500">
        <ele>1487.0000</ele>
        <time>2018-10-14T10:46:16Z</time>
      </trkpt>
      <trkpt lat="38.06730349" lon="-2.49950590">
        <ele>1488.0000</ele>
        <time>2018-10-14T10:46:21Z</time>
      </trkpt>
      <trkpt lat="38.06735831" lon="-2.49968670">
        <ele>1490.0000</ele>
        <time>2018-10-14T10:46:27Z</time>
      </trkpt>
      <trkpt lat="38.06736443" lon="-2.49985350">
        <ele>1491.0000</ele>
        <time>2018-10-14T10:46:32Z</time>
      </trkpt>
      <trkpt lat="38.06735563" lon="-2.49998660">
        <ele>1492.0000</ele>
        <time>2018-10-14T10:46:36Z</time>
      </trkpt>
      <trkpt lat="38.06735361" lon="-2.50018852">
        <ele>1493.0000</ele>
        <time>2018-10-14T10:46:42Z</time>
      </trkpt>
      <trkpt lat="38.06740131" lon="-2.50038248">
        <ele>1494.0000</ele>
        <time>2018-10-14T10:46:48Z</time>
      </trkpt>
      <trkpt lat="38.06746928" lon="-2.50053117">
        <ele>1495.0000</ele>
        <time>2018-10-14T10:46:53Z</time>
      </trkpt>
      <trkpt lat="38.06757490" lon="-2.50073469">
        <ele>1496.0000</ele>
        <time>2018-10-14T10:47:00Z</time>
      </trkpt>
      <trkpt lat="38.06764438" lon="-2.50091850">
        <ele>1497.0000</ele>
        <time>2018-10-14T10:47:06Z</time>
      </trkpt>
      <trkpt lat="38.06771437" lon="-2.50109813">
        <ele>1498.0000</ele>
        <time>2018-10-14T10:47:12Z</time>
      </trkpt>
      <trkpt lat="38.06779626" lon="-2.50130424">
        <ele>1499.0000</ele>
        <time>2018-10-14T10:47:19Z</time>
      </trkpt>
      <trkpt lat="38.06790590" lon="-2.50149191">
        <ele>1501.0000</ele>
        <time>2018-10-14T10:47:26Z</time>
      </trkpt>
      <trkpt lat="38.06805124" lon="-2.50161487">
        <ele>1502.0000</ele>
        <time>2018-10-14T10:47:32Z</time>
      </trkpt>
      <trkpt lat="38.06822123" lon="-2.50171612">
        <ele>1503.0000</ele>
        <time>2018-10-14T10:47:38Z</time>
      </trkpt>
      <trkpt lat="38.06845935" lon="-2.50177295">
        <ele>1504.0000</ele>
        <time>2018-10-14T10:47:46Z</time>
      </trkpt>
      <trkpt lat="38.06861216" lon="-2.50175627">
        <ele>1505.0000</ele>
        <time>2018-10-14T10:47:51Z</time>
      </trkpt>
      <trkpt lat="38.06882824" lon="-2.50171478">
        <ele>1506.0000</ele>
        <time>2018-10-14T10:47:58Z</time>
      </trkpt>
      <trkpt lat="38.06904835" lon="-2.50167103">
        <ele>1507.0000</ele>
        <time>2018-10-14T10:48:05Z</time>
      </trkpt>
      <trkpt lat="38.06941959" lon="-2.50166449">
        <ele>1508.0000</ele>
        <time>2018-10-14T10:48:16Z</time>
      </trkpt>
      <trkpt lat="38.06962670" lon="-2.50166935">
        <ele>1509.0000</ele>
        <time>2018-10-14T10:48:22Z</time>
      </trkpt>
      <trkpt lat="38.06991931" lon="-2.50165167">
        <ele>1510.0000</ele>
        <time>2018-10-14T10:48:31Z</time>
      </trkpt>
      <trkpt lat="38.07014320" lon="-2.50165209">
        <ele>1511.0000</ele>
        <time>2018-10-14T10:48:38Z</time>
      </trkpt>
      <trkpt lat="38.07033522" lon="-2.50165645">
        <ele>1512.0000</ele>
        <time>2018-10-14T10:48:44Z</time>
      </trkpt>
      <trkpt lat="38.07061811" lon="-2.50161722">
        <ele>1513.0000</ele>
        <time>2018-10-14T10:48:53Z</time>
      </trkpt>
      <trkpt lat="38.07090637" lon="-2.50154069">
        <ele>1515.0000</ele>
        <time>2018-10-14T10:49:02Z</time>
      </trkpt>
      <trkpt lat="38.07113436" lon="-2.50142812">
        <ele>1516.0000</ele>
        <time>2018-10-14T10:49:09Z</time>
      </trkpt>
      <trkpt lat="38.07157583" lon="-2.50125646">
        <ele>1516.0000</ele>
        <time>2018-10-14T10:49:22Z</time>
      </trkpt>
      <trkpt lat="38.07195452" lon="-2.50100995">
        <ele>1517.0000</ele>
        <time>2018-10-14T10:49:33Z</time>
      </trkpt>
      <trkpt lat="38.07240815" lon="-2.50065020">
        <ele>1519.0000</ele>
        <time>2018-10-14T10:49:46Z</time>
      </trkpt>
      <trkpt lat="38.07247253" lon="-2.50059622">
        <ele>1519.0000</ele>
        <time>2018-10-14T10:49:48Z</time>
      </trkpt>
      <trkpt lat="38.07278844" lon="-2.50035591">
        <ele>1520.0000</ele>
        <time>2018-10-14T10:49:57Z</time>
      </trkpt>
      <trkpt lat="38.07300779" lon="-2.50018676">
        <ele>1521.0000</ele>
        <time>2018-10-14T10:50:03Z</time>
      </trkpt>
      <trkpt lat="38.07346084" lon="-2.49983238">
        <ele>1522.0000</ele>
        <time>2018-10-14T10:50:16Z</time>
      </trkpt>
      <trkpt lat="38.07369209" lon="-2.49936768">
        <ele>1523.0000</ele>
        <time>2018-10-14T10:50:27Z</time>
      </trkpt>
      <trkpt lat="38.07370584" lon="-2.49931756">
        <ele>1523.0000</ele>
        <time>2018-10-14T10:50:28Z</time>
      </trkpt>
      <trkpt lat="38.07398890" lon="-2.49908245">
        <ele>1523.0000</ele>
        <time>2018-10-14T10:50:37Z</time>
      </trkpt>
      <trkpt lat="38.07402636" lon="-2.49907465">
        <ele>1524.0000</ele>
        <time>2018-10-14T10:50:38Z</time>
      </trkpt>
      <trkpt lat="38.07418051" lon="-2.49905655">
        <ele>1524.0000</ele>
        <time>2018-10-14T10:50:42Z</time>
      </trkpt>
      <trkpt lat="38.07431344" lon="-2.49903559">
        <ele>1525.0000</ele>
        <time>2018-10-14T10:50:46Z</time>
      </trkpt>
      <trkpt lat="38.07460983" lon="-2.49902226">
        <ele>1526.0000</ele>
        <time>2018-10-14T10:50:52Z</time>
      </trkpt>
      <trkpt lat="38.07465367" lon="-2.49901925">
        <ele>1526.0000</ele>
        <time>2018-10-14T10:50:53Z</time>
      </trkpt>
      <trkpt lat="38.07483002" lon="-2.49900961">
        <ele>1527.0000</ele>
        <time>2018-10-14T10:50:57Z</time>
      </trkpt>
      <trkpt lat="38.07504795" lon="-2.49898815">
        <ele>1528.0000</ele>
        <time>2018-10-14T10:51:02Z</time>
      </trkpt>
      <trkpt lat="38.07522238" lon="-2.49897088">
        <ele>1529.0000</ele>
        <time>2018-10-14T10:51:06Z</time>
      </trkpt>
      <trkpt lat="38.07542539" lon="-2.49896669">
        <ele>1530.0000</ele>
        <time>2018-10-14T10:51:11Z</time>
      </trkpt>
      <trkpt lat="38.07546570" lon="-2.49897357">
        <ele>1530.0000</ele>
        <time>2018-10-14T10:51:12Z</time>
      </trkpt>
      <trkpt lat="38.07565405" lon="-2.49908027">
        <ele>1531.0000</ele>
        <time>2018-10-14T10:51:17Z</time>
      </trkpt>
      <trkpt lat="38.07568883" lon="-2.49910893">
        <ele>1531.0000</ele>
        <time>2018-10-14T10:51:18Z</time>
      </trkpt>
      <trkpt lat="38.07591397" lon="-2.49933709">
        <ele>1532.0000</ele>
        <time>2018-10-14T10:51:25Z</time>
      </trkpt>
      <trkpt lat="38.07607800" lon="-2.49954027">
        <ele>1533.0000</ele>
        <time>2018-10-14T10:51:31Z</time>
      </trkpt>
      <trkpt lat="38.07623064" lon="-2.49975778">
        <ele>1534.0000</ele>
        <time>2018-10-14T10:51:37Z</time>
      </trkpt>
      <trkpt lat="38.07636944" lon="-2.49999566">
        <ele>1536.0000</ele>
        <time>2018-10-14T10:51:43Z</time>
      </trkpt>
      <trkpt lat="38.07645929" lon="-2.50021903">
        <ele>1537.0000</ele>
        <time>2018-10-14T10:51:48Z</time>
      </trkpt>
      <trkpt lat="38.07657044" lon="-2.50059052">
        <ele>1538.0000</ele>
        <time>2018-10-14T10:51:56Z</time>
      </trkpt>
      <trkpt lat="38.07666541" lon="-2.50096988">
        <ele>1539.0000</ele>
        <time>2018-10-14T10:52:04Z</time>
      </trkpt>
      <trkpt lat="38.07677160" lon="-2.50139334">
        <ele>1540.0000</ele>
        <time>2018-10-14T10:52:13Z</time>
      </trkpt>
      <trkpt lat="38.07681477" lon="-2.50167698">
        <ele>1541.0000</ele>
        <time>2018-10-14T10:52:19Z</time>
      </trkpt>
      <trkpt lat="38.07681293" lon="-2.50196741">
        <ele>1542.0000</ele>
        <time>2018-10-14T10:52:25Z</time>
      </trkpt>
      <trkpt lat="38.07679273" lon="-2.50220655">
        <ele>1543.0000</ele>
        <time>2018-10-14T10:52:30Z</time>
      </trkpt>
      <trkpt lat="38.07672475" lon="-2.50247946">
        <ele>1544.0000</ele>
        <time>2018-10-14T10:52:36Z</time>
      </trkpt>
      <trkpt lat="38.07665996" lon="-2.50269186">
        <ele>1545.0000</ele>
        <time>2018-10-14T10:52:41Z</time>
      </trkpt>
      <trkpt lat="38.07656709" lon="-2.50293569">
        <ele>1546.0000</ele>
        <time>2018-10-14T10:52:47Z</time>
      </trkpt>
      <trkpt lat="38.07645452" lon="-2.50320299">
        <ele>1548.0000</ele>
        <time>2018-10-14T10:52:53Z</time>
      </trkpt>
      <trkpt lat="38.07634094" lon="-2.50349409">
        <ele>1549.0000</ele>
        <time>2018-10-14T10:52:58Z</time>
      </trkpt>
      <trkpt lat="38.07631395" lon="-2.50356039">
        <ele>1549.0000</ele>
        <time>2018-10-14T10:52:59Z</time>
      </trkpt>
      <trkpt lat="38.07619099" lon="-2.50386005">
        <ele>1549.0000</ele>
        <time>2018-10-14T10:53:03Z</time>
      </trkpt>
      <trkpt lat="38.07612913" lon="-2.50402559">
        <ele>1549.0000</ele>
        <time>2018-10-14T10:53:05Z</time>
      </trkpt>
      <trkpt lat="38.07610332" lon="-2.50448752">
        <ele>1549.0000</ele>
        <time>2018-10-14T10:53:11Z</time>
      </trkpt>
      <trkpt lat="38.07613617" lon="-2.50475716">
        <ele>1549.0000</ele>
        <time>2018-10-14T10:53:15Z</time>
      </trkpt>
      <trkpt lat="38.07614464" lon="-2.50482849">
        <ele>1549.0000</ele>
        <time>2018-10-14T10:53:16Z</time>
      </trkpt>
      <trkpt lat="38.07616517" lon="-2.50504332">
        <ele>1549.0000</ele>
        <time>2018-10-14T10:53:19Z</time>
      </trkpt>
      <trkpt lat="38.07611052" lon="-2.50573298">
        <ele>1550.0000</ele>
        <time>2018-10-14T10:53:28Z</time>
      </trkpt>
      <trkpt lat="38.07603676" lon="-2.50615275">
        <ele>1550.0000</ele>
        <time>2018-10-14T10:53:34Z</time>
      </trkpt>
      <trkpt lat="38.07599427" lon="-2.50651476">
        <ele>1550.0000</ele>
        <time>2018-10-14T10:53:39Z</time>
      </trkpt>
      <trkpt lat="38.07606166" lon="-2.50682624">
        <ele>1550.0000</ele>
        <time>2018-10-14T10:53:43Z</time>
      </trkpt>
      <trkpt lat="38.07613684" lon="-2.50701986">
        <ele>1550.0000</ele>
        <time>2018-10-14T10:53:46Z</time>
      </trkpt>
      <trkpt lat="38.07619870" lon="-2.50719445">
        <ele>1550.0000</ele>
        <time>2018-10-14T10:53:49Z</time>
      </trkpt>
      <trkpt lat="38.07633751" lon="-2.50787749">
        <ele>1550.0000</ele>
        <time>2018-10-14T10:53:59Z</time>
      </trkpt>
      <trkpt lat="38.07635041" lon="-2.50821922">
        <ele>1550.0000</ele>
        <time>2018-10-14T10:54:03Z</time>
      </trkpt>
      <trkpt lat="38.07632518" lon="-2.50847571">
        <ele>1550.0000</ele>
        <time>2018-10-14T10:54:06Z</time>
      </trkpt>
      <trkpt lat="38.07630557" lon="-2.50856162">
        <ele>1550.0000</ele>
        <time>2018-10-14T10:54:07Z</time>
      </trkpt>
      <trkpt lat="38.07620943" lon="-2.50880747">
        <ele>1550.0000</ele>
        <time>2018-10-14T10:54:10Z</time>
      </trkpt>
      <trkpt lat="38.07586778" lon="-2.50944592">
        <ele>1550.0000</ele>
        <time>2018-10-14T10:54:18Z</time>
      </trkpt>
      <trkpt lat="38.07586636" lon="-2.50993257">
        <ele>1550.0000</ele>
        <time>2018-10-14T10:54:24Z</time>
      </trkpt>
      <trkpt lat="38.07589419" lon="-2.51001052">
        <ele>1550.0000</ele>
        <time>2018-10-14T10:54:25Z</time>
      </trkpt>
      <trkpt lat="38.07599888" lon="-2.51020523">
        <ele>1550.0000</ele>
        <time>2018-10-14T10:54:28Z</time>
      </trkpt>
      <trkpt lat="38.07607809" lon="-2.51030489">
        <ele>1550.0000</ele>
        <time>2018-10-14T10:54:30Z</time>
      </trkpt>
      <trkpt lat="38.07614606" lon="-2.51039768">
        <ele>1550.0000</ele>
        <time>2018-10-14T10:54:32Z</time>
      </trkpt>
      <trkpt lat="38.07619476" lon="-2.51050958">
        <ele>1550.0000</ele>
        <time>2018-10-14T10:54:34Z</time>
      </trkpt>
      <trkpt lat="38.07621982" lon="-2.51056892">
        <ele>1550.0000</ele>
        <time>2018-10-14T10:54:35Z</time>
      </trkpt>
      <trkpt lat="38.07635385" lon="-2.51111458">
        <ele>1550.0000</ele>
        <time>2018-10-14T10:54:43Z</time>
      </trkpt>
      <trkpt lat="38.07639501" lon="-2.51131282">
        <ele>1550.0000</ele>
        <time>2018-10-14T10:54:47Z</time>
      </trkpt>
      <trkpt lat="38.07641487" lon="-2.51141759">
        <ele>1550.0000</ele>
        <time>2018-10-14T10:54:49Z</time>
      </trkpt>
      <trkpt lat="38.07643834" lon="-2.51152714">
        <ele>1550.0000</ele>
        <time>2018-10-14T10:54:51Z</time>
      </trkpt>
      <trkpt lat="38.07649760" lon="-2.51168187">
        <ele>1550.0000</ele>
        <time>2018-10-14T10:54:54Z</time>
      </trkpt>
      <trkpt lat="38.07664118" lon="-2.51210281">
        <ele>1550.0000</ele>
        <time>2018-10-14T10:55:02Z</time>
      </trkpt>
      <trkpt lat="38.07670757" lon="-2.51230280">
        <ele>1550.0000</ele>
        <time>2018-10-14T10:55:06Z</time>
      </trkpt>
      <trkpt lat="38.07686674" lon="-2.51264931">
        <ele>1550.0000</ele>
        <time>2018-10-14T10:55:13Z</time>
      </trkpt>
      <trkpt lat="38.07693388" lon="-2.51275300">
        <ele>1550.0000</ele>
        <time>2018-10-14T10:55:15Z</time>
      </trkpt>
      <trkpt lat="38.07711359" lon="-2.51299565">
        <ele>1550.0000</ele>
        <time>2018-10-14T10:55:20Z</time>
      </trkpt>
      <trkpt lat="38.07753830" lon="-2.51352120">
        <ele>1550.0000</ele>
        <time>2018-10-14T10:55:29Z</time>
      </trkpt>
      <trkpt lat="38.07781029" lon="-2.51385077">
        <ele>1550.0000</ele>
        <time>2018-10-14T10:55:37Z</time>
      </trkpt>
      <trkpt lat="38.07792546" lon="-2.51396728">
        <ele>1549.0000</ele>
        <time>2018-10-14T10:55:40Z</time>
      </trkpt>
      <trkpt lat="38.07839049" lon="-2.51429359">
        <ele>1549.0000</ele>
        <time>2018-10-14T10:55:50Z</time>
      </trkpt>
      <trkpt lat="38.07854698" lon="-2.51438671">
        <ele>1549.0000</ele>
        <time>2018-10-14T10:55:53Z</time>
      </trkpt>
      <trkpt lat="38.07893548" lon="-2.51457338">
        <ele>1549.0000</ele>
        <time>2018-10-14T10:56:00Z</time>
      </trkpt>
      <trkpt lat="38.07913874" lon="-2.51463322">
        <ele>1549.0000</ele>
        <time>2018-10-14T10:56:03Z</time>
      </trkpt>
      <trkpt lat="38.07952414" lon="-2.51448662">
        <ele>1549.0000</ele>
        <time>2018-10-14T10:56:10Z</time>
      </trkpt>
      <trkpt lat="38.07970133" lon="-2.51433340">
        <ele>1548.0000</ele>
        <time>2018-10-14T10:56:14Z</time>
      </trkpt>
      <trkpt lat="38.07979135" lon="-2.51427389">
        <ele>1548.0000</ele>
        <time>2018-10-14T10:56:16Z</time>
      </trkpt>
      <trkpt lat="38.07996519" lon="-2.51417172">
        <ele>1548.0000</ele>
        <time>2018-10-14T10:56:20Z</time>
      </trkpt>
      <trkpt lat="38.08019972" lon="-2.51405747">
        <ele>1548.0000</ele>
        <time>2018-10-14T10:56:25Z</time>
      </trkpt>
      <trkpt lat="38.08038244" lon="-2.51396963">
        <ele>1548.0000</ele>
        <time>2018-10-14T10:56:29Z</time>
      </trkpt>
      <trkpt lat="38.08055092" lon="-2.51388648">
        <ele>1548.0000</ele>
        <time>2018-10-14T10:56:33Z</time>
      </trkpt>
      <trkpt lat="38.08063231" lon="-2.51385471">
        <ele>1548.0000</ele>
        <time>2018-10-14T10:56:35Z</time>
      </trkpt>
      <trkpt lat="38.08117789" lon="-2.51378975">
        <ele>1548.0000</ele>
        <time>2018-10-14T10:56:47Z</time>
      </trkpt>
      <trkpt lat="38.08132532" lon="-2.51378204">
        <ele>1549.0000</ele>
        <time>2018-10-14T10:56:51Z</time>
      </trkpt>
      <trkpt lat="38.08148349" lon="-2.51379051">
        <ele>1549.0000</ele>
        <time>2018-10-14T10:56:56Z</time>
      </trkpt>
      <trkpt lat="38.08195975" lon="-2.51391028">
        <ele>1549.0000</ele>
        <time>2018-10-14T10:57:08Z</time>
      </trkpt>
      <trkpt lat="38.08203854" lon="-2.51397759">
        <ele>1549.0000</ele>
        <time>2018-10-14T10:57:10Z</time>
      </trkpt>
      <trkpt lat="38.08215538" lon="-2.51409611">
        <ele>1549.0000</ele>
        <time>2018-10-14T10:57:13Z</time>
      </trkpt>
      <trkpt lat="38.08223032" lon="-2.51418094">
        <ele>1549.0000</ele>
        <time>2018-10-14T10:57:15Z</time>
      </trkpt>
      <trkpt lat="38.08235261" lon="-2.51432829">
        <ele>1549.0000</ele>
        <time>2018-10-14T10:57:18Z</time>
      </trkpt>
      <trkpt lat="38.08249150" lon="-2.51447137">
        <ele>1549.0000</ele>
        <time>2018-10-14T10:57:21Z</time>
      </trkpt>
      <trkpt lat="38.08280322" lon="-2.51480740">
        <ele>1549.0000</ele>
        <time>2018-10-14T10:57:28Z</time>
      </trkpt>
      <trkpt lat="38.08308100" lon="-2.51508451">
        <ele>1548.0000</ele>
        <time>2018-10-14T10:57:34Z</time>
      </trkpt>
      <trkpt lat="38.08321368" lon="-2.51521677">
        <ele>1548.0000</ele>
        <time>2018-10-14T10:57:37Z</time>
      </trkpt>
      <trkpt lat="38.08333539" lon="-2.51535625">
        <ele>1548.0000</ele>
        <time>2018-10-14T10:57:40Z</time>
      </trkpt>
      <trkpt lat="38.08342541" lon="-2.51544560">
        <ele>1548.0000</ele>
        <time>2018-10-14T10:57:42Z</time>
      </trkpt>
      <trkpt lat="38.08355600" lon="-2.51558231">
        <ele>1548.0000</ele>
        <time>2018-10-14T10:57:45Z</time>
      </trkpt>
      <trkpt lat="38.08377460" lon="-2.51580074">
        <ele>1548.0000</ele>
        <time>2018-10-14T10:57:50Z</time>
      </trkpt>
      <trkpt lat="38.08390259" lon="-2.51593133">
        <ele>1549.0000</ele>
        <time>2018-10-14T10:57:53Z</time>
      </trkpt>
      <trkpt lat="38.08418355" lon="-2.51622763">
        <ele>1549.0000</ele>
        <time>2018-10-14T10:58:00Z</time>
      </trkpt>
      <trkpt lat="38.08439738" lon="-2.51643165">
        <ele>1549.0000</ele>
        <time>2018-10-14T10:58:05Z</time>
      </trkpt>
      <trkpt lat="38.08470114" lon="-2.51672057">
        <ele>1549.0000</ele>
        <time>2018-10-14T10:58:12Z</time>
      </trkpt>
      <trkpt lat="38.08516927" lon="-2.51710387">
        <ele>1549.0000</ele>
        <time>2018-10-14T10:58:23Z</time>
      </trkpt>
      <trkpt lat="38.08544897" lon="-2.51731527">
        <ele>1549.0000</ele>
        <time>2018-10-14T10:58:29Z</time>
      </trkpt>
      <trkpt lat="38.08564854" lon="-2.51747712">
        <ele>1549.0000</ele>
        <time>2018-10-14T10:58:33Z</time>
      </trkpt>
      <trkpt lat="38.08581626" lon="-2.51761500">
        <ele>1549.0000</ele>
        <time>2018-10-14T10:58:36Z</time>
      </trkpt>
      <trkpt lat="38.08600083" lon="-2.51776906">
        <ele>1549.0000</ele>
        <time>2018-10-14T10:58:39Z</time>
      </trkpt>
      <trkpt lat="38.08631231" lon="-2.51803971">
        <ele>1549.0000</ele>
        <time>2018-10-14T10:58:44Z</time>
      </trkpt>
      <trkpt lat="38.08663652" lon="-2.51831548">
        <ele>1549.0000</ele>
        <time>2018-10-14T10:58:49Z</time>
      </trkpt>
      <trkpt lat="38.08700683" lon="-2.51850541">
        <ele>1549.0000</ele>
        <time>2018-10-14T10:58:54Z</time>
      </trkpt>
      <trkpt lat="38.08730179" lon="-2.51853106">
        <ele>1549.0000</ele>
        <time>2018-10-14T10:58:58Z</time>
      </trkpt>
      <trkpt lat="38.08776363" lon="-2.51853575">
        <ele>1549.0000</ele>
        <time>2018-10-14T10:59:04Z</time>
      </trkpt>
      <trkpt lat="38.08807452" lon="-2.51854238">
        <ele>1549.0000</ele>
        <time>2018-10-14T10:59:09Z</time>
      </trkpt>
      <trkpt lat="38.08816144" lon="-2.51852989">
        <ele>1549.0000</ele>
        <time>2018-10-14T10:59:11Z</time>
      </trkpt>
      <trkpt lat="38.08828641" lon="-2.51853877">
        <ele>1548.0000</ele>
        <time>2018-10-14T10:59:14Z</time>
      </trkpt>
      <trkpt lat="38.08832815" lon="-2.51853793">
        <ele>1548.0000</ele>
        <time>2018-10-14T10:59:15Z</time>
      </trkpt>
      <trkpt lat="38.08863753" lon="-2.51855453">
        <ele>1548.0000</ele>
        <time>2018-10-14T10:59:23Z</time>
      </trkpt>
      <trkpt lat="38.08895554" lon="-2.51857741">
        <ele>1548.0000</ele>
        <time>2018-10-14T10:59:30Z</time>
      </trkpt>
      <trkpt lat="38.08954194" lon="-2.51860859">
        <ele>1548.0000</ele>
        <time>2018-10-14T10:59:41Z</time>
      </trkpt>
      <trkpt lat="38.08986322" lon="-2.51861052">
        <ele>1548.0000</ele>
        <time>2018-10-14T10:59:47Z</time>
      </trkpt>
      <trkpt lat="38.08991024" lon="-2.51860055">
        <ele>1548.0000</ele>
        <time>2018-10-14T10:59:48Z</time>
      </trkpt>
      <trkpt lat="38.09013420" lon="-2.51837482">
        <ele>1548.0000</ele>
        <time>2018-10-14T10:59:54Z</time>
      </trkpt>
      <trkpt lat="38.09020319" lon="-2.51821246">
        <ele>1548.0000</ele>
        <time>2018-10-14T10:59:57Z</time>
      </trkpt>
      <trkpt lat="38.09027007" lon="-2.51807358">
        <ele>1548.0000</ele>
        <time>2018-10-14T11:00:00Z</time>
      </trkpt>
      <trkpt lat="38.09031500" lon="-2.51798498">
        <ele>1547.0000</ele>
        <time>2018-10-14T11:00:02Z</time>
      </trkpt>
      <trkpt lat="38.09041282" lon="-2.51778440">
        <ele>1547.0000</ele>
        <time>2018-10-14T11:00:06Z</time>
      </trkpt>
      <trkpt lat="38.09078045" lon="-2.51720186">
        <ele>1547.0000</ele>
        <time>2018-10-14T11:00:16Z</time>
      </trkpt>
      <trkpt lat="38.09112763" lon="-2.51672023">
        <ele>1546.0000</ele>
        <time>2018-10-14T11:00:23Z</time>
      </trkpt>
      <trkpt lat="38.09154982" lon="-2.51626024">
        <ele>1546.0000</ele>
        <time>2018-10-14T11:00:30Z</time>
      </trkpt>
      <trkpt lat="38.09167957" lon="-2.51611707">
        <ele>1546.0000</ele>
        <time>2018-10-14T11:00:32Z</time>
      </trkpt>
      <trkpt lat="38.09208618" lon="-2.51562992">
        <ele>1545.0000</ele>
        <time>2018-10-14T11:00:40Z</time>
      </trkpt>
      <trkpt lat="38.09217117" lon="-2.51551534">
        <ele>1545.0000</ele>
        <time>2018-10-14T11:00:42Z</time>
      </trkpt>
      <trkpt lat="38.09224795" lon="-2.51514393">
        <ele>1544.0000</ele>
        <time>2018-10-14T11:00:47Z</time>
      </trkpt>
      <trkpt lat="38.09224803" lon="-2.51485258">
        <ele>1544.0000</ele>
        <time>2018-10-14T11:00:51Z</time>
      </trkpt>
      <trkpt lat="38.09230134" lon="-2.51458670">
        <ele>1544.0000</ele>
        <time>2018-10-14T11:00:55Z</time>
      </trkpt>
      <trkpt lat="38.09236790" lon="-2.51439283">
        <ele>1544.0000</ele>
        <time>2018-10-14T11:00:58Z</time>
      </trkpt>
      <trkpt lat="38.09272874" lon="-2.51407524">
        <ele>1543.0000</ele>
        <time>2018-10-14T11:01:06Z</time>
      </trkpt>
      <trkpt lat="38.09296343" lon="-2.51396954">
        <ele>1543.0000</ele>
        <time>2018-10-14T11:01:10Z</time>
      </trkpt>
      <trkpt lat="38.09301657" lon="-2.51393669">
        <ele>1543.0000</ele>
        <time>2018-10-14T11:01:11Z</time>
      </trkpt>
      <trkpt lat="38.09338755" lon="-2.51371113">
        <ele>1543.0000</ele>
        <time>2018-10-14T11:01:18Z</time>
      </trkpt>
      <trkpt lat="38.09357187" lon="-2.51356353">
        <ele>1542.0000</ele>
        <time>2018-10-14T11:01:23Z</time>
      </trkpt>
      <trkpt lat="38.09362962" lon="-2.51349186">
        <ele>1542.0000</ele>
        <time>2018-10-14T11:01:25Z</time>
      </trkpt>
      <trkpt lat="38.09367547" lon="-2.51340016">
        <ele>1542.0000</ele>
        <time>2018-10-14T11:01:27Z</time>
      </trkpt>
      <trkpt lat="38.09364186" lon="-2.51310789">
        <ele>1541.0000</ele>
        <time>2018-10-14T11:01:32Z</time>
      </trkpt>
      <trkpt lat="38.09362107" lon="-2.51305910">
        <ele>1541.0000</ele>
        <time>2018-10-14T11:01:33Z</time>
      </trkpt>
      <trkpt lat="38.09351756" lon="-2.51287914">
        <ele>1541.0000</ele>
        <time>2018-10-14T11:01:38Z</time>
      </trkpt>
      <trkpt lat="38.09349887" lon="-2.51279465">
        <ele>1541.0000</ele>
        <time>2018-10-14T11:01:40Z</time>
      </trkpt>
      <trkpt lat="38.09348093" lon="-2.51270212">
        <ele>1541.0000</ele>
        <time>2018-10-14T11:01:42Z</time>
      </trkpt>
      <trkpt lat="38.09344816" lon="-2.51254647">
        <ele>1541.0000</ele>
        <time>2018-10-14T11:01:45Z</time>
      </trkpt>
      <trkpt lat="38.09343667" lon="-2.51234438">
        <ele>1541.0000</ele>
        <time>2018-10-14T11:01:49Z</time>
      </trkpt>
      <trkpt lat="38.09345411" lon="-2.51211446">
        <ele>1541.0000</ele>
        <time>2018-10-14T11:01:53Z</time>
      </trkpt>
      <trkpt lat="38.09347615" lon="-2.51198924">
        <ele>1541.0000</ele>
        <time>2018-10-14T11:01:55Z</time>
      </trkpt>
      <trkpt lat="38.09349945" lon="-2.51185948">
        <ele>1541.0000</ele>
        <time>2018-10-14T11:01:57Z</time>
      </trkpt>
      <trkpt lat="38.09355217" lon="-2.51159403">
        <ele>1540.0000</ele>
        <time>2018-10-14T11:02:01Z</time>
      </trkpt>
      <trkpt lat="38.09368754" lon="-2.51110536">
        <ele>1540.0000</ele>
        <time>2018-10-14T11:02:09Z</time>
      </trkpt>
      <trkpt lat="38.09371529" lon="-2.51104401">
        <ele>1540.0000</ele>
        <time>2018-10-14T11:02:10Z</time>
      </trkpt>
      <trkpt lat="38.09374798" lon="-2.51098232">
        <ele>1540.0000</ele>
        <time>2018-10-14T11:02:11Z</time>
      </trkpt>
      <trkpt lat="38.09410437" lon="-2.51045451">
        <ele>1540.0000</ele>
        <time>2018-10-14T11:02:21Z</time>
      </trkpt>
      <trkpt lat="38.09444116" lon="-2.50987289">
        <ele>1540.0000</ele>
        <time>2018-10-14T11:02:30Z</time>
      </trkpt>
      <trkpt lat="38.09450771" lon="-2.50975051">
        <ele>1540.0000</ele>
        <time>2018-10-14T11:02:32Z</time>
      </trkpt>
      <trkpt lat="38.09465976" lon="-2.50948933">
        <ele>1539.0000</ele>
        <time>2018-10-14T11:02:37Z</time>
      </trkpt>
      <trkpt lat="38.09475121" lon="-2.50933871">
        <ele>1539.0000</ele>
        <time>2018-10-14T11:02:40Z</time>
      </trkpt>
      <trkpt lat="38.09497182" lon="-2.50901215">
        <ele>1538.0000</ele>
        <time>2018-10-14T11:02:46Z</time>
      </trkpt>
      <trkpt lat="38.09521481" lon="-2.50867336">
        <ele>1537.0000</ele>
        <time>2018-10-14T11:02:52Z</time>
      </trkpt>
      <trkpt lat="38.09529544" lon="-2.50855534">
        <ele>1537.0000</ele>
        <time>2018-10-14T11:02:54Z</time>
      </trkpt>
      <trkpt lat="38.09561588" lon="-2.50806248">
        <ele>1536.0000</ele>
        <time>2018-10-14T11:03:03Z</time>
      </trkpt>
      <trkpt lat="38.09591042" lon="-2.50764188">
        <ele>1536.0000</ele>
        <time>2018-10-14T11:03:11Z</time>
      </trkpt>
      <trkpt lat="38.09596164" lon="-2.50742244">
        <ele>1535.0000</ele>
        <time>2018-10-14T11:03:14Z</time>
      </trkpt>
      <trkpt lat="38.09598946" lon="-2.50726964">
        <ele>1535.0000</ele>
        <time>2018-10-14T11:03:16Z</time>
      </trkpt>
      <trkpt lat="38.09601210" lon="-2.50711105">
        <ele>1535.0000</ele>
        <time>2018-10-14T11:03:18Z</time>
      </trkpt>
      <trkpt lat="38.09608343" lon="-2.50659221">
        <ele>1534.0000</ele>
        <time>2018-10-14T11:03:25Z</time>
      </trkpt>
      <trkpt lat="38.09612148" lon="-2.50635450">
        <ele>1534.0000</ele>
        <time>2018-10-14T11:03:30Z</time>
      </trkpt>
      <trkpt lat="38.09614520" lon="-2.50624738">
        <ele>1533.0000</ele>
        <time>2018-10-14T11:03:32Z</time>
      </trkpt>
      <trkpt lat="38.09620589" lon="-2.50600917">
        <ele>1533.0000</ele>
        <time>2018-10-14T11:03:36Z</time>
      </trkpt>
      <trkpt lat="38.09621402" lon="-2.50594211">
        <ele>1533.0000</ele>
        <time>2018-10-14T11:03:37Z</time>
      </trkpt>
      <trkpt lat="38.09620270" lon="-2.50572971">
        <ele>1533.0000</ele>
        <time>2018-10-14T11:03:40Z</time>
      </trkpt>
      <trkpt lat="38.09619038" lon="-2.50566191">
        <ele>1533.0000</ele>
        <time>2018-10-14T11:03:41Z</time>
      </trkpt>
      <trkpt lat="38.09590011" lon="-2.50532411">
        <ele>1533.0000</ele>
        <time>2018-10-14T11:03:49Z</time>
      </trkpt>
      <trkpt lat="38.09585192" lon="-2.50531372">
        <ele>1533.0000</ele>
        <time>2018-10-14T11:03:50Z</time>
      </trkpt>
      <trkpt lat="38.09572543" lon="-2.50530048">
        <ele>1532.0000</ele>
        <time>2018-10-14T11:03:53Z</time>
      </trkpt>
      <trkpt lat="38.09539753" lon="-2.50527885">
        <ele>1532.0000</ele>
        <time>2018-10-14T11:04:01Z</time>
      </trkpt>
      <trkpt lat="38.09523727" lon="-2.50529017">
        <ele>1532.0000</ele>
        <time>2018-10-14T11:04:05Z</time>
      </trkpt>
      <trkpt lat="38.09465314" lon="-2.50523099">
        <ele>1532.0000</ele>
        <time>2018-10-14T11:04:16Z</time>
      </trkpt>
      <trkpt lat="38.09448902" lon="-2.50520920">
        <ele>1531.0000</ele>
        <time>2018-10-14T11:04:19Z</time>
      </trkpt>
      <trkpt lat="38.09392140" lon="-2.50513141">
        <ele>1531.0000</ele>
        <time>2018-10-14T11:04:30Z</time>
      </trkpt>
      <trkpt lat="38.09387228" lon="-2.50512270">
        <ele>1531.0000</ele>
        <time>2018-10-14T11:04:31Z</time>
      </trkpt>
      <trkpt lat="38.09367698" lon="-2.50506629">
        <ele>1531.0000</ele>
        <time>2018-10-14T11:04:35Z</time>
      </trkpt>
      <trkpt lat="38.09358143" lon="-2.50502790">
        <ele>1531.0000</ele>
        <time>2018-10-14T11:04:37Z</time>
      </trkpt>
      <trkpt lat="38.09353055" lon="-2.50442935">
        <ele>1531.0000</ele>
        <time>2018-10-14T11:04:49Z</time>
      </trkpt>
      <trkpt lat="38.09357212" lon="-2.50438408">
        <ele>1531.0000</ele>
        <time>2018-10-14T11:04:50Z</time>
      </trkpt>
      <trkpt lat="38.09361831" lon="-2.50434159">
        <ele>1531.0000</ele>
        <time>2018-10-14T11:04:51Z</time>
      </trkpt>
      <trkpt lat="38.09411066" lon="-2.50395988">
        <ele>1530.0000</ele>
        <time>2018-10-14T11:05:00Z</time>
      </trkpt>
      <trkpt lat="38.09433010" lon="-2.50372678">
        <ele>1530.0000</ele>
        <time>2018-10-14T11:05:05Z</time>
      </trkpt>
      <trkpt lat="38.09450578" lon="-2.50355503">
        <ele>1529.0000</ele>
        <time>2018-10-14T11:05:09Z</time>
      </trkpt>
      <trkpt lat="38.09491608" lon="-2.50301666">
        <ele>1529.0000</ele>
        <time>2018-10-14T11:05:18Z</time>
      </trkpt>
      <trkpt lat="38.09498347" lon="-2.50289345">
        <ele>1529.0000</ele>
        <time>2018-10-14T11:05:20Z</time>
      </trkpt>
      <trkpt lat="38.09508983" lon="-2.50265766">
        <ele>1529.0000</ele>
        <time>2018-10-14T11:05:24Z</time>
      </trkpt>
      <trkpt lat="38.09514499" lon="-2.50249246">
        <ele>1528.0000</ele>
        <time>2018-10-14T11:05:27Z</time>
      </trkpt>
      <trkpt lat="38.09519972" lon="-2.50233999">
        <ele>1528.0000</ele>
        <time>2018-10-14T11:05:30Z</time>
      </trkpt>
      <trkpt lat="38.09523954" lon="-2.50224435">
        <ele>1528.0000</ele>
        <time>2018-10-14T11:05:32Z</time>
      </trkpt>
      <trkpt lat="38.09537365" lon="-2.50196389">
        <ele>1528.0000</ele>
        <time>2018-10-14T11:05:38Z</time>
      </trkpt>
      <trkpt lat="38.09570875" lon="-2.50147690">
        <ele>1527.0000</ele>
        <time>2018-10-14T11:05:49Z</time>
      </trkpt>
      <trkpt lat="38.09574128" lon="-2.50143449">
        <ele>1528.0000</ele>
        <time>2018-10-14T11:05:50Z</time>
      </trkpt>
      <trkpt lat="38.09585636" lon="-2.50125906">
        <ele>1528.0000</ele>
        <time>2018-10-14T11:05:54Z</time>
      </trkpt>
      <trkpt lat="38.09593121" lon="-2.50112218">
        <ele>1527.0000</ele>
        <time>2018-10-14T11:05:57Z</time>
      </trkpt>
      <trkpt lat="38.09599441" lon="-2.50099101">
        <ele>1527.0000</ele>
        <time>2018-10-14T11:06:00Z</time>
      </trkpt>
      <trkpt lat="38.09608276" lon="-2.50083234">
        <ele>1527.0000</ele>
        <time>2018-10-14T11:06:04Z</time>
      </trkpt>
      <trkpt lat="38.09624243" lon="-2.50055632">
        <ele>1527.0000</ele>
        <time>2018-10-14T11:06:12Z</time>
      </trkpt>
      <trkpt lat="38.09631804" lon="-2.50040469">
        <ele>1527.0000</ele>
        <time>2018-10-14T11:06:16Z</time>
      </trkpt>
      <trkpt lat="38.09667854" lon="-2.49982994">
        <ele>1526.0000</ele>
        <time>2018-10-14T11:06:32Z</time>
      </trkpt>
      <trkpt lat="38.09674677" lon="-2.49974898">
        <ele>1526.0000</ele>
        <time>2018-10-14T11:06:34Z</time>
      </trkpt>
      <trkpt lat="38.09681760" lon="-2.49966499">
        <ele>1526.0000</ele>
        <time>2018-10-14T11:06:36Z</time>
      </trkpt>
      <trkpt lat="38.09688658" lon="-2.49956768">
        <ele>1526.0000</ele>
        <time>2018-10-14T11:06:38Z</time>
      </trkpt>
      <trkpt lat="38.09709906" lon="-2.49919937">
        <ele>1526.0000</ele>
        <time>2018-10-14T11:06:45Z</time>
      </trkpt>
      <trkpt lat="38.09714064" lon="-2.49909879">
        <ele>1526.0000</ele>
        <time>2018-10-14T11:06:47Z</time>
      </trkpt>
      <trkpt lat="38.09717919" lon="-2.49900030">
        <ele>1526.0000</ele>
        <time>2018-10-14T11:06:49Z</time>
      </trkpt>
      <trkpt lat="38.09733250" lon="-2.49871490">
        <ele>1526.0000</ele>
        <time>2018-10-14T11:06:56Z</time>
      </trkpt>
      <trkpt lat="38.09753919" lon="-2.49837585">
        <ele>1525.0000</ele>
        <time>2018-10-14T11:07:06Z</time>
      </trkpt>
      <trkpt lat="38.09783591" lon="-2.49787604">
        <ele>1525.0000</ele>
        <time>2018-10-14T11:07:19Z</time>
      </trkpt>
      <trkpt lat="38.09790733" lon="-2.49775065">
        <ele>1525.0000</ele>
        <time>2018-10-14T11:07:22Z</time>
      </trkpt>
      <trkpt lat="38.09793381" lon="-2.49770890">
        <ele>1525.0000</ele>
        <time>2018-10-14T11:07:23Z</time>
      </trkpt>
      <trkpt lat="38.09808720" lon="-2.49750581">
        <ele>1525.0000</ele>
        <time>2018-10-14T11:07:28Z</time>
      </trkpt>
      <trkpt lat="38.09822265" lon="-2.49734069">
        <ele>1525.0000</ele>
        <time>2018-10-14T11:07:32Z</time>
      </trkpt>
      <trkpt lat="38.09834956" lon="-2.49715880">
        <ele>1525.0000</ele>
        <time>2018-10-14T11:07:36Z</time>
      </trkpt>
      <trkpt lat="38.09850932" lon="-2.49696291">
        <ele>1524.0000</ele>
        <time>2018-10-14T11:07:41Z</time>
      </trkpt>
      <trkpt lat="38.09859531" lon="-2.49685579">
        <ele>1524.0000</ele>
        <time>2018-10-14T11:07:44Z</time>
      </trkpt>
      <trkpt lat="38.09869808" lon="-2.49674800">
        <ele>1524.0000</ele>
        <time>2018-10-14T11:07:48Z</time>
      </trkpt>
      <trkpt lat="38.09874527" lon="-2.49669151">
        <ele>1524.0000</ele>
        <time>2018-10-14T11:07:50Z</time>
      </trkpt>
      <trkpt lat="38.09898801" lon="-2.49637685">
        <ele>1524.0000</ele>
        <time>2018-10-14T11:08:01Z</time>
      </trkpt>
      <trkpt lat="38.09911667" lon="-2.49622908">
        <ele>1523.0000</ele>
        <time>2018-10-14T11:08:06Z</time>
      </trkpt>
      <trkpt lat="38.09922622" lon="-2.49611894">
        <ele>1523.0000</ele>
        <time>2018-10-14T11:08:10Z</time>
      </trkpt>
      <trkpt lat="38.09928263" lon="-2.49605138">
        <ele>1523.0000</ele>
        <time>2018-10-14T11:08:12Z</time>
      </trkpt>
      <trkpt lat="38.09934147" lon="-2.49598341">
        <ele>1523.0000</ele>
        <time>2018-10-14T11:08:14Z</time>
      </trkpt>
      <trkpt lat="38.09953752" lon="-2.49572449">
        <ele>1523.0000</ele>
        <time>2018-10-14T11:08:21Z</time>
      </trkpt>
      <trkpt lat="38.09964012" lon="-2.49555928">
        <ele>1523.0000</ele>
        <time>2018-10-14T11:08:25Z</time>
      </trkpt>
      <trkpt lat="38.09977440" lon="-2.49537203">
        <ele>1523.0000</ele>
        <time>2018-10-14T11:08:30Z</time>
      </trkpt>
      <trkpt lat="38.09994480" lon="-2.49509459">
        <ele>1522.0000</ele>
        <time>2018-10-14T11:08:37Z</time>
      </trkpt>
      <trkpt lat="38.10007405" lon="-2.49486107">
        <ele>1522.0000</ele>
        <time>2018-10-14T11:08:43Z</time>
      </trkpt>
      <trkpt lat="38.10011705" lon="-2.49477499">
        <ele>1522.0000</ele>
        <time>2018-10-14T11:08:45Z</time>
      </trkpt>
      <trkpt lat="38.10018285" lon="-2.49463643">
        <ele>1522.0000</ele>
        <time>2018-10-14T11:08:48Z</time>
      </trkpt>
      <trkpt lat="38.10035015" lon="-2.49424793">
        <ele>1521.0000</ele>
        <time>2018-10-14T11:08:56Z</time>
      </trkpt>
      <trkpt lat="38.10046934" lon="-2.49396789">
        <ele>1521.0000</ele>
        <time>2018-10-14T11:09:02Z</time>
      </trkpt>
      <trkpt lat="38.10054402" lon="-2.49377008">
        <ele>1521.0000</ele>
        <time>2018-10-14T11:09:07Z</time>
      </trkpt>
      <trkpt lat="38.10059876" lon="-2.49361937">
        <ele>1521.0000</ele>
        <time>2018-10-14T11:09:11Z</time>
      </trkpt>
      <trkpt lat="38.10071510" lon="-2.49327731">
        <ele>1521.0000</ele>
        <time>2018-10-14T11:09:19Z</time>
      </trkpt>
      <trkpt lat="38.10076891" lon="-2.49314303">
        <ele>1521.0000</ele>
        <time>2018-10-14T11:09:23Z</time>
      </trkpt>
      <trkpt lat="38.10088542" lon="-2.49278470">
        <ele>1521.0000</ele>
        <time>2018-10-14T11:09:33Z</time>
      </trkpt>
      <trkpt lat="38.10090386" lon="-2.49270474">
        <ele>1521.0000</ele>
        <time>2018-10-14T11:09:35Z</time>
      </trkpt>
      <trkpt lat="38.10095524" lon="-2.49250944">
        <ele>1521.0000</ele>
        <time>2018-10-14T11:09:40Z</time>
      </trkpt>
      <trkpt lat="38.10108709" lon="-2.49220878">
        <ele>1521.0000</ele>
        <time>2018-10-14T11:09:47Z</time>
      </trkpt>
      <trkpt lat="38.10113159" lon="-2.49211080">
        <ele>1521.0000</ele>
        <time>2018-10-14T11:09:49Z</time>
      </trkpt>
      <trkpt lat="38.10132396" lon="-2.49165650">
        <ele>1521.0000</ele>
        <time>2018-10-14T11:09:58Z</time>
      </trkpt>
      <trkpt lat="38.10139965" lon="-2.49147017">
        <ele>1521.0000</ele>
        <time>2018-10-14T11:10:02Z</time>
      </trkpt>
      <trkpt lat="38.10143426" lon="-2.49138099">
        <ele>1521.0000</ele>
        <time>2018-10-14T11:10:04Z</time>
      </trkpt>
      <trkpt lat="38.10148397" lon="-2.49125475">
        <ele>1521.0000</ele>
        <time>2018-10-14T11:10:07Z</time>
      </trkpt>
      <trkpt lat="38.10149981" lon="-2.49121209">
        <ele>1521.0000</ele>
        <time>2018-10-14T11:10:08Z</time>
      </trkpt>
      <trkpt lat="38.10159905" lon="-2.49096382">
        <ele>1521.0000</ele>
        <time>2018-10-14T11:10:14Z</time>
      </trkpt>
      <trkpt lat="38.10165731" lon="-2.49080029">
        <ele>1521.0000</ele>
        <time>2018-10-14T11:10:18Z</time>
      </trkpt>
      <trkpt lat="38.10170802" lon="-2.49067263">
        <ele>1521.0000</ele>
        <time>2018-10-14T11:10:21Z</time>
      </trkpt>
      <trkpt lat="38.10188102" lon="-2.49034155">
        <ele>1520.0000</ele>
        <time>2018-10-14T11:10:29Z</time>
      </trkpt>
      <trkpt lat="38.10206391" lon="-2.49002262">
        <ele>1520.0000</ele>
        <time>2018-10-14T11:10:36Z</time>
      </trkpt>
      <trkpt lat="38.10222283" lon="-2.48975582">
        <ele>1520.0000</ele>
        <time>2018-10-14T11:10:42Z</time>
      </trkpt>
      <trkpt lat="38.10227656" lon="-2.48967753">
        <ele>1520.0000</ele>
        <time>2018-10-14T11:10:44Z</time>
      </trkpt>
      <trkpt lat="38.10244948" lon="-2.48938065">
        <ele>1520.0000</ele>
        <time>2018-10-14T11:10:50Z</time>
      </trkpt>
      <trkpt lat="38.10271301" lon="-2.48894277">
        <ele>1519.0000</ele>
        <time>2018-10-14T11:10:57Z</time>
      </trkpt>
      <trkpt lat="38.10305524" lon="-2.48831941">
        <ele>1519.0000</ele>
        <time>2018-10-14T11:11:05Z</time>
      </trkpt>
      <trkpt lat="38.10310117" lon="-2.48824716">
        <ele>1519.0000</ele>
        <time>2018-10-14T11:11:06Z</time>
      </trkpt>
      <trkpt lat="38.10338767" lon="-2.48784860">
        <ele>1519.0000</ele>
        <time>2018-10-14T11:11:13Z</time>
      </trkpt>
      <trkpt lat="38.10345883" lon="-2.48775942">
        <ele>1519.0000</ele>
        <time>2018-10-14T11:11:15Z</time>
      </trkpt>
      <trkpt lat="38.10349420" lon="-2.48771575">
        <ele>1519.0000</ele>
        <time>2018-10-14T11:11:16Z</time>
      </trkpt>
      <trkpt lat="38.10353008" lon="-2.48767367">
        <ele>1519.0000</ele>
        <time>2018-10-14T11:11:17Z</time>
      </trkpt>
      <trkpt lat="38.10360124" lon="-2.48759077">
        <ele>1519.0000</ele>
        <time>2018-10-14T11:11:19Z</time>
      </trkpt>
      <trkpt lat="38.10384507" lon="-2.48730394">
        <ele>1519.0000</ele>
        <time>2018-10-14T11:11:26Z</time>
      </trkpt>
      <trkpt lat="38.10387918" lon="-2.48726053">
        <ele>1519.0000</ele>
        <time>2018-10-14T11:11:27Z</time>
      </trkpt>
      <trkpt lat="38.10405453" lon="-2.48703145">
        <ele>1519.0000</ele>
        <time>2018-10-14T11:11:32Z</time>
      </trkpt>
      <trkpt lat="38.10442342" lon="-2.48649224">
        <ele>1519.0000</ele>
        <time>2018-10-14T11:11:42Z</time>
      </trkpt>
      <trkpt lat="38.10449928" lon="-2.48635629">
        <ele>1518.0000</ele>
        <time>2018-10-14T11:11:44Z</time>
      </trkpt>
      <trkpt lat="38.10463196" lon="-2.48604783">
        <ele>1518.0000</ele>
        <time>2018-10-14T11:11:48Z</time>
      </trkpt>
      <trkpt lat="38.10471218" lon="-2.48569110">
        <ele>1518.0000</ele>
        <time>2018-10-14T11:11:52Z</time>
      </trkpt>
      <trkpt lat="38.10477169" lon="-2.48531601">
        <ele>1518.0000</ele>
        <time>2018-10-14T11:11:56Z</time>
      </trkpt>
      <trkpt lat="38.10486841" lon="-2.48461394">
        <ele>1517.0000</ele>
        <time>2018-10-14T11:12:03Z</time>
      </trkpt>
      <trkpt lat="38.10488375" lon="-2.48451453">
        <ele>1517.0000</ele>
        <time>2018-10-14T11:12:04Z</time>
      </trkpt>
      <trkpt lat="38.10506975" lon="-2.48386250">
        <ele>1517.0000</ele>
        <time>2018-10-14T11:12:11Z</time>
      </trkpt>
      <trkpt lat="38.10535314" lon="-2.48321299">
        <ele>1517.0000</ele>
        <time>2018-10-14T11:12:18Z</time>
      </trkpt>
      <trkpt lat="38.10548138" lon="-2.48292507">
        <ele>1517.0000</ele>
        <time>2018-10-14T11:12:21Z</time>
      </trkpt>
      <trkpt lat="38.10552715" lon="-2.48282734">
        <ele>1517.0000</ele>
        <time>2018-10-14T11:12:22Z</time>
      </trkpt>
      <trkpt lat="38.10582764" lon="-2.48218445">
        <ele>1516.0000</ele>
        <time>2018-10-14T11:12:28Z</time>
      </trkpt>
      <trkpt lat="38.10610500" lon="-2.48160266">
        <ele>1516.0000</ele>
        <time>2018-10-14T11:12:34Z</time>
      </trkpt>
      <trkpt lat="38.10627414" lon="-2.48120938">
        <ele>1516.0000</ele>
        <time>2018-10-14T11:12:39Z</time>
      </trkpt>
      <trkpt lat="38.10635168" lon="-2.48103445">
        <ele>1516.0000</ele>
        <time>2018-10-14T11:12:42Z</time>
      </trkpt>
      <trkpt lat="38.10642569" lon="-2.48087737">
        <ele>1516.0000</ele>
        <time>2018-10-14T11:12:45Z</time>
      </trkpt>
      <trkpt lat="38.10662032" lon="-2.48046691">
        <ele>1516.0000</ele>
        <time>2018-10-14T11:12:52Z</time>
      </trkpt>
      <trkpt lat="38.10674127" lon="-2.47973240">
        <ele>1517.0000</ele>
        <time>2018-10-14T11:13:02Z</time>
      </trkpt>
      <trkpt lat="38.10677262" lon="-2.47951112">
        <ele>1517.0000</ele>
        <time>2018-10-14T11:13:05Z</time>
      </trkpt>
      <trkpt lat="38.10703874" lon="-2.47887720">
        <ele>1517.0000</ele>
        <time>2018-10-14T11:13:14Z</time>
      </trkpt>
      <trkpt lat="38.10711074" lon="-2.47875960">
        <ele>1517.0000</ele>
        <time>2018-10-14T11:13:16Z</time>
      </trkpt>
      <trkpt lat="38.10721375" lon="-2.47860269">
        <ele>1517.0000</ele>
        <time>2018-10-14T11:13:19Z</time>
      </trkpt>
      <trkpt lat="38.10731191" lon="-2.47846699">
        <ele>1517.0000</ele>
        <time>2018-10-14T11:13:22Z</time>
      </trkpt>
      <trkpt lat="38.10750704" lon="-2.47817848">
        <ele>1517.0000</ele>
        <time>2018-10-14T11:13:29Z</time>
      </trkpt>
      <trkpt lat="38.10756244" lon="-2.47810145">
        <ele>1517.0000</ele>
        <time>2018-10-14T11:13:31Z</time>
      </trkpt>
      <trkpt lat="38.10777928" lon="-2.47780088">
        <ele>1517.0000</ele>
        <time>2018-10-14T11:13:39Z</time>
      </trkpt>
      <trkpt lat="38.10799277" lon="-2.47747818">
        <ele>1516.0000</ele>
        <time>2018-10-14T11:13:47Z</time>
      </trkpt>
      <trkpt lat="38.10817315" lon="-2.47715472">
        <ele>1516.0000</ele>
        <time>2018-10-14T11:13:55Z</time>
      </trkpt>
      <trkpt lat="38.10830826" lon="-2.47683092">
        <ele>1516.0000</ele>
        <time>2018-10-14T11:14:03Z</time>
      </trkpt>
      <trkpt lat="38.10841027" lon="-2.47655047">
        <ele>1516.0000</ele>
        <time>2018-10-14T11:14:10Z</time>
      </trkpt>
      <trkpt lat="38.10856249" lon="-2.47613984">
        <ele>1516.0000</ele>
        <time>2018-10-14T11:14:21Z</time>
      </trkpt>
      <trkpt lat="38.10876273" lon="-2.47555922">
        <ele>1516.0000</ele>
        <time>2018-10-14T11:14:37Z</time>
      </trkpt>
      <trkpt lat="38.10883507" lon="-2.47537951">
        <ele>1516.0000</ele>
        <time>2018-10-14T11:14:42Z</time>
      </trkpt>
      <trkpt lat="38.10915484" lon="-2.47479789">
        <ele>1515.0000</ele>
        <time>2018-10-14T11:14:59Z</time>
      </trkpt>
      <trkpt lat="38.10937008" lon="-2.47466202">
        <ele>1515.0000</ele>
        <time>2018-10-14T11:15:05Z</time>
      </trkpt>
      <trkpt lat="38.10949070" lon="-2.47460670">
        <ele>1515.0000</ele>
        <time>2018-10-14T11:15:08Z</time>
      </trkpt>
      <trkpt lat="38.10953269" lon="-2.47458902">
        <ele>1515.0000</ele>
        <time>2018-10-14T11:15:09Z</time>
      </trkpt>
      <trkpt lat="38.10961743" lon="-2.47454786">
        <ele>1515.0000</ele>
        <time>2018-10-14T11:15:11Z</time>
      </trkpt>
      <trkpt lat="38.10970611" lon="-2.47450830">
        <ele>1515.0000</ele>
        <time>2018-10-14T11:15:13Z</time>
      </trkpt>
      <trkpt lat="38.10984718" lon="-2.47444233">
        <ele>1515.0000</ele>
        <time>2018-10-14T11:15:16Z</time>
      </trkpt>
      <trkpt lat="38.10999319" lon="-2.47436421">
        <ele>1515.0000</ele>
        <time>2018-10-14T11:15:19Z</time>
      </trkpt>
      <trkpt lat="38.11024297" lon="-2.47421879">
        <ele>1515.0000</ele>
        <time>2018-10-14T11:15:24Z</time>
      </trkpt>
      <trkpt lat="38.11038991" lon="-2.47411930">
        <ele>1515.0000</ele>
        <time>2018-10-14T11:15:27Z</time>
      </trkpt>
      <trkpt lat="38.11043408" lon="-2.47407630">
        <ele>1515.0000</ele>
        <time>2018-10-14T11:15:28Z</time>
      </trkpt>
      <trkpt lat="38.11049887" lon="-2.47396674">
        <ele>1515.0000</ele>
        <time>2018-10-14T11:15:30Z</time>
      </trkpt>
      <trkpt lat="38.11052938" lon="-2.47379525">
        <ele>1515.0000</ele>
        <time>2018-10-14T11:15:33Z</time>
      </trkpt>
      <trkpt lat="38.11054632" lon="-2.47369986">
        <ele>1515.0000</ele>
        <time>2018-10-14T11:15:35Z</time>
      </trkpt>
      <trkpt lat="38.11057255" lon="-2.47360968">
        <ele>1515.0000</ele>
        <time>2018-10-14T11:15:37Z</time>
      </trkpt>
      <trkpt lat="38.11058864" lon="-2.47356466">
        <ele>1515.0000</ele>
        <time>2018-10-14T11:15:38Z</time>
      </trkpt>
      <trkpt lat="38.11062594" lon="-2.47347456">
        <ele>1515.0000</ele>
        <time>2018-10-14T11:15:40Z</time>
      </trkpt>
      <trkpt lat="38.11066794" lon="-2.47338697">
        <ele>1515.0000</ele>
        <time>2018-10-14T11:15:42Z</time>
      </trkpt>
      <trkpt lat="38.11073977" lon="-2.47326032">
        <ele>1515.0000</ele>
        <time>2018-10-14T11:15:45Z</time>
      </trkpt>
      <trkpt lat="38.11087966" lon="-2.47306049">
        <ele>1515.0000</ele>
        <time>2018-10-14T11:15:50Z</time>
      </trkpt>
      <trkpt lat="38.11098058" lon="-2.47294968">
        <ele>1515.0000</ele>
        <time>2018-10-14T11:15:53Z</time>
      </trkpt>
      <trkpt lat="38.11132810" lon="-2.47266126">
        <ele>1515.0000</ele>
        <time>2018-10-14T11:16:03Z</time>
      </trkpt>
      <trkpt lat="38.11143019" lon="-2.47257719">
        <ele>1514.0000</ele>
        <time>2018-10-14T11:16:06Z</time>
      </trkpt>
      <trkpt lat="38.11156882" lon="-2.47246840">
        <ele>1513.0000</ele>
        <time>2018-10-14T11:16:10Z</time>
      </trkpt>
      <trkpt lat="38.11179287" lon="-2.47229900">
        <ele>1512.0000</ele>
        <time>2018-10-14T11:16:16Z</time>
      </trkpt>
      <trkpt lat="38.11205548" lon="-2.47216187">
        <ele>1512.0000</ele>
        <time>2018-10-14T11:16:22Z</time>
      </trkpt>
      <trkpt lat="38.11251464" lon="-2.47201544">
        <ele>1512.0000</ele>
        <time>2018-10-14T11:16:32Z</time>
      </trkpt>
      <trkpt lat="38.11304932" lon="-2.47179005">
        <ele>1512.0000</ele>
        <time>2018-10-14T11:16:45Z</time>
      </trkpt>
      <trkpt lat="38.11347579" lon="-2.47143566">
        <ele>1513.0000</ele>
        <time>2018-10-14T11:16:57Z</time>
      </trkpt>
      <trkpt lat="38.11357378" lon="-2.47113584">
        <ele>1513.0000</ele>
        <time>2018-10-14T11:17:04Z</time>
      </trkpt>
      <trkpt lat="38.11367235" lon="-2.47045414">
        <ele>1514.0000</ele>
        <time>2018-10-14T11:17:19Z</time>
      </trkpt>
      <trkpt lat="38.11374569" lon="-2.47024669">
        <ele>1514.0000</ele>
        <time>2018-10-14T11:17:23Z</time>
      </trkpt>
      <trkpt lat="38.11376614" lon="-2.47019531">
        <ele>1514.0000</ele>
        <time>2018-10-14T11:17:24Z</time>
      </trkpt>
      <trkpt lat="38.11381232" lon="-2.47009598">
        <ele>1514.0000</ele>
        <time>2018-10-14T11:17:26Z</time>
      </trkpt>
      <trkpt lat="38.11389757" lon="-2.46996019">
        <ele>1514.0000</ele>
        <time>2018-10-14T11:17:29Z</time>
      </trkpt>
      <trkpt lat="38.11396395" lon="-2.46987964">
        <ele>1514.0000</ele>
        <time>2018-10-14T11:17:31Z</time>
      </trkpt>
      <trkpt lat="38.11416411" lon="-2.46971536">
        <ele>1514.0000</ele>
        <time>2018-10-14T11:17:36Z</time>
      </trkpt>
      <trkpt lat="38.11428741" lon="-2.46961117">
        <ele>1514.0000</ele>
        <time>2018-10-14T11:17:39Z</time>
      </trkpt>
      <trkpt lat="38.11432429" lon="-2.46956817">
        <ele>1514.0000</ele>
        <time>2018-10-14T11:17:40Z</time>
      </trkpt>
      <trkpt lat="38.11437358" lon="-2.46921739">
        <ele>1514.0000</ele>
        <time>2018-10-14T11:17:46Z</time>
      </trkpt>
      <trkpt lat="38.11434726" lon="-2.46903156">
        <ele>1514.0000</ele>
        <time>2018-10-14T11:17:49Z</time>
      </trkpt>
      <trkpt lat="38.11433619" lon="-2.46883735">
        <ele>1514.0000</ele>
        <time>2018-10-14T11:17:52Z</time>
      </trkpt>
      <trkpt lat="38.11441976" lon="-2.46862303">
        <ele>1513.0000</ele>
        <time>2018-10-14T11:17:56Z</time>
      </trkpt>
      <trkpt lat="38.11450190" lon="-2.46855120">
        <ele>1513.0000</ele>
        <time>2018-10-14T11:17:58Z</time>
      </trkpt>
      <trkpt lat="38.11485344" lon="-2.46831667">
        <ele>1513.0000</ele>
        <time>2018-10-14T11:18:06Z</time>
      </trkpt>
      <trkpt lat="38.11498831" lon="-2.46822791">
        <ele>1513.0000</ele>
        <time>2018-10-14T11:18:09Z</time>
      </trkpt>
      <trkpt lat="38.11503441" lon="-2.46819631">
        <ele>1513.0000</ele>
        <time>2018-10-14T11:18:10Z</time>
      </trkpt>
      <trkpt lat="38.11512527" lon="-2.46812129">
        <ele>1513.0000</ele>
        <time>2018-10-14T11:18:12Z</time>
      </trkpt>
      <trkpt lat="38.11504664" lon="-2.46779037">
        <ele>1512.0000</ele>
        <time>2018-10-14T11:18:20Z</time>
      </trkpt>
      <trkpt lat="38.11500222" lon="-2.46778241">
        <ele>1512.0000</ele>
        <time>2018-10-14T11:18:21Z</time>
      </trkpt>
      <trkpt lat="38.11481371" lon="-2.46776481">
        <ele>1512.0000</ele>
        <time>2018-10-14T11:18:25Z</time>
      </trkpt>
      <trkpt lat="38.11450534" lon="-2.46776254">
        <ele>1513.0000</ele>
        <time>2018-10-14T11:18:32Z</time>
      </trkpt>
      <trkpt lat="38.11440384" lon="-2.46768317">
        <ele>1513.0000</ele>
        <time>2018-10-14T11:18:35Z</time>
      </trkpt>
      <trkpt lat="38.11431272" lon="-2.46750279">
        <ele>1513.0000</ele>
        <time>2018-10-14T11:18:39Z</time>
      </trkpt>
      <trkpt lat="38.11426294" lon="-2.46733909">
        <ele>1513.0000</ele>
        <time>2018-10-14T11:18:42Z</time>
      </trkpt>
      <trkpt lat="38.11419831" lon="-2.46663627">
        <ele>1513.0000</ele>
        <time>2018-10-14T11:18:53Z</time>
      </trkpt>
      <trkpt lat="38.11417291" lon="-2.46625741">
        <ele>1513.0000</ele>
        <time>2018-10-14T11:18:58Z</time>
      </trkpt>
      <trkpt lat="38.11411273" lon="-2.46556892">
        <ele>1513.0000</ele>
        <time>2018-10-14T11:19:06Z</time>
      </trkpt>
      <trkpt lat="38.11410234" lon="-2.46486349">
        <ele>1513.0000</ele>
        <time>2018-10-14T11:19:13Z</time>
      </trkpt>
      <trkpt lat="38.11411709" lon="-2.46413896">
        <ele>1513.0000</ele>
        <time>2018-10-14T11:19:19Z</time>
      </trkpt>
      <trkpt lat="38.11411181" lon="-2.46341653">
        <ele>1513.0000</ele>
        <time>2018-10-14T11:19:25Z</time>
      </trkpt>
      <trkpt lat="38.11410737" lon="-2.46330354">
        <ele>1513.0000</ele>
        <time>2018-10-14T11:19:26Z</time>
      </trkpt>
      <trkpt lat="38.11406856" lon="-2.46258228">
        <ele>1513.0000</ele>
        <time>2018-10-14T11:19:33Z</time>
      </trkpt>
      <trkpt lat="38.11406730" lon="-2.46249184">
        <ele>1513.0000</ele>
        <time>2018-10-14T11:19:34Z</time>
      </trkpt>
      <trkpt lat="38.11416705" lon="-2.46217039">
        <ele>1513.0000</ele>
        <time>2018-10-14T11:19:38Z</time>
      </trkpt>
      <trkpt lat="38.11466384" lon="-2.46207115">
        <ele>1512.0000</ele>
        <time>2018-10-14T11:19:45Z</time>
      </trkpt>
      <trkpt lat="38.11473484" lon="-2.46207995">
        <ele>1512.0000</ele>
        <time>2018-10-14T11:19:46Z</time>
      </trkpt>
      <trkpt lat="38.11480323" lon="-2.46208062">
        <ele>1512.0000</ele>
        <time>2018-10-14T11:19:47Z</time>
      </trkpt>
      <trkpt lat="38.11505377" lon="-2.46195992">
        <ele>1511.0000</ele>
        <time>2018-10-14T11:19:51Z</time>
      </trkpt>
      <trkpt lat="38.11528754" lon="-2.46177912">
        <ele>1511.0000</ele>
        <time>2018-10-14T11:19:55Z</time>
      </trkpt>
      <trkpt lat="38.11563908" lon="-2.46145147">
        <ele>1510.0000</ele>
        <time>2018-10-14T11:20:01Z</time>
      </trkpt>
      <trkpt lat="38.11586656" lon="-2.46122835">
        <ele>1510.0000</ele>
        <time>2018-10-14T11:20:05Z</time>
      </trkpt>
      <trkpt lat="38.11637870" lon="-2.46090422">
        <ele>1510.0000</ele>
        <time>2018-10-14T11:20:13Z</time>
      </trkpt>
      <trkpt lat="38.11651373" lon="-2.46087086">
        <ele>1510.0000</ele>
        <time>2018-10-14T11:20:15Z</time>
      </trkpt>
      <trkpt lat="38.11671104" lon="-2.46085192">
        <ele>1510.0000</ele>
        <time>2018-10-14T11:20:18Z</time>
      </trkpt>
      <trkpt lat="38.11690382" lon="-2.46069182">
        <ele>1510.0000</ele>
        <time>2018-10-14T11:20:22Z</time>
      </trkpt>
      <trkpt lat="38.11693408" lon="-2.46063407">
        <ele>1510.0000</ele>
        <time>2018-10-14T11:20:23Z</time>
      </trkpt>
      <trkpt lat="38.11710331" lon="-2.46034439">
        <ele>1510.0000</ele>
        <time>2018-10-14T11:20:28Z</time>
      </trkpt>
      <trkpt lat="38.11727799" lon="-2.46007718">
        <ele>1510.0000</ele>
        <time>2018-10-14T11:20:32Z</time>
      </trkpt>
      <trkpt lat="38.11761788" lon="-2.45949815">
        <ele>1510.0000</ele>
        <time>2018-10-14T11:20:40Z</time>
      </trkpt>
      <trkpt lat="38.11766297" lon="-2.45944350">
        <ele>1510.0000</ele>
        <time>2018-10-14T11:20:41Z</time>
      </trkpt>
      <trkpt lat="38.11788333" lon="-2.45929095">
        <ele>1510.0000</ele>
        <time>2018-10-14T11:20:45Z</time>
      </trkpt>
      <trkpt lat="38.11798961" lon="-2.45923513">
        <ele>1510.0000</ele>
        <time>2018-10-14T11:20:47Z</time>
      </trkpt>
      <trkpt lat="38.11806782" lon="-2.45910018">
        <ele>1510.0000</ele>
        <time>2018-10-14T11:20:50Z</time>
      </trkpt>
      <trkpt lat="38.11805809" lon="-2.45900773">
        <ele>1510.0000</ele>
        <time>2018-10-14T11:20:52Z</time>
      </trkpt>
      <trkpt lat="38.11803999" lon="-2.45891695">
        <ele>1510.0000</ele>
        <time>2018-10-14T11:20:54Z</time>
      </trkpt>
      <trkpt lat="38.11800311" lon="-2.45878301">
        <ele>1510.0000</ele>
        <time>2018-10-14T11:20:57Z</time>
      </trkpt>
      <trkpt lat="38.11795474" lon="-2.45854413">
        <ele>1510.0000</ele>
        <time>2018-10-14T11:21:02Z</time>
      </trkpt>
      <trkpt lat="38.11795324" lon="-2.45849166">
        <ele>1510.0000</ele>
        <time>2018-10-14T11:21:03Z</time>
      </trkpt>
      <trkpt lat="38.11800378" lon="-2.45821463">
        <ele>1510.0000</ele>
        <time>2018-10-14T11:21:08Z</time>
      </trkpt>
      <trkpt lat="38.11802390" lon="-2.45816091">
        <ele>1510.0000</ele>
        <time>2018-10-14T11:21:09Z</time>
      </trkpt>
      <trkpt lat="38.11814292" lon="-2.45798254">
        <ele>1510.0000</ele>
        <time>2018-10-14T11:21:13Z</time>
      </trkpt>
      <trkpt lat="38.11855103" lon="-2.45754324">
        <ele>1510.0000</ele>
        <time>2018-10-14T11:21:25Z</time>
      </trkpt>
      <trkpt lat="38.11886820" lon="-2.45723370">
        <ele>1509.0000</ele>
        <time>2018-10-14T11:21:35Z</time>
      </trkpt>
      <trkpt lat="38.11895001" lon="-2.45713060">
        <ele>1508.0000</ele>
        <time>2018-10-14T11:21:38Z</time>
      </trkpt>
      <trkpt lat="38.11909468" lon="-2.45697336">
        <ele>1507.0000</ele>
        <time>2018-10-14T11:21:43Z</time>
      </trkpt>
      <trkpt lat="38.11935410" lon="-2.45668837">
        <ele>1507.0000</ele>
        <time>2018-10-14T11:21:52Z</time>
      </trkpt>
      <trkpt lat="38.11958528" lon="-2.45640129">
        <ele>1506.0000</ele>
        <time>2018-10-14T11:22:00Z</time>
      </trkpt>
      <trkpt lat="38.11971738" lon="-2.45606375">
        <ele>1505.0000</ele>
        <time>2018-10-14T11:22:08Z</time>
      </trkpt>
      <trkpt lat="38.11975107" lon="-2.45584105">
        <ele>1504.0000</ele>
        <time>2018-10-14T11:22:14Z</time>
      </trkpt>
      <trkpt lat="38.11978979" lon="-2.45563267">
        <ele>1504.0000</ele>
        <time>2018-10-14T11:22:19Z</time>
      </trkpt>
      <trkpt lat="38.11986146" lon="-2.45539932">
        <ele>1504.0000</ele>
        <time>2018-10-14T11:22:24Z</time>
      </trkpt>
      <trkpt lat="38.12001057" lon="-2.45515599">
        <ele>1504.0000</ele>
        <time>2018-10-14T11:22:30Z</time>
      </trkpt>
      <trkpt lat="38.12026069" lon="-2.45496128">
        <ele>1503.0000</ele>
        <time>2018-10-14T11:22:36Z</time>
      </trkpt>
      <trkpt lat="38.12037544" lon="-2.45489129">
        <ele>1503.0000</ele>
        <time>2018-10-14T11:22:38Z</time>
      </trkpt>
      <trkpt lat="38.12064265" lon="-2.45475567">
        <ele>1503.0000</ele>
        <time>2018-10-14T11:22:42Z</time>
      </trkpt>
      <trkpt lat="38.12070946" lon="-2.45472567">
        <ele>1502.0000</ele>
        <time>2018-10-14T11:22:43Z</time>
      </trkpt>
      <trkpt lat="38.12107114" lon="-2.45455074">
        <ele>1502.0000</ele>
        <time>2018-10-14T11:22:48Z</time>
      </trkpt>
      <trkpt lat="38.12127909" lon="-2.45444781">
        <ele>1502.0000</ele>
        <time>2018-10-14T11:22:51Z</time>
      </trkpt>
      <trkpt lat="38.12140314" lon="-2.45438653">
        <ele>1501.0000</ele>
        <time>2018-10-14T11:22:53Z</time>
      </trkpt>
      <trkpt lat="38.12152007" lon="-2.45431948">
        <ele>1502.0000</ele>
        <time>2018-10-14T11:22:55Z</time>
      </trkpt>
      <trkpt lat="38.12164739" lon="-2.45413910">
        <ele>1501.0000</ele>
        <time>2018-10-14T11:22:58Z</time>
      </trkpt>
      <trkpt lat="38.12167623" lon="-2.45398781">
        <ele>1501.0000</ele>
        <time>2018-10-14T11:23:00Z</time>
      </trkpt>
      <trkpt lat="38.12168561" lon="-2.45391430">
        <ele>1501.0000</ele>
        <time>2018-10-14T11:23:01Z</time>
      </trkpt>
      <trkpt lat="38.12171118" lon="-2.45369955">
        <ele>1501.0000</ele>
        <time>2018-10-14T11:23:04Z</time>
      </trkpt>
      <trkpt lat="38.12173540" lon="-2.45336101">
        <ele>1500.0000</ele>
        <time>2018-10-14T11:23:09Z</time>
      </trkpt>
      <trkpt lat="38.12175619" lon="-2.45309589">
        <ele>1500.0000</ele>
        <time>2018-10-14T11:23:13Z</time>
      </trkpt>
      <trkpt lat="38.12174831" lon="-2.45290495">
        <ele>1500.0000</ele>
        <time>2018-10-14T11:23:16Z</time>
      </trkpt>
      <trkpt lat="38.12171881" lon="-2.45265953">
        <ele>1500.0000</ele>
        <time>2018-10-14T11:23:20Z</time>
      </trkpt>
      <trkpt lat="38.12168394" lon="-2.45202183">
        <ele>1501.0000</ele>
        <time>2018-10-14T11:23:30Z</time>
      </trkpt>
      <trkpt lat="38.12173197" lon="-2.45183014">
        <ele>1501.0000</ele>
        <time>2018-10-14T11:23:33Z</time>
      </trkpt>
      <trkpt lat="38.12191855" lon="-2.45137995">
        <ele>1501.0000</ele>
        <time>2018-10-14T11:23:40Z</time>
      </trkpt>
      <trkpt lat="38.12184236" lon="-2.45096798">
        <ele>1501.0000</ele>
        <time>2018-10-14T11:23:46Z</time>
      </trkpt>
      <trkpt lat="38.12170975" lon="-2.45075901">
        <ele>1501.0000</ele>
        <time>2018-10-14T11:23:50Z</time>
      </trkpt>
      <trkpt lat="38.12149283" lon="-2.45042516">
        <ele>1502.0000</ele>
        <time>2018-10-14T11:23:57Z</time>
      </trkpt>
      <trkpt lat="38.12143860" lon="-2.45031997">
        <ele>1502.0000</ele>
        <time>2018-10-14T11:23:59Z</time>
      </trkpt>
      <trkpt lat="38.12135294" lon="-2.45008813">
        <ele>1502.0000</ele>
        <time>2018-10-14T11:24:03Z</time>
      </trkpt>
      <trkpt lat="38.12132452" lon="-2.44988621">
        <ele>1502.0000</ele>
        <time>2018-10-14T11:24:06Z</time>
      </trkpt>
      <trkpt lat="38.12132268" lon="-2.44981219">
        <ele>1502.0000</ele>
        <time>2018-10-14T11:24:07Z</time>
      </trkpt>
      <trkpt lat="38.12140918" lon="-2.44904659">
        <ele>1502.0000</ele>
        <time>2018-10-14T11:24:15Z</time>
      </trkpt>
      <trkpt lat="38.12149409" lon="-2.44836858">
        <ele>1502.0000</ele>
        <time>2018-10-14T11:24:21Z</time>
      </trkpt>
      <trkpt lat="38.12153407" lon="-2.44789986">
        <ele>1502.0000</ele>
        <time>2018-10-14T11:24:25Z</time>
      </trkpt>
      <trkpt lat="38.12156751" lon="-2.44717919">
        <ele>1502.0000</ele>
        <time>2018-10-14T11:24:31Z</time>
      </trkpt>
      <trkpt lat="38.12157439" lon="-2.44668273">
        <ele>1502.0000</ele>
        <time>2018-10-14T11:24:35Z</time>
      </trkpt>
      <trkpt lat="38.12158344" lon="-2.44617646">
        <ele>1502.0000</ele>
        <time>2018-10-14T11:24:39Z</time>
      </trkpt>
      <trkpt lat="38.12166734" lon="-2.44540658">
        <ele>1502.0000</ele>
        <time>2018-10-14T11:24:45Z</time>
      </trkpt>
      <trkpt lat="38.12179399" lon="-2.44464232">
        <ele>1502.0000</ele>
        <time>2018-10-14T11:24:51Z</time>
      </trkpt>
      <trkpt lat="38.12181671" lon="-2.44451785">
        <ele>1501.0000</ele>
        <time>2018-10-14T11:24:52Z</time>
      </trkpt>
      <trkpt lat="38.12196020" lon="-2.44381578">
        <ele>1501.0000</ele>
        <time>2018-10-14T11:24:58Z</time>
      </trkpt>
      <trkpt lat="38.12215391" lon="-2.44309854">
        <ele>1501.0000</ele>
        <time>2018-10-14T11:25:05Z</time>
      </trkpt>
      <trkpt lat="38.12218979" lon="-2.44300710">
        <ele>1501.0000</ele>
        <time>2018-10-14T11:25:06Z</time>
      </trkpt>
      <trkpt lat="38.12230537" lon="-2.44274181">
        <ele>1501.0000</ele>
        <time>2018-10-14T11:25:09Z</time>
      </trkpt>
      <trkpt lat="38.12245197" lon="-2.44238574">
        <ele>1501.0000</ele>
        <time>2018-10-14T11:25:13Z</time>
      </trkpt>
      <trkpt lat="38.12249195" lon="-2.44216882">
        <ele>1501.0000</ele>
        <time>2018-10-14T11:25:16Z</time>
      </trkpt>
      <trkpt lat="38.12249924" lon="-2.44210998">
        <ele>1501.0000</ele>
        <time>2018-10-14T11:25:17Z</time>
      </trkpt>
      <trkpt lat="38.12253554" lon="-2.44193891">
        <ele>1501.0000</ele>
        <time>2018-10-14T11:25:20Z</time>
      </trkpt>
      <trkpt lat="38.12256722" lon="-2.44182868">
        <ele>1501.0000</ele>
        <time>2018-10-14T11:25:22Z</time>
      </trkpt>
      <trkpt lat="38.12264635" lon="-2.44161746">
        <ele>1500.0000</ele>
        <time>2018-10-14T11:25:26Z</time>
      </trkpt>
      <trkpt lat="38.12270452" lon="-2.44152090">
        <ele>1500.0000</ele>
        <time>2018-10-14T11:25:28Z</time>
      </trkpt>
      <trkpt lat="38.12278104" lon="-2.44143683">
        <ele>1500.0000</ele>
        <time>2018-10-14T11:25:30Z</time>
      </trkpt>
      <trkpt lat="38.12301280" lon="-2.44120817">
        <ele>1500.0000</ele>
        <time>2018-10-14T11:25:35Z</time>
      </trkpt>
      <trkpt lat="38.12340390" lon="-2.44085672">
        <ele>1500.0000</ele>
        <time>2018-10-14T11:25:42Z</time>
      </trkpt>
      <trkpt lat="38.12359333" lon="-2.44073267">
        <ele>1500.0000</ele>
        <time>2018-10-14T11:25:45Z</time>
      </trkpt>
      <trkpt lat="38.12404713" lon="-2.44073426">
        <ele>1499.0000</ele>
        <time>2018-10-14T11:25:51Z</time>
      </trkpt>
      <trkpt lat="38.12446958" lon="-2.44091791">
        <ele>1499.0000</ele>
        <time>2018-10-14T11:25:57Z</time>
      </trkpt>
      <trkpt lat="38.12477971" lon="-2.44107163">
        <ele>1498.0000</ele>
        <time>2018-10-14T11:26:02Z</time>
      </trkpt>
      <trkpt lat="38.12490049" lon="-2.44110667">
        <ele>1498.0000</ele>
        <time>2018-10-14T11:26:04Z</time>
      </trkpt>
      <trkpt lat="38.12508129" lon="-2.44109761">
        <ele>1498.0000</ele>
        <time>2018-10-14T11:26:07Z</time>
      </trkpt>
      <trkpt lat="38.12516561" lon="-2.44101975">
        <ele>1498.0000</ele>
        <time>2018-10-14T11:26:09Z</time>
      </trkpt>
      <trkpt lat="38.12519612" lon="-2.44096074">
        <ele>1498.0000</ele>
        <time>2018-10-14T11:26:10Z</time>
      </trkpt>
      <trkpt lat="38.12520861" lon="-2.44071959">
        <ele>1497.0000</ele>
        <time>2018-10-14T11:26:14Z</time>
      </trkpt>
      <trkpt lat="38.12517265" lon="-2.44062756">
        <ele>1498.0000</ele>
        <time>2018-10-14T11:26:16Z</time>
      </trkpt>
      <trkpt lat="38.12511842" lon="-2.44055472">
        <ele>1497.0000</ele>
        <time>2018-10-14T11:26:18Z</time>
      </trkpt>
      <trkpt lat="38.12496998" lon="-2.44027602">
        <ele>1498.0000</ele>
        <time>2018-10-14T11:26:25Z</time>
      </trkpt>
      <trkpt lat="38.12494450" lon="-2.44018927">
        <ele>1497.0000</ele>
        <time>2018-10-14T11:26:27Z</time>
      </trkpt>
      <trkpt lat="38.12479438" lon="-2.43954026">
        <ele>1498.0000</ele>
        <time>2018-10-14T11:26:43Z</time>
      </trkpt>
      <trkpt lat="38.12486110" lon="-2.43931495">
        <ele>1498.0000</ele>
        <time>2018-10-14T11:26:48Z</time>
      </trkpt>
      <trkpt lat="38.12503519" lon="-2.43886543">
        <ele>1497.0000</ele>
        <time>2018-10-14T11:26:59Z</time>
      </trkpt>
      <trkpt lat="38.12505137" lon="-2.43882771">
        <ele>1497.0000</ele>
        <time>2018-10-14T11:27:00Z</time>
      </trkpt>
      <trkpt lat="38.12527357" lon="-2.43826042">
        <ele>1497.0000</ele>
        <time>2018-10-14T11:27:16Z</time>
      </trkpt>
      <trkpt lat="38.12530266" lon="-2.43818499">
        <ele>1497.0000</ele>
        <time>2018-10-14T11:27:18Z</time>
      </trkpt>
      <trkpt lat="38.12539176" lon="-2.43795884">
        <ele>1497.0000</ele>
        <time>2018-10-14T11:27:24Z</time>
      </trkpt>
      <trkpt lat="38.12553861" lon="-2.43758191">
        <ele>1497.0000</ele>
        <time>2018-10-14T11:27:34Z</time>
      </trkpt>
      <trkpt lat="38.12582275" lon="-2.43699015">
        <ele>1496.0000</ele>
        <time>2018-10-14T11:27:52Z</time>
      </trkpt>
      <trkpt lat="38.12588855" lon="-2.43685713">
        <ele>1496.0000</ele>
        <time>2018-10-14T11:27:56Z</time>
      </trkpt>
      <trkpt lat="38.12593717" lon="-2.43639134">
        <ele>1496.0000</ele>
        <time>2018-10-14T11:28:08Z</time>
      </trkpt>
      <trkpt lat="38.12581496" lon="-2.43600745">
        <ele>1496.0000</ele>
        <time>2018-10-14T11:28:19Z</time>
      </trkpt>
      <trkpt lat="38.12565403" lon="-2.43538417">
        <ele>1496.0000</ele>
        <time>2018-10-14T11:28:38Z</time>
      </trkpt>
      <trkpt lat="38.12566610" lon="-2.43468403">
        <ele>1496.0000</ele>
        <time>2018-10-14T11:28:58Z</time>
      </trkpt>
      <trkpt lat="38.12578545" lon="-2.43428732">
        <ele>1496.0000</ele>
        <time>2018-10-14T11:29:09Z</time>
      </trkpt>
      <trkpt lat="38.12600305" lon="-2.43386462">
        <ele>1495.0000</ele>
        <time>2018-10-14T11:29:21Z</time>
      </trkpt>
      <trkpt lat="38.12612718" lon="-2.43364954">
        <ele>1495.0000</ele>
        <time>2018-10-14T11:29:27Z</time>
      </trkpt>
      <trkpt lat="38.12630580" lon="-2.43341233">
        <ele>1495.0000</ele>
        <time>2018-10-14T11:29:33Z</time>
      </trkpt>
      <trkpt lat="38.12642189" lon="-2.43328509">
        <ele>1495.0000</ele>
        <time>2018-10-14T11:29:36Z</time>
      </trkpt>
      <trkpt lat="38.12672699" lon="-2.43291788">
        <ele>1495.0000</ele>
        <time>2018-10-14T11:29:43Z</time>
      </trkpt>
      <trkpt lat="38.12677041" lon="-2.43285913">
        <ele>1495.0000</ele>
        <time>2018-10-14T11:29:44Z</time>
      </trkpt>
      <trkpt lat="38.12685566" lon="-2.43273298">
        <ele>1495.0000</ele>
        <time>2018-10-14T11:29:46Z</time>
      </trkpt>
      <trkpt lat="38.12706981" lon="-2.43237909">
        <ele>1494.0000</ele>
        <time>2018-10-14T11:29:51Z</time>
      </trkpt>
      <trkpt lat="38.12725706" lon="-2.43207416">
        <ele>1494.0000</ele>
        <time>2018-10-14T11:29:55Z</time>
      </trkpt>
      <trkpt lat="38.12756619" lon="-2.43154442">
        <ele>1494.0000</ele>
        <time>2018-10-14T11:30:01Z</time>
      </trkpt>
      <trkpt lat="38.12786970" lon="-2.43089851">
        <ele>1494.0000</ele>
        <time>2018-10-14T11:30:07Z</time>
      </trkpt>
      <trkpt lat="38.12805628" lon="-2.43025093">
        <ele>1494.0000</ele>
        <time>2018-10-14T11:30:13Z</time>
      </trkpt>
      <trkpt lat="38.12808134" lon="-2.43016761">
        <ele>1494.0000</ele>
        <time>2018-10-14T11:30:14Z</time>
      </trkpt>
      <trkpt lat="38.12812593" lon="-2.42990031">
        <ele>1494.0000</ele>
        <time>2018-10-14T11:30:17Z</time>
      </trkpt>
      <trkpt lat="38.12815510" lon="-2.42971390">
        <ele>1494.0000</ele>
        <time>2018-10-14T11:30:19Z</time>
      </trkpt>
      <trkpt lat="38.12819458" lon="-2.42942112">
        <ele>1494.0000</ele>
        <time>2018-10-14T11:30:22Z</time>
      </trkpt>
      <trkpt lat="38.12823817" lon="-2.42911200">
        <ele>1494.0000</ele>
        <time>2018-10-14T11:30:25Z</time>
      </trkpt>
      <trkpt lat="38.12828217" lon="-2.42878359">
        <ele>1494.0000</ele>
        <time>2018-10-14T11:30:28Z</time>
      </trkpt>
      <trkpt lat="38.12837295" lon="-2.42800215">
        <ele>1494.0000</ele>
        <time>2018-10-14T11:30:35Z</time>
      </trkpt>
      <trkpt lat="38.12844000" lon="-2.42745070">
        <ele>1494.0000</ele>
        <time>2018-10-14T11:30:40Z</time>
      </trkpt>
      <trkpt lat="38.12851267" lon="-2.42711140">
        <ele>1494.0000</ele>
        <time>2018-10-14T11:30:43Z</time>
      </trkpt>
      <trkpt lat="38.12876539" lon="-2.42642853">
        <ele>1494.0000</ele>
        <time>2018-10-14T11:30:49Z</time>
      </trkpt>
      <trkpt lat="38.12890109" lon="-2.42609091">
        <ele>1494.0000</ele>
        <time>2018-10-14T11:30:52Z</time>
      </trkpt>
      <trkpt lat="38.12902883" lon="-2.42577072">
        <ele>1494.0000</ele>
        <time>2018-10-14T11:30:55Z</time>
      </trkpt>
      <trkpt lat="38.12920158" lon="-2.42539848">
        <ele>1493.0000</ele>
        <time>2018-10-14T11:30:59Z</time>
      </trkpt>
      <trkpt lat="38.12945363" lon="-2.42512380">
        <ele>1493.0000</ele>
        <time>2018-10-14T11:31:03Z</time>
      </trkpt>
      <trkpt lat="38.12961322" lon="-2.42504208">
        <ele>1493.0000</ele>
        <time>2018-10-14T11:31:05Z</time>
      </trkpt>
      <trkpt lat="38.12969544" lon="-2.42501207">
        <ele>1493.0000</ele>
        <time>2018-10-14T11:31:06Z</time>
      </trkpt>
      <trkpt lat="38.12985495" lon="-2.42496807">
        <ele>1493.0000</ele>
        <time>2018-10-14T11:31:08Z</time>
      </trkpt>
      <trkpt lat="38.13013935" lon="-2.42490252">
        <ele>1492.0000</ele>
        <time>2018-10-14T11:31:12Z</time>
      </trkpt>
      <trkpt lat="38.13020565" lon="-2.42486698">
        <ele>1492.0000</ele>
        <time>2018-10-14T11:31:13Z</time>
      </trkpt>
      <trkpt lat="38.13044152" lon="-2.42456330">
        <ele>1492.0000</ele>
        <time>2018-10-14T11:31:18Z</time>
      </trkpt>
      <trkpt lat="38.13051352" lon="-2.42437739">
        <ele>1491.0000</ele>
        <time>2018-10-14T11:31:21Z</time>
      </trkpt>
      <trkpt lat="38.13055216" lon="-2.42426114">
        <ele>1491.0000</ele>
        <time>2018-10-14T11:31:23Z</time>
      </trkpt>
      <trkpt lat="38.13058979" lon="-2.42415301">
        <ele>1491.0000</ele>
        <time>2018-10-14T11:31:25Z</time>
      </trkpt>
      <trkpt lat="38.13066867" lon="-2.42389845">
        <ele>1491.0000</ele>
        <time>2018-10-14T11:31:30Z</time>
      </trkpt>
      <trkpt lat="38.13070538" lon="-2.42380592">
        <ele>1491.0000</ele>
        <time>2018-10-14T11:31:32Z</time>
      </trkpt>
      <trkpt lat="38.13091199" lon="-2.42327584">
        <ele>1490.0000</ele>
        <time>2018-10-14T11:31:44Z</time>
      </trkpt>
      <trkpt lat="38.13116303" lon="-2.42265651">
        <ele>1490.0000</ele>
        <time>2018-10-14T11:31:59Z</time>
      </trkpt>
      <trkpt lat="38.13119530" lon="-2.42258098">
        <ele>1490.0000</ele>
        <time>2018-10-14T11:32:01Z</time>
      </trkpt>
      <trkpt lat="38.13132430" lon="-2.42219885">
        <ele>1490.0000</ele>
        <time>2018-10-14T11:32:12Z</time>
      </trkpt>
      <trkpt lat="38.13133662" lon="-2.42218175">
        <ele>1441.0000</ele>
        <time>2018-10-14T11:40:02Z</time>
      </trkpt>
      <trkpt lat="38.13134660" lon="-2.42216264">
        <ele>1441.0000</ele>
        <time>2018-10-14T11:40:03Z</time>
      </trkpt>
      <trkpt lat="38.13135858" lon="-2.42213616">
        <ele>1441.0000</ele>
        <time>2018-10-14T11:40:04Z</time>
      </trkpt>
      <trkpt lat="38.13138842" lon="-2.42206458">
        <ele>1441.0000</ele>
        <time>2018-10-14T11:40:06Z</time>
      </trkpt>
      <trkpt lat="38.13141860" lon="-2.42199140">
        <ele>1441.0000</ele>
        <time>2018-10-14T11:40:08Z</time>
      </trkpt>
      <trkpt lat="38.13166653" lon="-2.42133728">
        <ele>1442.0000</ele>
        <time>2018-10-14T11:40:25Z</time>
      </trkpt>
      <trkpt lat="38.13169746" lon="-2.42124642">
        <ele>1443.0000</ele>
        <time>2018-10-14T11:40:27Z</time>
      </trkpt>
      <trkpt lat="38.13172630" lon="-2.42114558">
        <ele>1443.0000</ele>
        <time>2018-10-14T11:40:29Z</time>
      </trkpt>
      <trkpt lat="38.13181615" lon="-2.42086873">
        <ele>1444.0000</ele>
        <time>2018-10-14T11:40:34Z</time>
      </trkpt>
      <trkpt lat="38.13191195" lon="-2.42056103">
        <ele>1445.0000</ele>
        <time>2018-10-14T11:40:39Z</time>
      </trkpt>
      <trkpt lat="38.13203768" lon="-2.42023598">
        <ele>1446.0000</ele>
        <time>2018-10-14T11:40:44Z</time>
      </trkpt>
      <trkpt lat="38.13220230" lon="-2.41989660">
        <ele>1447.0000</ele>
        <time>2018-10-14T11:40:49Z</time>
      </trkpt>
      <trkpt lat="38.13232652" lon="-2.41968956">
        <ele>1448.0000</ele>
        <time>2018-10-14T11:40:52Z</time>
      </trkpt>
      <trkpt lat="38.13241428" lon="-2.41955973">
        <ele>1448.0000</ele>
        <time>2018-10-14T11:40:54Z</time>
      </trkpt>
      <trkpt lat="38.13253666" lon="-2.41937264">
        <ele>1449.0000</ele>
        <time>2018-10-14T11:40:57Z</time>
      </trkpt>
      <trkpt lat="38.13266683" lon="-2.41919771">
        <ele>1450.0000</ele>
        <time>2018-10-14T11:41:00Z</time>
      </trkpt>
      <trkpt lat="38.13289272" lon="-2.41890124">
        <ele>1450.0000</ele>
        <time>2018-10-14T11:41:05Z</time>
      </trkpt>
      <trkpt lat="38.13293698" lon="-2.41884500">
        <ele>1451.0000</ele>
        <time>2018-10-14T11:41:06Z</time>
      </trkpt>
      <trkpt lat="38.13322070" lon="-2.41843286">
        <ele>1452.0000</ele>
        <time>2018-10-14T11:41:13Z</time>
      </trkpt>
      <trkpt lat="38.13332984" lon="-2.41827202">
        <ele>1452.0000</ele>
        <time>2018-10-14T11:41:16Z</time>
      </trkpt>
      <trkpt lat="38.13352086" lon="-2.41798678">
        <ele>1453.0000</ele>
        <time>2018-10-14T11:41:21Z</time>
      </trkpt>
      <trkpt lat="38.13367961" lon="-2.41775326">
        <ele>1454.0000</ele>
        <time>2018-10-14T11:41:25Z</time>
      </trkpt>
      <trkpt lat="38.13393577" lon="-2.41739208">
        <ele>1454.0000</ele>
        <time>2018-10-14T11:41:31Z</time>
      </trkpt>
      <trkpt lat="38.13408496" lon="-2.41716661">
        <ele>1455.0000</ele>
        <time>2018-10-14T11:41:35Z</time>
      </trkpt>
      <trkpt lat="38.13425201" lon="-2.41686251">
        <ele>1456.0000</ele>
        <time>2018-10-14T11:41:40Z</time>
      </trkpt>
      <trkpt lat="38.13428018" lon="-2.41679772">
        <ele>1456.0000</ele>
        <time>2018-10-14T11:41:41Z</time>
      </trkpt>
      <trkpt lat="38.13453222" lon="-2.41617470">
        <ele>1456.0000</ele>
        <time>2018-10-14T11:41:50Z</time>
      </trkpt>
      <trkpt lat="38.13476415" lon="-2.41551110">
        <ele>1457.0000</ele>
        <time>2018-10-14T11:41:59Z</time>
      </trkpt>
      <trkpt lat="38.13487940" lon="-2.41518203">
        <ele>1457.0000</ele>
        <time>2018-10-14T11:42:03Z</time>
      </trkpt>
      <trkpt lat="38.13506389" lon="-2.41452304">
        <ele>1458.0000</ele>
        <time>2018-10-14T11:42:11Z</time>
      </trkpt>
      <trkpt lat="38.13516757" lon="-2.41409028">
        <ele>1458.0000</ele>
        <time>2018-10-14T11:42:16Z</time>
      </trkpt>
      <trkpt lat="38.13522767" lon="-2.41381829">
        <ele>1458.0000</ele>
        <time>2018-10-14T11:42:19Z</time>
      </trkpt>
      <trkpt lat="38.13523479" lon="-2.41329434">
        <ele>1458.0000</ele>
        <time>2018-10-14T11:42:25Z</time>
      </trkpt>
      <trkpt lat="38.13510823" lon="-2.41295655">
        <ele>1459.0000</ele>
        <time>2018-10-14T11:42:30Z</time>
      </trkpt>
      <trkpt lat="38.13495802" lon="-2.41279075">
        <ele>1459.0000</ele>
        <time>2018-10-14T11:42:33Z</time>
      </trkpt>
      <trkpt lat="38.13484009" lon="-2.41269419">
        <ele>1459.0000</ele>
        <time>2018-10-14T11:42:35Z</time>
      </trkpt>
      <trkpt lat="38.13459391" lon="-2.41257031">
        <ele>1459.0000</ele>
        <time>2018-10-14T11:42:39Z</time>
      </trkpt>
      <trkpt lat="38.13428303" lon="-2.41243712">
        <ele>1459.0000</ele>
        <time>2018-10-14T11:42:44Z</time>
      </trkpt>
      <trkpt lat="38.13375648" lon="-2.41220553">
        <ele>1459.0000</ele>
        <time>2018-10-14T11:42:52Z</time>
      </trkpt>
      <trkpt lat="38.13352170" lon="-2.41210654">
        <ele>1460.0000</ele>
        <time>2018-10-14T11:42:56Z</time>
      </trkpt>
      <trkpt lat="38.13342765" lon="-2.41207771">
        <ele>1460.0000</ele>
        <time>2018-10-14T11:42:58Z</time>
      </trkpt>
      <trkpt lat="38.13329170" lon="-2.41208332">
        <ele>1460.0000</ele>
        <time>2018-10-14T11:43:01Z</time>
      </trkpt>
      <trkpt lat="38.13300051" lon="-2.41241566">
        <ele>1460.0000</ele>
        <time>2018-10-14T11:43:09Z</time>
      </trkpt>
      <trkpt lat="38.13285274" lon="-2.41261892">
        <ele>1460.0000</ele>
        <time>2018-10-14T11:43:13Z</time>
      </trkpt>
      <trkpt lat="38.13281200" lon="-2.41265580">
        <ele>1461.0000</ele>
        <time>2018-10-14T11:43:14Z</time>
      </trkpt>
      <trkpt lat="38.13262324" lon="-2.41272839">
        <ele>1461.0000</ele>
        <time>2018-10-14T11:43:18Z</time>
      </trkpt>
      <trkpt lat="38.13243398" lon="-2.41227854">
        <ele>1461.0000</ele>
        <time>2018-10-14T11:43:27Z</time>
      </trkpt>
      <trkpt lat="38.13248176" lon="-2.41189674">
        <ele>1461.0000</ele>
        <time>2018-10-14T11:43:32Z</time>
      </trkpt>
      <trkpt lat="38.13265928" lon="-2.41137815">
        <ele>1460.0000</ele>
        <time>2018-10-14T11:43:39Z</time>
      </trkpt>
      <trkpt lat="38.13297637" lon="-2.41077390">
        <ele>1460.0000</ele>
        <time>2018-10-14T11:43:47Z</time>
      </trkpt>
      <trkpt lat="38.13305768" lon="-2.41062261">
        <ele>1460.0000</ele>
        <time>2018-10-14T11:43:49Z</time>
      </trkpt>
      <trkpt lat="38.13328919" lon="-2.41019563">
        <ele>1459.0000</ele>
        <time>2018-10-14T11:43:55Z</time>
      </trkpt>
      <trkpt lat="38.13334945" lon="-2.41005658">
        <ele>1459.0000</ele>
        <time>2018-10-14T11:43:57Z</time>
      </trkpt>
      <trkpt lat="38.13345422" lon="-2.40967185">
        <ele>1458.0000</ele>
        <time>2018-10-14T11:44:02Z</time>
      </trkpt>
      <trkpt lat="38.13360451" lon="-2.40912199">
        <ele>1457.0000</ele>
        <time>2018-10-14T11:44:09Z</time>
      </trkpt>
      <trkpt lat="38.13370023" lon="-2.40880910">
        <ele>1457.0000</ele>
        <time>2018-10-14T11:44:13Z</time>
      </trkpt>
      <trkpt lat="38.13378280" lon="-2.40856443">
        <ele>1457.0000</ele>
        <time>2018-10-14T11:44:16Z</time>
      </trkpt>
      <trkpt lat="38.13393895" lon="-2.40799547">
        <ele>1456.0000</ele>
        <time>2018-10-14T11:44:23Z</time>
      </trkpt>
      <trkpt lat="38.13396938" lon="-2.40770059">
        <ele>1456.0000</ele>
        <time>2018-10-14T11:44:27Z</time>
      </trkpt>
      <trkpt lat="38.13396384" lon="-2.40748920">
        <ele>1456.0000</ele>
        <time>2018-10-14T11:44:30Z</time>
      </trkpt>
      <trkpt lat="38.13387055" lon="-2.40680901">
        <ele>1455.0000</ele>
        <time>2018-10-14T11:44:39Z</time>
      </trkpt>
      <trkpt lat="38.13374843" lon="-2.40639595">
        <ele>1454.0000</ele>
        <time>2018-10-14T11:44:44Z</time>
      </trkpt>
      <trkpt lat="38.13365120" lon="-2.40616645">
        <ele>1453.0000</ele>
        <time>2018-10-14T11:44:47Z</time>
      </trkpt>
      <trkpt lat="38.13354643" lon="-2.40594961">
        <ele>1452.0000</ele>
        <time>2018-10-14T11:44:50Z</time>
      </trkpt>
      <trkpt lat="38.13342732" lon="-2.40564124">
        <ele>1451.0000</ele>
        <time>2018-10-14T11:44:54Z</time>
      </trkpt>
      <trkpt lat="38.13333302" lon="-2.40532466">
        <ele>1450.0000</ele>
        <time>2018-10-14T11:44:58Z</time>
      </trkpt>
      <trkpt lat="38.13327334" lon="-2.40508351">
        <ele>1450.0000</ele>
        <time>2018-10-14T11:45:01Z</time>
      </trkpt>
      <trkpt lat="38.13325557" lon="-2.40500313">
        <ele>1449.0000</ele>
        <time>2018-10-14T11:45:02Z</time>
      </trkpt>
      <trkpt lat="38.13319455" lon="-2.40467414">
        <ele>1449.0000</ele>
        <time>2018-10-14T11:45:06Z</time>
      </trkpt>
      <trkpt lat="38.13313839" lon="-2.40434657">
        <ele>1448.0000</ele>
        <time>2018-10-14T11:45:10Z</time>
      </trkpt>
      <trkpt lat="38.13308198" lon="-2.40413082">
        <ele>1447.0000</ele>
        <time>2018-10-14T11:45:13Z</time>
      </trkpt>
      <trkpt lat="38.13305793" lon="-2.40406704">
        <ele>1447.0000</ele>
        <time>2018-10-14T11:45:14Z</time>
      </trkpt>
      <trkpt lat="38.13299607" lon="-2.40385615">
        <ele>1447.0000</ele>
        <time>2018-10-14T11:45:17Z</time>
      </trkpt>
      <trkpt lat="38.13298090" lon="-2.40363260">
        <ele>1446.0000</ele>
        <time>2018-10-14T11:45:20Z</time>
      </trkpt>
      <trkpt lat="38.13301652" lon="-2.40341601">
        <ele>1446.0000</ele>
        <time>2018-10-14T11:45:23Z</time>
      </trkpt>
      <trkpt lat="38.13304980" lon="-2.40327729">
        <ele>1445.0000</ele>
        <time>2018-10-14T11:45:25Z</time>
      </trkpt>
      <trkpt lat="38.13313722" lon="-2.40301712">
        <ele>1445.0000</ele>
        <time>2018-10-14T11:45:29Z</time>
      </trkpt>
      <trkpt lat="38.13316706" lon="-2.40295652">
        <ele>1445.0000</ele>
        <time>2018-10-14T11:45:30Z</time>
      </trkpt>
      <trkpt lat="38.13322984" lon="-2.40283951">
        <ele>1444.0000</ele>
        <time>2018-10-14T11:45:32Z</time>
      </trkpt>
      <trkpt lat="38.13336437" lon="-2.40260674">
        <ele>1444.0000</ele>
        <time>2018-10-14T11:45:36Z</time>
      </trkpt>
      <trkpt lat="38.13339890" lon="-2.40254555">
        <ele>1444.0000</ele>
        <time>2018-10-14T11:45:37Z</time>
      </trkpt>
      <trkpt lat="38.13357425" lon="-2.40223785">
        <ele>1444.0000</ele>
        <time>2018-10-14T11:45:42Z</time>
      </trkpt>
      <trkpt lat="38.13361222" lon="-2.40217977">
        <ele>1443.0000</ele>
        <time>2018-10-14T11:45:43Z</time>
      </trkpt>
      <trkpt lat="38.13388329" lon="-2.40179168">
        <ele>1443.0000</ele>
        <time>2018-10-14T11:45:50Z</time>
      </trkpt>
      <trkpt lat="38.13420977" lon="-2.40137921">
        <ele>1442.0000</ele>
        <time>2018-10-14T11:45:58Z</time>
      </trkpt>
      <trkpt lat="38.13436249" lon="-2.40117218">
        <ele>1442.0000</ele>
        <time>2018-10-14T11:46:02Z</time>
      </trkpt>
      <trkpt lat="38.13449869" lon="-2.40097085">
        <ele>1442.0000</ele>
        <time>2018-10-14T11:46:06Z</time>
      </trkpt>
      <trkpt lat="38.13462702" lon="-2.40078301">
        <ele>1442.0000</ele>
        <time>2018-10-14T11:46:10Z</time>
      </trkpt>
      <trkpt lat="38.13471671" lon="-2.40063339">
        <ele>1441.0000</ele>
        <time>2018-10-14T11:46:13Z</time>
      </trkpt>
      <trkpt lat="38.13489759" lon="-2.40024900">
        <ele>1441.0000</ele>
        <time>2018-10-14T11:46:20Z</time>
      </trkpt>
      <trkpt lat="38.13494034" lon="-2.40013282">
        <ele>1440.0000</ele>
        <time>2018-10-14T11:46:22Z</time>
      </trkpt>
      <trkpt lat="38.13501577" lon="-2.39988162">
        <ele>1440.0000</ele>
        <time>2018-10-14T11:46:26Z</time>
      </trkpt>
      <trkpt lat="38.13512993" lon="-2.39921827">
        <ele>1440.0000</ele>
        <time>2018-10-14T11:46:35Z</time>
      </trkpt>
      <trkpt lat="38.13519137" lon="-2.39872684">
        <ele>1439.0000</ele>
        <time>2018-10-14T11:46:41Z</time>
      </trkpt>
      <trkpt lat="38.13521208" lon="-2.39864671">
        <ele>1439.0000</ele>
        <time>2018-10-14T11:46:42Z</time>
      </trkpt>
      <trkpt lat="38.13541123" lon="-2.39812368">
        <ele>1438.0000</ele>
        <time>2018-10-14T11:46:49Z</time>
      </trkpt>
      <trkpt lat="38.13561365" lon="-2.39768883">
        <ele>1438.0000</ele>
        <time>2018-10-14T11:46:55Z</time>
      </trkpt>
      <trkpt lat="38.13570871" lon="-2.39745824">
        <ele>1438.0000</ele>
        <time>2018-10-14T11:46:58Z</time>
      </trkpt>
      <trkpt lat="38.13587232" lon="-2.39698760">
        <ele>1437.0000</ele>
        <time>2018-10-14T11:47:04Z</time>
      </trkpt>
      <trkpt lat="38.13595245" lon="-2.39666934">
        <ele>1437.0000</ele>
        <time>2018-10-14T11:47:08Z</time>
      </trkpt>
      <trkpt lat="38.13600366" lon="-2.39635669">
        <ele>1437.0000</ele>
        <time>2018-10-14T11:47:12Z</time>
      </trkpt>
      <trkpt lat="38.13601775" lon="-2.39620230">
        <ele>1437.0000</ele>
        <time>2018-10-14T11:47:14Z</time>
      </trkpt>
      <trkpt lat="38.13603661" lon="-2.39592092">
        <ele>1437.0000</ele>
        <time>2018-10-14T11:47:18Z</time>
      </trkpt>
      <trkpt lat="38.13608061" lon="-2.39558715">
        <ele>1437.0000</ele>
        <time>2018-10-14T11:47:24Z</time>
      </trkpt>
      <trkpt lat="38.13609494" lon="-2.39548204">
        <ele>1437.0000</ele>
        <time>2018-10-14T11:47:26Z</time>
      </trkpt>
      <trkpt lat="38.13612747" lon="-2.39526235">
        <ele>1436.0000</ele>
        <time>2018-10-14T11:47:30Z</time>
      </trkpt>
      <trkpt lat="38.13614138" lon="-2.39515146">
        <ele>1436.0000</ele>
        <time>2018-10-14T11:47:32Z</time>
      </trkpt>
      <trkpt lat="38.13617885" lon="-2.39493411">
        <ele>1436.0000</ele>
        <time>2018-10-14T11:47:36Z</time>
      </trkpt>
      <trkpt lat="38.13626308" lon="-2.39471644">
        <ele>1436.0000</ele>
        <time>2018-10-14T11:47:40Z</time>
      </trkpt>
      <trkpt lat="38.13634464" lon="-2.39456288">
        <ele>1436.0000</ele>
        <time>2018-10-14T11:47:43Z</time>
      </trkpt>
      <trkpt lat="38.13642318" lon="-2.39441519">
        <ele>1436.0000</ele>
        <time>2018-10-14T11:47:46Z</time>
      </trkpt>
      <trkpt lat="38.13651613" lon="-2.39421352">
        <ele>1436.0000</ele>
        <time>2018-10-14T11:47:50Z</time>
      </trkpt>
      <trkpt lat="38.13653952" lon="-2.39416340">
        <ele>1436.0000</ele>
        <time>2018-10-14T11:47:51Z</time>
      </trkpt>
      <trkpt lat="38.13664739" lon="-2.39395972">
        <ele>1435.0000</ele>
        <time>2018-10-14T11:47:55Z</time>
      </trkpt>
      <trkpt lat="38.13678720" lon="-2.39376727">
        <ele>1435.0000</ele>
        <time>2018-10-14T11:47:59Z</time>
      </trkpt>
      <trkpt lat="38.13690355" lon="-2.39362553">
        <ele>1435.0000</ele>
        <time>2018-10-14T11:48:02Z</time>
      </trkpt>
      <trkpt lat="38.13718945" lon="-2.39329512">
        <ele>1435.0000</ele>
        <time>2018-10-14T11:48:09Z</time>
      </trkpt>
      <trkpt lat="38.13723270" lon="-2.39324633">
        <ele>1435.0000</ele>
        <time>2018-10-14T11:48:10Z</time>
      </trkpt>
      <trkpt lat="38.13735977" lon="-2.39309990">
        <ele>1435.0000</ele>
        <time>2018-10-14T11:48:13Z</time>
      </trkpt>
      <trkpt lat="38.13765557" lon="-2.39284836">
        <ele>1434.0000</ele>
        <time>2018-10-14T11:48:19Z</time>
      </trkpt>
      <trkpt lat="38.13786746" lon="-2.39272012">
        <ele>1434.0000</ele>
        <time>2018-10-14T11:48:23Z</time>
      </trkpt>
      <trkpt lat="38.13791256" lon="-2.39269246">
        <ele>1434.0000</ele>
        <time>2018-10-14T11:48:24Z</time>
      </trkpt>
      <trkpt lat="38.13802286" lon="-2.39259607">
        <ele>1434.0000</ele>
        <time>2018-10-14T11:48:27Z</time>
      </trkpt>
      <trkpt lat="38.13808891" lon="-2.39253438">
        <ele>1434.0000</ele>
        <time>2018-10-14T11:48:29Z</time>
      </trkpt>
      <trkpt lat="38.13815798" lon="-2.39247587">
        <ele>1434.0000</ele>
        <time>2018-10-14T11:48:31Z</time>
      </trkpt>
      <trkpt lat="38.13827734" lon="-2.39239901">
        <ele>1434.0000</ele>
        <time>2018-10-14T11:48:34Z</time>
      </trkpt>
      <trkpt lat="38.13846115" lon="-2.39231502">
        <ele>1433.0000</ele>
        <time>2018-10-14T11:48:38Z</time>
      </trkpt>
      <trkpt lat="38.13868738" lon="-2.39223028">
        <ele>1433.0000</ele>
        <time>2018-10-14T11:48:43Z</time>
      </trkpt>
      <trkpt lat="38.13881529" lon="-2.39219399">
        <ele>1433.0000</ele>
        <time>2018-10-14T11:48:46Z</time>
      </trkpt>
      <trkpt lat="38.13895351" lon="-2.39213607">
        <ele>1433.0000</ele>
        <time>2018-10-14T11:48:50Z</time>
      </trkpt>
      <trkpt lat="38.13914520" lon="-2.39205124">
        <ele>1433.0000</ele>
        <time>2018-10-14T11:48:57Z</time>
      </trkpt>
      <trkpt lat="38.13926833" lon="-2.39193717">
        <ele>1432.0000</ele>
        <time>2018-10-14T11:49:01Z</time>
      </trkpt>
      <trkpt lat="38.13931452" lon="-2.39186793">
        <ele>1432.0000</ele>
        <time>2018-10-14T11:49:03Z</time>
      </trkpt>
      <trkpt lat="38.13940630" lon="-2.39172720">
        <ele>1432.0000</ele>
        <time>2018-10-14T11:49:07Z</time>
      </trkpt>
      <trkpt lat="38.13945240" lon="-2.39159787">
        <ele>1432.0000</ele>
        <time>2018-10-14T11:49:10Z</time>
      </trkpt>
      <trkpt lat="38.13947218" lon="-2.39099336">
        <ele>1432.0000</ele>
        <time>2018-10-14T11:49:23Z</time>
      </trkpt>
      <trkpt lat="38.13945902" lon="-2.39086856">
        <ele>1432.0000</ele>
        <time>2018-10-14T11:49:26Z</time>
      </trkpt>
      <trkpt lat="38.13945366" lon="-2.39068566">
        <ele>1432.0000</ele>
        <time>2018-10-14T11:49:30Z</time>
      </trkpt>
      <trkpt lat="38.13944653" lon="-2.39053378">
        <ele>1432.0000</ele>
        <time>2018-10-14T11:49:33Z</time>
      </trkpt>
      <trkpt lat="38.13940613" lon="-2.39023312">
        <ele>1432.0000</ele>
        <time>2018-10-14T11:49:38Z</time>
      </trkpt>
      <trkpt lat="38.13939951" lon="-2.39016825">
        <ele>1432.0000</ele>
        <time>2018-10-14T11:49:39Z</time>
      </trkpt>
      <trkpt lat="38.13936422" lon="-2.38991989">
        <ele>1431.0000</ele>
        <time>2018-10-14T11:49:43Z</time>
      </trkpt>
      <trkpt lat="38.13934251" lon="-2.38980900">
        <ele>1432.0000</ele>
        <time>2018-10-14T11:49:45Z</time>
      </trkpt>
      <trkpt lat="38.13929239" lon="-2.38955981">
        <ele>1432.0000</ele>
        <time>2018-10-14T11:49:50Z</time>
      </trkpt>
      <trkpt lat="38.13927344" lon="-2.38946962">
        <ele>1431.0000</ele>
        <time>2018-10-14T11:49:52Z</time>
      </trkpt>
      <trkpt lat="38.13925559" lon="-2.38938429">
        <ele>1431.0000</ele>
        <time>2018-10-14T11:49:54Z</time>
      </trkpt>
      <trkpt lat="38.13919968" lon="-2.38916376">
        <ele>1431.0000</ele>
        <time>2018-10-14T11:49:59Z</time>
      </trkpt>
      <trkpt lat="38.13915300" lon="-2.38902295">
        <ele>1431.0000</ele>
        <time>2018-10-14T11:50:02Z</time>
      </trkpt>
      <trkpt lat="38.13911771" lon="-2.38892454">
        <ele>1431.0000</ele>
        <time>2018-10-14T11:50:04Z</time>
      </trkpt>
      <trkpt lat="38.13899030" lon="-2.38862472">
        <ele>1430.0000</ele>
        <time>2018-10-14T11:50:10Z</time>
      </trkpt>
      <trkpt lat="38.13894672" lon="-2.38853319">
        <ele>1430.0000</ele>
        <time>2018-10-14T11:50:12Z</time>
      </trkpt>
      <trkpt lat="38.13892652" lon="-2.38848860">
        <ele>1430.0000</ele>
        <time>2018-10-14T11:50:13Z</time>
      </trkpt>
      <trkpt lat="38.13879291" lon="-2.38816422">
        <ele>1430.0000</ele>
        <time>2018-10-14T11:50:20Z</time>
      </trkpt>
      <trkpt lat="38.13859384" lon="-2.38780992">
        <ele>1429.0000</ele>
        <time>2018-10-14T11:50:28Z</time>
      </trkpt>
      <trkpt lat="38.13838362" lon="-2.38746391">
        <ele>1428.0000</ele>
        <time>2018-10-14T11:50:35Z</time>
      </trkpt>
      <trkpt lat="38.13818749" lon="-2.38718739">
        <ele>1428.0000</ele>
        <time>2018-10-14T11:50:42Z</time>
      </trkpt>
      <trkpt lat="38.13815044" lon="-2.38715227">
        <ele>1428.0000</ele>
        <time>2018-10-14T11:50:43Z</time>
      </trkpt>
      <trkpt lat="38.13790250" lon="-2.38687383">
        <ele>1427.0000</ele>
        <time>2018-10-14T11:50:50Z</time>
      </trkpt>
      <trkpt lat="38.13773771" lon="-2.38663469">
        <ele>1427.0000</ele>
        <time>2018-10-14T11:50:55Z</time>
      </trkpt>
      <trkpt lat="38.13767761" lon="-2.38637192">
        <ele>1427.0000</ele>
        <time>2018-10-14T11:50:59Z</time>
      </trkpt>
      <trkpt lat="38.13766923" lon="-2.38623211">
        <ele>1427.0000</ele>
        <time>2018-10-14T11:51:01Z</time>
      </trkpt>
      <trkpt lat="38.13764937" lon="-2.38595643">
        <ele>1427.0000</ele>
        <time>2018-10-14T11:51:06Z</time>
      </trkpt>
      <trkpt lat="38.13762858" lon="-2.38588937">
        <ele>1427.0000</ele>
        <time>2018-10-14T11:51:08Z</time>
      </trkpt>
      <trkpt lat="38.13761810" lon="-2.38586163">
        <ele>1427.0000</ele>
        <time>2018-10-14T11:51:09Z</time>
      </trkpt>
      <trkpt lat="38.13760360" lon="-2.38577077">
        <ele>1426.0000</ele>
        <time>2018-10-14T11:51:12Z</time>
      </trkpt>
      <trkpt lat="38.13760620" lon="-2.38540255">
        <ele>1426.0000</ele>
        <time>2018-10-14T11:51:22Z</time>
      </trkpt>
      <trkpt lat="38.13761374" lon="-2.38514254">
        <ele>1426.0000</ele>
        <time>2018-10-14T11:51:28Z</time>
      </trkpt>
      <trkpt lat="38.13760293" lon="-2.38507557">
        <ele>1426.0000</ele>
        <time>2018-10-14T11:51:30Z</time>
      </trkpt>
      <trkpt lat="38.13753546" lon="-2.38473074">
        <ele>1426.0000</ele>
        <time>2018-10-14T11:51:40Z</time>
      </trkpt>
      <trkpt lat="38.13747519" lon="-2.38441642">
        <ele>1425.0000</ele>
        <time>2018-10-14T11:51:48Z</time>
      </trkpt>
      <trkpt lat="38.13743865" lon="-2.38430745">
        <ele>1425.0000</ele>
        <time>2018-10-14T11:51:51Z</time>
      </trkpt>
      <trkpt lat="38.13741912" lon="-2.38426387">
        <ele>1425.0000</ele>
        <time>2018-10-14T11:51:53Z</time>
      </trkpt>
      <trkpt lat="38.13738760" lon="-2.38424744">
        <ele>1425.0000</ele>
        <time>2018-10-14T11:51:57Z</time>
      </trkpt>
      <trkpt lat="38.13766940" lon="-2.38423026">
        <ele>1247.0000</ele>
        <time>2018-10-14T12:12:14Z</time>
      </trkpt>
      <trkpt lat="38.13766940" lon="-2.38422707">
        <ele>1247.0000</ele>
        <time>2018-10-14T12:12:15Z</time>
      </trkpt>
      <trkpt lat="38.13766177" lon="-2.38422087">
        <ele>1247.0000</ele>
        <time>2018-10-14T12:12:17Z</time>
      </trkpt>
      <trkpt lat="38.13761567" lon="-2.38421894">
        <ele>1247.0000</ele>
        <time>2018-10-14T12:12:21Z</time>
      </trkpt>
      <trkpt lat="38.13727797" lon="-2.38424744">
        <ele>1195.0000</ele>
        <time>2018-10-14T12:35:22Z</time>
      </trkpt>
      <trkpt lat="38.13721829" lon="-2.38416614">
        <ele>1195.0000</ele>
        <time>2018-10-14T12:35:30Z</time>
      </trkpt>
      <trkpt lat="38.13726841" lon="-2.38417712">
        <ele>1184.0000</ele>
        <time>2018-10-14T12:44:25Z</time>
      </trkpt>
      <trkpt lat="38.13723865" lon="-2.38420126">
        <ele>1184.0000</ele>
        <time>2018-10-14T12:44:36Z</time>
      </trkpt>
      <trkpt lat="38.13744829" lon="-2.38404460">
        <ele>1178.0000</ele>
        <time>2018-10-14T12:49:26Z</time>
      </trkpt>
      <trkpt lat="38.13744728" lon="-2.38412959">
        <ele>1179.0000</ele>
        <time>2018-10-14T12:49:35Z</time>
      </trkpt>
      <trkpt lat="38.13740998" lon="-2.38408039">
        <ele>1173.0000</ele>
        <time>2018-10-14T13:01:01Z</time>
      </trkpt>
      <trkpt lat="38.13740814" lon="-2.38403714">
        <ele>1174.0000</ele>
        <time>2018-10-14T13:01:03Z</time>
      </trkpt>
      <trkpt lat="38.13739615" lon="-2.38397251">
        <ele>1175.0000</ele>
        <time>2018-10-14T13:01:05Z</time>
      </trkpt>
      <trkpt lat="38.13739104" lon="-2.38394133">
        <ele>1176.0000</ele>
        <time>2018-10-14T13:01:06Z</time>
      </trkpt>
      <trkpt lat="38.13738559" lon="-2.38390906">
        <ele>1177.0000</ele>
        <time>2018-10-14T13:01:07Z</time>
      </trkpt>
      <trkpt lat="38.13737989" lon="-2.38387528">
        <ele>1177.0000</ele>
        <time>2018-10-14T13:01:08Z</time>
      </trkpt>
      <trkpt lat="38.13736472" lon="-2.38380664">
        <ele>1178.0000</ele>
        <time>2018-10-14T13:01:10Z</time>
      </trkpt>
      <trkpt lat="38.13735910" lon="-2.38373581">
        <ele>1180.0000</ele>
        <time>2018-10-14T13:01:12Z</time>
      </trkpt>
      <trkpt lat="38.13735432" lon="-2.38365710">
        <ele>1181.0000</ele>
        <time>2018-10-14T13:01:14Z</time>
      </trkpt>
      <trkpt lat="38.13734980" lon="-2.38357739">
        <ele>1182.0000</ele>
        <time>2018-10-14T13:01:16Z</time>
      </trkpt>
      <trkpt lat="38.13734326" lon="-2.38349625">
        <ele>1183.0000</ele>
        <time>2018-10-14T13:01:18Z</time>
      </trkpt>
      <trkpt lat="38.13733823" lon="-2.38341755">
        <ele>1184.0000</ele>
        <time>2018-10-14T13:01:20Z</time>
      </trkpt>
      <trkpt lat="38.13733446" lon="-2.38333649">
        <ele>1185.0000</ele>
        <time>2018-10-14T13:01:22Z</time>
      </trkpt>
      <trkpt lat="38.13733018" lon="-2.38325561">
        <ele>1187.0000</ele>
        <time>2018-10-14T13:01:24Z</time>
      </trkpt>
      <trkpt lat="38.13731920" lon="-2.38317347">
        <ele>1188.0000</ele>
        <time>2018-10-14T13:01:26Z</time>
      </trkpt>
      <trkpt lat="38.13731468" lon="-2.38308613">
        <ele>1190.0000</ele>
        <time>2018-10-14T13:01:28Z</time>
      </trkpt>
      <trkpt lat="38.13730973" lon="-2.38299175">
        <ele>1191.0000</ele>
        <time>2018-10-14T13:01:30Z</time>
      </trkpt>
      <trkpt lat="38.13731535" lon="-2.38289108">
        <ele>1193.0000</ele>
        <time>2018-10-14T13:01:32Z</time>
      </trkpt>
      <trkpt lat="38.13732926" lon="-2.38278455">
        <ele>1194.0000</ele>
        <time>2018-10-14T13:01:34Z</time>
      </trkpt>
      <trkpt lat="38.13735223" lon="-2.38267810">
        <ele>1195.0000</ele>
        <time>2018-10-14T13:01:36Z</time>
      </trkpt>
      <trkpt lat="38.13738341" lon="-2.38257667">
        <ele>1197.0000</ele>
        <time>2018-10-14T13:01:38Z</time>
      </trkpt>
      <trkpt lat="38.13742557" lon="-2.38247919">
        <ele>1199.0000</ele>
        <time>2018-10-14T13:01:40Z</time>
      </trkpt>
      <trkpt lat="38.13746815" lon="-2.38238230">
        <ele>1201.0000</ele>
        <time>2018-10-14T13:01:42Z</time>
      </trkpt>
      <trkpt lat="38.13750704" lon="-2.38228029">
        <ele>1202.0000</ele>
        <time>2018-10-14T13:01:44Z</time>
      </trkpt>
      <trkpt lat="38.13754443" lon="-2.38217661">
        <ele>1204.0000</ele>
        <time>2018-10-14T13:01:46Z</time>
      </trkpt>
      <trkpt lat="38.13757988" lon="-2.38206923">
        <ele>1205.0000</ele>
        <time>2018-10-14T13:01:48Z</time>
      </trkpt>
      <trkpt lat="38.13761919" lon="-2.38196413">
        <ele>1206.0000</ele>
        <time>2018-10-14T13:01:50Z</time>
      </trkpt>
      <trkpt lat="38.13764149" lon="-2.38191476">
        <ele>1207.0000</ele>
        <time>2018-10-14T13:01:51Z</time>
      </trkpt>
      <trkpt lat="38.13766772" lon="-2.38186773">
        <ele>1208.0000</ele>
        <time>2018-10-14T13:01:52Z</time>
      </trkpt>
      <trkpt lat="38.13773101" lon="-2.38177830">
        <ele>1209.0000</ele>
        <time>2018-10-14T13:01:54Z</time>
      </trkpt>
      <trkpt lat="38.13781960" lon="-2.38171208">
        <ele>1211.0000</ele>
        <time>2018-10-14T13:01:56Z</time>
      </trkpt>
      <trkpt lat="38.13792429" lon="-2.38166229">
        <ele>1213.0000</ele>
        <time>2018-10-14T13:01:58Z</time>
      </trkpt>
      <trkpt lat="38.13803695" lon="-2.38160186">
        <ele>1214.0000</ele>
        <time>2018-10-14T13:02:00Z</time>
      </trkpt>
      <trkpt lat="38.13814734" lon="-2.38151293">
        <ele>1216.0000</ele>
        <time>2018-10-14T13:02:02Z</time>
      </trkpt>
      <trkpt lat="38.13823074" lon="-2.38139675">
        <ele>1217.0000</ele>
        <time>2018-10-14T13:02:04Z</time>
      </trkpt>
      <trkpt lat="38.13826988" lon="-2.38126650">
        <ele>1218.0000</ele>
        <time>2018-10-14T13:02:06Z</time>
      </trkpt>
      <trkpt lat="38.13828002" lon="-2.38120238">
        <ele>1219.0000</ele>
        <time>2018-10-14T13:02:07Z</time>
      </trkpt>
      <trkpt lat="38.13828907" lon="-2.38113859">
        <ele>1219.0000</ele>
        <time>2018-10-14T13:02:08Z</time>
      </trkpt>
      <trkpt lat="38.13829846" lon="-2.38101571">
        <ele>1221.0000</ele>
        <time>2018-10-14T13:02:10Z</time>
      </trkpt>
      <trkpt lat="38.13829863" lon="-2.38090700">
        <ele>1222.0000</ele>
        <time>2018-10-14T13:02:12Z</time>
      </trkpt>
      <trkpt lat="38.13830936" lon="-2.38080776">
        <ele>1225.0000</ele>
        <time>2018-10-14T13:02:14Z</time>
      </trkpt>
      <trkpt lat="38.13833241" lon="-2.38070650">
        <ele>1226.0000</ele>
        <time>2018-10-14T13:02:16Z</time>
      </trkpt>
      <trkpt lat="38.13836661" lon="-2.38059268">
        <ele>1228.0000</ele>
        <time>2018-10-14T13:02:18Z</time>
      </trkpt>
      <trkpt lat="38.13840776" lon="-2.38045664">
        <ele>1229.0000</ele>
        <time>2018-10-14T13:02:20Z</time>
      </trkpt>
      <trkpt lat="38.13846325" lon="-2.38029831">
        <ele>1230.0000</ele>
        <time>2018-10-14T13:02:22Z</time>
      </trkpt>
      <trkpt lat="38.13852628" lon="-2.38012405">
        <ele>1231.0000</ele>
        <time>2018-10-14T13:02:24Z</time>
      </trkpt>
      <trkpt lat="38.13859350" lon="-2.37994769">
        <ele>1232.0000</ele>
        <time>2018-10-14T13:02:26Z</time>
      </trkpt>
      <trkpt lat="38.13865922" lon="-2.37976999">
        <ele>1233.0000</ele>
        <time>2018-10-14T13:02:28Z</time>
      </trkpt>
      <trkpt lat="38.13868772" lon="-2.37968240">
        <ele>1234.0000</ele>
        <time>2018-10-14T13:02:29Z</time>
      </trkpt>
      <trkpt lat="38.13871135" lon="-2.37959666">
        <ele>1235.0000</ele>
        <time>2018-10-14T13:02:30Z</time>
      </trkpt>
      <trkpt lat="38.13872787" lon="-2.37951242">
        <ele>1235.0000</ele>
        <time>2018-10-14T13:02:31Z</time>
      </trkpt>
      <trkpt lat="38.13874312" lon="-2.37934486">
        <ele>1236.0000</ele>
        <time>2018-10-14T13:02:33Z</time>
      </trkpt>
      <trkpt lat="38.13874212" lon="-2.37916817">
        <ele>1237.0000</ele>
        <time>2018-10-14T13:02:35Z</time>
      </trkpt>
      <trkpt lat="38.13873524" lon="-2.37898159">
        <ele>1238.0000</ele>
        <time>2018-10-14T13:02:37Z</time>
      </trkpt>
      <trkpt lat="38.13873172" lon="-2.37878370">
        <ele>1240.0000</ele>
        <time>2018-10-14T13:02:39Z</time>
      </trkpt>
      <trkpt lat="38.13873767" lon="-2.37857046">
        <ele>1241.0000</ele>
        <time>2018-10-14T13:02:41Z</time>
      </trkpt>
      <trkpt lat="38.13874974" lon="-2.37835295">
        <ele>1242.0000</ele>
        <time>2018-10-14T13:02:43Z</time>
      </trkpt>
      <trkpt lat="38.13876693" lon="-2.37813343">
        <ele>1243.0000</ele>
        <time>2018-10-14T13:02:45Z</time>
      </trkpt>
      <trkpt lat="38.13879098" lon="-2.37791189">
        <ele>1244.0000</ele>
        <time>2018-10-14T13:02:47Z</time>
      </trkpt>
      <trkpt lat="38.13882820" lon="-2.37770159">
        <ele>1246.0000</ele>
        <time>2018-10-14T13:02:49Z</time>
      </trkpt>
      <trkpt lat="38.13889559" lon="-2.37741552">
        <ele>1247.0000</ele>
        <time>2018-10-14T13:02:52Z</time>
      </trkpt>
      <trkpt lat="38.13893783" lon="-2.37723179">
        <ele>1248.0000</ele>
        <time>2018-10-14T13:02:54Z</time>
      </trkpt>
      <trkpt lat="38.13895812" lon="-2.37714093">
        <ele>1249.0000</ele>
        <time>2018-10-14T13:02:55Z</time>
      </trkpt>
      <trkpt lat="38.13897279" lon="-2.37704923">
        <ele>1250.0000</ele>
        <time>2018-10-14T13:02:56Z</time>
      </trkpt>
      <trkpt lat="38.13896826" lon="-2.37686206">
        <ele>1251.0000</ele>
        <time>2018-10-14T13:02:58Z</time>
      </trkpt>
      <trkpt lat="38.13893104" lon="-2.37667766">
        <ele>1252.0000</ele>
        <time>2018-10-14T13:03:00Z</time>
      </trkpt>
      <trkpt lat="38.13889584" lon="-2.37648328">
        <ele>1253.0000</ele>
        <time>2018-10-14T13:03:02Z</time>
      </trkpt>
      <trkpt lat="38.13888905" lon="-2.37627826">
        <ele>1254.0000</ele>
        <time>2018-10-14T13:03:04Z</time>
      </trkpt>
      <trkpt lat="38.13888721" lon="-2.37595866">
        <ele>1256.0000</ele>
        <time>2018-10-14T13:03:07Z</time>
      </trkpt>
      <trkpt lat="38.13886265" lon="-2.37566663">
        <ele>1257.0000</ele>
        <time>2018-10-14T13:03:10Z</time>
      </trkpt>
      <trkpt lat="38.13884857" lon="-2.37549330">
        <ele>1258.0000</ele>
        <time>2018-10-14T13:03:12Z</time>
      </trkpt>
      <trkpt lat="38.13884438" lon="-2.37532247">
        <ele>1259.0000</ele>
        <time>2018-10-14T13:03:14Z</time>
      </trkpt>
      <trkpt lat="38.13885142" lon="-2.37523505">
        <ele>1260.0000</ele>
        <time>2018-10-14T13:03:15Z</time>
      </trkpt>
      <trkpt lat="38.13886860" lon="-2.37506934">
        <ele>1261.0000</ele>
        <time>2018-10-14T13:03:17Z</time>
      </trkpt>
      <trkpt lat="38.13889333" lon="-2.37481495">
        <ele>1262.0000</ele>
        <time>2018-10-14T13:03:20Z</time>
      </trkpt>
      <trkpt lat="38.13890674" lon="-2.37464672">
        <ele>1264.0000</ele>
        <time>2018-10-14T13:03:22Z</time>
      </trkpt>
      <trkpt lat="38.13892752" lon="-2.37447850">
        <ele>1265.0000</ele>
        <time>2018-10-14T13:03:24Z</time>
      </trkpt>
      <trkpt lat="38.13894194" lon="-2.37439510">
        <ele>1265.0000</ele>
        <time>2018-10-14T13:03:25Z</time>
      </trkpt>
      <trkpt lat="38.13900573" lon="-2.37415596">
        <ele>1266.0000</ele>
        <time>2018-10-14T13:03:28Z</time>
      </trkpt>
      <trkpt lat="38.13908988" lon="-2.37393611">
        <ele>1268.0000</ele>
        <time>2018-10-14T13:03:31Z</time>
      </trkpt>
      <trkpt lat="38.13916247" lon="-2.37373226">
        <ele>1269.0000</ele>
        <time>2018-10-14T13:03:34Z</time>
      </trkpt>
      <trkpt lat="38.13918845" lon="-2.37366948">
        <ele>1269.0000</ele>
        <time>2018-10-14T13:03:35Z</time>
      </trkpt>
      <trkpt lat="38.13925408" lon="-2.37354551">
        <ele>1270.0000</ele>
        <time>2018-10-14T13:03:37Z</time>
      </trkpt>
      <trkpt lat="38.13934419" lon="-2.37339153">
        <ele>1272.0000</ele>
        <time>2018-10-14T13:03:40Z</time>
      </trkpt>
      <trkpt lat="38.13939825" lon="-2.37328567">
        <ele>1273.0000</ele>
        <time>2018-10-14T13:03:42Z</time>
      </trkpt>
      <trkpt lat="38.13942340" lon="-2.37323219">
        <ele>1273.0000</ele>
        <time>2018-10-14T13:03:43Z</time>
      </trkpt>
      <trkpt lat="38.13948039" lon="-2.37313639">
        <ele>1274.0000</ele>
        <time>2018-10-14T13:03:45Z</time>
      </trkpt>
      <trkpt lat="38.13951585" lon="-2.37309850">
        <ele>1275.0000</ele>
        <time>2018-10-14T13:03:46Z</time>
      </trkpt>
      <trkpt lat="38.13963001" lon="-2.37298702">
        <ele>1276.0000</ele>
        <time>2018-10-14T13:03:49Z</time>
      </trkpt>
      <trkpt lat="38.13974694" lon="-2.37290237">
        <ele>1278.0000</ele>
        <time>2018-10-14T13:03:52Z</time>
      </trkpt>
      <trkpt lat="38.13982564" lon="-2.37284772">
        <ele>1279.0000</ele>
        <time>2018-10-14T13:03:54Z</time>
      </trkpt>
      <trkpt lat="38.13986387" lon="-2.37281612">
        <ele>1280.0000</ele>
        <time>2018-10-14T13:03:55Z</time>
      </trkpt>
      <trkpt lat="38.13999010" lon="-2.37273372">
        <ele>1281.0000</ele>
        <time>2018-10-14T13:03:58Z</time>
      </trkpt>
      <trkpt lat="38.14012672" lon="-2.37264680">
        <ele>1283.0000</ele>
        <time>2018-10-14T13:04:01Z</time>
      </trkpt>
      <trkpt lat="38.14026125" lon="-2.37254253">
        <ele>1284.0000</ele>
        <time>2018-10-14T13:04:04Z</time>
      </trkpt>
      <trkpt lat="38.14039067" lon="-2.37241915">
        <ele>1285.0000</ele>
        <time>2018-10-14T13:04:07Z</time>
      </trkpt>
      <trkpt lat="38.14052109" lon="-2.37229124">
        <ele>1287.0000</ele>
        <time>2018-10-14T13:04:10Z</time>
      </trkpt>
      <trkpt lat="38.14063584" lon="-2.37215814">
        <ele>1288.0000</ele>
        <time>2018-10-14T13:04:13Z</time>
      </trkpt>
      <trkpt lat="38.14075025" lon="-2.37203140">
        <ele>1289.0000</ele>
        <time>2018-10-14T13:04:16Z</time>
      </trkpt>
      <trkpt lat="38.14083818" lon="-2.37195831">
        <ele>1290.0000</ele>
        <time>2018-10-14T13:04:18Z</time>
      </trkpt>
      <trkpt lat="38.14089031" lon="-2.37193476">
        <ele>1290.0000</ele>
        <time>2018-10-14T13:04:19Z</time>
      </trkpt>
      <trkpt lat="38.14100590" lon="-2.37192428">
        <ele>1291.0000</ele>
        <time>2018-10-14T13:04:21Z</time>
      </trkpt>
      <trkpt lat="38.14106952" lon="-2.37194188">
        <ele>1291.0000</ele>
        <time>2018-10-14T13:04:22Z</time>
      </trkpt>
      <trkpt lat="38.14125191" lon="-2.37208689">
        <ele>1292.0000</ele>
        <time>2018-10-14T13:04:25Z</time>
      </trkpt>
      <trkpt lat="38.14130564" lon="-2.37213961">
        <ele>1293.0000</ele>
        <time>2018-10-14T13:04:26Z</time>
      </trkpt>
      <trkpt lat="38.14135811" lon="-2.37218395">
        <ele>1293.0000</ele>
        <time>2018-10-14T13:04:27Z</time>
      </trkpt>
      <trkpt lat="38.14141133" lon="-2.37221388">
        <ele>1294.0000</ele>
        <time>2018-10-14T13:04:28Z</time>
      </trkpt>
      <trkpt lat="38.14146397" lon="-2.37222595">
        <ele>1294.0000</ele>
        <time>2018-10-14T13:04:29Z</time>
      </trkpt>
      <trkpt lat="38.14161292" lon="-2.37209075">
        <ele>1296.0000</ele>
        <time>2018-10-14T13:04:33Z</time>
      </trkpt>
      <trkpt lat="38.14163865" lon="-2.37203802">
        <ele>1296.0000</ele>
        <time>2018-10-14T13:04:34Z</time>
      </trkpt>
      <trkpt lat="38.14170713" lon="-2.37187709">
        <ele>1297.0000</ele>
        <time>2018-10-14T13:04:37Z</time>
      </trkpt>
      <trkpt lat="38.14172876" lon="-2.37182445">
        <ele>1297.0000</ele>
        <time>2018-10-14T13:04:38Z</time>
      </trkpt>
      <trkpt lat="38.14183269" lon="-2.37156478">
        <ele>1298.0000</ele>
        <time>2018-10-14T13:04:43Z</time>
      </trkpt>
      <trkpt lat="38.14193244" lon="-2.37136286">
        <ele>1299.0000</ele>
        <time>2018-10-14T13:04:47Z</time>
      </trkpt>
      <trkpt lat="38.14204911" lon="-2.37116010">
        <ele>1300.0000</ele>
        <time>2018-10-14T13:04:51Z</time>
      </trkpt>
      <trkpt lat="38.14211265" lon="-2.37098132">
        <ele>1301.0000</ele>
        <time>2018-10-14T13:04:54Z</time>
      </trkpt>
      <trkpt lat="38.14212815" lon="-2.37091611">
        <ele>1301.0000</ele>
        <time>2018-10-14T13:04:55Z</time>
      </trkpt>
      <trkpt lat="38.14213058" lon="-2.37062567">
        <ele>1302.0000</ele>
        <time>2018-10-14T13:04:59Z</time>
      </trkpt>
      <trkpt lat="38.14210594" lon="-2.37039433">
        <ele>1303.0000</ele>
        <time>2018-10-14T13:05:02Z</time>
      </trkpt>
      <trkpt lat="38.14207887" lon="-2.37017515">
        <ele>1303.0000</ele>
        <time>2018-10-14T13:05:05Z</time>
      </trkpt>
      <trkpt lat="38.14201584" lon="-2.36999074">
        <ele>1303.0000</ele>
        <time>2018-10-14T13:05:08Z</time>
      </trkpt>
      <trkpt lat="38.14192841" lon="-2.36985127">
        <ele>1304.0000</ele>
        <time>2018-10-14T13:05:11Z</time>
      </trkpt>
      <trkpt lat="38.14181450" lon="-2.36966695">
        <ele>1304.0000</ele>
        <time>2018-10-14T13:05:15Z</time>
      </trkpt>
      <trkpt lat="38.14174963" lon="-2.36949697">
        <ele>1305.0000</ele>
        <time>2018-10-14T13:05:18Z</time>
      </trkpt>
      <trkpt lat="38.14172180" lon="-2.36921014">
        <ele>1305.0000</ele>
        <time>2018-10-14T13:05:22Z</time>
      </trkpt>
      <trkpt lat="38.14171166" lon="-2.36881300">
        <ele>1306.0000</ele>
        <time>2018-10-14T13:05:27Z</time>
      </trkpt>
      <trkpt lat="38.14170545" lon="-2.36873614">
        <ele>1306.0000</ele>
        <time>2018-10-14T13:05:28Z</time>
      </trkpt>
      <trkpt lat="38.14167318" lon="-2.36831361">
        <ele>1307.0000</ele>
        <time>2018-10-14T13:05:34Z</time>
      </trkpt>
      <trkpt lat="38.14167989" lon="-2.36817296">
        <ele>1308.0000</ele>
        <time>2018-10-14T13:05:36Z</time>
      </trkpt>
      <trkpt lat="38.14169866" lon="-2.36795193">
        <ele>1308.0000</ele>
        <time>2018-10-14T13:05:39Z</time>
      </trkpt>
      <trkpt lat="38.14172750" lon="-2.36751884">
        <ele>1309.0000</ele>
        <time>2018-10-14T13:05:45Z</time>
      </trkpt>
      <trkpt lat="38.14168106" lon="-2.36701659">
        <ele>1311.0000</ele>
        <time>2018-10-14T13:05:53Z</time>
      </trkpt>
      <trkpt lat="38.14163454" lon="-2.36671350">
        <ele>1312.0000</ele>
        <time>2018-10-14T13:05:58Z</time>
      </trkpt>
      <trkpt lat="38.14160931" lon="-2.36660110">
        <ele>1312.0000</ele>
        <time>2018-10-14T13:06:00Z</time>
      </trkpt>
      <trkpt lat="38.14154477" lon="-2.36613968">
        <ele>1314.0000</ele>
        <time>2018-10-14T13:06:09Z</time>
      </trkpt>
      <trkpt lat="38.14153321" lon="-2.36573718">
        <ele>1315.0000</ele>
        <time>2018-10-14T13:06:16Z</time>
      </trkpt>
      <trkpt lat="38.14165550" lon="-2.36508750">
        <ele>1316.0000</ele>
        <time>2018-10-14T13:06:24Z</time>
      </trkpt>
      <trkpt lat="38.14175122" lon="-2.36465265">
        <ele>1317.0000</ele>
        <time>2018-10-14T13:06:28Z</time>
      </trkpt>
      <trkpt lat="38.14186471" lon="-2.36411838">
        <ele>1317.0000</ele>
        <time>2018-10-14T13:06:33Z</time>
      </trkpt>
      <trkpt lat="38.14197703" lon="-2.36374874">
        <ele>1318.0000</ele>
        <time>2018-10-14T13:06:37Z</time>
      </trkpt>
      <trkpt lat="38.14209354" lon="-2.36352385">
        <ele>1318.0000</ele>
        <time>2018-10-14T13:06:40Z</time>
      </trkpt>
      <trkpt lat="38.14226671" lon="-2.36326435">
        <ele>1320.0000</ele>
        <time>2018-10-14T13:06:44Z</time>
      </trkpt>
      <trkpt lat="38.14238238" lon="-2.36306922">
        <ele>1321.0000</ele>
        <time>2018-10-14T13:06:47Z</time>
      </trkpt>
      <trkpt lat="38.14241959" lon="-2.36300250">
        <ele>1321.0000</ele>
        <time>2018-10-14T13:06:48Z</time>
      </trkpt>
      <trkpt lat="38.14263400" lon="-2.36258240">
        <ele>1322.0000</ele>
        <time>2018-10-14T13:06:54Z</time>
      </trkpt>
      <trkpt lat="38.14280600" lon="-2.36215685">
        <ele>1323.0000</ele>
        <time>2018-10-14T13:07:00Z</time>
      </trkpt>
      <trkpt lat="38.14285922" lon="-2.36194311">
        <ele>1324.0000</ele>
        <time>2018-10-14T13:07:03Z</time>
      </trkpt>
      <trkpt lat="38.14290306" lon="-2.36167053">
        <ele>1325.0000</ele>
        <time>2018-10-14T13:07:07Z</time>
      </trkpt>
      <trkpt lat="38.14292896" lon="-2.36148202">
        <ele>1326.0000</ele>
        <time>2018-10-14T13:07:10Z</time>
      </trkpt>
      <trkpt lat="38.14293508" lon="-2.36138571">
        <ele>1326.0000</ele>
        <time>2018-10-14T13:07:13Z</time>
      </trkpt>
      <trkpt lat="38.14293240" lon="-2.36137993">
        <ele>1327.0000</ele>
        <time>2018-10-14T13:07:15Z</time>
      </trkpt>
      <trkpt lat="38.14293324" lon="-2.36135127">
        <ele>1328.0000</ele>
        <time>2018-10-14T13:07:42Z</time>
      </trkpt>
      <trkpt lat="38.14293801" lon="-2.36132738">
        <ele>1328.0000</ele>
        <time>2018-10-14T13:07:43Z</time>
      </trkpt>
      <trkpt lat="38.14295017" lon="-2.36122311">
        <ele>1328.0000</ele>
        <time>2018-10-14T13:07:46Z</time>
      </trkpt>
      <trkpt lat="38.14296852" lon="-2.36104239">
        <ele>1328.0000</ele>
        <time>2018-10-14T13:07:51Z</time>
      </trkpt>
      <trkpt lat="38.14298219" lon="-2.36086260">
        <ele>1328.0000</ele>
        <time>2018-10-14T13:07:55Z</time>
      </trkpt>
      <trkpt lat="38.14298587" lon="-2.36081214">
        <ele>1328.0000</ele>
        <time>2018-10-14T13:07:56Z</time>
      </trkpt>
      <trkpt lat="38.14301471" lon="-2.36054409">
        <ele>1328.0000</ele>
        <time>2018-10-14T13:08:01Z</time>
      </trkpt>
      <trkpt lat="38.14303759" lon="-2.36020127">
        <ele>1328.0000</ele>
        <time>2018-10-14T13:08:07Z</time>
      </trkpt>
      <trkpt lat="38.14304782" lon="-2.35986507">
        <ele>1328.0000</ele>
        <time>2018-10-14T13:08:12Z</time>
      </trkpt>
      <trkpt lat="38.14296014" lon="-2.35916552">
        <ele>1329.0000</ele>
        <time>2018-10-14T13:08:20Z</time>
      </trkpt>
      <trkpt lat="38.14286652" lon="-2.35876084">
        <ele>1329.0000</ele>
        <time>2018-10-14T13:08:24Z</time>
      </trkpt>
      <trkpt lat="38.14279845" lon="-2.35857476">
        <ele>1329.0000</ele>
        <time>2018-10-14T13:08:26Z</time>
      </trkpt>
      <trkpt lat="38.14260844" lon="-2.35825063">
        <ele>1330.0000</ele>
        <time>2018-10-14T13:08:30Z</time>
      </trkpt>
      <trkpt lat="38.14232463" lon="-2.35762677">
        <ele>1330.0000</ele>
        <time>2018-10-14T13:08:37Z</time>
      </trkpt>
      <trkpt lat="38.14224399" lon="-2.35693652">
        <ele>1330.0000</ele>
        <time>2018-10-14T13:08:43Z</time>
      </trkpt>
      <trkpt lat="38.14223779" lon="-2.35667467">
        <ele>1331.0000</ele>
        <time>2018-10-14T13:08:45Z</time>
      </trkpt>
      <trkpt lat="38.14221507" lon="-2.35588585">
        <ele>1331.0000</ele>
        <time>2018-10-14T13:08:51Z</time>
      </trkpt>
      <trkpt lat="38.14219990" lon="-2.35553028">
        <ele>1331.0000</ele>
        <time>2018-10-14T13:08:54Z</time>
      </trkpt>
      <trkpt lat="38.14219018" lon="-2.35479896">
        <ele>1333.0000</ele>
        <time>2018-10-14T13:09:01Z</time>
      </trkpt>
      <trkpt lat="38.14221801" lon="-2.35460341">
        <ele>1333.0000</ele>
        <time>2018-10-14T13:09:03Z</time>
      </trkpt>
      <trkpt lat="38.14227509" lon="-2.35431826">
        <ele>1333.0000</ele>
        <time>2018-10-14T13:09:06Z</time>
      </trkpt>
      <trkpt lat="38.14251154" lon="-2.35361569">
        <ele>1334.0000</ele>
        <time>2018-10-14T13:09:14Z</time>
      </trkpt>
      <trkpt lat="38.14255270" lon="-2.35353657">
        <ele>1335.0000</ele>
        <time>2018-10-14T13:09:15Z</time>
      </trkpt>
      <trkpt lat="38.14289979" lon="-2.35290097">
        <ele>1336.0000</ele>
        <time>2018-10-14T13:09:23Z</time>
      </trkpt>
      <trkpt lat="38.14310372" lon="-2.35246921">
        <ele>1337.0000</ele>
        <time>2018-10-14T13:09:28Z</time>
      </trkpt>
      <trkpt lat="38.14328519" lon="-2.35204258">
        <ele>1338.0000</ele>
        <time>2018-10-14T13:09:33Z</time>
      </trkpt>
      <trkpt lat="38.14353665" lon="-2.35141946">
        <ele>1339.0000</ele>
        <time>2018-10-14T13:09:41Z</time>
      </trkpt>
      <trkpt lat="38.14380571" lon="-2.35095863">
        <ele>1340.0000</ele>
        <time>2018-10-14T13:09:48Z</time>
      </trkpt>
      <trkpt lat="38.14390612" lon="-2.35084782">
        <ele>1341.0000</ele>
        <time>2018-10-14T13:09:50Z</time>
      </trkpt>
      <trkpt lat="38.14437953" lon="-2.35041397">
        <ele>1342.0000</ele>
        <time>2018-10-14T13:09:59Z</time>
      </trkpt>
      <trkpt lat="38.14483710" lon="-2.35019671">
        <ele>1344.0000</ele>
        <time>2018-10-14T13:10:07Z</time>
      </trkpt>
      <trkpt lat="38.14494766" lon="-2.35017693">
        <ele>1344.0000</ele>
        <time>2018-10-14T13:10:09Z</time>
      </trkpt>
      <trkpt lat="38.14500222" lon="-2.35017232">
        <ele>1344.0000</ele>
        <time>2018-10-14T13:10:10Z</time>
      </trkpt>
      <trkpt lat="38.14511018" lon="-2.35017651">
        <ele>1345.0000</ele>
        <time>2018-10-14T13:10:12Z</time>
      </trkpt>
      <trkpt lat="38.14549231" lon="-2.35033191">
        <ele>1346.0000</ele>
        <time>2018-10-14T13:10:20Z</time>
      </trkpt>
      <trkpt lat="38.14570882" lon="-2.35035421">
        <ele>1347.0000</ele>
        <time>2018-10-14T13:10:25Z</time>
      </trkpt>
      <trkpt lat="38.14609950" lon="-2.35028103">
        <ele>1348.0000</ele>
        <time>2018-10-14T13:10:33Z</time>
      </trkpt>
      <trkpt lat="38.14616136" lon="-2.35026251">
        <ele>1348.0000</ele>
        <time>2018-10-14T13:10:34Z</time>
      </trkpt>
      <trkpt lat="38.14669109" lon="-2.35012672">
        <ele>1349.0000</ele>
        <time>2018-10-14T13:10:41Z</time>
      </trkpt>
      <trkpt lat="38.14705520" lon="-2.35008490">
        <ele>1351.0000</ele>
        <time>2018-10-14T13:10:46Z</time>
      </trkpt>
      <trkpt lat="38.14734404" lon="-2.35003092">
        <ele>1351.0000</ele>
        <time>2018-10-14T13:10:51Z</time>
      </trkpt>
      <trkpt lat="38.14757421" lon="-2.34992983">
        <ele>1352.0000</ele>
        <time>2018-10-14T13:10:56Z</time>
      </trkpt>
      <trkpt lat="38.14788401" lon="-2.34968558">
        <ele>1354.0000</ele>
        <time>2018-10-14T13:11:04Z</time>
      </trkpt>
      <trkpt lat="38.14803161" lon="-2.34954326">
        <ele>1354.0000</ele>
        <time>2018-10-14T13:11:08Z</time>
      </trkpt>
      <trkpt lat="38.14826203" lon="-2.34930639">
        <ele>1355.0000</ele>
        <time>2018-10-14T13:11:14Z</time>
      </trkpt>
      <trkpt lat="38.14857677" lon="-2.34867364">
        <ele>1357.0000</ele>
        <time>2018-10-14T13:11:25Z</time>
      </trkpt>
      <trkpt lat="38.14878582" lon="-2.34834875">
        <ele>1357.0000</ele>
        <time>2018-10-14T13:11:31Z</time>
      </trkpt>
      <trkpt lat="38.14882328" lon="-2.34829570">
        <ele>1357.0000</ele>
        <time>2018-10-14T13:11:32Z</time>
      </trkpt>
      <trkpt lat="38.14886452" lon="-2.34824708">
        <ele>1357.0000</ele>
        <time>2018-10-14T13:11:33Z</time>
      </trkpt>
      <trkpt lat="38.14901908" lon="-2.34813979">
        <ele>1358.0000</ele>
        <time>2018-10-14T13:11:36Z</time>
      </trkpt>
      <trkpt lat="38.14922679" lon="-2.34810912">
        <ele>1358.0000</ele>
        <time>2018-10-14T13:11:39Z</time>
      </trkpt>
      <trkpt lat="38.14930398" lon="-2.34810912">
        <ele>1358.0000</ele>
        <time>2018-10-14T13:11:40Z</time>
      </trkpt>
      <trkpt lat="38.14954102" lon="-2.34810769">
        <ele>1359.0000</ele>
        <time>2018-10-14T13:11:43Z</time>
      </trkpt>
      <trkpt lat="38.15003078" lon="-2.34808179">
        <ele>1359.0000</ele>
        <time>2018-10-14T13:11:49Z</time>
      </trkpt>
      <trkpt lat="38.15045884" lon="-2.34803183">
        <ele>1360.0000</ele>
        <time>2018-10-14T13:11:55Z</time>
      </trkpt>
      <trkpt lat="38.15069722" lon="-2.34755197">
        <ele>1361.0000</ele>
        <time>2018-10-14T13:12:03Z</time>
      </trkpt>
      <trkpt lat="38.15062036" lon="-2.34738274">
        <ele>1361.0000</ele>
        <time>2018-10-14T13:12:06Z</time>
      </trkpt>
      <trkpt lat="38.15049774" lon="-2.34724880">
        <ele>1361.0000</ele>
        <time>2018-10-14T13:12:09Z</time>
      </trkpt>
      <trkpt lat="38.15008719" lon="-2.34677262">
        <ele>1362.0000</ele>
        <time>2018-10-14T13:12:19Z</time>
      </trkpt>
      <trkpt lat="38.14998166" lon="-2.34660834">
        <ele>1362.0000</ele>
        <time>2018-10-14T13:12:22Z</time>
      </trkpt>
      <trkpt lat="38.14978787" lon="-2.34623568">
        <ele>1362.0000</ele>
        <time>2018-10-14T13:12:28Z</time>
      </trkpt>
      <trkpt lat="38.14968813" lon="-2.34603166">
        <ele>1363.0000</ele>
        <time>2018-10-14T13:12:31Z</time>
      </trkpt>
      <trkpt lat="38.14940163" lon="-2.34541333">
        <ele>1363.0000</ele>
        <time>2018-10-14T13:12:39Z</time>
      </trkpt>
      <trkpt lat="38.14910558" lon="-2.34477060">
        <ele>1363.0000</ele>
        <time>2018-10-14T13:12:46Z</time>
      </trkpt>
      <trkpt lat="38.14891791" lon="-2.34423140">
        <ele>1363.0000</ele>
        <time>2018-10-14T13:12:51Z</time>
      </trkpt>
      <trkpt lat="38.14873762" lon="-2.34353293">
        <ele>1363.0000</ele>
        <time>2018-10-14T13:12:57Z</time>
      </trkpt>
      <trkpt lat="38.14869915" lon="-2.34342154">
        <ele>1363.0000</ele>
        <time>2018-10-14T13:12:58Z</time>
      </trkpt>
      <trkpt lat="38.14850335" lon="-2.34274034">
        <ele>1363.0000</ele>
        <time>2018-10-14T13:13:04Z</time>
      </trkpt>
      <trkpt lat="38.14840050" lon="-2.34198697">
        <ele>1363.0000</ele>
        <time>2018-10-14T13:13:10Z</time>
      </trkpt>
      <trkpt lat="38.14840964" lon="-2.34173384">
        <ele>1363.0000</ele>
        <time>2018-10-14T13:13:12Z</time>
      </trkpt>
      <trkpt lat="38.14843830" lon="-2.34137292">
        <ele>1363.0000</ele>
        <time>2018-10-14T13:13:15Z</time>
      </trkpt>
      <trkpt lat="38.14849429" lon="-2.34060429">
        <ele>1364.0000</ele>
        <time>2018-10-14T13:13:22Z</time>
      </trkpt>
      <trkpt lat="38.14847091" lon="-2.34011722">
        <ele>1364.0000</ele>
        <time>2018-10-14T13:13:27Z</time>
      </trkpt>
      <trkpt lat="38.14843713" lon="-2.33984204">
        <ele>1364.0000</ele>
        <time>2018-10-14T13:13:30Z</time>
      </trkpt>
      <trkpt lat="38.14838248" lon="-2.33912422">
        <ele>1365.0000</ele>
        <time>2018-10-14T13:13:38Z</time>
      </trkpt>
      <trkpt lat="38.14837041" lon="-2.33864050">
        <ele>1365.0000</ele>
        <time>2018-10-14T13:13:43Z</time>
      </trkpt>
      <trkpt lat="38.14835038" lon="-2.33833858">
        <ele>1365.0000</ele>
        <time>2018-10-14T13:13:46Z</time>
      </trkpt>
      <trkpt lat="38.14823839" lon="-2.33764976">
        <ele>1366.0000</ele>
        <time>2018-10-14T13:13:53Z</time>
      </trkpt>
      <trkpt lat="38.14800127" lon="-2.33706680">
        <ele>1366.0000</ele>
        <time>2018-10-14T13:14:00Z</time>
      </trkpt>
      <trkpt lat="38.14767605" lon="-2.33653329">
        <ele>1366.0000</ele>
        <time>2018-10-14T13:14:08Z</time>
      </trkpt>
      <trkpt lat="38.14761796" lon="-2.33638350">
        <ele>1366.0000</ele>
        <time>2018-10-14T13:14:10Z</time>
      </trkpt>
      <trkpt lat="38.14740934" lon="-2.33577623">
        <ele>1367.0000</ele>
        <time>2018-10-14T13:14:17Z</time>
      </trkpt>
      <trkpt lat="38.14733189" lon="-2.33558027">
        <ele>1367.0000</ele>
        <time>2018-10-14T13:14:19Z</time>
      </trkpt>
      <trkpt lat="38.14707381" lon="-2.33512328">
        <ele>1367.0000</ele>
        <time>2018-10-14T13:14:24Z</time>
      </trkpt>
      <trkpt lat="38.14675572" lon="-2.33459925">
        <ele>1367.0000</ele>
        <time>2018-10-14T13:14:30Z</time>
      </trkpt>
      <trkpt lat="38.14642396" lon="-2.33394496">
        <ele>1367.0000</ele>
        <time>2018-10-14T13:14:37Z</time>
      </trkpt>
      <trkpt lat="38.14638733" lon="-2.33384077">
        <ele>1367.0000</ele>
        <time>2018-10-14T13:14:38Z</time>
      </trkpt>
      <trkpt lat="38.14616329" lon="-2.33313820">
        <ele>1368.0000</ele>
        <time>2018-10-14T13:14:45Z</time>
      </trkpt>
      <trkpt lat="38.14584620" lon="-2.33256630">
        <ele>1368.0000</ele>
        <time>2018-10-14T13:14:52Z</time>
      </trkpt>
      <trkpt lat="38.14545686" lon="-2.33203690">
        <ele>1369.0000</ele>
        <time>2018-10-14T13:14:59Z</time>
      </trkpt>
      <trkpt lat="38.14521957" lon="-2.33171747">
        <ele>1369.0000</ele>
        <time>2018-10-14T13:15:03Z</time>
      </trkpt>
      <trkpt lat="38.14505511" lon="-2.33149241">
        <ele>1369.0000</ele>
        <time>2018-10-14T13:15:06Z</time>
      </trkpt>
      <trkpt lat="38.14489175" lon="-2.33083007">
        <ele>1370.0000</ele>
        <time>2018-10-14T13:15:13Z</time>
      </trkpt>
      <trkpt lat="38.14489544" lon="-2.33072639">
        <ele>1370.0000</ele>
        <time>2018-10-14T13:15:14Z</time>
      </trkpt>
      <trkpt lat="38.14494699" lon="-2.33001996">
        <ele>1370.0000</ele>
        <time>2018-10-14T13:15:21Z</time>
      </trkpt>
      <trkpt lat="38.14500365" lon="-2.32930834">
        <ele>1370.0000</ele>
        <time>2018-10-14T13:15:29Z</time>
      </trkpt>
      <trkpt lat="38.14501874" lon="-2.32914816">
        <ele>1370.0000</ele>
        <time>2018-10-14T13:15:31Z</time>
      </trkpt>
      <trkpt lat="38.14502536" lon="-2.32907130">
        <ele>1370.0000</ele>
        <time>2018-10-14T13:15:32Z</time>
      </trkpt>
      <trkpt lat="38.14504162" lon="-2.32884775">
        <ele>1370.0000</ele>
        <time>2018-10-14T13:15:35Z</time>
      </trkpt>
      <trkpt lat="38.14504673" lon="-2.32870811">
        <ele>1370.0000</ele>
        <time>2018-10-14T13:15:37Z</time>
      </trkpt>
      <trkpt lat="38.14505117" lon="-2.32851340">
        <ele>1370.0000</ele>
        <time>2018-10-14T13:15:40Z</time>
      </trkpt>
      <trkpt lat="38.14503726" lon="-2.32835473">
        <ele>1370.0000</ele>
        <time>2018-10-14T13:15:43Z</time>
      </trkpt>
      <trkpt lat="38.14501916" lon="-2.32825473">
        <ele>1370.0000</ele>
        <time>2018-10-14T13:15:45Z</time>
      </trkpt>
      <trkpt lat="38.14497188" lon="-2.32813345">
        <ele>1370.0000</ele>
        <time>2018-10-14T13:15:48Z</time>
      </trkpt>
      <trkpt lat="38.14492628" lon="-2.32805659">
        <ele>1370.0000</ele>
        <time>2018-10-14T13:15:50Z</time>
      </trkpt>
      <trkpt lat="38.14479486" lon="-2.32787772">
        <ele>1371.0000</ele>
        <time>2018-10-14T13:15:55Z</time>
      </trkpt>
      <trkpt lat="38.14451591" lon="-2.32753724">
        <ele>1371.0000</ele>
        <time>2018-10-14T13:16:07Z</time>
      </trkpt>
      <trkpt lat="38.14439152" lon="-2.32732024">
        <ele>1371.0000</ele>
        <time>2018-10-14T13:16:12Z</time>
      </trkpt>
      <trkpt lat="38.14436553" lon="-2.32717707">
        <ele>1371.0000</ele>
        <time>2018-10-14T13:16:14Z</time>
      </trkpt>
      <trkpt lat="38.14437408" lon="-2.32689904">
        <ele>1371.0000</ele>
        <time>2018-10-14T13:16:17Z</time>
      </trkpt>
      <trkpt lat="38.14438859" lon="-2.32643418">
        <ele>1370.0000</ele>
        <time>2018-10-14T13:16:21Z</time>
      </trkpt>
      <trkpt lat="38.14434391" lon="-2.32608105">
        <ele>1370.0000</ele>
        <time>2018-10-14T13:16:24Z</time>
      </trkpt>
      <trkpt lat="38.14425313" lon="-2.32577545">
        <ele>1370.0000</ele>
        <time>2018-10-14T13:16:27Z</time>
      </trkpt>
      <trkpt lat="38.14420485" lon="-2.32569037">
        <ele>1370.0000</ele>
        <time>2018-10-14T13:16:28Z</time>
      </trkpt>
      <trkpt lat="38.14405390" lon="-2.32547638">
        <ele>1370.0000</ele>
        <time>2018-10-14T13:16:31Z</time>
      </trkpt>
      <trkpt lat="38.14374200" lon="-2.32481966">
        <ele>1370.0000</ele>
        <time>2018-10-14T13:16:38Z</time>
      </trkpt>
      <trkpt lat="38.14370362" lon="-2.32471128">
        <ele>1370.0000</ele>
        <time>2018-10-14T13:16:39Z</time>
      </trkpt>
      <trkpt lat="38.14359507" lon="-2.32439369">
        <ele>1370.0000</ele>
        <time>2018-10-14T13:16:42Z</time>
      </trkpt>
      <trkpt lat="38.14354386" lon="-2.32417535">
        <ele>1370.0000</ele>
        <time>2018-10-14T13:16:44Z</time>
      </trkpt>
      <trkpt lat="38.14353388" lon="-2.32384770">
        <ele>1370.0000</ele>
        <time>2018-10-14T13:16:47Z</time>
      </trkpt>
      <trkpt lat="38.14359608" lon="-2.32355701">
        <ele>1370.0000</ele>
        <time>2018-10-14T13:16:50Z</time>
      </trkpt>
      <trkpt lat="38.14380981" lon="-2.32330556">
        <ele>1370.0000</ele>
        <time>2018-10-14T13:16:54Z</time>
      </trkpt>
      <trkpt lat="38.14411550" lon="-2.32331913">
        <ele>1370.0000</ele>
        <time>2018-10-14T13:16:58Z</time>
      </trkpt>
      <trkpt lat="38.14442857" lon="-2.32342114">
        <ele>1370.0000</ele>
        <time>2018-10-14T13:17:02Z</time>
      </trkpt>
      <trkpt lat="38.14499770" lon="-2.32358191">
        <ele>1370.0000</ele>
        <time>2018-10-14T13:17:09Z</time>
      </trkpt>
      <trkpt lat="38.14546658" lon="-2.32366036">
        <ele>1370.0000</ele>
        <time>2018-10-14T13:17:15Z</time>
      </trkpt>
      <trkpt lat="38.14567353" lon="-2.32365106">
        <ele>1370.0000</ele>
        <time>2018-10-14T13:17:18Z</time>
      </trkpt>
      <trkpt lat="38.14579373" lon="-2.32362298">
        <ele>1370.0000</ele>
        <time>2018-10-14T13:17:20Z</time>
      </trkpt>
      <trkpt lat="38.14584201" lon="-2.32360554">
        <ele>1370.0000</ele>
        <time>2018-10-14T13:17:21Z</time>
      </trkpt>
      <trkpt lat="38.14588970" lon="-2.32358375">
        <ele>1370.0000</ele>
        <time>2018-10-14T13:17:22Z</time>
      </trkpt>
      <trkpt lat="38.14593588" lon="-2.32355827">
        <ele>1370.0000</ele>
        <time>2018-10-14T13:17:23Z</time>
      </trkpt>
      <trkpt lat="38.14604904" lon="-2.32347336">
        <ele>1370.0000</ele>
        <time>2018-10-14T13:17:26Z</time>
      </trkpt>
      <trkpt lat="38.14618273" lon="-2.32330723">
        <ele>1370.0000</ele>
        <time>2018-10-14T13:17:30Z</time>
      </trkpt>
      <trkpt lat="38.14634174" lon="-2.32313591">
        <ele>1370.0000</ele>
        <time>2018-10-14T13:17:34Z</time>
      </trkpt>
      <trkpt lat="38.14645187" lon="-2.32299123">
        <ele>1371.0000</ele>
        <time>2018-10-14T13:17:37Z</time>
      </trkpt>
      <trkpt lat="38.14656285" lon="-2.32283935">
        <ele>1371.0000</ele>
        <time>2018-10-14T13:17:40Z</time>
      </trkpt>
      <trkpt lat="38.14688597" lon="-2.32228355">
        <ele>1371.0000</ele>
        <time>2018-10-14T13:17:49Z</time>
      </trkpt>
      <trkpt lat="38.14697122" lon="-2.32205238">
        <ele>1371.0000</ele>
        <time>2018-10-14T13:17:52Z</time>
      </trkpt>
      <trkpt lat="38.14709032" lon="-2.32148794">
        <ele>1372.0000</ele>
        <time>2018-10-14T13:17:59Z</time>
      </trkpt>
      <trkpt lat="38.14710365" lon="-2.32133950">
        <ele>1372.0000</ele>
        <time>2018-10-14T13:18:01Z</time>
      </trkpt>
      <trkpt lat="38.14710793" lon="-2.32111671">
        <ele>1372.0000</ele>
        <time>2018-10-14T13:18:04Z</time>
      </trkpt>
      <trkpt lat="38.14709175" lon="-2.32097480">
        <ele>1372.0000</ele>
        <time>2018-10-14T13:18:06Z</time>
      </trkpt>
      <trkpt lat="38.14707390" lon="-2.32084186">
        <ele>1372.0000</ele>
        <time>2018-10-14T13:18:08Z</time>
      </trkpt>
      <trkpt lat="38.14705043" lon="-2.32071722">
        <ele>1372.0000</ele>
        <time>2018-10-14T13:18:10Z</time>
      </trkpt>
      <trkpt lat="38.14702251" lon="-2.32052804">
        <ele>1372.0000</ele>
        <time>2018-10-14T13:18:13Z</time>
      </trkpt>
      <trkpt lat="38.14702981" lon="-2.32028061">
        <ele>1372.0000</ele>
        <time>2018-10-14T13:18:17Z</time>
      </trkpt>
      <trkpt lat="38.14706618" lon="-2.31996780">
        <ele>1373.0000</ele>
        <time>2018-10-14T13:18:22Z</time>
      </trkpt>
      <trkpt lat="38.14705864" lon="-2.31957837">
        <ele>1373.0000</ele>
        <time>2018-10-14T13:18:29Z</time>
      </trkpt>
      <trkpt lat="38.14701464" lon="-2.31933329">
        <ele>1373.0000</ele>
        <time>2018-10-14T13:18:34Z</time>
      </trkpt>
      <trkpt lat="38.14700567" lon="-2.31883716">
        <ele>1373.0000</ele>
        <time>2018-10-14T13:18:42Z</time>
      </trkpt>
      <trkpt lat="38.14701489" lon="-2.31851479">
        <ele>1373.0000</ele>
        <time>2018-10-14T13:18:46Z</time>
      </trkpt>
      <trkpt lat="38.14701958" lon="-2.31824574">
        <ele>1373.0000</ele>
        <time>2018-10-14T13:18:49Z</time>
      </trkpt>
      <trkpt lat="38.14702495" lon="-2.31796955">
        <ele>1373.0000</ele>
        <time>2018-10-14T13:18:52Z</time>
      </trkpt>
      <trkpt lat="38.14702754" lon="-2.31769479">
        <ele>1372.0000</ele>
        <time>2018-10-14T13:18:55Z</time>
      </trkpt>
      <trkpt lat="38.14703081" lon="-2.31743101">
        <ele>1372.0000</ele>
        <time>2018-10-14T13:18:58Z</time>
      </trkpt>
      <trkpt lat="38.14705185" lon="-2.31717595">
        <ele>1372.0000</ele>
        <time>2018-10-14T13:19:01Z</time>
      </trkpt>
      <trkpt lat="38.14707532" lon="-2.31700111">
        <ele>1372.0000</ele>
        <time>2018-10-14T13:19:03Z</time>
      </trkpt>
      <trkpt lat="38.14711664" lon="-2.31671570">
        <ele>1372.0000</ele>
        <time>2018-10-14T13:19:06Z</time>
      </trkpt>
      <trkpt lat="38.14716241" lon="-2.31640675">
        <ele>1372.0000</ele>
        <time>2018-10-14T13:19:09Z</time>
      </trkpt>
      <trkpt lat="38.14718001" lon="-2.31607675">
        <ele>1372.0000</ele>
        <time>2018-10-14T13:19:12Z</time>
      </trkpt>
      <trkpt lat="38.14707633" lon="-2.31563083">
        <ele>1371.0000</ele>
        <time>2018-10-14T13:19:16Z</time>
      </trkpt>
      <trkpt lat="38.14692352" lon="-2.31517461">
        <ele>1371.0000</ele>
        <time>2018-10-14T13:19:20Z</time>
      </trkpt>
      <trkpt lat="38.14686401" lon="-2.31495467">
        <ele>1371.0000</ele>
        <time>2018-10-14T13:19:22Z</time>
      </trkpt>
      <trkpt lat="38.14689410" lon="-2.31453155">
        <ele>1371.0000</ele>
        <time>2018-10-14T13:19:26Z</time>
      </trkpt>
      <trkpt lat="38.14692688" lon="-2.31443474">
        <ele>1371.0000</ele>
        <time>2018-10-14T13:19:27Z</time>
      </trkpt>
      <trkpt lat="38.14696216" lon="-2.31434077">
        <ele>1370.0000</ele>
        <time>2018-10-14T13:19:28Z</time>
      </trkpt>
      <trkpt lat="38.14714531" lon="-2.31380919">
        <ele>1370.0000</ele>
        <time>2018-10-14T13:19:34Z</time>
      </trkpt>
      <trkpt lat="38.14723298" lon="-2.31331667">
        <ele>1370.0000</ele>
        <time>2018-10-14T13:19:40Z</time>
      </trkpt>
      <trkpt lat="38.14724589" lon="-2.31323847">
        <ele>1370.0000</ele>
        <time>2018-10-14T13:19:41Z</time>
      </trkpt>
      <trkpt lat="38.14725905" lon="-2.31316035">
        <ele>1370.0000</ele>
        <time>2018-10-14T13:19:42Z</time>
      </trkpt>
      <trkpt lat="38.14728428" lon="-2.31300403">
        <ele>1370.0000</ele>
        <time>2018-10-14T13:19:44Z</time>
      </trkpt>
      <trkpt lat="38.14733692" lon="-2.31270756">
        <ele>1369.0000</ele>
        <time>2018-10-14T13:19:48Z</time>
      </trkpt>
      <trkpt lat="38.14737975" lon="-2.31242467">
        <ele>1369.0000</ele>
        <time>2018-10-14T13:19:52Z</time>
      </trkpt>
      <trkpt lat="38.14737891" lon="-2.31228603">
        <ele>1369.0000</ele>
        <time>2018-10-14T13:19:54Z</time>
      </trkpt>
      <trkpt lat="38.14735846" lon="-2.31201614">
        <ele>1368.0000</ele>
        <time>2018-10-14T13:19:58Z</time>
      </trkpt>
      <trkpt lat="38.14735586" lon="-2.31194271">
        <ele>1369.0000</ele>
        <time>2018-10-14T13:19:59Z</time>
      </trkpt>
      <trkpt lat="38.14738193" lon="-2.31178740">
        <ele>1368.0000</ele>
        <time>2018-10-14T13:20:01Z</time>
      </trkpt>
      <trkpt lat="38.14748930" lon="-2.31130376">
        <ele>1368.0000</ele>
        <time>2018-10-14T13:20:07Z</time>
      </trkpt>
      <trkpt lat="38.14748729" lon="-2.31120661">
        <ele>1368.0000</ele>
        <time>2018-10-14T13:20:08Z</time>
      </trkpt>
      <trkpt lat="38.14744597" lon="-2.31076573">
        <ele>1367.0000</ele>
        <time>2018-10-14T13:20:12Z</time>
      </trkpt>
      <trkpt lat="38.14732686" lon="-2.31020456">
        <ele>1367.0000</ele>
        <time>2018-10-14T13:20:17Z</time>
      </trkpt>
      <trkpt lat="38.14728487" lon="-2.31010674">
        <ele>1367.0000</ele>
        <time>2018-10-14T13:20:18Z</time>
      </trkpt>
      <trkpt lat="38.14711849" lon="-2.30986056">
        <ele>1367.0000</ele>
        <time>2018-10-14T13:20:21Z</time>
      </trkpt>
      <trkpt lat="38.14700508" lon="-2.30971757">
        <ele>1367.0000</ele>
        <time>2018-10-14T13:20:23Z</time>
      </trkpt>
      <trkpt lat="38.14689368" lon="-2.30958798">
        <ele>1366.0000</ele>
        <time>2018-10-14T13:20:25Z</time>
      </trkpt>
      <trkpt lat="38.14657995" lon="-2.30930384">
        <ele>1366.0000</ele>
        <time>2018-10-14T13:20:31Z</time>
      </trkpt>
      <trkpt lat="38.14653737" lon="-2.30925958">
        <ele>1366.0000</ele>
        <time>2018-10-14T13:20:32Z</time>
      </trkpt>
      <trkpt lat="38.14649756" lon="-2.30921373">
        <ele>1366.0000</ele>
        <time>2018-10-14T13:20:33Z</time>
      </trkpt>
      <trkpt lat="38.14639546" lon="-2.30906822">
        <ele>1366.0000</ele>
        <time>2018-10-14T13:20:36Z</time>
      </trkpt>
      <trkpt lat="38.14631994" lon="-2.30892330">
        <ele>1366.0000</ele>
        <time>2018-10-14T13:20:39Z</time>
      </trkpt>
      <trkpt lat="38.14627041" lon="-2.30877083">
        <ele>1366.0000</ele>
        <time>2018-10-14T13:20:42Z</time>
      </trkpt>
      <trkpt lat="38.14622372" lon="-2.30862096">
        <ele>1366.0000</ele>
        <time>2018-10-14T13:20:45Z</time>
      </trkpt>
      <trkpt lat="38.14619212" lon="-2.30842416">
        <ele>1366.0000</ele>
        <time>2018-10-14T13:20:49Z</time>
      </trkpt>
      <trkpt lat="38.14609682" lon="-2.30816842">
        <ele>1366.0000</ele>
        <time>2018-10-14T13:20:55Z</time>
      </trkpt>
      <trkpt lat="38.14607377" lon="-2.30813280">
        <ele>1366.0000</ele>
        <time>2018-10-14T13:20:56Z</time>
      </trkpt>
      <trkpt lat="38.14593262" lon="-2.30793365">
        <ele>1366.0000</ele>
        <time>2018-10-14T13:21:02Z</time>
      </trkpt>
      <trkpt lat="38.14583329" lon="-2.30780406">
        <ele>1365.0000</ele>
        <time>2018-10-14T13:21:06Z</time>
      </trkpt>
      <trkpt lat="38.14567018" lon="-2.30752830">
        <ele>1365.0000</ele>
        <time>2018-10-14T13:21:14Z</time>
      </trkpt>
      <trkpt lat="38.14550992" lon="-2.30705833">
        <ele>1365.0000</ele>
        <time>2018-10-14T13:21:22Z</time>
      </trkpt>
      <trkpt lat="38.14550078" lon="-2.30698917">
        <ele>1365.0000</ele>
        <time>2018-10-14T13:21:23Z</time>
      </trkpt>
      <trkpt lat="38.14554512" lon="-2.30662272">
        <ele>1365.0000</ele>
        <time>2018-10-14T13:21:28Z</time>
      </trkpt>
      <trkpt lat="38.14556666" lon="-2.30654837">
        <ele>1365.0000</ele>
        <time>2018-10-14T13:21:29Z</time>
      </trkpt>
      <trkpt lat="38.14564579" lon="-2.30624654">
        <ele>1365.0000</ele>
        <time>2018-10-14T13:21:33Z</time>
      </trkpt>
      <trkpt lat="38.14566398" lon="-2.30617336">
        <ele>1365.0000</ele>
        <time>2018-10-14T13:21:34Z</time>
      </trkpt>
      <trkpt lat="38.14571393" lon="-2.30583683">
        <ele>1365.0000</ele>
        <time>2018-10-14T13:21:39Z</time>
      </trkpt>
      <trkpt lat="38.14562190" lon="-2.30515337">
        <ele>1365.0000</ele>
        <time>2018-10-14T13:21:51Z</time>
      </trkpt>
      <trkpt lat="38.14560815" lon="-2.30511096">
        <ele>1365.0000</ele>
        <time>2018-10-14T13:21:52Z</time>
      </trkpt>
      <trkpt lat="38.14550355" lon="-2.30486302">
        <ele>1365.0000</ele>
        <time>2018-10-14T13:21:59Z</time>
      </trkpt>
      <trkpt lat="38.14544487" lon="-2.30474894">
        <ele>1365.0000</ele>
        <time>2018-10-14T13:22:03Z</time>
      </trkpt>
      <trkpt lat="38.14538042" lon="-2.30464769">
        <ele>1365.0000</ele>
        <time>2018-10-14T13:22:07Z</time>
      </trkpt>
      <trkpt lat="38.14530028" lon="-2.30453269">
        <ele>1365.0000</ele>
        <time>2018-10-14T13:22:12Z</time>
      </trkpt>
      <trkpt lat="38.14521940" lon="-2.30445466">
        <ele>1364.0000</ele>
        <time>2018-10-14T13:22:16Z</time>
      </trkpt>
      <trkpt lat="38.14517850" lon="-2.30441534">
        <ele>1364.0000</ele>
        <time>2018-10-14T13:22:18Z</time>
      </trkpt>
      <trkpt lat="38.14492385" lon="-2.30426170">
        <ele>1364.0000</ele>
        <time>2018-10-14T13:22:29Z</time>
      </trkpt>
      <trkpt lat="38.14472294" lon="-2.30421175">
        <ele>1366.0000</ele>
        <time>2018-10-14T13:22:38Z</time>
      </trkpt>
      <trkpt lat="38.14464909" lon="-2.30422030">
        <ele>1366.0000</ele>
        <time>2018-10-14T13:22:41Z</time>
      </trkpt>
      <trkpt lat="38.14444349" lon="-2.30430613">
        <ele>1368.0000</ele>
        <time>2018-10-14T13:22:50Z</time>
      </trkpt>
      <trkpt lat="38.14430326" lon="-2.30441861">
        <ele>1369.0000</ele>
        <time>2018-10-14T13:22:57Z</time>
      </trkpt>
      <trkpt lat="38.14403051" lon="-2.30469622">
        <ele>1369.0000</ele>
        <time>2018-10-14T13:23:12Z</time>
      </trkpt>
      <trkpt lat="38.14358149" lon="-2.30511615">
        <ele>1370.0000</ele>
        <time>2018-10-14T13:23:38Z</time>
      </trkpt>
      <trkpt lat="38.14307724" lon="-2.30534607">
        <ele>1372.0000</ele>
        <time>2018-10-14T13:24:02Z</time>
      </trkpt>
      <trkpt lat="38.14298529" lon="-2.30532646">
        <ele>1373.0000</ele>
        <time>2018-10-14T13:24:06Z</time>
      </trkpt>
      <trkpt lat="38.14253493" lon="-2.30493963">
        <ele>1374.0000</ele>
        <time>2018-10-14T13:24:30Z</time>
      </trkpt>
      <trkpt lat="38.14252194" lon="-2.30491541">
        <ele>1374.0000</ele>
        <time>2018-10-14T13:24:31Z</time>
      </trkpt>
      <trkpt lat="38.14240140" lon="-2.30436304">
        <ele>1374.0000</ele>
        <time>2018-10-14T13:24:51Z</time>
      </trkpt>
      <trkpt lat="38.14237609" lon="-2.30369509">
        <ele>1374.0000</ele>
        <time>2018-10-14T13:25:14Z</time>
      </trkpt>
      <trkpt lat="38.14235807" lon="-2.30314674">
        <ele>1375.0000</ele>
        <time>2018-10-14T13:25:30Z</time>
      </trkpt>
      <trkpt lat="38.14233611" lon="-2.30273326">
        <ele>1375.0000</ele>
        <time>2018-10-14T13:25:41Z</time>
      </trkpt>
      <trkpt lat="38.14232479" lon="-2.30240595">
        <ele>1374.0000</ele>
        <time>2018-10-14T13:25:49Z</time>
      </trkpt>
      <trkpt lat="38.14237383" lon="-2.30183389">
        <ele>1375.0000</ele>
        <time>2018-10-14T13:26:01Z</time>
      </trkpt>
      <trkpt lat="38.14239252" lon="-2.30174085">
        <ele>1375.0000</ele>
        <time>2018-10-14T13:26:03Z</time>
      </trkpt>
      <trkpt lat="38.14242722" lon="-2.30160774">
        <ele>1375.0000</ele>
        <time>2018-10-14T13:26:06Z</time>
      </trkpt>
      <trkpt lat="38.14254088" lon="-2.30134229">
        <ele>1375.0000</ele>
        <time>2018-10-14T13:26:12Z</time>
      </trkpt>
      <trkpt lat="38.14268530" lon="-2.30108697">
        <ele>1375.0000</ele>
        <time>2018-10-14T13:26:17Z</time>
      </trkpt>
      <trkpt lat="38.14308704" lon="-2.30051189">
        <ele>1376.0000</ele>
        <time>2018-10-14T13:26:26Z</time>
      </trkpt>
      <trkpt lat="38.14320104" lon="-2.30035574">
        <ele>1376.0000</ele>
        <time>2018-10-14T13:26:28Z</time>
      </trkpt>
      <trkpt lat="38.14360002" lon="-2.29979432">
        <ele>1376.0000</ele>
        <time>2018-10-14T13:26:34Z</time>
      </trkpt>
      <trkpt lat="38.14390596" lon="-2.29937304">
        <ele>1376.0000</ele>
        <time>2018-10-14T13:26:38Z</time>
      </trkpt>
      <trkpt lat="38.14406563" lon="-2.29916970">
        <ele>1376.0000</ele>
        <time>2018-10-14T13:26:40Z</time>
      </trkpt>
      <trkpt lat="38.14441432" lon="-2.29885932">
        <ele>1376.0000</ele>
        <time>2018-10-14T13:26:44Z</time>
      </trkpt>
      <trkpt lat="38.14494045" lon="-2.29873049">
        <ele>1376.0000</ele>
        <time>2018-10-14T13:26:50Z</time>
      </trkpt>
      <trkpt lat="38.14517414" lon="-2.29876996">
        <ele>1376.0000</ele>
        <time>2018-10-14T13:26:53Z</time>
      </trkpt>
      <trkpt lat="38.14530439" lon="-2.29881657">
        <ele>1376.0000</ele>
        <time>2018-10-14T13:26:55Z</time>
      </trkpt>
      <trkpt lat="38.14536365" lon="-2.29883987">
        <ele>1377.0000</ele>
        <time>2018-10-14T13:26:56Z</time>
      </trkpt>
      <trkpt lat="38.14547404" lon="-2.29888698">
        <ele>1377.0000</ele>
        <time>2018-10-14T13:26:58Z</time>
      </trkpt>
      <trkpt lat="38.14557295" lon="-2.29893249">
        <ele>1377.0000</ele>
        <time>2018-10-14T13:27:00Z</time>
      </trkpt>
      <trkpt lat="38.14566163" lon="-2.29897163">
        <ele>1377.0000</ele>
        <time>2018-10-14T13:27:02Z</time>
      </trkpt>
      <trkpt lat="38.14578778" lon="-2.29902645">
        <ele>1377.0000</ele>
        <time>2018-10-14T13:27:05Z</time>
      </trkpt>
      <trkpt lat="38.14587218" lon="-2.29906417">
        <ele>1377.0000</ele>
        <time>2018-10-14T13:27:07Z</time>
      </trkpt>
      <trkpt lat="38.14600068" lon="-2.29912485">
        <ele>1378.0000</ele>
        <time>2018-10-14T13:27:10Z</time>
      </trkpt>
      <trkpt lat="38.14613764" lon="-2.29918772">
        <ele>1378.0000</ele>
        <time>2018-10-14T13:27:13Z</time>
      </trkpt>
      <trkpt lat="38.14661985" lon="-2.29936039">
        <ele>1379.0000</ele>
        <time>2018-10-14T13:27:25Z</time>
      </trkpt>
      <trkpt lat="38.14679075" lon="-2.29935963">
        <ele>1380.0000</ele>
        <time>2018-10-14T13:27:29Z</time>
      </trkpt>
      <trkpt lat="38.14700609" lon="-2.29926207">
        <ele>1380.0000</ele>
        <time>2018-10-14T13:27:34Z</time>
      </trkpt>
      <trkpt lat="38.14714229" lon="-2.29913298">
        <ele>1380.0000</ele>
        <time>2018-10-14T13:27:37Z</time>
      </trkpt>
      <trkpt lat="38.14723374" lon="-2.29901421">
        <ele>1380.0000</ele>
        <time>2018-10-14T13:27:39Z</time>
      </trkpt>
      <trkpt lat="38.14731722" lon="-2.29886426">
        <ele>1380.0000</ele>
        <time>2018-10-14T13:27:41Z</time>
      </trkpt>
      <trkpt lat="38.14739165" lon="-2.29868631">
        <ele>1380.0000</ele>
        <time>2018-10-14T13:27:43Z</time>
      </trkpt>
      <trkpt lat="38.14746407" lon="-2.29848615">
        <ele>1380.0000</ele>
        <time>2018-10-14T13:27:45Z</time>
      </trkpt>
      <trkpt lat="38.14757840" lon="-2.29815599">
        <ele>1380.0000</ele>
        <time>2018-10-14T13:27:48Z</time>
      </trkpt>
      <trkpt lat="38.14765971" lon="-2.29792105">
        <ele>1380.0000</ele>
        <time>2018-10-14T13:27:50Z</time>
      </trkpt>
      <trkpt lat="38.14777856" lon="-2.29755325">
        <ele>1380.0000</ele>
        <time>2018-10-14T13:27:53Z</time>
      </trkpt>
      <trkpt lat="38.14797881" lon="-2.29696065">
        <ele>1380.0000</ele>
        <time>2018-10-14T13:27:58Z</time>
      </trkpt>
      <trkpt lat="38.14802625" lon="-2.29685185">
        <ele>1380.0000</ele>
        <time>2018-10-14T13:27:59Z</time>
      </trkpt>
      <trkpt lat="38.14814368" lon="-2.29665630">
        <ele>1380.0000</ele>
        <time>2018-10-14T13:28:01Z</time>
      </trkpt>
      <trkpt lat="38.14835582" lon="-2.29641792">
        <ele>1380.0000</ele>
        <time>2018-10-14T13:28:04Z</time>
      </trkpt>
      <trkpt lat="38.14877861" lon="-2.29620066">
        <ele>1380.0000</ele>
        <time>2018-10-14T13:28:09Z</time>
      </trkpt>
      <trkpt lat="38.14912629" lon="-2.29610175">
        <ele>1380.0000</ele>
        <time>2018-10-14T13:28:13Z</time>
      </trkpt>
      <trkpt lat="38.14944111" lon="-2.29602430">
        <ele>1380.0000</ele>
        <time>2018-10-14T13:28:17Z</time>
      </trkpt>
      <trkpt lat="38.14969047" lon="-2.29598156">
        <ele>1380.0000</ele>
        <time>2018-10-14T13:28:21Z</time>
      </trkpt>
      <trkpt lat="38.14974102" lon="-2.29596655">
        <ele>1380.0000</ele>
        <time>2018-10-14T13:28:22Z</time>
      </trkpt>
      <trkpt lat="38.14983498" lon="-2.29593772">
        <ele>1380.0000</ele>
        <time>2018-10-14T13:28:24Z</time>
      </trkpt>
      <trkpt lat="38.14987873" lon="-2.29592674">
        <ele>1380.0000</ele>
        <time>2018-10-14T13:28:25Z</time>
      </trkpt>
      <trkpt lat="38.14992601" lon="-2.29592297">
        <ele>1380.0000</ele>
        <time>2018-10-14T13:28:26Z</time>
      </trkpt>
      <trkpt lat="38.15000404" lon="-2.29590897">
        <ele>1380.0000</ele>
        <time>2018-10-14T13:28:28Z</time>
      </trkpt>
      <trkpt lat="38.15007445" lon="-2.29588743">
        <ele>1379.0000</ele>
        <time>2018-10-14T13:28:30Z</time>
      </trkpt>
      <trkpt lat="38.15013530" lon="-2.29586463">
        <ele>1380.0000</ele>
        <time>2018-10-14T13:28:32Z</time>
      </trkpt>
      <trkpt lat="38.15019540" lon="-2.29583948">
        <ele>1379.0000</ele>
        <time>2018-10-14T13:28:34Z</time>
      </trkpt>
      <trkpt lat="38.15025131" lon="-2.29580788">
        <ele>1379.0000</ele>
        <time>2018-10-14T13:28:36Z</time>
      </trkpt>
      <trkpt lat="38.15035851" lon="-2.29571610">
        <ele>1380.0000</ele>
        <time>2018-10-14T13:28:40Z</time>
      </trkpt>
      <trkpt lat="38.15044786" lon="-2.29560303">
        <ele>1379.0000</ele>
        <time>2018-10-14T13:28:44Z</time>
      </trkpt>
      <trkpt lat="38.15052565" lon="-2.29547688">
        <ele>1379.0000</ele>
        <time>2018-10-14T13:28:48Z</time>
      </trkpt>
      <trkpt lat="38.15071868" lon="-2.29519072">
        <ele>1379.0000</ele>
        <time>2018-10-14T13:28:58Z</time>
      </trkpt>
      <trkpt lat="38.15090820" lon="-2.29498537">
        <ele>1378.0000</ele>
        <time>2018-10-14T13:29:07Z</time>
      </trkpt>
      <trkpt lat="38.15108246" lon="-2.29476090">
        <ele>1378.0000</ele>
        <time>2018-10-14T13:29:16Z</time>
      </trkpt>
      <trkpt lat="38.15121489" lon="-2.29449620">
        <ele>1378.0000</ele>
        <time>2018-10-14T13:29:25Z</time>
      </trkpt>
      <trkpt lat="38.15129661" lon="-2.29406369">
        <ele>1377.0000</ele>
        <time>2018-10-14T13:29:38Z</time>
      </trkpt>
      <trkpt lat="38.15124180" lon="-2.29362457">
        <ele>1377.0000</ele>
        <time>2018-10-14T13:29:51Z</time>
      </trkpt>
      <trkpt lat="38.15114163" lon="-2.29330404">
        <ele>1376.0000</ele>
        <time>2018-10-14T13:30:01Z</time>
      </trkpt>
      <trkpt lat="38.15111070" lon="-2.29284857">
        <ele>1376.0000</ele>
        <time>2018-10-14T13:30:13Z</time>
      </trkpt>
      <trkpt lat="38.15125026" lon="-2.29250106">
        <ele>1376.0000</ele>
        <time>2018-10-14T13:30:23Z</time>
      </trkpt>
      <trkpt lat="38.15129016" lon="-2.29244238">
        <ele>1376.0000</ele>
        <time>2018-10-14T13:30:25Z</time>
      </trkpt>
      <trkpt lat="38.15161915" lon="-2.29201767">
        <ele>1375.0000</ele>
        <time>2018-10-14T13:30:41Z</time>
      </trkpt>
      <trkpt lat="38.15173935" lon="-2.29178264">
        <ele>1375.0000</ele>
        <time>2018-10-14T13:30:48Z</time>
      </trkpt>
      <trkpt lat="38.15176391" lon="-2.29159254">
        <ele>1375.0000</ele>
        <time>2018-10-14T13:30:53Z</time>
      </trkpt>
      <trkpt lat="38.15175896" lon="-2.29131141">
        <ele>1375.0000</ele>
        <time>2018-10-14T13:31:00Z</time>
      </trkpt>
      <trkpt lat="38.15172568" lon="-2.29060498">
        <ele>1376.0000</ele>
        <time>2018-10-14T13:31:18Z</time>
      </trkpt>
      <trkpt lat="38.15172040" lon="-2.29049107">
        <ele>1376.0000</ele>
        <time>2018-10-14T13:31:21Z</time>
      </trkpt>
      <trkpt lat="38.15170465" lon="-2.28977903">
        <ele>1376.0000</ele>
        <time>2018-10-14T13:31:40Z</time>
      </trkpt>
      <trkpt lat="38.15171403" lon="-2.28957259">
        <ele>1376.0000</ele>
        <time>2018-10-14T13:31:45Z</time>
      </trkpt>
      <trkpt lat="38.15172744" lon="-2.28943621">
        <ele>1376.0000</ele>
        <time>2018-10-14T13:31:48Z</time>
      </trkpt>
      <trkpt lat="38.15173801" lon="-2.28928416">
        <ele>1376.0000</ele>
        <time>2018-10-14T13:31:51Z</time>
      </trkpt>
      <trkpt lat="38.15177598" lon="-2.28900270">
        <ele>1376.0000</ele>
        <time>2018-10-14T13:31:56Z</time>
      </trkpt>
      <trkpt lat="38.15182249" lon="-2.28868201">
        <ele>1376.0000</ele>
        <time>2018-10-14T13:32:01Z</time>
      </trkpt>
      <trkpt lat="38.15187203" lon="-2.28841295">
        <ele>1376.0000</ele>
        <time>2018-10-14T13:32:05Z</time>
      </trkpt>
      <trkpt lat="38.15209440" lon="-2.28770300">
        <ele>1376.0000</ele>
        <time>2018-10-14T13:32:15Z</time>
      </trkpt>
      <trkpt lat="38.15214545" lon="-2.28742598">
        <ele>1376.0000</ele>
        <time>2018-10-14T13:32:18Z</time>
      </trkpt>
      <trkpt lat="38.15220085" lon="-2.28700764">
        <ele>1376.0000</ele>
        <time>2018-10-14T13:32:22Z</time>
      </trkpt>
      <trkpt lat="38.15225358" lon="-2.28681041">
        <ele>1376.0000</ele>
        <time>2018-10-14T13:32:24Z</time>
      </trkpt>
      <trkpt lat="38.15236363" lon="-2.28664772">
        <ele>1377.0000</ele>
        <time>2018-10-14T13:32:26Z</time>
      </trkpt>
      <trkpt lat="38.15259975" lon="-2.28650883">
        <ele>1376.0000</ele>
        <time>2018-10-14T13:32:29Z</time>
      </trkpt>
      <trkpt lat="38.15275842" lon="-2.28643633">
        <ele>1376.0000</ele>
        <time>2018-10-14T13:32:31Z</time>
      </trkpt>
      <trkpt lat="38.15282824" lon="-2.28638587">
        <ele>1377.0000</ele>
        <time>2018-10-14T13:32:32Z</time>
      </trkpt>
      <trkpt lat="38.15294156" lon="-2.28625025">
        <ele>1376.0000</ele>
        <time>2018-10-14T13:32:34Z</time>
      </trkpt>
      <trkpt lat="38.15302605" lon="-2.28597566">
        <ele>1376.0000</ele>
        <time>2018-10-14T13:32:37Z</time>
      </trkpt>
      <trkpt lat="38.15307391" lon="-2.28577131">
        <ele>1377.0000</ele>
        <time>2018-10-14T13:32:39Z</time>
      </trkpt>
      <trkpt lat="38.15327106" lon="-2.28538054">
        <ele>1376.0000</ele>
        <time>2018-10-14T13:32:43Z</time>
      </trkpt>
      <trkpt lat="38.15358890" lon="-2.28495617">
        <ele>1376.0000</ele>
        <time>2018-10-14T13:32:48Z</time>
      </trkpt>
      <trkpt lat="38.15382317" lon="-2.28480764">
        <ele>1376.0000</ele>
        <time>2018-10-14T13:32:51Z</time>
      </trkpt>
      <trkpt lat="38.15415627" lon="-2.28484679">
        <ele>1376.0000</ele>
        <time>2018-10-14T13:32:55Z</time>
      </trkpt>
      <trkpt lat="38.15440412" lon="-2.28493295">
        <ele>1377.0000</ele>
        <time>2018-10-14T13:32:58Z</time>
      </trkpt>
      <trkpt lat="38.15448895" lon="-2.28495080">
        <ele>1377.0000</ele>
        <time>2018-10-14T13:32:59Z</time>
      </trkpt>
      <trkpt lat="38.15499563" lon="-2.28463313">
        <ele>1377.0000</ele>
        <time>2018-10-14T13:33:06Z</time>
      </trkpt>
      <trkpt lat="38.15512589" lon="-2.28425594">
        <ele>1377.0000</ele>
        <time>2018-10-14T13:33:10Z</time>
      </trkpt>
      <trkpt lat="38.15525849" lon="-2.28380508">
        <ele>1378.0000</ele>
        <time>2018-10-14T13:33:15Z</time>
      </trkpt>
      <trkpt lat="38.15538380" lon="-2.28338104">
        <ele>1379.0000</ele>
        <time>2018-10-14T13:33:20Z</time>
      </trkpt>
      <trkpt lat="38.15555663" lon="-2.28270253">
        <ele>1379.0000</ele>
        <time>2018-10-14T13:33:28Z</time>
      </trkpt>
      <trkpt lat="38.15562888" lon="-2.28234244">
        <ele>1380.0000</ele>
        <time>2018-10-14T13:33:32Z</time>
      </trkpt>
      <trkpt lat="38.15569007" lon="-2.28206005">
        <ele>1380.0000</ele>
        <time>2018-10-14T13:33:35Z</time>
      </trkpt>
      <trkpt lat="38.15572067" lon="-2.28196785">
        <ele>1380.0000</ele>
        <time>2018-10-14T13:33:36Z</time>
      </trkpt>
      <trkpt lat="38.15606458" lon="-2.28142932">
        <ele>1380.0000</ele>
        <time>2018-10-14T13:33:43Z</time>
      </trkpt>
      <trkpt lat="38.15624596" lon="-2.28114408">
        <ele>1380.0000</ele>
        <time>2018-10-14T13:33:47Z</time>
      </trkpt>
      <trkpt lat="38.15628041" lon="-2.28106998">
        <ele>1380.0000</ele>
        <time>2018-10-14T13:33:48Z</time>
      </trkpt>
      <trkpt lat="38.15633917" lon="-2.28092112">
        <ele>1380.0000</ele>
        <time>2018-10-14T13:33:50Z</time>
      </trkpt>
      <trkpt lat="38.15638829" lon="-2.28077352">
        <ele>1380.0000</ele>
        <time>2018-10-14T13:33:52Z</time>
      </trkpt>
      <trkpt lat="38.15645207" lon="-2.28055919">
        <ele>1380.0000</ele>
        <time>2018-10-14T13:33:55Z</time>
      </trkpt>
      <trkpt lat="38.15653111" lon="-2.28028502">
        <ele>1380.0000</ele>
        <time>2018-10-14T13:33:59Z</time>
      </trkpt>
      <trkpt lat="38.15661124" lon="-2.28001889">
        <ele>1381.0000</ele>
        <time>2018-10-14T13:34:03Z</time>
      </trkpt>
      <trkpt lat="38.15668978" lon="-2.27975729">
        <ele>1381.0000</ele>
        <time>2018-10-14T13:34:07Z</time>
      </trkpt>
      <trkpt lat="38.15687075" lon="-2.27908448">
        <ele>1381.0000</ele>
        <time>2018-10-14T13:34:17Z</time>
      </trkpt>
      <trkpt lat="38.15704023" lon="-2.27840068">
        <ele>1381.0000</ele>
        <time>2018-10-14T13:34:27Z</time>
      </trkpt>
      <trkpt lat="38.15716034" lon="-2.27788209">
        <ele>1382.0000</ele>
        <time>2018-10-14T13:34:35Z</time>
      </trkpt>
      <trkpt lat="38.15719706" lon="-2.27767741">
        <ele>1382.0000</ele>
        <time>2018-10-14T13:34:38Z</time>
      </trkpt>
      <trkpt lat="38.15722103" lon="-2.27754766">
        <ele>1382.0000</ele>
        <time>2018-10-14T13:34:40Z</time>
      </trkpt>
      <trkpt lat="38.15725129" lon="-2.27736962">
        <ele>1382.0000</ele>
        <time>2018-10-14T13:34:43Z</time>
      </trkpt>
      <trkpt lat="38.15729470" lon="-2.27713552">
        <ele>1382.0000</ele>
        <time>2018-10-14T13:34:47Z</time>
      </trkpt>
      <trkpt lat="38.15731926" lon="-2.27690032">
        <ele>1383.0000</ele>
        <time>2018-10-14T13:34:51Z</time>
      </trkpt>
      <trkpt lat="38.15733611" lon="-2.27667619">
        <ele>1383.0000</ele>
        <time>2018-10-14T13:34:55Z</time>
      </trkpt>
      <trkpt lat="38.15734516" lon="-2.27661911">
        <ele>1383.0000</ele>
        <time>2018-10-14T13:34:56Z</time>
      </trkpt>
      <trkpt lat="38.15746209" lon="-2.27614478">
        <ele>1383.0000</ele>
        <time>2018-10-14T13:35:04Z</time>
      </trkpt>
      <trkpt lat="38.15749947" lon="-2.27602458">
        <ele>1384.0000</ele>
        <time>2018-10-14T13:35:06Z</time>
      </trkpt>
      <trkpt lat="38.15777935" lon="-2.27538521">
        <ele>1384.0000</ele>
        <time>2018-10-14T13:35:17Z</time>
      </trkpt>
      <trkpt lat="38.15805561" lon="-2.27479278">
        <ele>1384.0000</ele>
        <time>2018-10-14T13:35:28Z</time>
      </trkpt>
      <trkpt lat="38.15838896" lon="-2.27421786">
        <ele>1385.0000</ele>
        <time>2018-10-14T13:35:40Z</time>
      </trkpt>
      <trkpt lat="38.15866892" lon="-2.27377840">
        <ele>1385.0000</ele>
        <time>2018-10-14T13:35:49Z</time>
      </trkpt>
      <trkpt lat="38.15889640" lon="-2.27350364">
        <ele>1385.0000</ele>
        <time>2018-10-14T13:35:55Z</time>
      </trkpt>
      <trkpt lat="38.15914568" lon="-2.27323617">
        <ele>1385.0000</ele>
        <time>2018-10-14T13:36:01Z</time>
      </trkpt>
      <trkpt lat="38.15927769" lon="-2.27310625">
        <ele>1385.0000</ele>
        <time>2018-10-14T13:36:04Z</time>
      </trkpt>
      <trkpt lat="38.15945916" lon="-2.27294691">
        <ele>1385.0000</ele>
        <time>2018-10-14T13:36:08Z</time>
      </trkpt>
      <trkpt lat="38.15959705" lon="-2.27283837">
        <ele>1385.0000</ele>
        <time>2018-10-14T13:36:11Z</time>
      </trkpt>
      <trkpt lat="38.16004657" lon="-2.27252924">
        <ele>1385.0000</ele>
        <time>2018-10-14T13:36:20Z</time>
      </trkpt>
      <trkpt lat="38.16018805" lon="-2.27240435">
        <ele>1384.0000</ele>
        <time>2018-10-14T13:36:23Z</time>
      </trkpt>
      <trkpt lat="38.16056189" lon="-2.27189733">
        <ele>1384.0000</ele>
        <time>2018-10-14T13:36:33Z</time>
      </trkpt>
      <trkpt lat="38.16066188" lon="-2.27174428">
        <ele>1384.0000</ele>
        <time>2018-10-14T13:36:36Z</time>
      </trkpt>
      <trkpt lat="38.16085886" lon="-2.27142686">
        <ele>1384.0000</ele>
        <time>2018-10-14T13:36:42Z</time>
      </trkpt>
      <trkpt lat="38.16114527" lon="-2.27111094">
        <ele>1384.0000</ele>
        <time>2018-10-14T13:36:49Z</time>
      </trkpt>
      <trkpt lat="38.16143218" lon="-2.27082621">
        <ele>1384.0000</ele>
        <time>2018-10-14T13:36:56Z</time>
      </trkpt>
      <trkpt lat="38.16165246" lon="-2.27081506">
        <ele>1383.0000</ele>
        <time>2018-10-14T13:37:01Z</time>
      </trkpt>
      <trkpt lat="38.16178120" lon="-2.27097926">
        <ele>1383.0000</ele>
        <time>2018-10-14T13:37:05Z</time>
      </trkpt>
      <trkpt lat="38.16186829" lon="-2.27113055">
        <ele>1383.0000</ele>
        <time>2018-10-14T13:37:08Z</time>
      </trkpt>
      <trkpt lat="38.16200550" lon="-2.27137925">
        <ele>1383.0000</ele>
        <time>2018-10-14T13:37:12Z</time>
      </trkpt>
      <trkpt lat="38.16211815" lon="-2.27160774">
        <ele>1383.0000</ele>
        <time>2018-10-14T13:37:15Z</time>
      </trkpt>
      <trkpt lat="38.16219870" lon="-2.27177487">
        <ele>1382.0000</ele>
        <time>2018-10-14T13:37:17Z</time>
      </trkpt>
      <trkpt lat="38.16228789" lon="-2.27194989">
        <ele>1382.0000</ele>
        <time>2018-10-14T13:37:19Z</time>
      </trkpt>
      <trkpt lat="38.16238000" lon="-2.27213705">
        <ele>1382.0000</ele>
        <time>2018-10-14T13:37:21Z</time>
      </trkpt>
      <trkpt lat="38.16263171" lon="-2.27264366">
        <ele>1382.0000</ele>
        <time>2018-10-14T13:37:26Z</time>
      </trkpt>
      <trkpt lat="38.16268712" lon="-2.27274902">
        <ele>1381.0000</ele>
        <time>2018-10-14T13:37:27Z</time>
      </trkpt>
      <trkpt lat="38.16287093" lon="-2.27316551">
        <ele>1381.0000</ele>
        <time>2018-10-14T13:37:31Z</time>
      </trkpt>
      <trkpt lat="38.16290505" lon="-2.27350724">
        <ele>1381.0000</ele>
        <time>2018-10-14T13:37:34Z</time>
      </trkpt>
      <trkpt lat="38.16290019" lon="-2.27361780">
        <ele>1380.0000</ele>
        <time>2018-10-14T13:37:35Z</time>
      </trkpt>
      <trkpt lat="38.16289214" lon="-2.27387999">
        <ele>1380.0000</ele>
        <time>2018-10-14T13:37:38Z</time>
      </trkpt>
      <trkpt lat="38.16290077" lon="-2.27393950">
        <ele>1380.0000</ele>
        <time>2018-10-14T13:37:39Z</time>
      </trkpt>
      <trkpt lat="38.16300102" lon="-2.27402441">
        <ele>1379.0000</ele>
        <time>2018-10-14T13:37:42Z</time>
      </trkpt>
      <trkpt lat="38.16307763" lon="-2.27394931">
        <ele>1379.0000</ele>
        <time>2018-10-14T13:37:44Z</time>
      </trkpt>
      <trkpt lat="38.16311468" lon="-2.27388409">
        <ele>1379.0000</ele>
        <time>2018-10-14T13:37:45Z</time>
      </trkpt>
      <trkpt lat="38.16316279" lon="-2.27372207">
        <ele>1378.0000</ele>
        <time>2018-10-14T13:37:47Z</time>
      </trkpt>
      <trkpt lat="38.16319221" lon="-2.27353289">
        <ele>1378.0000</ele>
        <time>2018-10-14T13:37:49Z</time>
      </trkpt>
      <trkpt lat="38.16318995" lon="-2.27342862">
        <ele>1378.0000</ele>
        <time>2018-10-14T13:37:50Z</time>
      </trkpt>
      <trkpt lat="38.16311518" lon="-2.27310089">
        <ele>1378.0000</ele>
        <time>2018-10-14T13:37:53Z</time>
      </trkpt>
      <trkpt lat="38.16301477" lon="-2.27274315">
        <ele>1377.0000</ele>
        <time>2018-10-14T13:37:56Z</time>
      </trkpt>
      <trkpt lat="38.16292039" lon="-2.27235314">
        <ele>1377.0000</ele>
        <time>2018-10-14T13:37:59Z</time>
      </trkpt>
      <trkpt lat="38.16287060" lon="-2.27207972">
        <ele>1377.0000</ele>
        <time>2018-10-14T13:38:01Z</time>
      </trkpt>
      <trkpt lat="38.16281159" lon="-2.27153968">
        <ele>1376.0000</ele>
        <time>2018-10-14T13:38:05Z</time>
      </trkpt>
      <trkpt lat="38.16285719" lon="-2.27111656">
        <ele>1376.0000</ele>
        <time>2018-10-14T13:38:08Z</time>
      </trkpt>
      <trkpt lat="38.16288929" lon="-2.27097365">
        <ele>1376.0000</ele>
        <time>2018-10-14T13:38:09Z</time>
      </trkpt>
      <trkpt lat="38.16302935" lon="-2.27037317">
        <ele>1375.0000</ele>
        <time>2018-10-14T13:38:13Z</time>
      </trkpt>
      <trkpt lat="38.16320411" lon="-2.26961134">
        <ele>1374.0000</ele>
        <time>2018-10-14T13:38:18Z</time>
      </trkpt>
      <trkpt lat="38.16323404" lon="-2.26947756">
        <ele>1374.0000</ele>
        <time>2018-10-14T13:38:19Z</time>
      </trkpt>
      <trkpt lat="38.16335750" lon="-2.26896517">
        <ele>1374.0000</ele>
        <time>2018-10-14T13:38:24Z</time>
      </trkpt>
      <trkpt lat="38.16354517" lon="-2.26882545">
        <ele>1373.0000</ele>
        <time>2018-10-14T13:38:28Z</time>
      </trkpt>
      <trkpt lat="38.16359320" lon="-2.26885998">
        <ele>1373.0000</ele>
        <time>2018-10-14T13:38:29Z</time>
      </trkpt>
      <trkpt lat="38.16363025" lon="-2.26907271">
        <ele>1372.0000</ele>
        <time>2018-10-14T13:38:32Z</time>
      </trkpt>
      <trkpt lat="38.16361064" lon="-2.26915796">
        <ele>1372.0000</ele>
        <time>2018-10-14T13:38:33Z</time>
      </trkpt>
      <trkpt lat="38.16359303" lon="-2.26925091">
        <ele>1372.0000</ele>
        <time>2018-10-14T13:38:34Z</time>
      </trkpt>
      <trkpt lat="38.16357987" lon="-2.26993211">
        <ele>1372.0000</ele>
        <time>2018-10-14T13:38:40Z</time>
      </trkpt>
      <trkpt lat="38.16366453" lon="-2.27075295">
        <ele>1371.0000</ele>
        <time>2018-10-14T13:38:46Z</time>
      </trkpt>
      <trkpt lat="38.16370443" lon="-2.27103165">
        <ele>1371.0000</ele>
        <time>2018-10-14T13:38:48Z</time>
      </trkpt>
      <trkpt lat="38.16376335" lon="-2.27130037">
        <ele>1371.0000</ele>
        <time>2018-10-14T13:38:50Z</time>
      </trkpt>
      <trkpt lat="38.16395429" lon="-2.27174478">
        <ele>1370.0000</ele>
        <time>2018-10-14T13:38:54Z</time>
      </trkpt>
      <trkpt lat="38.16432737" lon="-2.27205399">
        <ele>1370.0000</ele>
        <time>2018-10-14T13:38:59Z</time>
      </trkpt>
      <trkpt lat="38.16451027" lon="-2.27206874">
        <ele>1369.0000</ele>
        <time>2018-10-14T13:39:01Z</time>
      </trkpt>
      <trkpt lat="38.16459434" lon="-2.27207754">
        <ele>1369.0000</ele>
        <time>2018-10-14T13:39:02Z</time>
      </trkpt>
      <trkpt lat="38.16467547" lon="-2.27210420">
        <ele>1369.0000</ele>
        <time>2018-10-14T13:39:03Z</time>
      </trkpt>
      <trkpt lat="38.16495199" lon="-2.27240754">
        <ele>1368.0000</ele>
        <time>2018-10-14T13:39:07Z</time>
      </trkpt>
      <trkpt lat="38.16500731" lon="-2.27251784">
        <ele>1368.0000</ele>
        <time>2018-10-14T13:39:08Z</time>
      </trkpt>
      <trkpt lat="38.16511259" lon="-2.27275363">
        <ele>1367.0000</ele>
        <time>2018-10-14T13:39:10Z</time>
      </trkpt>
      <trkpt lat="38.16533111" lon="-2.27326484">
        <ele>1367.0000</ele>
        <time>2018-10-14T13:39:14Z</time>
      </trkpt>
      <trkpt lat="38.16538634" lon="-2.27340046">
        <ele>1366.0000</ele>
        <time>2018-10-14T13:39:15Z</time>
      </trkpt>
      <trkpt lat="38.16557996" lon="-2.27397738">
        <ele>1366.0000</ele>
        <time>2018-10-14T13:39:19Z</time>
      </trkpt>
      <trkpt lat="38.16570544" lon="-2.27456881">
        <ele>1365.0000</ele>
        <time>2018-10-14T13:39:23Z</time>
      </trkpt>
      <trkpt lat="38.16573268" lon="-2.27519243">
        <ele>1364.0000</ele>
        <time>2018-10-14T13:39:27Z</time>
      </trkpt>
      <trkpt lat="38.16572086" lon="-2.27583079">
        <ele>1363.0000</ele>
        <time>2018-10-14T13:39:31Z</time>
      </trkpt>
      <trkpt lat="38.16571684" lon="-2.27646136">
        <ele>1362.0000</ele>
        <time>2018-10-14T13:39:35Z</time>
      </trkpt>
      <trkpt lat="38.16576043" lon="-2.27691943">
        <ele>1361.0000</ele>
        <time>2018-10-14T13:39:38Z</time>
      </trkpt>
      <trkpt lat="38.16583209" lon="-2.27733878">
        <ele>1361.0000</ele>
        <time>2018-10-14T13:39:41Z</time>
      </trkpt>
      <trkpt lat="38.16588196" lon="-2.27758998">
        <ele>1360.0000</ele>
        <time>2018-10-14T13:39:43Z</time>
      </trkpt>
      <trkpt lat="38.16594189" lon="-2.27779752">
        <ele>1360.0000</ele>
        <time>2018-10-14T13:39:45Z</time>
      </trkpt>
      <trkpt lat="38.16604231" lon="-2.27795443">
        <ele>1359.0000</ele>
        <time>2018-10-14T13:39:47Z</time>
      </trkpt>
      <trkpt lat="38.16631573" lon="-2.27802668">
        <ele>1358.0000</ele>
        <time>2018-10-14T13:39:51Z</time>
      </trkpt>
      <trkpt lat="38.16644707" lon="-2.27771437">
        <ele>1358.0000</ele>
        <time>2018-10-14T13:39:55Z</time>
      </trkpt>
      <trkpt lat="38.16641539" lon="-2.27750935">
        <ele>1357.0000</ele>
        <time>2018-10-14T13:39:57Z</time>
      </trkpt>
      <trkpt lat="38.16637105" lon="-2.27728807">
        <ele>1357.0000</ele>
        <time>2018-10-14T13:39:59Z</time>
      </trkpt>
      <trkpt lat="38.16628505" lon="-2.27678926">
        <ele>1356.0000</ele>
        <time>2018-10-14T13:40:03Z</time>
      </trkpt>
      <trkpt lat="38.16626242" lon="-2.27621611">
        <ele>1355.0000</ele>
        <time>2018-10-14T13:40:07Z</time>
      </trkpt>
      <trkpt lat="38.16628388" lon="-2.27575913">
        <ele>1354.0000</ele>
        <time>2018-10-14T13:40:10Z</time>
      </trkpt>
      <trkpt lat="38.16630408" lon="-2.27528605">
        <ele>1353.0000</ele>
        <time>2018-10-14T13:40:13Z</time>
      </trkpt>
      <trkpt lat="38.16630776" lon="-2.27512730">
        <ele>1351.0000</ele>
        <time>2018-10-14T13:40:14Z</time>
      </trkpt>
      <trkpt lat="38.16630961" lon="-2.27480954">
        <ele>1350.0000</ele>
        <time>2018-10-14T13:40:16Z</time>
      </trkpt>
      <trkpt lat="38.16624524" lon="-2.27418324">
        <ele>1349.0000</ele>
        <time>2018-10-14T13:40:20Z</time>
      </trkpt>
      <trkpt lat="38.16616779" lon="-2.27356717">
        <ele>1348.0000</ele>
        <time>2018-10-14T13:40:24Z</time>
      </trkpt>
      <trkpt lat="38.16612378" lon="-2.27312729">
        <ele>1347.0000</ele>
        <time>2018-10-14T13:40:27Z</time>
      </trkpt>
      <trkpt lat="38.16612068" lon="-2.27298178">
        <ele>1347.0000</ele>
        <time>2018-10-14T13:40:28Z</time>
      </trkpt>
      <trkpt lat="38.16616469" lon="-2.27254332">
        <ele>1347.0000</ele>
        <time>2018-10-14T13:40:31Z</time>
      </trkpt>
      <trkpt lat="38.16633769" lon="-2.27182684">
        <ele>1346.0000</ele>
        <time>2018-10-14T13:40:36Z</time>
      </trkpt>
      <trkpt lat="38.16637851" lon="-2.27169332">
        <ele>1346.0000</ele>
        <time>2018-10-14T13:40:37Z</time>
      </trkpt>
      <trkpt lat="38.16658269" lon="-2.27107146">
        <ele>1345.0000</ele>
        <time>2018-10-14T13:40:42Z</time>
      </trkpt>
      <trkpt lat="38.16671135" lon="-2.27070492">
        <ele>1345.0000</ele>
        <time>2018-10-14T13:40:45Z</time>
      </trkpt>
      <trkpt lat="38.16684245" lon="-2.27033763">
        <ele>1345.0000</ele>
        <time>2018-10-14T13:40:48Z</time>
      </trkpt>
      <trkpt lat="38.16694554" lon="-2.27010738">
        <ele>1344.0000</ele>
        <time>2018-10-14T13:40:50Z</time>
      </trkpt>
      <trkpt lat="38.16709055" lon="-2.26992432">
        <ele>1344.0000</ele>
        <time>2018-10-14T13:40:52Z</time>
      </trkpt>
      <trkpt lat="38.16733555" lon="-2.26975039">
        <ele>1344.0000</ele>
        <time>2018-10-14T13:40:55Z</time>
      </trkpt>
      <trkpt lat="38.16740764" lon="-2.26969541">
        <ele>1343.0000</ele>
        <time>2018-10-14T13:40:56Z</time>
      </trkpt>
      <trkpt lat="38.16759590" lon="-2.26939852">
        <ele>1343.0000</ele>
        <time>2018-10-14T13:41:00Z</time>
      </trkpt>
      <trkpt lat="38.16764527" lon="-2.26932970">
        <ele>1343.0000</ele>
        <time>2018-10-14T13:41:01Z</time>
      </trkpt>
      <trkpt lat="38.16798515" lon="-2.26890834">
        <ele>1342.0000</ele>
        <time>2018-10-14T13:41:07Z</time>
      </trkpt>
      <trkpt lat="38.16828430" lon="-2.26847450">
        <ele>1342.0000</ele>
        <time>2018-10-14T13:41:13Z</time>
      </trkpt>
      <trkpt lat="38.16855613" lon="-2.26804149">
        <ele>1341.0000</ele>
        <time>2018-10-14T13:41:20Z</time>
      </trkpt>
      <trkpt lat="38.16871329" lon="-2.26780747">
        <ele>1341.0000</ele>
        <time>2018-10-14T13:41:25Z</time>
      </trkpt>
      <trkpt lat="38.16888570" lon="-2.26756825">
        <ele>1340.0000</ele>
        <time>2018-10-14T13:41:30Z</time>
      </trkpt>
      <trkpt lat="38.16892518" lon="-2.26750781">
        <ele>1340.0000</ele>
        <time>2018-10-14T13:41:31Z</time>
      </trkpt>
      <trkpt lat="38.16908871" lon="-2.26721512">
        <ele>1339.0000</ele>
        <time>2018-10-14T13:41:35Z</time>
      </trkpt>
      <trkpt lat="38.16922542" lon="-2.26696131">
        <ele>1339.0000</ele>
        <time>2018-10-14T13:41:38Z</time>
      </trkpt>
      <trkpt lat="38.16936288" lon="-2.26671824">
        <ele>1339.0000</ele>
        <time>2018-10-14T13:41:41Z</time>
      </trkpt>
      <trkpt lat="38.16945089" lon="-2.26657181">
        <ele>1339.0000</ele>
        <time>2018-10-14T13:41:43Z</time>
      </trkpt>
      <trkpt lat="38.16956556" lon="-2.26637508">
        <ele>1338.0000</ele>
        <time>2018-10-14T13:41:46Z</time>
      </trkpt>
      <trkpt lat="38.16979765" lon="-2.26596395">
        <ele>1338.0000</ele>
        <time>2018-10-14T13:41:52Z</time>
      </trkpt>
      <trkpt lat="38.16984510" lon="-2.26589119">
        <ele>1338.0000</ele>
        <time>2018-10-14T13:41:53Z</time>
      </trkpt>
      <trkpt lat="38.17013687" lon="-2.26544712">
        <ele>1337.0000</ele>
        <time>2018-10-14T13:41:59Z</time>
      </trkpt>
      <trkpt lat="38.17026193" lon="-2.26528996">
        <ele>1337.0000</ele>
        <time>2018-10-14T13:42:02Z</time>
      </trkpt>
      <trkpt lat="38.17029763" lon="-2.26525392">
        <ele>1337.0000</ele>
        <time>2018-10-14T13:42:03Z</time>
      </trkpt>
      <trkpt lat="38.17035136" lon="-2.26521226">
        <ele>1336.0000</ele>
        <time>2018-10-14T13:42:05Z</time>
      </trkpt>
      <trkpt lat="38.17038640" lon="-2.26521017">
        <ele>1336.0000</ele>
        <time>2018-10-14T13:42:08Z</time>
      </trkpt>
      <trkpt lat="38.17038372" lon="-2.26509014">
        <ele>1287.0000</ele>
        <time>2018-10-14T13:45:57Z</time>
      </trkpt>
      <trkpt lat="38.17040274" lon="-2.26502694">
        <ele>1286.0000</ele>
        <time>2018-10-14T13:46:00Z</time>
      </trkpt>
      <trkpt lat="38.17044398" lon="-2.26497053">
        <ele>1286.0000</ele>
        <time>2018-10-14T13:46:02Z</time>
      </trkpt>
      <trkpt lat="38.17050224" lon="-2.26486818">
        <ele>1285.0000</ele>
        <time>2018-10-14T13:46:05Z</time>
      </trkpt>
      <trkpt lat="38.17054104" lon="-2.26480272">
        <ele>1285.0000</ele>
        <time>2018-10-14T13:46:07Z</time>
      </trkpt>
      <trkpt lat="38.17062880" lon="-2.26461321">
        <ele>1284.0000</ele>
        <time>2018-10-14T13:46:12Z</time>
      </trkpt>
      <trkpt lat="38.17070282" lon="-2.26450810">
        <ele>1284.0000</ele>
        <time>2018-10-14T13:46:15Z</time>
      </trkpt>
      <trkpt lat="38.17084430" lon="-2.26437223">
        <ele>1283.0000</ele>
        <time>2018-10-14T13:46:20Z</time>
      </trkpt>
      <trkpt lat="38.17087288" lon="-2.26434834">
        <ele>1283.0000</ele>
        <time>2018-10-14T13:46:21Z</time>
      </trkpt>
      <trkpt lat="38.17125485" lon="-2.26412471">
        <ele>1283.0000</ele>
        <time>2018-10-14T13:46:33Z</time>
      </trkpt>
      <trkpt lat="38.17136758" lon="-2.26406796">
        <ele>1283.0000</ele>
        <time>2018-10-14T13:46:36Z</time>
      </trkpt>
      <trkpt lat="38.17151988" lon="-2.26399169">
        <ele>1283.0000</ele>
        <time>2018-10-14T13:46:40Z</time>
      </trkpt>
      <trkpt lat="38.17201651" lon="-2.26368818">
        <ele>1284.0000</ele>
        <time>2018-10-14T13:46:53Z</time>
      </trkpt>
      <trkpt lat="38.17213470" lon="-2.26360587">
        <ele>1283.0000</ele>
        <time>2018-10-14T13:46:56Z</time>
      </trkpt>
      <trkpt lat="38.17219404" lon="-2.26354334">
        <ele>1283.0000</ele>
        <time>2018-10-14T13:46:58Z</time>
      </trkpt>
      <trkpt lat="38.17224291" lon="-2.26348115">
        <ele>1283.0000</ele>
        <time>2018-10-14T13:47:00Z</time>
      </trkpt>
      <trkpt lat="38.17231357" lon="-2.26337017">
        <ele>1284.0000</ele>
        <time>2018-10-14T13:47:03Z</time>
      </trkpt>
      <trkpt lat="38.17249897" lon="-2.26290858">
        <ele>1284.0000</ele>
        <time>2018-10-14T13:47:10Z</time>
      </trkpt>
      <trkpt lat="38.17258397" lon="-2.26269409">
        <ele>1284.0000</ele>
        <time>2018-10-14T13:47:13Z</time>
      </trkpt>
      <trkpt lat="38.17266175" lon="-2.26249510">
        <ele>1284.0000</ele>
        <time>2018-10-14T13:47:16Z</time>
      </trkpt>
      <trkpt lat="38.17273568" lon="-2.26230533">
        <ele>1284.0000</ele>
        <time>2018-10-14T13:47:19Z</time>
      </trkpt>
      <trkpt lat="38.17278195" lon="-2.26218447">
        <ele>1284.0000</ele>
        <time>2018-10-14T13:47:21Z</time>
      </trkpt>
      <trkpt lat="38.17284565" lon="-2.26200794">
        <ele>1284.0000</ele>
        <time>2018-10-14T13:47:24Z</time>
      </trkpt>
      <trkpt lat="38.17290474" lon="-2.26183041">
        <ele>1284.0000</ele>
        <time>2018-10-14T13:47:27Z</time>
      </trkpt>
      <trkpt lat="38.17292402" lon="-2.26176939">
        <ele>1284.0000</ele>
        <time>2018-10-14T13:47:28Z</time>
      </trkpt>
      <trkpt lat="38.17298353" lon="-2.26158156">
        <ele>1284.0000</ele>
        <time>2018-10-14T13:47:31Z</time>
      </trkpt>
      <trkpt lat="38.17324572" lon="-2.26106431">
        <ele>1283.0000</ele>
        <time>2018-10-14T13:47:40Z</time>
      </trkpt>
      <trkpt lat="38.17347354" lon="-2.26076633">
        <ele>1283.0000</ele>
        <time>2018-10-14T13:47:47Z</time>
      </trkpt>
      <trkpt lat="38.17350564" lon="-2.26072199">
        <ele>1283.0000</ele>
        <time>2018-10-14T13:47:48Z</time>
      </trkpt>
      <trkpt lat="38.17372047" lon="-2.26010316">
        <ele>1283.0000</ele>
        <time>2018-10-14T13:47:59Z</time>
      </trkpt>
      <trkpt lat="38.17376330" lon="-2.25998849">
        <ele>1283.0000</ele>
        <time>2018-10-14T13:48:01Z</time>
      </trkpt>
      <trkpt lat="38.17379306" lon="-2.25993862">
        <ele>1283.0000</ele>
        <time>2018-10-14T13:48:02Z</time>
      </trkpt>
      <trkpt lat="38.17391518" lon="-2.25981448">
        <ele>1282.0000</ele>
        <time>2018-10-14T13:48:05Z</time>
      </trkpt>
      <trkpt lat="38.17442639" lon="-2.25946311">
        <ele>1283.0000</ele>
        <time>2018-10-14T13:48:15Z</time>
      </trkpt>
      <trkpt lat="38.17460618" lon="-2.25934376">
        <ele>1283.0000</ele>
        <time>2018-10-14T13:48:19Z</time>
      </trkpt>
      <trkpt lat="38.17486904" lon="-2.25916346">
        <ele>1282.0000</ele>
        <time>2018-10-14T13:48:25Z</time>
      </trkpt>
      <trkpt lat="38.17505755" lon="-2.25903329">
        <ele>1283.0000</ele>
        <time>2018-10-14T13:48:29Z</time>
      </trkpt>
      <trkpt lat="38.17532091" lon="-2.25893028">
        <ele>1283.0000</ele>
        <time>2018-10-14T13:48:34Z</time>
      </trkpt>
      <trkpt lat="38.17563783" lon="-2.25888677">
        <ele>1282.0000</ele>
        <time>2018-10-14T13:48:40Z</time>
      </trkpt>
      <trkpt lat="38.17569172" lon="-2.25887252">
        <ele>1283.0000</ele>
        <time>2018-10-14T13:48:41Z</time>
      </trkpt>
      <trkpt lat="38.17600202" lon="-2.25874587">
        <ele>1283.0000</ele>
        <time>2018-10-14T13:48:47Z</time>
      </trkpt>
      <trkpt lat="38.17617360" lon="-2.25872894">
        <ele>1282.0000</ele>
        <time>2018-10-14T13:48:50Z</time>
      </trkpt>
      <trkpt lat="38.17623152" lon="-2.25873263">
        <ele>1282.0000</ele>
        <time>2018-10-14T13:48:51Z</time>
      </trkpt>
      <trkpt lat="38.17658691" lon="-2.25871763">
        <ele>1283.0000</ele>
        <time>2018-10-14T13:48:57Z</time>
      </trkpt>
      <trkpt lat="38.17670769" lon="-2.25872576">
        <ele>1283.0000</ele>
        <time>2018-10-14T13:48:59Z</time>
      </trkpt>
      <trkpt lat="38.17688154" lon="-2.25875501">
        <ele>1283.0000</ele>
        <time>2018-10-14T13:49:02Z</time>
      </trkpt>
      <trkpt lat="38.17710173" lon="-2.25872995">
        <ele>1283.0000</ele>
        <time>2018-10-14T13:49:06Z</time>
      </trkpt>
      <trkpt lat="38.17715311" lon="-2.25871251">
        <ele>1283.0000</ele>
        <time>2018-10-14T13:49:07Z</time>
      </trkpt>
      <trkpt lat="38.17733877" lon="-2.25861243">
        <ele>1283.0000</ele>
        <time>2018-10-14T13:49:11Z</time>
      </trkpt>
      <trkpt lat="38.17750523" lon="-2.25846952">
        <ele>1283.0000</ele>
        <time>2018-10-14T13:49:15Z</time>
      </trkpt>
      <trkpt lat="38.17759601" lon="-2.25841009">
        <ele>1283.0000</ele>
        <time>2018-10-14T13:49:17Z</time>
      </trkpt>
      <trkpt lat="38.17789415" lon="-2.25836953">
        <ele>1283.0000</ele>
        <time>2018-10-14T13:49:23Z</time>
      </trkpt>
      <trkpt lat="38.17799172" lon="-2.25837766">
        <ele>1283.0000</ele>
        <time>2018-10-14T13:49:25Z</time>
      </trkpt>
      <trkpt lat="38.17818375" lon="-2.25832024">
        <ele>1283.0000</ele>
        <time>2018-10-14T13:49:29Z</time>
      </trkpt>
      <trkpt lat="38.17830093" lon="-2.25819661">
        <ele>1283.0000</ele>
        <time>2018-10-14T13:49:32Z</time>
      </trkpt>
      <trkpt lat="38.17869521" lon="-2.25765933">
        <ele>1283.0000</ele>
        <time>2018-10-14T13:49:43Z</time>
      </trkpt>
      <trkpt lat="38.17872807" lon="-2.25761163">
        <ele>1283.0000</ele>
        <time>2018-10-14T13:49:44Z</time>
      </trkpt>
      <trkpt lat="38.17891834" lon="-2.25730620">
        <ele>1283.0000</ele>
        <time>2018-10-14T13:49:50Z</time>
      </trkpt>
      <trkpt lat="38.17896335" lon="-2.25719103">
        <ele>1283.0000</ele>
        <time>2018-10-14T13:49:52Z</time>
      </trkpt>
      <trkpt lat="38.17900987" lon="-2.25706857">
        <ele>1283.0000</ele>
        <time>2018-10-14T13:49:54Z</time>
      </trkpt>
      <trkpt lat="38.17913275" lon="-2.25681577">
        <ele>1283.0000</ele>
        <time>2018-10-14T13:49:58Z</time>
      </trkpt>
      <trkpt lat="38.17921137" lon="-2.25670119">
        <ele>1283.0000</ele>
        <time>2018-10-14T13:50:00Z</time>
      </trkpt>
      <trkpt lat="38.17925437" lon="-2.25665325">
        <ele>1283.0000</ele>
        <time>2018-10-14T13:50:01Z</time>
      </trkpt>
      <trkpt lat="38.17949468" lon="-2.25648427">
        <ele>1283.0000</ele>
        <time>2018-10-14T13:50:06Z</time>
      </trkpt>
      <trkpt lat="38.17954153" lon="-2.25644043">
        <ele>1282.0000</ele>
        <time>2018-10-14T13:50:07Z</time>
      </trkpt>
      <trkpt lat="38.17971856" lon="-2.25607657">
        <ele>1282.0000</ele>
        <time>2018-10-14T13:50:13Z</time>
      </trkpt>
      <trkpt lat="38.17974882" lon="-2.25594749">
        <ele>1282.0000</ele>
        <time>2018-10-14T13:50:15Z</time>
      </trkpt>
      <trkpt lat="38.17978729" lon="-2.25549822">
        <ele>1282.0000</ele>
        <time>2018-10-14T13:50:22Z</time>
      </trkpt>
      <trkpt lat="38.17979006" lon="-2.25528649">
        <ele>1282.0000</ele>
        <time>2018-10-14T13:50:25Z</time>
      </trkpt>
      <trkpt lat="38.17977597" lon="-2.25498265">
        <ele>1282.0000</ele>
        <time>2018-10-14T13:50:29Z</time>
      </trkpt>
      <trkpt lat="38.17979140" lon="-2.25467101">
        <ele>1281.0000</ele>
        <time>2018-10-14T13:50:33Z</time>
      </trkpt>
      <trkpt lat="38.17982425" lon="-2.25452818">
        <ele>1281.0000</ele>
        <time>2018-10-14T13:50:35Z</time>
      </trkpt>
      <trkpt lat="38.17996775" lon="-2.25420498">
        <ele>1281.0000</ele>
        <time>2018-10-14T13:50:40Z</time>
      </trkpt>
      <trkpt lat="38.18007580" lon="-2.25403323">
        <ele>1281.0000</ele>
        <time>2018-10-14T13:50:43Z</time>
      </trkpt>
      <trkpt lat="38.18042457" lon="-2.25366652">
        <ele>1280.0000</ele>
        <time>2018-10-14T13:50:51Z</time>
      </trkpt>
      <trkpt lat="38.18090175" lon="-2.25323536">
        <ele>1280.0000</ele>
        <time>2018-10-14T13:51:02Z</time>
      </trkpt>
      <trkpt lat="38.18100258" lon="-2.25315825">
        <ele>1280.0000</ele>
        <time>2018-10-14T13:51:04Z</time>
      </trkpt>
      <trkpt lat="38.18110769" lon="-2.25309044">
        <ele>1280.0000</ele>
        <time>2018-10-14T13:51:06Z</time>
      </trkpt>
      <trkpt lat="38.18150223" lon="-2.25287259">
        <ele>1280.0000</ele>
        <time>2018-10-14T13:51:14Z</time>
      </trkpt>
      <trkpt lat="38.18177732" lon="-2.25274644">
        <ele>1280.0000</ele>
        <time>2018-10-14T13:51:20Z</time>
      </trkpt>
      <trkpt lat="38.18194177" lon="-2.25282188">
        <ele>1281.0000</ele>
        <time>2018-10-14T13:51:24Z</time>
      </trkpt>
      <trkpt lat="38.18201906" lon="-2.25295130">
        <ele>1280.0000</ele>
        <time>2018-10-14T13:51:27Z</time>
      </trkpt>
      <trkpt lat="38.18206264" lon="-2.25303201">
        <ele>1281.0000</ele>
        <time>2018-10-14T13:51:29Z</time>
      </trkpt>
      <trkpt lat="38.18210924" lon="-2.25310326">
        <ele>1280.0000</ele>
        <time>2018-10-14T13:51:31Z</time>
      </trkpt>
      <trkpt lat="38.18217077" lon="-2.25320653">
        <ele>1280.0000</ele>
        <time>2018-10-14T13:51:34Z</time>
      </trkpt>
      <trkpt lat="38.18225643" lon="-2.25332815">
        <ele>1280.0000</ele>
        <time>2018-10-14T13:51:38Z</time>
      </trkpt>
      <trkpt lat="38.18237604" lon="-2.25345404">
        <ele>1280.0000</ele>
        <time>2018-10-14T13:51:43Z</time>
      </trkpt>
      <trkpt lat="38.18245097" lon="-2.25357625">
        <ele>1280.0000</ele>
        <time>2018-10-14T13:51:47Z</time>
      </trkpt>
      <trkpt lat="38.18250579" lon="-2.25383483">
        <ele>1279.0000</ele>
        <time>2018-10-14T13:51:54Z</time>
      </trkpt>
      <trkpt lat="38.18251409" lon="-2.25387238">
        <ele>1279.0000</ele>
        <time>2018-10-14T13:51:55Z</time>
      </trkpt>
      <trkpt lat="38.18257461" lon="-2.25412535">
        <ele>1278.0000</ele>
        <time>2018-10-14T13:52:02Z</time>
      </trkpt>
      <trkpt lat="38.18262909" lon="-2.25436817">
        <ele>1278.0000</ele>
        <time>2018-10-14T13:52:09Z</time>
      </trkpt>
      <trkpt lat="38.18264904" lon="-2.25457110">
        <ele>1277.0000</ele>
        <time>2018-10-14T13:52:15Z</time>
      </trkpt>
      <trkpt lat="38.18264611" lon="-2.25474041">
        <ele>1276.0000</ele>
        <time>2018-10-14T13:52:20Z</time>
      </trkpt>
      <trkpt lat="38.18265507" lon="-2.25490847">
        <ele>1275.0000</ele>
        <time>2018-10-14T13:52:25Z</time>
      </trkpt>
      <trkpt lat="38.18268860" lon="-2.25514853">
        <ele>1274.0000</ele>
        <time>2018-10-14T13:52:32Z</time>
      </trkpt>
      <trkpt lat="38.18277829" lon="-2.25535221">
        <ele>1274.0000</ele>
        <time>2018-10-14T13:52:39Z</time>
      </trkpt>
      <trkpt lat="38.18296931" lon="-2.25555019">
        <ele>1273.0000</ele>
        <time>2018-10-14T13:52:46Z</time>
      </trkpt>
      <trkpt lat="38.18307031" lon="-2.25563334">
        <ele>1272.0000</ele>
        <time>2018-10-14T13:52:49Z</time>
      </trkpt>
      <trkpt lat="38.18310175" lon="-2.25565454">
        <ele>1272.0000</ele>
        <time>2018-10-14T13:52:50Z</time>
      </trkpt>
      <trkpt lat="38.18316461" lon="-2.25570660">
        <ele>1271.0000</ele>
        <time>2018-10-14T13:52:52Z</time>
      </trkpt>
      <trkpt lat="38.18322773" lon="-2.25576217">
        <ele>1271.0000</ele>
        <time>2018-10-14T13:52:54Z</time>
      </trkpt>
      <trkpt lat="38.18346435" lon="-2.25593291">
        <ele>1270.0000</ele>
        <time>2018-10-14T13:53:01Z</time>
      </trkpt>
      <trkpt lat="38.18372268" lon="-2.25592746">
        <ele>1269.0000</ele>
        <time>2018-10-14T13:53:09Z</time>
      </trkpt>
      <trkpt lat="38.18396483" lon="-2.25562672">
        <ele>1268.0000</ele>
        <time>2018-10-14T13:53:20Z</time>
      </trkpt>
      <trkpt lat="38.18400557" lon="-2.25548892">
        <ele>1268.0000</ele>
        <time>2018-10-14T13:53:24Z</time>
      </trkpt>
      <trkpt lat="38.18410498" lon="-2.25517988">
        <ele>1268.0000</ele>
        <time>2018-10-14T13:53:33Z</time>
      </trkpt>
      <trkpt lat="38.18420640" lon="-2.25472759">
        <ele>1268.0000</ele>
        <time>2018-10-14T13:53:44Z</time>
      </trkpt>
      <trkpt lat="38.18422878" lon="-2.25457102">
        <ele>1268.0000</ele>
        <time>2018-10-14T13:53:48Z</time>
      </trkpt>
      <trkpt lat="38.18425560" lon="-2.25407942">
        <ele>1268.0000</ele>
        <time>2018-10-14T13:54:01Z</time>
      </trkpt>
      <trkpt lat="38.18425853" lon="-2.25358975">
        <ele>1268.0000</ele>
        <time>2018-10-14T13:54:15Z</time>
      </trkpt>
      <trkpt lat="38.18426415" lon="-2.25313335">
        <ele>1268.0000</ele>
        <time>2018-10-14T13:54:28Z</time>
      </trkpt>
      <trkpt lat="38.18426666" lon="-2.25279472">
        <ele>1268.0000</ele>
        <time>2018-10-14T13:54:38Z</time>
      </trkpt>
      <trkpt lat="38.18437077" lon="-2.25211503">
        <ele>1268.0000</ele>
        <time>2018-10-14T13:54:58Z</time>
      </trkpt>
      <trkpt lat="38.18450463" lon="-2.25142856">
        <ele>1269.0000</ele>
        <time>2018-10-14T13:55:18Z</time>
      </trkpt>
      <trkpt lat="38.18454343" lon="-2.25071224">
        <ele>1270.0000</ele>
        <time>2018-10-14T13:55:38Z</time>
      </trkpt>
      <trkpt lat="38.18451854" lon="-2.25000506">
        <ele>1270.0000</ele>
        <time>2018-10-14T13:55:57Z</time>
      </trkpt>
      <trkpt lat="38.18451242" lon="-2.24930349">
        <ele>1271.0000</ele>
        <time>2018-10-14T13:56:15Z</time>
      </trkpt>
      <trkpt lat="38.18463413" lon="-2.24861358">
        <ele>1271.0000</ele>
        <time>2018-10-14T13:56:34Z</time>
      </trkpt>
      <trkpt lat="38.18465030" lon="-2.24854493">
        <ele>1271.0000</ele>
        <time>2018-10-14T13:56:36Z</time>
      </trkpt>
      <trkpt lat="38.18477771" lon="-2.24784202">
        <ele>1271.0000</ele>
        <time>2018-10-14T13:56:56Z</time>
      </trkpt>
      <trkpt lat="38.18485432" lon="-2.24712671">
        <ele>1271.0000</ele>
        <time>2018-10-14T13:57:15Z</time>
      </trkpt>
      <trkpt lat="38.18490277" lon="-2.24643286">
        <ele>1271.0000</ele>
        <time>2018-10-14T13:57:33Z</time>
      </trkpt>
      <trkpt lat="38.18493822" lon="-2.24573322">
        <ele>1271.0000</ele>
        <time>2018-10-14T13:57:52Z</time>
      </trkpt>
      <trkpt lat="38.18495465" lon="-2.24541814">
        <ele>1272.0000</ele>
        <time>2018-10-14T13:58:01Z</time>
      </trkpt>
      <trkpt lat="38.18499430" lon="-2.24496720">
        <ele>1273.0000</ele>
        <time>2018-10-14T13:58:13Z</time>
      </trkpt>
      <trkpt lat="38.18500192" lon="-2.24488564">
        <ele>1273.0000</ele>
        <time>2018-10-14T13:58:15Z</time>
      </trkpt>
      <trkpt lat="38.18506554" lon="-2.24419782">
        <ele>1274.0000</ele>
        <time>2018-10-14T13:58:33Z</time>
      </trkpt>
      <trkpt lat="38.18507786" lon="-2.24404762">
        <ele>1274.0000</ele>
        <time>2018-10-14T13:58:37Z</time>
      </trkpt>
      <trkpt lat="38.18518272" lon="-2.24347547">
        <ele>1274.0000</ele>
        <time>2018-10-14T13:58:53Z</time>
      </trkpt>
      <trkpt lat="38.18526788" lon="-2.24312410">
        <ele>1274.0000</ele>
        <time>2018-10-14T13:59:02Z</time>
      </trkpt>
      <trkpt lat="38.18533888" lon="-2.24278220">
        <ele>1273.0000</ele>
        <time>2018-10-14T13:59:10Z</time>
      </trkpt>
      <trkpt lat="38.18543041" lon="-2.24242379">
        <ele>1273.0000</ele>
        <time>2018-10-14T13:59:19Z</time>
      </trkpt>
      <trkpt lat="38.18544231" lon="-2.24234467">
        <ele>1273.0000</ele>
        <time>2018-10-14T13:59:21Z</time>
      </trkpt>
      <trkpt lat="38.18554583" lon="-2.24189230">
        <ele>1272.0000</ele>
        <time>2018-10-14T13:59:33Z</time>
      </trkpt>
      <trkpt lat="38.18558564" lon="-2.24162978">
        <ele>1271.0000</ele>
        <time>2018-10-14T13:59:40Z</time>
      </trkpt>
      <trkpt lat="38.18561439" lon="-2.24139500">
        <ele>1270.0000</ele>
        <time>2018-10-14T13:59:46Z</time>
      </trkpt>
      <trkpt lat="38.18565328" lon="-2.24096953">
        <ele>1270.0000</ele>
        <time>2018-10-14T13:59:57Z</time>
      </trkpt>
      <trkpt lat="38.18571547" lon="-2.24054373">
        <ele>1271.0000</ele>
        <time>2018-10-14T14:00:08Z</time>
      </trkpt>
      <trkpt lat="38.18573274" lon="-2.24015548">
        <ele>1272.0000</ele>
        <time>2018-10-14T14:00:18Z</time>
      </trkpt>
      <trkpt lat="38.18567692" lon="-2.23978132">
        <ele>1273.0000</ele>
        <time>2018-10-14T14:00:28Z</time>
      </trkpt>
      <trkpt lat="38.18564414" lon="-2.23954847">
        <ele>1274.0000</ele>
        <time>2018-10-14T14:00:34Z</time>
      </trkpt>
      <trkpt lat="38.18563962" lon="-2.23950790">
        <ele>1274.0000</ele>
        <time>2018-10-14T14:00:35Z</time>
      </trkpt>
      <trkpt lat="38.18561439" lon="-2.23922140">
        <ele>1275.0000</ele>
        <time>2018-10-14T14:00:42Z</time>
      </trkpt>
      <trkpt lat="38.18560467" lon="-2.23905511">
        <ele>1276.0000</ele>
        <time>2018-10-14T14:00:46Z</time>
      </trkpt>
      <trkpt lat="38.18561674" lon="-2.23888931">
        <ele>1276.0000</ele>
        <time>2018-10-14T14:00:50Z</time>
      </trkpt>
      <trkpt lat="38.18567197" lon="-2.23857818">
        <ele>1277.0000</ele>
        <time>2018-10-14T14:00:58Z</time>
      </trkpt>
      <trkpt lat="38.18569628" lon="-2.23833158">
        <ele>1278.0000</ele>
        <time>2018-10-14T14:01:04Z</time>
      </trkpt>
      <trkpt lat="38.18572034" lon="-2.23820786">
        <ele>1278.0000</ele>
        <time>2018-10-14T14:01:07Z</time>
      </trkpt>
      <trkpt lat="38.18575655" lon="-2.23796831">
        <ele>1279.0000</ele>
        <time>2018-10-14T14:01:13Z</time>
      </trkpt>
      <trkpt lat="38.18581623" lon="-2.23769523">
        <ele>1280.0000</ele>
        <time>2018-10-14T14:01:20Z</time>
      </trkpt>
      <trkpt lat="38.18593491" lon="-2.23733061">
        <ele>1281.0000</ele>
        <time>2018-10-14T14:01:29Z</time>
      </trkpt>
      <trkpt lat="38.18601865" lon="-2.23707891">
        <ele>1282.0000</ele>
        <time>2018-10-14T14:01:36Z</time>
      </trkpt>
      <trkpt lat="38.18607707" lon="-2.23657432">
        <ele>1283.0000</ele>
        <time>2018-10-14T14:01:49Z</time>
      </trkpt>
      <trkpt lat="38.18595578" lon="-2.23587728">
        <ele>1283.0000</ele>
        <time>2018-10-14T14:02:07Z</time>
      </trkpt>
      <trkpt lat="38.18580566" lon="-2.23533354">
        <ele>1281.0000</ele>
        <time>2018-10-14T14:02:22Z</time>
      </trkpt>
      <trkpt lat="38.18579192" lon="-2.23510044">
        <ele>1280.0000</ele>
        <time>2018-10-14T14:02:28Z</time>
      </trkpt>
      <trkpt lat="38.18578446" lon="-2.23490699">
        <ele>1279.0000</ele>
        <time>2018-10-14T14:02:33Z</time>
      </trkpt>
      <trkpt lat="38.18577893" lon="-2.23463575">
        <ele>1278.0000</ele>
        <time>2018-10-14T14:02:40Z</time>
      </trkpt>
      <trkpt lat="38.18575663" lon="-2.23415681">
        <ele>1277.0000</ele>
        <time>2018-10-14T14:02:52Z</time>
      </trkpt>
      <trkpt lat="38.18574749" lon="-2.23394927">
        <ele>1276.0000</ele>
        <time>2018-10-14T14:02:57Z</time>
      </trkpt>
      <trkpt lat="38.18577473" lon="-2.23365515">
        <ele>1275.0000</ele>
        <time>2018-10-14T14:03:05Z</time>
      </trkpt>
      <trkpt lat="38.18581840" lon="-2.23345725">
        <ele>1274.0000</ele>
        <time>2018-10-14T14:03:11Z</time>
      </trkpt>
      <trkpt lat="38.18591723" lon="-2.23317218">
        <ele>1272.0000</ele>
        <time>2018-10-14T14:03:20Z</time>
      </trkpt>
      <trkpt lat="38.18612300" lon="-2.23271965">
        <ele>1271.0000</ele>
        <time>2018-10-14T14:03:35Z</time>
      </trkpt>
      <trkpt lat="38.18623155" lon="-2.23254497">
        <ele>1270.0000</ele>
        <time>2018-10-14T14:03:42Z</time>
      </trkpt>
      <trkpt lat="38.18626122" lon="-2.23249350">
        <ele>1270.0000</ele>
        <time>2018-10-14T14:03:46Z</time>
      </trkpt>
      <trkpt lat="38.18629408" lon="-2.23246693">
        <ele>1259.0000</ele>
        <time>2018-10-14T14:05:35Z</time>
      </trkpt>
      <trkpt lat="38.18631243" lon="-2.23244338">
        <ele>1259.0000</ele>
        <time>2018-10-14T14:05:36Z</time>
      </trkpt>
      <trkpt lat="38.18635946" lon="-2.23239342">
        <ele>1259.0000</ele>
        <time>2018-10-14T14:05:38Z</time>
      </trkpt>
      <trkpt lat="38.18641520" lon="-2.23234548">
        <ele>1258.0000</ele>
        <time>2018-10-14T14:05:40Z</time>
      </trkpt>
      <trkpt lat="38.18649524" lon="-2.23229016">
        <ele>1258.0000</ele>
        <time>2018-10-14T14:05:43Z</time>
      </trkpt>
      <trkpt lat="38.18666841" lon="-2.23217273">
        <ele>1257.0000</ele>
        <time>2018-10-14T14:05:49Z</time>
      </trkpt>
      <trkpt lat="38.18679959" lon="-2.23208866">
        <ele>1257.0000</ele>
        <time>2018-10-14T14:05:54Z</time>
      </trkpt>
      <trkpt lat="38.18694971" lon="-2.23198472">
        <ele>1257.0000</ele>
        <time>2018-10-14T14:06:00Z</time>
      </trkpt>
      <trkpt lat="38.18709338" lon="-2.23188296">
        <ele>1255.0000</ele>
        <time>2018-10-14T14:06:06Z</time>
      </trkpt>
      <trkpt lat="38.18718876" lon="-2.23179755">
        <ele>1254.0000</ele>
        <time>2018-10-14T14:06:10Z</time>
      </trkpt>
      <trkpt lat="38.18725012" lon="-2.23172186">
        <ele>1253.0000</ele>
        <time>2018-10-14T14:06:13Z</time>
      </trkpt>
      <trkpt lat="38.18730686" lon="-2.23163972">
        <ele>1252.0000</ele>
        <time>2018-10-14T14:06:16Z</time>
      </trkpt>
      <trkpt lat="38.18735464" lon="-2.23154752">
        <ele>1250.0000</ele>
        <time>2018-10-14T14:06:19Z</time>
      </trkpt>
      <trkpt lat="38.18739898" lon="-2.23145213">
        <ele>1249.0000</ele>
        <time>2018-10-14T14:06:22Z</time>
      </trkpt>
      <trkpt lat="38.18743770" lon="-2.23135549">
        <ele>1248.0000</ele>
        <time>2018-10-14T14:06:25Z</time>
      </trkpt>
      <trkpt lat="38.18747006" lon="-2.23125633">
        <ele>1246.0000</ele>
        <time>2018-10-14T14:06:28Z</time>
      </trkpt>
      <trkpt lat="38.18750719" lon="-2.23115575">
        <ele>1244.0000</ele>
        <time>2018-10-14T14:06:31Z</time>
      </trkpt>
      <trkpt lat="38.18752806" lon="-2.23108886">
        <ele>1243.0000</ele>
        <time>2018-10-14T14:06:33Z</time>
      </trkpt>
      <trkpt lat="38.18755581" lon="-2.23098652">
        <ele>1242.0000</ele>
        <time>2018-10-14T14:06:36Z</time>
      </trkpt>
      <trkpt lat="38.18758137" lon="-2.23088024">
        <ele>1240.0000</ele>
        <time>2018-10-14T14:06:39Z</time>
      </trkpt>
      <trkpt lat="38.18759487" lon="-2.23076775">
        <ele>1239.0000</ele>
        <time>2018-10-14T14:06:42Z</time>
      </trkpt>
      <trkpt lat="38.18759998" lon="-2.23069030">
        <ele>1237.0000</ele>
        <time>2018-10-14T14:06:44Z</time>
      </trkpt>
      <trkpt lat="38.18761054" lon="-2.23061403">
        <ele>1236.0000</ele>
        <time>2018-10-14T14:06:46Z</time>
      </trkpt>
      <trkpt lat="38.18761247" lon="-2.23057522">
        <ele>1235.0000</ele>
        <time>2018-10-14T14:06:47Z</time>
      </trkpt>
      <trkpt lat="38.18761339" lon="-2.23049802">
        <ele>1234.0000</ele>
        <time>2018-10-14T14:06:49Z</time>
      </trkpt>
      <trkpt lat="38.18762496" lon="-2.23042217">
        <ele>1233.0000</ele>
        <time>2018-10-14T14:06:51Z</time>
      </trkpt>
      <trkpt lat="38.18763619" lon="-2.23034581">
        <ele>1232.0000</ele>
        <time>2018-10-14T14:06:53Z</time>
      </trkpt>
      <trkpt lat="38.18764390" lon="-2.23026693">
        <ele>1230.0000</ele>
        <time>2018-10-14T14:06:55Z</time>
      </trkpt>
      <trkpt lat="38.18766267" lon="-2.23019124">
        <ele>1229.0000</ele>
        <time>2018-10-14T14:06:57Z</time>
      </trkpt>
      <trkpt lat="38.18768338" lon="-2.23011556">
        <ele>1228.0000</ele>
        <time>2018-10-14T14:06:59Z</time>
      </trkpt>
      <trkpt lat="38.18770391" lon="-2.23003853">
        <ele>1227.0000</ele>
        <time>2018-10-14T14:07:01Z</time>
      </trkpt>
      <trkpt lat="38.18773400" lon="-2.22992126">
        <ele>1225.0000</ele>
        <time>2018-10-14T14:07:04Z</time>
      </trkpt>
      <trkpt lat="38.18776745" lon="-2.22980341">
        <ele>1224.0000</ele>
        <time>2018-10-14T14:07:07Z</time>
      </trkpt>
      <trkpt lat="38.18779394" lon="-2.22969286">
        <ele>1223.0000</ele>
        <time>2018-10-14T14:07:10Z</time>
      </trkpt>
      <trkpt lat="38.18780601" lon="-2.22957710">
        <ele>1221.0000</ele>
        <time>2018-10-14T14:07:13Z</time>
      </trkpt>
      <trkpt lat="38.18783308" lon="-2.22946864">
        <ele>1220.0000</ele>
        <time>2018-10-14T14:07:16Z</time>
      </trkpt>
      <trkpt lat="38.18785898" lon="-2.22935909">
        <ele>1219.0000</ele>
        <time>2018-10-14T14:07:19Z</time>
      </trkpt>
      <trkpt lat="38.18787750" lon="-2.22928793">
        <ele>1217.0000</ele>
        <time>2018-10-14T14:07:21Z</time>
      </trkpt>
      <trkpt lat="38.18789536" lon="-2.22917444">
        <ele>1216.0000</ele>
        <time>2018-10-14T14:07:24Z</time>
      </trkpt>
      <trkpt lat="38.18791497" lon="-2.22905390">
        <ele>1214.0000</ele>
        <time>2018-10-14T14:07:27Z</time>
      </trkpt>
      <trkpt lat="38.18792478" lon="-2.22897193">
        <ele>1213.0000</ele>
        <time>2018-10-14T14:07:29Z</time>
      </trkpt>
      <trkpt lat="38.18794129" lon="-2.22885240">
        <ele>1212.0000</ele>
        <time>2018-10-14T14:07:32Z</time>
      </trkpt>
      <trkpt lat="38.18794875" lon="-2.22873707">
        <ele>1210.0000</ele>
        <time>2018-10-14T14:07:35Z</time>
      </trkpt>
      <trkpt lat="38.18794297" lon="-2.22858460">
        <ele>1209.0000</ele>
        <time>2018-10-14T14:07:39Z</time>
      </trkpt>
      <trkpt lat="38.18792696" lon="-2.22847279">
        <ele>1207.0000</ele>
        <time>2018-10-14T14:07:42Z</time>
      </trkpt>
      <trkpt lat="38.18790843" lon="-2.22835611">
        <ele>1206.0000</ele>
        <time>2018-10-14T14:07:45Z</time>
      </trkpt>
      <trkpt lat="38.18787951" lon="-2.22823407">
        <ele>1204.0000</ele>
        <time>2018-10-14T14:07:48Z</time>
      </trkpt>
      <trkpt lat="38.18785068" lon="-2.22810029">
        <ele>1202.0000</ele>
        <time>2018-10-14T14:07:51Z</time>
      </trkpt>
      <trkpt lat="38.18781824" lon="-2.22796560">
        <ele>1201.0000</ele>
        <time>2018-10-14T14:07:54Z</time>
      </trkpt>
      <trkpt lat="38.18778396" lon="-2.22783593">
        <ele>1200.0000</ele>
        <time>2018-10-14T14:07:57Z</time>
      </trkpt>
      <trkpt lat="38.18774540" lon="-2.22767366">
        <ele>1199.0000</ele>
        <time>2018-10-14T14:08:01Z</time>
      </trkpt>
      <trkpt lat="38.18772872" lon="-2.22759730">
        <ele>1198.0000</ele>
        <time>2018-10-14T14:08:03Z</time>
      </trkpt>
      <trkpt lat="38.18769679" lon="-2.22744843">
        <ele>1196.0000</ele>
        <time>2018-10-14T14:08:07Z</time>
      </trkpt>
      <trkpt lat="38.18767718" lon="-2.22734064">
        <ele>1195.0000</ele>
        <time>2018-10-14T14:08:10Z</time>
      </trkpt>
      <trkpt lat="38.18764004" lon="-2.22720368">
        <ele>1194.0000</ele>
        <time>2018-10-14T14:08:14Z</time>
      </trkpt>
      <trkpt lat="38.18762890" lon="-2.22713738">
        <ele>1193.0000</ele>
        <time>2018-10-14T14:08:16Z</time>
      </trkpt>
      <trkpt lat="38.18761691" lon="-2.22707267">
        <ele>1192.0000</ele>
        <time>2018-10-14T14:08:18Z</time>
      </trkpt>
      <trkpt lat="38.18759210" lon="-2.22698173">
        <ele>1191.0000</ele>
        <time>2018-10-14T14:08:21Z</time>
      </trkpt>
      <trkpt lat="38.18757307" lon="-2.22689162">
        <ele>1189.0000</ele>
        <time>2018-10-14T14:08:24Z</time>
      </trkpt>
      <trkpt lat="38.18754223" lon="-2.22677377">
        <ele>1188.0000</ele>
        <time>2018-10-14T14:08:28Z</time>
      </trkpt>
      <trkpt lat="38.18752974" lon="-2.22671242">
        <ele>1187.0000</ele>
        <time>2018-10-14T14:08:30Z</time>
      </trkpt>
      <trkpt lat="38.18750048" lon="-2.22658325">
        <ele>1185.0000</ele>
        <time>2018-10-14T14:08:34Z</time>
      </trkpt>
      <trkpt lat="38.18747593" lon="-2.22648091">
        <ele>1183.0000</ele>
        <time>2018-10-14T14:08:37Z</time>
      </trkpt>
      <trkpt lat="38.18744483" lon="-2.22630070">
        <ele>1182.0000</ele>
        <time>2018-10-14T14:08:42Z</time>
      </trkpt>
      <trkpt lat="38.18741340" lon="-2.22619584">
        <ele>1181.0000</ele>
        <time>2018-10-14T14:08:45Z</time>
      </trkpt>
      <trkpt lat="38.18738817" lon="-2.22609300">
        <ele>1179.0000</ele>
        <time>2018-10-14T14:08:48Z</time>
      </trkpt>
      <trkpt lat="38.18737249" lon="-2.22599359">
        <ele>1178.0000</ele>
        <time>2018-10-14T14:08:51Z</time>
      </trkpt>
      <trkpt lat="38.18734919" lon="-2.22589745">
        <ele>1176.0000</ele>
        <time>2018-10-14T14:08:54Z</time>
      </trkpt>
      <trkpt lat="38.18732631" lon="-2.22579376">
        <ele>1174.0000</ele>
        <time>2018-10-14T14:08:57Z</time>
      </trkpt>
      <trkpt lat="38.18730209" lon="-2.22568522">
        <ele>1173.0000</ele>
        <time>2018-10-14T14:09:00Z</time>
      </trkpt>
      <trkpt lat="38.18728842" lon="-2.22561070">
        <ele>1172.0000</ele>
        <time>2018-10-14T14:09:02Z</time>
      </trkpt>
      <trkpt lat="38.18727158" lon="-2.22553669">
        <ele>1170.0000</ele>
        <time>2018-10-14T14:09:04Z</time>
      </trkpt>
      <trkpt lat="38.18723939" lon="-2.22542965">
        <ele>1169.0000</ele>
        <time>2018-10-14T14:09:07Z</time>
      </trkpt>
      <trkpt lat="38.18721290" lon="-2.22531809">
        <ele>1167.0000</ele>
        <time>2018-10-14T14:09:10Z</time>
      </trkpt>
      <trkpt lat="38.18718457" lon="-2.22521164">
        <ele>1165.0000</ele>
        <time>2018-10-14T14:09:13Z</time>
      </trkpt>
      <trkpt lat="38.18714903" lon="-2.22510519">
        <ele>1164.0000</ele>
        <time>2018-10-14T14:09:16Z</time>
      </trkpt>
      <trkpt lat="38.18711173" lon="-2.22499446">
        <ele>1162.0000</ele>
        <time>2018-10-14T14:09:19Z</time>
      </trkpt>
      <trkpt lat="38.18706337" lon="-2.22488936">
        <ele>1160.0000</ele>
        <time>2018-10-14T14:09:22Z</time>
      </trkpt>
      <trkpt lat="38.18702372" lon="-2.22478584">
        <ele>1159.0000</ele>
        <time>2018-10-14T14:09:25Z</time>
      </trkpt>
      <trkpt lat="38.18697812" lon="-2.22468752">
        <ele>1157.0000</ele>
        <time>2018-10-14T14:09:28Z</time>
      </trkpt>
      <trkpt lat="38.18692205" lon="-2.22458258">
        <ele>1156.0000</ele>
        <time>2018-10-14T14:09:31Z</time>
      </trkpt>
      <trkpt lat="38.18684678" lon="-2.22446808">
        <ele>1156.0000</ele>
        <time>2018-10-14T14:09:34Z</time>
      </trkpt>
      <trkpt lat="38.18678534" lon="-2.22437320">
        <ele>1155.0000</ele>
        <time>2018-10-14T14:09:36Z</time>
      </trkpt>
      <trkpt lat="38.18671611" lon="-2.22425996">
        <ele>1155.0000</ele>
        <time>2018-10-14T14:09:38Z</time>
      </trkpt>
      <trkpt lat="38.18643758" lon="-2.22384447">
        <ele>1155.0000</ele>
        <time>2018-10-14T14:09:44Z</time>
      </trkpt>
      <trkpt lat="38.18627388" lon="-2.22359544">
        <ele>1154.0000</ele>
        <time>2018-10-14T14:09:47Z</time>
      </trkpt>
      <trkpt lat="38.18596886" lon="-2.22313100">
        <ele>1155.0000</ele>
        <time>2018-10-14T14:09:52Z</time>
      </trkpt>
      <trkpt lat="38.18577004" lon="-2.22282204">
        <ele>1155.0000</ele>
        <time>2018-10-14T14:09:55Z</time>
      </trkpt>
      <trkpt lat="38.18548019" lon="-2.22238392">
        <ele>1155.0000</ele>
        <time>2018-10-14T14:09:59Z</time>
      </trkpt>
      <trkpt lat="38.18540610" lon="-2.22227043">
        <ele>1155.0000</ele>
        <time>2018-10-14T14:10:00Z</time>
      </trkpt>
      <trkpt lat="38.18525623" lon="-2.22204060">
        <ele>1155.0000</ele>
        <time>2018-10-14T14:10:02Z</time>
      </trkpt>
      <trkpt lat="38.18487586" lon="-2.22145521">
        <ele>1155.0000</ele>
        <time>2018-10-14T14:10:07Z</time>
      </trkpt>
      <trkpt lat="38.18480059" lon="-2.22133845">
        <ele>1155.0000</ele>
        <time>2018-10-14T14:10:08Z</time>
      </trkpt>
      <trkpt lat="38.18441988" lon="-2.22076873">
        <ele>1156.0000</ele>
        <time>2018-10-14T14:10:13Z</time>
      </trkpt>
      <trkpt lat="38.18403566" lon="-2.22018845">
        <ele>1156.0000</ele>
        <time>2018-10-14T14:10:18Z</time>
      </trkpt>
      <trkpt lat="38.18380482" lon="-2.21984135">
        <ele>1155.0000</ele>
        <time>2018-10-14T14:10:21Z</time>
      </trkpt>
      <trkpt lat="38.18349117" lon="-2.21937214">
        <ele>1154.0000</ele>
        <time>2018-10-14T14:10:25Z</time>
      </trkpt>
      <trkpt lat="38.18317199" lon="-2.21888925">
        <ele>1152.0000</ele>
        <time>2018-10-14T14:10:29Z</time>
      </trkpt>
      <trkpt lat="38.18284409" lon="-2.21839405">
        <ele>1150.0000</ele>
        <time>2018-10-14T14:10:33Z</time>
      </trkpt>
      <trkpt lat="38.18259037" lon="-2.21801544">
        <ele>1149.0000</ele>
        <time>2018-10-14T14:10:36Z</time>
      </trkpt>
      <trkpt lat="38.18231695" lon="-2.21764722">
        <ele>1147.0000</ele>
        <time>2018-10-14T14:10:39Z</time>
      </trkpt>
      <trkpt lat="38.18212064" lon="-2.21741328">
        <ele>1146.0000</ele>
        <time>2018-10-14T14:10:41Z</time>
      </trkpt>
      <trkpt lat="38.18181730" lon="-2.21708295">
        <ele>1145.0000</ele>
        <time>2018-10-14T14:10:44Z</time>
      </trkpt>
      <trkpt lat="38.18161949" lon="-2.21686704">
        <ele>1143.0000</ele>
        <time>2018-10-14T14:10:46Z</time>
      </trkpt>
      <trkpt lat="38.18143056" lon="-2.21665816">
        <ele>1141.0000</ele>
        <time>2018-10-14T14:10:48Z</time>
      </trkpt>
      <trkpt lat="38.18125831" lon="-2.21646898">
        <ele>1140.0000</ele>
        <time>2018-10-14T14:10:50Z</time>
      </trkpt>
      <trkpt lat="38.18110601" lon="-2.21629614">
        <ele>1139.0000</ele>
        <time>2018-10-14T14:10:52Z</time>
      </trkpt>
      <trkpt lat="38.18092673" lon="-2.21604770">
        <ele>1137.0000</ele>
        <time>2018-10-14T14:10:55Z</time>
      </trkpt>
      <trkpt lat="38.18087090" lon="-2.21585886">
        <ele>1135.0000</ele>
        <time>2018-10-14T14:10:57Z</time>
      </trkpt>
      <trkpt lat="38.18089362" lon="-2.21566515">
        <ele>1133.0000</ele>
        <time>2018-10-14T14:10:59Z</time>
      </trkpt>
      <trkpt lat="38.18099244" lon="-2.21552182">
        <ele>1131.0000</ele>
        <time>2018-10-14T14:11:01Z</time>
      </trkpt>
      <trkpt lat="38.18112856" lon="-2.21548452">
        <ele>1130.0000</ele>
        <time>2018-10-14T14:11:03Z</time>
      </trkpt>
      <trkpt lat="38.18127089" lon="-2.21554957">
        <ele>1129.0000</ele>
        <time>2018-10-14T14:11:05Z</time>
      </trkpt>
      <trkpt lat="38.18140324" lon="-2.21567370">
        <ele>1127.0000</ele>
        <time>2018-10-14T14:11:07Z</time>
      </trkpt>
      <trkpt lat="38.18154045" lon="-2.21580270">
        <ele>1126.0000</ele>
        <time>2018-10-14T14:11:09Z</time>
      </trkpt>
      <trkpt lat="38.18170230" lon="-2.21587956">
        <ele>1125.0000</ele>
        <time>2018-10-14T14:11:11Z</time>
      </trkpt>
      <trkpt lat="38.18187279" lon="-2.21587303">
        <ele>1123.0000</ele>
        <time>2018-10-14T14:11:13Z</time>
      </trkpt>
      <trkpt lat="38.18200883" lon="-2.21580555">
        <ele>1122.0000</ele>
        <time>2018-10-14T14:11:15Z</time>
      </trkpt>
      <trkpt lat="38.18209365" lon="-2.21568955">
        <ele>1121.0000</ele>
        <time>2018-10-14T14:11:17Z</time>
      </trkpt>
      <trkpt lat="38.18209944" lon="-2.21554077">
        <ele>1119.0000</ele>
        <time>2018-10-14T14:11:19Z</time>
      </trkpt>
      <trkpt lat="38.18204814" lon="-2.21538746">
        <ele>1118.0000</ele>
        <time>2018-10-14T14:11:21Z</time>
      </trkpt>
      <trkpt lat="38.18197002" lon="-2.21523307">
        <ele>1116.0000</ele>
        <time>2018-10-14T14:11:23Z</time>
      </trkpt>
      <trkpt lat="38.18188528" lon="-2.21506677">
        <ele>1115.0000</ele>
        <time>2018-10-14T14:11:25Z</time>
      </trkpt>
      <trkpt lat="38.18184681" lon="-2.21497541">
        <ele>1114.0000</ele>
        <time>2018-10-14T14:11:26Z</time>
      </trkpt>
      <trkpt lat="38.18181646" lon="-2.21487508">
        <ele>1113.0000</ele>
        <time>2018-10-14T14:11:27Z</time>
      </trkpt>
      <trkpt lat="38.18178537" lon="-2.21465279">
        <ele>1112.0000</ele>
        <time>2018-10-14T14:11:29Z</time>
      </trkpt>
      <trkpt lat="38.18177699" lon="-2.21453469">
        <ele>1111.0000</ele>
        <time>2018-10-14T14:11:30Z</time>
      </trkpt>
      <trkpt lat="38.18176902" lon="-2.21441382">
        <ele>1110.0000</ele>
        <time>2018-10-14T14:11:31Z</time>
      </trkpt>
      <trkpt lat="38.18175251" lon="-2.21416722">
        <ele>1108.0000</ele>
        <time>2018-10-14T14:11:33Z</time>
      </trkpt>
      <trkpt lat="38.18174421" lon="-2.21404150">
        <ele>1108.0000</ele>
        <time>2018-10-14T14:11:34Z</time>
      </trkpt>
      <trkpt lat="38.18173365" lon="-2.21391443">
        <ele>1107.0000</ele>
        <time>2018-10-14T14:11:35Z</time>
      </trkpt>
      <trkpt lat="38.18166257" lon="-2.21354395">
        <ele>1105.0000</ele>
        <time>2018-10-14T14:11:38Z</time>
      </trkpt>
      <trkpt lat="38.18159854" lon="-2.21330632">
        <ele>1104.0000</ele>
        <time>2018-10-14T14:11:40Z</time>
      </trkpt>
      <trkpt lat="38.18153508" lon="-2.21306702">
        <ele>1103.0000</ele>
        <time>2018-10-14T14:11:42Z</time>
      </trkpt>
      <trkpt lat="38.18148194" lon="-2.21282830">
        <ele>1101.0000</ele>
        <time>2018-10-14T14:11:44Z</time>
      </trkpt>
      <trkpt lat="38.18146778" lon="-2.21271062">
        <ele>1100.0000</ele>
        <time>2018-10-14T14:11:45Z</time>
      </trkpt>
      <trkpt lat="38.18146610" lon="-2.21259076">
        <ele>1100.0000</ele>
        <time>2018-10-14T14:11:46Z</time>
      </trkpt>
      <trkpt lat="38.18148186" lon="-2.21247123">
        <ele>1099.0000</ele>
        <time>2018-10-14T14:11:47Z</time>
      </trkpt>
      <trkpt lat="38.18156157" lon="-2.21225464">
        <ele>1098.0000</ele>
        <time>2018-10-14T14:11:49Z</time>
      </trkpt>
      <trkpt lat="38.18169694" lon="-2.21207762">
        <ele>1097.0000</ele>
        <time>2018-10-14T14:11:51Z</time>
      </trkpt>
      <trkpt lat="38.18176517" lon="-2.21198835">
        <ele>1097.0000</ele>
        <time>2018-10-14T14:11:52Z</time>
      </trkpt>
      <trkpt lat="38.18193130" lon="-2.21170152">
        <ele>1095.0000</ele>
        <time>2018-10-14T14:11:55Z</time>
      </trkpt>
      <trkpt lat="38.18204076" lon="-2.21151896">
        <ele>1094.0000</ele>
        <time>2018-10-14T14:11:57Z</time>
      </trkpt>
      <trkpt lat="38.18210313" lon="-2.21143749">
        <ele>1093.0000</ele>
        <time>2018-10-14T14:11:58Z</time>
      </trkpt>
      <trkpt lat="38.18230027" lon="-2.21121696">
        <ele>1092.0000</ele>
        <time>2018-10-14T14:12:01Z</time>
      </trkpt>
      <trkpt lat="38.18236447" lon="-2.21114664">
        <ele>1091.0000</ele>
        <time>2018-10-14T14:12:02Z</time>
      </trkpt>
      <trkpt lat="38.18242449" lon="-2.21107288">
        <ele>1091.0000</ele>
        <time>2018-10-14T14:12:03Z</time>
      </trkpt>
      <trkpt lat="38.18251904" lon="-2.21090599">
        <ele>1090.0000</ele>
        <time>2018-10-14T14:12:05Z</time>
      </trkpt>
      <trkpt lat="38.18258224" lon="-2.21064574">
        <ele>1089.0000</ele>
        <time>2018-10-14T14:12:08Z</time>
      </trkpt>
      <trkpt lat="38.18259623" lon="-2.21056929">
        <ele>1088.0000</ele>
        <time>2018-10-14T14:12:09Z</time>
      </trkpt>
      <trkpt lat="38.18262683" lon="-2.21043711">
        <ele>1088.0000</ele>
        <time>2018-10-14T14:12:11Z</time>
      </trkpt>
      <trkpt lat="38.18266220" lon="-2.21032613">
        <ele>1087.0000</ele>
        <time>2018-10-14T14:12:13Z</time>
      </trkpt>
      <trkpt lat="38.18269656" lon="-2.21023142">
        <ele>1086.0000</ele>
        <time>2018-10-14T14:12:15Z</time>
      </trkpt>
      <trkpt lat="38.18271484" lon="-2.21018867">
        <ele>1085.0000</ele>
        <time>2018-10-14T14:12:16Z</time>
      </trkpt>
      <trkpt lat="38.18284995" lon="-2.20992489">
        <ele>1084.0000</ele>
        <time>2018-10-14T14:12:23Z</time>
      </trkpt>
      <trkpt lat="38.18296294" lon="-2.20971744">
        <ele>1084.0000</ele>
        <time>2018-10-14T14:12:28Z</time>
      </trkpt>
      <trkpt lat="38.18321951" lon="-2.20925183">
        <ele>1083.0000</ele>
        <time>2018-10-14T14:12:38Z</time>
      </trkpt>
      <trkpt lat="38.18326880" lon="-2.20916340">
        <ele>1083.0000</ele>
        <time>2018-10-14T14:12:40Z</time>
      </trkpt>
      <trkpt lat="38.18336485" lon="-2.20888612">
        <ele>1082.0000</ele>
        <time>2018-10-14T14:12:45Z</time>
      </trkpt>
      <trkpt lat="38.18338019" lon="-2.20870608">
        <ele>1081.0000</ele>
        <time>2018-10-14T14:12:48Z</time>
      </trkpt>
      <trkpt lat="38.18337952" lon="-2.20810803">
        <ele>1081.0000</ele>
        <time>2018-10-14T14:13:00Z</time>
      </trkpt>
      <trkpt lat="38.18344012" lon="-2.20795791">
        <ele>1081.0000</ele>
        <time>2018-10-14T14:13:04Z</time>
      </trkpt>
      <trkpt lat="38.18353115" lon="-2.20784191">
        <ele>1081.0000</ele>
        <time>2018-10-14T14:13:08Z</time>
      </trkpt>
      <trkpt lat="38.18360969" lon="-2.20777041">
        <ele>1082.0000</ele>
        <time>2018-10-14T14:13:11Z</time>
      </trkpt>
      <trkpt lat="38.18367859" lon="-2.20770235">
        <ele>1083.0000</ele>
        <time>2018-10-14T14:13:14Z</time>
      </trkpt>
      <trkpt lat="38.18376308" lon="-2.20761442">
        <ele>1083.0000</ele>
        <time>2018-10-14T14:13:18Z</time>
      </trkpt>
      <trkpt lat="38.18387850" lon="-2.20747821">
        <ele>1084.0000</ele>
        <time>2018-10-14T14:13:24Z</time>
      </trkpt>
      <trkpt lat="38.18402334" lon="-2.20733304">
        <ele>1085.0000</ele>
        <time>2018-10-14T14:13:31Z</time>
      </trkpt>
      <trkpt lat="38.18410305" lon="-2.20724369">
        <ele>1085.0000</ele>
        <time>2018-10-14T14:13:35Z</time>
      </trkpt>
      <trkpt lat="38.18420288" lon="-2.20713120">
        <ele>1086.0000</ele>
        <time>2018-10-14T14:13:40Z</time>
      </trkpt>
      <trkpt lat="38.18429432" lon="-2.20701495">
        <ele>1087.0000</ele>
        <time>2018-10-14T14:13:45Z</time>
      </trkpt>
      <trkpt lat="38.18437823" lon="-2.20689316">
        <ele>1087.0000</ele>
        <time>2018-10-14T14:13:50Z</time>
      </trkpt>
      <trkpt lat="38.18443455" lon="-2.20678319">
        <ele>1088.0000</ele>
        <time>2018-10-14T14:13:54Z</time>
      </trkpt>
      <trkpt lat="38.18448384" lon="-2.20666894">
        <ele>1089.0000</ele>
        <time>2018-10-14T14:13:58Z</time>
      </trkpt>
      <trkpt lat="38.18453069" lon="-2.20655780">
        <ele>1089.0000</ele>
        <time>2018-10-14T14:14:02Z</time>
      </trkpt>
      <trkpt lat="38.18457453" lon="-2.20644615">
        <ele>1091.0000</ele>
        <time>2018-10-14T14:14:06Z</time>
      </trkpt>
      <trkpt lat="38.18460051" lon="-2.20635881">
        <ele>1091.0000</ele>
        <time>2018-10-14T14:14:09Z</time>
      </trkpt>
      <trkpt lat="38.18463815" lon="-2.20624792">
        <ele>1092.0000</ele>
        <time>2018-10-14T14:14:13Z</time>
      </trkpt>
      <trkpt lat="38.18466874" lon="-2.20616636">
        <ele>1093.0000</ele>
        <time>2018-10-14T14:14:16Z</time>
      </trkpt>
      <trkpt lat="38.18467847" lon="-2.20613812">
        <ele>1094.0000</ele>
        <time>2018-10-14T14:14:17Z</time>
      </trkpt>
      <trkpt lat="38.18469766" lon="-2.20608137">
        <ele>1095.0000</ele>
        <time>2018-10-14T14:14:19Z</time>
      </trkpt>
      <trkpt lat="38.18471903" lon="-2.20602337">
        <ele>1096.0000</ele>
        <time>2018-10-14T14:14:21Z</time>
      </trkpt>
      <trkpt lat="38.18473714" lon="-2.20596126">
        <ele>1097.0000</ele>
        <time>2018-10-14T14:14:23Z</time>
      </trkpt>
      <trkpt lat="38.18475508" lon="-2.20590007">
        <ele>1098.0000</ele>
        <time>2018-10-14T14:14:25Z</time>
      </trkpt>
      <trkpt lat="38.18477586" lon="-2.20583947">
        <ele>1099.0000</ele>
        <time>2018-10-14T14:14:27Z</time>
      </trkpt>
      <trkpt lat="38.18480269" lon="-2.20574811">
        <ele>1100.0000</ele>
        <time>2018-10-14T14:14:30Z</time>
      </trkpt>
      <trkpt lat="38.18485138" lon="-2.20562732">
        <ele>1101.0000</ele>
        <time>2018-10-14T14:14:34Z</time>
      </trkpt>
      <trkpt lat="38.18489531" lon="-2.20553998">
        <ele>1102.0000</ele>
        <time>2018-10-14T14:14:37Z</time>
      </trkpt>
      <trkpt lat="38.18495348" lon="-2.20546790">
        <ele>1103.0000</ele>
        <time>2018-10-14T14:14:40Z</time>
      </trkpt>
      <trkpt lat="38.18501383" lon="-2.20540395">
        <ele>1104.0000</ele>
        <time>2018-10-14T14:14:43Z</time>
      </trkpt>
      <trkpt lat="38.18508130" lon="-2.20534519">
        <ele>1105.0000</ele>
        <time>2018-10-14T14:14:46Z</time>
      </trkpt>
      <trkpt lat="38.18514978" lon="-2.20529900">
        <ele>1106.0000</ele>
        <time>2018-10-14T14:14:49Z</time>
      </trkpt>
      <trkpt lat="38.18519303" lon="-2.20526254">
        <ele>1107.0000</ele>
        <time>2018-10-14T14:14:51Z</time>
      </trkpt>
      <trkpt lat="38.18526495" lon="-2.20521703">
        <ele>1108.0000</ele>
        <time>2018-10-14T14:14:54Z</time>
      </trkpt>
      <trkpt lat="38.18533427" lon="-2.20517436">
        <ele>1109.0000</ele>
        <time>2018-10-14T14:14:57Z</time>
      </trkpt>
      <trkpt lat="38.18540157" lon="-2.20512634">
        <ele>1109.0000</ele>
        <time>2018-10-14T14:15:00Z</time>
      </trkpt>
      <trkpt lat="38.18546980" lon="-2.20508359">
        <ele>1110.0000</ele>
        <time>2018-10-14T14:15:03Z</time>
      </trkpt>
      <trkpt lat="38.18553828" lon="-2.20504067">
        <ele>1111.0000</ele>
        <time>2018-10-14T14:15:06Z</time>
      </trkpt>
      <trkpt lat="38.18560475" lon="-2.20499256">
        <ele>1112.0000</ele>
        <time>2018-10-14T14:15:09Z</time>
      </trkpt>
      <trkpt lat="38.18567214" lon="-2.20495384">
        <ele>1113.0000</ele>
        <time>2018-10-14T14:15:12Z</time>
      </trkpt>
      <trkpt lat="38.18576250" lon="-2.20491310">
        <ele>1113.0000</ele>
        <time>2018-10-14T14:15:16Z</time>
      </trkpt>
      <trkpt lat="38.18585805" lon="-2.20487052">
        <ele>1114.0000</ele>
        <time>2018-10-14T14:15:20Z</time>
      </trkpt>
      <trkpt lat="38.18595696" lon="-2.20485267">
        <ele>1115.0000</ele>
        <time>2018-10-14T14:15:24Z</time>
      </trkpt>
      <trkpt lat="38.18602854" lon="-2.20484076">
        <ele>1116.0000</ele>
        <time>2018-10-14T14:15:27Z</time>
      </trkpt>
      <trkpt lat="38.18614438" lon="-2.20485216">
        <ele>1116.0000</ele>
        <time>2018-10-14T14:15:32Z</time>
      </trkpt>
      <trkpt lat="38.18625552" lon="-2.20487622">
        <ele>1117.0000</ele>
        <time>2018-10-14T14:15:37Z</time>
      </trkpt>
      <trkpt lat="38.18636918" lon="-2.20489550">
        <ele>1118.0000</ele>
        <time>2018-10-14T14:15:42Z</time>
      </trkpt>
      <trkpt lat="38.18646004" lon="-2.20491788">
        <ele>1119.0000</ele>
        <time>2018-10-14T14:15:46Z</time>
      </trkpt>
      <trkpt lat="38.18657496" lon="-2.20491779">
        <ele>1119.0000</ele>
        <time>2018-10-14T14:15:51Z</time>
      </trkpt>
      <trkpt lat="38.18666079" lon="-2.20491377">
        <ele>1120.0000</ele>
        <time>2018-10-14T14:15:55Z</time>
      </trkpt>
      <trkpt lat="38.18674259" lon="-2.20490857">
        <ele>1121.0000</ele>
        <time>2018-10-14T14:15:59Z</time>
      </trkpt>
      <trkpt lat="38.18680252" lon="-2.20490748">
        <ele>1121.0000</ele>
        <time>2018-10-14T14:16:02Z</time>
      </trkpt>
      <trkpt lat="38.18689238" lon="-2.20491880">
        <ele>1122.0000</ele>
        <time>2018-10-14T14:16:06Z</time>
      </trkpt>
      <trkpt lat="38.18696212" lon="-2.20493682">
        <ele>1123.0000</ele>
        <time>2018-10-14T14:16:09Z</time>
      </trkpt>
      <trkpt lat="38.18710620" lon="-2.20496431">
        <ele>1124.0000</ele>
        <time>2018-10-14T14:16:14Z</time>
      </trkpt>
      <trkpt lat="38.18724601" lon="-2.20496918">
        <ele>1124.0000</ele>
        <time>2018-10-14T14:16:19Z</time>
      </trkpt>
      <trkpt lat="38.18740803" lon="-2.20497689">
        <ele>1125.0000</ele>
        <time>2018-10-14T14:16:24Z</time>
      </trkpt>
      <trkpt lat="38.18753041" lon="-2.20498468">
        <ele>1126.0000</ele>
        <time>2018-10-14T14:16:28Z</time>
      </trkpt>
      <trkpt lat="38.18761347" lon="-2.20499063">
        <ele>1127.0000</ele>
        <time>2018-10-14T14:16:31Z</time>
      </trkpt>
      <trkpt lat="38.18772185" lon="-2.20498443">
        <ele>1128.0000</ele>
        <time>2018-10-14T14:16:35Z</time>
      </trkpt>
      <trkpt lat="38.18780760" lon="-2.20497923">
        <ele>1129.0000</ele>
        <time>2018-10-14T14:16:38Z</time>
      </trkpt>
      <trkpt lat="38.18792620" lon="-2.20491888">
        <ele>1130.0000</ele>
        <time>2018-10-14T14:16:42Z</time>
      </trkpt>
      <trkpt lat="38.18796266" lon="-2.20471604">
        <ele>1130.0000</ele>
        <time>2018-10-14T14:16:47Z</time>
      </trkpt>
      <trkpt lat="38.18793509" lon="-2.20436660">
        <ele>1130.0000</ele>
        <time>2018-10-14T14:16:55Z</time>
      </trkpt>
      <trkpt lat="38.18813768" lon="-2.20395597">
        <ele>1130.0000</ele>
        <time>2018-10-14T14:17:07Z</time>
      </trkpt>
      <trkpt lat="38.18826399" lon="-2.20382488">
        <ele>1130.0000</ele>
        <time>2018-10-14T14:17:12Z</time>
      </trkpt>
      <trkpt lat="38.18843456" lon="-2.20371047">
        <ele>1131.0000</ele>
        <time>2018-10-14T14:17:18Z</time>
      </trkpt>
      <trkpt lat="38.18862508" lon="-2.20365607">
        <ele>1132.0000</ele>
        <time>2018-10-14T14:17:24Z</time>
      </trkpt>
      <trkpt lat="38.18869365" lon="-2.20364592">
        <ele>1133.0000</ele>
        <time>2018-10-14T14:17:26Z</time>
      </trkpt>
      <trkpt lat="38.18879784" lon="-2.20361525">
        <ele>1134.0000</ele>
        <time>2018-10-14T14:17:29Z</time>
      </trkpt>
      <trkpt lat="38.18889012" lon="-2.20353319">
        <ele>1135.0000</ele>
        <time>2018-10-14T14:17:32Z</time>
      </trkpt>
      <trkpt lat="38.18896522" lon="-2.20336706">
        <ele>1136.0000</ele>
        <time>2018-10-14T14:17:36Z</time>
      </trkpt>
      <trkpt lat="38.18908366" lon="-2.20301594">
        <ele>1136.0000</ele>
        <time>2018-10-14T14:17:43Z</time>
      </trkpt>
      <trkpt lat="38.18919195" lon="-2.20270992">
        <ele>1136.0000</ele>
        <time>2018-10-14T14:17:49Z</time>
      </trkpt>
      <trkpt lat="38.18927049" lon="-2.20252233">
        <ele>1136.0000</ele>
        <time>2018-10-14T14:17:53Z</time>
      </trkpt>
      <trkpt lat="38.18932238" lon="-2.20238520">
        <ele>1136.0000</ele>
        <time>2018-10-14T14:17:56Z</time>
      </trkpt>
      <trkpt lat="38.18939890" lon="-2.20217406">
        <ele>1136.0000</ele>
        <time>2018-10-14T14:18:00Z</time>
      </trkpt>
      <trkpt lat="38.18943528" lon="-2.20207960">
        <ele>1136.0000</ele>
        <time>2018-10-14T14:18:02Z</time>
      </trkpt>
      <trkpt lat="38.18950166" lon="-2.20187684">
        <ele>1136.0000</ele>
        <time>2018-10-14T14:18:06Z</time>
      </trkpt>
      <trkpt lat="38.18967869" lon="-2.20140905">
        <ele>1137.0000</ele>
        <time>2018-10-14T14:18:14Z</time>
      </trkpt>
      <trkpt lat="38.18979771" lon="-2.20109095">
        <ele>1137.0000</ele>
        <time>2018-10-14T14:18:19Z</time>
      </trkpt>
      <trkpt lat="38.18988832" lon="-2.20076481">
        <ele>1137.0000</ele>
        <time>2018-10-14T14:18:24Z</time>
      </trkpt>
      <trkpt lat="38.18989318" lon="-2.20069466">
        <ele>1137.0000</ele>
        <time>2018-10-14T14:18:25Z</time>
      </trkpt>
      <trkpt lat="38.18983669" lon="-2.20044110">
        <ele>1136.0000</ele>
        <time>2018-10-14T14:18:29Z</time>
      </trkpt>
      <trkpt lat="38.18979679" lon="-2.20032476">
        <ele>1136.0000</ele>
        <time>2018-10-14T14:18:31Z</time>
      </trkpt>
      <trkpt lat="38.19010516" lon="-2.19978170">
        <ele>1136.0000</ele>
        <time>2018-10-14T14:18:42Z</time>
      </trkpt>
      <trkpt lat="38.19031488" lon="-2.19969872">
        <ele>1136.0000</ele>
        <time>2018-10-14T14:18:46Z</time>
      </trkpt>
      <trkpt lat="38.19049567" lon="-2.19960928">
        <ele>1137.0000</ele>
        <time>2018-10-14T14:18:50Z</time>
      </trkpt>
      <trkpt lat="38.19059274" lon="-2.19950535">
        <ele>1138.0000</ele>
        <time>2018-10-14T14:18:53Z</time>
      </trkpt>
      <trkpt lat="38.19066382" lon="-2.19936621">
        <ele>1139.0000</ele>
        <time>2018-10-14T14:18:56Z</time>
      </trkpt>
      <trkpt lat="38.19068184" lon="-2.19931550">
        <ele>1139.0000</ele>
        <time>2018-10-14T14:18:57Z</time>
      </trkpt>
      <trkpt lat="38.19072551" lon="-2.19915415">
        <ele>1140.0000</ele>
        <time>2018-10-14T14:19:00Z</time>
      </trkpt>
      <trkpt lat="38.19073908" lon="-2.19903462">
        <ele>1140.0000</ele>
        <time>2018-10-14T14:19:02Z</time>
      </trkpt>
      <trkpt lat="38.19074193" lon="-2.19891057">
        <ele>1141.0000</ele>
        <time>2018-10-14T14:19:04Z</time>
      </trkpt>
      <trkpt lat="38.19073372" lon="-2.19872650">
        <ele>1142.0000</ele>
        <time>2018-10-14T14:19:07Z</time>
      </trkpt>
      <trkpt lat="38.19072718" lon="-2.19867034">
        <ele>1142.0000</ele>
        <time>2018-10-14T14:19:08Z</time>
      </trkpt>
      <trkpt lat="38.19070355" lon="-2.19846323">
        <ele>1142.0000</ele>
        <time>2018-10-14T14:19:12Z</time>
      </trkpt>
      <trkpt lat="38.19070170" lon="-2.19836231">
        <ele>1142.0000</ele>
        <time>2018-10-14T14:19:14Z</time>
      </trkpt>
      <trkpt lat="38.19070380" lon="-2.19816600">
        <ele>1143.0000</ele>
        <time>2018-10-14T14:19:18Z</time>
      </trkpt>
      <trkpt lat="38.19070816" lon="-2.19797138">
        <ele>1144.0000</ele>
        <time>2018-10-14T14:19:22Z</time>
      </trkpt>
      <trkpt lat="38.19072836" lon="-2.19778471">
        <ele>1145.0000</ele>
        <time>2018-10-14T14:19:26Z</time>
      </trkpt>
      <trkpt lat="38.19074495" lon="-2.19769620">
        <ele>1145.0000</ele>
        <time>2018-10-14T14:19:28Z</time>
      </trkpt>
      <trkpt lat="38.19077999" lon="-2.19752185">
        <ele>1146.0000</ele>
        <time>2018-10-14T14:19:32Z</time>
      </trkpt>
      <trkpt lat="38.19082651" lon="-2.19735438">
        <ele>1147.0000</ele>
        <time>2018-10-14T14:19:36Z</time>
      </trkpt>
      <trkpt lat="38.19085442" lon="-2.19727107">
        <ele>1147.0000</ele>
        <time>2018-10-14T14:19:38Z</time>
      </trkpt>
      <trkpt lat="38.19090186" lon="-2.19714961">
        <ele>1148.0000</ele>
        <time>2018-10-14T14:19:41Z</time>
      </trkpt>
      <trkpt lat="38.19097059" lon="-2.19699497">
        <ele>1149.0000</ele>
        <time>2018-10-14T14:19:45Z</time>
      </trkpt>
      <trkpt lat="38.19109565" lon="-2.19684585">
        <ele>1149.0000</ele>
        <time>2018-10-14T14:19:50Z</time>
      </trkpt>
      <trkpt lat="38.19129522" lon="-2.19669900">
        <ele>1150.0000</ele>
        <time>2018-10-14T14:19:57Z</time>
      </trkpt>
      <trkpt lat="38.19137535" lon="-2.19664159">
        <ele>1151.0000</ele>
        <time>2018-10-14T14:20:00Z</time>
      </trkpt>
      <trkpt lat="38.19143386" lon="-2.19660378">
        <ele>1152.0000</ele>
        <time>2018-10-14T14:20:02Z</time>
      </trkpt>
      <trkpt lat="38.19151793" lon="-2.19654913">
        <ele>1153.0000</ele>
        <time>2018-10-14T14:20:05Z</time>
      </trkpt>
      <trkpt lat="38.19162740" lon="-2.19647672">
        <ele>1154.0000</ele>
        <time>2018-10-14T14:20:09Z</time>
      </trkpt>
      <trkpt lat="38.19173770" lon="-2.19641217">
        <ele>1155.0000</ele>
        <time>2018-10-14T14:20:13Z</time>
      </trkpt>
      <trkpt lat="38.19181918" lon="-2.19635250">
        <ele>1156.0000</ele>
        <time>2018-10-14T14:20:16Z</time>
      </trkpt>
      <trkpt lat="38.19190224" lon="-2.19628795">
        <ele>1157.0000</ele>
        <time>2018-10-14T14:20:19Z</time>
      </trkpt>
      <trkpt lat="38.19198966" lon="-2.19618796">
        <ele>1157.0000</ele>
        <time>2018-10-14T14:20:23Z</time>
      </trkpt>
      <trkpt lat="38.19205806" lon="-2.19606575">
        <ele>1158.0000</ele>
        <time>2018-10-14T14:20:27Z</time>
      </trkpt>
      <trkpt lat="38.19212210" lon="-2.19589493">
        <ele>1159.0000</ele>
        <time>2018-10-14T14:20:32Z</time>
      </trkpt>
      <trkpt lat="38.19215336" lon="-2.19575428">
        <ele>1160.0000</ele>
        <time>2018-10-14T14:20:36Z</time>
      </trkpt>
      <trkpt lat="38.19217507" lon="-2.19564867">
        <ele>1161.0000</ele>
        <time>2018-10-14T14:20:39Z</time>
      </trkpt>
      <trkpt lat="38.19219745" lon="-2.19550240">
        <ele>1162.0000</ele>
        <time>2018-10-14T14:20:43Z</time>
      </trkpt>
      <trkpt lat="38.19221883" lon="-2.19536083">
        <ele>1162.0000</ele>
        <time>2018-10-14T14:20:47Z</time>
      </trkpt>
      <trkpt lat="38.19225437" lon="-2.19518112">
        <ele>1163.0000</ele>
        <time>2018-10-14T14:20:52Z</time>
      </trkpt>
      <trkpt lat="38.19228898" lon="-2.19496177">
        <ele>1164.0000</ele>
        <time>2018-10-14T14:20:58Z</time>
      </trkpt>
      <trkpt lat="38.19232285" lon="-2.19478516">
        <ele>1165.0000</ele>
        <time>2018-10-14T14:21:03Z</time>
      </trkpt>
      <trkpt lat="38.19234967" lon="-2.19461007">
        <ele>1165.0000</ele>
        <time>2018-10-14T14:21:08Z</time>
      </trkpt>
      <trkpt lat="38.19236660" lon="-2.19450973">
        <ele>1166.0000</ele>
        <time>2018-10-14T14:21:11Z</time>
      </trkpt>
      <trkpt lat="38.19237867" lon="-2.19444536">
        <ele>1166.0000</ele>
        <time>2018-10-14T14:21:13Z</time>
      </trkpt>
      <trkpt lat="38.19240013" lon="-2.19431427">
        <ele>1167.0000</ele>
        <time>2018-10-14T14:21:17Z</time>
      </trkpt>
      <trkpt lat="38.19243852" lon="-2.19419290">
        <ele>1168.0000</ele>
        <time>2018-10-14T14:21:21Z</time>
      </trkpt>
      <trkpt lat="38.19245578" lon="-2.19409466">
        <ele>1169.0000</ele>
        <time>2018-10-14T14:21:24Z</time>
      </trkpt>
      <trkpt lat="38.19248001" lon="-2.19396424">
        <ele>1170.0000</ele>
        <time>2018-10-14T14:21:28Z</time>
      </trkpt>
      <trkpt lat="38.19249736" lon="-2.19383449">
        <ele>1170.0000</ele>
        <time>2018-10-14T14:21:32Z</time>
      </trkpt>
      <trkpt lat="38.19251814" lon="-2.19373106">
        <ele>1171.0000</ele>
        <time>2018-10-14T14:21:35Z</time>
      </trkpt>
      <trkpt lat="38.19253524" lon="-2.19362569">
        <ele>1172.0000</ele>
        <time>2018-10-14T14:21:38Z</time>
      </trkpt>
      <trkpt lat="38.19257103" lon="-2.19341782">
        <ele>1173.0000</ele>
        <time>2018-10-14T14:21:44Z</time>
      </trkpt>
      <trkpt lat="38.19259668" lon="-2.19328505">
        <ele>1174.0000</ele>
        <time>2018-10-14T14:21:48Z</time>
      </trkpt>
      <trkpt lat="38.19262426" lon="-2.19311825">
        <ele>1174.0000</ele>
        <time>2018-10-14T14:21:53Z</time>
      </trkpt>
      <trkpt lat="38.19264790" lon="-2.19295422">
        <ele>1175.0000</ele>
        <time>2018-10-14T14:21:58Z</time>
      </trkpt>
      <trkpt lat="38.19266893" lon="-2.19280016">
        <ele>1176.0000</ele>
        <time>2018-10-14T14:22:03Z</time>
      </trkpt>
      <trkpt lat="38.19267757" lon="-2.19268365">
        <ele>1177.0000</ele>
        <time>2018-10-14T14:22:07Z</time>
      </trkpt>
      <trkpt lat="38.19268955" lon="-2.19253152">
        <ele>1178.0000</ele>
        <time>2018-10-14T14:22:12Z</time>
      </trkpt>
      <trkpt lat="38.19270196" lon="-2.19237763">
        <ele>1179.0000</ele>
        <time>2018-10-14T14:22:17Z</time>
      </trkpt>
      <trkpt lat="38.19270942" lon="-2.19229012">
        <ele>1180.0000</ele>
        <time>2018-10-14T14:22:20Z</time>
      </trkpt>
      <trkpt lat="38.19270615" lon="-2.19223078">
        <ele>1181.0000</ele>
        <time>2018-10-14T14:22:22Z</time>
      </trkpt>
      <trkpt lat="38.19272702" lon="-2.19196482">
        <ele>1182.0000</ele>
        <time>2018-10-14T14:22:31Z</time>
      </trkpt>
      <trkpt lat="38.19273029" lon="-2.19187430">
        <ele>1182.0000</ele>
        <time>2018-10-14T14:22:34Z</time>
      </trkpt>
      <trkpt lat="38.19274647" lon="-2.19169761">
        <ele>1183.0000</ele>
        <time>2018-10-14T14:22:40Z</time>
      </trkpt>
      <trkpt lat="38.19275795" lon="-2.19152058">
        <ele>1184.0000</ele>
        <time>2018-10-14T14:22:46Z</time>
      </trkpt>
      <trkpt lat="38.19276398" lon="-2.19137549">
        <ele>1185.0000</ele>
        <time>2018-10-14T14:22:51Z</time>
      </trkpt>
      <trkpt lat="38.19276977" lon="-2.19128706">
        <ele>1185.0000</ele>
        <time>2018-10-14T14:22:54Z</time>
      </trkpt>
      <trkpt lat="38.19277186" lon="-2.19125823">
        <ele>1186.0000</ele>
        <time>2018-10-14T14:22:55Z</time>
      </trkpt>
      <trkpt lat="38.19278167" lon="-2.19110542">
        <ele>1186.0000</ele>
        <time>2018-10-14T14:23:00Z</time>
      </trkpt>
      <trkpt lat="38.19278963" lon="-2.19098757">
        <ele>1187.0000</ele>
        <time>2018-10-14T14:23:04Z</time>
      </trkpt>
      <trkpt lat="38.19280187" lon="-2.19086520">
        <ele>1188.0000</ele>
        <time>2018-10-14T14:23:08Z</time>
      </trkpt>
      <trkpt lat="38.19280531" lon="-2.19068264">
        <ele>1189.0000</ele>
        <time>2018-10-14T14:23:14Z</time>
      </trkpt>
      <trkpt lat="38.19281235" lon="-2.19052833">
        <ele>1190.0000</ele>
        <time>2018-10-14T14:23:19Z</time>
      </trkpt>
      <trkpt lat="38.19282048" lon="-2.19033303">
        <ele>1191.0000</ele>
        <time>2018-10-14T14:23:25Z</time>
      </trkpt>
      <trkpt lat="38.19282651" lon="-2.19020362">
        <ele>1191.0000</ele>
        <time>2018-10-14T14:23:29Z</time>
      </trkpt>
      <trkpt lat="38.19283037" lon="-2.19004495">
        <ele>1192.0000</ele>
        <time>2018-10-14T14:23:34Z</time>
      </trkpt>
      <trkpt lat="38.19284060" lon="-2.18988787">
        <ele>1193.0000</ele>
        <time>2018-10-14T14:23:39Z</time>
      </trkpt>
      <trkpt lat="38.19284705" lon="-2.18976181">
        <ele>1194.0000</ele>
        <time>2018-10-14T14:23:43Z</time>
      </trkpt>
      <trkpt lat="38.19285493" lon="-2.18960749">
        <ele>1195.0000</ele>
        <time>2018-10-14T14:23:48Z</time>
      </trkpt>
      <trkpt lat="38.19285853" lon="-2.18948244">
        <ele>1196.0000</ele>
        <time>2018-10-14T14:23:52Z</time>
      </trkpt>
      <trkpt lat="38.19286691" lon="-2.18938646">
        <ele>1197.0000</ele>
        <time>2018-10-14T14:23:55Z</time>
      </trkpt>
      <trkpt lat="38.19288477" lon="-2.18926023">
        <ele>1198.0000</ele>
        <time>2018-10-14T14:23:59Z</time>
      </trkpt>
      <trkpt lat="38.19290136" lon="-2.18913576">
        <ele>1199.0000</ele>
        <time>2018-10-14T14:24:03Z</time>
      </trkpt>
      <trkpt lat="38.19290623" lon="-2.18910374">
        <ele>1199.0000</ele>
        <time>2018-10-14T14:24:04Z</time>
      </trkpt>
      <trkpt lat="38.19291394" lon="-2.18904004">
        <ele>1200.0000</ele>
        <time>2018-10-14T14:24:06Z</time>
      </trkpt>
      <trkpt lat="38.19293263" lon="-2.18894792">
        <ele>1201.0000</ele>
        <time>2018-10-14T14:24:09Z</time>
      </trkpt>
      <trkpt lat="38.19296616" lon="-2.18879696">
        <ele>1201.0000</ele>
        <time>2018-10-14T14:24:14Z</time>
      </trkpt>
      <trkpt lat="38.19300505" lon="-2.18864056">
        <ele>1202.0000</ele>
        <time>2018-10-14T14:24:19Z</time>
      </trkpt>
      <trkpt lat="38.19304964" lon="-2.18851885">
        <ele>1203.0000</ele>
        <time>2018-10-14T14:24:23Z</time>
      </trkpt>
      <trkpt lat="38.19310639" lon="-2.18836798">
        <ele>1204.0000</ele>
        <time>2018-10-14T14:24:28Z</time>
      </trkpt>
      <trkpt lat="38.19315743" lon="-2.18821727">
        <ele>1205.0000</ele>
        <time>2018-10-14T14:24:33Z</time>
      </trkpt>
      <trkpt lat="38.19320286" lon="-2.18809599">
        <ele>1206.0000</ele>
        <time>2018-10-14T14:24:37Z</time>
      </trkpt>
      <trkpt lat="38.19324695" lon="-2.18797956">
        <ele>1206.0000</ele>
        <time>2018-10-14T14:24:41Z</time>
      </trkpt>
      <trkpt lat="38.19330026" lon="-2.18784193">
        <ele>1207.0000</ele>
        <time>2018-10-14T14:24:45Z</time>
      </trkpt>
      <trkpt lat="38.19335851" lon="-2.18769064">
        <ele>1208.0000</ele>
        <time>2018-10-14T14:24:49Z</time>
      </trkpt>
      <trkpt lat="38.19340847" lon="-2.18755443">
        <ele>1209.0000</ele>
        <time>2018-10-14T14:24:53Z</time>
      </trkpt>
      <trkpt lat="38.19347200" lon="-2.18738218">
        <ele>1210.0000</ele>
        <time>2018-10-14T14:24:58Z</time>
      </trkpt>
      <trkpt lat="38.19355172" lon="-2.18717808">
        <ele>1211.0000</ele>
        <time>2018-10-14T14:25:04Z</time>
      </trkpt>
      <trkpt lat="38.19360167" lon="-2.18703408">
        <ele>1212.0000</ele>
        <time>2018-10-14T14:25:08Z</time>
      </trkpt>
      <trkpt lat="38.19366009" lon="-2.18689151">
        <ele>1212.0000</ele>
        <time>2018-10-14T14:25:12Z</time>
      </trkpt>
      <trkpt lat="38.19374777" lon="-2.18666578">
        <ele>1213.0000</ele>
        <time>2018-10-14T14:25:18Z</time>
      </trkpt>
      <trkpt lat="38.19382983" lon="-2.18643972">
        <ele>1214.0000</ele>
        <time>2018-10-14T14:25:24Z</time>
      </trkpt>
      <trkpt lat="38.19387174" lon="-2.18632975">
        <ele>1214.0000</ele>
        <time>2018-10-14T14:25:27Z</time>
      </trkpt>
      <trkpt lat="38.19390216" lon="-2.18621551">
        <ele>1214.0000</ele>
        <time>2018-10-14T14:25:30Z</time>
      </trkpt>
      <trkpt lat="38.19396444" lon="-2.18594385">
        <ele>1215.0000</ele>
        <time>2018-10-14T14:25:37Z</time>
      </trkpt>
      <trkpt lat="38.19399847" lon="-2.18570429">
        <ele>1216.0000</ele>
        <time>2018-10-14T14:25:43Z</time>
      </trkpt>
      <trkpt lat="38.19401473" lon="-2.18554437">
        <ele>1217.0000</ele>
        <time>2018-10-14T14:25:47Z</time>
      </trkpt>
      <trkpt lat="38.19404382" lon="-2.18530314">
        <ele>1218.0000</ele>
        <time>2018-10-14T14:25:53Z</time>
      </trkpt>
      <trkpt lat="38.19406502" lon="-2.18510155">
        <ele>1218.0000</ele>
        <time>2018-10-14T14:25:58Z</time>
      </trkpt>
      <trkpt lat="38.19408682" lon="-2.18490407">
        <ele>1219.0000</ele>
        <time>2018-10-14T14:26:03Z</time>
      </trkpt>
      <trkpt lat="38.19411523" lon="-2.18463744">
        <ele>1220.0000</ele>
        <time>2018-10-14T14:26:09Z</time>
      </trkpt>
      <trkpt lat="38.19415211" lon="-2.18443871">
        <ele>1221.0000</ele>
        <time>2018-10-14T14:26:13Z</time>
      </trkpt>
      <trkpt lat="38.19420970" lon="-2.18420301">
        <ele>1221.0000</ele>
        <time>2018-10-14T14:26:17Z</time>
      </trkpt>
      <trkpt lat="38.19439024" lon="-2.18373890">
        <ele>1221.0000</ele>
        <time>2018-10-14T14:26:23Z</time>
      </trkpt>
      <trkpt lat="38.19457171" lon="-2.18351896">
        <ele>1220.0000</ele>
        <time>2018-10-14T14:26:26Z</time>
      </trkpt>
      <trkpt lat="38.19473197" lon="-2.18340463">
        <ele>1220.0000</ele>
        <time>2018-10-14T14:26:28Z</time>
      </trkpt>
      <trkpt lat="38.19481940" lon="-2.18335233">
        <ele>1219.0000</ele>
        <time>2018-10-14T14:26:29Z</time>
      </trkpt>
      <trkpt lat="38.19490808" lon="-2.18329408">
        <ele>1218.0000</ele>
        <time>2018-10-14T14:26:30Z</time>
      </trkpt>
      <trkpt lat="38.19499416" lon="-2.18322308">
        <ele>1218.0000</ele>
        <time>2018-10-14T14:26:31Z</time>
      </trkpt>
      <trkpt lat="38.19514780" lon="-2.18305100">
        <ele>1217.0000</ele>
        <time>2018-10-14T14:26:33Z</time>
      </trkpt>
      <trkpt lat="38.19540051" lon="-2.18265647">
        <ele>1215.0000</ele>
        <time>2018-10-14T14:26:37Z</time>
      </trkpt>
      <trkpt lat="38.19550177" lon="-2.18244306">
        <ele>1214.0000</ele>
        <time>2018-10-14T14:26:39Z</time>
      </trkpt>
      <trkpt lat="38.19559321" lon="-2.18222203">
        <ele>1213.0000</ele>
        <time>2018-10-14T14:26:41Z</time>
      </trkpt>
      <trkpt lat="38.19581651" lon="-2.18157025">
        <ele>1212.0000</ele>
        <time>2018-10-14T14:26:47Z</time>
      </trkpt>
      <trkpt lat="38.19600988" lon="-2.18099065">
        <ele>1212.0000</ele>
        <time>2018-10-14T14:26:53Z</time>
      </trkpt>
      <trkpt lat="38.19613753" lon="-2.18062880">
        <ele>1212.0000</ele>
        <time>2018-10-14T14:26:57Z</time>
      </trkpt>
      <trkpt lat="38.19619738" lon="-2.18045236">
        <ele>1213.0000</ele>
        <time>2018-10-14T14:26:59Z</time>
      </trkpt>
      <trkpt lat="38.19631288" lon="-2.18011826">
        <ele>1214.0000</ele>
        <time>2018-10-14T14:27:03Z</time>
      </trkpt>
      <trkpt lat="38.19642771" lon="-2.17978122">
        <ele>1214.0000</ele>
        <time>2018-10-14T14:27:07Z</time>
      </trkpt>
      <trkpt lat="38.19652235" lon="-2.17951342">
        <ele>1215.0000</ele>
        <time>2018-10-14T14:27:10Z</time>
      </trkpt>
      <trkpt lat="38.19664154" lon="-2.17918124">
        <ele>1216.0000</ele>
        <time>2018-10-14T14:27:14Z</time>
      </trkpt>
      <trkpt lat="38.19666920" lon="-2.17909994">
        <ele>1216.0000</ele>
        <time>2018-10-14T14:27:15Z</time>
      </trkpt>
      <trkpt lat="38.19684145" lon="-2.17860206">
        <ele>1217.0000</ele>
        <time>2018-10-14T14:27:21Z</time>
      </trkpt>
      <trkpt lat="38.19701679" lon="-2.17809763">
        <ele>1218.0000</ele>
        <time>2018-10-14T14:27:27Z</time>
      </trkpt>
      <trkpt lat="38.19725233" lon="-2.17741845">
        <ele>1218.0000</ele>
        <time>2018-10-14T14:27:35Z</time>
      </trkpt>
      <trkpt lat="38.19742910" lon="-2.17691168">
        <ele>1218.0000</ele>
        <time>2018-10-14T14:27:41Z</time>
      </trkpt>
      <trkpt lat="38.19757486" lon="-2.17648931">
        <ele>1218.0000</ele>
        <time>2018-10-14T14:27:46Z</time>
      </trkpt>
      <trkpt lat="38.19766036" lon="-2.17623962">
        <ele>1219.0000</ele>
        <time>2018-10-14T14:27:49Z</time>
      </trkpt>
      <trkpt lat="38.19785867" lon="-2.17567618">
        <ele>1219.0000</ele>
        <time>2018-10-14T14:27:56Z</time>
      </trkpt>
      <trkpt lat="38.19804861" lon="-2.17513304">
        <ele>1220.0000</ele>
        <time>2018-10-14T14:28:03Z</time>
      </trkpt>
      <trkpt lat="38.19815539" lon="-2.17482534">
        <ele>1221.0000</ele>
        <time>2018-10-14T14:28:07Z</time>
      </trkpt>
      <trkpt lat="38.19833745" lon="-2.17429351">
        <ele>1222.0000</ele>
        <time>2018-10-14T14:28:14Z</time>
      </trkpt>
      <trkpt lat="38.19849721" lon="-2.17384692">
        <ele>1222.0000</ele>
        <time>2018-10-14T14:28:20Z</time>
      </trkpt>
      <trkpt lat="38.19871480" lon="-2.17323051">
        <ele>1223.0000</ele>
        <time>2018-10-14T14:28:28Z</time>
      </trkpt>
      <trkpt lat="38.19888604" lon="-2.17273984">
        <ele>1224.0000</ele>
        <time>2018-10-14T14:28:34Z</time>
      </trkpt>
      <trkpt lat="38.19894631" lon="-2.17257228">
        <ele>1224.0000</ele>
        <time>2018-10-14T14:28:36Z</time>
      </trkpt>
      <trkpt lat="38.19903742" lon="-2.17231831">
        <ele>1224.0000</ele>
        <time>2018-10-14T14:28:39Z</time>
      </trkpt>
      <trkpt lat="38.19927982" lon="-2.17162546">
        <ele>1224.0000</ele>
        <time>2018-10-14T14:28:47Z</time>
      </trkpt>
      <trkpt lat="38.19946699" lon="-2.17109774">
        <ele>1224.0000</ele>
        <time>2018-10-14T14:28:53Z</time>
      </trkpt>
      <trkpt lat="38.19956045" lon="-2.17082818">
        <ele>1224.0000</ele>
        <time>2018-10-14T14:28:56Z</time>
      </trkpt>
      <trkpt lat="38.19971049" lon="-2.17038083">
        <ele>1224.0000</ele>
        <time>2018-10-14T14:29:01Z</time>
      </trkpt>
      <trkpt lat="38.19988911" lon="-2.16985646">
        <ele>1224.0000</ele>
        <time>2018-10-14T14:29:07Z</time>
      </trkpt>
      <trkpt lat="38.20010083" lon="-2.16925799">
        <ele>1225.0000</ele>
        <time>2018-10-14T14:29:14Z</time>
      </trkpt>
      <trkpt lat="38.20034483" lon="-2.16855710">
        <ele>1225.0000</ele>
        <time>2018-10-14T14:29:22Z</time>
      </trkpt>
      <trkpt lat="38.20037333" lon="-2.16846691">
        <ele>1225.0000</ele>
        <time>2018-10-14T14:29:23Z</time>
      </trkpt>
      <trkpt lat="38.20061791" lon="-2.16776509">
        <ele>1225.0000</ele>
        <time>2018-10-14T14:29:31Z</time>
      </trkpt>
      <trkpt lat="38.20070492" lon="-2.16751431">
        <ele>1226.0000</ele>
        <time>2018-10-14T14:29:34Z</time>
      </trkpt>
      <trkpt lat="38.20088379" lon="-2.16700745">
        <ele>1227.0000</ele>
        <time>2018-10-14T14:29:40Z</time>
      </trkpt>
      <trkpt lat="38.20100641" lon="-2.16665558">
        <ele>1227.0000</ele>
        <time>2018-10-14T14:29:44Z</time>
      </trkpt>
      <trkpt lat="38.20125276" lon="-2.16594672">
        <ele>1228.0000</ele>
        <time>2018-10-14T14:29:52Z</time>
      </trkpt>
      <trkpt lat="38.20149525" lon="-2.16524935">
        <ele>1228.0000</ele>
        <time>2018-10-14T14:30:00Z</time>
      </trkpt>
      <trkpt lat="38.20167847" lon="-2.16473302">
        <ele>1228.0000</ele>
        <time>2018-10-14T14:30:06Z</time>
      </trkpt>
      <trkpt lat="38.20180580" lon="-2.16436757">
        <ele>1229.0000</ele>
        <time>2018-10-14T14:30:10Z</time>
      </trkpt>
      <trkpt lat="38.20193622" lon="-2.16399743">
        <ele>1229.0000</ele>
        <time>2018-10-14T14:30:14Z</time>
      </trkpt>
      <trkpt lat="38.20217200" lon="-2.16332285">
        <ele>1229.0000</ele>
        <time>2018-10-14T14:30:21Z</time>
      </trkpt>
      <trkpt lat="38.20230569" lon="-2.16293561">
        <ele>1228.0000</ele>
        <time>2018-10-14T14:30:25Z</time>
      </trkpt>
      <trkpt lat="38.20240410" lon="-2.16265113">
        <ele>1228.0000</ele>
        <time>2018-10-14T14:30:28Z</time>
      </trkpt>
      <trkpt lat="38.20262814" lon="-2.16201134">
        <ele>1228.0000</ele>
        <time>2018-10-14T14:30:35Z</time>
      </trkpt>
      <trkpt lat="38.20271766" lon="-2.16174588">
        <ele>1228.0000</ele>
        <time>2018-10-14T14:30:38Z</time>
      </trkpt>
      <trkpt lat="38.20284582" lon="-2.16137020">
        <ele>1228.0000</ele>
        <time>2018-10-14T14:30:42Z</time>
      </trkpt>
      <trkpt lat="38.20299427" lon="-2.16091331">
        <ele>1229.0000</ele>
        <time>2018-10-14T14:30:47Z</time>
      </trkpt>
      <trkpt lat="38.20304246" lon="-2.16064073">
        <ele>1230.0000</ele>
        <time>2018-10-14T14:30:50Z</time>
      </trkpt>
      <trkpt lat="38.20300038" lon="-2.15992290">
        <ele>1231.0000</ele>
        <time>2018-10-14T14:30:57Z</time>
      </trkpt>
      <trkpt lat="38.20291355" lon="-2.15958855">
        <ele>1230.0000</ele>
        <time>2018-10-14T14:31:00Z</time>
      </trkpt>
      <trkpt lat="38.20276862" lon="-2.15912478">
        <ele>1229.0000</ele>
        <time>2018-10-14T14:31:04Z</time>
      </trkpt>
      <trkpt lat="38.20271129" lon="-2.15886737">
        <ele>1228.0000</ele>
        <time>2018-10-14T14:31:06Z</time>
      </trkpt>
      <trkpt lat="38.20269813" lon="-2.15858808">
        <ele>1227.0000</ele>
        <time>2018-10-14T14:31:08Z</time>
      </trkpt>
      <trkpt lat="38.20271020" lon="-2.15844416">
        <ele>1226.0000</ele>
        <time>2018-10-14T14:31:09Z</time>
      </trkpt>
      <trkpt lat="38.20277240" lon="-2.15816169">
        <ele>1225.0000</ele>
        <time>2018-10-14T14:31:11Z</time>
      </trkpt>
      <trkpt lat="38.20287398" lon="-2.15789180">
        <ele>1223.0000</ele>
        <time>2018-10-14T14:31:13Z</time>
      </trkpt>
      <trkpt lat="38.20299125" lon="-2.15763146">
        <ele>1221.0000</ele>
        <time>2018-10-14T14:31:15Z</time>
      </trkpt>
      <trkpt lat="38.20312092" lon="-2.15738344">
        <ele>1219.0000</ele>
        <time>2018-10-14T14:31:17Z</time>
      </trkpt>
      <trkpt lat="38.20325192" lon="-2.15714011">
        <ele>1218.0000</ele>
        <time>2018-10-14T14:31:19Z</time>
      </trkpt>
      <trkpt lat="38.20344010" lon="-2.15677566">
        <ele>1216.0000</ele>
        <time>2018-10-14T14:31:22Z</time>
      </trkpt>
      <trkpt lat="38.20363188" lon="-2.15642983">
        <ele>1215.0000</ele>
        <time>2018-10-14T14:31:25Z</time>
      </trkpt>
      <trkpt lat="38.20393597" lon="-2.15585189">
        <ele>1215.0000</ele>
        <time>2018-10-14T14:31:30Z</time>
      </trkpt>
      <trkpt lat="38.20425222" lon="-2.15525100">
        <ele>1213.0000</ele>
        <time>2018-10-14T14:31:35Z</time>
      </trkpt>
      <trkpt lat="38.20446160" lon="-2.15486006">
        <ele>1213.0000</ele>
        <time>2018-10-14T14:31:38Z</time>
      </trkpt>
      <trkpt lat="38.20465916" lon="-2.15445069">
        <ele>1212.0000</ele>
        <time>2018-10-14T14:31:41Z</time>
      </trkpt>
      <trkpt lat="38.20470828" lon="-2.15430971">
        <ele>1211.0000</ele>
        <time>2018-10-14T14:31:42Z</time>
      </trkpt>
      <trkpt lat="38.20474499" lon="-2.15415883">
        <ele>1211.0000</ele>
        <time>2018-10-14T14:31:43Z</time>
      </trkpt>
      <trkpt lat="38.20476754" lon="-2.15383445">
        <ele>1209.0000</ele>
        <time>2018-10-14T14:31:45Z</time>
      </trkpt>
      <trkpt lat="38.20473896" lon="-2.15349976">
        <ele>1207.0000</ele>
        <time>2018-10-14T14:31:47Z</time>
      </trkpt>
      <trkpt lat="38.20469311" lon="-2.15316625">
        <ele>1205.0000</ele>
        <time>2018-10-14T14:31:49Z</time>
      </trkpt>
      <trkpt lat="38.20463603" lon="-2.15284036">
        <ele>1204.0000</ele>
        <time>2018-10-14T14:31:51Z</time>
      </trkpt>
      <trkpt lat="38.20460451" lon="-2.15268102">
        <ele>1202.0000</ele>
        <time>2018-10-14T14:31:52Z</time>
      </trkpt>
      <trkpt lat="38.20457291" lon="-2.15252243">
        <ele>1200.0000</ele>
        <time>2018-10-14T14:31:53Z</time>
      </trkpt>
      <trkpt lat="38.20454131" lon="-2.15236393">
        <ele>1198.0000</ele>
        <time>2018-10-14T14:31:54Z</time>
      </trkpt>
      <trkpt lat="38.20450913" lon="-2.15220551">
        <ele>1197.0000</ele>
        <time>2018-10-14T14:31:55Z</time>
      </trkpt>
      <trkpt lat="38.20444459" lon="-2.15188893">
        <ele>1195.0000</ele>
        <time>2018-10-14T14:31:57Z</time>
      </trkpt>
      <trkpt lat="38.20437988" lon="-2.15157008">
        <ele>1194.0000</ele>
        <time>2018-10-14T14:31:59Z</time>
      </trkpt>
      <trkpt lat="38.20424476" lon="-2.15092560">
        <ele>1192.0000</ele>
        <time>2018-10-14T14:32:03Z</time>
      </trkpt>
      <trkpt lat="38.20417662" lon="-2.15059812">
        <ele>1191.0000</ele>
        <time>2018-10-14T14:32:05Z</time>
      </trkpt>
      <trkpt lat="38.20414317" lon="-2.15043224">
        <ele>1190.0000</ele>
        <time>2018-10-14T14:32:06Z</time>
      </trkpt>
      <trkpt lat="38.20407520" lon="-2.15009923">
        <ele>1189.0000</ele>
        <time>2018-10-14T14:32:08Z</time>
      </trkpt>
      <trkpt lat="38.20397528" lon="-2.14959673">
        <ele>1187.0000</ele>
        <time>2018-10-14T14:32:11Z</time>
      </trkpt>
      <trkpt lat="38.20390915" lon="-2.14926305">
        <ele>1185.0000</ele>
        <time>2018-10-14T14:32:13Z</time>
      </trkpt>
      <trkpt lat="38.20385006" lon="-2.14893238">
        <ele>1184.0000</ele>
        <time>2018-10-14T14:32:15Z</time>
      </trkpt>
      <trkpt lat="38.20379264" lon="-2.14860649">
        <ele>1182.0000</ele>
        <time>2018-10-14T14:32:17Z</time>
      </trkpt>
      <trkpt lat="38.20373690" lon="-2.14829234">
        <ele>1180.0000</ele>
        <time>2018-10-14T14:32:19Z</time>
      </trkpt>
      <trkpt lat="38.20367345" lon="-2.14784625">
        <ele>1179.0000</ele>
        <time>2018-10-14T14:32:22Z</time>
      </trkpt>
      <trkpt lat="38.20356214" lon="-2.14705609">
        <ele>1178.0000</ele>
        <time>2018-10-14T14:32:28Z</time>
      </trkpt>
      <trkpt lat="38.20349366" lon="-2.14667438">
        <ele>1178.0000</ele>
        <time>2018-10-14T14:32:31Z</time>
      </trkpt>
      <trkpt lat="38.20340984" lon="-2.14629434">
        <ele>1178.0000</ele>
        <time>2018-10-14T14:32:34Z</time>
      </trkpt>
      <trkpt lat="38.20324656" lon="-2.14566461">
        <ele>1178.0000</ele>
        <time>2018-10-14T14:32:39Z</time>
      </trkpt>
      <trkpt lat="38.20306685" lon="-2.14501937">
        <ele>1177.0000</ele>
        <time>2018-10-14T14:32:44Z</time>
      </trkpt>
      <trkpt lat="38.20303081" lon="-2.14488702">
        <ele>1176.0000</ele>
        <time>2018-10-14T14:32:45Z</time>
      </trkpt>
      <trkpt lat="38.20292629" lon="-2.14449517">
        <ele>1175.0000</ele>
        <time>2018-10-14T14:32:48Z</time>
      </trkpt>
      <trkpt lat="38.20277516" lon="-2.14385421">
        <ele>1173.0000</ele>
        <time>2018-10-14T14:32:53Z</time>
      </trkpt>
      <trkpt lat="38.20263703" lon="-2.14308382">
        <ele>1172.0000</ele>
        <time>2018-10-14T14:32:59Z</time>
      </trkpt>
      <trkpt lat="38.20255120" lon="-2.14228603">
        <ele>1172.0000</ele>
        <time>2018-10-14T14:33:05Z</time>
      </trkpt>
      <trkpt lat="38.20250434" lon="-2.14175429">
        <ele>1172.0000</ele>
        <time>2018-10-14T14:33:09Z</time>
      </trkpt>
      <trkpt lat="38.20246855" lon="-2.14136067">
        <ele>1170.0000</ele>
        <time>2018-10-14T14:33:12Z</time>
      </trkpt>
      <trkpt lat="38.20240317" lon="-2.14057512">
        <ele>1168.0000</ele>
        <time>2018-10-14T14:33:18Z</time>
      </trkpt>
      <trkpt lat="38.20234090" lon="-2.13982603">
        <ele>1168.0000</ele>
        <time>2018-10-14T14:33:24Z</time>
      </trkpt>
      <trkpt lat="38.20232271" lon="-2.13958094">
        <ele>1168.0000</ele>
        <time>2018-10-14T14:33:26Z</time>
      </trkpt>
      <trkpt lat="38.20231332" lon="-2.13882833">
        <ele>1168.0000</ele>
        <time>2018-10-14T14:33:32Z</time>
      </trkpt>
      <trkpt lat="38.20240426" lon="-2.13804949">
        <ele>1168.0000</ele>
        <time>2018-10-14T14:33:38Z</time>
      </trkpt>
      <trkpt lat="38.20250577" lon="-2.13737541">
        <ele>1166.0000</ele>
        <time>2018-10-14T14:33:43Z</time>
      </trkpt>
      <trkpt lat="38.20254156" lon="-2.13682254">
        <ele>1165.0000</ele>
        <time>2018-10-14T14:33:47Z</time>
      </trkpt>
      <trkpt lat="38.20253578" lon="-2.13640009">
        <ele>1163.0000</ele>
        <time>2018-10-14T14:33:50Z</time>
      </trkpt>
      <trkpt lat="38.20250091" lon="-2.13569576">
        <ele>1162.0000</ele>
        <time>2018-10-14T14:33:55Z</time>
      </trkpt>
      <trkpt lat="38.20248272" lon="-2.13528664">
        <ele>1161.0000</ele>
        <time>2018-10-14T14:33:58Z</time>
      </trkpt>
      <trkpt lat="38.20244651" lon="-2.13450168">
        <ele>1160.0000</ele>
        <time>2018-10-14T14:34:04Z</time>
      </trkpt>
      <trkpt lat="38.20240971" lon="-2.13373943">
        <ele>1159.0000</ele>
        <time>2018-10-14T14:34:10Z</time>
      </trkpt>
      <trkpt lat="38.20237099" lon="-2.13298011">
        <ele>1160.0000</ele>
        <time>2018-10-14T14:34:16Z</time>
      </trkpt>
      <trkpt lat="38.20233478" lon="-2.13225164">
        <ele>1160.0000</ele>
        <time>2018-10-14T14:34:22Z</time>
      </trkpt>
      <trkpt lat="38.20229907" lon="-2.13155200">
        <ele>1159.0000</ele>
        <time>2018-10-14T14:34:28Z</time>
      </trkpt>
      <trkpt lat="38.20224450" lon="-2.13084147">
        <ele>1159.0000</ele>
        <time>2018-10-14T14:34:34Z</time>
      </trkpt>
      <trkpt lat="38.20208994" lon="-2.13011492">
        <ele>1159.0000</ele>
        <time>2018-10-14T14:34:40Z</time>
      </trkpt>
      <trkpt lat="38.20193915" lon="-2.12964923">
        <ele>1157.0000</ele>
        <time>2018-10-14T14:34:44Z</time>
      </trkpt>
      <trkpt lat="38.20186170" lon="-2.12942224">
        <ele>1156.0000</ele>
        <time>2018-10-14T14:34:46Z</time>
      </trkpt>
      <trkpt lat="38.20164067" lon="-2.12875932">
        <ele>1155.0000</ele>
        <time>2018-10-14T14:34:52Z</time>
      </trkpt>
      <trkpt lat="38.20142484" lon="-2.12810461">
        <ele>1155.0000</ele>
        <time>2018-10-14T14:34:58Z</time>
      </trkpt>
      <trkpt lat="38.20117698" lon="-2.12739634">
        <ele>1156.0000</ele>
        <time>2018-10-14T14:35:05Z</time>
      </trkpt>
      <trkpt lat="38.20108009" lon="-2.12710582">
        <ele>1156.0000</ele>
        <time>2018-10-14T14:35:08Z</time>
      </trkpt>
      <trkpt lat="38.20091228" lon="-2.12660048">
        <ele>1156.0000</ele>
        <time>2018-10-14T14:35:13Z</time>
      </trkpt>
      <trkpt lat="38.20084112" lon="-2.12639219">
        <ele>1157.0000</ele>
        <time>2018-10-14T14:35:15Z</time>
      </trkpt>
      <trkpt lat="38.20069368" lon="-2.12595859">
        <ele>1157.0000</ele>
        <time>2018-10-14T14:35:19Z</time>
      </trkpt>
      <trkpt lat="38.20051490" lon="-2.12530371">
        <ele>1158.0000</ele>
        <time>2018-10-14T14:35:25Z</time>
      </trkpt>
      <trkpt lat="38.20041817" lon="-2.12459611">
        <ele>1158.0000</ele>
        <time>2018-10-14T14:35:31Z</time>
      </trkpt>
      <trkpt lat="38.20037006" lon="-2.12385633">
        <ele>1156.0000</ele>
        <time>2018-10-14T14:35:37Z</time>
      </trkpt>
      <trkpt lat="38.20035807" lon="-2.12373160">
        <ele>1156.0000</ele>
        <time>2018-10-14T14:35:38Z</time>
      </trkpt>
      <trkpt lat="38.20023595" lon="-2.12297002">
        <ele>1154.0000</ele>
        <time>2018-10-14T14:35:44Z</time>
      </trkpt>
      <trkpt lat="38.20010251" lon="-2.12245060">
        <ele>1153.0000</ele>
        <time>2018-10-14T14:35:48Z</time>
      </trkpt>
      <trkpt lat="38.19990796" lon="-2.12178273">
        <ele>1152.0000</ele>
        <time>2018-10-14T14:35:53Z</time>
      </trkpt>
      <trkpt lat="38.19974502" lon="-2.12123656">
        <ele>1150.0000</ele>
        <time>2018-10-14T14:35:57Z</time>
      </trkpt>
      <trkpt lat="38.19962373" lon="-2.12082694">
        <ele>1148.0000</ele>
        <time>2018-10-14T14:36:00Z</time>
      </trkpt>
      <trkpt lat="38.19954536" lon="-2.12055268">
        <ele>1147.0000</ele>
        <time>2018-10-14T14:36:02Z</time>
      </trkpt>
      <trkpt lat="38.19946523" lon="-2.12028044">
        <ele>1146.0000</ele>
        <time>2018-10-14T14:36:04Z</time>
      </trkpt>
      <trkpt lat="38.19926700" lon="-2.11961517">
        <ele>1145.0000</ele>
        <time>2018-10-14T14:36:09Z</time>
      </trkpt>
      <trkpt lat="38.19911395" lon="-2.11909591">
        <ele>1143.0000</ele>
        <time>2018-10-14T14:36:13Z</time>
      </trkpt>
      <trkpt lat="38.19892334" lon="-2.11844187">
        <ele>1142.0000</ele>
        <time>2018-10-14T14:36:18Z</time>
      </trkpt>
      <trkpt lat="38.19874322" lon="-2.11778548">
        <ele>1142.0000</ele>
        <time>2018-10-14T14:36:23Z</time>
      </trkpt>
      <trkpt lat="38.19860978" lon="-2.11711929">
        <ele>1140.0000</ele>
        <time>2018-10-14T14:36:28Z</time>
      </trkpt>
      <trkpt lat="38.19853140" lon="-2.11641957">
        <ele>1139.0000</ele>
        <time>2018-10-14T14:36:33Z</time>
      </trkpt>
      <trkpt lat="38.19851590" lon="-2.11571641">
        <ele>1139.0000</ele>
        <time>2018-10-14T14:36:38Z</time>
      </trkpt>
      <trkpt lat="38.19854062" lon="-2.11516647">
        <ele>1138.0000</ele>
        <time>2018-10-14T14:36:42Z</time>
      </trkpt>
      <trkpt lat="38.19856937" lon="-2.11475743">
        <ele>1137.0000</ele>
        <time>2018-10-14T14:36:45Z</time>
      </trkpt>
      <trkpt lat="38.19864037" lon="-2.11420783">
        <ele>1137.0000</ele>
        <time>2018-10-14T14:36:49Z</time>
      </trkpt>
      <trkpt lat="38.19870089" lon="-2.11378983">
        <ele>1136.0000</ele>
        <time>2018-10-14T14:36:52Z</time>
      </trkpt>
      <trkpt lat="38.19873710" lon="-2.11336319">
        <ele>1135.0000</ele>
        <time>2018-10-14T14:36:55Z</time>
      </trkpt>
      <trkpt lat="38.19873341" lon="-2.11307879">
        <ele>1133.0000</ele>
        <time>2018-10-14T14:36:57Z</time>
      </trkpt>
      <trkpt lat="38.19865093" lon="-2.11238619">
        <ele>1132.0000</ele>
        <time>2018-10-14T14:37:02Z</time>
      </trkpt>
      <trkpt lat="38.19862168" lon="-2.11225368">
        <ele>1132.0000</ele>
        <time>2018-10-14T14:37:03Z</time>
      </trkpt>
      <trkpt lat="38.19837265" lon="-2.11151657">
        <ele>1131.0000</ele>
        <time>2018-10-14T14:37:09Z</time>
      </trkpt>
      <trkpt lat="38.19811365" lon="-2.11083387">
        <ele>1131.0000</ele>
        <time>2018-10-14T14:37:15Z</time>
      </trkpt>
      <trkpt lat="38.19796135" lon="-2.11023313">
        <ele>1131.0000</ele>
        <time>2018-10-14T14:37:20Z</time>
      </trkpt>
      <trkpt lat="38.19788516" lon="-2.10946166">
        <ele>1131.0000</ele>
        <time>2018-10-14T14:37:26Z</time>
      </trkpt>
      <trkpt lat="38.19787686" lon="-2.10867343">
        <ele>1131.0000</ele>
        <time>2018-10-14T14:37:32Z</time>
      </trkpt>
      <trkpt lat="38.19787200" lon="-2.10788293">
        <ele>1131.0000</ele>
        <time>2018-10-14T14:37:38Z</time>
      </trkpt>
      <trkpt lat="38.19786873" lon="-2.10719813">
        <ele>1130.0000</ele>
        <time>2018-10-14T14:37:43Z</time>
      </trkpt>
      <trkpt lat="38.19786538" lon="-2.10692128">
        <ele>1129.0000</ele>
        <time>2018-10-14T14:37:45Z</time>
      </trkpt>
      <trkpt lat="38.19786102" lon="-2.10664878">
        <ele>1129.0000</ele>
        <time>2018-10-14T14:37:47Z</time>
      </trkpt>
      <trkpt lat="38.19784292" lon="-2.10585334">
        <ele>1128.0000</ele>
        <time>2018-10-14T14:37:53Z</time>
      </trkpt>
      <trkpt lat="38.19781450" lon="-2.10545863">
        <ele>1128.0000</ele>
        <time>2018-10-14T14:37:56Z</time>
      </trkpt>
      <trkpt lat="38.19771559" lon="-2.10495471">
        <ele>1127.0000</ele>
        <time>2018-10-14T14:38:00Z</time>
      </trkpt>
      <trkpt lat="38.19761694" lon="-2.10460896">
        <ele>1127.0000</ele>
        <time>2018-10-14T14:38:03Z</time>
      </trkpt>
      <trkpt lat="38.19747260" lon="-2.10408166">
        <ele>1128.0000</ele>
        <time>2018-10-14T14:38:08Z</time>
      </trkpt>
      <trkpt lat="38.19731335" lon="-2.10353465">
        <ele>1128.0000</ele>
        <time>2018-10-14T14:38:14Z</time>
      </trkpt>
      <trkpt lat="38.19723481" lon="-2.10325763">
        <ele>1130.0000</ele>
        <time>2018-10-14T14:38:17Z</time>
      </trkpt>
      <trkpt lat="38.19718318" lon="-2.10307046">
        <ele>1131.0000</ele>
        <time>2018-10-14T14:38:19Z</time>
      </trkpt>
      <trkpt lat="38.19709969" lon="-2.10279076">
        <ele>1132.0000</ele>
        <time>2018-10-14T14:38:22Z</time>
      </trkpt>
      <trkpt lat="38.19701923" lon="-2.10252908">
        <ele>1133.0000</ele>
        <time>2018-10-14T14:38:25Z</time>
      </trkpt>
      <trkpt lat="38.19693264" lon="-2.10229388">
        <ele>1134.0000</ele>
        <time>2018-10-14T14:38:28Z</time>
      </trkpt>
      <trkpt lat="38.19679752" lon="-2.10200806">
        <ele>1135.0000</ele>
        <time>2018-10-14T14:38:32Z</time>
      </trkpt>
      <trkpt lat="38.19668563" lon="-2.10180396">
        <ele>1136.0000</ele>
        <time>2018-10-14T14:38:35Z</time>
      </trkpt>
      <trkpt lat="38.19656325" lon="-2.10160950">
        <ele>1137.0000</ele>
        <time>2018-10-14T14:38:38Z</time>
      </trkpt>
      <trkpt lat="38.19638304" lon="-2.10136433">
        <ele>1138.0000</ele>
        <time>2018-10-14T14:38:42Z</time>
      </trkpt>
      <trkpt lat="38.19613938" lon="-2.10111304">
        <ele>1139.0000</ele>
        <time>2018-10-14T14:38:47Z</time>
      </trkpt>
      <trkpt lat="38.19592941" lon="-2.10094322">
        <ele>1139.0000</ele>
        <time>2018-10-14T14:38:51Z</time>
      </trkpt>
      <trkpt lat="38.19570830" lon="-2.10079394">
        <ele>1138.0000</ele>
        <time>2018-10-14T14:38:55Z</time>
      </trkpt>
      <trkpt lat="38.19542096" lon="-2.10065061">
        <ele>1138.0000</ele>
        <time>2018-10-14T14:39:00Z</time>
      </trkpt>
      <trkpt lat="38.19530370" lon="-2.10060375">
        <ele>1138.0000</ele>
        <time>2018-10-14T14:39:02Z</time>
      </trkpt>
      <trkpt lat="38.19512802" lon="-2.10054315">
        <ele>1138.0000</ele>
        <time>2018-10-14T14:39:05Z</time>
      </trkpt>
      <trkpt lat="38.19501042" lon="-2.10051474">
        <ele>1137.0000</ele>
        <time>2018-10-14T14:39:07Z</time>
      </trkpt>
      <trkpt lat="38.19483230" lon="-2.10049051">
        <ele>1137.0000</ele>
        <time>2018-10-14T14:39:10Z</time>
      </trkpt>
      <trkpt lat="38.19454237" lon="-2.10047886">
        <ele>1137.0000</ele>
        <time>2018-10-14T14:39:15Z</time>
      </trkpt>
      <trkpt lat="38.19442746" lon="-2.10048339">
        <ele>1137.0000</ele>
        <time>2018-10-14T14:39:17Z</time>
      </trkpt>
      <trkpt lat="38.19425923" lon="-2.10049789">
        <ele>1136.0000</ele>
        <time>2018-10-14T14:39:20Z</time>
      </trkpt>
      <trkpt lat="38.19404860" lon="-2.10049864">
        <ele>1136.0000</ele>
        <time>2018-10-14T14:39:24Z</time>
      </trkpt>
      <trkpt lat="38.19394307" lon="-2.10052119">
        <ele>1135.0000</ele>
        <time>2018-10-14T14:39:26Z</time>
      </trkpt>
      <trkpt lat="38.19348592" lon="-2.10065128">
        <ele>1135.0000</ele>
        <time>2018-10-14T14:39:34Z</time>
      </trkpt>
      <trkpt lat="38.19311921" lon="-2.10075672">
        <ele>1134.0000</ele>
        <time>2018-10-14T14:39:40Z</time>
      </trkpt>
      <trkpt lat="38.19276415" lon="-2.10084524">
        <ele>1134.0000</ele>
        <time>2018-10-14T14:39:46Z</time>
      </trkpt>
      <trkpt lat="38.19259853" lon="-2.10088488">
        <ele>1134.0000</ele>
        <time>2018-10-14T14:39:49Z</time>
      </trkpt>
      <trkpt lat="38.19227138" lon="-2.10049789">
        <ele>1135.0000</ele>
        <time>2018-10-14T14:39:58Z</time>
      </trkpt>
      <trkpt lat="38.19213953" lon="-2.09999523">
        <ele>1135.0000</ele>
        <time>2018-10-14T14:40:04Z</time>
      </trkpt>
      <trkpt lat="38.19201791" lon="-2.09954579">
        <ele>1134.0000</ele>
        <time>2018-10-14T14:40:09Z</time>
      </trkpt>
      <trkpt lat="38.19191196" lon="-2.09917623">
        <ele>1132.0000</ele>
        <time>2018-10-14T14:40:13Z</time>
      </trkpt>
      <trkpt lat="38.19185924" lon="-2.09898764">
        <ele>1132.0000</ele>
        <time>2018-10-14T14:40:15Z</time>
      </trkpt>
      <trkpt lat="38.19180778" lon="-2.09880055">
        <ele>1132.0000</ele>
        <time>2018-10-14T14:40:17Z</time>
      </trkpt>
      <trkpt lat="38.19161675" lon="-2.09813327">
        <ele>1131.0000</ele>
        <time>2018-10-14T14:40:25Z</time>
      </trkpt>
      <trkpt lat="38.19155246" lon="-2.09790956">
        <ele>1131.0000</ele>
        <time>2018-10-14T14:40:28Z</time>
      </trkpt>
      <trkpt lat="38.19146680" lon="-2.09760772">
        <ele>1131.0000</ele>
        <time>2018-10-14T14:40:32Z</time>
      </trkpt>
      <trkpt lat="38.19138298" lon="-2.09731017">
        <ele>1132.0000</ele>
        <time>2018-10-14T14:40:36Z</time>
      </trkpt>
      <trkpt lat="38.19128181" lon="-2.09695377">
        <ele>1133.0000</ele>
        <time>2018-10-14T14:40:41Z</time>
      </trkpt>
      <trkpt lat="38.19107679" lon="-2.09642303">
        <ele>1133.0000</ele>
        <time>2018-10-14T14:40:49Z</time>
      </trkpt>
      <trkpt lat="38.19099205" lon="-2.09623024">
        <ele>1133.0000</ele>
        <time>2018-10-14T14:40:52Z</time>
      </trkpt>
      <trkpt lat="38.19090974" lon="-2.09603729">
        <ele>1133.0000</ele>
        <time>2018-10-14T14:40:55Z</time>
      </trkpt>
      <trkpt lat="38.19063657" lon="-2.09536875">
        <ele>1133.0000</ele>
        <time>2018-10-14T14:41:05Z</time>
      </trkpt>
      <trkpt lat="38.19044161" lon="-2.09488788">
        <ele>1133.0000</ele>
        <time>2018-10-14T14:41:13Z</time>
      </trkpt>
      <trkpt lat="38.19032996" lon="-2.09462561">
        <ele>1133.0000</ele>
        <time>2018-10-14T14:41:17Z</time>
      </trkpt>
      <trkpt lat="38.19023952" lon="-2.09441062">
        <ele>1133.0000</ele>
        <time>2018-10-14T14:41:20Z</time>
      </trkpt>
      <trkpt lat="38.19015386" lon="-2.09419964">
        <ele>1133.0000</ele>
        <time>2018-10-14T14:41:23Z</time>
      </trkpt>
      <trkpt lat="38.19004833" lon="-2.09394232">
        <ele>1132.0000</ele>
        <time>2018-10-14T14:41:27Z</time>
      </trkpt>
      <trkpt lat="38.18999226" lon="-2.09380947">
        <ele>1132.0000</ele>
        <time>2018-10-14T14:41:29Z</time>
      </trkpt>
      <trkpt lat="38.18993945" lon="-2.09368625">
        <ele>1132.0000</ele>
        <time>2018-10-14T14:41:31Z</time>
      </trkpt>
      <trkpt lat="38.18989536" lon="-2.09357854">
        <ele>1132.0000</ele>
        <time>2018-10-14T14:41:33Z</time>
      </trkpt>
      <trkpt lat="38.18980920" lon="-2.09337813">
        <ele>1132.0000</ele>
        <time>2018-10-14T14:41:37Z</time>
      </trkpt>
      <trkpt lat="38.18978715" lon="-2.09332927">
        <ele>1132.0000</ele>
        <time>2018-10-14T14:41:38Z</time>
      </trkpt>
      <trkpt lat="38.18966352" lon="-2.09305317">
        <ele>1133.0000</ele>
        <time>2018-10-14T14:41:43Z</time>
      </trkpt>
      <trkpt lat="38.18951030" lon="-2.09269316">
        <ele>1133.0000</ele>
        <time>2018-10-14T14:41:49Z</time>
      </trkpt>
      <trkpt lat="38.18941558" lon="-2.09246727">
        <ele>1133.0000</ele>
        <time>2018-10-14T14:41:53Z</time>
      </trkpt>
      <trkpt lat="38.18927099" lon="-2.09212512">
        <ele>1133.0000</ele>
        <time>2018-10-14T14:41:59Z</time>
      </trkpt>
      <trkpt lat="38.18919891" lon="-2.09193636">
        <ele>1133.0000</ele>
        <time>2018-10-14T14:42:02Z</time>
      </trkpt>
      <trkpt lat="38.18911886" lon="-2.09174224">
        <ele>1133.0000</ele>
        <time>2018-10-14T14:42:05Z</time>
      </trkpt>
      <trkpt lat="38.18891426" lon="-2.09125919">
        <ele>1132.0000</ele>
        <time>2018-10-14T14:42:12Z</time>
      </trkpt>
      <trkpt lat="38.18870094" lon="-2.09074965">
        <ele>1131.0000</ele>
        <time>2018-10-14T14:42:19Z</time>
      </trkpt>
      <trkpt lat="38.18842928" lon="-2.09006913">
        <ele>1130.0000</ele>
        <time>2018-10-14T14:42:28Z</time>
      </trkpt>
      <trkpt lat="38.18836684" lon="-2.08991557">
        <ele>1129.0000</ele>
        <time>2018-10-14T14:42:30Z</time>
      </trkpt>
      <trkpt lat="38.18810616" lon="-2.08929221">
        <ele>1128.0000</ele>
        <time>2018-10-14T14:42:38Z</time>
      </trkpt>
      <trkpt lat="38.18797515" lon="-2.08897369">
        <ele>1128.0000</ele>
        <time>2018-10-14T14:42:42Z</time>
      </trkpt>
      <trkpt lat="38.18779829" lon="-2.08857455">
        <ele>1127.0000</ele>
        <time>2018-10-14T14:42:47Z</time>
      </trkpt>
      <trkpt lat="38.18765840" lon="-2.08835436">
        <ele>1126.0000</ele>
        <time>2018-10-14T14:42:50Z</time>
      </trkpt>
      <trkpt lat="38.18754985" lon="-2.08822100">
        <ele>1126.0000</ele>
        <time>2018-10-14T14:42:52Z</time>
      </trkpt>
      <trkpt lat="38.18735984" lon="-2.08805856">
        <ele>1125.0000</ele>
        <time>2018-10-14T14:42:55Z</time>
      </trkpt>
      <trkpt lat="38.18729178" lon="-2.08801388">
        <ele>1125.0000</ele>
        <time>2018-10-14T14:42:56Z</time>
      </trkpt>
      <trkpt lat="38.18701668" lon="-2.08785194">
        <ele>1124.0000</ele>
        <time>2018-10-14T14:43:00Z</time>
      </trkpt>
      <trkpt lat="38.18653992" lon="-2.08758347">
        <ele>1123.0000</ele>
        <time>2018-10-14T14:43:08Z</time>
      </trkpt>
      <trkpt lat="38.18643213" lon="-2.08751633">
        <ele>1123.0000</ele>
        <time>2018-10-14T14:43:10Z</time>
      </trkpt>
      <trkpt lat="38.18626977" lon="-2.08742774">
        <ele>1123.0000</ele>
        <time>2018-10-14T14:43:13Z</time>
      </trkpt>
      <trkpt lat="38.18576484" lon="-2.08712515">
        <ele>1124.0000</ele>
        <time>2018-10-14T14:43:24Z</time>
      </trkpt>
      <trkpt lat="38.18549294" lon="-2.08690571">
        <ele>1124.0000</ele>
        <time>2018-10-14T14:43:30Z</time>
      </trkpt>
      <trkpt lat="38.18540115" lon="-2.08681778">
        <ele>1124.0000</ele>
        <time>2018-10-14T14:43:32Z</time>
      </trkpt>
      <trkpt lat="38.18535338" lon="-2.08621772">
        <ele>1123.0000</ele>
        <time>2018-10-14T14:43:41Z</time>
      </trkpt>
      <trkpt lat="38.18543041" lon="-2.08600466">
        <ele>1123.0000</ele>
        <time>2018-10-14T14:43:44Z</time>
      </trkpt>
      <trkpt lat="38.18543066" lon="-2.08561448">
        <ele>1123.0000</ele>
        <time>2018-10-14T14:43:49Z</time>
      </trkpt>
      <trkpt lat="38.18528599" lon="-2.08491107">
        <ele>1122.0000</ele>
        <time>2018-10-14T14:43:58Z</time>
      </trkpt>
      <trkpt lat="38.18514919" lon="-2.08424831">
        <ele>1121.0000</ele>
        <time>2018-10-14T14:44:06Z</time>
      </trkpt>
      <trkpt lat="38.18506353" lon="-2.08382385">
        <ele>1121.0000</ele>
        <time>2018-10-14T14:44:11Z</time>
      </trkpt>
      <trkpt lat="38.18501207" lon="-2.08358187">
        <ele>1120.0000</ele>
        <time>2018-10-14T14:44:14Z</time>
      </trkpt>
      <trkpt lat="38.18490578" lon="-2.08308096">
        <ele>1119.0000</ele>
        <time>2018-10-14T14:44:21Z</time>
      </trkpt>
      <trkpt lat="38.18488047" lon="-2.08295599">
        <ele>1119.0000</ele>
        <time>2018-10-14T14:44:23Z</time>
      </trkpt>
      <trkpt lat="38.18480973" lon="-2.08258551">
        <ele>1120.0000</ele>
        <time>2018-10-14T14:44:30Z</time>
      </trkpt>
      <trkpt lat="38.18478181" lon="-2.08243975">
        <ele>1121.0000</ele>
        <time>2018-10-14T14:44:33Z</time>
      </trkpt>
      <trkpt lat="38.18477829" lon="-2.08218921">
        <ele>1122.0000</ele>
        <time>2018-10-14T14:44:38Z</time>
      </trkpt>
      <trkpt lat="38.18478215" lon="-2.08208846">
        <ele>1122.0000</ele>
        <time>2018-10-14T14:44:40Z</time>
      </trkpt>
      <trkpt lat="38.18479296" lon="-2.08194304">
        <ele>1123.0000</ele>
        <time>2018-10-14T14:44:43Z</time>
      </trkpt>
      <trkpt lat="38.18479397" lon="-2.08184581">
        <ele>1123.0000</ele>
        <time>2018-10-14T14:44:45Z</time>
      </trkpt>
      <trkpt lat="38.18480495" lon="-2.08170508">
        <ele>1124.0000</ele>
        <time>2018-10-14T14:44:48Z</time>
      </trkpt>
      <trkpt lat="38.18480973" lon="-2.08161346">
        <ele>1124.0000</ele>
        <time>2018-10-14T14:44:50Z</time>
      </trkpt>
      <trkpt lat="38.18481702" lon="-2.08138782">
        <ele>1125.0000</ele>
        <time>2018-10-14T14:44:55Z</time>
      </trkpt>
      <trkpt lat="38.18482909" lon="-2.08108951">
        <ele>1126.0000</ele>
        <time>2018-10-14T14:45:01Z</time>
      </trkpt>
      <trkpt lat="38.18484879" lon="-2.08059741">
        <ele>1127.0000</ele>
        <time>2018-10-14T14:45:11Z</time>
      </trkpt>
      <trkpt lat="38.18489195" lon="-2.08003498">
        <ele>1127.0000</ele>
        <time>2018-10-14T14:45:23Z</time>
      </trkpt>
      <trkpt lat="38.18496203" lon="-2.07980305">
        <ele>1128.0000</ele>
        <time>2018-10-14T14:45:28Z</time>
      </trkpt>
      <trkpt lat="38.18502196" lon="-2.07961421">
        <ele>1128.0000</ele>
        <time>2018-10-14T14:45:32Z</time>
      </trkpt>
      <trkpt lat="38.18507552" lon="-2.07945873">
        <ele>1128.0000</ele>
        <time>2018-10-14T14:45:36Z</time>
      </trkpt>
      <trkpt lat="38.18512698" lon="-2.07929167">
        <ele>1128.0000</ele>
        <time>2018-10-14T14:45:40Z</time>
      </trkpt>
      <trkpt lat="38.18520611" lon="-2.07904952">
        <ele>1128.0000</ele>
        <time>2018-10-14T14:45:45Z</time>
      </trkpt>
      <trkpt lat="38.18525690" lon="-2.07890854">
        <ele>1129.0000</ele>
        <time>2018-10-14T14:45:48Z</time>
      </trkpt>
      <trkpt lat="38.18533251" lon="-2.07872690">
        <ele>1130.0000</ele>
        <time>2018-10-14T14:45:52Z</time>
      </trkpt>
      <trkpt lat="38.18535271" lon="-2.07868264">
        <ele>1130.0000</ele>
        <time>2018-10-14T14:45:53Z</time>
      </trkpt>
      <trkpt lat="38.18543929" lon="-2.07850688">
        <ele>1131.0000</ele>
        <time>2018-10-14T14:45:57Z</time>
      </trkpt>
      <trkpt lat="38.18546033" lon="-2.07846698">
        <ele>1131.0000</ele>
        <time>2018-10-14T14:45:58Z</time>
      </trkpt>
      <trkpt lat="38.18555387" lon="-2.07830412">
        <ele>1132.0000</ele>
        <time>2018-10-14T14:46:02Z</time>
      </trkpt>
      <trkpt lat="38.18572905" lon="-2.07800396">
        <ele>1133.0000</ele>
        <time>2018-10-14T14:46:09Z</time>
      </trkpt>
      <trkpt lat="38.18586761" lon="-2.07774907">
        <ele>1133.0000</ele>
        <time>2018-10-14T14:46:15Z</time>
      </trkpt>
      <trkpt lat="38.18605058" lon="-2.07743047">
        <ele>1133.0000</ele>
        <time>2018-10-14T14:46:23Z</time>
      </trkpt>
      <trkpt lat="38.18615234" lon="-2.07723048">
        <ele>1134.0000</ele>
        <time>2018-10-14T14:46:28Z</time>
      </trkpt>
      <trkpt lat="38.18622996" lon="-2.07700710">
        <ele>1135.0000</ele>
        <time>2018-10-14T14:46:33Z</time>
      </trkpt>
      <trkpt lat="38.18622736" lon="-2.07695614">
        <ele>1136.0000</ele>
        <time>2018-10-14T14:46:34Z</time>
      </trkpt>
      <trkpt lat="38.18615728" lon="-2.07678037">
        <ele>1136.0000</ele>
        <time>2018-10-14T14:46:38Z</time>
      </trkpt>
      <trkpt lat="38.18613415" lon="-2.07673897">
        <ele>1136.0000</ele>
        <time>2018-10-14T14:46:39Z</time>
      </trkpt>
      <trkpt lat="38.18610741" lon="-2.07670058">
        <ele>1137.0000</ele>
        <time>2018-10-14T14:46:40Z</time>
      </trkpt>
      <trkpt lat="38.18593382" lon="-2.07647594">
        <ele>1137.0000</ele>
        <time>2018-10-14T14:46:46Z</time>
      </trkpt>
      <trkpt lat="38.18560349" lon="-2.07599440">
        <ele>1138.0000</ele>
        <time>2018-10-14T14:46:57Z</time>
      </trkpt>
      <trkpt lat="38.18548330" lon="-2.07580757">
        <ele>1138.0000</ele>
        <time>2018-10-14T14:47:01Z</time>
      </trkpt>
      <trkpt lat="38.18518892" lon="-2.07524950">
        <ele>1138.0000</ele>
        <time>2018-10-14T14:47:13Z</time>
      </trkpt>
      <trkpt lat="38.18509739" lon="-2.07503585">
        <ele>1139.0000</ele>
        <time>2018-10-14T14:47:18Z</time>
      </trkpt>
      <trkpt lat="38.18504828" lon="-2.07491246">
        <ele>1140.0000</ele>
        <time>2018-10-14T14:47:21Z</time>
      </trkpt>
      <trkpt lat="38.18494183" lon="-2.07466537">
        <ele>1141.0000</ele>
        <time>2018-10-14T14:47:27Z</time>
      </trkpt>
      <trkpt lat="38.18485541" lon="-2.07446370">
        <ele>1142.0000</ele>
        <time>2018-10-14T14:47:32Z</time>
      </trkpt>
      <trkpt lat="38.18476287" lon="-2.07422054">
        <ele>1143.0000</ele>
        <time>2018-10-14T14:47:38Z</time>
      </trkpt>
      <trkpt lat="38.18465726" lon="-2.07399238">
        <ele>1144.0000</ele>
        <time>2018-10-14T14:47:44Z</time>
      </trkpt>
      <trkpt lat="38.18459196" lon="-2.07383397">
        <ele>1145.0000</ele>
        <time>2018-10-14T14:47:48Z</time>
      </trkpt>
      <trkpt lat="38.18451628" lon="-2.07359860">
        <ele>1146.0000</ele>
        <time>2018-10-14T14:47:54Z</time>
      </trkpt>
      <trkpt lat="38.18451963" lon="-2.07339911">
        <ele>1147.0000</ele>
        <time>2018-10-14T14:47:59Z</time>
      </trkpt>
      <trkpt lat="38.18455265" lon="-2.07320298">
        <ele>1148.0000</ele>
        <time>2018-10-14T14:48:04Z</time>
      </trkpt>
      <trkpt lat="38.18460085" lon="-2.07297499">
        <ele>1149.0000</ele>
        <time>2018-10-14T14:48:10Z</time>
      </trkpt>
      <trkpt lat="38.18464267" lon="-2.07278338">
        <ele>1150.0000</ele>
        <time>2018-10-14T14:48:15Z</time>
      </trkpt>
      <trkpt lat="38.18468928" lon="-2.07260367">
        <ele>1151.0000</ele>
        <time>2018-10-14T14:48:20Z</time>
      </trkpt>
      <trkpt lat="38.18470939" lon="-2.07241524">
        <ele>1152.0000</ele>
        <time>2018-10-14T14:48:25Z</time>
      </trkpt>
      <trkpt lat="38.18470110" lon="-2.07222171">
        <ele>1153.0000</ele>
        <time>2018-10-14T14:48:30Z</time>
      </trkpt>
      <trkpt lat="38.18468601" lon="-2.07207821">
        <ele>1154.0000</ele>
        <time>2018-10-14T14:48:34Z</time>
      </trkpt>
      <trkpt lat="38.18465282" lon="-2.07189582">
        <ele>1154.0000</ele>
        <time>2018-10-14T14:48:39Z</time>
      </trkpt>
      <trkpt lat="38.18462708" lon="-2.07175299">
        <ele>1155.0000</ele>
        <time>2018-10-14T14:48:43Z</time>
      </trkpt>
      <trkpt lat="38.18455894" lon="-2.07150002">
        <ele>1156.0000</ele>
        <time>2018-10-14T14:48:50Z</time>
      </trkpt>
      <trkpt lat="38.18449490" lon="-2.07133306">
        <ele>1157.0000</ele>
        <time>2018-10-14T14:48:55Z</time>
      </trkpt>
      <trkpt lat="38.18443112" lon="-2.07121068">
        <ele>1158.0000</ele>
        <time>2018-10-14T14:48:59Z</time>
      </trkpt>
      <trkpt lat="38.18433657" lon="-2.07106961">
        <ele>1159.0000</ele>
        <time>2018-10-14T14:49:04Z</time>
      </trkpt>
      <trkpt lat="38.18422492" lon="-2.07095000">
        <ele>1160.0000</ele>
        <time>2018-10-14T14:49:09Z</time>
      </trkpt>
      <trkpt lat="38.18410020" lon="-2.07084758">
        <ele>1161.0000</ele>
        <time>2018-10-14T14:49:14Z</time>
      </trkpt>
      <trkpt lat="38.18399224" lon="-2.07078379">
        <ele>1162.0000</ele>
        <time>2018-10-14T14:49:18Z</time>
      </trkpt>
      <trkpt lat="38.18385805" lon="-2.07072042">
        <ele>1163.0000</ele>
        <time>2018-10-14T14:49:23Z</time>
      </trkpt>
      <trkpt lat="38.18375193" lon="-2.07065144">
        <ele>1164.0000</ele>
        <time>2018-10-14T14:49:27Z</time>
      </trkpt>
      <trkpt lat="38.18364087" lon="-2.07041272">
        <ele>1165.0000</ele>
        <time>2018-10-14T14:49:34Z</time>
      </trkpt>
      <trkpt lat="38.18366811" lon="-2.07021298">
        <ele>1165.0000</ele>
        <time>2018-10-14T14:49:39Z</time>
      </trkpt>
      <trkpt lat="38.18368219" lon="-2.07017753">
        <ele>1165.0000</ele>
        <time>2018-10-14T14:49:40Z</time>
      </trkpt>
      <trkpt lat="38.18386316" lon="-2.06983680">
        <ele>1166.0000</ele>
        <time>2018-10-14T14:49:50Z</time>
      </trkpt>
      <trkpt lat="38.18396408" lon="-2.06966313">
        <ele>1167.0000</ele>
        <time>2018-10-14T14:49:55Z</time>
      </trkpt>
      <trkpt lat="38.18409718" lon="-2.06940405">
        <ele>1168.0000</ele>
        <time>2018-10-14T14:50:03Z</time>
      </trkpt>
      <trkpt lat="38.18418318" lon="-2.06924093">
        <ele>1168.0000</ele>
        <time>2018-10-14T14:50:08Z</time>
      </trkpt>
      <trkpt lat="38.18426297" lon="-2.06907221">
        <ele>1169.0000</ele>
        <time>2018-10-14T14:50:13Z</time>
      </trkpt>
      <trkpt lat="38.18433213" lon="-2.06894111">
        <ele>1171.0000</ele>
        <time>2018-10-14T14:50:17Z</time>
      </trkpt>
      <trkpt lat="38.18442776" lon="-2.06879552">
        <ele>1172.0000</ele>
        <time>2018-10-14T14:50:22Z</time>
      </trkpt>
      <trkpt lat="38.18454192" lon="-2.06865973">
        <ele>1173.0000</ele>
        <time>2018-10-14T14:50:27Z</time>
      </trkpt>
      <trkpt lat="38.18465743" lon="-2.06853149">
        <ele>1174.0000</ele>
        <time>2018-10-14T14:50:32Z</time>
      </trkpt>
      <trkpt lat="38.18477989" lon="-2.06841716">
        <ele>1175.0000</ele>
        <time>2018-10-14T14:50:37Z</time>
      </trkpt>
      <trkpt lat="38.18489095" lon="-2.06836150">
        <ele>1176.0000</ele>
        <time>2018-10-14T14:50:41Z</time>
      </trkpt>
      <trkpt lat="38.18505900" lon="-2.06828934">
        <ele>1176.0000</ele>
        <time>2018-10-14T14:50:47Z</time>
      </trkpt>
      <trkpt lat="38.18514165" lon="-2.06817995">
        <ele>1178.0000</ele>
        <time>2018-10-14T14:50:51Z</time>
      </trkpt>
      <trkpt lat="38.18518465" lon="-2.06807744">
        <ele>1179.0000</ele>
        <time>2018-10-14T14:50:54Z</time>
      </trkpt>
      <trkpt lat="38.18526319" lon="-2.06783286">
        <ele>1180.0000</ele>
        <time>2018-10-14T14:51:01Z</time>
      </trkpt>
      <trkpt lat="38.18534315" lon="-2.06758936">
        <ele>1181.0000</ele>
        <time>2018-10-14T14:51:08Z</time>
      </trkpt>
      <trkpt lat="38.18540635" lon="-2.06738283">
        <ele>1182.0000</ele>
        <time>2018-10-14T14:51:14Z</time>
      </trkpt>
      <trkpt lat="38.18544868" lon="-2.06720187">
        <ele>1183.0000</ele>
        <time>2018-10-14T14:51:19Z</time>
      </trkpt>
      <trkpt lat="38.18547802" lon="-2.06701453">
        <ele>1183.0000</ele>
        <time>2018-10-14T14:51:24Z</time>
      </trkpt>
      <trkpt lat="38.18549310" lon="-2.06683047">
        <ele>1184.0000</ele>
        <time>2018-10-14T14:51:29Z</time>
      </trkpt>
      <trkpt lat="38.18551280" lon="-2.06664590">
        <ele>1185.0000</ele>
        <time>2018-10-14T14:51:34Z</time>
      </trkpt>
      <trkpt lat="38.18553443" lon="-2.06649594">
        <ele>1186.0000</ele>
        <time>2018-10-14T14:51:38Z</time>
      </trkpt>
      <trkpt lat="38.18557994" lon="-2.06623988">
        <ele>1187.0000</ele>
        <time>2018-10-14T14:51:45Z</time>
      </trkpt>
      <trkpt lat="38.18563509" lon="-2.06606679">
        <ele>1188.0000</ele>
        <time>2018-10-14T14:51:50Z</time>
      </trkpt>
      <trkpt lat="38.18573526" lon="-2.06587644">
        <ele>1189.0000</ele>
        <time>2018-10-14T14:51:56Z</time>
      </trkpt>
      <trkpt lat="38.18581748" lon="-2.06571592">
        <ele>1190.0000</ele>
        <time>2018-10-14T14:52:01Z</time>
      </trkpt>
      <trkpt lat="38.18592008" lon="-2.06552666">
        <ele>1191.0000</ele>
        <time>2018-10-14T14:52:07Z</time>
      </trkpt>
      <trkpt lat="38.18600079" lon="-2.06536749">
        <ele>1192.0000</ele>
        <time>2018-10-14T14:52:12Z</time>
      </trkpt>
      <trkpt lat="38.18610716" lon="-2.06518443">
        <ele>1193.0000</ele>
        <time>2018-10-14T14:52:18Z</time>
      </trkpt>
      <trkpt lat="38.18622920" lon="-2.06507588">
        <ele>1194.0000</ele>
        <time>2018-10-14T14:52:23Z</time>
      </trkpt>
      <trkpt lat="38.18637580" lon="-2.06503381">
        <ele>1195.0000</ele>
        <time>2018-10-14T14:52:28Z</time>
      </trkpt>
      <trkpt lat="38.18652274" lon="-2.06504730">
        <ele>1196.0000</ele>
        <time>2018-10-14T14:52:33Z</time>
      </trkpt>
      <trkpt lat="38.18660840" lon="-2.06501612">
        <ele>1197.0000</ele>
        <time>2018-10-14T14:52:36Z</time>
      </trkpt>
      <trkpt lat="38.18670982" lon="-2.06493716">
        <ele>1198.0000</ele>
        <time>2018-10-14T14:52:40Z</time>
      </trkpt>
      <trkpt lat="38.18680269" lon="-2.06479115">
        <ele>1199.0000</ele>
        <time>2018-10-14T14:52:45Z</time>
      </trkpt>
      <trkpt lat="38.18687226" lon="-2.06466794">
        <ele>1200.0000</ele>
        <time>2018-10-14T14:52:49Z</time>
      </trkpt>
      <trkpt lat="38.18695600" lon="-2.06450658">
        <ele>1201.0000</ele>
        <time>2018-10-14T14:52:54Z</time>
      </trkpt>
      <trkpt lat="38.18705901" lon="-2.06432444">
        <ele>1202.0000</ele>
        <time>2018-10-14T14:53:00Z</time>
      </trkpt>
      <trkpt lat="38.18711659" lon="-2.06414457">
        <ele>1202.0000</ele>
        <time>2018-10-14T14:53:05Z</time>
      </trkpt>
      <trkpt lat="38.18712078" lon="-2.06398892">
        <ele>1203.0000</ele>
        <time>2018-10-14T14:53:09Z</time>
      </trkpt>
      <trkpt lat="38.18707158" lon="-2.06380728">
        <ele>1204.0000</ele>
        <time>2018-10-14T14:53:14Z</time>
      </trkpt>
      <trkpt lat="38.18700889" lon="-2.06367569">
        <ele>1206.0000</ele>
        <time>2018-10-14T14:53:18Z</time>
      </trkpt>
      <trkpt lat="38.18694108" lon="-2.06354493">
        <ele>1207.0000</ele>
        <time>2018-10-14T14:53:22Z</time>
      </trkpt>
      <trkpt lat="38.18683362" lon="-2.06327159">
        <ele>1208.0000</ele>
        <time>2018-10-14T14:53:30Z</time>
      </trkpt>
      <trkpt lat="38.18677176" lon="-2.06312759">
        <ele>1209.0000</ele>
        <time>2018-10-14T14:53:34Z</time>
      </trkpt>
      <trkpt lat="38.18668534" lon="-2.06300270">
        <ele>1210.0000</ele>
        <time>2018-10-14T14:53:38Z</time>
      </trkpt>
      <trkpt lat="38.18653749" lon="-2.06289860">
        <ele>1211.0000</ele>
        <time>2018-10-14T14:53:43Z</time>
      </trkpt>
      <trkpt lat="38.18641696" lon="-2.06284973">
        <ele>1212.0000</ele>
        <time>2018-10-14T14:53:47Z</time>
      </trkpt>
      <trkpt lat="38.18630212" lon="-2.06280313">
        <ele>1213.0000</ele>
        <time>2018-10-14T14:53:51Z</time>
      </trkpt>
      <trkpt lat="38.18615770" lon="-2.06267497">
        <ele>1214.0000</ele>
        <time>2018-10-14T14:53:57Z</time>
      </trkpt>
      <trkpt lat="38.18603734" lon="-2.06247632">
        <ele>1215.0000</ele>
        <time>2018-10-14T14:54:04Z</time>
      </trkpt>
      <trkpt lat="38.18596442" lon="-2.06234489">
        <ele>1216.0000</ele>
        <time>2018-10-14T14:54:08Z</time>
      </trkpt>
      <trkpt lat="38.18584372" lon="-2.06215831">
        <ele>1217.0000</ele>
        <time>2018-10-14T14:54:14Z</time>
      </trkpt>
      <trkpt lat="38.18575982" lon="-2.06203082">
        <ele>1218.0000</ele>
        <time>2018-10-14T14:54:18Z</time>
      </trkpt>
      <trkpt lat="38.18567139" lon="-2.06186603">
        <ele>1219.0000</ele>
        <time>2018-10-14T14:54:23Z</time>
      </trkpt>
      <trkpt lat="38.18563643" lon="-2.06175422">
        <ele>1220.0000</ele>
        <time>2018-10-14T14:54:26Z</time>
      </trkpt>
      <trkpt lat="38.18565278" lon="-2.06147887">
        <ele>1221.0000</ele>
        <time>2018-10-14T14:54:33Z</time>
      </trkpt>
      <trkpt lat="38.18568589" lon="-2.06124317">
        <ele>1222.0000</ele>
        <time>2018-10-14T14:54:39Z</time>
      </trkpt>
      <trkpt lat="38.18574079" lon="-2.06092441">
        <ele>1223.0000</ele>
        <time>2018-10-14T14:54:47Z</time>
      </trkpt>
      <trkpt lat="38.18579711" lon="-2.06068494">
        <ele>1223.0000</ele>
        <time>2018-10-14T14:54:53Z</time>
      </trkpt>
      <trkpt lat="38.18580835" lon="-2.06064487">
        <ele>1224.0000</ele>
        <time>2018-10-14T14:54:54Z</time>
      </trkpt>
      <trkpt lat="38.18585160" lon="-2.06048419">
        <ele>1224.0000</ele>
        <time>2018-10-14T14:54:58Z</time>
      </trkpt>
      <trkpt lat="38.18586333" lon="-2.06044346">
        <ele>1225.0000</ele>
        <time>2018-10-14T14:54:59Z</time>
      </trkpt>
      <trkpt lat="38.18597691" lon="-2.06004297">
        <ele>1225.0000</ele>
        <time>2018-10-14T14:55:09Z</time>
      </trkpt>
      <trkpt lat="38.18606123" lon="-2.05973787">
        <ele>1226.0000</ele>
        <time>2018-10-14T14:55:17Z</time>
      </trkpt>
      <trkpt lat="38.18611655" lon="-2.05953737">
        <ele>1228.0000</ele>
        <time>2018-10-14T14:55:22Z</time>
      </trkpt>
      <trkpt lat="38.18615251" lon="-2.05937359">
        <ele>1229.0000</ele>
        <time>2018-10-14T14:55:26Z</time>
      </trkpt>
      <trkpt lat="38.18617732" lon="-2.05920578">
        <ele>1230.0000</ele>
        <time>2018-10-14T14:55:30Z</time>
      </trkpt>
      <trkpt lat="38.18619844" lon="-2.05904033">
        <ele>1231.0000</ele>
        <time>2018-10-14T14:55:34Z</time>
      </trkpt>
      <trkpt lat="38.18623666" lon="-2.05888065">
        <ele>1232.0000</ele>
        <time>2018-10-14T14:55:38Z</time>
      </trkpt>
      <trkpt lat="38.18628419" lon="-2.05872617">
        <ele>1233.0000</ele>
        <time>2018-10-14T14:55:42Z</time>
      </trkpt>
      <trkpt lat="38.18634747" lon="-2.05857714">
        <ele>1234.0000</ele>
        <time>2018-10-14T14:55:46Z</time>
      </trkpt>
      <trkpt lat="38.18639282" lon="-2.05846390">
        <ele>1235.0000</ele>
        <time>2018-10-14T14:55:49Z</time>
      </trkpt>
      <trkpt lat="38.18645736" lon="-2.05826198">
        <ele>1236.0000</ele>
        <time>2018-10-14T14:55:54Z</time>
      </trkpt>
      <trkpt lat="38.18648225" lon="-2.05808621">
        <ele>1237.0000</ele>
        <time>2018-10-14T14:55:58Z</time>
      </trkpt>
      <trkpt lat="38.18649357" lon="-2.05795638">
        <ele>1238.0000</ele>
        <time>2018-10-14T14:56:01Z</time>
      </trkpt>
      <trkpt lat="38.18650798" lon="-2.05782109">
        <ele>1239.0000</ele>
        <time>2018-10-14T14:56:04Z</time>
      </trkpt>
      <trkpt lat="38.18650438" lon="-2.05762412">
        <ele>1240.0000</ele>
        <time>2018-10-14T14:56:08Z</time>
      </trkpt>
      <trkpt lat="38.18645182" lon="-2.05733478">
        <ele>1240.0000</ele>
        <time>2018-10-14T14:56:13Z</time>
      </trkpt>
      <trkpt lat="38.18640816" lon="-2.05712464">
        <ele>1240.0000</ele>
        <time>2018-10-14T14:56:16Z</time>
      </trkpt>
      <trkpt lat="38.18638527" lon="-2.05697000">
        <ele>1240.0000</ele>
        <time>2018-10-14T14:56:18Z</time>
      </trkpt>
      <trkpt lat="38.18642584" lon="-2.05666531">
        <ele>1239.0000</ele>
        <time>2018-10-14T14:56:22Z</time>
      </trkpt>
      <trkpt lat="38.18649575" lon="-2.05645794">
        <ele>1238.0000</ele>
        <time>2018-10-14T14:56:25Z</time>
      </trkpt>
      <trkpt lat="38.18655190" lon="-2.05623867">
        <ele>1237.0000</ele>
        <time>2018-10-14T14:56:28Z</time>
      </trkpt>
      <trkpt lat="38.18656783" lon="-2.05608638">
        <ele>1237.0000</ele>
        <time>2018-10-14T14:56:30Z</time>
      </trkpt>
      <trkpt lat="38.18648133" lon="-2.05558857">
        <ele>1238.0000</ele>
        <time>2018-10-14T14:56:38Z</time>
      </trkpt>
      <trkpt lat="38.18646012" lon="-2.05553778">
        <ele>1238.0000</ele>
        <time>2018-10-14T14:56:39Z</time>
      </trkpt>
      <trkpt lat="38.18637999" lon="-2.05540359">
        <ele>1239.0000</ele>
        <time>2018-10-14T14:56:42Z</time>
      </trkpt>
      <trkpt lat="38.18634957" lon="-2.05535916">
        <ele>1239.0000</ele>
        <time>2018-10-14T14:56:43Z</time>
      </trkpt>
      <trkpt lat="38.18617086" lon="-2.05507392">
        <ele>1240.0000</ele>
        <time>2018-10-14T14:56:49Z</time>
      </trkpt>
      <trkpt lat="38.18607891" lon="-2.05493914">
        <ele>1240.0000</ele>
        <time>2018-10-14T14:56:52Z</time>
      </trkpt>
      <trkpt lat="38.18602066" lon="-2.05485382">
        <ele>1240.0000</ele>
        <time>2018-10-14T14:56:54Z</time>
      </trkpt>
      <trkpt lat="38.18565974" lon="-2.05429684">
        <ele>1240.0000</ele>
        <time>2018-10-14T14:57:06Z</time>
      </trkpt>
      <trkpt lat="38.18558396" lon="-2.05409752">
        <ele>1240.0000</ele>
        <time>2018-10-14T14:57:10Z</time>
      </trkpt>
      <trkpt lat="38.18559830" lon="-2.05395637">
        <ele>1240.0000</ele>
        <time>2018-10-14T14:57:13Z</time>
      </trkpt>
      <trkpt lat="38.18561271" lon="-2.05385964">
        <ele>1240.0000</ele>
        <time>2018-10-14T14:57:15Z</time>
      </trkpt>
      <trkpt lat="38.18566728" lon="-2.05365755">
        <ele>1240.0000</ele>
        <time>2018-10-14T14:57:19Z</time>
      </trkpt>
      <trkpt lat="38.18568119" lon="-2.05360500">
        <ele>1241.0000</ele>
        <time>2018-10-14T14:57:20Z</time>
      </trkpt>
      <trkpt lat="38.18573190" lon="-2.05346887">
        <ele>1242.0000</ele>
        <time>2018-10-14T14:57:23Z</time>
      </trkpt>
      <trkpt lat="38.18574414" lon="-2.05342018">
        <ele>1242.0000</ele>
        <time>2018-10-14T14:57:24Z</time>
      </trkpt>
      <trkpt lat="38.18576694" lon="-2.05331029">
        <ele>1243.0000</ele>
        <time>2018-10-14T14:57:26Z</time>
      </trkpt>
      <trkpt lat="38.18585512" lon="-2.05303846">
        <ele>1244.0000</ele>
        <time>2018-10-14T14:57:31Z</time>
      </trkpt>
      <trkpt lat="38.18588353" lon="-2.05293755">
        <ele>1244.0000</ele>
        <time>2018-10-14T14:57:33Z</time>
      </trkpt>
      <trkpt lat="38.18591756" lon="-2.05278164">
        <ele>1245.0000</ele>
        <time>2018-10-14T14:57:36Z</time>
      </trkpt>
      <trkpt lat="38.18597523" lon="-2.05247973">
        <ele>1246.0000</ele>
        <time>2018-10-14T14:57:42Z</time>
      </trkpt>
      <trkpt lat="38.18600306" lon="-2.05228753">
        <ele>1247.0000</ele>
        <time>2018-10-14T14:57:46Z</time>
      </trkpt>
      <trkpt lat="38.18603399" lon="-2.05204906">
        <ele>1248.0000</ele>
        <time>2018-10-14T14:57:51Z</time>
      </trkpt>
      <trkpt lat="38.18607766" lon="-2.05181311">
        <ele>1249.0000</ele>
        <time>2018-10-14T14:57:56Z</time>
      </trkpt>
      <trkpt lat="38.18612225" lon="-2.05153207">
        <ele>1250.0000</ele>
        <time>2018-10-14T14:58:02Z</time>
      </trkpt>
      <trkpt lat="38.18611856" lon="-2.05125572">
        <ele>1251.0000</ele>
        <time>2018-10-14T14:58:08Z</time>
      </trkpt>
      <trkpt lat="38.18605863" lon="-2.05100669">
        <ele>1252.0000</ele>
        <time>2018-10-14T14:58:13Z</time>
      </trkpt>
      <trkpt lat="38.18600373" lon="-2.05084836">
        <ele>1252.0000</ele>
        <time>2018-10-14T14:58:16Z</time>
      </trkpt>
      <trkpt lat="38.18595344" lon="-2.05072229">
        <ele>1252.0000</ele>
        <time>2018-10-14T14:58:18Z</time>
      </trkpt>
      <trkpt lat="38.18591790" lon="-2.05065507">
        <ele>1252.0000</ele>
        <time>2018-10-14T14:58:19Z</time>
      </trkpt>
      <trkpt lat="38.18577867" lon="-2.05045089">
        <ele>1252.0000</ele>
        <time>2018-10-14T14:58:22Z</time>
      </trkpt>
      <trkpt lat="38.18571732" lon="-2.05028970">
        <ele>1252.0000</ele>
        <time>2018-10-14T14:58:24Z</time>
      </trkpt>
      <trkpt lat="38.18572813" lon="-2.05010798">
        <ele>1250.0000</ele>
        <time>2018-10-14T14:58:26Z</time>
      </trkpt>
      <trkpt lat="38.18582461" lon="-2.04995510">
        <ele>1249.0000</ele>
        <time>2018-10-14T14:58:28Z</time>
      </trkpt>
      <trkpt lat="38.18596618" lon="-2.04983649">
        <ele>1247.0000</ele>
        <time>2018-10-14T14:58:30Z</time>
      </trkpt>
      <trkpt lat="38.18602921" lon="-2.04977447">
        <ele>1247.0000</ele>
        <time>2018-10-14T14:58:31Z</time>
      </trkpt>
      <trkpt lat="38.18611152" lon="-2.04961177">
        <ele>1246.0000</ele>
        <time>2018-10-14T14:58:33Z</time>
      </trkpt>
      <trkpt lat="38.18612216" lon="-2.04941622">
        <ele>1245.0000</ele>
        <time>2018-10-14T14:58:35Z</time>
      </trkpt>
      <trkpt lat="38.18600079" lon="-2.04915965">
        <ele>1244.0000</ele>
        <time>2018-10-14T14:58:38Z</time>
      </trkpt>
      <trkpt lat="38.18569720" lon="-2.04896620">
        <ele>1242.0000</ele>
        <time>2018-10-14T14:58:42Z</time>
      </trkpt>
      <trkpt lat="38.18561824" lon="-2.04891918">
        <ele>1242.0000</ele>
        <time>2018-10-14T14:58:43Z</time>
      </trkpt>
      <trkpt lat="38.18554448" lon="-2.04886126">
        <ele>1241.0000</ele>
        <time>2018-10-14T14:58:44Z</time>
      </trkpt>
      <trkpt lat="38.18541825" lon="-2.04871164">
        <ele>1240.0000</ele>
        <time>2018-10-14T14:58:46Z</time>
      </trkpt>
      <trkpt lat="38.18534365" lon="-2.04851442">
        <ele>1238.0000</ele>
        <time>2018-10-14T14:58:48Z</time>
      </trkpt>
      <trkpt lat="38.18530946" lon="-2.04828676">
        <ele>1237.0000</ele>
        <time>2018-10-14T14:58:50Z</time>
      </trkpt>
      <trkpt lat="38.18528775" lon="-2.04816967">
        <ele>1236.0000</ele>
        <time>2018-10-14T14:58:51Z</time>
      </trkpt>
      <trkpt lat="38.18525732" lon="-2.04805324">
        <ele>1235.0000</ele>
        <time>2018-10-14T14:58:52Z</time>
      </trkpt>
      <trkpt lat="38.18521700" lon="-2.04793900">
        <ele>1235.0000</ele>
        <time>2018-10-14T14:58:53Z</time>
      </trkpt>
      <trkpt lat="38.18506638" lon="-2.04761303">
        <ele>1233.0000</ele>
        <time>2018-10-14T14:58:56Z</time>
      </trkpt>
      <trkpt lat="38.18485331" lon="-2.04735503">
        <ele>1232.0000</ele>
        <time>2018-10-14T14:58:59Z</time>
      </trkpt>
      <trkpt lat="38.18470235" lon="-2.04718044">
        <ele>1230.0000</ele>
        <time>2018-10-14T14:59:01Z</time>
      </trkpt>
      <trkpt lat="38.18453765" lon="-2.04683954">
        <ele>1229.0000</ele>
        <time>2018-10-14T14:59:04Z</time>
      </trkpt>
      <trkpt lat="38.18448308" lon="-2.04672119">
        <ele>1229.0000</ele>
        <time>2018-10-14T14:59:05Z</time>
      </trkpt>
      <trkpt lat="38.18442508" lon="-2.04660669">
        <ele>1228.0000</ele>
        <time>2018-10-14T14:59:06Z</time>
      </trkpt>
      <trkpt lat="38.18436305" lon="-2.04649681">
        <ele>1227.0000</ele>
        <time>2018-10-14T14:59:07Z</time>
      </trkpt>
      <trkpt lat="38.18421989" lon="-2.04629279">
        <ele>1225.0000</ele>
        <time>2018-10-14T14:59:09Z</time>
      </trkpt>
      <trkpt lat="38.18396961" lon="-2.04603522">
        <ele>1224.0000</ele>
        <time>2018-10-14T14:59:12Z</time>
      </trkpt>
      <trkpt lat="38.18388713" lon="-2.04595726">
        <ele>1222.0000</ele>
        <time>2018-10-14T14:59:13Z</time>
      </trkpt>
      <trkpt lat="38.18365755" lon="-2.04576926">
        <ele>1221.0000</ele>
        <time>2018-10-14T14:59:16Z</time>
      </trkpt>
      <trkpt lat="38.18323351" lon="-2.04557262">
        <ele>1220.0000</ele>
        <time>2018-10-14T14:59:22Z</time>
      </trkpt>
      <trkpt lat="38.18295054" lon="-2.04535343">
        <ele>1220.0000</ele>
        <time>2018-10-14T14:59:27Z</time>
      </trkpt>
      <trkpt lat="38.18277745" lon="-2.04505621">
        <ele>1221.0000</ele>
        <time>2018-10-14T14:59:31Z</time>
      </trkpt>
      <trkpt lat="38.18262523" lon="-2.04468506">
        <ele>1221.0000</ele>
        <time>2018-10-14T14:59:35Z</time>
      </trkpt>
      <trkpt lat="38.18235073" lon="-2.04405935">
        <ele>1220.0000</ele>
        <time>2018-10-14T14:59:41Z</time>
      </trkpt>
      <trkpt lat="38.18212165" lon="-2.04362332">
        <ele>1219.0000</ele>
        <time>2018-10-14T14:59:45Z</time>
      </trkpt>
      <trkpt lat="38.18201344" lon="-2.04340338">
        <ele>1217.0000</ele>
        <time>2018-10-14T14:59:47Z</time>
      </trkpt>
      <trkpt lat="38.18197580" lon="-2.04329090">
        <ele>1216.0000</ele>
        <time>2018-10-14T14:59:48Z</time>
      </trkpt>
      <trkpt lat="38.18195535" lon="-2.04317523">
        <ele>1216.0000</ele>
        <time>2018-10-14T14:59:49Z</time>
      </trkpt>
      <trkpt lat="38.18196373" lon="-2.04294816">
        <ele>1214.0000</ele>
        <time>2018-10-14T14:59:51Z</time>
      </trkpt>
      <trkpt lat="38.18201528" lon="-2.04273828">
        <ele>1213.0000</ele>
        <time>2018-10-14T14:59:53Z</time>
      </trkpt>
      <trkpt lat="38.18203741" lon="-2.04263552">
        <ele>1212.0000</ele>
        <time>2018-10-14T14:59:54Z</time>
      </trkpt>
      <trkpt lat="38.18205158" lon="-2.04253217">
        <ele>1212.0000</ele>
        <time>2018-10-14T14:59:55Z</time>
      </trkpt>
      <trkpt lat="38.18204965" lon="-2.04222723">
        <ele>1211.0000</ele>
        <time>2018-10-14T14:59:58Z</time>
      </trkpt>
      <trkpt lat="38.18201000" lon="-2.04184217">
        <ele>1211.0000</ele>
        <time>2018-10-14T15:00:02Z</time>
      </trkpt>
      <trkpt lat="38.18207228" lon="-2.04114630">
        <ele>1211.0000</ele>
        <time>2018-10-14T15:00:10Z</time>
      </trkpt>
      <trkpt lat="38.18208804" lon="-2.04098487">
        <ele>1211.0000</ele>
        <time>2018-10-14T15:00:12Z</time>
      </trkpt>
      <trkpt lat="38.18210271" lon="-2.04065982">
        <ele>1211.0000</ele>
        <time>2018-10-14T15:00:16Z</time>
      </trkpt>
      <trkpt lat="38.18207161" lon="-2.04016135">
        <ele>1211.0000</ele>
        <time>2018-10-14T15:00:22Z</time>
      </trkpt>
      <trkpt lat="38.18193063" lon="-2.03986966">
        <ele>1212.0000</ele>
        <time>2018-10-14T15:00:26Z</time>
      </trkpt>
      <trkpt lat="38.18180029" lon="-2.03967645">
        <ele>1212.0000</ele>
        <time>2018-10-14T15:00:29Z</time>
      </trkpt>
      <trkpt lat="38.18160222" lon="-2.03946406">
        <ele>1212.0000</ele>
        <time>2018-10-14T15:00:33Z</time>
      </trkpt>
      <trkpt lat="38.18144716" lon="-2.03931092">
        <ele>1212.0000</ele>
        <time>2018-10-14T15:00:36Z</time>
      </trkpt>
      <trkpt lat="38.18113451" lon="-2.03918469">
        <ele>1212.0000</ele>
        <time>2018-10-14T15:00:41Z</time>
      </trkpt>
      <trkpt lat="38.18082832" lon="-2.03915342">
        <ele>1211.0000</ele>
        <time>2018-10-14T15:00:46Z</time>
      </trkpt>
      <trkpt lat="38.18070461" lon="-2.03915216">
        <ele>1211.0000</ele>
        <time>2018-10-14T15:00:48Z</time>
      </trkpt>
      <trkpt lat="38.18039833" lon="-2.03905946">
        <ele>1211.0000</ele>
        <time>2018-10-14T15:00:53Z</time>
      </trkpt>
      <trkpt lat="38.18009407" lon="-2.03882544">
        <ele>1211.0000</ele>
        <time>2018-10-14T15:00:59Z</time>
      </trkpt>
      <trkpt lat="38.17984839" lon="-2.03867054">
        <ele>1211.0000</ele>
        <time>2018-10-14T15:01:04Z</time>
      </trkpt>
      <trkpt lat="38.17960884" lon="-2.03853433">
        <ele>1211.0000</ele>
        <time>2018-10-14T15:01:09Z</time>
      </trkpt>
      <trkpt lat="38.17946827" lon="-2.03845161">
        <ele>1212.0000</ele>
        <time>2018-10-14T15:01:12Z</time>
      </trkpt>
      <trkpt lat="38.17911959" lon="-2.03819948">
        <ele>1213.0000</ele>
        <time>2018-10-14T15:01:20Z</time>
      </trkpt>
      <trkpt lat="38.17903636" lon="-2.03813418">
        <ele>1213.0000</ele>
        <time>2018-10-14T15:01:22Z</time>
      </trkpt>
      <trkpt lat="38.17887140" lon="-2.03799119">
        <ele>1214.0000</ele>
        <time>2018-10-14T15:01:26Z</time>
      </trkpt>
      <trkpt lat="38.17878666" lon="-2.03792153">
        <ele>1214.0000</ele>
        <time>2018-10-14T15:01:28Z</time>
      </trkpt>
      <trkpt lat="38.17866076" lon="-2.03784056">
        <ele>1215.0000</ele>
        <time>2018-10-14T15:01:31Z</time>
      </trkpt>
      <trkpt lat="38.17857217" lon="-2.03780301">
        <ele>1215.0000</ele>
        <time>2018-10-14T15:01:33Z</time>
      </trkpt>
      <trkpt lat="38.17852699" lon="-2.03778399">
        <ele>1215.0000</ele>
        <time>2018-10-14T15:01:34Z</time>
      </trkpt>
      <trkpt lat="38.17826095" lon="-2.03770008">
        <ele>1215.0000</ele>
        <time>2018-10-14T15:01:39Z</time>
      </trkpt>
      <trkpt lat="38.17800748" lon="-2.03762926">
        <ele>1215.0000</ele>
        <time>2018-10-14T15:01:43Z</time>
      </trkpt>
      <trkpt lat="38.17787345" lon="-2.03758559">
        <ele>1214.0000</ele>
        <time>2018-10-14T15:01:45Z</time>
      </trkpt>
      <trkpt lat="38.17773322" lon="-2.03753437">
        <ele>1212.0000</ele>
        <time>2018-10-14T15:01:47Z</time>
      </trkpt>
      <trkpt lat="38.17758461" lon="-2.03747444">
        <ele>1211.0000</ele>
        <time>2018-10-14T15:01:49Z</time>
      </trkpt>
      <trkpt lat="38.17750657" lon="-2.03744142">
        <ele>1211.0000</ele>
        <time>2018-10-14T15:01:50Z</time>
      </trkpt>
      <trkpt lat="38.17734254" lon="-2.03737386">
        <ele>1209.0000</ele>
        <time>2018-10-14T15:01:52Z</time>
      </trkpt>
      <trkpt lat="38.17717029" lon="-2.03730488">
        <ele>1208.0000</ele>
        <time>2018-10-14T15:01:54Z</time>
      </trkpt>
      <trkpt lat="38.17689796" lon="-2.03721418">
        <ele>1208.0000</ele>
        <time>2018-10-14T15:01:57Z</time>
      </trkpt>
      <trkpt lat="38.17680710" lon="-2.03719172">
        <ele>1207.0000</ele>
        <time>2018-10-14T15:01:58Z</time>
      </trkpt>
      <trkpt lat="38.17654534" lon="-2.03714369">
        <ele>1206.0000</ele>
        <time>2018-10-14T15:02:01Z</time>
      </trkpt>
      <trkpt lat="38.17638013" lon="-2.03711763">
        <ele>1205.0000</ele>
        <time>2018-10-14T15:02:03Z</time>
      </trkpt>
      <trkpt lat="38.17614527" lon="-2.03707890">
        <ele>1204.0000</ele>
        <time>2018-10-14T15:02:06Z</time>
      </trkpt>
      <trkpt lat="38.17565610" lon="-2.03699232">
        <ele>1204.0000</ele>
        <time>2018-10-14T15:02:13Z</time>
      </trkpt>
      <trkpt lat="38.17552425" lon="-2.03696801">
        <ele>1204.0000</ele>
        <time>2018-10-14T15:02:15Z</time>
      </trkpt>
      <trkpt lat="38.17526182" lon="-2.03691822">
        <ele>1205.0000</ele>
        <time>2018-10-14T15:02:19Z</time>
      </trkpt>
      <trkpt lat="38.17487130" lon="-2.03685795">
        <ele>1205.0000</ele>
        <time>2018-10-14T15:02:25Z</time>
      </trkpt>
      <trkpt lat="38.17442832" lon="-2.03673524">
        <ele>1205.0000</ele>
        <time>2018-10-14T15:02:32Z</time>
      </trkpt>
      <trkpt lat="38.17427753" lon="-2.03662242">
        <ele>1205.0000</ele>
        <time>2018-10-14T15:02:35Z</time>
      </trkpt>
      <trkpt lat="38.17414459" lon="-2.03651505">
        <ele>1205.0000</ele>
        <time>2018-10-14T15:02:38Z</time>
      </trkpt>
      <trkpt lat="38.17399573" lon="-2.03640374">
        <ele>1205.0000</ele>
        <time>2018-10-14T15:02:41Z</time>
      </trkpt>
      <trkpt lat="38.17394133" lon="-2.03637105">
        <ele>1205.0000</ele>
        <time>2018-10-14T15:02:42Z</time>
      </trkpt>
      <trkpt lat="38.17365056" lon="-2.03625387">
        <ele>1205.0000</ele>
        <time>2018-10-14T15:02:47Z</time>
      </trkpt>
      <trkpt lat="38.17332694" lon="-2.03621674">
        <ele>1205.0000</ele>
        <time>2018-10-14T15:02:52Z</time>
      </trkpt>
      <trkpt lat="38.17298621" lon="-2.03619310">
        <ele>1204.0000</ele>
        <time>2018-10-14T15:02:57Z</time>
      </trkpt>
      <trkpt lat="38.17291547" lon="-2.03618883">
        <ele>1204.0000</ele>
        <time>2018-10-14T15:02:58Z</time>
      </trkpt>
      <trkpt lat="38.17269922" lon="-2.03617298">
        <ele>1203.0000</ele>
        <time>2018-10-14T15:03:01Z</time>
      </trkpt>
      <trkpt lat="38.17262495" lon="-2.03616620">
        <ele>1202.0000</ele>
        <time>2018-10-14T15:03:02Z</time>
      </trkpt>
      <trkpt lat="38.17247307" lon="-2.03615505">
        <ele>1201.0000</ele>
        <time>2018-10-14T15:03:04Z</time>
      </trkpt>
      <trkpt lat="38.17231767" lon="-2.03614113">
        <ele>1200.0000</ele>
        <time>2018-10-14T15:03:06Z</time>
      </trkpt>
      <trkpt lat="38.17223813" lon="-2.03613116">
        <ele>1199.0000</ele>
        <time>2018-10-14T15:03:07Z</time>
      </trkpt>
      <trkpt lat="38.17207694" lon="-2.03609344">
        <ele>1199.0000</ele>
        <time>2018-10-14T15:03:09Z</time>
      </trkpt>
      <trkpt lat="38.17183672" lon="-2.03598515">
        <ele>1198.0000</ele>
        <time>2018-10-14T15:03:12Z</time>
      </trkpt>
      <trkpt lat="38.17167411" lon="-2.03591667">
        <ele>1197.0000</ele>
        <time>2018-10-14T15:03:14Z</time>
      </trkpt>
      <trkpt lat="38.17150639" lon="-2.03590728">
        <ele>1197.0000</ele>
        <time>2018-10-14T15:03:16Z</time>
      </trkpt>
      <trkpt lat="38.17125652" lon="-2.03596226">
        <ele>1195.0000</ele>
        <time>2018-10-14T15:03:19Z</time>
      </trkpt>
      <trkpt lat="38.17088169" lon="-2.03578373">
        <ele>1195.0000</ele>
        <time>2018-10-14T15:03:24Z</time>
      </trkpt>
      <trkpt lat="38.17044901" lon="-2.03533320">
        <ele>1195.0000</ele>
        <time>2018-10-14T15:03:32Z</time>
      </trkpt>
      <trkpt lat="38.17031197" lon="-2.03516489">
        <ele>1195.0000</ele>
        <time>2018-10-14T15:03:35Z</time>
      </trkpt>
      <trkpt lat="38.16993428" lon="-2.03466533">
        <ele>1195.0000</ele>
        <time>2018-10-14T15:03:44Z</time>
      </trkpt>
      <trkpt lat="38.16961945" lon="-2.03411280">
        <ele>1194.0000</ele>
        <time>2018-10-14T15:03:53Z</time>
      </trkpt>
      <trkpt lat="38.16953974" lon="-2.03392756">
        <ele>1194.0000</ele>
        <time>2018-10-14T15:03:56Z</time>
      </trkpt>
      <trkpt lat="38.16944578" lon="-2.03376838">
        <ele>1194.0000</ele>
        <time>2018-10-14T15:03:59Z</time>
      </trkpt>
      <trkpt lat="38.16923749" lon="-2.03363964">
        <ele>1195.0000</ele>
        <time>2018-10-14T15:04:04Z</time>
      </trkpt>
      <trkpt lat="38.16902987" lon="-2.03360695">
        <ele>1195.0000</ele>
        <time>2018-10-14T15:04:09Z</time>
      </trkpt>
      <trkpt lat="38.16890733" lon="-2.03359463">
        <ele>1196.0000</ele>
        <time>2018-10-14T15:04:12Z</time>
      </trkpt>
      <trkpt lat="38.16882804" lon="-2.03360561">
        <ele>1196.0000</ele>
        <time>2018-10-14T15:04:14Z</time>
      </trkpt>
      <trkpt lat="38.16874874" lon="-2.03363142">
        <ele>1197.0000</ele>
        <time>2018-10-14T15:04:16Z</time>
      </trkpt>
      <trkpt lat="38.16870960" lon="-2.03364794">
        <ele>1197.0000</ele>
        <time>2018-10-14T15:04:17Z</time>
      </trkpt>
      <trkpt lat="38.16846057" lon="-2.03381507">
        <ele>1197.0000</ele>
        <time>2018-10-14T15:04:23Z</time>
      </trkpt>
      <trkpt lat="38.16827433" lon="-2.03380526">
        <ele>1197.0000</ele>
        <time>2018-10-14T15:04:27Z</time>
      </trkpt>
      <trkpt lat="38.16816427" lon="-2.03370301">
        <ele>1197.0000</ele>
        <time>2018-10-14T15:04:30Z</time>
      </trkpt>
      <trkpt lat="38.16811809" lon="-2.03360150">
        <ele>1198.0000</ele>
        <time>2018-10-14T15:04:32Z</time>
      </trkpt>
      <trkpt lat="38.16810149" lon="-2.03354928">
        <ele>1198.0000</ele>
        <time>2018-10-14T15:04:33Z</time>
      </trkpt>
      <trkpt lat="38.16821289" lon="-2.03318769">
        <ele>1198.0000</ele>
        <time>2018-10-14T15:04:40Z</time>
      </trkpt>
      <trkpt lat="38.16833811" lon="-2.03300421">
        <ele>1198.0000</ele>
        <time>2018-10-14T15:04:44Z</time>
      </trkpt>
      <trkpt lat="38.16839000" lon="-2.03290052">
        <ele>1198.0000</ele>
        <time>2018-10-14T15:04:46Z</time>
      </trkpt>
      <trkpt lat="38.16843576" lon="-2.03264907">
        <ele>1199.0000</ele>
        <time>2018-10-14T15:04:50Z</time>
      </trkpt>
      <trkpt lat="38.16844599" lon="-2.03258318">
        <ele>1199.0000</ele>
        <time>2018-10-14T15:04:51Z</time>
      </trkpt>
      <trkpt lat="38.16853953" lon="-2.03235830">
        <ele>1199.0000</ele>
        <time>2018-10-14T15:04:55Z</time>
      </trkpt>
      <trkpt lat="38.16860374" lon="-2.03227548">
        <ele>1199.0000</ele>
        <time>2018-10-14T15:04:57Z</time>
      </trkpt>
      <trkpt lat="38.16866585" lon="-2.03220332">
        <ele>1199.0000</ele>
        <time>2018-10-14T15:04:59Z</time>
      </trkpt>
      <trkpt lat="38.16875612" lon="-2.03211899">
        <ele>1199.0000</ele>
        <time>2018-10-14T15:05:02Z</time>
      </trkpt>
      <trkpt lat="38.16907069" lon="-2.03197709">
        <ele>1199.0000</ele>
        <time>2018-10-14T15:05:09Z</time>
      </trkpt>
      <trkpt lat="38.16937596" lon="-2.03183719">
        <ele>1199.0000</ele>
        <time>2018-10-14T15:05:16Z</time>
      </trkpt>
      <trkpt lat="38.16962759" lon="-2.03170015">
        <ele>1200.0000</ele>
        <time>2018-10-14T15:05:22Z</time>
      </trkpt>
      <trkpt lat="38.16972951" lon="-2.03159831">
        <ele>1200.0000</ele>
        <time>2018-10-14T15:05:25Z</time>
      </trkpt>
      <trkpt lat="38.16984107" lon="-2.03143386">
        <ele>1201.0000</ele>
        <time>2018-10-14T15:05:29Z</time>
      </trkpt>
      <trkpt lat="38.16998415" lon="-2.03120394">
        <ele>1201.0000</ele>
        <time>2018-10-14T15:05:34Z</time>
      </trkpt>
      <trkpt lat="38.17014290" lon="-2.03095290">
        <ele>1201.0000</ele>
        <time>2018-10-14T15:05:39Z</time>
      </trkpt>
      <trkpt lat="38.17017694" lon="-2.03090228">
        <ele>1201.0000</ele>
        <time>2018-10-14T15:05:40Z</time>
      </trkpt>
      <trkpt lat="38.17047575" lon="-2.03036709">
        <ele>1202.0000</ele>
        <time>2018-10-14T15:05:51Z</time>
      </trkpt>
      <trkpt lat="38.17049251" lon="-2.03031328">
        <ele>1203.0000</ele>
        <time>2018-10-14T15:05:52Z</time>
      </trkpt>
      <trkpt lat="38.17052537" lon="-2.03020071">
        <ele>1203.0000</ele>
        <time>2018-10-14T15:05:54Z</time>
      </trkpt>
      <trkpt lat="38.17057843" lon="-2.03001354">
        <ele>1203.0000</ele>
        <time>2018-10-14T15:05:57Z</time>
      </trkpt>
      <trkpt lat="38.17063467" lon="-2.02981724">
        <ele>1203.0000</ele>
        <time>2018-10-14T15:06:00Z</time>
      </trkpt>
      <trkpt lat="38.17069008" lon="-2.02961356">
        <ele>1203.0000</ele>
        <time>2018-10-14T15:06:03Z</time>
      </trkpt>
      <trkpt lat="38.17072922" lon="-2.02947081">
        <ele>1202.0000</ele>
        <time>2018-10-14T15:06:05Z</time>
      </trkpt>
      <trkpt lat="38.17076954" lon="-2.02932522">
        <ele>1201.0000</ele>
        <time>2018-10-14T15:06:07Z</time>
      </trkpt>
      <trkpt lat="38.17082963" lon="-2.02909505">
        <ele>1201.0000</ele>
        <time>2018-10-14T15:06:10Z</time>
      </trkpt>
      <trkpt lat="38.17085118" lon="-2.02901769">
        <ele>1201.0000</ele>
        <time>2018-10-14T15:06:11Z</time>
      </trkpt>
      <trkpt lat="38.17091915" lon="-2.02877302">
        <ele>1201.0000</ele>
        <time>2018-10-14T15:06:14Z</time>
      </trkpt>
      <trkpt lat="38.17101278" lon="-2.02842500">
        <ele>1200.0000</ele>
        <time>2018-10-14T15:06:18Z</time>
      </trkpt>
      <trkpt lat="38.17111378" lon="-2.02806232">
        <ele>1199.0000</ele>
        <time>2018-10-14T15:06:22Z</time>
      </trkpt>
      <trkpt lat="38.17118880" lon="-2.02778186">
        <ele>1198.0000</ele>
        <time>2018-10-14T15:06:25Z</time>
      </trkpt>
      <trkpt lat="38.17121529" lon="-2.02768681">
        <ele>1198.0000</ele>
        <time>2018-10-14T15:06:26Z</time>
      </trkpt>
      <trkpt lat="38.17126977" lon="-2.02749369">
        <ele>1196.0000</ele>
        <time>2018-10-14T15:06:28Z</time>
      </trkpt>
      <trkpt lat="38.17134730" lon="-2.02718951">
        <ele>1195.0000</ele>
        <time>2018-10-14T15:06:31Z</time>
      </trkpt>
      <trkpt lat="38.17147227" lon="-2.02641938">
        <ele>1194.0000</ele>
        <time>2018-10-14T15:06:38Z</time>
      </trkpt>
      <trkpt lat="38.17149993" lon="-2.02618838">
        <ele>1193.0000</ele>
        <time>2018-10-14T15:06:40Z</time>
      </trkpt>
      <trkpt lat="38.17158677" lon="-2.02549151">
        <ele>1192.0000</ele>
        <time>2018-10-14T15:06:46Z</time>
      </trkpt>
      <trkpt lat="38.17166363" lon="-2.02504257">
        <ele>1191.0000</ele>
        <time>2018-10-14T15:06:50Z</time>
      </trkpt>
      <trkpt lat="38.17176933" lon="-2.02471274">
        <ele>1189.0000</ele>
        <time>2018-10-14T15:06:53Z</time>
      </trkpt>
      <trkpt lat="38.17180948" lon="-2.02460269">
        <ele>1189.0000</ele>
        <time>2018-10-14T15:06:54Z</time>
      </trkpt>
      <trkpt lat="38.17188642" lon="-2.02437588">
        <ele>1189.0000</ele>
        <time>2018-10-14T15:06:56Z</time>
      </trkpt>
      <trkpt lat="38.17200318" lon="-2.02403440">
        <ele>1188.0000</ele>
        <time>2018-10-14T15:06:59Z</time>
      </trkpt>
      <trkpt lat="38.17212011" lon="-2.02369459">
        <ele>1186.0000</ele>
        <time>2018-10-14T15:07:02Z</time>
      </trkpt>
      <trkpt lat="38.17219077" lon="-2.02347222">
        <ele>1185.0000</ele>
        <time>2018-10-14T15:07:04Z</time>
      </trkpt>
      <trkpt lat="38.17229999" lon="-2.02315488">
        <ele>1184.0000</ele>
        <time>2018-10-14T15:07:07Z</time>
      </trkpt>
      <trkpt lat="38.17252588" lon="-2.02248618">
        <ele>1183.0000</ele>
        <time>2018-10-14T15:07:14Z</time>
      </trkpt>
      <trkpt lat="38.17264750" lon="-2.02213807">
        <ele>1184.0000</ele>
        <time>2018-10-14T15:07:18Z</time>
      </trkpt>
      <trkpt lat="38.17287289" lon="-2.02148697">
        <ele>1184.0000</ele>
        <time>2018-10-14T15:07:25Z</time>
      </trkpt>
      <trkpt lat="38.17297607" lon="-2.02119000">
        <ele>1184.0000</ele>
        <time>2018-10-14T15:07:28Z</time>
      </trkpt>
      <trkpt lat="38.17312711" lon="-2.02077384">
        <ele>1182.0000</ele>
        <time>2018-10-14T15:07:32Z</time>
      </trkpt>
      <trkpt lat="38.17324580" lon="-2.02042750">
        <ele>1181.0000</ele>
        <time>2018-10-14T15:07:35Z</time>
      </trkpt>
      <trkpt lat="38.17346465" lon="-2.01979525">
        <ele>1180.0000</ele>
        <time>2018-10-14T15:07:40Z</time>
      </trkpt>
      <trkpt lat="38.17359969" lon="-2.01939761">
        <ele>1178.0000</ele>
        <time>2018-10-14T15:07:43Z</time>
      </trkpt>
      <trkpt lat="38.17367789" lon="-2.01913392">
        <ele>1176.0000</ele>
        <time>2018-10-14T15:07:45Z</time>
      </trkpt>
      <trkpt lat="38.17370748" lon="-2.01899738">
        <ele>1175.0000</ele>
        <time>2018-10-14T15:07:46Z</time>
      </trkpt>
      <trkpt lat="38.17374880" lon="-2.01871767">
        <ele>1174.0000</ele>
        <time>2018-10-14T15:07:48Z</time>
      </trkpt>
      <trkpt lat="38.17377872" lon="-2.01843705">
        <ele>1172.0000</ele>
        <time>2018-10-14T15:07:50Z</time>
      </trkpt>
      <trkpt lat="38.17380119" lon="-2.01815558">
        <ele>1170.0000</ele>
        <time>2018-10-14T15:07:52Z</time>
      </trkpt>
      <trkpt lat="38.17384494" lon="-2.01759852">
        <ele>1169.0000</ele>
        <time>2018-10-14T15:07:56Z</time>
      </trkpt>
      <trkpt lat="38.17387897" lon="-2.01718613">
        <ele>1168.0000</ele>
        <time>2018-10-14T15:07:59Z</time>
      </trkpt>
      <trkpt lat="38.17391677" lon="-2.01676092">
        <ele>1167.0000</ele>
        <time>2018-10-14T15:08:02Z</time>
      </trkpt>
      <trkpt lat="38.17393739" lon="-2.01646990">
        <ele>1165.0000</ele>
        <time>2018-10-14T15:08:04Z</time>
      </trkpt>
      <trkpt lat="38.17396069" lon="-2.01618114">
        <ele>1164.0000</ele>
        <time>2018-10-14T15:08:06Z</time>
      </trkpt>
      <trkpt lat="38.17399741" lon="-2.01576020">
        <ele>1162.0000</ele>
        <time>2018-10-14T15:08:09Z</time>
      </trkpt>
      <trkpt lat="38.17401937" lon="-2.01548695">
        <ele>1161.0000</ele>
        <time>2018-10-14T15:08:11Z</time>
      </trkpt>
      <trkpt lat="38.17405055" lon="-2.01507632">
        <ele>1160.0000</ele>
        <time>2018-10-14T15:08:14Z</time>
      </trkpt>
      <trkpt lat="38.17409229" lon="-2.01439102">
        <ele>1159.0000</ele>
        <time>2018-10-14T15:08:19Z</time>
      </trkpt>
      <trkpt lat="38.17410578" lon="-2.01410955">
        <ele>1158.0000</ele>
        <time>2018-10-14T15:08:21Z</time>
      </trkpt>
      <trkpt lat="38.17412230" lon="-2.01382298">
        <ele>1157.0000</ele>
        <time>2018-10-14T15:08:23Z</time>
      </trkpt>
      <trkpt lat="38.17416085" lon="-2.01310364">
        <ele>1156.0000</ele>
        <time>2018-10-14T15:08:28Z</time>
      </trkpt>
      <trkpt lat="38.17417292" lon="-2.01282243">
        <ele>1154.0000</ele>
        <time>2018-10-14T15:08:30Z</time>
      </trkpt>
      <trkpt lat="38.17418843" lon="-2.01254633">
        <ele>1153.0000</ele>
        <time>2018-10-14T15:08:32Z</time>
      </trkpt>
      <trkpt lat="38.17420930" lon="-2.01227618">
        <ele>1151.0000</ele>
        <time>2018-10-14T15:08:34Z</time>
      </trkpt>
      <trkpt lat="38.17430586" lon="-2.01176455">
        <ele>1150.0000</ele>
        <time>2018-10-14T15:08:38Z</time>
      </trkpt>
      <trkpt lat="38.17440100" lon="-2.01140396">
        <ele>1150.0000</ele>
        <time>2018-10-14T15:08:41Z</time>
      </trkpt>
      <trkpt lat="38.17445673" lon="-2.01115803">
        <ele>1149.0000</ele>
        <time>2018-10-14T15:08:43Z</time>
      </trkpt>
      <trkpt lat="38.17451423" lon="-2.01039939">
        <ele>1149.0000</ele>
        <time>2018-10-14T15:08:49Z</time>
      </trkpt>
      <trkpt lat="38.17451968" lon="-2.01027827">
        <ele>1148.0000</ele>
        <time>2018-10-14T15:08:50Z</time>
      </trkpt>
      <trkpt lat="38.17452605" lon="-2.01003905">
        <ele>1147.0000</ele>
        <time>2018-10-14T15:08:52Z</time>
      </trkpt>
      <trkpt lat="38.17454550" lon="-2.00936531">
        <ele>1146.0000</ele>
        <time>2018-10-14T15:08:58Z</time>
      </trkpt>
      <trkpt lat="38.17455254" lon="-2.00915903">
        <ele>1146.0000</ele>
        <time>2018-10-14T15:09:00Z</time>
      </trkpt>
      <trkpt lat="38.17456796" lon="-2.00841204">
        <ele>1146.0000</ele>
        <time>2018-10-14T15:09:08Z</time>
      </trkpt>
      <trkpt lat="38.17457500" lon="-2.00814776">
        <ele>1146.0000</ele>
        <time>2018-10-14T15:09:11Z</time>
      </trkpt>
      <trkpt lat="38.17458070" lon="-2.00797936">
        <ele>1147.0000</ele>
        <time>2018-10-14T15:09:13Z</time>
      </trkpt>
      <trkpt lat="38.17459043" lon="-2.00764367">
        <ele>1147.0000</ele>
        <time>2018-10-14T15:09:17Z</time>
      </trkpt>
      <trkpt lat="38.17461063" lon="-2.00688611">
        <ele>1147.0000</ele>
        <time>2018-10-14T15:09:26Z</time>
      </trkpt>
      <trkpt lat="38.17462672" lon="-2.00641664">
        <ele>1147.0000</ele>
        <time>2018-10-14T15:09:32Z</time>
      </trkpt>
      <trkpt lat="38.17463837" lon="-2.00619352">
        <ele>1147.0000</ele>
        <time>2018-10-14T15:09:35Z</time>
      </trkpt>
      <trkpt lat="38.17464977" lon="-2.00574986">
        <ele>1148.0000</ele>
        <time>2018-10-14T15:09:41Z</time>
      </trkpt>
      <trkpt lat="38.17465304" lon="-2.00567468">
        <ele>1148.0000</ele>
        <time>2018-10-14T15:09:42Z</time>
      </trkpt>
      <trkpt lat="38.17466528" lon="-2.00522918">
        <ele>1149.0000</ele>
        <time>2018-10-14T15:09:48Z</time>
      </trkpt>
      <trkpt lat="38.17470903" lon="-2.00478385">
        <ele>1149.0000</ele>
        <time>2018-10-14T15:09:54Z</time>
      </trkpt>
      <trkpt lat="38.17477122" lon="-2.00449610">
        <ele>1150.0000</ele>
        <time>2018-10-14T15:09:58Z</time>
      </trkpt>
      <trkpt lat="38.17480484" lon="-2.00435402">
        <ele>1150.0000</ele>
        <time>2018-10-14T15:10:00Z</time>
      </trkpt>
      <trkpt lat="38.17485311" lon="-2.00415160">
        <ele>1150.0000</ele>
        <time>2018-10-14T15:10:03Z</time>
      </trkpt>
      <trkpt lat="38.17490466" lon="-2.00395639">
        <ele>1150.0000</ele>
        <time>2018-10-14T15:10:06Z</time>
      </trkpt>
      <trkpt lat="38.17497599" lon="-2.00370535">
        <ele>1150.0000</ele>
        <time>2018-10-14T15:10:10Z</time>
      </trkpt>
      <trkpt lat="38.17502486" lon="-2.00352028">
        <ele>1150.0000</ele>
        <time>2018-10-14T15:10:13Z</time>
      </trkpt>
      <trkpt lat="38.17519359" lon="-2.00293329">
        <ele>1149.0000</ele>
        <time>2018-10-14T15:10:23Z</time>
      </trkpt>
      <trkpt lat="38.17524296" lon="-2.00276398">
        <ele>1149.0000</ele>
        <time>2018-10-14T15:10:26Z</time>
      </trkpt>
      <trkpt lat="38.17536290" lon="-2.00236039">
        <ele>1149.0000</ele>
        <time>2018-10-14T15:10:33Z</time>
      </trkpt>
      <trkpt lat="38.17545452" lon="-2.00205973">
        <ele>1149.0000</ele>
        <time>2018-10-14T15:10:38Z</time>
      </trkpt>
      <trkpt lat="38.17556013" lon="-2.00168363">
        <ele>1149.0000</ele>
        <time>2018-10-14T15:10:44Z</time>
      </trkpt>
      <trkpt lat="38.17560078" lon="-2.00108634">
        <ele>1148.0000</ele>
        <time>2018-10-14T15:10:53Z</time>
      </trkpt>
      <trkpt lat="38.17559248" lon="-2.00095751">
        <ele>1148.0000</ele>
        <time>2018-10-14T15:10:55Z</time>
      </trkpt>
      <trkpt lat="38.17558737" lon="-2.00076883">
        <ele>1147.0000</ele>
        <time>2018-10-14T15:10:58Z</time>
      </trkpt>
      <trkpt lat="38.17557186" lon="-2.00056993">
        <ele>1147.0000</ele>
        <time>2018-10-14T15:11:01Z</time>
      </trkpt>
      <trkpt lat="38.17551420" lon="-2.00015645">
        <ele>1147.0000</ele>
        <time>2018-10-14T15:11:07Z</time>
      </trkpt>
      <trkpt lat="38.17542015" lon="-1.99948087">
        <ele>1147.0000</ele>
        <time>2018-10-14T15:11:17Z</time>
      </trkpt>
      <trkpt lat="38.17540766" lon="-1.99910301">
        <ele>1147.0000</ele>
        <time>2018-10-14T15:11:23Z</time>
      </trkpt>
      <trkpt lat="38.17540288" lon="-1.99880797">
        <ele>1148.0000</ele>
        <time>2018-10-14T15:11:28Z</time>
      </trkpt>
      <trkpt lat="38.17539978" lon="-1.99869205">
        <ele>1148.0000</ele>
        <time>2018-10-14T15:11:30Z</time>
      </trkpt>
      <trkpt lat="38.17540649" lon="-1.99822191">
        <ele>1149.0000</ele>
        <time>2018-10-14T15:11:38Z</time>
      </trkpt>
      <trkpt lat="38.17541311" lon="-1.99809031">
        <ele>1149.0000</ele>
        <time>2018-10-14T15:11:40Z</time>
      </trkpt>
      <trkpt lat="38.17542945" lon="-1.99779401">
        <ele>1149.0000</ele>
        <time>2018-10-14T15:11:44Z</time>
      </trkpt>
      <trkpt lat="38.17546650" lon="-1.99746033">
        <ele>1149.0000</ele>
        <time>2018-10-14T15:11:48Z</time>
      </trkpt>
      <trkpt lat="38.17551738" lon="-1.99719554">
        <ele>1148.0000</ele>
        <time>2018-10-14T15:11:51Z</time>
      </trkpt>
      <trkpt lat="38.17553104" lon="-1.99710359">
        <ele>1148.0000</ele>
        <time>2018-10-14T15:11:52Z</time>
      </trkpt>
      <trkpt lat="38.17554412" lon="-1.99692070">
        <ele>1147.0000</ele>
        <time>2018-10-14T15:11:54Z</time>
      </trkpt>
      <trkpt lat="38.17553004" lon="-1.99675038">
        <ele>1146.0000</ele>
        <time>2018-10-14T15:11:56Z</time>
      </trkpt>
      <trkpt lat="38.17550439" lon="-1.99642483">
        <ele>1146.0000</ele>
        <time>2018-10-14T15:12:01Z</time>
      </trkpt>
      <trkpt lat="38.17550674" lon="-1.99631628">
        <ele>1146.0000</ele>
        <time>2018-10-14T15:12:03Z</time>
      </trkpt>
      <trkpt lat="38.17552258" lon="-1.99621838">
        <ele>1146.0000</ele>
        <time>2018-10-14T15:12:05Z</time>
      </trkpt>
      <trkpt lat="38.17556801" lon="-1.99608922">
        <ele>1148.0000</ele>
        <time>2018-10-14T15:12:08Z</time>
      </trkpt>
      <trkpt lat="38.17562760" lon="-1.99593013">
        <ele>1149.0000</ele>
        <time>2018-10-14T15:12:12Z</time>
      </trkpt>
      <trkpt lat="38.17569164" lon="-1.99577925">
        <ele>1150.0000</ele>
        <time>2018-10-14T15:12:16Z</time>
      </trkpt>
      <trkpt lat="38.17574210" lon="-1.99567071">
        <ele>1151.0000</ele>
        <time>2018-10-14T15:12:19Z</time>
      </trkpt>
      <trkpt lat="38.17584226" lon="-1.99543719">
        <ele>1152.0000</ele>
        <time>2018-10-14T15:12:25Z</time>
      </trkpt>
      <trkpt lat="38.17593153" lon="-1.99525052">
        <ele>1153.0000</ele>
        <time>2018-10-14T15:12:30Z</time>
      </trkpt>
      <trkpt lat="38.17602373" lon="-1.99502128">
        <ele>1154.0000</ele>
        <time>2018-10-14T15:12:36Z</time>
      </trkpt>
      <trkpt lat="38.17603882" lon="-1.99498414">
        <ele>1154.0000</ele>
        <time>2018-10-14T15:12:37Z</time>
      </trkpt>
      <trkpt lat="38.17614343" lon="-1.99472690">
        <ele>1155.0000</ele>
        <time>2018-10-14T15:12:44Z</time>
      </trkpt>
      <trkpt lat="38.17625356" lon="-1.99448249">
        <ele>1156.0000</ele>
        <time>2018-10-14T15:12:51Z</time>
      </trkpt>
      <trkpt lat="38.17632506" lon="-1.99430177">
        <ele>1157.0000</ele>
        <time>2018-10-14T15:12:56Z</time>
      </trkpt>
      <trkpt lat="38.17647049" lon="-1.99405007">
        <ele>1158.0000</ele>
        <time>2018-10-14T15:13:04Z</time>
      </trkpt>
      <trkpt lat="38.17661088" lon="-1.99388905">
        <ele>1159.0000</ele>
        <time>2018-10-14T15:13:10Z</time>
      </trkpt>
      <trkpt lat="38.17675002" lon="-1.99372133">
        <ele>1160.0000</ele>
        <time>2018-10-14T15:13:16Z</time>
      </trkpt>
      <trkpt lat="38.17691624" lon="-1.99322353">
        <ele>1161.0000</ele>
        <time>2018-10-14T15:13:29Z</time>
      </trkpt>
      <trkpt lat="38.17697005" lon="-1.99297391">
        <ele>1162.0000</ele>
        <time>2018-10-14T15:13:36Z</time>
      </trkpt>
      <trkpt lat="38.17701741" lon="-1.99277895">
        <ele>1163.0000</ele>
        <time>2018-10-14T15:13:41Z</time>
      </trkpt>
      <trkpt lat="38.17702705" lon="-1.99273956">
        <ele>1163.0000</ele>
        <time>2018-10-14T15:13:42Z</time>
      </trkpt>
      <trkpt lat="38.17707507" lon="-1.99254484">
        <ele>1164.0000</ele>
        <time>2018-10-14T15:13:47Z</time>
      </trkpt>
      <trkpt lat="38.17711774" lon="-1.99240746">
        <ele>1165.0000</ele>
        <time>2018-10-14T15:13:51Z</time>
      </trkpt>
      <trkpt lat="38.17720298" lon="-1.99221367">
        <ele>1166.0000</ele>
        <time>2018-10-14T15:13:57Z</time>
      </trkpt>
      <trkpt lat="38.17726400" lon="-1.99208552">
        <ele>1167.0000</ele>
        <time>2018-10-14T15:14:01Z</time>
      </trkpt>
      <trkpt lat="38.17738336" lon="-1.99186918">
        <ele>1168.0000</ele>
        <time>2018-10-14T15:14:08Z</time>
      </trkpt>
      <trkpt lat="38.17750481" lon="-1.99165502">
        <ele>1169.0000</ele>
        <time>2018-10-14T15:14:15Z</time>
      </trkpt>
      <trkpt lat="38.17764102" lon="-1.99142301">
        <ele>1170.0000</ele>
        <time>2018-10-14T15:14:23Z</time>
      </trkpt>
      <trkpt lat="38.17772207" lon="-1.99127188">
        <ele>1171.0000</ele>
        <time>2018-10-14T15:14:28Z</time>
      </trkpt>
      <trkpt lat="38.17773984" lon="-1.99124163">
        <ele>1171.0000</ele>
        <time>2018-10-14T15:14:29Z</time>
      </trkpt>
      <trkpt lat="38.17784344" lon="-1.99106225">
        <ele>1172.0000</ele>
        <time>2018-10-14T15:14:35Z</time>
      </trkpt>
      <trkpt lat="38.17797948" lon="-1.99083435">
        <ele>1173.0000</ele>
        <time>2018-10-14T15:14:43Z</time>
      </trkpt>
      <trkpt lat="38.17806732" lon="-1.99064274">
        <ele>1174.0000</ele>
        <time>2018-10-14T15:14:49Z</time>
      </trkpt>
      <trkpt lat="38.17815123" lon="-1.99039774">
        <ele>1175.0000</ele>
        <time>2018-10-14T15:14:56Z</time>
      </trkpt>
      <trkpt lat="38.17821258" lon="-1.99020906">
        <ele>1176.0000</ele>
        <time>2018-10-14T15:15:01Z</time>
      </trkpt>
      <trkpt lat="38.17825902" lon="-1.99004217">
        <ele>1177.0000</ele>
        <time>2018-10-14T15:15:06Z</time>
      </trkpt>
      <trkpt lat="38.17831769" lon="-1.98986724">
        <ele>1178.0000</ele>
        <time>2018-10-14T15:15:11Z</time>
      </trkpt>
      <trkpt lat="38.17836681" lon="-1.98969625">
        <ele>1179.0000</ele>
        <time>2018-10-14T15:15:16Z</time>
      </trkpt>
      <trkpt lat="38.17841207" lon="-1.98953348">
        <ele>1180.0000</ele>
        <time>2018-10-14T15:15:21Z</time>
      </trkpt>
      <trkpt lat="38.17848206" lon="-1.98933877">
        <ele>1181.0000</ele>
        <time>2018-10-14T15:15:27Z</time>
      </trkpt>
      <trkpt lat="38.17852841" lon="-1.98919686">
        <ele>1182.0000</ele>
        <time>2018-10-14T15:15:31Z</time>
      </trkpt>
      <trkpt lat="38.17856563" lon="-1.98905437">
        <ele>1183.0000</ele>
        <time>2018-10-14T15:15:35Z</time>
      </trkpt>
      <trkpt lat="38.17864132" lon="-1.98884448">
        <ele>1184.0000</ele>
        <time>2018-10-14T15:15:41Z</time>
      </trkpt>
      <trkpt lat="38.17871172" lon="-1.98861591">
        <ele>1186.0000</ele>
        <time>2018-10-14T15:15:47Z</time>
      </trkpt>
      <trkpt lat="38.17875799" lon="-1.98847518">
        <ele>1187.0000</ele>
        <time>2018-10-14T15:15:51Z</time>
      </trkpt>
      <trkpt lat="38.17882589" lon="-1.98824937">
        <ele>1188.0000</ele>
        <time>2018-10-14T15:15:57Z</time>
      </trkpt>
      <trkpt lat="38.17891566" lon="-1.98788643">
        <ele>1188.0000</ele>
        <time>2018-10-14T15:16:06Z</time>
      </trkpt>
      <trkpt lat="38.17893820" lon="-1.98765325">
        <ele>1189.0000</ele>
        <time>2018-10-14T15:16:12Z</time>
      </trkpt>
      <trkpt lat="38.17891172" lon="-1.98741503">
        <ele>1190.0000</ele>
        <time>2018-10-14T15:16:19Z</time>
      </trkpt>
      <trkpt lat="38.17888347" lon="-1.98720549">
        <ele>1190.0000</ele>
        <time>2018-10-14T15:16:25Z</time>
      </trkpt>
      <trkpt lat="38.17886310" lon="-1.98701622">
        <ele>1192.0000</ele>
        <time>2018-10-14T15:16:30Z</time>
      </trkpt>
      <trkpt lat="38.17883117" lon="-1.98680651">
        <ele>1193.0000</ele>
        <time>2018-10-14T15:16:36Z</time>
      </trkpt>
      <trkpt lat="38.17878884" lon="-1.98663879">
        <ele>1194.0000</ele>
        <time>2018-10-14T15:16:41Z</time>
      </trkpt>
      <trkpt lat="38.17877098" lon="-1.98650426">
        <ele>1195.0000</ele>
        <time>2018-10-14T15:16:45Z</time>
      </trkpt>
      <trkpt lat="38.17873712" lon="-1.98630343">
        <ele>1196.0000</ele>
        <time>2018-10-14T15:16:51Z</time>
      </trkpt>
      <trkpt lat="38.17870720" lon="-1.98610293">
        <ele>1197.0000</ele>
        <time>2018-10-14T15:16:57Z</time>
      </trkpt>
      <trkpt lat="38.17867585" lon="-1.98586539">
        <ele>1198.0000</ele>
        <time>2018-10-14T15:17:04Z</time>
      </trkpt>
      <trkpt lat="38.17864802" lon="-1.98569909">
        <ele>1199.0000</ele>
        <time>2018-10-14T15:17:09Z</time>
      </trkpt>
      <trkpt lat="38.17863243" lon="-1.98560153">
        <ele>1199.0000</ele>
        <time>2018-10-14T15:17:12Z</time>
      </trkpt>
      <trkpt lat="38.17861558" lon="-1.98546364">
        <ele>1200.0000</ele>
        <time>2018-10-14T15:17:16Z</time>
      </trkpt>
      <trkpt lat="38.17859019" lon="-1.98532953">
        <ele>1201.0000</ele>
        <time>2018-10-14T15:17:20Z</time>
      </trkpt>
      <trkpt lat="38.17856647" lon="-1.98513130">
        <ele>1202.0000</ele>
        <time>2018-10-14T15:17:26Z</time>
      </trkpt>
      <trkpt lat="38.17852824" lon="-1.98492578">
        <ele>1203.0000</ele>
        <time>2018-10-14T15:17:32Z</time>
      </trkpt>
      <trkpt lat="38.17849849" lon="-1.98471497">
        <ele>1204.0000</ele>
        <time>2018-10-14T15:17:38Z</time>
      </trkpt>
      <trkpt lat="38.17846815" lon="-1.98452998">
        <ele>1205.0000</ele>
        <time>2018-10-14T15:17:43Z</time>
      </trkpt>
      <trkpt lat="38.17844183" lon="-1.98434768">
        <ele>1206.0000</ele>
        <time>2018-10-14T15:17:48Z</time>
      </trkpt>
      <trkpt lat="38.17841182" lon="-1.98412950">
        <ele>1207.0000</ele>
        <time>2018-10-14T15:17:54Z</time>
      </trkpt>
      <trkpt lat="38.17835809" lon="-1.98384149">
        <ele>1208.0000</ele>
        <time>2018-10-14T15:18:02Z</time>
      </trkpt>
      <trkpt lat="38.17830403" lon="-1.98363061">
        <ele>1209.0000</ele>
        <time>2018-10-14T15:18:08Z</time>
      </trkpt>
      <trkpt lat="38.17821183" lon="-1.98344277">
        <ele>1211.0000</ele>
        <time>2018-10-14T15:18:14Z</time>
      </trkpt>
      <trkpt lat="38.17813857" lon="-1.98332710">
        <ele>1212.0000</ele>
        <time>2018-10-14T15:18:18Z</time>
      </trkpt>
      <trkpt lat="38.17802533" lon="-1.98316323">
        <ele>1213.0000</ele>
        <time>2018-10-14T15:18:24Z</time>
      </trkpt>
      <trkpt lat="38.17792986" lon="-1.98303147">
        <ele>1214.0000</ele>
        <time>2018-10-14T15:18:29Z</time>
      </trkpt>
      <trkpt lat="38.17773020" lon="-1.98274858">
        <ele>1215.0000</ele>
        <time>2018-10-14T15:18:39Z</time>
      </trkpt>
      <trkpt lat="38.17759132" lon="-1.98255085">
        <ele>1216.0000</ele>
        <time>2018-10-14T15:18:46Z</time>
      </trkpt>
      <trkpt lat="38.17745067" lon="-1.98235245">
        <ele>1217.0000</ele>
        <time>2018-10-14T15:18:53Z</time>
      </trkpt>
      <trkpt lat="38.17728219" lon="-1.98207593">
        <ele>1218.0000</ele>
        <time>2018-10-14T15:19:02Z</time>
      </trkpt>
      <trkpt lat="38.17721195" lon="-1.98190871">
        <ele>1219.0000</ele>
        <time>2018-10-14T15:19:06Z</time>
      </trkpt>
      <trkpt lat="38.17720030" lon="-1.98187015">
        <ele>1219.0000</ele>
        <time>2018-10-14T15:19:07Z</time>
      </trkpt>
      <trkpt lat="38.17713459" lon="-1.98166773">
        <ele>1220.0000</ele>
        <time>2018-10-14T15:19:12Z</time>
      </trkpt>
      <trkpt lat="38.17708287" lon="-1.98151778">
        <ele>1221.0000</ele>
        <time>2018-10-14T15:19:16Z</time>
      </trkpt>
      <trkpt lat="38.17701900" lon="-1.98129306">
        <ele>1222.0000</ele>
        <time>2018-10-14T15:19:22Z</time>
      </trkpt>
      <trkpt lat="38.17696007" lon="-1.98111620">
        <ele>1223.0000</ele>
        <time>2018-10-14T15:19:27Z</time>
      </trkpt>
      <trkpt lat="38.17689947" lon="-1.98090950">
        <ele>1224.0000</ele>
        <time>2018-10-14T15:19:33Z</time>
      </trkpt>
      <trkpt lat="38.17684541" lon="-1.98074421">
        <ele>1225.0000</ele>
        <time>2018-10-14T15:19:38Z</time>
      </trkpt>
      <trkpt lat="38.17679520" lon="-1.98057875">
        <ele>1227.0000</ele>
        <time>2018-10-14T15:19:43Z</time>
      </trkpt>
      <trkpt lat="38.17674449" lon="-1.98041338">
        <ele>1227.0000</ele>
        <time>2018-10-14T15:19:48Z</time>
      </trkpt>
      <trkpt lat="38.17668775" lon="-1.98016469">
        <ele>1228.0000</ele>
        <time>2018-10-14T15:19:54Z</time>
      </trkpt>
      <trkpt lat="38.17664600" lon="-1.97988264">
        <ele>1230.0000</ele>
        <time>2018-10-14T15:20:00Z</time>
      </trkpt>
      <trkpt lat="38.17664810" lon="-1.97968642">
        <ele>1231.0000</ele>
        <time>2018-10-14T15:20:05Z</time>
      </trkpt>
      <trkpt lat="38.17666721" lon="-1.97949866">
        <ele>1232.0000</ele>
        <time>2018-10-14T15:20:09Z</time>
      </trkpt>
      <trkpt lat="38.17670887" lon="-1.97928300">
        <ele>1233.0000</ele>
        <time>2018-10-14T15:20:14Z</time>
      </trkpt>
      <trkpt lat="38.17677450" lon="-1.97895300">
        <ele>1234.0000</ele>
        <time>2018-10-14T15:20:22Z</time>
      </trkpt>
      <trkpt lat="38.17682328" lon="-1.97871806">
        <ele>1235.0000</ele>
        <time>2018-10-14T15:20:28Z</time>
      </trkpt>
      <trkpt lat="38.17685807" lon="-1.97848873">
        <ele>1236.0000</ele>
        <time>2018-10-14T15:20:34Z</time>
      </trkpt>
      <trkpt lat="38.17686368" lon="-1.97845000">
        <ele>1236.0000</ele>
        <time>2018-10-14T15:20:35Z</time>
      </trkpt>
      <trkpt lat="38.17690509" lon="-1.97822797">
        <ele>1237.0000</ele>
        <time>2018-10-14T15:20:41Z</time>
      </trkpt>
      <trkpt lat="38.17696779" lon="-1.97789663">
        <ele>1238.0000</ele>
        <time>2018-10-14T15:20:51Z</time>
      </trkpt>
      <trkpt lat="38.17698178" lon="-1.97780191">
        <ele>1239.0000</ele>
        <time>2018-10-14T15:20:55Z</time>
      </trkpt>
      <trkpt lat="38.17699209" lon="-1.97775221">
        <ele>1239.0000</ele>
        <time>2018-10-14T15:20:57Z</time>
      </trkpt>
      <trkpt lat="38.17700483" lon="-1.97766881">
        <ele>1240.0000</ele>
        <time>2018-10-14T15:21:00Z</time>
      </trkpt>
      <trkpt lat="38.17701414" lon="-1.97763235">
        <ele>1240.0000</ele>
        <time>2018-10-14T15:21:03Z</time>
      </trkpt>
      <trkpt lat="38.17702277" lon="-1.97754400">
        <ele>1240.0000</ele>
        <time>2018-10-14T15:22:35Z</time>
      </trkpt>
      <trkpt lat="38.17703115" lon="-1.97750486">
        <ele>1240.0000</ele>
        <time>2018-10-14T15:22:36Z</time>
      </trkpt>
      <trkpt lat="38.17705672" lon="-1.97735608">
        <ele>1240.0000</ele>
        <time>2018-10-14T15:22:39Z</time>
      </trkpt>
      <trkpt lat="38.17714473" lon="-1.97674697">
        <ele>1239.0000</ele>
        <time>2018-10-14T15:22:48Z</time>
      </trkpt>
      <trkpt lat="38.17717457" lon="-1.97649425">
        <ele>1238.0000</ele>
        <time>2018-10-14T15:22:51Z</time>
      </trkpt>
      <trkpt lat="38.17719569" lon="-1.97631396">
        <ele>1238.0000</ele>
        <time>2018-10-14T15:22:53Z</time>
      </trkpt>
      <trkpt lat="38.17723274" lon="-1.97603057">
        <ele>1238.0000</ele>
        <time>2018-10-14T15:22:56Z</time>
      </trkpt>
      <trkpt lat="38.17725989" lon="-1.97583477">
        <ele>1237.0000</ele>
        <time>2018-10-14T15:22:58Z</time>
      </trkpt>
      <trkpt lat="38.17731270" lon="-1.97542279">
        <ele>1235.0000</ele>
        <time>2018-10-14T15:23:02Z</time>
      </trkpt>
      <trkpt lat="38.17737825" lon="-1.97499632">
        <ele>1234.0000</ele>
        <time>2018-10-14T15:23:06Z</time>
      </trkpt>
      <trkpt lat="38.17740306" lon="-1.97489063">
        <ele>1234.0000</ele>
        <time>2018-10-14T15:23:07Z</time>
      </trkpt>
      <trkpt lat="38.17775845" lon="-1.97436475">
        <ele>1233.0000</ele>
        <time>2018-10-14T15:23:13Z</time>
      </trkpt>
      <trkpt lat="38.17803799" lon="-1.97417825">
        <ele>1232.0000</ele>
        <time>2018-10-14T15:23:16Z</time>
      </trkpt>
      <trkpt lat="38.17823178" lon="-1.97404121">
        <ele>1232.0000</ele>
        <time>2018-10-14T15:23:18Z</time>
      </trkpt>
      <trkpt lat="38.17831920" lon="-1.97396183">
        <ele>1231.0000</ele>
        <time>2018-10-14T15:23:19Z</time>
      </trkpt>
      <trkpt lat="38.17845532" lon="-1.97375874">
        <ele>1230.0000</ele>
        <time>2018-10-14T15:23:21Z</time>
      </trkpt>
      <trkpt lat="38.17849899" lon="-1.97363703">
        <ele>1229.0000</ele>
        <time>2018-10-14T15:23:22Z</time>
      </trkpt>
      <trkpt lat="38.17853260" lon="-1.97350652">
        <ele>1228.0000</ele>
        <time>2018-10-14T15:23:23Z</time>
      </trkpt>
      <trkpt lat="38.17856295" lon="-1.97336973">
        <ele>1226.0000</ele>
        <time>2018-10-14T15:23:24Z</time>
      </trkpt>
      <trkpt lat="38.17859639" lon="-1.97323009">
        <ele>1225.0000</ele>
        <time>2018-10-14T15:23:25Z</time>
      </trkpt>
      <trkpt lat="38.17864090" lon="-1.97292993">
        <ele>1224.0000</ele>
        <time>2018-10-14T15:23:27Z</time>
      </trkpt>
      <trkpt lat="38.17866914" lon="-1.97261234">
        <ele>1222.0000</ele>
        <time>2018-10-14T15:23:29Z</time>
      </trkpt>
      <trkpt lat="38.17876428" lon="-1.97214187">
        <ele>1220.0000</ele>
        <time>2018-10-14T15:23:32Z</time>
      </trkpt>
      <trkpt lat="38.17884223" lon="-1.97183215">
        <ele>1219.0000</ele>
        <time>2018-10-14T15:23:34Z</time>
      </trkpt>
      <trkpt lat="38.17888003" lon="-1.97168790">
        <ele>1218.0000</ele>
        <time>2018-10-14T15:23:35Z</time>
      </trkpt>
      <trkpt lat="38.17891499" lon="-1.97155337">
        <ele>1215.0000</ele>
        <time>2018-10-14T15:23:36Z</time>
      </trkpt>
      <trkpt lat="38.17895430" lon="-1.97142932">
        <ele>1214.0000</ele>
        <time>2018-10-14T15:23:37Z</time>
      </trkpt>
      <trkpt lat="38.17900551" lon="-1.97131834">
        <ele>1214.0000</ele>
        <time>2018-10-14T15:23:38Z</time>
      </trkpt>
      <trkpt lat="38.17924976" lon="-1.97105716">
        <ele>1213.0000</ele>
        <time>2018-10-14T15:23:41Z</time>
      </trkpt>
      <trkpt lat="38.17935210" lon="-1.97098944">
        <ele>1213.0000</ele>
        <time>2018-10-14T15:23:42Z</time>
      </trkpt>
      <trkpt lat="38.17956257" lon="-1.97085742">
        <ele>1212.0000</ele>
        <time>2018-10-14T15:23:44Z</time>
      </trkpt>
      <trkpt lat="38.17975779" lon="-1.97071602">
        <ele>1212.0000</ele>
        <time>2018-10-14T15:23:46Z</time>
      </trkpt>
      <trkpt lat="38.17988988" lon="-1.97052391">
        <ele>1211.0000</ele>
        <time>2018-10-14T15:23:48Z</time>
      </trkpt>
      <trkpt lat="38.17993062" lon="-1.97041017">
        <ele>1210.0000</ele>
        <time>2018-10-14T15:23:49Z</time>
      </trkpt>
      <trkpt lat="38.17995283" lon="-1.97028444">
        <ele>1208.0000</ele>
        <time>2018-10-14T15:23:50Z</time>
      </trkpt>
      <trkpt lat="38.17995862" lon="-1.97014982">
        <ele>1207.0000</ele>
        <time>2018-10-14T15:23:51Z</time>
      </trkpt>
      <trkpt lat="38.17995501" lon="-1.97001194">
        <ele>1206.0000</ele>
        <time>2018-10-14T15:23:52Z</time>
      </trkpt>
      <trkpt lat="38.17994780" lon="-1.96987624">
        <ele>1206.0000</ele>
        <time>2018-10-14T15:23:53Z</time>
      </trkpt>
      <trkpt lat="38.17986231" lon="-1.96923276">
        <ele>1205.0000</ele>
        <time>2018-10-14T15:23:58Z</time>
      </trkpt>
      <trkpt lat="38.17977447" lon="-1.96901391">
        <ele>1203.0000</ele>
        <time>2018-10-14T15:24:00Z</time>
      </trkpt>
      <trkpt lat="38.17958143" lon="-1.96864033">
        <ele>1202.0000</ele>
        <time>2018-10-14T15:24:04Z</time>
      </trkpt>
      <trkpt lat="38.17929242" lon="-1.96801948">
        <ele>1202.0000</ele>
        <time>2018-10-14T15:24:11Z</time>
      </trkpt>
      <trkpt lat="38.17913208" lon="-1.96767800">
        <ele>1202.0000</ele>
        <time>2018-10-14T15:24:15Z</time>
      </trkpt>
      <trkpt lat="38.17907516" lon="-1.96728556">
        <ele>1202.0000</ele>
        <time>2018-10-14T15:24:19Z</time>
      </trkpt>
      <trkpt lat="38.17904884" lon="-1.96658760">
        <ele>1202.0000</ele>
        <time>2018-10-14T15:24:25Z</time>
      </trkpt>
      <trkpt lat="38.17904113" lon="-1.96633178">
        <ele>1201.0000</ele>
        <time>2018-10-14T15:24:27Z</time>
      </trkpt>
      <trkpt lat="38.17903418" lon="-1.96620237">
        <ele>1200.0000</ele>
        <time>2018-10-14T15:24:28Z</time>
      </trkpt>
      <trkpt lat="38.17901507" lon="-1.96593741">
        <ele>1198.0000</ele>
        <time>2018-10-14T15:24:30Z</time>
      </trkpt>
      <trkpt lat="38.17899528" lon="-1.96567154">
        <ele>1197.0000</ele>
        <time>2018-10-14T15:24:32Z</time>
      </trkpt>
      <trkpt lat="38.17897978" lon="-1.96540147">
        <ele>1195.0000</ele>
        <time>2018-10-14T15:24:34Z</time>
      </trkpt>
      <trkpt lat="38.17896293" lon="-1.96512504">
        <ele>1194.0000</ele>
        <time>2018-10-14T15:24:36Z</time>
      </trkpt>
      <trkpt lat="38.17894449" lon="-1.96471307">
        <ele>1193.0000</ele>
        <time>2018-10-14T15:24:39Z</time>
      </trkpt>
      <trkpt lat="38.17891784" lon="-1.96415618">
        <ele>1192.0000</ele>
        <time>2018-10-14T15:24:43Z</time>
      </trkpt>
      <trkpt lat="38.17890987" lon="-1.96403087">
        <ele>1191.0000</ele>
        <time>2018-10-14T15:24:44Z</time>
      </trkpt>
      <trkpt lat="38.17889202" lon="-1.96391218">
        <ele>1191.0000</ele>
        <time>2018-10-14T15:24:45Z</time>
      </trkpt>
      <trkpt lat="38.17885883" lon="-1.96380313">
        <ele>1190.0000</ele>
        <time>2018-10-14T15:24:46Z</time>
      </trkpt>
      <trkpt lat="38.17874768" lon="-1.96362853">
        <ele>1188.0000</ele>
        <time>2018-10-14T15:24:48Z</time>
      </trkpt>
      <trkpt lat="38.17859656" lon="-1.96350901">
        <ele>1187.0000</ele>
        <time>2018-10-14T15:24:50Z</time>
      </trkpt>
      <trkpt lat="38.17851802" lon="-1.96346056">
        <ele>1187.0000</ele>
        <time>2018-10-14T15:24:51Z</time>
      </trkpt>
      <trkpt lat="38.17844384" lon="-1.96340365">
        <ele>1187.0000</ele>
        <time>2018-10-14T15:24:52Z</time>
      </trkpt>
      <trkpt lat="38.17823781" lon="-1.96303828">
        <ele>1186.0000</ele>
        <time>2018-10-14T15:24:56Z</time>
      </trkpt>
      <trkpt lat="38.17820780" lon="-1.96292043">
        <ele>1186.0000</ele>
        <time>2018-10-14T15:24:57Z</time>
      </trkpt>
      <trkpt lat="38.17817394" lon="-1.96279889">
        <ele>1185.0000</ele>
        <time>2018-10-14T15:24:58Z</time>
      </trkpt>
      <trkpt lat="38.17812734" lon="-1.96268012">
        <ele>1185.0000</ele>
        <time>2018-10-14T15:24:59Z</time>
      </trkpt>
      <trkpt lat="38.17794285" lon="-1.96234568">
        <ele>1184.0000</ele>
        <time>2018-10-14T15:25:02Z</time>
      </trkpt>
      <trkpt lat="38.17781955" lon="-1.96211032">
        <ele>1182.0000</ele>
        <time>2018-10-14T15:25:04Z</time>
      </trkpt>
      <trkpt lat="38.17769098" lon="-1.96187471">
        <ele>1180.0000</ele>
        <time>2018-10-14T15:25:06Z</time>
      </trkpt>
      <trkpt lat="38.17762325" lon="-1.96175954">
        <ele>1179.0000</ele>
        <time>2018-10-14T15:25:07Z</time>
      </trkpt>
      <trkpt lat="38.17748704" lon="-1.96152652">
        <ele>1178.0000</ele>
        <time>2018-10-14T15:25:09Z</time>
      </trkpt>
      <trkpt lat="38.17734916" lon="-1.96128998">
        <ele>1176.0000</ele>
        <time>2018-10-14T15:25:11Z</time>
      </trkpt>
      <trkpt lat="38.17721572" lon="-1.96105412">
        <ele>1174.0000</ele>
        <time>2018-10-14T15:25:13Z</time>
      </trkpt>
      <trkpt lat="38.17709770" lon="-1.96083283">
        <ele>1173.0000</ele>
        <time>2018-10-14T15:25:15Z</time>
      </trkpt>
      <trkpt lat="38.17705068" lon="-1.96072245">
        <ele>1172.0000</ele>
        <time>2018-10-14T15:25:16Z</time>
      </trkpt>
      <trkpt lat="38.17701833" lon="-1.96060393">
        <ele>1172.0000</ele>
        <time>2018-10-14T15:25:17Z</time>
      </trkpt>
      <trkpt lat="38.17700550" lon="-1.96034274">
        <ele>1170.0000</ele>
        <time>2018-10-14T15:25:19Z</time>
      </trkpt>
      <trkpt lat="38.17701607" lon="-1.96020662">
        <ele>1169.0000</ele>
        <time>2018-10-14T15:25:20Z</time>
      </trkpt>
      <trkpt lat="38.17705856" lon="-1.95978007">
        <ele>1168.0000</ele>
        <time>2018-10-14T15:25:23Z</time>
      </trkpt>
      <trkpt lat="38.17712847" lon="-1.95918261">
        <ele>1167.0000</ele>
        <time>2018-10-14T15:25:27Z</time>
      </trkpt>
      <trkpt lat="38.17716090" lon="-1.95888890">
        <ele>1166.0000</ele>
        <time>2018-10-14T15:25:29Z</time>
      </trkpt>
      <trkpt lat="38.17717549" lon="-1.95875094">
        <ele>1165.0000</ele>
        <time>2018-10-14T15:25:30Z</time>
      </trkpt>
      <trkpt lat="38.17718203" lon="-1.95861758">
        <ele>1164.0000</ele>
        <time>2018-10-14T15:25:31Z</time>
      </trkpt>
      <trkpt lat="38.17717717" lon="-1.95848657">
        <ele>1162.0000</ele>
        <time>2018-10-14T15:25:32Z</time>
      </trkpt>
      <trkpt lat="38.17712696" lon="-1.95822715">
        <ele>1161.0000</ele>
        <time>2018-10-14T15:25:34Z</time>
      </trkpt>
      <trkpt lat="38.17703568" lon="-1.95797343">
        <ele>1160.0000</ele>
        <time>2018-10-14T15:25:36Z</time>
      </trkpt>
      <trkpt lat="38.17698631" lon="-1.95784259">
        <ele>1159.0000</ele>
        <time>2018-10-14T15:25:37Z</time>
      </trkpt>
      <trkpt lat="38.17677282" lon="-1.95729609">
        <ele>1158.0000</ele>
        <time>2018-10-14T15:25:41Z</time>
      </trkpt>
      <trkpt lat="38.17665950" lon="-1.95700759">
        <ele>1156.0000</ele>
        <time>2018-10-14T15:25:43Z</time>
      </trkpt>
      <trkpt lat="38.17660233" lon="-1.95686023">
        <ele>1154.0000</ele>
        <time>2018-10-14T15:25:44Z</time>
      </trkpt>
      <trkpt lat="38.17654324" lon="-1.95671204">
        <ele>1153.0000</ele>
        <time>2018-10-14T15:25:45Z</time>
      </trkpt>
      <trkpt lat="38.17647987" lon="-1.95656460">
        <ele>1152.0000</ele>
        <time>2018-10-14T15:25:46Z</time>
      </trkpt>
      <trkpt lat="38.17640972" lon="-1.95641985">
        <ele>1151.0000</ele>
        <time>2018-10-14T15:25:47Z</time>
      </trkpt>
      <trkpt lat="38.17633009" lon="-1.95628046">
        <ele>1149.0000</ele>
        <time>2018-10-14T15:25:48Z</time>
      </trkpt>
      <trkpt lat="38.17624292" lon="-1.95614685">
        <ele>1148.0000</ele>
        <time>2018-10-14T15:25:49Z</time>
      </trkpt>
      <trkpt lat="38.17615223" lon="-1.95602087">
        <ele>1147.0000</ele>
        <time>2018-10-14T15:25:50Z</time>
      </trkpt>
      <trkpt lat="38.17606296" lon="-1.95590537">
        <ele>1146.0000</ele>
        <time>2018-10-14T15:25:51Z</time>
      </trkpt>
      <trkpt lat="38.17597704" lon="-1.95579925">
        <ele>1145.0000</ele>
        <time>2018-10-14T15:25:52Z</time>
      </trkpt>
      <trkpt lat="38.17589725" lon="-1.95570018">
        <ele>1143.0000</ele>
        <time>2018-10-14T15:25:53Z</time>
      </trkpt>
      <trkpt lat="38.17582709" lon="-1.95560672">
        <ele>1141.0000</ele>
        <time>2018-10-14T15:25:54Z</time>
      </trkpt>
      <trkpt lat="38.17577353" lon="-1.95551519">
        <ele>1140.0000</ele>
        <time>2018-10-14T15:25:55Z</time>
      </trkpt>
      <trkpt lat="38.17574109" lon="-1.95542181">
        <ele>1139.0000</ele>
        <time>2018-10-14T15:25:56Z</time>
      </trkpt>
      <trkpt lat="38.17574671" lon="-1.95522375">
        <ele>1138.0000</ele>
        <time>2018-10-14T15:25:58Z</time>
      </trkpt>
      <trkpt lat="38.17581427" lon="-1.95501420">
        <ele>1137.0000</ele>
        <time>2018-10-14T15:26:00Z</time>
      </trkpt>
      <trkpt lat="38.17587839" lon="-1.95480071">
        <ele>1137.0000</ele>
        <time>2018-10-14T15:26:02Z</time>
      </trkpt>
      <trkpt lat="38.17584042" lon="-1.95441984">
        <ele>1136.0000</ele>
        <time>2018-10-14T15:26:06Z</time>
      </trkpt>
      <trkpt lat="38.17565694" lon="-1.95419680">
        <ele>1135.0000</ele>
        <time>2018-10-14T15:26:09Z</time>
      </trkpt>
      <trkpt lat="38.17537698" lon="-1.95389924">
        <ele>1134.0000</ele>
        <time>2018-10-14T15:26:13Z</time>
      </trkpt>
      <trkpt lat="38.17530280" lon="-1.95382188">
        <ele>1133.0000</ele>
        <time>2018-10-14T15:26:14Z</time>
      </trkpt>
      <trkpt lat="38.17514757" lon="-1.95366480">
        <ele>1132.0000</ele>
        <time>2018-10-14T15:26:16Z</time>
      </trkpt>
      <trkpt lat="38.17499360" lon="-1.95349934">
        <ele>1130.0000</ele>
        <time>2018-10-14T15:26:18Z</time>
      </trkpt>
      <trkpt lat="38.17484825" lon="-1.95332072">
        <ele>1130.0000</ele>
        <time>2018-10-14T15:26:20Z</time>
      </trkpt>
      <trkpt lat="38.17477508" lon="-1.95323003">
        <ele>1129.0000</ele>
        <time>2018-10-14T15:26:21Z</time>
      </trkpt>
      <trkpt lat="38.17455866" lon="-1.95295142">
        <ele>1128.0000</ele>
        <time>2018-10-14T15:26:24Z</time>
      </trkpt>
      <trkpt lat="38.17442170" lon="-1.95274966">
        <ele>1126.0000</ele>
        <time>2018-10-14T15:26:26Z</time>
      </trkpt>
      <trkpt lat="38.17435984" lon="-1.95264087">
        <ele>1125.0000</ele>
        <time>2018-10-14T15:26:27Z</time>
      </trkpt>
      <trkpt lat="38.17430544" lon="-1.95252503">
        <ele>1124.0000</ele>
        <time>2018-10-14T15:26:28Z</time>
      </trkpt>
      <trkpt lat="38.17425792" lon="-1.95240399">
        <ele>1124.0000</ele>
        <time>2018-10-14T15:26:29Z</time>
      </trkpt>
      <trkpt lat="38.17417494" lon="-1.95215346">
        <ele>1122.0000</ele>
        <time>2018-10-14T15:26:31Z</time>
      </trkpt>
      <trkpt lat="38.17409430" lon="-1.95188884">
        <ele>1121.0000</ele>
        <time>2018-10-14T15:26:33Z</time>
      </trkpt>
      <trkpt lat="38.17401124" lon="-1.95161383">
        <ele>1121.0000</ele>
        <time>2018-10-14T15:26:35Z</time>
      </trkpt>
      <trkpt lat="38.17396882" lon="-1.95147218">
        <ele>1120.0000</ele>
        <time>2018-10-14T15:26:36Z</time>
      </trkpt>
      <trkpt lat="38.17387402" lon="-1.95118744">
        <ele>1119.0000</ele>
        <time>2018-10-14T15:26:38Z</time>
      </trkpt>
      <trkpt lat="38.17381619" lon="-1.95105392">
        <ele>1118.0000</ele>
        <time>2018-10-14T15:26:39Z</time>
      </trkpt>
      <trkpt lat="38.17374595" lon="-1.95092970">
        <ele>1117.0000</ele>
        <time>2018-10-14T15:26:40Z</time>
      </trkpt>
      <trkpt lat="38.17366498" lon="-1.95081571">
        <ele>1116.0000</ele>
        <time>2018-10-14T15:26:41Z</time>
      </trkpt>
      <trkpt lat="38.17357923" lon="-1.95071144">
        <ele>1115.0000</ele>
        <time>2018-10-14T15:26:42Z</time>
      </trkpt>
      <trkpt lat="38.17340891" lon="-1.95051899">
        <ele>1114.0000</ele>
        <time>2018-10-14T15:26:44Z</time>
      </trkpt>
      <trkpt lat="38.17323968" lon="-1.95033207">
        <ele>1112.0000</ele>
        <time>2018-10-14T15:26:46Z</time>
      </trkpt>
      <trkpt lat="38.17315335" lon="-1.95023660">
        <ele>1111.0000</ele>
        <time>2018-10-14T15:26:47Z</time>
      </trkpt>
      <trkpt lat="38.17297599" lon="-1.95003929">
        <ele>1109.0000</ele>
        <time>2018-10-14T15:26:49Z</time>
      </trkpt>
      <trkpt lat="38.17288680" lon="-1.94993418">
        <ele>1108.0000</ele>
        <time>2018-10-14T15:26:50Z</time>
      </trkpt>
      <trkpt lat="38.17279938" lon="-1.94982388">
        <ele>1107.0000</ele>
        <time>2018-10-14T15:26:51Z</time>
      </trkpt>
      <trkpt lat="38.17264004" lon="-1.94959807">
        <ele>1105.0000</ele>
        <time>2018-10-14T15:26:53Z</time>
      </trkpt>
      <trkpt lat="38.17250526" lon="-1.94939313">
        <ele>1104.0000</ele>
        <time>2018-10-14T15:26:55Z</time>
      </trkpt>
      <trkpt lat="38.17244332" lon="-1.94929758">
        <ele>1103.0000</ele>
        <time>2018-10-14T15:26:56Z</time>
      </trkpt>
      <trkpt lat="38.17238691" lon="-1.94920278">
        <ele>1101.0000</ele>
        <time>2018-10-14T15:26:57Z</time>
      </trkpt>
      <trkpt lat="38.17234106" lon="-1.94910027">
        <ele>1100.0000</ele>
        <time>2018-10-14T15:26:58Z</time>
      </trkpt>
      <trkpt lat="38.17230938" lon="-1.94898770">
        <ele>1099.0000</ele>
        <time>2018-10-14T15:26:59Z</time>
      </trkpt>
      <trkpt lat="38.17227828" lon="-1.94874487">
        <ele>1097.0000</ele>
        <time>2018-10-14T15:27:01Z</time>
      </trkpt>
      <trkpt lat="38.17226780" lon="-1.94849643">
        <ele>1097.0000</ele>
        <time>2018-10-14T15:27:03Z</time>
      </trkpt>
      <trkpt lat="38.17225146" lon="-1.94826317">
        <ele>1096.0000</ele>
        <time>2018-10-14T15:27:05Z</time>
      </trkpt>
      <trkpt lat="38.17222111" lon="-1.94815923">
        <ele>1096.0000</ele>
        <time>2018-10-14T15:27:06Z</time>
      </trkpt>
      <trkpt lat="38.17210922" lon="-1.94797516">
        <ele>1095.0000</ele>
        <time>2018-10-14T15:27:08Z</time>
      </trkpt>
      <trkpt lat="38.17196957" lon="-1.94781574">
        <ele>1094.0000</ele>
        <time>2018-10-14T15:27:10Z</time>
      </trkpt>
      <trkpt lat="38.17189975" lon="-1.94774089">
        <ele>1093.0000</ele>
        <time>2018-10-14T15:27:11Z</time>
      </trkpt>
      <trkpt lat="38.17178886" lon="-1.94759001">
        <ele>1093.0000</ele>
        <time>2018-10-14T15:27:13Z</time>
      </trkpt>
      <trkpt lat="38.17174569" lon="-1.94721191">
        <ele>1092.0000</ele>
        <time>2018-10-14T15:27:17Z</time>
      </trkpt>
      <trkpt lat="38.17178165" lon="-1.94702440">
        <ele>1092.0000</ele>
        <time>2018-10-14T15:27:19Z</time>
      </trkpt>
      <trkpt lat="38.17187637" lon="-1.94657673">
        <ele>1091.0000</ele>
        <time>2018-10-14T15:27:24Z</time>
      </trkpt>
      <trkpt lat="38.17189883" lon="-1.94632083">
        <ele>1091.0000</ele>
        <time>2018-10-14T15:27:27Z</time>
      </trkpt>
      <trkpt lat="38.17182314" lon="-1.94603626">
        <ele>1091.0000</ele>
        <time>2018-10-14T15:27:31Z</time>
      </trkpt>
      <trkpt lat="38.17180680" lon="-1.94596560">
        <ele>1091.0000</ele>
        <time>2018-10-14T15:27:32Z</time>
      </trkpt>
      <trkpt lat="38.17181400" lon="-1.94566025">
        <ele>1091.0000</ele>
        <time>2018-10-14T15:27:36Z</time>
      </trkpt>
      <trkpt lat="38.17196303" lon="-1.94505516">
        <ele>1091.0000</ele>
        <time>2018-10-14T15:27:44Z</time>
      </trkpt>
      <trkpt lat="38.17197963" lon="-1.94497788">
        <ele>1091.0000</ele>
        <time>2018-10-14T15:27:45Z</time>
      </trkpt>
      <trkpt lat="38.17200218" lon="-1.94481913">
        <ele>1091.0000</ele>
        <time>2018-10-14T15:27:47Z</time>
      </trkpt>
      <trkpt lat="38.17200017" lon="-1.94474059">
        <ele>1091.0000</ele>
        <time>2018-10-14T15:27:48Z</time>
      </trkpt>
      <trkpt lat="38.17175952" lon="-1.94437807">
        <ele>1090.0000</ele>
        <time>2018-10-14T15:27:54Z</time>
      </trkpt>
      <trkpt lat="38.17170018" lon="-1.94433784">
        <ele>1090.0000</ele>
        <time>2018-10-14T15:27:55Z</time>
      </trkpt>
      <trkpt lat="38.17157194" lon="-1.94429987">
        <ele>1089.0000</ele>
        <time>2018-10-14T15:27:57Z</time>
      </trkpt>
      <trkpt lat="38.17134412" lon="-1.94444462">
        <ele>1089.0000</ele>
        <time>2018-10-14T15:28:01Z</time>
      </trkpt>
      <trkpt lat="38.17126633" lon="-1.94457856">
        <ele>1088.0000</ele>
        <time>2018-10-14T15:28:03Z</time>
      </trkpt>
      <trkpt lat="38.17111043" lon="-1.94491099">
        <ele>1087.0000</ele>
        <time>2018-10-14T15:28:08Z</time>
      </trkpt>
      <trkpt lat="38.17107288" lon="-1.94496774">
        <ele>1087.0000</ele>
        <time>2018-10-14T15:28:09Z</time>
      </trkpt>
      <trkpt lat="38.17061833" lon="-1.94495433">
        <ele>1087.0000</ele>
        <time>2018-10-14T15:28:16Z</time>
      </trkpt>
      <trkpt lat="38.17044993" lon="-1.94488702">
        <ele>1086.0000</ele>
        <time>2018-10-14T15:28:18Z</time>
      </trkpt>
      <trkpt lat="38.17035396" lon="-1.94486598">
        <ele>1086.0000</ele>
        <time>2018-10-14T15:28:19Z</time>
      </trkpt>
      <trkpt lat="38.17014827" lon="-1.94486363">
        <ele>1084.0000</ele>
        <time>2018-10-14T15:28:21Z</time>
      </trkpt>
      <trkpt lat="38.16994484" lon="-1.94489113">
        <ele>1083.0000</ele>
        <time>2018-10-14T15:28:23Z</time>
      </trkpt>
      <trkpt lat="38.16976337" lon="-1.94490512">
        <ele>1081.0000</ele>
        <time>2018-10-14T15:28:25Z</time>
      </trkpt>
      <trkpt lat="38.16960730" lon="-1.94488660">
        <ele>1079.0000</ele>
        <time>2018-10-14T15:28:27Z</time>
      </trkpt>
      <trkpt lat="38.16954553" lon="-1.94485416">
        <ele>1078.0000</ele>
        <time>2018-10-14T15:28:28Z</time>
      </trkpt>
      <trkpt lat="38.16949876" lon="-1.94479272">
        <ele>1077.0000</ele>
        <time>2018-10-14T15:28:29Z</time>
      </trkpt>
      <trkpt lat="38.16943681" lon="-1.94460731">
        <ele>1076.0000</ele>
        <time>2018-10-14T15:28:31Z</time>
      </trkpt>
      <trkpt lat="38.16939407" lon="-1.94438452">
        <ele>1075.0000</ele>
        <time>2018-10-14T15:28:33Z</time>
      </trkpt>
      <trkpt lat="38.16932575" lon="-1.94400683">
        <ele>1075.0000</ele>
        <time>2018-10-14T15:28:36Z</time>
      </trkpt>
      <trkpt lat="38.16925660" lon="-1.94361154">
        <ele>1073.0000</ele>
        <time>2018-10-14T15:28:39Z</time>
      </trkpt>
      <trkpt lat="38.16923221" lon="-1.94348732">
        <ele>1072.0000</ele>
        <time>2018-10-14T15:28:40Z</time>
      </trkpt>
      <trkpt lat="38.16920547" lon="-1.94336964">
        <ele>1071.0000</ele>
        <time>2018-10-14T15:28:41Z</time>
      </trkpt>
      <trkpt lat="38.16917479" lon="-1.94326277">
        <ele>1070.0000</ele>
        <time>2018-10-14T15:28:42Z</time>
      </trkpt>
      <trkpt lat="38.16912936" lon="-1.94316605">
        <ele>1069.0000</ele>
        <time>2018-10-14T15:28:43Z</time>
      </trkpt>
      <trkpt lat="38.16906734" lon="-1.94308172">
        <ele>1068.0000</ele>
        <time>2018-10-14T15:28:44Z</time>
      </trkpt>
      <trkpt lat="38.16898997" lon="-1.94301048">
        <ele>1066.0000</ele>
        <time>2018-10-14T15:28:45Z</time>
      </trkpt>
      <trkpt lat="38.16882049" lon="-1.94289162">
        <ele>1064.0000</ele>
        <time>2018-10-14T15:28:47Z</time>
      </trkpt>
      <trkpt lat="38.16846862" lon="-1.94264863">
        <ele>1063.0000</ele>
        <time>2018-10-14T15:28:51Z</time>
      </trkpt>
      <trkpt lat="38.16828992" lon="-1.94251528">
        <ele>1062.0000</ele>
        <time>2018-10-14T15:28:53Z</time>
      </trkpt>
      <trkpt lat="38.16820233" lon="-1.94244193">
        <ele>1061.0000</ele>
        <time>2018-10-14T15:28:54Z</time>
      </trkpt>
      <trkpt lat="38.16812320" lon="-1.94235216">
        <ele>1060.0000</ele>
        <time>2018-10-14T15:28:55Z</time>
      </trkpt>
      <trkpt lat="38.16804986" lon="-1.94224990">
        <ele>1058.0000</ele>
        <time>2018-10-14T15:28:56Z</time>
      </trkpt>
      <trkpt lat="38.16797945" lon="-1.94214144">
        <ele>1057.0000</ele>
        <time>2018-10-14T15:28:57Z</time>
      </trkpt>
      <trkpt lat="38.16784174" lon="-1.94191295">
        <ele>1056.0000</ele>
        <time>2018-10-14T15:28:59Z</time>
      </trkpt>
      <trkpt lat="38.16762607" lon="-1.94154708">
        <ele>1055.0000</ele>
        <time>2018-10-14T15:29:02Z</time>
      </trkpt>
      <trkpt lat="38.16741099" lon="-1.94117895">
        <ele>1053.0000</ele>
        <time>2018-10-14T15:29:05Z</time>
      </trkpt>
      <trkpt lat="38.16733748" lon="-1.94106278">
        <ele>1052.0000</ele>
        <time>2018-10-14T15:29:06Z</time>
      </trkpt>
      <trkpt lat="38.16726716" lon="-1.94094660">
        <ele>1051.0000</ele>
        <time>2018-10-14T15:29:07Z</time>
      </trkpt>
      <trkpt lat="38.16714260" lon="-1.94070436">
        <ele>1050.0000</ele>
        <time>2018-10-14T15:29:09Z</time>
      </trkpt>
      <trkpt lat="38.16704227" lon="-1.94044788">
        <ele>1047.0000</ele>
        <time>2018-10-14T15:29:11Z</time>
      </trkpt>
      <trkpt lat="38.16699701" lon="-1.94031234">
        <ele>1046.0000</ele>
        <time>2018-10-14T15:29:12Z</time>
      </trkpt>
      <trkpt lat="38.16691059" lon="-1.94003658">
        <ele>1045.0000</ele>
        <time>2018-10-14T15:29:14Z</time>
      </trkpt>
      <trkpt lat="38.16677799" lon="-1.93956082">
        <ele>1043.0000</ele>
        <time>2018-10-14T15:29:18Z</time>
      </trkpt>
      <trkpt lat="38.16678268" lon="-1.93933870">
        <ele>1041.0000</ele>
        <time>2018-10-14T15:29:20Z</time>
      </trkpt>
      <trkpt lat="38.16690439" lon="-1.93902094">
        <ele>1040.0000</ele>
        <time>2018-10-14T15:29:23Z</time>
      </trkpt>
      <trkpt lat="38.16718845" lon="-1.93868156">
        <ele>1040.0000</ele>
        <time>2018-10-14T15:29:27Z</time>
      </trkpt>
      <trkpt lat="38.16746296" lon="-1.93856488">
        <ele>1039.0000</ele>
        <time>2018-10-14T15:29:30Z</time>
      </trkpt>
      <trkpt lat="38.16755549" lon="-1.93854426">
        <ele>1039.0000</ele>
        <time>2018-10-14T15:29:31Z</time>
      </trkpt>
      <trkpt lat="38.16773545" lon="-1.93850873">
        <ele>1038.0000</ele>
        <time>2018-10-14T15:29:33Z</time>
      </trkpt>
      <trkpt lat="38.16830014" lon="-1.93838643">
        <ele>1037.0000</ele>
        <time>2018-10-14T15:29:40Z</time>
      </trkpt>
      <trkpt lat="38.16884279" lon="-1.93827303">
        <ele>1038.0000</ele>
        <time>2018-10-14T15:29:48Z</time>
      </trkpt>
      <trkpt lat="38.16930321" lon="-1.93812726">
        <ele>1038.0000</ele>
        <time>2018-10-14T15:29:55Z</time>
      </trkpt>
      <trkpt lat="38.16943371" lon="-1.93768738">
        <ele>1037.0000</ele>
        <time>2018-10-14T15:30:01Z</time>
      </trkpt>
      <trkpt lat="38.16942642" lon="-1.93759728">
        <ele>1037.0000</ele>
        <time>2018-10-14T15:30:02Z</time>
      </trkpt>
      <trkpt lat="38.16940815" lon="-1.93741003">
        <ele>1037.0000</ele>
        <time>2018-10-14T15:30:04Z</time>
      </trkpt>
      <trkpt lat="38.16939842" lon="-1.93721900">
        <ele>1036.0000</ele>
        <time>2018-10-14T15:30:06Z</time>
      </trkpt>
      <trkpt lat="38.16936071" lon="-1.93680879">
        <ele>1036.0000</ele>
        <time>2018-10-14T15:30:10Z</time>
      </trkpt>
      <trkpt lat="38.16929901" lon="-1.93637536">
        <ele>1035.0000</ele>
        <time>2018-10-14T15:30:14Z</time>
      </trkpt>
      <trkpt lat="38.16929373" lon="-1.93626975">
        <ele>1034.0000</ele>
        <time>2018-10-14T15:30:15Z</time>
      </trkpt>
      <trkpt lat="38.16931997" lon="-1.93605350">
        <ele>1033.0000</ele>
        <time>2018-10-14T15:30:17Z</time>
      </trkpt>
      <trkpt lat="38.16939189" lon="-1.93584797">
        <ele>1032.0000</ele>
        <time>2018-10-14T15:30:19Z</time>
      </trkpt>
      <trkpt lat="38.16945333" lon="-1.93563809">
        <ele>1031.0000</ele>
        <time>2018-10-14T15:30:21Z</time>
      </trkpt>
      <trkpt lat="38.16946011" lon="-1.93552921">
        <ele>1031.0000</ele>
        <time>2018-10-14T15:30:22Z</time>
      </trkpt>
      <trkpt lat="38.16933246" lon="-1.93509863">
        <ele>1030.0000</ele>
        <time>2018-10-14T15:30:26Z</time>
      </trkpt>
      <trkpt lat="38.16923389" lon="-1.93489286">
        <ele>1030.0000</ele>
        <time>2018-10-14T15:30:28Z</time>
      </trkpt>
      <trkpt lat="38.16918410" lon="-1.93479185">
        <ele>1029.0000</ele>
        <time>2018-10-14T15:30:29Z</time>
      </trkpt>
      <trkpt lat="38.16908209" lon="-1.93459002">
        <ele>1027.0000</ele>
        <time>2018-10-14T15:30:31Z</time>
      </trkpt>
      <trkpt lat="38.16897816" lon="-1.93438190">
        <ele>1025.0000</ele>
        <time>2018-10-14T15:30:33Z</time>
      </trkpt>
      <trkpt lat="38.16887564" lon="-1.93416765">
        <ele>1023.0000</ele>
        <time>2018-10-14T15:30:35Z</time>
      </trkpt>
      <trkpt lat="38.16882602" lon="-1.93406129">
        <ele>1022.0000</ele>
        <time>2018-10-14T15:30:36Z</time>
      </trkpt>
      <trkpt lat="38.16873667" lon="-1.93382911">
        <ele>1020.0000</ele>
        <time>2018-10-14T15:30:38Z</time>
      </trkpt>
      <trkpt lat="38.16863391" lon="-1.93345536">
        <ele>1019.0000</ele>
        <time>2018-10-14T15:30:41Z</time>
      </trkpt>
      <trkpt lat="38.16850961" lon="-1.93268221">
        <ele>1018.0000</ele>
        <time>2018-10-14T15:30:47Z</time>
      </trkpt>
      <trkpt lat="38.16849754" lon="-1.93256772">
        <ele>1018.0000</ele>
        <time>2018-10-14T15:30:48Z</time>
      </trkpt>
      <trkpt lat="38.16850156" lon="-1.93236110">
        <ele>1017.0000</ele>
        <time>2018-10-14T15:30:50Z</time>
      </trkpt>
      <trkpt lat="38.16856560" lon="-1.93217100">
        <ele>1016.0000</ele>
        <time>2018-10-14T15:30:52Z</time>
      </trkpt>
      <trkpt lat="38.16900833" lon="-1.93190781">
        <ele>1015.0000</ele>
        <time>2018-10-14T15:30:58Z</time>
      </trkpt>
      <trkpt lat="38.16910657" lon="-1.93191435">
        <ele>1014.0000</ele>
        <time>2018-10-14T15:30:59Z</time>
      </trkpt>
      <trkpt lat="38.16920732" lon="-1.93191451">
        <ele>1014.0000</ele>
        <time>2018-10-14T15:31:00Z</time>
      </trkpt>
      <trkpt lat="38.16941452" lon="-1.93187696">
        <ele>1013.0000</ele>
        <time>2018-10-14T15:31:02Z</time>
      </trkpt>
      <trkpt lat="38.16961937" lon="-1.93180094">
        <ele>1012.0000</ele>
        <time>2018-10-14T15:31:04Z</time>
      </trkpt>
      <trkpt lat="38.16980654" lon="-1.93170296">
        <ele>1010.0000</ele>
        <time>2018-10-14T15:31:06Z</time>
      </trkpt>
      <trkpt lat="38.16988407" lon="-1.93163892">
        <ele>1009.0000</ele>
        <time>2018-10-14T15:31:07Z</time>
      </trkpt>
      <trkpt lat="38.16996093" lon="-1.93156725">
        <ele>1008.0000</ele>
        <time>2018-10-14T15:31:08Z</time>
      </trkpt>
      <trkpt lat="38.17002497" lon="-1.93147522">
        <ele>1007.0000</ele>
        <time>2018-10-14T15:31:09Z</time>
      </trkpt>
      <trkpt lat="38.17008473" lon="-1.93137791">
        <ele>1006.0000</ele>
        <time>2018-10-14T15:31:10Z</time>
      </trkpt>
      <trkpt lat="38.17014265" lon="-1.93127506">
        <ele>1004.0000</ele>
        <time>2018-10-14T15:31:11Z</time>
      </trkpt>
      <trkpt lat="38.17019797" lon="-1.93117238">
        <ele>1003.0000</ele>
        <time>2018-10-14T15:31:12Z</time>
      </trkpt>
      <trkpt lat="38.17028624" lon="-1.93095956">
        <ele>1002.0000</ele>
        <time>2018-10-14T15:31:14Z</time>
      </trkpt>
      <trkpt lat="38.17032127" lon="-1.93072722">
        <ele>1001.0000</ele>
        <time>2018-10-14T15:31:16Z</time>
      </trkpt>
      <trkpt lat="38.17031348" lon="-1.93048867">
        <ele>1000.0000</ele>
        <time>2018-10-14T15:31:18Z</time>
      </trkpt>
      <trkpt lat="38.17029571" lon="-1.93024811">
        <ele>999.00000</ele>
        <time>2018-10-14T15:31:20Z</time>
      </trkpt>
      <trkpt lat="38.17027090" lon="-1.92985701">
        <ele>998.00000</ele>
        <time>2018-10-14T15:31:23Z</time>
      </trkpt>
      <trkpt lat="38.17027718" lon="-1.92958594">
        <ele>997.00000</ele>
        <time>2018-10-14T15:31:25Z</time>
      </trkpt>
      <trkpt lat="38.17029596" lon="-1.92930757">
        <ele>995.00000</ele>
        <time>2018-10-14T15:31:27Z</time>
      </trkpt>
      <trkpt lat="38.17030719" lon="-1.92917615">
        <ele>994.00000</ele>
        <time>2018-10-14T15:31:28Z</time>
      </trkpt>
      <trkpt lat="38.17031716" lon="-1.92905117">
        <ele>993.00000</ele>
        <time>2018-10-14T15:31:29Z</time>
      </trkpt>
      <trkpt lat="38.17032647" lon="-1.92893584">
        <ele>992.00000</ele>
        <time>2018-10-14T15:31:30Z</time>
      </trkpt>
      <trkpt lat="38.17034457" lon="-1.92883450">
        <ele>991.00000</ele>
        <time>2018-10-14T15:31:31Z</time>
      </trkpt>
      <trkpt lat="38.17037844" lon="-1.92874062">
        <ele>990.00000</ele>
        <time>2018-10-14T15:31:32Z</time>
      </trkpt>
      <trkpt lat="38.17050995" lon="-1.92858673">
        <ele>988.00000</ele>
        <time>2018-10-14T15:31:34Z</time>
      </trkpt>
      <trkpt lat="38.17058941" lon="-1.92851725">
        <ele>988.00000</ele>
        <time>2018-10-14T15:31:35Z</time>
      </trkpt>
      <trkpt lat="38.17074565" lon="-1.92836151">
        <ele>987.00000</ele>
        <time>2018-10-14T15:31:37Z</time>
      </trkpt>
      <trkpt lat="38.17081136" lon="-1.92827509">
        <ele>987.00000</ele>
        <time>2018-10-14T15:31:38Z</time>
      </trkpt>
      <trkpt lat="38.17093122" lon="-1.92795935">
        <ele>986.00000</ele>
        <time>2018-10-14T15:31:41Z</time>
      </trkpt>
      <trkpt lat="38.17094740" lon="-1.92771552">
        <ele>984.00000</ele>
        <time>2018-10-14T15:31:43Z</time>
      </trkpt>
      <trkpt lat="38.17094212" lon="-1.92760144">
        <ele>983.00000</ele>
        <time>2018-10-14T15:31:44Z</time>
      </trkpt>
      <trkpt lat="38.17092971" lon="-1.92749298">
        <ele>982.00000</ele>
        <time>2018-10-14T15:31:45Z</time>
      </trkpt>
      <trkpt lat="38.17090591" lon="-1.92740404">
        <ele>981.00000</ele>
        <time>2018-10-14T15:31:46Z</time>
      </trkpt>
      <trkpt lat="38.17082888" lon="-1.92726893">
        <ele>980.00000</ele>
        <time>2018-10-14T15:31:48Z</time>
      </trkpt>
      <trkpt lat="38.17070977" lon="-1.92722694">
        <ele>978.00000</ele>
        <time>2018-10-14T15:31:50Z</time>
      </trkpt>
      <trkpt lat="38.17058153" lon="-1.92731863">
        <ele>977.00000</ele>
        <time>2018-10-14T15:31:52Z</time>
      </trkpt>
      <trkpt lat="38.17046402" lon="-1.92747496">
        <ele>976.00000</ele>
        <time>2018-10-14T15:31:54Z</time>
      </trkpt>
      <trkpt lat="38.17039671" lon="-1.92755131">
        <ele>976.00000</ele>
        <time>2018-10-14T15:31:55Z</time>
      </trkpt>
      <trkpt lat="38.17024122" lon="-1.92769213">
        <ele>975.00000</ele>
        <time>2018-10-14T15:31:57Z</time>
      </trkpt>
      <trkpt lat="38.17015129" lon="-1.92775181">
        <ele>975.00000</ele>
        <time>2018-10-14T15:31:58Z</time>
      </trkpt>
      <trkpt lat="38.16995565" lon="-1.92785516">
        <ele>973.00000</ele>
        <time>2018-10-14T15:32:00Z</time>
      </trkpt>
      <trkpt lat="38.16975893" lon="-1.92794837">
        <ele>971.00000</ele>
        <time>2018-10-14T15:32:02Z</time>
      </trkpt>
      <trkpt lat="38.16966488" lon="-1.92798919">
        <ele>970.00000</ele>
        <time>2018-10-14T15:32:03Z</time>
      </trkpt>
      <trkpt lat="38.16958157" lon="-1.92804124">
        <ele>969.00000</ele>
        <time>2018-10-14T15:32:04Z</time>
      </trkpt>
      <trkpt lat="38.16951401" lon="-1.92811533">
        <ele>969.00000</ele>
        <time>2018-10-14T15:32:05Z</time>
      </trkpt>
      <trkpt lat="38.16944536" lon="-1.92819748">
        <ele>967.00000</ele>
        <time>2018-10-14T15:32:06Z</time>
      </trkpt>
      <trkpt lat="38.16938661" lon="-1.92829873">
        <ele>966.00000</ele>
        <time>2018-10-14T15:32:07Z</time>
      </trkpt>
      <trkpt lat="38.16933665" lon="-1.92841222">
        <ele>965.00000</ele>
        <time>2018-10-14T15:32:08Z</time>
      </trkpt>
      <trkpt lat="38.16928527" lon="-1.92852303">
        <ele>963.00000</ele>
        <time>2018-10-14T15:32:09Z</time>
      </trkpt>
      <trkpt lat="38.16918200" lon="-1.92871816">
        <ele>962.00000</ele>
        <time>2018-10-14T15:32:11Z</time>
      </trkpt>
      <trkpt lat="38.16902652" lon="-1.92883903">
        <ele>961.00000</ele>
        <time>2018-10-14T15:32:13Z</time>
      </trkpt>
      <trkpt lat="38.16874162" lon="-1.92885277">
        <ele>959.00000</ele>
        <time>2018-10-14T15:32:16Z</time>
      </trkpt>
      <trkpt lat="38.16857515" lon="-1.92878019">
        <ele>958.00000</ele>
        <time>2018-10-14T15:32:18Z</time>
      </trkpt>
      <trkpt lat="38.16846401" lon="-1.92861875">
        <ele>957.00000</ele>
        <time>2018-10-14T15:32:20Z</time>
      </trkpt>
      <trkpt lat="38.16841975" lon="-1.92853325">
        <ele>956.00000</ele>
        <time>2018-10-14T15:32:21Z</time>
      </trkpt>
      <trkpt lat="38.16836980" lon="-1.92845673">
        <ele>955.00000</ele>
        <time>2018-10-14T15:32:22Z</time>
      </trkpt>
      <trkpt lat="38.16815539" lon="-1.92835925">
        <ele>954.00000</ele>
        <time>2018-10-14T15:32:25Z</time>
      </trkpt>
      <trkpt lat="38.16799085" lon="-1.92842219">
        <ele>952.00000</ele>
        <time>2018-10-14T15:32:27Z</time>
      </trkpt>
      <trkpt lat="38.16783260" lon="-1.92847374">
        <ele>951.00000</ele>
        <time>2018-10-14T15:32:29Z</time>
      </trkpt>
      <trkpt lat="38.16775834" lon="-1.92848196">
        <ele>950.00000</ele>
        <time>2018-10-14T15:32:30Z</time>
      </trkpt>
      <trkpt lat="38.16769229" lon="-1.92846737">
        <ele>950.00000</ele>
        <time>2018-10-14T15:32:31Z</time>
      </trkpt>
      <trkpt lat="38.16758517" lon="-1.92834835">
        <ele>948.00000</ele>
        <time>2018-10-14T15:32:33Z</time>
      </trkpt>
      <trkpt lat="38.16754636" lon="-1.92814702">
        <ele>947.00000</ele>
        <time>2018-10-14T15:32:35Z</time>
      </trkpt>
      <trkpt lat="38.16754493" lon="-1.92792104">
        <ele>946.00000</ele>
        <time>2018-10-14T15:32:37Z</time>
      </trkpt>
      <trkpt lat="38.16756363" lon="-1.92769180">
        <ele>945.00000</ele>
        <time>2018-10-14T15:32:39Z</time>
      </trkpt>
      <trkpt lat="38.16761811" lon="-1.92750907">
        <ele>944.00000</ele>
        <time>2018-10-14T15:32:41Z</time>
      </trkpt>
      <trkpt lat="38.16767133" lon="-1.92744101">
        <ele>943.00000</ele>
        <time>2018-10-14T15:32:42Z</time>
      </trkpt>
      <trkpt lat="38.16782363" lon="-1.92738284">
        <ele>941.00000</ele>
        <time>2018-10-14T15:32:44Z</time>
      </trkpt>
      <trkpt lat="38.16800393" lon="-1.92742818">
        <ele>940.00000</ele>
        <time>2018-10-14T15:32:46Z</time>
      </trkpt>
      <trkpt lat="38.16809068" lon="-1.92746263">
        <ele>939.00000</ele>
        <time>2018-10-14T15:32:47Z</time>
      </trkpt>
      <trkpt lat="38.16817064" lon="-1.92748728">
        <ele>939.00000</ele>
        <time>2018-10-14T15:32:48Z</time>
      </trkpt>
      <trkpt lat="38.16845227" lon="-1.92736180">
        <ele>937.00000</ele>
        <time>2018-10-14T15:32:52Z</time>
      </trkpt>
      <trkpt lat="38.16853945" lon="-1.92717706">
        <ele>935.00000</ele>
        <time>2018-10-14T15:32:54Z</time>
      </trkpt>
      <trkpt lat="38.16863207" lon="-1.92697347">
        <ele>934.00000</ele>
        <time>2018-10-14T15:32:56Z</time>
      </trkpt>
      <trkpt lat="38.16873307" lon="-1.92675629">
        <ele>933.00000</ele>
        <time>2018-10-14T15:32:58Z</time>
      </trkpt>
      <trkpt lat="38.16878755" lon="-1.92664054">
        <ele>932.00000</ele>
        <time>2018-10-14T15:32:59Z</time>
      </trkpt>
      <trkpt lat="38.16884036" lon="-1.92651757">
        <ele>931.00000</ele>
        <time>2018-10-14T15:33:00Z</time>
      </trkpt>
      <trkpt lat="38.16890716" lon="-1.92625422">
        <ele>929.00000</ele>
        <time>2018-10-14T15:33:02Z</time>
      </trkpt>
      <trkpt lat="38.16895008" lon="-1.92602262">
        <ele>928.00000</ele>
        <time>2018-10-14T15:33:04Z</time>
      </trkpt>
      <trkpt lat="38.16904789" lon="-1.92582129">
        <ele>926.00000</ele>
        <time>2018-10-14T15:33:06Z</time>
      </trkpt>
      <trkpt lat="38.16912149" lon="-1.92574367">
        <ele>924.00000</ele>
        <time>2018-10-14T15:33:07Z</time>
      </trkpt>
      <trkpt lat="38.16919525" lon="-1.92567586">
        <ele>923.00000</ele>
        <time>2018-10-14T15:33:08Z</time>
      </trkpt>
      <trkpt lat="38.16926331" lon="-1.92560629">
        <ele>922.00000</ele>
        <time>2018-10-14T15:33:09Z</time>
      </trkpt>
      <trkpt lat="38.16935308" lon="-1.92540957">
        <ele>920.00000</ele>
        <time>2018-10-14T15:33:11Z</time>
      </trkpt>
      <trkpt lat="38.16940010" lon="-1.92504798">
        <ele>919.00000</ele>
        <time>2018-10-14T15:33:14Z</time>
      </trkpt>
      <trkpt lat="38.16945835" lon="-1.92471865">
        <ele>918.00000</ele>
        <time>2018-10-14T15:33:17Z</time>
      </trkpt>
      <trkpt lat="38.16963823" lon="-1.92446275">
        <ele>917.00000</ele>
        <time>2018-10-14T15:33:20Z</time>
      </trkpt>
      <trkpt lat="38.16972347" lon="-1.92439989">
        <ele>916.00000</ele>
        <time>2018-10-14T15:33:21Z</time>
      </trkpt>
      <trkpt lat="38.16981978" lon="-1.92435353">
        <ele>915.00000</ele>
        <time>2018-10-14T15:33:22Z</time>
      </trkpt>
      <trkpt lat="38.16992120" lon="-1.92431196">
        <ele>913.00000</ele>
        <time>2018-10-14T15:33:23Z</time>
      </trkpt>
      <trkpt lat="38.17019429" lon="-1.92416285">
        <ele>912.00000</ele>
        <time>2018-10-14T15:33:26Z</time>
      </trkpt>
      <trkpt lat="38.17033150" lon="-1.92400795">
        <ele>910.00000</ele>
        <time>2018-10-14T15:33:28Z</time>
      </trkpt>
      <trkpt lat="38.17041892" lon="-1.92380804">
        <ele>908.00000</ele>
        <time>2018-10-14T15:33:30Z</time>
      </trkpt>
      <trkpt lat="38.17044080" lon="-1.92369530">
        <ele>907.00000</ele>
        <time>2018-10-14T15:33:31Z</time>
      </trkpt>
      <trkpt lat="38.17043174" lon="-1.92344209">
        <ele>905.00000</ele>
        <time>2018-10-14T15:33:33Z</time>
      </trkpt>
      <trkpt lat="38.17043074" lon="-1.92331334">
        <ele>905.00000</ele>
        <time>2018-10-14T15:33:34Z</time>
      </trkpt>
      <trkpt lat="38.17046678" lon="-1.92305292">
        <ele>904.00000</ele>
        <time>2018-10-14T15:33:36Z</time>
      </trkpt>
      <trkpt lat="38.17052302" lon="-1.92281076">
        <ele>902.00000</ele>
        <time>2018-10-14T15:33:38Z</time>
      </trkpt>
      <trkpt lat="38.17058991" lon="-1.92259719">
        <ele>901.00000</ele>
        <time>2018-10-14T15:33:40Z</time>
      </trkpt>
      <trkpt lat="38.17064280" lon="-1.92250273">
        <ele>900.00000</ele>
        <time>2018-10-14T15:33:41Z</time>
      </trkpt>
      <trkpt lat="38.17070994" lon="-1.92241522">
        <ele>899.00000</ele>
        <time>2018-10-14T15:33:42Z</time>
      </trkpt>
      <trkpt lat="38.17087548" lon="-1.92226435">
        <ele>897.00000</ele>
        <time>2018-10-14T15:33:44Z</time>
      </trkpt>
      <trkpt lat="38.17096735" lon="-1.92219293">
        <ele>897.00000</ele>
        <time>2018-10-14T15:33:45Z</time>
      </trkpt>
      <trkpt lat="38.17107036" lon="-1.92212554">
        <ele>896.00000</ele>
        <time>2018-10-14T15:33:46Z</time>
      </trkpt>
      <trkpt lat="38.17134076" lon="-1.92195656">
        <ele>895.00000</ele>
        <time>2018-10-14T15:33:49Z</time>
      </trkpt>
      <trkpt lat="38.17141553" lon="-1.92188221">
        <ele>895.00000</ele>
        <time>2018-10-14T15:33:50Z</time>
      </trkpt>
      <trkpt lat="38.17156154" lon="-1.92173486">
        <ele>893.00000</ele>
        <time>2018-10-14T15:33:52Z</time>
      </trkpt>
      <trkpt lat="38.17171091" lon="-1.92163294">
        <ele>891.00000</ele>
        <time>2018-10-14T15:33:54Z</time>
      </trkpt>
      <trkpt lat="38.17177000" lon="-1.92157368">
        <ele>890.00000</ele>
        <time>2018-10-14T15:33:55Z</time>
      </trkpt>
      <trkpt lat="38.17181694" lon="-1.92149723">
        <ele>889.00000</ele>
        <time>2018-10-14T15:33:56Z</time>
      </trkpt>
      <trkpt lat="38.17184770" lon="-1.92140612">
        <ele>888.00000</ele>
        <time>2018-10-14T15:33:57Z</time>
      </trkpt>
      <trkpt lat="38.17186463" lon="-1.92119657">
        <ele>886.00000</ele>
        <time>2018-10-14T15:33:59Z</time>
      </trkpt>
      <trkpt lat="38.17209731" lon="-1.92085074">
        <ele>885.00000</ele>
        <time>2018-10-14T15:34:03Z</time>
      </trkpt>
      <trkpt lat="38.17216328" lon="-1.92077740">
        <ele>885.00000</ele>
        <time>2018-10-14T15:34:04Z</time>
      </trkpt>
      <trkpt lat="38.17221038" lon="-1.92069014">
        <ele>884.00000</ele>
        <time>2018-10-14T15:34:05Z</time>
      </trkpt>
      <trkpt lat="38.17224056" lon="-1.92059090">
        <ele>883.00000</ele>
        <time>2018-10-14T15:34:06Z</time>
      </trkpt>
      <trkpt lat="38.17224668" lon="-1.92047875">
        <ele>882.00000</ele>
        <time>2018-10-14T15:34:07Z</time>
      </trkpt>
      <trkpt lat="38.17220896" lon="-1.92028068">
        <ele>881.00000</ele>
        <time>2018-10-14T15:34:09Z</time>
      </trkpt>
      <trkpt lat="38.17212103" lon="-1.92002520">
        <ele>880.00000</ele>
        <time>2018-10-14T15:34:12Z</time>
      </trkpt>
      <trkpt lat="38.17216621" lon="-1.91982722">
        <ele>879.00000</ele>
        <time>2018-10-14T15:34:14Z</time>
      </trkpt>
      <trkpt lat="38.17228649" lon="-1.91968783">
        <ele>877.00000</ele>
        <time>2018-10-14T15:34:16Z</time>
      </trkpt>
      <trkpt lat="38.17251373" lon="-1.91968356">
        <ele>876.00000</ele>
        <time>2018-10-14T15:34:19Z</time>
      </trkpt>
      <trkpt lat="38.17258137" lon="-1.91971750">
        <ele>876.00000</ele>
        <time>2018-10-14T15:34:20Z</time>
      </trkpt>
      <trkpt lat="38.17279242" lon="-1.91975606">
        <ele>875.00000</ele>
        <time>2018-10-14T15:34:23Z</time>
      </trkpt>
      <trkpt lat="38.17292025" lon="-1.91965581">
        <ele>874.00000</ele>
        <time>2018-10-14T15:34:25Z</time>
      </trkpt>
      <trkpt lat="38.17304925" lon="-1.91926522">
        <ele>872.00000</ele>
        <time>2018-10-14T15:34:29Z</time>
      </trkpt>
      <trkpt lat="38.17303743" lon="-1.91903203">
        <ele>871.00000</ele>
        <time>2018-10-14T15:34:31Z</time>
      </trkpt>
      <trkpt lat="38.17302351" lon="-1.91892525">
        <ele>870.00000</ele>
        <time>2018-10-14T15:34:32Z</time>
      </trkpt>
      <trkpt lat="38.17301781" lon="-1.91881980">
        <ele>869.00000</ele>
        <time>2018-10-14T15:34:33Z</time>
      </trkpt>
      <trkpt lat="38.17302930" lon="-1.91871268">
        <ele>868.00000</ele>
        <time>2018-10-14T15:34:34Z</time>
      </trkpt>
      <trkpt lat="38.17313239" lon="-1.91856332">
        <ele>866.00000</ele>
        <time>2018-10-14T15:34:36Z</time>
      </trkpt>
      <trkpt lat="38.17320892" lon="-1.91852652">
        <ele>865.00000</ele>
        <time>2018-10-14T15:34:37Z</time>
      </trkpt>
      <trkpt lat="38.17335016" lon="-1.91847950">
        <ele>864.00000</ele>
        <time>2018-10-14T15:34:39Z</time>
      </trkpt>
      <trkpt lat="38.17349189" lon="-1.91809678">
        <ele>863.00000</ele>
        <time>2018-10-14T15:34:44Z</time>
      </trkpt>
      <trkpt lat="38.17350053" lon="-1.91779042">
        <ele>862.00000</ele>
        <time>2018-10-14T15:34:47Z</time>
      </trkpt>
      <trkpt lat="38.17355878" lon="-1.91758548">
        <ele>860.00000</ele>
        <time>2018-10-14T15:34:49Z</time>
      </trkpt>
      <trkpt lat="38.17358401" lon="-1.91748230">
        <ele>859.00000</ele>
        <time>2018-10-14T15:34:50Z</time>
      </trkpt>
      <trkpt lat="38.17359013" lon="-1.91737325">
        <ele>859.00000</ele>
        <time>2018-10-14T15:34:51Z</time>
      </trkpt>
      <trkpt lat="38.17356783" lon="-1.91725851">
        <ele>858.00000</ele>
        <time>2018-10-14T15:34:52Z</time>
      </trkpt>
      <trkpt lat="38.17352660" lon="-1.91715985">
        <ele>856.00000</ele>
        <time>2018-10-14T15:34:53Z</time>
      </trkpt>
      <trkpt lat="38.17343733" lon="-1.91700118">
        <ele>855.00000</ele>
        <time>2018-10-14T15:34:55Z</time>
      </trkpt>
      <trkpt lat="38.17344998" lon="-1.91657052">
        <ele>854.00000</ele>
        <time>2018-10-14T15:34:59Z</time>
      </trkpt>
      <trkpt lat="38.17347605" lon="-1.91645594">
        <ele>854.00000</ele>
        <time>2018-10-14T15:35:00Z</time>
      </trkpt>
      <trkpt lat="38.17350304" lon="-1.91633884">
        <ele>853.00000</ele>
        <time>2018-10-14T15:35:01Z</time>
      </trkpt>
      <trkpt lat="38.17355811" lon="-1.91595680">
        <ele>852.00000</ele>
        <time>2018-10-14T15:35:04Z</time>
      </trkpt>
      <trkpt lat="38.17359860" lon="-1.91570400">
        <ele>850.00000</ele>
        <time>2018-10-14T15:35:06Z</time>
      </trkpt>
      <trkpt lat="38.17367303" lon="-1.91547584">
        <ele>848.00000</ele>
        <time>2018-10-14T15:35:08Z</time>
      </trkpt>
      <trkpt lat="38.17372240" lon="-1.91536621">
        <ele>847.00000</ele>
        <time>2018-10-14T15:35:09Z</time>
      </trkpt>
      <trkpt lat="38.17377344" lon="-1.91526814">
        <ele>846.00000</ele>
        <time>2018-10-14T15:35:10Z</time>
      </trkpt>
      <trkpt lat="38.17383572" lon="-1.91517753">
        <ele>845.00000</ele>
        <time>2018-10-14T15:35:11Z</time>
      </trkpt>
      <trkpt lat="38.17399690" lon="-1.91504225">
        <ele>844.00000</ele>
        <time>2018-10-14T15:35:13Z</time>
      </trkpt>
      <trkpt lat="38.17418851" lon="-1.91493446">
        <ele>843.00000</ele>
        <time>2018-10-14T15:35:15Z</time>
      </trkpt>
      <trkpt lat="38.17428197" lon="-1.91485994">
        <ele>843.00000</ele>
        <time>2018-10-14T15:35:16Z</time>
      </trkpt>
      <trkpt lat="38.17448406" lon="-1.91471954">
        <ele>842.00000</ele>
        <time>2018-10-14T15:35:18Z</time>
      </trkpt>
      <trkpt lat="38.17458766" lon="-1.91465215">
        <ele>841.00000</ele>
        <time>2018-10-14T15:35:19Z</time>
      </trkpt>
      <trkpt lat="38.17477877" lon="-1.91452307">
        <ele>840.00000</ele>
        <time>2018-10-14T15:35:21Z</time>
      </trkpt>
      <trkpt lat="38.17485974" lon="-1.91445359">
        <ele>838.00000</ele>
        <time>2018-10-14T15:35:22Z</time>
      </trkpt>
      <trkpt lat="38.17493903" lon="-1.91438728">
        <ele>837.00000</ele>
        <time>2018-10-14T15:35:23Z</time>
      </trkpt>
      <trkpt lat="38.17501103" lon="-1.91431495">
        <ele>836.00000</ele>
        <time>2018-10-14T15:35:24Z</time>
      </trkpt>
      <trkpt lat="38.17508177" lon="-1.91424655">
        <ele>835.00000</ele>
        <time>2018-10-14T15:35:25Z</time>
      </trkpt>
      <trkpt lat="38.17524162" lon="-1.91415578">
        <ele>833.00000</ele>
        <time>2018-10-14T15:35:27Z</time>
      </trkpt>
      <trkpt lat="38.17542484" lon="-1.91412837">
        <ele>832.00000</ele>
        <time>2018-10-14T15:35:29Z</time>
      </trkpt>
      <trkpt lat="38.17551897" lon="-1.91412342">
        <ele>832.00000</ele>
        <time>2018-10-14T15:35:30Z</time>
      </trkpt>
      <trkpt lat="38.17560472" lon="-1.91410968">
        <ele>831.00000</ele>
        <time>2018-10-14T15:35:31Z</time>
      </trkpt>
      <trkpt lat="38.17578493" lon="-1.91395972">
        <ele>830.00000</ele>
        <time>2018-10-14T15:35:34Z</time>
      </trkpt>
      <trkpt lat="38.17580295" lon="-1.91368924">
        <ele>829.00000</ele>
        <time>2018-10-14T15:35:37Z</time>
      </trkpt>
      <trkpt lat="38.17592382" lon="-1.91323486">
        <ele>828.00000</ele>
        <time>2018-10-14T15:35:42Z</time>
      </trkpt>
      <trkpt lat="38.17608634" lon="-1.91316638">
        <ele>827.00000</ele>
        <time>2018-10-14T15:35:44Z</time>
      </trkpt>
      <trkpt lat="38.17622113" lon="-1.91309153">
        <ele>825.00000</ele>
        <time>2018-10-14T15:35:46Z</time>
      </trkpt>
      <trkpt lat="38.17627930" lon="-1.91293403">
        <ele>824.00000</ele>
        <time>2018-10-14T15:35:48Z</time>
      </trkpt>
      <trkpt lat="38.17627762" lon="-1.91273831">
        <ele>823.00000</ele>
        <time>2018-10-14T15:35:50Z</time>
      </trkpt>
      <trkpt lat="38.17622984" lon="-1.91253673">
        <ele>821.00000</ele>
        <time>2018-10-14T15:35:52Z</time>
      </trkpt>
      <trkpt lat="38.17622800" lon="-1.91205510">
        <ele>820.00000</ele>
        <time>2018-10-14T15:35:56Z</time>
      </trkpt>
      <trkpt lat="38.17625801" lon="-1.91179719">
        <ele>818.00000</ele>
        <time>2018-10-14T15:35:58Z</time>
      </trkpt>
      <trkpt lat="38.17627653" lon="-1.91167624">
        <ele>817.00000</ele>
        <time>2018-10-14T15:35:59Z</time>
      </trkpt>
      <trkpt lat="38.17629547" lon="-1.91155856">
        <ele>816.00000</ele>
        <time>2018-10-14T15:36:00Z</time>
      </trkpt>
      <trkpt lat="38.17632213" lon="-1.91145563">
        <ele>815.00000</ele>
        <time>2018-10-14T15:36:01Z</time>
      </trkpt>
      <trkpt lat="38.17637133" lon="-1.91137005">
        <ele>814.00000</ele>
        <time>2018-10-14T15:36:02Z</time>
      </trkpt>
      <trkpt lat="38.17643520" lon="-1.91129344">
        <ele>813.00000</ele>
        <time>2018-10-14T15:36:03Z</time>
      </trkpt>
      <trkpt lat="38.17651189" lon="-1.91123276">
        <ele>812.00000</ele>
        <time>2018-10-14T15:36:04Z</time>
      </trkpt>
      <trkpt lat="38.17658725" lon="-1.91118590">
        <ele>811.00000</ele>
        <time>2018-10-14T15:36:05Z</time>
      </trkpt>
      <trkpt lat="38.17665908" lon="-1.91114122">
        <ele>810.00000</ele>
        <time>2018-10-14T15:36:06Z</time>
      </trkpt>
      <trkpt lat="38.17680266" lon="-1.91091659">
        <ele>809.00000</ele>
        <time>2018-10-14T15:36:09Z</time>
      </trkpt>
      <trkpt lat="38.17673435" lon="-1.91062373">
        <ele>808.00000</ele>
        <time>2018-10-14T15:36:12Z</time>
      </trkpt>
      <trkpt lat="38.17668925" lon="-1.91052339">
        <ele>807.00000</ele>
        <time>2018-10-14T15:36:13Z</time>
      </trkpt>
      <trkpt lat="38.17659093" lon="-1.91032667">
        <ele>806.00000</ele>
        <time>2018-10-14T15:36:15Z</time>
      </trkpt>
      <trkpt lat="38.17652958" lon="-1.91023581">
        <ele>806.00000</ele>
        <time>2018-10-14T15:36:16Z</time>
      </trkpt>
      <trkpt lat="38.17645959" lon="-1.91015509">
        <ele>805.00000</ele>
        <time>2018-10-14T15:36:17Z</time>
      </trkpt>
      <trkpt lat="38.17639228" lon="-1.91008150">
        <ele>804.00000</ele>
        <time>2018-10-14T15:36:18Z</time>
      </trkpt>
      <trkpt lat="38.17633671" lon="-1.91000640">
        <ele>803.00000</ele>
        <time>2018-10-14T15:36:19Z</time>
      </trkpt>
      <trkpt lat="38.17629665" lon="-1.90991780">
        <ele>802.00000</ele>
        <time>2018-10-14T15:36:20Z</time>
      </trkpt>
      <trkpt lat="38.17626656" lon="-1.90970239">
        <ele>801.00000</ele>
        <time>2018-10-14T15:36:22Z</time>
      </trkpt>
      <trkpt lat="38.17627930" lon="-1.90946007">
        <ele>800.00000</ele>
        <time>2018-10-14T15:36:24Z</time>
      </trkpt>
      <trkpt lat="38.17628248" lon="-1.90907366">
        <ele>799.00000</ele>
        <time>2018-10-14T15:36:27Z</time>
      </trkpt>
      <trkpt lat="38.17627091" lon="-1.90894072">
        <ele>799.00000</ele>
        <time>2018-10-14T15:36:28Z</time>
      </trkpt>
      <trkpt lat="38.17625130" lon="-1.90880619">
        <ele>798.00000</ele>
        <time>2018-10-14T15:36:29Z</time>
      </trkpt>
      <trkpt lat="38.17618944" lon="-1.90853571">
        <ele>797.00000</ele>
        <time>2018-10-14T15:36:31Z</time>
      </trkpt>
      <trkpt lat="38.17609347" lon="-1.90827252">
        <ele>796.00000</ele>
        <time>2018-10-14T15:36:33Z</time>
      </trkpt>
      <trkpt lat="38.17600077" lon="-1.90801989">
        <ele>795.00000</ele>
        <time>2018-10-14T15:36:35Z</time>
      </trkpt>
      <trkpt lat="38.17594209" lon="-1.90774773">
        <ele>793.00000</ele>
        <time>2018-10-14T15:36:37Z</time>
      </trkpt>
      <trkpt lat="38.17591904" lon="-1.90744992">
        <ele>791.00000</ele>
        <time>2018-10-14T15:36:39Z</time>
      </trkpt>
      <trkpt lat="38.17590932" lon="-1.90729527">
        <ele>790.00000</ele>
        <time>2018-10-14T15:36:40Z</time>
      </trkpt>
      <trkpt lat="38.17589490" lon="-1.90713945">
        <ele>789.00000</ele>
        <time>2018-10-14T15:36:41Z</time>
      </trkpt>
      <trkpt lat="38.17587487" lon="-1.90698162">
        <ele>788.00000</ele>
        <time>2018-10-14T15:36:42Z</time>
      </trkpt>
      <trkpt lat="38.17582039" lon="-1.90667442">
        <ele>787.00000</ele>
        <time>2018-10-14T15:36:44Z</time>
      </trkpt>
      <trkpt lat="38.17576892" lon="-1.90637050">
        <ele>785.00000</ele>
        <time>2018-10-14T15:36:46Z</time>
      </trkpt>
      <trkpt lat="38.17575249" lon="-1.90606405">
        <ele>784.00000</ele>
        <time>2018-10-14T15:36:48Z</time>
      </trkpt>
      <trkpt lat="38.17576238" lon="-1.90590748">
        <ele>782.00000</ele>
        <time>2018-10-14T15:36:49Z</time>
      </trkpt>
      <trkpt lat="38.17578518" lon="-1.90575124">
        <ele>781.00000</ele>
        <time>2018-10-14T15:36:50Z</time>
      </trkpt>
      <trkpt lat="38.17586054" lon="-1.90543030">
        <ele>779.00000</ele>
        <time>2018-10-14T15:36:52Z</time>
      </trkpt>
      <trkpt lat="38.17606480" lon="-1.90476235">
        <ele>779.00000</ele>
        <time>2018-10-14T15:36:56Z</time>
      </trkpt>
      <trkpt lat="38.17613404" lon="-1.90459856">
        <ele>778.00000</ele>
        <time>2018-10-14T15:36:57Z</time>
      </trkpt>
      <trkpt lat="38.17628122" lon="-1.90427284">
        <ele>777.00000</ele>
        <time>2018-10-14T15:36:59Z</time>
      </trkpt>
      <trkpt lat="38.17643671" lon="-1.90395073">
        <ele>775.00000</ele>
        <time>2018-10-14T15:37:01Z</time>
      </trkpt>
      <trkpt lat="38.17651567" lon="-1.90378904">
        <ele>773.00000</ele>
        <time>2018-10-14T15:37:02Z</time>
      </trkpt>
      <trkpt lat="38.17659077" lon="-1.90362542">
        <ele>771.00000</ele>
        <time>2018-10-14T15:37:03Z</time>
      </trkpt>
      <trkpt lat="38.17666386" lon="-1.90346349">
        <ele>770.00000</ele>
        <time>2018-10-14T15:37:04Z</time>
      </trkpt>
      <trkpt lat="38.17673812" lon="-1.90330557">
        <ele>768.00000</ele>
        <time>2018-10-14T15:37:05Z</time>
      </trkpt>
      <trkpt lat="38.17681180" lon="-1.90315210">
        <ele>766.00000</ele>
        <time>2018-10-14T15:37:06Z</time>
      </trkpt>
      <trkpt lat="38.17688229" lon="-1.90300173">
        <ele>765.00000</ele>
        <time>2018-10-14T15:37:07Z</time>
      </trkpt>
      <trkpt lat="38.17694867" lon="-1.90285094">
        <ele>764.00000</ele>
        <time>2018-10-14T15:37:08Z</time>
      </trkpt>
      <trkpt lat="38.17707323" lon="-1.90255556">
        <ele>762.00000</ele>
        <time>2018-10-14T15:37:10Z</time>
      </trkpt>
      <trkpt lat="38.17719602" lon="-1.90227937">
        <ele>760.00000</ele>
        <time>2018-10-14T15:37:12Z</time>
      </trkpt>
      <trkpt lat="38.17725528" lon="-1.90215423">
        <ele>759.00000</ele>
        <time>2018-10-14T15:37:13Z</time>
      </trkpt>
      <trkpt lat="38.17731991" lon="-1.90203680">
        <ele>758.00000</ele>
        <time>2018-10-14T15:37:14Z</time>
      </trkpt>
      <trkpt lat="38.17738990" lon="-1.90192800">
        <ele>757.00000</ele>
        <time>2018-10-14T15:37:15Z</time>
      </trkpt>
      <trkpt lat="38.17762929" lon="-1.90166573">
        <ele>755.00000</ele>
        <time>2018-10-14T15:37:18Z</time>
      </trkpt>
      <trkpt lat="38.17825131" lon="-1.90165651">
        <ele>754.00000</ele>
        <time>2018-10-14T15:37:24Z</time>
      </trkpt>
      <trkpt lat="38.17868331" lon="-1.90171846">
        <ele>753.00000</ele>
        <time>2018-10-14T15:37:28Z</time>
      </trkpt>
      <trkpt lat="38.17879571" lon="-1.90172466">
        <ele>752.00000</ele>
        <time>2018-10-14T15:37:29Z</time>
      </trkpt>
      <trkpt lat="38.17890794" lon="-1.90173405">
        <ele>750.00000</ele>
        <time>2018-10-14T15:37:30Z</time>
      </trkpt>
      <trkpt lat="38.17902135" lon="-1.90174779">
        <ele>749.00000</ele>
        <time>2018-10-14T15:37:31Z</time>
      </trkpt>
      <trkpt lat="38.17913652" lon="-1.90176917">
        <ele>748.00000</ele>
        <time>2018-10-14T15:37:32Z</time>
      </trkpt>
      <trkpt lat="38.17937021" lon="-1.90184192">
        <ele>746.00000</ele>
        <time>2018-10-14T15:37:34Z</time>
      </trkpt>
      <trkpt lat="38.17960188" lon="-1.90195273">
        <ele>745.00000</ele>
        <time>2018-10-14T15:37:36Z</time>
      </trkpt>
      <trkpt lat="38.17982886" lon="-1.90210092">
        <ele>743.00000</ele>
        <time>2018-10-14T15:37:38Z</time>
      </trkpt>
      <trkpt lat="38.17993699" lon="-1.90219287">
        <ele>743.00000</ele>
        <time>2018-10-14T15:37:39Z</time>
      </trkpt>
      <trkpt lat="38.18004059" lon="-1.90229681">
        <ele>742.00000</ele>
        <time>2018-10-14T15:37:40Z</time>
      </trkpt>
      <trkpt lat="38.18024151" lon="-1.90252304">
        <ele>740.00000</ele>
        <time>2018-10-14T15:37:42Z</time>
      </trkpt>
      <trkpt lat="38.18044451" lon="-1.90274038">
        <ele>739.00000</ele>
        <time>2018-10-14T15:37:44Z</time>
      </trkpt>
      <trkpt lat="38.18064702" lon="-1.90292310">
        <ele>737.00000</ele>
        <time>2018-10-14T15:37:46Z</time>
      </trkpt>
      <trkpt lat="38.18075163" lon="-1.90300474">
        <ele>736.00000</ele>
        <time>2018-10-14T15:37:47Z</time>
      </trkpt>
      <trkpt lat="38.18085498" lon="-1.90309242">
        <ele>734.00000</ele>
        <time>2018-10-14T15:37:48Z</time>
      </trkpt>
      <trkpt lat="38.18095346" lon="-1.90319082">
        <ele>733.00000</ele>
        <time>2018-10-14T15:37:49Z</time>
      </trkpt>
      <trkpt lat="38.18104399" lon="-1.90329870">
        <ele>732.00000</ele>
        <time>2018-10-14T15:37:50Z</time>
      </trkpt>
      <trkpt lat="38.18112839" lon="-1.90341562">
        <ele>731.00000</ele>
        <time>2018-10-14T15:37:51Z</time>
      </trkpt>
      <trkpt lat="38.18120601" lon="-1.90353817">
        <ele>730.00000</ele>
        <time>2018-10-14T15:37:52Z</time>
      </trkpt>
      <trkpt lat="38.18134607" lon="-1.90380723">
        <ele>729.00000</ele>
        <time>2018-10-14T15:37:54Z</time>
      </trkpt>
      <trkpt lat="38.18140977" lon="-1.90395131">
        <ele>728.00000</ele>
        <time>2018-10-14T15:37:55Z</time>
      </trkpt>
      <trkpt lat="38.18146937" lon="-1.90409724">
        <ele>727.00000</ele>
        <time>2018-10-14T15:37:56Z</time>
      </trkpt>
      <trkpt lat="38.18152461" lon="-1.90424082">
        <ele>724.00000</ele>
        <time>2018-10-14T15:37:57Z</time>
      </trkpt>
      <trkpt lat="38.18162033" lon="-1.90451122">
        <ele>722.00000</ele>
        <time>2018-10-14T15:37:59Z</time>
      </trkpt>
      <trkpt lat="38.18169468" lon="-1.90474977">
        <ele>720.00000</ele>
        <time>2018-10-14T15:38:01Z</time>
      </trkpt>
      <trkpt lat="38.18176207" lon="-1.90494951">
        <ele>719.00000</ele>
        <time>2018-10-14T15:38:03Z</time>
      </trkpt>
      <trkpt lat="38.18185988" lon="-1.90509980">
        <ele>718.00000</ele>
        <time>2018-10-14T15:38:05Z</time>
      </trkpt>
      <trkpt lat="38.18191797" lon="-1.90513509">
        <ele>718.00000</ele>
        <time>2018-10-14T15:38:06Z</time>
      </trkpt>
      <trkpt lat="38.18228996" lon="-1.90484792">
        <ele>716.00000</ele>
        <time>2018-10-14T15:38:12Z</time>
      </trkpt>
      <trkpt lat="38.18236607" lon="-1.90450418">
        <ele>715.00000</ele>
        <time>2018-10-14T15:38:15Z</time>
      </trkpt>
      <trkpt lat="38.18238107" lon="-1.90438290">
        <ele>714.00000</ele>
        <time>2018-10-14T15:38:16Z</time>
      </trkpt>
      <trkpt lat="38.18239213" lon="-1.90425943">
        <ele>714.00000</ele>
        <time>2018-10-14T15:38:17Z</time>
      </trkpt>
      <trkpt lat="38.18240948" lon="-1.90400236">
        <ele>712.00000</ele>
        <time>2018-10-14T15:38:19Z</time>
      </trkpt>
      <trkpt lat="38.18244343" lon="-1.90346038">
        <ele>710.00000</ele>
        <time>2018-10-14T15:38:23Z</time>
      </trkpt>
      <trkpt lat="38.18243983" lon="-1.90332191">
        <ele>710.00000</ele>
        <time>2018-10-14T15:38:24Z</time>
      </trkpt>
      <trkpt lat="38.18242097" lon="-1.90318772">
        <ele>708.00000</ele>
        <time>2018-10-14T15:38:25Z</time>
      </trkpt>
      <trkpt lat="38.18238568" lon="-1.90306400">
        <ele>707.00000</ele>
        <time>2018-10-14T15:38:26Z</time>
      </trkpt>
      <trkpt lat="38.18228300" lon="-1.90285219">
        <ele>706.00000</ele>
        <time>2018-10-14T15:38:28Z</time>
      </trkpt>
      <trkpt lat="38.18218938" lon="-1.90264969">
        <ele>704.00000</ele>
        <time>2018-10-14T15:38:30Z</time>
      </trkpt>
      <trkpt lat="38.18211880" lon="-1.90244098">
        <ele>703.00000</ele>
        <time>2018-10-14T15:38:32Z</time>
      </trkpt>
      <trkpt lat="38.18189257" lon="-1.90175685">
        <ele>702.00000</ele>
        <time>2018-10-14T15:38:39Z</time>
      </trkpt>
      <trkpt lat="38.18151245" lon="-1.90123365">
        <ele>702.00000</ele>
        <time>2018-10-14T15:38:46Z</time>
      </trkpt>
      <trkpt lat="38.18137239" lon="-1.90099149">
        <ele>702.00000</ele>
        <time>2018-10-14T15:38:49Z</time>
      </trkpt>
      <trkpt lat="38.18133149" lon="-1.90090642">
        <ele>701.00000</ele>
        <time>2018-10-14T15:38:50Z</time>
      </trkpt>
      <trkpt lat="38.18129276" lon="-1.90081916">
        <ele>700.00000</ele>
        <time>2018-10-14T15:38:51Z</time>
      </trkpt>
      <trkpt lat="38.18125924" lon="-1.90072654">
        <ele>700.00000</ele>
        <time>2018-10-14T15:38:52Z</time>
      </trkpt>
      <trkpt lat="38.18121389" lon="-1.90053208">
        <ele>699.00000</ele>
        <time>2018-10-14T15:38:54Z</time>
      </trkpt>
      <trkpt lat="38.18120090" lon="-1.90043309">
        <ele>699.00000</ele>
        <time>2018-10-14T15:38:55Z</time>
      </trkpt>
      <trkpt lat="38.18119553" lon="-1.90023981">
        <ele>699.00000</ele>
        <time>2018-10-14T15:38:57Z</time>
      </trkpt>
      <trkpt lat="38.18121942" lon="-1.89950798">
        <ele>699.00000</ele>
        <time>2018-10-14T15:39:06Z</time>
      </trkpt>
      <trkpt lat="38.18124557" lon="-1.89899375">
        <ele>699.00000</ele>
        <time>2018-10-14T15:39:14Z</time>
      </trkpt>
      <trkpt lat="38.18125220" lon="-1.89885227">
        <ele>700.00000</ele>
        <time>2018-10-14T15:39:16Z</time>
      </trkpt>
      <trkpt lat="38.18125370" lon="-1.89877314">
        <ele>700.00000</ele>
        <time>2018-10-14T15:39:17Z</time>
      </trkpt>
      <trkpt lat="38.18125245" lon="-1.89860416">
        <ele>700.00000</ele>
        <time>2018-10-14T15:39:19Z</time>
      </trkpt>
      <trkpt lat="38.18125655" lon="-1.89851774">
        <ele>700.00000</ele>
        <time>2018-10-14T15:39:20Z</time>
      </trkpt>
      <trkpt lat="38.18129528" lon="-1.89806177">
        <ele>699.00000</ele>
        <time>2018-10-14T15:39:25Z</time>
      </trkpt>
      <trkpt lat="38.18132302" lon="-1.89787007">
        <ele>699.00000</ele>
        <time>2018-10-14T15:39:27Z</time>
      </trkpt>
      <trkpt lat="38.18139033" lon="-1.89757905">
        <ele>698.00000</ele>
        <time>2018-10-14T15:39:30Z</time>
      </trkpt>
      <trkpt lat="38.18150633" lon="-1.89717052">
        <ele>697.00000</ele>
        <time>2018-10-14T15:39:34Z</time>
      </trkpt>
      <trkpt lat="38.18156803" lon="-1.89695586">
        <ele>697.00000</ele>
        <time>2018-10-14T15:39:36Z</time>
      </trkpt>
      <trkpt lat="38.18159812" lon="-1.89684648">
        <ele>697.00000</ele>
        <time>2018-10-14T15:39:37Z</time>
      </trkpt>
      <trkpt lat="38.18168755" lon="-1.89651313">
        <ele>696.00000</ele>
        <time>2018-10-14T15:39:40Z</time>
      </trkpt>
      <trkpt lat="38.18171831" lon="-1.89639955">
        <ele>696.00000</ele>
        <time>2018-10-14T15:39:41Z</time>
      </trkpt>
      <trkpt lat="38.18178839" lon="-1.89617265">
        <ele>695.00000</ele>
        <time>2018-10-14T15:39:43Z</time>
      </trkpt>
      <trkpt lat="38.18182367" lon="-1.89606109">
        <ele>694.00000</ele>
        <time>2018-10-14T15:39:44Z</time>
      </trkpt>
      <trkpt lat="38.18190355" lon="-1.89584534">
        <ele>692.00000</ele>
        <time>2018-10-14T15:39:46Z</time>
      </trkpt>
      <trkpt lat="38.18201134" lon="-1.89565273">
        <ele>691.00000</ele>
        <time>2018-10-14T15:39:48Z</time>
      </trkpt>
      <trkpt lat="38.18215333" lon="-1.89550135">
        <ele>690.00000</ele>
        <time>2018-10-14T15:39:50Z</time>
      </trkpt>
      <trkpt lat="38.18222668" lon="-1.89542977">
        <ele>690.00000</ele>
        <time>2018-10-14T15:39:51Z</time>
      </trkpt>
      <trkpt lat="38.18260051" lon="-1.89508678">
        <ele>689.00000</ele>
        <time>2018-10-14T15:39:56Z</time>
      </trkpt>
      <trkpt lat="38.18282305" lon="-1.89488402">
        <ele>688.00000</ele>
        <time>2018-10-14T15:39:59Z</time>
      </trkpt>
      <trkpt lat="38.18319227" lon="-1.89454908">
        <ele>687.00000</ele>
        <time>2018-10-14T15:40:04Z</time>
      </trkpt>
      <trkpt lat="38.18333795" lon="-1.89441815">
        <ele>687.00000</ele>
        <time>2018-10-14T15:40:06Z</time>
      </trkpt>
      <trkpt lat="38.18348220" lon="-1.89429410">
        <ele>686.00000</ele>
        <time>2018-10-14T15:40:08Z</time>
      </trkpt>
      <trkpt lat="38.18369418" lon="-1.89411322">
        <ele>686.00000</ele>
        <time>2018-10-14T15:40:11Z</time>
      </trkpt>
      <trkpt lat="38.18403742" lon="-1.89382044">
        <ele>685.00000</ele>
        <time>2018-10-14T15:40:16Z</time>
      </trkpt>
      <trkpt lat="38.18410489" lon="-1.89376336">
        <ele>685.00000</ele>
        <time>2018-10-14T15:40:17Z</time>
      </trkpt>
      <trkpt lat="38.18455525" lon="-1.89336421">
        <ele>684.00000</ele>
        <time>2018-10-14T15:40:24Z</time>
      </trkpt>
      <trkpt lat="38.18504584" lon="-1.89295819">
        <ele>684.00000</ele>
        <time>2018-10-14T15:40:33Z</time>
      </trkpt>
      <trkpt lat="38.18550760" lon="-1.89251320">
        <ele>685.00000</ele>
        <time>2018-10-14T15:40:43Z</time>
      </trkpt>
      <trkpt lat="38.18598286" lon="-1.89208002">
        <ele>684.00000</ele>
        <time>2018-10-14T15:40:51Z</time>
      </trkpt>
      <trkpt lat="38.18604824" lon="-1.89202755">
        <ele>683.00000</ele>
        <time>2018-10-14T15:40:52Z</time>
      </trkpt>
      <trkpt lat="38.18623079" lon="-1.89186486">
        <ele>682.00000</ele>
        <time>2018-10-14T15:40:55Z</time>
      </trkpt>
      <trkpt lat="38.18635434" lon="-1.89175070">
        <ele>681.00000</ele>
        <time>2018-10-14T15:40:57Z</time>
      </trkpt>
      <trkpt lat="38.18648460" lon="-1.89163813">
        <ele>681.00000</ele>
        <time>2018-10-14T15:40:59Z</time>
      </trkpt>
      <trkpt lat="38.18675760" lon="-1.89141090">
        <ele>680.00000</ele>
        <time>2018-10-14T15:41:03Z</time>
      </trkpt>
      <trkpt lat="38.18696513" lon="-1.89124376">
        <ele>679.00000</ele>
        <time>2018-10-14T15:41:06Z</time>
      </trkpt>
      <trkpt lat="38.18710402" lon="-1.89115181">
        <ele>678.00000</ele>
        <time>2018-10-14T15:41:08Z</time>
      </trkpt>
      <trkpt lat="38.18721475" lon="-1.89104888">
        <ele>677.00000</ele>
        <time>2018-10-14T15:41:10Z</time>
      </trkpt>
      <trkpt lat="38.18735791" lon="-1.89093405">
        <ele>677.00000</ele>
        <time>2018-10-14T15:41:13Z</time>
      </trkpt>
      <trkpt lat="38.18742421" lon="-1.89086758">
        <ele>676.00000</ele>
        <time>2018-10-14T15:41:15Z</time>
      </trkpt>
      <trkpt lat="38.18756838" lon="-1.89078929">
        <ele>676.00000</ele>
        <time>2018-10-14T15:41:20Z</time>
      </trkpt>
      <trkpt lat="38.18763409" lon="-1.89077387">
        <ele>676.00000</ele>
        <time>2018-10-14T15:41:22Z</time>
      </trkpt>
      <trkpt lat="38.18772914" lon="-1.89075660">
        <ele>676.00000</ele>
        <time>2018-10-14T15:41:25Z</time>
      </trkpt>
      <trkpt lat="38.18780919" lon="-1.89075744">
        <ele>676.00000</ele>
        <time>2018-10-14T15:41:28Z</time>
      </trkpt>
      <trkpt lat="38.18792629" lon="-1.89075535">
        <ele>676.00000</ele>
        <time>2018-10-14T15:41:32Z</time>
      </trkpt>
      <trkpt lat="38.18803391" lon="-1.89075375">
        <ele>676.00000</ele>
        <time>2018-10-14T15:41:35Z</time>
      </trkpt>
      <trkpt lat="38.18838846" lon="-1.89072433">
        <ele>677.00000</ele>
        <time>2018-10-14T15:41:44Z</time>
      </trkpt>
      <trkpt lat="38.18855300" lon="-1.89076390">
        <ele>678.00000</ele>
        <time>2018-10-14T15:41:49Z</time>
      </trkpt>
      <trkpt lat="38.18861419" lon="-1.89081159">
        <ele>678.00000</ele>
        <time>2018-10-14T15:41:52Z</time>
      </trkpt>
      <trkpt lat="38.18866607" lon="-1.89096288">
        <ele>678.00000</ele>
        <time>2018-10-14T15:41:56Z</time>
      </trkpt>
      <trkpt lat="38.18866507" lon="-1.89106816">
        <ele>679.00000</ele>
        <time>2018-10-14T15:41:59Z</time>
      </trkpt>
      <trkpt lat="38.18867186" lon="-1.89115516">
        <ele>680.00000</ele>
        <time>2018-10-14T15:42:02Z</time>
      </trkpt>
      <trkpt lat="38.18867848" lon="-1.89127217">
        <ele>681.00000</ele>
        <time>2018-10-14T15:42:07Z</time>
      </trkpt>
      <trkpt lat="38.18867714" lon="-1.89129774">
        <ele>682.00000</ele>
        <time>2018-10-14T15:42:08Z</time>
      </trkpt>
      <trkpt lat="38.18873665" lon="-1.89149874">
        <ele>683.00000</ele>
        <time>2018-10-14T15:42:15Z</time>
      </trkpt>
      <trkpt lat="38.18876473" lon="-1.89165053">
        <ele>684.00000</ele>
        <time>2018-10-14T15:42:19Z</time>
      </trkpt>
      <trkpt lat="38.18879440" lon="-1.89200584">
        <ele>685.00000</ele>
        <time>2018-10-14T15:42:28Z</time>
      </trkpt>
      <trkpt lat="38.18879071" lon="-1.89225621">
        <ele>686.00000</ele>
        <time>2018-10-14T15:42:35Z</time>
      </trkpt>
      <trkpt lat="38.18891317" lon="-1.89274077">
        <ele>687.00000</ele>
        <time>2018-10-14T15:42:46Z</time>
      </trkpt>
      <trkpt lat="38.18896170" lon="-1.89298745">
        <ele>689.00000</ele>
        <time>2018-10-14T15:42:53Z</time>
      </trkpt>
      <trkpt lat="38.18895977" lon="-1.89312231">
        <ele>690.00000</ele>
        <time>2018-10-14T15:42:58Z</time>
      </trkpt>
      <trkpt lat="38.18897059" lon="-1.89322985">
        <ele>690.00000</ele>
        <time>2018-10-14T15:43:02Z</time>
      </trkpt>
      <trkpt lat="38.18896665" lon="-1.89329858">
        <ele>690.00000</ele>
        <time>2018-10-14T15:43:04Z</time>
      </trkpt>
      <trkpt lat="38.18900185" lon="-1.89342197">
        <ele>691.00000</ele>
        <time>2018-10-14T15:43:09Z</time>
      </trkpt>
      <trkpt lat="38.18929840" lon="-1.89347536">
        <ele>691.00000</ele>
        <time>2018-10-14T15:43:19Z</time>
      </trkpt>
      <trkpt lat="38.18985044" lon="-1.89358969">
        <ele>692.00000</ele>
        <time>2018-10-14T15:43:32Z</time>
      </trkpt>
      <trkpt lat="38.18987659" lon="-1.89359203">
        <ele>693.00000</ele>
        <time>2018-10-14T15:43:33Z</time>
      </trkpt>
      <trkpt lat="38.18998890" lon="-1.89361307">
        <ele>694.00000</ele>
        <time>2018-10-14T15:43:38Z</time>
      </trkpt>
      <trkpt lat="38.19016979" lon="-1.89367963">
        <ele>694.00000</ele>
        <time>2018-10-14T15:43:43Z</time>
      </trkpt>
      <trkpt lat="38.19037581" lon="-1.89388766">
        <ele>694.00000</ele>
        <time>2018-10-14T15:43:50Z</time>
      </trkpt>
      <trkpt lat="38.19043742" lon="-1.89405228">
        <ele>695.00000</ele>
        <time>2018-10-14T15:43:54Z</time>
      </trkpt>
      <trkpt lat="38.19069751" lon="-1.89405446">
        <ele>696.00000</ele>
        <time>2018-10-14T15:44:02Z</time>
      </trkpt>
      <trkpt lat="38.19078778" lon="-1.89391742">
        <ele>697.00000</ele>
        <time>2018-10-14T15:44:08Z</time>
      </trkpt>
      <trkpt lat="38.19082902" lon="-1.89378147">
        <ele>698.00000</ele>
        <time>2018-10-14T15:44:12Z</time>
      </trkpt>
      <trkpt lat="38.19086515" lon="-1.89359916">
        <ele>699.00000</ele>
        <time>2018-10-14T15:44:18Z</time>
      </trkpt>
      <trkpt lat="38.19089080" lon="-1.89349967">
        <ele>699.00000</ele>
        <time>2018-10-14T15:44:21Z</time>
      </trkpt>
      <trkpt lat="38.19091401" lon="-1.89320303">
        <ele>699.00000</ele>
        <time>2018-10-14T15:44:27Z</time>
      </trkpt>
      <trkpt lat="38.19092139" lon="-1.89311108">
        <ele>699.00000</ele>
        <time>2018-10-14T15:44:29Z</time>
      </trkpt>
    </trkseg>
  </trk>
</gpx>
